<?xml version="1.0" encoding="UTF-8"?>
<gpx version="1.1" creator="https://www.youtrack.es" xsi:schemaLocation="http://www.topografix.com/GPX/1/1 http://www.topografix.com/GPX/1/1/gpx.xsd http://www.garmin.com/xmlschemas/GpxExtensions/v3 http://www.garmin.com/xmlschemas/GpxExtensionsv3.xsd http://www.garmin.com/xmlschemas/TrackPointExtension/v1 http://www.garmin.com/xmlschemas/TrackPointExtensionv1.xsd" xmlns:gpxtpx="http://www.garmin.com/xmlschemas/TrackPointExtension/v1" xmlns:gpxx="http://www.garmin.com/xmlschemas/GpxExtensions/v3" xmlns:xsi="http://www.w3.org/2001/XMLSchema-instance">
  <metadata>
    <author>
      <name>Alejandro Lecea</name>
      <email id="alex.lecea" domain="gmail.com"/>
    </author>
    <link href="https://www.youtrack.es">
      <text>YouTrack.es</text>
    </link>
    <time>2026-05-07T22:27:37Z</time>
  </metadata>
  <trk>
    <src>https://www.youtrack.es</src>
    <link href="https://www.youtrack.es/ruta/39853-etapa-1">
      <text>YouTrack.es</text>
    </link>
    <trkseg>
      <trkpt lat="41.374924" lon="2.148608">
        <ele>22.028</ele>
        <time>2016-10-17T21:08:37Z</time>
      </trkpt>
      <trkpt lat="41.373266" lon="2.146754">
        <ele>35.089</ele>
        <time>2016-10-17T21:08:57Z</time>
      </trkpt>
      <trkpt lat="41.371640" lon="2.144759">
        <ele>37.017</ele>
        <time>2016-10-17T21:09:17Z</time>
      </trkpt>
      <trkpt lat="41.370223" lon="2.142613">
        <ele>27.009</ele>
        <time>2016-10-17T21:09:37Z</time>
      </trkpt>
      <trkpt lat="41.368709" lon="2.140725">
        <ele>30.023</ele>
        <time>2016-10-17T21:09:57Z</time>
      </trkpt>
      <trkpt lat="41.367179" lon="2.138772">
        <ele>24.054</ele>
        <time>2016-10-17T21:10:17Z</time>
      </trkpt>
      <trkpt lat="41.366438" lon="2.137742">
        <ele>26.025</ele>
        <time>2016-10-17T21:10:37Z</time>
      </trkpt>
      <trkpt lat="41.366551" lon="2.136562">
        <ele>18.059</ele>
        <time>2016-10-17T21:10:57Z</time>
      </trkpt>
      <trkpt lat="41.366358" lon="2.135897">
        <ele>14.030</ele>
        <time>2016-10-17T21:11:17Z</time>
      </trkpt>
      <trkpt lat="41.365665" lon="2.133300">
        <ele>8.086</ele>
        <time>2016-10-17T21:11:37Z</time>
      </trkpt>
      <trkpt lat="41.365070" lon="2.130940">
        <ele>10.051</ele>
        <time>2016-10-17T21:11:57Z</time>
      </trkpt>
      <trkpt lat="41.364667" lon="2.128730">
        <ele>14.032</ele>
        <time>2016-10-17T21:12:17Z</time>
      </trkpt>
      <trkpt lat="41.364522" lon="2.127678">
        <ele>13.098</ele>
        <time>2016-10-17T21:12:37Z</time>
      </trkpt>
      <trkpt lat="41.364570" lon="2.126606">
        <ele>14.072</ele>
        <time>2016-10-17T21:12:57Z</time>
      </trkpt>
      <trkpt lat="41.364941" lon="2.125189">
        <ele>13.013</ele>
        <time>2016-10-17T21:13:17Z</time>
      </trkpt>
      <trkpt lat="41.365182" lon="2.124267">
        <ele>11.014</ele>
        <time>2016-10-17T21:13:37Z</time>
      </trkpt>
      <trkpt lat="41.365263" lon="2.123730">
        <ele>13.009</ele>
        <time>2016-10-17T21:13:57Z</time>
      </trkpt>
      <trkpt lat="41.365247" lon="2.123129">
        <ele>14.038</ele>
        <time>2016-10-17T21:14:17Z</time>
      </trkpt>
      <trkpt lat="41.365037" lon="2.122357">
        <ele>15.049</ele>
        <time>2016-10-17T21:14:37Z</time>
      </trkpt>
      <trkpt lat="41.364748" lon="2.121670">
        <ele>17.060</ele>
        <time>2016-10-17T21:14:57Z</time>
      </trkpt>
      <trkpt lat="41.363894" lon="2.119246">
        <ele>17.044</ele>
        <time>2016-10-17T21:15:17Z</time>
      </trkpt>
      <trkpt lat="41.363008" lon="2.116671">
        <ele>15.045</ele>
        <time>2016-10-17T21:15:37Z</time>
      </trkpt>
      <trkpt lat="41.362139" lon="2.114074">
        <ele>9.071</ele>
        <time>2016-10-17T21:15:57Z</time>
      </trkpt>
      <trkpt lat="41.361124" lon="2.111564">
        <ele>13.036</ele>
        <time>2016-10-17T21:16:17Z</time>
      </trkpt>
      <trkpt lat="41.360174" lon="2.108989">
        <ele>11.037</ele>
        <time>2016-10-17T21:16:37Z</time>
      </trkpt>
      <trkpt lat="41.359320" lon="2.106349">
        <ele>11.083</ele>
        <time>2016-10-17T21:16:57Z</time>
      </trkpt>
      <trkpt lat="41.358370" lon="2.103817">
        <ele>9.038</ele>
        <time>2016-10-17T21:17:17Z</time>
      </trkpt>
      <trkpt lat="41.357339" lon="2.101307">
        <ele>17.070</ele>
        <time>2016-10-17T21:17:37Z</time>
      </trkpt>
      <trkpt lat="41.356292" lon="2.098904">
        <ele>18.017</ele>
        <time>2016-10-17T21:17:57Z</time>
      </trkpt>
      <trkpt lat="41.355261" lon="2.096479">
        <ele>9.009</ele>
        <time>2016-10-17T21:18:17Z</time>
      </trkpt>
      <trkpt lat="41.354794" lon="2.094719">
        <ele>5.024</ele>
        <time>2016-10-17T21:18:37Z</time>
      </trkpt>
      <trkpt lat="41.354649" lon="2.094247">
        <ele>5.095</ele>
        <time>2016-10-17T21:18:57Z</time>
      </trkpt>
      <trkpt lat="41.354537" lon="2.093711">
        <ele>5.096</ele>
        <time>2016-10-17T21:19:17Z</time>
      </trkpt>
      <trkpt lat="41.354408" lon="2.093303">
        <ele>6.090</ele>
        <time>2016-10-17T21:19:37Z</time>
      </trkpt>
      <trkpt lat="41.354279" lon="2.092531">
        <ele>6.061</ele>
        <time>2016-10-17T21:19:57Z</time>
      </trkpt>
      <trkpt lat="41.354279" lon="2.092187">
        <ele>6.047</ele>
        <time>2016-10-17T21:20:17Z</time>
      </trkpt>
      <trkpt lat="41.354198" lon="2.091844">
        <ele>6.012</ele>
        <time>2016-10-17T21:20:37Z</time>
      </trkpt>
      <trkpt lat="41.353522" lon="2.090085">
        <ele>7.013</ele>
        <time>2016-10-17T21:20:57Z</time>
      </trkpt>
      <trkpt lat="41.354134" lon="2.089548">
        <ele>8.059</ele>
        <time>2016-10-17T21:21:17Z</time>
      </trkpt>
      <trkpt lat="41.353683" lon="2.088239">
        <ele>9.045</ele>
        <time>2016-10-17T21:21:37Z</time>
      </trkpt>
      <trkpt lat="41.353441" lon="2.087724">
        <ele>11.047</ele>
        <time>2016-10-17T21:21:57Z</time>
      </trkpt>
      <trkpt lat="41.353248" lon="2.086544">
        <ele>13.011</ele>
        <time>2016-10-17T21:22:17Z</time>
      </trkpt>
      <trkpt lat="41.352845" lon="2.083840">
        <ele>5.009</ele>
        <time>2016-10-17T21:22:37Z</time>
      </trkpt>
      <trkpt lat="41.352580" lon="2.082285">
        <ele>4.025</ele>
        <time>2016-10-17T21:22:57Z</time>
      </trkpt>
      <trkpt lat="41.352362" lon="2.080472">
        <ele>7.086</ele>
        <time>2016-10-17T21:23:17Z</time>
      </trkpt>
      <trkpt lat="41.352072" lon="2.078208">
        <ele>8.017</ele>
        <time>2016-10-17T21:23:37Z</time>
      </trkpt>
      <trkpt lat="41.351943" lon="2.077146">
        <ele>13.011</ele>
        <time>2016-10-17T21:23:57Z</time>
      </trkpt>
      <trkpt lat="41.351621" lon="2.074442">
        <ele>10.092</ele>
        <time>2016-10-17T21:24:17Z</time>
      </trkpt>
      <trkpt lat="41.351508" lon="2.073669">
        <ele>9.048</ele>
        <time>2016-10-17T21:24:37Z</time>
      </trkpt>
      <trkpt lat="41.351396" lon="2.073122">
        <ele>9.023</ele>
        <time>2016-10-17T21:24:57Z</time>
      </trkpt>
      <trkpt lat="41.351291" lon="2.072661">
        <ele>10.054</ele>
        <time>2016-10-17T21:25:17Z</time>
      </trkpt>
      <trkpt lat="41.351500" lon="2.071288">
        <ele>14.090</ele>
        <time>2016-10-17T21:25:37Z</time>
      </trkpt>
      <trkpt lat="41.351573" lon="2.070665">
        <ele>14.056</ele>
        <time>2016-10-17T21:25:57Z</time>
      </trkpt>
      <trkpt lat="41.351452" lon="2.070515">
        <ele>14.059</ele>
        <time>2016-10-17T21:26:17Z</time>
      </trkpt>
      <trkpt lat="41.350518" lon="2.070333">
        <ele>15.014</ele>
        <time>2016-10-17T21:26:37Z</time>
      </trkpt>
      <trkpt lat="41.350236" lon="2.070172">
        <ele>14.009</ele>
        <time>2016-10-17T21:26:57Z</time>
      </trkpt>
      <trkpt lat="41.348174" lon="2.069614">
        <ele>5.066</ele>
        <time>2016-10-17T21:27:17Z</time>
      </trkpt>
      <trkpt lat="41.347683" lon="2.069571">
        <ele>5.057</ele>
        <time>2016-10-17T21:27:37Z</time>
      </trkpt>
      <trkpt lat="41.347441" lon="2.069517">
        <ele>5.088</ele>
        <time>2016-10-17T21:27:57Z</time>
      </trkpt>
      <trkpt lat="41.346491" lon="2.068938">
        <ele>4.072</ele>
        <time>2016-10-17T21:28:17Z</time>
      </trkpt>
      <trkpt lat="41.346491" lon="2.068841">
        <ele>4.023</ele>
        <time>2016-10-17T21:28:37Z</time>
      </trkpt>
      <trkpt lat="41.345717" lon="2.068402">
        <ele>4.019</ele>
        <time>2016-10-17T21:28:57Z</time>
      </trkpt>
      <trkpt lat="41.344936" lon="2.068133">
        <ele>4.034</ele>
        <time>2016-10-17T21:29:17Z</time>
      </trkpt>
      <trkpt lat="41.344437" lon="2.068112">
        <ele>4.015</ele>
        <time>2016-10-17T21:29:37Z</time>
      </trkpt>
      <trkpt lat="41.344074" lon="2.068101">
        <ele>4.051</ele>
        <time>2016-10-17T21:29:57Z</time>
      </trkpt>
      <trkpt lat="41.344364" lon="2.067157">
        <ele>4.034</ele>
        <time>2016-10-17T21:30:17Z</time>
      </trkpt>
      <trkpt lat="41.345073" lon="2.065129">
        <ele>5.055</ele>
        <time>2016-10-17T21:30:37Z</time>
      </trkpt>
      <trkpt lat="41.345935" lon="2.062469">
        <ele>4.010</ele>
        <time>2016-10-17T21:30:57Z</time>
      </trkpt>
      <trkpt lat="41.346491" lon="2.060623">
        <ele>5.009</ele>
        <time>2016-10-17T21:31:17Z</time>
      </trkpt>
      <trkpt lat="41.346869" lon="2.058789">
        <ele>4.054</ele>
        <time>2016-10-17T21:31:37Z</time>
      </trkpt>
      <trkpt lat="41.347054" lon="2.057683">
        <ele>4.015</ele>
        <time>2016-10-17T21:31:57Z</time>
      </trkpt>
      <trkpt lat="41.347071" lon="2.056772">
        <ele>5.026</ele>
        <time>2016-10-17T21:32:17Z</time>
      </trkpt>
      <trkpt lat="41.347216" lon="2.054894">
        <ele>4.080</ele>
        <time>2016-10-17T21:32:37Z</time>
      </trkpt>
      <trkpt lat="41.347159" lon="2.053499">
        <ele>4.061</ele>
        <time>2016-10-17T21:32:57Z</time>
      </trkpt>
      <trkpt lat="41.347087" lon="2.052909">
        <ele>5.037</ele>
        <time>2016-10-17T21:33:17Z</time>
      </trkpt>
      <trkpt lat="41.347288" lon="2.052705">
        <ele>5.012</ele>
        <time>2016-10-17T21:33:37Z</time>
      </trkpt>
      <trkpt lat="41.347409" lon="2.052448">
        <ele>5.083</ele>
        <time>2016-10-17T21:33:57Z</time>
      </trkpt>
      <trkpt lat="41.347441" lon="2.052051">
        <ele>6.089</ele>
        <time>2016-10-17T21:34:17Z</time>
      </trkpt>
      <trkpt lat="41.347272" lon="2.051117">
        <ele>7.029</ele>
        <time>2016-10-17T21:34:37Z</time>
      </trkpt>
      <trkpt lat="41.346950" lon="2.049358">
        <ele>5.000</ele>
        <time>2016-10-17T21:34:57Z</time>
      </trkpt>
      <trkpt lat="41.347416" lon="2.047502">
        <ele>6.020</ele>
        <time>2016-10-17T21:35:17Z</time>
      </trkpt>
      <trkpt lat="41.347661" lon="2.047169">
        <ele>6.009</ele>
        <time>2016-10-17T21:35:37Z</time>
      </trkpt>
      <trkpt lat="41.348470" lon="2.045882">
        <ele>7.033</ele>
        <time>2016-10-17T21:35:57Z</time>
      </trkpt>
      <trkpt lat="41.349609" lon="2.045115">
        <ele>5.044</ele>
        <time>2016-10-17T21:36:17Z</time>
      </trkpt>
      <trkpt lat="41.350053" lon="2.044879">
        <ele>5.065</ele>
        <time>2016-10-17T21:36:37Z</time>
      </trkpt>
      <trkpt lat="41.350332" lon="2.044889">
        <ele>5.089</ele>
        <time>2016-10-17T21:36:57Z</time>
      </trkpt>
      <trkpt lat="41.350480" lon="2.044734">
        <ele>5.010</ele>
        <time>2016-10-17T21:37:17Z</time>
      </trkpt>
      <trkpt lat="41.351909" lon="2.044535">
        <ele>6.056</ele>
        <time>2016-10-17T21:37:37Z</time>
      </trkpt>
      <trkpt lat="41.353390" lon="2.044675">
        <ele>8.021</ele>
        <time>2016-10-17T21:37:57Z</time>
      </trkpt>
      <trkpt lat="41.354698" lon="2.045088">
        <ele>9.012</ele>
        <time>2016-10-17T21:38:17Z</time>
      </trkpt>
      <trkpt lat="41.355406" lon="2.045388">
        <ele>12.068</ele>
        <time>2016-10-17T21:38:37Z</time>
      </trkpt>
      <trkpt lat="41.356679" lon="2.046332">
        <ele>13.045</ele>
        <time>2016-10-17T21:38:57Z</time>
      </trkpt>
      <trkpt lat="41.357710" lon="2.046998">
        <ele>7.047</ele>
        <time>2016-10-17T21:39:17Z</time>
      </trkpt>
      <trkpt lat="41.359062" lon="2.047276">
        <ele>8.011</ele>
        <time>2016-10-17T21:39:37Z</time>
      </trkpt>
      <trkpt lat="41.360270" lon="2.047491">
        <ele>6.009</ele>
        <time>2016-10-17T21:39:57Z</time>
      </trkpt>
      <trkpt lat="41.361446" lon="2.047427">
        <ele>7.025</ele>
        <time>2016-10-17T21:40:17Z</time>
      </trkpt>
      <trkpt lat="41.362445" lon="2.047126">
        <ele>9.036</ele>
        <time>2016-10-17T21:40:37Z</time>
      </trkpt>
      <trkpt lat="41.364136" lon="2.045367">
        <ele>7.087</ele>
        <time>2016-10-17T21:40:57Z</time>
      </trkpt>
      <trkpt lat="41.365182" lon="2.044401">
        <ele>6.021</ele>
        <time>2016-10-17T21:41:17Z</time>
      </trkpt>
      <trkpt lat="41.365617" lon="2.043393">
        <ele>6.092</ele>
        <time>2016-10-17T21:41:37Z</time>
      </trkpt>
      <trkpt lat="41.366084" lon="2.043092">
        <ele>5.038</ele>
        <time>2016-10-17T21:41:57Z</time>
      </trkpt>
      <trkpt lat="41.366954" lon="2.041118">
        <ele>5.043</ele>
        <time>2016-10-17T21:42:17Z</time>
      </trkpt>
      <trkpt lat="41.367083" lon="2.040217">
        <ele>6.064</ele>
        <time>2016-10-17T21:42:37Z</time>
      </trkpt>
      <trkpt lat="41.367356" lon="2.039852">
        <ele>6.070</ele>
        <time>2016-10-17T21:42:57Z</time>
      </trkpt>
      <trkpt lat="41.367550" lon="2.039208">
        <ele>6.034</ele>
        <time>2016-10-17T21:43:17Z</time>
      </trkpt>
      <trkpt lat="41.367517" lon="2.038350">
        <ele>6.055</ele>
        <time>2016-10-17T21:43:37Z</time>
      </trkpt>
      <trkpt lat="41.367839" lon="2.037363">
        <ele>7.010</ele>
        <time>2016-10-17T21:43:57Z</time>
      </trkpt>
      <trkpt lat="41.369289" lon="2.035389">
        <ele>8.009</ele>
        <time>2016-10-17T21:44:17Z</time>
      </trkpt>
      <trkpt lat="41.369643" lon="2.034616">
        <ele>8.084</ele>
        <time>2016-10-17T21:44:37Z</time>
      </trkpt>
      <trkpt lat="41.370400" lon="2.034252">
        <ele>8.015</ele>
        <time>2016-10-17T21:44:57Z</time>
      </trkpt>
      <trkpt lat="41.372171" lon="2.032642">
        <ele>8.046</ele>
        <time>2016-10-17T21:45:17Z</time>
      </trkpt>
      <trkpt lat="41.373798" lon="2.031376">
        <ele>9.070</ele>
        <time>2016-10-17T21:45:37Z</time>
      </trkpt>
      <trkpt lat="41.374087" lon="2.030711">
        <ele>10.091</ele>
        <time>2016-10-17T21:45:57Z</time>
      </trkpt>
      <trkpt lat="41.374860" lon="2.030475">
        <ele>10.037</ele>
        <time>2016-10-17T21:46:17Z</time>
      </trkpt>
      <trkpt lat="41.375762" lon="2.029788">
        <ele>9.042</ele>
        <time>2016-10-17T21:46:37Z</time>
      </trkpt>
      <trkpt lat="41.377630" lon="2.028265">
        <ele>9.093</ele>
        <time>2016-10-17T21:46:57Z</time>
      </trkpt>
      <trkpt lat="41.378773" lon="2.027535">
        <ele>9.069</ele>
        <time>2016-10-17T21:47:17Z</time>
      </trkpt>
      <trkpt lat="41.378966" lon="2.027278">
        <ele>10.083</ele>
        <time>2016-10-17T21:47:37Z</time>
      </trkpt>
      <trkpt lat="41.379095" lon="2.026978">
        <ele>11.025</ele>
        <time>2016-10-17T21:47:57Z</time>
      </trkpt>
      <trkpt lat="41.379997" lon="2.026978">
        <ele>11.017</ele>
        <time>2016-10-17T21:48:17Z</time>
      </trkpt>
      <trkpt lat="41.381913" lon="2.026334">
        <ele>10.009</ele>
        <time>2016-10-17T21:48:37Z</time>
      </trkpt>
      <trkpt lat="41.382138" lon="2.026055">
        <ele>11.069</ele>
        <time>2016-10-17T21:48:57Z</time>
      </trkpt>
      <trkpt lat="41.383007" lon="2.025905">
        <ele>10.070</ele>
        <time>2016-10-17T21:49:17Z</time>
      </trkpt>
      <trkpt lat="41.384746" lon="2.024896">
        <ele>9.021</ele>
        <time>2016-10-17T21:49:37Z</time>
      </trkpt>
      <trkpt lat="41.385696" lon="2.024188">
        <ele>9.095</ele>
        <time>2016-10-17T21:49:57Z</time>
      </trkpt>
      <trkpt lat="41.385776" lon="2.023823">
        <ele>9.076</ele>
        <time>2016-10-17T21:50:17Z</time>
      </trkpt>
      <trkpt lat="41.386018" lon="2.023287">
        <ele>9.052</ele>
        <time>2016-10-17T21:50:37Z</time>
      </trkpt>
      <trkpt lat="41.386324" lon="2.022622">
        <ele>10.047</ele>
        <time>2016-10-17T21:50:57Z</time>
      </trkpt>
      <trkpt lat="41.387386" lon="2.021978">
        <ele>9.048</ele>
        <time>2016-10-17T21:51:17Z</time>
      </trkpt>
      <trkpt lat="41.387467" lon="2.021570">
        <ele>10.064</ele>
        <time>2016-10-17T21:51:37Z</time>
      </trkpt>
      <trkpt lat="41.387467" lon="2.021313">
        <ele>10.073</ele>
        <time>2016-10-17T21:51:57Z</time>
      </trkpt>
      <trkpt lat="41.387618" lon="2.021136">
        <ele>11.085</ele>
        <time>2016-10-17T21:52:17Z</time>
      </trkpt>
      <trkpt lat="41.387800" lon="2.021474">
        <ele>11.013</ele>
        <time>2016-10-17T21:52:37Z</time>
      </trkpt>
      <trkpt lat="41.387800" lon="2.021581">
        <ele>10.009</ele>
        <time>2016-10-17T21:52:57Z</time>
      </trkpt>
      <trkpt lat="41.387977" lon="2.021774">
        <ele>10.088</ele>
        <time>2016-10-17T21:53:17Z</time>
      </trkpt>
      <trkpt lat="41.388432" lon="2.021656">
        <ele>11.049</ele>
        <time>2016-10-17T21:53:37Z</time>
      </trkpt>
      <trkpt lat="41.388586" lon="2.021420">
        <ele>12.030</ele>
        <time>2016-10-17T21:53:57Z</time>
      </trkpt>
      <trkpt lat="41.388973" lon="2.021098">
        <ele>12.024</ele>
        <time>2016-10-17T21:54:17Z</time>
      </trkpt>
      <trkpt lat="41.389348" lon="2.021200">
        <ele>12.025</ele>
        <time>2016-10-17T21:54:37Z</time>
      </trkpt>
      <trkpt lat="41.390695" lon="2.020508">
        <ele>12.041</ele>
        <time>2016-10-17T21:54:57Z</time>
      </trkpt>
      <trkpt lat="41.392755" lon="2.019939">
        <ele>12.086</ele>
        <time>2016-10-17T21:55:17Z</time>
      </trkpt>
      <trkpt lat="41.394832" lon="2.018963">
        <ele>12.097</ele>
        <time>2016-10-17T21:55:37Z</time>
      </trkpt>
      <trkpt lat="41.396353" lon="2.018201">
        <ele>12.013</ele>
        <time>2016-10-17T21:55:57Z</time>
      </trkpt>
      <trkpt lat="41.398373" lon="2.017086">
        <ele>13.011</ele>
        <time>2016-10-17T21:56:17Z</time>
      </trkpt>
      <trkpt lat="41.400328" lon="2.015755">
        <ele>13.021</ele>
        <time>2016-10-17T21:56:37Z</time>
      </trkpt>
      <trkpt lat="41.402373" lon="2.014586">
        <ele>12.003</ele>
        <time>2016-10-17T21:56:57Z</time>
      </trkpt>
      <trkpt lat="41.404400" lon="2.013524">
        <ele>10.009</ele>
        <time>2016-10-17T21:57:17Z</time>
      </trkpt>
      <trkpt lat="41.406002" lon="2.012644">
        <ele>10.082</ele>
        <time>2016-10-17T21:57:37Z</time>
      </trkpt>
      <trkpt lat="41.406155" lon="2.012236">
        <ele>11.013</ele>
        <time>2016-10-17T21:57:57Z</time>
      </trkpt>
      <trkpt lat="41.406163" lon="2.011882">
        <ele>11.054</ele>
        <time>2016-10-17T21:58:17Z</time>
      </trkpt>
      <trkpt lat="41.406428" lon="2.011689">
        <ele>12.058</ele>
        <time>2016-10-17T21:58:37Z</time>
      </trkpt>
      <trkpt lat="41.406790" lon="2.011828">
        <ele>11.059</ele>
        <time>2016-10-17T21:58:57Z</time>
      </trkpt>
      <trkpt lat="41.407837" lon="2.011067">
        <ele>10.095</ele>
        <time>2016-10-17T21:59:17Z</time>
      </trkpt>
      <trkpt lat="41.408223" lon="2.010841">
        <ele>11.070</ele>
        <time>2016-10-17T21:59:37Z</time>
      </trkpt>
      <trkpt lat="41.409044" lon="2.010273">
        <ele>13.011</ele>
        <time>2016-10-17T21:59:57Z</time>
      </trkpt>
      <trkpt lat="41.411063" lon="2.009243">
        <ele>13.077</ele>
        <time>2016-10-17T22:00:17Z</time>
      </trkpt>
      <trkpt lat="41.411522" lon="2.008814">
        <ele>13.058</ele>
        <time>2016-10-17T22:00:37Z</time>
      </trkpt>
      <trkpt lat="41.412021" lon="2.008642">
        <ele>14.052</ele>
        <time>2016-10-17T22:00:57Z</time>
      </trkpt>
      <trkpt lat="41.412632" lon="2.008363">
        <ele>14.017</ele>
        <time>2016-10-17T22:01:17Z</time>
      </trkpt>
      <trkpt lat="41.413711" lon="2.008009">
        <ele>15.009</ele>
        <time>2016-10-17T22:01:37Z</time>
      </trkpt>
      <trkpt lat="41.414105" lon="2.007719">
        <ele>15.076</ele>
        <time>2016-10-17T22:01:57Z</time>
      </trkpt>
      <trkpt lat="41.414378" lon="2.007387">
        <ele>15.077</ele>
        <time>2016-10-17T22:02:17Z</time>
      </trkpt>
      <trkpt lat="41.414881" lon="2.007467">
        <ele>15.068</ele>
        <time>2016-10-17T22:02:37Z</time>
      </trkpt>
      <trkpt lat="41.415667" lon="2.007188">
        <ele>14.052</ele>
        <time>2016-10-17T22:02:57Z</time>
      </trkpt>
      <trkpt lat="41.417677" lon="2.006421">
        <ele>13.043</ele>
        <time>2016-10-17T22:03:17Z</time>
      </trkpt>
      <trkpt lat="41.419286" lon="2.005906">
        <ele>14.049</ele>
        <time>2016-10-17T22:03:37Z</time>
      </trkpt>
      <trkpt lat="41.420348" lon="2.005477">
        <ele>13.064</ele>
        <time>2016-10-17T22:03:57Z</time>
      </trkpt>
      <trkpt lat="41.421442" lon="2.005091">
        <ele>14.015</ele>
        <time>2016-10-17T22:04:17Z</time>
      </trkpt>
      <trkpt lat="41.422054" lon="2.004554">
        <ele>12.041</ele>
        <time>2016-10-17T22:04:37Z</time>
      </trkpt>
      <trkpt lat="41.423180" lon="2.003868">
        <ele>12.039</ele>
        <time>2016-10-17T22:04:57Z</time>
      </trkpt>
      <trkpt lat="41.423872" lon="2.003117">
        <ele>12.001</ele>
        <time>2016-10-17T22:05:17Z</time>
      </trkpt>
      <trkpt lat="41.424226" lon="2.002666">
        <ele>13.021</ele>
        <time>2016-10-17T22:05:37Z</time>
      </trkpt>
      <trkpt lat="41.425240" lon="2.002215">
        <ele>14.009</ele>
        <time>2016-10-17T22:05:57Z</time>
      </trkpt>
      <trkpt lat="41.426301" lon="2.001636">
        <ele>14.074</ele>
        <time>2016-10-17T22:06:17Z</time>
      </trkpt>
      <trkpt lat="41.426334" lon="2.001014">
        <ele>15.055</ele>
        <time>2016-10-17T22:06:37Z</time>
      </trkpt>
      <trkpt lat="41.427315" lon="2.000091">
        <ele>16.046</ele>
        <time>2016-10-17T22:06:57Z</time>
      </trkpt>
      <trkpt lat="41.429020" lon="1.998332">
        <ele>17.050</ele>
        <time>2016-10-17T22:07:17Z</time>
      </trkpt>
      <trkpt lat="41.430922" lon="1.996745">
        <ele>15.071</ele>
        <time>2016-10-17T22:07:37Z</time>
      </trkpt>
      <trkpt lat="41.432785" lon="1.995435">
        <ele>13.057</ele>
        <time>2016-10-17T22:07:57Z</time>
      </trkpt>
      <trkpt lat="41.434732" lon="1.994276">
        <ele>15.032</ele>
        <time>2016-10-17T22:08:17Z</time>
      </trkpt>
      <trkpt lat="41.436646" lon="1.992989">
        <ele>15.073</ele>
        <time>2016-10-17T22:08:37Z</time>
      </trkpt>
      <trkpt lat="41.438078" lon="1.991808">
        <ele>15.049</ele>
        <time>2016-10-17T22:08:57Z</time>
      </trkpt>
      <trkpt lat="41.439011" lon="1.990693">
        <ele>14.089</ele>
        <time>2016-10-17T22:09:17Z</time>
      </trkpt>
      <trkpt lat="41.440426" lon="1.988482">
        <ele>13.006</ele>
        <time>2016-10-17T22:09:37Z</time>
      </trkpt>
      <trkpt lat="41.441536" lon="1.986594">
        <ele>14.026</ele>
        <time>2016-10-17T22:09:57Z</time>
      </trkpt>
      <trkpt lat="41.442196" lon="1.985929">
        <ele>14.009</ele>
        <time>2016-10-17T22:10:17Z</time>
      </trkpt>
      <trkpt lat="41.442968" lon="1.984899">
        <ele>13.019</ele>
        <time>2016-10-17T22:10:37Z</time>
      </trkpt>
      <trkpt lat="41.443410" lon="1.983987">
        <ele>14.070</ele>
        <time>2016-10-17T22:10:57Z</time>
      </trkpt>
      <trkpt lat="41.444649" lon="1.982442">
        <ele>14.051</ele>
        <time>2016-10-17T22:11:17Z</time>
      </trkpt>
      <trkpt lat="41.445203" lon="1.981605">
        <ele>14.085</ele>
        <time>2016-10-17T22:11:37Z</time>
      </trkpt>
      <trkpt lat="41.446627" lon="1.979899">
        <ele>17.066</ele>
        <time>2016-10-17T22:11:57Z</time>
      </trkpt>
      <trkpt lat="41.448444" lon="1.978301">
        <ele>17.022</ele>
        <time>2016-10-17T22:12:17Z</time>
      </trkpt>
      <trkpt lat="41.450141" lon="1.977217">
        <ele>15.047</ele>
        <time>2016-10-17T22:12:37Z</time>
      </trkpt>
      <trkpt lat="41.451203" lon="1.976756">
        <ele>13.038</ele>
        <time>2016-10-17T22:12:57Z</time>
      </trkpt>
      <trkpt lat="41.452835" lon="1.976402">
        <ele>12.014</ele>
        <time>2016-10-17T22:13:17Z</time>
      </trkpt>
      <trkpt lat="41.454339" lon="1.976134">
        <ele>10.032</ele>
        <time>2016-10-17T22:13:37Z</time>
      </trkpt>
      <trkpt lat="41.456405" lon="1.975747">
        <ele>10.092</ele>
        <time>2016-10-17T22:13:57Z</time>
      </trkpt>
      <trkpt lat="41.458528" lon="1.975200">
        <ele>10.011</ele>
        <time>2016-10-17T22:14:17Z</time>
      </trkpt>
      <trkpt lat="41.460530" lon="1.974299">
        <ele>16.009</ele>
        <time>2016-10-17T22:14:37Z</time>
      </trkpt>
      <trkpt lat="41.462299" lon="1.973205">
        <ele>16.044</ele>
        <time>2016-10-17T22:14:57Z</time>
      </trkpt>
      <trkpt lat="41.463553" lon="1.972003">
        <ele>18.085</ele>
        <time>2016-10-17T22:15:17Z</time>
      </trkpt>
      <trkpt lat="41.464759" lon="1.971016">
        <ele>19.026</ele>
        <time>2016-10-17T22:15:37Z</time>
      </trkpt>
      <trkpt lat="41.466464" lon="1.969471">
        <ele>20.030</ele>
        <time>2016-10-17T22:15:57Z</time>
      </trkpt>
      <trkpt lat="41.466753" lon="1.969213">
        <ele>20.011</ele>
        <time>2016-10-17T22:16:17Z</time>
      </trkpt>
      <trkpt lat="41.466946" lon="1.969342">
        <ele>20.097</ele>
        <time>2016-10-17T22:16:37Z</time>
      </trkpt>
      <trkpt lat="41.467838" lon="1.969965">
        <ele>21.072</ele>
        <time>2016-10-17T22:16:57Z</time>
      </trkpt>
      <trkpt lat="41.468707" lon="1.970093">
        <ele>25.023</ele>
        <time>2016-10-17T22:17:17Z</time>
      </trkpt>
      <trkpt lat="41.469044" lon="1.970007">
        <ele>28.059</ele>
        <time>2016-10-17T22:17:37Z</time>
      </trkpt>
      <trkpt lat="41.468538" lon="1.969954">
        <ele>25.055</ele>
        <time>2016-10-17T22:17:57Z</time>
      </trkpt>
      <trkpt lat="41.468294" lon="1.969932">
        <ele>23.007</ele>
        <time>2016-10-17T22:18:17Z</time>
      </trkpt>
      <trkpt lat="41.468345" lon="1.969616">
        <ele>22.017</ele>
        <time>2016-10-17T22:18:37Z</time>
      </trkpt>
      <trkpt lat="41.468595" lon="1.969396">
        <ele>23.009</ele>
        <time>2016-10-17T22:18:57Z</time>
      </trkpt>
      <trkpt lat="41.468857" lon="1.969128">
        <ele>25.046</ele>
        <time>2016-10-17T22:19:17Z</time>
      </trkpt>
      <trkpt lat="41.469050" lon="1.968913">
        <ele>26.037</ele>
        <time>2016-10-17T22:19:37Z</time>
      </trkpt>
      <trkpt lat="41.469169" lon="1.968699">
        <ele>25.098</ele>
        <time>2016-10-17T22:19:57Z</time>
      </trkpt>
      <trkpt lat="41.470355" lon="1.967690">
        <ele>22.092</ele>
        <time>2016-10-17T22:20:17Z</time>
      </trkpt>
      <trkpt lat="41.471271" lon="1.966810">
        <ele>21.033</ele>
        <time>2016-10-17T22:20:37Z</time>
      </trkpt>
      <trkpt lat="41.471978" lon="1.966145">
        <ele>19.039</ele>
        <time>2016-10-17T22:20:57Z</time>
      </trkpt>
      <trkpt lat="41.472638" lon="1.965458">
        <ele>18.084</ele>
        <time>2016-10-17T22:21:17Z</time>
      </trkpt>
      <trkpt lat="41.473409" lon="1.964750">
        <ele>19.015</ele>
        <time>2016-10-17T22:21:37Z</time>
      </trkpt>
      <trkpt lat="41.474422" lon="1.964021">
        <ele>21.041</ele>
        <time>2016-10-17T22:21:57Z</time>
      </trkpt>
      <trkpt lat="41.474808" lon="1.963205">
        <ele>22.019</ele>
        <time>2016-10-17T22:22:17Z</time>
      </trkpt>
      <trkpt lat="41.475323" lon="1.962454">
        <ele>23.009</ele>
        <time>2016-10-17T22:22:37Z</time>
      </trkpt>
      <trkpt lat="41.475966" lon="1.960158">
        <ele>27.019</ele>
        <time>2016-10-17T22:22:57Z</time>
      </trkpt>
      <trkpt lat="41.476110" lon="1.958892">
        <ele>30.009</ele>
        <time>2016-10-17T22:23:17Z</time>
      </trkpt>
      <trkpt lat="41.476030" lon="1.958227">
        <ele>29.082</ele>
        <time>2016-10-17T22:23:37Z</time>
      </trkpt>
      <trkpt lat="41.476159" lon="1.957326">
        <ele>28.033</ele>
        <time>2016-10-17T22:23:57Z</time>
      </trkpt>
      <trkpt lat="41.476175" lon="1.956575">
        <ele>29.064</ele>
        <time>2016-10-17T22:24:17Z</time>
      </trkpt>
      <trkpt lat="41.476078" lon="1.956275">
        <ele>30.028</ele>
        <time>2016-10-17T22:24:37Z</time>
      </trkpt>
      <trkpt lat="41.475789" lon="1.955588">
        <ele>29.059</ele>
        <time>2016-10-17T22:24:57Z</time>
      </trkpt>
      <trkpt lat="41.474840" lon="1.953807">
        <ele>37.045</ele>
        <time>2016-10-17T22:25:17Z</time>
      </trkpt>
      <trkpt lat="41.473297" lon="1.951790">
        <ele>49.070</ele>
        <time>2016-10-17T22:25:37Z</time>
      </trkpt>
      <trkpt lat="41.471705" lon="1.949794">
        <ele>52.071</ele>
        <time>2016-10-17T22:25:57Z</time>
      </trkpt>
      <trkpt lat="41.470151" lon="1.947634">
        <ele>45.067</ele>
        <time>2016-10-17T22:26:17Z</time>
      </trkpt>
      <trkpt lat="41.469229" lon="1.946640">
        <ele>43.082</ele>
        <time>2016-10-17T22:26:37Z</time>
      </trkpt>
      <trkpt lat="41.469004" lon="1.946661">
        <ele>42.043</ele>
        <time>2016-10-17T22:26:57Z</time>
      </trkpt>
      <trkpt lat="41.468618" lon="1.946361">
        <ele>39.017</ele>
        <time>2016-10-17T22:27:17Z</time>
      </trkpt>
      <trkpt lat="41.468232" lon="1.946146">
        <ele>36.009</ele>
        <time>2016-10-17T22:27:37Z</time>
      </trkpt>
      <trkpt lat="41.468039" lon="1.945739">
        <ele>32.099</ele>
        <time>2016-10-17T22:27:57Z</time>
      </trkpt>
      <trkpt lat="41.468120" lon="1.945374">
        <ele>28.030</ele>
        <time>2016-10-17T22:28:17Z</time>
      </trkpt>
      <trkpt lat="41.469293" lon="1.943722">
        <ele>24.021</ele>
        <time>2016-10-17T22:28:37Z</time>
      </trkpt>
      <trkpt lat="41.469695" lon="1.943228">
        <ele>26.025</ele>
        <time>2016-10-17T22:28:57Z</time>
      </trkpt>
      <trkpt lat="41.470178" lon="1.942863">
        <ele>29.076</ele>
        <time>2016-10-17T22:29:17Z</time>
      </trkpt>
      <trkpt lat="41.470757" lon="1.942112">
        <ele>28.012</ele>
        <time>2016-10-17T22:29:37Z</time>
      </trkpt>
      <trkpt lat="41.471255" lon="1.941576">
        <ele>29.017</ele>
        <time>2016-10-17T22:29:57Z</time>
      </trkpt>
      <trkpt lat="41.471946" lon="1.940911">
        <ele>27.048</ele>
        <time>2016-10-17T22:30:17Z</time>
      </trkpt>
      <trkpt lat="41.473233" lon="1.939580">
        <ele>32.014</ele>
        <time>2016-10-17T22:30:37Z</time>
      </trkpt>
      <trkpt lat="41.474197" lon="1.938980">
        <ele>32.026</ele>
        <time>2016-10-17T22:30:57Z</time>
      </trkpt>
      <trkpt lat="41.474905" lon="1.938615">
        <ele>36.047</ele>
        <time>2016-10-17T22:31:17Z</time>
      </trkpt>
      <trkpt lat="41.475033" lon="1.938314">
        <ele>33.011</ele>
        <time>2016-10-17T22:31:37Z</time>
      </trkpt>
      <trkpt lat="41.475041" lon="1.937885">
        <ele>30.009</ele>
        <time>2016-10-17T22:31:57Z</time>
      </trkpt>
      <trkpt lat="41.474953" lon="1.936866">
        <ele>35.023</ele>
        <time>2016-10-17T22:32:17Z</time>
      </trkpt>
      <trkpt lat="41.474897" lon="1.936458">
        <ele>42.084</ele>
        <time>2016-10-17T22:32:37Z</time>
      </trkpt>
      <trkpt lat="41.474744" lon="1.935858">
        <ele>51.025</ele>
        <time>2016-10-17T22:32:57Z</time>
      </trkpt>
      <trkpt lat="41.474647" lon="1.935675">
        <ele>51.029</ele>
        <time>2016-10-17T22:33:17Z</time>
      </trkpt>
      <trkpt lat="41.474752" lon="1.934656">
        <ele>50.090</ele>
        <time>2016-10-17T22:33:37Z</time>
      </trkpt>
      <trkpt lat="41.474752" lon="1.933948">
        <ele>50.056</ele>
        <time>2016-10-17T22:33:57Z</time>
      </trkpt>
      <trkpt lat="41.474631" lon="1.933562">
        <ele>50.011</ele>
        <time>2016-10-17T22:34:17Z</time>
      </trkpt>
      <trkpt lat="41.474591" lon="1.933293">
        <ele>51.052</ele>
        <time>2016-10-17T22:34:37Z</time>
      </trkpt>
      <trkpt lat="41.474712" lon="1.932553">
        <ele>51.038</ele>
        <time>2016-10-17T22:34:57Z</time>
      </trkpt>
      <trkpt lat="41.474623" lon="1.931362">
        <ele>50.031</ele>
        <time>2016-10-17T22:35:17Z</time>
      </trkpt>
      <trkpt lat="41.474350" lon="1.929742">
        <ele>54.061</ele>
        <time>2016-10-17T22:35:37Z</time>
      </trkpt>
      <trkpt lat="41.474149" lon="1.927564">
        <ele>54.007</ele>
        <time>2016-10-17T22:35:57Z</time>
      </trkpt>
      <trkpt lat="41.474157" lon="1.927210">
        <ele>53.009</ele>
        <time>2016-10-17T22:36:17Z</time>
      </trkpt>
      <trkpt lat="41.473860" lon="1.927221">
        <ele>55.074</ele>
        <time>2016-10-17T22:36:37Z</time>
      </trkpt>
      <trkpt lat="41.473868" lon="1.926985">
        <ele>54.025</ele>
        <time>2016-10-17T22:36:57Z</time>
      </trkpt>
      <trkpt lat="41.474768" lon="1.925279">
        <ele>48.086</ele>
        <time>2016-10-17T22:37:17Z</time>
      </trkpt>
      <trkpt lat="41.475620" lon="1.923509">
        <ele>56.010</ele>
        <time>2016-10-17T22:37:37Z</time>
      </trkpt>
      <trkpt lat="41.476432" lon="1.922157">
        <ele>66.011</ele>
        <time>2016-10-17T22:37:57Z</time>
      </trkpt>
      <trkpt lat="41.477343" lon="1.921492">
        <ele>71.057</ele>
        <time>2016-10-17T22:38:17Z</time>
      </trkpt>
      <trkpt lat="41.477102" lon="1.919582">
        <ele>76.072</ele>
        <time>2016-10-17T22:38:37Z</time>
      </trkpt>
      <trkpt lat="41.477000" lon="1.919003">
        <ele>76.063</ele>
        <time>2016-10-17T22:38:57Z</time>
      </trkpt>
      <trkpt lat="41.477386" lon="1.917844">
        <ele>81.019</ele>
        <time>2016-10-17T22:39:17Z</time>
      </trkpt>
      <trkpt lat="41.476858" lon="1.915162">
        <ele>83.022</ele>
        <time>2016-10-17T22:39:37Z</time>
      </trkpt>
      <trkpt lat="41.476585" lon="1.914067">
        <ele>82.062</ele>
        <time>2016-10-17T22:39:57Z</time>
      </trkpt>
      <trkpt lat="41.476528" lon="1.913241">
        <ele>81.008</ele>
        <time>2016-10-17T22:40:17Z</time>
      </trkpt>
      <trkpt lat="41.476705" lon="1.912780">
        <ele>80.009</ele>
        <time>2016-10-17T22:40:37Z</time>
      </trkpt>
      <trkpt lat="41.478482" lon="1.912447">
        <ele>70.043</ele>
        <time>2016-10-17T22:40:57Z</time>
      </trkpt>
      <trkpt lat="41.480113" lon="1.912115">
        <ele>70.074</ele>
        <time>2016-10-17T22:41:17Z</time>
      </trkpt>
      <trkpt lat="41.482075" lon="1.911696">
        <ele>59.075</ele>
        <time>2016-10-17T22:41:37Z</time>
      </trkpt>
      <trkpt lat="41.482034" lon="1.911482">
        <ele>59.089</ele>
        <time>2016-10-17T22:41:57Z</time>
      </trkpt>
      <trkpt lat="41.481914" lon="1.911117">
        <ele>62.060</ele>
        <time>2016-10-17T22:42:17Z</time>
      </trkpt>
      <trkpt lat="41.481432" lon="1.909937">
        <ele>76.086</ele>
        <time>2016-10-17T22:42:37Z</time>
      </trkpt>
      <trkpt lat="41.481295" lon="1.909733">
        <ele>77.091</ele>
        <time>2016-10-17T22:42:57Z</time>
      </trkpt>
      <trkpt lat="41.481102" lon="1.909647">
        <ele>78.052</ele>
        <time>2016-10-17T22:43:17Z</time>
      </trkpt>
      <trkpt lat="41.480805" lon="1.908145">
        <ele>79.048</ele>
        <time>2016-10-17T22:43:37Z</time>
      </trkpt>
      <trkpt lat="41.480274" lon="1.907855">
        <ele>80.093</ele>
        <time>2016-10-17T22:43:57Z</time>
      </trkpt>
      <trkpt lat="41.480121" lon="1.907748">
        <ele>79.065</ele>
        <time>2016-10-17T22:44:17Z</time>
      </trkpt>
      <trkpt lat="41.480057" lon="1.906900">
        <ele>74.021</ele>
        <time>2016-10-17T22:44:37Z</time>
      </trkpt>
      <trkpt lat="41.480636" lon="1.906664">
        <ele>75.009</ele>
        <time>2016-10-17T22:44:57Z</time>
      </trkpt>
      <trkpt lat="41.481158" lon="1.906868">
        <ele>73.050</ele>
        <time>2016-10-17T22:45:17Z</time>
      </trkpt>
      <trkpt lat="41.481697" lon="1.906954">
        <ele>68.021</ele>
        <time>2016-10-17T22:45:37Z</time>
      </trkpt>
      <trkpt lat="41.483320" lon="1.906911">
        <ele>62.072</ele>
        <time>2016-10-17T22:45:57Z</time>
      </trkpt>
      <trkpt lat="41.483875" lon="1.907040">
        <ele>62.036</ele>
        <time>2016-10-17T22:46:17Z</time>
      </trkpt>
      <trkpt lat="41.484687" lon="1.907061">
        <ele>64.077</ele>
        <time>2016-10-17T22:46:37Z</time>
      </trkpt>
      <trkpt lat="41.485257" lon="1.907072">
        <ele>70.013</ele>
        <time>2016-10-17T22:46:57Z</time>
      </trkpt>
      <trkpt lat="41.485507" lon="1.907265">
        <ele>75.098</ele>
        <time>2016-10-17T22:47:17Z</time>
      </trkpt>
      <trkpt lat="41.486326" lon="1.907458">
        <ele>84.059</ele>
        <time>2016-10-17T22:47:37Z</time>
      </trkpt>
      <trkpt lat="41.486961" lon="1.907705">
        <ele>88.055</ele>
        <time>2016-10-17T22:47:57Z</time>
      </trkpt>
      <trkpt lat="41.487106" lon="1.907126">
        <ele>86.012</ele>
        <time>2016-10-17T22:48:17Z</time>
      </trkpt>
      <trkpt lat="41.487066" lon="1.906579">
        <ele>81.032</ele>
        <time>2016-10-17T22:48:37Z</time>
      </trkpt>
      <trkpt lat="41.487122" lon="1.906064">
        <ele>82.005</ele>
        <time>2016-10-17T22:48:57Z</time>
      </trkpt>
      <trkpt lat="41.487114" lon="1.904250">
        <ele>83.009</ele>
        <time>2016-10-17T22:49:17Z</time>
      </trkpt>
      <trkpt lat="41.487058" lon="1.901858">
        <ele>80.012</ele>
        <time>2016-10-17T22:49:37Z</time>
      </trkpt>
      <trkpt lat="41.487026" lon="1.900892">
        <ele>81.013</ele>
        <time>2016-10-17T22:49:57Z</time>
      </trkpt>
      <trkpt lat="41.486889" lon="1.900334">
        <ele>80.064</ele>
        <time>2016-10-17T22:50:17Z</time>
      </trkpt>
      <trkpt lat="41.486721" lon="1.900176">
        <ele>78.038</ele>
        <time>2016-10-17T22:50:37Z</time>
      </trkpt>
      <trkpt lat="41.486622" lon="1.899889">
        <ele>78.049</ele>
        <time>2016-10-17T22:50:57Z</time>
      </trkpt>
      <trkpt lat="41.486499" lon="1.899267">
        <ele>75.065</ele>
        <time>2016-10-17T22:51:17Z</time>
      </trkpt>
      <trkpt lat="41.486559" lon="1.898838">
        <ele>78.070</ele>
        <time>2016-10-17T22:51:37Z</time>
      </trkpt>
      <trkpt lat="41.486559" lon="1.898666">
        <ele>79.041</ele>
        <time>2016-10-17T22:51:57Z</time>
      </trkpt>
      <trkpt lat="41.486551" lon="1.898446">
        <ele>80.077</ele>
        <time>2016-10-17T22:52:17Z</time>
      </trkpt>
      <trkpt lat="41.486437" lon="1.898376">
        <ele>78.018</ele>
        <time>2016-10-17T22:52:37Z</time>
      </trkpt>
      <trkpt lat="41.485695" lon="1.897767">
        <ele>76.098</ele>
        <time>2016-10-17T22:52:57Z</time>
      </trkpt>
      <trkpt lat="41.485630" lon="1.897612">
        <ele>77.017</ele>
        <time>2016-10-17T22:53:17Z</time>
      </trkpt>
      <trkpt lat="41.485601" lon="1.896869">
        <ele>75.009</ele>
        <time>2016-10-17T22:53:37Z</time>
      </trkpt>
      <trkpt lat="41.485670" lon="1.896628">
        <ele>75.022</ele>
        <time>2016-10-17T22:53:57Z</time>
      </trkpt>
      <trkpt lat="41.485658" lon="1.896451">
        <ele>75.063</ele>
        <time>2016-10-17T22:54:17Z</time>
      </trkpt>
      <trkpt lat="41.485673" lon="1.896330">
        <ele>75.044</ele>
        <time>2016-10-17T22:54:37Z</time>
      </trkpt>
      <trkpt lat="41.485700" lon="1.895854">
        <ele>74.078</ele>
        <time>2016-10-17T22:54:57Z</time>
      </trkpt>
      <trkpt lat="41.486005" lon="1.895356">
        <ele>74.099</ele>
        <time>2016-10-17T22:55:17Z</time>
      </trkpt>
      <trkpt lat="41.486182" lon="1.895024">
        <ele>74.085</ele>
        <time>2016-10-17T22:55:37Z</time>
      </trkpt>
      <trkpt lat="41.486158" lon="1.894820">
        <ele>75.070</ele>
        <time>2016-10-17T22:55:57Z</time>
      </trkpt>
      <trkpt lat="41.486077" lon="1.894594">
        <ele>75.021</ele>
        <time>2016-10-17T22:56:17Z</time>
      </trkpt>
      <trkpt lat="41.486045" lon="1.894358">
        <ele>75.027</ele>
        <time>2016-10-17T22:56:37Z</time>
      </trkpt>
      <trkpt lat="41.486037" lon="1.893983">
        <ele>75.022</ele>
        <time>2016-10-17T22:56:57Z</time>
      </trkpt>
      <trkpt lat="41.486037" lon="1.893629">
        <ele>75.062</ele>
        <time>2016-10-17T22:57:17Z</time>
      </trkpt>
      <trkpt lat="41.486495" lon="1.893650">
        <ele>75.008</ele>
        <time>2016-10-17T22:57:37Z</time>
      </trkpt>
      <trkpt lat="41.486841" lon="1.893768">
        <ele>79.009</ele>
        <time>2016-10-17T22:57:57Z</time>
      </trkpt>
      <trkpt lat="41.487275" lon="1.893371">
        <ele>82.043</ele>
        <time>2016-10-17T22:58:17Z</time>
      </trkpt>
      <trkpt lat="41.487387" lon="1.893114">
        <ele>86.054</ele>
        <time>2016-10-17T22:58:37Z</time>
      </trkpt>
      <trkpt lat="41.487500" lon="1.892856">
        <ele>86.045</ele>
        <time>2016-10-17T22:58:57Z</time>
      </trkpt>
      <trkpt lat="41.487644" lon="1.892481">
        <ele>91.029</ele>
        <time>2016-10-17T22:59:17Z</time>
      </trkpt>
      <trkpt lat="41.487845" lon="1.892127">
        <ele>91.010</ele>
        <time>2016-10-17T22:59:37Z</time>
      </trkpt>
      <trkpt lat="41.488247" lon="1.891719">
        <ele>98.076</ele>
        <time>2016-10-17T22:59:57Z</time>
      </trkpt>
      <trkpt lat="41.488665" lon="1.891043">
        <ele>101.051</ele>
        <time>2016-10-17T23:00:17Z</time>
      </trkpt>
      <trkpt lat="41.488601" lon="1.889927">
        <ele>101.012</ele>
        <time>2016-10-17T23:00:37Z</time>
      </trkpt>
      <trkpt lat="41.488673" lon="1.889541">
        <ele>100.078</ele>
        <time>2016-10-17T23:00:57Z</time>
      </trkpt>
      <trkpt lat="41.489196" lon="1.887964">
        <ele>102.079</ele>
        <time>2016-10-17T23:01:17Z</time>
      </trkpt>
      <trkpt lat="41.489758" lon="1.886977">
        <ele>111.005</ele>
        <time>2016-10-17T23:01:37Z</time>
      </trkpt>
      <trkpt lat="41.490337" lon="1.886441">
        <ele>115.025</ele>
        <time>2016-10-17T23:01:57Z</time>
      </trkpt>
      <trkpt lat="41.490819" lon="1.886086">
        <ele>117.009</ele>
        <time>2016-10-17T23:02:17Z</time>
      </trkpt>
      <trkpt lat="41.490972" lon="1.885537">
        <ele>113.048</ele>
        <time>2016-10-17T23:02:37Z</time>
      </trkpt>
      <trkpt lat="41.491103" lon="1.885448">
        <ele>116.029</ele>
        <time>2016-10-17T23:02:57Z</time>
      </trkpt>
      <trkpt lat="41.491117" lon="1.885290">
        <ele>115.060</ele>
        <time>2016-10-17T23:03:17Z</time>
      </trkpt>
      <trkpt lat="41.490980" lon="1.885276">
        <ele>115.084</ele>
        <time>2016-10-17T23:03:37Z</time>
      </trkpt>
      <trkpt lat="41.490577" lon="1.885346">
        <ele>109.055</ele>
        <time>2016-10-17T23:03:57Z</time>
      </trkpt>
      <trkpt lat="41.490375" lon="1.885620">
        <ele>107.091</ele>
        <time>2016-10-17T23:04:17Z</time>
      </trkpt>
      <trkpt lat="41.490188" lon="1.885799">
        <ele>109.026</ele>
        <time>2016-10-17T23:04:37Z</time>
      </trkpt>
      <trkpt lat="41.489778" lon="1.885931">
        <ele>103.077</ele>
        <time>2016-10-17T23:04:57Z</time>
      </trkpt>
      <trkpt lat="41.488957" lon="1.885630">
        <ele>91.093</ele>
        <time>2016-10-17T23:05:17Z</time>
      </trkpt>
      <trkpt lat="41.488762" lon="1.885636">
        <ele>91.022</ele>
        <time>2016-10-17T23:05:37Z</time>
      </trkpt>
      <trkpt lat="41.488585" lon="1.885936">
        <ele>91.062</ele>
        <time>2016-10-17T23:05:57Z</time>
      </trkpt>
      <trkpt lat="41.488352" lon="1.886204">
        <ele>91.008</ele>
        <time>2016-10-17T23:06:17Z</time>
      </trkpt>
      <trkpt lat="41.488094" lon="1.886331">
        <ele>89.009</ele>
        <time>2016-10-17T23:06:37Z</time>
      </trkpt>
      <trkpt lat="41.488034" lon="1.886156">
        <ele>89.083</ele>
        <time>2016-10-17T23:06:57Z</time>
      </trkpt>
      <trkpt lat="41.487903" lon="1.886044">
        <ele>88.024</ele>
        <time>2016-10-17T23:07:17Z</time>
      </trkpt>
      <trkpt lat="41.487889" lon="1.885850">
        <ele>88.035</ele>
        <time>2016-10-17T23:07:37Z</time>
      </trkpt>
      <trkpt lat="41.487784" lon="1.885738">
        <ele>88.069</ele>
        <time>2016-10-17T23:07:57Z</time>
      </trkpt>
      <trkpt lat="41.487738" lon="1.885539">
        <ele>87.060</ele>
        <time>2016-10-17T23:08:17Z</time>
      </trkpt>
      <trkpt lat="41.487707" lon="1.885327">
        <ele>86.096</ele>
        <time>2016-10-17T23:08:37Z</time>
      </trkpt>
      <trkpt lat="41.487301" lon="1.885169">
        <ele>92.071</ele>
        <time>2016-10-17T23:08:57Z</time>
      </trkpt>
      <trkpt lat="41.487224" lon="1.885116">
        <ele>91.022</ele>
        <time>2016-10-17T23:09:17Z</time>
      </trkpt>
      <trkpt lat="41.487332" lon="1.884445">
        <ele>90.088</ele>
        <time>2016-10-17T23:09:37Z</time>
      </trkpt>
      <trkpt lat="41.487281" lon="1.884332">
        <ele>90.067</ele>
        <time>2016-10-17T23:09:57Z</time>
      </trkpt>
      <trkpt lat="41.487133" lon="1.884238">
        <ele>90.081</ele>
        <time>2016-10-17T23:10:17Z</time>
      </trkpt>
      <trkpt lat="41.487190" lon="1.884080">
        <ele>90.019</ele>
        <time>2016-10-17T23:10:37Z</time>
      </trkpt>
      <trkpt lat="41.487412" lon="1.884169">
        <ele>89.009</ele>
        <time>2016-10-17T23:10:57Z</time>
      </trkpt>
      <trkpt lat="41.487986" lon="1.884112">
        <ele>87.017</ele>
        <time>2016-10-17T23:11:17Z</time>
      </trkpt>
      <trkpt lat="41.488613" lon="1.882822">
        <ele>102.048</ele>
        <time>2016-10-17T23:11:37Z</time>
      </trkpt>
      <trkpt lat="41.489034" lon="1.881902">
        <ele>108.019</ele>
        <time>2016-10-17T23:11:57Z</time>
      </trkpt>
      <trkpt lat="41.489300" lon="1.880615">
        <ele>116.063</ele>
        <time>2016-10-17T23:12:17Z</time>
      </trkpt>
      <trkpt lat="41.489855" lon="1.879778">
        <ele>124.074</ele>
        <time>2016-10-17T23:12:37Z</time>
      </trkpt>
      <trkpt lat="41.490321" lon="1.879005">
        <ele>128.050</ele>
        <time>2016-10-17T23:12:57Z</time>
      </trkpt>
      <trkpt lat="41.490449" lon="1.878340">
        <ele>127.025</ele>
        <time>2016-10-17T23:13:17Z</time>
      </trkpt>
      <trkpt lat="41.492073" lon="1.876677">
        <ele>136.066</ele>
        <time>2016-10-17T23:13:37Z</time>
      </trkpt>
      <trkpt lat="41.492298" lon="1.876066">
        <ele>142.042</ele>
        <time>2016-10-17T23:13:57Z</time>
      </trkpt>
      <trkpt lat="41.492595" lon="1.875325">
        <ele>148.022</ele>
        <time>2016-10-17T23:14:17Z</time>
      </trkpt>
      <trkpt lat="41.493527" lon="1.874928">
        <ele>149.062</ele>
        <time>2016-10-17T23:14:37Z</time>
      </trkpt>
      <trkpt lat="41.493760" lon="1.874499">
        <ele>151.008</ele>
        <time>2016-10-17T23:14:57Z</time>
      </trkpt>
      <trkpt lat="41.493985" lon="1.873748">
        <ele>157.009</ele>
        <time>2016-10-17T23:15:17Z</time>
      </trkpt>
      <trkpt lat="41.494524" lon="1.872858">
        <ele>158.033</ele>
        <time>2016-10-17T23:15:37Z</time>
      </trkpt>
      <trkpt lat="41.494990" lon="1.872118">
        <ele>157.064</ele>
        <time>2016-10-17T23:15:57Z</time>
      </trkpt>
      <trkpt lat="41.496010" lon="1.871474">
        <ele>159.075</ele>
        <time>2016-10-17T23:16:17Z</time>
      </trkpt>
      <trkpt lat="41.497103" lon="1.870208">
        <ele>165.089</ele>
        <time>2016-10-17T23:16:37Z</time>
      </trkpt>
      <trkpt lat="41.497264" lon="1.869789">
        <ele>165.050</ele>
        <time>2016-10-17T23:16:57Z</time>
      </trkpt>
      <trkpt lat="41.497642" lon="1.869360">
        <ele>164.026</ele>
        <time>2016-10-17T23:17:17Z</time>
      </trkpt>
      <trkpt lat="41.498984" lon="1.868684">
        <ele>169.081</ele>
        <time>2016-10-17T23:17:37Z</time>
      </trkpt>
      <trkpt lat="41.500751" lon="1.866935">
        <ele>178.022</ele>
        <time>2016-10-17T23:17:57Z</time>
      </trkpt>
      <trkpt lat="41.502294" lon="1.865315">
        <ele>186.098</ele>
        <time>2016-10-17T23:18:17Z</time>
      </trkpt>
      <trkpt lat="41.502776" lon="1.865079">
        <ele>190.092</ele>
        <time>2016-10-17T23:18:37Z</time>
      </trkpt>
      <trkpt lat="41.503387" lon="1.865294">
        <ele>194.073</ele>
        <time>2016-10-17T23:18:57Z</time>
      </trkpt>
      <trkpt lat="41.504415" lon="1.864103">
        <ele>198.020</ele>
        <time>2016-10-17T23:19:17Z</time>
      </trkpt>
      <trkpt lat="41.504905" lon="1.864049">
        <ele>198.009</ele>
        <time>2016-10-17T23:19:37Z</time>
      </trkpt>
      <trkpt lat="41.505147" lon="1.864522">
        <ele>199.070</ele>
        <time>2016-10-17T23:19:57Z</time>
      </trkpt>
      <trkpt lat="41.505661" lon="1.864629">
        <ele>200.021</ele>
        <time>2016-10-17T23:20:17Z</time>
      </trkpt>
      <trkpt lat="41.505910" lon="1.864060">
        <ele>207.032</ele>
        <time>2016-10-17T23:20:37Z</time>
      </trkpt>
      <trkpt lat="41.506360" lon="1.863052">
        <ele>207.086</ele>
        <time>2016-10-17T23:20:57Z</time>
      </trkpt>
      <trkpt lat="41.506472" lon="1.862644">
        <ele>206.077</ele>
        <time>2016-10-17T23:21:17Z</time>
      </trkpt>
      <trkpt lat="41.506432" lon="1.862075">
        <ele>204.073</ele>
        <time>2016-10-17T23:21:37Z</time>
      </trkpt>
      <trkpt lat="41.506480" lon="1.861603">
        <ele>205.038</ele>
        <time>2016-10-17T23:21:57Z</time>
      </trkpt>
      <trkpt lat="41.506962" lon="1.860080">
        <ele>209.089</ele>
        <time>2016-10-17T23:22:17Z</time>
      </trkpt>
      <trkpt lat="41.507332" lon="1.859972">
        <ele>209.045</ele>
        <time>2016-10-17T23:22:37Z</time>
      </trkpt>
      <trkpt lat="41.507677" lon="1.859704">
        <ele>211.083</ele>
        <time>2016-10-17T23:22:57Z</time>
      </trkpt>
      <trkpt lat="41.507967" lon="1.859382">
        <ele>210.025</ele>
        <time>2016-10-17T23:23:17Z</time>
      </trkpt>
      <trkpt lat="41.508071" lon="1.858717">
        <ele>210.017</ele>
        <time>2016-10-17T23:23:37Z</time>
      </trkpt>
      <trkpt lat="41.508473" lon="1.856990">
        <ele>224.009</ele>
        <time>2016-10-17T23:23:57Z</time>
      </trkpt>
      <trkpt lat="41.508626" lon="1.856067">
        <ele>231.059</ele>
        <time>2016-10-17T23:24:17Z</time>
      </trkpt>
      <trkpt lat="41.508545" lon="1.855627">
        <ele>231.050</ele>
        <time>2016-10-17T23:24:37Z</time>
      </trkpt>
      <trkpt lat="41.508545" lon="1.855305">
        <ele>230.081</ele>
        <time>2016-10-17T23:24:57Z</time>
      </trkpt>
      <trkpt lat="41.508553" lon="1.854919">
        <ele>229.085</ele>
        <time>2016-10-17T23:25:17Z</time>
      </trkpt>
      <trkpt lat="41.508280" lon="1.854479">
        <ele>225.056</ele>
        <time>2016-10-17T23:25:37Z</time>
      </trkpt>
      <trkpt lat="41.507734" lon="1.854254">
        <ele>225.062</ele>
        <time>2016-10-17T23:25:57Z</time>
      </trkpt>
      <trkpt lat="41.507179" lon="1.854029">
        <ele>229.087</ele>
        <time>2016-10-17T23:26:17Z</time>
      </trkpt>
      <trkpt lat="41.507019" lon="1.853728">
        <ele>234.038</ele>
        <time>2016-10-17T23:26:37Z</time>
      </trkpt>
      <trkpt lat="41.506946" lon="1.853524">
        <ele>234.034</ele>
        <time>2016-10-17T23:26:57Z</time>
      </trkpt>
      <trkpt lat="41.506496" lon="1.851540">
        <ele>241.068</ele>
        <time>2016-10-17T23:27:17Z</time>
      </trkpt>
      <trkpt lat="41.506633" lon="1.850821">
        <ele>246.042</ele>
        <time>2016-10-17T23:27:37Z</time>
      </trkpt>
      <trkpt lat="41.507027" lon="1.850327">
        <ele>250.026</ele>
        <time>2016-10-17T23:27:57Z</time>
      </trkpt>
      <trkpt lat="41.507051" lon="1.849072">
        <ele>258.009</ele>
        <time>2016-10-17T23:28:17Z</time>
      </trkpt>
      <trkpt lat="41.507147" lon="1.847591">
        <ele>263.057</ele>
        <time>2016-10-17T23:28:37Z</time>
      </trkpt>
      <trkpt lat="41.506978" lon="1.846958">
        <ele>272.058</ele>
        <time>2016-10-17T23:28:57Z</time>
      </trkpt>
      <trkpt lat="41.506995" lon="1.846379">
        <ele>278.089</ele>
        <time>2016-10-17T23:29:17Z</time>
      </trkpt>
      <trkpt lat="41.506713" lon="1.845435">
        <ele>279.033</ele>
        <time>2016-10-17T23:29:37Z</time>
      </trkpt>
      <trkpt lat="41.506842" lon="1.843407">
        <ele>263.054</ele>
        <time>2016-10-17T23:29:57Z</time>
      </trkpt>
      <trkpt lat="41.506770" lon="1.842957">
        <ele>262.040</ele>
        <time>2016-10-17T23:30:17Z</time>
      </trkpt>
      <trkpt lat="41.505878" lon="1.842238">
        <ele>252.065</ele>
        <time>2016-10-17T23:30:37Z</time>
      </trkpt>
      <trkpt lat="41.504833" lon="1.841100">
        <ele>243.026</ele>
        <time>2016-10-17T23:30:57Z</time>
      </trkpt>
      <trkpt lat="41.504255" lon="1.840972">
        <ele>236.022</ele>
        <time>2016-10-17T23:31:17Z</time>
      </trkpt>
      <trkpt lat="41.503765" lon="1.841251">
        <ele>235.092</ele>
        <time>2016-10-17T23:31:37Z</time>
      </trkpt>
      <trkpt lat="41.503242" lon="1.841015">
        <ele>237.073</ele>
        <time>2016-10-17T23:31:57Z</time>
      </trkpt>
      <trkpt lat="41.502889" lon="1.840897">
        <ele>244.020</ele>
        <time>2016-10-17T23:32:17Z</time>
      </trkpt>
      <trkpt lat="41.502543" lon="1.840725">
        <ele>246.009</ele>
        <time>2016-10-17T23:32:37Z</time>
      </trkpt>
      <trkpt lat="41.501876" lon="1.840478">
        <ele>246.080</ele>
        <time>2016-10-17T23:32:57Z</time>
      </trkpt>
      <trkpt lat="41.501724" lon="1.840189">
        <ele>244.071</ele>
        <time>2016-10-17T23:33:17Z</time>
      </trkpt>
      <trkpt lat="41.501507" lon="1.840113">
        <ele>244.082</ele>
        <time>2016-10-17T23:33:37Z</time>
      </trkpt>
      <trkpt lat="41.500695" lon="1.839008">
        <ele>252.026</ele>
        <time>2016-10-17T23:33:57Z</time>
      </trkpt>
      <trkpt lat="41.500117" lon="1.838558">
        <ele>262.027</ele>
        <time>2016-10-17T23:34:17Z</time>
      </trkpt>
      <trkpt lat="41.498984" lon="1.838461">
        <ele>269.043</ele>
        <time>2016-10-17T23:34:37Z</time>
      </trkpt>
      <trkpt lat="41.498686" lon="1.838214">
        <ele>268.048</ele>
        <time>2016-10-17T23:34:57Z</time>
      </trkpt>
      <trkpt lat="41.498373" lon="1.837839">
        <ele>271.099</ele>
        <time>2016-10-17T23:35:17Z</time>
      </trkpt>
      <trkpt lat="41.498236" lon="1.837592">
        <ele>273.035</ele>
        <time>2016-10-17T23:35:37Z</time>
      </trkpt>
      <trkpt lat="41.498831" lon="1.835639">
        <ele>268.046</ele>
        <time>2016-10-17T23:35:57Z</time>
      </trkpt>
      <trkpt lat="41.499442" lon="1.834159">
        <ele>270.088</ele>
        <time>2016-10-17T23:36:17Z</time>
      </trkpt>
      <trkpt lat="41.499940" lon="1.833526">
        <ele>276.016</ele>
        <time>2016-10-17T23:36:37Z</time>
      </trkpt>
      <trkpt lat="41.500342" lon="1.833022">
        <ele>281.009</ele>
        <time>2016-10-17T23:36:57Z</time>
      </trkpt>
      <trkpt lat="41.500567" lon="1.831917">
        <ele>281.075</ele>
        <time>2016-10-17T23:37:17Z</time>
      </trkpt>
      <trkpt lat="41.500414" lon="1.831090">
        <ele>277.016</ele>
        <time>2016-10-17T23:37:37Z</time>
      </trkpt>
      <trkpt lat="41.500848" lon="1.828258">
        <ele>272.027</ele>
        <time>2016-10-17T23:37:57Z</time>
      </trkpt>
      <trkpt lat="41.501008" lon="1.827829">
        <ele>278.091</ele>
        <time>2016-10-17T23:38:17Z</time>
      </trkpt>
      <trkpt lat="41.501386" lon="1.827099">
        <ele>284.012</ele>
        <time>2016-10-17T23:38:37Z</time>
      </trkpt>
      <trkpt lat="41.501386" lon="1.826831">
        <ele>286.088</ele>
        <time>2016-10-17T23:38:57Z</time>
      </trkpt>
      <trkpt lat="41.501177" lon="1.825447">
        <ele>284.083</ele>
        <time>2016-10-17T23:39:17Z</time>
      </trkpt>
      <trkpt lat="41.501250" lon="1.824836">
        <ele>280.014</ele>
        <time>2016-10-17T23:39:37Z</time>
      </trkpt>
      <trkpt lat="41.501466" lon="1.824020">
        <ele>277.010</ele>
        <time>2016-10-17T23:39:57Z</time>
      </trkpt>
      <trkpt lat="41.501402" lon="1.823205">
        <ele>276.063</ele>
        <time>2016-10-17T23:40:17Z</time>
      </trkpt>
      <trkpt lat="41.500759" lon="1.822100">
        <ele>280.044</ele>
        <time>2016-10-17T23:40:37Z</time>
      </trkpt>
      <trkpt lat="41.500567" lon="1.821939">
        <ele>280.018</ele>
        <time>2016-10-17T23:40:57Z</time>
      </trkpt>
      <trkpt lat="41.500301" lon="1.821735">
        <ele>277.009</ele>
        <time>2016-10-17T23:41:17Z</time>
      </trkpt>
      <trkpt lat="41.500181" lon="1.821477">
        <ele>278.027</ele>
        <time>2016-10-17T23:41:37Z</time>
      </trkpt>
      <trkpt lat="41.500309" lon="1.820812">
        <ele>277.038</ele>
        <time>2016-10-17T23:41:57Z</time>
      </trkpt>
      <trkpt lat="41.500366" lon="1.819911">
        <ele>274.079</ele>
        <time>2016-10-17T23:42:17Z</time>
      </trkpt>
      <trkpt lat="41.499996" lon="1.819428">
        <ele>270.053</ele>
        <time>2016-10-17T23:42:37Z</time>
      </trkpt>
      <trkpt lat="41.499707" lon="1.818527">
        <ele>264.074</ele>
        <time>2016-10-17T23:42:57Z</time>
      </trkpt>
      <trkpt lat="41.499787" lon="1.817905">
        <ele>261.080</ele>
        <time>2016-10-17T23:43:17Z</time>
      </trkpt>
      <trkpt lat="41.500398" lon="1.816885">
        <ele>255.065</ele>
        <time>2016-10-17T23:43:37Z</time>
      </trkpt>
      <trkpt lat="41.501322" lon="1.815180">
        <ele>247.086</ele>
        <time>2016-10-17T23:43:57Z</time>
      </trkpt>
      <trkpt lat="41.501619" lon="1.814600">
        <ele>244.082</ele>
        <time>2016-10-17T23:44:17Z</time>
      </trkpt>
      <trkpt lat="41.501876" lon="1.814064">
        <ele>243.043</ele>
        <time>2016-10-17T23:44:37Z</time>
      </trkpt>
      <trkpt lat="41.501933" lon="1.813484">
        <ele>243.064</ele>
        <time>2016-10-17T23:44:57Z</time>
      </trkpt>
      <trkpt lat="41.502005" lon="1.812261">
        <ele>243.010</ele>
        <time>2016-10-17T23:45:17Z</time>
      </trkpt>
      <trkpt lat="41.502190" lon="1.811371">
        <ele>244.009</ele>
        <time>2016-10-17T23:45:37Z</time>
      </trkpt>
      <trkpt lat="41.502648" lon="1.810791">
        <ele>246.035</ele>
        <time>2016-10-17T23:45:57Z</time>
      </trkpt>
      <trkpt lat="41.503218" lon="1.810030">
        <ele>256.066</ele>
        <time>2016-10-17T23:46:17Z</time>
      </trkpt>
      <trkpt lat="41.503339" lon="1.809762">
        <ele>258.067</ele>
        <time>2016-10-17T23:46:37Z</time>
      </trkpt>
      <trkpt lat="41.503805" lon="1.809257">
        <ele>254.041</ele>
        <time>2016-10-17T23:46:57Z</time>
      </trkpt>
      <trkpt lat="41.504014" lon="1.808968">
        <ele>253.082</ele>
        <time>2016-10-17T23:47:17Z</time>
      </trkpt>
      <trkpt lat="41.504287" lon="1.809171">
        <ele>251.038</ele>
        <time>2016-10-17T23:47:37Z</time>
      </trkpt>
      <trkpt lat="41.504729" lon="1.809461">
        <ele>245.033</ele>
        <time>2016-10-17T23:47:57Z</time>
      </trkpt>
      <trkpt lat="41.504938" lon="1.809751">
        <ele>240.094</ele>
        <time>2016-10-17T23:48:17Z</time>
      </trkpt>
      <trkpt lat="41.505050" lon="1.809976">
        <ele>236.070</ele>
        <time>2016-10-17T23:48:37Z</time>
      </trkpt>
      <trkpt lat="41.505002" lon="1.810180">
        <ele>232.062</ele>
        <time>2016-10-17T23:48:57Z</time>
      </trkpt>
      <trkpt lat="41.505163" lon="1.810298">
        <ele>226.083</ele>
        <time>2016-10-17T23:49:17Z</time>
      </trkpt>
      <trkpt lat="41.506577" lon="1.809654">
        <ele>211.011</ele>
        <time>2016-10-17T23:49:37Z</time>
      </trkpt>
      <trkpt lat="41.506995" lon="1.809343">
        <ele>208.009</ele>
        <time>2016-10-17T23:49:57Z</time>
      </trkpt>
      <trkpt lat="41.507115" lon="1.809053">
        <ele>205.017</ele>
        <time>2016-10-17T23:50:17Z</time>
      </trkpt>
      <trkpt lat="41.507003" lon="1.808667">
        <ele>210.098</ele>
        <time>2016-10-17T23:50:37Z</time>
      </trkpt>
      <trkpt lat="41.506938" lon="1.808163">
        <ele>211.089</ele>
        <time>2016-10-17T23:50:57Z</time>
      </trkpt>
      <trkpt lat="41.506946" lon="1.807927">
        <ele>211.073</ele>
        <time>2016-10-17T23:51:17Z</time>
      </trkpt>
      <trkpt lat="41.507332" lon="1.808259">
        <ele>206.064</ele>
        <time>2016-10-17T23:51:37Z</time>
      </trkpt>
      <trkpt lat="41.508192" lon="1.808699">
        <ele>207.020</ele>
        <time>2016-10-17T23:51:57Z</time>
      </trkpt>
      <trkpt lat="41.508031" lon="1.809214">
        <ele>204.025</ele>
        <time>2016-10-17T23:52:17Z</time>
      </trkpt>
      <trkpt lat="41.508151" lon="1.809461">
        <ele>203.066</ele>
        <time>2016-10-17T23:52:37Z</time>
      </trkpt>
      <trkpt lat="41.508674" lon="1.809247">
        <ele>210.052</ele>
        <time>2016-10-17T23:52:57Z</time>
      </trkpt>
      <trkpt lat="41.508899" lon="1.808077">
        <ele>222.047</ele>
        <time>2016-10-17T23:53:17Z</time>
      </trkpt>
      <trkpt lat="41.509228" lon="1.806253">
        <ele>232.029</ele>
        <time>2016-10-17T23:53:37Z</time>
      </trkpt>
      <trkpt lat="41.509389" lon="1.805760">
        <ele>231.021</ele>
        <time>2016-10-17T23:53:57Z</time>
      </trkpt>
      <trkpt lat="41.509276" lon="1.803968">
        <ele>227.009</ele>
        <time>2016-10-17T23:54:17Z</time>
      </trkpt>
      <trkpt lat="41.508513" lon="1.801211">
        <ele>233.015</ele>
        <time>2016-10-17T23:54:37Z</time>
      </trkpt>
      <trkpt lat="41.507718" lon="1.798475">
        <ele>238.016</ele>
        <time>2016-10-17T23:54:57Z</time>
      </trkpt>
      <trkpt lat="41.507276" lon="1.796812">
        <ele>242.057</ele>
        <time>2016-10-17T23:55:17Z</time>
      </trkpt>
      <trkpt lat="41.507075" lon="1.796640">
        <ele>242.031</ele>
        <time>2016-10-17T23:55:37Z</time>
      </trkpt>
      <trkpt lat="41.506874" lon="1.794913">
        <ele>248.092</ele>
        <time>2016-10-17T23:55:57Z</time>
      </trkpt>
      <trkpt lat="41.507878" lon="1.794870">
        <ele>250.058</ele>
        <time>2016-10-17T23:56:17Z</time>
      </trkpt>
      <trkpt lat="41.508078" lon="1.794906">
        <ele>250.033</ele>
        <time>2016-10-17T23:56:37Z</time>
      </trkpt>
      <trkpt lat="41.508312" lon="1.793336">
        <ele>257.044</ele>
        <time>2016-10-17T23:56:57Z</time>
      </trkpt>
      <trkpt lat="41.508320" lon="1.792821">
        <ele>257.010</ele>
        <time>2016-10-17T23:57:17Z</time>
      </trkpt>
      <trkpt lat="41.508224" lon="1.792198">
        <ele>258.027</ele>
        <time>2016-10-17T23:57:37Z</time>
      </trkpt>
      <trkpt lat="41.508642" lon="1.790718">
        <ele>266.068</ele>
        <time>2016-10-17T23:57:57Z</time>
      </trkpt>
      <trkpt lat="41.508875" lon="1.789913">
        <ele>270.014</ele>
        <time>2016-10-17T23:58:17Z</time>
      </trkpt>
      <trkpt lat="41.509132" lon="1.788948">
        <ele>270.009</ele>
        <time>2016-10-17T23:58:37Z</time>
      </trkpt>
      <trkpt lat="41.509100" lon="1.788572">
        <ele>270.013</ele>
        <time>2016-10-17T23:58:57Z</time>
      </trkpt>
      <trkpt lat="41.509011" lon="1.788100">
        <ele>274.054</ele>
        <time>2016-10-17T23:59:17Z</time>
      </trkpt>
      <trkpt lat="41.508778" lon="1.787370">
        <ele>273.065</ele>
        <time>2016-10-17T23:59:37Z</time>
      </trkpt>
      <trkpt lat="41.508473" lon="1.786909">
        <ele>274.099</ele>
        <time>2016-10-17T23:59:57Z</time>
      </trkpt>
      <trkpt lat="41.507669" lon="1.786008">
        <ele>281.060</ele>
        <time>2016-10-18T00:00:17Z</time>
      </trkpt>
      <trkpt lat="41.506938" lon="1.785536">
        <ele>284.046</ele>
        <time>2016-10-18T00:00:37Z</time>
      </trkpt>
      <trkpt lat="41.505179" lon="1.784592">
        <ele>286.061</ele>
        <time>2016-10-18T00:00:57Z</time>
      </trkpt>
      <trkpt lat="41.504681" lon="1.784420">
        <ele>287.052</ele>
        <time>2016-10-18T00:01:17Z</time>
      </trkpt>
      <trkpt lat="41.504295" lon="1.784281">
        <ele>293.058</ele>
        <time>2016-10-18T00:01:37Z</time>
      </trkpt>
      <trkpt lat="41.503620" lon="1.783894">
        <ele>296.045</ele>
        <time>2016-10-18T00:01:57Z</time>
      </trkpt>
      <trkpt lat="41.504110" lon="1.782660">
        <ele>293.047</ele>
        <time>2016-10-18T00:02:17Z</time>
      </trkpt>
      <trkpt lat="41.504624" lon="1.781384">
        <ele>296.011</ele>
        <time>2016-10-18T00:02:37Z</time>
      </trkpt>
      <trkpt lat="41.505026" lon="1.780676">
        <ele>302.009</ele>
        <time>2016-10-18T00:02:57Z</time>
      </trkpt>
      <trkpt lat="41.505404" lon="1.779034">
        <ele>304.075</ele>
        <time>2016-10-18T00:03:17Z</time>
      </trkpt>
      <trkpt lat="41.505629" lon="1.778122">
        <ele>302.076</ele>
        <time>2016-10-18T00:03:37Z</time>
      </trkpt>
      <trkpt lat="41.505596" lon="1.777371">
        <ele>303.047</ele>
        <time>2016-10-18T00:03:57Z</time>
      </trkpt>
      <trkpt lat="41.505669" lon="1.776792">
        <ele>307.061</ele>
        <time>2016-10-18T00:04:17Z</time>
      </trkpt>
      <trkpt lat="41.505789" lon="1.776137">
        <ele>312.062</ele>
        <time>2016-10-18T00:04:37Z</time>
      </trkpt>
      <trkpt lat="41.505950" lon="1.775633">
        <ele>318.088</ele>
        <time>2016-10-18T00:04:57Z</time>
      </trkpt>
      <trkpt lat="41.506512" lon="1.774743">
        <ele>325.013</ele>
        <time>2016-10-18T00:05:17Z</time>
      </trkpt>
      <trkpt lat="41.506593" lon="1.774088">
        <ele>326.094</ele>
        <time>2016-10-18T00:05:37Z</time>
      </trkpt>
      <trkpt lat="41.506649" lon="1.773884">
        <ele>328.060</ele>
        <time>2016-10-18T00:05:57Z</time>
      </trkpt>
      <trkpt lat="41.506697" lon="1.773283">
        <ele>330.044</ele>
        <time>2016-10-18T00:06:17Z</time>
      </trkpt>
      <trkpt lat="41.507147" lon="1.772479">
        <ele>329.005</ele>
        <time>2016-10-18T00:06:37Z</time>
      </trkpt>
      <trkpt lat="41.507420" lon="1.771824">
        <ele>328.015</ele>
        <time>2016-10-18T00:06:57Z</time>
      </trkpt>
      <trkpt lat="41.507734" lon="1.771095">
        <ele>321.009</ele>
        <time>2016-10-18T00:07:17Z</time>
      </trkpt>
      <trkpt lat="41.507991" lon="1.770558">
        <ele>320.095</ele>
        <time>2016-10-18T00:07:37Z</time>
      </trkpt>
      <trkpt lat="41.508433" lon="1.769936">
        <ele>319.096</ele>
        <time>2016-10-18T00:07:57Z</time>
      </trkpt>
      <trkpt lat="41.508770" lon="1.769110">
        <ele>319.077</ele>
        <time>2016-10-18T00:08:17Z</time>
      </trkpt>
      <trkpt lat="41.509750" lon="1.767790">
        <ele>325.091</ele>
        <time>2016-10-18T00:08:37Z</time>
      </trkpt>
      <trkpt lat="41.510080" lon="1.766846">
        <ele>325.032</ele>
        <time>2016-10-18T00:08:57Z</time>
      </trkpt>
      <trkpt lat="41.511317" lon="1.765162">
        <ele>333.028</ele>
        <time>2016-10-18T00:09:17Z</time>
      </trkpt>
      <trkpt lat="41.511614" lon="1.764582">
        <ele>337.073</ele>
        <time>2016-10-18T00:09:37Z</time>
      </trkpt>
      <trkpt lat="41.512402" lon="1.763284">
        <ele>329.044</ele>
        <time>2016-10-18T00:09:57Z</time>
      </trkpt>
      <trkpt lat="41.512787" lon="1.762490">
        <ele>328.010</ele>
        <time>2016-10-18T00:10:17Z</time>
      </trkpt>
      <trkpt lat="41.513036" lon="1.761428">
        <ele>325.016</ele>
        <time>2016-10-18T00:10:37Z</time>
      </trkpt>
      <trkpt lat="41.515069" lon="1.760505">
        <ele>317.076</ele>
        <time>2016-10-18T00:10:57Z</time>
      </trkpt>
      <trkpt lat="41.516057" lon="1.759765">
        <ele>314.013</ele>
        <time>2016-10-18T00:11:17Z</time>
      </trkpt>
      <trkpt lat="41.516434" lon="1.759784">
        <ele>315.009</ele>
        <time>2016-10-18T00:11:37Z</time>
      </trkpt>
      <trkpt lat="41.516732" lon="1.759374">
        <ele>315.042</ele>
        <time>2016-10-18T00:11:57Z</time>
      </trkpt>
      <trkpt lat="41.517499" lon="1.759164">
        <ele>312.093</ele>
        <time>2016-10-18T00:12:17Z</time>
      </trkpt>
      <trkpt lat="41.518298" lon="1.759910">
        <ele>312.034</ele>
        <time>2016-10-18T00:12:37Z</time>
      </trkpt>
      <trkpt lat="41.518772" lon="1.759154">
        <ele>311.058</ele>
        <time>2016-10-18T00:12:57Z</time>
      </trkpt>
      <trkpt lat="41.519206" lon="1.756772">
        <ele>309.069</ele>
        <time>2016-10-18T00:13:17Z</time>
      </trkpt>
      <trkpt lat="41.519463" lon="1.754905">
        <ele>304.045</ele>
        <time>2016-10-18T00:13:37Z</time>
      </trkpt>
      <trkpt lat="41.519567" lon="1.754293">
        <ele>298.070</ele>
        <time>2016-10-18T00:13:57Z</time>
      </trkpt>
      <trkpt lat="41.520250" lon="1.753435">
        <ele>292.081</ele>
        <time>2016-10-18T00:14:17Z</time>
      </trkpt>
      <trkpt lat="41.520676" lon="1.752491">
        <ele>288.017</ele>
        <time>2016-10-18T00:14:37Z</time>
      </trkpt>
      <trkpt lat="41.521941" lon="1.750624">
        <ele>305.074</ele>
        <time>2016-10-18T00:14:57Z</time>
      </trkpt>
      <trkpt lat="41.520877" lon="1.749412">
        <ele>303.056</ele>
        <time>2016-10-18T00:15:17Z</time>
      </trkpt>
      <trkpt lat="41.520668" lon="1.748961">
        <ele>298.021</ele>
        <time>2016-10-18T00:15:37Z</time>
      </trkpt>
      <trkpt lat="41.520435" lon="1.747942">
        <ele>295.009</ele>
        <time>2016-10-18T00:15:57Z</time>
      </trkpt>
      <trkpt lat="41.520242" lon="1.747481">
        <ele>292.068</ele>
        <time>2016-10-18T00:16:17Z</time>
      </trkpt>
      <trkpt lat="41.519881" lon="1.746966">
        <ele>289.029</ele>
        <time>2016-10-18T00:16:37Z</time>
      </trkpt>
      <trkpt lat="41.519391" lon="1.746579">
        <ele>284.090</ele>
        <time>2016-10-18T00:16:57Z</time>
      </trkpt>
      <trkpt lat="41.519142" lon="1.746408">
        <ele>282.034</ele>
        <time>2016-10-18T00:17:17Z</time>
      </trkpt>
      <trkpt lat="41.518330" lon="1.743994">
        <ele>278.065</ele>
        <time>2016-10-18T00:17:37Z</time>
      </trkpt>
      <trkpt lat="41.517937" lon="1.743157">
        <ele>276.031</ele>
        <time>2016-10-18T00:17:57Z</time>
      </trkpt>
      <trkpt lat="41.517840" lon="1.742685">
        <ele>272.016</ele>
        <time>2016-10-18T00:18:17Z</time>
      </trkpt>
      <trkpt lat="41.517704" lon="1.742588">
        <ele>270.097</ele>
        <time>2016-10-18T00:18:37Z</time>
      </trkpt>
      <trkpt lat="41.517519" lon="1.742610">
        <ele>267.033</ele>
        <time>2016-10-18T00:18:57Z</time>
      </trkpt>
      <trkpt lat="41.517013" lon="1.742556">
        <ele>263.058</ele>
        <time>2016-10-18T00:19:17Z</time>
      </trkpt>
      <trkpt lat="41.516595" lon="1.742320">
        <ele>265.052</ele>
        <time>2016-10-18T00:19:37Z</time>
      </trkpt>
      <trkpt lat="41.516386" lon="1.742105">
        <ele>265.017</ele>
        <time>2016-10-18T00:19:57Z</time>
      </trkpt>
      <trkpt lat="41.516330" lon="1.741837">
        <ele>265.009</ele>
        <time>2016-10-18T00:20:17Z</time>
      </trkpt>
      <trkpt lat="41.516595" lon="1.741515">
        <ele>264.026</ele>
        <time>2016-10-18T00:20:37Z</time>
      </trkpt>
      <trkpt lat="41.516627" lon="1.741140">
        <ele>263.047</ele>
        <time>2016-10-18T00:20:57Z</time>
      </trkpt>
      <trkpt lat="41.516459" lon="1.740904">
        <ele>260.028</ele>
        <time>2016-10-18T00:21:17Z</time>
      </trkpt>
      <trkpt lat="41.516362" lon="1.740775">
        <ele>260.082</ele>
        <time>2016-10-18T00:21:37Z</time>
      </trkpt>
      <trkpt lat="41.516161" lon="1.738876">
        <ele>240.013</ele>
        <time>2016-10-18T00:21:57Z</time>
      </trkpt>
      <trkpt lat="41.516290" lon="1.738254">
        <ele>240.029</ele>
        <time>2016-10-18T00:22:17Z</time>
      </trkpt>
      <trkpt lat="41.516266" lon="1.737825">
        <ele>241.094</ele>
        <time>2016-10-18T00:22:37Z</time>
      </trkpt>
      <trkpt lat="41.515944" lon="1.736956">
        <ele>245.025</ele>
        <time>2016-10-18T00:22:57Z</time>
      </trkpt>
      <trkpt lat="41.515109" lon="1.736044">
        <ele>251.011</ele>
        <time>2016-10-18T00:23:17Z</time>
      </trkpt>
      <trkpt lat="41.515141" lon="1.735175">
        <ele>259.037</ele>
        <time>2016-10-18T00:23:37Z</time>
      </trkpt>
      <trkpt lat="41.515671" lon="1.734574">
        <ele>258.049</ele>
        <time>2016-10-18T00:23:57Z</time>
      </trkpt>
      <trkpt lat="41.516547" lon="1.732492">
        <ele>256.013</ele>
        <time>2016-10-18T00:24:17Z</time>
      </trkpt>
      <trkpt lat="41.516218" lon="1.732074">
        <ele>253.009</ele>
        <time>2016-10-18T00:24:37Z</time>
      </trkpt>
      <trkpt lat="41.515639" lon="1.732407">
        <ele>256.014</ele>
        <time>2016-10-18T00:24:57Z</time>
      </trkpt>
      <trkpt lat="41.514771" lon="1.732739">
        <ele>259.045</ele>
        <time>2016-10-18T00:25:17Z</time>
      </trkpt>
      <trkpt lat="41.513960" lon="1.733479">
        <ele>258.036</ele>
        <time>2016-10-18T00:25:37Z</time>
      </trkpt>
      <trkpt lat="41.513518" lon="1.733769">
        <ele>256.010</ele>
        <time>2016-10-18T00:25:57Z</time>
      </trkpt>
      <trkpt lat="41.512506" lon="1.733673">
        <ele>263.091</ele>
        <time>2016-10-18T00:26:17Z</time>
      </trkpt>
      <trkpt lat="41.512691" lon="1.733211">
        <ele>266.017</ele>
        <time>2016-10-18T00:26:37Z</time>
      </trkpt>
      <trkpt lat="41.512851" lon="1.732213">
        <ele>273.062</ele>
        <time>2016-10-18T00:26:57Z</time>
      </trkpt>
      <trkpt lat="41.512779" lon="1.732085">
        <ele>273.093</ele>
        <time>2016-10-18T00:27:17Z</time>
      </trkpt>
      <trkpt lat="41.512876" lon="1.731130">
        <ele>278.039</ele>
        <time>2016-10-18T00:27:37Z</time>
      </trkpt>
      <trkpt lat="41.513165" lon="1.730658">
        <ele>280.084</ele>
        <time>2016-10-18T00:27:57Z</time>
      </trkpt>
      <trkpt lat="41.513522" lon="1.730081">
        <ele>284.007</ele>
        <time>2016-10-18T00:28:17Z</time>
      </trkpt>
      <trkpt lat="41.513952" lon="1.729832">
        <ele>286.017</ele>
        <time>2016-10-18T00:28:37Z</time>
      </trkpt>
      <trkpt lat="41.514241" lon="1.729896">
        <ele>286.009</ele>
        <time>2016-10-18T00:28:57Z</time>
      </trkpt>
      <trkpt lat="41.514567" lon="1.729778">
        <ele>287.039</ele>
        <time>2016-10-18T00:29:17Z</time>
      </trkpt>
      <trkpt lat="41.514699" lon="1.729563">
        <ele>288.090</ele>
        <time>2016-10-18T00:29:37Z</time>
      </trkpt>
      <trkpt lat="41.514699" lon="1.729268">
        <ele>289.021</ele>
        <time>2016-10-18T00:29:57Z</time>
      </trkpt>
      <trkpt lat="41.514908" lon="1.728566">
        <ele>290.025</ele>
        <time>2016-10-18T00:30:17Z</time>
      </trkpt>
      <trkpt lat="41.514964" lon="1.728255">
        <ele>290.026</ele>
        <time>2016-10-18T00:30:37Z</time>
      </trkpt>
      <trkpt lat="41.515117" lon="1.727986">
        <ele>290.072</ele>
        <time>2016-10-18T00:30:57Z</time>
      </trkpt>
      <trkpt lat="41.515551" lon="1.727901">
        <ele>290.097</ele>
        <time>2016-10-18T00:31:17Z</time>
      </trkpt>
      <trkpt lat="41.515744" lon="1.728244">
        <ele>286.058</ele>
        <time>2016-10-18T00:31:37Z</time>
      </trkpt>
      <trkpt lat="41.516009" lon="1.728040">
        <ele>284.094</ele>
        <time>2016-10-18T00:31:57Z</time>
      </trkpt>
      <trkpt lat="41.515904" lon="1.727450">
        <ele>287.065</ele>
        <time>2016-10-18T00:32:17Z</time>
      </trkpt>
      <trkpt lat="41.516266" lon="1.727246">
        <ele>280.068</ele>
        <time>2016-10-18T00:32:37Z</time>
      </trkpt>
      <trkpt lat="41.516796" lon="1.727053">
        <ele>279.014</ele>
        <time>2016-10-18T00:32:57Z</time>
      </trkpt>
      <trkpt lat="41.518563" lon="1.727160">
        <ele>277.009</ele>
        <time>2016-10-18T00:33:17Z</time>
      </trkpt>
      <trkpt lat="41.519278" lon="1.726720">
        <ele>286.077</ele>
        <time>2016-10-18T00:33:37Z</time>
      </trkpt>
      <trkpt lat="41.519696" lon="1.726817">
        <ele>291.018</ele>
        <time>2016-10-18T00:33:57Z</time>
      </trkpt>
      <trkpt lat="41.519945" lon="1.727192">
        <ele>293.019</ele>
        <time>2016-10-18T00:34:17Z</time>
      </trkpt>
      <trkpt lat="41.521849" lon="1.728619">
        <ele>306.043</ele>
        <time>2016-10-18T00:34:37Z</time>
      </trkpt>
      <trkpt lat="41.522017" lon="1.729252">
        <ele>303.054</ele>
        <time>2016-10-18T00:34:57Z</time>
      </trkpt>
      <trkpt lat="41.522965" lon="1.729692">
        <ele>301.090</ele>
        <time>2016-10-18T00:35:17Z</time>
      </trkpt>
      <trkpt lat="41.523704" lon="1.729939">
        <ele>307.025</ele>
        <time>2016-10-18T00:35:37Z</time>
      </trkpt>
      <trkpt lat="41.523897" lon="1.730250">
        <ele>310.016</ele>
        <time>2016-10-18T00:35:57Z</time>
      </trkpt>
      <trkpt lat="41.524797" lon="1.730014">
        <ele>322.022</ele>
        <time>2016-10-18T00:36:17Z</time>
      </trkpt>
      <trkpt lat="41.525254" lon="1.730207">
        <ele>322.013</ele>
        <time>2016-10-18T00:36:37Z</time>
      </trkpt>
      <trkpt lat="41.525632" lon="1.729982">
        <ele>324.043</ele>
        <time>2016-10-18T00:36:57Z</time>
      </trkpt>
      <trkpt lat="41.525945" lon="1.729510">
        <ele>325.007</ele>
        <time>2016-10-18T00:37:17Z</time>
      </trkpt>
      <trkpt lat="41.526644" lon="1.729070">
        <ele>327.009</ele>
        <time>2016-10-18T00:37:37Z</time>
      </trkpt>
      <trkpt lat="41.527263" lon="1.729134">
        <ele>327.092</ele>
        <time>2016-10-18T00:37:57Z</time>
      </trkpt>
      <trkpt lat="41.528226" lon="1.728920">
        <ele>328.013</ele>
        <time>2016-10-18T00:38:17Z</time>
      </trkpt>
      <trkpt lat="41.528821" lon="1.728791">
        <ele>335.074</ele>
        <time>2016-10-18T00:38:37Z</time>
      </trkpt>
      <trkpt lat="41.529319" lon="1.728126">
        <ele>338.038</ele>
        <time>2016-10-18T00:38:57Z</time>
      </trkpt>
      <trkpt lat="41.528499" lon="1.726559">
        <ele>322.069</ele>
        <time>2016-10-18T00:39:17Z</time>
      </trkpt>
      <trkpt lat="41.528018" lon="1.726044">
        <ele>319.075</ele>
        <time>2016-10-18T00:39:37Z</time>
      </trkpt>
      <trkpt lat="41.528090" lon="1.725240">
        <ele>316.070</ele>
        <time>2016-10-18T00:39:57Z</time>
      </trkpt>
      <trkpt lat="41.528507" lon="1.724489">
        <ele>315.061</ele>
        <time>2016-10-18T00:40:17Z</time>
      </trkpt>
      <trkpt lat="41.528797" lon="1.724274">
        <ele>314.037</ele>
        <time>2016-10-18T00:40:37Z</time>
      </trkpt>
      <trkpt lat="41.528981" lon="1.723695">
        <ele>312.082</ele>
        <time>2016-10-18T00:40:57Z</time>
      </trkpt>
      <trkpt lat="41.528917" lon="1.723373">
        <ele>312.043</ele>
        <time>2016-10-18T00:41:17Z</time>
      </trkpt>
      <trkpt lat="41.528387" lon="1.722482">
        <ele>308.017</ele>
        <time>2016-10-18T00:41:37Z</time>
      </trkpt>
      <trkpt lat="41.528066" lon="1.722075">
        <ele>308.009</ele>
        <time>2016-10-18T00:41:57Z</time>
      </trkpt>
      <trkpt lat="41.527857" lon="1.722268">
        <ele>304.049</ele>
        <time>2016-10-18T00:42:17Z</time>
      </trkpt>
      <trkpt lat="41.527359" lon="1.722214">
        <ele>301.030</ele>
        <time>2016-10-18T00:42:37Z</time>
      </trkpt>
      <trkpt lat="41.526331" lon="1.722032">
        <ele>296.061</ele>
        <time>2016-10-18T00:42:57Z</time>
      </trkpt>
      <trkpt lat="41.526106" lon="1.722193">
        <ele>294.025</ele>
        <time>2016-10-18T00:43:17Z</time>
      </trkpt>
      <trkpt lat="41.525640" lon="1.722182">
        <ele>293.016</ele>
        <time>2016-10-18T00:43:37Z</time>
      </trkpt>
      <trkpt lat="41.525126" lon="1.721785">
        <ele>289.022</ele>
        <time>2016-10-18T00:43:57Z</time>
      </trkpt>
      <trkpt lat="41.523849" lon="1.720970">
        <ele>280.087</ele>
        <time>2016-10-18T00:44:17Z</time>
      </trkpt>
      <trkpt lat="41.523447" lon="1.720744">
        <ele>276.088</ele>
        <time>2016-10-18T00:44:37Z</time>
      </trkpt>
      <trkpt lat="41.523118" lon="1.720626">
        <ele>273.014</ele>
        <time>2016-10-18T00:44:57Z</time>
      </trkpt>
      <trkpt lat="41.522893" lon="1.720347">
        <ele>271.072</ele>
        <time>2016-10-18T00:45:17Z</time>
      </trkpt>
      <trkpt lat="41.522572" lon="1.719307">
        <ele>269.013</ele>
        <time>2016-10-18T00:45:37Z</time>
      </trkpt>
      <trkpt lat="41.522250" lon="1.718824">
        <ele>269.014</ele>
        <time>2016-10-18T00:45:57Z</time>
      </trkpt>
      <trkpt lat="41.521897" lon="1.717891">
        <ele>265.009</ele>
        <time>2016-10-18T00:46:17Z</time>
      </trkpt>
      <trkpt lat="41.521648" lon="1.717236">
        <ele>263.058</ele>
        <time>2016-10-18T00:46:37Z</time>
      </trkpt>
      <trkpt lat="41.521246" lon="1.716775">
        <ele>263.079</ele>
        <time>2016-10-18T00:46:57Z</time>
      </trkpt>
      <trkpt lat="41.520869" lon="1.716732">
        <ele>262.090</ele>
        <time>2016-10-18T00:47:17Z</time>
      </trkpt>
      <trkpt lat="41.520427" lon="1.716818">
        <ele>259.064</ele>
        <time>2016-10-18T00:47:37Z</time>
      </trkpt>
      <trkpt lat="41.520170" lon="1.716903">
        <ele>256.085</ele>
        <time>2016-10-18T00:47:57Z</time>
      </trkpt>
      <trkpt lat="41.519559" lon="1.716775">
        <ele>249.071</ele>
        <time>2016-10-18T00:48:17Z</time>
      </trkpt>
      <trkpt lat="41.519334" lon="1.716743">
        <ele>249.036</ele>
        <time>2016-10-18T00:48:37Z</time>
      </trkpt>
      <trkpt lat="41.518611" lon="1.716421">
        <ele>244.017</ele>
        <time>2016-10-18T00:48:57Z</time>
      </trkpt>
      <trkpt lat="41.518282" lon="1.715938">
        <ele>243.083</ele>
        <time>2016-10-18T00:49:17Z</time>
      </trkpt>
      <trkpt lat="41.518137" lon="1.715841">
        <ele>242.043</ele>
        <time>2016-10-18T00:49:37Z</time>
      </trkpt>
      <trkpt lat="41.517752" lon="1.715627">
        <ele>241.064</ele>
        <time>2016-10-18T00:49:57Z</time>
      </trkpt>
      <trkpt lat="41.517101" lon="1.715305">
        <ele>241.010</ele>
        <time>2016-10-18T00:50:17Z</time>
      </trkpt>
      <trkpt lat="41.517005" lon="1.715240">
        <ele>239.009</ele>
        <time>2016-10-18T00:50:37Z</time>
      </trkpt>
      <trkpt lat="41.517262" lon="1.714972">
        <ele>241.015</ele>
        <time>2016-10-18T00:50:57Z</time>
      </trkpt>
      <trkpt lat="41.517712" lon="1.715230">
        <ele>242.086</ele>
        <time>2016-10-18T00:51:17Z</time>
      </trkpt>
      <trkpt lat="41.518820" lon="1.714983">
        <ele>247.087</ele>
        <time>2016-10-18T00:51:37Z</time>
      </trkpt>
      <trkpt lat="41.519270" lon="1.714028">
        <ele>259.011</ele>
        <time>2016-10-18T00:51:57Z</time>
      </trkpt>
      <trkpt lat="41.519535" lon="1.713513">
        <ele>265.072</ele>
        <time>2016-10-18T00:52:17Z</time>
      </trkpt>
      <trkpt lat="41.519712" lon="1.712043">
        <ele>280.068</ele>
        <time>2016-10-18T00:52:37Z</time>
      </trkpt>
      <trkpt lat="41.519624" lon="1.711947">
        <ele>280.013</ele>
        <time>2016-10-18T00:52:57Z</time>
      </trkpt>
      <trkpt lat="41.519672" lon="1.711560">
        <ele>282.084</ele>
        <time>2016-10-18T00:53:17Z</time>
      </trkpt>
      <trkpt lat="41.519487" lon="1.711324">
        <ele>283.050</ele>
        <time>2016-10-18T00:53:37Z</time>
      </trkpt>
      <trkpt lat="41.519238" lon="1.709350">
        <ele>289.011</ele>
        <time>2016-10-18T00:53:57Z</time>
      </trkpt>
      <trkpt lat="41.519350" lon="1.709189">
        <ele>289.021</ele>
        <time>2016-10-18T00:54:17Z</time>
      </trkpt>
      <trkpt lat="41.518740" lon="1.708009">
        <ele>285.003</ele>
        <time>2016-10-18T00:54:37Z</time>
      </trkpt>
      <trkpt lat="41.518547" lon="1.707591">
        <ele>282.009</ele>
        <time>2016-10-18T00:54:57Z</time>
      </trkpt>
      <trkpt lat="41.518981" lon="1.707559">
        <ele>282.082</ele>
        <time>2016-10-18T00:55:17Z</time>
      </trkpt>
      <trkpt lat="41.519134" lon="1.708117">
        <ele>285.073</ele>
        <time>2016-10-18T00:55:37Z</time>
      </trkpt>
      <trkpt lat="41.519205" lon="1.708248">
        <ele>287.044</ele>
        <time>2016-10-18T00:55:57Z</time>
      </trkpt>
      <trkpt lat="41.519516" lon="1.708017">
        <ele>284.028</ele>
        <time>2016-10-18T00:56:17Z</time>
      </trkpt>
      <trkpt lat="41.519987" lon="1.707213">
        <ele>279.089</ele>
        <time>2016-10-18T00:56:37Z</time>
      </trkpt>
      <trkpt lat="41.520270" lon="1.706196">
        <ele>265.085</ele>
        <time>2016-10-18T00:56:57Z</time>
      </trkpt>
      <trkpt lat="41.520519" lon="1.705654">
        <ele>248.010</ele>
        <time>2016-10-18T00:57:17Z</time>
      </trkpt>
      <trkpt lat="41.521070" lon="1.705284">
        <ele>236.091</ele>
        <time>2016-10-18T00:57:37Z</time>
      </trkpt>
      <trkpt lat="41.521600" lon="1.705359">
        <ele>231.097</ele>
        <time>2016-10-18T00:57:57Z</time>
      </trkpt>
      <trkpt lat="41.522098" lon="1.705649">
        <ele>234.096</ele>
        <time>2016-10-18T00:58:17Z</time>
      </trkpt>
      <trkpt lat="41.522668" lon="1.705981">
        <ele>241.031</ele>
        <time>2016-10-18T00:58:37Z</time>
      </trkpt>
      <trkpt lat="41.523013" lon="1.706035">
        <ele>243.024</ele>
        <time>2016-10-18T00:58:57Z</time>
      </trkpt>
      <trkpt lat="41.522957" lon="1.705842">
        <ele>243.009</ele>
        <time>2016-10-18T00:59:17Z</time>
      </trkpt>
      <trkpt lat="41.522740" lon="1.705338">
        <ele>242.040</ele>
        <time>2016-10-18T00:59:37Z</time>
      </trkpt>
      <trkpt lat="41.522636" lon="1.705166">
        <ele>238.061</ele>
        <time>2016-10-18T00:59:57Z</time>
      </trkpt>
      <trkpt lat="41.522556" lon="1.704930">
        <ele>240.062</ele>
        <time>2016-10-18T01:00:17Z</time>
      </trkpt>
      <trkpt lat="41.522202" lon="1.704522">
        <ele>237.026</ele>
        <time>2016-10-18T01:00:37Z</time>
      </trkpt>
      <trkpt lat="41.521905" lon="1.704286">
        <ele>235.087</ele>
        <time>2016-10-18T01:00:57Z</time>
      </trkpt>
      <trkpt lat="41.521519" lon="1.704018">
        <ele>231.063</ele>
        <time>2016-10-18T01:01:17Z</time>
      </trkpt>
      <trkpt lat="41.520837" lon="1.703224">
        <ele>227.018</ele>
        <time>2016-10-18T01:01:37Z</time>
      </trkpt>
      <trkpt lat="41.520660" lon="1.702752">
        <ele>226.089</ele>
        <time>2016-10-18T01:01:57Z</time>
      </trkpt>
      <trkpt lat="41.520660" lon="1.701894">
        <ele>227.095</ele>
        <time>2016-10-18T01:02:17Z</time>
      </trkpt>
      <trkpt lat="41.520724" lon="1.699812">
        <ele>226.011</ele>
        <time>2016-10-18T01:02:37Z</time>
      </trkpt>
      <trkpt lat="41.520708" lon="1.698825">
        <ele>225.021</ele>
        <time>2016-10-18T01:02:57Z</time>
      </trkpt>
      <trkpt lat="41.520676" lon="1.697366">
        <ele>227.003</ele>
        <time>2016-10-18T01:03:17Z</time>
      </trkpt>
      <trkpt lat="41.520772" lon="1.696401">
        <ele>231.009</ele>
        <time>2016-10-18T01:03:37Z</time>
      </trkpt>
      <trkpt lat="41.520885" lon="1.695800">
        <ele>231.092</ele>
        <time>2016-10-18T01:03:57Z</time>
      </trkpt>
      <trkpt lat="41.521094" lon="1.695328">
        <ele>235.033</ele>
        <time>2016-10-18T01:04:17Z</time>
      </trkpt>
      <trkpt lat="41.521094" lon="1.694748">
        <ele>234.034</ele>
        <time>2016-10-18T01:04:37Z</time>
      </trkpt>
      <trkpt lat="41.521383" lon="1.694019">
        <ele>237.058</ele>
        <time>2016-10-18T01:04:57Z</time>
      </trkpt>
      <trkpt lat="41.521608" lon="1.693633">
        <ele>241.039</ele>
        <time>2016-10-18T01:05:17Z</time>
      </trkpt>
      <trkpt lat="41.521784" lon="1.693225">
        <ele>241.025</ele>
        <time>2016-10-18T01:05:37Z</time>
      </trkpt>
      <trkpt lat="41.521704" lon="1.692989">
        <ele>241.040</ele>
        <time>2016-10-18T01:05:57Z</time>
      </trkpt>
      <trkpt lat="41.521704" lon="1.691637">
        <ele>249.011</ele>
        <time>2016-10-18T01:06:17Z</time>
      </trkpt>
      <trkpt lat="41.521704" lon="1.691503">
        <ele>252.087</ele>
        <time>2016-10-18T01:06:37Z</time>
      </trkpt>
      <trkpt lat="41.522355" lon="1.691535">
        <ele>246.025</ele>
        <time>2016-10-18T01:06:57Z</time>
      </trkpt>
      <trkpt lat="41.522548" lon="1.691862">
        <ele>244.026</ele>
        <time>2016-10-18T01:07:17Z</time>
      </trkpt>
      <trkpt lat="41.523194" lon="1.692125">
        <ele>241.008</ele>
        <time>2016-10-18T01:07:37Z</time>
      </trkpt>
      <trkpt lat="41.523708" lon="1.692361">
        <ele>240.009</ele>
        <time>2016-10-18T01:07:57Z</time>
      </trkpt>
      <trkpt lat="41.524403" lon="1.692796">
        <ele>239.013</ele>
        <time>2016-10-18T01:08:17Z</time>
      </trkpt>
      <trkpt lat="41.524917" lon="1.692935">
        <ele>240.084</ele>
        <time>2016-10-18T01:08:37Z</time>
      </trkpt>
      <trkpt lat="41.525857" lon="1.692635">
        <ele>240.025</ele>
        <time>2016-10-18T01:08:57Z</time>
      </trkpt>
      <trkpt lat="41.526427" lon="1.691884">
        <ele>246.019</ele>
        <time>2016-10-18T01:09:17Z</time>
      </trkpt>
      <trkpt lat="41.526997" lon="1.691508">
        <ele>265.010</ele>
        <time>2016-10-18T01:09:37Z</time>
      </trkpt>
      <trkpt lat="41.527198" lon="1.691176">
        <ele>276.016</ele>
        <time>2016-10-18T01:09:57Z</time>
      </trkpt>
      <trkpt lat="41.528532" lon="1.690811">
        <ele>274.051</ele>
        <time>2016-10-18T01:10:17Z</time>
      </trkpt>
      <trkpt lat="41.529536" lon="1.690832">
        <ele>274.052</ele>
        <time>2016-10-18T01:10:37Z</time>
      </trkpt>
      <trkpt lat="41.530628" lon="1.690854">
        <ele>269.098</ele>
        <time>2016-10-18T01:10:57Z</time>
      </trkpt>
      <trkpt lat="41.531560" lon="1.690446">
        <ele>265.092</ele>
        <time>2016-10-18T01:11:17Z</time>
      </trkpt>
      <trkpt lat="41.533126" lon="1.689427">
        <ele>266.073</ele>
        <time>2016-10-18T01:11:37Z</time>
      </trkpt>
      <trkpt lat="41.534290" lon="1.689652">
        <ele>250.020</ele>
        <time>2016-10-18T01:11:57Z</time>
      </trkpt>
      <trkpt lat="41.535447" lon="1.689148">
        <ele>248.009</ele>
        <time>2016-10-18T01:12:17Z</time>
      </trkpt>
      <trkpt lat="41.535896" lon="1.689320">
        <ele>242.050</ele>
        <time>2016-10-18T01:12:37Z</time>
      </trkpt>
      <trkpt lat="41.536956" lon="1.688708">
        <ele>255.011</ele>
        <time>2016-10-18T01:12:57Z</time>
      </trkpt>
      <trkpt lat="41.537230" lon="1.687914">
        <ele>260.042</ele>
        <time>2016-10-18T01:13:17Z</time>
      </trkpt>
      <trkpt lat="41.537221" lon="1.687592">
        <ele>262.036</ele>
        <time>2016-10-18T01:13:37Z</time>
      </trkpt>
      <trkpt lat="41.537655" lon="1.686841">
        <ele>266.027</ele>
        <time>2016-10-18T01:13:57Z</time>
      </trkpt>
      <trkpt lat="41.537719" lon="1.686487">
        <ele>271.043</ele>
        <time>2016-10-18T01:14:17Z</time>
      </trkpt>
      <trkpt lat="41.538169" lon="1.686895">
        <ele>266.068</ele>
        <time>2016-10-18T01:14:37Z</time>
      </trkpt>
      <trkpt lat="41.538595" lon="1.687442">
        <ele>266.019</ele>
        <time>2016-10-18T01:14:57Z</time>
      </trkpt>
      <trkpt lat="41.540257" lon="1.687775">
        <ele>273.095</ele>
        <time>2016-10-18T01:15:17Z</time>
      </trkpt>
      <trkpt lat="41.542016" lon="1.687828">
        <ele>266.079</ele>
        <time>2016-10-18T01:15:37Z</time>
      </trkpt>
      <trkpt lat="41.542321" lon="1.687635">
        <ele>271.005</ele>
        <time>2016-10-18T01:15:57Z</time>
      </trkpt>
      <trkpt lat="41.544529" lon="1.687635">
        <ele>269.025</ele>
        <time>2016-10-18T01:16:17Z</time>
      </trkpt>
      <trkpt lat="41.545332" lon="1.687646">
        <ele>263.009</ele>
        <time>2016-10-18T01:16:37Z</time>
      </trkpt>
      <trkpt lat="41.545838" lon="1.687485">
        <ele>263.048</ele>
        <time>2016-10-18T01:16:57Z</time>
      </trkpt>
      <trkpt lat="41.546264" lon="1.687034">
        <ele>265.039</ele>
        <time>2016-10-18T01:17:17Z</time>
      </trkpt>
      <trkpt lat="41.547107" lon="1.686423">
        <ele>270.050</ele>
        <time>2016-10-18T01:17:37Z</time>
      </trkpt>
      <trkpt lat="41.547685" lon="1.686401">
        <ele>264.024</ele>
        <time>2016-10-18T01:17:57Z</time>
      </trkpt>
      <trkpt lat="41.548207" lon="1.685768">
        <ele>264.075</ele>
        <time>2016-10-18T01:18:17Z</time>
      </trkpt>
      <trkpt lat="41.549379" lon="1.684191">
        <ele>267.051</ele>
        <time>2016-10-18T01:18:37Z</time>
      </trkpt>
      <trkpt lat="41.550656" lon="1.682732">
        <ele>271.046</ele>
        <time>2016-10-18T01:18:57Z</time>
      </trkpt>
      <trkpt lat="41.551226" lon="1.682035">
        <ele>263.027</ele>
        <time>2016-10-18T01:19:17Z</time>
      </trkpt>
      <trkpt lat="41.551370" lon="1.681734">
        <ele>256.033</ele>
        <time>2016-10-18T01:19:37Z</time>
      </trkpt>
      <trkpt lat="41.551266" lon="1.681176">
        <ele>256.053</ele>
        <time>2016-10-18T01:19:57Z</time>
      </trkpt>
      <trkpt lat="41.550326" lon="1.680382">
        <ele>271.004</ele>
        <time>2016-10-18T01:20:17Z</time>
      </trkpt>
      <trkpt lat="41.549716" lon="1.679438">
        <ele>269.014</ele>
        <time>2016-10-18T01:20:37Z</time>
      </trkpt>
      <trkpt lat="41.549676" lon="1.679095">
        <ele>264.009</ele>
        <time>2016-10-18T01:20:57Z</time>
      </trkpt>
      <trkpt lat="41.549612" lon="1.678494">
        <ele>259.026</ele>
        <time>2016-10-18T01:21:17Z</time>
      </trkpt>
      <trkpt lat="41.549716" lon="1.678033">
        <ele>257.017</ele>
        <time>2016-10-18T01:21:37Z</time>
      </trkpt>
      <trkpt lat="41.549869" lon="1.677647">
        <ele>257.018</ele>
        <time>2016-10-18T01:21:57Z</time>
      </trkpt>
      <trkpt lat="41.549997" lon="1.677346">
        <ele>258.022</ele>
        <time>2016-10-18T01:22:17Z</time>
      </trkpt>
      <trkpt lat="41.550094" lon="1.677024">
        <ele>259.063</ele>
        <time>2016-10-18T01:22:37Z</time>
      </trkpt>
      <trkpt lat="41.550236" lon="1.676831">
        <ele>259.079</ele>
        <time>2016-10-18T01:22:57Z</time>
      </trkpt>
      <trkpt lat="41.550718" lon="1.676483">
        <ele>265.034</ele>
        <time>2016-10-18T01:23:17Z</time>
      </trkpt>
      <trkpt lat="41.550919" lon="1.676625">
        <ele>264.055</ele>
        <time>2016-10-18T01:23:37Z</time>
      </trkpt>
      <trkpt lat="41.551180" lon="1.676721">
        <ele>266.011</ele>
        <time>2016-10-18T01:23:57Z</time>
      </trkpt>
      <trkpt lat="41.551278" lon="1.676788">
        <ele>269.036</ele>
        <time>2016-10-18T01:24:17Z</time>
      </trkpt>
      <trkpt lat="41.551296" lon="1.677078">
        <ele>268.017</ele>
        <time>2016-10-18T01:24:37Z</time>
      </trkpt>
      <trkpt lat="41.551402" lon="1.677437">
        <ele>265.018</ele>
        <time>2016-10-18T01:24:57Z</time>
      </trkpt>
      <trkpt lat="41.551495" lon="1.677609">
        <ele>265.009</ele>
        <time>2016-10-18T01:25:17Z</time>
      </trkpt>
      <trkpt lat="41.552298" lon="1.677234">
        <ele>269.054</ele>
        <time>2016-10-18T01:25:37Z</time>
      </trkpt>
      <trkpt lat="41.553526" lon="1.676998">
        <ele>263.045</ele>
        <time>2016-10-18T01:25:57Z</time>
      </trkpt>
      <trkpt lat="41.553683" lon="1.677126">
        <ele>262.036</ele>
        <time>2016-10-18T01:26:17Z</time>
      </trkpt>
      <trkpt lat="41.553670" lon="1.677346">
        <ele>262.070</ele>
        <time>2016-10-18T01:26:37Z</time>
      </trkpt>
      <trkpt lat="41.553550" lon="1.677432">
        <ele>262.071</ele>
        <time>2016-10-18T01:26:57Z</time>
      </trkpt>
      <trkpt lat="41.553333" lon="1.677421">
        <ele>262.097</ele>
        <time>2016-10-18T01:27:17Z</time>
      </trkpt>
      <trkpt lat="41.553261" lon="1.677405">
        <ele>262.092</ele>
        <time>2016-10-18T01:27:37Z</time>
      </trkpt>
      <trkpt lat="41.553189" lon="1.677271">
        <ele>264.013</ele>
        <time>2016-10-18T01:27:57Z</time>
      </trkpt>
      <trkpt lat="41.552988" lon="1.675833">
        <ele>272.089</ele>
        <time>2016-10-18T01:28:17Z</time>
      </trkpt>
      <trkpt lat="41.553751" lon="1.675968">
        <ele>268.096</ele>
        <time>2016-10-18T01:28:37Z</time>
      </trkpt>
      <trkpt lat="41.554654" lon="1.675614">
        <ele>267.031</ele>
        <time>2016-10-18T01:28:57Z</time>
      </trkpt>
      <trkpt lat="41.555328" lon="1.674707">
        <ele>273.024</ele>
        <time>2016-10-18T01:29:17Z</time>
      </trkpt>
      <trkpt lat="41.557095" lon="1.673023">
        <ele>273.009</ele>
        <time>2016-10-18T01:29:37Z</time>
      </trkpt>
      <trkpt lat="41.557544" lon="1.672894">
        <ele>277.020</ele>
        <time>2016-10-18T01:29:57Z</time>
      </trkpt>
      <trkpt lat="41.559150" lon="1.673028">
        <ele>275.061</ele>
        <time>2016-10-18T01:30:17Z</time>
      </trkpt>
      <trkpt lat="41.559214" lon="1.672813">
        <ele>278.042</ele>
        <time>2016-10-18T01:30:37Z</time>
      </trkpt>
      <trkpt lat="41.559146" lon="1.672470">
        <ele>281.046</ele>
        <time>2016-10-18T01:30:57Z</time>
      </trkpt>
      <trkpt lat="41.559090" lon="1.672255">
        <ele>283.027</ele>
        <time>2016-10-18T01:31:17Z</time>
      </trkpt>
      <trkpt lat="41.559190" lon="1.671955">
        <ele>285.043</ele>
        <time>2016-10-18T01:31:37Z</time>
      </trkpt>
      <trkpt lat="41.559367" lon="1.671724">
        <ele>283.078</ele>
        <time>2016-10-18T01:31:57Z</time>
      </trkpt>
      <trkpt lat="41.559439" lon="1.671504">
        <ele>284.019</ele>
        <time>2016-10-18T01:32:17Z</time>
      </trkpt>
      <trkpt lat="41.559547" lon="1.670748">
        <ele>286.045</ele>
        <time>2016-10-18T01:32:37Z</time>
      </trkpt>
      <trkpt lat="41.560013" lon="1.669976">
        <ele>295.039</ele>
        <time>2016-10-18T01:32:57Z</time>
      </trkpt>
      <trkpt lat="41.560001" lon="1.669562">
        <ele>298.001</ele>
        <time>2016-10-18T01:33:17Z</time>
      </trkpt>
      <trkpt lat="41.559953" lon="1.669348">
        <ele>298.021</ele>
        <time>2016-10-18T01:33:37Z</time>
      </trkpt>
      <trkpt lat="41.559836" lon="1.669106">
        <ele>300.009</ele>
        <time>2016-10-18T01:33:57Z</time>
      </trkpt>
      <trkpt lat="41.559812" lon="1.668774">
        <ele>302.074</ele>
        <time>2016-10-18T01:34:17Z</time>
      </trkpt>
      <trkpt lat="41.559973" lon="1.668157">
        <ele>304.035</ele>
        <time>2016-10-18T01:34:37Z</time>
      </trkpt>
      <trkpt lat="41.560342" lon="1.667218">
        <ele>300.056</ele>
        <time>2016-10-18T01:34:57Z</time>
      </trkpt>
      <trkpt lat="41.560370" lon="1.667030">
        <ele>300.010</ele>
        <time>2016-10-18T01:35:17Z</time>
      </trkpt>
      <trkpt lat="41.560454" lon="1.667127">
        <ele>292.041</ele>
        <time>2016-10-18T01:35:37Z</time>
      </trkpt>
      <trkpt lat="41.560539" lon="1.667358">
        <ele>292.037</ele>
        <time>2016-10-18T01:35:57Z</time>
      </trkpt>
      <trkpt lat="41.560595" lon="1.667293">
        <ele>292.092</ele>
        <time>2016-10-18T01:36:17Z</time>
      </trkpt>
      <trkpt lat="41.560563" lon="1.667100">
        <ele>292.083</ele>
        <time>2016-10-18T01:36:37Z</time>
      </trkpt>
      <trkpt lat="41.560511" lon="1.666553">
        <ele>291.089</ele>
        <time>2016-10-18T01:36:57Z</time>
      </trkpt>
      <trkpt lat="41.560414" lon="1.666312">
        <ele>299.045</ele>
        <time>2016-10-18T01:37:17Z</time>
      </trkpt>
      <trkpt lat="41.560338" lon="1.666043">
        <ele>299.047</ele>
        <time>2016-10-18T01:37:37Z</time>
      </trkpt>
      <trkpt lat="41.560169" lon="1.665877">
        <ele>299.011</ele>
        <time>2016-10-18T01:37:57Z</time>
      </trkpt>
      <trkpt lat="41.560041" lon="1.665689">
        <ele>308.009</ele>
        <time>2016-10-18T01:38:17Z</time>
      </trkpt>
      <trkpt lat="41.560069" lon="1.665512">
        <ele>308.015</ele>
        <time>2016-10-18T01:38:37Z</time>
      </trkpt>
      <trkpt lat="41.560366" lon="1.665469">
        <ele>299.046</ele>
        <time>2016-10-18T01:38:57Z</time>
      </trkpt>
      <trkpt lat="41.560591" lon="1.665164">
        <ele>291.057</ele>
        <time>2016-10-18T01:39:17Z</time>
      </trkpt>
      <trkpt lat="41.561386" lon="1.663023">
        <ele>283.091</ele>
        <time>2016-10-18T01:39:37Z</time>
      </trkpt>
      <trkpt lat="41.561875" lon="1.661607">
        <ele>281.062</ele>
        <time>2016-10-18T01:39:57Z</time>
      </trkpt>
      <trkpt lat="41.561586" lon="1.661226">
        <ele>287.078</ele>
        <time>2016-10-18T01:40:17Z</time>
      </trkpt>
      <trkpt lat="41.561835" lon="1.661167">
        <ele>284.053</ele>
        <time>2016-10-18T01:40:37Z</time>
      </trkpt>
      <trkpt lat="41.562184" lon="1.659874">
        <ele>286.014</ele>
        <time>2016-10-18T01:40:57Z</time>
      </trkpt>
      <trkpt lat="41.562586" lon="1.659161">
        <ele>286.060</ele>
        <time>2016-10-18T01:41:17Z</time>
      </trkpt>
      <trkpt lat="41.562774" lon="1.658791">
        <ele>283.051</ele>
        <time>2016-10-18T01:41:37Z</time>
      </trkpt>
      <trkpt lat="41.563220" lon="1.658587">
        <ele>276.001</ele>
        <time>2016-10-18T01:41:57Z</time>
      </trkpt>
      <trkpt lat="41.563328" lon="1.658351">
        <ele>278.011</ele>
        <time>2016-10-18T01:42:17Z</time>
      </trkpt>
      <trkpt lat="41.563577" lon="1.658008">
        <ele>276.009</ele>
        <time>2016-10-18T01:42:37Z</time>
      </trkpt>
      <trkpt lat="41.564103" lon="1.656307">
        <ele>281.026</ele>
        <time>2016-10-18T01:42:57Z</time>
      </trkpt>
      <trkpt lat="41.564392" lon="1.655588">
        <ele>280.027</ele>
        <time>2016-10-18T01:43:17Z</time>
      </trkpt>
      <trkpt lat="41.564689" lon="1.655030">
        <ele>275.018</ele>
        <time>2016-10-18T01:43:37Z</time>
      </trkpt>
      <trkpt lat="41.564737" lon="1.653925">
        <ele>275.032</ele>
        <time>2016-10-18T01:43:57Z</time>
      </trkpt>
      <trkpt lat="41.564601" lon="1.653754">
        <ele>275.033</ele>
        <time>2016-10-18T01:44:17Z</time>
      </trkpt>
      <trkpt lat="41.564633" lon="1.653582">
        <ele>276.099</ele>
        <time>2016-10-18T01:44:37Z</time>
      </trkpt>
      <trkpt lat="41.564825" lon="1.653764">
        <ele>275.074</ele>
        <time>2016-10-18T01:44:57Z</time>
      </trkpt>
      <trkpt lat="41.565203" lon="1.653786">
        <ele>271.055</ele>
        <time>2016-10-18T01:45:17Z</time>
      </trkpt>
      <trkpt lat="41.565508" lon="1.653517">
        <ele>271.061</ele>
        <time>2016-10-18T01:45:37Z</time>
      </trkpt>
      <trkpt lat="41.566086" lon="1.651897">
        <ele>274.074</ele>
        <time>2016-10-18T01:45:57Z</time>
      </trkpt>
      <trkpt lat="41.566150" lon="1.651447">
        <ele>273.056</ele>
        <time>2016-10-18T01:46:17Z</time>
      </trkpt>
      <trkpt lat="41.566303" lon="1.649837">
        <ele>275.021</ele>
        <time>2016-10-18T01:46:37Z</time>
      </trkpt>
      <trkpt lat="41.567378" lon="1.649966">
        <ele>279.009</ele>
        <time>2016-10-18T01:46:57Z</time>
      </trkpt>
      <trkpt lat="41.567266" lon="1.649837">
        <ele>278.088</ele>
        <time>2016-10-18T01:47:17Z</time>
      </trkpt>
      <trkpt lat="41.566913" lon="1.649494">
        <ele>278.079</ele>
        <time>2016-10-18T01:47:37Z</time>
      </trkpt>
      <trkpt lat="41.566824" lon="1.649387">
        <ele>278.050</ele>
        <time>2016-10-18T01:47:57Z</time>
      </trkpt>
      <trkpt lat="41.566808" lon="1.648808">
        <ele>279.024</ele>
        <time>2016-10-18T01:48:17Z</time>
      </trkpt>
      <trkpt lat="41.566937" lon="1.648625">
        <ele>280.045</ele>
        <time>2016-10-18T01:48:37Z</time>
      </trkpt>
      <trkpt lat="41.566600" lon="1.648647">
        <ele>278.091</ele>
        <time>2016-10-18T01:48:57Z</time>
      </trkpt>
      <trkpt lat="41.566278" lon="1.648453">
        <ele>277.026</ele>
        <time>2016-10-18T01:49:17Z</time>
      </trkpt>
      <trkpt lat="41.565917" lon="1.647960">
        <ele>274.067</ele>
        <time>2016-10-18T01:49:37Z</time>
      </trkpt>
      <trkpt lat="41.565725" lon="1.647681">
        <ele>274.033</ele>
        <time>2016-10-18T01:49:57Z</time>
      </trkpt>
      <trkpt lat="41.565411" lon="1.647466">
        <ele>272.077</ele>
        <time>2016-10-18T01:50:17Z</time>
      </trkpt>
      <trkpt lat="41.565026" lon="1.647069">
        <ele>271.061</ele>
        <time>2016-10-18T01:50:37Z</time>
      </trkpt>
      <trkpt lat="41.564785" lon="1.646866">
        <ele>271.027</ele>
        <time>2016-10-18T01:50:57Z</time>
      </trkpt>
      <trkpt lat="41.564520" lon="1.646619">
        <ele>272.009</ele>
        <time>2016-10-18T01:51:17Z</time>
      </trkpt>
      <trkpt lat="41.564047" lon="1.646211">
        <ele>273.068</ele>
        <time>2016-10-18T01:51:37Z</time>
      </trkpt>
      <trkpt lat="41.563188" lon="1.645278">
        <ele>272.089</ele>
        <time>2016-10-18T01:51:57Z</time>
      </trkpt>
      <trkpt lat="41.562795" lon="1.644720">
        <ele>272.030</ele>
        <time>2016-10-18T01:52:17Z</time>
      </trkpt>
      <trkpt lat="41.562626" lon="1.644130">
        <ele>273.064</ele>
        <time>2016-10-18T01:52:37Z</time>
      </trkpt>
      <trkpt lat="41.562698" lon="1.642960">
        <ele>276.095</ele>
        <time>2016-10-18T01:52:57Z</time>
      </trkpt>
      <trkpt lat="41.563742" lon="1.642005">
        <ele>279.081</ele>
        <time>2016-10-18T01:53:17Z</time>
      </trkpt>
      <trkpt lat="41.564986" lon="1.640611">
        <ele>278.026</ele>
        <time>2016-10-18T01:53:37Z</time>
      </trkpt>
      <trkpt lat="41.565010" lon="1.640385">
        <ele>277.077</ele>
        <time>2016-10-18T01:53:57Z</time>
      </trkpt>
      <trkpt lat="41.567073" lon="1.639248">
        <ele>285.033</ele>
        <time>2016-10-18T01:54:17Z</time>
      </trkpt>
      <trkpt lat="41.567988" lon="1.638240">
        <ele>280.096</ele>
        <time>2016-10-18T01:54:37Z</time>
      </trkpt>
      <trkpt lat="41.569224" lon="1.636029">
        <ele>281.031</ele>
        <time>2016-10-18T01:54:57Z</time>
      </trkpt>
      <trkpt lat="41.569979" lon="1.636137">
        <ele>285.024</ele>
        <time>2016-10-18T01:55:17Z</time>
      </trkpt>
      <trkpt lat="41.569666" lon="1.637006">
        <ele>286.009</ele>
        <time>2016-10-18T01:55:37Z</time>
      </trkpt>
      <trkpt lat="41.569273" lon="1.637703">
        <ele>284.050</ele>
        <time>2016-10-18T01:55:57Z</time>
      </trkpt>
      <trkpt lat="41.569096" lon="1.638315">
        <ele>285.021</ele>
        <time>2016-10-18T01:56:17Z</time>
      </trkpt>
      <trkpt lat="41.569120" lon="1.639237">
        <ele>288.022</ele>
        <time>2016-10-18T01:56:37Z</time>
      </trkpt>
      <trkpt lat="41.569313" lon="1.640664">
        <ele>294.096</ele>
        <time>2016-10-18T01:56:57Z</time>
      </trkpt>
      <trkpt lat="41.571151" lon="1.640139">
        <ele>298.077</ele>
        <time>2016-10-18T01:57:17Z</time>
      </trkpt>
      <trkpt lat="41.571327" lon="1.638669">
        <ele>300.023</ele>
        <time>2016-10-18T01:57:37Z</time>
      </trkpt>
      <trkpt lat="41.571729" lon="1.637274">
        <ele>299.038</ele>
        <time>2016-10-18T01:57:57Z</time>
      </trkpt>
      <trkpt lat="41.571873" lon="1.636394">
        <ele>297.079</ele>
        <time>2016-10-18T01:58:17Z</time>
      </trkpt>
      <trkpt lat="41.572010" lon="1.635643">
        <ele>295.055</ele>
        <time>2016-10-18T01:58:37Z</time>
      </trkpt>
      <trkpt lat="41.571961" lon="1.634817">
        <ele>290.096</ele>
        <time>2016-10-18T01:58:57Z</time>
      </trkpt>
      <trkpt lat="41.571769" lon="1.634098">
        <ele>285.031</ele>
        <time>2016-10-18T01:59:17Z</time>
      </trkpt>
      <trkpt lat="41.571584" lon="1.633819">
        <ele>282.024</ele>
        <time>2016-10-18T01:59:37Z</time>
      </trkpt>
      <trkpt lat="41.571424" lon="1.633412">
        <ele>280.009</ele>
        <time>2016-10-18T01:59:57Z</time>
      </trkpt>
      <trkpt lat="41.571624" lon="1.632940">
        <ele>279.050</ele>
        <time>2016-10-18T02:00:17Z</time>
      </trkpt>
      <trkpt lat="41.572403" lon="1.632704">
        <ele>279.021</ele>
        <time>2016-10-18T02:00:37Z</time>
      </trkpt>
      <trkpt lat="41.572989" lon="1.632596">
        <ele>281.042</ele>
        <time>2016-10-18T02:00:57Z</time>
      </trkpt>
      <trkpt lat="41.573141" lon="1.631899">
        <ele>282.046</ele>
        <time>2016-10-18T02:01:17Z</time>
      </trkpt>
      <trkpt lat="41.573141" lon="1.631405">
        <ele>281.027</ele>
        <time>2016-10-18T02:01:37Z</time>
      </trkpt>
      <trkpt lat="41.573133" lon="1.630526">
        <ele>278.013</ele>
        <time>2016-10-18T02:01:57Z</time>
      </trkpt>
      <trkpt lat="41.572876" lon="1.629174">
        <ele>278.048</ele>
        <time>2016-10-18T02:02:17Z</time>
      </trkpt>
      <trkpt lat="41.573310" lon="1.628970">
        <ele>284.079</ele>
        <time>2016-10-18T02:02:37Z</time>
      </trkpt>
      <trkpt lat="41.574458" lon="1.628884">
        <ele>288.015</ele>
        <time>2016-10-18T02:02:57Z</time>
      </trkpt>
      <trkpt lat="41.574923" lon="1.629313">
        <ele>291.028</ele>
        <time>2016-10-18T02:03:17Z</time>
      </trkpt>
      <trkpt lat="41.575517" lon="1.629056">
        <ele>295.089</ele>
        <time>2016-10-18T02:03:37Z</time>
      </trkpt>
      <trkpt lat="41.576175" lon="1.628841">
        <ele>299.017</ele>
        <time>2016-10-18T02:03:57Z</time>
      </trkpt>
      <trkpt lat="41.576737" lon="1.628991">
        <ele>301.009</ele>
        <time>2016-10-18T02:04:17Z</time>
      </trkpt>
      <trkpt lat="41.577588" lon="1.629002">
        <ele>304.053</ele>
        <time>2016-10-18T02:04:37Z</time>
      </trkpt>
      <trkpt lat="41.578005" lon="1.629088">
        <ele>307.094</ele>
        <time>2016-10-18T02:04:57Z</time>
      </trkpt>
      <trkpt lat="41.578085" lon="1.629292">
        <ele>307.045</ele>
        <time>2016-10-18T02:05:17Z</time>
      </trkpt>
      <trkpt lat="41.573130" lon="1.631540">
        <ele>290.089</ele>
        <time>2023-01-19T18:30:40Z</time>
      </trkpt>
      <trkpt lat="41.573110" lon="1.631400">
        <ele>291.020</ele>
        <time>2023-01-19T18:31:20Z</time>
      </trkpt>
      <trkpt lat="41.573150" lon="1.630890">
        <ele>291.076</ele>
        <time>2023-01-19T18:32:00Z</time>
      </trkpt>
      <trkpt lat="41.573040" lon="1.629770">
        <ele>291.061</ele>
        <time>2023-01-19T18:32:40Z</time>
      </trkpt>
      <trkpt lat="41.572970" lon="1.629410">
        <ele>292.032</ele>
        <time>2023-01-19T18:33:20Z</time>
      </trkpt>
      <trkpt lat="41.572810" lon="1.629120">
        <ele>292.078</ele>
        <time>2023-01-19T18:34:00Z</time>
      </trkpt>
      <trkpt lat="41.572810" lon="1.629110">
        <ele>292.032</ele>
        <time>2023-01-19T18:34:40Z</time>
      </trkpt>
      <trkpt lat="41.572720" lon="1.628890">
        <ele>292.092</ele>
        <time>2023-01-19T18:35:20Z</time>
      </trkpt>
      <trkpt lat="41.572680" lon="1.628210">
        <ele>290.011</ele>
        <time>2023-01-19T18:36:00Z</time>
      </trkpt>
      <trkpt lat="41.572720" lon="1.627680">
        <ele>290.009</ele>
        <time>2023-01-19T18:36:40Z</time>
      </trkpt>
      <trkpt lat="41.572770" lon="1.627280">
        <ele>292.094</ele>
        <time>2023-01-19T18:37:20Z</time>
      </trkpt>
      <trkpt lat="41.573020" lon="1.626660">
        <ele>293.065</ele>
        <time>2023-01-19T18:38:00Z</time>
      </trkpt>
      <trkpt lat="41.573030" lon="1.626660">
        <ele>293.066</ele>
        <time>2023-01-19T18:38:40Z</time>
      </trkpt>
      <trkpt lat="41.573500" lon="1.625980">
        <ele>292.080</ele>
        <time>2023-01-19T18:39:20Z</time>
      </trkpt>
      <trkpt lat="41.574060" lon="1.625300">
        <ele>292.031</ele>
        <time>2023-01-19T18:40:00Z</time>
      </trkpt>
      <trkpt lat="41.574370" lon="1.625000">
        <ele>292.037</ele>
        <time>2023-01-19T18:40:40Z</time>
      </trkpt>
      <trkpt lat="41.574560" lon="1.624880">
        <ele>293.032</ele>
        <time>2023-01-19T18:41:20Z</time>
      </trkpt>
      <trkpt lat="41.574650" lon="1.624770">
        <ele>294.083</ele>
        <time>2023-01-19T18:42:00Z</time>
      </trkpt>
      <trkpt lat="41.574650" lon="1.624690">
        <ele>294.079</ele>
        <time>2023-01-19T18:42:40Z</time>
      </trkpt>
      <trkpt lat="41.574560" lon="1.624670">
        <ele>294.051</ele>
        <time>2023-01-19T18:43:20Z</time>
      </trkpt>
      <trkpt lat="41.574180" lon="1.624920">
        <ele>295.001</ele>
        <time>2023-01-19T18:44:00Z</time>
      </trkpt>
      <trkpt lat="41.574120" lon="1.624910">
        <ele>295.011</ele>
        <time>2023-01-19T18:44:40Z</time>
      </trkpt>
      <trkpt lat="41.573970" lon="1.624740">
        <ele>295.009</ele>
        <time>2023-01-19T18:45:20Z</time>
      </trkpt>
      <trkpt lat="41.573940" lon="1.624640">
        <ele>295.046</ele>
        <time>2023-01-19T18:46:00Z</time>
      </trkpt>
      <trkpt lat="41.573990" lon="1.624460">
        <ele>295.037</ele>
        <time>2023-01-19T18:46:40Z</time>
      </trkpt>
      <trkpt lat="41.574120" lon="1.624340">
        <ele>295.028</ele>
        <time>2023-01-19T18:47:20Z</time>
      </trkpt>
      <trkpt lat="41.574120" lon="1.624350">
        <ele>295.012</ele>
        <time>2023-01-19T18:48:00Z</time>
      </trkpt>
      <trkpt lat="41.574550" lon="1.623950">
        <ele>295.013</ele>
        <time>2023-01-19T18:48:40Z</time>
      </trkpt>
      <trkpt lat="41.574990" lon="1.623450">
        <ele>296.059</ele>
        <time>2023-01-19T18:49:20Z</time>
      </trkpt>
      <trkpt lat="41.575220" lon="1.623000">
        <ele>296.054</ele>
        <time>2023-01-19T18:50:00Z</time>
      </trkpt>
      <trkpt lat="41.575370" lon="1.622580">
        <ele>297.065</ele>
        <time>2023-01-19T18:50:40Z</time>
      </trkpt>
      <trkpt lat="41.575610" lon="1.621670">
        <ele>297.081</ele>
        <time>2023-01-19T18:51:20Z</time>
      </trkpt>
      <trkpt lat="41.575660" lon="1.621140">
        <ele>297.028</ele>
        <time>2023-01-19T18:52:00Z</time>
      </trkpt>
      <trkpt lat="41.575750" lon="1.620280">
        <ele>298.089</ele>
        <time>2023-01-19T18:52:40Z</time>
      </trkpt>
      <trkpt lat="41.575750" lon="1.620290">
        <ele>298.017</ele>
        <time>2023-01-19T18:53:20Z</time>
      </trkpt>
      <trkpt lat="41.575800" lon="1.619810">
        <ele>297.009</ele>
        <time>2023-01-19T18:54:00Z</time>
      </trkpt>
      <trkpt lat="41.575730" lon="1.618660">
        <ele>296.083</ele>
        <time>2023-01-19T18:54:40Z</time>
      </trkpt>
      <trkpt lat="41.575730" lon="1.618650">
        <ele>296.044</ele>
        <time>2023-01-19T18:55:20Z</time>
      </trkpt>
      <trkpt lat="41.575720" lon="1.617850">
        <ele>298.045</ele>
        <time>2023-01-19T18:56:00Z</time>
      </trkpt>
      <trkpt lat="41.575680" lon="1.617040">
        <ele>298.069</ele>
        <time>2023-01-19T18:56:40Z</time>
      </trkpt>
      <trkpt lat="41.575630" lon="1.616760">
        <ele>297.040</ele>
        <time>2023-01-19T18:57:20Z</time>
      </trkpt>
      <trkpt lat="41.575640" lon="1.616650">
        <ele>297.026</ele>
        <time>2023-01-19T18:58:00Z</time>
      </trkpt>
      <trkpt lat="41.575670" lon="1.616560">
        <ele>297.031</ele>
        <time>2023-01-19T18:58:40Z</time>
      </trkpt>
      <trkpt lat="41.575910" lon="1.616420">
        <ele>296.022</ele>
        <time>2023-01-19T18:59:20Z</time>
      </trkpt>
      <trkpt lat="41.575980" lon="1.616330">
        <ele>296.028</ele>
        <time>2023-01-19T19:00:00Z</time>
      </trkpt>
      <trkpt lat="41.576010" lon="1.616230">
        <ele>296.055</ele>
        <time>2023-01-19T19:00:40Z</time>
      </trkpt>
      <trkpt lat="41.576000" lon="1.616080">
        <ele>296.007</ele>
        <time>2023-01-19T19:01:20Z</time>
      </trkpt>
      <trkpt lat="41.576000" lon="1.616070">
        <ele>296.017</ele>
        <time>2023-01-19T19:02:00Z</time>
      </trkpt>
      <trkpt lat="41.575930" lon="1.615780">
        <ele>296.009</ele>
        <time>2023-01-19T19:02:40Z</time>
      </trkpt>
      <trkpt lat="41.575940" lon="1.615710">
        <ele>296.056</ele>
        <time>2023-01-19T19:03:20Z</time>
      </trkpt>
      <trkpt lat="41.576030" lon="1.615610">
        <ele>296.037</ele>
        <time>2023-01-19T19:04:00Z</time>
      </trkpt>
      <trkpt lat="41.575850" lon="1.615140">
        <ele>297.028</ele>
        <time>2023-01-19T19:04:40Z</time>
      </trkpt>
      <trkpt lat="41.575770" lon="1.614870">
        <ele>297.092</ele>
        <time>2023-01-19T19:05:20Z</time>
      </trkpt>
      <trkpt lat="41.575720" lon="1.614590">
        <ele>298.043</ele>
        <time>2023-01-19T19:06:00Z</time>
      </trkpt>
      <trkpt lat="41.575720" lon="1.614370">
        <ele>298.069</ele>
        <time>2023-01-19T19:06:40Z</time>
      </trkpt>
      <trkpt lat="41.575720" lon="1.614370">
        <ele>298.034</ele>
        <time>2023-01-19T19:07:20Z</time>
      </trkpt>
      <trkpt lat="41.575700" lon="1.613980">
        <ele>298.085</ele>
        <time>2023-01-19T19:08:00Z</time>
      </trkpt>
      <trkpt lat="41.575790" lon="1.613320">
        <ele>301.071</ele>
        <time>2023-01-19T19:08:40Z</time>
      </trkpt>
      <trkpt lat="41.576490" lon="1.611690">
        <ele>303.061</ele>
        <time>2023-01-19T19:09:20Z</time>
      </trkpt>
      <trkpt lat="41.576500" lon="1.611690">
        <ele>303.021</ele>
        <time>2023-01-19T19:10:00Z</time>
      </trkpt>
      <trkpt lat="41.576740" lon="1.611150">
        <ele>302.013</ele>
        <time>2023-01-19T19:10:40Z</time>
      </trkpt>
      <trkpt lat="41.577130" lon="1.610490">
        <ele>301.009</ele>
        <time>2023-01-19T19:11:20Z</time>
      </trkpt>
      <trkpt lat="41.577950" lon="1.609580">
        <ele>305.067</ele>
        <time>2023-01-19T19:12:00Z</time>
      </trkpt>
      <trkpt lat="41.577950" lon="1.609580">
        <ele>305.018</ele>
        <time>2023-01-19T19:12:40Z</time>
      </trkpt>
      <trkpt lat="41.578180" lon="1.609320">
        <ele>306.049</ele>
        <time>2023-01-19T19:13:20Z</time>
      </trkpt>
      <trkpt lat="41.579500" lon="1.608120">
        <ele>306.043</ele>
        <time>2023-01-19T19:14:00Z</time>
      </trkpt>
      <trkpt lat="41.579540" lon="1.608170">
        <ele>306.054</ele>
        <time>2023-01-19T19:14:40Z</time>
      </trkpt>
      <trkpt lat="41.579600" lon="1.608180">
        <ele>306.010</ele>
        <time>2023-01-19T19:15:20Z</time>
      </trkpt>
      <trkpt lat="41.579650" lon="1.608170">
        <ele>306.075</ele>
        <time>2023-01-19T19:16:00Z</time>
      </trkpt>
      <trkpt lat="41.579690" lon="1.608130">
        <ele>306.046</ele>
        <time>2023-01-19T19:16:40Z</time>
      </trkpt>
      <trkpt lat="41.579720" lon="1.608070">
        <ele>305.062</ele>
        <time>2023-01-19T19:17:20Z</time>
      </trkpt>
      <trkpt lat="41.579730" lon="1.607950">
        <ele>305.011</ele>
        <time>2023-01-19T19:18:00Z</time>
      </trkpt>
      <trkpt lat="41.579670" lon="1.607850">
        <ele>305.021</ele>
        <time>2023-01-19T19:18:40Z</time>
      </trkpt>
      <trkpt lat="41.579590" lon="1.607820">
        <ele>305.003</ele>
        <time>2023-01-19T19:19:20Z</time>
      </trkpt>
      <trkpt lat="41.579550" lon="1.607840">
        <ele>304.009</ele>
        <time>2023-01-19T19:20:00Z</time>
      </trkpt>
      <trkpt lat="41.579540" lon="1.607660">
        <ele>304.092</ele>
        <time>2023-01-19T19:20:40Z</time>
      </trkpt>
      <trkpt lat="41.579550" lon="1.607570">
        <ele>303.023</ele>
        <time>2023-01-19T19:21:20Z</time>
      </trkpt>
      <trkpt lat="41.579610" lon="1.607440">
        <ele>303.054</ele>
        <time>2023-01-19T19:22:00Z</time>
      </trkpt>
      <trkpt lat="41.579770" lon="1.607240">
        <ele>302.098</ele>
        <time>2023-01-19T19:22:40Z</time>
      </trkpt>
      <trkpt lat="41.579770" lon="1.607240">
        <ele>302.059</ele>
        <time>2023-01-19T19:23:20Z</time>
      </trkpt>
      <trkpt lat="41.580350" lon="1.606520">
        <ele>301.025</ele>
        <time>2023-01-19T19:24:00Z</time>
      </trkpt>
      <trkpt lat="41.580780" lon="1.606010">
        <ele>301.080</ele>
        <time>2023-01-19T19:24:40Z</time>
      </trkpt>
      <trkpt lat="41.580840" lon="1.605950">
        <ele>301.091</ele>
        <time>2023-01-19T19:25:20Z</time>
      </trkpt>
      <trkpt lat="41.580990" lon="1.605890">
        <ele>301.017</ele>
        <time>2023-01-19T19:26:00Z</time>
      </trkpt>
      <trkpt lat="41.581200" lon="1.605880">
        <ele>301.062</ele>
        <time>2023-01-19T19:26:40Z</time>
      </trkpt>
      <trkpt lat="41.581410" lon="1.605980">
        <ele>301.083</ele>
        <time>2023-01-19T19:27:20Z</time>
      </trkpt>
      <trkpt lat="41.581410" lon="1.606080">
        <ele>301.011</ele>
        <time>2023-01-19T19:28:00Z</time>
      </trkpt>
      <trkpt lat="41.581440" lon="1.606210">
        <ele>302.009</ele>
        <time>2023-01-19T19:28:40Z</time>
      </trkpt>
      <trkpt lat="41.581480" lon="1.606280">
        <ele>303.077</ele>
        <time>2023-01-19T19:29:20Z</time>
      </trkpt>
      <trkpt lat="41.581530" lon="1.606310">
        <ele>303.028</ele>
        <time>2023-01-19T19:30:00Z</time>
      </trkpt>
      <trkpt lat="41.581580" lon="1.606340">
        <ele>303.019</ele>
        <time>2023-01-19T19:30:40Z</time>
      </trkpt>
      <trkpt lat="41.581670" lon="1.606320">
        <ele>304.083</ele>
        <time>2023-01-19T19:31:20Z</time>
      </trkpt>
      <trkpt lat="41.581710" lon="1.606290">
        <ele>304.034</ele>
        <time>2023-01-19T19:32:00Z</time>
      </trkpt>
      <trkpt lat="41.581760" lon="1.606240">
        <ele>305.010</ele>
        <time>2023-01-19T19:32:40Z</time>
      </trkpt>
      <trkpt lat="41.581800" lon="1.606110">
        <ele>305.065</ele>
        <time>2023-01-19T19:33:20Z</time>
      </trkpt>
      <trkpt lat="41.581780" lon="1.605970">
        <ele>306.086</ele>
        <time>2023-01-19T19:34:00Z</time>
      </trkpt>
      <trkpt lat="41.581730" lon="1.605870">
        <ele>307.052</ele>
        <time>2023-01-19T19:34:40Z</time>
      </trkpt>
      <trkpt lat="41.581660" lon="1.605680">
        <ele>308.068</ele>
        <time>2023-01-19T19:35:20Z</time>
      </trkpt>
      <trkpt lat="41.581750" lon="1.605240">
        <ele>308.042</ele>
        <time>2023-01-19T19:36:00Z</time>
      </trkpt>
      <trkpt lat="41.581750" lon="1.605250">
        <ele>308.026</ele>
        <time>2023-01-19T19:36:40Z</time>
      </trkpt>
      <trkpt lat="41.582020" lon="1.603910">
        <ele>311.009</ele>
        <time>2023-01-19T19:37:20Z</time>
      </trkpt>
      <trkpt lat="41.582090" lon="1.603250">
        <ele>314.037</ele>
        <time>2023-01-19T19:38:00Z</time>
      </trkpt>
      <trkpt lat="41.582140" lon="1.602410">
        <ele>314.068</ele>
        <time>2023-01-19T19:38:40Z</time>
      </trkpt>
      <trkpt lat="41.582210" lon="1.601950">
        <ele>314.099</ele>
        <time>2023-01-19T19:39:20Z</time>
      </trkpt>
      <trkpt lat="41.582350" lon="1.601460">
        <ele>314.043</ele>
        <time>2023-01-19T19:40:00Z</time>
      </trkpt>
      <trkpt lat="41.582530" lon="1.600970">
        <ele>314.044</ele>
        <time>2023-01-19T19:40:40Z</time>
      </trkpt>
      <trkpt lat="41.582570" lon="1.600820">
        <ele>315.090</ele>
        <time>2023-01-19T19:41:20Z</time>
      </trkpt>
      <trkpt lat="41.582760" lon="1.600690">
        <ele>316.065</ele>
        <time>2023-01-19T19:42:00Z</time>
      </trkpt>
      <trkpt lat="41.583000" lon="1.600250">
        <ele>319.036</ele>
        <time>2023-01-19T19:42:40Z</time>
      </trkpt>
      <trkpt lat="41.583000" lon="1.600250">
        <ele>319.082</ele>
        <time>2023-01-19T19:43:20Z</time>
      </trkpt>
      <trkpt lat="41.583030" lon="1.600210">
        <ele>319.057</ele>
        <time>2023-01-19T19:44:00Z</time>
      </trkpt>
      <trkpt lat="41.583000" lon="1.599710">
        <ele>321.000</ele>
        <time>2023-01-19T19:44:40Z</time>
      </trkpt>
      <trkpt lat="41.583000" lon="1.599710">
        <ele>321.020</ele>
        <time>2023-01-19T19:45:20Z</time>
      </trkpt>
      <trkpt lat="41.582950" lon="1.598960">
        <ele>323.009</ele>
        <time>2023-01-19T19:46:00Z</time>
      </trkpt>
      <trkpt lat="41.583110" lon="1.599010">
        <ele>323.066</ele>
        <time>2023-01-19T19:46:40Z</time>
      </trkpt>
      <trkpt lat="41.583130" lon="1.598760">
        <ele>323.097</ele>
        <time>2023-01-19T19:47:20Z</time>
      </trkpt>
      <trkpt lat="41.583140" lon="1.598760">
        <ele>323.078</ele>
        <time>2023-01-19T19:48:00Z</time>
      </trkpt>
      <trkpt lat="41.583500" lon="1.594570">
        <ele>330.042</ele>
        <time>2023-01-19T19:48:40Z</time>
      </trkpt>
      <trkpt lat="41.583500" lon="1.594580">
        <ele>330.033</ele>
        <time>2023-01-19T19:49:20Z</time>
      </trkpt>
      <trkpt lat="41.583670" lon="1.592540">
        <ele>332.099</ele>
        <time>2023-01-19T19:50:00Z</time>
      </trkpt>
      <trkpt lat="41.584170" lon="1.590200">
        <ele>331.024</ele>
        <time>2023-01-19T19:50:40Z</time>
      </trkpt>
      <trkpt lat="41.584430" lon="1.589710">
        <ele>332.025</ele>
        <time>2023-01-19T19:51:20Z</time>
      </trkpt>
      <trkpt lat="41.585130" lon="1.588540">
        <ele>334.071</ele>
        <time>2023-01-19T19:52:00Z</time>
      </trkpt>
      <trkpt lat="41.585600" lon="1.587340">
        <ele>339.043</ele>
        <time>2023-01-19T19:52:40Z</time>
      </trkpt>
      <trkpt lat="41.586060" lon="1.586230">
        <ele>344.064</ele>
        <time>2023-01-19T19:53:20Z</time>
      </trkpt>
      <trkpt lat="41.586070" lon="1.586230">
        <ele>344.010</ele>
        <time>2023-01-19T19:54:00Z</time>
      </trkpt>
      <trkpt lat="41.586180" lon="1.585940">
        <ele>346.009</ele>
        <time>2023-01-19T19:54:40Z</time>
      </trkpt>
      <trkpt lat="41.585980" lon="1.585810">
        <ele>346.055</ele>
        <time>2023-01-19T19:55:20Z</time>
      </trkpt>
      <trkpt lat="41.586000" lon="1.585730">
        <ele>345.066</ele>
        <time>2023-01-19T19:56:00Z</time>
      </trkpt>
      <trkpt lat="41.585990" lon="1.585640">
        <ele>345.067</ele>
        <time>2023-01-19T19:56:40Z</time>
      </trkpt>
      <trkpt lat="41.585950" lon="1.585580">
        <ele>345.061</ele>
        <time>2023-01-19T19:57:20Z</time>
      </trkpt>
      <trkpt lat="41.585900" lon="1.585550">
        <ele>345.042</ele>
        <time>2023-01-19T19:58:00Z</time>
      </trkpt>
      <trkpt lat="41.585770" lon="1.585170">
        <ele>343.068</ele>
        <time>2023-01-19T19:58:40Z</time>
      </trkpt>
      <trkpt lat="41.585760" lon="1.585020">
        <ele>343.063</ele>
        <time>2023-01-19T19:59:20Z</time>
      </trkpt>
      <trkpt lat="41.585740" lon="1.583990">
        <ele>341.074</ele>
        <time>2023-01-19T20:00:00Z</time>
      </trkpt>
      <trkpt lat="41.585750" lon="1.583990">
        <ele>341.040</ele>
        <time>2023-01-19T20:00:40Z</time>
      </trkpt>
      <trkpt lat="41.585760" lon="1.576600">
        <ele>334.066</ele>
        <time>2023-01-19T20:01:20Z</time>
      </trkpt>
      <trkpt lat="41.585700" lon="1.576280">
        <ele>334.029</ele>
        <time>2023-01-19T20:02:00Z</time>
      </trkpt>
      <trkpt lat="41.585660" lon="1.576190">
        <ele>334.021</ele>
        <time>2023-01-19T20:02:40Z</time>
      </trkpt>
      <trkpt lat="41.585650" lon="1.576020">
        <ele>334.009</ele>
        <time>2023-01-19T20:03:20Z</time>
      </trkpt>
      <trkpt lat="41.585630" lon="1.575920">
        <ele>334.047</ele>
        <time>2023-01-19T20:04:00Z</time>
      </trkpt>
      <trkpt lat="41.585440" lon="1.575550">
        <ele>334.018</ele>
        <time>2023-01-19T20:04:40Z</time>
      </trkpt>
      <trkpt lat="41.585430" lon="1.575550">
        <ele>334.069</ele>
        <time>2023-01-19T20:05:20Z</time>
      </trkpt>
      <trkpt lat="41.585370" lon="1.575380">
        <ele>332.063</ele>
        <time>2023-01-19T20:06:00Z</time>
      </trkpt>
      <trkpt lat="41.585350" lon="1.575090">
        <ele>329.084</ele>
        <time>2023-01-19T20:06:40Z</time>
      </trkpt>
      <trkpt lat="41.585360" lon="1.575000">
        <ele>329.010</ele>
        <time>2023-01-19T20:07:20Z</time>
      </trkpt>
      <trkpt lat="41.585400" lon="1.574880">
        <ele>327.095</ele>
        <time>2023-01-19T20:08:00Z</time>
      </trkpt>
      <trkpt lat="41.585490" lon="1.574750">
        <ele>325.046</ele>
        <time>2023-01-19T20:08:40Z</time>
      </trkpt>
      <trkpt lat="41.585640" lon="1.574560">
        <ele>323.072</ele>
        <time>2023-01-19T20:09:20Z</time>
      </trkpt>
      <trkpt lat="41.585810" lon="1.574390">
        <ele>322.054</ele>
        <time>2023-01-19T20:10:00Z</time>
      </trkpt>
      <trkpt lat="41.586060" lon="1.574210">
        <ele>322.056</ele>
        <time>2023-01-19T20:10:40Z</time>
      </trkpt>
      <trkpt lat="41.586290" lon="1.574070">
        <ele>323.011</ele>
        <time>2023-01-19T20:11:20Z</time>
      </trkpt>
      <trkpt lat="41.586290" lon="1.574070">
        <ele>323.009</ele>
        <time>2023-01-19T20:12:00Z</time>
      </trkpt>
      <trkpt lat="41.586880" lon="1.573710">
        <ele>329.026</ele>
        <time>2023-01-19T20:12:40Z</time>
      </trkpt>
      <trkpt lat="41.587050" lon="1.573550">
        <ele>331.037</ele>
        <time>2023-01-19T20:13:20Z</time>
      </trkpt>
      <trkpt lat="41.587180" lon="1.573350">
        <ele>334.068</ele>
        <time>2023-01-19T20:14:00Z</time>
      </trkpt>
      <trkpt lat="41.587570" lon="1.571950">
        <ele>339.052</ele>
        <time>2023-01-19T20:14:40Z</time>
      </trkpt>
      <trkpt lat="41.587630" lon="1.571550">
        <ele>339.043</ele>
        <time>2023-01-19T20:15:20Z</time>
      </trkpt>
      <trkpt lat="41.587720" lon="1.571300">
        <ele>339.099</ele>
        <time>2023-01-19T20:16:00Z</time>
      </trkpt>
      <trkpt lat="41.587840" lon="1.571100">
        <ele>339.054</ele>
        <time>2023-01-19T20:16:40Z</time>
      </trkpt>
      <trkpt lat="41.588060" lon="1.570960">
        <ele>340.015</ele>
        <time>2023-01-19T20:17:20Z</time>
      </trkpt>
      <trkpt lat="41.588190" lon="1.570830">
        <ele>342.041</ele>
        <time>2023-01-19T20:18:00Z</time>
      </trkpt>
      <trkpt lat="41.588110" lon="1.570710">
        <ele>343.039</ele>
        <time>2023-01-19T20:18:40Z</time>
      </trkpt>
      <trkpt lat="41.588010" lon="1.570630">
        <ele>344.001</ele>
        <time>2023-01-19T20:19:20Z</time>
      </trkpt>
      <trkpt lat="41.587950" lon="1.570530">
        <ele>345.021</ele>
        <time>2023-01-19T20:20:00Z</time>
      </trkpt>
      <trkpt lat="41.587830" lon="1.570220">
        <ele>348.009</ele>
        <time>2023-01-19T20:20:40Z</time>
      </trkpt>
      <trkpt lat="41.587770" lon="1.569120">
        <ele>348.044</ele>
        <time>2023-01-19T20:21:20Z</time>
      </trkpt>
      <trkpt lat="41.587810" lon="1.568890">
        <ele>352.025</ele>
        <time>2023-01-19T20:22:00Z</time>
      </trkpt>
      <trkpt lat="41.587860" lon="1.568770">
        <ele>354.016</ele>
        <time>2023-01-19T20:22:40Z</time>
      </trkpt>
      <trkpt lat="41.587930" lon="1.568730">
        <ele>355.030</ele>
        <time>2023-01-19T20:23:20Z</time>
      </trkpt>
      <trkpt lat="41.587990" lon="1.568760">
        <ele>357.061</ele>
        <time>2023-01-19T20:24:00Z</time>
      </trkpt>
      <trkpt lat="41.588060" lon="1.568830">
        <ele>358.087</ele>
        <time>2023-01-19T20:24:40Z</time>
      </trkpt>
      <trkpt lat="41.588080" lon="1.568940">
        <ele>360.042</ele>
        <time>2023-01-19T20:25:20Z</time>
      </trkpt>
      <trkpt lat="41.588060" lon="1.569040">
        <ele>362.073</ele>
        <time>2023-01-19T20:26:00Z</time>
      </trkpt>
      <trkpt lat="41.588080" lon="1.569250">
        <ele>365.019</ele>
        <time>2023-01-19T20:26:40Z</time>
      </trkpt>
      <trkpt lat="41.588130" lon="1.569500">
        <ele>366.083</ele>
        <time>2023-01-19T20:27:20Z</time>
      </trkpt>
      <trkpt lat="41.588330" lon="1.570020">
        <ele>365.025</ele>
        <time>2023-01-19T20:28:00Z</time>
      </trkpt>
      <trkpt lat="41.588440" lon="1.570110">
        <ele>365.017</ele>
        <time>2023-01-19T20:28:40Z</time>
      </trkpt>
      <trkpt lat="41.588640" lon="1.570090">
        <ele>365.009</ele>
        <time>2023-01-19T20:29:20Z</time>
      </trkpt>
      <trkpt lat="41.589270" lon="1.569750">
        <ele>375.099</ele>
        <time>2023-01-19T20:30:00Z</time>
      </trkpt>
      <trkpt lat="41.589280" lon="1.569750">
        <ele>376.080</ele>
        <time>2023-01-19T20:30:40Z</time>
      </trkpt>
      <trkpt lat="41.590180" lon="1.569320">
        <ele>388.061</ele>
        <time>2023-01-19T20:31:20Z</time>
      </trkpt>
      <trkpt lat="41.590910" lon="1.568920">
        <ele>397.085</ele>
        <time>2023-01-19T20:32:00Z</time>
      </trkpt>
      <trkpt lat="41.591450" lon="1.568600">
        <ele>403.046</ele>
        <time>2023-01-19T20:32:40Z</time>
      </trkpt>
      <trkpt lat="41.591580" lon="1.568460">
        <ele>404.082</ele>
        <time>2023-01-19T20:33:20Z</time>
      </trkpt>
      <trkpt lat="41.591690" lon="1.568220">
        <ele>406.017</ele>
        <time>2023-01-19T20:34:00Z</time>
      </trkpt>
      <trkpt lat="41.591730" lon="1.567830">
        <ele>409.058</ele>
        <time>2023-01-19T20:34:40Z</time>
      </trkpt>
      <trkpt lat="41.591770" lon="1.566700">
        <ele>421.074</ele>
        <time>2023-01-19T20:35:20Z</time>
      </trkpt>
      <trkpt lat="41.591820" lon="1.566100">
        <ele>423.093</ele>
        <time>2023-01-19T20:36:00Z</time>
      </trkpt>
      <trkpt lat="41.591890" lon="1.565700">
        <ele>424.065</ele>
        <time>2023-01-19T20:36:40Z</time>
      </trkpt>
      <trkpt lat="41.592060" lon="1.565060">
        <ele>424.021</ele>
        <time>2023-01-19T20:37:20Z</time>
      </trkpt>
      <trkpt lat="41.592380" lon="1.563950">
        <ele>424.009</ele>
        <time>2023-01-19T20:38:00Z</time>
      </trkpt>
      <trkpt lat="41.592380" lon="1.563950">
        <ele>424.030</ele>
        <time>2023-01-19T20:38:40Z</time>
      </trkpt>
      <trkpt lat="41.592580" lon="1.563250">
        <ele>424.041</ele>
        <time>2023-01-19T20:39:20Z</time>
      </trkpt>
      <trkpt lat="41.592830" lon="1.562700">
        <ele>424.042</ele>
        <time>2023-01-19T20:40:00Z</time>
      </trkpt>
      <trkpt lat="41.592970" lon="1.562470">
        <ele>424.046</ele>
        <time>2023-01-19T20:40:40Z</time>
      </trkpt>
      <trkpt lat="41.593220" lon="1.562120">
        <ele>422.037</ele>
        <time>2023-01-19T20:41:20Z</time>
      </trkpt>
      <trkpt lat="41.594190" lon="1.561320">
        <ele>416.073</ele>
        <time>2023-01-19T20:42:00Z</time>
      </trkpt>
      <trkpt lat="41.594450" lon="1.561170">
        <ele>416.048</ele>
        <time>2023-01-19T20:42:40Z</time>
      </trkpt>
      <trkpt lat="41.594640" lon="1.561080">
        <ele>415.079</ele>
        <time>2023-01-19T20:43:20Z</time>
      </trkpt>
      <trkpt lat="41.595550" lon="1.561210">
        <ele>411.015</ele>
        <time>2023-01-19T20:44:00Z</time>
      </trkpt>
      <trkpt lat="41.595850" lon="1.561290">
        <ele>408.092</ele>
        <time>2023-01-19T20:44:40Z</time>
      </trkpt>
      <trkpt lat="41.596060" lon="1.561440">
        <ele>406.073</ele>
        <time>2023-01-19T20:45:20Z</time>
      </trkpt>
      <trkpt lat="41.596180" lon="1.561640">
        <ele>404.020</ele>
        <time>2023-01-19T20:46:00Z</time>
      </trkpt>
      <trkpt lat="41.596320" lon="1.562120">
        <ele>402.009</ele>
        <time>2023-01-19T20:46:40Z</time>
      </trkpt>
      <trkpt lat="41.596455" lon="1.562683">
        <ele>400.010</ele>
        <time>2023-01-19T20:47:20Z</time>
      </trkpt>
      <trkpt lat="41.596457" lon="1.563116">
        <ele>401.031</ele>
        <time>2023-01-19T20:48:00Z</time>
      </trkpt>
      <trkpt lat="41.596439" lon="1.563340">
        <ele>403.072</ele>
        <time>2023-01-19T20:48:40Z</time>
      </trkpt>
      <trkpt lat="41.596477" lon="1.563450">
        <ele>404.016</ele>
        <time>2023-01-19T20:49:20Z</time>
      </trkpt>
      <trkpt lat="41.596711" lon="1.563515">
        <ele>406.057</ele>
        <time>2023-01-19T20:50:00Z</time>
      </trkpt>
      <trkpt lat="41.596776" lon="1.563509">
        <ele>407.083</ele>
        <time>2023-01-19T20:50:40Z</time>
      </trkpt>
      <trkpt lat="41.596896" lon="1.563313">
        <ele>408.038</ele>
        <time>2023-01-19T20:51:20Z</time>
      </trkpt>
      <trkpt lat="41.596896" lon="1.563313">
        <ele>408.049</ele>
        <time>2023-01-19T20:52:00Z</time>
      </trkpt>
      <trkpt lat="41.596910" lon="1.563200">
        <ele>408.015</ele>
        <time>2023-01-19T20:52:40Z</time>
      </trkpt>
      <trkpt lat="41.596930" lon="1.563140">
        <ele>408.028</ele>
        <time>2023-01-19T20:53:20Z</time>
      </trkpt>
      <trkpt lat="41.597130" lon="1.562830">
        <ele>407.089</ele>
        <time>2023-01-19T20:54:00Z</time>
      </trkpt>
      <trkpt lat="41.597270" lon="1.562570">
        <ele>407.017</ele>
        <time>2023-01-19T20:54:40Z</time>
      </trkpt>
      <trkpt lat="41.597450" lon="1.562130">
        <ele>406.009</ele>
        <time>2023-01-19T20:55:20Z</time>
      </trkpt>
      <trkpt lat="41.598010" lon="1.561190">
        <ele>406.073</ele>
        <time>2023-01-19T20:56:00Z</time>
      </trkpt>
      <trkpt lat="41.598070" lon="1.560990">
        <ele>407.084</ele>
        <time>2023-01-19T20:56:40Z</time>
      </trkpt>
      <trkpt lat="41.598100" lon="1.560720">
        <ele>407.025</ele>
        <time>2023-01-19T20:57:20Z</time>
      </trkpt>
      <trkpt lat="41.598100" lon="1.560450">
        <ele>408.029</ele>
        <time>2023-01-19T20:58:00Z</time>
      </trkpt>
      <trkpt lat="41.597990" lon="1.559990">
        <ele>409.050</ele>
        <time>2023-01-19T20:58:40Z</time>
      </trkpt>
      <trkpt lat="41.597900" lon="1.559250">
        <ele>410.026</ele>
        <time>2023-01-19T20:59:20Z</time>
      </trkpt>
      <trkpt lat="41.597860" lon="1.557780">
        <ele>409.021</ele>
        <time>2023-01-19T21:00:00Z</time>
      </trkpt>
      <trkpt lat="41.597870" lon="1.557560">
        <ele>409.022</ele>
        <time>2023-01-19T21:00:40Z</time>
      </trkpt>
      <trkpt lat="41.597870" lon="1.557560">
        <ele>409.078</ele>
        <time>2023-01-19T21:01:20Z</time>
      </trkpt>
      <trkpt lat="41.597900" lon="1.557240">
        <ele>410.083</ele>
        <time>2023-01-19T21:02:00Z</time>
      </trkpt>
      <trkpt lat="41.597950" lon="1.557100">
        <ele>411.025</ele>
        <time>2023-01-19T21:02:40Z</time>
      </trkpt>
      <trkpt lat="41.598070" lon="1.556940">
        <ele>411.017</ele>
        <time>2023-01-19T21:03:20Z</time>
      </trkpt>
      <trkpt lat="41.598340" lon="1.556740">
        <ele>411.009</ele>
        <time>2023-01-19T21:04:00Z</time>
      </trkpt>
      <trkpt lat="41.598840" lon="1.556460">
        <ele>409.039</ele>
        <time>2023-01-19T21:04:40Z</time>
      </trkpt>
      <trkpt lat="41.599420" lon="1.555900">
        <ele>407.020</ele>
        <time>2023-01-19T21:05:20Z</time>
      </trkpt>
      <trkpt lat="41.599660" lon="1.555570">
        <ele>407.061</ele>
        <time>2023-01-19T21:06:00Z</time>
      </trkpt>
      <trkpt lat="41.600380" lon="1.554390">
        <ele>405.085</ele>
        <time>2023-01-19T21:06:40Z</time>
      </trkpt>
      <trkpt lat="41.600450" lon="1.554120">
        <ele>404.086</ele>
        <time>2023-01-19T21:07:20Z</time>
      </trkpt>
      <trkpt lat="41.600470" lon="1.553890">
        <ele>403.072</ele>
        <time>2023-01-19T21:08:00Z</time>
      </trkpt>
      <trkpt lat="41.600470" lon="1.553450">
        <ele>401.067</ele>
        <time>2023-01-19T21:08:40Z</time>
      </trkpt>
      <trkpt lat="41.600280" lon="1.552400">
        <ele>401.028</ele>
        <time>2023-01-19T21:09:20Z</time>
      </trkpt>
      <trkpt lat="41.600230" lon="1.552140">
        <ele>401.014</ele>
        <time>2023-01-19T21:10:00Z</time>
      </trkpt>
      <trkpt lat="41.600250" lon="1.551770">
        <ele>401.019</ele>
        <time>2023-01-19T21:10:40Z</time>
      </trkpt>
      <trkpt lat="41.600320" lon="1.551540">
        <ele>401.009</ele>
        <time>2023-01-19T21:11:20Z</time>
      </trkpt>
      <trkpt lat="41.600470" lon="1.551340">
        <ele>401.019</ele>
        <time>2023-01-19T21:12:00Z</time>
      </trkpt>
      <trkpt lat="41.600520" lon="1.551310">
        <ele>401.009</ele>
        <time>2023-01-19T21:12:40Z</time>
      </trkpt>
      <trkpt lat="41.600520" lon="1.551310">
        <ele>401.072</ele>
        <time>2023-01-19T21:13:20Z</time>
      </trkpt>
      <trkpt lat="41.600760" lon="1.551200">
        <ele>400.053</ele>
        <time>2023-01-19T21:14:00Z</time>
      </trkpt>
      <trkpt lat="41.600890" lon="1.551180">
        <ele>400.044</ele>
        <time>2023-01-19T21:14:40Z</time>
      </trkpt>
      <trkpt lat="41.600950" lon="1.551100">
        <ele>400.018</ele>
        <time>2023-01-19T21:15:20Z</time>
      </trkpt>
      <trkpt lat="41.601020" lon="1.550740">
        <ele>400.049</ele>
        <time>2023-01-19T21:16:00Z</time>
      </trkpt>
      <trkpt lat="41.601030" lon="1.550570">
        <ele>400.025</ele>
        <time>2023-01-19T21:16:40Z</time>
      </trkpt>
      <trkpt lat="41.601030" lon="1.550570">
        <ele>400.060</ele>
        <time>2023-01-19T21:17:20Z</time>
      </trkpt>
      <trkpt lat="41.601070" lon="1.548020">
        <ele>395.031</ele>
        <time>2023-01-19T21:18:00Z</time>
      </trkpt>
      <trkpt lat="41.601040" lon="1.547550">
        <ele>395.057</ele>
        <time>2023-01-19T21:18:40Z</time>
      </trkpt>
      <trkpt lat="41.601040" lon="1.547550">
        <ele>395.058</ele>
        <time>2023-01-19T21:19:20Z</time>
      </trkpt>
      <trkpt lat="41.600990" lon="1.547080">
        <ele>394.052</ele>
        <time>2023-01-19T21:20:00Z</time>
      </trkpt>
      <trkpt lat="41.600950" lon="1.546770">
        <ele>394.017</ele>
        <time>2023-01-19T21:20:40Z</time>
      </trkpt>
      <trkpt lat="41.600800" lon="1.546070">
        <ele>394.009</ele>
        <time>2023-01-19T21:21:20Z</time>
      </trkpt>
      <trkpt lat="41.600700" lon="1.545470">
        <ele>391.036</ele>
        <time>2023-01-19T21:22:00Z</time>
      </trkpt>
      <trkpt lat="41.600700" lon="1.545450">
        <ele>391.057</ele>
        <time>2023-01-19T21:22:40Z</time>
      </trkpt>
      <trkpt lat="41.600680" lon="1.545040">
        <ele>388.068</ele>
        <time>2023-01-19T21:23:20Z</time>
      </trkpt>
      <trkpt lat="41.600750" lon="1.544570">
        <ele>385.042</ele>
        <time>2023-01-19T21:24:00Z</time>
      </trkpt>
      <trkpt lat="41.601150" lon="1.541850">
        <ele>370.063</ele>
        <time>2023-01-19T21:24:40Z</time>
      </trkpt>
      <trkpt lat="41.601260" lon="1.541380">
        <ele>370.059</ele>
        <time>2023-01-19T21:25:20Z</time>
      </trkpt>
      <trkpt lat="41.601180" lon="1.541340">
        <ele>370.074</ele>
        <time>2023-01-19T21:26:00Z</time>
      </trkpt>
      <trkpt lat="41.601080" lon="1.541350">
        <ele>370.035</ele>
        <time>2023-01-19T21:26:40Z</time>
      </trkpt>
      <trkpt lat="41.601080" lon="1.541350">
        <ele>370.011</ele>
        <time>2023-01-19T21:27:20Z</time>
      </trkpt>
      <trkpt lat="41.600860" lon="1.541350">
        <ele>370.067</ele>
        <time>2023-01-19T21:28:00Z</time>
      </trkpt>
      <trkpt lat="41.600610" lon="1.541250">
        <ele>370.081</ele>
        <time>2023-01-19T21:28:40Z</time>
      </trkpt>
      <trkpt lat="41.600400" lon="1.541280">
        <ele>369.019</ele>
        <time>2023-01-19T21:29:20Z</time>
      </trkpt>
      <trkpt lat="41.600280" lon="1.541320">
        <ele>369.009</ele>
        <time>2023-01-19T21:30:00Z</time>
      </trkpt>
      <trkpt lat="41.600040" lon="1.541460">
        <ele>367.017</ele>
        <time>2023-01-19T21:30:40Z</time>
      </trkpt>
      <trkpt lat="41.599890" lon="1.541490">
        <ele>365.048</ele>
        <time>2023-01-19T21:31:20Z</time>
      </trkpt>
      <trkpt lat="41.599690" lon="1.541420">
        <ele>362.059</ele>
        <time>2023-01-19T21:32:00Z</time>
      </trkpt>
      <trkpt lat="41.599510" lon="1.541320">
        <ele>359.013</ele>
        <time>2023-01-19T21:32:40Z</time>
      </trkpt>
      <trkpt lat="41.599450" lon="1.541220">
        <ele>358.074</ele>
        <time>2023-01-19T21:33:20Z</time>
      </trkpt>
      <trkpt lat="41.599220" lon="1.540710">
        <ele>357.020</ele>
        <time>2023-01-19T21:34:00Z</time>
      </trkpt>
      <trkpt lat="41.599220" lon="1.540620">
        <ele>357.065</ele>
        <time>2023-01-19T21:34:40Z</time>
      </trkpt>
      <trkpt lat="41.599500" lon="1.540270">
        <ele>358.096</ele>
        <time>2023-01-19T21:35:20Z</time>
      </trkpt>
      <trkpt lat="41.600070" lon="1.539680">
        <ele>361.062</ele>
        <time>2023-01-19T21:36:00Z</time>
      </trkpt>
      <trkpt lat="41.600070" lon="1.539680">
        <ele>361.055</ele>
        <time>2023-01-19T21:36:40Z</time>
      </trkpt>
      <trkpt lat="41.600470" lon="1.539310">
        <ele>361.007</ele>
        <time>2023-01-19T21:37:20Z</time>
      </trkpt>
      <trkpt lat="41.600950" lon="1.538900">
        <ele>361.017</ele>
        <time>2023-01-19T21:38:00Z</time>
      </trkpt>
      <trkpt lat="41.601510" lon="1.538470">
        <ele>361.009</ele>
        <time>2023-01-19T21:38:40Z</time>
      </trkpt>
      <trkpt lat="41.601680" lon="1.538290">
        <ele>361.066</ele>
        <time>2023-01-19T21:39:20Z</time>
      </trkpt>
      <trkpt lat="41.601820" lon="1.538090">
        <ele>361.047</ele>
        <time>2023-01-19T21:40:00Z</time>
      </trkpt>
      <trkpt lat="41.602040" lon="1.537640">
        <ele>364.028</ele>
        <time>2023-01-19T21:40:40Z</time>
      </trkpt>
      <trkpt lat="41.602210" lon="1.537230">
        <ele>366.042</ele>
        <time>2023-01-19T21:41:20Z</time>
      </trkpt>
      <trkpt lat="41.602280" lon="1.536780">
        <ele>368.063</ele>
        <time>2023-01-19T21:42:00Z</time>
      </trkpt>
      <trkpt lat="41.602290" lon="1.536520">
        <ele>369.039</ele>
        <time>2023-01-19T21:42:40Z</time>
      </trkpt>
      <trkpt lat="41.602340" lon="1.536430">
        <ele>370.044</ele>
        <time>2023-01-19T21:43:20Z</time>
      </trkpt>
      <trkpt lat="41.602450" lon="1.536390">
        <ele>371.055</ele>
        <time>2023-01-19T21:44:00Z</time>
      </trkpt>
      <trkpt lat="41.602650" lon="1.536390">
        <ele>372.091</ele>
        <time>2023-01-19T21:44:40Z</time>
      </trkpt>
      <trkpt lat="41.602740" lon="1.536360">
        <ele>372.031</ele>
        <time>2023-01-19T21:45:20Z</time>
      </trkpt>
      <trkpt lat="41.602760" lon="1.536290">
        <ele>372.061</ele>
        <time>2023-01-19T21:46:00Z</time>
      </trkpt>
      <trkpt lat="41.602790" lon="1.536190">
        <ele>372.007</ele>
        <time>2023-01-19T21:46:40Z</time>
      </trkpt>
      <trkpt lat="41.602830" lon="1.535810">
        <ele>370.009</ele>
        <time>2023-01-19T21:47:20Z</time>
      </trkpt>
      <trkpt lat="41.602940" lon="1.535540">
        <ele>369.054</ele>
        <time>2023-01-19T21:48:00Z</time>
      </trkpt>
      <trkpt lat="41.603120" lon="1.535280">
        <ele>368.025</ele>
        <time>2023-01-19T21:48:40Z</time>
      </trkpt>
      <trkpt lat="41.603280" lon="1.535280">
        <ele>368.056</ele>
        <time>2023-01-19T21:49:20Z</time>
      </trkpt>
      <trkpt lat="41.603450" lon="1.535360">
        <ele>368.050</ele>
        <time>2023-01-19T21:50:00Z</time>
      </trkpt>
      <trkpt lat="41.603570" lon="1.535510">
        <ele>368.081</ele>
        <time>2023-01-19T21:50:40Z</time>
      </trkpt>
      <trkpt lat="41.603860" lon="1.536260">
        <ele>369.017</ele>
        <time>2023-01-19T21:51:20Z</time>
      </trkpt>
      <trkpt lat="41.603880" lon="1.536330">
        <ele>369.092</ele>
        <time>2023-01-19T21:52:00Z</time>
      </trkpt>
      <trkpt lat="41.603830" lon="1.536450">
        <ele>370.033</ele>
        <time>2023-01-19T21:52:40Z</time>
      </trkpt>
      <trkpt lat="41.603590" lon="1.536630">
        <ele>372.059</ele>
        <time>2023-01-19T21:53:20Z</time>
      </trkpt>
      <trkpt lat="41.603120" lon="1.537220">
        <ele>375.018</ele>
        <time>2023-01-19T21:54:00Z</time>
      </trkpt>
      <trkpt lat="41.602870" lon="1.537400">
        <ele>376.098</ele>
        <time>2023-01-19T21:54:40Z</time>
      </trkpt>
      <trkpt lat="41.602830" lon="1.537520">
        <ele>376.017</ele>
        <time>2023-01-19T21:55:20Z</time>
      </trkpt>
      <trkpt lat="41.602830" lon="1.537600">
        <ele>377.009</ele>
        <time>2023-01-19T21:56:00Z</time>
      </trkpt>
      <trkpt lat="41.602840" lon="1.537790">
        <ele>378.052</ele>
        <time>2023-01-19T21:56:40Z</time>
      </trkpt>
      <trkpt lat="41.602970" lon="1.537920">
        <ele>379.013</ele>
        <time>2023-01-19T21:57:20Z</time>
      </trkpt>
      <trkpt lat="41.602970" lon="1.537920">
        <ele>379.074</ele>
        <time>2023-01-19T21:58:00Z</time>
      </trkpt>
      <trkpt lat="41.603100" lon="1.537990">
        <ele>380.018</ele>
        <time>2023-01-19T21:58:40Z</time>
      </trkpt>
      <trkpt lat="41.603320" lon="1.538070">
        <ele>382.099</ele>
        <time>2023-01-19T21:59:20Z</time>
      </trkpt>
      <trkpt lat="41.603410" lon="1.537900">
        <ele>383.075</ele>
        <time>2023-01-19T22:00:00Z</time>
      </trkpt>
      <trkpt lat="41.603440" lon="1.537660">
        <ele>384.060</ele>
        <time>2023-01-19T22:00:40Z</time>
      </trkpt>
      <trkpt lat="41.603480" lon="1.537560">
        <ele>384.061</ele>
        <time>2023-01-19T22:01:20Z</time>
      </trkpt>
      <trkpt lat="41.603570" lon="1.537400">
        <ele>384.027</ele>
        <time>2023-01-19T22:02:00Z</time>
      </trkpt>
      <trkpt lat="41.603660" lon="1.537330">
        <ele>384.099</ele>
        <time>2023-01-19T22:02:40Z</time>
      </trkpt>
      <trkpt lat="41.603750" lon="1.537290">
        <ele>384.007</ele>
        <time>2023-01-19T22:03:20Z</time>
      </trkpt>
      <trkpt lat="41.604420" lon="1.537260">
        <ele>380.027</ele>
        <time>2023-01-19T22:04:00Z</time>
      </trkpt>
      <trkpt lat="41.604600" lon="1.537250">
        <ele>378.009</ele>
        <time>2023-01-19T22:04:40Z</time>
      </trkpt>
      <trkpt lat="41.604760" lon="1.537190">
        <ele>377.020</ele>
        <time>2023-01-19T22:05:20Z</time>
      </trkpt>
      <trkpt lat="41.605020" lon="1.537050">
        <ele>374.081</ele>
        <time>2023-01-19T22:06:00Z</time>
      </trkpt>
      <trkpt lat="41.605320" lon="1.536800">
        <ele>374.012</ele>
        <time>2023-01-19T22:06:40Z</time>
      </trkpt>
      <trkpt lat="41.605600" lon="1.536560">
        <ele>373.066</ele>
        <time>2023-01-19T22:07:20Z</time>
      </trkpt>
      <trkpt lat="41.605610" lon="1.536560">
        <ele>373.017</ele>
        <time>2023-01-19T22:08:00Z</time>
      </trkpt>
      <trkpt lat="41.605830" lon="1.536360">
        <ele>373.073</ele>
        <time>2023-01-19T22:08:40Z</time>
      </trkpt>
      <trkpt lat="41.606840" lon="1.535150">
        <ele>373.058</ele>
        <time>2023-01-19T22:09:20Z</time>
      </trkpt>
      <trkpt lat="41.607130" lon="1.534710">
        <ele>373.019</ele>
        <time>2023-01-19T22:10:00Z</time>
      </trkpt>
      <trkpt lat="41.608230" lon="1.532770">
        <ele>384.035</ele>
        <time>2023-01-19T22:10:40Z</time>
      </trkpt>
      <trkpt lat="41.608320" lon="1.532500">
        <ele>385.091</ele>
        <time>2023-01-19T22:11:20Z</time>
      </trkpt>
      <trkpt lat="41.608360" lon="1.532200">
        <ele>386.081</ele>
        <time>2023-01-19T22:12:00Z</time>
      </trkpt>
      <trkpt lat="41.608360" lon="1.531830">
        <ele>386.019</ele>
        <time>2023-01-19T22:12:40Z</time>
      </trkpt>
      <trkpt lat="41.608390" lon="1.531860">
        <ele>386.009</ele>
        <time>2023-01-19T22:13:20Z</time>
      </trkpt>
      <trkpt lat="41.608390" lon="1.531730">
        <ele>386.060</ele>
        <time>2023-01-19T22:14:00Z</time>
      </trkpt>
      <trkpt lat="41.608550" lon="1.530560">
        <ele>383.061</ele>
        <time>2023-01-19T22:14:40Z</time>
      </trkpt>
      <trkpt lat="41.608610" lon="1.530420">
        <ele>385.092</ele>
        <time>2023-01-19T22:15:20Z</time>
      </trkpt>
      <trkpt lat="41.608680" lon="1.530320">
        <ele>386.056</ele>
        <time>2023-01-19T22:16:00Z</time>
      </trkpt>
      <trkpt lat="41.608880" lon="1.530260">
        <ele>389.097</ele>
        <time>2023-01-19T22:16:40Z</time>
      </trkpt>
      <trkpt lat="41.609420" lon="1.530120">
        <ele>393.033</ele>
        <time>2023-01-19T22:17:20Z</time>
      </trkpt>
      <trkpt lat="41.609420" lon="1.530120">
        <ele>393.088</ele>
        <time>2023-01-19T22:18:00Z</time>
      </trkpt>
      <trkpt lat="41.610150" lon="1.529850">
        <ele>390.089</ele>
        <time>2023-01-19T22:18:40Z</time>
      </trkpt>
      <trkpt lat="41.610500" lon="1.529680">
        <ele>393.085</ele>
        <time>2023-01-19T22:19:20Z</time>
      </trkpt>
      <trkpt lat="41.610810" lon="1.529490">
        <ele>396.019</ele>
        <time>2023-01-19T22:20:00Z</time>
      </trkpt>
      <trkpt lat="41.611460" lon="1.528880">
        <ele>400.009</ele>
        <time>2023-01-19T22:20:40Z</time>
      </trkpt>
      <trkpt lat="41.612450" lon="1.527850">
        <ele>409.019</ele>
        <time>2023-01-19T22:21:20Z</time>
      </trkpt>
      <trkpt lat="41.612880" lon="1.527210">
        <ele>407.009</ele>
        <time>2023-01-19T22:22:00Z</time>
      </trkpt>
      <trkpt lat="41.613160" lon="1.526400">
        <ele>407.062</ele>
        <time>2023-01-19T22:22:40Z</time>
      </trkpt>
      <trkpt lat="41.613280" lon="1.525360">
        <ele>409.053</ele>
        <time>2023-01-19T22:23:20Z</time>
      </trkpt>
      <trkpt lat="41.613280" lon="1.524690">
        <ele>413.054</ele>
        <time>2023-01-19T22:24:00Z</time>
      </trkpt>
      <trkpt lat="41.613270" lon="1.524690">
        <ele>413.088</ele>
        <time>2023-01-19T22:24:40Z</time>
      </trkpt>
      <trkpt lat="41.613270" lon="1.523720">
        <ele>413.089</ele>
        <time>2023-01-19T22:25:20Z</time>
      </trkpt>
      <trkpt lat="41.613270" lon="1.523730">
        <ele>413.025</ele>
        <time>2023-01-19T22:26:00Z</time>
      </trkpt>
      <trkpt lat="41.613220" lon="1.523770">
        <ele>413.040</ele>
        <time>2023-01-19T22:26:40Z</time>
      </trkpt>
      <trkpt lat="41.613240" lon="1.523290">
        <ele>412.071</ele>
        <time>2023-01-19T22:27:20Z</time>
      </trkpt>
      <trkpt lat="41.613370" lon="1.522280">
        <ele>411.017</ele>
        <time>2023-01-19T22:28:00Z</time>
      </trkpt>
      <trkpt lat="41.613450" lon="1.521980">
        <ele>410.045</ele>
        <time>2023-01-19T22:28:40Z</time>
      </trkpt>
      <trkpt lat="41.613620" lon="1.521550">
        <ele>408.047</ele>
        <time>2023-01-19T22:29:20Z</time>
      </trkpt>
      <trkpt lat="41.615360" lon="1.518360">
        <ele>402.011</ele>
        <time>2023-01-19T22:30:00Z</time>
      </trkpt>
      <trkpt lat="41.615750" lon="1.517680">
        <ele>401.009</ele>
        <time>2023-01-19T22:30:40Z</time>
      </trkpt>
      <trkpt lat="41.615810" lon="1.517520">
        <ele>401.035</ele>
        <time>2023-01-19T22:31:20Z</time>
      </trkpt>
      <trkpt lat="41.615790" lon="1.517240">
        <ele>401.016</ele>
        <time>2023-01-19T22:32:00Z</time>
      </trkpt>
      <trkpt lat="41.615810" lon="1.517160">
        <ele>401.027</ele>
        <time>2023-01-19T22:32:40Z</time>
      </trkpt>
      <trkpt lat="41.615950" lon="1.517110">
        <ele>402.081</ele>
        <time>2023-01-19T22:33:20Z</time>
      </trkpt>
      <trkpt lat="41.615970" lon="1.517050">
        <ele>402.052</ele>
        <time>2023-01-19T22:34:00Z</time>
      </trkpt>
      <trkpt lat="41.616130" lon="1.515980">
        <ele>404.018</ele>
        <time>2023-01-19T22:34:40Z</time>
      </trkpt>
      <trkpt lat="41.616140" lon="1.515980">
        <ele>404.013</ele>
        <time>2023-01-19T22:35:20Z</time>
      </trkpt>
      <trkpt lat="41.616230" lon="1.515440">
        <ele>404.014</ele>
        <time>2023-01-19T22:36:00Z</time>
      </trkpt>
      <trkpt lat="41.616360" lon="1.514840">
        <ele>404.050</ele>
        <time>2023-01-19T22:36:40Z</time>
      </trkpt>
      <trkpt lat="41.616610" lon="1.514030">
        <ele>406.027</ele>
        <time>2023-01-19T22:37:20Z</time>
      </trkpt>
      <trkpt lat="41.616750" lon="1.513660">
        <ele>407.068</ele>
        <time>2023-01-19T22:38:00Z</time>
      </trkpt>
      <trkpt lat="41.617180" lon="1.512730">
        <ele>407.014</ele>
        <time>2023-01-19T22:38:40Z</time>
      </trkpt>
      <trkpt lat="41.617200" lon="1.512400">
        <ele>406.009</ele>
        <time>2023-01-19T22:39:20Z</time>
      </trkpt>
      <trkpt lat="41.617380" lon="1.512120">
        <ele>406.033</ele>
        <time>2023-01-19T22:40:00Z</time>
      </trkpt>
      <trkpt lat="41.617400" lon="1.512120">
        <ele>406.094</ele>
        <time>2023-01-19T22:40:40Z</time>
      </trkpt>
      <trkpt lat="41.617820" lon="1.511420">
        <ele>409.045</ele>
        <time>2023-01-19T22:41:20Z</time>
      </trkpt>
      <trkpt lat="41.617940" lon="1.511310">
        <ele>409.049</ele>
        <time>2023-01-19T22:42:00Z</time>
      </trkpt>
      <trkpt lat="41.618080" lon="1.511110">
        <ele>410.020</ele>
        <time>2023-01-19T22:42:40Z</time>
      </trkpt>
      <trkpt lat="41.618230" lon="1.510810">
        <ele>411.016</ele>
        <time>2023-01-19T22:43:20Z</time>
      </trkpt>
      <trkpt lat="41.618250" lon="1.510680">
        <ele>412.081</ele>
        <time>2023-01-19T22:44:00Z</time>
      </trkpt>
      <trkpt lat="41.618230" lon="1.510240">
        <ele>413.062</ele>
        <time>2023-01-19T22:44:40Z</time>
      </trkpt>
      <trkpt lat="41.618190" lon="1.509910">
        <ele>415.068</ele>
        <time>2023-01-19T22:45:20Z</time>
      </trkpt>
      <trkpt lat="41.618170" lon="1.509820">
        <ele>415.058</ele>
        <time>2023-01-19T22:46:00Z</time>
      </trkpt>
      <trkpt lat="41.618160" lon="1.509820">
        <ele>415.052</ele>
        <time>2023-01-19T22:46:40Z</time>
      </trkpt>
      <trkpt lat="41.618120" lon="1.509620">
        <ele>416.017</ele>
        <time>2023-01-19T22:47:20Z</time>
      </trkpt>
      <trkpt lat="41.618170" lon="1.509440">
        <ele>417.009</ele>
        <time>2023-01-19T22:48:00Z</time>
      </trkpt>
      <trkpt lat="41.618290" lon="1.509310">
        <ele>418.056</ele>
        <time>2023-01-19T22:48:40Z</time>
      </trkpt>
      <trkpt lat="41.618840" lon="1.509240">
        <ele>418.057</ele>
        <time>2023-01-19T22:49:20Z</time>
      </trkpt>
      <trkpt lat="41.619150" lon="1.509070">
        <ele>418.068</ele>
        <time>2023-01-19T22:50:00Z</time>
      </trkpt>
      <trkpt lat="41.619150" lon="1.509080">
        <ele>418.072</ele>
        <time>2023-01-19T22:50:40Z</time>
      </trkpt>
      <trkpt lat="41.619240" lon="1.509040">
        <ele>418.013</ele>
        <time>2023-01-19T22:51:20Z</time>
      </trkpt>
      <trkpt lat="41.619650" lon="1.508470">
        <ele>417.019</ele>
        <time>2023-01-19T22:52:00Z</time>
      </trkpt>
      <trkpt lat="41.620100" lon="1.507630">
        <ele>418.024</ele>
        <time>2023-01-19T22:52:40Z</time>
      </trkpt>
      <trkpt lat="41.620410" lon="1.507200">
        <ele>419.035</ele>
        <time>2023-01-19T22:53:20Z</time>
      </trkpt>
      <trkpt lat="41.620560" lon="1.506900">
        <ele>420.031</ele>
        <time>2023-01-19T22:54:00Z</time>
      </trkpt>
      <trkpt lat="41.620680" lon="1.506620">
        <ele>421.034</ele>
        <time>2023-01-19T22:54:40Z</time>
      </trkpt>
      <trkpt lat="41.620690" lon="1.506620">
        <ele>421.055</ele>
        <time>2023-01-19T22:55:20Z</time>
      </trkpt>
      <trkpt lat="41.620800" lon="1.506260">
        <ele>421.010</ele>
        <time>2023-01-19T22:56:00Z</time>
      </trkpt>
      <trkpt lat="41.620850" lon="1.506190">
        <ele>421.009</ele>
        <time>2023-01-19T22:56:40Z</time>
      </trkpt>
      <trkpt lat="41.620900" lon="1.506020">
        <ele>421.094</ele>
        <time>2023-01-19T22:57:20Z</time>
      </trkpt>
      <trkpt lat="41.621080" lon="1.505320">
        <ele>419.075</ele>
        <time>2023-01-19T22:58:00Z</time>
      </trkpt>
      <trkpt lat="41.621080" lon="1.505320">
        <ele>419.056</ele>
        <time>2023-01-19T22:58:40Z</time>
      </trkpt>
      <trkpt lat="41.621210" lon="1.505020">
        <ele>418.030</ele>
        <time>2023-01-19T22:59:20Z</time>
      </trkpt>
      <trkpt lat="41.621440" lon="1.504650">
        <ele>419.051</ele>
        <time>2023-01-19T23:00:00Z</time>
      </trkpt>
      <trkpt lat="41.621580" lon="1.504450">
        <ele>419.067</ele>
        <time>2023-01-19T23:00:40Z</time>
      </trkpt>
      <trkpt lat="41.621930" lon="1.504150">
        <ele>421.032</ele>
        <time>2023-01-19T23:01:20Z</time>
      </trkpt>
      <trkpt lat="41.622640" lon="1.503710">
        <ele>423.083</ele>
        <time>2023-01-19T23:02:00Z</time>
      </trkpt>
      <trkpt lat="41.622920" lon="1.503470">
        <ele>425.069</ele>
        <time>2023-01-19T23:02:40Z</time>
      </trkpt>
      <trkpt lat="41.623090" lon="1.503300">
        <ele>426.066</ele>
        <time>2023-01-19T23:03:20Z</time>
      </trkpt>
      <trkpt lat="41.623090" lon="1.503300">
        <ele>426.029</ele>
        <time>2023-01-19T23:04:00Z</time>
      </trkpt>
      <trkpt lat="41.623460" lon="1.502830">
        <ele>428.021</ele>
        <time>2023-01-19T23:04:40Z</time>
      </trkpt>
      <trkpt lat="41.623860" lon="1.502240">
        <ele>428.009</ele>
        <time>2023-01-19T23:05:20Z</time>
      </trkpt>
      <trkpt lat="41.624210" lon="1.501700">
        <ele>432.097</ele>
        <time>2023-01-19T23:06:00Z</time>
      </trkpt>
      <trkpt lat="41.624420" lon="1.501320">
        <ele>435.058</ele>
        <time>2023-01-19T23:06:40Z</time>
      </trkpt>
      <trkpt lat="41.624580" lon="1.500930">
        <ele>437.079</ele>
        <time>2023-01-19T23:07:20Z</time>
      </trkpt>
      <trkpt lat="41.624640" lon="1.500690">
        <ele>438.093</ele>
        <time>2023-01-19T23:08:00Z</time>
      </trkpt>
      <trkpt lat="41.624640" lon="1.500690">
        <ele>438.054</ele>
        <time>2023-01-19T23:08:40Z</time>
      </trkpt>
      <trkpt lat="41.624710" lon="1.500460">
        <ele>438.040</ele>
        <time>2023-01-19T23:09:20Z</time>
      </trkpt>
      <trkpt lat="41.624760" lon="1.500060">
        <ele>439.075</ele>
        <time>2023-01-19T23:10:00Z</time>
      </trkpt>
      <trkpt lat="41.624740" lon="1.499660">
        <ele>440.086</ele>
        <time>2023-01-19T23:10:40Z</time>
      </trkpt>
      <trkpt lat="41.624620" lon="1.499120">
        <ele>442.012</ele>
        <time>2023-01-19T23:11:20Z</time>
      </trkpt>
      <trkpt lat="41.624620" lon="1.499120">
        <ele>442.083</ele>
        <time>2023-01-19T23:12:00Z</time>
      </trkpt>
      <trkpt lat="41.624480" lon="1.498750">
        <ele>444.025</ele>
        <time>2023-01-19T23:12:40Z</time>
      </trkpt>
      <trkpt lat="41.624280" lon="1.498350">
        <ele>447.017</ele>
        <time>2023-01-19T23:13:20Z</time>
      </trkpt>
      <trkpt lat="41.624060" lon="1.498070">
        <ele>450.009</ele>
        <time>2023-01-19T23:14:00Z</time>
      </trkpt>
      <trkpt lat="41.623680" lon="1.497620">
        <ele>453.029</ele>
        <time>2023-01-19T23:14:40Z</time>
      </trkpt>
      <trkpt lat="41.623660" lon="1.497620">
        <ele>453.040</ele>
        <time>2023-01-19T23:15:20Z</time>
      </trkpt>
      <trkpt lat="41.623210" lon="1.496910">
        <ele>457.071</ele>
        <time>2023-01-19T23:16:00Z</time>
      </trkpt>
      <trkpt lat="41.622720" lon="1.496100">
        <ele>459.065</ele>
        <time>2023-01-19T23:16:40Z</time>
      </trkpt>
      <trkpt lat="41.622590" lon="1.495660">
        <ele>459.026</ele>
        <time>2023-01-19T23:17:20Z</time>
      </trkpt>
      <trkpt lat="41.622590" lon="1.495640">
        <ele>459.022</ele>
        <time>2023-01-19T23:18:00Z</time>
      </trkpt>
      <trkpt lat="41.622560" lon="1.495290">
        <ele>459.067</ele>
        <time>2023-01-19T23:18:40Z</time>
      </trkpt>
      <trkpt lat="41.622690" lon="1.494660">
        <ele>460.028</ele>
        <time>2023-01-19T23:19:20Z</time>
      </trkpt>
      <trkpt lat="41.623010" lon="1.494020">
        <ele>460.044</ele>
        <time>2023-01-19T23:20:00Z</time>
      </trkpt>
      <trkpt lat="41.623280" lon="1.493390">
        <ele>463.083</ele>
        <time>2023-01-19T23:20:40Z</time>
      </trkpt>
      <trkpt lat="41.623710" lon="1.492210">
        <ele>467.025</ele>
        <time>2023-01-19T23:21:20Z</time>
      </trkpt>
      <trkpt lat="41.623710" lon="1.492210">
        <ele>467.017</ele>
        <time>2023-01-19T23:22:00Z</time>
      </trkpt>
      <trkpt lat="41.623810" lon="1.491940">
        <ele>467.009</ele>
        <time>2023-01-19T23:22:40Z</time>
      </trkpt>
      <trkpt lat="41.624440" lon="1.490780">
        <ele>468.079</ele>
        <time>2023-01-19T23:23:20Z</time>
      </trkpt>
      <trkpt lat="41.624870" lon="1.490070">
        <ele>468.030</ele>
        <time>2023-01-19T23:24:00Z</time>
      </trkpt>
      <trkpt lat="41.625270" lon="1.489330">
        <ele>466.071</ele>
        <time>2023-01-19T23:24:40Z</time>
      </trkpt>
      <trkpt lat="41.625560" lon="1.488690">
        <ele>467.075</ele>
        <time>2023-01-19T23:25:20Z</time>
      </trkpt>
      <trkpt lat="41.625560" lon="1.488690">
        <ele>467.086</ele>
        <time>2023-01-19T23:26:00Z</time>
      </trkpt>
      <trkpt lat="41.625700" lon="1.488390">
        <ele>470.012</ele>
        <time>2023-01-19T23:26:40Z</time>
      </trkpt>
      <trkpt lat="41.626030" lon="1.487520">
        <ele>473.087</ele>
        <time>2023-01-19T23:27:20Z</time>
      </trkpt>
      <trkpt lat="41.626140" lon="1.487190">
        <ele>472.058</ele>
        <time>2023-01-19T23:28:00Z</time>
      </trkpt>
      <trkpt lat="41.626540" lon="1.485770">
        <ele>471.044</ele>
        <time>2023-01-19T23:28:40Z</time>
      </trkpt>
      <trkpt lat="41.626540" lon="1.485770">
        <ele>471.027</ele>
        <time>2023-01-19T23:29:20Z</time>
      </trkpt>
      <trkpt lat="41.626660" lon="1.485250">
        <ele>472.068</ele>
        <time>2023-01-19T23:30:00Z</time>
      </trkpt>
      <trkpt lat="41.626820" lon="1.484370">
        <ele>475.014</ele>
        <time>2023-01-19T23:30:40Z</time>
      </trkpt>
      <trkpt lat="41.626930" lon="1.483290">
        <ele>484.009</ele>
        <time>2023-01-19T23:31:20Z</time>
      </trkpt>
      <trkpt lat="41.626930" lon="1.483290">
        <ele>484.013</ele>
        <time>2023-01-19T23:32:00Z</time>
      </trkpt>
      <trkpt lat="41.627000" lon="1.482500">
        <ele>484.024</ele>
        <time>2023-01-19T23:32:40Z</time>
      </trkpt>
      <trkpt lat="41.627000" lon="1.481890">
        <ele>484.015</ele>
        <time>2023-01-19T23:33:20Z</time>
      </trkpt>
      <trkpt lat="41.626960" lon="1.480640">
        <ele>486.089</ele>
        <time>2023-01-19T23:34:00Z</time>
      </trkpt>
      <trkpt lat="41.626900" lon="1.479770">
        <ele>490.080</ele>
        <time>2023-01-19T23:34:40Z</time>
      </trkpt>
      <trkpt lat="41.626880" lon="1.479310">
        <ele>492.066</ele>
        <time>2023-01-19T23:35:20Z</time>
      </trkpt>
      <trkpt lat="41.626880" lon="1.479310">
        <ele>492.041</ele>
        <time>2023-01-19T23:36:00Z</time>
      </trkpt>
      <trkpt lat="41.626870" lon="1.479040">
        <ele>492.072</ele>
        <time>2023-01-19T23:36:40Z</time>
      </trkpt>
      <trkpt lat="41.626910" lon="1.478440">
        <ele>494.088</ele>
        <time>2023-01-19T23:37:20Z</time>
      </trkpt>
      <trkpt lat="41.626970" lon="1.477630">
        <ele>496.067</ele>
        <time>2023-01-19T23:38:00Z</time>
      </trkpt>
      <trkpt lat="41.627140" lon="1.476830">
        <ele>497.081</ele>
        <time>2023-01-19T23:38:40Z</time>
      </trkpt>
      <trkpt lat="41.627260" lon="1.476330">
        <ele>497.019</ele>
        <time>2023-01-19T23:39:20Z</time>
      </trkpt>
      <trkpt lat="41.627470" lon="1.475620">
        <ele>498.009</ele>
        <time>2023-01-19T23:40:00Z</time>
      </trkpt>
      <trkpt lat="41.627810" lon="1.474950">
        <ele>501.087</ele>
        <time>2023-01-19T23:40:40Z</time>
      </trkpt>
      <trkpt lat="41.627810" lon="1.474950">
        <ele>501.018</ele>
        <time>2023-01-19T23:41:20Z</time>
      </trkpt>
      <trkpt lat="41.628270" lon="1.474150">
        <ele>510.039</ele>
        <time>2023-01-19T23:42:00Z</time>
      </trkpt>
      <trkpt lat="41.628630" lon="1.473590">
        <ele>511.063</ele>
        <time>2023-01-19T23:42:40Z</time>
      </trkpt>
      <trkpt lat="41.628660" lon="1.473470">
        <ele>512.094</ele>
        <time>2023-01-19T23:43:20Z</time>
      </trkpt>
      <trkpt lat="41.628720" lon="1.473380">
        <ele>512.080</ele>
        <time>2023-01-19T23:44:00Z</time>
      </trkpt>
      <trkpt lat="41.628790" lon="1.473340">
        <ele>512.095</ele>
        <time>2023-01-19T23:44:40Z</time>
      </trkpt>
      <trkpt lat="41.628960" lon="1.473080">
        <ele>511.046</ele>
        <time>2023-01-19T23:45:20Z</time>
      </trkpt>
      <trkpt lat="41.629240" lon="1.472500">
        <ele>508.062</ele>
        <time>2023-01-19T23:46:00Z</time>
      </trkpt>
      <trkpt lat="41.629350" lon="1.472240">
        <ele>507.053</ele>
        <time>2023-01-19T23:46:40Z</time>
      </trkpt>
      <trkpt lat="41.629480" lon="1.471900">
        <ele>508.004</ele>
        <time>2023-01-19T23:47:20Z</time>
      </trkpt>
      <trkpt lat="41.629510" lon="1.471970">
        <ele>508.014</ele>
        <time>2023-01-19T23:48:00Z</time>
      </trkpt>
      <trkpt lat="41.629710" lon="1.471200">
        <ele>510.009</ele>
        <time>2023-01-19T23:48:40Z</time>
      </trkpt>
      <trkpt lat="41.629800" lon="1.470500">
        <ele>515.026</ele>
        <time>2023-01-19T23:49:20Z</time>
      </trkpt>
      <trkpt lat="41.629800" lon="1.469990">
        <ele>518.077</ele>
        <time>2023-01-19T23:50:00Z</time>
      </trkpt>
      <trkpt lat="41.629800" lon="1.469990">
        <ele>518.098</ele>
        <time>2023-01-19T23:50:40Z</time>
      </trkpt>
      <trkpt lat="41.629780" lon="1.469790">
        <ele>519.082</ele>
        <time>2023-01-19T23:51:20Z</time>
      </trkpt>
      <trkpt lat="41.629690" lon="1.468460">
        <ele>523.013</ele>
        <time>2023-01-19T23:52:00Z</time>
      </trkpt>
      <trkpt lat="41.629440" lon="1.467040">
        <ele>524.019</ele>
        <time>2023-01-19T23:52:40Z</time>
      </trkpt>
      <trkpt lat="41.629200" lon="1.466170">
        <ele>526.054</ele>
        <time>2023-01-19T23:53:20Z</time>
      </trkpt>
      <trkpt lat="41.628810" lon="1.465270">
        <ele>527.085</ele>
        <time>2023-01-19T23:54:00Z</time>
      </trkpt>
      <trkpt lat="41.628210" lon="1.464260">
        <ele>529.091</ele>
        <time>2023-01-19T23:54:40Z</time>
      </trkpt>
      <trkpt lat="41.627630" lon="1.463560">
        <ele>532.035</ele>
        <time>2023-01-19T23:55:20Z</time>
      </trkpt>
      <trkpt lat="41.627400" lon="1.463420">
        <ele>532.086</ele>
        <time>2023-01-19T23:56:00Z</time>
      </trkpt>
      <trkpt lat="41.627180" lon="1.463250">
        <ele>532.014</ele>
        <time>2023-01-19T23:56:40Z</time>
      </trkpt>
      <trkpt lat="41.627060" lon="1.463100">
        <ele>532.009</ele>
        <time>2023-01-19T23:57:20Z</time>
      </trkpt>
      <trkpt lat="41.627080" lon="1.463020">
        <ele>532.014</ele>
        <time>2023-01-19T23:58:00Z</time>
      </trkpt>
      <trkpt lat="41.627080" lon="1.462850">
        <ele>532.025</ele>
        <time>2023-01-19T23:58:40Z</time>
      </trkpt>
      <trkpt lat="41.627000" lon="1.462690">
        <ele>533.066</ele>
        <time>2023-01-19T23:59:20Z</time>
      </trkpt>
      <trkpt lat="41.626960" lon="1.462650">
        <ele>533.070</ele>
        <time>2023-01-20T00:00:00Z</time>
      </trkpt>
      <trkpt lat="41.626840" lon="1.462620">
        <ele>534.071</ele>
        <time>2023-01-20T00:00:40Z</time>
      </trkpt>
      <trkpt lat="41.626780" lon="1.462620">
        <ele>534.027</ele>
        <time>2023-01-20T00:01:20Z</time>
      </trkpt>
      <trkpt lat="41.626680" lon="1.462250">
        <ele>535.022</ele>
        <time>2023-01-20T00:02:00Z</time>
      </trkpt>
      <trkpt lat="41.626570" lon="1.461480">
        <ele>539.043</ele>
        <time>2023-01-20T00:02:40Z</time>
      </trkpt>
      <trkpt lat="41.626580" lon="1.461480">
        <ele>539.079</ele>
        <time>2023-01-20T00:03:20Z</time>
      </trkpt>
      <trkpt lat="41.626550" lon="1.461410">
        <ele>539.087</ele>
        <time>2023-01-20T00:04:00Z</time>
      </trkpt>
      <trkpt lat="41.626150" lon="1.460240">
        <ele>544.042</ele>
        <time>2023-01-20T00:04:40Z</time>
      </trkpt>
      <trkpt lat="41.625600" lon="1.458460">
        <ele>547.026</ele>
        <time>2023-01-20T00:05:20Z</time>
      </trkpt>
      <trkpt lat="41.625460" lon="1.457500">
        <ele>547.009</ele>
        <time>2023-01-20T00:06:00Z</time>
      </trkpt>
      <trkpt lat="41.625210" lon="1.455820">
        <ele>555.099</ele>
        <time>2023-01-20T00:06:40Z</time>
      </trkpt>
      <trkpt lat="41.625070" lon="1.455010">
        <ele>556.060</ele>
        <time>2023-01-20T00:07:20Z</time>
      </trkpt>
      <trkpt lat="41.624940" lon="1.454510">
        <ele>556.011</ele>
        <time>2023-01-20T00:08:00Z</time>
      </trkpt>
      <trkpt lat="41.624510" lon="1.453400">
        <ele>554.065</ele>
        <time>2023-01-20T00:08:40Z</time>
      </trkpt>
      <trkpt lat="41.624260" lon="1.452930">
        <ele>553.096</ele>
        <time>2023-01-20T00:09:20Z</time>
      </trkpt>
      <trkpt lat="41.624260" lon="1.452930">
        <ele>553.062</ele>
        <time>2023-01-20T00:10:00Z</time>
      </trkpt>
      <trkpt lat="41.623910" lon="1.452330">
        <ele>550.097</ele>
        <time>2023-01-20T00:10:40Z</time>
      </trkpt>
      <trkpt lat="41.623370" lon="1.451630">
        <ele>552.058</ele>
        <time>2023-01-20T00:11:20Z</time>
      </trkpt>
      <trkpt lat="41.622650" lon="1.450960">
        <ele>551.044</ele>
        <time>2023-01-20T00:12:00Z</time>
      </trkpt>
      <trkpt lat="41.622340" lon="1.450720">
        <ele>551.022</ele>
        <time>2023-01-20T00:12:40Z</time>
      </trkpt>
      <trkpt lat="41.621890" lon="1.450420">
        <ele>552.062</ele>
        <time>2023-01-20T00:13:20Z</time>
      </trkpt>
      <trkpt lat="41.620990" lon="1.449980">
        <ele>553.008</ele>
        <time>2023-01-20T00:14:00Z</time>
      </trkpt>
      <trkpt lat="41.620270" lon="1.449660">
        <ele>555.009</ele>
        <time>2023-01-20T00:14:40Z</time>
      </trkpt>
      <trkpt lat="41.620270" lon="1.449660">
        <ele>555.053</ele>
        <time>2023-01-20T00:15:20Z</time>
      </trkpt>
      <trkpt lat="41.619150" lon="1.449140">
        <ele>556.084</ele>
        <time>2023-01-20T00:16:00Z</time>
      </trkpt>
      <trkpt lat="41.618750" lon="1.448920">
        <ele>558.025</ele>
        <time>2023-01-20T00:16:40Z</time>
      </trkpt>
      <trkpt lat="41.618480" lon="1.448740">
        <ele>559.049</ele>
        <time>2023-01-20T00:17:20Z</time>
      </trkpt>
      <trkpt lat="41.618340" lon="1.448580">
        <ele>559.080</ele>
        <time>2023-01-20T00:18:00Z</time>
      </trkpt>
      <trkpt lat="41.618200" lon="1.448340">
        <ele>560.046</ele>
        <time>2023-01-20T00:18:40Z</time>
      </trkpt>
      <trkpt lat="41.618020" lon="1.447870">
        <ele>561.061</ele>
        <time>2023-01-20T00:19:20Z</time>
      </trkpt>
      <trkpt lat="41.617940" lon="1.447510">
        <ele>561.042</ele>
        <time>2023-01-20T00:20:00Z</time>
      </trkpt>
      <trkpt lat="41.617960" lon="1.447010">
        <ele>564.088</ele>
        <time>2023-01-20T00:20:40Z</time>
      </trkpt>
      <trkpt lat="41.618000" lon="1.446730">
        <ele>565.097</ele>
        <time>2023-01-20T00:21:20Z</time>
      </trkpt>
      <trkpt lat="41.618210" lon="1.445520">
        <ele>571.023</ele>
        <time>2023-01-20T00:22:00Z</time>
      </trkpt>
      <trkpt lat="41.618390" lon="1.444680">
        <ele>573.025</ele>
        <time>2023-01-20T00:22:40Z</time>
      </trkpt>
      <trkpt lat="41.618500" lon="1.444350">
        <ele>573.009</ele>
        <time>2023-01-20T00:23:20Z</time>
      </trkpt>
      <trkpt lat="41.618660" lon="1.443960">
        <ele>573.030</ele>
        <time>2023-01-20T00:24:00Z</time>
      </trkpt>
      <trkpt lat="41.619950" lon="1.441380">
        <ele>575.031</ele>
        <time>2023-01-20T00:24:40Z</time>
      </trkpt>
      <trkpt lat="41.619950" lon="1.441380">
        <ele>575.062</ele>
        <time>2023-01-20T00:25:20Z</time>
      </trkpt>
      <trkpt lat="41.622430" lon="1.436510">
        <ele>593.046</ele>
        <time>2023-01-20T00:26:00Z</time>
      </trkpt>
      <trkpt lat="41.622680" lon="1.435950">
        <ele>593.047</ele>
        <time>2023-01-20T00:26:40Z</time>
      </trkpt>
      <trkpt lat="41.622870" lon="1.435430">
        <ele>593.023</ele>
        <time>2023-01-20T00:27:20Z</time>
      </trkpt>
      <trkpt lat="41.623630" lon="1.433390">
        <ele>597.088</ele>
        <time>2023-01-20T00:28:00Z</time>
      </trkpt>
      <trkpt lat="41.624490" lon="1.431210">
        <ele>603.089</ele>
        <time>2023-01-20T00:28:40Z</time>
      </trkpt>
      <trkpt lat="41.624620" lon="1.430690">
        <ele>605.025</ele>
        <time>2023-01-20T00:29:20Z</time>
      </trkpt>
      <trkpt lat="41.624710" lon="1.430210">
        <ele>607.027</ele>
        <time>2023-01-20T00:30:00Z</time>
      </trkpt>
      <trkpt lat="41.625000" lon="1.428130">
        <ele>615.068</ele>
        <time>2023-01-20T00:30:40Z</time>
      </trkpt>
      <trkpt lat="41.625120" lon="1.427600">
        <ele>617.014</ele>
        <time>2023-01-20T00:31:20Z</time>
      </trkpt>
      <trkpt lat="41.625310" lon="1.426890">
        <ele>618.009</ele>
        <time>2023-01-20T00:32:00Z</time>
      </trkpt>
      <trkpt lat="41.625310" lon="1.426890">
        <ele>618.013</ele>
        <time>2023-01-20T00:32:40Z</time>
      </trkpt>
      <trkpt lat="41.625470" lon="1.426360">
        <ele>618.084</ele>
        <time>2023-01-20T00:33:20Z</time>
      </trkpt>
      <trkpt lat="41.625520" lon="1.426080">
        <ele>618.065</ele>
        <time>2023-01-20T00:34:00Z</time>
      </trkpt>
      <trkpt lat="41.625520" lon="1.425760">
        <ele>619.059</ele>
        <time>2023-01-20T00:34:40Z</time>
      </trkpt>
      <trkpt lat="41.625470" lon="1.425280">
        <ele>621.060</ele>
        <time>2023-01-20T00:35:20Z</time>
      </trkpt>
      <trkpt lat="41.625330" lon="1.424820">
        <ele>623.096</ele>
        <time>2023-01-20T00:36:00Z</time>
      </trkpt>
      <trkpt lat="41.625120" lon="1.424410">
        <ele>628.081</ele>
        <time>2023-01-20T00:36:40Z</time>
      </trkpt>
      <trkpt lat="41.624510" lon="1.423730">
        <ele>634.022</ele>
        <time>2023-01-20T00:37:20Z</time>
      </trkpt>
      <trkpt lat="41.624130" lon="1.423230">
        <ele>635.098</ele>
        <time>2023-01-20T00:38:00Z</time>
      </trkpt>
      <trkpt lat="41.623980" lon="1.422930">
        <ele>635.082</ele>
        <time>2023-01-20T00:38:40Z</time>
      </trkpt>
      <trkpt lat="41.623770" lon="1.422330">
        <ele>635.043</ele>
        <time>2023-01-20T00:39:20Z</time>
      </trkpt>
      <trkpt lat="41.623190" lon="1.420380">
        <ele>643.017</ele>
        <time>2023-01-20T00:40:00Z</time>
      </trkpt>
      <trkpt lat="41.622870" lon="1.419350">
        <ele>643.009</ele>
        <time>2023-01-20T00:40:40Z</time>
      </trkpt>
      <trkpt lat="41.622110" lon="1.416840">
        <ele>649.099</ele>
        <time>2023-01-20T00:41:20Z</time>
      </trkpt>
      <trkpt lat="41.622110" lon="1.416840">
        <ele>649.050</ele>
        <time>2023-01-20T00:42:00Z</time>
      </trkpt>
      <trkpt lat="41.621840" lon="1.415900">
        <ele>652.011</ele>
        <time>2023-01-20T00:42:40Z</time>
      </trkpt>
      <trkpt lat="41.621510" lon="1.414320">
        <ele>655.015</ele>
        <time>2023-01-20T00:43:20Z</time>
      </trkpt>
      <trkpt lat="41.621220" lon="1.413120">
        <ele>660.036</ele>
        <time>2023-01-20T00:44:00Z</time>
      </trkpt>
      <trkpt lat="41.621080" lon="1.412670">
        <ele>662.062</ele>
        <time>2023-01-20T00:44:40Z</time>
      </trkpt>
      <trkpt lat="41.619300" lon="1.408080">
        <ele>676.077</ele>
        <time>2023-01-20T00:45:20Z</time>
      </trkpt>
      <trkpt lat="41.618390" lon="1.405840">
        <ele>685.088</ele>
        <time>2023-01-20T00:46:00Z</time>
      </trkpt>
      <trkpt lat="41.617940" lon="1.404330">
        <ele>691.054</ele>
        <time>2023-01-20T00:46:40Z</time>
      </trkpt>
      <trkpt lat="41.617670" lon="1.403260">
        <ele>693.053</ele>
        <time>2023-01-20T00:47:20Z</time>
      </trkpt>
      <trkpt lat="41.617630" lon="1.402990">
        <ele>695.004</ele>
        <time>2023-01-20T00:48:00Z</time>
      </trkpt>
      <trkpt lat="41.617630" lon="1.402750">
        <ele>696.014</ele>
        <time>2023-01-20T00:48:40Z</time>
      </trkpt>
      <trkpt lat="41.617670" lon="1.402620">
        <ele>697.009</ele>
        <time>2023-01-20T00:49:20Z</time>
      </trkpt>
      <trkpt lat="41.617670" lon="1.402530">
        <ele>698.096</ele>
        <time>2023-01-20T00:50:00Z</time>
      </trkpt>
      <trkpt lat="41.617630" lon="1.402460">
        <ele>699.087</ele>
        <time>2023-01-20T00:50:40Z</time>
      </trkpt>
      <trkpt lat="41.617600" lon="1.402390">
        <ele>699.038</ele>
        <time>2023-01-20T00:51:20Z</time>
      </trkpt>
      <trkpt lat="41.617430" lon="1.402220">
        <ele>701.062</ele>
        <time>2023-01-20T00:52:00Z</time>
      </trkpt>
      <trkpt lat="41.617360" lon="1.402100">
        <ele>702.073</ele>
        <time>2023-01-20T00:52:40Z</time>
      </trkpt>
      <trkpt lat="41.617260" lon="1.401730">
        <ele>704.059</ele>
        <time>2023-01-20T00:53:20Z</time>
      </trkpt>
      <trkpt lat="41.617260" lon="1.401720">
        <ele>704.034</ele>
        <time>2023-01-20T00:54:00Z</time>
      </trkpt>
      <trkpt lat="41.617170" lon="1.401350">
        <ele>706.035</ele>
        <time>2023-01-20T00:54:40Z</time>
      </trkpt>
      <trkpt lat="41.617130" lon="1.401020">
        <ele>706.021</ele>
        <time>2023-01-20T00:55:20Z</time>
      </trkpt>
      <trkpt lat="41.617130" lon="1.401020">
        <ele>706.094</ele>
        <time>2023-01-20T00:56:00Z</time>
      </trkpt>
      <trkpt lat="41.617150" lon="1.400550">
        <ele>705.057</ele>
        <time>2023-01-20T00:56:40Z</time>
      </trkpt>
      <trkpt lat="41.617210" lon="1.400120">
        <ele>705.022</ele>
        <time>2023-01-20T00:57:20Z</time>
      </trkpt>
      <trkpt lat="41.617330" lon="1.399950">
        <ele>704.009</ele>
        <time>2023-01-20T00:58:00Z</time>
      </trkpt>
      <trkpt lat="41.617390" lon="1.399810">
        <ele>703.070</ele>
        <time>2023-01-20T00:58:40Z</time>
      </trkpt>
      <trkpt lat="41.617580" lon="1.398930">
        <ele>698.081</ele>
        <time>2023-01-20T00:59:20Z</time>
      </trkpt>
      <trkpt lat="41.617730" lon="1.398070">
        <ele>696.092</ele>
        <time>2023-01-20T01:00:00Z</time>
      </trkpt>
      <trkpt lat="41.617870" lon="1.397840">
        <ele>696.096</ele>
        <time>2023-01-20T01:00:40Z</time>
      </trkpt>
      <trkpt lat="41.618610" lon="1.396890">
        <ele>689.067</ele>
        <time>2023-01-20T01:01:20Z</time>
      </trkpt>
      <trkpt lat="41.618790" lon="1.396340">
        <ele>688.083</ele>
        <time>2023-01-20T01:02:00Z</time>
      </trkpt>
      <trkpt lat="41.618980" lon="1.395810">
        <ele>686.048</ele>
        <time>2023-01-20T01:02:40Z</time>
      </trkpt>
      <trkpt lat="41.619300" lon="1.395260">
        <ele>684.059</ele>
        <time>2023-01-20T01:03:20Z</time>
      </trkpt>
      <trkpt lat="41.619300" lon="1.395260">
        <ele>684.045</ele>
        <time>2023-01-20T01:04:00Z</time>
      </trkpt>
      <trkpt lat="41.619470" lon="1.394960">
        <ele>684.066</ele>
        <time>2023-01-20T01:04:40Z</time>
      </trkpt>
      <trkpt lat="41.619730" lon="1.394670">
        <ele>682.029</ele>
        <time>2023-01-20T01:05:20Z</time>
      </trkpt>
      <trkpt lat="41.620030" lon="1.394440">
        <ele>680.021</ele>
        <time>2023-01-20T01:06:00Z</time>
      </trkpt>
      <trkpt lat="41.620290" lon="1.393760">
        <ele>678.009</ele>
        <time>2023-01-20T01:06:40Z</time>
      </trkpt>
      <trkpt lat="41.620470" lon="1.393040">
        <ele>676.037</ele>
        <time>2023-01-20T01:07:20Z</time>
      </trkpt>
      <trkpt lat="41.620490" lon="1.392720">
        <ele>674.048</ele>
        <time>2023-01-20T01:08:00Z</time>
      </trkpt>
      <trkpt lat="41.620430" lon="1.392270">
        <ele>672.089</ele>
        <time>2023-01-20T01:08:40Z</time>
      </trkpt>
      <trkpt lat="41.620490" lon="1.391370">
        <ele>667.053</ele>
        <time>2023-01-20T01:09:20Z</time>
      </trkpt>
      <trkpt lat="41.620560" lon="1.390820">
        <ele>664.054</ele>
        <time>2023-01-20T01:10:00Z</time>
      </trkpt>
      <trkpt lat="41.620760" lon="1.389770">
        <ele>665.010</ele>
        <time>2023-01-20T01:10:40Z</time>
      </trkpt>
      <trkpt lat="41.620950" lon="1.389260">
        <ele>668.035</ele>
        <time>2023-01-20T01:11:20Z</time>
      </trkpt>
      <trkpt lat="41.621070" lon="1.388760">
        <ele>672.046</ele>
        <time>2023-01-20T01:12:00Z</time>
      </trkpt>
      <trkpt lat="41.621140" lon="1.388180">
        <ele>673.072</ele>
        <time>2023-01-20T01:12:40Z</time>
      </trkpt>
      <trkpt lat="41.621090" lon="1.387630">
        <ele>668.093</ele>
        <time>2023-01-20T01:13:20Z</time>
      </trkpt>
      <trkpt lat="41.621430" lon="1.386610">
        <ele>667.065</ele>
        <time>2023-01-20T01:14:00Z</time>
      </trkpt>
      <trkpt lat="41.621630" lon="1.386040">
        <ele>668.021</ele>
        <time>2023-01-20T01:14:40Z</time>
      </trkpt>
      <trkpt lat="41.621800" lon="1.385300">
        <ele>668.009</ele>
        <time>2023-01-20T01:15:20Z</time>
      </trkpt>
      <trkpt lat="41.621980" lon="1.384300">
        <ele>665.080</ele>
        <time>2023-01-20T01:16:00Z</time>
      </trkpt>
      <trkpt lat="41.621980" lon="1.384300">
        <ele>665.051</ele>
        <time>2023-01-20T01:16:40Z</time>
      </trkpt>
      <trkpt lat="41.622180" lon="1.383340">
        <ele>660.022</ele>
        <time>2023-01-20T01:17:20Z</time>
      </trkpt>
      <trkpt lat="41.622620" lon="1.382160">
        <ele>659.026</ele>
        <time>2023-01-20T01:18:00Z</time>
      </trkpt>
      <trkpt lat="41.623140" lon="1.380940">
        <ele>664.017</ele>
        <time>2023-01-20T01:18:40Z</time>
      </trkpt>
      <trkpt lat="41.623380" lon="1.380170">
        <ele>666.033</ele>
        <time>2023-01-20T01:19:20Z</time>
      </trkpt>
      <trkpt lat="41.623590" lon="1.379650">
        <ele>667.028</ele>
        <time>2023-01-20T01:20:00Z</time>
      </trkpt>
      <trkpt lat="41.624140" lon="1.378490">
        <ele>668.069</ele>
        <time>2023-01-20T01:20:40Z</time>
      </trkpt>
      <trkpt lat="41.624660" lon="1.377530">
        <ele>664.095</ele>
        <time>2023-01-20T01:21:20Z</time>
      </trkpt>
      <trkpt lat="41.625290" lon="1.376260">
        <ele>655.031</ele>
        <time>2023-01-20T01:22:00Z</time>
      </trkpt>
      <trkpt lat="41.625290" lon="1.376270">
        <ele>655.061</ele>
        <time>2023-01-20T01:22:40Z</time>
      </trkpt>
      <trkpt lat="41.625740" lon="1.375380">
        <ele>650.007</ele>
        <time>2023-01-20T01:23:20Z</time>
      </trkpt>
      <trkpt lat="41.626170" lon="1.374450">
        <ele>645.009</ele>
        <time>2023-01-20T01:24:00Z</time>
      </trkpt>
      <trkpt lat="41.626500" lon="1.373840">
        <ele>642.054</ele>
        <time>2023-01-20T01:24:40Z</time>
      </trkpt>
      <trkpt lat="41.627040" lon="1.372730">
        <ele>638.045</ele>
        <time>2023-01-20T01:25:20Z</time>
      </trkpt>
      <trkpt lat="41.627360" lon="1.372020">
        <ele>638.096</ele>
        <time>2023-01-20T01:26:00Z</time>
      </trkpt>
      <trkpt lat="41.627240" lon="1.371710">
        <ele>638.030</ele>
        <time>2023-01-20T01:26:40Z</time>
      </trkpt>
      <trkpt lat="41.627040" lon="1.371340">
        <ele>639.071</ele>
        <time>2023-01-20T01:27:20Z</time>
      </trkpt>
      <trkpt lat="41.626340" lon="1.370510">
        <ele>639.047</ele>
        <time>2023-01-20T01:28:00Z</time>
      </trkpt>
      <trkpt lat="41.625620" lon="1.370050">
        <ele>639.042</ele>
        <time>2023-01-20T01:28:40Z</time>
      </trkpt>
      <trkpt lat="41.625270" lon="1.369900">
        <ele>639.033</ele>
        <time>2023-01-20T01:29:20Z</time>
      </trkpt>
      <trkpt lat="41.625160" lon="1.369780">
        <ele>639.049</ele>
        <time>2023-01-20T01:30:00Z</time>
      </trkpt>
      <trkpt lat="41.624890" lon="1.369240">
        <ele>641.075</ele>
        <time>2023-01-20T01:30:40Z</time>
      </trkpt>
      <trkpt lat="41.624630" lon="1.368970">
        <ele>643.028</ele>
        <time>2023-01-20T01:31:20Z</time>
      </trkpt>
      <trkpt lat="41.624340" lon="1.368490">
        <ele>646.020</ele>
        <time>2023-01-20T01:32:00Z</time>
      </trkpt>
      <trkpt lat="41.624150" lon="1.368330">
        <ele>647.009</ele>
        <time>2023-01-20T01:32:40Z</time>
      </trkpt>
      <trkpt lat="41.623280" lon="1.368100">
        <ele>649.078</ele>
        <time>2023-01-20T01:33:20Z</time>
      </trkpt>
      <trkpt lat="41.622680" lon="1.367700">
        <ele>648.039</ele>
        <time>2023-01-20T01:34:00Z</time>
      </trkpt>
      <trkpt lat="41.623120" lon="1.366850">
        <ele>648.090</ele>
        <time>2023-01-20T01:34:40Z</time>
      </trkpt>
      <trkpt lat="41.623120" lon="1.366850">
        <ele>648.084</ele>
        <time>2023-01-20T01:35:20Z</time>
      </trkpt>
      <trkpt lat="41.623320" lon="1.366490">
        <ele>646.035</ele>
        <time>2023-01-20T01:36:00Z</time>
      </trkpt>
      <trkpt lat="41.623540" lon="1.366410">
        <ele>646.071</ele>
        <time>2023-01-20T01:36:40Z</time>
      </trkpt>
      <trkpt lat="41.624240" lon="1.366470">
        <ele>644.066</ele>
        <time>2023-01-20T01:37:20Z</time>
      </trkpt>
      <trkpt lat="41.625370" lon="1.366400">
        <ele>638.037</ele>
        <time>2023-01-20T01:38:00Z</time>
      </trkpt>
      <trkpt lat="41.625740" lon="1.366250">
        <ele>635.093</ele>
        <time>2023-01-20T01:38:40Z</time>
      </trkpt>
      <trkpt lat="41.626170" lon="1.366000">
        <ele>632.029</ele>
        <time>2023-01-20T01:39:20Z</time>
      </trkpt>
      <trkpt lat="41.626420" lon="1.365900">
        <ele>631.000</ele>
        <time>2023-01-20T01:40:00Z</time>
      </trkpt>
      <trkpt lat="41.626680" lon="1.365930">
        <ele>629.020</ele>
        <time>2023-01-20T01:40:40Z</time>
      </trkpt>
      <trkpt lat="41.627050" lon="1.366030">
        <ele>627.009</ele>
        <time>2023-01-20T01:41:20Z</time>
      </trkpt>
      <trkpt lat="41.627390" lon="1.366000">
        <ele>625.053</ele>
        <time>2023-01-20T01:42:00Z</time>
      </trkpt>
      <trkpt lat="41.627590" lon="1.366010">
        <ele>623.084</ele>
        <time>2023-01-20T01:42:40Z</time>
      </trkpt>
      <trkpt lat="41.627820" lon="1.365850">
        <ele>620.045</ele>
        <time>2023-01-20T01:43:20Z</time>
      </trkpt>
      <trkpt lat="41.628020" lon="1.365620">
        <ele>617.039</ele>
        <time>2023-01-20T01:44:00Z</time>
      </trkpt>
      <trkpt lat="41.628090" lon="1.365290">
        <ele>615.090</ele>
        <time>2023-01-20T01:44:40Z</time>
      </trkpt>
      <trkpt lat="41.628280" lon="1.365260">
        <ele>615.046</ele>
        <time>2023-01-20T01:45:20Z</time>
      </trkpt>
      <trkpt lat="41.628610" lon="1.365260">
        <ele>614.051</ele>
        <time>2023-01-20T01:46:00Z</time>
      </trkpt>
      <trkpt lat="41.628830" lon="1.365000">
        <ele>614.092</ele>
        <time>2023-01-20T01:46:40Z</time>
      </trkpt>
      <trkpt lat="41.628970" lon="1.364720">
        <ele>614.088</ele>
        <time>2023-01-20T01:47:20Z</time>
      </trkpt>
      <trkpt lat="41.628920" lon="1.364270">
        <ele>615.026</ele>
        <time>2023-01-20T01:48:00Z</time>
      </trkpt>
      <trkpt lat="41.628950" lon="1.363990">
        <ele>615.047</ele>
        <time>2023-01-20T01:48:40Z</time>
      </trkpt>
      <trkpt lat="41.628910" lon="1.363830">
        <ele>616.011</ele>
        <time>2023-01-20T01:49:20Z</time>
      </trkpt>
      <trkpt lat="41.628820" lon="1.363650">
        <ele>616.009</ele>
        <time>2023-01-20T01:50:00Z</time>
      </trkpt>
      <trkpt lat="41.628750" lon="1.363290">
        <ele>616.073</ele>
        <time>2023-01-20T01:50:40Z</time>
      </trkpt>
      <trkpt lat="41.628820" lon="1.363070">
        <ele>616.074</ele>
        <time>2023-01-20T01:51:20Z</time>
      </trkpt>
      <trkpt lat="41.629150" lon="1.363070">
        <ele>617.015</ele>
        <time>2023-01-20T01:52:00Z</time>
      </trkpt>
      <trkpt lat="41.629050" lon="1.362280">
        <ele>617.029</ele>
        <time>2023-01-20T01:52:40Z</time>
      </trkpt>
      <trkpt lat="41.628880" lon="1.360660">
        <ele>616.020</ele>
        <time>2023-01-20T01:53:20Z</time>
      </trkpt>
      <trkpt lat="41.628610" lon="1.360580">
        <ele>617.046</ele>
        <time>2023-01-20T01:54:00Z</time>
      </trkpt>
      <trkpt lat="41.628610" lon="1.360610">
        <ele>617.021</ele>
        <time>2023-01-20T01:54:40Z</time>
      </trkpt>
      <trkpt lat="41.628580" lon="1.360600">
        <ele>617.072</ele>
        <time>2023-01-20T01:55:20Z</time>
      </trkpt>
      <trkpt lat="41.628520" lon="1.360520">
        <ele>617.058</ele>
        <time>2023-01-20T01:56:00Z</time>
      </trkpt>
      <trkpt lat="41.628500" lon="1.359980">
        <ele>618.067</ele>
        <time>2023-01-20T01:56:40Z</time>
      </trkpt>
      <trkpt lat="41.628510" lon="1.359810">
        <ele>618.081</ele>
        <time>2023-01-20T01:57:20Z</time>
      </trkpt>
      <trkpt lat="41.628570" lon="1.359640">
        <ele>618.019</ele>
        <time>2023-01-20T01:58:00Z</time>
      </trkpt>
      <trkpt lat="41.628730" lon="1.359400">
        <ele>617.009</ele>
        <time>2023-01-20T01:58:40Z</time>
      </trkpt>
      <trkpt lat="41.628810" lon="1.359160">
        <ele>617.097</ele>
        <time>2023-01-20T01:59:20Z</time>
      </trkpt>
      <trkpt lat="41.628810" lon="1.359160">
        <ele>617.018</ele>
        <time>2023-01-20T02:00:00Z</time>
      </trkpt>
      <trkpt lat="41.629180" lon="1.358410">
        <ele>615.089</ele>
        <time>2023-01-20T02:00:40Z</time>
      </trkpt>
      <trkpt lat="41.629210" lon="1.358290">
        <ele>614.023</ele>
        <time>2023-01-20T02:01:20Z</time>
      </trkpt>
      <trkpt lat="41.629190" lon="1.358150">
        <ele>614.074</ele>
        <time>2023-01-20T02:02:00Z</time>
      </trkpt>
      <trkpt lat="41.629120" lon="1.358060">
        <ele>614.080</ele>
        <time>2023-01-20T02:02:40Z</time>
      </trkpt>
      <trkpt lat="41.629040" lon="1.357940">
        <ele>613.015</ele>
        <time>2023-01-20T02:03:20Z</time>
      </trkpt>
      <trkpt lat="41.628890" lon="1.356990">
        <ele>612.096</ele>
        <time>2023-01-20T02:04:00Z</time>
      </trkpt>
      <trkpt lat="41.628830" lon="1.356790">
        <ele>612.032</ele>
        <time>2023-01-20T02:04:40Z</time>
      </trkpt>
      <trkpt lat="41.628650" lon="1.356360">
        <ele>612.015</ele>
        <time>2023-01-20T02:05:20Z</time>
      </trkpt>
      <trkpt lat="41.628590" lon="1.356180">
        <ele>613.065</ele>
        <time>2023-01-20T02:06:00Z</time>
      </trkpt>
      <trkpt lat="41.628480" lon="1.355400">
        <ele>611.011</ele>
        <time>2023-01-20T02:06:40Z</time>
      </trkpt>
      <trkpt lat="41.628440" lon="1.354990">
        <ele>609.009</ele>
        <time>2023-01-20T02:07:20Z</time>
      </trkpt>
      <trkpt lat="41.628350" lon="1.354670">
        <ele>606.042</ele>
        <time>2023-01-20T02:08:00Z</time>
      </trkpt>
      <trkpt lat="41.628310" lon="1.354320">
        <ele>605.063</ele>
        <time>2023-01-20T02:08:40Z</time>
      </trkpt>
      <trkpt lat="41.628320" lon="1.354040">
        <ele>604.014</ele>
        <time>2023-01-20T02:09:20Z</time>
      </trkpt>
      <trkpt lat="41.628400" lon="1.353180">
        <ele>602.088</ele>
        <time>2023-01-20T02:10:00Z</time>
      </trkpt>
      <trkpt lat="41.628370" lon="1.353070">
        <ele>602.039</ele>
        <time>2023-01-20T02:10:40Z</time>
      </trkpt>
      <trkpt lat="41.628390" lon="1.352830">
        <ele>601.065</ele>
        <time>2023-01-20T02:11:20Z</time>
      </trkpt>
      <trkpt lat="41.628230" lon="1.352760">
        <ele>600.050</ele>
        <time>2023-01-20T02:12:00Z</time>
      </trkpt>
      <trkpt lat="41.627970" lon="1.352430">
        <ele>598.011</ele>
        <time>2023-01-20T02:12:40Z</time>
      </trkpt>
      <trkpt lat="41.627760" lon="1.351800">
        <ele>597.047</ele>
        <time>2023-01-20T02:13:20Z</time>
      </trkpt>
      <trkpt lat="41.627260" lon="1.351040">
        <ele>595.088</ele>
        <time>2023-01-20T02:14:00Z</time>
      </trkpt>
      <trkpt lat="41.627010" lon="1.350580">
        <ele>595.024</ele>
        <time>2023-01-20T02:14:40Z</time>
      </trkpt>
      <trkpt lat="41.626880" lon="1.350460">
        <ele>594.026</ele>
        <time>2023-01-20T02:15:20Z</time>
      </trkpt>
      <trkpt lat="41.626740" lon="1.350220">
        <ele>592.009</ele>
        <time>2023-01-20T02:16:00Z</time>
      </trkpt>
      <trkpt lat="41.626600" lon="1.349730">
        <ele>590.039</ele>
        <time>2023-01-20T02:16:40Z</time>
      </trkpt>
      <trkpt lat="41.626530" lon="1.349370">
        <ele>588.050</ele>
        <time>2023-01-20T02:17:20Z</time>
      </trkpt>
      <trkpt lat="41.626520" lon="1.348960">
        <ele>584.051</ele>
        <time>2023-01-20T02:18:00Z</time>
      </trkpt>
      <trkpt lat="41.627240" lon="1.346740">
        <ele>568.075</ele>
        <time>2023-01-20T02:18:40Z</time>
      </trkpt>
      <trkpt lat="41.627290" lon="1.346530">
        <ele>567.076</ele>
        <time>2023-01-20T02:19:20Z</time>
      </trkpt>
      <trkpt lat="41.627290" lon="1.346540">
        <ele>567.062</ele>
        <time>2023-01-20T02:20:00Z</time>
      </trkpt>
      <trkpt lat="41.627440" lon="1.345930">
        <ele>563.017</ele>
        <time>2023-01-20T02:20:40Z</time>
      </trkpt>
      <trkpt lat="41.627640" lon="1.345560">
        <ele>561.078</ele>
        <time>2023-01-20T02:21:20Z</time>
      </trkpt>
      <trkpt lat="41.627670" lon="1.345440">
        <ele>560.044</ele>
        <time>2023-01-20T02:22:00Z</time>
      </trkpt>
      <trkpt lat="41.627510" lon="1.344970">
        <ele>557.072</ele>
        <time>2023-01-20T02:22:40Z</time>
      </trkpt>
      <trkpt lat="41.627470" lon="1.344640">
        <ele>556.013</ele>
        <time>2023-01-20T02:23:20Z</time>
      </trkpt>
      <trkpt lat="41.627410" lon="1.344300">
        <ele>555.014</ele>
        <time>2023-01-20T02:24:00Z</time>
      </trkpt>
      <trkpt lat="41.627290" lon="1.344240">
        <ele>554.009</ele>
        <time>2023-01-20T02:24:40Z</time>
      </trkpt>
      <trkpt lat="41.627270" lon="1.342800">
        <ele>549.018</ele>
        <time>2023-01-20T02:25:20Z</time>
      </trkpt>
      <trkpt lat="41.627630" lon="1.342170">
        <ele>548.039</ele>
        <time>2023-01-20T02:26:00Z</time>
      </trkpt>
      <trkpt lat="41.628530" lon="1.341180">
        <ele>546.060</ele>
        <time>2023-01-20T02:26:40Z</time>
      </trkpt>
      <trkpt lat="41.628880" lon="1.340840">
        <ele>546.044</ele>
        <time>2023-01-20T02:27:20Z</time>
      </trkpt>
      <trkpt lat="41.628940" lon="1.340710">
        <ele>546.035</ele>
        <time>2023-01-20T02:28:00Z</time>
      </trkpt>
      <trkpt lat="41.628980" lon="1.340730">
        <ele>546.041</ele>
        <time>2023-01-20T02:28:40Z</time>
      </trkpt>
      <trkpt lat="41.629020" lon="1.340720">
        <ele>546.076</ele>
        <time>2023-01-20T02:29:20Z</time>
      </trkpt>
      <trkpt lat="41.629050" lon="1.340650">
        <ele>546.037</ele>
        <time>2023-01-20T02:30:00Z</time>
      </trkpt>
      <trkpt lat="41.629050" lon="1.340620">
        <ele>546.083</ele>
        <time>2023-01-20T02:30:40Z</time>
      </trkpt>
      <trkpt lat="41.629180" lon="1.340540">
        <ele>546.057</ele>
        <time>2023-01-20T02:31:20Z</time>
      </trkpt>
      <trkpt lat="41.629790" lon="1.340050">
        <ele>547.000</ele>
        <time>2023-01-20T02:32:00Z</time>
      </trkpt>
      <trkpt lat="41.630070" lon="1.339790">
        <ele>546.020</ele>
        <time>2023-01-20T02:32:40Z</time>
      </trkpt>
      <trkpt lat="41.630080" lon="1.339800">
        <ele>546.009</ele>
        <time>2023-01-20T02:33:20Z</time>
      </trkpt>
      <trkpt lat="41.631440" lon="1.338570">
        <ele>544.036</ele>
        <time>2023-01-20T02:34:00Z</time>
      </trkpt>
      <trkpt lat="41.631630" lon="1.338480">
        <ele>544.037</ele>
        <time>2023-01-20T02:34:40Z</time>
      </trkpt>
      <trkpt lat="41.631890" lon="1.338410">
        <ele>544.038</ele>
        <time>2023-01-20T02:35:20Z</time>
      </trkpt>
      <trkpt lat="41.632050" lon="1.338420">
        <ele>544.022</ele>
        <time>2023-01-20T02:36:00Z</time>
      </trkpt>
      <trkpt lat="41.632060" lon="1.338290">
        <ele>544.053</ele>
        <time>2023-01-20T02:36:40Z</time>
      </trkpt>
      <trkpt lat="41.632100" lon="1.338190">
        <ele>544.039</ele>
        <time>2023-01-20T02:37:20Z</time>
      </trkpt>
      <trkpt lat="41.632380" lon="1.338090">
        <ele>543.024</ele>
        <time>2023-01-20T02:38:00Z</time>
      </trkpt>
      <trkpt lat="41.632470" lon="1.337850">
        <ele>543.055</ele>
        <time>2023-01-20T02:38:40Z</time>
      </trkpt>
      <trkpt lat="41.632830" lon="1.337310">
        <ele>542.071</ele>
        <time>2023-01-20T02:39:20Z</time>
      </trkpt>
      <trkpt lat="41.633120" lon="1.336940">
        <ele>542.018</ele>
        <time>2023-01-20T02:40:00Z</time>
      </trkpt>
      <trkpt lat="41.634160" lon="1.336060">
        <ele>539.098</ele>
        <time>2023-01-20T02:40:40Z</time>
      </trkpt>
      <trkpt lat="41.634160" lon="1.336060">
        <ele>539.017</ele>
        <time>2023-01-20T02:41:20Z</time>
      </trkpt>
      <trkpt lat="41.634300" lon="1.335930">
        <ele>538.009</ele>
        <time>2023-01-20T02:42:00Z</time>
      </trkpt>
      <trkpt lat="41.634280" lon="1.335680">
        <ele>538.082</ele>
        <time>2023-01-20T02:42:40Z</time>
      </trkpt>
      <trkpt lat="41.634210" lon="1.335470">
        <ele>537.023</ele>
        <time>2023-01-20T02:43:20Z</time>
      </trkpt>
      <trkpt lat="41.633120" lon="1.333030">
        <ele>535.044</ele>
        <time>2023-01-20T02:44:00Z</time>
      </trkpt>
      <trkpt lat="41.633180" lon="1.332940">
        <ele>535.058</ele>
        <time>2023-01-20T02:44:40Z</time>
      </trkpt>
      <trkpt lat="41.633850" lon="1.332330">
        <ele>535.099</ele>
        <time>2023-01-20T02:45:20Z</time>
      </trkpt>
      <trkpt lat="41.634020" lon="1.332120">
        <ele>535.055</ele>
        <time>2023-01-20T02:46:00Z</time>
      </trkpt>
      <trkpt lat="41.634130" lon="1.331850">
        <ele>534.020</ele>
        <time>2023-01-20T02:46:40Z</time>
      </trkpt>
      <trkpt lat="41.634430" lon="1.330460">
        <ele>531.091</ele>
        <time>2023-01-20T02:47:20Z</time>
      </trkpt>
      <trkpt lat="41.634430" lon="1.330460">
        <ele>531.047</ele>
        <time>2023-01-20T02:48:00Z</time>
      </trkpt>
      <trkpt lat="41.634510" lon="1.330090">
        <ele>531.065</ele>
        <time>2023-01-20T02:48:40Z</time>
      </trkpt>
      <trkpt lat="41.634990" lon="1.329430">
        <ele>529.068</ele>
        <time>2023-01-20T02:49:20Z</time>
      </trkpt>
      <trkpt lat="41.635230" lon="1.329210">
        <ele>529.014</ele>
        <time>2023-01-20T02:50:00Z</time>
      </trkpt>
      <trkpt lat="41.635410" lon="1.328490">
        <ele>529.009</ele>
        <time>2023-01-20T02:50:40Z</time>
      </trkpt>
      <trkpt lat="41.636120" lon="1.326980">
        <ele>529.047</ele>
        <time>2023-01-20T02:51:20Z</time>
      </trkpt>
      <trkpt lat="41.636150" lon="1.326630">
        <ele>529.098</ele>
        <time>2023-01-20T02:52:00Z</time>
      </trkpt>
      <trkpt lat="41.636060" lon="1.326320">
        <ele>529.069</ele>
        <time>2023-01-20T02:52:40Z</time>
      </trkpt>
      <trkpt lat="41.636100" lon="1.325860">
        <ele>529.033</ele>
        <time>2023-01-20T02:53:20Z</time>
      </trkpt>
      <trkpt lat="41.636500" lon="1.324710">
        <ele>526.074</ele>
        <time>2023-01-20T02:54:00Z</time>
      </trkpt>
      <trkpt lat="41.636530" lon="1.324380">
        <ele>526.020</ele>
        <time>2023-01-20T02:54:40Z</time>
      </trkpt>
      <trkpt lat="41.636440" lon="1.324160">
        <ele>527.035</ele>
        <time>2023-01-20T02:55:20Z</time>
      </trkpt>
      <trkpt lat="41.636230" lon="1.323990">
        <ele>527.086</ele>
        <time>2023-01-20T02:56:00Z</time>
      </trkpt>
      <trkpt lat="41.635900" lon="1.323860">
        <ele>529.092</ele>
        <time>2023-01-20T02:56:40Z</time>
      </trkpt>
      <trkpt lat="41.635840" lon="1.323790">
        <ele>529.082</ele>
        <time>2023-01-20T02:57:20Z</time>
      </trkpt>
      <trkpt lat="41.635830" lon="1.323690">
        <ele>530.043</ele>
        <time>2023-01-20T02:58:00Z</time>
      </trkpt>
      <trkpt lat="41.636080" lon="1.323120">
        <ele>534.017</ele>
        <time>2023-01-20T02:58:40Z</time>
      </trkpt>
      <trkpt lat="41.636290" lon="1.322740">
        <ele>535.009</ele>
        <time>2023-01-20T02:59:20Z</time>
      </trkpt>
      <trkpt lat="41.636700" lon="1.322370">
        <ele>535.089</ele>
        <time>2023-01-20T03:00:00Z</time>
      </trkpt>
      <trkpt lat="41.637240" lon="1.321710">
        <ele>531.080</ele>
        <time>2023-01-20T03:00:40Z</time>
      </trkpt>
      <trkpt lat="41.637460" lon="1.321570">
        <ele>530.041</ele>
        <time>2023-01-20T03:01:20Z</time>
      </trkpt>
      <trkpt lat="41.637740" lon="1.321750">
        <ele>528.075</ele>
        <time>2023-01-20T03:02:00Z</time>
      </trkpt>
      <trkpt lat="41.637970" lon="1.321960">
        <ele>526.046</ele>
        <time>2023-01-20T03:02:40Z</time>
      </trkpt>
      <trkpt lat="41.637960" lon="1.321960">
        <ele>526.012</ele>
        <time>2023-01-20T03:03:20Z</time>
      </trkpt>
      <trkpt lat="41.637990" lon="1.321980">
        <ele>526.067</ele>
        <time>2023-01-20T03:04:00Z</time>
      </trkpt>
      <trkpt lat="41.638160" lon="1.322290">
        <ele>524.098</ele>
        <time>2023-01-20T03:04:40Z</time>
      </trkpt>
      <trkpt lat="41.638340" lon="1.322460">
        <ele>523.044</ele>
        <time>2023-01-20T03:05:20Z</time>
      </trkpt>
      <trkpt lat="41.638510" lon="1.322450">
        <ele>522.041</ele>
        <time>2023-01-20T03:06:00Z</time>
      </trkpt>
      <trkpt lat="41.638870" lon="1.322260">
        <ele>521.081</ele>
        <time>2023-01-20T03:06:40Z</time>
      </trkpt>
      <trkpt lat="41.639390" lon="1.321750">
        <ele>519.009</ele>
        <time>2023-01-20T03:07:20Z</time>
      </trkpt>
      <trkpt lat="41.639820" lon="1.321400">
        <ele>519.009</ele>
        <time>2023-01-20T03:08:00Z</time>
      </trkpt>
      <trkpt lat="41.640230" lon="1.320960">
        <ele>520.015</ele>
        <time>2023-01-20T03:08:40Z</time>
      </trkpt>
      <trkpt lat="41.640470" lon="1.320770">
        <ele>521.046</ele>
        <time>2023-01-20T03:09:20Z</time>
      </trkpt>
      <trkpt lat="41.640680" lon="1.320530">
        <ele>521.037</ele>
        <time>2023-01-20T03:10:00Z</time>
      </trkpt>
      <trkpt lat="41.640970" lon="1.319950">
        <ele>522.061</ele>
        <time>2023-01-20T03:10:40Z</time>
      </trkpt>
      <trkpt lat="41.641520" lon="1.319030">
        <ele>523.022</ele>
        <time>2023-01-20T03:11:20Z</time>
      </trkpt>
      <trkpt lat="41.642200" lon="1.317550">
        <ele>524.028</ele>
        <time>2023-01-20T03:12:00Z</time>
      </trkpt>
      <trkpt lat="41.642630" lon="1.317540">
        <ele>524.063</ele>
        <time>2023-01-20T03:12:40Z</time>
      </trkpt>
      <trkpt lat="41.642940" lon="1.317470">
        <ele>524.064</ele>
        <time>2023-01-20T03:13:20Z</time>
      </trkpt>
      <trkpt lat="41.643310" lon="1.317030">
        <ele>524.050</ele>
        <time>2023-01-20T03:14:00Z</time>
      </trkpt>
      <trkpt lat="41.643380" lon="1.316550">
        <ele>523.012</ele>
        <time>2023-01-20T03:14:40Z</time>
      </trkpt>
      <trkpt lat="41.642880" lon="1.315770">
        <ele>523.032</ele>
        <time>2023-01-20T03:15:20Z</time>
      </trkpt>
      <trkpt lat="41.642700" lon="1.315190">
        <ele>527.005</ele>
        <time>2023-01-20T03:16:00Z</time>
      </trkpt>
      <trkpt lat="41.642700" lon="1.315190">
        <ele>527.009</ele>
        <time>2023-01-20T03:16:40Z</time>
      </trkpt>
      <trkpt lat="41.642640" lon="1.314970">
        <ele>529.082</ele>
        <time>2023-01-20T03:17:20Z</time>
      </trkpt>
      <trkpt lat="41.642480" lon="1.314640">
        <ele>533.083</ele>
        <time>2023-01-20T03:18:00Z</time>
      </trkpt>
      <trkpt lat="41.642300" lon="1.313640">
        <ele>541.084</ele>
        <time>2023-01-20T03:18:40Z</time>
      </trkpt>
      <trkpt lat="41.642300" lon="1.312060">
        <ele>553.098</ele>
        <time>2023-01-20T03:19:20Z</time>
      </trkpt>
      <trkpt lat="41.642160" lon="1.310860">
        <ele>568.059</ele>
        <time>2023-01-20T03:20:00Z</time>
      </trkpt>
      <trkpt lat="41.641850" lon="1.310400">
        <ele>575.035</ele>
        <time>2023-01-20T03:20:40Z</time>
      </trkpt>
      <trkpt lat="41.641850" lon="1.310410">
        <ele>575.060</ele>
        <time>2023-01-20T03:21:20Z</time>
      </trkpt>
      <trkpt lat="41.641670" lon="1.310120">
        <ele>579.061</ele>
        <time>2023-01-20T03:22:00Z</time>
      </trkpt>
      <trkpt lat="41.641560" lon="1.309840">
        <ele>583.027</ele>
        <time>2023-01-20T03:22:40Z</time>
      </trkpt>
      <trkpt lat="41.641490" lon="1.309590">
        <ele>586.087</ele>
        <time>2023-01-20T03:23:20Z</time>
      </trkpt>
      <trkpt lat="41.641420" lon="1.309340">
        <ele>590.042</ele>
        <time>2023-01-20T03:24:00Z</time>
      </trkpt>
      <trkpt lat="41.641360" lon="1.309250">
        <ele>591.026</ele>
        <time>2023-01-20T03:24:40Z</time>
      </trkpt>
      <trkpt lat="41.641260" lon="1.309170">
        <ele>593.009</ele>
        <time>2023-01-20T03:25:20Z</time>
      </trkpt>
      <trkpt lat="41.641090" lon="1.309110">
        <ele>595.059</ele>
        <time>2023-01-20T03:26:00Z</time>
      </trkpt>
      <trkpt lat="41.641100" lon="1.309100">
        <ele>595.070</ele>
        <time>2023-01-20T03:26:40Z</time>
      </trkpt>
      <trkpt lat="41.641010" lon="1.309100">
        <ele>595.041</ele>
        <time>2023-01-20T03:27:20Z</time>
      </trkpt>
      <trkpt lat="41.640800" lon="1.309210">
        <ele>597.055</ele>
        <time>2023-01-20T03:28:00Z</time>
      </trkpt>
      <trkpt lat="41.640750" lon="1.309200">
        <ele>597.036</ele>
        <time>2023-01-20T03:28:40Z</time>
      </trkpt>
      <trkpt lat="41.640730" lon="1.309130">
        <ele>597.022</ele>
        <time>2023-01-20T03:29:20Z</time>
      </trkpt>
      <trkpt lat="41.640850" lon="1.308980">
        <ele>599.027</ele>
        <time>2023-01-20T03:30:00Z</time>
      </trkpt>
      <trkpt lat="41.641120" lon="1.308830">
        <ele>600.048</ele>
        <time>2023-01-20T03:30:40Z</time>
      </trkpt>
      <trkpt lat="41.641150" lon="1.308790">
        <ele>601.084</ele>
        <time>2023-01-20T03:31:20Z</time>
      </trkpt>
      <trkpt lat="41.641140" lon="1.308700">
        <ele>601.047</ele>
        <time>2023-01-20T03:32:00Z</time>
      </trkpt>
      <trkpt lat="41.641050" lon="1.308520">
        <ele>602.029</ele>
        <time>2023-01-20T03:32:40Z</time>
      </trkpt>
      <trkpt lat="41.640940" lon="1.308230">
        <ele>603.021</ele>
        <time>2023-01-20T03:33:20Z</time>
      </trkpt>
      <trkpt lat="41.640920" lon="1.308110">
        <ele>604.009</ele>
        <time>2023-01-20T03:34:00Z</time>
      </trkpt>
      <trkpt lat="41.640910" lon="1.307420">
        <ele>607.045</ele>
        <time>2023-01-20T03:34:40Z</time>
      </trkpt>
      <trkpt lat="41.640950" lon="1.307110">
        <ele>608.066</ele>
        <time>2023-01-20T03:35:20Z</time>
      </trkpt>
      <trkpt lat="41.640950" lon="1.307110">
        <ele>608.087</ele>
        <time>2023-01-20T03:36:00Z</time>
      </trkpt>
      <trkpt lat="41.641040" lon="1.306500">
        <ele>610.061</ele>
        <time>2023-01-20T03:36:40Z</time>
      </trkpt>
      <trkpt lat="41.641560" lon="1.305920">
        <ele>611.082</ele>
        <time>2023-01-20T03:37:20Z</time>
      </trkpt>
      <trkpt lat="41.641650" lon="1.305840">
        <ele>612.068</ele>
        <time>2023-01-20T03:38:00Z</time>
      </trkpt>
      <trkpt lat="41.642000" lon="1.305380">
        <ele>614.073</ele>
        <time>2023-01-20T03:38:40Z</time>
      </trkpt>
      <trkpt lat="41.642270" lon="1.305170">
        <ele>615.064</ele>
        <time>2023-01-20T03:39:20Z</time>
      </trkpt>
      <trkpt lat="41.642470" lon="1.305030">
        <ele>616.010</ele>
        <time>2023-01-20T03:40:00Z</time>
      </trkpt>
      <trkpt lat="41.642570" lon="1.304940">
        <ele>617.046</ele>
        <time>2023-01-20T03:40:40Z</time>
      </trkpt>
      <trkpt lat="41.642830" lon="1.304610">
        <ele>618.088</ele>
        <time>2023-01-20T03:41:20Z</time>
      </trkpt>
      <trkpt lat="41.642930" lon="1.304440">
        <ele>618.016</ele>
        <time>2023-01-20T03:42:00Z</time>
      </trkpt>
      <trkpt lat="41.642940" lon="1.304440">
        <ele>618.009</ele>
        <time>2023-01-20T03:42:40Z</time>
      </trkpt>
      <trkpt lat="41.643220" lon="1.303990">
        <ele>619.025</ele>
        <time>2023-01-20T03:43:20Z</time>
      </trkpt>
      <trkpt lat="41.643720" lon="1.303610">
        <ele>621.016</ele>
        <time>2023-01-20T03:44:00Z</time>
      </trkpt>
      <trkpt lat="41.644140" lon="1.303440">
        <ele>621.047</ele>
        <time>2023-01-20T03:44:40Z</time>
      </trkpt>
      <trkpt lat="41.644720" lon="1.303590">
        <ele>621.021</ele>
        <time>2023-01-20T03:45:20Z</time>
      </trkpt>
      <trkpt lat="41.644900" lon="1.303440">
        <ele>621.012</ele>
        <time>2023-01-20T03:46:00Z</time>
      </trkpt>
      <trkpt lat="41.645170" lon="1.303310">
        <ele>621.058</ele>
        <time>2023-01-20T03:46:40Z</time>
      </trkpt>
      <trkpt lat="41.645590" lon="1.303220">
        <ele>619.073</ele>
        <time>2023-01-20T03:47:20Z</time>
      </trkpt>
      <trkpt lat="41.645840" lon="1.303030">
        <ele>618.014</ele>
        <time>2023-01-20T03:48:00Z</time>
      </trkpt>
      <trkpt lat="41.646170" lon="1.302940">
        <ele>616.080</ele>
        <time>2023-01-20T03:48:40Z</time>
      </trkpt>
      <trkpt lat="41.646670" lon="1.303080">
        <ele>614.022</ele>
        <time>2023-01-20T03:49:20Z</time>
      </trkpt>
      <trkpt lat="41.646660" lon="1.303090">
        <ele>614.062</ele>
        <time>2023-01-20T03:50:00Z</time>
      </trkpt>
      <trkpt lat="41.647200" lon="1.303250">
        <ele>613.008</ele>
        <time>2023-01-20T03:50:40Z</time>
      </trkpt>
      <trkpt lat="41.647510" lon="1.303530">
        <ele>612.009</ele>
        <time>2023-01-20T03:51:20Z</time>
      </trkpt>
      <trkpt lat="41.647960" lon="1.303260">
        <ele>611.053</ele>
        <time>2023-01-20T03:52:00Z</time>
      </trkpt>
      <trkpt lat="41.648450" lon="1.303360">
        <ele>607.024</ele>
        <time>2023-01-20T03:52:40Z</time>
      </trkpt>
      <trkpt lat="41.648740" lon="1.302690">
        <ele>606.015</ele>
        <time>2023-01-20T03:53:20Z</time>
      </trkpt>
      <trkpt lat="41.648770" lon="1.302120">
        <ele>607.069</ele>
        <time>2023-01-20T03:54:00Z</time>
      </trkpt>
      <trkpt lat="41.648880" lon="1.301970">
        <ele>607.040</ele>
        <time>2023-01-20T03:54:40Z</time>
      </trkpt>
      <trkpt lat="41.648920" lon="1.301790">
        <ele>607.096</ele>
        <time>2023-01-20T03:55:20Z</time>
      </trkpt>
      <trkpt lat="41.649110" lon="1.301540">
        <ele>605.061</ele>
        <time>2023-01-20T03:56:00Z</time>
      </trkpt>
      <trkpt lat="41.649060" lon="1.301850">
        <ele>604.042</ele>
        <time>2023-01-20T03:56:40Z</time>
      </trkpt>
      <trkpt lat="41.648920" lon="1.302360">
        <ele>601.088</ele>
        <time>2023-01-20T03:57:20Z</time>
      </trkpt>
      <trkpt lat="41.648990" lon="1.302740">
        <ele>598.081</ele>
        <time>2023-01-20T03:58:00Z</time>
      </trkpt>
      <trkpt lat="41.649000" lon="1.302730">
        <ele>598.061</ele>
        <time>2023-01-20T03:58:40Z</time>
      </trkpt>
      <trkpt lat="41.648980" lon="1.303280">
        <ele>594.017</ele>
        <time>2023-01-20T03:59:20Z</time>
      </trkpt>
      <trkpt lat="41.649030" lon="1.303640">
        <ele>590.009</ele>
        <time>2023-01-20T04:00:00Z</time>
      </trkpt>
      <trkpt lat="41.649240" lon="1.304080">
        <ele>583.039</ele>
        <time>2023-01-20T04:00:40Z</time>
      </trkpt>
      <trkpt lat="41.649620" lon="1.305070">
        <ele>574.070</ele>
        <time>2023-01-20T04:01:20Z</time>
      </trkpt>
      <trkpt lat="41.649730" lon="1.305120">
        <ele>573.041</ele>
        <time>2023-01-20T04:02:00Z</time>
      </trkpt>
      <trkpt lat="41.650150" lon="1.304900">
        <ele>568.065</ele>
        <time>2023-01-20T04:02:40Z</time>
      </trkpt>
      <trkpt lat="41.650670" lon="1.304570">
        <ele>558.056</ele>
        <time>2023-01-20T04:03:20Z</time>
      </trkpt>
      <trkpt lat="41.650960" lon="1.304510">
        <ele>555.022</ele>
        <time>2023-01-20T04:04:00Z</time>
      </trkpt>
      <trkpt lat="41.651060" lon="1.304610">
        <ele>555.087</ele>
        <time>2023-01-20T04:04:40Z</time>
      </trkpt>
      <trkpt lat="41.651050" lon="1.305160">
        <ele>552.098</ele>
        <time>2023-01-20T04:05:20Z</time>
      </trkpt>
      <trkpt lat="41.651060" lon="1.305390">
        <ele>552.034</ele>
        <time>2023-01-20T04:06:00Z</time>
      </trkpt>
      <trkpt lat="41.651160" lon="1.305300">
        <ele>550.039</ele>
        <time>2023-01-20T04:06:40Z</time>
      </trkpt>
      <trkpt lat="41.651570" lon="1.304800">
        <ele>543.001</ele>
        <time>2023-01-20T04:07:20Z</time>
      </trkpt>
      <trkpt lat="41.651590" lon="1.304640">
        <ele>541.021</ele>
        <time>2023-01-20T04:08:00Z</time>
      </trkpt>
      <trkpt lat="41.651590" lon="1.304640">
        <ele>541.009</ele>
        <time>2023-01-20T04:08:40Z</time>
      </trkpt>
      <trkpt lat="41.651610" lon="1.304460">
        <ele>539.074</ele>
        <time>2023-01-20T04:09:20Z</time>
      </trkpt>
      <trkpt lat="41.651500" lon="1.303950">
        <ele>539.055</ele>
        <time>2023-01-20T04:10:00Z</time>
      </trkpt>
      <trkpt lat="41.651520" lon="1.303690">
        <ele>538.086</ele>
        <time>2023-01-20T04:10:40Z</time>
      </trkpt>
      <trkpt lat="41.651680" lon="1.303450">
        <ele>538.080</ele>
        <time>2023-01-20T04:11:20Z</time>
      </trkpt>
      <trkpt lat="41.651840" lon="1.303380">
        <ele>537.011</ele>
        <time>2023-01-20T04:12:00Z</time>
      </trkpt>
      <trkpt lat="41.652010" lon="1.303570">
        <ele>536.087</ele>
        <time>2023-01-20T04:12:40Z</time>
      </trkpt>
      <trkpt lat="41.652240" lon="1.303810">
        <ele>535.062</ele>
        <time>2023-01-20T04:13:20Z</time>
      </trkpt>
      <trkpt lat="41.652370" lon="1.303880">
        <ele>535.043</ele>
        <time>2023-01-20T04:14:00Z</time>
      </trkpt>
      <trkpt lat="41.652960" lon="1.304330">
        <ele>529.059</ele>
        <time>2023-01-20T04:14:40Z</time>
      </trkpt>
      <trkpt lat="41.653380" lon="1.305110">
        <ele>524.025</ele>
        <time>2023-01-20T04:15:20Z</time>
      </trkpt>
      <trkpt lat="41.653390" lon="1.305110">
        <ele>524.026</ele>
        <time>2023-01-20T04:16:00Z</time>
      </trkpt>
      <trkpt lat="41.653610" lon="1.305540">
        <ele>522.008</ele>
        <time>2023-01-20T04:16:40Z</time>
      </trkpt>
      <trkpt lat="41.654210" lon="1.305340">
        <ele>518.009</ele>
        <time>2023-01-20T04:17:20Z</time>
      </trkpt>
      <trkpt lat="41.654600" lon="1.305300">
        <ele>515.023</ele>
        <time>2023-01-20T04:18:00Z</time>
      </trkpt>
      <trkpt lat="41.654820" lon="1.305130">
        <ele>514.094</ele>
        <time>2023-01-20T04:18:40Z</time>
      </trkpt>
      <trkpt lat="41.655030" lon="1.304810">
        <ele>512.045</ele>
        <time>2023-01-20T04:19:20Z</time>
      </trkpt>
      <trkpt lat="41.655160" lon="1.304870">
        <ele>511.079</ele>
        <time>2023-01-20T04:20:00Z</time>
      </trkpt>
      <trkpt lat="41.655170" lon="1.305100">
        <ele>511.010</ele>
        <time>2023-01-20T04:20:40Z</time>
      </trkpt>
      <trkpt lat="41.655160" lon="1.305420">
        <ele>509.036</ele>
        <time>2023-01-20T04:21:20Z</time>
      </trkpt>
      <trkpt lat="41.655270" lon="1.305650">
        <ele>508.021</ele>
        <time>2023-01-20T04:22:00Z</time>
      </trkpt>
      <trkpt lat="41.655350" lon="1.306100">
        <ele>506.092</ele>
        <time>2023-01-20T04:22:40Z</time>
      </trkpt>
      <trkpt lat="41.655490" lon="1.306200">
        <ele>505.088</ele>
        <time>2023-01-20T04:23:20Z</time>
      </trkpt>
      <trkpt lat="41.655740" lon="1.306150">
        <ele>505.046</ele>
        <time>2023-01-20T04:24:00Z</time>
      </trkpt>
      <trkpt lat="41.655930" lon="1.306010">
        <ele>504.088</ele>
        <time>2023-01-20T04:24:40Z</time>
      </trkpt>
      <trkpt lat="41.656400" lon="1.305540">
        <ele>502.016</ele>
        <time>2023-01-20T04:25:20Z</time>
      </trkpt>
      <trkpt lat="41.656400" lon="1.305540">
        <ele>502.009</ele>
        <time>2023-01-20T04:26:00Z</time>
      </trkpt>
      <trkpt lat="41.656540" lon="1.305380">
        <ele>502.085</ele>
        <time>2023-01-20T04:26:40Z</time>
      </trkpt>
      <trkpt lat="41.656890" lon="1.305130">
        <ele>501.076</ele>
        <time>2023-01-20T04:27:20Z</time>
      </trkpt>
      <trkpt lat="41.657010" lon="1.305140">
        <ele>501.077</ele>
        <time>2023-01-20T04:28:00Z</time>
      </trkpt>
      <trkpt lat="41.657340" lon="1.304840">
        <ele>501.071</ele>
        <time>2023-01-20T04:28:40Z</time>
      </trkpt>
      <trkpt lat="41.657540" lon="1.304500">
        <ele>501.052</ele>
        <time>2023-01-20T04:29:20Z</time>
      </trkpt>
      <trkpt lat="41.657770" lon="1.304170">
        <ele>500.098</ele>
        <time>2023-01-20T04:30:00Z</time>
      </trkpt>
      <trkpt lat="41.658060" lon="1.303870">
        <ele>500.033</ele>
        <time>2023-01-20T04:30:40Z</time>
      </trkpt>
      <trkpt lat="41.658600" lon="1.303030">
        <ele>500.074</ele>
        <time>2023-01-20T04:31:20Z</time>
      </trkpt>
      <trkpt lat="41.658600" lon="1.303030">
        <ele>500.090</ele>
        <time>2023-01-20T04:32:00Z</time>
      </trkpt>
      <trkpt lat="41.658790" lon="1.302730">
        <ele>500.068</ele>
        <time>2023-01-20T04:32:40Z</time>
      </trkpt>
      <trkpt lat="41.659100" lon="1.301990">
        <ele>499.042</ele>
        <time>2023-01-20T04:33:20Z</time>
      </trkpt>
      <trkpt lat="41.659330" lon="1.301620">
        <ele>499.026</ele>
        <time>2023-01-20T04:34:00Z</time>
      </trkpt>
      <trkpt lat="41.659480" lon="1.301410">
        <ele>499.009</ele>
        <time>2023-01-20T04:34:40Z</time>
      </trkpt>
      <trkpt lat="41.659720" lon="1.300880">
        <ele>499.027</ele>
        <time>2023-01-20T04:35:20Z</time>
      </trkpt>
      <trkpt lat="41.659910" lon="1.300160">
        <ele>501.088</ele>
        <time>2023-01-20T04:36:00Z</time>
      </trkpt>
      <trkpt lat="41.660220" lon="1.299490">
        <ele>505.049</ele>
        <time>2023-01-20T04:36:40Z</time>
      </trkpt>
      <trkpt lat="41.660490" lon="1.298810">
        <ele>503.043</ele>
        <time>2023-01-20T04:37:20Z</time>
      </trkpt>
      <trkpt lat="41.660880" lon="1.298050">
        <ele>496.074</ele>
        <time>2023-01-20T04:38:00Z</time>
      </trkpt>
      <trkpt lat="41.660970" lon="1.297990">
        <ele>494.030</ele>
        <time>2023-01-20T04:38:40Z</time>
      </trkpt>
      <trkpt lat="41.661800" lon="1.298530">
        <ele>485.085</ele>
        <time>2023-01-20T04:39:20Z</time>
      </trkpt>
      <trkpt lat="41.662030" lon="1.297770">
        <ele>484.056</ele>
        <time>2023-01-20T04:40:00Z</time>
      </trkpt>
      <trkpt lat="41.662030" lon="1.297780">
        <ele>484.042</ele>
        <time>2023-01-20T04:40:40Z</time>
      </trkpt>
      <trkpt lat="41.662240" lon="1.296740">
        <ele>485.067</ele>
        <time>2023-01-20T04:41:20Z</time>
      </trkpt>
      <trkpt lat="41.662240" lon="1.296330">
        <ele>487.081</ele>
        <time>2023-01-20T04:42:00Z</time>
      </trkpt>
      <trkpt lat="41.662270" lon="1.296060">
        <ele>488.019</ele>
        <time>2023-01-20T04:42:40Z</time>
      </trkpt>
      <trkpt lat="41.662300" lon="1.296050">
        <ele>488.009</ele>
        <time>2023-01-20T04:43:20Z</time>
      </trkpt>
      <trkpt lat="41.662270" lon="1.296000">
        <ele>489.047</ele>
        <time>2023-01-20T04:44:00Z</time>
      </trkpt>
      <trkpt lat="41.662150" lon="1.295950">
        <ele>489.068</ele>
        <time>2023-01-20T04:44:40Z</time>
      </trkpt>
      <trkpt lat="41.662150" lon="1.295910">
        <ele>489.099</ele>
        <time>2023-01-20T04:45:20Z</time>
      </trkpt>
      <trkpt lat="41.662160" lon="1.295680">
        <ele>489.023</ele>
        <time>2023-01-20T04:46:00Z</time>
      </trkpt>
      <trkpt lat="41.662200" lon="1.295450">
        <ele>488.084</ele>
        <time>2023-01-20T04:46:40Z</time>
      </trkpt>
      <trkpt lat="41.662210" lon="1.295200">
        <ele>487.040</ele>
        <time>2023-01-20T04:47:20Z</time>
      </trkpt>
      <trkpt lat="41.662240" lon="1.295040">
        <ele>487.065</ele>
        <time>2023-01-20T04:48:00Z</time>
      </trkpt>
      <trkpt lat="41.662400" lon="1.294520">
        <ele>486.076</ele>
        <time>2023-01-20T04:48:40Z</time>
      </trkpt>
      <trkpt lat="41.662430" lon="1.294390">
        <ele>486.032</ele>
        <time>2023-01-20T04:49:20Z</time>
      </trkpt>
      <trkpt lat="41.662430" lon="1.294250">
        <ele>486.082</ele>
        <time>2023-01-20T04:50:00Z</time>
      </trkpt>
      <trkpt lat="41.662360" lon="1.294060">
        <ele>487.043</ele>
        <time>2023-01-20T04:50:40Z</time>
      </trkpt>
      <trkpt lat="41.662190" lon="1.293770">
        <ele>487.017</ele>
        <time>2023-01-20T04:51:20Z</time>
      </trkpt>
      <trkpt lat="41.662120" lon="1.293570">
        <ele>488.009</ele>
        <time>2023-01-20T04:52:00Z</time>
      </trkpt>
      <trkpt lat="41.662000" lon="1.293110">
        <ele>488.069</ele>
        <time>2023-01-20T04:52:40Z</time>
      </trkpt>
      <trkpt lat="41.662000" lon="1.293100">
        <ele>488.010</ele>
        <time>2023-01-20T04:53:20Z</time>
      </trkpt>
      <trkpt lat="41.661980" lon="1.293000">
        <ele>488.061</ele>
        <time>2023-01-20T04:54:00Z</time>
      </trkpt>
      <trkpt lat="41.661990" lon="1.292770">
        <ele>488.085</ele>
        <time>2023-01-20T04:54:40Z</time>
      </trkpt>
      <trkpt lat="41.662070" lon="1.292320">
        <ele>489.046</ele>
        <time>2023-01-20T04:55:20Z</time>
      </trkpt>
      <trkpt lat="41.662060" lon="1.292080">
        <ele>489.062</ele>
        <time>2023-01-20T04:56:00Z</time>
      </trkpt>
      <trkpt lat="41.662090" lon="1.291850">
        <ele>489.027</ele>
        <time>2023-01-20T04:56:40Z</time>
      </trkpt>
      <trkpt lat="41.662110" lon="1.291680">
        <ele>489.088</ele>
        <time>2023-01-20T04:57:20Z</time>
      </trkpt>
      <trkpt lat="41.662070" lon="1.291480">
        <ele>489.014</ele>
        <time>2023-01-20T04:58:00Z</time>
      </trkpt>
      <trkpt lat="41.662040" lon="1.291050">
        <ele>490.013</ele>
        <time>2023-01-20T04:58:40Z</time>
      </trkpt>
      <trkpt lat="41.662060" lon="1.290730">
        <ele>490.043</ele>
        <time>2023-01-20T04:59:20Z</time>
      </trkpt>
      <trkpt lat="41.661980" lon="1.290490">
        <ele>490.007</ele>
        <time>2023-01-20T05:00:00Z</time>
      </trkpt>
      <trkpt lat="41.661950" lon="1.290090">
        <ele>490.009</ele>
        <time>2023-01-20T05:00:40Z</time>
      </trkpt>
      <trkpt lat="41.661930" lon="1.289750">
        <ele>488.032</ele>
        <time>2023-01-20T05:01:20Z</time>
      </trkpt>
      <trkpt lat="41.662000" lon="1.289710">
        <ele>487.043</ele>
        <time>2023-01-20T05:02:00Z</time>
      </trkpt>
      <trkpt lat="41.662200" lon="1.289750">
        <ele>485.074</ele>
        <time>2023-01-20T05:02:40Z</time>
      </trkpt>
      <trkpt lat="41.662300" lon="1.289690">
        <ele>484.068</ele>
        <time>2023-01-20T05:03:20Z</time>
      </trkpt>
      <trkpt lat="41.662380" lon="1.289560">
        <ele>482.069</ele>
        <time>2023-01-20T05:04:00Z</time>
      </trkpt>
      <trkpt lat="41.662380" lon="1.289440">
        <ele>481.065</ele>
        <time>2023-01-20T05:04:40Z</time>
      </trkpt>
      <trkpt lat="41.662340" lon="1.289300">
        <ele>481.050</ele>
        <time>2023-01-20T05:05:20Z</time>
      </trkpt>
      <trkpt lat="41.662190" lon="1.289000">
        <ele>481.071</ele>
        <time>2023-01-20T05:06:00Z</time>
      </trkpt>
      <trkpt lat="41.662160" lon="1.288510">
        <ele>481.067</ele>
        <time>2023-01-20T05:06:40Z</time>
      </trkpt>
      <trkpt lat="41.662170" lon="1.288260">
        <ele>480.042</ele>
        <time>2023-01-20T05:07:20Z</time>
      </trkpt>
      <trkpt lat="41.662230" lon="1.288040">
        <ele>480.022</ele>
        <time>2023-01-20T05:08:00Z</time>
      </trkpt>
      <trkpt lat="41.662410" lon="1.287720">
        <ele>478.014</ele>
        <time>2023-01-20T05:08:40Z</time>
      </trkpt>
      <trkpt lat="41.662410" lon="1.287730">
        <ele>478.009</ele>
        <time>2023-01-20T05:09:20Z</time>
      </trkpt>
      <trkpt lat="41.662620" lon="1.287480">
        <ele>477.075</ele>
        <time>2023-01-20T05:10:00Z</time>
      </trkpt>
      <trkpt lat="41.662720" lon="1.287320">
        <ele>476.026</ele>
        <time>2023-01-20T05:10:40Z</time>
      </trkpt>
      <trkpt lat="41.662810" lon="1.286940">
        <ele>474.057</ele>
        <time>2023-01-20T05:11:20Z</time>
      </trkpt>
      <trkpt lat="41.662800" lon="1.286340">
        <ele>472.061</ele>
        <time>2023-01-20T05:12:00Z</time>
      </trkpt>
      <trkpt lat="41.662890" lon="1.285580">
        <ele>474.082</ele>
        <time>2023-01-20T05:12:40Z</time>
      </trkpt>
      <trkpt lat="41.662960" lon="1.285350">
        <ele>475.068</ele>
        <time>2023-01-20T05:13:20Z</time>
      </trkpt>
      <trkpt lat="41.663400" lon="1.284950">
        <ele>476.043</ele>
        <time>2023-01-20T05:14:00Z</time>
      </trkpt>
      <trkpt lat="41.663480" lon="1.284780">
        <ele>475.014</ele>
        <time>2023-01-20T05:14:40Z</time>
      </trkpt>
      <trkpt lat="41.663490" lon="1.284610">
        <ele>475.050</ele>
        <time>2023-01-20T05:15:20Z</time>
      </trkpt>
      <trkpt lat="41.663440" lon="1.284320">
        <ele>475.087</ele>
        <time>2023-01-20T05:16:00Z</time>
      </trkpt>
      <trkpt lat="41.663360" lon="1.284000">
        <ele>474.042</ele>
        <time>2023-01-20T05:16:40Z</time>
      </trkpt>
      <trkpt lat="41.663170" lon="1.283590">
        <ele>474.026</ele>
        <time>2023-01-20T05:17:20Z</time>
      </trkpt>
      <trkpt lat="41.663170" lon="1.283590">
        <ele>474.009</ele>
        <time>2023-01-20T05:18:00Z</time>
      </trkpt>
      <trkpt lat="41.662870" lon="1.282930">
        <ele>474.059</ele>
        <time>2023-01-20T05:18:40Z</time>
      </trkpt>
      <trkpt lat="41.662740" lon="1.282300">
        <ele>474.030</ele>
        <time>2023-01-20T05:19:20Z</time>
      </trkpt>
      <trkpt lat="41.662400" lon="1.281640">
        <ele>474.061</ele>
        <time>2023-01-20T05:20:00Z</time>
      </trkpt>
      <trkpt lat="41.662340" lon="1.281250">
        <ele>475.065</ele>
        <time>2023-01-20T05:20:40Z</time>
      </trkpt>
      <trkpt lat="41.662330" lon="1.281000">
        <ele>475.026</ele>
        <time>2023-01-20T05:21:20Z</time>
      </trkpt>
      <trkpt lat="41.662360" lon="1.280780">
        <ele>474.082</ele>
        <time>2023-01-20T05:22:00Z</time>
      </trkpt>
      <trkpt lat="41.662450" lon="1.280460">
        <ele>472.037</ele>
        <time>2023-01-20T05:22:40Z</time>
      </trkpt>
      <trkpt lat="41.662810" lon="1.279950">
        <ele>469.098</ele>
        <time>2023-01-20T05:23:20Z</time>
      </trkpt>
      <trkpt lat="41.662910" lon="1.279720">
        <ele>469.024</ele>
        <time>2023-01-20T05:24:00Z</time>
      </trkpt>
      <trkpt lat="41.662930" lon="1.279560">
        <ele>469.051</ele>
        <time>2023-01-20T05:24:40Z</time>
      </trkpt>
      <trkpt lat="41.662900" lon="1.279350">
        <ele>470.001</ele>
        <time>2023-01-20T05:25:20Z</time>
      </trkpt>
      <trkpt lat="41.662770" lon="1.278930">
        <ele>470.011</ele>
        <time>2023-01-20T05:26:00Z</time>
      </trkpt>
      <trkpt lat="41.662700" lon="1.278540">
        <ele>471.009</ele>
        <time>2023-01-20T05:26:40Z</time>
      </trkpt>
      <trkpt lat="41.662700" lon="1.278270">
        <ele>471.086</ele>
        <time>2023-01-20T05:27:20Z</time>
      </trkpt>
      <trkpt lat="41.662730" lon="1.277860">
        <ele>471.027</ele>
        <time>2023-01-20T05:28:00Z</time>
      </trkpt>
      <trkpt lat="41.662740" lon="1.277270">
        <ele>471.068</ele>
        <time>2023-01-20T05:28:40Z</time>
      </trkpt>
      <trkpt lat="41.662680" lon="1.276940">
        <ele>470.062</ele>
        <time>2023-01-20T05:29:20Z</time>
      </trkpt>
      <trkpt lat="41.662680" lon="1.276190">
        <ele>469.093</ele>
        <time>2023-01-20T05:30:00Z</time>
      </trkpt>
      <trkpt lat="41.662660" lon="1.275670">
        <ele>469.099</ele>
        <time>2023-01-20T05:30:40Z</time>
      </trkpt>
      <trkpt lat="41.662590" lon="1.275300">
        <ele>469.074</ele>
        <time>2023-01-20T05:31:20Z</time>
      </trkpt>
      <trkpt lat="41.667184" lon="1.270808">
        <ele>540.615</ele>
        <time>2021-08-19T07:48:14Z</time>
      </trkpt>
      <trkpt lat="41.667164" lon="1.270904">
        <ele>542.541</ele>
        <time>2021-08-19T07:48:18Z</time>
      </trkpt>
      <trkpt lat="41.667164" lon="1.270904">
        <ele>542.595</ele>
        <time>2021-08-19T07:48:18Z</time>
      </trkpt>
      <trkpt lat="41.667116" lon="1.270861">
        <ele>541.649</ele>
        <time>2021-08-19T07:48:20Z</time>
      </trkpt>
      <trkpt lat="41.667142" lon="1.270913">
        <ele>542.723</ele>
        <time>2021-08-19T07:48:33Z</time>
      </trkpt>
      <trkpt lat="41.667185" lon="1.270935">
        <ele>543.209</ele>
        <time>2021-08-19T07:49:05Z</time>
      </trkpt>
      <trkpt lat="41.667163" lon="1.270880">
        <ele>542.040</ele>
        <time>2021-08-19T07:49:55Z</time>
      </trkpt>
      <trkpt lat="41.667195" lon="1.270836">
        <ele>541.111</ele>
        <time>2021-08-19T07:51:16Z</time>
      </trkpt>
      <trkpt lat="41.667229" lon="1.270790">
        <ele>540.142</ele>
        <time>2021-08-19T07:53:40Z</time>
      </trkpt>
      <trkpt lat="41.667275" lon="1.270805">
        <ele>539.956</ele>
        <time>2021-08-19T07:53:43Z</time>
      </trkpt>
      <trkpt lat="41.667321" lon="1.270808">
        <ele>539.457</ele>
        <time>2021-08-19T07:53:49Z</time>
      </trkpt>
      <trkpt lat="41.667372" lon="1.270813">
        <ele>538.963</ele>
        <time>2021-08-19T07:54:00Z</time>
      </trkpt>
      <trkpt lat="41.667432" lon="1.270823">
        <ele>538.598</ele>
        <time>2021-08-19T07:54:13Z</time>
      </trkpt>
      <trkpt lat="41.667475" lon="1.270843">
        <ele>538.449</ele>
        <time>2021-08-19T07:54:15Z</time>
      </trkpt>
      <trkpt lat="41.667534" lon="1.270867">
        <ele>538.035</ele>
        <time>2021-08-19T07:54:17Z</time>
      </trkpt>
      <trkpt lat="41.667593" lon="1.270882">
        <ele>537.391</ele>
        <time>2021-08-19T07:54:19Z</time>
      </trkpt>
      <trkpt lat="41.667638" lon="1.270893">
        <ele>536.781</ele>
        <time>2021-08-19T07:54:21Z</time>
      </trkpt>
      <trkpt lat="41.667686" lon="1.270899">
        <ele>536.019</ele>
        <time>2021-08-19T07:54:23Z</time>
      </trkpt>
      <trkpt lat="41.667733" lon="1.270918">
        <ele>535.609</ele>
        <time>2021-08-19T07:54:25Z</time>
      </trkpt>
      <trkpt lat="41.667780" lon="1.270935">
        <ele>535.290</ele>
        <time>2021-08-19T07:54:27Z</time>
      </trkpt>
      <trkpt lat="41.667824" lon="1.270952">
        <ele>535.471</ele>
        <time>2021-08-19T07:54:29Z</time>
      </trkpt>
      <trkpt lat="41.667877" lon="1.270953">
        <ele>535.242</ele>
        <time>2021-08-19T07:54:31Z</time>
      </trkpt>
      <trkpt lat="41.667926" lon="1.270962">
        <ele>535.236</ele>
        <time>2021-08-19T07:54:33Z</time>
      </trkpt>
      <trkpt lat="41.667978" lon="1.270976">
        <ele>535.437</ele>
        <time>2021-08-19T07:54:35Z</time>
      </trkpt>
      <trkpt lat="41.668036" lon="1.270998">
        <ele>535.663</ele>
        <time>2021-08-19T07:54:37Z</time>
      </trkpt>
      <trkpt lat="41.668093" lon="1.271013">
        <ele>536.128</ele>
        <time>2021-08-19T07:54:39Z</time>
      </trkpt>
      <trkpt lat="41.668159" lon="1.271035">
        <ele>537.279</ele>
        <time>2021-08-19T07:54:42Z</time>
      </trkpt>
      <trkpt lat="41.668211" lon="1.271047">
        <ele>537.955</ele>
        <time>2021-08-19T07:54:44Z</time>
      </trkpt>
      <trkpt lat="41.668264" lon="1.271070">
        <ele>539.041</ele>
        <time>2021-08-19T07:54:46Z</time>
      </trkpt>
      <trkpt lat="41.668327" lon="1.271080">
        <ele>539.981</ele>
        <time>2021-08-19T07:54:48Z</time>
      </trkpt>
      <trkpt lat="41.668377" lon="1.271085">
        <ele>539.709</ele>
        <time>2021-08-19T07:54:50Z</time>
      </trkpt>
      <trkpt lat="41.668435" lon="1.271109">
        <ele>539.809</ele>
        <time>2021-08-19T07:54:52Z</time>
      </trkpt>
      <trkpt lat="41.668482" lon="1.271122">
        <ele>539.715</ele>
        <time>2021-08-19T07:54:54Z</time>
      </trkpt>
      <trkpt lat="41.668534" lon="1.271134">
        <ele>539.416</ele>
        <time>2021-08-19T07:54:56Z</time>
      </trkpt>
      <trkpt lat="41.668596" lon="1.271152">
        <ele>539.167</ele>
        <time>2021-08-19T07:54:58Z</time>
      </trkpt>
      <trkpt lat="41.668649" lon="1.271173">
        <ele>538.921</ele>
        <time>2021-08-19T07:55:01Z</time>
      </trkpt>
      <trkpt lat="41.668695" lon="1.271181">
        <ele>538.562</ele>
        <time>2021-08-19T07:55:03Z</time>
      </trkpt>
      <trkpt lat="41.668742" lon="1.271183">
        <ele>537.928</ele>
        <time>2021-08-19T07:55:04Z</time>
      </trkpt>
      <trkpt lat="41.668807" lon="1.271221">
        <ele>538.123</ele>
        <time>2021-08-19T07:55:07Z</time>
      </trkpt>
      <trkpt lat="41.668855" lon="1.271246">
        <ele>538.364</ele>
        <time>2021-08-19T07:55:09Z</time>
      </trkpt>
      <trkpt lat="41.668907" lon="1.271261">
        <ele>538.280</ele>
        <time>2021-08-19T07:55:11Z</time>
      </trkpt>
      <trkpt lat="41.668960" lon="1.271269">
        <ele>538.212</ele>
        <time>2021-08-19T07:55:13Z</time>
      </trkpt>
      <trkpt lat="41.669006" lon="1.271270">
        <ele>538.032</ele>
        <time>2021-08-19T07:55:15Z</time>
      </trkpt>
      <trkpt lat="41.669065" lon="1.271294">
        <ele>538.605</ele>
        <time>2021-08-19T07:55:17Z</time>
      </trkpt>
      <trkpt lat="41.669114" lon="1.271318">
        <ele>539.309</ele>
        <time>2021-08-19T07:55:19Z</time>
      </trkpt>
      <trkpt lat="41.669160" lon="1.271323">
        <ele>539.462</ele>
        <time>2021-08-19T07:55:21Z</time>
      </trkpt>
      <trkpt lat="41.669213" lon="1.271327">
        <ele>539.293</ele>
        <time>2021-08-19T07:55:23Z</time>
      </trkpt>
      <trkpt lat="41.669257" lon="1.271354">
        <ele>539.814</ele>
        <time>2021-08-19T07:55:25Z</time>
      </trkpt>
      <trkpt lat="41.669306" lon="1.271363">
        <ele>539.758</ele>
        <time>2021-08-19T07:55:27Z</time>
      </trkpt>
      <trkpt lat="41.669354" lon="1.271367">
        <ele>539.389</ele>
        <time>2021-08-19T07:55:28Z</time>
      </trkpt>
      <trkpt lat="41.669404" lon="1.271387">
        <ele>539.435</ele>
        <time>2021-08-19T07:55:30Z</time>
      </trkpt>
      <trkpt lat="41.669450" lon="1.271401">
        <ele>539.410</ele>
        <time>2021-08-19T07:55:32Z</time>
      </trkpt>
      <trkpt lat="41.669508" lon="1.271423">
        <ele>540.641</ele>
        <time>2021-08-19T07:55:34Z</time>
      </trkpt>
      <trkpt lat="41.669561" lon="1.271435">
        <ele>541.347</ele>
        <time>2021-08-19T07:55:36Z</time>
      </trkpt>
      <trkpt lat="41.669607" lon="1.271447">
        <ele>541.979</ele>
        <time>2021-08-19T07:55:38Z</time>
      </trkpt>
      <trkpt lat="41.669660" lon="1.271471">
        <ele>542.805</ele>
        <time>2021-08-19T07:55:41Z</time>
      </trkpt>
      <trkpt lat="41.669705" lon="1.271498">
        <ele>543.525</ele>
        <time>2021-08-19T07:55:43Z</time>
      </trkpt>
      <trkpt lat="41.669747" lon="1.271521">
        <ele>544.009</ele>
        <time>2021-08-19T07:55:45Z</time>
      </trkpt>
      <trkpt lat="41.669791" lon="1.271553">
        <ele>544.798</ele>
        <time>2021-08-19T07:55:47Z</time>
      </trkpt>
      <trkpt lat="41.669833" lon="1.271592">
        <ele>545.449</ele>
        <time>2021-08-19T07:55:49Z</time>
      </trkpt>
      <trkpt lat="41.669881" lon="1.271600">
        <ele>545.770</ele>
        <time>2021-08-19T07:55:51Z</time>
      </trkpt>
      <trkpt lat="41.669934" lon="1.271614">
        <ele>546.164</ele>
        <time>2021-08-19T07:55:54Z</time>
      </trkpt>
      <trkpt lat="41.669990" lon="1.271620">
        <ele>546.585</ele>
        <time>2021-08-19T07:55:56Z</time>
      </trkpt>
      <trkpt lat="41.670039" lon="1.271619">
        <ele>546.651</ele>
        <time>2021-08-19T07:55:58Z</time>
      </trkpt>
      <trkpt lat="41.670088" lon="1.271625">
        <ele>546.946</ele>
        <time>2021-08-19T07:56:01Z</time>
      </trkpt>
      <trkpt lat="41.670146" lon="1.271623">
        <ele>547.137</ele>
        <time>2021-08-19T07:56:03Z</time>
      </trkpt>
      <trkpt lat="41.670204" lon="1.271617">
        <ele>547.343</ele>
        <time>2021-08-19T07:56:05Z</time>
      </trkpt>
      <trkpt lat="41.670253" lon="1.271614">
        <ele>547.569</ele>
        <time>2021-08-19T07:56:07Z</time>
      </trkpt>
      <trkpt lat="41.670306" lon="1.271619">
        <ele>547.204</ele>
        <time>2021-08-19T07:56:09Z</time>
      </trkpt>
      <trkpt lat="41.670360" lon="1.271620">
        <ele>546.424</ele>
        <time>2021-08-19T07:56:11Z</time>
      </trkpt>
      <trkpt lat="41.670415" lon="1.271613">
        <ele>545.509</ele>
        <time>2021-08-19T07:56:13Z</time>
      </trkpt>
      <trkpt lat="41.670464" lon="1.271622">
        <ele>544.977</ele>
        <time>2021-08-19T07:56:15Z</time>
      </trkpt>
      <trkpt lat="41.670509" lon="1.271632">
        <ele>544.348</ele>
        <time>2021-08-19T07:56:16Z</time>
      </trkpt>
      <trkpt lat="41.670564" lon="1.271644">
        <ele>543.649</ele>
        <time>2021-08-19T07:56:18Z</time>
      </trkpt>
      <trkpt lat="41.670613" lon="1.271655">
        <ele>542.973</ele>
        <time>2021-08-19T07:56:20Z</time>
      </trkpt>
      <trkpt lat="41.670662" lon="1.271666">
        <ele>542.134</ele>
        <time>2021-08-19T07:56:22Z</time>
      </trkpt>
      <trkpt lat="41.670717" lon="1.271693">
        <ele>541.370</ele>
        <time>2021-08-19T07:56:24Z</time>
      </trkpt>
      <trkpt lat="41.670766" lon="1.271711">
        <ele>540.725</ele>
        <time>2021-08-19T07:56:26Z</time>
      </trkpt>
      <trkpt lat="41.670815" lon="1.271726">
        <ele>540.096</ele>
        <time>2021-08-19T07:56:27Z</time>
      </trkpt>
      <trkpt lat="41.670866" lon="1.271744">
        <ele>540.382</ele>
        <time>2021-08-19T07:56:29Z</time>
      </trkpt>
      <trkpt lat="41.670917" lon="1.271770">
        <ele>541.295</ele>
        <time>2021-08-19T07:56:31Z</time>
      </trkpt>
      <trkpt lat="41.670963" lon="1.271794">
        <ele>542.049</ele>
        <time>2021-08-19T07:56:33Z</time>
      </trkpt>
      <trkpt lat="41.671007" lon="1.271810">
        <ele>542.723</ele>
        <time>2021-08-19T07:56:35Z</time>
      </trkpt>
      <trkpt lat="41.671051" lon="1.271837">
        <ele>543.509</ele>
        <time>2021-08-19T07:56:37Z</time>
      </trkpt>
      <trkpt lat="41.671100" lon="1.271853">
        <ele>544.240</ele>
        <time>2021-08-19T07:56:40Z</time>
      </trkpt>
      <trkpt lat="41.671147" lon="1.271868">
        <ele>545.171</ele>
        <time>2021-08-19T07:56:44Z</time>
      </trkpt>
      <trkpt lat="41.671191" lon="1.271883">
        <ele>546.162</ele>
        <time>2021-08-19T07:56:47Z</time>
      </trkpt>
      <trkpt lat="41.671234" lon="1.271912">
        <ele>547.066</ele>
        <time>2021-08-19T07:56:50Z</time>
      </trkpt>
      <trkpt lat="41.671279" lon="1.271944">
        <ele>548.057</ele>
        <time>2021-08-19T07:56:55Z</time>
      </trkpt>
      <trkpt lat="41.671315" lon="1.271898">
        <ele>548.523</ele>
        <time>2021-08-19T07:56:58Z</time>
      </trkpt>
      <trkpt lat="41.671349" lon="1.271835">
        <ele>548.858</ele>
        <time>2021-08-19T07:57:00Z</time>
      </trkpt>
      <trkpt lat="41.671358" lon="1.271774">
        <ele>548.879</ele>
        <time>2021-08-19T07:57:05Z</time>
      </trkpt>
      <trkpt lat="41.671401" lon="1.271744">
        <ele>549.485</ele>
        <time>2021-08-19T07:57:12Z</time>
      </trkpt>
      <trkpt lat="41.671406" lon="1.271677">
        <ele>549.365</ele>
        <time>2021-08-19T07:57:14Z</time>
      </trkpt>
      <trkpt lat="41.671406" lon="1.271617">
        <ele>549.168</ele>
        <time>2021-08-19T07:57:16Z</time>
      </trkpt>
      <trkpt lat="41.671401" lon="1.271532">
        <ele>548.714</ele>
        <time>2021-08-19T07:57:18Z</time>
      </trkpt>
      <trkpt lat="41.671411" lon="1.271460">
        <ele>548.609</ele>
        <time>2021-08-19T07:57:21Z</time>
      </trkpt>
      <trkpt lat="41.671387" lon="1.271405">
        <ele>548.047</ele>
        <time>2021-08-19T07:58:07Z</time>
      </trkpt>
      <trkpt lat="41.671382" lon="1.271331">
        <ele>547.618</ele>
        <time>2021-08-19T07:58:09Z</time>
      </trkpt>
      <trkpt lat="41.671368" lon="1.271267">
        <ele>547.149</ele>
        <time>2021-08-19T07:58:11Z</time>
      </trkpt>
      <trkpt lat="41.671348" lon="1.271195">
        <ele>546.553</ele>
        <time>2021-08-19T07:58:14Z</time>
      </trkpt>
      <trkpt lat="41.671314" lon="1.271140">
        <ele>545.734</ele>
        <time>2021-08-19T07:58:16Z</time>
      </trkpt>
      <trkpt lat="41.671284" lon="1.271077">
        <ele>545.050</ele>
        <time>2021-08-19T07:58:19Z</time>
      </trkpt>
      <trkpt lat="41.671312" lon="1.271021">
        <ele>545.445</ele>
        <time>2021-08-19T07:58:28Z</time>
      </trkpt>
      <trkpt lat="41.671371" lon="1.270991">
        <ele>546.336</ele>
        <time>2021-08-19T07:58:31Z</time>
      </trkpt>
      <trkpt lat="41.671417" lon="1.270971">
        <ele>547.022</ele>
        <time>2021-08-19T07:58:33Z</time>
      </trkpt>
      <trkpt lat="41.671472" lon="1.270949">
        <ele>547.793</ele>
        <time>2021-08-19T07:58:36Z</time>
      </trkpt>
      <trkpt lat="41.671513" lon="1.270919">
        <ele>548.265</ele>
        <time>2021-08-19T07:58:38Z</time>
      </trkpt>
      <trkpt lat="41.671556" lon="1.270898">
        <ele>548.821</ele>
        <time>2021-08-19T07:58:40Z</time>
      </trkpt>
      <trkpt lat="41.671612" lon="1.270879">
        <ele>549.509</ele>
        <time>2021-08-19T07:58:44Z</time>
      </trkpt>
      <trkpt lat="41.671657" lon="1.270854">
        <ele>550.060</ele>
        <time>2021-08-19T07:58:47Z</time>
      </trkpt>
      <trkpt lat="41.671698" lon="1.270823">
        <ele>550.471</ele>
        <time>2021-08-19T07:58:50Z</time>
      </trkpt>
      <trkpt lat="41.671742" lon="1.270800">
        <ele>550.812</ele>
        <time>2021-08-19T07:58:53Z</time>
      </trkpt>
      <trkpt lat="41.671791" lon="1.270791">
        <ele>551.566</ele>
        <time>2021-08-19T07:58:57Z</time>
      </trkpt>
      <trkpt lat="41.671836" lon="1.270764">
        <ele>551.927</ele>
        <time>2021-08-19T07:59:03Z</time>
      </trkpt>
      <trkpt lat="41.671869" lon="1.270722">
        <ele>552.193</ele>
        <time>2021-08-19T07:59:06Z</time>
      </trkpt>
      <trkpt lat="41.671915" lon="1.270716">
        <ele>552.768</ele>
        <time>2021-08-19T07:59:10Z</time>
      </trkpt>
      <trkpt lat="41.671959" lon="1.270730">
        <ele>553.399</ele>
        <time>2021-08-19T07:59:15Z</time>
      </trkpt>
      <trkpt lat="41.671984" lon="1.270781">
        <ele>553.635</ele>
        <time>2021-08-19T07:59:17Z</time>
      </trkpt>
      <trkpt lat="41.672008" lon="1.270838">
        <ele>554.025</ele>
        <time>2021-08-19T07:59:20Z</time>
      </trkpt>
      <trkpt lat="41.672033" lon="1.270907">
        <ele>554.226</ele>
        <time>2021-08-19T07:59:23Z</time>
      </trkpt>
      <trkpt lat="41.672057" lon="1.270973">
        <ele>554.308</ele>
        <time>2021-08-19T07:59:26Z</time>
      </trkpt>
      <trkpt lat="41.672083" lon="1.271027">
        <ele>554.309</ele>
        <time>2021-08-19T07:59:29Z</time>
      </trkpt>
      <trkpt lat="41.672105" lon="1.271080">
        <ele>554.443</ele>
        <time>2021-08-19T07:59:33Z</time>
      </trkpt>
      <trkpt lat="41.672133" lon="1.271132">
        <ele>554.394</ele>
        <time>2021-08-19T07:59:36Z</time>
      </trkpt>
      <trkpt lat="41.672170" lon="1.271196">
        <ele>554.285</ele>
        <time>2021-08-19T07:59:39Z</time>
      </trkpt>
      <trkpt lat="41.672198" lon="1.271255">
        <ele>554.189</ele>
        <time>2021-08-19T07:59:42Z</time>
      </trkpt>
      <trkpt lat="41.672220" lon="1.271314">
        <ele>554.090</ele>
        <time>2021-08-19T07:59:44Z</time>
      </trkpt>
      <trkpt lat="41.672255" lon="1.271373">
        <ele>554.076</ele>
        <time>2021-08-19T07:59:48Z</time>
      </trkpt>
      <trkpt lat="41.672281" lon="1.271426">
        <ele>554.071</ele>
        <time>2021-08-19T07:59:52Z</time>
      </trkpt>
      <trkpt lat="41.672309" lon="1.271488">
        <ele>554.112</ele>
        <time>2021-08-19T07:59:57Z</time>
      </trkpt>
      <trkpt lat="41.672345" lon="1.271542">
        <ele>554.218</ele>
        <time>2021-08-19T08:00:01Z</time>
      </trkpt>
      <trkpt lat="41.672389" lon="1.271520">
        <ele>554.352</ele>
        <time>2021-08-19T08:00:04Z</time>
      </trkpt>
      <trkpt lat="41.672450" lon="1.271489">
        <ele>554.353</ele>
        <time>2021-08-19T08:00:07Z</time>
      </trkpt>
      <trkpt lat="41.672507" lon="1.271484">
        <ele>554.408</ele>
        <time>2021-08-19T08:00:10Z</time>
      </trkpt>
      <trkpt lat="41.672555" lon="1.271486">
        <ele>554.509</ele>
        <time>2021-08-19T08:00:14Z</time>
      </trkpt>
      <trkpt lat="41.672607" lon="1.271463">
        <ele>554.556</ele>
        <time>2021-08-19T08:00:18Z</time>
      </trkpt>
      <trkpt lat="41.672654" lon="1.271434">
        <ele>554.657</ele>
        <time>2021-08-19T08:00:21Z</time>
      </trkpt>
      <trkpt lat="41.672695" lon="1.271409">
        <ele>554.748</ele>
        <time>2021-08-19T08:00:23Z</time>
      </trkpt>
      <trkpt lat="41.672742" lon="1.271382">
        <ele>554.942</ele>
        <time>2021-08-19T08:00:25Z</time>
      </trkpt>
      <trkpt lat="41.672794" lon="1.271360">
        <ele>554.993</ele>
        <time>2021-08-19T08:00:27Z</time>
      </trkpt>
      <trkpt lat="41.672844" lon="1.271332">
        <ele>554.899</ele>
        <time>2021-08-19T08:00:29Z</time>
      </trkpt>
      <trkpt lat="41.672886" lon="1.271306">
        <ele>554.674</ele>
        <time>2021-08-19T08:00:30Z</time>
      </trkpt>
      <trkpt lat="41.672929" lon="1.271282">
        <ele>554.535</ele>
        <time>2021-08-19T08:00:32Z</time>
      </trkpt>
      <trkpt lat="41.672970" lon="1.271255">
        <ele>554.371</ele>
        <time>2021-08-19T08:00:33Z</time>
      </trkpt>
      <trkpt lat="41.673016" lon="1.271224">
        <ele>554.183</ele>
        <time>2021-08-19T08:00:35Z</time>
      </trkpt>
      <trkpt lat="41.673067" lon="1.271197">
        <ele>554.025</ele>
        <time>2021-08-19T08:00:37Z</time>
      </trkpt>
      <trkpt lat="41.673110" lon="1.271177">
        <ele>554.017</ele>
        <time>2021-08-19T08:00:39Z</time>
      </trkpt>
      <trkpt lat="41.673157" lon="1.271171">
        <ele>554.009</ele>
        <time>2021-08-19T08:00:42Z</time>
      </trkpt>
      <trkpt lat="41.673211" lon="1.271179">
        <ele>554.079</ele>
        <time>2021-08-19T08:00:44Z</time>
      </trkpt>
      <trkpt lat="41.673256" lon="1.271214">
        <ele>554.040</ele>
        <time>2021-08-19T08:00:47Z</time>
      </trkpt>
      <trkpt lat="41.673293" lon="1.271253">
        <ele>554.041</ele>
        <time>2021-08-19T08:00:49Z</time>
      </trkpt>
      <trkpt lat="41.673342" lon="1.271270">
        <ele>554.045</ele>
        <time>2021-08-19T08:00:50Z</time>
      </trkpt>
      <trkpt lat="41.673405" lon="1.271251">
        <ele>554.466</ele>
        <time>2021-08-19T08:00:52Z</time>
      </trkpt>
      <trkpt lat="41.673441" lon="1.271208">
        <ele>554.522</ele>
        <time>2021-08-19T08:00:54Z</time>
      </trkpt>
      <trkpt lat="41.673463" lon="1.271155">
        <ele>554.537</ele>
        <time>2021-08-19T08:00:55Z</time>
      </trkpt>
      <trkpt lat="41.673453" lon="1.271084">
        <ele>554.498</ele>
        <time>2021-08-19T08:00:57Z</time>
      </trkpt>
      <trkpt lat="41.673408" lon="1.271021">
        <ele>554.014</ele>
        <time>2021-08-19T08:00:59Z</time>
      </trkpt>
      <trkpt lat="41.673348" lon="1.270989">
        <ele>553.674</ele>
        <time>2021-08-19T08:01:01Z</time>
      </trkpt>
      <trkpt lat="41.673301" lon="1.270962">
        <ele>553.556</ele>
        <time>2021-08-19T08:01:03Z</time>
      </trkpt>
      <trkpt lat="41.673283" lon="1.270900">
        <ele>553.421</ele>
        <time>2021-08-19T08:01:05Z</time>
      </trkpt>
      <trkpt lat="41.673279" lon="1.270816">
        <ele>553.209</ele>
        <time>2021-08-19T08:01:07Z</time>
      </trkpt>
      <trkpt lat="41.673269" lon="1.270757">
        <ele>553.238</ele>
        <time>2021-08-19T08:01:08Z</time>
      </trkpt>
      <trkpt lat="41.673252" lon="1.270690">
        <ele>553.139</ele>
        <time>2021-08-19T08:01:10Z</time>
      </trkpt>
      <trkpt lat="41.673229" lon="1.270628">
        <ele>553.140</ele>
        <time>2021-08-19T08:01:12Z</time>
      </trkpt>
      <trkpt lat="41.673204" lon="1.270548">
        <ele>553.084</ele>
        <time>2021-08-19T08:01:14Z</time>
      </trkpt>
      <trkpt lat="41.673190" lon="1.270486">
        <ele>552.945</ele>
        <time>2021-08-19T08:01:16Z</time>
      </trkpt>
      <trkpt lat="41.673172" lon="1.270429">
        <ele>552.871</ele>
        <time>2021-08-19T08:01:18Z</time>
      </trkpt>
      <trkpt lat="41.673150" lon="1.270359">
        <ele>552.876</ele>
        <time>2021-08-19T08:01:20Z</time>
      </trkpt>
      <trkpt lat="41.673131" lon="1.270301">
        <ele>552.827</ele>
        <time>2021-08-19T08:01:43Z</time>
      </trkpt>
      <trkpt lat="41.673102" lon="1.270246">
        <ele>552.723</ele>
        <time>2021-08-19T08:01:47Z</time>
      </trkpt>
      <trkpt lat="41.673106" lon="1.270178">
        <ele>552.572</ele>
        <time>2021-08-19T08:01:59Z</time>
      </trkpt>
      <trkpt lat="41.673159" lon="1.270139">
        <ele>552.313</ele>
        <time>2021-08-19T08:02:01Z</time>
      </trkpt>
      <trkpt lat="41.673215" lon="1.270104">
        <ele>552.214</ele>
        <time>2021-08-19T08:02:03Z</time>
      </trkpt>
      <trkpt lat="41.673267" lon="1.270067">
        <ele>552.109</ele>
        <time>2021-08-19T08:02:04Z</time>
      </trkpt>
      <trkpt lat="41.673311" lon="1.270042">
        <ele>552.048</ele>
        <time>2021-08-19T08:02:06Z</time>
      </trkpt>
      <trkpt lat="41.673374" lon="1.269994">
        <ele>551.839</ele>
        <time>2021-08-19T08:02:08Z</time>
      </trkpt>
      <trkpt lat="41.673422" lon="1.269966">
        <ele>551.630</ele>
        <time>2021-08-19T08:02:09Z</time>
      </trkpt>
      <trkpt lat="41.673482" lon="1.269935">
        <ele>551.474</ele>
        <time>2021-08-19T08:02:11Z</time>
      </trkpt>
      <trkpt lat="41.673541" lon="1.269907">
        <ele>551.255</ele>
        <time>2021-08-19T08:02:12Z</time>
      </trkpt>
      <trkpt lat="41.673590" lon="1.269884">
        <ele>551.021</ele>
        <time>2021-08-19T08:02:13Z</time>
      </trkpt>
      <trkpt lat="41.673687" lon="1.269833">
        <ele>550.846</ele>
        <time>2021-08-19T08:02:15Z</time>
      </trkpt>
      <trkpt lat="41.673776" lon="1.269779">
        <ele>550.557</ele>
        <time>2021-08-19T08:02:17Z</time>
      </trkpt>
      <trkpt lat="41.673852" lon="1.269731">
        <ele>550.253</ele>
        <time>2021-08-19T08:02:19Z</time>
      </trkpt>
      <trkpt lat="41.673914" lon="1.269693">
        <ele>549.686</ele>
        <time>2021-08-19T08:02:21Z</time>
      </trkpt>
      <trkpt lat="41.673961" lon="1.269661">
        <ele>549.160</ele>
        <time>2021-08-19T08:02:23Z</time>
      </trkpt>
      <trkpt lat="41.674012" lon="1.269609">
        <ele>548.426</ele>
        <time>2021-08-19T08:02:25Z</time>
      </trkpt>
      <trkpt lat="41.674055" lon="1.269592">
        <ele>548.009</ele>
        <time>2021-08-19T08:02:27Z</time>
      </trkpt>
      <trkpt lat="41.674114" lon="1.269588">
        <ele>547.589</ele>
        <time>2021-08-19T08:02:28Z</time>
      </trkpt>
      <trkpt lat="41.674171" lon="1.269562">
        <ele>547.070</ele>
        <time>2021-08-19T08:02:30Z</time>
      </trkpt>
      <trkpt lat="41.674224" lon="1.269539">
        <ele>546.731</ele>
        <time>2021-08-19T08:02:31Z</time>
      </trkpt>
      <trkpt lat="41.674274" lon="1.269511">
        <ele>546.355</ele>
        <time>2021-08-19T08:02:33Z</time>
      </trkpt>
      <trkpt lat="41.674323" lon="1.269490">
        <ele>546.096</ele>
        <time>2021-08-19T08:02:34Z</time>
      </trkpt>
      <trkpt lat="41.674365" lon="1.269467">
        <ele>545.612</ele>
        <time>2021-08-19T08:02:35Z</time>
      </trkpt>
      <trkpt lat="41.674440" lon="1.269427">
        <ele>545.037</ele>
        <time>2021-08-19T08:02:37Z</time>
      </trkpt>
      <trkpt lat="41.674501" lon="1.269393">
        <ele>544.928</ele>
        <time>2021-08-19T08:02:39Z</time>
      </trkpt>
      <trkpt lat="41.674544" lon="1.269369">
        <ele>544.814</ele>
        <time>2021-08-19T08:02:40Z</time>
      </trkpt>
      <trkpt lat="41.674609" lon="1.269341">
        <ele>544.859</ele>
        <time>2021-08-19T08:02:42Z</time>
      </trkpt>
      <trkpt lat="41.674662" lon="1.269326">
        <ele>544.903</ele>
        <time>2021-08-19T08:02:44Z</time>
      </trkpt>
      <trkpt lat="41.674717" lon="1.269317">
        <ele>545.023</ele>
        <time>2021-08-19T08:02:46Z</time>
      </trkpt>
      <trkpt lat="41.674765" lon="1.269300">
        <ele>545.109</ele>
        <time>2021-08-19T08:02:49Z</time>
      </trkpt>
      <trkpt lat="41.674819" lon="1.269271">
        <ele>545.136</ele>
        <time>2021-08-19T08:02:53Z</time>
      </trkpt>
      <trkpt lat="41.674873" lon="1.269285">
        <ele>545.257</ele>
        <time>2021-08-19T08:02:57Z</time>
      </trkpt>
      <trkpt lat="41.674916" lon="1.269254">
        <ele>545.288</ele>
        <time>2021-08-19T08:02:59Z</time>
      </trkpt>
      <trkpt lat="41.674948" lon="1.269208">
        <ele>545.132</ele>
        <time>2021-08-19T08:03:01Z</time>
      </trkpt>
      <trkpt lat="41.674958" lon="1.269120">
        <ele>544.833</ele>
        <time>2021-08-19T08:03:04Z</time>
      </trkpt>
      <trkpt lat="41.674961" lon="1.269059">
        <ele>544.629</ele>
        <time>2021-08-19T08:03:06Z</time>
      </trkpt>
      <trkpt lat="41.674961" lon="1.268990">
        <ele>544.444</ele>
        <time>2021-08-19T08:03:08Z</time>
      </trkpt>
      <trkpt lat="41.674955" lon="1.268906">
        <ele>544.135</ele>
        <time>2021-08-19T08:03:10Z</time>
      </trkpt>
      <trkpt lat="41.674948" lon="1.268823">
        <ele>544.031</ele>
        <time>2021-08-19T08:03:12Z</time>
      </trkpt>
      <trkpt lat="41.674943" lon="1.268749">
        <ele>544.064</ele>
        <time>2021-08-19T08:03:14Z</time>
      </trkpt>
      <trkpt lat="41.674938" lon="1.268657">
        <ele>544.006</ele>
        <time>2021-08-19T08:03:16Z</time>
      </trkpt>
      <trkpt lat="41.674938" lon="1.268586">
        <ele>544.016</ele>
        <time>2021-08-19T08:03:17Z</time>
      </trkpt>
      <trkpt lat="41.674940" lon="1.268502">
        <ele>544.109</ele>
        <time>2021-08-19T08:03:19Z</time>
      </trkpt>
      <trkpt lat="41.674939" lon="1.268427">
        <ele>544.187</ele>
        <time>2021-08-19T08:03:21Z</time>
      </trkpt>
      <trkpt lat="41.674944" lon="1.268351">
        <ele>544.288</ele>
        <time>2021-08-19T08:03:23Z</time>
      </trkpt>
      <trkpt lat="41.674948" lon="1.268290">
        <ele>544.359</ele>
        <time>2021-08-19T08:03:24Z</time>
      </trkpt>
      <trkpt lat="41.674951" lon="1.268204">
        <ele>544.623</ele>
        <time>2021-08-19T08:03:26Z</time>
      </trkpt>
      <trkpt lat="41.674950" lon="1.268130">
        <ele>544.894</ele>
        <time>2021-08-19T08:03:27Z</time>
      </trkpt>
      <trkpt lat="41.674949" lon="1.268032">
        <ele>545.020</ele>
        <time>2021-08-19T08:03:29Z</time>
      </trkpt>
      <trkpt lat="41.674947" lon="1.267936">
        <ele>545.055</ele>
        <time>2021-08-19T08:03:31Z</time>
      </trkpt>
      <trkpt lat="41.674942" lon="1.267846">
        <ele>545.086</ele>
        <time>2021-08-19T08:03:32Z</time>
      </trkpt>
      <trkpt lat="41.674940" lon="1.267784">
        <ele>545.042</ele>
        <time>2021-08-19T08:03:34Z</time>
      </trkpt>
      <trkpt lat="41.674942" lon="1.267707">
        <ele>545.318</ele>
        <time>2021-08-19T08:03:35Z</time>
      </trkpt>
      <trkpt lat="41.674938" lon="1.267629">
        <ele>545.598</ele>
        <time>2021-08-19T08:03:37Z</time>
      </trkpt>
      <trkpt lat="41.674936" lon="1.267568">
        <ele>545.817</ele>
        <time>2021-08-19T08:03:38Z</time>
      </trkpt>
      <trkpt lat="41.674934" lon="1.267471">
        <ele>546.009</ele>
        <time>2021-08-19T08:03:40Z</time>
      </trkpt>
      <trkpt lat="41.674931" lon="1.267387">
        <ele>546.032</ele>
        <time>2021-08-19T08:03:42Z</time>
      </trkpt>
      <trkpt lat="41.674931" lon="1.267314">
        <ele>546.083</ele>
        <time>2021-08-19T08:03:43Z</time>
      </trkpt>
      <trkpt lat="41.674929" lon="1.267236">
        <ele>546.074</ele>
        <time>2021-08-19T08:03:45Z</time>
      </trkpt>
      <trkpt lat="41.674927" lon="1.267174">
        <ele>545.928</ele>
        <time>2021-08-19T08:03:46Z</time>
      </trkpt>
      <trkpt lat="41.674926" lon="1.267094">
        <ele>545.749</ele>
        <time>2021-08-19T08:03:48Z</time>
      </trkpt>
      <trkpt lat="41.674929" lon="1.267023">
        <ele>545.595</ele>
        <time>2021-08-19T08:03:49Z</time>
      </trkpt>
      <trkpt lat="41.674927" lon="1.266934">
        <ele>545.290</ele>
        <time>2021-08-19T08:03:51Z</time>
      </trkpt>
      <trkpt lat="41.674928" lon="1.266870">
        <ele>545.091</ele>
        <time>2021-08-19T08:03:52Z</time>
      </trkpt>
      <trkpt lat="41.674932" lon="1.266794">
        <ele>544.717</ele>
        <time>2021-08-19T08:03:54Z</time>
      </trkpt>
      <trkpt lat="41.674930" lon="1.266709">
        <ele>544.435</ele>
        <time>2021-08-19T08:03:55Z</time>
      </trkpt>
      <trkpt lat="41.674926" lon="1.266626">
        <ele>544.186</ele>
        <time>2021-08-19T08:03:57Z</time>
      </trkpt>
      <trkpt lat="41.674927" lon="1.266561">
        <ele>543.914</ele>
        <time>2021-08-19T08:03:58Z</time>
      </trkpt>
      <trkpt lat="41.674929" lon="1.266481">
        <ele>543.609</ele>
        <time>2021-08-19T08:04:00Z</time>
      </trkpt>
      <trkpt lat="41.674927" lon="1.266418">
        <ele>543.464</ele>
        <time>2021-08-19T08:04:01Z</time>
      </trkpt>
      <trkpt lat="41.674926" lon="1.266339">
        <ele>543.095</ele>
        <time>2021-08-19T08:04:03Z</time>
      </trkpt>
      <trkpt lat="41.674926" lon="1.266276">
        <ele>542.846</ele>
        <time>2021-08-19T08:04:05Z</time>
      </trkpt>
      <trkpt lat="41.674922" lon="1.266211">
        <ele>542.550</ele>
        <time>2021-08-19T08:04:06Z</time>
      </trkpt>
      <trkpt lat="41.674916" lon="1.266146">
        <ele>542.221</ele>
        <time>2021-08-19T08:04:08Z</time>
      </trkpt>
      <trkpt lat="41.674916" lon="1.266072">
        <ele>541.967</ele>
        <time>2021-08-19T08:04:09Z</time>
      </trkpt>
      <trkpt lat="41.674915" lon="1.266006">
        <ele>541.712</ele>
        <time>2021-08-19T08:04:11Z</time>
      </trkpt>
      <trkpt lat="41.674914" lon="1.265945">
        <ele>541.613</ele>
        <time>2021-08-19T08:04:12Z</time>
      </trkpt>
      <trkpt lat="41.674913" lon="1.265866">
        <ele>541.419</ele>
        <time>2021-08-19T08:04:14Z</time>
      </trkpt>
      <trkpt lat="41.674904" lon="1.265767">
        <ele>541.584</ele>
        <time>2021-08-19T08:04:16Z</time>
      </trkpt>
      <trkpt lat="41.674897" lon="1.265680">
        <ele>541.707</ele>
        <time>2021-08-19T08:04:18Z</time>
      </trkpt>
      <trkpt lat="41.674895" lon="1.265610">
        <ele>541.917</ele>
        <time>2021-08-19T08:04:20Z</time>
      </trkpt>
      <trkpt lat="41.674893" lon="1.265522">
        <ele>542.209</ele>
        <time>2021-08-19T08:04:22Z</time>
      </trkpt>
      <trkpt lat="41.674891" lon="1.265448">
        <ele>542.519</ele>
        <time>2021-08-19T08:04:23Z</time>
      </trkpt>
      <trkpt lat="41.674884" lon="1.265370">
        <ele>542.970</ele>
        <time>2021-08-19T08:04:25Z</time>
      </trkpt>
      <trkpt lat="41.674877" lon="1.265298">
        <ele>543.331</ele>
        <time>2021-08-19T08:04:26Z</time>
      </trkpt>
      <trkpt lat="41.674871" lon="1.265220">
        <ele>543.765</ele>
        <time>2021-08-19T08:04:28Z</time>
      </trkpt>
      <trkpt lat="41.674872" lon="1.265139">
        <ele>544.056</ele>
        <time>2021-08-19T08:04:30Z</time>
      </trkpt>
      <trkpt lat="41.674873" lon="1.265054">
        <ele>544.392</ele>
        <time>2021-08-19T08:04:32Z</time>
      </trkpt>
      <trkpt lat="41.674872" lon="1.264971">
        <ele>544.497</ele>
        <time>2021-08-19T08:04:34Z</time>
      </trkpt>
      <trkpt lat="41.674871" lon="1.264910">
        <ele>544.148</ele>
        <time>2021-08-19T08:04:35Z</time>
      </trkpt>
      <trkpt lat="41.674870" lon="1.264845">
        <ele>543.954</ele>
        <time>2021-08-19T08:04:37Z</time>
      </trkpt>
      <trkpt lat="41.674866" lon="1.264777">
        <ele>543.715</ele>
        <time>2021-08-19T08:04:38Z</time>
      </trkpt>
      <trkpt lat="41.674854" lon="1.264705">
        <ele>543.565</ele>
        <time>2021-08-19T08:04:40Z</time>
      </trkpt>
      <trkpt lat="41.674841" lon="1.264609">
        <ele>543.211</ele>
        <time>2021-08-19T08:04:42Z</time>
      </trkpt>
      <trkpt lat="41.674833" lon="1.264533">
        <ele>542.909</ele>
        <time>2021-08-19T08:04:44Z</time>
      </trkpt>
      <trkpt lat="41.674819" lon="1.264463">
        <ele>542.722</ele>
        <time>2021-08-19T08:04:46Z</time>
      </trkpt>
      <trkpt lat="41.674814" lon="1.264397">
        <ele>542.693</ele>
        <time>2021-08-19T08:04:47Z</time>
      </trkpt>
      <trkpt lat="41.674813" lon="1.264321">
        <ele>542.554</ele>
        <time>2021-08-19T08:04:49Z</time>
      </trkpt>
      <trkpt lat="41.674802" lon="1.264261">
        <ele>542.528</ele>
        <time>2021-08-19T08:04:50Z</time>
      </trkpt>
      <trkpt lat="41.674787" lon="1.264183">
        <ele>542.579</ele>
        <time>2021-08-19T08:04:52Z</time>
      </trkpt>
      <trkpt lat="41.674772" lon="1.264090">
        <ele>542.735</ele>
        <time>2021-08-19T08:04:54Z</time>
      </trkpt>
      <trkpt lat="41.674755" lon="1.264018">
        <ele>542.890</ele>
        <time>2021-08-19T08:04:56Z</time>
      </trkpt>
      <trkpt lat="41.674742" lon="1.263947">
        <ele>542.961</ele>
        <time>2021-08-19T08:04:57Z</time>
      </trkpt>
      <trkpt lat="41.674729" lon="1.263869">
        <ele>543.017</ele>
        <time>2021-08-19T08:04:59Z</time>
      </trkpt>
      <trkpt lat="41.674721" lon="1.263797">
        <ele>543.055</ele>
        <time>2021-08-19T08:05:00Z</time>
      </trkpt>
      <trkpt lat="41.674707" lon="1.263700">
        <ele>543.107</ele>
        <time>2021-08-19T08:05:02Z</time>
      </trkpt>
      <trkpt lat="41.674695" lon="1.263641">
        <ele>543.117</ele>
        <time>2021-08-19T08:05:03Z</time>
      </trkpt>
      <trkpt lat="41.674680" lon="1.263571">
        <ele>543.309</ele>
        <time>2021-08-19T08:05:05Z</time>
      </trkpt>
      <trkpt lat="41.674666" lon="1.263506">
        <ele>543.436</ele>
        <time>2021-08-19T08:05:06Z</time>
      </trkpt>
      <trkpt lat="41.674657" lon="1.263426">
        <ele>543.697</ele>
        <time>2021-08-19T08:05:07Z</time>
      </trkpt>
      <trkpt lat="41.674649" lon="1.263341">
        <ele>543.768</ele>
        <time>2021-08-19T08:05:09Z</time>
      </trkpt>
      <trkpt lat="41.674640" lon="1.263271">
        <ele>543.842</ele>
        <time>2021-08-19T08:05:11Z</time>
      </trkpt>
      <trkpt lat="41.674632" lon="1.263210">
        <ele>543.883</ele>
        <time>2021-08-19T08:05:12Z</time>
      </trkpt>
      <trkpt lat="41.674620" lon="1.263116">
        <ele>543.919</ele>
        <time>2021-08-19T08:05:14Z</time>
      </trkpt>
      <trkpt lat="41.674603" lon="1.263022">
        <ele>544.194</ele>
        <time>2021-08-19T08:05:16Z</time>
      </trkpt>
      <trkpt lat="41.674590" lon="1.262932">
        <ele>544.275</ele>
        <time>2021-08-19T08:05:18Z</time>
      </trkpt>
      <trkpt lat="41.674575" lon="1.262853">
        <ele>544.411</ele>
        <time>2021-08-19T08:05:20Z</time>
      </trkpt>
      <trkpt lat="41.674560" lon="1.262771">
        <ele>544.688</ele>
        <time>2021-08-19T08:05:21Z</time>
      </trkpt>
      <trkpt lat="41.674552" lon="1.262707">
        <ele>545.024</ele>
        <time>2021-08-19T08:05:22Z</time>
      </trkpt>
      <trkpt lat="41.674546" lon="1.262630">
        <ele>545.426</ele>
        <time>2021-08-19T08:05:23Z</time>
      </trkpt>
      <trkpt lat="41.674537" lon="1.262516">
        <ele>545.909</ele>
        <time>2021-08-19T08:05:25Z</time>
      </trkpt>
      <trkpt lat="41.674529" lon="1.262451">
        <ele>546.029</ele>
        <time>2021-08-19T08:05:26Z</time>
      </trkpt>
      <trkpt lat="41.674521" lon="1.262385">
        <ele>546.020</ele>
        <time>2021-08-19T08:05:27Z</time>
      </trkpt>
      <trkpt lat="41.674514" lon="1.262317">
        <ele>546.091</ele>
        <time>2021-08-19T08:05:28Z</time>
      </trkpt>
      <trkpt lat="41.674495" lon="1.262180">
        <ele>545.885</ele>
        <time>2021-08-19T08:05:30Z</time>
      </trkpt>
      <trkpt lat="41.674475" lon="1.262038">
        <ele>545.336</ele>
        <time>2021-08-19T08:05:32Z</time>
      </trkpt>
      <trkpt lat="41.674455" lon="1.261908">
        <ele>544.752</ele>
        <time>2021-08-19T08:05:34Z</time>
      </trkpt>
      <trkpt lat="41.674437" lon="1.261845">
        <ele>544.277</ele>
        <time>2021-08-19T08:05:36Z</time>
      </trkpt>
      <trkpt lat="41.674417" lon="1.261768">
        <ele>543.568</ele>
        <time>2021-08-19T08:05:37Z</time>
      </trkpt>
      <trkpt lat="41.674409" lon="1.261669">
        <ele>542.894</ele>
        <time>2021-08-19T08:05:39Z</time>
      </trkpt>
      <trkpt lat="41.674400" lon="1.261579">
        <ele>542.122</ele>
        <time>2021-08-19T08:05:41Z</time>
      </trkpt>
      <trkpt lat="41.674393" lon="1.261516">
        <ele>541.662</ele>
        <time>2021-08-19T08:05:42Z</time>
      </trkpt>
      <trkpt lat="41.674380" lon="1.261427">
        <ele>541.008</ele>
        <time>2021-08-19T08:05:44Z</time>
      </trkpt>
      <trkpt lat="41.674369" lon="1.261362">
        <ele>540.609</ele>
        <time>2021-08-19T08:05:45Z</time>
      </trkpt>
      <trkpt lat="41.674354" lon="1.261258">
        <ele>539.943</ele>
        <time>2021-08-19T08:05:47Z</time>
      </trkpt>
      <trkpt lat="41.674345" lon="1.261193">
        <ele>539.594</ele>
        <time>2021-08-19T08:05:48Z</time>
      </trkpt>
      <trkpt lat="41.674334" lon="1.261101">
        <ele>539.055</ele>
        <time>2021-08-19T08:05:50Z</time>
      </trkpt>
      <trkpt lat="41.674323" lon="1.261024">
        <ele>539.029</ele>
        <time>2021-08-19T08:05:51Z</time>
      </trkpt>
      <trkpt lat="41.674315" lon="1.260943">
        <ele>539.020</ele>
        <time>2021-08-19T08:05:53Z</time>
      </trkpt>
      <trkpt lat="41.674314" lon="1.260868">
        <ele>539.056</ele>
        <time>2021-08-19T08:05:54Z</time>
      </trkpt>
      <trkpt lat="41.674321" lon="1.260760">
        <ele>538.921</ele>
        <time>2021-08-19T08:05:56Z</time>
      </trkpt>
      <trkpt lat="41.674329" lon="1.260682">
        <ele>538.872</ele>
        <time>2021-08-19T08:05:57Z</time>
      </trkpt>
      <trkpt lat="41.674335" lon="1.260590">
        <ele>538.738</ele>
        <time>2021-08-19T08:05:59Z</time>
      </trkpt>
      <trkpt lat="41.674341" lon="1.260525">
        <ele>538.628</ele>
        <time>2021-08-19T08:06:00Z</time>
      </trkpt>
      <trkpt lat="41.674352" lon="1.260459">
        <ele>538.689</ele>
        <time>2021-08-19T08:06:01Z</time>
      </trkpt>
      <trkpt lat="41.674365" lon="1.260374">
        <ele>538.417</ele>
        <time>2021-08-19T08:06:03Z</time>
      </trkpt>
      <trkpt lat="41.674376" lon="1.260289">
        <ele>538.309</ele>
        <time>2021-08-19T08:06:04Z</time>
      </trkpt>
      <trkpt lat="41.674376" lon="1.260227">
        <ele>537.973</ele>
        <time>2021-08-19T08:06:05Z</time>
      </trkpt>
      <trkpt lat="41.674369" lon="1.260161">
        <ele>537.584</ele>
        <time>2021-08-19T08:06:07Z</time>
      </trkpt>
      <trkpt lat="41.674365" lon="1.260094">
        <ele>537.295</ele>
        <time>2021-08-19T08:06:08Z</time>
      </trkpt>
      <trkpt lat="41.674361" lon="1.260034">
        <ele>536.819</ele>
        <time>2021-08-19T08:06:09Z</time>
      </trkpt>
      <trkpt lat="41.674353" lon="1.259963">
        <ele>536.410</ele>
        <time>2021-08-19T08:06:10Z</time>
      </trkpt>
      <trkpt lat="41.674348" lon="1.259878">
        <ele>536.046</ele>
        <time>2021-08-19T08:06:12Z</time>
      </trkpt>
      <trkpt lat="41.674339" lon="1.259811">
        <ele>535.751</ele>
        <time>2021-08-19T08:06:13Z</time>
      </trkpt>
      <trkpt lat="41.674327" lon="1.259738">
        <ele>535.452</ele>
        <time>2021-08-19T08:06:14Z</time>
      </trkpt>
      <trkpt lat="41.674318" lon="1.259658">
        <ele>535.148</ele>
        <time>2021-08-19T08:06:16Z</time>
      </trkpt>
      <trkpt lat="41.674308" lon="1.259573">
        <ele>534.922</ele>
        <time>2021-08-19T08:06:17Z</time>
      </trkpt>
      <trkpt lat="41.674293" lon="1.259469">
        <ele>534.762</ele>
        <time>2021-08-19T08:06:19Z</time>
      </trkpt>
      <trkpt lat="41.674284" lon="1.259383">
        <ele>534.608</ele>
        <time>2021-08-19T08:06:20Z</time>
      </trkpt>
      <trkpt lat="41.674273" lon="1.259320">
        <ele>534.509</ele>
        <time>2021-08-19T08:06:21Z</time>
      </trkpt>
      <trkpt lat="41.674252" lon="1.259196">
        <ele>534.173</ele>
        <time>2021-08-19T08:06:23Z</time>
      </trkpt>
      <trkpt lat="41.674243" lon="1.259135">
        <ele>534.024</ele>
        <time>2021-08-19T08:06:24Z</time>
      </trkpt>
      <trkpt lat="41.674232" lon="1.259074">
        <ele>533.935</ele>
        <time>2021-08-19T08:06:25Z</time>
      </trkpt>
      <trkpt lat="41.674214" lon="1.258954">
        <ele>533.959</ele>
        <time>2021-08-19T08:06:27Z</time>
      </trkpt>
      <trkpt lat="41.674204" lon="1.258894">
        <ele>533.920</ele>
        <time>2021-08-19T08:06:28Z</time>
      </trkpt>
      <trkpt lat="41.674195" lon="1.258833">
        <ele>533.526</ele>
        <time>2021-08-19T08:06:29Z</time>
      </trkpt>
      <trkpt lat="41.674179" lon="1.258712">
        <ele>532.781</ele>
        <time>2021-08-19T08:06:31Z</time>
      </trkpt>
      <trkpt lat="41.674165" lon="1.258585">
        <ele>531.822</ele>
        <time>2021-08-19T08:06:33Z</time>
      </trkpt>
      <trkpt lat="41.674148" lon="1.258462">
        <ele>531.048</ele>
        <time>2021-08-19T08:06:35Z</time>
      </trkpt>
      <trkpt lat="41.674139" lon="1.258399">
        <ele>530.668</ele>
        <time>2021-08-19T08:06:36Z</time>
      </trkpt>
      <trkpt lat="41.674121" lon="1.258275">
        <ele>530.142</ele>
        <time>2021-08-19T08:06:38Z</time>
      </trkpt>
      <trkpt lat="41.674111" lon="1.258213">
        <ele>530.026</ele>
        <time>2021-08-19T08:06:39Z</time>
      </trkpt>
      <trkpt lat="41.674091" lon="1.258092">
        <ele>529.809</ele>
        <time>2021-08-19T08:06:41Z</time>
      </trkpt>
      <trkpt lat="41.674073" lon="1.257975">
        <ele>530.057</ele>
        <time>2021-08-19T08:06:43Z</time>
      </trkpt>
      <trkpt lat="41.674057" lon="1.257865">
        <ele>530.338</ele>
        <time>2021-08-19T08:06:45Z</time>
      </trkpt>
      <trkpt lat="41.674042" lon="1.257754">
        <ele>530.789</ele>
        <time>2021-08-19T08:06:47Z</time>
      </trkpt>
      <trkpt lat="41.674029" lon="1.257652">
        <ele>531.473</ele>
        <time>2021-08-19T08:06:49Z</time>
      </trkpt>
      <trkpt lat="41.674018" lon="1.257553">
        <ele>532.124</ele>
        <time>2021-08-19T08:06:51Z</time>
      </trkpt>
      <trkpt lat="41.674000" lon="1.257491">
        <ele>532.430</ele>
        <time>2021-08-19T08:06:52Z</time>
      </trkpt>
      <trkpt lat="41.673972" lon="1.257395">
        <ele>532.725</ele>
        <time>2021-08-19T08:06:54Z</time>
      </trkpt>
      <trkpt lat="41.673959" lon="1.257310">
        <ele>532.926</ele>
        <time>2021-08-19T08:06:56Z</time>
      </trkpt>
      <trkpt lat="41.673947" lon="1.257248">
        <ele>533.122</ele>
        <time>2021-08-19T08:06:57Z</time>
      </trkpt>
      <trkpt lat="41.673938" lon="1.257188">
        <ele>533.314</ele>
        <time>2021-08-19T08:06:58Z</time>
      </trkpt>
      <trkpt lat="41.673926" lon="1.257092">
        <ele>533.554</ele>
        <time>2021-08-19T08:07:00Z</time>
      </trkpt>
      <trkpt lat="41.673924" lon="1.256982">
        <ele>533.909</ele>
        <time>2021-08-19T08:07:02Z</time>
      </trkpt>
      <trkpt lat="41.673921" lon="1.256855">
        <ele>534.009</ele>
        <time>2021-08-19T08:07:04Z</time>
      </trkpt>
      <trkpt lat="41.673915" lon="1.256754">
        <ele>534.042</ele>
        <time>2021-08-19T08:07:06Z</time>
      </trkpt>
      <trkpt lat="41.673911" lon="1.256684">
        <ele>534.063</ele>
        <time>2021-08-19T08:07:07Z</time>
      </trkpt>
      <trkpt lat="41.673896" lon="1.256549">
        <ele>534.024</ele>
        <time>2021-08-19T08:07:09Z</time>
      </trkpt>
      <trkpt lat="41.673879" lon="1.256437">
        <ele>534.018</ele>
        <time>2021-08-19T08:07:11Z</time>
      </trkpt>
      <trkpt lat="41.673865" lon="1.256322">
        <ele>533.939</ele>
        <time>2021-08-19T08:07:13Z</time>
      </trkpt>
      <trkpt lat="41.673851" lon="1.256219">
        <ele>533.975</ele>
        <time>2021-08-19T08:07:15Z</time>
      </trkpt>
      <trkpt lat="41.673841" lon="1.256157">
        <ele>533.840</ele>
        <time>2021-08-19T08:07:16Z</time>
      </trkpt>
      <trkpt lat="41.673825" lon="1.256040">
        <ele>533.791</ele>
        <time>2021-08-19T08:07:18Z</time>
      </trkpt>
      <trkpt lat="41.673815" lon="1.255972">
        <ele>533.687</ele>
        <time>2021-08-19T08:07:19Z</time>
      </trkpt>
      <trkpt lat="41.673798" lon="1.255862">
        <ele>533.449</ele>
        <time>2021-08-19T08:07:21Z</time>
      </trkpt>
      <trkpt lat="41.673787" lon="1.255798">
        <ele>533.102</ele>
        <time>2021-08-19T08:07:22Z</time>
      </trkpt>
      <trkpt lat="41.673770" lon="1.255692">
        <ele>532.322</ele>
        <time>2021-08-19T08:07:24Z</time>
      </trkpt>
      <trkpt lat="41.673754" lon="1.255567">
        <ele>531.609</ele>
        <time>2021-08-19T08:07:26Z</time>
      </trkpt>
      <trkpt lat="41.673737" lon="1.255431">
        <ele>530.885</ele>
        <time>2021-08-19T08:07:28Z</time>
      </trkpt>
      <trkpt lat="41.673724" lon="1.255315">
        <ele>530.226</ele>
        <time>2021-08-19T08:07:30Z</time>
      </trkpt>
      <trkpt lat="41.673715" lon="1.255249">
        <ele>529.927</ele>
        <time>2021-08-19T08:07:31Z</time>
      </trkpt>
      <trkpt lat="41.673700" lon="1.255126">
        <ele>529.321</ele>
        <time>2021-08-19T08:07:33Z</time>
      </trkpt>
      <trkpt lat="41.673691" lon="1.255061">
        <ele>529.092</ele>
        <time>2021-08-19T08:07:34Z</time>
      </trkpt>
      <trkpt lat="41.673681" lon="1.254999">
        <ele>528.758</ele>
        <time>2021-08-19T08:07:35Z</time>
      </trkpt>
      <trkpt lat="41.673667" lon="1.254941">
        <ele>528.673</ele>
        <time>2021-08-19T08:07:36Z</time>
      </trkpt>
      <trkpt lat="41.673644" lon="1.254819">
        <ele>528.274</ele>
        <time>2021-08-19T08:07:38Z</time>
      </trkpt>
      <trkpt lat="41.673616" lon="1.254703">
        <ele>527.930</ele>
        <time>2021-08-19T08:07:40Z</time>
      </trkpt>
      <trkpt lat="41.673606" lon="1.254642">
        <ele>527.757</ele>
        <time>2021-08-19T08:07:41Z</time>
      </trkpt>
      <trkpt lat="41.673581" lon="1.254522">
        <ele>527.300</ele>
        <time>2021-08-19T08:07:43Z</time>
      </trkpt>
      <trkpt lat="41.673568" lon="1.254461">
        <ele>527.120</ele>
        <time>2021-08-19T08:07:44Z</time>
      </trkpt>
      <trkpt lat="41.673546" lon="1.254336">
        <ele>526.909</ele>
        <time>2021-08-19T08:07:46Z</time>
      </trkpt>
      <trkpt lat="41.673535" lon="1.254275">
        <ele>526.846</ele>
        <time>2021-08-19T08:07:47Z</time>
      </trkpt>
      <trkpt lat="41.673513" lon="1.254150">
        <ele>526.627</ele>
        <time>2021-08-19T08:07:49Z</time>
      </trkpt>
      <trkpt lat="41.673500" lon="1.254087">
        <ele>526.368</ele>
        <time>2021-08-19T08:07:50Z</time>
      </trkpt>
      <trkpt lat="41.673481" lon="1.253960">
        <ele>525.892</ele>
        <time>2021-08-19T08:07:52Z</time>
      </trkpt>
      <trkpt lat="41.673472" lon="1.253894">
        <ele>525.513</ele>
        <time>2021-08-19T08:07:53Z</time>
      </trkpt>
      <trkpt lat="41.673452" lon="1.253762">
        <ele>524.849</ele>
        <time>2021-08-19T08:07:55Z</time>
      </trkpt>
      <trkpt lat="41.673435" lon="1.253628">
        <ele>524.164</ele>
        <time>2021-08-19T08:07:57Z</time>
      </trkpt>
      <trkpt lat="41.673421" lon="1.253496">
        <ele>523.565</ele>
        <time>2021-08-19T08:07:59Z</time>
      </trkpt>
      <trkpt lat="41.673411" lon="1.253429">
        <ele>523.271</ele>
        <time>2021-08-19T08:08:00Z</time>
      </trkpt>
      <trkpt lat="41.673399" lon="1.253359">
        <ele>522.915</ele>
        <time>2021-08-19T08:08:01Z</time>
      </trkpt>
      <trkpt lat="41.673374" lon="1.253213">
        <ele>522.865</ele>
        <time>2021-08-19T08:08:03Z</time>
      </trkpt>
      <trkpt lat="41.673363" lon="1.253140">
        <ele>522.811</ele>
        <time>2021-08-19T08:08:04Z</time>
      </trkpt>
      <trkpt lat="41.673351" lon="1.253067">
        <ele>522.909</ele>
        <time>2021-08-19T08:08:05Z</time>
      </trkpt>
      <trkpt lat="41.673333" lon="1.252932">
        <ele>522.162</ele>
        <time>2021-08-19T08:08:07Z</time>
      </trkpt>
      <trkpt lat="41.673317" lon="1.252830">
        <ele>521.413</ele>
        <time>2021-08-19T08:08:09Z</time>
      </trkpt>
      <trkpt lat="41.673303" lon="1.252754">
        <ele>521.054</ele>
        <time>2021-08-19T08:08:11Z</time>
      </trkpt>
      <trkpt lat="41.673297" lon="1.252689">
        <ele>520.878</ele>
        <time>2021-08-19T08:08:13Z</time>
      </trkpt>
      <trkpt lat="41.673284" lon="1.252588">
        <ele>520.539</ele>
        <time>2021-08-19T08:08:15Z</time>
      </trkpt>
      <trkpt lat="41.673265" lon="1.252482">
        <ele>520.235</ele>
        <time>2021-08-19T08:08:17Z</time>
      </trkpt>
      <trkpt lat="41.673239" lon="1.252321">
        <ele>519.940</ele>
        <time>2021-08-19T08:08:19Z</time>
      </trkpt>
      <trkpt lat="41.673230" lon="1.252249">
        <ele>519.881</ele>
        <time>2021-08-19T08:08:20Z</time>
      </trkpt>
      <trkpt lat="41.673217" lon="1.252109">
        <ele>519.817</ele>
        <time>2021-08-19T08:08:22Z</time>
      </trkpt>
      <trkpt lat="41.673194" lon="1.251973">
        <ele>520.032</ele>
        <time>2021-08-19T08:08:24Z</time>
      </trkpt>
      <trkpt lat="41.673175" lon="1.251836">
        <ele>520.192</ele>
        <time>2021-08-19T08:08:26Z</time>
      </trkpt>
      <trkpt lat="41.673152" lon="1.251698">
        <ele>520.311</ele>
        <time>2021-08-19T08:08:28Z</time>
      </trkpt>
      <trkpt lat="41.673143" lon="1.251629">
        <ele>520.309</ele>
        <time>2021-08-19T08:08:29Z</time>
      </trkpt>
      <trkpt lat="41.673122" lon="1.251489">
        <ele>520.094</ele>
        <time>2021-08-19T08:08:31Z</time>
      </trkpt>
      <trkpt lat="41.673100" lon="1.251347">
        <ele>519.615</ele>
        <time>2021-08-19T08:08:33Z</time>
      </trkpt>
      <trkpt lat="41.673089" lon="1.251274">
        <ele>519.146</ele>
        <time>2021-08-19T08:08:34Z</time>
      </trkpt>
      <trkpt lat="41.673081" lon="1.251200">
        <ele>518.640</ele>
        <time>2021-08-19T08:08:35Z</time>
      </trkpt>
      <trkpt lat="41.673064" lon="1.251053">
        <ele>517.841</ele>
        <time>2021-08-19T08:08:37Z</time>
      </trkpt>
      <trkpt lat="41.673053" lon="1.250978">
        <ele>517.567</ele>
        <time>2021-08-19T08:08:38Z</time>
      </trkpt>
      <trkpt lat="41.673041" lon="1.250904">
        <ele>517.212</ele>
        <time>2021-08-19T08:08:39Z</time>
      </trkpt>
      <trkpt lat="41.673030" lon="1.250830">
        <ele>516.913</ele>
        <time>2021-08-19T08:08:40Z</time>
      </trkpt>
      <trkpt lat="41.673019" lon="1.250755">
        <ele>516.919</ele>
        <time>2021-08-19T08:08:41Z</time>
      </trkpt>
      <trkpt lat="41.672998" lon="1.250604">
        <ele>517.015</ele>
        <time>2021-08-19T08:08:43Z</time>
      </trkpt>
      <trkpt lat="41.672976" lon="1.250451">
        <ele>517.065</ele>
        <time>2021-08-19T08:08:45Z</time>
      </trkpt>
      <trkpt lat="41.672963" lon="1.250374">
        <ele>517.011</ele>
        <time>2021-08-19T08:08:46Z</time>
      </trkpt>
      <trkpt lat="41.672942" lon="1.250221">
        <ele>516.909</ele>
        <time>2021-08-19T08:08:48Z</time>
      </trkpt>
      <trkpt lat="41.672931" lon="1.250144">
        <ele>516.772</ele>
        <time>2021-08-19T08:08:49Z</time>
      </trkpt>
      <trkpt lat="41.672910" lon="1.249991">
        <ele>516.593</ele>
        <time>2021-08-19T08:08:51Z</time>
      </trkpt>
      <trkpt lat="41.672899" lon="1.249913">
        <ele>516.264</ele>
        <time>2021-08-19T08:08:52Z</time>
      </trkpt>
      <trkpt lat="41.672876" lon="1.249758">
        <ele>515.888</ele>
        <time>2021-08-19T08:08:54Z</time>
      </trkpt>
      <trkpt lat="41.672853" lon="1.249602">
        <ele>515.359</ele>
        <time>2021-08-19T08:08:56Z</time>
      </trkpt>
      <trkpt lat="41.672843" lon="1.249525">
        <ele>515.135</ele>
        <time>2021-08-19T08:08:57Z</time>
      </trkpt>
      <trkpt lat="41.672820" lon="1.249375">
        <ele>514.670</ele>
        <time>2021-08-19T08:08:59Z</time>
      </trkpt>
      <trkpt lat="41.672796" lon="1.249222">
        <ele>514.251</ele>
        <time>2021-08-19T08:09:01Z</time>
      </trkpt>
      <trkpt lat="41.672785" lon="1.249144">
        <ele>514.047</ele>
        <time>2021-08-19T08:09:02Z</time>
      </trkpt>
      <trkpt lat="41.672774" lon="1.249067">
        <ele>514.051</ele>
        <time>2021-08-19T08:09:03Z</time>
      </trkpt>
      <trkpt lat="41.672750" lon="1.248912">
        <ele>514.101</ele>
        <time>2021-08-19T08:09:05Z</time>
      </trkpt>
      <trkpt lat="41.672725" lon="1.248756">
        <ele>513.711</ele>
        <time>2021-08-19T08:09:07Z</time>
      </trkpt>
      <trkpt lat="41.672699" lon="1.248611">
        <ele>513.309</ele>
        <time>2021-08-19T08:09:09Z</time>
      </trkpt>
      <trkpt lat="41.672688" lon="1.248547">
        <ele>512.746</ele>
        <time>2021-08-19T08:09:10Z</time>
      </trkpt>
      <trkpt lat="41.672675" lon="1.248459">
        <ele>511.977</ele>
        <time>2021-08-19T08:09:12Z</time>
      </trkpt>
      <trkpt lat="41.672668" lon="1.248348">
        <ele>510.998</ele>
        <time>2021-08-19T08:09:14Z</time>
      </trkpt>
      <trkpt lat="41.672687" lon="1.248252">
        <ele>510.182</ele>
        <time>2021-08-19T08:09:16Z</time>
      </trkpt>
      <trkpt lat="41.672719" lon="1.248117">
        <ele>508.913</ele>
        <time>2021-08-19T08:09:18Z</time>
      </trkpt>
      <trkpt lat="41.672730" lon="1.248050">
        <ele>508.389</ele>
        <time>2021-08-19T08:09:20Z</time>
      </trkpt>
      <trkpt lat="41.672699" lon="1.247990">
        <ele>508.164</ele>
        <time>2021-08-19T08:09:21Z</time>
      </trkpt>
      <trkpt lat="41.672661" lon="1.247925">
        <ele>507.995</ele>
        <time>2021-08-19T08:09:23Z</time>
      </trkpt>
      <trkpt lat="41.672625" lon="1.247857">
        <ele>507.751</ele>
        <time>2021-08-19T08:09:24Z</time>
      </trkpt>
      <trkpt lat="41.672610" lon="1.247791">
        <ele>507.365</ele>
        <time>2021-08-19T08:09:25Z</time>
      </trkpt>
      <trkpt lat="41.672601" lon="1.247664">
        <ele>507.068</ele>
        <time>2021-08-19T08:09:27Z</time>
      </trkpt>
      <trkpt lat="41.672598" lon="1.247565">
        <ele>506.814</ele>
        <time>2021-08-19T08:09:29Z</time>
      </trkpt>
      <trkpt lat="41.672591" lon="1.247453">
        <ele>506.709</ele>
        <time>2021-08-19T08:09:31Z</time>
      </trkpt>
      <trkpt lat="41.672582" lon="1.247330">
        <ele>506.737</ele>
        <time>2021-08-19T08:09:33Z</time>
      </trkpt>
      <trkpt lat="41.672579" lon="1.247269">
        <ele>506.748</ele>
        <time>2021-08-19T08:09:34Z</time>
      </trkpt>
      <trkpt lat="41.672568" lon="1.247147">
        <ele>507.369</ele>
        <time>2021-08-19T08:09:36Z</time>
      </trkpt>
      <trkpt lat="41.672566" lon="1.247083">
        <ele>507.873</ele>
        <time>2021-08-19T08:09:37Z</time>
      </trkpt>
      <trkpt lat="41.672557" lon="1.246957">
        <ele>508.714</ele>
        <time>2021-08-19T08:09:39Z</time>
      </trkpt>
      <trkpt lat="41.672549" lon="1.246843">
        <ele>509.220</ele>
        <time>2021-08-19T08:09:41Z</time>
      </trkpt>
      <trkpt lat="41.672541" lon="1.246715">
        <ele>509.715</ele>
        <time>2021-08-19T08:09:43Z</time>
      </trkpt>
      <trkpt lat="41.672537" lon="1.246652">
        <ele>509.936</ele>
        <time>2021-08-19T08:09:44Z</time>
      </trkpt>
      <trkpt lat="41.672531" lon="1.246527">
        <ele>509.992</ele>
        <time>2021-08-19T08:09:46Z</time>
      </trkpt>
      <trkpt lat="41.672529" lon="1.246400">
        <ele>510.093</ele>
        <time>2021-08-19T08:09:48Z</time>
      </trkpt>
      <trkpt lat="41.672518" lon="1.246277">
        <ele>509.265</ele>
        <time>2021-08-19T08:09:50Z</time>
      </trkpt>
      <trkpt lat="41.672516" lon="1.246214">
        <ele>508.721</ele>
        <time>2021-08-19T08:09:51Z</time>
      </trkpt>
      <trkpt lat="41.672513" lon="1.246152">
        <ele>508.309</ele>
        <time>2021-08-19T08:09:52Z</time>
      </trkpt>
      <trkpt lat="41.672506" lon="1.246028">
        <ele>507.140</ele>
        <time>2021-08-19T08:09:54Z</time>
      </trkpt>
      <trkpt lat="41.672499" lon="1.245901">
        <ele>505.771</ele>
        <time>2021-08-19T08:09:56Z</time>
      </trkpt>
      <trkpt lat="41.672496" lon="1.245840">
        <ele>505.162</ele>
        <time>2021-08-19T08:09:57Z</time>
      </trkpt>
      <trkpt lat="41.672492" lon="1.245779">
        <ele>505.016</ele>
        <time>2021-08-19T08:09:58Z</time>
      </trkpt>
      <trkpt lat="41.672486" lon="1.245719">
        <ele>505.037</ele>
        <time>2021-08-19T08:09:59Z</time>
      </trkpt>
      <trkpt lat="41.672480" lon="1.245597">
        <ele>505.033</ele>
        <time>2021-08-19T08:10:01Z</time>
      </trkpt>
      <trkpt lat="41.672474" lon="1.245472">
        <ele>505.358</ele>
        <time>2021-08-19T08:10:03Z</time>
      </trkpt>
      <trkpt lat="41.672463" lon="1.245348">
        <ele>505.779</ele>
        <time>2021-08-19T08:10:05Z</time>
      </trkpt>
      <trkpt lat="41.672455" lon="1.245224">
        <ele>506.085</ele>
        <time>2021-08-19T08:10:07Z</time>
      </trkpt>
      <trkpt lat="41.672451" lon="1.245161">
        <ele>506.048</ele>
        <time>2021-08-19T08:10:08Z</time>
      </trkpt>
      <trkpt lat="41.672442" lon="1.245037">
        <ele>506.061</ele>
        <time>2021-08-19T08:10:10Z</time>
      </trkpt>
      <trkpt lat="41.672436" lon="1.244915">
        <ele>506.017</ele>
        <time>2021-08-19T08:10:12Z</time>
      </trkpt>
      <trkpt lat="41.672430" lon="1.244803">
        <ele>506.009</ele>
        <time>2021-08-19T08:10:14Z</time>
      </trkpt>
      <trkpt lat="41.672427" lon="1.244692">
        <ele>506.075</ele>
        <time>2021-08-19T08:10:16Z</time>
      </trkpt>
      <trkpt lat="41.672425" lon="1.244592">
        <ele>506.086</ele>
        <time>2021-08-19T08:10:18Z</time>
      </trkpt>
      <trkpt lat="41.672427" lon="1.244464">
        <ele>506.017</ele>
        <time>2021-08-19T08:10:20Z</time>
      </trkpt>
      <trkpt lat="41.672426" lon="1.244379">
        <ele>505.891</ele>
        <time>2021-08-19T08:10:22Z</time>
      </trkpt>
      <trkpt lat="41.672423" lon="1.244285">
        <ele>505.482</ele>
        <time>2021-08-19T08:10:24Z</time>
      </trkpt>
      <trkpt lat="41.672424" lon="1.244216">
        <ele>505.238</ele>
        <time>2021-08-19T08:10:26Z</time>
      </trkpt>
      <trkpt lat="41.672428" lon="1.244143">
        <ele>504.933</ele>
        <time>2021-08-19T08:10:29Z</time>
      </trkpt>
      <trkpt lat="41.672736" lon="1.244584">
        <ele>505.674</ele>
        <time>2021-08-19T08:11:23Z</time>
      </trkpt>
      <trkpt lat="41.672422" lon="1.244120">
        <ele>504.840</ele>
        <time>2021-08-19T08:11:25Z</time>
      </trkpt>
      <trkpt lat="41.672401" lon="1.244042">
        <ele>504.656</ele>
        <time>2021-08-19T08:16:13Z</time>
      </trkpt>
      <trkpt lat="41.672407" lon="1.243969">
        <ele>504.359</ele>
        <time>2021-08-19T08:16:15Z</time>
      </trkpt>
      <trkpt lat="41.672416" lon="1.243892">
        <ele>504.014</ele>
        <time>2021-08-19T08:16:17Z</time>
      </trkpt>
      <trkpt lat="41.672433" lon="1.243809">
        <ele>503.709</ele>
        <time>2021-08-19T08:16:19Z</time>
      </trkpt>
      <trkpt lat="41.672453" lon="1.243702">
        <ele>503.376</ele>
        <time>2021-08-19T08:16:21Z</time>
      </trkpt>
      <trkpt lat="41.672474" lon="1.243588">
        <ele>503.097</ele>
        <time>2021-08-19T08:16:23Z</time>
      </trkpt>
      <trkpt lat="41.672492" lon="1.243498">
        <ele>503.088</ele>
        <time>2021-08-19T08:16:25Z</time>
      </trkpt>
      <trkpt lat="41.672514" lon="1.243395">
        <ele>503.142</ele>
        <time>2021-08-19T08:16:27Z</time>
      </trkpt>
      <trkpt lat="41.672539" lon="1.243295">
        <ele>503.263</ele>
        <time>2021-08-19T08:16:29Z</time>
      </trkpt>
      <trkpt lat="41.672573" lon="1.243179">
        <ele>503.519</ele>
        <time>2021-08-19T08:16:31Z</time>
      </trkpt>
      <trkpt lat="41.672594" lon="1.243117">
        <ele>503.694</ele>
        <time>2021-08-19T08:16:32Z</time>
      </trkpt>
      <trkpt lat="41.672614" lon="1.243057">
        <ele>503.625</ele>
        <time>2021-08-19T08:16:33Z</time>
      </trkpt>
      <trkpt lat="41.672649" lon="1.242938">
        <ele>503.371</ele>
        <time>2021-08-19T08:16:35Z</time>
      </trkpt>
      <trkpt lat="41.672666" lon="1.242880">
        <ele>503.189</ele>
        <time>2021-08-19T08:16:36Z</time>
      </trkpt>
      <trkpt lat="41.672685" lon="1.242818">
        <ele>503.006</ele>
        <time>2021-08-19T08:16:37Z</time>
      </trkpt>
      <trkpt lat="41.672728" lon="1.242700">
        <ele>502.526</ele>
        <time>2021-08-19T08:16:39Z</time>
      </trkpt>
      <trkpt lat="41.672750" lon="1.242637">
        <ele>502.009</ele>
        <time>2021-08-19T08:16:40Z</time>
      </trkpt>
      <trkpt lat="41.672774" lon="1.242572">
        <ele>501.519</ele>
        <time>2021-08-19T08:16:41Z</time>
      </trkpt>
      <trkpt lat="41.672824" lon="1.242449">
        <ele>501.040</ele>
        <time>2021-08-19T08:16:43Z</time>
      </trkpt>
      <trkpt lat="41.672847" lon="1.242385">
        <ele>500.951</ele>
        <time>2021-08-19T08:16:44Z</time>
      </trkpt>
      <trkpt lat="41.672890" lon="1.242261">
        <ele>500.735</ele>
        <time>2021-08-19T08:16:46Z</time>
      </trkpt>
      <trkpt lat="41.672910" lon="1.242191">
        <ele>500.596</ele>
        <time>2021-08-19T08:16:47Z</time>
      </trkpt>
      <trkpt lat="41.672926" lon="1.242124">
        <ele>500.362</ele>
        <time>2021-08-19T08:16:48Z</time>
      </trkpt>
      <trkpt lat="41.672952" lon="1.241988">
        <ele>500.177</ele>
        <time>2021-08-19T08:16:50Z</time>
      </trkpt>
      <trkpt lat="41.672963" lon="1.241928">
        <ele>500.058</ele>
        <time>2021-08-19T08:16:51Z</time>
      </trkpt>
      <trkpt lat="41.672974" lon="1.241850">
        <ele>500.124</ele>
        <time>2021-08-19T08:16:53Z</time>
      </trkpt>
      <trkpt lat="41.672977" lon="1.241766">
        <ele>500.243</ele>
        <time>2021-08-19T08:16:55Z</time>
      </trkpt>
      <trkpt lat="41.672981" lon="1.241665">
        <ele>500.364</ele>
        <time>2021-08-19T08:16:57Z</time>
      </trkpt>
      <trkpt lat="41.672982" lon="1.241601">
        <ele>500.310</ele>
        <time>2021-08-19T08:16:58Z</time>
      </trkpt>
      <trkpt lat="41.672968" lon="1.241529">
        <ele>500.309</ele>
        <time>2021-08-19T08:16:59Z</time>
      </trkpt>
      <trkpt lat="41.672938" lon="1.241407">
        <ele>500.465</ele>
        <time>2021-08-19T08:17:01Z</time>
      </trkpt>
      <trkpt lat="41.672905" lon="1.241276">
        <ele>499.766</ele>
        <time>2021-08-19T08:17:03Z</time>
      </trkpt>
      <trkpt lat="41.672894" lon="1.241206">
        <ele>499.287</ele>
        <time>2021-08-19T08:17:04Z</time>
      </trkpt>
      <trkpt lat="41.672875" lon="1.241080">
        <ele>498.271</ele>
        <time>2021-08-19T08:17:06Z</time>
      </trkpt>
      <trkpt lat="41.672854" lon="1.240950">
        <ele>497.552</ele>
        <time>2021-08-19T08:17:08Z</time>
      </trkpt>
      <trkpt lat="41.672846" lon="1.240885">
        <ele>497.278</ele>
        <time>2021-08-19T08:17:09Z</time>
      </trkpt>
      <trkpt lat="41.672835" lon="1.240761">
        <ele>496.713</ele>
        <time>2021-08-19T08:17:11Z</time>
      </trkpt>
      <trkpt lat="41.672834" lon="1.240700">
        <ele>496.414</ele>
        <time>2021-08-19T08:17:12Z</time>
      </trkpt>
      <trkpt lat="41.672843" lon="1.240585">
        <ele>495.990</ele>
        <time>2021-08-19T08:17:14Z</time>
      </trkpt>
      <trkpt lat="41.672870" lon="1.240465">
        <ele>495.366</ele>
        <time>2021-08-19T08:17:16Z</time>
      </trkpt>
      <trkpt lat="41.672887" lon="1.240403">
        <ele>495.129</ele>
        <time>2021-08-19T08:17:17Z</time>
      </trkpt>
      <trkpt lat="41.672918" lon="1.240282">
        <ele>494.521</ele>
        <time>2021-08-19T08:17:19Z</time>
      </trkpt>
      <trkpt lat="41.672935" lon="1.240222">
        <ele>494.409</ele>
        <time>2021-08-19T08:17:20Z</time>
      </trkpt>
      <trkpt lat="41.672950" lon="1.240156">
        <ele>494.437</ele>
        <time>2021-08-19T08:17:21Z</time>
      </trkpt>
      <trkpt lat="41.672987" lon="1.240032">
        <ele>494.258</ele>
        <time>2021-08-19T08:17:23Z</time>
      </trkpt>
      <trkpt lat="41.673008" lon="1.239900">
        <ele>494.289</ele>
        <time>2021-08-19T08:17:25Z</time>
      </trkpt>
      <trkpt lat="41.673025" lon="1.239770">
        <ele>494.193</ele>
        <time>2021-08-19T08:17:27Z</time>
      </trkpt>
      <trkpt lat="41.673035" lon="1.239705">
        <ele>494.224</ele>
        <time>2021-08-19T08:17:28Z</time>
      </trkpt>
      <trkpt lat="41.673044" lon="1.239639">
        <ele>494.650</ele>
        <time>2021-08-19T08:17:29Z</time>
      </trkpt>
      <trkpt lat="41.673064" lon="1.239509">
        <ele>495.575</ele>
        <time>2021-08-19T08:17:31Z</time>
      </trkpt>
      <trkpt lat="41.673072" lon="1.239443">
        <ele>495.956</ele>
        <time>2021-08-19T08:17:32Z</time>
      </trkpt>
      <trkpt lat="41.673092" lon="1.239310">
        <ele>495.932</ele>
        <time>2021-08-19T08:17:34Z</time>
      </trkpt>
      <trkpt lat="41.673101" lon="1.239242">
        <ele>495.815</ele>
        <time>2021-08-19T08:17:35Z</time>
      </trkpt>
      <trkpt lat="41.673120" lon="1.239107">
        <ele>495.865</ele>
        <time>2021-08-19T08:17:37Z</time>
      </trkpt>
      <trkpt lat="41.673129" lon="1.239039">
        <ele>495.711</ele>
        <time>2021-08-19T08:17:38Z</time>
      </trkpt>
      <trkpt lat="41.673148" lon="1.238900">
        <ele>495.709</ele>
        <time>2021-08-19T08:17:40Z</time>
      </trkpt>
      <trkpt lat="41.673169" lon="1.238761">
        <ele>495.462</ele>
        <time>2021-08-19T08:17:42Z</time>
      </trkpt>
      <trkpt lat="41.673188" lon="1.238620">
        <ele>495.163</ele>
        <time>2021-08-19T08:17:44Z</time>
      </trkpt>
      <trkpt lat="41.673208" lon="1.238488">
        <ele>494.714</ele>
        <time>2021-08-19T08:17:46Z</time>
      </trkpt>
      <trkpt lat="41.673219" lon="1.238411">
        <ele>494.438</ele>
        <time>2021-08-19T08:17:47Z</time>
      </trkpt>
      <trkpt lat="41.673238" lon="1.238272">
        <ele>494.149</ele>
        <time>2021-08-19T08:17:49Z</time>
      </trkpt>
      <trkpt lat="41.673253" lon="1.238136">
        <ele>494.275</ele>
        <time>2021-08-19T08:17:51Z</time>
      </trkpt>
      <trkpt lat="41.673262" lon="1.238065">
        <ele>494.280</ele>
        <time>2021-08-19T08:17:52Z</time>
      </trkpt>
      <trkpt lat="41.673269" lon="1.237994">
        <ele>494.071</ele>
        <time>2021-08-19T08:17:53Z</time>
      </trkpt>
      <trkpt lat="41.673291" lon="1.237852">
        <ele>493.477</ele>
        <time>2021-08-19T08:17:55Z</time>
      </trkpt>
      <trkpt lat="41.673311" lon="1.237710">
        <ele>493.151</ele>
        <time>2021-08-19T08:17:57Z</time>
      </trkpt>
      <trkpt lat="41.673332" lon="1.237567">
        <ele>493.001</ele>
        <time>2021-08-19T08:17:59Z</time>
      </trkpt>
      <trkpt lat="41.673353" lon="1.237426">
        <ele>492.611</ele>
        <time>2021-08-19T08:18:01Z</time>
      </trkpt>
      <trkpt lat="41.673381" lon="1.237295">
        <ele>491.909</ele>
        <time>2021-08-19T08:18:03Z</time>
      </trkpt>
      <trkpt lat="41.673413" lon="1.237168">
        <ele>491.136</ele>
        <time>2021-08-19T08:18:05Z</time>
      </trkpt>
      <trkpt lat="41.673446" lon="1.237037">
        <ele>490.147</ele>
        <time>2021-08-19T08:18:07Z</time>
      </trkpt>
      <trkpt lat="41.673461" lon="1.236967">
        <ele>489.718</ele>
        <time>2021-08-19T08:18:08Z</time>
      </trkpt>
      <trkpt lat="41.673491" lon="1.236828">
        <ele>488.852</ele>
        <time>2021-08-19T08:18:10Z</time>
      </trkpt>
      <trkpt lat="41.673510" lon="1.236760">
        <ele>488.393</ele>
        <time>2021-08-19T08:18:11Z</time>
      </trkpt>
      <trkpt lat="41.673556" lon="1.236629">
        <ele>487.429</ele>
        <time>2021-08-19T08:18:13Z</time>
      </trkpt>
      <trkpt lat="41.673581" lon="1.236565">
        <ele>487.244</ele>
        <time>2021-08-19T08:18:14Z</time>
      </trkpt>
      <trkpt lat="41.673637" lon="1.236447">
        <ele>487.125</ele>
        <time>2021-08-19T08:18:16Z</time>
      </trkpt>
      <trkpt lat="41.673665" lon="1.236385">
        <ele>487.251</ele>
        <time>2021-08-19T08:18:17Z</time>
      </trkpt>
      <trkpt lat="41.673695" lon="1.236329">
        <ele>487.575</ele>
        <time>2021-08-19T08:18:18Z</time>
      </trkpt>
      <trkpt lat="41.673750" lon="1.236220">
        <ele>487.828</ele>
        <time>2021-08-19T08:18:20Z</time>
      </trkpt>
      <trkpt lat="41.673776" lon="1.236163">
        <ele>487.920</ele>
        <time>2021-08-19T08:18:21Z</time>
      </trkpt>
      <trkpt lat="41.673828" lon="1.236054">
        <ele>488.209</ele>
        <time>2021-08-19T08:18:23Z</time>
      </trkpt>
      <trkpt lat="41.673880" lon="1.235940">
        <ele>488.678</ele>
        <time>2021-08-19T08:18:25Z</time>
      </trkpt>
      <trkpt lat="41.673933" lon="1.235824">
        <ele>489.019</ele>
        <time>2021-08-19T08:18:27Z</time>
      </trkpt>
      <trkpt lat="41.673958" lon="1.235765">
        <ele>489.090</ele>
        <time>2021-08-19T08:18:28Z</time>
      </trkpt>
      <trkpt lat="41.673983" lon="1.235706">
        <ele>489.064</ele>
        <time>2021-08-19T08:18:29Z</time>
      </trkpt>
      <trkpt lat="41.674019" lon="1.235585">
        <ele>489.015</ele>
        <time>2021-08-19T08:18:31Z</time>
      </trkpt>
      <trkpt lat="41.674043" lon="1.235460">
        <ele>488.761</ele>
        <time>2021-08-19T08:18:33Z</time>
      </trkpt>
      <trkpt lat="41.674049" lon="1.235395">
        <ele>488.446</ele>
        <time>2021-08-19T08:18:34Z</time>
      </trkpt>
      <trkpt lat="41.674059" lon="1.235260">
        <ele>487.947</ele>
        <time>2021-08-19T08:18:36Z</time>
      </trkpt>
      <trkpt lat="41.674071" lon="1.235114">
        <ele>486.893</ele>
        <time>2021-08-19T08:18:38Z</time>
      </trkpt>
      <trkpt lat="41.674071" lon="1.235041">
        <ele>486.331</ele>
        <time>2021-08-19T08:18:39Z</time>
      </trkpt>
      <trkpt lat="41.674060" lon="1.234899">
        <ele>486.061</ele>
        <time>2021-08-19T08:18:41Z</time>
      </trkpt>
      <trkpt lat="41.674035" lon="1.234757">
        <ele>486.007</ele>
        <time>2021-08-19T08:18:43Z</time>
      </trkpt>
      <trkpt lat="41.673996" lon="1.234628">
        <ele>486.009</ele>
        <time>2021-08-19T08:18:45Z</time>
      </trkpt>
      <trkpt lat="41.673941" lon="1.234493">
        <ele>486.064</ele>
        <time>2021-08-19T08:18:47Z</time>
      </trkpt>
      <trkpt lat="41.673891" lon="1.234359">
        <ele>486.375</ele>
        <time>2021-08-19T08:18:49Z</time>
      </trkpt>
      <trkpt lat="41.673891" lon="1.234212">
        <ele>486.826</ele>
        <time>2021-08-19T08:18:51Z</time>
      </trkpt>
      <trkpt lat="41.673931" lon="1.234075">
        <ele>486.930</ele>
        <time>2021-08-19T08:18:53Z</time>
      </trkpt>
      <trkpt lat="41.673960" lon="1.234018">
        <ele>486.971</ele>
        <time>2021-08-19T08:18:54Z</time>
      </trkpt>
      <trkpt lat="41.674029" lon="1.233934">
        <ele>486.967</ele>
        <time>2021-08-19T08:18:56Z</time>
      </trkpt>
      <trkpt lat="41.674093" lon="1.233864">
        <ele>487.142</ele>
        <time>2021-08-19T08:18:58Z</time>
      </trkpt>
      <trkpt lat="41.674150" lon="1.233791">
        <ele>487.433</ele>
        <time>2021-08-19T08:19:00Z</time>
      </trkpt>
      <trkpt lat="41.674201" lon="1.233713">
        <ele>487.439</ele>
        <time>2021-08-19T08:19:02Z</time>
      </trkpt>
      <trkpt lat="41.674273" lon="1.233596">
        <ele>487.363</ele>
        <time>2021-08-19T08:19:04Z</time>
      </trkpt>
      <trkpt lat="41.674319" lon="1.233570">
        <ele>487.044</ele>
        <time>2021-08-19T08:19:06Z</time>
      </trkpt>
      <trkpt lat="41.674353" lon="1.233506">
        <ele>486.918</ele>
        <time>2021-08-19T08:19:08Z</time>
      </trkpt>
      <trkpt lat="41.674384" lon="1.233443">
        <ele>486.909</ele>
        <time>2021-08-19T08:19:09Z</time>
      </trkpt>
      <trkpt lat="41.674410" lon="1.233391">
        <ele>486.997</ele>
        <time>2021-08-19T08:19:10Z</time>
      </trkpt>
      <trkpt lat="41.674448" lon="1.233298">
        <ele>487.148</ele>
        <time>2021-08-19T08:19:12Z</time>
      </trkpt>
      <trkpt lat="41.674486" lon="1.233209">
        <ele>487.319</ele>
        <time>2021-08-19T08:19:14Z</time>
      </trkpt>
      <trkpt lat="41.674512" lon="1.233141">
        <ele>487.423</ele>
        <time>2021-08-19T08:19:16Z</time>
      </trkpt>
      <trkpt lat="41.674555" lon="1.233052">
        <ele>487.644</ele>
        <time>2021-08-19T08:19:18Z</time>
      </trkpt>
      <trkpt lat="41.674578" lon="1.232980">
        <ele>487.530</ele>
        <time>2021-08-19T08:19:20Z</time>
      </trkpt>
      <trkpt lat="41.674599" lon="1.232910">
        <ele>487.415</ele>
        <time>2021-08-19T08:19:22Z</time>
      </trkpt>
      <trkpt lat="41.674623" lon="1.232836">
        <ele>487.456</ele>
        <time>2021-08-19T08:19:24Z</time>
      </trkpt>
      <trkpt lat="41.674651" lon="1.232759">
        <ele>487.322</ele>
        <time>2021-08-19T08:19:26Z</time>
      </trkpt>
      <trkpt lat="41.674687" lon="1.232680">
        <ele>487.163</ele>
        <time>2021-08-19T08:19:28Z</time>
      </trkpt>
      <trkpt lat="41.674728" lon="1.232608">
        <ele>487.044</ele>
        <time>2021-08-19T08:19:30Z</time>
      </trkpt>
      <trkpt lat="41.674766" lon="1.232532">
        <ele>486.718</ele>
        <time>2021-08-19T08:19:32Z</time>
      </trkpt>
      <trkpt lat="41.674805" lon="1.232451">
        <ele>486.309</ele>
        <time>2021-08-19T08:19:34Z</time>
      </trkpt>
      <trkpt lat="41.674853" lon="1.232368">
        <ele>485.847</ele>
        <time>2021-08-19T08:19:36Z</time>
      </trkpt>
      <trkpt lat="41.674898" lon="1.232289">
        <ele>485.558</ele>
        <time>2021-08-19T08:19:38Z</time>
      </trkpt>
      <trkpt lat="41.674942" lon="1.232211">
        <ele>485.279</ele>
        <time>2021-08-19T08:19:40Z</time>
      </trkpt>
      <trkpt lat="41.674988" lon="1.232136">
        <ele>485.083</ele>
        <time>2021-08-19T08:19:42Z</time>
      </trkpt>
      <trkpt lat="41.675046" lon="1.232077">
        <ele>484.724</ele>
        <time>2021-08-19T08:19:44Z</time>
      </trkpt>
      <trkpt lat="41.675097" lon="1.232030">
        <ele>484.480</ele>
        <time>2021-08-19T08:19:46Z</time>
      </trkpt>
      <trkpt lat="41.675158" lon="1.231960">
        <ele>484.475</ele>
        <time>2021-08-19T08:19:48Z</time>
      </trkpt>
      <trkpt lat="41.675221" lon="1.231900">
        <ele>484.766</ele>
        <time>2021-08-19T08:19:50Z</time>
      </trkpt>
      <trkpt lat="41.675283" lon="1.231844">
        <ele>485.062</ele>
        <time>2021-08-19T08:19:52Z</time>
      </trkpt>
      <trkpt lat="41.675345" lon="1.231776">
        <ele>485.124</ele>
        <time>2021-08-19T08:19:54Z</time>
      </trkpt>
      <trkpt lat="41.675406" lon="1.231706">
        <ele>485.204</ele>
        <time>2021-08-19T08:19:56Z</time>
      </trkpt>
      <trkpt lat="41.675466" lon="1.231635">
        <ele>485.214</ele>
        <time>2021-08-19T08:19:58Z</time>
      </trkpt>
      <trkpt lat="41.675545" lon="1.231526">
        <ele>484.709</ele>
        <time>2021-08-19T08:20:00Z</time>
      </trkpt>
      <trkpt lat="41.675579" lon="1.231478">
        <ele>484.353</ele>
        <time>2021-08-19T08:20:01Z</time>
      </trkpt>
      <trkpt lat="41.675632" lon="1.231371">
        <ele>483.934</ele>
        <time>2021-08-19T08:20:03Z</time>
      </trkpt>
      <trkpt lat="41.675661" lon="1.231272">
        <ele>483.555</ele>
        <time>2021-08-19T08:20:05Z</time>
      </trkpt>
      <trkpt lat="41.675673" lon="1.231211">
        <ele>483.339</ele>
        <time>2021-08-19T08:20:08Z</time>
      </trkpt>
      <trkpt lat="41.675672" lon="1.231111">
        <ele>483.310</ele>
        <time>2021-08-19T08:20:10Z</time>
      </trkpt>
      <trkpt lat="41.675692" lon="1.231013">
        <ele>482.746</ele>
        <time>2021-08-19T08:20:12Z</time>
      </trkpt>
      <trkpt lat="41.675731" lon="1.230915">
        <ele>481.871</ele>
        <time>2021-08-19T08:20:14Z</time>
      </trkpt>
      <trkpt lat="41.675701" lon="1.230729">
        <ele>481.782</ele>
        <time>2021-08-19T08:20:16Z</time>
      </trkpt>
      <trkpt lat="41.675696" lon="1.230667">
        <ele>481.748</ele>
        <time>2021-08-19T08:20:17Z</time>
      </trkpt>
      <trkpt lat="41.675692" lon="1.230606">
        <ele>481.631</ele>
        <time>2021-08-19T08:20:18Z</time>
      </trkpt>
      <trkpt lat="41.675689" lon="1.230472">
        <ele>481.261</ele>
        <time>2021-08-19T08:20:20Z</time>
      </trkpt>
      <trkpt lat="41.675690" lon="1.230351">
        <ele>480.807</ele>
        <time>2021-08-19T08:20:22Z</time>
      </trkpt>
      <trkpt lat="41.675687" lon="1.230229">
        <ele>480.409</ele>
        <time>2021-08-19T08:20:24Z</time>
      </trkpt>
      <trkpt lat="41.675692" lon="1.230118">
        <ele>480.244</ele>
        <time>2021-08-19T08:20:26Z</time>
      </trkpt>
      <trkpt lat="41.675698" lon="1.229997">
        <ele>480.065</ele>
        <time>2021-08-19T08:20:28Z</time>
      </trkpt>
      <trkpt lat="41.675709" lon="1.229884">
        <ele>480.286</ele>
        <time>2021-08-19T08:20:30Z</time>
      </trkpt>
      <trkpt lat="41.675714" lon="1.229773">
        <ele>480.470</ele>
        <time>2021-08-19T08:20:32Z</time>
      </trkpt>
      <trkpt lat="41.675720" lon="1.229659">
        <ele>480.451</ele>
        <time>2021-08-19T08:20:34Z</time>
      </trkpt>
      <trkpt lat="41.675743" lon="1.229545">
        <ele>480.357</ele>
        <time>2021-08-19T08:20:36Z</time>
      </trkpt>
      <trkpt lat="41.675772" lon="1.229432">
        <ele>480.332</ele>
        <time>2021-08-19T08:20:38Z</time>
      </trkpt>
      <trkpt lat="41.675802" lon="1.229325">
        <ele>480.563</ele>
        <time>2021-08-19T08:20:40Z</time>
      </trkpt>
      <trkpt lat="41.675831" lon="1.229233">
        <ele>480.819</ele>
        <time>2021-08-19T08:20:42Z</time>
      </trkpt>
      <trkpt lat="41.675862" lon="1.229152">
        <ele>480.828</ele>
        <time>2021-08-19T08:20:44Z</time>
      </trkpt>
      <trkpt lat="41.675889" lon="1.229085">
        <ele>480.789</ele>
        <time>2021-08-19T08:20:46Z</time>
      </trkpt>
      <trkpt lat="41.675929" lon="1.229025">
        <ele>480.517</ele>
        <time>2021-08-19T08:20:48Z</time>
      </trkpt>
      <trkpt lat="41.675965" lon="1.228961">
        <ele>480.409</ele>
        <time>2021-08-19T08:20:50Z</time>
      </trkpt>
      <trkpt lat="41.675999" lon="1.228896">
        <ele>480.483</ele>
        <time>2021-08-19T08:20:52Z</time>
      </trkpt>
      <trkpt lat="41.676031" lon="1.228834">
        <ele>480.334</ele>
        <time>2021-08-19T08:20:54Z</time>
      </trkpt>
      <trkpt lat="41.676065" lon="1.228772">
        <ele>480.275</ele>
        <time>2021-08-19T08:20:56Z</time>
      </trkpt>
      <trkpt lat="41.676091" lon="1.228712">
        <ele>480.189</ele>
        <time>2021-08-19T08:20:58Z</time>
      </trkpt>
      <trkpt lat="41.676126" lon="1.228662">
        <ele>479.950</ele>
        <time>2021-08-19T08:21:00Z</time>
      </trkpt>
      <trkpt lat="41.676154" lon="1.228611">
        <ele>479.816</ele>
        <time>2021-08-19T08:21:02Z</time>
      </trkpt>
      <trkpt lat="41.676177" lon="1.228559">
        <ele>479.991</ele>
        <time>2021-08-19T08:21:04Z</time>
      </trkpt>
      <trkpt lat="41.676212" lon="1.228487">
        <ele>479.972</ele>
        <time>2021-08-19T08:21:07Z</time>
      </trkpt>
      <trkpt lat="41.676247" lon="1.228430">
        <ele>479.838</ele>
        <time>2021-08-19T08:21:10Z</time>
      </trkpt>
      <trkpt lat="41.676285" lon="1.228362">
        <ele>479.731</ele>
        <time>2021-08-19T08:21:13Z</time>
      </trkpt>
      <trkpt lat="41.676318" lon="1.228296">
        <ele>479.661</ele>
        <time>2021-08-19T08:21:16Z</time>
      </trkpt>
      <trkpt lat="41.676344" lon="1.228245">
        <ele>479.607</ele>
        <time>2021-08-19T08:21:18Z</time>
      </trkpt>
      <trkpt lat="41.676369" lon="1.228191">
        <ele>479.609</ele>
        <time>2021-08-19T08:21:20Z</time>
      </trkpt>
      <trkpt lat="41.676390" lon="1.228134">
        <ele>479.754</ele>
        <time>2021-08-19T08:21:22Z</time>
      </trkpt>
      <trkpt lat="41.676411" lon="1.228079">
        <ele>479.835</ele>
        <time>2021-08-19T08:21:24Z</time>
      </trkpt>
      <trkpt lat="41.676438" lon="1.228030">
        <ele>479.616</ele>
        <time>2021-08-19T08:21:26Z</time>
      </trkpt>
      <trkpt lat="41.676480" lon="1.227957">
        <ele>479.360</ele>
        <time>2021-08-19T08:21:29Z</time>
      </trkpt>
      <trkpt lat="41.676505" lon="1.227897">
        <ele>479.281</ele>
        <time>2021-08-19T08:21:31Z</time>
      </trkpt>
      <trkpt lat="41.676534" lon="1.227830">
        <ele>479.037</ele>
        <time>2021-08-19T08:21:33Z</time>
      </trkpt>
      <trkpt lat="41.676559" lon="1.227755">
        <ele>478.782</ele>
        <time>2021-08-19T08:21:35Z</time>
      </trkpt>
      <trkpt lat="41.676585" lon="1.227687">
        <ele>478.523</ele>
        <time>2021-08-19T08:21:37Z</time>
      </trkpt>
      <trkpt lat="41.676612" lon="1.227630">
        <ele>478.399</ele>
        <time>2021-08-19T08:21:39Z</time>
      </trkpt>
      <trkpt lat="41.676634" lon="1.227565">
        <ele>478.166</ele>
        <time>2021-08-19T08:21:41Z</time>
      </trkpt>
      <trkpt lat="41.676659" lon="1.227497">
        <ele>478.029</ele>
        <time>2021-08-19T08:21:43Z</time>
      </trkpt>
      <trkpt lat="41.676687" lon="1.227423">
        <ele>478.421</ele>
        <time>2021-08-19T08:21:45Z</time>
      </trkpt>
      <trkpt lat="41.676717" lon="1.227354">
        <ele>478.909</ele>
        <time>2021-08-19T08:21:47Z</time>
      </trkpt>
      <trkpt lat="41.676746" lon="1.227283">
        <ele>479.427</ele>
        <time>2021-08-19T08:21:49Z</time>
      </trkpt>
      <trkpt lat="41.676771" lon="1.227214">
        <ele>479.888</ele>
        <time>2021-08-19T08:21:51Z</time>
      </trkpt>
      <trkpt lat="41.676810" lon="1.227176">
        <ele>480.339</ele>
        <time>2021-08-19T08:21:53Z</time>
      </trkpt>
      <trkpt lat="41.676861" lon="1.227166">
        <ele>480.793</ele>
        <time>2021-08-19T08:21:55Z</time>
      </trkpt>
      <trkpt lat="41.676909" lon="1.227173">
        <ele>480.914</ele>
        <time>2021-08-19T08:21:57Z</time>
      </trkpt>
      <trkpt lat="41.676919" lon="1.227108">
        <ele>481.350</ele>
        <time>2021-08-19T08:22:30Z</time>
      </trkpt>
      <trkpt lat="41.676984" lon="1.227099">
        <ele>481.375</ele>
        <time>2021-08-19T08:22:32Z</time>
      </trkpt>
      <trkpt lat="41.677037" lon="1.227083">
        <ele>481.236</ele>
        <time>2021-08-19T08:22:33Z</time>
      </trkpt>
      <trkpt lat="41.677148" lon="1.227041">
        <ele>480.932</ele>
        <time>2021-08-19T08:22:35Z</time>
      </trkpt>
      <trkpt lat="41.677198" lon="1.227025">
        <ele>480.895</ele>
        <time>2021-08-19T08:22:36Z</time>
      </trkpt>
      <trkpt lat="41.677294" lon="1.226989">
        <ele>480.349</ele>
        <time>2021-08-19T08:22:38Z</time>
      </trkpt>
      <trkpt lat="41.677394" lon="1.226954">
        <ele>479.723</ele>
        <time>2021-08-19T08:22:40Z</time>
      </trkpt>
      <trkpt lat="41.677500" lon="1.226914">
        <ele>479.309</ele>
        <time>2021-08-19T08:22:42Z</time>
      </trkpt>
      <trkpt lat="41.677554" lon="1.226893">
        <ele>478.760</ele>
        <time>2021-08-19T08:22:43Z</time>
      </trkpt>
      <trkpt lat="41.677608" lon="1.226871">
        <ele>478.151</ele>
        <time>2021-08-19T08:22:44Z</time>
      </trkpt>
      <trkpt lat="41.677713" lon="1.226832">
        <ele>476.892</ele>
        <time>2021-08-19T08:22:46Z</time>
      </trkpt>
      <trkpt lat="41.677819" lon="1.226794">
        <ele>475.966</ele>
        <time>2021-08-19T08:22:48Z</time>
      </trkpt>
      <trkpt lat="41.677872" lon="1.226769">
        <ele>475.817</ele>
        <time>2021-08-19T08:22:49Z</time>
      </trkpt>
      <trkpt lat="41.677927" lon="1.226745">
        <ele>475.713</ele>
        <time>2021-08-19T08:22:50Z</time>
      </trkpt>
      <trkpt lat="41.678030" lon="1.226698">
        <ele>475.858</ele>
        <time>2021-08-19T08:22:52Z</time>
      </trkpt>
      <trkpt lat="41.678125" lon="1.226643">
        <ele>476.449</ele>
        <time>2021-08-19T08:22:54Z</time>
      </trkpt>
      <trkpt lat="41.678220" lon="1.226581">
        <ele>477.035</ele>
        <time>2021-08-19T08:22:56Z</time>
      </trkpt>
      <trkpt lat="41.678313" lon="1.226531">
        <ele>477.592</ele>
        <time>2021-08-19T08:22:58Z</time>
      </trkpt>
      <trkpt lat="41.678364" lon="1.226509">
        <ele>477.573</ele>
        <time>2021-08-19T08:22:59Z</time>
      </trkpt>
      <trkpt lat="41.678415" lon="1.226496">
        <ele>477.520</ele>
        <time>2021-08-19T08:23:00Z</time>
      </trkpt>
      <trkpt lat="41.678517" lon="1.226466">
        <ele>477.509</ele>
        <time>2021-08-19T08:23:02Z</time>
      </trkpt>
      <trkpt lat="41.678571" lon="1.226459">
        <ele>477.560</ele>
        <time>2021-08-19T08:23:03Z</time>
      </trkpt>
      <trkpt lat="41.678622" lon="1.226449">
        <ele>477.541</ele>
        <time>2021-08-19T08:23:04Z</time>
      </trkpt>
      <trkpt lat="41.678719" lon="1.226423">
        <ele>477.322</ele>
        <time>2021-08-19T08:23:06Z</time>
      </trkpt>
      <trkpt lat="41.678809" lon="1.226389">
        <ele>477.346</ele>
        <time>2021-08-19T08:23:08Z</time>
      </trkpt>
      <trkpt lat="41.678855" lon="1.226368">
        <ele>477.367</ele>
        <time>2021-08-19T08:23:09Z</time>
      </trkpt>
      <trkpt lat="41.678944" lon="1.226311">
        <ele>477.213</ele>
        <time>2021-08-19T08:23:11Z</time>
      </trkpt>
      <trkpt lat="41.678990" lon="1.226280">
        <ele>477.168</ele>
        <time>2021-08-19T08:23:12Z</time>
      </trkpt>
      <trkpt lat="41.679073" lon="1.226218">
        <ele>476.999</ele>
        <time>2021-08-19T08:23:14Z</time>
      </trkpt>
      <trkpt lat="41.679113" lon="1.226187">
        <ele>476.855</ele>
        <time>2021-08-19T08:23:15Z</time>
      </trkpt>
      <trkpt lat="41.679154" lon="1.226155">
        <ele>476.842</ele>
        <time>2021-08-19T08:23:16Z</time>
      </trkpt>
      <trkpt lat="41.679216" lon="1.226095">
        <ele>476.722</ele>
        <time>2021-08-19T08:23:18Z</time>
      </trkpt>
      <trkpt lat="41.679281" lon="1.226029">
        <ele>476.414</ele>
        <time>2021-08-19T08:23:20Z</time>
      </trkpt>
      <trkpt lat="41.679354" lon="1.225941">
        <ele>475.909</ele>
        <time>2021-08-19T08:23:22Z</time>
      </trkpt>
      <trkpt lat="41.679422" lon="1.225843">
        <ele>475.275</ele>
        <time>2021-08-19T08:23:24Z</time>
      </trkpt>
      <trkpt lat="41.679458" lon="1.225794">
        <ele>475.116</ele>
        <time>2021-08-19T08:23:25Z</time>
      </trkpt>
      <trkpt lat="41.679518" lon="1.225713">
        <ele>475.397</ele>
        <time>2021-08-19T08:23:27Z</time>
      </trkpt>
      <trkpt lat="41.679541" lon="1.225637">
        <ele>475.511</ele>
        <time>2021-08-19T08:23:29Z</time>
      </trkpt>
      <trkpt lat="41.679593" lon="1.225557">
        <ele>475.532</ele>
        <time>2021-08-19T08:23:31Z</time>
      </trkpt>
      <trkpt lat="41.679632" lon="1.225494">
        <ele>475.138</ele>
        <time>2021-08-19T08:23:33Z</time>
      </trkpt>
      <trkpt lat="41.679671" lon="1.225432">
        <ele>474.573</ele>
        <time>2021-08-19T08:23:34Z</time>
      </trkpt>
      <trkpt lat="41.679726" lon="1.225391">
        <ele>473.824</ele>
        <time>2021-08-19T08:23:36Z</time>
      </trkpt>
      <trkpt lat="41.679731" lon="1.225331">
        <ele>473.330</ele>
        <time>2021-08-19T08:23:48Z</time>
      </trkpt>
      <trkpt lat="41.679741" lon="1.225259">
        <ele>472.825</ele>
        <time>2021-08-19T08:23:50Z</time>
      </trkpt>
      <trkpt lat="41.679749" lon="1.225171">
        <ele>472.326</ele>
        <time>2021-08-19T08:23:52Z</time>
      </trkpt>
      <trkpt lat="41.679742" lon="1.225085">
        <ele>472.108</ele>
        <time>2021-08-19T08:23:54Z</time>
      </trkpt>
      <trkpt lat="41.679731" lon="1.224995">
        <ele>471.809</ele>
        <time>2021-08-19T08:23:56Z</time>
      </trkpt>
      <trkpt lat="41.679739" lon="1.224895">
        <ele>470.623</ele>
        <time>2021-08-19T08:23:58Z</time>
      </trkpt>
      <trkpt lat="41.679746" lon="1.224784">
        <ele>469.434</ele>
        <time>2021-08-19T08:24:00Z</time>
      </trkpt>
      <trkpt lat="41.679744" lon="1.224679">
        <ele>468.665</ele>
        <time>2021-08-19T08:24:02Z</time>
      </trkpt>
      <trkpt lat="41.679735" lon="1.224578">
        <ele>468.469</ele>
        <time>2021-08-19T08:24:04Z</time>
      </trkpt>
      <trkpt lat="41.679721" lon="1.224485">
        <ele>468.260</ele>
        <time>2021-08-19T08:24:06Z</time>
      </trkpt>
      <trkpt lat="41.679692" lon="1.224392">
        <ele>468.996</ele>
        <time>2021-08-19T08:24:08Z</time>
      </trkpt>
      <trkpt lat="41.679674" lon="1.224306">
        <ele>469.821</ele>
        <time>2021-08-19T08:24:10Z</time>
      </trkpt>
      <trkpt lat="41.679658" lon="1.224215">
        <ele>470.622</ele>
        <time>2021-08-19T08:24:12Z</time>
      </trkpt>
      <trkpt lat="41.679634" lon="1.224111">
        <ele>471.658</ele>
        <time>2021-08-19T08:24:14Z</time>
      </trkpt>
      <trkpt lat="41.679623" lon="1.224017">
        <ele>472.484</ele>
        <time>2021-08-19T08:24:16Z</time>
      </trkpt>
      <trkpt lat="41.679609" lon="1.223924">
        <ele>473.207</ele>
        <time>2021-08-19T08:24:18Z</time>
      </trkpt>
      <trkpt lat="41.679610" lon="1.223850">
        <ele>473.417</ele>
        <time>2021-08-19T08:24:20Z</time>
      </trkpt>
      <trkpt lat="41.679621" lon="1.223784">
        <ele>473.009</ele>
        <time>2021-08-19T08:24:22Z</time>
      </trkpt>
      <trkpt lat="41.679629" lon="1.223709">
        <ele>472.829</ele>
        <time>2021-08-19T08:24:24Z</time>
      </trkpt>
      <trkpt lat="41.679639" lon="1.223638">
        <ele>472.550</ele>
        <time>2021-08-19T08:24:26Z</time>
      </trkpt>
      <trkpt lat="41.679653" lon="1.223571">
        <ele>472.231</ele>
        <time>2021-08-19T08:24:28Z</time>
      </trkpt>
      <trkpt lat="41.679682" lon="1.223492">
        <ele>471.775</ele>
        <time>2021-08-19T08:24:30Z</time>
      </trkpt>
      <trkpt lat="41.679709" lon="1.223407">
        <ele>471.296</ele>
        <time>2021-08-19T08:24:32Z</time>
      </trkpt>
      <trkpt lat="41.679715" lon="1.223330">
        <ele>471.182</ele>
        <time>2021-08-19T08:24:34Z</time>
      </trkpt>
      <trkpt lat="41.679705" lon="1.223253">
        <ele>471.347</ele>
        <time>2021-08-19T08:24:36Z</time>
      </trkpt>
      <trkpt lat="41.679695" lon="1.223190">
        <ele>471.548</ele>
        <time>2021-08-19T08:24:38Z</time>
      </trkpt>
      <trkpt lat="41.679661" lon="1.223109">
        <ele>472.314</ele>
        <time>2021-08-19T08:24:41Z</time>
      </trkpt>
      <trkpt lat="41.679631" lon="1.223064">
        <ele>473.085</ele>
        <time>2021-08-19T08:24:43Z</time>
      </trkpt>
      <trkpt lat="41.679595" lon="1.223001">
        <ele>473.989</ele>
        <time>2021-08-19T08:24:46Z</time>
      </trkpt>
      <trkpt lat="41.679595" lon="1.222928">
        <ele>474.017</ele>
        <time>2021-08-19T08:24:49Z</time>
      </trkpt>
      <trkpt lat="41.679606" lon="1.222866">
        <ele>473.909</ele>
        <time>2021-08-19T08:24:51Z</time>
      </trkpt>
      <trkpt lat="41.679614" lon="1.222794">
        <ele>473.919</ele>
        <time>2021-08-19T08:24:54Z</time>
      </trkpt>
      <trkpt lat="41.679605" lon="1.222733">
        <ele>474.030</ele>
        <time>2021-08-19T08:24:57Z</time>
      </trkpt>
      <trkpt lat="41.679617" lon="1.222663">
        <ele>473.611</ele>
        <time>2021-08-19T08:25:00Z</time>
      </trkpt>
      <trkpt lat="41.679661" lon="1.222621">
        <ele>472.935</ele>
        <time>2021-08-19T08:25:02Z</time>
      </trkpt>
      <trkpt lat="41.679703" lon="1.222598">
        <ele>472.316</ele>
        <time>2021-08-19T08:25:36Z</time>
      </trkpt>
      <trkpt lat="41.679759" lon="1.222587">
        <ele>471.772</ele>
        <time>2021-08-19T08:25:49Z</time>
      </trkpt>
      <trkpt lat="41.679928" lon="1.222590">
        <ele>470.377</ele>
        <time>2021-08-19T08:25:51Z</time>
      </trkpt>
      <trkpt lat="41.679988" lon="1.222589">
        <ele>469.868</ele>
        <time>2021-08-19T08:25:52Z</time>
      </trkpt>
      <trkpt lat="41.680034" lon="1.222588">
        <ele>469.364</ele>
        <time>2021-08-19T08:25:53Z</time>
      </trkpt>
      <trkpt lat="41.680075" lon="1.222626">
        <ele>468.776</ele>
        <time>2021-08-19T08:25:55Z</time>
      </trkpt>
      <trkpt lat="41.680133" lon="1.222604">
        <ele>468.290</ele>
        <time>2021-08-19T08:25:57Z</time>
      </trkpt>
      <trkpt lat="41.680121" lon="1.222542">
        <ele>468.519</ele>
        <time>2021-08-19T08:26:31Z</time>
      </trkpt>
      <trkpt lat="41.680116" lon="1.222472">
        <ele>468.709</ele>
        <time>2021-08-19T08:26:34Z</time>
      </trkpt>
      <trkpt lat="41.680117" lon="1.222390">
        <ele>468.568</ele>
        <time>2021-08-19T08:26:36Z</time>
      </trkpt>
      <trkpt lat="41.680098" lon="1.222291">
        <ele>468.599</ele>
        <time>2021-08-19T08:26:38Z</time>
      </trkpt>
      <trkpt lat="41.680062" lon="1.222193">
        <ele>468.430</ele>
        <time>2021-08-19T08:26:40Z</time>
      </trkpt>
      <trkpt lat="41.680024" lon="1.222093">
        <ele>468.494</ele>
        <time>2021-08-19T08:26:42Z</time>
      </trkpt>
      <trkpt lat="41.680000" lon="1.221987">
        <ele>468.255</ele>
        <time>2021-08-19T08:26:44Z</time>
      </trkpt>
      <trkpt lat="41.680000" lon="1.221874">
        <ele>467.541</ele>
        <time>2021-08-19T08:26:46Z</time>
      </trkpt>
      <trkpt lat="41.679986" lon="1.221762">
        <ele>466.776</ele>
        <time>2021-08-19T08:26:48Z</time>
      </trkpt>
      <trkpt lat="41.679976" lon="1.221682">
        <ele>466.147</ele>
        <time>2021-08-19T08:26:50Z</time>
      </trkpt>
      <trkpt lat="41.680014" lon="1.221714">
        <ele>466.343</ele>
        <time>2021-08-19T08:27:17Z</time>
      </trkpt>
      <trkpt lat="41.680059" lon="1.221671">
        <ele>465.834</ele>
        <time>2021-08-19T08:27:41Z</time>
      </trkpt>
      <trkpt lat="41.680094" lon="1.221592">
        <ele>465.355</ele>
        <time>2021-08-19T08:27:43Z</time>
      </trkpt>
      <trkpt lat="41.680115" lon="1.221535">
        <ele>465.010</ele>
        <time>2021-08-19T08:27:45Z</time>
      </trkpt>
      <trkpt lat="41.680132" lon="1.221477">
        <ele>464.809</ele>
        <time>2021-08-19T08:27:46Z</time>
      </trkpt>
      <trkpt lat="41.680152" lon="1.221411">
        <ele>464.694</ele>
        <time>2021-08-19T08:27:48Z</time>
      </trkpt>
      <trkpt lat="41.680165" lon="1.221335">
        <ele>464.315</ele>
        <time>2021-08-19T08:27:50Z</time>
      </trkpt>
      <trkpt lat="41.680166" lon="1.221252">
        <ele>463.946</ele>
        <time>2021-08-19T08:27:51Z</time>
      </trkpt>
      <trkpt lat="41.680172" lon="1.221192">
        <ele>463.690</ele>
        <time>2021-08-19T08:27:53Z</time>
      </trkpt>
      <trkpt lat="41.680182" lon="1.221130">
        <ele>463.451</ele>
        <time>2021-08-19T08:27:54Z</time>
      </trkpt>
      <trkpt lat="41.680191" lon="1.221070">
        <ele>463.287</ele>
        <time>2021-08-19T08:27:56Z</time>
      </trkpt>
      <trkpt lat="41.680206" lon="1.221003">
        <ele>463.062</ele>
        <time>2021-08-19T08:27:57Z</time>
      </trkpt>
      <trkpt lat="41.680225" lon="1.220933">
        <ele>462.923</ele>
        <time>2021-08-19T08:27:59Z</time>
      </trkpt>
      <trkpt lat="41.680245" lon="1.220837">
        <ele>462.779</ele>
        <time>2021-08-19T08:28:01Z</time>
      </trkpt>
      <trkpt lat="41.680271" lon="1.220780">
        <ele>462.577</ele>
        <time>2021-08-19T08:28:03Z</time>
      </trkpt>
      <trkpt lat="41.680293" lon="1.220727">
        <ele>462.361</ele>
        <time>2021-08-19T08:28:04Z</time>
      </trkpt>
      <trkpt lat="41.680327" lon="1.220660">
        <ele>461.927</ele>
        <time>2021-08-19T08:28:06Z</time>
      </trkpt>
      <trkpt lat="41.680364" lon="1.220609">
        <ele>461.609</ele>
        <time>2021-08-19T08:28:08Z</time>
      </trkpt>
      <trkpt lat="41.680407" lon="1.220561">
        <ele>461.578</ele>
        <time>2021-08-19T08:28:10Z</time>
      </trkpt>
      <trkpt lat="41.680452" lon="1.220514">
        <ele>461.499</ele>
        <time>2021-08-19T08:28:12Z</time>
      </trkpt>
      <trkpt lat="41.680495" lon="1.220464">
        <ele>461.440</ele>
        <time>2021-08-19T08:28:14Z</time>
      </trkpt>
      <trkpt lat="41.680537" lon="1.220424">
        <ele>461.424</ele>
        <time>2021-08-19T08:28:16Z</time>
      </trkpt>
      <trkpt lat="41.680580" lon="1.220385">
        <ele>461.555</ele>
        <time>2021-08-19T08:28:17Z</time>
      </trkpt>
      <trkpt lat="41.680643" lon="1.220333">
        <ele>461.811</ele>
        <time>2021-08-19T08:28:20Z</time>
      </trkpt>
      <trkpt lat="41.680685" lon="1.220297">
        <ele>462.056</ele>
        <time>2021-08-19T08:28:22Z</time>
      </trkpt>
      <trkpt lat="41.680737" lon="1.220241">
        <ele>462.337</ele>
        <time>2021-08-19T08:28:24Z</time>
      </trkpt>
      <trkpt lat="41.680785" lon="1.220191">
        <ele>462.743</ele>
        <time>2021-08-19T08:28:26Z</time>
      </trkpt>
      <trkpt lat="41.680843" lon="1.220149">
        <ele>463.038</ele>
        <time>2021-08-19T08:28:28Z</time>
      </trkpt>
      <trkpt lat="41.680891" lon="1.220107">
        <ele>463.270</ele>
        <time>2021-08-19T08:28:30Z</time>
      </trkpt>
      <trkpt lat="41.680930" lon="1.220069">
        <ele>463.317</ele>
        <time>2021-08-19T08:28:32Z</time>
      </trkpt>
      <trkpt lat="41.680978" lon="1.220010">
        <ele>463.509</ele>
        <time>2021-08-19T08:28:34Z</time>
      </trkpt>
      <trkpt lat="41.681020" lon="1.219937">
        <ele>463.514</ele>
        <time>2021-08-19T08:28:36Z</time>
      </trkpt>
      <trkpt lat="41.681052" lon="1.219863">
        <ele>463.445</ele>
        <time>2021-08-19T08:28:38Z</time>
      </trkpt>
      <trkpt lat="41.681087" lon="1.219790">
        <ele>463.226</ele>
        <time>2021-08-19T08:28:40Z</time>
      </trkpt>
      <trkpt lat="41.681128" lon="1.219721">
        <ele>463.060</ele>
        <time>2021-08-19T08:28:42Z</time>
      </trkpt>
      <trkpt lat="41.681174" lon="1.219652">
        <ele>462.911</ele>
        <time>2021-08-19T08:28:44Z</time>
      </trkpt>
      <trkpt lat="41.681224" lon="1.219582">
        <ele>462.877</ele>
        <time>2021-08-19T08:28:46Z</time>
      </trkpt>
      <trkpt lat="41.681274" lon="1.219522">
        <ele>462.652</ele>
        <time>2021-08-19T08:28:48Z</time>
      </trkpt>
      <trkpt lat="41.681317" lon="1.219469">
        <ele>462.313</ele>
        <time>2021-08-19T08:28:50Z</time>
      </trkpt>
      <trkpt lat="41.681364" lon="1.219401">
        <ele>462.189</ele>
        <time>2021-08-19T08:28:52Z</time>
      </trkpt>
      <trkpt lat="41.681422" lon="1.219324">
        <ele>461.827</ele>
        <time>2021-08-19T08:28:54Z</time>
      </trkpt>
      <trkpt lat="41.681474" lon="1.219238">
        <ele>461.568</ele>
        <time>2021-08-19T08:28:56Z</time>
      </trkpt>
      <trkpt lat="41.681521" lon="1.219146">
        <ele>461.014</ele>
        <time>2021-08-19T08:28:58Z</time>
      </trkpt>
      <trkpt lat="41.681568" lon="1.219061">
        <ele>460.609</ele>
        <time>2021-08-19T08:29:00Z</time>
      </trkpt>
      <trkpt lat="41.681615" lon="1.218986">
        <ele>460.393</ele>
        <time>2021-08-19T08:29:02Z</time>
      </trkpt>
      <trkpt lat="41.681659" lon="1.218905">
        <ele>460.014</ele>
        <time>2021-08-19T08:29:04Z</time>
      </trkpt>
      <trkpt lat="41.681705" lon="1.218834">
        <ele>459.685</ele>
        <time>2021-08-19T08:29:06Z</time>
      </trkpt>
      <trkpt lat="41.681752" lon="1.218772">
        <ele>459.179</ele>
        <time>2021-08-19T08:29:08Z</time>
      </trkpt>
      <trkpt lat="41.681804" lon="1.218694">
        <ele>458.570</ele>
        <time>2021-08-19T08:29:10Z</time>
      </trkpt>
      <trkpt lat="41.681849" lon="1.218608">
        <ele>457.796</ele>
        <time>2021-08-19T08:29:12Z</time>
      </trkpt>
      <trkpt lat="41.681881" lon="1.218511">
        <ele>457.491</ele>
        <time>2021-08-19T08:29:14Z</time>
      </trkpt>
      <trkpt lat="41.681918" lon="1.218417">
        <ele>457.152</ele>
        <time>2021-08-19T08:29:16Z</time>
      </trkpt>
      <trkpt lat="41.681957" lon="1.218329">
        <ele>456.958</ele>
        <time>2021-08-19T08:29:18Z</time>
      </trkpt>
      <trkpt lat="41.681994" lon="1.218240">
        <ele>456.633</ele>
        <time>2021-08-19T08:29:20Z</time>
      </trkpt>
      <trkpt lat="41.682050" lon="1.218176">
        <ele>456.223</ele>
        <time>2021-08-19T08:29:22Z</time>
      </trkpt>
      <trkpt lat="41.682104" lon="1.218112">
        <ele>455.915</ele>
        <time>2021-08-19T08:29:24Z</time>
      </trkpt>
      <trkpt lat="41.682154" lon="1.218037">
        <ele>455.509</ele>
        <time>2021-08-19T08:29:26Z</time>
      </trkpt>
      <trkpt lat="41.682203" lon="1.217952">
        <ele>455.574</ele>
        <time>2021-08-19T08:29:28Z</time>
      </trkpt>
      <trkpt lat="41.682245" lon="1.217862">
        <ele>455.675</ele>
        <time>2021-08-19T08:29:30Z</time>
      </trkpt>
      <trkpt lat="41.682279" lon="1.217758">
        <ele>455.816</ele>
        <time>2021-08-19T08:29:32Z</time>
      </trkpt>
      <trkpt lat="41.682294" lon="1.217701">
        <ele>455.740</ele>
        <time>2021-08-19T08:29:33Z</time>
      </trkpt>
      <trkpt lat="41.682322" lon="1.217601">
        <ele>455.631</ele>
        <time>2021-08-19T08:29:35Z</time>
      </trkpt>
      <trkpt lat="41.682344" lon="1.217501">
        <ele>455.687</ele>
        <time>2021-08-19T08:29:37Z</time>
      </trkpt>
      <trkpt lat="41.682393" lon="1.217420">
        <ele>455.482</ele>
        <time>2021-08-19T08:29:39Z</time>
      </trkpt>
      <trkpt lat="41.682438" lon="1.217326">
        <ele>455.253</ele>
        <time>2021-08-19T08:29:41Z</time>
      </trkpt>
      <trkpt lat="41.682495" lon="1.217211">
        <ele>455.029</ele>
        <time>2021-08-19T08:29:43Z</time>
      </trkpt>
      <trkpt lat="41.682544" lon="1.217089">
        <ele>454.251</ele>
        <time>2021-08-19T08:29:45Z</time>
      </trkpt>
      <trkpt lat="41.682565" lon="1.217031">
        <ele>453.801</ele>
        <time>2021-08-19T08:29:46Z</time>
      </trkpt>
      <trkpt lat="41.682596" lon="1.216925">
        <ele>453.411</ele>
        <time>2021-08-19T08:29:48Z</time>
      </trkpt>
      <trkpt lat="41.682621" lon="1.216822">
        <ele>453.409</ele>
        <time>2021-08-19T08:29:50Z</time>
      </trkpt>
      <trkpt lat="41.682655" lon="1.216771">
        <ele>453.226</ele>
        <time>2021-08-19T08:29:51Z</time>
      </trkpt>
      <trkpt lat="41.682682" lon="1.216719">
        <ele>453.067</ele>
        <time>2021-08-19T08:29:52Z</time>
      </trkpt>
      <trkpt lat="41.682745" lon="1.216625">
        <ele>452.688</ele>
        <time>2021-08-19T08:29:54Z</time>
      </trkpt>
      <trkpt lat="41.682774" lon="1.216576">
        <ele>452.732</ele>
        <time>2021-08-19T08:29:55Z</time>
      </trkpt>
      <trkpt lat="41.682816" lon="1.216495">
        <ele>453.023</ele>
        <time>2021-08-19T08:29:57Z</time>
      </trkpt>
      <trkpt lat="41.682877" lon="1.216414">
        <ele>453.139</ele>
        <time>2021-08-19T08:29:59Z</time>
      </trkpt>
      <trkpt lat="41.682975" lon="1.216323">
        <ele>453.044</ele>
        <time>2021-08-19T08:30:01Z</time>
      </trkpt>
      <trkpt lat="41.683067" lon="1.216228">
        <ele>453.045</ele>
        <time>2021-08-19T08:30:03Z</time>
      </trkpt>
      <trkpt lat="41.683112" lon="1.216176">
        <ele>452.871</ele>
        <time>2021-08-19T08:30:04Z</time>
      </trkpt>
      <trkpt lat="41.683158" lon="1.216129">
        <ele>452.482</ele>
        <time>2021-08-19T08:30:05Z</time>
      </trkpt>
      <trkpt lat="41.683249" lon="1.216034">
        <ele>450.943</ele>
        <time>2021-08-19T08:30:07Z</time>
      </trkpt>
      <trkpt lat="41.683341" lon="1.215942">
        <ele>449.317</ele>
        <time>2021-08-19T08:30:09Z</time>
      </trkpt>
      <trkpt lat="41.683383" lon="1.215892">
        <ele>448.709</ele>
        <time>2021-08-19T08:30:10Z</time>
      </trkpt>
      <trkpt lat="41.683464" lon="1.215792">
        <ele>447.699</ele>
        <time>2021-08-19T08:30:12Z</time>
      </trkpt>
      <trkpt lat="41.683504" lon="1.215741">
        <ele>447.250</ele>
        <time>2021-08-19T08:30:13Z</time>
      </trkpt>
      <trkpt lat="41.683575" lon="1.215648">
        <ele>446.491</ele>
        <time>2021-08-19T08:30:15Z</time>
      </trkpt>
      <trkpt lat="41.683605" lon="1.215597">
        <ele>446.175</ele>
        <time>2021-08-19T08:30:16Z</time>
      </trkpt>
      <trkpt lat="41.683636" lon="1.215542">
        <ele>445.786</ele>
        <time>2021-08-19T08:30:17Z</time>
      </trkpt>
      <trkpt lat="41.683694" lon="1.215432">
        <ele>444.832</ele>
        <time>2021-08-19T08:30:19Z</time>
      </trkpt>
      <trkpt lat="41.683732" lon="1.215335">
        <ele>444.297</ele>
        <time>2021-08-19T08:30:21Z</time>
      </trkpt>
      <trkpt lat="41.683754" lon="1.215279">
        <ele>444.018</ele>
        <time>2021-08-19T08:30:22Z</time>
      </trkpt>
      <trkpt lat="41.683790" lon="1.215190">
        <ele>443.434</ele>
        <time>2021-08-19T08:30:24Z</time>
      </trkpt>
      <trkpt lat="41.683845" lon="1.215101">
        <ele>442.734</ele>
        <time>2021-08-19T08:30:26Z</time>
      </trkpt>
      <trkpt lat="41.683881" lon="1.215055">
        <ele>442.355</ele>
        <time>2021-08-19T08:30:28Z</time>
      </trkpt>
      <trkpt lat="41.683917" lon="1.215007">
        <ele>441.910</ele>
        <time>2021-08-19T08:30:29Z</time>
      </trkpt>
      <trkpt lat="41.683977" lon="1.214936">
        <ele>441.809</ele>
        <time>2021-08-19T08:30:31Z</time>
      </trkpt>
      <trkpt lat="41.684066" lon="1.214859">
        <ele>441.784</ele>
        <time>2021-08-19T08:30:33Z</time>
      </trkpt>
      <trkpt lat="41.684122" lon="1.214814">
        <ele>441.775</ele>
        <time>2021-08-19T08:30:34Z</time>
      </trkpt>
      <trkpt lat="41.684211" lon="1.214736">
        <ele>441.646</ele>
        <time>2021-08-19T08:30:36Z</time>
      </trkpt>
      <trkpt lat="41.684248" lon="1.214699">
        <ele>441.450</ele>
        <time>2021-08-19T08:30:37Z</time>
      </trkpt>
      <trkpt lat="41.684308" lon="1.214625">
        <ele>440.821</ele>
        <time>2021-08-19T08:30:39Z</time>
      </trkpt>
      <trkpt lat="41.684370" lon="1.214561">
        <ele>440.487</ele>
        <time>2021-08-19T08:30:41Z</time>
      </trkpt>
      <trkpt lat="41.684423" lon="1.214493">
        <ele>440.182</ele>
        <time>2021-08-19T08:30:43Z</time>
      </trkpt>
      <trkpt lat="41.684479" lon="1.214418">
        <ele>439.933</ele>
        <time>2021-08-19T08:30:45Z</time>
      </trkpt>
      <trkpt lat="41.684537" lon="1.214347">
        <ele>439.819</ele>
        <time>2021-08-19T08:30:47Z</time>
      </trkpt>
      <trkpt lat="41.684598" lon="1.214289">
        <ele>439.898</ele>
        <time>2021-08-19T08:30:49Z</time>
      </trkpt>
      <trkpt lat="41.684662" lon="1.214230">
        <ele>439.815</ele>
        <time>2021-08-19T08:30:51Z</time>
      </trkpt>
      <trkpt lat="41.684707" lon="1.214198">
        <ele>439.926</ele>
        <time>2021-08-19T08:30:52Z</time>
      </trkpt>
      <trkpt lat="41.684776" lon="1.214139">
        <ele>439.409</ele>
        <time>2021-08-19T08:30:54Z</time>
      </trkpt>
      <trkpt lat="41.684846" lon="1.214082">
        <ele>438.840</ele>
        <time>2021-08-19T08:30:56Z</time>
      </trkpt>
      <trkpt lat="41.684914" lon="1.214021">
        <ele>438.331</ele>
        <time>2021-08-19T08:30:58Z</time>
      </trkpt>
      <trkpt lat="41.684977" lon="1.213958">
        <ele>437.942</ele>
        <time>2021-08-19T08:31:00Z</time>
      </trkpt>
      <trkpt lat="41.685029" lon="1.213889">
        <ele>437.766</ele>
        <time>2021-08-19T08:31:02Z</time>
      </trkpt>
      <trkpt lat="41.685074" lon="1.213812">
        <ele>437.087</ele>
        <time>2021-08-19T08:31:04Z</time>
      </trkpt>
      <trkpt lat="41.685119" lon="1.213730">
        <ele>436.443</ele>
        <time>2021-08-19T08:31:06Z</time>
      </trkpt>
      <trkpt lat="41.685204" lon="1.213634">
        <ele>435.648</ele>
        <time>2021-08-19T08:31:08Z</time>
      </trkpt>
      <trkpt lat="41.685266" lon="1.213551">
        <ele>434.989</ele>
        <time>2021-08-19T08:31:10Z</time>
      </trkpt>
      <trkpt lat="41.685289" lon="1.213499">
        <ele>434.575</ele>
        <time>2021-08-19T08:31:11Z</time>
      </trkpt>
      <trkpt lat="41.685351" lon="1.213427">
        <ele>433.566</ele>
        <time>2021-08-19T08:31:13Z</time>
      </trkpt>
      <trkpt lat="41.685414" lon="1.213352">
        <ele>432.629</ele>
        <time>2021-08-19T08:31:15Z</time>
      </trkpt>
      <trkpt lat="41.685518" lon="1.213291">
        <ele>431.421</ele>
        <time>2021-08-19T08:31:17Z</time>
      </trkpt>
      <trkpt lat="41.685573" lon="1.213231">
        <ele>430.809</ele>
        <time>2021-08-19T08:31:19Z</time>
      </trkpt>
      <trkpt lat="41.685619" lon="1.213170">
        <ele>430.297</ele>
        <time>2021-08-19T08:31:21Z</time>
      </trkpt>
      <trkpt lat="41.685654" lon="1.213110">
        <ele>429.768</ele>
        <time>2021-08-19T08:31:23Z</time>
      </trkpt>
      <trkpt lat="41.685691" lon="1.213046">
        <ele>429.019</ele>
        <time>2021-08-19T08:31:25Z</time>
      </trkpt>
      <trkpt lat="41.685721" lon="1.212974">
        <ele>428.423</ele>
        <time>2021-08-19T08:31:27Z</time>
      </trkpt>
      <trkpt lat="41.685756" lon="1.212890">
        <ele>427.854</ele>
        <time>2021-08-19T08:31:29Z</time>
      </trkpt>
      <trkpt lat="41.685796" lon="1.212812">
        <ele>427.320</ele>
        <time>2021-08-19T08:31:30Z</time>
      </trkpt>
      <trkpt lat="41.685868" lon="1.212698">
        <ele>426.525</ele>
        <time>2021-08-19T08:31:32Z</time>
      </trkpt>
      <trkpt lat="41.685914" lon="1.212647">
        <ele>425.866</ele>
        <time>2021-08-19T08:31:33Z</time>
      </trkpt>
      <trkpt lat="41.685964" lon="1.212599">
        <ele>425.192</ele>
        <time>2021-08-19T08:31:34Z</time>
      </trkpt>
      <trkpt lat="41.686057" lon="1.212504">
        <ele>423.852</ele>
        <time>2021-08-19T08:31:36Z</time>
      </trkpt>
      <trkpt lat="41.686124" lon="1.212401">
        <ele>423.453</ele>
        <time>2021-08-19T08:31:38Z</time>
      </trkpt>
      <trkpt lat="41.686157" lon="1.212344">
        <ele>423.808</ele>
        <time>2021-08-19T08:31:39Z</time>
      </trkpt>
      <trkpt lat="41.686188" lon="1.212290">
        <ele>424.209</ele>
        <time>2021-08-19T08:31:40Z</time>
      </trkpt>
      <trkpt lat="41.686239" lon="1.212185">
        <ele>425.036</ele>
        <time>2021-08-19T08:31:42Z</time>
      </trkpt>
      <trkpt lat="41.686264" lon="1.212131">
        <ele>425.277</ele>
        <time>2021-08-19T08:31:43Z</time>
      </trkpt>
      <trkpt lat="41.686309" lon="1.212050">
        <ele>425.638</ele>
        <time>2021-08-19T08:31:45Z</time>
      </trkpt>
      <trkpt lat="41.686359" lon="1.211959">
        <ele>425.982</ele>
        <time>2021-08-19T08:31:47Z</time>
      </trkpt>
      <trkpt lat="41.686388" lon="1.211905">
        <ele>425.933</ele>
        <time>2021-08-19T08:31:48Z</time>
      </trkpt>
      <trkpt lat="41.686433" lon="1.211816">
        <ele>425.959</ele>
        <time>2021-08-19T08:31:50Z</time>
      </trkpt>
      <trkpt lat="41.686470" lon="1.211776">
        <ele>426.184</ele>
        <time>2021-08-19T08:31:51Z</time>
      </trkpt>
      <trkpt lat="41.686517" lon="1.211710">
        <ele>426.175</ele>
        <time>2021-08-19T08:31:53Z</time>
      </trkpt>
      <trkpt lat="41.686569" lon="1.211642">
        <ele>426.261</ele>
        <time>2021-08-19T08:31:55Z</time>
      </trkpt>
      <trkpt lat="41.686628" lon="1.211579">
        <ele>426.422</ele>
        <time>2021-08-19T08:31:57Z</time>
      </trkpt>
      <trkpt lat="41.686689" lon="1.211510">
        <ele>426.862</ele>
        <time>2021-08-19T08:31:59Z</time>
      </trkpt>
      <trkpt lat="41.686731" lon="1.211433">
        <ele>427.108</ele>
        <time>2021-08-19T08:32:01Z</time>
      </trkpt>
      <trkpt lat="41.686776" lon="1.211351">
        <ele>427.409</ele>
        <time>2021-08-19T08:32:03Z</time>
      </trkpt>
      <trkpt lat="41.686811" lon="1.211282">
        <ele>427.573</ele>
        <time>2021-08-19T08:32:05Z</time>
      </trkpt>
      <trkpt lat="41.686831" lon="1.211206">
        <ele>427.314</ele>
        <time>2021-08-19T08:32:07Z</time>
      </trkpt>
      <trkpt lat="41.686850" lon="1.211116">
        <ele>427.045</ele>
        <time>2021-08-19T08:32:09Z</time>
      </trkpt>
      <trkpt lat="41.686880" lon="1.211045">
        <ele>426.649</ele>
        <time>2021-08-19T08:32:11Z</time>
      </trkpt>
      <trkpt lat="41.686913" lon="1.210989">
        <ele>426.440</ele>
        <time>2021-08-19T08:32:13Z</time>
      </trkpt>
      <trkpt lat="41.686951" lon="1.210924">
        <ele>426.186</ele>
        <time>2021-08-19T08:32:16Z</time>
      </trkpt>
      <trkpt lat="41.686998" lon="1.210879">
        <ele>426.371</ele>
        <time>2021-08-19T08:32:19Z</time>
      </trkpt>
      <trkpt lat="41.687034" lon="1.210819">
        <ele>426.272</ele>
        <time>2021-08-19T08:32:22Z</time>
      </trkpt>
      <trkpt lat="41.687075" lon="1.210761">
        <ele>426.298</ele>
        <time>2021-08-19T08:32:26Z</time>
      </trkpt>
      <trkpt lat="41.687108" lon="1.210706">
        <ele>426.295</ele>
        <time>2021-08-19T08:32:29Z</time>
      </trkpt>
      <trkpt lat="41.687128" lon="1.210648">
        <ele>426.149</ele>
        <time>2021-08-19T08:32:31Z</time>
      </trkpt>
      <trkpt lat="41.687137" lon="1.210584">
        <ele>425.723</ele>
        <time>2021-08-19T08:32:33Z</time>
      </trkpt>
      <trkpt lat="41.687153" lon="1.210500">
        <ele>425.609</ele>
        <time>2021-08-19T08:32:35Z</time>
      </trkpt>
      <trkpt lat="41.687170" lon="1.210421">
        <ele>425.610</ele>
        <time>2021-08-19T08:32:37Z</time>
      </trkpt>
      <trkpt lat="41.687199" lon="1.210344">
        <ele>425.871</ele>
        <time>2021-08-19T08:32:39Z</time>
      </trkpt>
      <trkpt lat="41.687226" lon="1.210268">
        <ele>426.022</ele>
        <time>2021-08-19T08:32:41Z</time>
      </trkpt>
      <trkpt lat="41.687240" lon="1.210200">
        <ele>426.166</ele>
        <time>2021-08-19T08:32:43Z</time>
      </trkpt>
      <trkpt lat="41.687255" lon="1.210134">
        <ele>426.147</ele>
        <time>2021-08-19T08:32:44Z</time>
      </trkpt>
      <trkpt lat="41.687282" lon="1.210024">
        <ele>426.243</ele>
        <time>2021-08-19T08:32:46Z</time>
      </trkpt>
      <trkpt lat="41.687307" lon="1.209926">
        <ele>425.928</ele>
        <time>2021-08-19T08:32:48Z</time>
      </trkpt>
      <trkpt lat="41.687328" lon="1.209835">
        <ele>425.519</ele>
        <time>2021-08-19T08:32:50Z</time>
      </trkpt>
      <trkpt lat="41.687350" lon="1.209772">
        <ele>425.375</ele>
        <time>2021-08-19T08:32:52Z</time>
      </trkpt>
      <trkpt lat="41.687376" lon="1.209687">
        <ele>424.926</ele>
        <time>2021-08-19T08:32:54Z</time>
      </trkpt>
      <trkpt lat="41.687406" lon="1.209605">
        <ele>424.547</ele>
        <time>2021-08-19T08:32:56Z</time>
      </trkpt>
      <trkpt lat="41.687439" lon="1.209510">
        <ele>424.011</ele>
        <time>2021-08-19T08:32:58Z</time>
      </trkpt>
      <trkpt lat="41.687471" lon="1.209416">
        <ele>423.509</ele>
        <time>2021-08-19T08:33:00Z</time>
      </trkpt>
      <trkpt lat="41.687496" lon="1.209316">
        <ele>423.023</ele>
        <time>2021-08-19T08:33:02Z</time>
      </trkpt>
      <trkpt lat="41.687517" lon="1.209239">
        <ele>422.854</ele>
        <time>2021-08-19T08:33:04Z</time>
      </trkpt>
      <trkpt lat="41.687546" lon="1.209168">
        <ele>422.795</ele>
        <time>2021-08-19T08:33:06Z</time>
      </trkpt>
      <trkpt lat="41.687571" lon="1.209104">
        <ele>423.019</ele>
        <time>2021-08-19T08:33:08Z</time>
      </trkpt>
      <trkpt lat="41.687594" lon="1.209036">
        <ele>423.220</ele>
        <time>2021-08-19T08:33:10Z</time>
      </trkpt>
      <trkpt lat="41.687614" lon="1.208964">
        <ele>423.316</ele>
        <time>2021-08-19T08:33:12Z</time>
      </trkpt>
      <trkpt lat="41.687637" lon="1.208884">
        <ele>423.541</ele>
        <time>2021-08-19T08:33:14Z</time>
      </trkpt>
      <trkpt lat="41.687645" lon="1.208806">
        <ele>423.432</ele>
        <time>2021-08-19T08:33:16Z</time>
      </trkpt>
      <trkpt lat="41.687650" lon="1.208725">
        <ele>423.378</ele>
        <time>2021-08-19T08:33:18Z</time>
      </trkpt>
      <trkpt lat="41.687656" lon="1.208648">
        <ele>423.341</ele>
        <time>2021-08-19T08:33:20Z</time>
      </trkpt>
      <trkpt lat="41.687661" lon="1.208577">
        <ele>423.181</ele>
        <time>2021-08-19T08:33:22Z</time>
      </trkpt>
      <trkpt lat="41.687671" lon="1.208503">
        <ele>422.809</ele>
        <time>2021-08-19T08:33:24Z</time>
      </trkpt>
      <trkpt lat="41.687682" lon="1.208429">
        <ele>422.509</ele>
        <time>2021-08-19T08:33:26Z</time>
      </trkpt>
      <trkpt lat="41.687700" lon="1.208356">
        <ele>422.385</ele>
        <time>2021-08-19T08:33:28Z</time>
      </trkpt>
      <trkpt lat="41.687715" lon="1.208285">
        <ele>422.136</ele>
        <time>2021-08-19T08:33:30Z</time>
      </trkpt>
      <trkpt lat="41.687728" lon="1.208211">
        <ele>422.047</ele>
        <time>2021-08-19T08:33:32Z</time>
      </trkpt>
      <trkpt lat="41.687737" lon="1.208140">
        <ele>421.941</ele>
        <time>2021-08-19T08:33:34Z</time>
      </trkpt>
      <trkpt lat="41.687743" lon="1.208070">
        <ele>421.712</ele>
        <time>2021-08-19T08:33:36Z</time>
      </trkpt>
      <trkpt lat="41.687751" lon="1.207996">
        <ele>421.788</ele>
        <time>2021-08-19T08:33:38Z</time>
      </trkpt>
      <trkpt lat="41.687766" lon="1.207914">
        <ele>421.963</ele>
        <time>2021-08-19T08:33:40Z</time>
      </trkpt>
      <trkpt lat="41.687778" lon="1.207841">
        <ele>422.034</ele>
        <time>2021-08-19T08:33:42Z</time>
      </trkpt>
      <trkpt lat="41.687788" lon="1.207736">
        <ele>422.080</ele>
        <time>2021-08-19T08:33:44Z</time>
      </trkpt>
      <trkpt lat="41.687819" lon="1.207610">
        <ele>422.195</ele>
        <time>2021-08-19T08:33:46Z</time>
      </trkpt>
      <trkpt lat="41.687794" lon="1.207556">
        <ele>421.549</ele>
        <time>2021-08-19T08:33:48Z</time>
      </trkpt>
      <trkpt lat="41.687802" lon="1.207468">
        <ele>421.323</ele>
        <time>2021-08-19T08:33:50Z</time>
      </trkpt>
      <trkpt lat="41.687821" lon="1.207398">
        <ele>421.409</ele>
        <time>2021-08-19T08:33:52Z</time>
      </trkpt>
      <trkpt lat="41.687836" lon="1.207331">
        <ele>421.430</ele>
        <time>2021-08-19T08:33:54Z</time>
      </trkpt>
      <trkpt lat="41.687851" lon="1.207268">
        <ele>421.511</ele>
        <time>2021-08-19T08:33:56Z</time>
      </trkpt>
      <trkpt lat="41.687857" lon="1.207205">
        <ele>421.492</ele>
        <time>2021-08-19T08:33:58Z</time>
      </trkpt>
      <trkpt lat="41.687859" lon="1.207118">
        <ele>421.346</ele>
        <time>2021-08-19T08:34:01Z</time>
      </trkpt>
      <trkpt lat="41.687884" lon="1.207065">
        <ele>421.827</ele>
        <time>2021-08-19T08:34:04Z</time>
      </trkpt>
      <trkpt lat="41.687912" lon="1.206999">
        <ele>422.463</ele>
        <time>2021-08-19T08:34:08Z</time>
      </trkpt>
      <trkpt lat="41.687938" lon="1.206938">
        <ele>423.168</ele>
        <time>2021-08-19T08:34:11Z</time>
      </trkpt>
      <trkpt lat="41.687972" lon="1.206877">
        <ele>424.079</ele>
        <time>2021-08-19T08:34:15Z</time>
      </trkpt>
      <trkpt lat="41.688017" lon="1.206835">
        <ele>425.155</ele>
        <time>2021-08-19T08:34:18Z</time>
      </trkpt>
      <trkpt lat="41.688059" lon="1.206783">
        <ele>426.177</ele>
        <time>2021-08-19T08:34:21Z</time>
      </trkpt>
      <trkpt lat="41.688092" lon="1.206727">
        <ele>426.861</ele>
        <time>2021-08-19T08:34:24Z</time>
      </trkpt>
      <trkpt lat="41.688123" lon="1.206675">
        <ele>427.527</ele>
        <time>2021-08-19T08:34:28Z</time>
      </trkpt>
      <trkpt lat="41.688123" lon="1.206598">
        <ele>427.909</ele>
        <time>2021-08-19T08:34:33Z</time>
      </trkpt>
      <trkpt lat="41.688126" lon="1.206533">
        <ele>428.468</ele>
        <time>2021-08-19T08:34:37Z</time>
      </trkpt>
      <trkpt lat="41.688106" lon="1.206479">
        <ele>428.359</ele>
        <time>2021-08-19T08:35:14Z</time>
      </trkpt>
      <trkpt lat="41.688106" lon="1.206412">
        <ele>428.870</ele>
        <time>2021-08-19T08:36:29Z</time>
      </trkpt>
      <trkpt lat="41.688106" lon="1.206320">
        <ele>429.624</ele>
        <time>2021-08-19T08:36:32Z</time>
      </trkpt>
      <trkpt lat="41.688113" lon="1.206256">
        <ele>430.465</ele>
        <time>2021-08-19T08:36:34Z</time>
      </trkpt>
      <trkpt lat="41.688114" lon="1.206195">
        <ele>431.051</ele>
        <time>2021-08-19T08:36:36Z</time>
      </trkpt>
      <trkpt lat="41.688115" lon="1.206116">
        <ele>431.826</ele>
        <time>2021-08-19T08:36:39Z</time>
      </trkpt>
      <trkpt lat="41.688122" lon="1.206047">
        <ele>432.157</ele>
        <time>2021-08-19T08:36:42Z</time>
      </trkpt>
      <trkpt lat="41.688124" lon="1.205970">
        <ele>432.293</ele>
        <time>2021-08-19T08:36:45Z</time>
      </trkpt>
      <trkpt lat="41.688140" lon="1.205913">
        <ele>432.692</ele>
        <time>2021-08-19T08:36:47Z</time>
      </trkpt>
      <trkpt lat="41.688184" lon="1.205863">
        <ele>433.773</ele>
        <time>2021-08-19T08:36:50Z</time>
      </trkpt>
      <trkpt lat="41.688207" lon="1.205797">
        <ele>434.420</ele>
        <time>2021-08-19T08:36:53Z</time>
      </trkpt>
      <trkpt lat="41.688218" lon="1.205723">
        <ele>435.009</ele>
        <time>2021-08-19T08:36:56Z</time>
      </trkpt>
      <trkpt lat="41.688201" lon="1.205656">
        <ele>434.830</ele>
        <time>2021-08-19T08:36:59Z</time>
      </trkpt>
      <trkpt lat="41.688180" lon="1.205590">
        <ele>434.581</ele>
        <time>2021-08-19T08:37:01Z</time>
      </trkpt>
      <trkpt lat="41.688173" lon="1.205521">
        <ele>434.522</ele>
        <time>2021-08-19T08:37:03Z</time>
      </trkpt>
      <trkpt lat="41.688147" lon="1.205438">
        <ele>434.146</ele>
        <time>2021-08-19T08:37:05Z</time>
      </trkpt>
      <trkpt lat="41.688130" lon="1.205377">
        <ele>433.817</ele>
        <time>2021-08-19T08:37:06Z</time>
      </trkpt>
      <trkpt lat="41.688104" lon="1.205312">
        <ele>433.393</ele>
        <time>2021-08-19T08:37:08Z</time>
      </trkpt>
      <trkpt lat="41.688152" lon="1.205294">
        <ele>434.798</ele>
        <time>2021-08-19T08:37:10Z</time>
      </trkpt>
      <trkpt lat="41.688129" lon="1.205226">
        <ele>434.139</ele>
        <time>2021-08-19T08:37:12Z</time>
      </trkpt>
      <trkpt lat="41.688108" lon="1.205167">
        <ele>433.555</ele>
        <time>2021-08-19T08:37:14Z</time>
      </trkpt>
      <trkpt lat="41.688089" lon="1.205109">
        <ele>433.055</ele>
        <time>2021-08-19T08:37:15Z</time>
      </trkpt>
      <trkpt lat="41.688071" lon="1.205050">
        <ele>432.407</ele>
        <time>2021-08-19T08:37:16Z</time>
      </trkpt>
      <trkpt lat="41.688056" lon="1.204981">
        <ele>432.017</ele>
        <time>2021-08-19T08:37:18Z</time>
      </trkpt>
      <trkpt lat="41.688028" lon="1.204906">
        <ele>431.109</ele>
        <time>2021-08-19T08:37:20Z</time>
      </trkpt>
      <trkpt lat="41.688008" lon="1.204841">
        <ele>430.696</ele>
        <time>2021-08-19T08:37:22Z</time>
      </trkpt>
      <trkpt lat="41.687996" lon="1.204763">
        <ele>430.327</ele>
        <time>2021-08-19T08:37:24Z</time>
      </trkpt>
      <trkpt lat="41.687969" lon="1.204712">
        <ele>429.678</ele>
        <time>2021-08-19T08:37:26Z</time>
      </trkpt>
      <trkpt lat="41.687944" lon="1.204643">
        <ele>429.252</ele>
        <time>2021-08-19T08:37:29Z</time>
      </trkpt>
      <trkpt lat="41.687917" lon="1.204557">
        <ele>428.973</ele>
        <time>2021-08-19T08:37:32Z</time>
      </trkpt>
      <trkpt lat="41.687893" lon="1.204493">
        <ele>428.689</ele>
        <time>2021-08-19T08:37:33Z</time>
      </trkpt>
      <trkpt lat="41.687872" lon="1.204403">
        <ele>428.324</ele>
        <time>2021-08-19T08:37:35Z</time>
      </trkpt>
      <trkpt lat="41.687861" lon="1.204337">
        <ele>428.025</ele>
        <time>2021-08-19T08:37:37Z</time>
      </trkpt>
      <trkpt lat="41.687862" lon="1.204269">
        <ele>427.961</ele>
        <time>2021-08-19T08:37:38Z</time>
      </trkpt>
      <trkpt lat="41.687862" lon="1.204202">
        <ele>427.938</ele>
        <time>2021-08-19T08:37:40Z</time>
      </trkpt>
      <trkpt lat="41.687865" lon="1.204141">
        <ele>427.870</ele>
        <time>2021-08-19T08:37:42Z</time>
      </trkpt>
      <trkpt lat="41.687887" lon="1.204086">
        <ele>428.017</ele>
        <time>2021-08-19T08:37:44Z</time>
      </trkpt>
      <trkpt lat="41.687912" lon="1.204036">
        <ele>428.209</ele>
        <time>2021-08-19T08:37:46Z</time>
      </trkpt>
      <trkpt lat="41.687954" lon="1.203997">
        <ele>428.874</ele>
        <time>2021-08-19T08:37:48Z</time>
      </trkpt>
      <trkpt lat="41.687989" lon="1.203958">
        <ele>429.225</ele>
        <time>2021-08-19T08:37:50Z</time>
      </trkpt>
      <trkpt lat="41.688038" lon="1.203918">
        <ele>429.966</ele>
        <time>2021-08-19T08:37:53Z</time>
      </trkpt>
      <trkpt lat="41.688079" lon="1.203869">
        <ele>430.220</ele>
        <time>2021-08-19T08:37:55Z</time>
      </trkpt>
      <trkpt lat="41.688114" lon="1.203823">
        <ele>430.511</ele>
        <time>2021-08-19T08:37:57Z</time>
      </trkpt>
      <trkpt lat="41.688162" lon="1.203768">
        <ele>430.847</ele>
        <time>2021-08-19T08:38:00Z</time>
      </trkpt>
      <trkpt lat="41.688199" lon="1.203723">
        <ele>430.942</ele>
        <time>2021-08-19T08:38:02Z</time>
      </trkpt>
      <trkpt lat="41.688246" lon="1.203687">
        <ele>431.133</ele>
        <time>2021-08-19T08:38:04Z</time>
      </trkpt>
      <trkpt lat="41.688289" lon="1.203662">
        <ele>431.179</ele>
        <time>2021-08-19T08:38:06Z</time>
      </trkpt>
      <trkpt lat="41.688337" lon="1.203648">
        <ele>431.396</ele>
        <time>2021-08-19T08:38:08Z</time>
      </trkpt>
      <trkpt lat="41.688385" lon="1.203648">
        <ele>431.331</ele>
        <time>2021-08-19T08:38:10Z</time>
      </trkpt>
      <trkpt lat="41.688443" lon="1.203667">
        <ele>431.524</ele>
        <time>2021-08-19T08:38:13Z</time>
      </trkpt>
      <trkpt lat="41.688490" lon="1.203711">
        <ele>431.909</ele>
        <time>2021-08-19T08:38:16Z</time>
      </trkpt>
      <trkpt lat="41.688517" lon="1.203760">
        <ele>432.460</ele>
        <time>2021-08-19T08:38:18Z</time>
      </trkpt>
      <trkpt lat="41.688546" lon="1.203807">
        <ele>432.941</ele>
        <time>2021-08-19T08:38:21Z</time>
      </trkpt>
      <trkpt lat="41.688582" lon="1.203852">
        <ele>433.552</ele>
        <time>2021-08-19T08:38:23Z</time>
      </trkpt>
      <trkpt lat="41.688613" lon="1.203912">
        <ele>434.436</ele>
        <time>2021-08-19T08:38:26Z</time>
      </trkpt>
      <trkpt lat="41.688643" lon="1.203965">
        <ele>435.387</ele>
        <time>2021-08-19T08:38:29Z</time>
      </trkpt>
      <trkpt lat="41.688678" lon="1.204009">
        <ele>436.173</ele>
        <time>2021-08-19T08:38:32Z</time>
      </trkpt>
      <trkpt lat="41.688706" lon="1.204057">
        <ele>436.848</ele>
        <time>2021-08-19T08:38:35Z</time>
      </trkpt>
      <trkpt lat="41.688740" lon="1.204112">
        <ele>437.649</ele>
        <time>2021-08-19T08:38:38Z</time>
      </trkpt>
      <trkpt lat="41.688782" lon="1.204164">
        <ele>438.395</ele>
        <time>2021-08-19T08:38:42Z</time>
      </trkpt>
      <trkpt lat="41.688822" lon="1.204214">
        <ele>438.576</ele>
        <time>2021-08-19T08:38:45Z</time>
      </trkpt>
      <trkpt lat="41.688860" lon="1.204258">
        <ele>438.590</ele>
        <time>2021-08-19T08:38:49Z</time>
      </trkpt>
      <trkpt lat="41.688906" lon="1.204303">
        <ele>438.219</ele>
        <time>2021-08-19T08:38:52Z</time>
      </trkpt>
      <trkpt lat="41.688943" lon="1.204343">
        <ele>437.709</ele>
        <time>2021-08-19T08:38:55Z</time>
      </trkpt>
      <trkpt lat="41.688978" lon="1.204391">
        <ele>437.378</ele>
        <time>2021-08-19T08:39:01Z</time>
      </trkpt>
      <trkpt lat="41.689024" lon="1.204385">
        <ele>436.569</ele>
        <time>2021-08-19T08:39:38Z</time>
      </trkpt>
      <trkpt lat="41.689065" lon="1.204330">
        <ele>435.770</ele>
        <time>2021-08-19T08:39:40Z</time>
      </trkpt>
      <trkpt lat="41.689095" lon="1.204264">
        <ele>435.144</ele>
        <time>2021-08-19T08:39:43Z</time>
      </trkpt>
      <trkpt lat="41.689143" lon="1.204171">
        <ele>434.385</ele>
        <time>2021-08-19T08:39:45Z</time>
      </trkpt>
      <trkpt lat="41.689183" lon="1.204081">
        <ele>433.211</ele>
        <time>2021-08-19T08:39:47Z</time>
      </trkpt>
      <trkpt lat="41.689223" lon="1.204000">
        <ele>432.456</ele>
        <time>2021-08-19T08:39:49Z</time>
      </trkpt>
      <trkpt lat="41.689254" lon="1.203932">
        <ele>431.917</ele>
        <time>2021-08-19T08:39:51Z</time>
      </trkpt>
      <trkpt lat="41.689287" lon="1.203858">
        <ele>431.463</ele>
        <time>2021-08-19T08:39:53Z</time>
      </trkpt>
      <trkpt lat="41.689330" lon="1.203779">
        <ele>430.858</ele>
        <time>2021-08-19T08:39:55Z</time>
      </trkpt>
      <trkpt lat="41.689353" lon="1.203726">
        <ele>430.352</ele>
        <time>2021-08-19T08:39:56Z</time>
      </trkpt>
      <trkpt lat="41.689374" lon="1.203656">
        <ele>429.817</ele>
        <time>2021-08-19T08:39:57Z</time>
      </trkpt>
      <trkpt lat="41.689417" lon="1.203529">
        <ele>428.309</ele>
        <time>2021-08-19T08:39:59Z</time>
      </trkpt>
      <trkpt lat="41.689477" lon="1.203419">
        <ele>426.876</ele>
        <time>2021-08-19T08:40:01Z</time>
      </trkpt>
      <trkpt lat="41.689530" lon="1.203302">
        <ele>425.667</ele>
        <time>2021-08-19T08:40:03Z</time>
      </trkpt>
      <trkpt lat="41.689587" lon="1.203183">
        <ele>424.948</ele>
        <time>2021-08-19T08:40:05Z</time>
      </trkpt>
      <trkpt lat="41.689642" lon="1.203079">
        <ele>424.442</ele>
        <time>2021-08-19T08:40:07Z</time>
      </trkpt>
      <trkpt lat="41.689669" lon="1.203014">
        <ele>424.023</ele>
        <time>2021-08-19T08:40:09Z</time>
      </trkpt>
      <trkpt lat="41.689712" lon="1.202963">
        <ele>423.729</ele>
        <time>2021-08-19T08:40:11Z</time>
      </trkpt>
      <trkpt lat="41.689727" lon="1.202888">
        <ele>423.474</ele>
        <time>2021-08-19T08:40:13Z</time>
      </trkpt>
      <trkpt lat="41.689742" lon="1.202825">
        <ele>423.185</ele>
        <time>2021-08-19T08:40:15Z</time>
      </trkpt>
      <trkpt lat="41.689779" lon="1.202757">
        <ele>422.771</ele>
        <time>2021-08-19T08:40:18Z</time>
      </trkpt>
      <trkpt lat="41.689827" lon="1.202742">
        <ele>422.567</ele>
        <time>2021-08-19T08:40:20Z</time>
      </trkpt>
      <trkpt lat="41.689877" lon="1.202748">
        <ele>422.381</ele>
        <time>2021-08-19T08:40:22Z</time>
      </trkpt>
      <trkpt lat="41.689924" lon="1.202776">
        <ele>422.319</ele>
        <time>2021-08-19T08:40:24Z</time>
      </trkpt>
      <trkpt lat="41.689980" lon="1.202807">
        <ele>422.209</ele>
        <time>2021-08-19T08:40:26Z</time>
      </trkpt>
      <trkpt lat="41.690037" lon="1.202831">
        <ele>422.097</ele>
        <time>2021-08-19T08:40:28Z</time>
      </trkpt>
      <trkpt lat="41.690088" lon="1.202860">
        <ele>421.878</ele>
        <time>2021-08-19T08:40:30Z</time>
      </trkpt>
      <trkpt lat="41.690138" lon="1.202881">
        <ele>421.639</ele>
        <time>2021-08-19T08:40:32Z</time>
      </trkpt>
      <trkpt lat="41.690186" lon="1.202901">
        <ele>421.493</ele>
        <time>2021-08-19T08:40:34Z</time>
      </trkpt>
      <trkpt lat="41.690234" lon="1.202920">
        <ele>421.374</ele>
        <time>2021-08-19T08:40:36Z</time>
      </trkpt>
      <trkpt lat="41.690289" lon="1.202945">
        <ele>421.180</ele>
        <time>2021-08-19T08:40:38Z</time>
      </trkpt>
      <trkpt lat="41.690338" lon="1.202961">
        <ele>420.545</ele>
        <time>2021-08-19T08:40:40Z</time>
      </trkpt>
      <trkpt lat="41.690392" lon="1.202965">
        <ele>419.866</ele>
        <time>2021-08-19T08:40:42Z</time>
      </trkpt>
      <trkpt lat="41.690443" lon="1.202950">
        <ele>419.192</ele>
        <time>2021-08-19T08:40:44Z</time>
      </trkpt>
      <trkpt lat="41.690504" lon="1.202946">
        <ele>418.333</ele>
        <time>2021-08-19T08:40:46Z</time>
      </trkpt>
      <trkpt lat="41.690574" lon="1.202926">
        <ele>417.523</ele>
        <time>2021-08-19T08:40:48Z</time>
      </trkpt>
      <trkpt lat="41.690654" lon="1.202908">
        <ele>417.515</ele>
        <time>2021-08-19T08:40:50Z</time>
      </trkpt>
      <trkpt lat="41.690730" lon="1.202885">
        <ele>417.409</ele>
        <time>2021-08-19T08:40:52Z</time>
      </trkpt>
      <trkpt lat="41.690813" lon="1.202864">
        <ele>417.314</ele>
        <time>2021-08-19T08:40:54Z</time>
      </trkpt>
      <trkpt lat="41.690891" lon="1.202845">
        <ele>417.075</ele>
        <time>2021-08-19T08:40:56Z</time>
      </trkpt>
      <trkpt lat="41.690965" lon="1.202825">
        <ele>416.766</ele>
        <time>2021-08-19T08:40:58Z</time>
      </trkpt>
      <trkpt lat="41.691047" lon="1.202806">
        <ele>416.370</ele>
        <time>2021-08-19T08:41:00Z</time>
      </trkpt>
      <trkpt lat="41.691132" lon="1.202792">
        <ele>416.091</ele>
        <time>2021-08-19T08:41:02Z</time>
      </trkpt>
      <trkpt lat="41.691219" lon="1.202779">
        <ele>415.637</ele>
        <time>2021-08-19T08:41:04Z</time>
      </trkpt>
      <trkpt lat="41.691333" lon="1.202777">
        <ele>415.292</ele>
        <time>2021-08-19T08:41:06Z</time>
      </trkpt>
      <trkpt lat="41.691379" lon="1.202774">
        <ele>415.023</ele>
        <time>2021-08-19T08:41:07Z</time>
      </trkpt>
      <trkpt lat="41.691489" lon="1.202759">
        <ele>414.639</ele>
        <time>2021-08-19T08:41:09Z</time>
      </trkpt>
      <trkpt lat="41.691545" lon="1.202750">
        <ele>414.443</ele>
        <time>2021-08-19T08:41:10Z</time>
      </trkpt>
      <trkpt lat="41.691665" lon="1.202736">
        <ele>413.964</ele>
        <time>2021-08-19T08:41:12Z</time>
      </trkpt>
      <trkpt lat="41.691730" lon="1.202732">
        <ele>413.310</ele>
        <time>2021-08-19T08:41:13Z</time>
      </trkpt>
      <trkpt lat="41.691854" lon="1.202726">
        <ele>412.309</ele>
        <time>2021-08-19T08:41:15Z</time>
      </trkpt>
      <trkpt lat="41.691919" lon="1.202723">
        <ele>411.895</ele>
        <time>2021-08-19T08:41:16Z</time>
      </trkpt>
      <trkpt lat="41.692043" lon="1.202720">
        <ele>410.766</ele>
        <time>2021-08-19T08:41:18Z</time>
      </trkpt>
      <trkpt lat="41.692162" lon="1.202733">
        <ele>409.647</ele>
        <time>2021-08-19T08:41:20Z</time>
      </trkpt>
      <trkpt lat="41.692276" lon="1.202758">
        <ele>408.851</ele>
        <time>2021-08-19T08:41:22Z</time>
      </trkpt>
      <trkpt lat="41.692334" lon="1.202768">
        <ele>408.622</ele>
        <time>2021-08-19T08:41:23Z</time>
      </trkpt>
      <trkpt lat="41.692449" lon="1.202757">
        <ele>408.198</ele>
        <time>2021-08-19T08:41:25Z</time>
      </trkpt>
      <trkpt lat="41.692499" lon="1.202732">
        <ele>407.893</ele>
        <time>2021-08-19T08:41:26Z</time>
      </trkpt>
      <trkpt lat="41.692543" lon="1.202701">
        <ele>407.854</ele>
        <time>2021-08-19T08:41:27Z</time>
      </trkpt>
      <trkpt lat="41.692583" lon="1.202667">
        <ele>407.760</ele>
        <time>2021-08-19T08:41:28Z</time>
      </trkpt>
      <trkpt lat="41.692650" lon="1.202612">
        <ele>407.797</ele>
        <time>2021-08-19T08:41:30Z</time>
      </trkpt>
      <trkpt lat="41.692712" lon="1.202546">
        <ele>407.823</ele>
        <time>2021-08-19T08:41:32Z</time>
      </trkpt>
      <trkpt lat="41.692768" lon="1.202487">
        <ele>408.025</ele>
        <time>2021-08-19T08:41:34Z</time>
      </trkpt>
      <trkpt lat="41.692820" lon="1.202468">
        <ele>408.109</ele>
        <time>2021-08-19T08:41:38Z</time>
      </trkpt>
      <trkpt lat="41.692866" lon="1.202433">
        <ele>408.250</ele>
        <time>2021-08-19T08:41:39Z</time>
      </trkpt>
      <trkpt lat="41.692921" lon="1.202377">
        <ele>408.391</ele>
        <time>2021-08-19T08:41:40Z</time>
      </trkpt>
      <trkpt lat="41.692972" lon="1.202321">
        <ele>408.232</ele>
        <time>2021-08-19T08:41:42Z</time>
      </trkpt>
      <trkpt lat="41.693007" lon="1.202268">
        <ele>408.176</ele>
        <time>2021-08-19T08:41:44Z</time>
      </trkpt>
      <trkpt lat="41.693039" lon="1.202198">
        <ele>408.047</ele>
        <time>2021-08-19T08:41:46Z</time>
      </trkpt>
      <trkpt lat="41.693071" lon="1.202126">
        <ele>408.073</ele>
        <time>2021-08-19T08:41:48Z</time>
      </trkpt>
      <trkpt lat="41.693103" lon="1.202056">
        <ele>408.188</ele>
        <time>2021-08-19T08:41:50Z</time>
      </trkpt>
      <trkpt lat="41.693138" lon="1.201983">
        <ele>408.369</ele>
        <time>2021-08-19T08:41:52Z</time>
      </trkpt>
      <trkpt lat="41.693176" lon="1.201909">
        <ele>408.585</ele>
        <time>2021-08-19T08:41:54Z</time>
      </trkpt>
      <trkpt lat="41.693213" lon="1.201838">
        <ele>408.846</ele>
        <time>2021-08-19T08:41:56Z</time>
      </trkpt>
      <trkpt lat="41.693248" lon="1.201772">
        <ele>409.188</ele>
        <time>2021-08-19T08:41:58Z</time>
      </trkpt>
      <trkpt lat="41.693274" lon="1.201709">
        <ele>409.516</ele>
        <time>2021-08-19T08:42:00Z</time>
      </trkpt>
      <trkpt lat="41.693295" lon="1.201651">
        <ele>409.809</ele>
        <time>2021-08-19T08:42:02Z</time>
      </trkpt>
      <trkpt lat="41.693327" lon="1.201576">
        <ele>410.685</ele>
        <time>2021-08-19T08:42:05Z</time>
      </trkpt>
      <trkpt lat="41.693363" lon="1.201512">
        <ele>411.246</ele>
        <time>2021-08-19T08:42:08Z</time>
      </trkpt>
      <trkpt lat="41.693397" lon="1.201448">
        <ele>411.897</ele>
        <time>2021-08-19T08:42:11Z</time>
      </trkpt>
      <trkpt lat="41.693424" lon="1.201388">
        <ele>412.381</ele>
        <time>2021-08-19T08:42:14Z</time>
      </trkpt>
      <trkpt lat="41.693448" lon="1.201333">
        <ele>412.962</ele>
        <time>2021-08-19T08:42:17Z</time>
      </trkpt>
      <trkpt lat="41.693452" lon="1.201243">
        <ele>413.798</ele>
        <time>2021-08-19T08:42:20Z</time>
      </trkpt>
      <trkpt lat="41.693434" lon="1.201163">
        <ele>414.323</ele>
        <time>2021-08-19T08:42:22Z</time>
      </trkpt>
      <trkpt lat="41.693478" lon="1.201133">
        <ele>414.864</ele>
        <time>2021-08-19T08:43:19Z</time>
      </trkpt>
      <trkpt lat="41.693484" lon="1.201058">
        <ele>415.390</ele>
        <time>2021-08-19T08:43:21Z</time>
      </trkpt>
      <trkpt lat="41.693485" lon="1.200997">
        <ele>415.573</ele>
        <time>2021-08-19T08:43:23Z</time>
      </trkpt>
      <trkpt lat="41.693513" lon="1.200929">
        <ele>415.985</ele>
        <time>2021-08-19T08:43:27Z</time>
      </trkpt>
      <trkpt lat="41.693526" lon="1.200871">
        <ele>416.313</ele>
        <time>2021-08-19T08:43:30Z</time>
      </trkpt>
      <trkpt lat="41.693561" lon="1.200815">
        <ele>416.709</ele>
        <time>2021-08-19T08:43:34Z</time>
      </trkpt>
      <trkpt lat="41.693588" lon="1.200762">
        <ele>416.978</ele>
        <time>2021-08-19T08:43:37Z</time>
      </trkpt>
      <trkpt lat="41.693623" lon="1.200706">
        <ele>417.029</ele>
        <time>2021-08-19T08:43:40Z</time>
      </trkpt>
      <trkpt lat="41.693662" lon="1.200672">
        <ele>416.920</ele>
        <time>2021-08-19T08:43:44Z</time>
      </trkpt>
      <trkpt lat="41.693697" lon="1.200633">
        <ele>416.824</ele>
        <time>2021-08-19T08:43:47Z</time>
      </trkpt>
      <trkpt lat="41.693728" lon="1.200578">
        <ele>416.645</ele>
        <time>2021-08-19T08:43:51Z</time>
      </trkpt>
      <trkpt lat="41.693769" lon="1.200534">
        <ele>416.441</ele>
        <time>2021-08-19T08:43:55Z</time>
      </trkpt>
      <trkpt lat="41.693806" lon="1.200481">
        <ele>416.296</ele>
        <time>2021-08-19T08:43:58Z</time>
      </trkpt>
      <trkpt lat="41.693840" lon="1.200426">
        <ele>416.197</ele>
        <time>2021-08-19T08:44:01Z</time>
      </trkpt>
      <trkpt lat="41.693891" lon="1.200359">
        <ele>416.053</ele>
        <time>2021-08-19T08:44:04Z</time>
      </trkpt>
      <trkpt lat="41.693936" lon="1.200330">
        <ele>416.217</ele>
        <time>2021-08-19T08:44:06Z</time>
      </trkpt>
      <trkpt lat="41.693973" lon="1.200286">
        <ele>416.387</ele>
        <time>2021-08-19T08:44:08Z</time>
      </trkpt>
      <trkpt lat="41.694017" lon="1.200239">
        <ele>416.315</ele>
        <time>2021-08-19T08:44:10Z</time>
      </trkpt>
      <trkpt lat="41.694067" lon="1.200187">
        <ele>416.309</ele>
        <time>2021-08-19T08:44:12Z</time>
      </trkpt>
      <trkpt lat="41.694130" lon="1.200137">
        <ele>416.482</ele>
        <time>2021-08-19T08:44:14Z</time>
      </trkpt>
      <trkpt lat="41.694189" lon="1.200099">
        <ele>416.473</ele>
        <time>2021-08-19T08:44:16Z</time>
      </trkpt>
      <trkpt lat="41.694244" lon="1.200063">
        <ele>416.514</ele>
        <time>2021-08-19T08:44:18Z</time>
      </trkpt>
      <trkpt lat="41.694310" lon="1.200021">
        <ele>416.618</ele>
        <time>2021-08-19T08:44:20Z</time>
      </trkpt>
      <trkpt lat="41.694375" lon="1.199980">
        <ele>416.799</ele>
        <time>2021-08-19T08:44:22Z</time>
      </trkpt>
      <trkpt lat="41.694431" lon="1.199942">
        <ele>416.865</ele>
        <time>2021-08-19T08:44:24Z</time>
      </trkpt>
      <trkpt lat="41.694488" lon="1.199906">
        <ele>416.830</ele>
        <time>2021-08-19T08:44:26Z</time>
      </trkpt>
      <trkpt lat="41.694546" lon="1.199858">
        <ele>416.961</ele>
        <time>2021-08-19T08:44:28Z</time>
      </trkpt>
      <trkpt lat="41.694606" lon="1.199811">
        <ele>416.977</ele>
        <time>2021-08-19T08:44:30Z</time>
      </trkpt>
      <trkpt lat="41.694663" lon="1.199765">
        <ele>416.934</ele>
        <time>2021-08-19T08:44:32Z</time>
      </trkpt>
      <trkpt lat="41.694718" lon="1.199713">
        <ele>417.055</ele>
        <time>2021-08-19T08:44:34Z</time>
      </trkpt>
      <trkpt lat="41.694775" lon="1.199675">
        <ele>417.210</ele>
        <time>2021-08-19T08:44:36Z</time>
      </trkpt>
      <trkpt lat="41.694822" lon="1.199649">
        <ele>417.509</ele>
        <time>2021-08-19T08:44:38Z</time>
      </trkpt>
      <trkpt lat="41.694876" lon="1.199604">
        <ele>417.794</ele>
        <time>2021-08-19T08:44:40Z</time>
      </trkpt>
      <trkpt lat="41.694927" lon="1.199560">
        <ele>417.985</ele>
        <time>2021-08-19T08:44:42Z</time>
      </trkpt>
      <trkpt lat="41.694972" lon="1.199509">
        <ele>418.086</ele>
        <time>2021-08-19T08:44:44Z</time>
      </trkpt>
      <trkpt lat="41.695023" lon="1.199461">
        <ele>418.220</ele>
        <time>2021-08-19T08:44:46Z</time>
      </trkpt>
      <trkpt lat="41.695071" lon="1.199411">
        <ele>418.521</ele>
        <time>2021-08-19T08:44:48Z</time>
      </trkpt>
      <trkpt lat="41.695116" lon="1.199365">
        <ele>418.827</ele>
        <time>2021-08-19T08:44:50Z</time>
      </trkpt>
      <trkpt lat="41.695171" lon="1.199317">
        <ele>419.262</ele>
        <time>2021-08-19T08:44:53Z</time>
      </trkpt>
      <trkpt lat="41.695217" lon="1.199273">
        <ele>419.643</ele>
        <time>2021-08-19T08:44:56Z</time>
      </trkpt>
      <trkpt lat="41.695276" lon="1.199227">
        <ele>420.089</ele>
        <time>2021-08-19T08:45:00Z</time>
      </trkpt>
      <trkpt lat="41.695328" lon="1.199191">
        <ele>420.462</ele>
        <time>2021-08-19T08:45:01Z</time>
      </trkpt>
      <trkpt lat="41.695421" lon="1.199125">
        <ele>421.183</ele>
        <time>2021-08-19T08:45:03Z</time>
      </trkpt>
      <trkpt lat="41.695474" lon="1.199087">
        <ele>421.611</ele>
        <time>2021-08-19T08:45:09Z</time>
      </trkpt>
      <trkpt lat="41.695527" lon="1.199078">
        <ele>422.109</ele>
        <time>2021-08-19T08:45:13Z</time>
      </trkpt>
      <trkpt lat="41.695550" lon="1.199018">
        <ele>422.597</ele>
        <time>2021-08-19T08:45:18Z</time>
      </trkpt>
      <trkpt lat="41.695542" lon="1.198954">
        <ele>422.628</ele>
        <time>2021-08-19T08:45:23Z</time>
      </trkpt>
      <trkpt lat="41.695547" lon="1.198886">
        <ele>422.929</ele>
        <time>2021-08-19T08:45:29Z</time>
      </trkpt>
      <trkpt lat="41.695568" lon="1.198828">
        <ele>423.313</ele>
        <time>2021-08-19T08:45:34Z</time>
      </trkpt>
      <trkpt lat="41.695599" lon="1.198783">
        <ele>423.874</ele>
        <time>2021-08-19T08:45:41Z</time>
      </trkpt>
      <trkpt lat="41.695645" lon="1.198766">
        <ele>424.390</ele>
        <time>2021-08-19T08:45:47Z</time>
      </trkpt>
      <trkpt lat="41.695705" lon="1.198769">
        <ele>424.895</ele>
        <time>2021-08-19T08:45:53Z</time>
      </trkpt>
      <trkpt lat="41.695752" lon="1.198752">
        <ele>425.366</ele>
        <time>2021-08-19T08:45:57Z</time>
      </trkpt>
      <trkpt lat="41.695801" lon="1.198744">
        <ele>425.712</ele>
        <time>2021-08-19T08:46:01Z</time>
      </trkpt>
      <trkpt lat="41.695847" lon="1.198736">
        <ele>426.186</ele>
        <time>2021-08-19T08:46:04Z</time>
      </trkpt>
      <trkpt lat="41.695899" lon="1.198733">
        <ele>426.660</ele>
        <time>2021-08-19T08:46:08Z</time>
      </trkpt>
      <trkpt lat="41.695960" lon="1.198716">
        <ele>427.226</ele>
        <time>2021-08-19T08:46:11Z</time>
      </trkpt>
      <trkpt lat="41.696006" lon="1.198708">
        <ele>427.609</ele>
        <time>2021-08-19T08:46:15Z</time>
      </trkpt>
      <trkpt lat="41.696051" lon="1.198687">
        <ele>428.189</ele>
        <time>2021-08-19T08:46:22Z</time>
      </trkpt>
      <trkpt lat="41.696089" lon="1.198653">
        <ele>428.670</ele>
        <time>2021-08-19T08:46:28Z</time>
      </trkpt>
      <trkpt lat="41.696128" lon="1.198611">
        <ele>429.181</ele>
        <time>2021-08-19T08:46:32Z</time>
      </trkpt>
      <trkpt lat="41.696181" lon="1.198577">
        <ele>429.715</ele>
        <time>2021-08-19T08:46:37Z</time>
      </trkpt>
      <trkpt lat="41.696222" lon="1.198540">
        <ele>430.346</ele>
        <time>2021-08-19T08:46:40Z</time>
      </trkpt>
      <trkpt lat="41.696259" lon="1.198502">
        <ele>430.952</ele>
        <time>2021-08-19T08:46:42Z</time>
      </trkpt>
      <trkpt lat="41.696302" lon="1.198445">
        <ele>431.647</ele>
        <time>2021-08-19T08:46:45Z</time>
      </trkpt>
      <trkpt lat="41.696341" lon="1.198382">
        <ele>432.388</ele>
        <time>2021-08-19T08:46:48Z</time>
      </trkpt>
      <trkpt lat="41.696369" lon="1.198332">
        <ele>432.984</ele>
        <time>2021-08-19T08:46:50Z</time>
      </trkpt>
      <trkpt lat="41.696403" lon="1.198254">
        <ele>433.426</ele>
        <time>2021-08-19T08:46:53Z</time>
      </trkpt>
      <trkpt lat="41.696440" lon="1.198176">
        <ele>433.847</ele>
        <time>2021-08-19T08:46:56Z</time>
      </trkpt>
      <trkpt lat="41.696471" lon="1.198110">
        <ele>434.211</ele>
        <time>2021-08-19T08:46:59Z</time>
      </trkpt>
      <trkpt lat="41.696497" lon="1.198056">
        <ele>434.409</ele>
        <time>2021-08-19T08:47:01Z</time>
      </trkpt>
      <trkpt lat="41.696521" lon="1.198004">
        <ele>434.773</ele>
        <time>2021-08-19T08:47:03Z</time>
      </trkpt>
      <trkpt lat="41.696554" lon="1.197941">
        <ele>435.354</ele>
        <time>2021-08-19T08:47:06Z</time>
      </trkpt>
      <trkpt lat="41.696581" lon="1.197886">
        <ele>435.755</ele>
        <time>2021-08-19T08:47:08Z</time>
      </trkpt>
      <trkpt lat="41.696611" lon="1.197838">
        <ele>436.279</ele>
        <time>2021-08-19T08:47:10Z</time>
      </trkpt>
      <trkpt lat="41.696658" lon="1.197772">
        <ele>436.930</ele>
        <time>2021-08-19T08:47:13Z</time>
      </trkpt>
      <trkpt lat="41.696706" lon="1.197716">
        <ele>437.036</ele>
        <time>2021-08-19T08:47:16Z</time>
      </trkpt>
      <trkpt lat="41.696743" lon="1.197678">
        <ele>437.031</ele>
        <time>2021-08-19T08:47:18Z</time>
      </trkpt>
      <trkpt lat="41.696779" lon="1.197638">
        <ele>437.092</ele>
        <time>2021-08-19T08:47:20Z</time>
      </trkpt>
      <trkpt lat="41.696835" lon="1.197593">
        <ele>437.078</ele>
        <time>2021-08-19T08:47:23Z</time>
      </trkpt>
      <trkpt lat="41.696878" lon="1.197565">
        <ele>437.087</ele>
        <time>2021-08-19T08:47:26Z</time>
      </trkpt>
      <trkpt lat="41.696924" lon="1.197534">
        <ele>437.042</ele>
        <time>2021-08-19T08:47:29Z</time>
      </trkpt>
      <trkpt lat="41.696977" lon="1.197510">
        <ele>437.026</ele>
        <time>2021-08-19T08:47:32Z</time>
      </trkpt>
      <trkpt lat="41.697026" lon="1.197498">
        <ele>437.009</ele>
        <time>2021-08-19T08:47:35Z</time>
      </trkpt>
      <trkpt lat="41.697077" lon="1.197494">
        <ele>437.049</ele>
        <time>2021-08-19T08:47:39Z</time>
      </trkpt>
      <trkpt lat="41.697134" lon="1.197496">
        <ele>437.050</ele>
        <time>2021-08-19T08:47:42Z</time>
      </trkpt>
      <trkpt lat="41.697179" lon="1.197491">
        <ele>437.091</ele>
        <time>2021-08-19T08:47:45Z</time>
      </trkpt>
      <trkpt lat="41.697244" lon="1.197495">
        <ele>437.075</ele>
        <time>2021-08-19T08:49:01Z</time>
      </trkpt>
      <trkpt lat="41.697289" lon="1.197499">
        <ele>437.046</ele>
        <time>2021-08-19T08:49:03Z</time>
      </trkpt>
      <trkpt lat="41.697335" lon="1.197499">
        <ele>437.092</ele>
        <time>2021-08-19T08:49:05Z</time>
      </trkpt>
      <trkpt lat="41.697390" lon="1.197518">
        <ele>437.197</ele>
        <time>2021-08-19T08:49:08Z</time>
      </trkpt>
      <trkpt lat="41.697446" lon="1.197522">
        <ele>437.138</ele>
        <time>2021-08-19T08:49:11Z</time>
      </trkpt>
      <trkpt lat="41.697507" lon="1.197518">
        <ele>437.094</ele>
        <time>2021-08-19T08:49:14Z</time>
      </trkpt>
      <trkpt lat="41.697560" lon="1.197527">
        <ele>436.794</ele>
        <time>2021-08-19T08:49:17Z</time>
      </trkpt>
      <trkpt lat="41.697608" lon="1.197529">
        <ele>436.457</ele>
        <time>2021-08-19T08:49:19Z</time>
      </trkpt>
      <trkpt lat="41.697671" lon="1.197538">
        <ele>436.122</ele>
        <time>2021-08-19T08:49:22Z</time>
      </trkpt>
      <trkpt lat="41.697718" lon="1.197548">
        <ele>435.909</ele>
        <time>2021-08-19T08:49:24Z</time>
      </trkpt>
      <trkpt lat="41.697767" lon="1.197558">
        <ele>435.740</ele>
        <time>2021-08-19T08:49:26Z</time>
      </trkpt>
      <trkpt lat="41.697814" lon="1.197567">
        <ele>435.581</ele>
        <time>2021-08-19T08:49:28Z</time>
      </trkpt>
      <trkpt lat="41.697879" lon="1.197575">
        <ele>435.252</ele>
        <time>2021-08-19T08:49:31Z</time>
      </trkpt>
      <trkpt lat="41.697936" lon="1.197584">
        <ele>435.026</ele>
        <time>2021-08-19T08:49:34Z</time>
      </trkpt>
      <trkpt lat="41.697993" lon="1.197609">
        <ele>434.877</ele>
        <time>2021-08-19T08:49:37Z</time>
      </trkpt>
      <trkpt lat="41.698036" lon="1.197633">
        <ele>434.663</ele>
        <time>2021-08-19T08:49:39Z</time>
      </trkpt>
      <trkpt lat="41.698086" lon="1.197653">
        <ele>434.258</ele>
        <time>2021-08-19T08:49:41Z</time>
      </trkpt>
      <trkpt lat="41.698143" lon="1.197681">
        <ele>433.759</ele>
        <time>2021-08-19T08:49:43Z</time>
      </trkpt>
      <trkpt lat="41.698210" lon="1.197707">
        <ele>433.165</ele>
        <time>2021-08-19T08:49:45Z</time>
      </trkpt>
      <trkpt lat="41.698324" lon="1.197679">
        <ele>431.719</ele>
        <time>2021-08-19T08:49:47Z</time>
      </trkpt>
      <trkpt lat="41.698438" lon="1.197667">
        <ele>430.609</ele>
        <time>2021-08-19T08:49:49Z</time>
      </trkpt>
      <trkpt lat="41.698551" lon="1.197670">
        <ele>429.619</ele>
        <time>2021-08-19T08:49:51Z</time>
      </trkpt>
      <trkpt lat="41.698610" lon="1.197671">
        <ele>429.009</ele>
        <time>2021-08-19T08:49:52Z</time>
      </trkpt>
      <trkpt lat="41.698720" lon="1.197671">
        <ele>429.222</ele>
        <time>2021-08-19T08:49:54Z</time>
      </trkpt>
      <trkpt lat="41.698835" lon="1.197672">
        <ele>429.553</ele>
        <time>2021-08-19T08:49:56Z</time>
      </trkpt>
      <trkpt lat="41.698892" lon="1.197672">
        <ele>429.644</ele>
        <time>2021-08-19T08:49:57Z</time>
      </trkpt>
      <trkpt lat="41.698946" lon="1.197675">
        <ele>430.058</ele>
        <time>2021-08-19T08:49:58Z</time>
      </trkpt>
      <trkpt lat="41.698998" lon="1.197678">
        <ele>430.469</ele>
        <time>2021-08-19T08:49:59Z</time>
      </trkpt>
      <trkpt lat="41.699092" lon="1.197678">
        <ele>431.145</ele>
        <time>2021-08-19T08:50:01Z</time>
      </trkpt>
      <trkpt lat="41.699184" lon="1.197680">
        <ele>431.720</ele>
        <time>2021-08-19T08:50:03Z</time>
      </trkpt>
      <trkpt lat="41.699240" lon="1.197673">
        <ele>431.981</ele>
        <time>2021-08-19T08:50:05Z</time>
      </trkpt>
      <trkpt lat="41.699287" lon="1.197697">
        <ele>432.167</ele>
        <time>2021-08-19T08:50:08Z</time>
      </trkpt>
      <trkpt lat="41.699331" lon="1.197728">
        <ele>432.474</ele>
        <time>2021-08-19T08:50:11Z</time>
      </trkpt>
      <trkpt lat="41.699382" lon="1.197733">
        <ele>432.656</ele>
        <time>2021-08-19T08:50:15Z</time>
      </trkpt>
      <trkpt lat="41.699435" lon="1.197747">
        <ele>432.921</ele>
        <time>2021-08-19T08:50:19Z</time>
      </trkpt>
      <trkpt lat="41.699489" lon="1.197760">
        <ele>432.809</ele>
        <time>2021-08-19T08:50:23Z</time>
      </trkpt>
      <trkpt lat="41.699535" lon="1.197771">
        <ele>432.778</ele>
        <time>2021-08-19T08:50:25Z</time>
      </trkpt>
      <trkpt lat="41.699584" lon="1.197781">
        <ele>432.559</ele>
        <time>2021-08-19T08:50:27Z</time>
      </trkpt>
      <trkpt lat="41.699633" lon="1.197787">
        <ele>432.490</ele>
        <time>2021-08-19T08:50:29Z</time>
      </trkpt>
      <trkpt lat="41.699681" lon="1.197800">
        <ele>432.254</ele>
        <time>2021-08-19T08:50:31Z</time>
      </trkpt>
      <trkpt lat="41.699743" lon="1.197791">
        <ele>432.025</ele>
        <time>2021-08-19T08:50:34Z</time>
      </trkpt>
      <trkpt lat="41.699797" lon="1.197806">
        <ele>432.121</ele>
        <time>2021-08-19T08:50:37Z</time>
      </trkpt>
      <trkpt lat="41.699853" lon="1.197816">
        <ele>432.146</ele>
        <time>2021-08-19T08:50:39Z</time>
      </trkpt>
      <trkpt lat="41.699902" lon="1.197819">
        <ele>432.127</ele>
        <time>2021-08-19T08:50:41Z</time>
      </trkpt>
      <trkpt lat="41.699965" lon="1.197822">
        <ele>432.243</ele>
        <time>2021-08-19T08:50:44Z</time>
      </trkpt>
      <trkpt lat="41.700012" lon="1.197827">
        <ele>432.318</ele>
        <time>2021-08-19T08:50:46Z</time>
      </trkpt>
      <trkpt lat="41.700065" lon="1.197837">
        <ele>432.698</ele>
        <time>2021-08-19T08:50:48Z</time>
      </trkpt>
      <trkpt lat="41.700117" lon="1.197845">
        <ele>433.017</ele>
        <time>2021-08-19T08:50:50Z</time>
      </trkpt>
      <trkpt lat="41.700169" lon="1.197850">
        <ele>433.309</ele>
        <time>2021-08-19T08:50:52Z</time>
      </trkpt>
      <trkpt lat="41.700220" lon="1.197864">
        <ele>433.632</ele>
        <time>2021-08-19T08:50:54Z</time>
      </trkpt>
      <trkpt lat="41.700283" lon="1.197874">
        <ele>434.063</ele>
        <time>2021-08-19T08:50:56Z</time>
      </trkpt>
      <trkpt lat="41.700348" lon="1.197881">
        <ele>434.454</ele>
        <time>2021-08-19T08:50:58Z</time>
      </trkpt>
      <trkpt lat="41.700401" lon="1.197884">
        <ele>434.788</ele>
        <time>2021-08-19T08:51:00Z</time>
      </trkpt>
      <trkpt lat="41.700446" lon="1.197894">
        <ele>435.079</ele>
        <time>2021-08-19T08:51:01Z</time>
      </trkpt>
      <trkpt lat="41.700505" lon="1.197910">
        <ele>435.255</ele>
        <time>2021-08-19T08:51:03Z</time>
      </trkpt>
      <trkpt lat="41.700566" lon="1.197925">
        <ele>435.540</ele>
        <time>2021-08-19T08:51:05Z</time>
      </trkpt>
      <trkpt lat="41.700623" lon="1.197943">
        <ele>435.961</ele>
        <time>2021-08-19T08:51:07Z</time>
      </trkpt>
      <trkpt lat="41.700673" lon="1.197964">
        <ele>436.257</ele>
        <time>2021-08-19T08:51:09Z</time>
      </trkpt>
      <trkpt lat="41.700719" lon="1.197981">
        <ele>436.412</ele>
        <time>2021-08-19T08:51:11Z</time>
      </trkpt>
      <trkpt lat="41.700762" lon="1.198003">
        <ele>436.732</ele>
        <time>2021-08-19T08:51:13Z</time>
      </trkpt>
      <trkpt lat="41.700826" lon="1.198028">
        <ele>437.005</ele>
        <time>2021-08-19T08:51:16Z</time>
      </trkpt>
      <trkpt lat="41.700892" lon="1.198042">
        <ele>437.309</ele>
        <time>2021-08-19T08:51:19Z</time>
      </trkpt>
      <trkpt lat="41.700939" lon="1.198049">
        <ele>437.442</ele>
        <time>2021-08-19T08:51:21Z</time>
      </trkpt>
      <trkpt lat="41.701008" lon="1.198042">
        <ele>437.753</ele>
        <time>2021-08-19T08:51:24Z</time>
      </trkpt>
      <trkpt lat="41.701055" lon="1.198043">
        <ele>437.894</ele>
        <time>2021-08-19T08:51:26Z</time>
      </trkpt>
      <trkpt lat="41.701101" lon="1.198039">
        <ele>438.018</ele>
        <time>2021-08-19T08:51:28Z</time>
      </trkpt>
      <trkpt lat="41.701165" lon="1.198032">
        <ele>437.989</ele>
        <time>2021-08-19T08:51:32Z</time>
      </trkpt>
      <trkpt lat="41.701212" lon="1.198038">
        <ele>437.745</ele>
        <time>2021-08-19T08:51:34Z</time>
      </trkpt>
      <trkpt lat="41.701265" lon="1.198043">
        <ele>437.530</ele>
        <time>2021-08-19T08:51:36Z</time>
      </trkpt>
      <trkpt lat="41.701325" lon="1.198035">
        <ele>437.381</ele>
        <time>2021-08-19T08:51:38Z</time>
      </trkpt>
      <trkpt lat="41.701388" lon="1.198031">
        <ele>437.127</ele>
        <time>2021-08-19T08:51:40Z</time>
      </trkpt>
      <trkpt lat="41.701453" lon="1.198026">
        <ele>436.656</ele>
        <time>2021-08-19T08:51:42Z</time>
      </trkpt>
      <trkpt lat="41.701518" lon="1.198027">
        <ele>436.259</ele>
        <time>2021-08-19T08:51:44Z</time>
      </trkpt>
      <trkpt lat="41.701581" lon="1.198028">
        <ele>435.714</ele>
        <time>2021-08-19T08:51:46Z</time>
      </trkpt>
      <trkpt lat="41.701646" lon="1.198039">
        <ele>435.209</ele>
        <time>2021-08-19T08:51:48Z</time>
      </trkpt>
      <trkpt lat="41.701715" lon="1.198053">
        <ele>434.886</ele>
        <time>2021-08-19T08:51:50Z</time>
      </trkpt>
      <trkpt lat="41.701781" lon="1.198081">
        <ele>434.697</ele>
        <time>2021-08-19T08:51:52Z</time>
      </trkpt>
      <trkpt lat="41.701837" lon="1.198105">
        <ele>434.528</ele>
        <time>2021-08-19T08:51:54Z</time>
      </trkpt>
      <trkpt lat="41.701894" lon="1.198132">
        <ele>434.462</ele>
        <time>2021-08-19T08:51:55Z</time>
      </trkpt>
      <trkpt lat="41.701942" lon="1.198148">
        <ele>434.383</ele>
        <time>2021-08-19T08:51:56Z</time>
      </trkpt>
      <trkpt lat="41.702031" lon="1.198172">
        <ele>434.099</ele>
        <time>2021-08-19T08:51:58Z</time>
      </trkpt>
      <trkpt lat="41.702078" lon="1.198188">
        <ele>433.884</ele>
        <time>2021-08-19T08:51:59Z</time>
      </trkpt>
      <trkpt lat="41.702168" lon="1.198222">
        <ele>433.325</ele>
        <time>2021-08-19T08:52:01Z</time>
      </trkpt>
      <trkpt lat="41.702214" lon="1.198235">
        <ele>433.041</ele>
        <time>2021-08-19T08:52:02Z</time>
      </trkpt>
      <trkpt lat="41.702298" lon="1.198264">
        <ele>432.521</ele>
        <time>2021-08-19T08:52:04Z</time>
      </trkpt>
      <trkpt lat="41.702378" lon="1.198293">
        <ele>431.941</ele>
        <time>2021-08-19T08:52:06Z</time>
      </trkpt>
      <trkpt lat="41.702455" lon="1.198307">
        <ele>431.305</ele>
        <time>2021-08-19T08:52:08Z</time>
      </trkpt>
      <trkpt lat="41.702527" lon="1.198298">
        <ele>430.909</ele>
        <time>2021-08-19T08:52:10Z</time>
      </trkpt>
      <trkpt lat="41.702594" lon="1.198275">
        <ele>430.713</ele>
        <time>2021-08-19T08:52:12Z</time>
      </trkpt>
      <trkpt lat="41.702647" lon="1.198230">
        <ele>430.574</ele>
        <time>2021-08-19T08:52:14Z</time>
      </trkpt>
      <trkpt lat="41.702696" lon="1.198185">
        <ele>430.325</ele>
        <time>2021-08-19T08:52:16Z</time>
      </trkpt>
      <trkpt lat="41.702737" lon="1.198157">
        <ele>430.199</ele>
        <time>2021-08-19T08:52:18Z</time>
      </trkpt>
      <trkpt lat="41.702777" lon="1.198109">
        <ele>430.080</ele>
        <time>2021-08-19T08:53:03Z</time>
      </trkpt>
      <trkpt lat="41.702822" lon="1.198071">
        <ele>429.876</ele>
        <time>2021-08-19T08:53:05Z</time>
      </trkpt>
      <trkpt lat="41.702875" lon="1.198039">
        <ele>429.781</ele>
        <time>2021-08-19T08:53:07Z</time>
      </trkpt>
      <trkpt lat="41.702925" lon="1.198002">
        <ele>429.742</ele>
        <time>2021-08-19T08:53:09Z</time>
      </trkpt>
      <trkpt lat="41.702966" lon="1.197966">
        <ele>429.648</ele>
        <time>2021-08-19T08:53:11Z</time>
      </trkpt>
      <trkpt lat="41.703002" lon="1.197923">
        <ele>429.727</ele>
        <time>2021-08-19T08:53:14Z</time>
      </trkpt>
      <trkpt lat="41.702948" lon="1.197903">
        <ele>429.968</ele>
        <time>2021-08-19T08:53:17Z</time>
      </trkpt>
      <trkpt lat="41.702912" lon="1.197945">
        <ele>429.914</ele>
        <time>2021-08-19T08:53:20Z</time>
      </trkpt>
      <trkpt lat="41.702888" lon="1.198014">
        <ele>429.809</ele>
        <time>2021-08-19T08:53:23Z</time>
      </trkpt>
      <trkpt lat="41.702847" lon="1.198053">
        <ele>429.873</ele>
        <time>2021-08-19T08:53:26Z</time>
      </trkpt>
      <trkpt lat="41.702801" lon="1.198095">
        <ele>429.914</ele>
        <time>2021-08-19T08:53:28Z</time>
      </trkpt>
      <trkpt lat="41.702760" lon="1.198119">
        <ele>430.175</ele>
        <time>2021-08-19T08:53:31Z</time>
      </trkpt>
      <trkpt lat="41.702730" lon="1.198175">
        <ele>430.249</ele>
        <time>2021-08-19T08:53:35Z</time>
      </trkpt>
      <trkpt lat="41.702756" lon="1.198121">
        <ele>430.130</ele>
        <time>2021-08-19T08:53:55Z</time>
      </trkpt>
      <trkpt lat="41.702801" lon="1.198076">
        <ele>429.996</ele>
        <time>2021-08-19T08:53:58Z</time>
      </trkpt>
      <trkpt lat="41.702836" lon="1.198037">
        <ele>429.941</ele>
        <time>2021-08-19T08:54:00Z</time>
      </trkpt>
      <trkpt lat="41.702892" lon="1.197986">
        <ele>429.842</ele>
        <time>2021-08-19T08:54:02Z</time>
      </trkpt>
      <trkpt lat="41.702950" lon="1.197951">
        <ele>429.878</ele>
        <time>2021-08-19T08:54:04Z</time>
      </trkpt>
      <trkpt lat="41.703003" lon="1.197926">
        <ele>429.744</ele>
        <time>2021-08-19T08:54:06Z</time>
      </trkpt>
      <trkpt lat="41.703069" lon="1.197898">
        <ele>429.505</ele>
        <time>2021-08-19T08:54:08Z</time>
      </trkpt>
      <trkpt lat="41.703124" lon="1.197878">
        <ele>429.415</ele>
        <time>2021-08-19T08:54:10Z</time>
      </trkpt>
      <trkpt lat="41.703181" lon="1.197851">
        <ele>429.309</ele>
        <time>2021-08-19T08:54:12Z</time>
      </trkpt>
      <trkpt lat="41.703247" lon="1.197818">
        <ele>429.245</ele>
        <time>2021-08-19T08:54:14Z</time>
      </trkpt>
      <trkpt lat="41.703311" lon="1.197787">
        <ele>429.036</ele>
        <time>2021-08-19T08:54:16Z</time>
      </trkpt>
      <trkpt lat="41.703372" lon="1.197756">
        <ele>428.987</ele>
        <time>2021-08-19T08:54:18Z</time>
      </trkpt>
      <trkpt lat="41.703432" lon="1.197724">
        <ele>428.781</ele>
        <time>2021-08-19T08:54:20Z</time>
      </trkpt>
      <trkpt lat="41.703491" lon="1.197706">
        <ele>428.472</ele>
        <time>2021-08-19T08:54:22Z</time>
      </trkpt>
      <trkpt lat="41.703551" lon="1.197686">
        <ele>428.018</ele>
        <time>2021-08-19T08:54:24Z</time>
      </trkpt>
      <trkpt lat="41.703608" lon="1.197643">
        <ele>427.513</ele>
        <time>2021-08-19T08:54:26Z</time>
      </trkpt>
      <trkpt lat="41.703642" lon="1.197586">
        <ele>427.294</ele>
        <time>2021-08-19T08:54:28Z</time>
      </trkpt>
      <trkpt lat="41.703671" lon="1.197506">
        <ele>426.850</ele>
        <time>2021-08-19T08:54:30Z</time>
      </trkpt>
      <trkpt lat="41.703691" lon="1.197426">
        <ele>426.713</ele>
        <time>2021-08-19T08:54:32Z</time>
      </trkpt>
      <trkpt lat="41.703716" lon="1.197353">
        <ele>426.643</ele>
        <time>2021-08-19T08:54:34Z</time>
      </trkpt>
      <trkpt lat="41.703741" lon="1.197303">
        <ele>426.507</ele>
        <time>2021-08-19T08:54:36Z</time>
      </trkpt>
      <trkpt lat="41.703776" lon="1.197221">
        <ele>426.409</ele>
        <time>2021-08-19T08:54:38Z</time>
      </trkpt>
      <trkpt lat="41.703804" lon="1.197159">
        <ele>426.562</ele>
        <time>2021-08-19T08:54:40Z</time>
      </trkpt>
      <trkpt lat="41.703846" lon="1.197091">
        <ele>426.633</ele>
        <time>2021-08-19T08:54:42Z</time>
      </trkpt>
      <trkpt lat="41.703887" lon="1.197022">
        <ele>426.784</ele>
        <time>2021-08-19T08:54:44Z</time>
      </trkpt>
      <trkpt lat="41.703924" lon="1.196958">
        <ele>427.038</ele>
        <time>2021-08-19T08:54:46Z</time>
      </trkpt>
      <trkpt lat="41.703955" lon="1.196891">
        <ele>427.229</ele>
        <time>2021-08-19T08:54:48Z</time>
      </trkpt>
      <trkpt lat="41.703975" lon="1.196823">
        <ele>427.485</ele>
        <time>2021-08-19T08:54:50Z</time>
      </trkpt>
      <trkpt lat="41.703994" lon="1.196755">
        <ele>427.730</ele>
        <time>2021-08-19T08:54:52Z</time>
      </trkpt>
      <trkpt lat="41.704019" lon="1.196692">
        <ele>427.941</ele>
        <time>2021-08-19T08:54:54Z</time>
      </trkpt>
      <trkpt lat="41.704048" lon="1.196619">
        <ele>427.927</ele>
        <time>2021-08-19T08:54:56Z</time>
      </trkpt>
      <trkpt lat="41.704088" lon="1.196544">
        <ele>427.787</ele>
        <time>2021-08-19T08:54:58Z</time>
      </trkpt>
      <trkpt lat="41.704134" lon="1.196469">
        <ele>427.442</ele>
        <time>2021-08-19T08:55:00Z</time>
      </trkpt>
      <trkpt lat="41.704189" lon="1.196408">
        <ele>426.926</ele>
        <time>2021-08-19T08:55:02Z</time>
      </trkpt>
      <trkpt lat="41.704237" lon="1.196334">
        <ele>426.409</ele>
        <time>2021-08-19T08:55:04Z</time>
      </trkpt>
      <trkpt lat="41.704266" lon="1.196286">
        <ele>426.289</ele>
        <time>2021-08-19T08:55:06Z</time>
      </trkpt>
      <trkpt lat="41.704301" lon="1.196233">
        <ele>425.820</ele>
        <time>2021-08-19T08:55:07Z</time>
      </trkpt>
      <trkpt lat="41.704350" lon="1.196137">
        <ele>425.191</ele>
        <time>2021-08-19T08:55:10Z</time>
      </trkpt>
      <trkpt lat="41.704375" lon="1.196049">
        <ele>424.915</ele>
        <time>2021-08-19T08:55:12Z</time>
      </trkpt>
      <trkpt lat="41.704398" lon="1.195968">
        <ele>424.936</ele>
        <time>2021-08-19T08:55:14Z</time>
      </trkpt>
      <trkpt lat="41.704408" lon="1.195873">
        <ele>425.122</ele>
        <time>2021-08-19T08:55:16Z</time>
      </trkpt>
      <trkpt lat="41.704425" lon="1.195781">
        <ele>425.187</ele>
        <time>2021-08-19T08:55:18Z</time>
      </trkpt>
      <trkpt lat="41.704442" lon="1.195688">
        <ele>425.098</ele>
        <time>2021-08-19T08:55:20Z</time>
      </trkpt>
      <trkpt lat="41.704458" lon="1.195605">
        <ele>424.854</ele>
        <time>2021-08-19T08:55:22Z</time>
      </trkpt>
      <trkpt lat="41.704472" lon="1.195531">
        <ele>424.776</ele>
        <time>2021-08-19T08:55:24Z</time>
      </trkpt>
      <trkpt lat="41.704488" lon="1.195467">
        <ele>424.690</ele>
        <time>2021-08-19T08:55:26Z</time>
      </trkpt>
      <trkpt lat="41.704534" lon="1.195434">
        <ele>424.219</ele>
        <time>2021-08-19T08:55:37Z</time>
      </trkpt>
      <trkpt lat="41.704542" lon="1.195366">
        <ele>424.209</ele>
        <time>2021-08-19T08:55:40Z</time>
      </trkpt>
      <trkpt lat="41.704513" lon="1.195319">
        <ele>424.598</ele>
        <time>2021-08-19T08:56:20Z</time>
      </trkpt>
      <trkpt lat="41.704524" lon="1.195250">
        <ele>424.459</ele>
        <time>2021-08-19T08:56:46Z</time>
      </trkpt>
      <trkpt lat="41.704500" lon="1.195184">
        <ele>424.340</ele>
        <time>2021-08-19T08:56:48Z</time>
      </trkpt>
      <trkpt lat="41.704471" lon="1.195123">
        <ele>424.394</ele>
        <time>2021-08-19T08:56:50Z</time>
      </trkpt>
      <trkpt lat="41.704442" lon="1.195059">
        <ele>424.275</ele>
        <time>2021-08-19T08:56:52Z</time>
      </trkpt>
      <trkpt lat="41.704421" lon="1.194999">
        <ele>424.181</ele>
        <time>2021-08-19T08:56:54Z</time>
      </trkpt>
      <trkpt lat="41.704393" lon="1.194939">
        <ele>424.116</ele>
        <time>2021-08-19T08:56:55Z</time>
      </trkpt>
      <trkpt lat="41.704369" lon="1.194884">
        <ele>424.287</ele>
        <time>2021-08-19T08:56:57Z</time>
      </trkpt>
      <trkpt lat="41.704343" lon="1.194817">
        <ele>424.113</ele>
        <time>2021-08-19T08:56:59Z</time>
      </trkpt>
      <trkpt lat="41.704314" lon="1.194755">
        <ele>424.136</ele>
        <time>2021-08-19T08:57:01Z</time>
      </trkpt>
      <trkpt lat="41.704268" lon="1.194683">
        <ele>423.917</ele>
        <time>2021-08-19T08:57:03Z</time>
      </trkpt>
      <trkpt lat="41.704223" lon="1.194636">
        <ele>423.918</ele>
        <time>2021-08-19T08:57:05Z</time>
      </trkpt>
      <trkpt lat="41.704177" lon="1.194605">
        <ele>424.009</ele>
        <time>2021-08-19T08:57:07Z</time>
      </trkpt>
      <trkpt lat="41.704124" lon="1.194585">
        <ele>424.054</ele>
        <time>2021-08-19T08:57:09Z</time>
      </trkpt>
      <trkpt lat="41.704068" lon="1.194565">
        <ele>424.045</ele>
        <time>2021-08-19T08:57:11Z</time>
      </trkpt>
      <trkpt lat="41.704012" lon="1.194547">
        <ele>424.036</ele>
        <time>2021-08-19T08:57:13Z</time>
      </trkpt>
      <trkpt lat="41.703968" lon="1.194531">
        <ele>424.070</ele>
        <time>2021-08-19T08:57:15Z</time>
      </trkpt>
      <trkpt lat="41.703924" lon="1.194517">
        <ele>424.021</ele>
        <time>2021-08-19T08:57:16Z</time>
      </trkpt>
      <trkpt lat="41.703881" lon="1.194491">
        <ele>424.057</ele>
        <time>2021-08-19T08:57:18Z</time>
      </trkpt>
      <trkpt lat="41.703844" lon="1.194444">
        <ele>424.232</ele>
        <time>2021-08-19T08:57:20Z</time>
      </trkpt>
      <trkpt lat="41.703819" lon="1.194381">
        <ele>424.083</ele>
        <time>2021-08-19T08:57:22Z</time>
      </trkpt>
      <trkpt lat="41.703810" lon="1.194288">
        <ele>423.799</ele>
        <time>2021-08-19T08:57:24Z</time>
      </trkpt>
      <trkpt lat="41.703799" lon="1.194207">
        <ele>423.523</ele>
        <time>2021-08-19T08:57:26Z</time>
      </trkpt>
      <trkpt lat="41.703788" lon="1.194147">
        <ele>423.383</ele>
        <time>2021-08-19T08:57:28Z</time>
      </trkpt>
      <trkpt lat="41.703782" lon="1.194079">
        <ele>423.211</ele>
        <time>2021-08-19T08:57:29Z</time>
      </trkpt>
      <trkpt lat="41.703775" lon="1.194018">
        <ele>423.109</ele>
        <time>2021-08-19T08:57:31Z</time>
      </trkpt>
      <trkpt lat="41.703766" lon="1.193950">
        <ele>423.053</ele>
        <time>2021-08-19T08:57:32Z</time>
      </trkpt>
      <trkpt lat="41.703754" lon="1.193876">
        <ele>422.974</ele>
        <time>2021-08-19T08:57:34Z</time>
      </trkpt>
      <trkpt lat="41.703737" lon="1.193794">
        <ele>422.875</ele>
        <time>2021-08-19T08:57:36Z</time>
      </trkpt>
      <trkpt lat="41.703721" lon="1.193725">
        <ele>422.649</ele>
        <time>2021-08-19T08:57:38Z</time>
      </trkpt>
      <trkpt lat="41.703699" lon="1.193668">
        <ele>422.630</ele>
        <time>2021-08-19T08:57:39Z</time>
      </trkpt>
      <trkpt lat="41.703650" lon="1.193605">
        <ele>422.756</ele>
        <time>2021-08-19T08:57:42Z</time>
      </trkpt>
      <trkpt lat="41.703609" lon="1.193572">
        <ele>423.011</ele>
        <time>2021-08-19T08:57:43Z</time>
      </trkpt>
      <trkpt lat="41.703566" lon="1.193536">
        <ele>423.382</ele>
        <time>2021-08-19T08:57:45Z</time>
      </trkpt>
      <trkpt lat="41.703518" lon="1.193511">
        <ele>423.788</ele>
        <time>2021-08-19T08:57:46Z</time>
      </trkpt>
      <trkpt lat="41.703471" lon="1.193495">
        <ele>424.041</ele>
        <time>2021-08-19T08:57:48Z</time>
      </trkpt>
      <trkpt lat="41.703427" lon="1.193484">
        <ele>424.381</ele>
        <time>2021-08-19T08:57:49Z</time>
      </trkpt>
      <trkpt lat="41.703376" lon="1.193462">
        <ele>424.709</ele>
        <time>2021-08-19T08:57:51Z</time>
      </trkpt>
      <trkpt lat="41.703323" lon="1.193443">
        <ele>425.009</ele>
        <time>2021-08-19T08:57:53Z</time>
      </trkpt>
      <trkpt lat="41.703268" lon="1.193420">
        <ele>424.865</ele>
        <time>2021-08-19T08:57:55Z</time>
      </trkpt>
      <trkpt lat="41.703215" lon="1.193394">
        <ele>424.766</ele>
        <time>2021-08-19T08:57:57Z</time>
      </trkpt>
      <trkpt lat="41.703173" lon="1.193364">
        <ele>424.567</ele>
        <time>2021-08-19T08:57:59Z</time>
      </trkpt>
      <trkpt lat="41.703134" lon="1.193325">
        <ele>424.331</ele>
        <time>2021-08-19T08:58:01Z</time>
      </trkpt>
      <trkpt lat="41.703085" lon="1.193264">
        <ele>424.142</ele>
        <time>2021-08-19T08:58:03Z</time>
      </trkpt>
      <trkpt lat="41.703059" lon="1.193208">
        <ele>424.058</ele>
        <time>2021-08-19T08:58:05Z</time>
      </trkpt>
      <trkpt lat="41.703033" lon="1.193150">
        <ele>423.943</ele>
        <time>2021-08-19T08:58:07Z</time>
      </trkpt>
      <trkpt lat="41.703010" lon="1.193070">
        <ele>423.864</ele>
        <time>2021-08-19T08:58:09Z</time>
      </trkpt>
      <trkpt lat="41.702988" lon="1.192998">
        <ele>423.770</ele>
        <time>2021-08-19T08:58:11Z</time>
      </trkpt>
      <trkpt lat="41.702971" lon="1.192935">
        <ele>423.683</ele>
        <time>2021-08-19T08:58:13Z</time>
      </trkpt>
      <trkpt lat="41.702954" lon="1.192857">
        <ele>423.425</ele>
        <time>2021-08-19T08:58:16Z</time>
      </trkpt>
      <trkpt lat="41.702933" lon="1.192795">
        <ele>423.117</ele>
        <time>2021-08-19T08:58:17Z</time>
      </trkpt>
      <trkpt lat="41.702916" lon="1.192736">
        <ele>422.909</ele>
        <time>2021-08-19T08:58:19Z</time>
      </trkpt>
      <trkpt lat="41.702897" lon="1.192681">
        <ele>422.759</ele>
        <time>2021-08-19T08:58:21Z</time>
      </trkpt>
      <trkpt lat="41.702860" lon="1.192601">
        <ele>422.480</ele>
        <time>2021-08-19T08:58:23Z</time>
      </trkpt>
      <trkpt lat="41.702828" lon="1.192536">
        <ele>422.211</ele>
        <time>2021-08-19T08:58:25Z</time>
      </trkpt>
      <trkpt lat="41.702796" lon="1.192484">
        <ele>422.145</ele>
        <time>2021-08-19T08:58:27Z</time>
      </trkpt>
      <trkpt lat="41.702755" lon="1.192423">
        <ele>422.116</ele>
        <time>2021-08-19T08:58:29Z</time>
      </trkpt>
      <trkpt lat="41.702714" lon="1.192364">
        <ele>422.232</ele>
        <time>2021-08-19T08:58:31Z</time>
      </trkpt>
      <trkpt lat="41.702672" lon="1.192307">
        <ele>422.427</ele>
        <time>2021-08-19T08:58:33Z</time>
      </trkpt>
      <trkpt lat="41.702638" lon="1.192247">
        <ele>422.518</ele>
        <time>2021-08-19T08:58:35Z</time>
      </trkpt>
      <trkpt lat="41.702604" lon="1.192194">
        <ele>422.594</ele>
        <time>2021-08-19T08:58:37Z</time>
      </trkpt>
      <trkpt lat="41.702570" lon="1.192141">
        <ele>422.538</ele>
        <time>2021-08-19T08:58:39Z</time>
      </trkpt>
      <trkpt lat="41.702530" lon="1.192093">
        <ele>422.470</ele>
        <time>2021-08-19T08:58:41Z</time>
      </trkpt>
      <trkpt lat="41.702496" lon="1.192033">
        <ele>422.317</ele>
        <time>2021-08-19T08:58:43Z</time>
      </trkpt>
      <trkpt lat="41.702459" lon="1.191983">
        <ele>422.209</ele>
        <time>2021-08-19T08:58:45Z</time>
      </trkpt>
      <trkpt lat="41.702425" lon="1.191918">
        <ele>421.994</ele>
        <time>2021-08-19T08:58:47Z</time>
      </trkpt>
      <trkpt lat="41.702388" lon="1.191856">
        <ele>421.755</ele>
        <time>2021-08-19T08:58:49Z</time>
      </trkpt>
      <trkpt lat="41.702349" lon="1.191801">
        <ele>421.576</ele>
        <time>2021-08-19T08:58:51Z</time>
      </trkpt>
      <trkpt lat="41.702316" lon="1.191756">
        <ele>421.350</ele>
        <time>2021-08-19T08:58:53Z</time>
      </trkpt>
      <trkpt lat="41.702279" lon="1.191717">
        <ele>421.221</ele>
        <time>2021-08-19T08:58:55Z</time>
      </trkpt>
      <trkpt lat="41.702240" lon="1.191681">
        <ele>421.157</ele>
        <time>2021-08-19T08:58:57Z</time>
      </trkpt>
      <trkpt lat="41.702194" lon="1.191647">
        <ele>421.092</ele>
        <time>2021-08-19T08:58:59Z</time>
      </trkpt>
      <trkpt lat="41.702147" lon="1.191629">
        <ele>421.093</ele>
        <time>2021-08-19T08:59:01Z</time>
      </trkpt>
      <trkpt lat="41.702094" lon="1.191600">
        <ele>421.039</ele>
        <time>2021-08-19T08:59:03Z</time>
      </trkpt>
      <trkpt lat="41.702042" lon="1.191574">
        <ele>421.019</ele>
        <time>2021-08-19T08:59:05Z</time>
      </trkpt>
      <trkpt lat="41.701991" lon="1.191556">
        <ele>421.009</ele>
        <time>2021-08-19T08:59:07Z</time>
      </trkpt>
      <trkpt lat="41.701943" lon="1.191528">
        <ele>421.019</ele>
        <time>2021-08-19T08:59:09Z</time>
      </trkpt>
      <trkpt lat="41.701890" lon="1.191509">
        <ele>421.209</ele>
        <time>2021-08-19T08:59:11Z</time>
      </trkpt>
      <trkpt lat="41.701836" lon="1.191484">
        <ele>421.362</ele>
        <time>2021-08-19T08:59:13Z</time>
      </trkpt>
      <trkpt lat="41.701786" lon="1.191449">
        <ele>421.243</ele>
        <time>2021-08-19T08:59:15Z</time>
      </trkpt>
      <trkpt lat="41.701740" lon="1.191401">
        <ele>421.184</ele>
        <time>2021-08-19T08:59:17Z</time>
      </trkpt>
      <trkpt lat="41.701703" lon="1.191339">
        <ele>420.848</ele>
        <time>2021-08-19T08:59:19Z</time>
      </trkpt>
      <trkpt lat="41.701688" lon="1.191267">
        <ele>420.639</ele>
        <time>2021-08-19T08:59:21Z</time>
      </trkpt>
      <trkpt lat="41.701681" lon="1.191200">
        <ele>420.415</ele>
        <time>2021-08-19T08:59:23Z</time>
      </trkpt>
      <trkpt lat="41.701679" lon="1.191130">
        <ele>420.120</ele>
        <time>2021-08-19T08:59:25Z</time>
      </trkpt>
      <trkpt lat="41.701684" lon="1.191034">
        <ele>420.121</ele>
        <time>2021-08-19T08:59:27Z</time>
      </trkpt>
      <trkpt lat="41.701693" lon="1.190944">
        <ele>420.127</ele>
        <time>2021-08-19T08:59:29Z</time>
      </trkpt>
      <trkpt lat="41.701706" lon="1.190865">
        <ele>420.132</ele>
        <time>2021-08-19T08:59:31Z</time>
      </trkpt>
      <trkpt lat="41.701717" lon="1.190790">
        <ele>420.292</ele>
        <time>2021-08-19T08:59:33Z</time>
      </trkpt>
      <trkpt lat="41.701727" lon="1.190712">
        <ele>420.111</ele>
        <time>2021-08-19T08:59:35Z</time>
      </trkpt>
      <trkpt lat="41.701740" lon="1.190635">
        <ele>420.109</ele>
        <time>2021-08-19T08:59:37Z</time>
      </trkpt>
      <trkpt lat="41.701743" lon="1.190554">
        <ele>420.034</ele>
        <time>2021-08-19T08:59:39Z</time>
      </trkpt>
      <trkpt lat="41.701755" lon="1.190467">
        <ele>420.095</ele>
        <time>2021-08-19T08:59:41Z</time>
      </trkpt>
      <trkpt lat="41.701766" lon="1.190381">
        <ele>420.096</ele>
        <time>2021-08-19T08:59:43Z</time>
      </trkpt>
      <trkpt lat="41.701776" lon="1.190293">
        <ele>420.070</ele>
        <time>2021-08-19T08:59:45Z</time>
      </trkpt>
      <trkpt lat="41.701781" lon="1.190200">
        <ele>419.711</ele>
        <time>2021-08-19T08:59:47Z</time>
      </trkpt>
      <trkpt lat="41.701777" lon="1.190119">
        <ele>419.437</ele>
        <time>2021-08-19T08:59:49Z</time>
      </trkpt>
      <trkpt lat="41.701776" lon="1.190021">
        <ele>419.192</ele>
        <time>2021-08-19T08:59:51Z</time>
      </trkpt>
      <trkpt lat="41.701783" lon="1.189930">
        <ele>418.773</ele>
        <time>2021-08-19T08:59:53Z</time>
      </trkpt>
      <trkpt lat="41.701791" lon="1.189860">
        <ele>418.579</ele>
        <time>2021-08-19T08:59:55Z</time>
      </trkpt>
      <trkpt lat="41.701805" lon="1.189769">
        <ele>418.218</ele>
        <time>2021-08-19T08:59:57Z</time>
      </trkpt>
      <trkpt lat="41.701823" lon="1.189681">
        <ele>417.998</ele>
        <time>2021-08-19T08:59:59Z</time>
      </trkpt>
      <trkpt lat="41.701849" lon="1.189607">
        <ele>417.617</ele>
        <time>2021-08-19T09:00:01Z</time>
      </trkpt>
      <trkpt lat="41.701874" lon="1.189534">
        <ele>417.309</ele>
        <time>2021-08-19T09:00:03Z</time>
      </trkpt>
      <trkpt lat="41.701897" lon="1.189453">
        <ele>417.092</ele>
        <time>2021-08-19T09:00:05Z</time>
      </trkpt>
      <trkpt lat="41.701927" lon="1.189365">
        <ele>416.773</ele>
        <time>2021-08-19T09:00:07Z</time>
      </trkpt>
      <trkpt lat="41.701952" lon="1.189282">
        <ele>416.444</ele>
        <time>2021-08-19T09:00:09Z</time>
      </trkpt>
      <trkpt lat="41.701980" lon="1.189203">
        <ele>416.148</ele>
        <time>2021-08-19T09:00:11Z</time>
      </trkpt>
      <trkpt lat="41.702004" lon="1.189115">
        <ele>415.789</ele>
        <time>2021-08-19T09:00:13Z</time>
      </trkpt>
      <trkpt lat="41.702026" lon="1.189030">
        <ele>415.235</ele>
        <time>2021-08-19T09:00:15Z</time>
      </trkpt>
      <trkpt lat="41.702043" lon="1.188950">
        <ele>414.750</ele>
        <time>2021-08-19T09:00:17Z</time>
      </trkpt>
      <trkpt lat="41.702057" lon="1.188863">
        <ele>414.421</ele>
        <time>2021-08-19T09:00:19Z</time>
      </trkpt>
      <trkpt lat="41.702069" lon="1.188787">
        <ele>414.317</ele>
        <time>2021-08-19T09:00:21Z</time>
      </trkpt>
      <trkpt lat="41.702078" lon="1.188728">
        <ele>414.238</ele>
        <time>2021-08-19T09:00:22Z</time>
      </trkpt>
      <trkpt lat="41.702092" lon="1.188637">
        <ele>414.170</ele>
        <time>2021-08-19T09:00:24Z</time>
      </trkpt>
      <trkpt lat="41.702102" lon="1.188541">
        <ele>414.017</ele>
        <time>2021-08-19T09:00:26Z</time>
      </trkpt>
      <trkpt lat="41.702110" lon="1.188452">
        <ele>414.009</ele>
        <time>2021-08-19T09:00:28Z</time>
      </trkpt>
      <trkpt lat="41.702120" lon="1.188364">
        <ele>414.034</ele>
        <time>2021-08-19T09:00:30Z</time>
      </trkpt>
      <trkpt lat="41.702124" lon="1.188272">
        <ele>413.855</ele>
        <time>2021-08-19T09:00:32Z</time>
      </trkpt>
      <trkpt lat="41.702129" lon="1.188185">
        <ele>413.576</ele>
        <time>2021-08-19T09:00:34Z</time>
      </trkpt>
      <trkpt lat="41.702132" lon="1.188095">
        <ele>413.190</ele>
        <time>2021-08-19T09:00:36Z</time>
      </trkpt>
      <trkpt lat="41.702137" lon="1.187998">
        <ele>412.911</ele>
        <time>2021-08-19T09:00:38Z</time>
      </trkpt>
      <trkpt lat="41.702129" lon="1.187905">
        <ele>412.897</ele>
        <time>2021-08-19T09:00:40Z</time>
      </trkpt>
      <trkpt lat="41.702122" lon="1.187815">
        <ele>412.742</ele>
        <time>2021-08-19T09:00:42Z</time>
      </trkpt>
      <trkpt lat="41.702119" lon="1.187729">
        <ele>412.793</ele>
        <time>2021-08-19T09:00:44Z</time>
      </trkpt>
      <trkpt lat="41.702109" lon="1.187637">
        <ele>412.899</ele>
        <time>2021-08-19T09:00:46Z</time>
      </trkpt>
      <trkpt lat="41.702098" lon="1.187543">
        <ele>412.987</ele>
        <time>2021-08-19T09:00:48Z</time>
      </trkpt>
      <trkpt lat="41.702086" lon="1.187448">
        <ele>413.242</ele>
        <time>2021-08-19T09:00:50Z</time>
      </trkpt>
      <trkpt lat="41.702069" lon="1.187354">
        <ele>413.526</ele>
        <time>2021-08-19T09:00:52Z</time>
      </trkpt>
      <trkpt lat="41.702050" lon="1.187277">
        <ele>413.809</ele>
        <time>2021-08-19T09:00:54Z</time>
      </trkpt>
      <trkpt lat="41.702031" lon="1.187184">
        <ele>414.159</ele>
        <time>2021-08-19T09:00:56Z</time>
      </trkpt>
      <trkpt lat="41.702009" lon="1.187091">
        <ele>414.410</ele>
        <time>2021-08-19T09:00:58Z</time>
      </trkpt>
      <trkpt lat="41.701987" lon="1.187006">
        <ele>414.711</ele>
        <time>2021-08-19T09:01:00Z</time>
      </trkpt>
      <trkpt lat="41.701970" lon="1.186915">
        <ele>414.945</ele>
        <time>2021-08-19T09:01:02Z</time>
      </trkpt>
      <trkpt lat="41.701955" lon="1.186819">
        <ele>415.096</ele>
        <time>2021-08-19T09:01:04Z</time>
      </trkpt>
      <trkpt lat="41.701952" lon="1.186724">
        <ele>415.052</ele>
        <time>2021-08-19T09:01:06Z</time>
      </trkpt>
      <trkpt lat="41.701955" lon="1.186624">
        <ele>415.057</ele>
        <time>2021-08-19T09:01:08Z</time>
      </trkpt>
      <trkpt lat="41.701958" lon="1.186523">
        <ele>415.038</ele>
        <time>2021-08-19T09:01:10Z</time>
      </trkpt>
      <trkpt lat="41.701962" lon="1.186424">
        <ele>414.974</ele>
        <time>2021-08-19T09:01:12Z</time>
      </trkpt>
      <trkpt lat="41.701961" lon="1.186323">
        <ele>414.577</ele>
        <time>2021-08-19T09:01:14Z</time>
      </trkpt>
      <trkpt lat="41.701964" lon="1.186232">
        <ele>413.861</ele>
        <time>2021-08-19T09:01:16Z</time>
      </trkpt>
      <trkpt lat="41.701966" lon="1.186145">
        <ele>413.227</ele>
        <time>2021-08-19T09:01:18Z</time>
      </trkpt>
      <trkpt lat="41.701960" lon="1.186058">
        <ele>412.809</ele>
        <time>2021-08-19T09:01:20Z</time>
      </trkpt>
      <trkpt lat="41.701960" lon="1.185977">
        <ele>412.578</ele>
        <time>2021-08-19T09:01:22Z</time>
      </trkpt>
      <trkpt lat="41.701946" lon="1.185907">
        <ele>412.319</ele>
        <time>2021-08-19T09:01:24Z</time>
      </trkpt>
      <trkpt lat="41.701936" lon="1.185821">
        <ele>412.020</ele>
        <time>2021-08-19T09:01:26Z</time>
      </trkpt>
      <trkpt lat="41.701923" lon="1.185731">
        <ele>411.734</ele>
        <time>2021-08-19T09:01:28Z</time>
      </trkpt>
      <trkpt lat="41.701909" lon="1.185653">
        <ele>411.525</ele>
        <time>2021-08-19T09:01:30Z</time>
      </trkpt>
      <trkpt lat="41.701893" lon="1.185585">
        <ele>411.321</ele>
        <time>2021-08-19T09:01:32Z</time>
      </trkpt>
      <trkpt lat="41.701874" lon="1.185497">
        <ele>411.396</ele>
        <time>2021-08-19T09:01:34Z</time>
      </trkpt>
      <trkpt lat="41.701848" lon="1.185411">
        <ele>411.357</ele>
        <time>2021-08-19T09:01:36Z</time>
      </trkpt>
      <trkpt lat="41.701806" lon="1.185332">
        <ele>411.543</ele>
        <time>2021-08-19T09:01:38Z</time>
      </trkpt>
      <trkpt lat="41.701754" lon="1.185269">
        <ele>411.746</ele>
        <time>2021-08-19T09:01:40Z</time>
      </trkpt>
      <trkpt lat="41.701697" lon="1.185232">
        <ele>411.788</ele>
        <time>2021-08-19T09:01:42Z</time>
      </trkpt>
      <trkpt lat="41.701640" lon="1.185208">
        <ele>411.716</ele>
        <time>2021-08-19T09:01:44Z</time>
      </trkpt>
      <trkpt lat="41.701587" lon="1.185184">
        <ele>411.609</ele>
        <time>2021-08-19T09:01:46Z</time>
      </trkpt>
      <trkpt lat="41.701534" lon="1.185163">
        <ele>411.445</ele>
        <time>2021-08-19T09:01:48Z</time>
      </trkpt>
      <trkpt lat="41.701474" lon="1.185141">
        <ele>411.276</ele>
        <time>2021-08-19T09:01:50Z</time>
      </trkpt>
      <trkpt lat="41.701415" lon="1.185108">
        <ele>410.827</ele>
        <time>2021-08-19T09:01:52Z</time>
      </trkpt>
      <trkpt lat="41.701366" lon="1.185083">
        <ele>410.671</ele>
        <time>2021-08-19T09:01:54Z</time>
      </trkpt>
      <trkpt lat="41.701303" lon="1.185052">
        <ele>410.492</ele>
        <time>2021-08-19T09:01:56Z</time>
      </trkpt>
      <trkpt lat="41.701249" lon="1.185032">
        <ele>410.398</ele>
        <time>2021-08-19T09:01:58Z</time>
      </trkpt>
      <trkpt lat="41.701205" lon="1.185015">
        <ele>410.133</ele>
        <time>2021-08-19T09:02:00Z</time>
      </trkpt>
      <trkpt lat="41.701135" lon="1.184991">
        <ele>409.914</ele>
        <time>2021-08-19T09:02:02Z</time>
      </trkpt>
      <trkpt lat="41.701080" lon="1.184965">
        <ele>410.020</ele>
        <time>2021-08-19T09:02:04Z</time>
      </trkpt>
      <trkpt lat="41.701022" lon="1.184943">
        <ele>410.445</ele>
        <time>2021-08-19T09:02:06Z</time>
      </trkpt>
      <trkpt lat="41.700972" lon="1.184919">
        <ele>410.747</ele>
        <time>2021-08-19T09:02:08Z</time>
      </trkpt>
      <trkpt lat="41.700926" lon="1.184889">
        <ele>411.111</ele>
        <time>2021-08-19T09:02:10Z</time>
      </trkpt>
      <trkpt lat="41.700888" lon="1.184832">
        <ele>411.409</ele>
        <time>2021-08-19T09:02:12Z</time>
      </trkpt>
      <trkpt lat="41.700879" lon="1.184755">
        <ele>411.455</ele>
        <time>2021-08-19T09:02:14Z</time>
      </trkpt>
      <trkpt lat="41.700902" lon="1.184681">
        <ele>410.916</ele>
        <time>2021-08-19T09:02:16Z</time>
      </trkpt>
      <trkpt lat="41.700948" lon="1.184641">
        <ele>410.387</ele>
        <time>2021-08-19T09:02:18Z</time>
      </trkpt>
      <trkpt lat="41.701006" lon="1.184636">
        <ele>409.661</ele>
        <time>2021-08-19T09:02:21Z</time>
      </trkpt>
      <trkpt lat="41.701058" lon="1.184634">
        <ele>409.052</ele>
        <time>2021-08-19T09:02:23Z</time>
      </trkpt>
      <trkpt lat="41.701113" lon="1.184640">
        <ele>408.318</ele>
        <time>2021-08-19T09:02:25Z</time>
      </trkpt>
      <trkpt lat="41.701168" lon="1.184648">
        <ele>408.423</ele>
        <time>2021-08-19T09:02:27Z</time>
      </trkpt>
      <trkpt lat="41.701225" lon="1.184644">
        <ele>408.524</ele>
        <time>2021-08-19T09:02:30Z</time>
      </trkpt>
      <trkpt lat="41.701297" lon="1.184641">
        <ele>408.610</ele>
        <time>2021-08-19T09:02:45Z</time>
      </trkpt>
      <trkpt lat="41.701343" lon="1.184643">
        <ele>408.634</ele>
        <time>2021-08-19T09:02:46Z</time>
      </trkpt>
      <trkpt lat="41.701399" lon="1.184646">
        <ele>408.855</ele>
        <time>2021-08-19T09:02:48Z</time>
      </trkpt>
      <trkpt lat="41.701455" lon="1.184645">
        <ele>409.010</ele>
        <time>2021-08-19T09:02:50Z</time>
      </trkpt>
      <trkpt lat="41.701506" lon="1.184649">
        <ele>409.209</ele>
        <time>2021-08-19T09:02:52Z</time>
      </trkpt>
      <trkpt lat="41.701562" lon="1.184640">
        <ele>409.314</ele>
        <time>2021-08-19T09:02:54Z</time>
      </trkpt>
      <trkpt lat="41.701628" lon="1.184634">
        <ele>409.535</ele>
        <time>2021-08-19T09:02:56Z</time>
      </trkpt>
      <trkpt lat="41.701693" lon="1.184633">
        <ele>409.716</ele>
        <time>2021-08-19T09:02:58Z</time>
      </trkpt>
      <trkpt lat="41.701765" lon="1.184636">
        <ele>409.790</ele>
        <time>2021-08-19T09:03:00Z</time>
      </trkpt>
      <trkpt lat="41.701812" lon="1.184634">
        <ele>409.751</ele>
        <time>2021-08-19T09:03:01Z</time>
      </trkpt>
      <trkpt lat="41.701860" lon="1.184635">
        <ele>409.767</ele>
        <time>2021-08-19T09:03:03Z</time>
      </trkpt>
      <trkpt lat="41.701906" lon="1.184631">
        <ele>409.752</ele>
        <time>2021-08-19T09:03:04Z</time>
      </trkpt>
      <trkpt lat="41.701952" lon="1.184631">
        <ele>409.723</ele>
        <time>2021-08-19T09:03:06Z</time>
      </trkpt>
      <trkpt lat="41.702000" lon="1.184639">
        <ele>409.729</ele>
        <time>2021-08-19T09:03:07Z</time>
      </trkpt>
      <trkpt lat="41.702053" lon="1.184641">
        <ele>409.716</ele>
        <time>2021-08-19T09:03:09Z</time>
      </trkpt>
      <trkpt lat="41.702098" lon="1.184644">
        <ele>409.776</ele>
        <time>2021-08-19T09:03:10Z</time>
      </trkpt>
      <trkpt lat="41.702145" lon="1.184645">
        <ele>409.713</ele>
        <time>2021-08-19T09:03:12Z</time>
      </trkpt>
      <trkpt lat="41.702196" lon="1.184641">
        <ele>409.709</ele>
        <time>2021-08-19T09:03:14Z</time>
      </trkpt>
      <trkpt lat="41.702268" lon="1.184634">
        <ele>409.772</ele>
        <time>2021-08-19T09:03:16Z</time>
      </trkpt>
      <trkpt lat="41.702326" lon="1.184634">
        <ele>409.713</ele>
        <time>2021-08-19T09:03:18Z</time>
      </trkpt>
      <trkpt lat="41.702388" lon="1.184628">
        <ele>409.724</ele>
        <time>2021-08-19T09:03:20Z</time>
      </trkpt>
      <trkpt lat="41.702433" lon="1.184624">
        <ele>409.628</ele>
        <time>2021-08-19T09:03:21Z</time>
      </trkpt>
      <trkpt lat="41.702486" lon="1.184623">
        <ele>409.619</ele>
        <time>2021-08-19T09:03:22Z</time>
      </trkpt>
      <trkpt lat="41.702551" lon="1.184622">
        <ele>409.895</ele>
        <time>2021-08-19T09:03:24Z</time>
      </trkpt>
      <trkpt lat="41.702603" lon="1.184631">
        <ele>409.990</ele>
        <time>2021-08-19T09:03:26Z</time>
      </trkpt>
      <trkpt lat="41.702654" lon="1.184636">
        <ele>410.171</ele>
        <time>2021-08-19T09:03:27Z</time>
      </trkpt>
      <trkpt lat="41.702705" lon="1.184643">
        <ele>410.227</ele>
        <time>2021-08-19T09:03:29Z</time>
      </trkpt>
      <trkpt lat="41.702760" lon="1.184655">
        <ele>410.547</ele>
        <time>2021-08-19T09:03:31Z</time>
      </trkpt>
      <trkpt lat="41.702810" lon="1.184661">
        <ele>410.529</ele>
        <time>2021-08-19T09:03:33Z</time>
      </trkpt>
      <trkpt lat="41.702861" lon="1.184660">
        <ele>410.321</ele>
        <time>2021-08-19T09:03:34Z</time>
      </trkpt>
      <trkpt lat="41.702912" lon="1.184660">
        <ele>410.209</ele>
        <time>2021-08-19T09:03:36Z</time>
      </trkpt>
      <trkpt lat="41.702967" lon="1.184652">
        <ele>410.085</ele>
        <time>2021-08-19T09:03:38Z</time>
      </trkpt>
      <trkpt lat="41.703020" lon="1.184651">
        <ele>409.886</ele>
        <time>2021-08-19T09:03:40Z</time>
      </trkpt>
      <trkpt lat="41.703074" lon="1.184659">
        <ele>409.757</ele>
        <time>2021-08-19T09:03:42Z</time>
      </trkpt>
      <trkpt lat="41.703122" lon="1.184673">
        <ele>409.671</ele>
        <time>2021-08-19T09:03:44Z</time>
      </trkpt>
      <trkpt lat="41.703174" lon="1.184692">
        <ele>409.542</ele>
        <time>2021-08-19T09:03:46Z</time>
      </trkpt>
      <trkpt lat="41.703224" lon="1.184726">
        <ele>409.488</ele>
        <time>2021-08-19T09:03:48Z</time>
      </trkpt>
      <trkpt lat="41.703270" lon="1.184766">
        <ele>409.363</ele>
        <time>2021-08-19T09:03:50Z</time>
      </trkpt>
      <trkpt lat="41.703315" lon="1.184808">
        <ele>409.154</ele>
        <time>2021-08-19T09:03:53Z</time>
      </trkpt>
      <trkpt lat="41.703353" lon="1.184853">
        <ele>408.980</ele>
        <time>2021-08-19T09:03:55Z</time>
      </trkpt>
      <trkpt lat="41.703391" lon="1.184892">
        <ele>408.625</ele>
        <time>2021-08-19T09:03:57Z</time>
      </trkpt>
      <trkpt lat="41.703440" lon="1.184944">
        <ele>408.226</ele>
        <time>2021-08-19T09:04:00Z</time>
      </trkpt>
      <trkpt lat="41.703493" lon="1.184954">
        <ele>407.908</ele>
        <time>2021-08-19T09:04:03Z</time>
      </trkpt>
      <trkpt lat="41.703539" lon="1.184914">
        <ele>407.509</ele>
        <time>2021-08-19T09:04:06Z</time>
      </trkpt>
      <trkpt lat="41.703560" lon="1.184841">
        <ele>407.413</ele>
        <time>2021-08-19T09:04:09Z</time>
      </trkpt>
      <trkpt lat="41.703532" lon="1.184789">
        <ele>407.694</ele>
        <time>2021-08-19T09:04:12Z</time>
      </trkpt>
      <trkpt lat="41.703492" lon="1.184761">
        <ele>407.945</ele>
        <time>2021-08-19T09:04:15Z</time>
      </trkpt>
      <trkpt lat="41.703452" lon="1.184730">
        <ele>408.149</ele>
        <time>2021-08-19T09:04:18Z</time>
      </trkpt>
      <trkpt lat="41.703407" lon="1.184707">
        <ele>408.480</ele>
        <time>2021-08-19T09:04:22Z</time>
      </trkpt>
      <trkpt lat="41.703369" lon="1.184661">
        <ele>408.646</ele>
        <time>2021-08-19T09:04:24Z</time>
      </trkpt>
      <trkpt lat="41.703333" lon="1.184608">
        <ele>408.671</ele>
        <time>2021-08-19T09:04:27Z</time>
      </trkpt>
      <trkpt lat="41.703304" lon="1.184546">
        <ele>408.562</ele>
        <time>2021-08-19T09:04:30Z</time>
      </trkpt>
      <trkpt lat="41.703289" lon="1.184475">
        <ele>408.388</ele>
        <time>2021-08-19T09:04:33Z</time>
      </trkpt>
      <trkpt lat="41.703274" lon="1.184402">
        <ele>408.241</ele>
        <time>2021-08-19T09:04:37Z</time>
      </trkpt>
      <trkpt lat="41.703271" lon="1.184324">
        <ele>408.181</ele>
        <time>2021-08-19T09:04:41Z</time>
      </trkpt>
      <trkpt lat="41.703291" lon="1.184243">
        <ele>408.009</ele>
        <time>2021-08-19T09:04:44Z</time>
      </trkpt>
      <trkpt lat="41.703291" lon="1.184163">
        <ele>408.009</ele>
        <time>2021-08-19T09:04:47Z</time>
      </trkpt>
      <trkpt lat="41.703286" lon="1.184092">
        <ele>408.065</ele>
        <time>2021-08-19T09:04:50Z</time>
      </trkpt>
      <trkpt lat="41.703286" lon="1.184003">
        <ele>408.096</ele>
        <time>2021-08-19T09:04:53Z</time>
      </trkpt>
      <trkpt lat="41.703253" lon="1.183939">
        <ele>408.047</ele>
        <time>2021-08-19T09:04:55Z</time>
      </trkpt>
      <trkpt lat="41.703221" lon="1.183878">
        <ele>408.091</ele>
        <time>2021-08-19T09:04:57Z</time>
      </trkpt>
      <trkpt lat="41.703185" lon="1.183838">
        <ele>408.042</ele>
        <time>2021-08-19T09:04:59Z</time>
      </trkpt>
      <trkpt lat="41.703142" lon="1.183790">
        <ele>408.078</ele>
        <time>2021-08-19T09:05:01Z</time>
      </trkpt>
      <trkpt lat="41.703091" lon="1.183745">
        <ele>408.023</ele>
        <time>2021-08-19T09:05:03Z</time>
      </trkpt>
      <trkpt lat="41.703035" lon="1.183704">
        <ele>407.974</ele>
        <time>2021-08-19T09:05:05Z</time>
      </trkpt>
      <trkpt lat="41.702972" lon="1.183667">
        <ele>407.750</ele>
        <time>2021-08-19T09:05:07Z</time>
      </trkpt>
      <trkpt lat="41.702923" lon="1.183641">
        <ele>407.523</ele>
        <time>2021-08-19T09:05:09Z</time>
      </trkpt>
      <trkpt lat="41.702874" lon="1.183608">
        <ele>407.483</ele>
        <time>2021-08-19T09:05:11Z</time>
      </trkpt>
      <trkpt lat="41.702818" lon="1.183580">
        <ele>407.211</ele>
        <time>2021-08-19T09:05:13Z</time>
      </trkpt>
      <trkpt lat="41.702754" lon="1.183545">
        <ele>407.209</ele>
        <time>2021-08-19T09:05:15Z</time>
      </trkpt>
      <trkpt lat="41.702687" lon="1.183514">
        <ele>407.293</ele>
        <time>2021-08-19T09:05:17Z</time>
      </trkpt>
      <trkpt lat="41.702645" lon="1.183488">
        <ele>407.224</ele>
        <time>2021-08-19T09:05:19Z</time>
      </trkpt>
      <trkpt lat="41.702586" lon="1.183453">
        <ele>407.245</ele>
        <time>2021-08-19T09:05:20Z</time>
      </trkpt>
      <trkpt lat="41.702510" lon="1.183407">
        <ele>407.049</ele>
        <time>2021-08-19T09:05:22Z</time>
      </trkpt>
      <trkpt lat="41.702436" lon="1.183353">
        <ele>406.610</ele>
        <time>2021-08-19T09:05:24Z</time>
      </trkpt>
      <trkpt lat="41.702361" lon="1.183315">
        <ele>406.096</ele>
        <time>2021-08-19T09:05:26Z</time>
      </trkpt>
      <trkpt lat="41.702287" lon="1.183288">
        <ele>405.491</ele>
        <time>2021-08-19T09:05:28Z</time>
      </trkpt>
      <trkpt lat="41.702221" lon="1.183256">
        <ele>405.062</ele>
        <time>2021-08-19T09:05:30Z</time>
      </trkpt>
      <trkpt lat="41.702162" lon="1.183222">
        <ele>404.918</ele>
        <time>2021-08-19T09:05:32Z</time>
      </trkpt>
      <trkpt lat="41.702095" lon="1.183182">
        <ele>404.828</ele>
        <time>2021-08-19T09:05:34Z</time>
      </trkpt>
      <trkpt lat="41.702029" lon="1.183138">
        <ele>404.589</ele>
        <time>2021-08-19T09:05:36Z</time>
      </trkpt>
      <trkpt lat="41.701966" lon="1.183082">
        <ele>404.217</ele>
        <time>2021-08-19T09:05:38Z</time>
      </trkpt>
      <trkpt lat="41.701914" lon="1.183030">
        <ele>404.209</ele>
        <time>2021-08-19T09:05:40Z</time>
      </trkpt>
      <trkpt lat="41.701870" lon="1.182982">
        <ele>404.543</ele>
        <time>2021-08-19T09:05:42Z</time>
      </trkpt>
      <trkpt lat="41.701824" lon="1.182927">
        <ele>404.734</ele>
        <time>2021-08-19T09:05:44Z</time>
      </trkpt>
      <trkpt lat="41.701770" lon="1.182869">
        <ele>404.935</ele>
        <time>2021-08-19T09:05:46Z</time>
      </trkpt>
      <trkpt lat="41.701711" lon="1.182802">
        <ele>405.069</ele>
        <time>2021-08-19T09:05:48Z</time>
      </trkpt>
      <trkpt lat="41.701663" lon="1.182747">
        <ele>404.940</ele>
        <time>2021-08-19T09:05:50Z</time>
      </trkpt>
      <trkpt lat="41.701600" lon="1.182683">
        <ele>404.736</ele>
        <time>2021-08-19T09:05:52Z</time>
      </trkpt>
      <trkpt lat="41.701547" lon="1.182613">
        <ele>404.741</ele>
        <time>2021-08-19T09:05:54Z</time>
      </trkpt>
      <trkpt lat="41.701498" lon="1.182548">
        <ele>404.762</ele>
        <time>2021-08-19T09:05:56Z</time>
      </trkpt>
      <trkpt lat="41.701449" lon="1.182485">
        <ele>404.828</ele>
        <time>2021-08-19T09:05:58Z</time>
      </trkpt>
      <trkpt lat="41.701405" lon="1.182415">
        <ele>404.996</ele>
        <time>2021-08-19T09:06:00Z</time>
      </trkpt>
      <trkpt lat="41.701360" lon="1.182352">
        <ele>405.131</ele>
        <time>2021-08-19T09:06:02Z</time>
      </trkpt>
      <trkpt lat="41.701318" lon="1.182283">
        <ele>405.324</ele>
        <time>2021-08-19T09:06:04Z</time>
      </trkpt>
      <trkpt lat="41.701276" lon="1.182207">
        <ele>405.409</ele>
        <time>2021-08-19T09:06:06Z</time>
      </trkpt>
      <trkpt lat="41.701233" lon="1.182133">
        <ele>405.760</ele>
        <time>2021-08-19T09:06:08Z</time>
      </trkpt>
      <trkpt lat="41.701191" lon="1.182057">
        <ele>405.951</ele>
        <time>2021-08-19T09:06:10Z</time>
      </trkpt>
      <trkpt lat="41.701149" lon="1.181985">
        <ele>406.042</ele>
        <time>2021-08-19T09:06:12Z</time>
      </trkpt>
      <trkpt lat="41.701107" lon="1.181917">
        <ele>406.086</ele>
        <time>2021-08-19T09:06:14Z</time>
      </trkpt>
      <trkpt lat="41.701067" lon="1.181853">
        <ele>405.937</ele>
        <time>2021-08-19T09:06:16Z</time>
      </trkpt>
      <trkpt lat="41.701022" lon="1.181795">
        <ele>405.873</ele>
        <time>2021-08-19T09:06:18Z</time>
      </trkpt>
      <trkpt lat="41.700990" lon="1.181741">
        <ele>405.728</ele>
        <time>2021-08-19T09:06:20Z</time>
      </trkpt>
      <trkpt lat="41.700956" lon="1.181691">
        <ele>405.549</ele>
        <time>2021-08-19T09:06:22Z</time>
      </trkpt>
      <trkpt lat="41.700928" lon="1.181619">
        <ele>405.225</ele>
        <time>2021-08-19T09:06:25Z</time>
      </trkpt>
      <trkpt lat="41.700914" lon="1.181552">
        <ele>405.192</ele>
        <time>2021-08-19T09:06:28Z</time>
      </trkpt>
      <trkpt lat="41.700935" lon="1.181498">
        <ele>404.973</ele>
        <time>2021-08-19T09:06:55Z</time>
      </trkpt>
      <trkpt lat="41.700959" lon="1.181422">
        <ele>404.720</ele>
        <time>2021-08-19T09:06:58Z</time>
      </trkpt>
      <trkpt lat="41.700988" lon="1.181355">
        <ele>404.409</ele>
        <time>2021-08-19T09:07:01Z</time>
      </trkpt>
      <trkpt lat="41.701015" lon="1.181298">
        <ele>404.220</ele>
        <time>2021-08-19T09:07:03Z</time>
      </trkpt>
      <trkpt lat="41.701051" lon="1.181235">
        <ele>404.111</ele>
        <time>2021-08-19T09:07:05Z</time>
      </trkpt>
      <trkpt lat="41.701081" lon="1.181178">
        <ele>404.082</ele>
        <time>2021-08-19T09:07:07Z</time>
      </trkpt>
      <trkpt lat="41.701114" lon="1.181114">
        <ele>404.096</ele>
        <time>2021-08-19T09:07:10Z</time>
      </trkpt>
      <trkpt lat="41.701141" lon="1.181056">
        <ele>403.837</ele>
        <time>2021-08-19T09:07:12Z</time>
      </trkpt>
      <trkpt lat="41.701171" lon="1.181002">
        <ele>403.843</ele>
        <time>2021-08-19T09:07:14Z</time>
      </trkpt>
      <trkpt lat="41.701194" lon="1.180948">
        <ele>403.828</ele>
        <time>2021-08-19T09:07:16Z</time>
      </trkpt>
      <trkpt lat="41.701226" lon="1.180883">
        <ele>403.989</ele>
        <time>2021-08-19T09:07:19Z</time>
      </trkpt>
      <trkpt lat="41.701251" lon="1.180808">
        <ele>404.065</ele>
        <time>2021-08-19T09:07:21Z</time>
      </trkpt>
      <trkpt lat="41.701273" lon="1.180746">
        <ele>404.156</ele>
        <time>2021-08-19T09:07:23Z</time>
      </trkpt>
      <trkpt lat="41.701288" lon="1.180667">
        <ele>404.159</ele>
        <time>2021-08-19T09:07:25Z</time>
      </trkpt>
      <trkpt lat="41.701301" lon="1.180609">
        <ele>404.114</ele>
        <time>2021-08-19T09:07:27Z</time>
      </trkpt>
      <trkpt lat="41.701317" lon="1.180519">
        <ele>403.909</ele>
        <time>2021-08-19T09:07:29Z</time>
      </trkpt>
      <trkpt lat="41.701331" lon="1.180446">
        <ele>403.656</ele>
        <time>2021-08-19T09:07:31Z</time>
      </trkpt>
      <trkpt lat="41.701343" lon="1.180372">
        <ele>403.397</ele>
        <time>2021-08-19T09:07:33Z</time>
      </trkpt>
      <trkpt lat="41.701355" lon="1.180308">
        <ele>403.138</ele>
        <time>2021-08-19T09:07:35Z</time>
      </trkpt>
      <trkpt lat="41.701378" lon="1.180234">
        <ele>402.712</ele>
        <time>2021-08-19T09:07:37Z</time>
      </trkpt>
      <trkpt lat="41.701397" lon="1.180164">
        <ele>402.243</ele>
        <time>2021-08-19T09:07:39Z</time>
      </trkpt>
      <trkpt lat="41.701420" lon="1.180087">
        <ele>401.789</ele>
        <time>2021-08-19T09:07:41Z</time>
      </trkpt>
      <trkpt lat="41.701440" lon="1.180027">
        <ele>401.324</ele>
        <time>2021-08-19T09:07:42Z</time>
      </trkpt>
      <trkpt lat="41.701466" lon="1.179966">
        <ele>401.425</ele>
        <time>2021-08-19T09:07:44Z</time>
      </trkpt>
      <trkpt lat="41.701492" lon="1.179890">
        <ele>401.671</ele>
        <time>2021-08-19T09:07:46Z</time>
      </trkpt>
      <trkpt lat="41.701514" lon="1.179832">
        <ele>401.894</ele>
        <time>2021-08-19T09:07:48Z</time>
      </trkpt>
      <trkpt lat="41.701536" lon="1.179769">
        <ele>401.957</ele>
        <time>2021-08-19T09:07:49Z</time>
      </trkpt>
      <trkpt lat="41.701559" lon="1.179705">
        <ele>402.122</ele>
        <time>2021-08-19T09:07:51Z</time>
      </trkpt>
      <trkpt lat="41.701589" lon="1.179630">
        <ele>402.309</ele>
        <time>2021-08-19T09:07:53Z</time>
      </trkpt>
      <trkpt lat="41.701610" lon="1.179570">
        <ele>402.580</ele>
        <time>2021-08-19T09:07:55Z</time>
      </trkpt>
      <trkpt lat="41.701642" lon="1.179494">
        <ele>402.881</ele>
        <time>2021-08-19T09:07:57Z</time>
      </trkpt>
      <trkpt lat="41.701666" lon="1.179436">
        <ele>403.072</ele>
        <time>2021-08-19T09:07:59Z</time>
      </trkpt>
      <trkpt lat="41.701693" lon="1.179363">
        <ele>403.026</ele>
        <time>2021-08-19T09:08:01Z</time>
      </trkpt>
      <trkpt lat="41.701713" lon="1.179302">
        <ele>403.057</ele>
        <time>2021-08-19T09:08:03Z</time>
      </trkpt>
      <trkpt lat="41.701736" lon="1.179237">
        <ele>402.993</ele>
        <time>2021-08-19T09:08:05Z</time>
      </trkpt>
      <trkpt lat="41.701769" lon="1.179181">
        <ele>402.558</ele>
        <time>2021-08-19T09:08:07Z</time>
      </trkpt>
      <trkpt lat="41.701796" lon="1.179109">
        <ele>402.019</ele>
        <time>2021-08-19T09:08:10Z</time>
      </trkpt>
      <trkpt lat="41.701814" lon="1.179051">
        <ele>401.715</ele>
        <time>2021-08-19T09:08:12Z</time>
      </trkpt>
      <trkpt lat="41.701835" lon="1.178983">
        <ele>401.292</ele>
        <time>2021-08-19T09:08:14Z</time>
      </trkpt>
      <trkpt lat="41.701874" lon="1.178890">
        <ele>400.373</ele>
        <time>2021-08-19T09:08:16Z</time>
      </trkpt>
      <trkpt lat="41.701908" lon="1.178820">
        <ele>399.820</ele>
        <time>2021-08-19T09:08:18Z</time>
      </trkpt>
      <trkpt lat="41.701941" lon="1.178753">
        <ele>399.509</ele>
        <time>2021-08-19T09:08:19Z</time>
      </trkpt>
      <trkpt lat="41.701973" lon="1.178681">
        <ele>399.520</ele>
        <time>2021-08-19T09:08:21Z</time>
      </trkpt>
      <trkpt lat="41.701998" lon="1.178627">
        <ele>399.611</ele>
        <time>2021-08-19T09:08:22Z</time>
      </trkpt>
      <trkpt lat="41.702021" lon="1.178567">
        <ele>399.682</ele>
        <time>2021-08-19T09:08:24Z</time>
      </trkpt>
      <trkpt lat="41.702055" lon="1.178505">
        <ele>399.646</ele>
        <time>2021-08-19T09:08:25Z</time>
      </trkpt>
      <trkpt lat="41.702079" lon="1.178453">
        <ele>399.657</ele>
        <time>2021-08-19T09:08:27Z</time>
      </trkpt>
      <trkpt lat="41.702116" lon="1.178377">
        <ele>399.663</ele>
        <time>2021-08-19T09:08:29Z</time>
      </trkpt>
      <trkpt lat="41.702144" lon="1.178326">
        <ele>399.618</ele>
        <time>2021-08-19T09:08:30Z</time>
      </trkpt>
      <trkpt lat="41.702178" lon="1.178257">
        <ele>399.739</ele>
        <time>2021-08-19T09:08:32Z</time>
      </trkpt>
      <trkpt lat="41.702207" lon="1.178187">
        <ele>400.135</ele>
        <time>2021-08-19T09:08:33Z</time>
      </trkpt>
      <trkpt lat="41.702235" lon="1.178123">
        <ele>400.449</ele>
        <time>2021-08-19T09:08:35Z</time>
      </trkpt>
      <trkpt lat="41.702265" lon="1.178061">
        <ele>400.502</ele>
        <time>2021-08-19T09:08:36Z</time>
      </trkpt>
      <trkpt lat="41.702296" lon="1.177991">
        <ele>400.022</ele>
        <time>2021-08-19T09:08:38Z</time>
      </trkpt>
      <trkpt lat="41.702322" lon="1.177940">
        <ele>399.509</ele>
        <time>2021-08-19T09:08:39Z</time>
      </trkpt>
      <trkpt lat="41.702342" lon="1.177886">
        <ele>399.175</ele>
        <time>2021-08-19T09:08:40Z</time>
      </trkpt>
      <trkpt lat="41.702376" lon="1.177812">
        <ele>398.586</ele>
        <time>2021-08-19T09:08:42Z</time>
      </trkpt>
      <trkpt lat="41.702404" lon="1.177744">
        <ele>397.957</ele>
        <time>2021-08-19T09:08:44Z</time>
      </trkpt>
      <trkpt lat="41.702425" lon="1.177690">
        <ele>397.461</ele>
        <time>2021-08-19T09:08:45Z</time>
      </trkpt>
      <trkpt lat="41.702453" lon="1.177622">
        <ele>396.922</ele>
        <time>2021-08-19T09:08:47Z</time>
      </trkpt>
      <trkpt lat="41.702478" lon="1.177556">
        <ele>396.438</ele>
        <time>2021-08-19T09:08:48Z</time>
      </trkpt>
      <trkpt lat="41.702504" lon="1.177492">
        <ele>396.023</ele>
        <time>2021-08-19T09:08:50Z</time>
      </trkpt>
      <trkpt lat="41.702532" lon="1.177425">
        <ele>395.674</ele>
        <time>2021-08-19T09:08:51Z</time>
      </trkpt>
      <trkpt lat="41.702551" lon="1.177369">
        <ele>395.380</ele>
        <time>2021-08-19T09:08:53Z</time>
      </trkpt>
      <trkpt lat="41.702583" lon="1.177283">
        <ele>394.992</ele>
        <time>2021-08-19T09:08:55Z</time>
      </trkpt>
      <trkpt lat="41.702622" lon="1.177184">
        <ele>394.673</ele>
        <time>2021-08-19T09:08:57Z</time>
      </trkpt>
      <trkpt lat="41.702651" lon="1.177098">
        <ele>394.520</ele>
        <time>2021-08-19T09:08:59Z</time>
      </trkpt>
      <trkpt lat="41.702677" lon="1.177028">
        <ele>394.409</ele>
        <time>2021-08-19T09:09:00Z</time>
      </trkpt>
      <trkpt lat="41.702715" lon="1.176928">
        <ele>394.390</ele>
        <time>2021-08-19T09:09:03Z</time>
      </trkpt>
      <trkpt lat="41.702739" lon="1.176876">
        <ele>394.451</ele>
        <time>2021-08-19T09:09:04Z</time>
      </trkpt>
      <trkpt lat="41.702771" lon="1.176808">
        <ele>394.512</ele>
        <time>2021-08-19T09:09:06Z</time>
      </trkpt>
      <trkpt lat="41.702804" lon="1.176748">
        <ele>394.716</ele>
        <time>2021-08-19T09:09:07Z</time>
      </trkpt>
      <trkpt lat="41.702834" lon="1.176694">
        <ele>394.957</ele>
        <time>2021-08-19T09:09:09Z</time>
      </trkpt>
      <trkpt lat="41.702886" lon="1.176601">
        <ele>395.073</ele>
        <time>2021-08-19T09:09:11Z</time>
      </trkpt>
      <trkpt lat="41.702924" lon="1.176536">
        <ele>395.038</ele>
        <time>2021-08-19T09:09:13Z</time>
      </trkpt>
      <trkpt lat="41.702957" lon="1.176482">
        <ele>395.029</ele>
        <time>2021-08-19T09:09:14Z</time>
      </trkpt>
      <trkpt lat="41.702990" lon="1.176423">
        <ele>395.095</ele>
        <time>2021-08-19T09:09:16Z</time>
      </trkpt>
      <trkpt lat="41.703029" lon="1.176358">
        <ele>394.922</ele>
        <time>2021-08-19T09:09:18Z</time>
      </trkpt>
      <trkpt lat="41.703059" lon="1.176298">
        <ele>394.762</ele>
        <time>2021-08-19T09:09:20Z</time>
      </trkpt>
      <trkpt lat="41.703090" lon="1.176247">
        <ele>394.608</ele>
        <time>2021-08-19T09:09:22Z</time>
      </trkpt>
      <trkpt lat="41.703120" lon="1.176182">
        <ele>394.409</ele>
        <time>2021-08-19T09:09:24Z</time>
      </trkpt>
      <trkpt lat="41.703152" lon="1.176101">
        <ele>394.373</ele>
        <time>2021-08-19T09:09:26Z</time>
      </trkpt>
      <trkpt lat="41.703175" lon="1.176045">
        <ele>394.324</ele>
        <time>2021-08-19T09:09:27Z</time>
      </trkpt>
      <trkpt lat="41.703200" lon="1.175961">
        <ele>394.215</ele>
        <time>2021-08-19T09:09:29Z</time>
      </trkpt>
      <trkpt lat="41.703229" lon="1.175876">
        <ele>394.179</ele>
        <time>2021-08-19T09:09:31Z</time>
      </trkpt>
      <trkpt lat="41.703256" lon="1.175802">
        <ele>394.020</ele>
        <time>2021-08-19T09:09:33Z</time>
      </trkpt>
      <trkpt lat="41.703285" lon="1.175720">
        <ele>394.166</ele>
        <time>2021-08-19T09:09:35Z</time>
      </trkpt>
      <trkpt lat="41.703307" lon="1.175651">
        <ele>394.141</ele>
        <time>2021-08-19T09:09:36Z</time>
      </trkpt>
      <trkpt lat="41.703330" lon="1.175585">
        <ele>394.092</ele>
        <time>2021-08-19T09:09:38Z</time>
      </trkpt>
      <trkpt lat="41.703355" lon="1.175511">
        <ele>394.178</ele>
        <time>2021-08-19T09:09:39Z</time>
      </trkpt>
      <trkpt lat="41.703382" lon="1.175428">
        <ele>394.494</ele>
        <time>2021-08-19T09:09:41Z</time>
      </trkpt>
      <trkpt lat="41.703411" lon="1.175342">
        <ele>394.657</ele>
        <time>2021-08-19T09:09:42Z</time>
      </trkpt>
      <trkpt lat="41.703433" lon="1.175283">
        <ele>394.622</ele>
        <time>2021-08-19T09:09:44Z</time>
      </trkpt>
      <trkpt lat="41.703455" lon="1.175215">
        <ele>394.709</ele>
        <time>2021-08-19T09:09:45Z</time>
      </trkpt>
      <trkpt lat="41.703482" lon="1.175131">
        <ele>394.720</ele>
        <time>2021-08-19T09:09:47Z</time>
      </trkpt>
      <trkpt lat="41.703508" lon="1.175064">
        <ele>394.751</ele>
        <time>2021-08-19T09:09:48Z</time>
      </trkpt>
      <trkpt lat="41.703539" lon="1.174977">
        <ele>394.562</ele>
        <time>2021-08-19T09:09:50Z</time>
      </trkpt>
      <trkpt lat="41.703556" lon="1.174920">
        <ele>394.446</ele>
        <time>2021-08-19T09:09:51Z</time>
      </trkpt>
      <trkpt lat="41.703584" lon="1.174824">
        <ele>394.247</ele>
        <time>2021-08-19T09:09:53Z</time>
      </trkpt>
      <trkpt lat="41.703611" lon="1.174752">
        <ele>394.033</ele>
        <time>2021-08-19T09:09:54Z</time>
      </trkpt>
      <trkpt lat="41.703628" lon="1.174695">
        <ele>393.938</ele>
        <time>2021-08-19T09:09:56Z</time>
      </trkpt>
      <trkpt lat="41.703654" lon="1.174622">
        <ele>393.979</ele>
        <time>2021-08-19T09:09:57Z</time>
      </trkpt>
      <trkpt lat="41.703692" lon="1.174520">
        <ele>393.935</ele>
        <time>2021-08-19T09:09:59Z</time>
      </trkpt>
      <trkpt lat="41.703715" lon="1.174455">
        <ele>394.081</ele>
        <time>2021-08-19T09:10:01Z</time>
      </trkpt>
      <trkpt lat="41.703739" lon="1.174383">
        <ele>393.961</ele>
        <time>2021-08-19T09:10:02Z</time>
      </trkpt>
      <trkpt lat="41.703762" lon="1.174327">
        <ele>393.817</ele>
        <time>2021-08-19T09:10:03Z</time>
      </trkpt>
      <trkpt lat="41.703792" lon="1.174220">
        <ele>393.509</ele>
        <time>2021-08-19T09:10:05Z</time>
      </trkpt>
      <trkpt lat="41.703822" lon="1.174119">
        <ele>393.119</ele>
        <time>2021-08-19T09:10:07Z</time>
      </trkpt>
      <trkpt lat="41.703848" lon="1.174022">
        <ele>392.660</ele>
        <time>2021-08-19T09:10:09Z</time>
      </trkpt>
      <trkpt lat="41.703873" lon="1.173933">
        <ele>392.281</ele>
        <time>2021-08-19T09:10:11Z</time>
      </trkpt>
      <trkpt lat="41.703902" lon="1.173846">
        <ele>391.765</ele>
        <time>2021-08-19T09:10:13Z</time>
      </trkpt>
      <trkpt lat="41.703923" lon="1.173772">
        <ele>391.356</ele>
        <time>2021-08-19T09:10:15Z</time>
      </trkpt>
      <trkpt lat="41.703945" lon="1.173698">
        <ele>390.832</ele>
        <time>2021-08-19T09:10:17Z</time>
      </trkpt>
      <trkpt lat="41.703968" lon="1.173632">
        <ele>390.417</ele>
        <time>2021-08-19T09:10:19Z</time>
      </trkpt>
      <trkpt lat="41.703996" lon="1.173557">
        <ele>390.218</ele>
        <time>2021-08-19T09:10:22Z</time>
      </trkpt>
      <trkpt lat="41.704035" lon="1.173513">
        <ele>390.264</ele>
        <time>2021-08-19T09:10:24Z</time>
      </trkpt>
      <trkpt lat="41.704071" lon="1.173474">
        <ele>390.056</ele>
        <time>2021-08-19T09:10:26Z</time>
      </trkpt>
      <trkpt lat="41.704136" lon="1.173405">
        <ele>389.659</ele>
        <time>2021-08-19T09:10:28Z</time>
      </trkpt>
      <trkpt lat="41.704208" lon="1.173348">
        <ele>389.214</ele>
        <time>2021-08-19T09:10:30Z</time>
      </trkpt>
      <trkpt lat="41.704272" lon="1.173298">
        <ele>389.409</ele>
        <time>2021-08-19T09:10:32Z</time>
      </trkpt>
      <trkpt lat="41.704333" lon="1.173255">
        <ele>389.656</ele>
        <time>2021-08-19T09:10:34Z</time>
      </trkpt>
      <trkpt lat="41.704394" lon="1.173215">
        <ele>389.847</ele>
        <time>2021-08-19T09:10:36Z</time>
      </trkpt>
      <trkpt lat="41.704454" lon="1.173175">
        <ele>390.048</ele>
        <time>2021-08-19T09:10:38Z</time>
      </trkpt>
      <trkpt lat="41.704500" lon="1.173143">
        <ele>389.952</ele>
        <time>2021-08-19T09:10:40Z</time>
      </trkpt>
      <trkpt lat="41.704552" lon="1.173107">
        <ele>389.963</ele>
        <time>2021-08-19T09:10:42Z</time>
      </trkpt>
      <trkpt lat="41.704616" lon="1.173063">
        <ele>390.059</ele>
        <time>2021-08-19T09:10:44Z</time>
      </trkpt>
      <trkpt lat="41.704680" lon="1.173015">
        <ele>390.114</ele>
        <time>2021-08-19T09:10:46Z</time>
      </trkpt>
      <trkpt lat="41.704735" lon="1.172966">
        <ele>390.355</ele>
        <time>2021-08-19T09:10:48Z</time>
      </trkpt>
      <trkpt lat="41.704791" lon="1.172928">
        <ele>390.681</ele>
        <time>2021-08-19T09:10:50Z</time>
      </trkpt>
      <trkpt lat="41.704836" lon="1.172873">
        <ele>390.968</ele>
        <time>2021-08-19T09:10:52Z</time>
      </trkpt>
      <trkpt lat="41.704887" lon="1.172808">
        <ele>391.442</ele>
        <time>2021-08-19T09:10:54Z</time>
      </trkpt>
      <trkpt lat="41.704927" lon="1.172745">
        <ele>391.626</ele>
        <time>2021-08-19T09:10:56Z</time>
      </trkpt>
      <trkpt lat="41.704980" lon="1.172660">
        <ele>391.509</ele>
        <time>2021-08-19T09:10:58Z</time>
      </trkpt>
      <trkpt lat="41.705026" lon="1.172587">
        <ele>391.317</ele>
        <time>2021-08-19T09:11:00Z</time>
      </trkpt>
      <trkpt lat="41.705070" lon="1.172512">
        <ele>391.048</ele>
        <time>2021-08-19T09:11:02Z</time>
      </trkpt>
      <trkpt lat="41.705119" lon="1.172446">
        <ele>390.829</ele>
        <time>2021-08-19T09:11:04Z</time>
      </trkpt>
      <trkpt lat="41.705166" lon="1.172382">
        <ele>390.673</ele>
        <time>2021-08-19T09:11:06Z</time>
      </trkpt>
      <trkpt lat="41.705214" lon="1.172322">
        <ele>390.444</ele>
        <time>2021-08-19T09:11:08Z</time>
      </trkpt>
      <trkpt lat="41.705260" lon="1.172258">
        <ele>390.120</ele>
        <time>2021-08-19T09:11:10Z</time>
      </trkpt>
      <trkpt lat="41.705303" lon="1.172193">
        <ele>389.885</ele>
        <time>2021-08-19T09:11:12Z</time>
      </trkpt>
      <trkpt lat="41.705348" lon="1.172134">
        <ele>389.596</ele>
        <time>2021-08-19T09:11:14Z</time>
      </trkpt>
      <trkpt lat="41.705401" lon="1.172071">
        <ele>389.362</ele>
        <time>2021-08-19T09:11:16Z</time>
      </trkpt>
      <trkpt lat="41.705449" lon="1.172004">
        <ele>389.155</ele>
        <time>2021-08-19T09:11:18Z</time>
      </trkpt>
      <trkpt lat="41.705494" lon="1.171938">
        <ele>389.007</ele>
        <time>2021-08-19T09:11:20Z</time>
      </trkpt>
      <trkpt lat="41.705536" lon="1.171871">
        <ele>389.017</ele>
        <time>2021-08-19T09:11:22Z</time>
      </trkpt>
      <trkpt lat="41.705575" lon="1.171802">
        <ele>388.909</ele>
        <time>2021-08-19T09:11:24Z</time>
      </trkpt>
      <trkpt lat="41.705615" lon="1.171731">
        <ele>388.716</ele>
        <time>2021-08-19T09:11:26Z</time>
      </trkpt>
      <trkpt lat="41.705655" lon="1.171670">
        <ele>388.637</ele>
        <time>2021-08-19T09:11:28Z</time>
      </trkpt>
      <trkpt lat="41.705701" lon="1.171588">
        <ele>388.278</ele>
        <time>2021-08-19T09:11:30Z</time>
      </trkpt>
      <trkpt lat="41.705749" lon="1.171517">
        <ele>387.652</ele>
        <time>2021-08-19T09:11:32Z</time>
      </trkpt>
      <trkpt lat="41.705794" lon="1.171451">
        <ele>386.863</ele>
        <time>2021-08-19T09:11:34Z</time>
      </trkpt>
      <trkpt lat="41.705840" lon="1.171384">
        <ele>385.959</ele>
        <time>2021-08-19T09:11:36Z</time>
      </trkpt>
      <trkpt lat="41.705894" lon="1.171317">
        <ele>385.424</ele>
        <time>2021-08-19T09:11:38Z</time>
      </trkpt>
      <trkpt lat="41.705949" lon="1.171234">
        <ele>384.835</ele>
        <time>2021-08-19T09:11:40Z</time>
      </trkpt>
      <trkpt lat="41.705999" lon="1.171152">
        <ele>384.591</ele>
        <time>2021-08-19T09:11:42Z</time>
      </trkpt>
      <trkpt lat="41.706047" lon="1.171070">
        <ele>384.384</ele>
        <time>2021-08-19T09:11:44Z</time>
      </trkpt>
      <trkpt lat="41.706098" lon="1.170995">
        <ele>384.407</ele>
        <time>2021-08-19T09:11:46Z</time>
      </trkpt>
      <trkpt lat="41.706142" lon="1.170931">
        <ele>384.817</ele>
        <time>2021-08-19T09:11:48Z</time>
      </trkpt>
      <trkpt lat="41.706189" lon="1.170872">
        <ele>385.409</ele>
        <time>2021-08-19T09:11:50Z</time>
      </trkpt>
      <trkpt lat="41.706228" lon="1.170803">
        <ele>386.039</ele>
        <time>2021-08-19T09:11:52Z</time>
      </trkpt>
      <trkpt lat="41.706265" lon="1.170739">
        <ele>386.420</ele>
        <time>2021-08-19T09:11:54Z</time>
      </trkpt>
      <trkpt lat="41.706303" lon="1.170681">
        <ele>386.961</ele>
        <time>2021-08-19T09:11:56Z</time>
      </trkpt>
      <trkpt lat="41.706336" lon="1.170632">
        <ele>387.335</ele>
        <time>2021-08-19T09:11:58Z</time>
      </trkpt>
      <trkpt lat="41.706376" lon="1.170579">
        <ele>387.866</ele>
        <time>2021-08-19T09:12:00Z</time>
      </trkpt>
      <trkpt lat="41.706413" lon="1.170532">
        <ele>387.972</ele>
        <time>2021-08-19T09:12:01Z</time>
      </trkpt>
      <trkpt lat="41.706460" lon="1.170469">
        <ele>387.757</ele>
        <time>2021-08-19T09:12:03Z</time>
      </trkpt>
      <trkpt lat="41.706512" lon="1.170413">
        <ele>387.348</ele>
        <time>2021-08-19T09:12:05Z</time>
      </trkpt>
      <trkpt lat="41.706564" lon="1.170350">
        <ele>386.914</ele>
        <time>2021-08-19T09:12:07Z</time>
      </trkpt>
      <trkpt lat="41.706618" lon="1.170292">
        <ele>386.485</ele>
        <time>2021-08-19T09:12:09Z</time>
      </trkpt>
      <trkpt lat="41.706669" lon="1.170228">
        <ele>386.289</ele>
        <time>2021-08-19T09:12:11Z</time>
      </trkpt>
      <trkpt lat="41.706721" lon="1.170163">
        <ele>386.417</ele>
        <time>2021-08-19T09:12:13Z</time>
      </trkpt>
      <trkpt lat="41.706774" lon="1.170102">
        <ele>386.609</ele>
        <time>2021-08-19T09:12:15Z</time>
      </trkpt>
      <trkpt lat="41.706828" lon="1.170038">
        <ele>386.949</ele>
        <time>2021-08-19T09:12:17Z</time>
      </trkpt>
      <trkpt lat="41.706885" lon="1.169967">
        <ele>387.150</ele>
        <time>2021-08-19T09:12:19Z</time>
      </trkpt>
      <trkpt lat="41.706938" lon="1.169903">
        <ele>387.381</ele>
        <time>2021-08-19T09:12:21Z</time>
      </trkpt>
      <trkpt lat="41.706993" lon="1.169837">
        <ele>387.595</ele>
        <time>2021-08-19T09:12:23Z</time>
      </trkpt>
      <trkpt lat="41.707052" lon="1.169769">
        <ele>387.556</ele>
        <time>2021-08-19T09:12:25Z</time>
      </trkpt>
      <trkpt lat="41.707107" lon="1.169704">
        <ele>387.392</ele>
        <time>2021-08-19T09:12:27Z</time>
      </trkpt>
      <trkpt lat="41.707154" lon="1.169650">
        <ele>387.027</ele>
        <time>2021-08-19T09:12:29Z</time>
      </trkpt>
      <trkpt lat="41.707214" lon="1.169578">
        <ele>386.548</ele>
        <time>2021-08-19T09:12:31Z</time>
      </trkpt>
      <trkpt lat="41.707264" lon="1.169511">
        <ele>386.024</ele>
        <time>2021-08-19T09:12:33Z</time>
      </trkpt>
      <trkpt lat="41.707324" lon="1.169445">
        <ele>385.394</ele>
        <time>2021-08-19T09:12:35Z</time>
      </trkpt>
      <trkpt lat="41.707381" lon="1.169369">
        <ele>384.657</ele>
        <time>2021-08-19T09:12:37Z</time>
      </trkpt>
      <trkpt lat="41.707437" lon="1.169305">
        <ele>384.022</ele>
        <time>2021-08-19T09:12:39Z</time>
      </trkpt>
      <trkpt lat="41.707483" lon="1.169234">
        <ele>383.409</ele>
        <time>2021-08-19T09:12:41Z</time>
      </trkpt>
      <trkpt lat="41.707538" lon="1.169167">
        <ele>383.170</ele>
        <time>2021-08-19T09:12:43Z</time>
      </trkpt>
      <trkpt lat="41.707595" lon="1.169096">
        <ele>383.521</ele>
        <time>2021-08-19T09:12:45Z</time>
      </trkpt>
      <trkpt lat="41.707657" lon="1.169022">
        <ele>383.862</ele>
        <time>2021-08-19T09:12:47Z</time>
      </trkpt>
      <trkpt lat="41.707714" lon="1.168953">
        <ele>383.996</ele>
        <time>2021-08-19T09:12:49Z</time>
      </trkpt>
      <trkpt lat="41.707766" lon="1.168890">
        <ele>384.067</ele>
        <time>2021-08-19T09:12:51Z</time>
      </trkpt>
      <trkpt lat="41.707815" lon="1.168837">
        <ele>384.013</ele>
        <time>2021-08-19T09:12:53Z</time>
      </trkpt>
      <trkpt lat="41.707868" lon="1.168776">
        <ele>384.098</ele>
        <time>2021-08-19T09:12:55Z</time>
      </trkpt>
      <trkpt lat="41.707925" lon="1.168715">
        <ele>384.069</ele>
        <time>2021-08-19T09:12:57Z</time>
      </trkpt>
      <trkpt lat="41.707967" lon="1.168672">
        <ele>384.045</ele>
        <time>2021-08-19T09:12:59Z</time>
      </trkpt>
      <trkpt lat="41.708017" lon="1.168599">
        <ele>384.021</ele>
        <time>2021-08-19T09:13:01Z</time>
      </trkpt>
      <trkpt lat="41.708058" lon="1.168526">
        <ele>384.041</ele>
        <time>2021-08-19T09:13:03Z</time>
      </trkpt>
      <trkpt lat="41.708089" lon="1.168449">
        <ele>383.905</ele>
        <time>2021-08-19T09:13:05Z</time>
      </trkpt>
      <trkpt lat="41.708107" lon="1.168361">
        <ele>384.009</ele>
        <time>2021-08-19T09:13:07Z</time>
      </trkpt>
      <trkpt lat="41.708129" lon="1.168281">
        <ele>384.163</ele>
        <time>2021-08-19T09:13:09Z</time>
      </trkpt>
      <trkpt lat="41.708150" lon="1.168203">
        <ele>384.314</ele>
        <time>2021-08-19T09:13:11Z</time>
      </trkpt>
      <trkpt lat="41.708175" lon="1.168126">
        <ele>384.435</ele>
        <time>2021-08-19T09:13:13Z</time>
      </trkpt>
      <trkpt lat="41.708196" lon="1.168047">
        <ele>384.519</ele>
        <time>2021-08-19T09:13:15Z</time>
      </trkpt>
      <trkpt lat="41.708217" lon="1.167965">
        <ele>384.470</ele>
        <time>2021-08-19T09:13:17Z</time>
      </trkpt>
      <trkpt lat="41.708243" lon="1.167881">
        <ele>384.396</ele>
        <time>2021-08-19T09:13:19Z</time>
      </trkpt>
      <trkpt lat="41.708263" lon="1.167793">
        <ele>384.331</ele>
        <time>2021-08-19T09:13:21Z</time>
      </trkpt>
      <trkpt lat="41.708285" lon="1.167720">
        <ele>384.012</ele>
        <time>2021-08-19T09:13:23Z</time>
      </trkpt>
      <trkpt lat="41.708300" lon="1.167649">
        <ele>383.788</ele>
        <time>2021-08-19T09:13:25Z</time>
      </trkpt>
      <trkpt lat="41.708321" lon="1.167586">
        <ele>383.414</ele>
        <time>2021-08-19T09:13:27Z</time>
      </trkpt>
      <trkpt lat="41.708340" lon="1.167523">
        <ele>383.154</ele>
        <time>2021-08-19T09:13:29Z</time>
      </trkpt>
      <trkpt lat="41.708366" lon="1.167434">
        <ele>382.909</ele>
        <time>2021-08-19T09:13:31Z</time>
      </trkpt>
      <trkpt lat="41.708379" lon="1.167368">
        <ele>382.909</ele>
        <time>2021-08-19T09:13:33Z</time>
      </trkpt>
      <trkpt lat="41.708391" lon="1.167308">
        <ele>382.922</ele>
        <time>2021-08-19T09:13:35Z</time>
      </trkpt>
      <trkpt lat="41.708405" lon="1.167210">
        <ele>383.083</ele>
        <time>2021-08-19T09:13:37Z</time>
      </trkpt>
      <trkpt lat="41.708415" lon="1.167150">
        <ele>382.714</ele>
        <time>2021-08-19T09:13:38Z</time>
      </trkpt>
      <trkpt lat="41.708418" lon="1.167026">
        <ele>382.388</ele>
        <time>2021-08-19T09:13:40Z</time>
      </trkpt>
      <trkpt lat="41.708419" lon="1.166927">
        <ele>381.969</ele>
        <time>2021-08-19T09:13:42Z</time>
      </trkpt>
      <trkpt lat="41.708400" lon="1.166860">
        <ele>381.415</ele>
        <time>2021-08-19T09:13:44Z</time>
      </trkpt>
      <trkpt lat="41.708346" lon="1.166859">
        <ele>381.420</ele>
        <time>2021-08-19T09:14:14Z</time>
      </trkpt>
      <trkpt lat="41.708297" lon="1.166835">
        <ele>381.351</ele>
        <time>2021-08-19T09:14:16Z</time>
      </trkpt>
      <trkpt lat="41.708255" lon="1.166805">
        <ele>381.117</ele>
        <time>2021-08-19T09:14:18Z</time>
      </trkpt>
      <trkpt lat="41.708203" lon="1.166786">
        <ele>381.166</ele>
        <time>2021-08-19T09:14:20Z</time>
      </trkpt>
      <trkpt lat="41.708157" lon="1.166771">
        <ele>381.129</ele>
        <time>2021-08-19T09:14:22Z</time>
      </trkpt>
      <trkpt lat="41.708097" lon="1.166765">
        <ele>381.321</ele>
        <time>2021-08-19T09:14:25Z</time>
      </trkpt>
      <trkpt lat="41.708052" lon="1.166752">
        <ele>381.309</ele>
        <time>2021-08-19T09:14:27Z</time>
      </trkpt>
      <trkpt lat="41.707996" lon="1.166745">
        <ele>381.517</ele>
        <time>2021-08-19T09:14:30Z</time>
      </trkpt>
      <trkpt lat="41.707947" lon="1.166734">
        <ele>381.618</ele>
        <time>2021-08-19T09:14:32Z</time>
      </trkpt>
      <trkpt lat="41.707902" lon="1.166723">
        <ele>381.849</ele>
        <time>2021-08-19T09:14:33Z</time>
      </trkpt>
      <trkpt lat="41.707849" lon="1.166709">
        <ele>381.933</ele>
        <time>2021-08-19T09:14:35Z</time>
      </trkpt>
      <trkpt lat="41.707802" lon="1.166704">
        <ele>382.054</ele>
        <time>2021-08-19T09:14:37Z</time>
      </trkpt>
      <trkpt lat="41.707751" lon="1.166693">
        <ele>382.250</ele>
        <time>2021-08-19T09:14:39Z</time>
      </trkpt>
      <trkpt lat="41.707693" lon="1.166681">
        <ele>382.355</ele>
        <time>2021-08-19T09:14:41Z</time>
      </trkpt>
      <trkpt lat="41.707638" lon="1.166666">
        <ele>382.586</ele>
        <time>2021-08-19T09:14:43Z</time>
      </trkpt>
      <trkpt lat="41.707577" lon="1.166650">
        <ele>382.732</ele>
        <time>2021-08-19T09:14:45Z</time>
      </trkpt>
      <trkpt lat="41.707504" lon="1.166638">
        <ele>382.915</ele>
        <time>2021-08-19T09:14:47Z</time>
      </trkpt>
      <trkpt lat="41.707441" lon="1.166624">
        <ele>382.865</ele>
        <time>2021-08-19T09:14:49Z</time>
      </trkpt>
      <trkpt lat="41.707389" lon="1.166615">
        <ele>382.811</ele>
        <time>2021-08-19T09:14:51Z</time>
      </trkpt>
      <trkpt lat="41.707333" lon="1.166607">
        <ele>382.809</ele>
        <time>2021-08-19T09:14:52Z</time>
      </trkpt>
      <trkpt lat="41.707287" lon="1.166595">
        <ele>382.752</ele>
        <time>2021-08-19T09:14:54Z</time>
      </trkpt>
      <trkpt lat="41.707220" lon="1.166582">
        <ele>382.723</ele>
        <time>2021-08-19T09:14:56Z</time>
      </trkpt>
      <trkpt lat="41.707173" lon="1.166570">
        <ele>382.754</ele>
        <time>2021-08-19T09:14:57Z</time>
      </trkpt>
      <trkpt lat="41.707125" lon="1.166561">
        <ele>382.678</ele>
        <time>2021-08-19T09:14:58Z</time>
      </trkpt>
      <trkpt lat="41.707066" lon="1.166551">
        <ele>382.669</ele>
        <time>2021-08-19T09:15:00Z</time>
      </trkpt>
      <trkpt lat="41.706998" lon="1.166541">
        <ele>382.515</ele>
        <time>2021-08-19T09:15:02Z</time>
      </trkpt>
      <trkpt lat="41.706952" lon="1.166536">
        <ele>382.560</ele>
        <time>2021-08-19T09:15:03Z</time>
      </trkpt>
      <trkpt lat="41.706894" lon="1.166532">
        <ele>382.671</ele>
        <time>2021-08-19T09:15:05Z</time>
      </trkpt>
      <trkpt lat="41.706840" lon="1.166530">
        <ele>382.717</ele>
        <time>2021-08-19T09:15:06Z</time>
      </trkpt>
      <trkpt lat="41.706773" lon="1.166523">
        <ele>382.832</ele>
        <time>2021-08-19T09:15:08Z</time>
      </trkpt>
      <trkpt lat="41.706723" lon="1.166512">
        <ele>382.992</ele>
        <time>2021-08-19T09:15:09Z</time>
      </trkpt>
      <trkpt lat="41.706663" lon="1.166501">
        <ele>383.011</ele>
        <time>2021-08-19T09:15:11Z</time>
      </trkpt>
      <trkpt lat="41.706610" lon="1.166500">
        <ele>383.209</ele>
        <time>2021-08-19T09:15:12Z</time>
      </trkpt>
      <trkpt lat="41.706548" lon="1.166494">
        <ele>383.414</ele>
        <time>2021-08-19T09:15:14Z</time>
      </trkpt>
      <trkpt lat="41.706501" lon="1.166489">
        <ele>383.675</ele>
        <time>2021-08-19T09:15:15Z</time>
      </trkpt>
      <trkpt lat="41.706451" lon="1.166483">
        <ele>383.876</ele>
        <time>2021-08-19T09:15:17Z</time>
      </trkpt>
      <trkpt lat="41.706403" lon="1.166472">
        <ele>383.950</ele>
        <time>2021-08-19T09:15:18Z</time>
      </trkpt>
      <trkpt lat="41.706358" lon="1.166464">
        <ele>383.951</ele>
        <time>2021-08-19T09:15:20Z</time>
      </trkpt>
      <trkpt lat="41.706311" lon="1.166461">
        <ele>383.747</ele>
        <time>2021-08-19T09:15:21Z</time>
      </trkpt>
      <trkpt lat="41.706258" lon="1.166452">
        <ele>383.522</ele>
        <time>2021-08-19T09:15:23Z</time>
      </trkpt>
      <trkpt lat="41.706229" lon="1.166398">
        <ele>383.453</ele>
        <time>2021-08-19T09:15:25Z</time>
      </trkpt>
      <trkpt lat="41.706261" lon="1.166335">
        <ele>383.819</ele>
        <time>2021-08-19T09:15:27Z</time>
      </trkpt>
      <trkpt lat="41.706302" lon="1.166298">
        <ele>384.181</ele>
        <time>2021-08-19T09:15:29Z</time>
      </trkpt>
      <trkpt lat="41.706355" lon="1.166255">
        <ele>384.461</ele>
        <time>2021-08-19T09:15:31Z</time>
      </trkpt>
      <trkpt lat="41.706411" lon="1.166208">
        <ele>384.617</ele>
        <time>2021-08-19T09:15:33Z</time>
      </trkpt>
      <trkpt lat="41.706457" lon="1.166157">
        <ele>384.609</ele>
        <time>2021-08-19T09:15:35Z</time>
      </trkpt>
      <trkpt lat="41.706501" lon="1.166110">
        <ele>384.659</ele>
        <time>2021-08-19T09:15:37Z</time>
      </trkpt>
      <trkpt lat="41.706533" lon="1.166059">
        <ele>384.760</ele>
        <time>2021-08-19T09:15:39Z</time>
      </trkpt>
      <trkpt lat="41.706584" lon="1.166003">
        <ele>384.781</ele>
        <time>2021-08-19T09:15:41Z</time>
      </trkpt>
      <trkpt lat="41.706647" lon="1.165945">
        <ele>384.795</ele>
        <time>2021-08-19T09:15:43Z</time>
      </trkpt>
      <trkpt lat="41.706709" lon="1.165881">
        <ele>384.546</ele>
        <time>2021-08-19T09:15:45Z</time>
      </trkpt>
      <trkpt lat="41.706748" lon="1.165838">
        <ele>384.482</ele>
        <time>2021-08-19T09:15:46Z</time>
      </trkpt>
      <trkpt lat="41.706783" lon="1.165796">
        <ele>384.267</ele>
        <time>2021-08-19T09:15:48Z</time>
      </trkpt>
      <trkpt lat="41.706827" lon="1.165749">
        <ele>384.018</ele>
        <time>2021-08-19T09:15:49Z</time>
      </trkpt>
      <trkpt lat="41.706875" lon="1.165694">
        <ele>383.614</ele>
        <time>2021-08-19T09:15:51Z</time>
      </trkpt>
      <trkpt lat="41.706913" lon="1.165653">
        <ele>383.373</ele>
        <time>2021-08-19T09:15:52Z</time>
      </trkpt>
      <trkpt lat="41.706955" lon="1.165606">
        <ele>383.085</ele>
        <time>2021-08-19T09:15:54Z</time>
      </trkpt>
      <trkpt lat="41.707005" lon="1.165557">
        <ele>382.813</ele>
        <time>2021-08-19T09:15:56Z</time>
      </trkpt>
      <trkpt lat="41.707041" lon="1.165519">
        <ele>382.609</ele>
        <time>2021-08-19T09:15:57Z</time>
      </trkpt>
      <trkpt lat="41.707083" lon="1.165474">
        <ele>382.468</ele>
        <time>2021-08-19T09:15:59Z</time>
      </trkpt>
      <trkpt lat="41.707134" lon="1.165406">
        <ele>381.969</ele>
        <time>2021-08-19T09:16:01Z</time>
      </trkpt>
      <trkpt lat="41.707180" lon="1.165359">
        <ele>381.650</ele>
        <time>2021-08-19T09:16:03Z</time>
      </trkpt>
      <trkpt lat="41.707217" lon="1.165319">
        <ele>381.254</ele>
        <time>2021-08-19T09:16:04Z</time>
      </trkpt>
      <trkpt lat="41.707248" lon="1.165276">
        <ele>381.095</ele>
        <time>2021-08-19T09:16:06Z</time>
      </trkpt>
      <trkpt lat="41.707286" lon="1.165218">
        <ele>380.881</ele>
        <time>2021-08-19T09:16:07Z</time>
      </trkpt>
      <trkpt lat="41.707327" lon="1.165151">
        <ele>380.756</ele>
        <time>2021-08-19T09:16:09Z</time>
      </trkpt>
      <trkpt lat="41.707368" lon="1.165071">
        <ele>380.647</ele>
        <time>2021-08-19T09:16:11Z</time>
      </trkpt>
      <trkpt lat="41.707402" lon="1.165001">
        <ele>380.643</ele>
        <time>2021-08-19T09:16:13Z</time>
      </trkpt>
      <trkpt lat="41.707428" lon="1.164951">
        <ele>380.682</ele>
        <time>2021-08-19T09:16:14Z</time>
      </trkpt>
      <trkpt lat="41.707458" lon="1.164894">
        <ele>380.543</ele>
        <time>2021-08-19T09:16:15Z</time>
      </trkpt>
      <trkpt lat="41.707503" lon="1.164813">
        <ele>380.317</ele>
        <time>2021-08-19T09:16:17Z</time>
      </trkpt>
      <trkpt lat="41.707555" lon="1.164727">
        <ele>379.809</ele>
        <time>2021-08-19T09:16:19Z</time>
      </trkpt>
      <trkpt lat="41.707586" lon="1.164675">
        <ele>379.499</ele>
        <time>2021-08-19T09:16:21Z</time>
      </trkpt>
      <trkpt lat="41.707606" lon="1.164621">
        <ele>379.080</ele>
        <time>2021-08-19T09:16:22Z</time>
      </trkpt>
      <trkpt lat="41.707633" lon="1.164559">
        <ele>378.651</ele>
        <time>2021-08-19T09:16:24Z</time>
      </trkpt>
      <trkpt lat="41.707667" lon="1.164506">
        <ele>378.315</ele>
        <time>2021-08-19T09:16:25Z</time>
      </trkpt>
      <trkpt lat="41.707718" lon="1.164433">
        <ele>378.066</ele>
        <time>2021-08-19T09:16:27Z</time>
      </trkpt>
      <trkpt lat="41.707753" lon="1.164391">
        <ele>377.892</ele>
        <time>2021-08-19T09:16:28Z</time>
      </trkpt>
      <trkpt lat="41.707811" lon="1.164311">
        <ele>377.567</ele>
        <time>2021-08-19T09:16:30Z</time>
      </trkpt>
      <trkpt lat="41.707849" lon="1.164262">
        <ele>377.478</ele>
        <time>2021-08-19T09:16:31Z</time>
      </trkpt>
      <trkpt lat="41.707887" lon="1.164212">
        <ele>377.484</ele>
        <time>2021-08-19T09:16:33Z</time>
      </trkpt>
      <trkpt lat="41.707924" lon="1.164163">
        <ele>377.595</ele>
        <time>2021-08-19T09:16:34Z</time>
      </trkpt>
      <trkpt lat="41.707977" lon="1.164104">
        <ele>377.649</ele>
        <time>2021-08-19T09:16:36Z</time>
      </trkpt>
      <trkpt lat="41.708025" lon="1.164054">
        <ele>377.623</ele>
        <time>2021-08-19T09:16:38Z</time>
      </trkpt>
      <trkpt lat="41.708065" lon="1.164014">
        <ele>377.409</ele>
        <time>2021-08-19T09:16:39Z</time>
      </trkpt>
      <trkpt lat="41.708105" lon="1.163970">
        <ele>377.250</ele>
        <time>2021-08-19T09:16:40Z</time>
      </trkpt>
      <trkpt lat="41.708142" lon="1.163931">
        <ele>377.131</ele>
        <time>2021-08-19T09:16:41Z</time>
      </trkpt>
      <trkpt lat="41.708181" lon="1.163887">
        <ele>377.042</ele>
        <time>2021-08-19T09:16:42Z</time>
      </trkpt>
      <trkpt lat="41.708226" lon="1.163834">
        <ele>377.016</ele>
        <time>2021-08-19T09:16:44Z</time>
      </trkpt>
      <trkpt lat="41.708264" lon="1.163787">
        <ele>376.867</ele>
        <time>2021-08-19T09:16:45Z</time>
      </trkpt>
      <trkpt lat="41.708305" lon="1.163733">
        <ele>376.613</ele>
        <time>2021-08-19T09:16:46Z</time>
      </trkpt>
      <trkpt lat="41.708355" lon="1.163667">
        <ele>376.198</ele>
        <time>2021-08-19T09:16:48Z</time>
      </trkpt>
      <trkpt lat="41.708401" lon="1.163599">
        <ele>375.819</ele>
        <time>2021-08-19T09:16:50Z</time>
      </trkpt>
      <trkpt lat="41.708432" lon="1.163554">
        <ele>375.865</ele>
        <time>2021-08-19T09:16:51Z</time>
      </trkpt>
      <trkpt lat="41.708471" lon="1.163487">
        <ele>375.793</ele>
        <time>2021-08-19T09:16:53Z</time>
      </trkpt>
      <trkpt lat="41.708514" lon="1.163405">
        <ele>375.665</ele>
        <time>2021-08-19T09:16:55Z</time>
      </trkpt>
      <trkpt lat="41.708554" lon="1.163331">
        <ele>375.421</ele>
        <time>2021-08-19T09:16:56Z</time>
      </trkpt>
      <trkpt lat="41.708588" lon="1.163262">
        <ele>375.709</ele>
        <time>2021-08-19T09:16:58Z</time>
      </trkpt>
      <trkpt lat="41.708624" lon="1.163192">
        <ele>375.950</ele>
        <time>2021-08-19T09:16:59Z</time>
      </trkpt>
      <trkpt lat="41.708675" lon="1.163104">
        <ele>376.221</ele>
        <time>2021-08-19T09:17:01Z</time>
      </trkpt>
      <trkpt lat="41.708702" lon="1.163028">
        <ele>376.532</ele>
        <time>2021-08-19T09:17:03Z</time>
      </trkpt>
      <trkpt lat="41.708759" lon="1.162964">
        <ele>376.646</ele>
        <time>2021-08-19T09:17:04Z</time>
      </trkpt>
      <trkpt lat="41.708795" lon="1.162916">
        <ele>376.747</ele>
        <time>2021-08-19T09:17:05Z</time>
      </trkpt>
      <trkpt lat="41.708865" lon="1.162827">
        <ele>376.833</ele>
        <time>2021-08-19T09:17:07Z</time>
      </trkpt>
      <trkpt lat="41.708902" lon="1.162785">
        <ele>376.948</ele>
        <time>2021-08-19T09:17:08Z</time>
      </trkpt>
      <trkpt lat="41.708939" lon="1.162742">
        <ele>376.579</ele>
        <time>2021-08-19T09:17:09Z</time>
      </trkpt>
      <trkpt lat="41.708975" lon="1.162700">
        <ele>376.125</ele>
        <time>2021-08-19T09:17:10Z</time>
      </trkpt>
      <trkpt lat="41.709010" lon="1.162660">
        <ele>375.774</ele>
        <time>2021-08-19T09:17:11Z</time>
      </trkpt>
      <trkpt lat="41.709049" lon="1.162573">
        <ele>375.156</ele>
        <time>2021-08-19T09:17:14Z</time>
      </trkpt>
      <trkpt lat="41.709095" lon="1.162527">
        <ele>374.621</ele>
        <time>2021-08-19T09:17:15Z</time>
      </trkpt>
      <trkpt lat="41.709146" lon="1.162480">
        <ele>374.109</ele>
        <time>2021-08-19T09:17:16Z</time>
      </trkpt>
      <trkpt lat="41.709212" lon="1.162399">
        <ele>373.878</ele>
        <time>2021-08-19T09:17:18Z</time>
      </trkpt>
      <trkpt lat="41.709263" lon="1.162336">
        <ele>373.779</ele>
        <time>2021-08-19T09:17:20Z</time>
      </trkpt>
      <trkpt lat="41.709295" lon="1.162292">
        <ele>373.590</ele>
        <time>2021-08-19T09:17:21Z</time>
      </trkpt>
      <trkpt lat="41.709352" lon="1.162229">
        <ele>373.384</ele>
        <time>2021-08-19T09:17:22Z</time>
      </trkpt>
      <trkpt lat="41.709440" lon="1.162123">
        <ele>373.445</ele>
        <time>2021-08-19T09:17:24Z</time>
      </trkpt>
      <trkpt lat="41.709484" lon="1.162073">
        <ele>373.221</ele>
        <time>2021-08-19T09:17:25Z</time>
      </trkpt>
      <trkpt lat="41.709525" lon="1.162026">
        <ele>372.956</ele>
        <time>2021-08-19T09:17:26Z</time>
      </trkpt>
      <trkpt lat="41.709590" lon="1.161951">
        <ele>372.497</ele>
        <time>2021-08-19T09:17:28Z</time>
      </trkpt>
      <trkpt lat="41.709626" lon="1.161904">
        <ele>372.183</ele>
        <time>2021-08-19T09:17:29Z</time>
      </trkpt>
      <trkpt lat="41.709699" lon="1.161804">
        <ele>371.734</ele>
        <time>2021-08-19T09:17:31Z</time>
      </trkpt>
      <trkpt lat="41.709772" lon="1.161698">
        <ele>371.555</ele>
        <time>2021-08-19T09:17:33Z</time>
      </trkpt>
      <trkpt lat="41.709808" lon="1.161644">
        <ele>371.410</ele>
        <time>2021-08-19T09:17:34Z</time>
      </trkpt>
      <trkpt lat="41.709878" lon="1.161534">
        <ele>371.109</ele>
        <time>2021-08-19T09:17:36Z</time>
      </trkpt>
      <trkpt lat="41.709951" lon="1.161426">
        <ele>370.524</ele>
        <time>2021-08-19T09:17:38Z</time>
      </trkpt>
      <trkpt lat="41.710022" lon="1.161323">
        <ele>370.165</ele>
        <time>2021-08-19T09:17:40Z</time>
      </trkpt>
      <trkpt lat="41.710088" lon="1.161219">
        <ele>369.916</ele>
        <time>2021-08-19T09:17:42Z</time>
      </trkpt>
      <trkpt lat="41.710154" lon="1.161131">
        <ele>369.350</ele>
        <time>2021-08-19T09:17:44Z</time>
      </trkpt>
      <trkpt lat="41.710185" lon="1.161087">
        <ele>369.131</ele>
        <time>2021-08-19T09:17:45Z</time>
      </trkpt>
      <trkpt lat="41.710215" lon="1.161041">
        <ele>368.977</ele>
        <time>2021-08-19T09:17:46Z</time>
      </trkpt>
      <trkpt lat="41.710281" lon="1.160956">
        <ele>368.692</ele>
        <time>2021-08-19T09:17:48Z</time>
      </trkpt>
      <trkpt lat="41.710347" lon="1.160872">
        <ele>368.983</ele>
        <time>2021-08-19T09:17:50Z</time>
      </trkpt>
      <trkpt lat="41.710381" lon="1.160830">
        <ele>369.059</ele>
        <time>2021-08-19T09:17:51Z</time>
      </trkpt>
      <trkpt lat="41.710452" lon="1.160745">
        <ele>369.141</ele>
        <time>2021-08-19T09:17:53Z</time>
      </trkpt>
      <trkpt lat="41.710486" lon="1.160697">
        <ele>369.181</ele>
        <time>2021-08-19T09:17:54Z</time>
      </trkpt>
      <trkpt lat="41.710521" lon="1.160648">
        <ele>369.109</ele>
        <time>2021-08-19T09:17:55Z</time>
      </trkpt>
      <trkpt lat="41.710589" lon="1.160547">
        <ele>368.909</ele>
        <time>2021-08-19T09:17:57Z</time>
      </trkpt>
      <trkpt lat="41.710623" lon="1.160496">
        <ele>369.035</ele>
        <time>2021-08-19T09:17:58Z</time>
      </trkpt>
      <trkpt lat="41.710691" lon="1.160400">
        <ele>369.116</ele>
        <time>2021-08-19T09:18:00Z</time>
      </trkpt>
      <trkpt lat="41.710724" lon="1.160355">
        <ele>369.197</ele>
        <time>2021-08-19T09:18:01Z</time>
      </trkpt>
      <trkpt lat="41.710752" lon="1.160306">
        <ele>369.271</ele>
        <time>2021-08-19T09:18:02Z</time>
      </trkpt>
      <trkpt lat="41.710806" lon="1.160232">
        <ele>368.932</ele>
        <time>2021-08-19T09:18:04Z</time>
      </trkpt>
      <trkpt lat="41.710862" lon="1.160150">
        <ele>368.358</ele>
        <time>2021-08-19T09:18:06Z</time>
      </trkpt>
      <trkpt lat="41.710918" lon="1.160078">
        <ele>367.713</ele>
        <time>2021-08-19T09:18:08Z</time>
      </trkpt>
      <trkpt lat="41.710955" lon="1.160001">
        <ele>367.194</ele>
        <time>2021-08-19T09:18:10Z</time>
      </trkpt>
      <trkpt lat="41.710996" lon="1.159938">
        <ele>366.810</ele>
        <time>2021-08-19T09:18:13Z</time>
      </trkpt>
      <trkpt lat="41.711021" lon="1.159855">
        <ele>366.666</ele>
        <time>2021-08-19T09:18:14Z</time>
      </trkpt>
      <trkpt lat="41.711040" lon="1.159784">
        <ele>366.529</ele>
        <time>2021-08-19T09:18:15Z</time>
      </trkpt>
      <trkpt lat="41.711056" lon="1.159715">
        <ele>366.421</ele>
        <time>2021-08-19T09:18:16Z</time>
      </trkpt>
      <trkpt lat="41.711073" lon="1.159634">
        <ele>366.509</ele>
        <time>2021-08-19T09:18:17Z</time>
      </trkpt>
      <trkpt lat="41.711092" lon="1.159578">
        <ele>366.627</ele>
        <time>2021-08-19T09:18:18Z</time>
      </trkpt>
      <trkpt lat="41.711083" lon="1.159497">
        <ele>366.838</ele>
        <time>2021-08-19T09:18:20Z</time>
      </trkpt>
      <trkpt lat="41.711129" lon="1.159403">
        <ele>367.149</ele>
        <time>2021-08-19T09:18:21Z</time>
      </trkpt>
      <trkpt lat="41.711143" lon="1.159339">
        <ele>367.393</ele>
        <time>2021-08-19T09:18:22Z</time>
      </trkpt>
      <trkpt lat="41.711144" lon="1.159216">
        <ele>367.784</ele>
        <time>2021-08-19T09:18:24Z</time>
      </trkpt>
      <trkpt lat="41.711136" lon="1.159090">
        <ele>367.910</ele>
        <time>2021-08-19T09:18:26Z</time>
      </trkpt>
      <trkpt lat="41.711142" lon="1.158975">
        <ele>367.985</ele>
        <time>2021-08-19T09:18:28Z</time>
      </trkpt>
      <trkpt lat="41.711150" lon="1.158857">
        <ele>367.896</ele>
        <time>2021-08-19T09:18:30Z</time>
      </trkpt>
      <trkpt lat="41.711147" lon="1.158729">
        <ele>367.482</ele>
        <time>2021-08-19T09:18:32Z</time>
      </trkpt>
      <trkpt lat="41.711145" lon="1.158604">
        <ele>367.082</ele>
        <time>2021-08-19T09:18:34Z</time>
      </trkpt>
      <trkpt lat="41.711145" lon="1.158485">
        <ele>366.943</ele>
        <time>2021-08-19T09:18:36Z</time>
      </trkpt>
      <trkpt lat="41.711167" lon="1.158426">
        <ele>366.717</ele>
        <time>2021-08-19T09:18:38Z</time>
      </trkpt>
      <trkpt lat="41.711180" lon="1.158352">
        <ele>366.509</ele>
        <time>2021-08-19T09:18:39Z</time>
      </trkpt>
      <trkpt lat="41.711184" lon="1.158277">
        <ele>366.349</ele>
        <time>2021-08-19T09:18:40Z</time>
      </trkpt>
      <trkpt lat="41.711189" lon="1.158166">
        <ele>366.020</ele>
        <time>2021-08-19T09:18:42Z</time>
      </trkpt>
      <trkpt lat="41.711187" lon="1.158096">
        <ele>365.821</ele>
        <time>2021-08-19T09:18:43Z</time>
      </trkpt>
      <trkpt lat="41.711183" lon="1.158007">
        <ele>365.665</ele>
        <time>2021-08-19T09:18:45Z</time>
      </trkpt>
      <trkpt lat="41.711177" lon="1.157946">
        <ele>365.456</ele>
        <time>2021-08-19T09:18:46Z</time>
      </trkpt>
      <trkpt lat="41.711173" lon="1.157882">
        <ele>365.272</ele>
        <time>2021-08-19T09:18:47Z</time>
      </trkpt>
      <trkpt lat="41.711167" lon="1.157812">
        <ele>364.977</ele>
        <time>2021-08-19T09:18:49Z</time>
      </trkpt>
      <trkpt lat="41.711160" lon="1.157737">
        <ele>364.848</ele>
        <time>2021-08-19T09:18:50Z</time>
      </trkpt>
      <trkpt lat="41.711149" lon="1.157671">
        <ele>364.974</ele>
        <time>2021-08-19T09:18:51Z</time>
      </trkpt>
      <trkpt lat="41.711138" lon="1.157597">
        <ele>364.962</ele>
        <time>2021-08-19T09:18:53Z</time>
      </trkpt>
      <trkpt lat="41.711129" lon="1.157537">
        <ele>364.983</ele>
        <time>2021-08-19T09:18:54Z</time>
      </trkpt>
      <trkpt lat="41.711117" lon="1.157458">
        <ele>365.111</ele>
        <time>2021-08-19T09:18:56Z</time>
      </trkpt>
      <trkpt lat="41.711106" lon="1.157375">
        <ele>365.509</ele>
        <time>2021-08-19T09:18:58Z</time>
      </trkpt>
      <trkpt lat="41.711094" lon="1.157292">
        <ele>365.857</ele>
        <time>2021-08-19T09:19:00Z</time>
      </trkpt>
      <trkpt lat="41.711077" lon="1.157199">
        <ele>366.038</ele>
        <time>2021-08-19T09:19:02Z</time>
      </trkpt>
      <trkpt lat="41.711068" lon="1.157126">
        <ele>366.029</ele>
        <time>2021-08-19T09:19:04Z</time>
      </trkpt>
      <trkpt lat="41.711059" lon="1.157046">
        <ele>366.013</ele>
        <time>2021-08-19T09:19:05Z</time>
      </trkpt>
      <trkpt lat="41.711046" lon="1.156959">
        <ele>366.034</ele>
        <time>2021-08-19T09:19:07Z</time>
      </trkpt>
      <trkpt lat="41.711036" lon="1.156874">
        <ele>365.990</ele>
        <time>2021-08-19T09:19:09Z</time>
      </trkpt>
      <trkpt lat="41.711026" lon="1.156806">
        <ele>365.815</ele>
        <time>2021-08-19T09:19:11Z</time>
      </trkpt>
      <trkpt lat="41.711012" lon="1.156732">
        <ele>365.726</ele>
        <time>2021-08-19T09:19:14Z</time>
      </trkpt>
      <trkpt lat="41.711015" lon="1.156665">
        <ele>365.692</ele>
        <time>2021-08-19T09:19:16Z</time>
      </trkpt>
      <trkpt lat="41.711017" lon="1.156604">
        <ele>365.574</ele>
        <time>2021-08-19T09:19:18Z</time>
      </trkpt>
      <trkpt lat="41.711004" lon="1.156535">
        <ele>365.356</ele>
        <time>2021-08-19T09:19:20Z</time>
      </trkpt>
      <trkpt lat="41.710991" lon="1.156461">
        <ele>365.121</ele>
        <time>2021-08-19T09:19:22Z</time>
      </trkpt>
      <trkpt lat="41.710982" lon="1.156382">
        <ele>365.009</ele>
        <time>2021-08-19T09:19:24Z</time>
      </trkpt>
      <trkpt lat="41.710976" lon="1.156308">
        <ele>364.668</ele>
        <time>2021-08-19T09:19:26Z</time>
      </trkpt>
      <trkpt lat="41.710964" lon="1.156245">
        <ele>364.229</ele>
        <time>2021-08-19T09:19:28Z</time>
      </trkpt>
      <trkpt lat="41.710952" lon="1.156174">
        <ele>363.960</ele>
        <time>2021-08-19T09:19:29Z</time>
      </trkpt>
      <trkpt lat="41.710940" lon="1.156107">
        <ele>363.654</ele>
        <time>2021-08-19T09:19:31Z</time>
      </trkpt>
      <trkpt lat="41.710921" lon="1.156044">
        <ele>363.475</ele>
        <time>2021-08-19T09:19:33Z</time>
      </trkpt>
      <trkpt lat="41.710896" lon="1.155973">
        <ele>363.231</ele>
        <time>2021-08-19T09:19:34Z</time>
      </trkpt>
      <trkpt lat="41.710873" lon="1.155916">
        <ele>363.166</ele>
        <time>2021-08-19T09:19:36Z</time>
      </trkpt>
      <trkpt lat="41.710840" lon="1.155855">
        <ele>363.097</ele>
        <time>2021-08-19T09:19:37Z</time>
      </trkpt>
      <trkpt lat="41.710797" lon="1.155809">
        <ele>363.363</ele>
        <time>2021-08-19T09:19:39Z</time>
      </trkpt>
      <trkpt lat="41.710768" lon="1.155745">
        <ele>363.469</ele>
        <time>2021-08-19T09:19:41Z</time>
      </trkpt>
      <trkpt lat="41.710766" lon="1.155672">
        <ele>363.104</ele>
        <time>2021-08-19T09:19:43Z</time>
      </trkpt>
      <trkpt lat="41.710774" lon="1.155600">
        <ele>362.824</ele>
        <time>2021-08-19T09:19:44Z</time>
      </trkpt>
      <trkpt lat="41.710782" lon="1.155523">
        <ele>362.609</ele>
        <time>2021-08-19T09:19:45Z</time>
      </trkpt>
      <trkpt lat="41.710784" lon="1.155445">
        <ele>362.567</ele>
        <time>2021-08-19T09:19:47Z</time>
      </trkpt>
      <trkpt lat="41.710783" lon="1.155357">
        <ele>362.528</ele>
        <time>2021-08-19T09:19:49Z</time>
      </trkpt>
      <trkpt lat="41.710782" lon="1.155286">
        <ele>362.679</ele>
        <time>2021-08-19T09:19:50Z</time>
      </trkpt>
      <trkpt lat="41.710782" lon="1.155204">
        <ele>362.893</ele>
        <time>2021-08-19T09:19:51Z</time>
      </trkpt>
      <trkpt lat="41.710780" lon="1.155141">
        <ele>363.164</ele>
        <time>2021-08-19T09:19:53Z</time>
      </trkpt>
      <trkpt lat="41.710780" lon="1.155080">
        <ele>363.380</ele>
        <time>2021-08-19T09:19:54Z</time>
      </trkpt>
      <trkpt lat="41.710773" lon="1.154996">
        <ele>363.715</ele>
        <time>2021-08-19T09:19:56Z</time>
      </trkpt>
      <trkpt lat="41.710769" lon="1.154908">
        <ele>363.896</ele>
        <time>2021-08-19T09:19:58Z</time>
      </trkpt>
      <trkpt lat="41.710762" lon="1.154821">
        <ele>363.922</ele>
        <time>2021-08-19T09:20:00Z</time>
      </trkpt>
      <trkpt lat="41.710759" lon="1.154748">
        <ele>364.098</ele>
        <time>2021-08-19T09:20:01Z</time>
      </trkpt>
      <trkpt lat="41.710753" lon="1.154671">
        <ele>364.215</ele>
        <time>2021-08-19T09:20:03Z</time>
      </trkpt>
      <trkpt lat="41.710751" lon="1.154589">
        <ele>364.226</ele>
        <time>2021-08-19T09:20:05Z</time>
      </trkpt>
      <trkpt lat="41.710751" lon="1.154504">
        <ele>364.209</ele>
        <time>2021-08-19T09:20:07Z</time>
      </trkpt>
      <trkpt lat="41.710752" lon="1.154419">
        <ele>364.150</ele>
        <time>2021-08-19T09:20:09Z</time>
      </trkpt>
      <trkpt lat="41.710748" lon="1.154331">
        <ele>363.761</ele>
        <time>2021-08-19T09:20:11Z</time>
      </trkpt>
      <trkpt lat="41.710745" lon="1.154262">
        <ele>363.462</ele>
        <time>2021-08-19T09:20:13Z</time>
      </trkpt>
      <trkpt lat="41.710745" lon="1.154193">
        <ele>363.176</ele>
        <time>2021-08-19T09:20:14Z</time>
      </trkpt>
      <trkpt lat="41.710744" lon="1.154126">
        <ele>362.897</ele>
        <time>2021-08-19T09:20:16Z</time>
      </trkpt>
      <trkpt lat="41.710742" lon="1.154054">
        <ele>362.643</ele>
        <time>2021-08-19T09:20:18Z</time>
      </trkpt>
      <trkpt lat="41.710747" lon="1.153981">
        <ele>362.328</ele>
        <time>2021-08-19T09:20:20Z</time>
      </trkpt>
      <trkpt lat="41.710747" lon="1.153917">
        <ele>362.099</ele>
        <time>2021-08-19T09:20:21Z</time>
      </trkpt>
      <trkpt lat="41.710746" lon="1.153847">
        <ele>361.885</ele>
        <time>2021-08-19T09:20:23Z</time>
      </trkpt>
      <trkpt lat="41.710745" lon="1.153763">
        <ele>361.592</ele>
        <time>2021-08-19T09:20:25Z</time>
      </trkpt>
      <trkpt lat="41.710747" lon="1.153698">
        <ele>361.273</ele>
        <time>2021-08-19T09:20:27Z</time>
      </trkpt>
      <trkpt lat="41.710747" lon="1.153634">
        <ele>361.020</ele>
        <time>2021-08-19T09:20:28Z</time>
      </trkpt>
      <trkpt lat="41.710750" lon="1.153564">
        <ele>360.809</ele>
        <time>2021-08-19T09:20:30Z</time>
      </trkpt>
      <trkpt lat="41.710748" lon="1.153480">
        <ele>360.880</ele>
        <time>2021-08-19T09:20:32Z</time>
      </trkpt>
      <trkpt lat="41.710750" lon="1.153394">
        <ele>360.791</ele>
        <time>2021-08-19T09:20:34Z</time>
      </trkpt>
      <trkpt lat="41.710753" lon="1.153318">
        <ele>360.512</ele>
        <time>2021-08-19T09:20:36Z</time>
      </trkpt>
      <trkpt lat="41.710752" lon="1.153236">
        <ele>360.326</ele>
        <time>2021-08-19T09:20:38Z</time>
      </trkpt>
      <trkpt lat="41.710751" lon="1.153153">
        <ele>360.117</ele>
        <time>2021-08-19T09:20:40Z</time>
      </trkpt>
      <trkpt lat="41.710747" lon="1.153064">
        <ele>360.023</ele>
        <time>2021-08-19T09:20:42Z</time>
      </trkpt>
      <trkpt lat="41.710743" lon="1.153003">
        <ele>359.838</ele>
        <time>2021-08-19T09:20:44Z</time>
      </trkpt>
      <trkpt lat="41.710734" lon="1.152922">
        <ele>359.839</ele>
        <time>2021-08-19T09:20:46Z</time>
      </trkpt>
      <trkpt lat="41.710726" lon="1.152843">
        <ele>359.755</ele>
        <time>2021-08-19T09:20:48Z</time>
      </trkpt>
      <trkpt lat="41.710717" lon="1.152779">
        <ele>359.791</ele>
        <time>2021-08-19T09:20:50Z</time>
      </trkpt>
      <trkpt lat="41.710698" lon="1.152703">
        <ele>360.181</ele>
        <time>2021-08-19T09:20:52Z</time>
      </trkpt>
      <trkpt lat="41.710677" lon="1.152640">
        <ele>360.519</ele>
        <time>2021-08-19T09:20:55Z</time>
      </trkpt>
      <trkpt lat="41.710666" lon="1.152562">
        <ele>360.709</ele>
        <time>2021-08-19T09:20:58Z</time>
      </trkpt>
      <trkpt lat="41.710660" lon="1.152500">
        <ele>360.990</ele>
        <time>2021-08-19T09:21:00Z</time>
      </trkpt>
      <trkpt lat="41.710645" lon="1.152441">
        <ele>361.161</ele>
        <time>2021-08-19T09:21:02Z</time>
      </trkpt>
      <trkpt lat="41.710679" lon="1.152388">
        <ele>360.862</ele>
        <time>2021-08-19T09:22:15Z</time>
      </trkpt>
      <trkpt lat="41.710702" lon="1.152319">
        <ele>360.846</ele>
        <time>2021-08-19T09:22:18Z</time>
      </trkpt>
      <trkpt lat="41.710711" lon="1.152251">
        <ele>360.817</ele>
        <time>2021-08-19T09:22:20Z</time>
      </trkpt>
      <trkpt lat="41.710722" lon="1.152175">
        <ele>360.893</ele>
        <time>2021-08-19T09:22:22Z</time>
      </trkpt>
      <trkpt lat="41.710730" lon="1.152106">
        <ele>360.758</ele>
        <time>2021-08-19T09:22:23Z</time>
      </trkpt>
      <trkpt lat="41.710728" lon="1.152035">
        <ele>360.839</ele>
        <time>2021-08-19T09:22:25Z</time>
      </trkpt>
      <trkpt lat="41.710723" lon="1.151974">
        <ele>360.895</ele>
        <time>2021-08-19T09:22:27Z</time>
      </trkpt>
      <trkpt lat="41.710725" lon="1.151894">
        <ele>360.791</ele>
        <time>2021-08-19T09:22:29Z</time>
      </trkpt>
      <trkpt lat="41.710721" lon="1.151831">
        <ele>360.681</ele>
        <time>2021-08-19T09:22:30Z</time>
      </trkpt>
      <trkpt lat="41.710719" lon="1.151754">
        <ele>360.519</ele>
        <time>2021-08-19T09:22:32Z</time>
      </trkpt>
      <trkpt lat="41.710711" lon="1.151680">
        <ele>360.509</ele>
        <time>2021-08-19T09:22:34Z</time>
      </trkpt>
      <trkpt lat="41.710696" lon="1.151611">
        <ele>360.350</ele>
        <time>2021-08-19T09:22:36Z</time>
      </trkpt>
      <trkpt lat="41.710675" lon="1.151528">
        <ele>360.191</ele>
        <time>2021-08-19T09:22:38Z</time>
      </trkpt>
      <trkpt lat="41.710657" lon="1.151449">
        <ele>359.922</ele>
        <time>2021-08-19T09:22:40Z</time>
      </trkpt>
      <trkpt lat="41.710640" lon="1.151375">
        <ele>359.696</ele>
        <time>2021-08-19T09:22:42Z</time>
      </trkpt>
      <trkpt lat="41.710627" lon="1.151316">
        <ele>359.157</ele>
        <time>2021-08-19T09:22:43Z</time>
      </trkpt>
      <trkpt lat="41.710608" lon="1.151242">
        <ele>358.453</ele>
        <time>2021-08-19T09:22:45Z</time>
      </trkpt>
      <trkpt lat="41.710585" lon="1.151149">
        <ele>357.518</ele>
        <time>2021-08-19T09:22:47Z</time>
      </trkpt>
      <trkpt lat="41.710574" lon="1.151086">
        <ele>357.019</ele>
        <time>2021-08-19T09:22:48Z</time>
      </trkpt>
      <trkpt lat="41.710559" lon="1.151025">
        <ele>356.735</ele>
        <time>2021-08-19T09:22:50Z</time>
      </trkpt>
      <trkpt lat="41.710544" lon="1.150955">
        <ele>356.553</ele>
        <time>2021-08-19T09:22:51Z</time>
      </trkpt>
      <trkpt lat="41.710528" lon="1.150881">
        <ele>356.304</ele>
        <time>2021-08-19T09:22:53Z</time>
      </trkpt>
      <trkpt lat="41.710511" lon="1.150805">
        <ele>356.214</ele>
        <time>2021-08-19T09:22:55Z</time>
      </trkpt>
      <trkpt lat="41.710498" lon="1.150743">
        <ele>356.209</ele>
        <time>2021-08-19T09:22:56Z</time>
      </trkpt>
      <trkpt lat="41.710475" lon="1.150655">
        <ele>356.346</ele>
        <time>2021-08-19T09:22:58Z</time>
      </trkpt>
      <trkpt lat="41.710458" lon="1.150588">
        <ele>356.457</ele>
        <time>2021-08-19T09:23:00Z</time>
      </trkpt>
      <trkpt lat="41.710444" lon="1.150523">
        <ele>356.458</ele>
        <time>2021-08-19T09:23:01Z</time>
      </trkpt>
      <trkpt lat="41.710418" lon="1.150429">
        <ele>356.552</ele>
        <time>2021-08-19T09:23:03Z</time>
      </trkpt>
      <trkpt lat="41.710393" lon="1.150346">
        <ele>356.653</ele>
        <time>2021-08-19T09:23:05Z</time>
      </trkpt>
      <trkpt lat="41.710363" lon="1.150280">
        <ele>356.739</ele>
        <time>2021-08-19T09:23:07Z</time>
      </trkpt>
      <trkpt lat="41.710326" lon="1.150208">
        <ele>357.024</ele>
        <time>2021-08-19T09:23:10Z</time>
      </trkpt>
      <trkpt lat="41.710298" lon="1.150142">
        <ele>357.365</ele>
        <time>2021-08-19T09:23:13Z</time>
      </trkpt>
      <trkpt lat="41.710277" lon="1.150065">
        <ele>357.891</ele>
        <time>2021-08-19T09:23:15Z</time>
      </trkpt>
      <trkpt lat="41.710252" lon="1.150007">
        <ele>358.226</ele>
        <time>2021-08-19T09:23:17Z</time>
      </trkpt>
      <trkpt lat="41.710232" lon="1.149938">
        <ele>358.447</ele>
        <time>2021-08-19T09:23:19Z</time>
      </trkpt>
      <trkpt lat="41.710213" lon="1.149875">
        <ele>358.611</ele>
        <time>2021-08-19T09:23:21Z</time>
      </trkpt>
      <trkpt lat="41.710192" lon="1.149801">
        <ele>358.809</ele>
        <time>2021-08-19T09:23:23Z</time>
      </trkpt>
      <trkpt lat="41.710168" lon="1.149738">
        <ele>359.253</ele>
        <time>2021-08-19T09:23:25Z</time>
      </trkpt>
      <trkpt lat="41.710141" lon="1.149668">
        <ele>359.794</ele>
        <time>2021-08-19T09:23:27Z</time>
      </trkpt>
      <trkpt lat="41.710129" lon="1.149601">
        <ele>360.055</ele>
        <time>2021-08-19T09:23:29Z</time>
      </trkpt>
      <trkpt lat="41.710139" lon="1.149530">
        <ele>360.239</ele>
        <time>2021-08-19T09:23:31Z</time>
      </trkpt>
      <trkpt lat="41.710160" lon="1.149467">
        <ele>360.270</ele>
        <time>2021-08-19T09:23:33Z</time>
      </trkpt>
      <trkpt lat="41.710181" lon="1.149405">
        <ele>360.376</ele>
        <time>2021-08-19T09:23:35Z</time>
      </trkpt>
      <trkpt lat="41.710213" lon="1.149351">
        <ele>360.381</ele>
        <time>2021-08-19T09:23:37Z</time>
      </trkpt>
      <trkpt lat="41.710238" lon="1.149287">
        <ele>360.512</ele>
        <time>2021-08-19T09:23:39Z</time>
      </trkpt>
      <trkpt lat="41.710266" lon="1.149225">
        <ele>360.768</ele>
        <time>2021-08-19T09:23:41Z</time>
      </trkpt>
      <trkpt lat="41.710290" lon="1.149155">
        <ele>360.867</ele>
        <time>2021-08-19T09:23:43Z</time>
      </trkpt>
      <trkpt lat="41.710302" lon="1.149084">
        <ele>360.681</ele>
        <time>2021-08-19T09:23:45Z</time>
      </trkpt>
      <trkpt lat="41.710315" lon="1.149014">
        <ele>360.419</ele>
        <time>2021-08-19T09:23:47Z</time>
      </trkpt>
      <trkpt lat="41.710324" lon="1.148947">
        <ele>360.209</ele>
        <time>2021-08-19T09:23:49Z</time>
      </trkpt>
      <trkpt lat="41.710330" lon="1.148877">
        <ele>360.137</ele>
        <time>2021-08-19T09:23:51Z</time>
      </trkpt>
      <trkpt lat="41.710340" lon="1.148802">
        <ele>360.278</ele>
        <time>2021-08-19T09:23:53Z</time>
      </trkpt>
      <trkpt lat="41.710347" lon="1.148732">
        <ele>360.349</ele>
        <time>2021-08-19T09:23:55Z</time>
      </trkpt>
      <trkpt lat="41.710354" lon="1.148672">
        <ele>360.483</ele>
        <time>2021-08-19T09:23:57Z</time>
      </trkpt>
      <trkpt lat="41.710363" lon="1.148573">
        <ele>360.694</ele>
        <time>2021-08-19T09:23:59Z</time>
      </trkpt>
      <trkpt lat="41.710377" lon="1.148505">
        <ele>360.710</ele>
        <time>2021-08-19T09:24:01Z</time>
      </trkpt>
      <trkpt lat="41.710391" lon="1.148431">
        <ele>360.985</ele>
        <time>2021-08-19T09:24:03Z</time>
      </trkpt>
      <trkpt lat="41.710399" lon="1.148359">
        <ele>361.146</ele>
        <time>2021-08-19T09:24:05Z</time>
      </trkpt>
      <trkpt lat="41.710413" lon="1.148282">
        <ele>361.282</ele>
        <time>2021-08-19T09:24:07Z</time>
      </trkpt>
      <trkpt lat="41.710421" lon="1.148216">
        <ele>361.438</ele>
        <time>2021-08-19T09:24:09Z</time>
      </trkpt>
      <trkpt lat="41.710430" lon="1.148156">
        <ele>361.470</ele>
        <time>2021-08-19T09:24:11Z</time>
      </trkpt>
      <trkpt lat="41.710448" lon="1.148080">
        <ele>361.517</ele>
        <time>2021-08-19T09:24:13Z</time>
      </trkpt>
      <trkpt lat="41.710462" lon="1.147999">
        <ele>361.609</ele>
        <time>2021-08-19T09:24:15Z</time>
      </trkpt>
      <trkpt lat="41.710476" lon="1.147916">
        <ele>361.634</ele>
        <time>2021-08-19T09:24:17Z</time>
      </trkpt>
      <trkpt lat="41.710491" lon="1.147835">
        <ele>361.755</ele>
        <time>2021-08-19T09:24:19Z</time>
      </trkpt>
      <trkpt lat="41.710505" lon="1.147755">
        <ele>361.736</ele>
        <time>2021-08-19T09:24:21Z</time>
      </trkpt>
      <trkpt lat="41.710513" lon="1.147683">
        <ele>361.680</ele>
        <time>2021-08-19T09:24:23Z</time>
      </trkpt>
      <trkpt lat="41.710511" lon="1.147610">
        <ele>361.661</ele>
        <time>2021-08-19T09:24:25Z</time>
      </trkpt>
      <trkpt lat="41.710514" lon="1.147536">
        <ele>361.657</ele>
        <time>2021-08-19T09:24:27Z</time>
      </trkpt>
      <trkpt lat="41.710519" lon="1.147449">
        <ele>361.282</ele>
        <time>2021-08-19T09:24:29Z</time>
      </trkpt>
      <trkpt lat="41.710517" lon="1.147356">
        <ele>360.713</ele>
        <time>2021-08-19T09:24:31Z</time>
      </trkpt>
      <trkpt lat="41.710521" lon="1.147260">
        <ele>360.129</ele>
        <time>2021-08-19T09:24:33Z</time>
      </trkpt>
      <trkpt lat="41.710519" lon="1.147167">
        <ele>359.748</ele>
        <time>2021-08-19T09:24:35Z</time>
      </trkpt>
      <trkpt lat="41.710518" lon="1.147079">
        <ele>359.461</ele>
        <time>2021-08-19T09:24:37Z</time>
      </trkpt>
      <trkpt lat="41.710526" lon="1.146985">
        <ele>358.817</ele>
        <time>2021-08-19T09:24:39Z</time>
      </trkpt>
      <trkpt lat="41.710528" lon="1.146896">
        <ele>358.809</ele>
        <time>2021-08-19T09:24:41Z</time>
      </trkpt>
      <trkpt lat="41.710524" lon="1.146806">
        <ele>359.295</ele>
        <time>2021-08-19T09:24:43Z</time>
      </trkpt>
      <trkpt lat="41.710523" lon="1.146714">
        <ele>359.656</ele>
        <time>2021-08-19T09:24:45Z</time>
      </trkpt>
      <trkpt lat="41.710519" lon="1.146622">
        <ele>360.157</ele>
        <time>2021-08-19T09:24:47Z</time>
      </trkpt>
      <trkpt lat="41.710518" lon="1.146518">
        <ele>360.461</ele>
        <time>2021-08-19T09:24:49Z</time>
      </trkpt>
      <trkpt lat="41.710513" lon="1.146416">
        <ele>360.852</ele>
        <time>2021-08-19T09:24:51Z</time>
      </trkpt>
      <trkpt lat="41.710507" lon="1.146317">
        <ele>361.188</ele>
        <time>2021-08-19T09:24:53Z</time>
      </trkpt>
      <trkpt lat="41.710501" lon="1.146237">
        <ele>361.333</ele>
        <time>2021-08-19T09:24:55Z</time>
      </trkpt>
      <trkpt lat="41.710497" lon="1.146131">
        <ele>361.564</ele>
        <time>2021-08-19T09:24:57Z</time>
      </trkpt>
      <trkpt lat="41.710495" lon="1.146027">
        <ele>361.980</ele>
        <time>2021-08-19T09:24:59Z</time>
      </trkpt>
      <trkpt lat="41.710492" lon="1.145921">
        <ele>362.332</ele>
        <time>2021-08-19T09:25:01Z</time>
      </trkpt>
      <trkpt lat="41.710497" lon="1.145828">
        <ele>362.792</ele>
        <time>2021-08-19T09:25:03Z</time>
      </trkpt>
      <trkpt lat="41.710497" lon="1.145746">
        <ele>362.911</ele>
        <time>2021-08-19T09:25:05Z</time>
      </trkpt>
      <trkpt lat="41.710489" lon="1.145664">
        <ele>363.309</ele>
        <time>2021-08-19T09:25:07Z</time>
      </trkpt>
      <trkpt lat="41.710496" lon="1.145586">
        <ele>363.544</ele>
        <time>2021-08-19T09:25:09Z</time>
      </trkpt>
      <trkpt lat="41.710506" lon="1.145513">
        <ele>363.485</ele>
        <time>2021-08-19T09:25:11Z</time>
      </trkpt>
      <trkpt lat="41.710496" lon="1.145444">
        <ele>363.286</ele>
        <time>2021-08-19T09:25:13Z</time>
      </trkpt>
      <trkpt lat="41.710488" lon="1.145366">
        <ele>362.940</ele>
        <time>2021-08-19T09:25:15Z</time>
      </trkpt>
      <trkpt lat="41.710486" lon="1.145284">
        <ele>362.591</ele>
        <time>2021-08-19T09:25:17Z</time>
      </trkpt>
      <trkpt lat="41.710478" lon="1.145204">
        <ele>361.597</ele>
        <time>2021-08-19T09:25:19Z</time>
      </trkpt>
      <trkpt lat="41.710458" lon="1.145120">
        <ele>360.432</ele>
        <time>2021-08-19T09:25:21Z</time>
      </trkpt>
      <trkpt lat="41.710441" lon="1.145030">
        <ele>359.323</ele>
        <time>2021-08-19T09:25:23Z</time>
      </trkpt>
      <trkpt lat="41.710420" lon="1.144958">
        <ele>358.789</ele>
        <time>2021-08-19T09:25:25Z</time>
      </trkpt>
      <trkpt lat="41.710394" lon="1.144898">
        <ele>358.444</ele>
        <time>2021-08-19T09:25:26Z</time>
      </trkpt>
      <trkpt lat="41.710350" lon="1.144834">
        <ele>358.305</ele>
        <time>2021-08-19T09:25:28Z</time>
      </trkpt>
      <trkpt lat="41.710315" lon="1.144782">
        <ele>358.215</ele>
        <time>2021-08-19T09:25:30Z</time>
      </trkpt>
      <trkpt lat="41.710277" lon="1.144729">
        <ele>358.109</ele>
        <time>2021-08-19T09:25:31Z</time>
      </trkpt>
      <trkpt lat="41.710233" lon="1.144675">
        <ele>357.825</ele>
        <time>2021-08-19T09:25:34Z</time>
      </trkpt>
      <trkpt lat="41.710192" lon="1.144631">
        <ele>357.636</ele>
        <time>2021-08-19T09:26:48Z</time>
      </trkpt>
      <trkpt lat="41.710165" lon="1.144569">
        <ele>357.197</ele>
        <time>2021-08-19T09:26:51Z</time>
      </trkpt>
      <trkpt lat="41.710147" lon="1.144491">
        <ele>356.441</ele>
        <time>2021-08-19T09:26:53Z</time>
      </trkpt>
      <trkpt lat="41.710133" lon="1.144419">
        <ele>355.942</ele>
        <time>2021-08-19T09:26:55Z</time>
      </trkpt>
      <trkpt lat="41.710119" lon="1.144356">
        <ele>355.548</ele>
        <time>2021-08-19T09:26:56Z</time>
      </trkpt>
      <trkpt lat="41.710093" lon="1.144270">
        <ele>355.033</ele>
        <time>2021-08-19T09:26:58Z</time>
      </trkpt>
      <trkpt lat="41.710071" lon="1.144207">
        <ele>354.544</ele>
        <time>2021-08-19T09:26:59Z</time>
      </trkpt>
      <trkpt lat="41.710050" lon="1.144148">
        <ele>354.120</ele>
        <time>2021-08-19T09:27:00Z</time>
      </trkpt>
      <trkpt lat="41.710021" lon="1.144075">
        <ele>353.735</ele>
        <time>2021-08-19T09:27:01Z</time>
      </trkpt>
      <trkpt lat="41.709997" lon="1.144017">
        <ele>353.486</ele>
        <time>2021-08-19T09:27:03Z</time>
      </trkpt>
      <trkpt lat="41.709979" lon="1.143951">
        <ele>353.114</ele>
        <time>2021-08-19T09:27:04Z</time>
      </trkpt>
      <trkpt lat="41.709960" lon="1.143863">
        <ele>352.709</ele>
        <time>2021-08-19T09:27:06Z</time>
      </trkpt>
      <trkpt lat="41.709942" lon="1.143770">
        <ele>352.844</ele>
        <time>2021-08-19T09:27:08Z</time>
      </trkpt>
      <trkpt lat="41.709936" lon="1.143704">
        <ele>352.815</ele>
        <time>2021-08-19T09:27:09Z</time>
      </trkpt>
      <trkpt lat="41.709929" lon="1.143615">
        <ele>353.076</ele>
        <time>2021-08-19T09:27:11Z</time>
      </trkpt>
      <trkpt lat="41.709923" lon="1.143545">
        <ele>352.890</ele>
        <time>2021-08-19T09:27:12Z</time>
      </trkpt>
      <trkpt lat="41.709917" lon="1.143462">
        <ele>352.621</ele>
        <time>2021-08-19T09:27:14Z</time>
      </trkpt>
      <trkpt lat="41.709909" lon="1.143366">
        <ele>352.437</ele>
        <time>2021-08-19T09:27:16Z</time>
      </trkpt>
      <trkpt lat="41.709901" lon="1.143302">
        <ele>352.292</ele>
        <time>2021-08-19T09:27:18Z</time>
      </trkpt>
      <trkpt lat="41.709894" lon="1.143229">
        <ele>352.073</ele>
        <time>2021-08-19T09:27:19Z</time>
      </trkpt>
      <trkpt lat="41.709889" lon="1.143167">
        <ele>351.839</ele>
        <time>2021-08-19T09:27:20Z</time>
      </trkpt>
      <trkpt lat="41.709877" lon="1.143091">
        <ele>351.654</ele>
        <time>2021-08-19T09:27:22Z</time>
      </trkpt>
      <trkpt lat="41.709863" lon="1.143026">
        <ele>351.356</ele>
        <time>2021-08-19T09:27:24Z</time>
      </trkpt>
      <trkpt lat="41.709844" lon="1.142960">
        <ele>351.111</ele>
        <time>2021-08-19T09:27:25Z</time>
      </trkpt>
      <trkpt lat="41.709830" lon="1.142886">
        <ele>350.809</ele>
        <time>2021-08-19T09:27:27Z</time>
      </trkpt>
      <trkpt lat="41.709824" lon="1.142814">
        <ele>350.446</ele>
        <time>2021-08-19T09:27:29Z</time>
      </trkpt>
      <trkpt lat="41.709820" lon="1.142732">
        <ele>350.227</ele>
        <time>2021-08-19T09:27:31Z</time>
      </trkpt>
      <trkpt lat="41.709821" lon="1.142661">
        <ele>350.028</ele>
        <time>2021-08-19T09:27:32Z</time>
      </trkpt>
      <trkpt lat="41.709817" lon="1.142587">
        <ele>349.982</ele>
        <time>2021-08-19T09:27:33Z</time>
      </trkpt>
      <trkpt lat="41.709810" lon="1.142519">
        <ele>349.783</ele>
        <time>2021-08-19T09:27:34Z</time>
      </trkpt>
      <trkpt lat="41.709787" lon="1.142387">
        <ele>349.469</ele>
        <time>2021-08-19T09:27:36Z</time>
      </trkpt>
      <trkpt lat="41.709773" lon="1.142325">
        <ele>349.224</ele>
        <time>2021-08-19T09:27:37Z</time>
      </trkpt>
      <trkpt lat="41.709741" lon="1.142219">
        <ele>348.915</ele>
        <time>2021-08-19T09:27:39Z</time>
      </trkpt>
      <trkpt lat="41.709714" lon="1.142108">
        <ele>348.661</ele>
        <time>2021-08-19T09:27:41Z</time>
      </trkpt>
      <trkpt lat="41.709685" lon="1.142034">
        <ele>348.422</ele>
        <time>2021-08-19T09:27:43Z</time>
      </trkpt>
      <trkpt lat="41.709665" lon="1.141969">
        <ele>348.362</ele>
        <time>2021-08-19T09:27:44Z</time>
      </trkpt>
      <trkpt lat="41.709643" lon="1.141876">
        <ele>348.008</ele>
        <time>2021-08-19T09:27:46Z</time>
      </trkpt>
      <trkpt lat="41.709622" lon="1.141792">
        <ele>347.809</ele>
        <time>2021-08-19T09:27:48Z</time>
      </trkpt>
      <trkpt lat="41.709605" lon="1.141697">
        <ele>347.553</ele>
        <time>2021-08-19T09:27:49Z</time>
      </trkpt>
      <trkpt lat="41.709593" lon="1.141630">
        <ele>347.494</ele>
        <time>2021-08-19T09:27:50Z</time>
      </trkpt>
      <trkpt lat="41.709567" lon="1.141509">
        <ele>347.335</ele>
        <time>2021-08-19T09:27:52Z</time>
      </trkpt>
      <trkpt lat="41.709538" lon="1.141388">
        <ele>347.379</ele>
        <time>2021-08-19T09:27:54Z</time>
      </trkpt>
      <trkpt lat="41.709525" lon="1.141324">
        <ele>347.290</ele>
        <time>2021-08-19T09:27:55Z</time>
      </trkpt>
      <trkpt lat="41.709514" lon="1.141262">
        <ele>347.076</ele>
        <time>2021-08-19T09:27:56Z</time>
      </trkpt>
      <trkpt lat="41.709486" lon="1.141146">
        <ele>346.811</ele>
        <time>2021-08-19T09:27:58Z</time>
      </trkpt>
      <trkpt lat="41.709472" lon="1.141088">
        <ele>346.852</ele>
        <time>2021-08-19T09:27:59Z</time>
      </trkpt>
      <trkpt lat="41.709450" lon="1.140992">
        <ele>347.088</ele>
        <time>2021-08-19T09:28:01Z</time>
      </trkpt>
      <trkpt lat="41.709417" lon="1.140861">
        <ele>347.148</ele>
        <time>2021-08-19T09:28:03Z</time>
      </trkpt>
      <trkpt lat="41.709380" lon="1.140740">
        <ele>347.261</ele>
        <time>2021-08-19T09:28:05Z</time>
      </trkpt>
      <trkpt lat="41.709364" lon="1.140678">
        <ele>347.317</ele>
        <time>2021-08-19T09:28:06Z</time>
      </trkpt>
      <trkpt lat="41.709347" lon="1.140620">
        <ele>347.409</ele>
        <time>2021-08-19T09:28:07Z</time>
      </trkpt>
      <trkpt lat="41.709327" lon="1.140559">
        <ele>347.415</ele>
        <time>2021-08-19T09:28:08Z</time>
      </trkpt>
      <trkpt lat="41.709311" lon="1.140500">
        <ele>347.566</ele>
        <time>2021-08-19T09:28:09Z</time>
      </trkpt>
      <trkpt lat="41.709297" lon="1.140440">
        <ele>347.597</ele>
        <time>2021-08-19T09:28:10Z</time>
      </trkpt>
      <trkpt lat="41.709284" lon="1.140377">
        <ele>347.631</ele>
        <time>2021-08-19T09:28:11Z</time>
      </trkpt>
      <trkpt lat="41.709260" lon="1.140255">
        <ele>347.532</ele>
        <time>2021-08-19T09:28:13Z</time>
      </trkpt>
      <trkpt lat="41.709248" lon="1.140195">
        <ele>347.238</ele>
        <time>2021-08-19T09:28:14Z</time>
      </trkpt>
      <trkpt lat="41.709230" lon="1.140078">
        <ele>346.543</ele>
        <time>2021-08-19T09:28:16Z</time>
      </trkpt>
      <trkpt lat="41.709218" lon="1.139993">
        <ele>346.074</ele>
        <time>2021-08-19T09:28:18Z</time>
      </trkpt>
      <trkpt lat="41.709205" lon="1.139885">
        <ele>345.290</ele>
        <time>2021-08-19T09:28:20Z</time>
      </trkpt>
      <trkpt lat="41.709188" lon="1.139828">
        <ele>344.858</ele>
        <time>2021-08-19T09:28:21Z</time>
      </trkpt>
      <trkpt lat="41.709164" lon="1.139772">
        <ele>344.352</ele>
        <time>2021-08-19T09:28:22Z</time>
      </trkpt>
      <trkpt lat="41.709182" lon="1.139682">
        <ele>343.817</ele>
        <time>2021-08-19T09:28:24Z</time>
      </trkpt>
      <trkpt lat="41.709128" lon="1.139615">
        <ele>342.909</ele>
        <time>2021-08-19T09:28:25Z</time>
      </trkpt>
      <trkpt lat="41.709078" lon="1.139549">
        <ele>342.196</ele>
        <time>2021-08-19T09:28:27Z</time>
      </trkpt>
      <trkpt lat="41.709039" lon="1.139494">
        <ele>341.457</ele>
        <time>2021-08-19T09:28:28Z</time>
      </trkpt>
      <trkpt lat="41.709001" lon="1.139438">
        <ele>340.868</ele>
        <time>2021-08-19T09:28:29Z</time>
      </trkpt>
      <trkpt lat="41.708934" lon="1.139362">
        <ele>340.872</ele>
        <time>2021-08-19T09:28:31Z</time>
      </trkpt>
      <trkpt lat="41.708872" lon="1.139286">
        <ele>341.223</ele>
        <time>2021-08-19T09:28:33Z</time>
      </trkpt>
      <trkpt lat="41.708798" lon="1.139221">
        <ele>342.019</ele>
        <time>2021-08-19T09:28:35Z</time>
      </trkpt>
      <trkpt lat="41.708715" lon="1.139181">
        <ele>342.684</ele>
        <time>2021-08-19T09:28:37Z</time>
      </trkpt>
      <trkpt lat="41.708631" lon="1.139169">
        <ele>342.915</ele>
        <time>2021-08-19T09:28:39Z</time>
      </trkpt>
      <trkpt lat="41.708565" lon="1.139154">
        <ele>343.271</ele>
        <time>2021-08-19T09:28:41Z</time>
      </trkpt>
      <trkpt lat="41.708503" lon="1.139119">
        <ele>343.654</ele>
        <time>2021-08-19T09:28:43Z</time>
      </trkpt>
      <trkpt lat="41.708464" lon="1.139045">
        <ele>343.956</ele>
        <time>2021-08-19T09:28:45Z</time>
      </trkpt>
      <trkpt lat="41.708470" lon="1.138933">
        <ele>344.311</ele>
        <time>2021-08-19T09:28:47Z</time>
      </trkpt>
      <trkpt lat="41.708483" lon="1.138820">
        <ele>344.709</ele>
        <time>2021-08-19T09:28:49Z</time>
      </trkpt>
      <trkpt lat="41.708481" lon="1.138717">
        <ele>344.886</ele>
        <time>2021-08-19T09:28:51Z</time>
      </trkpt>
      <trkpt lat="41.708470" lon="1.138625">
        <ele>345.037</ele>
        <time>2021-08-19T09:28:53Z</time>
      </trkpt>
      <trkpt lat="41.708462" lon="1.138534">
        <ele>344.998</ele>
        <time>2021-08-19T09:28:55Z</time>
      </trkpt>
      <trkpt lat="41.708437" lon="1.138431">
        <ele>344.682</ele>
        <time>2021-08-19T09:28:57Z</time>
      </trkpt>
      <trkpt lat="41.708369" lon="1.138382">
        <ele>344.393</ele>
        <time>2021-08-19T09:28:59Z</time>
      </trkpt>
      <trkpt lat="41.708281" lon="1.138412">
        <ele>344.129</ele>
        <time>2021-08-19T09:29:01Z</time>
      </trkpt>
      <trkpt lat="41.708200" lon="1.138424">
        <ele>343.874</ele>
        <time>2021-08-19T09:29:03Z</time>
      </trkpt>
      <trkpt lat="41.708122" lon="1.138396">
        <ele>343.535</ele>
        <time>2021-08-19T09:29:05Z</time>
      </trkpt>
      <trkpt lat="41.708060" lon="1.138347">
        <ele>343.161</ele>
        <time>2021-08-19T09:29:07Z</time>
      </trkpt>
      <trkpt lat="41.708027" lon="1.138276">
        <ele>343.066</ele>
        <time>2021-08-19T09:29:09Z</time>
      </trkpt>
      <trkpt lat="41.708005" lon="1.138208">
        <ele>342.829</ele>
        <time>2021-08-19T09:29:11Z</time>
      </trkpt>
      <trkpt lat="41.707988" lon="1.138142">
        <ele>342.721</ele>
        <time>2021-08-19T09:29:13Z</time>
      </trkpt>
      <trkpt lat="41.707976" lon="1.138074">
        <ele>342.509</ele>
        <time>2021-08-19T09:29:15Z</time>
      </trkpt>
      <trkpt lat="41.707972" lon="1.138006">
        <ele>342.437</ele>
        <time>2021-08-19T09:29:17Z</time>
      </trkpt>
      <trkpt lat="41.707956" lon="1.137936">
        <ele>342.338</ele>
        <time>2021-08-19T09:29:19Z</time>
      </trkpt>
      <trkpt lat="41.707945" lon="1.137864">
        <ele>342.249</ele>
        <time>2021-08-19T09:29:21Z</time>
      </trkpt>
      <trkpt lat="41.707943" lon="1.137779">
        <ele>342.243</ele>
        <time>2021-08-19T09:29:23Z</time>
      </trkpt>
      <trkpt lat="41.707942" lon="1.137694">
        <ele>342.584</ele>
        <time>2021-08-19T09:29:25Z</time>
      </trkpt>
      <trkpt lat="41.707941" lon="1.137634">
        <ele>342.770</ele>
        <time>2021-08-19T09:29:26Z</time>
      </trkpt>
      <trkpt lat="41.707940" lon="1.137523">
        <ele>343.135</ele>
        <time>2021-08-19T09:29:28Z</time>
      </trkpt>
      <trkpt lat="41.707943" lon="1.137413">
        <ele>343.086</ele>
        <time>2021-08-19T09:29:30Z</time>
      </trkpt>
      <trkpt lat="41.707948" lon="1.137297">
        <ele>342.852</ele>
        <time>2021-08-19T09:29:32Z</time>
      </trkpt>
      <trkpt lat="41.707953" lon="1.137186">
        <ele>342.527</ele>
        <time>2021-08-19T09:29:34Z</time>
      </trkpt>
      <trkpt lat="41.707962" lon="1.137079">
        <ele>342.368</ele>
        <time>2021-08-19T09:29:36Z</time>
      </trkpt>
      <trkpt lat="41.707975" lon="1.136980">
        <ele>342.114</ele>
        <time>2021-08-19T09:29:38Z</time>
      </trkpt>
      <trkpt lat="41.707973" lon="1.136880">
        <ele>342.409</ele>
        <time>2021-08-19T09:29:40Z</time>
      </trkpt>
      <trkpt lat="41.707976" lon="1.136770">
        <ele>343.143</ele>
        <time>2021-08-19T09:29:42Z</time>
      </trkpt>
      <trkpt lat="41.707977" lon="1.136660">
        <ele>343.874</ele>
        <time>2021-08-19T09:29:44Z</time>
      </trkpt>
      <trkpt lat="41.707969" lon="1.136598">
        <ele>344.525</ele>
        <time>2021-08-19T09:29:45Z</time>
      </trkpt>
      <trkpt lat="41.707956" lon="1.136515">
        <ele>345.499</ele>
        <time>2021-08-19T09:29:47Z</time>
      </trkpt>
      <trkpt lat="41.707943" lon="1.136453">
        <ele>346.010</ele>
        <time>2021-08-19T09:29:48Z</time>
      </trkpt>
      <trkpt lat="41.707924" lon="1.136378">
        <ele>346.726</ele>
        <time>2021-08-19T09:29:49Z</time>
      </trkpt>
      <trkpt lat="41.707908" lon="1.136318">
        <ele>346.931</ele>
        <time>2021-08-19T09:29:50Z</time>
      </trkpt>
      <trkpt lat="41.707875" lon="1.136213">
        <ele>347.312</ele>
        <time>2021-08-19T09:29:52Z</time>
      </trkpt>
      <trkpt lat="41.707846" lon="1.136139">
        <ele>347.528</ele>
        <time>2021-08-19T09:29:54Z</time>
      </trkpt>
      <trkpt lat="41.707826" lon="1.136079">
        <ele>347.774</ele>
        <time>2021-08-19T09:29:55Z</time>
      </trkpt>
      <trkpt lat="41.707787" lon="1.135980">
        <ele>347.656</ele>
        <time>2021-08-19T09:29:57Z</time>
      </trkpt>
      <trkpt lat="41.707734" lon="1.135900">
        <ele>347.121</ele>
        <time>2021-08-19T09:29:59Z</time>
      </trkpt>
      <trkpt lat="41.707690" lon="1.135814">
        <ele>346.909</ele>
        <time>2021-08-19T09:30:01Z</time>
      </trkpt>
      <trkpt lat="41.707656" lon="1.135747">
        <ele>346.768</ele>
        <time>2021-08-19T09:30:03Z</time>
      </trkpt>
      <trkpt lat="41.707621" lon="1.135693">
        <ele>346.589</ele>
        <time>2021-08-19T09:30:05Z</time>
      </trkpt>
      <trkpt lat="41.707580" lon="1.135635">
        <ele>346.160</ele>
        <time>2021-08-19T09:30:07Z</time>
      </trkpt>
      <trkpt lat="41.707536" lon="1.135573">
        <ele>345.694</ele>
        <time>2021-08-19T09:30:09Z</time>
      </trkpt>
      <trkpt lat="41.707490" lon="1.135508">
        <ele>345.265</ele>
        <time>2021-08-19T09:30:11Z</time>
      </trkpt>
      <trkpt lat="41.707441" lon="1.135442">
        <ele>345.191</ele>
        <time>2021-08-19T09:30:13Z</time>
      </trkpt>
      <trkpt lat="41.707392" lon="1.135365">
        <ele>344.956</ele>
        <time>2021-08-19T09:30:15Z</time>
      </trkpt>
      <trkpt lat="41.707347" lon="1.135293">
        <ele>344.787</ele>
        <time>2021-08-19T09:30:17Z</time>
      </trkpt>
      <trkpt lat="41.707305" lon="1.135239">
        <ele>344.693</ele>
        <time>2021-08-19T09:30:19Z</time>
      </trkpt>
      <trkpt lat="41.707265" lon="1.135179">
        <ele>344.416</ele>
        <time>2021-08-19T09:30:21Z</time>
      </trkpt>
      <trkpt lat="41.707228" lon="1.135113">
        <ele>344.376</ele>
        <time>2021-08-19T09:30:23Z</time>
      </trkpt>
      <trkpt lat="41.707192" lon="1.135050">
        <ele>344.213</ele>
        <time>2021-08-19T09:30:25Z</time>
      </trkpt>
      <trkpt lat="41.707165" lon="1.135001">
        <ele>344.209</ele>
        <time>2021-08-19T09:30:26Z</time>
      </trkpt>
      <trkpt lat="41.707118" lon="1.134930">
        <ele>344.352</ele>
        <time>2021-08-19T09:30:28Z</time>
      </trkpt>
      <trkpt lat="41.707073" lon="1.134865">
        <ele>344.333</ele>
        <time>2021-08-19T09:30:30Z</time>
      </trkpt>
      <trkpt lat="41.707028" lon="1.134803">
        <ele>344.054</ele>
        <time>2021-08-19T09:30:32Z</time>
      </trkpt>
      <trkpt lat="41.706986" lon="1.134733">
        <ele>343.838</ele>
        <time>2021-08-19T09:30:34Z</time>
      </trkpt>
      <trkpt lat="41.706946" lon="1.134666">
        <ele>343.429</ele>
        <time>2021-08-19T09:30:36Z</time>
      </trkpt>
      <trkpt lat="41.706915" lon="1.134619">
        <ele>343.255</ele>
        <time>2021-08-19T09:30:38Z</time>
      </trkpt>
      <trkpt lat="41.706875" lon="1.134582">
        <ele>342.810</ele>
        <time>2021-08-19T09:30:41Z</time>
      </trkpt>
      <trkpt lat="41.706849" lon="1.134525">
        <ele>342.761</ele>
        <time>2021-08-19T09:31:11Z</time>
      </trkpt>
      <trkpt lat="41.706816" lon="1.134466">
        <ele>342.547</ele>
        <time>2021-08-19T09:31:16Z</time>
      </trkpt>
      <trkpt lat="41.706776" lon="1.134426">
        <ele>342.249</ele>
        <time>2021-08-19T09:31:21Z</time>
      </trkpt>
      <trkpt lat="41.706745" lon="1.134378">
        <ele>342.302</ele>
        <time>2021-08-19T09:31:26Z</time>
      </trkpt>
      <trkpt lat="41.706707" lon="1.134328">
        <ele>342.322</ele>
        <time>2021-08-19T09:33:12Z</time>
      </trkpt>
      <trkpt lat="41.706661" lon="1.134275">
        <ele>342.409</ele>
        <time>2021-08-19T09:33:15Z</time>
      </trkpt>
      <trkpt lat="41.706629" lon="1.134202">
        <ele>343.145</ele>
        <time>2021-08-19T09:33:19Z</time>
      </trkpt>
      <trkpt lat="41.706583" lon="1.134152">
        <ele>343.336</ele>
        <time>2021-08-19T09:33:21Z</time>
      </trkpt>
      <trkpt lat="41.706544" lon="1.134111">
        <ele>343.587</ele>
        <time>2021-08-19T09:33:23Z</time>
      </trkpt>
      <trkpt lat="41.706496" lon="1.134059">
        <ele>343.751</ele>
        <time>2021-08-19T09:33:25Z</time>
      </trkpt>
      <trkpt lat="41.706463" lon="1.133999">
        <ele>344.272</ele>
        <time>2021-08-19T09:33:27Z</time>
      </trkpt>
      <trkpt lat="41.706424" lon="1.133953">
        <ele>344.538</ele>
        <time>2021-08-19T09:33:29Z</time>
      </trkpt>
      <trkpt lat="41.706391" lon="1.133901">
        <ele>344.883</ele>
        <time>2021-08-19T09:33:31Z</time>
      </trkpt>
      <trkpt lat="41.706351" lon="1.133855">
        <ele>345.244</ele>
        <time>2021-08-19T09:33:33Z</time>
      </trkpt>
      <trkpt lat="41.706315" lon="1.133807">
        <ele>345.530</ele>
        <time>2021-08-19T09:33:35Z</time>
      </trkpt>
      <trkpt lat="41.706283" lon="1.133752">
        <ele>345.885</ele>
        <time>2021-08-19T09:33:37Z</time>
      </trkpt>
      <trkpt lat="41.706242" lon="1.133681">
        <ele>346.189</ele>
        <time>2021-08-19T09:33:40Z</time>
      </trkpt>
      <trkpt lat="41.706202" lon="1.133630">
        <ele>346.117</ele>
        <time>2021-08-19T09:33:43Z</time>
      </trkpt>
      <trkpt lat="41.706169" lon="1.133588">
        <ele>345.909</ele>
        <time>2021-08-19T09:33:45Z</time>
      </trkpt>
      <trkpt lat="41.706117" lon="1.133529">
        <ele>345.429</ele>
        <time>2021-08-19T09:33:48Z</time>
      </trkpt>
      <trkpt lat="41.706089" lon="1.133473">
        <ele>345.140</ele>
        <time>2021-08-19T09:33:50Z</time>
      </trkpt>
      <trkpt lat="41.706051" lon="1.133428">
        <ele>344.611</ele>
        <time>2021-08-19T09:33:52Z</time>
      </trkpt>
      <trkpt lat="41.706019" lon="1.133378">
        <ele>344.215</ele>
        <time>2021-08-19T09:33:54Z</time>
      </trkpt>
      <trkpt lat="41.705987" lon="1.133335">
        <ele>343.866</ele>
        <time>2021-08-19T09:33:56Z</time>
      </trkpt>
      <trkpt lat="41.705945" lon="1.133278">
        <ele>343.242</ele>
        <time>2021-08-19T09:33:58Z</time>
      </trkpt>
      <trkpt lat="41.705903" lon="1.133226">
        <ele>342.617</ele>
        <time>2021-08-19T09:34:00Z</time>
      </trkpt>
      <trkpt lat="41.705867" lon="1.133177">
        <ele>342.258</ele>
        <time>2021-08-19T09:34:02Z</time>
      </trkpt>
      <trkpt lat="41.705832" lon="1.133131">
        <ele>341.774</ele>
        <time>2021-08-19T09:34:04Z</time>
      </trkpt>
      <trkpt lat="41.705793" lon="1.133092">
        <ele>341.649</ele>
        <time>2021-08-19T09:34:06Z</time>
      </trkpt>
      <trkpt lat="41.705757" lon="1.133051">
        <ele>341.502</ele>
        <time>2021-08-19T09:34:08Z</time>
      </trkpt>
      <trkpt lat="41.705710" lon="1.133005">
        <ele>341.422</ele>
        <time>2021-08-19T09:34:10Z</time>
      </trkpt>
      <trkpt lat="41.705667" lon="1.132940">
        <ele>341.409</ele>
        <time>2021-08-19T09:34:12Z</time>
      </trkpt>
      <trkpt lat="41.705625" lon="1.132865">
        <ele>341.445</ele>
        <time>2021-08-19T09:34:14Z</time>
      </trkpt>
      <trkpt lat="41.705590" lon="1.132782">
        <ele>341.426</ele>
        <time>2021-08-19T09:34:16Z</time>
      </trkpt>
      <trkpt lat="41.705543" lon="1.132700">
        <ele>341.437</ele>
        <time>2021-08-19T09:34:18Z</time>
      </trkpt>
      <trkpt lat="41.705490" lon="1.132628">
        <ele>341.431</ele>
        <time>2021-08-19T09:34:20Z</time>
      </trkpt>
      <trkpt lat="41.705438" lon="1.132566">
        <ele>341.352</ele>
        <time>2021-08-19T09:34:22Z</time>
      </trkpt>
      <trkpt lat="41.705396" lon="1.132528">
        <ele>341.148</ele>
        <time>2021-08-19T09:34:24Z</time>
      </trkpt>
      <trkpt lat="41.705346" lon="1.132465">
        <ele>341.013</ele>
        <time>2021-08-19T09:34:26Z</time>
      </trkpt>
      <trkpt lat="41.705310" lon="1.132415">
        <ele>340.914</ele>
        <time>2021-08-19T09:34:28Z</time>
      </trkpt>
      <trkpt lat="41.705291" lon="1.132354">
        <ele>341.250</ele>
        <time>2021-08-19T09:34:30Z</time>
      </trkpt>
      <trkpt lat="41.705267" lon="1.132290">
        <ele>341.475</ele>
        <time>2021-08-19T09:34:32Z</time>
      </trkpt>
      <trkpt lat="41.705230" lon="1.132223">
        <ele>341.628</ele>
        <time>2021-08-19T09:34:34Z</time>
      </trkpt>
      <trkpt lat="41.705197" lon="1.132139">
        <ele>341.820</ele>
        <time>2021-08-19T09:34:36Z</time>
      </trkpt>
      <trkpt lat="41.705158" lon="1.132072">
        <ele>341.909</ele>
        <time>2021-08-19T09:34:38Z</time>
      </trkpt>
      <trkpt lat="41.705132" lon="1.132018">
        <ele>342.158</ele>
        <time>2021-08-19T09:34:40Z</time>
      </trkpt>
      <trkpt lat="41.705102" lon="1.131965">
        <ele>342.279</ele>
        <time>2021-08-19T09:34:43Z</time>
      </trkpt>
      <trkpt lat="41.705071" lon="1.131904">
        <ele>342.640</ele>
        <time>2021-08-19T09:34:46Z</time>
      </trkpt>
      <trkpt lat="41.705038" lon="1.131836">
        <ele>343.064</ele>
        <time>2021-08-19T09:34:49Z</time>
      </trkpt>
      <trkpt lat="41.704994" lon="1.131772">
        <ele>343.295</ele>
        <time>2021-08-19T09:34:52Z</time>
      </trkpt>
      <trkpt lat="41.704972" lon="1.131717">
        <ele>343.481</ele>
        <time>2021-08-19T09:34:54Z</time>
      </trkpt>
      <trkpt lat="41.704938" lon="1.131662">
        <ele>343.486</ele>
        <time>2021-08-19T09:34:56Z</time>
      </trkpt>
      <trkpt lat="41.704904" lon="1.131601">
        <ele>343.767</ele>
        <time>2021-08-19T09:34:58Z</time>
      </trkpt>
      <trkpt lat="41.704868" lon="1.131542">
        <ele>343.943</ele>
        <time>2021-08-19T09:35:00Z</time>
      </trkpt>
      <trkpt lat="41.704825" lon="1.131489">
        <ele>344.015</ele>
        <time>2021-08-19T09:35:02Z</time>
      </trkpt>
      <trkpt lat="41.704783" lon="1.131437">
        <ele>344.165</ele>
        <time>2021-08-19T09:35:04Z</time>
      </trkpt>
      <trkpt lat="41.704742" lon="1.131390">
        <ele>344.211</ele>
        <time>2021-08-19T09:35:06Z</time>
      </trkpt>
      <trkpt lat="41.704695" lon="1.131350">
        <ele>344.409</ele>
        <time>2021-08-19T09:35:08Z</time>
      </trkpt>
      <trkpt lat="41.704656" lon="1.131308">
        <ele>344.662</ele>
        <time>2021-08-19T09:35:10Z</time>
      </trkpt>
      <trkpt lat="41.704617" lon="1.131273">
        <ele>344.683</ele>
        <time>2021-08-19T09:35:12Z</time>
      </trkpt>
      <trkpt lat="41.704581" lon="1.131234">
        <ele>344.714</ele>
        <time>2021-08-19T09:35:14Z</time>
      </trkpt>
      <trkpt lat="41.704538" lon="1.131205">
        <ele>344.458</ele>
        <time>2021-08-19T09:35:16Z</time>
      </trkpt>
      <trkpt lat="41.704500" lon="1.131160">
        <ele>344.469</ele>
        <time>2021-08-19T09:35:18Z</time>
      </trkpt>
      <trkpt lat="41.704447" lon="1.131134">
        <ele>343.895</ele>
        <time>2021-08-19T09:35:20Z</time>
      </trkpt>
      <trkpt lat="41.704394" lon="1.131094">
        <ele>344.120</ele>
        <time>2021-08-19T09:35:22Z</time>
      </trkpt>
      <trkpt lat="41.704340" lon="1.131066">
        <ele>344.361</ele>
        <time>2021-08-19T09:35:25Z</time>
      </trkpt>
      <trkpt lat="41.704287" lon="1.131037">
        <ele>344.557</ele>
        <time>2021-08-19T09:35:27Z</time>
      </trkpt>
      <trkpt lat="41.704244" lon="1.131019">
        <ele>344.612</ele>
        <time>2021-08-19T09:35:29Z</time>
      </trkpt>
      <trkpt lat="41.704191" lon="1.130997">
        <ele>344.732</ele>
        <time>2021-08-19T09:35:31Z</time>
      </trkpt>
      <trkpt lat="41.704131" lon="1.130963">
        <ele>345.305</ele>
        <time>2021-08-19T09:35:33Z</time>
      </trkpt>
      <trkpt lat="41.704076" lon="1.130943">
        <ele>345.809</ele>
        <time>2021-08-19T09:35:35Z</time>
      </trkpt>
      <trkpt lat="41.704026" lon="1.130920">
        <ele>346.432</ele>
        <time>2021-08-19T09:35:37Z</time>
      </trkpt>
      <trkpt lat="41.703981" lon="1.130895">
        <ele>347.263</ele>
        <time>2021-08-19T09:35:39Z</time>
      </trkpt>
      <trkpt lat="41.703931" lon="1.130878">
        <ele>347.864</ele>
        <time>2021-08-19T09:35:41Z</time>
      </trkpt>
      <trkpt lat="41.703887" lon="1.130850">
        <ele>348.638</ele>
        <time>2021-08-19T09:35:43Z</time>
      </trkpt>
      <trkpt lat="41.703842" lon="1.130829">
        <ele>348.279</ele>
        <time>2021-08-19T09:35:45Z</time>
      </trkpt>
      <trkpt lat="41.703798" lon="1.130808">
        <ele>347.965</ele>
        <time>2021-08-19T09:35:47Z</time>
      </trkpt>
      <trkpt lat="41.703735" lon="1.130770">
        <ele>347.550</ele>
        <time>2021-08-19T09:35:50Z</time>
      </trkpt>
      <trkpt lat="41.703694" lon="1.130739">
        <ele>347.381</ele>
        <time>2021-08-19T09:35:52Z</time>
      </trkpt>
      <trkpt lat="41.703639" lon="1.130711">
        <ele>346.727</ele>
        <time>2021-08-19T09:35:55Z</time>
      </trkpt>
      <trkpt lat="41.703590" lon="1.130680">
        <ele>346.418</ele>
        <time>2021-08-19T09:35:57Z</time>
      </trkpt>
      <trkpt lat="41.703546" lon="1.130660">
        <ele>346.098</ele>
        <time>2021-08-19T09:35:59Z</time>
      </trkpt>
      <trkpt lat="41.703499" lon="1.130620">
        <ele>345.917</ele>
        <time>2021-08-19T09:36:02Z</time>
      </trkpt>
      <trkpt lat="41.703454" lon="1.130575">
        <ele>345.909</ele>
        <time>2021-08-19T09:36:05Z</time>
      </trkpt>
      <trkpt lat="41.703400" lon="1.130515">
        <ele>345.752</ele>
        <time>2021-08-19T09:36:08Z</time>
      </trkpt>
      <trkpt lat="41.703360" lon="1.130465">
        <ele>345.563</ele>
        <time>2021-08-19T09:36:10Z</time>
      </trkpt>
      <trkpt lat="41.703322" lon="1.130411">
        <ele>345.494</ele>
        <time>2021-08-19T09:36:12Z</time>
      </trkpt>
      <trkpt lat="41.703288" lon="1.130342">
        <ele>345.578</ele>
        <time>2021-08-19T09:36:14Z</time>
      </trkpt>
      <trkpt lat="41.703258" lon="1.130270">
        <ele>345.849</ele>
        <time>2021-08-19T09:36:16Z</time>
      </trkpt>
      <trkpt lat="41.703223" lon="1.130194">
        <ele>346.365</ele>
        <time>2021-08-19T09:36:18Z</time>
      </trkpt>
      <trkpt lat="41.703187" lon="1.130125">
        <ele>346.550</ele>
        <time>2021-08-19T09:36:20Z</time>
      </trkpt>
      <trkpt lat="41.703149" lon="1.130054">
        <ele>346.681</ele>
        <time>2021-08-19T09:36:22Z</time>
      </trkpt>
      <trkpt lat="41.703126" lon="1.129997">
        <ele>346.857</ele>
        <time>2021-08-19T09:36:24Z</time>
      </trkpt>
      <trkpt lat="41.703083" lon="1.129912">
        <ele>346.742</ele>
        <time>2021-08-19T09:36:26Z</time>
      </trkpt>
      <trkpt lat="41.703047" lon="1.129843">
        <ele>346.522</ele>
        <time>2021-08-19T09:36:28Z</time>
      </trkpt>
      <trkpt lat="41.702997" lon="1.129793">
        <ele>345.514</ele>
        <time>2021-08-19T09:36:30Z</time>
      </trkpt>
      <trkpt lat="41.702953" lon="1.129752">
        <ele>344.509</ele>
        <time>2021-08-19T09:36:32Z</time>
      </trkpt>
      <trkpt lat="41.702903" lon="1.129707">
        <ele>343.215</ele>
        <time>2021-08-19T09:36:35Z</time>
      </trkpt>
      <trkpt lat="41.702845" lon="1.129676">
        <ele>341.556</ele>
        <time>2021-08-19T09:36:38Z</time>
      </trkpt>
      <trkpt lat="41.702786" lon="1.129633">
        <ele>339.657</ele>
        <time>2021-08-19T09:36:41Z</time>
      </trkpt>
      <trkpt lat="41.702747" lon="1.129556">
        <ele>339.141</ele>
        <time>2021-08-19T09:36:43Z</time>
      </trkpt>
      <trkpt lat="41.702727" lon="1.129454">
        <ele>339.152</ele>
        <time>2021-08-19T09:36:45Z</time>
      </trkpt>
      <trkpt lat="41.702716" lon="1.129345">
        <ele>339.428</ele>
        <time>2021-08-19T09:36:47Z</time>
      </trkpt>
      <trkpt lat="41.702710" lon="1.129239">
        <ele>339.933</ele>
        <time>2021-08-19T09:36:49Z</time>
      </trkpt>
      <trkpt lat="41.702697" lon="1.129131">
        <ele>340.244</ele>
        <time>2021-08-19T09:36:51Z</time>
      </trkpt>
      <trkpt lat="41.702675" lon="1.129022">
        <ele>340.340</ele>
        <time>2021-08-19T09:36:53Z</time>
      </trkpt>
      <trkpt lat="41.702665" lon="1.128961">
        <ele>340.327</ele>
        <time>2021-08-19T09:36:54Z</time>
      </trkpt>
      <trkpt lat="41.702649" lon="1.128862">
        <ele>340.568</ele>
        <time>2021-08-19T09:36:56Z</time>
      </trkpt>
      <trkpt lat="41.702637" lon="1.128799">
        <ele>340.614</ele>
        <time>2021-08-19T09:36:57Z</time>
      </trkpt>
      <trkpt lat="41.702617" lon="1.128694">
        <ele>340.809</ele>
        <time>2021-08-19T09:36:59Z</time>
      </trkpt>
      <trkpt lat="41.702595" lon="1.128590">
        <ele>340.933</ele>
        <time>2021-08-19T09:37:01Z</time>
      </trkpt>
      <trkpt lat="41.702560" lon="1.128480">
        <ele>340.764</ele>
        <time>2021-08-19T09:37:03Z</time>
      </trkpt>
      <trkpt lat="41.702539" lon="1.128426">
        <ele>340.575</ele>
        <time>2021-08-19T09:37:04Z</time>
      </trkpt>
      <trkpt lat="41.702499" lon="1.128334">
        <ele>340.069</ele>
        <time>2021-08-19T09:37:06Z</time>
      </trkpt>
      <trkpt lat="41.702466" lon="1.128255">
        <ele>340.310</ele>
        <time>2021-08-19T09:37:08Z</time>
      </trkpt>
      <trkpt lat="41.702435" lon="1.128204">
        <ele>340.286</ele>
        <time>2021-08-19T09:37:09Z</time>
      </trkpt>
      <trkpt lat="41.702388" lon="1.128125">
        <ele>340.041</ele>
        <time>2021-08-19T09:37:11Z</time>
      </trkpt>
      <trkpt lat="41.702349" lon="1.128042">
        <ele>339.892</ele>
        <time>2021-08-19T09:37:13Z</time>
      </trkpt>
      <trkpt lat="41.702307" lon="1.127963">
        <ele>338.928</ele>
        <time>2021-08-19T09:37:15Z</time>
      </trkpt>
      <trkpt lat="41.702273" lon="1.127881">
        <ele>338.219</ele>
        <time>2021-08-19T09:37:17Z</time>
      </trkpt>
      <trkpt lat="41.702243" lon="1.127806">
        <ele>337.509</ele>
        <time>2021-08-19T09:37:18Z</time>
      </trkpt>
      <trkpt lat="41.702218" lon="1.127721">
        <ele>337.019</ele>
        <time>2021-08-19T09:37:20Z</time>
      </trkpt>
      <trkpt lat="41.702197" lon="1.127646">
        <ele>336.709</ele>
        <time>2021-08-19T09:37:21Z</time>
      </trkpt>
      <trkpt lat="41.702183" lon="1.127584">
        <ele>336.632</ele>
        <time>2021-08-19T09:37:22Z</time>
      </trkpt>
      <trkpt lat="41.702158" lon="1.127503">
        <ele>336.333</ele>
        <time>2021-08-19T09:37:24Z</time>
      </trkpt>
      <trkpt lat="41.702139" lon="1.127433">
        <ele>336.344</ele>
        <time>2021-08-19T09:37:25Z</time>
      </trkpt>
      <trkpt lat="41.702117" lon="1.127354">
        <ele>336.268</ele>
        <time>2021-08-19T09:37:27Z</time>
      </trkpt>
      <trkpt lat="41.702091" lon="1.127275">
        <ele>336.029</ele>
        <time>2021-08-19T09:37:29Z</time>
      </trkpt>
      <trkpt lat="41.702084" lon="1.127202">
        <ele>336.115</ele>
        <time>2021-08-19T09:37:31Z</time>
      </trkpt>
      <trkpt lat="41.702075" lon="1.127126">
        <ele>336.440</ele>
        <time>2021-08-19T09:37:33Z</time>
      </trkpt>
      <trkpt lat="41.702071" lon="1.127051">
        <ele>336.731</ele>
        <time>2021-08-19T09:37:35Z</time>
      </trkpt>
      <trkpt lat="41.702077" lon="1.126983">
        <ele>337.217</ele>
        <time>2021-08-19T09:37:37Z</time>
      </trkpt>
      <trkpt lat="41.702094" lon="1.126899">
        <ele>338.049</ele>
        <time>2021-08-19T09:37:40Z</time>
      </trkpt>
      <trkpt lat="41.702104" lon="1.126823">
        <ele>338.602</ele>
        <time>2021-08-19T09:37:43Z</time>
      </trkpt>
      <trkpt lat="41.702109" lon="1.126743">
        <ele>339.322</ele>
        <time>2021-08-19T09:37:46Z</time>
      </trkpt>
      <trkpt lat="41.702111" lon="1.126674">
        <ele>339.709</ele>
        <time>2021-08-19T09:37:49Z</time>
      </trkpt>
      <trkpt lat="41.702114" lon="1.126600">
        <ele>339.925</ele>
        <time>2021-08-19T09:37:52Z</time>
      </trkpt>
      <trkpt lat="41.702118" lon="1.126535">
        <ele>340.086</ele>
        <time>2021-08-19T09:37:55Z</time>
      </trkpt>
      <trkpt lat="41.702102" lon="1.126472">
        <ele>339.537</ele>
        <time>2021-08-19T09:37:57Z</time>
      </trkpt>
      <trkpt lat="41.702069" lon="1.126398">
        <ele>338.691</ele>
        <time>2021-08-19T09:38:00Z</time>
      </trkpt>
      <trkpt lat="41.702046" lon="1.126323">
        <ele>337.812</ele>
        <time>2021-08-19T09:38:02Z</time>
      </trkpt>
      <trkpt lat="41.702050" lon="1.126237">
        <ele>337.858</ele>
        <time>2021-08-19T09:38:04Z</time>
      </trkpt>
      <trkpt lat="41.702057" lon="1.126160">
        <ele>337.963</ele>
        <time>2021-08-19T09:38:06Z</time>
      </trkpt>
      <trkpt lat="41.702071" lon="1.126069">
        <ele>338.144</ele>
        <time>2021-08-19T09:38:08Z</time>
      </trkpt>
      <trkpt lat="41.702087" lon="1.126002">
        <ele>338.270</ele>
        <time>2021-08-19T09:38:10Z</time>
      </trkpt>
      <trkpt lat="41.702113" lon="1.125926">
        <ele>338.457</ele>
        <time>2021-08-19T09:38:12Z</time>
      </trkpt>
      <trkpt lat="41.702143" lon="1.125848">
        <ele>338.600</ele>
        <time>2021-08-19T09:38:14Z</time>
      </trkpt>
      <trkpt lat="41.702161" lon="1.125780">
        <ele>338.720</ele>
        <time>2021-08-19T09:38:16Z</time>
      </trkpt>
      <trkpt lat="41.702181" lon="1.125723">
        <ele>338.909</ele>
        <time>2021-08-19T09:38:18Z</time>
      </trkpt>
      <trkpt lat="41.702203" lon="1.125660">
        <ele>339.186</ele>
        <time>2021-08-19T09:38:21Z</time>
      </trkpt>
      <trkpt lat="41.702200" lon="1.125589">
        <ele>338.817</ele>
        <time>2021-08-19T09:38:33Z</time>
      </trkpt>
      <trkpt lat="41.702219" lon="1.125494">
        <ele>338.598</ele>
        <time>2021-08-19T09:38:35Z</time>
      </trkpt>
      <trkpt lat="41.702244" lon="1.125411">
        <ele>338.232</ele>
        <time>2021-08-19T09:38:37Z</time>
      </trkpt>
      <trkpt lat="41.702270" lon="1.125344">
        <ele>338.143</ele>
        <time>2021-08-19T09:38:39Z</time>
      </trkpt>
      <trkpt lat="41.702284" lon="1.125281">
        <ele>337.939</ele>
        <time>2021-08-19T09:38:41Z</time>
      </trkpt>
      <trkpt lat="41.702298" lon="1.125219">
        <ele>337.784</ele>
        <time>2021-08-19T09:38:43Z</time>
      </trkpt>
      <trkpt lat="41.702303" lon="1.125159">
        <ele>337.395</ele>
        <time>2021-08-19T09:38:45Z</time>
      </trkpt>
      <trkpt lat="41.702302" lon="1.125095">
        <ele>336.841</ele>
        <time>2021-08-19T09:38:47Z</time>
      </trkpt>
      <trkpt lat="41.702320" lon="1.125013">
        <ele>336.554</ele>
        <time>2021-08-19T09:38:50Z</time>
      </trkpt>
      <trkpt lat="41.702347" lon="1.124952">
        <ele>336.656</ele>
        <time>2021-08-19T09:38:52Z</time>
      </trkpt>
      <trkpt lat="41.702376" lon="1.124889">
        <ele>336.811</ele>
        <time>2021-08-19T09:38:54Z</time>
      </trkpt>
      <trkpt lat="41.702396" lon="1.124833">
        <ele>336.809</ele>
        <time>2021-08-19T09:38:56Z</time>
      </trkpt>
      <trkpt lat="41.702417" lon="1.124767">
        <ele>336.686</ele>
        <time>2021-08-19T09:38:59Z</time>
      </trkpt>
      <trkpt lat="41.702390" lon="1.124714">
        <ele>336.217</ele>
        <time>2021-08-19T09:39:13Z</time>
      </trkpt>
      <trkpt lat="41.702436" lon="1.124682">
        <ele>336.738</ele>
        <time>2021-08-19T09:40:29Z</time>
      </trkpt>
      <trkpt lat="41.702460" lon="1.124606">
        <ele>337.182</ele>
        <time>2021-08-19T09:40:32Z</time>
      </trkpt>
      <trkpt lat="41.702461" lon="1.124543">
        <ele>337.463</ele>
        <time>2021-08-19T09:40:34Z</time>
      </trkpt>
      <trkpt lat="41.702447" lon="1.124467">
        <ele>337.599</ele>
        <time>2021-08-19T09:40:36Z</time>
      </trkpt>
      <trkpt lat="41.702435" lon="1.124391">
        <ele>337.474</ele>
        <time>2021-08-19T09:40:38Z</time>
      </trkpt>
      <trkpt lat="41.702411" lon="1.124314">
        <ele>337.235</ele>
        <time>2021-08-19T09:40:40Z</time>
      </trkpt>
      <trkpt lat="41.702380" lon="1.124243">
        <ele>337.021</ele>
        <time>2021-08-19T09:40:42Z</time>
      </trkpt>
      <trkpt lat="41.702355" lon="1.124183">
        <ele>337.044</ele>
        <time>2021-08-19T09:40:44Z</time>
      </trkpt>
      <trkpt lat="41.702344" lon="1.124114">
        <ele>336.505</ele>
        <time>2021-08-19T09:40:46Z</time>
      </trkpt>
      <trkpt lat="41.702336" lon="1.124054">
        <ele>336.015</ele>
        <time>2021-08-19T09:40:48Z</time>
      </trkpt>
      <trkpt lat="41.702348" lon="1.123988">
        <ele>335.409</ele>
        <time>2021-08-19T09:41:01Z</time>
      </trkpt>
      <trkpt lat="41.702377" lon="1.123933">
        <ele>334.875</ele>
        <time>2021-08-19T09:41:04Z</time>
      </trkpt>
      <trkpt lat="41.702424" lon="1.123932">
        <ele>334.726</ele>
        <time>2021-08-19T09:41:06Z</time>
      </trkpt>
      <trkpt lat="41.702481" lon="1.123907">
        <ele>334.377</ele>
        <time>2021-08-19T09:41:09Z</time>
      </trkpt>
      <trkpt lat="41.702528" lon="1.123873">
        <ele>333.971</ele>
        <time>2021-08-19T09:41:12Z</time>
      </trkpt>
      <trkpt lat="41.702559" lon="1.123821">
        <ele>333.872</ele>
        <time>2021-08-19T09:41:15Z</time>
      </trkpt>
      <trkpt lat="41.702573" lon="1.123745">
        <ele>333.568</ele>
        <time>2021-08-19T09:41:18Z</time>
      </trkpt>
      <trkpt lat="41.702590" lon="1.123674">
        <ele>333.243</ele>
        <time>2021-08-19T09:41:21Z</time>
      </trkpt>
      <trkpt lat="41.702603" lon="1.123607">
        <ele>333.084</ele>
        <time>2021-08-19T09:41:23Z</time>
      </trkpt>
      <trkpt lat="41.702612" lon="1.123532">
        <ele>333.510</ele>
        <time>2021-08-19T09:41:25Z</time>
      </trkpt>
      <trkpt lat="41.702625" lon="1.123461">
        <ele>334.038</ele>
        <time>2021-08-19T09:41:27Z</time>
      </trkpt>
      <trkpt lat="41.702633" lon="1.123380">
        <ele>334.670</ele>
        <time>2021-08-19T09:41:30Z</time>
      </trkpt>
      <trkpt lat="41.702635" lon="1.123312">
        <ele>335.117</ele>
        <time>2021-08-19T09:41:33Z</time>
      </trkpt>
      <trkpt lat="41.702650" lon="1.123255">
        <ele>335.609</ele>
        <time>2021-08-19T09:41:35Z</time>
      </trkpt>
      <trkpt lat="41.702669" lon="1.123185">
        <ele>336.344</ele>
        <time>2021-08-19T09:41:38Z</time>
      </trkpt>
      <trkpt lat="41.702677" lon="1.123119">
        <ele>336.875</ele>
        <time>2021-08-19T09:41:41Z</time>
      </trkpt>
      <trkpt lat="41.702696" lon="1.123061">
        <ele>337.466</ele>
        <time>2021-08-19T09:41:44Z</time>
      </trkpt>
      <trkpt lat="41.702714" lon="1.122996">
        <ele>337.670</ele>
        <time>2021-08-19T09:41:49Z</time>
      </trkpt>
      <trkpt lat="41.702743" lon="1.122948">
        <ele>337.891</ele>
        <time>2021-08-19T09:41:52Z</time>
      </trkpt>
      <trkpt lat="41.702760" lon="1.122885">
        <ele>337.997</ele>
        <time>2021-08-19T09:41:55Z</time>
      </trkpt>
      <trkpt lat="41.702793" lon="1.122828">
        <ele>338.232</ele>
        <time>2021-08-19T09:41:59Z</time>
      </trkpt>
      <trkpt lat="41.702820" lon="1.122774">
        <ele>338.573</ele>
        <time>2021-08-19T09:42:02Z</time>
      </trkpt>
      <trkpt lat="41.702843" lon="1.122721">
        <ele>338.759</ele>
        <time>2021-08-19T09:42:05Z</time>
      </trkpt>
      <trkpt lat="41.702867" lon="1.122666">
        <ele>338.851</ele>
        <time>2021-08-19T09:42:08Z</time>
      </trkpt>
      <trkpt lat="41.702893" lon="1.122613">
        <ele>339.001</ele>
        <time>2021-08-19T09:42:11Z</time>
      </trkpt>
      <trkpt lat="41.702916" lon="1.122554">
        <ele>339.111</ele>
        <time>2021-08-19T09:42:14Z</time>
      </trkpt>
      <trkpt lat="41.702933" lon="1.122497">
        <ele>339.109</ele>
        <time>2021-08-19T09:42:17Z</time>
      </trkpt>
      <trkpt lat="41.702959" lon="1.122446">
        <ele>339.696</ele>
        <time>2021-08-19T09:42:20Z</time>
      </trkpt>
      <trkpt lat="41.702992" lon="1.122383">
        <ele>340.117</ele>
        <time>2021-08-19T09:42:24Z</time>
      </trkpt>
      <trkpt lat="41.703021" lon="1.122314">
        <ele>340.568</ele>
        <time>2021-08-19T09:42:28Z</time>
      </trkpt>
      <trkpt lat="41.703045" lon="1.122259">
        <ele>340.812</ele>
        <time>2021-08-19T09:42:31Z</time>
      </trkpt>
      <trkpt lat="41.703068" lon="1.122190">
        <ele>341.493</ele>
        <time>2021-08-19T09:42:35Z</time>
      </trkpt>
      <trkpt lat="41.703079" lon="1.122129">
        <ele>342.129</ele>
        <time>2021-08-19T09:42:38Z</time>
      </trkpt>
      <trkpt lat="41.703101" lon="1.122060">
        <ele>343.084</ele>
        <time>2021-08-19T09:42:42Z</time>
      </trkpt>
      <trkpt lat="41.703130" lon="1.122006">
        <ele>343.755</ele>
        <time>2021-08-19T09:42:46Z</time>
      </trkpt>
      <trkpt lat="41.703141" lon="1.121941">
        <ele>344.311</ele>
        <time>2021-08-19T09:42:50Z</time>
      </trkpt>
      <trkpt lat="41.703153" lon="1.121881">
        <ele>344.943</ele>
        <time>2021-08-19T09:42:54Z</time>
      </trkpt>
      <trkpt lat="41.703165" lon="1.121809">
        <ele>345.564</ele>
        <time>2021-08-19T09:42:57Z</time>
      </trkpt>
      <trkpt lat="41.703189" lon="1.121745">
        <ele>345.910</ele>
        <time>2021-08-19T09:43:00Z</time>
      </trkpt>
      <trkpt lat="41.703193" lon="1.121674">
        <ele>346.509</ele>
        <time>2021-08-19T09:43:03Z</time>
      </trkpt>
      <trkpt lat="41.703212" lon="1.121611">
        <ele>346.625</ele>
        <time>2021-08-19T09:43:06Z</time>
      </trkpt>
      <trkpt lat="41.703222" lon="1.121548">
        <ele>346.836</ele>
        <time>2021-08-19T09:43:09Z</time>
      </trkpt>
      <trkpt lat="41.703244" lon="1.121488">
        <ele>347.077</ele>
        <time>2021-08-19T09:43:12Z</time>
      </trkpt>
      <trkpt lat="41.703251" lon="1.121426">
        <ele>347.221</ele>
        <time>2021-08-19T09:43:15Z</time>
      </trkpt>
      <trkpt lat="41.703258" lon="1.121358">
        <ele>347.412</ele>
        <time>2021-08-19T09:43:18Z</time>
      </trkpt>
      <trkpt lat="41.703273" lon="1.121300">
        <ele>347.588</ele>
        <time>2021-08-19T09:43:21Z</time>
      </trkpt>
      <trkpt lat="41.703294" lon="1.121233">
        <ele>347.743</ele>
        <time>2021-08-19T09:43:25Z</time>
      </trkpt>
      <trkpt lat="41.703292" lon="1.121173">
        <ele>347.934</ele>
        <time>2021-08-19T09:43:28Z</time>
      </trkpt>
      <trkpt lat="41.703309" lon="1.121103">
        <ele>348.290</ele>
        <time>2021-08-19T09:43:32Z</time>
      </trkpt>
      <trkpt lat="41.703311" lon="1.121043">
        <ele>348.879</ele>
        <time>2021-08-19T09:43:35Z</time>
      </trkpt>
      <trkpt lat="41.703307" lon="1.120965">
        <ele>349.605</ele>
        <time>2021-08-19T09:43:39Z</time>
      </trkpt>
      <trkpt lat="41.703313" lon="1.120897">
        <ele>350.325</ele>
        <time>2021-08-19T09:43:43Z</time>
      </trkpt>
      <trkpt lat="41.703304" lon="1.120821">
        <ele>351.009</ele>
        <time>2021-08-19T09:43:47Z</time>
      </trkpt>
      <trkpt lat="41.703294" lon="1.120750">
        <ele>351.728</ele>
        <time>2021-08-19T09:43:51Z</time>
      </trkpt>
      <trkpt lat="41.703266" lon="1.120682">
        <ele>352.169</ele>
        <time>2021-08-19T09:43:55Z</time>
      </trkpt>
      <trkpt lat="41.703258" lon="1.120621">
        <ele>352.630</ele>
        <time>2021-08-19T09:43:58Z</time>
      </trkpt>
      <trkpt lat="41.703259" lon="1.120550">
        <ele>353.284</ele>
        <time>2021-08-19T09:44:02Z</time>
      </trkpt>
      <trkpt lat="41.703263" lon="1.120480">
        <ele>353.645</ele>
        <time>2021-08-19T09:44:06Z</time>
      </trkpt>
      <trkpt lat="41.703267" lon="1.120411">
        <ele>354.191</ele>
        <time>2021-08-19T09:44:11Z</time>
      </trkpt>
      <trkpt lat="41.703288" lon="1.120343">
        <ele>354.516</ele>
        <time>2021-08-19T09:44:16Z</time>
      </trkpt>
      <trkpt lat="41.703296" lon="1.120276">
        <ele>354.917</ele>
        <time>2021-08-19T09:44:20Z</time>
      </trkpt>
      <trkpt lat="41.703316" lon="1.120210">
        <ele>355.053</ele>
        <time>2021-08-19T09:44:24Z</time>
      </trkpt>
      <trkpt lat="41.703339" lon="1.120145">
        <ele>355.041</ele>
        <time>2021-08-19T09:44:28Z</time>
      </trkpt>
      <trkpt lat="41.703354" lon="1.120087">
        <ele>355.181</ele>
        <time>2021-08-19T09:44:31Z</time>
      </trkpt>
      <trkpt lat="41.703373" lon="1.120019">
        <ele>355.109</ele>
        <time>2021-08-19T09:44:35Z</time>
      </trkpt>
      <trkpt lat="41.703386" lon="1.119947">
        <ele>355.209</ele>
        <time>2021-08-19T09:44:39Z</time>
      </trkpt>
      <trkpt lat="41.703401" lon="1.119889">
        <ele>355.135</ele>
        <time>2021-08-19T09:44:42Z</time>
      </trkpt>
      <trkpt lat="41.703411" lon="1.119821">
        <ele>355.186</ele>
        <time>2021-08-19T09:44:46Z</time>
      </trkpt>
      <trkpt lat="41.703432" lon="1.119763">
        <ele>355.157</ele>
        <time>2021-08-19T09:44:50Z</time>
      </trkpt>
      <trkpt lat="41.703446" lon="1.119704">
        <ele>354.931</ele>
        <time>2021-08-19T09:44:55Z</time>
      </trkpt>
      <trkpt lat="41.703410" lon="1.119654">
        <ele>354.752</ele>
        <time>2021-08-19T09:45:40Z</time>
      </trkpt>
      <trkpt lat="41.703371" lon="1.119609">
        <ele>354.578</ele>
        <time>2021-08-19T09:50:40Z</time>
      </trkpt>
      <trkpt lat="41.703335" lon="1.119571">
        <ele>354.533</ele>
        <time>2021-08-19T09:50:43Z</time>
      </trkpt>
      <trkpt lat="41.703289" lon="1.119530">
        <ele>354.684</ele>
        <time>2021-08-19T09:50:47Z</time>
      </trkpt>
      <trkpt lat="41.703244" lon="1.119493">
        <ele>354.850</ele>
        <time>2021-08-19T09:50:51Z</time>
      </trkpt>
      <trkpt lat="41.703204" lon="1.119459">
        <ele>355.072</ele>
        <time>2021-08-19T09:50:54Z</time>
      </trkpt>
      <trkpt lat="41.703158" lon="1.119426">
        <ele>355.213</ele>
        <time>2021-08-19T09:50:57Z</time>
      </trkpt>
      <trkpt lat="41.703109" lon="1.119406">
        <ele>355.614</ele>
        <time>2021-08-19T09:51:00Z</time>
      </trkpt>
      <trkpt lat="41.703056" lon="1.119378">
        <ele>356.009</ele>
        <time>2021-08-19T09:51:03Z</time>
      </trkpt>
      <trkpt lat="41.703007" lon="1.119329">
        <ele>356.278</ele>
        <time>2021-08-19T09:51:06Z</time>
      </trkpt>
      <trkpt lat="41.702951" lon="1.119310">
        <ele>356.479</ele>
        <time>2021-08-19T09:51:09Z</time>
      </trkpt>
      <trkpt lat="41.702905" lon="1.119266">
        <ele>356.540</ele>
        <time>2021-08-19T09:51:12Z</time>
      </trkpt>
      <trkpt lat="41.702853" lon="1.119238">
        <ele>356.744</ele>
        <time>2021-08-19T09:51:15Z</time>
      </trkpt>
      <trkpt lat="41.702788" lon="1.119220">
        <ele>357.095</ele>
        <time>2021-08-19T09:51:18Z</time>
      </trkpt>
      <trkpt lat="41.702728" lon="1.119197">
        <ele>356.661</ele>
        <time>2021-08-19T09:51:21Z</time>
      </trkpt>
      <trkpt lat="41.702682" lon="1.119171">
        <ele>356.356</ele>
        <time>2021-08-19T09:51:23Z</time>
      </trkpt>
      <trkpt lat="41.702624" lon="1.119147">
        <ele>355.917</ele>
        <time>2021-08-19T09:51:26Z</time>
      </trkpt>
      <trkpt lat="41.702578" lon="1.119133">
        <ele>355.613</ele>
        <time>2021-08-19T09:51:29Z</time>
      </trkpt>
      <trkpt lat="41.702533" lon="1.119082">
        <ele>355.331</ele>
        <time>2021-08-19T09:51:32Z</time>
      </trkpt>
      <trkpt lat="41.702494" lon="1.119013">
        <ele>355.061</ele>
        <time>2021-08-19T09:51:35Z</time>
      </trkpt>
      <trkpt lat="41.702499" lon="1.118949">
        <ele>355.007</ele>
        <time>2021-08-19T09:51:37Z</time>
      </trkpt>
      <trkpt lat="41.702505" lon="1.118878">
        <ele>355.109</ele>
        <time>2021-08-19T09:51:40Z</time>
      </trkpt>
      <trkpt lat="41.702515" lon="1.118809">
        <ele>355.144</ele>
        <time>2021-08-19T09:51:42Z</time>
      </trkpt>
      <trkpt lat="41.702531" lon="1.118740">
        <ele>355.335</ele>
        <time>2021-08-19T09:51:45Z</time>
      </trkpt>
      <trkpt lat="41.702544" lon="1.118662">
        <ele>355.376</ele>
        <time>2021-08-19T09:51:48Z</time>
      </trkpt>
      <trkpt lat="41.702563" lon="1.118599">
        <ele>355.410</ele>
        <time>2021-08-19T09:51:51Z</time>
      </trkpt>
      <trkpt lat="41.702576" lon="1.118539">
        <ele>355.361</ele>
        <time>2021-08-19T09:51:53Z</time>
      </trkpt>
      <trkpt lat="41.702602" lon="1.118478">
        <ele>355.367</ele>
        <time>2021-08-19T09:51:56Z</time>
      </trkpt>
      <trkpt lat="41.702621" lon="1.118418">
        <ele>355.292</ele>
        <time>2021-08-19T09:51:58Z</time>
      </trkpt>
      <trkpt lat="41.702644" lon="1.118351">
        <ele>355.183</ele>
        <time>2021-08-19T09:52:01Z</time>
      </trkpt>
      <trkpt lat="41.702665" lon="1.118290">
        <ele>355.139</ele>
        <time>2021-08-19T09:52:03Z</time>
      </trkpt>
      <trkpt lat="41.702676" lon="1.118227">
        <ele>355.056</ele>
        <time>2021-08-19T09:52:05Z</time>
      </trkpt>
      <trkpt lat="41.702698" lon="1.118156">
        <ele>355.059</ele>
        <time>2021-08-19T09:52:08Z</time>
      </trkpt>
      <trkpt lat="41.702723" lon="1.118103">
        <ele>354.914</ele>
        <time>2021-08-19T09:52:10Z</time>
      </trkpt>
      <trkpt lat="41.702744" lon="1.118048">
        <ele>354.909</ele>
        <time>2021-08-19T09:52:12Z</time>
      </trkpt>
      <trkpt lat="41.702774" lon="1.117985">
        <ele>355.056</ele>
        <time>2021-08-19T09:52:15Z</time>
      </trkpt>
      <trkpt lat="41.702797" lon="1.117929">
        <ele>355.127</ele>
        <time>2021-08-19T09:52:18Z</time>
      </trkpt>
      <trkpt lat="41.702823" lon="1.117870">
        <ele>355.298</ele>
        <time>2021-08-19T09:52:21Z</time>
      </trkpt>
      <trkpt lat="41.702845" lon="1.117810">
        <ele>355.292</ele>
        <time>2021-08-19T09:52:24Z</time>
      </trkpt>
      <trkpt lat="41.702862" lon="1.117747">
        <ele>355.393</ele>
        <time>2021-08-19T09:52:27Z</time>
      </trkpt>
      <trkpt lat="41.702883" lon="1.117692">
        <ele>355.429</ele>
        <time>2021-08-19T09:52:30Z</time>
      </trkpt>
      <trkpt lat="41.702904" lon="1.117637">
        <ele>355.514</ele>
        <time>2021-08-19T09:52:33Z</time>
      </trkpt>
      <trkpt lat="41.702924" lon="1.117574">
        <ele>355.555</ele>
        <time>2021-08-19T09:52:36Z</time>
      </trkpt>
      <trkpt lat="41.702951" lon="1.117524">
        <ele>355.611</ele>
        <time>2021-08-19T09:52:40Z</time>
      </trkpt>
      <trkpt lat="41.702971" lon="1.117465">
        <ele>355.976</ele>
        <time>2021-08-19T09:52:44Z</time>
      </trkpt>
      <trkpt lat="41.702980" lon="1.117401">
        <ele>356.390</ele>
        <time>2021-08-19T09:52:48Z</time>
      </trkpt>
      <trkpt lat="41.703005" lon="1.117351">
        <ele>356.819</ele>
        <time>2021-08-19T09:52:51Z</time>
      </trkpt>
      <trkpt lat="41.703032" lon="1.117290">
        <ele>357.409</ele>
        <time>2021-08-19T09:52:54Z</time>
      </trkpt>
      <trkpt lat="41.703048" lon="1.117206">
        <ele>358.048</ele>
        <time>2021-08-19T09:52:57Z</time>
      </trkpt>
      <trkpt lat="41.703067" lon="1.117133">
        <ele>358.439</ele>
        <time>2021-08-19T09:53:00Z</time>
      </trkpt>
      <trkpt lat="41.703086" lon="1.117059">
        <ele>358.730</ele>
        <time>2021-08-19T09:53:02Z</time>
      </trkpt>
      <trkpt lat="41.703094" lon="1.116982">
        <ele>359.034</ele>
        <time>2021-08-19T09:53:04Z</time>
      </trkpt>
      <trkpt lat="41.703089" lon="1.116918">
        <ele>359.195</ele>
        <time>2021-08-19T09:53:06Z</time>
      </trkpt>
      <trkpt lat="41.703101" lon="1.116848">
        <ele>359.121</ele>
        <time>2021-08-19T09:53:08Z</time>
      </trkpt>
      <trkpt lat="41.703117" lon="1.116777">
        <ele>359.186</ele>
        <time>2021-08-19T09:53:10Z</time>
      </trkpt>
      <trkpt lat="41.703136" lon="1.116709">
        <ele>359.057</ele>
        <time>2021-08-19T09:53:12Z</time>
      </trkpt>
      <trkpt lat="41.703153" lon="1.116648">
        <ele>358.953</ele>
        <time>2021-08-19T09:53:14Z</time>
      </trkpt>
      <trkpt lat="41.703162" lon="1.116581">
        <ele>358.776</ele>
        <time>2021-08-19T09:53:16Z</time>
      </trkpt>
      <trkpt lat="41.703171" lon="1.116515">
        <ele>358.590</ele>
        <time>2021-08-19T09:53:18Z</time>
      </trkpt>
      <trkpt lat="41.703185" lon="1.116451">
        <ele>358.219</ele>
        <time>2021-08-19T09:53:22Z</time>
      </trkpt>
      <trkpt lat="41.703196" lon="1.116392">
        <ele>358.009</ele>
        <time>2021-08-19T09:53:27Z</time>
      </trkpt>
      <trkpt lat="41.703206" lon="1.116327">
        <ele>357.688</ele>
        <time>2021-08-19T09:53:32Z</time>
      </trkpt>
      <trkpt lat="41.703221" lon="1.116257">
        <ele>357.139</ele>
        <time>2021-08-19T09:53:36Z</time>
      </trkpt>
      <trkpt lat="41.703225" lon="1.116184">
        <ele>356.710</ele>
        <time>2021-08-19T09:53:47Z</time>
      </trkpt>
      <trkpt lat="41.703235" lon="1.116124">
        <ele>356.454</ele>
        <time>2021-08-19T09:53:49Z</time>
      </trkpt>
      <trkpt lat="41.703247" lon="1.116046">
        <ele>356.165</ele>
        <time>2021-08-19T09:53:51Z</time>
      </trkpt>
      <trkpt lat="41.703261" lon="1.115965">
        <ele>356.071</ele>
        <time>2021-08-19T09:53:53Z</time>
      </trkpt>
      <trkpt lat="41.703279" lon="1.115882">
        <ele>355.846</ele>
        <time>2021-08-19T09:53:55Z</time>
      </trkpt>
      <trkpt lat="41.703292" lon="1.115806">
        <ele>355.737</ele>
        <time>2021-08-19T09:53:57Z</time>
      </trkpt>
      <trkpt lat="41.703305" lon="1.115724">
        <ele>355.853</ele>
        <time>2021-08-19T09:53:59Z</time>
      </trkpt>
      <trkpt lat="41.703317" lon="1.115666">
        <ele>355.899</ele>
        <time>2021-08-19T09:54:00Z</time>
      </trkpt>
      <trkpt lat="41.703336" lon="1.115572">
        <ele>356.007</ele>
        <time>2021-08-19T09:54:02Z</time>
      </trkpt>
      <trkpt lat="41.703353" lon="1.115493">
        <ele>355.827</ele>
        <time>2021-08-19T09:54:04Z</time>
      </trkpt>
      <trkpt lat="41.703367" lon="1.115408">
        <ele>355.509</ele>
        <time>2021-08-19T09:54:06Z</time>
      </trkpt>
      <trkpt lat="41.703388" lon="1.115319">
        <ele>355.160</ele>
        <time>2021-08-19T09:54:08Z</time>
      </trkpt>
      <trkpt lat="41.703402" lon="1.115251">
        <ele>355.061</ele>
        <time>2021-08-19T09:54:10Z</time>
      </trkpt>
      <trkpt lat="41.703418" lon="1.115172">
        <ele>354.942</ele>
        <time>2021-08-19T09:54:12Z</time>
      </trkpt>
      <trkpt lat="41.703440" lon="1.115083">
        <ele>354.746</ele>
        <time>2021-08-19T09:54:14Z</time>
      </trkpt>
      <trkpt lat="41.703457" lon="1.115015">
        <ele>354.617</ele>
        <time>2021-08-19T09:54:15Z</time>
      </trkpt>
      <trkpt lat="41.703478" lon="1.114935">
        <ele>354.423</ele>
        <time>2021-08-19T09:54:17Z</time>
      </trkpt>
      <trkpt lat="41.703498" lon="1.114857">
        <ele>354.288</ele>
        <time>2021-08-19T09:54:19Z</time>
      </trkpt>
      <trkpt lat="41.703509" lon="1.114789">
        <ele>354.199</ele>
        <time>2021-08-19T09:54:20Z</time>
      </trkpt>
      <trkpt lat="41.703531" lon="1.114701">
        <ele>354.015</ele>
        <time>2021-08-19T09:54:22Z</time>
      </trkpt>
      <trkpt lat="41.703546" lon="1.114624">
        <ele>354.193</ele>
        <time>2021-08-19T09:54:24Z</time>
      </trkpt>
      <trkpt lat="41.703556" lon="1.114564">
        <ele>354.165</ele>
        <time>2021-08-19T09:54:25Z</time>
      </trkpt>
      <trkpt lat="41.703566" lon="1.114500">
        <ele>354.121</ele>
        <time>2021-08-19T09:54:26Z</time>
      </trkpt>
      <trkpt lat="41.703577" lon="1.114441">
        <ele>354.109</ele>
        <time>2021-08-19T09:54:28Z</time>
      </trkpt>
      <trkpt lat="41.703592" lon="1.114360">
        <ele>354.090</ele>
        <time>2021-08-19T09:54:30Z</time>
      </trkpt>
      <trkpt lat="41.703600" lon="1.114296">
        <ele>354.031</ele>
        <time>2021-08-19T09:54:31Z</time>
      </trkpt>
      <trkpt lat="41.703608" lon="1.114224">
        <ele>354.032</ele>
        <time>2021-08-19T09:54:32Z</time>
      </trkpt>
      <trkpt lat="41.703619" lon="1.114151">
        <ele>353.946</ele>
        <time>2021-08-19T09:54:34Z</time>
      </trkpt>
      <trkpt lat="41.703628" lon="1.114052">
        <ele>353.677</ele>
        <time>2021-08-19T09:54:36Z</time>
      </trkpt>
      <trkpt lat="41.703637" lon="1.113974">
        <ele>353.473</ele>
        <time>2021-08-19T09:54:38Z</time>
      </trkpt>
      <trkpt lat="41.703654" lon="1.113899">
        <ele>353.258</ele>
        <time>2021-08-19T09:54:39Z</time>
      </trkpt>
      <trkpt lat="41.703669" lon="1.113821">
        <ele>352.999</ele>
        <time>2021-08-19T09:54:41Z</time>
      </trkpt>
      <trkpt lat="41.703690" lon="1.113744">
        <ele>352.635</ele>
        <time>2021-08-19T09:54:43Z</time>
      </trkpt>
      <trkpt lat="41.703705" lon="1.113684">
        <ele>352.433</ele>
        <time>2021-08-19T09:54:44Z</time>
      </trkpt>
      <trkpt lat="41.703735" lon="1.113607">
        <ele>352.023</ele>
        <time>2021-08-19T09:54:46Z</time>
      </trkpt>
      <trkpt lat="41.703752" lon="1.113549">
        <ele>351.815</ele>
        <time>2021-08-19T09:54:47Z</time>
      </trkpt>
      <trkpt lat="41.703767" lon="1.113490">
        <ele>351.609</ele>
        <time>2021-08-19T09:54:48Z</time>
      </trkpt>
      <trkpt lat="41.703798" lon="1.113383">
        <ele>351.254</ele>
        <time>2021-08-19T09:54:50Z</time>
      </trkpt>
      <trkpt lat="41.703823" lon="1.113317">
        <ele>351.065</ele>
        <time>2021-08-19T09:54:52Z</time>
      </trkpt>
      <trkpt lat="41.703844" lon="1.113246">
        <ele>351.176</ele>
        <time>2021-08-19T09:54:53Z</time>
      </trkpt>
      <trkpt lat="41.703867" lon="1.113169">
        <ele>351.070</ele>
        <time>2021-08-19T09:54:54Z</time>
      </trkpt>
      <trkpt lat="41.703903" lon="1.113049">
        <ele>351.011</ele>
        <time>2021-08-19T09:54:56Z</time>
      </trkpt>
      <trkpt lat="41.703920" lon="1.112991">
        <ele>351.047</ele>
        <time>2021-08-19T09:54:57Z</time>
      </trkpt>
      <trkpt lat="41.703954" lon="1.112877">
        <ele>351.212</ele>
        <time>2021-08-19T09:54:59Z</time>
      </trkpt>
      <trkpt lat="41.703974" lon="1.112811">
        <ele>351.313</ele>
        <time>2021-08-19T09:55:01Z</time>
      </trkpt>
      <trkpt lat="41.703994" lon="1.112751">
        <ele>351.439</ele>
        <time>2021-08-19T09:55:02Z</time>
      </trkpt>
      <trkpt lat="41.704026" lon="1.112658">
        <ele>351.564</ele>
        <time>2021-08-19T09:55:03Z</time>
      </trkpt>
      <trkpt lat="41.704042" lon="1.112602">
        <ele>351.606</ele>
        <time>2021-08-19T09:55:04Z</time>
      </trkpt>
      <trkpt lat="41.704065" lon="1.112528">
        <ele>351.616</ele>
        <time>2021-08-19T09:55:06Z</time>
      </trkpt>
      <trkpt lat="41.704083" lon="1.112469">
        <ele>351.709</ele>
        <time>2021-08-19T09:55:07Z</time>
      </trkpt>
      <trkpt lat="41.704100" lon="1.112413">
        <ele>351.837</ele>
        <time>2021-08-19T09:55:08Z</time>
      </trkpt>
      <trkpt lat="41.704120" lon="1.112355">
        <ele>351.968</ele>
        <time>2021-08-19T09:55:09Z</time>
      </trkpt>
      <trkpt lat="41.704147" lon="1.112286">
        <ele>352.019</ele>
        <time>2021-08-19T09:55:11Z</time>
      </trkpt>
      <trkpt lat="41.704170" lon="1.112225">
        <ele>352.073</ele>
        <time>2021-08-19T09:55:12Z</time>
      </trkpt>
      <trkpt lat="41.704193" lon="1.112169">
        <ele>352.024</ele>
        <time>2021-08-19T09:55:13Z</time>
      </trkpt>
      <trkpt lat="41.704227" lon="1.112089">
        <ele>352.060</ele>
        <time>2021-08-19T09:55:14Z</time>
      </trkpt>
      <trkpt lat="41.704263" lon="1.112006">
        <ele>352.095</ele>
        <time>2021-08-19T09:55:16Z</time>
      </trkpt>
      <trkpt lat="41.704298" lon="1.111940">
        <ele>352.066</ele>
        <time>2021-08-19T09:55:18Z</time>
      </trkpt>
      <trkpt lat="41.704322" lon="1.111882">
        <ele>351.722</ele>
        <time>2021-08-19T09:55:19Z</time>
      </trkpt>
      <trkpt lat="41.704344" lon="1.111826">
        <ele>351.461</ele>
        <time>2021-08-19T09:55:20Z</time>
      </trkpt>
      <trkpt lat="41.704377" lon="1.111753">
        <ele>351.121</ele>
        <time>2021-08-19T09:55:21Z</time>
      </trkpt>
      <trkpt lat="41.704401" lon="1.111699">
        <ele>351.013</ele>
        <time>2021-08-19T09:55:23Z</time>
      </trkpt>
      <trkpt lat="41.704432" lon="1.111640">
        <ele>350.909</ele>
        <time>2021-08-19T09:55:24Z</time>
      </trkpt>
      <trkpt lat="41.704466" lon="1.111573">
        <ele>350.637</ele>
        <time>2021-08-19T09:55:25Z</time>
      </trkpt>
      <trkpt lat="41.704515" lon="1.111477">
        <ele>350.218</ele>
        <time>2021-08-19T09:55:27Z</time>
      </trkpt>
      <trkpt lat="41.704548" lon="1.111408">
        <ele>350.049</ele>
        <time>2021-08-19T09:55:28Z</time>
      </trkpt>
      <trkpt lat="41.704574" lon="1.111350">
        <ele>349.943</ele>
        <time>2021-08-19T09:55:30Z</time>
      </trkpt>
      <trkpt lat="41.704605" lon="1.111280">
        <ele>349.664</ele>
        <time>2021-08-19T09:55:31Z</time>
      </trkpt>
      <trkpt lat="41.704638" lon="1.111216">
        <ele>349.420</ele>
        <time>2021-08-19T09:55:33Z</time>
      </trkpt>
      <trkpt lat="41.704665" lon="1.111162">
        <ele>349.275</ele>
        <time>2021-08-19T09:55:34Z</time>
      </trkpt>
      <trkpt lat="41.704693" lon="1.111102">
        <ele>349.076</ele>
        <time>2021-08-19T09:55:35Z</time>
      </trkpt>
      <trkpt lat="41.704721" lon="1.111042">
        <ele>348.882</ele>
        <time>2021-08-19T09:55:36Z</time>
      </trkpt>
      <trkpt lat="41.704758" lon="1.110966">
        <ele>348.377</ele>
        <time>2021-08-19T09:55:38Z</time>
      </trkpt>
      <trkpt lat="41.704787" lon="1.110905">
        <ele>348.061</ele>
        <time>2021-08-19T09:55:40Z</time>
      </trkpt>
      <trkpt lat="41.704818" lon="1.110841">
        <ele>347.727</ele>
        <time>2021-08-19T09:55:41Z</time>
      </trkpt>
      <trkpt lat="41.704845" lon="1.110779">
        <ele>347.409</ele>
        <time>2021-08-19T09:55:43Z</time>
      </trkpt>
      <trkpt lat="41.704882" lon="1.110702">
        <ele>347.098</ele>
        <time>2021-08-19T09:55:44Z</time>
      </trkpt>
      <trkpt lat="41.704915" lon="1.110642">
        <ele>346.689</ele>
        <time>2021-08-19T09:55:46Z</time>
      </trkpt>
      <trkpt lat="41.704948" lon="1.110567">
        <ele>346.270</ele>
        <time>2021-08-19T09:55:47Z</time>
      </trkpt>
      <trkpt lat="41.704974" lon="1.110512">
        <ele>346.194</ele>
        <time>2021-08-19T09:55:48Z</time>
      </trkpt>
      <trkpt lat="41.705015" lon="1.110436">
        <ele>346.045</ele>
        <time>2021-08-19T09:55:50Z</time>
      </trkpt>
      <trkpt lat="41.705052" lon="1.110374">
        <ele>346.041</ele>
        <time>2021-08-19T09:55:52Z</time>
      </trkpt>
      <trkpt lat="41.705087" lon="1.110312">
        <ele>346.056</ele>
        <time>2021-08-19T09:55:53Z</time>
      </trkpt>
      <trkpt lat="41.705131" lon="1.110231">
        <ele>345.977</ele>
        <time>2021-08-19T09:55:55Z</time>
      </trkpt>
      <trkpt lat="41.705161" lon="1.110177">
        <ele>345.873</ele>
        <time>2021-08-19T09:55:56Z</time>
      </trkpt>
      <trkpt lat="41.705197" lon="1.110113">
        <ele>345.693</ele>
        <time>2021-08-19T09:55:58Z</time>
      </trkpt>
      <trkpt lat="41.705225" lon="1.110057">
        <ele>345.465</ele>
        <time>2021-08-19T09:55:59Z</time>
      </trkpt>
      <trkpt lat="41.705260" lon="1.109982">
        <ele>345.021</ele>
        <time>2021-08-19T09:56:01Z</time>
      </trkpt>
      <trkpt lat="41.705288" lon="1.109931">
        <ele>344.709</ele>
        <time>2021-08-19T09:56:02Z</time>
      </trkpt>
      <trkpt lat="41.705319" lon="1.109859">
        <ele>344.450</ele>
        <time>2021-08-19T09:56:03Z</time>
      </trkpt>
      <trkpt lat="41.705344" lon="1.109796">
        <ele>344.221</ele>
        <time>2021-08-19T09:56:04Z</time>
      </trkpt>
      <trkpt lat="41.705381" lon="1.109720">
        <ele>344.072</ele>
        <time>2021-08-19T09:56:06Z</time>
      </trkpt>
      <trkpt lat="41.705421" lon="1.109637">
        <ele>343.776</ele>
        <time>2021-08-19T09:56:08Z</time>
      </trkpt>
      <trkpt lat="41.705457" lon="1.109556">
        <ele>343.447</ele>
        <time>2021-08-19T09:56:10Z</time>
      </trkpt>
      <trkpt lat="41.705502" lon="1.109471">
        <ele>343.123</ele>
        <time>2021-08-19T09:56:12Z</time>
      </trkpt>
      <trkpt lat="41.705535" lon="1.109408">
        <ele>343.018</ele>
        <time>2021-08-19T09:56:13Z</time>
      </trkpt>
      <trkpt lat="41.705566" lon="1.109353">
        <ele>343.049</ele>
        <time>2021-08-19T09:56:14Z</time>
      </trkpt>
      <trkpt lat="41.705596" lon="1.109306">
        <ele>343.065</ele>
        <time>2021-08-19T09:56:16Z</time>
      </trkpt>
      <trkpt lat="41.705634" lon="1.109249">
        <ele>343.085</ele>
        <time>2021-08-19T09:56:17Z</time>
      </trkpt>
      <trkpt lat="41.705670" lon="1.109196">
        <ele>343.089</ele>
        <time>2021-08-19T09:56:18Z</time>
      </trkpt>
      <trkpt lat="41.705709" lon="1.109139">
        <ele>342.917</ele>
        <time>2021-08-19T09:56:20Z</time>
      </trkpt>
      <trkpt lat="41.705749" lon="1.109084">
        <ele>342.709</ele>
        <time>2021-08-19T09:56:21Z</time>
      </trkpt>
      <trkpt lat="41.705799" lon="1.109019">
        <ele>342.519</ele>
        <time>2021-08-19T09:56:23Z</time>
      </trkpt>
      <trkpt lat="41.705835" lon="1.108974">
        <ele>342.320</ele>
        <time>2021-08-19T09:56:24Z</time>
      </trkpt>
      <trkpt lat="41.705872" lon="1.108925">
        <ele>342.341</ele>
        <time>2021-08-19T09:56:26Z</time>
      </trkpt>
      <trkpt lat="41.705912" lon="1.108864">
        <ele>342.215</ele>
        <time>2021-08-19T09:56:27Z</time>
      </trkpt>
      <trkpt lat="41.705946" lon="1.108811">
        <ele>342.176</ele>
        <time>2021-08-19T09:56:29Z</time>
      </trkpt>
      <trkpt lat="41.705981" lon="1.108742">
        <ele>342.072</ele>
        <time>2021-08-19T09:56:31Z</time>
      </trkpt>
      <trkpt lat="41.706020" lon="1.108667">
        <ele>341.957</ele>
        <time>2021-08-19T09:56:33Z</time>
      </trkpt>
      <trkpt lat="41.706051" lon="1.108601">
        <ele>341.848</ele>
        <time>2021-08-19T09:56:35Z</time>
      </trkpt>
      <trkpt lat="41.706079" lon="1.108532">
        <ele>341.984</ele>
        <time>2021-08-19T09:56:37Z</time>
      </trkpt>
      <trkpt lat="41.706112" lon="1.108466">
        <ele>342.088</ele>
        <time>2021-08-19T09:56:39Z</time>
      </trkpt>
      <trkpt lat="41.706143" lon="1.108396">
        <ele>342.124</ele>
        <time>2021-08-19T09:56:41Z</time>
      </trkpt>
      <trkpt lat="41.706166" lon="1.108338">
        <ele>342.226</ele>
        <time>2021-08-19T09:56:43Z</time>
      </trkpt>
      <trkpt lat="41.706201" lon="1.108273">
        <ele>342.209</ele>
        <time>2021-08-19T09:56:45Z</time>
      </trkpt>
      <trkpt lat="41.706228" lon="1.108208">
        <ele>342.289</ele>
        <time>2021-08-19T09:56:47Z</time>
      </trkpt>
      <trkpt lat="41.706251" lon="1.108136">
        <ele>342.270</ele>
        <time>2021-08-19T09:56:49Z</time>
      </trkpt>
      <trkpt lat="41.706273" lon="1.108075">
        <ele>342.271</ele>
        <time>2021-08-19T09:56:52Z</time>
      </trkpt>
      <trkpt lat="41.706282" lon="1.108009">
        <ele>342.235</ele>
        <time>2021-08-19T09:56:55Z</time>
      </trkpt>
      <trkpt lat="41.706290" lon="1.107947">
        <ele>342.366</ele>
        <time>2021-08-19T09:56:57Z</time>
      </trkpt>
      <trkpt lat="41.706289" lon="1.107876">
        <ele>342.352</ele>
        <time>2021-08-19T09:57:00Z</time>
      </trkpt>
      <trkpt lat="41.706271" lon="1.107818">
        <ele>342.247</ele>
        <time>2021-08-19T09:57:03Z</time>
      </trkpt>
      <trkpt lat="41.706246" lon="1.107746">
        <ele>342.018</ele>
        <time>2021-08-19T09:57:06Z</time>
      </trkpt>
      <trkpt lat="41.706219" lon="1.107689">
        <ele>342.044</ele>
        <time>2021-08-19T09:57:09Z</time>
      </trkpt>
      <trkpt lat="41.706192" lon="1.107634">
        <ele>341.986</ele>
        <time>2021-08-19T09:57:12Z</time>
      </trkpt>
      <trkpt lat="41.706151" lon="1.107574">
        <ele>341.960</ele>
        <time>2021-08-19T09:57:16Z</time>
      </trkpt>
      <trkpt lat="41.706129" lon="1.107514">
        <ele>342.026</ele>
        <time>2021-08-19T09:57:19Z</time>
      </trkpt>
      <trkpt lat="41.706110" lon="1.107445">
        <ele>342.009</ele>
        <time>2021-08-19T09:57:22Z</time>
      </trkpt>
      <trkpt lat="41.706101" lon="1.107363">
        <ele>342.029</ele>
        <time>2021-08-19T09:57:25Z</time>
      </trkpt>
      <trkpt lat="41.706088" lon="1.107281">
        <ele>341.980</ele>
        <time>2021-08-19T09:57:28Z</time>
      </trkpt>
      <trkpt lat="41.706074" lon="1.107201">
        <ele>341.991</ele>
        <time>2021-08-19T09:57:31Z</time>
      </trkpt>
      <trkpt lat="41.706052" lon="1.107116">
        <ele>341.845</ele>
        <time>2021-08-19T09:57:34Z</time>
      </trkpt>
      <trkpt lat="41.706046" lon="1.107050">
        <ele>341.836</ele>
        <time>2021-08-19T09:57:36Z</time>
      </trkpt>
      <trkpt lat="41.706052" lon="1.106962">
        <ele>341.872</ele>
        <time>2021-08-19T09:57:39Z</time>
      </trkpt>
      <trkpt lat="41.706073" lon="1.106906">
        <ele>341.757</ele>
        <time>2021-08-19T09:57:41Z</time>
      </trkpt>
      <trkpt lat="41.706110" lon="1.106864">
        <ele>341.768</ele>
        <time>2021-08-19T09:57:43Z</time>
      </trkpt>
      <trkpt lat="41.706150" lon="1.106825">
        <ele>341.614</ele>
        <time>2021-08-19T09:57:45Z</time>
      </trkpt>
      <trkpt lat="41.706194" lon="1.106800">
        <ele>341.657</ele>
        <time>2021-08-19T09:57:47Z</time>
      </trkpt>
      <trkpt lat="41.706251" lon="1.106773">
        <ele>341.600</ele>
        <time>2021-08-19T09:57:50Z</time>
      </trkpt>
      <trkpt lat="41.706308" lon="1.106745">
        <ele>341.520</ele>
        <time>2021-08-19T09:57:53Z</time>
      </trkpt>
      <trkpt lat="41.706356" lon="1.106713">
        <ele>341.309</ele>
        <time>2021-08-19T09:57:56Z</time>
      </trkpt>
      <trkpt lat="41.706401" lon="1.106696">
        <ele>341.336</ele>
        <time>2021-08-19T09:57:58Z</time>
      </trkpt>
      <trkpt lat="41.706463" lon="1.106670">
        <ele>341.887</ele>
        <time>2021-08-19T09:58:01Z</time>
      </trkpt>
      <trkpt lat="41.706504" lon="1.106641">
        <ele>342.228</ele>
        <time>2021-08-19T09:58:03Z</time>
      </trkpt>
      <trkpt lat="41.706548" lon="1.106617">
        <ele>342.582</ele>
        <time>2021-08-19T09:58:05Z</time>
      </trkpt>
      <trkpt lat="41.706611" lon="1.106590">
        <ele>343.173</ele>
        <time>2021-08-19T09:58:08Z</time>
      </trkpt>
      <trkpt lat="41.706670" lon="1.106554">
        <ele>343.669</ele>
        <time>2021-08-19T09:58:11Z</time>
      </trkpt>
      <trkpt lat="41.706722" lon="1.106510">
        <ele>344.014</ele>
        <time>2021-08-19T09:58:14Z</time>
      </trkpt>
      <trkpt lat="41.706782" lon="1.106488">
        <ele>344.695</ele>
        <time>2021-08-19T09:58:17Z</time>
      </trkpt>
      <trkpt lat="41.706838" lon="1.106457">
        <ele>345.131</ele>
        <time>2021-08-19T09:58:20Z</time>
      </trkpt>
      <trkpt lat="41.706888" lon="1.106414">
        <ele>345.588</ele>
        <time>2021-08-19T09:58:23Z</time>
      </trkpt>
      <trkpt lat="41.706936" lon="1.106382">
        <ele>345.924</ele>
        <time>2021-08-19T09:58:26Z</time>
      </trkpt>
      <trkpt lat="41.706976" lon="1.106348">
        <ele>346.126</ele>
        <time>2021-08-19T09:58:30Z</time>
      </trkpt>
      <trkpt lat="41.706964" lon="1.106265">
        <ele>346.109</ele>
        <time>2021-08-19T09:58:34Z</time>
      </trkpt>
      <trkpt lat="41.706962" lon="1.106185">
        <ele>346.129</ele>
        <time>2021-08-19T09:58:37Z</time>
      </trkpt>
      <trkpt lat="41.706928" lon="1.106127">
        <ele>345.830</ele>
        <time>2021-08-19T09:58:40Z</time>
      </trkpt>
      <trkpt lat="41.706917" lon="1.106044">
        <ele>345.791</ele>
        <time>2021-08-19T09:58:43Z</time>
      </trkpt>
      <trkpt lat="41.706912" lon="1.105960">
        <ele>345.695</ele>
        <time>2021-08-19T09:58:46Z</time>
      </trkpt>
      <trkpt lat="41.706934" lon="1.105903">
        <ele>345.936</ele>
        <time>2021-08-19T09:58:48Z</time>
      </trkpt>
      <trkpt lat="41.706975" lon="1.105837">
        <ele>346.122</ele>
        <time>2021-08-19T09:58:51Z</time>
      </trkpt>
      <trkpt lat="41.707011" lon="1.105797">
        <ele>346.297</ele>
        <time>2021-08-19T09:58:53Z</time>
      </trkpt>
      <trkpt lat="41.707055" lon="1.105748">
        <ele>346.448</ele>
        <time>2021-08-19T09:58:55Z</time>
      </trkpt>
      <trkpt lat="41.707090" lon="1.105703">
        <ele>346.524</ele>
        <time>2021-08-19T09:58:57Z</time>
      </trkpt>
      <trkpt lat="41.707129" lon="1.105646">
        <ele>346.749</ele>
        <time>2021-08-19T09:58:59Z</time>
      </trkpt>
      <trkpt lat="41.707166" lon="1.105599">
        <ele>346.802</ele>
        <time>2021-08-19T09:59:01Z</time>
      </trkpt>
      <trkpt lat="41.707203" lon="1.105536">
        <ele>346.922</ele>
        <time>2021-08-19T09:59:03Z</time>
      </trkpt>
      <trkpt lat="41.707249" lon="1.105487">
        <ele>346.809</ele>
        <time>2021-08-19T09:59:05Z</time>
      </trkpt>
      <trkpt lat="41.707295" lon="1.105434">
        <ele>346.645</ele>
        <time>2021-08-19T09:59:07Z</time>
      </trkpt>
      <trkpt lat="41.707332" lon="1.105381">
        <ele>346.466</ele>
        <time>2021-08-19T09:59:09Z</time>
      </trkpt>
      <trkpt lat="41.707373" lon="1.105337">
        <ele>346.267</ele>
        <time>2021-08-19T09:59:11Z</time>
      </trkpt>
      <trkpt lat="41.707415" lon="1.105291">
        <ele>346.021</ele>
        <time>2021-08-19T09:59:13Z</time>
      </trkpt>
      <trkpt lat="41.707454" lon="1.105231">
        <ele>345.822</ele>
        <time>2021-08-19T09:59:15Z</time>
      </trkpt>
      <trkpt lat="41.707498" lon="1.105180">
        <ele>345.678</ele>
        <time>2021-08-19T09:59:17Z</time>
      </trkpt>
      <trkpt lat="41.707539" lon="1.105130">
        <ele>345.643</ele>
        <time>2021-08-19T09:59:19Z</time>
      </trkpt>
      <trkpt lat="41.707578" lon="1.105083">
        <ele>345.684</ele>
        <time>2021-08-19T09:59:21Z</time>
      </trkpt>
      <trkpt lat="41.707616" lon="1.105038">
        <ele>345.690</ele>
        <time>2021-08-19T09:59:23Z</time>
      </trkpt>
      <trkpt lat="41.707655" lon="1.104984">
        <ele>345.553</ele>
        <time>2021-08-19T09:59:25Z</time>
      </trkpt>
      <trkpt lat="41.707690" lon="1.104939">
        <ele>345.604</ele>
        <time>2021-08-19T09:59:27Z</time>
      </trkpt>
      <trkpt lat="41.707729" lon="1.104872">
        <ele>345.714</ele>
        <time>2021-08-19T09:59:29Z</time>
      </trkpt>
      <trkpt lat="41.707770" lon="1.104811">
        <ele>346.009</ele>
        <time>2021-08-19T09:59:31Z</time>
      </trkpt>
      <trkpt lat="41.707809" lon="1.104755">
        <ele>346.286</ele>
        <time>2021-08-19T09:59:33Z</time>
      </trkpt>
      <trkpt lat="41.707846" lon="1.104697">
        <ele>346.437</ele>
        <time>2021-08-19T09:59:35Z</time>
      </trkpt>
      <trkpt lat="41.707881" lon="1.104628">
        <ele>346.358</ele>
        <time>2021-08-19T09:59:37Z</time>
      </trkpt>
      <trkpt lat="41.707918" lon="1.104565">
        <ele>346.262</ele>
        <time>2021-08-19T09:59:39Z</time>
      </trkpt>
      <trkpt lat="41.707956" lon="1.104510">
        <ele>346.013</ele>
        <time>2021-08-19T09:59:41Z</time>
      </trkpt>
      <trkpt lat="41.708001" lon="1.104452">
        <ele>345.959</ele>
        <time>2021-08-19T09:59:43Z</time>
      </trkpt>
      <trkpt lat="41.708040" lon="1.104388">
        <ele>345.714</ele>
        <time>2021-08-19T09:59:45Z</time>
      </trkpt>
      <trkpt lat="41.708075" lon="1.104332">
        <ele>345.645</ele>
        <time>2021-08-19T09:59:47Z</time>
      </trkpt>
      <trkpt lat="41.708114" lon="1.104274">
        <ele>345.561</ele>
        <time>2021-08-19T09:59:49Z</time>
      </trkpt>
      <trkpt lat="41.708152" lon="1.104216">
        <ele>345.238</ele>
        <time>2021-08-19T09:59:51Z</time>
      </trkpt>
      <trkpt lat="41.708191" lon="1.104161">
        <ele>345.070</ele>
        <time>2021-08-19T09:59:53Z</time>
      </trkpt>
      <trkpt lat="41.708232" lon="1.104107">
        <ele>344.817</ele>
        <time>2021-08-19T09:59:55Z</time>
      </trkpt>
      <trkpt lat="41.708267" lon="1.104051">
        <ele>344.609</ele>
        <time>2021-08-19T09:59:57Z</time>
      </trkpt>
      <trkpt lat="41.708297" lon="1.103998">
        <ele>344.414</ele>
        <time>2021-08-19T09:59:59Z</time>
      </trkpt>
      <trkpt lat="41.708356" lon="1.103913">
        <ele>344.375</ele>
        <time>2021-08-19T10:00:02Z</time>
      </trkpt>
      <trkpt lat="41.708390" lon="1.103856">
        <ele>344.716</ele>
        <time>2021-08-19T10:00:04Z</time>
      </trkpt>
      <trkpt lat="41.708422" lon="1.103807">
        <ele>345.260</ele>
        <time>2021-08-19T10:00:06Z</time>
      </trkpt>
      <trkpt lat="41.708452" lon="1.103762">
        <ele>345.591</ele>
        <time>2021-08-19T10:00:08Z</time>
      </trkpt>
      <trkpt lat="41.708502" lon="1.103706">
        <ele>346.187</ele>
        <time>2021-08-19T10:00:11Z</time>
      </trkpt>
      <trkpt lat="41.708545" lon="1.103647">
        <ele>346.572</ele>
        <time>2021-08-19T10:00:14Z</time>
      </trkpt>
      <trkpt lat="41.708585" lon="1.103582">
        <ele>346.983</ele>
        <time>2021-08-19T10:00:17Z</time>
      </trkpt>
      <trkpt lat="41.708624" lon="1.103543">
        <ele>347.319</ele>
        <time>2021-08-19T10:00:20Z</time>
      </trkpt>
      <trkpt lat="41.708655" lon="1.103500">
        <ele>347.787</ele>
        <time>2021-08-19T10:00:23Z</time>
      </trkpt>
      <trkpt lat="41.708688" lon="1.103456">
        <ele>348.142</ele>
        <time>2021-08-19T10:00:26Z</time>
      </trkpt>
      <trkpt lat="41.708729" lon="1.103432">
        <ele>348.526</ele>
        <time>2021-08-19T10:00:30Z</time>
      </trkpt>
      <trkpt lat="41.708773" lon="1.103393">
        <ele>349.009</ele>
        <time>2021-08-19T10:00:35Z</time>
      </trkpt>
      <trkpt lat="41.708807" lon="1.103347">
        <ele>349.429</ele>
        <time>2021-08-19T10:00:39Z</time>
      </trkpt>
      <trkpt lat="41.708852" lon="1.103314">
        <ele>349.890</ele>
        <time>2021-08-19T10:00:44Z</time>
      </trkpt>
      <trkpt lat="41.708880" lon="1.103253">
        <ele>350.041</ele>
        <time>2021-08-19T10:00:48Z</time>
      </trkpt>
      <trkpt lat="41.708908" lon="1.103196">
        <ele>350.075</ele>
        <time>2021-08-19T10:00:52Z</time>
      </trkpt>
      <trkpt lat="41.708923" lon="1.103139">
        <ele>350.116</ele>
        <time>2021-08-19T10:00:56Z</time>
      </trkpt>
      <trkpt lat="41.708952" lon="1.103092">
        <ele>350.252</ele>
        <time>2021-08-19T10:01:00Z</time>
      </trkpt>
      <trkpt lat="41.708982" lon="1.103040">
        <ele>350.437</ele>
        <time>2021-08-19T10:01:03Z</time>
      </trkpt>
      <trkpt lat="41.709021" lon="1.103004">
        <ele>350.828</ele>
        <time>2021-08-19T10:01:06Z</time>
      </trkpt>
      <trkpt lat="41.709063" lon="1.102970">
        <ele>351.254</ele>
        <time>2021-08-19T10:01:09Z</time>
      </trkpt>
      <trkpt lat="41.709105" lon="1.102919">
        <ele>351.869</ele>
        <time>2021-08-19T10:01:13Z</time>
      </trkpt>
      <trkpt lat="41.709145" lon="1.102863">
        <ele>352.304</ele>
        <time>2021-08-19T10:01:17Z</time>
      </trkpt>
      <trkpt lat="41.709122" lon="1.102792">
        <ele>352.724</ele>
        <time>2021-08-19T10:02:37Z</time>
      </trkpt>
      <trkpt lat="41.709133" lon="1.102727">
        <ele>352.909</ele>
        <time>2021-08-19T10:02:40Z</time>
      </trkpt>
      <trkpt lat="41.709150" lon="1.102657">
        <ele>353.067</ele>
        <time>2021-08-19T10:02:43Z</time>
      </trkpt>
      <trkpt lat="41.709144" lon="1.102589">
        <ele>353.058</ele>
        <time>2021-08-19T10:02:45Z</time>
      </trkpt>
      <trkpt lat="41.709144" lon="1.102522">
        <ele>353.049</ele>
        <time>2021-08-19T10:02:47Z</time>
      </trkpt>
      <trkpt lat="41.709148" lon="1.102456">
        <ele>352.863</ele>
        <time>2021-08-19T10:02:49Z</time>
      </trkpt>
      <trkpt lat="41.709158" lon="1.102377">
        <ele>352.664</ele>
        <time>2021-08-19T10:02:51Z</time>
      </trkpt>
      <trkpt lat="41.709163" lon="1.102313">
        <ele>352.360</ele>
        <time>2021-08-19T10:02:53Z</time>
      </trkpt>
      <trkpt lat="41.709173" lon="1.102246">
        <ele>352.165</ele>
        <time>2021-08-19T10:02:55Z</time>
      </trkpt>
      <trkpt lat="41.709182" lon="1.102183">
        <ele>351.726</ele>
        <time>2021-08-19T10:02:57Z</time>
      </trkpt>
      <trkpt lat="41.709188" lon="1.102123">
        <ele>351.352</ele>
        <time>2021-08-19T10:02:59Z</time>
      </trkpt>
      <trkpt lat="41.709196" lon="1.102063">
        <ele>350.947</ele>
        <time>2021-08-19T10:03:01Z</time>
      </trkpt>
      <trkpt lat="41.709199" lon="1.102002">
        <ele>350.429</ele>
        <time>2021-08-19T10:03:03Z</time>
      </trkpt>
      <trkpt lat="41.709209" lon="1.101931">
        <ele>350.021</ele>
        <time>2021-08-19T10:03:05Z</time>
      </trkpt>
      <trkpt lat="41.709218" lon="1.101861">
        <ele>349.709</ele>
        <time>2021-08-19T10:03:07Z</time>
      </trkpt>
      <trkpt lat="41.709229" lon="1.101790">
        <ele>349.495</ele>
        <time>2021-08-19T10:03:09Z</time>
      </trkpt>
      <trkpt lat="41.709235" lon="1.101723">
        <ele>349.216</ele>
        <time>2021-08-19T10:03:11Z</time>
      </trkpt>
      <trkpt lat="41.709244" lon="1.101655">
        <ele>349.087</ele>
        <time>2021-08-19T10:03:13Z</time>
      </trkpt>
      <trkpt lat="41.709254" lon="1.101576">
        <ele>349.021</ele>
        <time>2021-08-19T10:03:15Z</time>
      </trkpt>
      <trkpt lat="41.709264" lon="1.101501">
        <ele>349.012</ele>
        <time>2021-08-19T10:03:17Z</time>
      </trkpt>
      <trkpt lat="41.709269" lon="1.101433">
        <ele>349.038</ele>
        <time>2021-08-19T10:03:18Z</time>
      </trkpt>
      <trkpt lat="41.709273" lon="1.101366">
        <ele>349.073</ele>
        <time>2021-08-19T10:03:20Z</time>
      </trkpt>
      <trkpt lat="41.709280" lon="1.101290">
        <ele>349.054</ele>
        <time>2021-08-19T10:03:21Z</time>
      </trkpt>
      <trkpt lat="41.709289" lon="1.101211">
        <ele>349.020</ele>
        <time>2021-08-19T10:03:23Z</time>
      </trkpt>
      <trkpt lat="41.709296" lon="1.101127">
        <ele>349.099</ele>
        <time>2021-08-19T10:03:25Z</time>
      </trkpt>
      <trkpt lat="41.709304" lon="1.101036">
        <ele>348.907</ele>
        <time>2021-08-19T10:03:27Z</time>
      </trkpt>
      <trkpt lat="41.709315" lon="1.100971">
        <ele>348.827</ele>
        <time>2021-08-19T10:03:29Z</time>
      </trkpt>
      <trkpt lat="41.709326" lon="1.100908">
        <ele>348.709</ele>
        <time>2021-08-19T10:03:30Z</time>
      </trkpt>
      <trkpt lat="41.709335" lon="1.100839">
        <ele>348.690</ele>
        <time>2021-08-19T10:03:32Z</time>
      </trkpt>
      <trkpt lat="41.709353" lon="1.100738">
        <ele>348.491</ele>
        <time>2021-08-19T10:03:34Z</time>
      </trkpt>
      <trkpt lat="41.709362" lon="1.100657">
        <ele>348.362</ele>
        <time>2021-08-19T10:03:36Z</time>
      </trkpt>
      <trkpt lat="41.709372" lon="1.100595">
        <ele>348.156</ele>
        <time>2021-08-19T10:03:37Z</time>
      </trkpt>
      <trkpt lat="41.709381" lon="1.100522">
        <ele>348.087</ele>
        <time>2021-08-19T10:03:39Z</time>
      </trkpt>
      <trkpt lat="41.709392" lon="1.100448">
        <ele>347.983</ele>
        <time>2021-08-19T10:03:40Z</time>
      </trkpt>
      <trkpt lat="41.709407" lon="1.100357">
        <ele>347.988</ele>
        <time>2021-08-19T10:03:42Z</time>
      </trkpt>
      <trkpt lat="41.709424" lon="1.100264">
        <ele>347.989</ele>
        <time>2021-08-19T10:03:44Z</time>
      </trkpt>
      <trkpt lat="41.709441" lon="1.100179">
        <ele>347.645</ele>
        <time>2021-08-19T10:03:46Z</time>
      </trkpt>
      <trkpt lat="41.709461" lon="1.100119">
        <ele>347.411</ele>
        <time>2021-08-19T10:03:49Z</time>
      </trkpt>
      <trkpt lat="41.709492" lon="1.100062">
        <ele>347.221</ele>
        <time>2021-08-19T10:04:06Z</time>
      </trkpt>
      <trkpt lat="41.709517" lon="1.099992">
        <ele>347.003</ele>
        <time>2021-08-19T10:04:08Z</time>
      </trkpt>
      <trkpt lat="41.709544" lon="1.099919">
        <ele>346.609</ele>
        <time>2021-08-19T10:04:10Z</time>
      </trkpt>
      <trkpt lat="41.709571" lon="1.099856">
        <ele>346.232</ele>
        <time>2021-08-19T10:04:12Z</time>
      </trkpt>
      <trkpt lat="41.709596" lon="1.099796">
        <ele>345.973</ele>
        <time>2021-08-19T10:04:14Z</time>
      </trkpt>
      <trkpt lat="41.709625" lon="1.099732">
        <ele>345.434</ele>
        <time>2021-08-19T10:04:16Z</time>
      </trkpt>
      <trkpt lat="41.709651" lon="1.099666">
        <ele>345.148</ele>
        <time>2021-08-19T10:04:18Z</time>
      </trkpt>
      <trkpt lat="41.709678" lon="1.099596">
        <ele>344.759</ele>
        <time>2021-08-19T10:04:20Z</time>
      </trkpt>
      <trkpt lat="41.709707" lon="1.099530">
        <ele>344.415</ele>
        <time>2021-08-19T10:04:22Z</time>
      </trkpt>
      <trkpt lat="41.709727" lon="1.099462">
        <ele>344.160</ele>
        <time>2021-08-19T10:04:24Z</time>
      </trkpt>
      <trkpt lat="41.709744" lon="1.099386">
        <ele>344.091</ele>
        <time>2021-08-19T10:04:26Z</time>
      </trkpt>
      <trkpt lat="41.709764" lon="1.099298">
        <ele>344.147</ele>
        <time>2021-08-19T10:04:28Z</time>
      </trkpt>
      <trkpt lat="41.709776" lon="1.099226">
        <ele>344.268</ele>
        <time>2021-08-19T10:04:30Z</time>
      </trkpt>
      <trkpt lat="41.709790" lon="1.099144">
        <ele>344.442</ele>
        <time>2021-08-19T10:04:32Z</time>
      </trkpt>
      <trkpt lat="41.709802" lon="1.099061">
        <ele>344.926</ele>
        <time>2021-08-19T10:04:34Z</time>
      </trkpt>
      <trkpt lat="41.709815" lon="1.098975">
        <ele>345.509</ele>
        <time>2021-08-19T10:04:36Z</time>
      </trkpt>
      <trkpt lat="41.709831" lon="1.098885">
        <ele>346.017</ele>
        <time>2021-08-19T10:04:38Z</time>
      </trkpt>
      <trkpt lat="41.709854" lon="1.098779">
        <ele>346.288</ele>
        <time>2021-08-19T10:04:40Z</time>
      </trkpt>
      <trkpt lat="41.709875" lon="1.098672">
        <ele>346.439</ele>
        <time>2021-08-19T10:04:42Z</time>
      </trkpt>
      <trkpt lat="41.709899" lon="1.098569">
        <ele>346.483</ele>
        <time>2021-08-19T10:04:44Z</time>
      </trkpt>
      <trkpt lat="41.709922" lon="1.098470">
        <ele>346.384</ele>
        <time>2021-08-19T10:04:46Z</time>
      </trkpt>
      <trkpt lat="41.709949" lon="1.098376">
        <ele>346.210</ele>
        <time>2021-08-19T10:04:48Z</time>
      </trkpt>
      <trkpt lat="41.709976" lon="1.098291">
        <ele>346.135</ele>
        <time>2021-08-19T10:04:50Z</time>
      </trkpt>
      <trkpt lat="41.709998" lon="1.098206">
        <ele>346.046</ele>
        <time>2021-08-19T10:04:52Z</time>
      </trkpt>
      <trkpt lat="41.710026" lon="1.098127">
        <ele>345.962</ele>
        <time>2021-08-19T10:04:54Z</time>
      </trkpt>
      <trkpt lat="41.710047" lon="1.098052">
        <ele>345.832</ele>
        <time>2021-08-19T10:04:56Z</time>
      </trkpt>
      <trkpt lat="41.710067" lon="1.097979">
        <ele>345.692</ele>
        <time>2021-08-19T10:04:58Z</time>
      </trkpt>
      <trkpt lat="41.710085" lon="1.097916">
        <ele>345.311</ele>
        <time>2021-08-19T10:05:00Z</time>
      </trkpt>
      <trkpt lat="41.710115" lon="1.097839">
        <ele>345.109</ele>
        <time>2021-08-19T10:05:02Z</time>
      </trkpt>
      <trkpt lat="41.710144" lon="1.097761">
        <ele>345.024</ele>
        <time>2021-08-19T10:05:04Z</time>
      </trkpt>
      <trkpt lat="41.710168" lon="1.097673">
        <ele>344.945</ele>
        <time>2021-08-19T10:05:06Z</time>
      </trkpt>
      <trkpt lat="41.710197" lon="1.097589">
        <ele>344.866</ele>
        <time>2021-08-19T10:05:08Z</time>
      </trkpt>
      <trkpt lat="41.710219" lon="1.097510">
        <ele>344.880</ele>
        <time>2021-08-19T10:05:10Z</time>
      </trkpt>
      <trkpt lat="41.710242" lon="1.097426">
        <ele>344.941</ele>
        <time>2021-08-19T10:05:12Z</time>
      </trkpt>
      <trkpt lat="41.710274" lon="1.097345">
        <ele>345.017</ele>
        <time>2021-08-19T10:05:14Z</time>
      </trkpt>
      <trkpt lat="41.710307" lon="1.097264">
        <ele>345.092</ele>
        <time>2021-08-19T10:05:16Z</time>
      </trkpt>
      <trkpt lat="41.710331" lon="1.097188">
        <ele>344.923</ele>
        <time>2021-08-19T10:05:18Z</time>
      </trkpt>
      <trkpt lat="41.710349" lon="1.097118">
        <ele>344.569</ele>
        <time>2021-08-19T10:05:20Z</time>
      </trkpt>
      <trkpt lat="41.710366" lon="1.097046">
        <ele>344.215</ele>
        <time>2021-08-19T10:05:21Z</time>
      </trkpt>
      <trkpt lat="41.710388" lon="1.096961">
        <ele>343.765</ele>
        <time>2021-08-19T10:05:23Z</time>
      </trkpt>
      <trkpt lat="41.710397" lon="1.096890">
        <ele>343.511</ele>
        <time>2021-08-19T10:05:25Z</time>
      </trkpt>
      <trkpt lat="41.710412" lon="1.096811">
        <ele>343.309</ele>
        <time>2021-08-19T10:05:27Z</time>
      </trkpt>
      <trkpt lat="41.710429" lon="1.096733">
        <ele>343.022</ele>
        <time>2021-08-19T10:05:29Z</time>
      </trkpt>
      <trkpt lat="41.710437" lon="1.096670">
        <ele>342.983</ele>
        <time>2021-08-19T10:05:31Z</time>
      </trkpt>
      <trkpt lat="41.710449" lon="1.096600">
        <ele>342.844</ele>
        <time>2021-08-19T10:05:33Z</time>
      </trkpt>
      <trkpt lat="41.710465" lon="1.096534">
        <ele>342.848</ele>
        <time>2021-08-19T10:05:35Z</time>
      </trkpt>
      <trkpt lat="41.710471" lon="1.096464">
        <ele>342.929</ele>
        <time>2021-08-19T10:05:37Z</time>
      </trkpt>
      <trkpt lat="41.710488" lon="1.096392">
        <ele>343.025</ele>
        <time>2021-08-19T10:05:39Z</time>
      </trkpt>
      <trkpt lat="41.710506" lon="1.096330">
        <ele>343.260</ele>
        <time>2021-08-19T10:05:41Z</time>
      </trkpt>
      <trkpt lat="41.710528" lon="1.096269">
        <ele>343.481</ele>
        <time>2021-08-19T10:05:43Z</time>
      </trkpt>
      <trkpt lat="41.710543" lon="1.096205">
        <ele>343.657</ele>
        <time>2021-08-19T10:05:45Z</time>
      </trkpt>
      <trkpt lat="41.710551" lon="1.096145">
        <ele>343.984</ele>
        <time>2021-08-19T10:05:47Z</time>
      </trkpt>
      <trkpt lat="41.710565" lon="1.096084">
        <ele>344.307</ele>
        <time>2021-08-19T10:05:49Z</time>
      </trkpt>
      <trkpt lat="41.710571" lon="1.096023">
        <ele>344.717</ele>
        <time>2021-08-19T10:05:51Z</time>
      </trkpt>
      <trkpt lat="41.710586" lon="1.095958">
        <ele>345.209</ele>
        <time>2021-08-19T10:05:53Z</time>
      </trkpt>
      <trkpt lat="41.710612" lon="1.095884">
        <ele>345.769</ele>
        <time>2021-08-19T10:05:56Z</time>
      </trkpt>
      <trkpt lat="41.710643" lon="1.095806">
        <ele>346.080</ele>
        <time>2021-08-19T10:05:59Z</time>
      </trkpt>
      <trkpt lat="41.710661" lon="1.095749">
        <ele>345.981</ele>
        <time>2021-08-19T10:06:01Z</time>
      </trkpt>
      <trkpt lat="41.710671" lon="1.095679">
        <ele>345.975</ele>
        <time>2021-08-19T10:06:04Z</time>
      </trkpt>
      <trkpt lat="41.710679" lon="1.095602">
        <ele>345.966</ele>
        <time>2021-08-19T10:06:07Z</time>
      </trkpt>
      <trkpt lat="41.710686" lon="1.095535">
        <ele>345.922</ele>
        <time>2021-08-19T10:06:09Z</time>
      </trkpt>
      <trkpt lat="41.710695" lon="1.095455">
        <ele>346.097</ele>
        <time>2021-08-19T10:06:11Z</time>
      </trkpt>
      <trkpt lat="41.710701" lon="1.095373">
        <ele>346.058</ele>
        <time>2021-08-19T10:06:13Z</time>
      </trkpt>
      <trkpt lat="41.710706" lon="1.095286">
        <ele>346.174</ele>
        <time>2021-08-19T10:06:15Z</time>
      </trkpt>
      <trkpt lat="41.710706" lon="1.095201">
        <ele>345.997</ele>
        <time>2021-08-19T10:06:17Z</time>
      </trkpt>
      <trkpt lat="41.710714" lon="1.095120">
        <ele>345.823</ele>
        <time>2021-08-19T10:06:19Z</time>
      </trkpt>
      <trkpt lat="41.710721" lon="1.095033">
        <ele>345.725</ele>
        <time>2021-08-19T10:06:21Z</time>
      </trkpt>
      <trkpt lat="41.710739" lon="1.094961">
        <ele>345.709</ele>
        <time>2021-08-19T10:06:23Z</time>
      </trkpt>
      <trkpt lat="41.710740" lon="1.094884">
        <ele>345.750</ele>
        <time>2021-08-19T10:06:25Z</time>
      </trkpt>
      <trkpt lat="41.710741" lon="1.094798">
        <ele>345.791</ele>
        <time>2021-08-19T10:06:27Z</time>
      </trkpt>
      <trkpt lat="41.710747" lon="1.094718">
        <ele>345.752</ele>
        <time>2021-08-19T10:06:29Z</time>
      </trkpt>
      <trkpt lat="41.710749" lon="1.094653">
        <ele>345.726</ele>
        <time>2021-08-19T10:06:31Z</time>
      </trkpt>
      <trkpt lat="41.710760" lon="1.094555">
        <ele>345.797</ele>
        <time>2021-08-19T10:06:33Z</time>
      </trkpt>
      <trkpt lat="41.710774" lon="1.094454">
        <ele>345.853</ele>
        <time>2021-08-19T10:06:35Z</time>
      </trkpt>
      <trkpt lat="41.710788" lon="1.094357">
        <ele>345.828</ele>
        <time>2021-08-19T10:06:37Z</time>
      </trkpt>
      <trkpt lat="41.710805" lon="1.094276">
        <ele>345.989</ele>
        <time>2021-08-19T10:06:39Z</time>
      </trkpt>
      <trkpt lat="41.710834" lon="1.094196">
        <ele>346.015</ele>
        <time>2021-08-19T10:06:41Z</time>
      </trkpt>
      <trkpt lat="41.710850" lon="1.094108">
        <ele>345.584</ele>
        <time>2021-08-19T10:06:43Z</time>
      </trkpt>
      <trkpt lat="41.710849" lon="1.094020">
        <ele>344.907</ele>
        <time>2021-08-19T10:06:45Z</time>
      </trkpt>
      <trkpt lat="41.710846" lon="1.093941">
        <ele>344.417</ele>
        <time>2021-08-19T10:06:47Z</time>
      </trkpt>
      <trkpt lat="41.710840" lon="1.093859">
        <ele>344.009</ele>
        <time>2021-08-19T10:06:49Z</time>
      </trkpt>
      <trkpt lat="41.710833" lon="1.093779">
        <ele>344.019</ele>
        <time>2021-08-19T10:06:51Z</time>
      </trkpt>
      <trkpt lat="41.710837" lon="1.093712">
        <ele>344.030</ele>
        <time>2021-08-19T10:06:53Z</time>
      </trkpt>
      <trkpt lat="41.710838" lon="1.093637">
        <ele>344.011</ele>
        <time>2021-08-19T10:06:55Z</time>
      </trkpt>
      <trkpt lat="41.710844" lon="1.093565">
        <ele>344.035</ele>
        <time>2021-08-19T10:06:57Z</time>
      </trkpt>
      <trkpt lat="41.710854" lon="1.093500">
        <ele>343.976</ele>
        <time>2021-08-19T10:06:59Z</time>
      </trkpt>
      <trkpt lat="41.710874" lon="1.093431">
        <ele>343.832</ele>
        <time>2021-08-19T10:07:01Z</time>
      </trkpt>
      <trkpt lat="41.710897" lon="1.093369">
        <ele>343.677</ele>
        <time>2021-08-19T10:07:03Z</time>
      </trkpt>
      <trkpt lat="41.710925" lon="1.093307">
        <ele>343.468</ele>
        <time>2021-08-19T10:07:05Z</time>
      </trkpt>
      <trkpt lat="41.710962" lon="1.093267">
        <ele>343.374</ele>
        <time>2021-08-19T10:07:07Z</time>
      </trkpt>
      <trkpt lat="41.711016" lon="1.093225">
        <ele>343.173</ele>
        <time>2021-08-19T10:07:10Z</time>
      </trkpt>
      <trkpt lat="41.711065" lon="1.093171">
        <ele>342.985</ele>
        <time>2021-08-19T10:07:13Z</time>
      </trkpt>
      <trkpt lat="41.711112" lon="1.093131">
        <ele>342.713</ele>
        <time>2021-08-19T10:07:16Z</time>
      </trkpt>
      <trkpt lat="41.711153" lon="1.093085">
        <ele>342.909</ele>
        <time>2021-08-19T10:07:19Z</time>
      </trkpt>
      <trkpt lat="41.711202" lon="1.093037">
        <ele>343.198</ele>
        <time>2021-08-19T10:07:22Z</time>
      </trkpt>
      <trkpt lat="41.711244" lon="1.093013">
        <ele>343.279</ele>
        <time>2021-08-19T10:07:24Z</time>
      </trkpt>
      <trkpt lat="41.711291" lon="1.092982">
        <ele>343.320</ele>
        <time>2021-08-19T10:07:26Z</time>
      </trkpt>
      <trkpt lat="41.711354" lon="1.092944">
        <ele>343.424</ele>
        <time>2021-08-19T10:07:28Z</time>
      </trkpt>
      <trkpt lat="41.711419" lon="1.092901">
        <ele>343.615</ele>
        <time>2021-08-19T10:07:30Z</time>
      </trkpt>
      <trkpt lat="41.711464" lon="1.092867">
        <ele>343.721</ele>
        <time>2021-08-19T10:07:32Z</time>
      </trkpt>
      <trkpt lat="41.711512" lon="1.092832">
        <ele>343.846</ele>
        <time>2021-08-19T10:07:33Z</time>
      </trkpt>
      <trkpt lat="41.711576" lon="1.092781">
        <ele>344.027</ele>
        <time>2021-08-19T10:07:35Z</time>
      </trkpt>
      <trkpt lat="41.711639" lon="1.092726">
        <ele>344.293</ele>
        <time>2021-08-19T10:07:37Z</time>
      </trkpt>
      <trkpt lat="41.711702" lon="1.092665">
        <ele>344.547</ele>
        <time>2021-08-19T10:07:39Z</time>
      </trkpt>
      <trkpt lat="41.711772" lon="1.092613">
        <ele>344.729</ele>
        <time>2021-08-19T10:07:41Z</time>
      </trkpt>
      <trkpt lat="41.711841" lon="1.092556">
        <ele>344.921</ele>
        <time>2021-08-19T10:07:43Z</time>
      </trkpt>
      <trkpt lat="41.711912" lon="1.092487">
        <ele>345.009</ele>
        <time>2021-08-19T10:07:45Z</time>
      </trkpt>
      <trkpt lat="41.711982" lon="1.092413">
        <ele>344.815</ele>
        <time>2021-08-19T10:07:47Z</time>
      </trkpt>
      <trkpt lat="41.712050" lon="1.092336">
        <ele>344.556</ele>
        <time>2021-08-19T10:07:49Z</time>
      </trkpt>
      <trkpt lat="41.712116" lon="1.092265">
        <ele>344.357</ele>
        <time>2021-08-19T10:07:51Z</time>
      </trkpt>
      <trkpt lat="41.712172" lon="1.092185">
        <ele>344.181</ele>
        <time>2021-08-19T10:07:53Z</time>
      </trkpt>
      <trkpt lat="41.712228" lon="1.092110">
        <ele>343.522</ele>
        <time>2021-08-19T10:07:55Z</time>
      </trkpt>
      <trkpt lat="41.712281" lon="1.092029">
        <ele>342.598</ele>
        <time>2021-08-19T10:07:57Z</time>
      </trkpt>
      <trkpt lat="41.712335" lon="1.091951">
        <ele>341.443</ele>
        <time>2021-08-19T10:07:59Z</time>
      </trkpt>
      <trkpt lat="41.712374" lon="1.091882">
        <ele>340.594</ele>
        <time>2021-08-19T10:08:01Z</time>
      </trkpt>
      <trkpt lat="41.712425" lon="1.091786">
        <ele>339.460</ele>
        <time>2021-08-19T10:08:03Z</time>
      </trkpt>
      <trkpt lat="41.712470" lon="1.091691">
        <ele>338.433</ele>
        <time>2021-08-19T10:08:05Z</time>
      </trkpt>
      <trkpt lat="41.712519" lon="1.091597">
        <ele>338.123</ele>
        <time>2021-08-19T10:08:07Z</time>
      </trkpt>
      <trkpt lat="41.712575" lon="1.091504">
        <ele>338.415</ele>
        <time>2021-08-19T10:08:09Z</time>
      </trkpt>
      <trkpt lat="41.712617" lon="1.091430">
        <ele>338.809</ele>
        <time>2021-08-19T10:08:11Z</time>
      </trkpt>
      <trkpt lat="41.712669" lon="1.091312">
        <ele>339.234</ele>
        <time>2021-08-19T10:08:13Z</time>
      </trkpt>
      <trkpt lat="41.712690" lon="1.091253">
        <ele>339.485</ele>
        <time>2021-08-19T10:08:14Z</time>
      </trkpt>
      <trkpt lat="41.712708" lon="1.091193">
        <ele>339.586</ele>
        <time>2021-08-19T10:08:15Z</time>
      </trkpt>
      <trkpt lat="41.712743" lon="1.091080">
        <ele>339.790</ele>
        <time>2021-08-19T10:08:17Z</time>
      </trkpt>
      <trkpt lat="41.712760" lon="1.091022">
        <ele>339.661</ele>
        <time>2021-08-19T10:08:18Z</time>
      </trkpt>
      <trkpt lat="41.712794" lon="1.090916">
        <ele>339.327</ele>
        <time>2021-08-19T10:08:20Z</time>
      </trkpt>
      <trkpt lat="41.712820" lon="1.090782">
        <ele>338.872</ele>
        <time>2021-08-19T10:08:22Z</time>
      </trkpt>
      <trkpt lat="41.712839" lon="1.090639">
        <ele>338.183</ele>
        <time>2021-08-19T10:08:24Z</time>
      </trkpt>
      <trkpt lat="41.712845" lon="1.090569">
        <ele>337.879</ele>
        <time>2021-08-19T10:08:25Z</time>
      </trkpt>
      <trkpt lat="41.712849" lon="1.090501">
        <ele>337.598</ele>
        <time>2021-08-19T10:08:26Z</time>
      </trkpt>
      <trkpt lat="41.712855" lon="1.090435">
        <ele>337.315</ele>
        <time>2021-08-19T10:08:27Z</time>
      </trkpt>
      <trkpt lat="41.712861" lon="1.090303">
        <ele>336.826</ele>
        <time>2021-08-19T10:08:29Z</time>
      </trkpt>
      <trkpt lat="41.712863" lon="1.090238">
        <ele>336.709</ele>
        <time>2021-08-19T10:08:30Z</time>
      </trkpt>
      <trkpt lat="41.712864" lon="1.090123">
        <ele>336.970</ele>
        <time>2021-08-19T10:08:32Z</time>
      </trkpt>
      <trkpt lat="41.712893" lon="1.090045">
        <ele>336.711</ele>
        <time>2021-08-19T10:08:34Z</time>
      </trkpt>
      <trkpt lat="41.712885" lon="1.089966">
        <ele>337.082</ele>
        <time>2021-08-19T10:08:35Z</time>
      </trkpt>
      <trkpt lat="41.712884" lon="1.089861">
        <ele>337.756</ele>
        <time>2021-08-19T10:08:37Z</time>
      </trkpt>
      <trkpt lat="41.712880" lon="1.089750">
        <ele>338.427</ele>
        <time>2021-08-19T10:08:39Z</time>
      </trkpt>
      <trkpt lat="41.712884" lon="1.089633">
        <ele>338.293</ele>
        <time>2021-08-19T10:08:41Z</time>
      </trkpt>
      <trkpt lat="41.712885" lon="1.089518">
        <ele>337.838</ele>
        <time>2021-08-19T10:08:43Z</time>
      </trkpt>
      <trkpt lat="41.712896" lon="1.089410">
        <ele>337.439</ele>
        <time>2021-08-19T10:08:45Z</time>
      </trkpt>
      <trkpt lat="41.712902" lon="1.089297">
        <ele>337.095</ele>
        <time>2021-08-19T10:08:47Z</time>
      </trkpt>
      <trkpt lat="41.712917" lon="1.089183">
        <ele>336.643</ele>
        <time>2021-08-19T10:08:49Z</time>
      </trkpt>
      <trkpt lat="41.712930" lon="1.089124">
        <ele>336.564</ele>
        <time>2021-08-19T10:08:50Z</time>
      </trkpt>
      <trkpt lat="41.712951" lon="1.089062">
        <ele>336.410</ele>
        <time>2021-08-19T10:08:51Z</time>
      </trkpt>
      <trkpt lat="41.712976" lon="1.088949">
        <ele>336.309</ele>
        <time>2021-08-19T10:08:53Z</time>
      </trkpt>
      <trkpt lat="41.713002" lon="1.088848">
        <ele>336.275</ele>
        <time>2021-08-19T10:08:55Z</time>
      </trkpt>
      <trkpt lat="41.713033" lon="1.088731">
        <ele>336.176</ele>
        <time>2021-08-19T10:08:57Z</time>
      </trkpt>
      <trkpt lat="41.713052" lon="1.088668">
        <ele>336.017</ele>
        <time>2021-08-19T10:08:58Z</time>
      </trkpt>
      <trkpt lat="41.713087" lon="1.088550">
        <ele>335.221</ele>
        <time>2021-08-19T10:09:00Z</time>
      </trkpt>
      <trkpt lat="41.713106" lon="1.088494">
        <ele>334.762</ele>
        <time>2021-08-19T10:09:01Z</time>
      </trkpt>
      <trkpt lat="41.713154" lon="1.088390">
        <ele>333.748</ele>
        <time>2021-08-19T10:09:03Z</time>
      </trkpt>
      <trkpt lat="41.713203" lon="1.088333">
        <ele>332.973</ele>
        <time>2021-08-19T10:09:05Z</time>
      </trkpt>
      <trkpt lat="41.713241" lon="1.088293">
        <ele>332.214</ele>
        <time>2021-08-19T10:09:06Z</time>
      </trkpt>
      <trkpt lat="41.713287" lon="1.088256">
        <ele>331.530</ele>
        <time>2021-08-19T10:09:07Z</time>
      </trkpt>
      <trkpt lat="41.713354" lon="1.088209">
        <ele>330.984</ele>
        <time>2021-08-19T10:09:09Z</time>
      </trkpt>
      <trkpt lat="41.713450" lon="1.088168">
        <ele>330.407</ele>
        <time>2021-08-19T10:09:11Z</time>
      </trkpt>
      <trkpt lat="41.713521" lon="1.088083">
        <ele>330.317</ele>
        <time>2021-08-19T10:09:13Z</time>
      </trkpt>
      <trkpt lat="41.713548" lon="1.088032">
        <ele>330.309</ele>
        <time>2021-08-19T10:09:14Z</time>
      </trkpt>
      <trkpt lat="41.713591" lon="1.087925">
        <ele>330.549</ele>
        <time>2021-08-19T10:09:16Z</time>
      </trkpt>
      <trkpt lat="41.713612" lon="1.087869">
        <ele>330.750</ele>
        <time>2021-08-19T10:09:17Z</time>
      </trkpt>
      <trkpt lat="41.713638" lon="1.087762">
        <ele>330.851</ele>
        <time>2021-08-19T10:09:19Z</time>
      </trkpt>
      <trkpt lat="41.713672" lon="1.087658">
        <ele>330.625</ele>
        <time>2021-08-19T10:09:21Z</time>
      </trkpt>
      <trkpt lat="41.713716" lon="1.087565">
        <ele>330.276</ele>
        <time>2021-08-19T10:09:23Z</time>
      </trkpt>
      <trkpt lat="41.713755" lon="1.087468">
        <ele>330.062</ele>
        <time>2021-08-19T10:09:25Z</time>
      </trkpt>
      <trkpt lat="41.713781" lon="1.087363">
        <ele>329.837</ele>
        <time>2021-08-19T10:09:27Z</time>
      </trkpt>
      <trkpt lat="41.713814" lon="1.087262">
        <ele>329.558</ele>
        <time>2021-08-19T10:09:29Z</time>
      </trkpt>
      <trkpt lat="41.713839" lon="1.087162">
        <ele>329.244</ele>
        <time>2021-08-19T10:09:31Z</time>
      </trkpt>
      <trkpt lat="41.713891" lon="1.087083">
        <ele>328.596</ele>
        <time>2021-08-19T10:09:33Z</time>
      </trkpt>
      <trkpt lat="41.713957" lon="1.087033">
        <ele>327.831</ele>
        <time>2021-08-19T10:09:35Z</time>
      </trkpt>
      <trkpt lat="41.714076" lon="1.086977">
        <ele>326.724</ele>
        <time>2021-08-19T10:09:38Z</time>
      </trkpt>
      <trkpt lat="41.714161" lon="1.086971">
        <ele>326.009</ele>
        <time>2021-08-19T10:09:40Z</time>
      </trkpt>
      <trkpt lat="41.714242" lon="1.086973">
        <ele>325.530</ele>
        <time>2021-08-19T10:09:42Z</time>
      </trkpt>
      <trkpt lat="41.714307" lon="1.086944">
        <ele>325.041</ele>
        <time>2021-08-19T10:09:44Z</time>
      </trkpt>
      <trkpt lat="41.714391" lon="1.086962">
        <ele>324.442</ele>
        <time>2021-08-19T10:09:46Z</time>
      </trkpt>
      <trkpt lat="41.714475" lon="1.086985">
        <ele>323.626</ele>
        <time>2021-08-19T10:09:48Z</time>
      </trkpt>
      <trkpt lat="41.714521" lon="1.086979">
        <ele>323.067</ele>
        <time>2021-08-19T10:09:49Z</time>
      </trkpt>
      <trkpt lat="41.714605" lon="1.086940">
        <ele>321.753</ele>
        <time>2021-08-19T10:09:51Z</time>
      </trkpt>
      <trkpt lat="41.714673" lon="1.086866">
        <ele>320.938</ele>
        <time>2021-08-19T10:09:53Z</time>
      </trkpt>
      <trkpt lat="41.714727" lon="1.086779">
        <ele>320.679</ele>
        <time>2021-08-19T10:09:55Z</time>
      </trkpt>
      <trkpt lat="41.714784" lon="1.086688">
        <ele>320.795</ele>
        <time>2021-08-19T10:09:57Z</time>
      </trkpt>
      <trkpt lat="41.714842" lon="1.086602">
        <ele>320.823</ele>
        <time>2021-08-19T10:09:59Z</time>
      </trkpt>
      <trkpt lat="41.714905" lon="1.086554">
        <ele>320.783</ele>
        <time>2021-08-19T10:10:01Z</time>
      </trkpt>
      <trkpt lat="41.714970" lon="1.086516">
        <ele>320.611</ele>
        <time>2021-08-19T10:10:03Z</time>
      </trkpt>
      <trkpt lat="41.715029" lon="1.086488">
        <ele>320.609</ele>
        <time>2021-08-19T10:10:05Z</time>
      </trkpt>
      <trkpt lat="41.715082" lon="1.086451">
        <ele>320.873</ele>
        <time>2021-08-19T10:10:07Z</time>
      </trkpt>
      <trkpt lat="41.715143" lon="1.086400">
        <ele>321.014</ele>
        <time>2021-08-19T10:10:09Z</time>
      </trkpt>
      <trkpt lat="41.715188" lon="1.086353">
        <ele>321.225</ele>
        <time>2021-08-19T10:10:11Z</time>
      </trkpt>
      <trkpt lat="41.715233" lon="1.086305">
        <ele>321.469</ele>
        <time>2021-08-19T10:10:13Z</time>
      </trkpt>
      <trkpt lat="41.715283" lon="1.086238">
        <ele>321.580</ele>
        <time>2021-08-19T10:10:15Z</time>
      </trkpt>
      <trkpt lat="41.715339" lon="1.086161">
        <ele>321.616</ele>
        <time>2021-08-19T10:10:17Z</time>
      </trkpt>
      <trkpt lat="41.715400" lon="1.086080">
        <ele>321.751</ele>
        <time>2021-08-19T10:10:19Z</time>
      </trkpt>
      <trkpt lat="41.715444" lon="1.086028">
        <ele>321.892</ele>
        <time>2021-08-19T10:10:21Z</time>
      </trkpt>
      <trkpt lat="41.715449" lon="1.085960">
        <ele>322.128</ele>
        <time>2021-08-19T10:11:57Z</time>
      </trkpt>
      <trkpt lat="41.715430" lon="1.085901">
        <ele>322.652</ele>
        <time>2021-08-19T10:11:59Z</time>
      </trkpt>
      <trkpt lat="41.715387" lon="1.085857">
        <ele>323.153</ele>
        <time>2021-08-19T10:12:01Z</time>
      </trkpt>
      <trkpt lat="41.715347" lon="1.085812">
        <ele>323.508</ele>
        <time>2021-08-19T10:12:03Z</time>
      </trkpt>
      <trkpt lat="41.715301" lon="1.085763">
        <ele>323.809</ele>
        <time>2021-08-19T10:12:05Z</time>
      </trkpt>
      <trkpt lat="41.715267" lon="1.085714">
        <ele>324.026</ele>
        <time>2021-08-19T10:12:06Z</time>
      </trkpt>
      <trkpt lat="41.715226" lon="1.085645">
        <ele>324.167</ele>
        <time>2021-08-19T10:12:08Z</time>
      </trkpt>
      <trkpt lat="41.715194" lon="1.085599">
        <ele>324.358</ele>
        <time>2021-08-19T10:12:10Z</time>
      </trkpt>
      <trkpt lat="41.715155" lon="1.085548">
        <ele>324.462</ele>
        <time>2021-08-19T10:12:12Z</time>
      </trkpt>
      <trkpt lat="41.715120" lon="1.085507">
        <ele>324.673</ele>
        <time>2021-08-19T10:12:14Z</time>
      </trkpt>
      <trkpt lat="41.715082" lon="1.085470">
        <ele>324.759</ele>
        <time>2021-08-19T10:12:16Z</time>
      </trkpt>
      <trkpt lat="41.715043" lon="1.085430">
        <ele>324.854</ele>
        <time>2021-08-19T10:12:18Z</time>
      </trkpt>
      <trkpt lat="41.714988" lon="1.085379">
        <ele>324.975</ele>
        <time>2021-08-19T10:12:20Z</time>
      </trkpt>
      <trkpt lat="41.714950" lon="1.085331">
        <ele>324.831</ele>
        <time>2021-08-19T10:12:22Z</time>
      </trkpt>
      <trkpt lat="41.714905" lon="1.085278">
        <ele>324.759</ele>
        <time>2021-08-19T10:12:24Z</time>
      </trkpt>
      <trkpt lat="41.714867" lon="1.085232">
        <ele>324.403</ele>
        <time>2021-08-19T10:12:26Z</time>
      </trkpt>
      <trkpt lat="41.714831" lon="1.085187">
        <ele>324.223</ele>
        <time>2021-08-19T10:12:28Z</time>
      </trkpt>
      <trkpt lat="41.714797" lon="1.085144">
        <ele>323.909</ele>
        <time>2021-08-19T10:12:30Z</time>
      </trkpt>
      <trkpt lat="41.714767" lon="1.085099">
        <ele>323.626</ele>
        <time>2021-08-19T10:12:33Z</time>
      </trkpt>
      <trkpt lat="41.714731" lon="1.085060">
        <ele>323.377</ele>
        <time>2021-08-19T10:12:36Z</time>
      </trkpt>
      <trkpt lat="41.714691" lon="1.085016">
        <ele>323.228</ele>
        <time>2021-08-19T10:12:38Z</time>
      </trkpt>
      <trkpt lat="41.714656" lon="1.084977">
        <ele>323.282</ele>
        <time>2021-08-19T10:12:40Z</time>
      </trkpt>
      <trkpt lat="41.714619" lon="1.084938">
        <ele>323.393</ele>
        <time>2021-08-19T10:12:42Z</time>
      </trkpt>
      <trkpt lat="41.714582" lon="1.084893">
        <ele>323.359</ele>
        <time>2021-08-19T10:12:45Z</time>
      </trkpt>
      <trkpt lat="41.714543" lon="1.084847">
        <ele>323.384</ele>
        <time>2021-08-19T10:12:47Z</time>
      </trkpt>
      <trkpt lat="41.714507" lon="1.084806">
        <ele>323.225</ele>
        <time>2021-08-19T10:12:49Z</time>
      </trkpt>
      <trkpt lat="41.714468" lon="1.084765">
        <ele>323.111</ele>
        <time>2021-08-19T10:12:51Z</time>
      </trkpt>
      <trkpt lat="41.714419" lon="1.084703">
        <ele>322.919</ele>
        <time>2021-08-19T10:12:54Z</time>
      </trkpt>
      <trkpt lat="41.714383" lon="1.084663">
        <ele>322.809</ele>
        <time>2021-08-19T10:12:56Z</time>
      </trkpt>
      <trkpt lat="41.714346" lon="1.084626">
        <ele>322.819</ele>
        <time>2021-08-19T10:12:58Z</time>
      </trkpt>
      <trkpt lat="41.714305" lon="1.084573">
        <ele>322.709</ele>
        <time>2021-08-19T10:13:00Z</time>
      </trkpt>
      <trkpt lat="41.714268" lon="1.084533">
        <ele>322.872</ele>
        <time>2021-08-19T10:13:02Z</time>
      </trkpt>
      <trkpt lat="41.714230" lon="1.084486">
        <ele>322.873</ele>
        <time>2021-08-19T10:13:04Z</time>
      </trkpt>
      <trkpt lat="41.714191" lon="1.084440">
        <ele>322.944</ele>
        <time>2021-08-19T10:13:06Z</time>
      </trkpt>
      <trkpt lat="41.714154" lon="1.084395">
        <ele>322.988</ele>
        <time>2021-08-19T10:13:08Z</time>
      </trkpt>
      <trkpt lat="41.714118" lon="1.084357">
        <ele>322.979</ele>
        <time>2021-08-19T10:13:10Z</time>
      </trkpt>
      <trkpt lat="41.714082" lon="1.084314">
        <ele>323.045</ele>
        <time>2021-08-19T10:13:12Z</time>
      </trkpt>
      <trkpt lat="41.714047" lon="1.084270">
        <ele>323.160</ele>
        <time>2021-08-19T10:13:14Z</time>
      </trkpt>
      <trkpt lat="41.714005" lon="1.084218">
        <ele>323.271</ele>
        <time>2021-08-19T10:13:17Z</time>
      </trkpt>
      <trkpt lat="41.713980" lon="1.084160">
        <ele>323.467</ele>
        <time>2021-08-19T10:13:20Z</time>
      </trkpt>
      <trkpt lat="41.713962" lon="1.084089">
        <ele>323.515</ele>
        <time>2021-08-19T10:13:24Z</time>
      </trkpt>
      <trkpt lat="41.713944" lon="1.084028">
        <ele>323.765</ele>
        <time>2021-08-19T10:14:23Z</time>
      </trkpt>
      <trkpt lat="41.713892" lon="1.084052">
        <ele>324.011</ele>
        <time>2021-08-19T10:17:04Z</time>
      </trkpt>
      <trkpt lat="41.713844" lon="1.084050">
        <ele>324.109</ele>
        <time>2021-08-19T10:17:09Z</time>
      </trkpt>
      <trkpt lat="41.713812" lon="1.083991">
        <ele>324.182</ele>
        <time>2021-08-19T10:20:44Z</time>
      </trkpt>
      <trkpt lat="41.713772" lon="1.083949">
        <ele>324.153</ele>
        <time>2021-08-19T10:20:46Z</time>
      </trkpt>
      <trkpt lat="41.713734" lon="1.083900">
        <ele>324.074</ele>
        <time>2021-08-19T10:20:48Z</time>
      </trkpt>
      <trkpt lat="41.713693" lon="1.083855">
        <ele>324.068</ele>
        <time>2021-08-19T10:20:50Z</time>
      </trkpt>
      <trkpt lat="41.713650" lon="1.083818">
        <ele>324.089</ele>
        <time>2021-08-19T10:20:53Z</time>
      </trkpt>
      <trkpt lat="41.713613" lon="1.083771">
        <ele>324.045</ele>
        <time>2021-08-19T10:20:54Z</time>
      </trkpt>
      <trkpt lat="41.713574" lon="1.083721">
        <ele>324.130</ele>
        <time>2021-08-19T10:20:56Z</time>
      </trkpt>
      <trkpt lat="41.713537" lon="1.083681">
        <ele>324.141</ele>
        <time>2021-08-19T10:20:58Z</time>
      </trkpt>
      <trkpt lat="41.713481" lon="1.083630">
        <ele>324.087</ele>
        <time>2021-08-19T10:21:00Z</time>
      </trkpt>
      <trkpt lat="41.713435" lon="1.083572">
        <ele>324.195</ele>
        <time>2021-08-19T10:21:03Z</time>
      </trkpt>
      <trkpt lat="41.713395" lon="1.083526">
        <ele>324.249</ele>
        <time>2021-08-19T10:21:06Z</time>
      </trkpt>
      <trkpt lat="41.713354" lon="1.083471">
        <ele>324.523</ele>
        <time>2021-08-19T10:21:08Z</time>
      </trkpt>
      <trkpt lat="41.713323" lon="1.083426">
        <ele>324.709</ele>
        <time>2021-08-19T10:21:10Z</time>
      </trkpt>
      <trkpt lat="41.713289" lon="1.083385">
        <ele>324.890</ele>
        <time>2021-08-19T10:21:12Z</time>
      </trkpt>
      <trkpt lat="41.713249" lon="1.083337">
        <ele>325.021</ele>
        <time>2021-08-19T10:21:14Z</time>
      </trkpt>
      <trkpt lat="41.713220" lon="1.083278">
        <ele>324.942</ele>
        <time>2021-08-19T10:21:16Z</time>
      </trkpt>
      <trkpt lat="41.713198" lon="1.083215">
        <ele>324.886</ele>
        <time>2021-08-19T10:21:18Z</time>
      </trkpt>
      <trkpt lat="41.713177" lon="1.083145">
        <ele>324.667</ele>
        <time>2021-08-19T10:21:20Z</time>
      </trkpt>
      <trkpt lat="41.713160" lon="1.083069">
        <ele>324.423</ele>
        <time>2021-08-19T10:21:22Z</time>
      </trkpt>
      <trkpt lat="41.713142" lon="1.082992">
        <ele>324.238</ele>
        <time>2021-08-19T10:21:24Z</time>
      </trkpt>
      <trkpt lat="41.713132" lon="1.082923">
        <ele>324.199</ele>
        <time>2021-08-19T10:21:26Z</time>
      </trkpt>
      <trkpt lat="41.713111" lon="1.082866">
        <ele>324.165</ele>
        <time>2021-08-19T10:21:28Z</time>
      </trkpt>
      <trkpt lat="41.713096" lon="1.082804">
        <ele>324.068</ele>
        <time>2021-08-19T10:21:30Z</time>
      </trkpt>
      <trkpt lat="41.713076" lon="1.082744">
        <ele>324.042</ele>
        <time>2021-08-19T10:21:32Z</time>
      </trkpt>
      <trkpt lat="41.713054" lon="1.082686">
        <ele>324.026</ele>
        <time>2021-08-19T10:21:34Z</time>
      </trkpt>
      <trkpt lat="41.713018" lon="1.082611">
        <ele>323.809</ele>
        <time>2021-08-19T10:21:37Z</time>
      </trkpt>
      <trkpt lat="41.713001" lon="1.082553">
        <ele>323.847</ele>
        <time>2021-08-19T10:21:39Z</time>
      </trkpt>
      <trkpt lat="41.712975" lon="1.082502">
        <ele>323.768</ele>
        <time>2021-08-19T10:21:41Z</time>
      </trkpt>
      <trkpt lat="41.712948" lon="1.082449">
        <ele>323.639</ele>
        <time>2021-08-19T10:21:43Z</time>
      </trkpt>
      <trkpt lat="41.712925" lon="1.082393">
        <ele>323.583</ele>
        <time>2021-08-19T10:21:45Z</time>
      </trkpt>
      <trkpt lat="41.712894" lon="1.082314">
        <ele>323.444</ele>
        <time>2021-08-19T10:21:48Z</time>
      </trkpt>
      <trkpt lat="41.712869" lon="1.082262">
        <ele>323.380</ele>
        <time>2021-08-19T10:21:50Z</time>
      </trkpt>
      <trkpt lat="41.712841" lon="1.082215">
        <ele>323.255</ele>
        <time>2021-08-19T10:21:52Z</time>
      </trkpt>
      <trkpt lat="41.712815" lon="1.082164">
        <ele>323.196</ele>
        <time>2021-08-19T10:21:54Z</time>
      </trkpt>
      <trkpt lat="41.712788" lon="1.082107">
        <ele>323.062</ele>
        <time>2021-08-19T10:21:56Z</time>
      </trkpt>
      <trkpt lat="41.712757" lon="1.082047">
        <ele>322.911</ele>
        <time>2021-08-19T10:21:58Z</time>
      </trkpt>
      <trkpt lat="41.712730" lon="1.081979">
        <ele>322.721</ele>
        <time>2021-08-19T10:22:00Z</time>
      </trkpt>
      <trkpt lat="41.712694" lon="1.081909">
        <ele>322.403</ele>
        <time>2021-08-19T10:22:02Z</time>
      </trkpt>
      <trkpt lat="41.712651" lon="1.081835">
        <ele>322.109</ele>
        <time>2021-08-19T10:22:04Z</time>
      </trkpt>
      <trkpt lat="41.712617" lon="1.081755">
        <ele>321.832</ele>
        <time>2021-08-19T10:22:06Z</time>
      </trkpt>
      <trkpt lat="41.712575" lon="1.081657">
        <ele>321.513</ele>
        <time>2021-08-19T10:22:08Z</time>
      </trkpt>
      <trkpt lat="41.712539" lon="1.081561">
        <ele>320.254</ele>
        <time>2021-08-19T10:22:10Z</time>
      </trkpt>
      <trkpt lat="41.712518" lon="1.081484">
        <ele>319.228</ele>
        <time>2021-08-19T10:22:12Z</time>
      </trkpt>
      <trkpt lat="41.712500" lon="1.081425">
        <ele>318.449</ele>
        <time>2021-08-19T10:22:14Z</time>
      </trkpt>
      <trkpt lat="41.712486" lon="1.081366">
        <ele>317.815</ele>
        <time>2021-08-19T10:22:16Z</time>
      </trkpt>
      <trkpt lat="41.712477" lon="1.081284">
        <ele>317.120</ele>
        <time>2021-08-19T10:22:19Z</time>
      </trkpt>
      <trkpt lat="41.712444" lon="1.081221">
        <ele>316.521</ele>
        <time>2021-08-19T10:22:23Z</time>
      </trkpt>
      <trkpt lat="41.712427" lon="1.081159">
        <ele>315.967</ele>
        <time>2021-08-19T10:22:26Z</time>
      </trkpt>
      <trkpt lat="41.712408" lon="1.081089">
        <ele>315.365</ele>
        <time>2021-08-19T10:22:29Z</time>
      </trkpt>
      <trkpt lat="41.712390" lon="1.081004">
        <ele>314.868</ele>
        <time>2021-08-19T10:22:31Z</time>
      </trkpt>
      <trkpt lat="41.712377" lon="1.080868">
        <ele>314.214</ele>
        <time>2021-08-19T10:22:33Z</time>
      </trkpt>
      <trkpt lat="41.712366" lon="1.080805">
        <ele>314.209</ele>
        <time>2021-08-19T10:22:34Z</time>
      </trkpt>
      <trkpt lat="41.712347" lon="1.080703">
        <ele>314.657</ele>
        <time>2021-08-19T10:22:36Z</time>
      </trkpt>
      <trkpt lat="41.712330" lon="1.080626">
        <ele>315.038</ele>
        <time>2021-08-19T10:22:38Z</time>
      </trkpt>
      <trkpt lat="41.712308" lon="1.080573">
        <ele>315.289</ele>
        <time>2021-08-19T10:22:39Z</time>
      </trkpt>
      <trkpt lat="41.712278" lon="1.080503">
        <ele>315.473</ele>
        <time>2021-08-19T10:22:40Z</time>
      </trkpt>
      <trkpt lat="41.712244" lon="1.080413">
        <ele>315.664</ele>
        <time>2021-08-19T10:22:42Z</time>
      </trkpt>
      <trkpt lat="41.712220" lon="1.080334">
        <ele>315.840</ele>
        <time>2021-08-19T10:22:44Z</time>
      </trkpt>
      <trkpt lat="41.712198" lon="1.080265">
        <ele>315.745</ele>
        <time>2021-08-19T10:22:46Z</time>
      </trkpt>
      <trkpt lat="41.712176" lon="1.080197">
        <ele>315.586</ele>
        <time>2021-08-19T10:22:48Z</time>
      </trkpt>
      <trkpt lat="41.712162" lon="1.080127">
        <ele>315.212</ele>
        <time>2021-08-19T10:22:50Z</time>
      </trkpt>
      <trkpt lat="41.712149" lon="1.080063">
        <ele>315.089</ele>
        <time>2021-08-19T10:22:52Z</time>
      </trkpt>
      <trkpt lat="41.712119" lon="1.079996">
        <ele>314.506</ele>
        <time>2021-08-19T10:22:54Z</time>
      </trkpt>
      <trkpt lat="41.712082" lon="1.079933">
        <ele>314.526</ele>
        <time>2021-08-19T10:22:56Z</time>
      </trkpt>
      <trkpt lat="41.712038" lon="1.079874">
        <ele>314.309</ele>
        <time>2021-08-19T10:22:58Z</time>
      </trkpt>
      <trkpt lat="41.711991" lon="1.079827">
        <ele>313.989</ele>
        <time>2021-08-19T10:23:00Z</time>
      </trkpt>
      <trkpt lat="41.711937" lon="1.079786">
        <ele>313.620</ele>
        <time>2021-08-19T10:23:02Z</time>
      </trkpt>
      <trkpt lat="41.711888" lon="1.079745">
        <ele>313.951</ele>
        <time>2021-08-19T10:23:04Z</time>
      </trkpt>
      <trkpt lat="41.711851" lon="1.079700">
        <ele>314.195</ele>
        <time>2021-08-19T10:23:06Z</time>
      </trkpt>
      <trkpt lat="41.711791" lon="1.079638">
        <ele>314.436</ele>
        <time>2021-08-19T10:23:08Z</time>
      </trkpt>
      <trkpt lat="41.711742" lon="1.079574">
        <ele>314.752</ele>
        <time>2021-08-19T10:23:10Z</time>
      </trkpt>
      <trkpt lat="41.711701" lon="1.079497">
        <ele>314.997</ele>
        <time>2021-08-19T10:23:12Z</time>
      </trkpt>
      <trkpt lat="41.711659" lon="1.079420">
        <ele>315.168</ele>
        <time>2021-08-19T10:23:14Z</time>
      </trkpt>
      <trkpt lat="41.711629" lon="1.079339">
        <ele>315.314</ele>
        <time>2021-08-19T10:23:16Z</time>
      </trkpt>
      <trkpt lat="41.711603" lon="1.079254">
        <ele>315.597</ele>
        <time>2021-08-19T10:23:18Z</time>
      </trkpt>
      <trkpt lat="41.711576" lon="1.079179">
        <ele>315.623</ele>
        <time>2021-08-19T10:23:20Z</time>
      </trkpt>
      <trkpt lat="41.711553" lon="1.079105">
        <ele>315.225</ele>
        <time>2021-08-19T10:23:22Z</time>
      </trkpt>
      <trkpt lat="41.711536" lon="1.079035">
        <ele>314.809</ele>
        <time>2021-08-19T10:23:24Z</time>
      </trkpt>
      <trkpt lat="41.711515" lon="1.078974">
        <ele>314.450</ele>
        <time>2021-08-19T10:23:26Z</time>
      </trkpt>
      <trkpt lat="41.711498" lon="1.078894">
        <ele>314.031</ele>
        <time>2021-08-19T10:23:28Z</time>
      </trkpt>
      <trkpt lat="41.711473" lon="1.078818">
        <ele>313.662</ele>
        <time>2021-08-19T10:23:30Z</time>
      </trkpt>
      <trkpt lat="41.711445" lon="1.078745">
        <ele>313.146</ele>
        <time>2021-08-19T10:23:32Z</time>
      </trkpt>
      <trkpt lat="41.711419" lon="1.078680">
        <ele>312.647</ele>
        <time>2021-08-19T10:23:34Z</time>
      </trkpt>
      <trkpt lat="41.711397" lon="1.078598">
        <ele>312.083</ele>
        <time>2021-08-19T10:23:37Z</time>
      </trkpt>
      <trkpt lat="41.711371" lon="1.078508">
        <ele>312.188</ele>
        <time>2021-08-19T10:23:39Z</time>
      </trkpt>
      <trkpt lat="41.711348" lon="1.078425">
        <ele>312.129</ele>
        <time>2021-08-19T10:23:41Z</time>
      </trkpt>
      <trkpt lat="41.711331" lon="1.078330">
        <ele>312.285</ele>
        <time>2021-08-19T10:23:43Z</time>
      </trkpt>
      <trkpt lat="41.711312" lon="1.078238">
        <ele>312.489</ele>
        <time>2021-08-19T10:23:45Z</time>
      </trkpt>
      <trkpt lat="41.711307" lon="1.078144">
        <ele>312.606</ele>
        <time>2021-08-19T10:23:47Z</time>
      </trkpt>
      <trkpt lat="41.711297" lon="1.078051">
        <ele>312.726</ele>
        <time>2021-08-19T10:23:49Z</time>
      </trkpt>
      <trkpt lat="41.711287" lon="1.077962">
        <ele>312.809</ele>
        <time>2021-08-19T10:23:51Z</time>
      </trkpt>
      <trkpt lat="41.711273" lon="1.077877">
        <ele>313.079</ele>
        <time>2021-08-19T10:23:53Z</time>
      </trkpt>
      <trkpt lat="41.711266" lon="1.077812">
        <ele>313.040</ele>
        <time>2021-08-19T10:23:55Z</time>
      </trkpt>
      <trkpt lat="41.711252" lon="1.077711">
        <ele>313.061</ele>
        <time>2021-08-19T10:23:57Z</time>
      </trkpt>
      <trkpt lat="41.711236" lon="1.077629">
        <ele>312.935</ele>
        <time>2021-08-19T10:23:59Z</time>
      </trkpt>
      <trkpt lat="41.711225" lon="1.077561">
        <ele>312.886</ele>
        <time>2021-08-19T10:24:01Z</time>
      </trkpt>
      <trkpt lat="41.711212" lon="1.077484">
        <ele>312.712</ele>
        <time>2021-08-19T10:24:03Z</time>
      </trkpt>
      <trkpt lat="41.711196" lon="1.077413">
        <ele>312.657</ele>
        <time>2021-08-19T10:24:05Z</time>
      </trkpt>
      <trkpt lat="41.711186" lon="1.077349">
        <ele>312.558</ele>
        <time>2021-08-19T10:24:07Z</time>
      </trkpt>
      <trkpt lat="41.711176" lon="1.077265">
        <ele>312.584</ele>
        <time>2021-08-19T10:24:09Z</time>
      </trkpt>
      <trkpt lat="41.711160" lon="1.077188">
        <ele>312.448</ele>
        <time>2021-08-19T10:24:11Z</time>
      </trkpt>
      <trkpt lat="41.711150" lon="1.077115">
        <ele>312.361</ele>
        <time>2021-08-19T10:24:13Z</time>
      </trkpt>
      <trkpt lat="41.711135" lon="1.077043">
        <ele>312.217</ele>
        <time>2021-08-19T10:24:15Z</time>
      </trkpt>
      <trkpt lat="41.711125" lon="1.076980">
        <ele>312.109</ele>
        <time>2021-08-19T10:24:17Z</time>
      </trkpt>
      <trkpt lat="41.711111" lon="1.076913">
        <ele>312.075</ele>
        <time>2021-08-19T10:24:19Z</time>
      </trkpt>
      <trkpt lat="41.711098" lon="1.076839">
        <ele>311.956</ele>
        <time>2021-08-19T10:24:21Z</time>
      </trkpt>
      <trkpt lat="41.711083" lon="1.076767">
        <ele>311.777</ele>
        <time>2021-08-19T10:24:23Z</time>
      </trkpt>
      <trkpt lat="41.711066" lon="1.076698">
        <ele>311.551</ele>
        <time>2021-08-19T10:24:25Z</time>
      </trkpt>
      <trkpt lat="41.711052" lon="1.076627">
        <ele>311.562</ele>
        <time>2021-08-19T10:24:27Z</time>
      </trkpt>
      <trkpt lat="41.711035" lon="1.076556">
        <ele>311.698</ele>
        <time>2021-08-19T10:24:29Z</time>
      </trkpt>
      <trkpt lat="41.711020" lon="1.076485">
        <ele>311.713</ele>
        <time>2021-08-19T10:24:31Z</time>
      </trkpt>
      <trkpt lat="41.710996" lon="1.076425">
        <ele>311.664</ele>
        <time>2021-08-19T10:24:33Z</time>
      </trkpt>
      <trkpt lat="41.710981" lon="1.076354">
        <ele>311.730</ele>
        <time>2021-08-19T10:24:35Z</time>
      </trkpt>
      <trkpt lat="41.710953" lon="1.076264">
        <ele>311.591</ele>
        <time>2021-08-19T10:24:38Z</time>
      </trkpt>
      <trkpt lat="41.710936" lon="1.076201">
        <ele>311.481</ele>
        <time>2021-08-19T10:24:40Z</time>
      </trkpt>
      <trkpt lat="41.710926" lon="1.076141">
        <ele>311.319</ele>
        <time>2021-08-19T10:24:42Z</time>
      </trkpt>
      <trkpt lat="41.710921" lon="1.076075">
        <ele>311.309</ele>
        <time>2021-08-19T10:24:44Z</time>
      </trkpt>
      <trkpt lat="41.710901" lon="1.076017">
        <ele>311.130</ele>
        <time>2021-08-19T10:24:46Z</time>
      </trkpt>
      <trkpt lat="41.710883" lon="1.075951">
        <ele>310.811</ele>
        <time>2021-08-19T10:24:48Z</time>
      </trkpt>
      <trkpt lat="41.710867" lon="1.075892">
        <ele>310.642</ele>
        <time>2021-08-19T10:24:50Z</time>
      </trkpt>
      <trkpt lat="41.710843" lon="1.075833">
        <ele>310.256</ele>
        <time>2021-08-19T10:24:52Z</time>
      </trkpt>
      <trkpt lat="41.710814" lon="1.075762">
        <ele>309.937</ele>
        <time>2021-08-19T10:24:54Z</time>
      </trkpt>
      <trkpt lat="41.710780" lon="1.075691">
        <ele>309.683</ele>
        <time>2021-08-19T10:24:56Z</time>
      </trkpt>
      <trkpt lat="41.710737" lon="1.075632">
        <ele>309.328</ele>
        <time>2021-08-19T10:24:58Z</time>
      </trkpt>
      <trkpt lat="41.710693" lon="1.075563">
        <ele>309.069</ele>
        <time>2021-08-19T10:25:00Z</time>
      </trkpt>
      <trkpt lat="41.710647" lon="1.075502">
        <ele>308.765</ele>
        <time>2021-08-19T10:25:02Z</time>
      </trkpt>
      <trkpt lat="41.710604" lon="1.075449">
        <ele>308.433</ele>
        <time>2021-08-19T10:25:04Z</time>
      </trkpt>
      <trkpt lat="41.710568" lon="1.075402">
        <ele>308.123</ele>
        <time>2021-08-19T10:25:06Z</time>
      </trkpt>
      <trkpt lat="41.710521" lon="1.075359">
        <ele>307.815</ele>
        <time>2021-08-19T10:25:08Z</time>
      </trkpt>
      <trkpt lat="41.710464" lon="1.075320">
        <ele>307.409</ele>
        <time>2021-08-19T10:25:10Z</time>
      </trkpt>
      <trkpt lat="41.710403" lon="1.075282">
        <ele>306.984</ele>
        <time>2021-08-19T10:25:12Z</time>
      </trkpt>
      <trkpt lat="41.710342" lon="1.075251">
        <ele>306.595</ele>
        <time>2021-08-19T10:25:14Z</time>
      </trkpt>
      <trkpt lat="41.710289" lon="1.075207">
        <ele>306.166</ele>
        <time>2021-08-19T10:25:16Z</time>
      </trkpt>
      <trkpt lat="41.710229" lon="1.075180">
        <ele>305.930</ele>
        <time>2021-08-19T10:25:18Z</time>
      </trkpt>
      <trkpt lat="41.710173" lon="1.075150">
        <ele>305.851</ele>
        <time>2021-08-19T10:25:20Z</time>
      </trkpt>
      <trkpt lat="41.710118" lon="1.075128">
        <ele>305.777</ele>
        <time>2021-08-19T10:25:22Z</time>
      </trkpt>
      <trkpt lat="41.710064" lon="1.075112">
        <ele>305.512</ele>
        <time>2021-08-19T10:25:24Z</time>
      </trkpt>
      <trkpt lat="41.710010" lon="1.075111">
        <ele>305.423</ele>
        <time>2021-08-19T10:25:26Z</time>
      </trkpt>
      <trkpt lat="41.709956" lon="1.075126">
        <ele>305.499</ele>
        <time>2021-08-19T10:25:28Z</time>
      </trkpt>
      <trkpt lat="41.709908" lon="1.075136">
        <ele>305.318</ele>
        <time>2021-08-19T10:25:30Z</time>
      </trkpt>
      <trkpt lat="41.709861" lon="1.075144">
        <ele>305.398</ele>
        <time>2021-08-19T10:25:32Z</time>
      </trkpt>
      <trkpt lat="41.709808" lon="1.075152">
        <ele>305.217</ele>
        <time>2021-08-19T10:25:34Z</time>
      </trkpt>
      <trkpt lat="41.709755" lon="1.075145">
        <ele>305.109</ele>
        <time>2021-08-19T10:25:37Z</time>
      </trkpt>
      <trkpt lat="41.709697" lon="1.075128">
        <ele>305.212</ele>
        <time>2021-08-19T10:25:39Z</time>
      </trkpt>
      <trkpt lat="41.709631" lon="1.075119">
        <ele>305.873</ele>
        <time>2021-08-19T10:25:42Z</time>
      </trkpt>
      <trkpt lat="41.709587" lon="1.075103">
        <ele>306.214</ele>
        <time>2021-08-19T10:25:44Z</time>
      </trkpt>
      <trkpt lat="41.709534" lon="1.075083">
        <ele>306.618</ele>
        <time>2021-08-19T10:25:46Z</time>
      </trkpt>
      <trkpt lat="41.709481" lon="1.075030">
        <ele>306.839</ele>
        <time>2021-08-19T10:25:48Z</time>
      </trkpt>
      <trkpt lat="41.709435" lon="1.074968">
        <ele>307.155</ele>
        <time>2021-08-19T10:25:50Z</time>
      </trkpt>
      <trkpt lat="41.709393" lon="1.074913">
        <ele>307.540</ele>
        <time>2021-08-19T10:25:52Z</time>
      </trkpt>
      <trkpt lat="41.709342" lon="1.074858">
        <ele>307.981</ele>
        <time>2021-08-19T10:25:55Z</time>
      </trkpt>
      <trkpt lat="41.709288" lon="1.074805">
        <ele>308.377</ele>
        <time>2021-08-19T10:25:58Z</time>
      </trkpt>
      <trkpt lat="41.709248" lon="1.074761">
        <ele>308.512</ele>
        <time>2021-08-19T10:26:00Z</time>
      </trkpt>
      <trkpt lat="41.709203" lon="1.074698">
        <ele>308.732</ele>
        <time>2021-08-19T10:26:02Z</time>
      </trkpt>
      <trkpt lat="41.709152" lon="1.074632">
        <ele>308.605</ele>
        <time>2021-08-19T10:26:04Z</time>
      </trkpt>
      <trkpt lat="41.709111" lon="1.074554">
        <ele>308.209</ele>
        <time>2021-08-19T10:26:06Z</time>
      </trkpt>
      <trkpt lat="41.709072" lon="1.074485">
        <ele>307.862</ele>
        <time>2021-08-19T10:26:08Z</time>
      </trkpt>
      <trkpt lat="41.709032" lon="1.074414">
        <ele>307.333</ele>
        <time>2021-08-19T10:26:09Z</time>
      </trkpt>
      <trkpt lat="41.708980" lon="1.074322">
        <ele>306.414</ele>
        <time>2021-08-19T10:26:11Z</time>
      </trkpt>
      <trkpt lat="41.708933" lon="1.074229">
        <ele>305.698</ele>
        <time>2021-08-19T10:26:13Z</time>
      </trkpt>
      <trkpt lat="41.708888" lon="1.074141">
        <ele>305.019</ele>
        <time>2021-08-19T10:26:15Z</time>
      </trkpt>
      <trkpt lat="41.708839" lon="1.074063">
        <ele>304.995</ele>
        <time>2021-08-19T10:26:17Z</time>
      </trkpt>
      <trkpt lat="41.708794" lon="1.073985">
        <ele>304.890</ele>
        <time>2021-08-19T10:26:19Z</time>
      </trkpt>
      <trkpt lat="41.708748" lon="1.073908">
        <ele>304.521</ele>
        <time>2021-08-19T10:26:21Z</time>
      </trkpt>
      <trkpt lat="41.708699" lon="1.073841">
        <ele>304.387</ele>
        <time>2021-08-19T10:26:23Z</time>
      </trkpt>
      <trkpt lat="41.708655" lon="1.073770">
        <ele>304.293</ele>
        <time>2021-08-19T10:26:25Z</time>
      </trkpt>
      <trkpt lat="41.708602" lon="1.073704">
        <ele>304.065</ele>
        <time>2021-08-19T10:26:27Z</time>
      </trkpt>
      <trkpt lat="41.708548" lon="1.073653">
        <ele>304.021</ele>
        <time>2021-08-19T10:26:29Z</time>
      </trkpt>
      <trkpt lat="41.708489" lon="1.073617">
        <ele>304.009</ele>
        <time>2021-08-19T10:26:31Z</time>
      </trkpt>
      <trkpt lat="41.708432" lon="1.073582">
        <ele>303.880</ele>
        <time>2021-08-19T10:26:33Z</time>
      </trkpt>
      <trkpt lat="41.708375" lon="1.073562">
        <ele>303.661</ele>
        <time>2021-08-19T10:26:35Z</time>
      </trkpt>
      <trkpt lat="41.708328" lon="1.073540">
        <ele>303.582</ele>
        <time>2021-08-19T10:26:37Z</time>
      </trkpt>
      <trkpt lat="41.708296" lon="1.073490">
        <ele>303.326</ele>
        <time>2021-08-19T10:26:40Z</time>
      </trkpt>
      <trkpt lat="41.708323" lon="1.073429">
        <ele>302.777</ele>
        <time>2021-08-19T10:27:11Z</time>
      </trkpt>
      <trkpt lat="41.708350" lon="1.073371">
        <ele>302.223</ele>
        <time>2021-08-19T10:27:14Z</time>
      </trkpt>
      <trkpt lat="41.708403" lon="1.073331">
        <ele>301.728</ele>
        <time>2021-08-19T10:27:16Z</time>
      </trkpt>
      <trkpt lat="41.708456" lon="1.073277">
        <ele>301.299</ele>
        <time>2021-08-19T10:27:19Z</time>
      </trkpt>
      <trkpt lat="41.708502" lon="1.073248">
        <ele>300.815</ele>
        <time>2021-08-19T10:27:21Z</time>
      </trkpt>
      <trkpt lat="41.708545" lon="1.073219">
        <ele>300.412</ele>
        <time>2021-08-19T10:27:23Z</time>
      </trkpt>
      <trkpt lat="41.708601" lon="1.073186">
        <ele>300.032</ele>
        <time>2021-08-19T10:27:25Z</time>
      </trkpt>
      <trkpt lat="41.708646" lon="1.073160">
        <ele>300.005</ele>
        <time>2021-08-19T10:27:27Z</time>
      </trkpt>
      <trkpt lat="41.708696" lon="1.073126">
        <ele>300.109</ele>
        <time>2021-08-19T10:27:29Z</time>
      </trkpt>
      <trkpt lat="41.708750" lon="1.073099">
        <ele>300.332</ele>
        <time>2021-08-19T10:27:32Z</time>
      </trkpt>
      <trkpt lat="41.708782" lon="1.073037">
        <ele>300.383</ele>
        <time>2021-08-19T10:27:34Z</time>
      </trkpt>
      <trkpt lat="41.708801" lon="1.072970">
        <ele>300.534</ele>
        <time>2021-08-19T10:27:36Z</time>
      </trkpt>
      <trkpt lat="41.708777" lon="1.072891">
        <ele>300.428</ele>
        <time>2021-08-19T10:27:38Z</time>
      </trkpt>
      <trkpt lat="41.708744" lon="1.072823">
        <ele>300.469</ele>
        <time>2021-08-19T10:27:40Z</time>
      </trkpt>
      <trkpt lat="41.708722" lon="1.072752">
        <ele>300.435</ele>
        <time>2021-08-19T10:27:42Z</time>
      </trkpt>
      <trkpt lat="41.708705" lon="1.072657">
        <ele>300.590</ele>
        <time>2021-08-19T10:27:44Z</time>
      </trkpt>
      <trkpt lat="41.708689" lon="1.072558">
        <ele>300.521</ele>
        <time>2021-08-19T10:27:46Z</time>
      </trkpt>
      <trkpt lat="41.708689" lon="1.072446">
        <ele>300.737</ele>
        <time>2021-08-19T10:27:48Z</time>
      </trkpt>
      <trkpt lat="41.708687" lon="1.072356">
        <ele>300.923</ele>
        <time>2021-08-19T10:27:50Z</time>
      </trkpt>
      <trkpt lat="41.708687" lon="1.072291">
        <ele>301.183</ele>
        <time>2021-08-19T10:27:51Z</time>
      </trkpt>
      <trkpt lat="41.708684" lon="1.072223">
        <ele>301.311</ele>
        <time>2021-08-19T10:27:52Z</time>
      </trkpt>
      <trkpt lat="41.708677" lon="1.072127">
        <ele>301.809</ele>
        <time>2021-08-19T10:27:54Z</time>
      </trkpt>
      <trkpt lat="41.708670" lon="1.072057">
        <ele>302.373</ele>
        <time>2021-08-19T10:27:55Z</time>
      </trkpt>
      <trkpt lat="41.708652" lon="1.071979">
        <ele>302.814</ele>
        <time>2021-08-19T10:27:57Z</time>
      </trkpt>
      <trkpt lat="41.708638" lon="1.071902">
        <ele>303.045</ele>
        <time>2021-08-19T10:27:58Z</time>
      </trkpt>
      <trkpt lat="41.708623" lon="1.071798">
        <ele>303.089</ele>
        <time>2021-08-19T10:28:00Z</time>
      </trkpt>
      <trkpt lat="41.708605" lon="1.071713">
        <ele>303.020</ele>
        <time>2021-08-19T10:28:02Z</time>
      </trkpt>
      <trkpt lat="41.708588" lon="1.071655">
        <ele>303.026</ele>
        <time>2021-08-19T10:28:04Z</time>
      </trkpt>
      <trkpt lat="41.708567" lon="1.071584">
        <ele>303.161</ele>
        <time>2021-08-19T10:28:05Z</time>
      </trkpt>
      <trkpt lat="41.708537" lon="1.071500">
        <ele>303.292</ele>
        <time>2021-08-19T10:28:07Z</time>
      </trkpt>
      <trkpt lat="41.708509" lon="1.071406">
        <ele>303.238</ele>
        <time>2021-08-19T10:28:09Z</time>
      </trkpt>
      <trkpt lat="41.708476" lon="1.071326">
        <ele>302.941</ele>
        <time>2021-08-19T10:28:11Z</time>
      </trkpt>
      <trkpt lat="41.708444" lon="1.071267">
        <ele>302.681</ele>
        <time>2021-08-19T10:28:13Z</time>
      </trkpt>
      <trkpt lat="41.708419" lon="1.071208">
        <ele>302.409</ele>
        <time>2021-08-19T10:28:14Z</time>
      </trkpt>
      <trkpt lat="41.708388" lon="1.071110">
        <ele>302.209</ele>
        <time>2021-08-19T10:28:16Z</time>
      </trkpt>
      <trkpt lat="41.708350" lon="1.071004">
        <ele>302.075</ele>
        <time>2021-08-19T10:28:18Z</time>
      </trkpt>
      <trkpt lat="41.708322" lon="1.070953">
        <ele>302.076</ele>
        <time>2021-08-19T10:28:19Z</time>
      </trkpt>
      <trkpt lat="41.708278" lon="1.070857">
        <ele>302.057</ele>
        <time>2021-08-19T10:28:21Z</time>
      </trkpt>
      <trkpt lat="41.708240" lon="1.070763">
        <ele>301.941</ele>
        <time>2021-08-19T10:28:23Z</time>
      </trkpt>
      <trkpt lat="41.708205" lon="1.070679">
        <ele>301.782</ele>
        <time>2021-08-19T10:28:25Z</time>
      </trkpt>
      <trkpt lat="41.708174" lon="1.070596">
        <ele>301.528</ele>
        <time>2021-08-19T10:28:27Z</time>
      </trkpt>
      <trkpt lat="41.708150" lon="1.070505">
        <ele>301.313</ele>
        <time>2021-08-19T10:28:29Z</time>
      </trkpt>
      <trkpt lat="41.708116" lon="1.070411">
        <ele>301.234</ele>
        <time>2021-08-19T10:28:31Z</time>
      </trkpt>
      <trkpt lat="41.708078" lon="1.070324">
        <ele>301.180</ele>
        <time>2021-08-19T10:28:33Z</time>
      </trkpt>
      <trkpt lat="41.708022" lon="1.070242">
        <ele>300.926</ele>
        <time>2021-08-19T10:28:35Z</time>
      </trkpt>
      <trkpt lat="41.707967" lon="1.070177">
        <ele>300.647</ele>
        <time>2021-08-19T10:28:37Z</time>
      </trkpt>
      <trkpt lat="41.707927" lon="1.070139">
        <ele>300.311</ele>
        <time>2021-08-19T10:28:38Z</time>
      </trkpt>
      <trkpt lat="41.707873" lon="1.070076">
        <ele>299.909</ele>
        <time>2021-08-19T10:28:40Z</time>
      </trkpt>
      <trkpt lat="41.707818" lon="1.070013">
        <ele>299.383</ele>
        <time>2021-08-19T10:28:42Z</time>
      </trkpt>
      <trkpt lat="41.707763" lon="1.069952">
        <ele>298.974</ele>
        <time>2021-08-19T10:28:44Z</time>
      </trkpt>
      <trkpt lat="41.707709" lon="1.069873">
        <ele>298.845</ele>
        <time>2021-08-19T10:28:46Z</time>
      </trkpt>
      <trkpt lat="41.707657" lon="1.069808">
        <ele>298.689</ele>
        <time>2021-08-19T10:28:48Z</time>
      </trkpt>
      <trkpt lat="41.707603" lon="1.069754">
        <ele>298.430</ele>
        <time>2021-08-19T10:28:50Z</time>
      </trkpt>
      <trkpt lat="41.707562" lon="1.069701">
        <ele>298.216</ele>
        <time>2021-08-19T10:28:52Z</time>
      </trkpt>
      <trkpt lat="41.707517" lon="1.069630">
        <ele>298.051</ele>
        <time>2021-08-19T10:28:54Z</time>
      </trkpt>
      <trkpt lat="41.707484" lon="1.069554">
        <ele>298.062</ele>
        <time>2021-08-19T10:28:56Z</time>
      </trkpt>
      <trkpt lat="41.707478" lon="1.069463">
        <ele>298.048</ele>
        <time>2021-08-19T10:28:58Z</time>
      </trkpt>
      <trkpt lat="41.707498" lon="1.069406">
        <ele>298.081</ele>
        <time>2021-08-19T10:28:59Z</time>
      </trkpt>
      <trkpt lat="41.707530" lon="1.069315">
        <ele>298.061</ele>
        <time>2021-08-19T10:29:01Z</time>
      </trkpt>
      <trkpt lat="41.707571" lon="1.069217">
        <ele>298.017</ele>
        <time>2021-08-19T10:29:03Z</time>
      </trkpt>
      <trkpt lat="41.707625" lon="1.069142">
        <ele>298.009</ele>
        <time>2021-08-19T10:29:05Z</time>
      </trkpt>
      <trkpt lat="41.707682" lon="1.069073">
        <ele>297.829</ele>
        <time>2021-08-19T10:29:07Z</time>
      </trkpt>
      <trkpt lat="41.707720" lon="1.069011">
        <ele>297.630</ele>
        <time>2021-08-19T10:29:09Z</time>
      </trkpt>
      <trkpt lat="41.707754" lon="1.068962">
        <ele>297.311</ele>
        <time>2021-08-19T10:29:10Z</time>
      </trkpt>
      <trkpt lat="41.707805" lon="1.068892">
        <ele>297.145</ele>
        <time>2021-08-19T10:29:11Z</time>
      </trkpt>
      <trkpt lat="41.707838" lon="1.068842">
        <ele>297.226</ele>
        <time>2021-08-19T10:29:12Z</time>
      </trkpt>
      <trkpt lat="41.707871" lon="1.068791">
        <ele>297.372</ele>
        <time>2021-08-19T10:29:13Z</time>
      </trkpt>
      <trkpt lat="41.707933" lon="1.068690">
        <ele>297.627</ele>
        <time>2021-08-19T10:29:15Z</time>
      </trkpt>
      <trkpt lat="41.707964" lon="1.068643">
        <ele>297.788</ele>
        <time>2021-08-19T10:29:16Z</time>
      </trkpt>
      <trkpt lat="41.707997" lon="1.068552">
        <ele>297.794</ele>
        <time>2021-08-19T10:29:18Z</time>
      </trkpt>
      <trkpt lat="41.708039" lon="1.068489">
        <ele>297.962</ele>
        <time>2021-08-19T10:29:20Z</time>
      </trkpt>
      <trkpt lat="41.708081" lon="1.068437">
        <ele>298.283</ele>
        <time>2021-08-19T10:29:21Z</time>
      </trkpt>
      <trkpt lat="41.708132" lon="1.068363">
        <ele>298.611</ele>
        <time>2021-08-19T10:29:23Z</time>
      </trkpt>
      <trkpt lat="41.708179" lon="1.068293">
        <ele>298.509</ele>
        <time>2021-08-19T10:29:25Z</time>
      </trkpt>
      <trkpt lat="41.708210" lon="1.068219">
        <ele>298.147</ele>
        <time>2021-08-19T10:29:27Z</time>
      </trkpt>
      <trkpt lat="41.708200" lon="1.068151">
        <ele>297.488</ele>
        <time>2021-08-19T10:29:29Z</time>
      </trkpt>
      <trkpt lat="41.708173" lon="1.068089">
        <ele>296.769</ele>
        <time>2021-08-19T10:29:31Z</time>
      </trkpt>
      <trkpt lat="41.708144" lon="1.068042">
        <ele>296.293</ele>
        <time>2021-08-19T10:29:32Z</time>
      </trkpt>
      <trkpt lat="41.708093" lon="1.068001">
        <ele>295.634</ele>
        <time>2021-08-19T10:29:34Z</time>
      </trkpt>
      <trkpt lat="41.708057" lon="1.067955">
        <ele>294.910</ele>
        <time>2021-08-19T10:29:35Z</time>
      </trkpt>
      <trkpt lat="41.708015" lon="1.067896">
        <ele>294.335</ele>
        <time>2021-08-19T10:29:36Z</time>
      </trkpt>
      <trkpt lat="41.707947" lon="1.067814">
        <ele>293.796</ele>
        <time>2021-08-19T10:29:38Z</time>
      </trkpt>
      <trkpt lat="41.707888" lon="1.067748">
        <ele>293.512</ele>
        <time>2021-08-19T10:29:40Z</time>
      </trkpt>
      <trkpt lat="41.707846" lon="1.067711">
        <ele>293.623</ele>
        <time>2021-08-19T10:29:41Z</time>
      </trkpt>
      <trkpt lat="41.707801" lon="1.067651">
        <ele>293.583</ele>
        <time>2021-08-19T10:29:43Z</time>
      </trkpt>
      <trkpt lat="41.707761" lon="1.067616">
        <ele>293.511</ele>
        <time>2021-08-19T10:29:44Z</time>
      </trkpt>
      <trkpt lat="41.707703" lon="1.067555">
        <ele>293.709</ele>
        <time>2021-08-19T10:29:46Z</time>
      </trkpt>
      <trkpt lat="41.707646" lon="1.067488">
        <ele>293.983</ele>
        <time>2021-08-19T10:29:48Z</time>
      </trkpt>
      <trkpt lat="41.707592" lon="1.067423">
        <ele>294.284</ele>
        <time>2021-08-19T10:29:50Z</time>
      </trkpt>
      <trkpt lat="41.707542" lon="1.067359">
        <ele>294.375</ele>
        <time>2021-08-19T10:29:52Z</time>
      </trkpt>
      <trkpt lat="41.707491" lon="1.067303">
        <ele>294.349</ele>
        <time>2021-08-19T10:29:54Z</time>
      </trkpt>
      <trkpt lat="41.707446" lon="1.067234">
        <ele>294.260</ele>
        <time>2021-08-19T10:29:56Z</time>
      </trkpt>
      <trkpt lat="41.707394" lon="1.067169">
        <ele>294.476</ele>
        <time>2021-08-19T10:29:58Z</time>
      </trkpt>
      <trkpt lat="41.707345" lon="1.067115">
        <ele>294.631</ele>
        <time>2021-08-19T10:30:00Z</time>
      </trkpt>
      <trkpt lat="41.707296" lon="1.067065">
        <ele>294.782</ele>
        <time>2021-08-19T10:30:02Z</time>
      </trkpt>
      <trkpt lat="41.707248" lon="1.067010">
        <ele>294.928</ele>
        <time>2021-08-19T10:30:04Z</time>
      </trkpt>
      <trkpt lat="41.707203" lon="1.066956">
        <ele>294.981</ele>
        <time>2021-08-19T10:30:06Z</time>
      </trkpt>
      <trkpt lat="41.707143" lon="1.066891">
        <ele>294.361</ele>
        <time>2021-08-19T10:30:08Z</time>
      </trkpt>
      <trkpt lat="41.707081" lon="1.066815">
        <ele>293.817</ele>
        <time>2021-08-19T10:30:10Z</time>
      </trkpt>
      <trkpt lat="41.707022" lon="1.066738">
        <ele>293.409</ele>
        <time>2021-08-19T10:30:12Z</time>
      </trkpt>
      <trkpt lat="41.706966" lon="1.066667">
        <ele>293.129</ele>
        <time>2021-08-19T10:30:14Z</time>
      </trkpt>
      <trkpt lat="41.706930" lon="1.066626">
        <ele>293.030</ele>
        <time>2021-08-19T10:30:15Z</time>
      </trkpt>
      <trkpt lat="41.706878" lon="1.066558">
        <ele>292.951</ele>
        <time>2021-08-19T10:30:17Z</time>
      </trkpt>
      <trkpt lat="41.706841" lon="1.066519">
        <ele>292.895</ele>
        <time>2021-08-19T10:30:18Z</time>
      </trkpt>
      <trkpt lat="41.706778" lon="1.066452">
        <ele>292.936</ele>
        <time>2021-08-19T10:30:20Z</time>
      </trkpt>
      <trkpt lat="41.706713" lon="1.066378">
        <ele>293.032</ele>
        <time>2021-08-19T10:30:22Z</time>
      </trkpt>
      <trkpt lat="41.706655" lon="1.066318">
        <ele>293.077</ele>
        <time>2021-08-19T10:30:24Z</time>
      </trkpt>
      <trkpt lat="41.706612" lon="1.066275">
        <ele>293.138</ele>
        <time>2021-08-19T10:30:25Z</time>
      </trkpt>
      <trkpt lat="41.706550" lon="1.066198">
        <ele>293.364</ele>
        <time>2021-08-19T10:30:27Z</time>
      </trkpt>
      <trkpt lat="41.706505" lon="1.066128">
        <ele>293.551</ele>
        <time>2021-08-19T10:30:29Z</time>
      </trkpt>
      <trkpt lat="41.706472" lon="1.066063">
        <ele>293.801</ele>
        <time>2021-08-19T10:30:30Z</time>
      </trkpt>
      <trkpt lat="41.706440" lon="1.065976">
        <ele>293.911</ele>
        <time>2021-08-19T10:30:32Z</time>
      </trkpt>
      <trkpt lat="41.706423" lon="1.065912">
        <ele>294.009</ele>
        <time>2021-08-19T10:30:33Z</time>
      </trkpt>
      <trkpt lat="41.706392" lon="1.065804">
        <ele>294.156</ele>
        <time>2021-08-19T10:30:35Z</time>
      </trkpt>
      <trkpt lat="41.706363" lon="1.065711">
        <ele>294.577</ele>
        <time>2021-08-19T10:30:37Z</time>
      </trkpt>
      <trkpt lat="41.706347" lon="1.065641">
        <ele>294.718</ele>
        <time>2021-08-19T10:30:38Z</time>
      </trkpt>
      <trkpt lat="41.706312" lon="1.065534">
        <ele>295.092</ele>
        <time>2021-08-19T10:30:40Z</time>
      </trkpt>
      <trkpt lat="41.706292" lon="1.065454">
        <ele>295.153</ele>
        <time>2021-08-19T10:30:42Z</time>
      </trkpt>
      <trkpt lat="41.706276" lon="1.065385">
        <ele>295.259</ele>
        <time>2021-08-19T10:30:43Z</time>
      </trkpt>
      <trkpt lat="41.706243" lon="1.065283">
        <ele>295.514</ele>
        <time>2021-08-19T10:30:45Z</time>
      </trkpt>
      <trkpt lat="41.706223" lon="1.065198">
        <ele>295.485</ele>
        <time>2021-08-19T10:30:47Z</time>
      </trkpt>
      <trkpt lat="41.706210" lon="1.065139">
        <ele>295.381</ele>
        <time>2021-08-19T10:30:48Z</time>
      </trkpt>
      <trkpt lat="41.706175" lon="1.065042">
        <ele>295.146</ele>
        <time>2021-08-19T10:30:50Z</time>
      </trkpt>
      <trkpt lat="41.706162" lon="1.064983">
        <ele>295.088</ele>
        <time>2021-08-19T10:30:51Z</time>
      </trkpt>
      <trkpt lat="41.706146" lon="1.064887">
        <ele>295.016</ele>
        <time>2021-08-19T10:30:53Z</time>
      </trkpt>
      <trkpt lat="41.706120" lon="1.064795">
        <ele>295.009</ele>
        <time>2021-08-19T10:30:55Z</time>
      </trkpt>
      <trkpt lat="41.706102" lon="1.064731">
        <ele>295.045</ele>
        <time>2021-08-19T10:30:56Z</time>
      </trkpt>
      <trkpt lat="41.706075" lon="1.064653">
        <ele>294.656</ele>
        <time>2021-08-19T10:30:58Z</time>
      </trkpt>
      <trkpt lat="41.706052" lon="1.064585">
        <ele>294.337</ele>
        <time>2021-08-19T10:30:59Z</time>
      </trkpt>
      <trkpt lat="41.706026" lon="1.064479">
        <ele>293.821</ele>
        <time>2021-08-19T10:31:01Z</time>
      </trkpt>
      <trkpt lat="41.705998" lon="1.064377">
        <ele>293.452</ele>
        <time>2021-08-19T10:31:03Z</time>
      </trkpt>
      <trkpt lat="41.705967" lon="1.064281">
        <ele>293.248</ele>
        <time>2021-08-19T10:31:05Z</time>
      </trkpt>
      <trkpt lat="41.705931" lon="1.064187">
        <ele>293.093</ele>
        <time>2021-08-19T10:31:07Z</time>
      </trkpt>
      <trkpt lat="41.705898" lon="1.064102">
        <ele>293.044</ele>
        <time>2021-08-19T10:31:09Z</time>
      </trkpt>
      <trkpt lat="41.705873" lon="1.064047">
        <ele>293.060</ele>
        <time>2021-08-19T10:31:10Z</time>
      </trkpt>
      <trkpt lat="41.705845" lon="1.063994">
        <ele>293.096</ele>
        <time>2021-08-19T10:31:11Z</time>
      </trkpt>
      <trkpt lat="41.705809" lon="1.063922">
        <ele>293.131</ele>
        <time>2021-08-19T10:31:13Z</time>
      </trkpt>
      <trkpt lat="41.705766" lon="1.063841">
        <ele>293.224</ele>
        <time>2021-08-19T10:31:15Z</time>
      </trkpt>
      <trkpt lat="41.705716" lon="1.063764">
        <ele>293.209</ele>
        <time>2021-08-19T10:31:17Z</time>
      </trkpt>
      <trkpt lat="41.705670" lon="1.063680">
        <ele>293.170</ele>
        <time>2021-08-19T10:31:19Z</time>
      </trkpt>
      <trkpt lat="41.705626" lon="1.063596">
        <ele>293.061</ele>
        <time>2021-08-19T10:31:21Z</time>
      </trkpt>
      <trkpt lat="41.705589" lon="1.063538">
        <ele>292.912</ele>
        <time>2021-08-19T10:31:23Z</time>
      </trkpt>
      <trkpt lat="41.705555" lon="1.063469">
        <ele>293.036</ele>
        <time>2021-08-19T10:31:24Z</time>
      </trkpt>
      <trkpt lat="41.705509" lon="1.063376">
        <ele>293.287</ele>
        <time>2021-08-19T10:31:26Z</time>
      </trkpt>
      <trkpt lat="41.705473" lon="1.063305">
        <ele>293.213</ele>
        <time>2021-08-19T10:31:28Z</time>
      </trkpt>
      <trkpt lat="41.705447" lon="1.063251">
        <ele>293.258</ele>
        <time>2021-08-19T10:31:29Z</time>
      </trkpt>
      <trkpt lat="41.705412" lon="1.063172">
        <ele>293.239</ele>
        <time>2021-08-19T10:31:31Z</time>
      </trkpt>
      <trkpt lat="41.705380" lon="1.063114">
        <ele>293.325</ele>
        <time>2021-08-19T10:31:32Z</time>
      </trkpt>
      <trkpt lat="41.705349" lon="1.063056">
        <ele>293.522</ele>
        <time>2021-08-19T10:31:34Z</time>
      </trkpt>
      <trkpt lat="41.705325" lon="1.062998">
        <ele>293.662</ele>
        <time>2021-08-19T10:31:35Z</time>
      </trkpt>
      <trkpt lat="41.705283" lon="1.062911">
        <ele>294.008</ele>
        <time>2021-08-19T10:31:37Z</time>
      </trkpt>
      <trkpt lat="41.705249" lon="1.062834">
        <ele>294.109</ele>
        <time>2021-08-19T10:31:39Z</time>
      </trkpt>
      <trkpt lat="41.705208" lon="1.062753">
        <ele>294.153</ele>
        <time>2021-08-19T10:31:41Z</time>
      </trkpt>
      <trkpt lat="41.705179" lon="1.062702">
        <ele>293.874</ele>
        <time>2021-08-19T10:31:43Z</time>
      </trkpt>
      <trkpt lat="41.705154" lon="1.062637">
        <ele>293.475</ele>
        <time>2021-08-19T10:31:44Z</time>
      </trkpt>
      <trkpt lat="41.705126" lon="1.062550">
        <ele>292.949</ele>
        <time>2021-08-19T10:31:46Z</time>
      </trkpt>
      <trkpt lat="41.705098" lon="1.062472">
        <ele>292.660</ele>
        <time>2021-08-19T10:31:48Z</time>
      </trkpt>
      <trkpt lat="41.705075" lon="1.062400">
        <ele>292.516</ele>
        <time>2021-08-19T10:31:49Z</time>
      </trkpt>
      <trkpt lat="41.705049" lon="1.062302">
        <ele>292.271</ele>
        <time>2021-08-19T10:31:51Z</time>
      </trkpt>
      <trkpt lat="41.705026" lon="1.062202">
        <ele>292.042</ele>
        <time>2021-08-19T10:31:53Z</time>
      </trkpt>
      <trkpt lat="41.705016" lon="1.062126">
        <ele>292.068</ele>
        <time>2021-08-19T10:31:55Z</time>
      </trkpt>
      <trkpt lat="41.704989" lon="1.062032">
        <ele>292.075</ele>
        <time>2021-08-19T10:31:57Z</time>
      </trkpt>
      <trkpt lat="41.704974" lon="1.061942">
        <ele>292.128</ele>
        <time>2021-08-19T10:31:59Z</time>
      </trkpt>
      <trkpt lat="41.704953" lon="1.061848">
        <ele>291.820</ele>
        <time>2021-08-19T10:32:01Z</time>
      </trkpt>
      <trkpt lat="41.704915" lon="1.061764">
        <ele>291.709</ele>
        <time>2021-08-19T10:32:03Z</time>
      </trkpt>
      <trkpt lat="41.704893" lon="1.061687">
        <ele>291.598</ele>
        <time>2021-08-19T10:32:05Z</time>
      </trkpt>
      <trkpt lat="41.704866" lon="1.061609">
        <ele>291.279</ele>
        <time>2021-08-19T10:32:07Z</time>
      </trkpt>
      <trkpt lat="41.704841" lon="1.061529">
        <ele>290.840</ele>
        <time>2021-08-19T10:32:09Z</time>
      </trkpt>
      <trkpt lat="41.704823" lon="1.061438">
        <ele>290.334</ele>
        <time>2021-08-19T10:32:11Z</time>
      </trkpt>
      <trkpt lat="41.704799" lon="1.061344">
        <ele>289.985</ele>
        <time>2021-08-19T10:32:13Z</time>
      </trkpt>
      <trkpt lat="41.704756" lon="1.061255">
        <ele>289.621</ele>
        <time>2021-08-19T10:32:15Z</time>
      </trkpt>
      <trkpt lat="41.704728" lon="1.061148">
        <ele>289.266</ele>
        <time>2021-08-19T10:32:17Z</time>
      </trkpt>
      <trkpt lat="41.704703" lon="1.061043">
        <ele>289.057</ele>
        <time>2021-08-19T10:32:19Z</time>
      </trkpt>
      <trkpt lat="41.704681" lon="1.060952">
        <ele>289.033</ele>
        <time>2021-08-19T10:32:21Z</time>
      </trkpt>
      <trkpt lat="41.704653" lon="1.060865">
        <ele>289.052</ele>
        <time>2021-08-19T10:32:23Z</time>
      </trkpt>
      <trkpt lat="41.704621" lon="1.060777">
        <ele>289.353</ele>
        <time>2021-08-19T10:32:25Z</time>
      </trkpt>
      <trkpt lat="41.704603" lon="1.060690">
        <ele>289.808</ele>
        <time>2021-08-19T10:32:27Z</time>
      </trkpt>
      <trkpt lat="41.704580" lon="1.060603">
        <ele>290.209</ele>
        <time>2021-08-19T10:32:29Z</time>
      </trkpt>
      <trkpt lat="41.704546" lon="1.060516">
        <ele>290.546</ele>
        <time>2021-08-19T10:32:31Z</time>
      </trkpt>
      <trkpt lat="41.704517" lon="1.060419">
        <ele>290.887</ele>
        <time>2021-08-19T10:32:33Z</time>
      </trkpt>
      <trkpt lat="41.704488" lon="1.060317">
        <ele>291.038</ele>
        <time>2021-08-19T10:32:35Z</time>
      </trkpt>
      <trkpt lat="41.704464" lon="1.060220">
        <ele>291.362</ele>
        <time>2021-08-19T10:32:37Z</time>
      </trkpt>
      <trkpt lat="41.704433" lon="1.060133">
        <ele>291.633</ele>
        <time>2021-08-19T10:32:39Z</time>
      </trkpt>
      <trkpt lat="41.704407" lon="1.060055">
        <ele>291.949</ele>
        <time>2021-08-19T10:32:41Z</time>
      </trkpt>
      <trkpt lat="41.704378" lon="1.059969">
        <ele>292.574</ele>
        <time>2021-08-19T10:32:43Z</time>
      </trkpt>
      <trkpt lat="41.704353" lon="1.059874">
        <ele>293.225</ele>
        <time>2021-08-19T10:32:45Z</time>
      </trkpt>
      <trkpt lat="41.704324" lon="1.059792">
        <ele>293.911</ele>
        <time>2021-08-19T10:32:47Z</time>
      </trkpt>
      <trkpt lat="41.704293" lon="1.059710">
        <ele>294.623</ele>
        <time>2021-08-19T10:32:49Z</time>
      </trkpt>
      <trkpt lat="41.704272" lon="1.059642">
        <ele>294.883</ele>
        <time>2021-08-19T10:32:51Z</time>
      </trkpt>
      <trkpt lat="41.704230" lon="1.059580">
        <ele>295.211</ele>
        <time>2021-08-19T10:32:53Z</time>
      </trkpt>
      <trkpt lat="41.704200" lon="1.059514">
        <ele>295.509</ele>
        <time>2021-08-19T10:32:55Z</time>
      </trkpt>
      <trkpt lat="41.704165" lon="1.059442">
        <ele>296.053</ele>
        <time>2021-08-19T10:32:57Z</time>
      </trkpt>
      <trkpt lat="41.704124" lon="1.059370">
        <ele>296.214</ele>
        <time>2021-08-19T10:32:59Z</time>
      </trkpt>
      <trkpt lat="41.704084" lon="1.059290">
        <ele>296.585</ele>
        <time>2021-08-19T10:33:01Z</time>
      </trkpt>
      <trkpt lat="41.704057" lon="1.059208">
        <ele>296.759</ele>
        <time>2021-08-19T10:33:03Z</time>
      </trkpt>
      <trkpt lat="41.704022" lon="1.059126">
        <ele>297.070</ele>
        <time>2021-08-19T10:33:05Z</time>
      </trkpt>
      <trkpt lat="41.703984" lon="1.059044">
        <ele>297.276</ele>
        <time>2021-08-19T10:33:07Z</time>
      </trkpt>
      <trkpt lat="41.703951" lon="1.058959">
        <ele>297.481</ele>
        <time>2021-08-19T10:33:09Z</time>
      </trkpt>
      <trkpt lat="41.703919" lon="1.058879">
        <ele>297.752</ele>
        <time>2021-08-19T10:33:11Z</time>
      </trkpt>
      <trkpt lat="41.703891" lon="1.058796">
        <ele>298.098</ele>
        <time>2021-08-19T10:33:13Z</time>
      </trkpt>
      <trkpt lat="41.703867" lon="1.058708">
        <ele>298.266</ele>
        <time>2021-08-19T10:33:15Z</time>
      </trkpt>
      <trkpt lat="41.703837" lon="1.058620">
        <ele>298.429</ele>
        <time>2021-08-19T10:33:17Z</time>
      </trkpt>
      <trkpt lat="41.703805" lon="1.058540">
        <ele>298.321</ele>
        <time>2021-08-19T10:33:19Z</time>
      </trkpt>
      <trkpt lat="41.703770" lon="1.058463">
        <ele>298.309</ele>
        <time>2021-08-19T10:33:21Z</time>
      </trkpt>
      <trkpt lat="41.703736" lon="1.058363">
        <ele>298.277</ele>
        <time>2021-08-19T10:33:23Z</time>
      </trkpt>
      <trkpt lat="41.703702" lon="1.058273">
        <ele>297.968</ele>
        <time>2021-08-19T10:33:25Z</time>
      </trkpt>
      <trkpt lat="41.703667" lon="1.058182">
        <ele>297.559</ele>
        <time>2021-08-19T10:33:27Z</time>
      </trkpt>
      <trkpt lat="41.703626" lon="1.058094">
        <ele>297.233</ele>
        <time>2021-08-19T10:33:29Z</time>
      </trkpt>
      <trkpt lat="41.703593" lon="1.058009">
        <ele>296.734</ele>
        <time>2021-08-19T10:33:31Z</time>
      </trkpt>
      <trkpt lat="41.703557" lon="1.057925">
        <ele>296.130</ele>
        <time>2021-08-19T10:33:33Z</time>
      </trkpt>
      <trkpt lat="41.703527" lon="1.057841">
        <ele>295.685</ele>
        <time>2021-08-19T10:33:35Z</time>
      </trkpt>
      <trkpt lat="41.703497" lon="1.057757">
        <ele>295.286</ele>
        <time>2021-08-19T10:33:37Z</time>
      </trkpt>
      <trkpt lat="41.703462" lon="1.057672">
        <ele>294.972</ele>
        <time>2021-08-19T10:33:39Z</time>
      </trkpt>
      <trkpt lat="41.703430" lon="1.057582">
        <ele>294.742</ele>
        <time>2021-08-19T10:33:41Z</time>
      </trkpt>
      <trkpt lat="41.703402" lon="1.057497">
        <ele>294.522</ele>
        <time>2021-08-19T10:33:43Z</time>
      </trkpt>
      <trkpt lat="41.703382" lon="1.057433">
        <ele>294.414</ele>
        <time>2021-08-19T10:33:45Z</time>
      </trkpt>
      <trkpt lat="41.703361" lon="1.057367">
        <ele>294.209</ele>
        <time>2021-08-19T10:33:46Z</time>
      </trkpt>
      <trkpt lat="41.703321" lon="1.057280">
        <ele>294.035</ele>
        <time>2021-08-19T10:33:48Z</time>
      </trkpt>
      <trkpt lat="41.703281" lon="1.057197">
        <ele>293.996</ele>
        <time>2021-08-19T10:33:50Z</time>
      </trkpt>
      <trkpt lat="41.703249" lon="1.057104">
        <ele>294.197</ele>
        <time>2021-08-19T10:33:52Z</time>
      </trkpt>
      <trkpt lat="41.703215" lon="1.057029">
        <ele>294.381</ele>
        <time>2021-08-19T10:33:54Z</time>
      </trkpt>
      <trkpt lat="41.703195" lon="1.056964">
        <ele>294.492</ele>
        <time>2021-08-19T10:33:56Z</time>
      </trkpt>
      <trkpt lat="41.703169" lon="1.056900">
        <ele>294.518</ele>
        <time>2021-08-19T10:33:57Z</time>
      </trkpt>
      <trkpt lat="41.703145" lon="1.056825">
        <ele>294.663</ele>
        <time>2021-08-19T10:33:59Z</time>
      </trkpt>
      <trkpt lat="41.703113" lon="1.056754">
        <ele>294.834</ele>
        <time>2021-08-19T10:34:01Z</time>
      </trkpt>
      <trkpt lat="41.703092" lon="1.056678">
        <ele>295.090</ele>
        <time>2021-08-19T10:34:03Z</time>
      </trkpt>
      <trkpt lat="41.703048" lon="1.056599">
        <ele>295.262</ele>
        <time>2021-08-19T10:34:05Z</time>
      </trkpt>
      <trkpt lat="41.703030" lon="1.056501">
        <ele>295.583</ele>
        <time>2021-08-19T10:34:07Z</time>
      </trkpt>
      <trkpt lat="41.703007" lon="1.056404">
        <ele>295.811</ele>
        <time>2021-08-19T10:34:09Z</time>
      </trkpt>
      <trkpt lat="41.702975" lon="1.056322">
        <ele>296.009</ele>
        <time>2021-08-19T10:34:11Z</time>
      </trkpt>
      <trkpt lat="41.702961" lon="1.056248">
        <ele>296.287</ele>
        <time>2021-08-19T10:34:13Z</time>
      </trkpt>
      <trkpt lat="41.702944" lon="1.056192">
        <ele>296.398</ele>
        <time>2021-08-19T10:34:15Z</time>
      </trkpt>
      <trkpt lat="41.702908" lon="1.056121">
        <ele>296.489</ele>
        <time>2021-08-19T10:34:18Z</time>
      </trkpt>
      <trkpt lat="41.702865" lon="1.056087">
        <ele>296.333</ele>
        <time>2021-08-19T10:40:23Z</time>
      </trkpt>
      <trkpt lat="41.702876" lon="1.056019">
        <ele>296.474</ele>
        <time>2021-08-19T10:40:27Z</time>
      </trkpt>
      <trkpt lat="41.702894" lon="1.055938">
        <ele>296.430</ele>
        <time>2021-08-19T10:40:33Z</time>
      </trkpt>
      <trkpt lat="41.702922" lon="1.055883">
        <ele>296.515</ele>
        <time>2021-08-19T10:40:35Z</time>
      </trkpt>
      <trkpt lat="41.702951" lon="1.055830">
        <ele>296.676</ele>
        <time>2021-08-19T10:40:37Z</time>
      </trkpt>
      <trkpt lat="41.702983" lon="1.055773">
        <ele>296.932</ele>
        <time>2021-08-19T10:40:39Z</time>
      </trkpt>
      <trkpt lat="41.703006" lon="1.055719">
        <ele>297.037</ele>
        <time>2021-08-19T10:40:42Z</time>
      </trkpt>
      <trkpt lat="41.703003" lon="1.055634">
        <ele>297.149</ele>
        <time>2021-08-19T10:40:46Z</time>
      </trkpt>
      <trkpt lat="41.702976" lon="1.055585">
        <ele>297.213</ele>
        <time>2021-08-19T10:40:48Z</time>
      </trkpt>
      <trkpt lat="41.702925" lon="1.055558">
        <ele>297.509</ele>
        <time>2021-08-19T10:40:50Z</time>
      </trkpt>
      <trkpt lat="41.702870" lon="1.055533">
        <ele>297.664</ele>
        <time>2021-08-19T10:40:52Z</time>
      </trkpt>
      <trkpt lat="41.702808" lon="1.055496">
        <ele>297.755</ele>
        <time>2021-08-19T10:40:54Z</time>
      </trkpt>
      <trkpt lat="41.702760" lon="1.055457">
        <ele>297.666</ele>
        <time>2021-08-19T10:40:56Z</time>
      </trkpt>
      <trkpt lat="41.702716" lon="1.055405">
        <ele>297.510</ele>
        <time>2021-08-19T10:40:58Z</time>
      </trkpt>
      <trkpt lat="41.702659" lon="1.055344">
        <ele>297.581</ele>
        <time>2021-08-19T10:41:00Z</time>
      </trkpt>
      <trkpt lat="41.702610" lon="1.055296">
        <ele>297.617</ele>
        <time>2021-08-19T10:41:02Z</time>
      </trkpt>
      <trkpt lat="41.702566" lon="1.055238">
        <ele>297.732</ele>
        <time>2021-08-19T10:41:04Z</time>
      </trkpt>
      <trkpt lat="41.702528" lon="1.055175">
        <ele>297.833</ele>
        <time>2021-08-19T10:41:06Z</time>
      </trkpt>
      <trkpt lat="41.702484" lon="1.055120">
        <ele>298.189</ele>
        <time>2021-08-19T10:41:08Z</time>
      </trkpt>
      <trkpt lat="41.702449" lon="1.055078">
        <ele>298.418</ele>
        <time>2021-08-19T10:41:10Z</time>
      </trkpt>
      <trkpt lat="41.702412" lon="1.055021">
        <ele>298.998</ele>
        <time>2021-08-19T10:41:12Z</time>
      </trkpt>
      <trkpt lat="41.702361" lon="1.054958">
        <ele>299.417</ele>
        <time>2021-08-19T10:41:14Z</time>
      </trkpt>
      <trkpt lat="41.702319" lon="1.054913">
        <ele>299.709</ele>
        <time>2021-08-19T10:41:16Z</time>
      </trkpt>
      <trkpt lat="41.702275" lon="1.054879">
        <ele>300.312</ele>
        <time>2021-08-19T10:41:18Z</time>
      </trkpt>
      <trkpt lat="41.702226" lon="1.054852">
        <ele>300.973</ele>
        <time>2021-08-19T10:41:21Z</time>
      </trkpt>
      <trkpt lat="41.702176" lon="1.054867">
        <ele>301.294</ele>
        <time>2021-08-19T10:41:24Z</time>
      </trkpt>
      <trkpt lat="41.702153" lon="1.054921">
        <ele>301.358</ele>
        <time>2021-08-19T10:41:27Z</time>
      </trkpt>
      <trkpt lat="41.702127" lon="1.054971">
        <ele>301.469</ele>
        <time>2021-08-19T10:41:29Z</time>
      </trkpt>
      <trkpt lat="41.702088" lon="1.055045">
        <ele>301.125</ele>
        <time>2021-08-19T10:41:32Z</time>
      </trkpt>
      <trkpt lat="41.702068" lon="1.055104">
        <ele>300.650</ele>
        <time>2021-08-19T10:41:34Z</time>
      </trkpt>
      <trkpt lat="41.702035" lon="1.055155">
        <ele>300.211</ele>
        <time>2021-08-19T10:41:36Z</time>
      </trkpt>
      <trkpt lat="41.702003" lon="1.055210">
        <ele>299.787</ele>
        <time>2021-08-19T10:41:38Z</time>
      </trkpt>
      <trkpt lat="41.701959" lon="1.055275">
        <ele>299.065</ele>
        <time>2021-08-19T10:41:41Z</time>
      </trkpt>
      <trkpt lat="41.701947" lon="1.055338">
        <ele>298.668</ele>
        <time>2021-08-19T10:41:43Z</time>
      </trkpt>
      <trkpt lat="41.701926" lon="1.055396">
        <ele>298.314</ele>
        <time>2021-08-19T10:41:45Z</time>
      </trkpt>
      <trkpt lat="41.701906" lon="1.055457">
        <ele>298.109</ele>
        <time>2021-08-19T10:41:47Z</time>
      </trkpt>
      <trkpt lat="41.701893" lon="1.055532">
        <ele>297.777</ele>
        <time>2021-08-19T10:41:49Z</time>
      </trkpt>
      <trkpt lat="41.701846" lon="1.055589">
        <ele>297.738</ele>
        <time>2021-08-19T10:41:51Z</time>
      </trkpt>
      <trkpt lat="41.701803" lon="1.055648">
        <ele>297.539</ele>
        <time>2021-08-19T10:41:53Z</time>
      </trkpt>
      <trkpt lat="41.701773" lon="1.055712">
        <ele>297.283</ele>
        <time>2021-08-19T10:41:55Z</time>
      </trkpt>
      <trkpt lat="41.701734" lon="1.055770">
        <ele>297.094</ele>
        <time>2021-08-19T10:41:57Z</time>
      </trkpt>
      <trkpt lat="41.701684" lon="1.055818">
        <ele>297.060</ele>
        <time>2021-08-19T10:41:59Z</time>
      </trkpt>
      <trkpt lat="41.701641" lon="1.055862">
        <ele>297.185</ele>
        <time>2021-08-19T10:42:01Z</time>
      </trkpt>
      <trkpt lat="41.701586" lon="1.055927">
        <ele>297.256</ele>
        <time>2021-08-19T10:42:03Z</time>
      </trkpt>
      <trkpt lat="41.701535" lon="1.055969">
        <ele>297.462</ele>
        <time>2021-08-19T10:42:05Z</time>
      </trkpt>
      <trkpt lat="41.701487" lon="1.056012">
        <ele>297.752</ele>
        <time>2021-08-19T10:42:07Z</time>
      </trkpt>
      <trkpt lat="41.701437" lon="1.056034">
        <ele>298.053</ele>
        <time>2021-08-19T10:42:09Z</time>
      </trkpt>
      <trkpt lat="41.701385" lon="1.056069">
        <ele>298.308</ele>
        <time>2021-08-19T10:42:11Z</time>
      </trkpt>
      <trkpt lat="41.701333" lon="1.056086">
        <ele>298.409</ele>
        <time>2021-08-19T10:42:13Z</time>
      </trkpt>
      <trkpt lat="41.701274" lon="1.056104">
        <ele>298.516</ele>
        <time>2021-08-19T10:42:15Z</time>
      </trkpt>
      <trkpt lat="41.701219" lon="1.056123">
        <ele>298.517</ele>
        <time>2021-08-19T10:42:17Z</time>
      </trkpt>
      <trkpt lat="41.701169" lon="1.056131">
        <ele>298.688</ele>
        <time>2021-08-19T10:42:19Z</time>
      </trkpt>
      <trkpt lat="41.701122" lon="1.056129">
        <ele>298.872</ele>
        <time>2021-08-19T10:42:21Z</time>
      </trkpt>
      <trkpt lat="41.701074" lon="1.056135">
        <ele>298.473</ele>
        <time>2021-08-19T10:42:23Z</time>
      </trkpt>
      <trkpt lat="41.701029" lon="1.056123">
        <ele>298.079</ele>
        <time>2021-08-19T10:42:25Z</time>
      </trkpt>
      <trkpt lat="41.700970" lon="1.056101">
        <ele>297.584</ele>
        <time>2021-08-19T10:42:28Z</time>
      </trkpt>
      <trkpt lat="41.700913" lon="1.056076">
        <ele>297.025</ele>
        <time>2021-08-19T10:42:31Z</time>
      </trkpt>
      <trkpt lat="41.700849" lon="1.056045">
        <ele>296.431</ele>
        <time>2021-08-19T10:42:34Z</time>
      </trkpt>
      <trkpt lat="41.700801" lon="1.056009">
        <ele>296.352</ele>
        <time>2021-08-19T10:42:36Z</time>
      </trkpt>
      <trkpt lat="41.700756" lon="1.055981">
        <ele>296.253</ele>
        <time>2021-08-19T10:42:38Z</time>
      </trkpt>
      <trkpt lat="41.700705" lon="1.055963">
        <ele>296.108</ele>
        <time>2021-08-19T10:42:40Z</time>
      </trkpt>
      <trkpt lat="41.700661" lon="1.055943">
        <ele>296.009</ele>
        <time>2021-08-19T10:42:42Z</time>
      </trkpt>
      <trkpt lat="41.700607" lon="1.055919">
        <ele>295.966</ele>
        <time>2021-08-19T10:42:45Z</time>
      </trkpt>
      <trkpt lat="41.700555" lon="1.055896">
        <ele>295.827</ele>
        <time>2021-08-19T10:42:48Z</time>
      </trkpt>
      <trkpt lat="41.700516" lon="1.055863">
        <ele>295.998</ele>
        <time>2021-08-19T10:42:50Z</time>
      </trkpt>
      <trkpt lat="41.700470" lon="1.055796">
        <ele>296.292</ele>
        <time>2021-08-19T10:42:53Z</time>
      </trkpt>
      <trkpt lat="41.700442" lon="1.055747">
        <ele>296.563</ele>
        <time>2021-08-19T10:42:55Z</time>
      </trkpt>
      <trkpt lat="41.700422" lon="1.055676">
        <ele>296.949</ele>
        <time>2021-08-19T10:42:57Z</time>
      </trkpt>
      <trkpt lat="41.700417" lon="1.055601">
        <ele>297.354</ele>
        <time>2021-08-19T10:42:59Z</time>
      </trkpt>
      <trkpt lat="41.700411" lon="1.055513">
        <ele>297.325</ele>
        <time>2021-08-19T10:43:01Z</time>
      </trkpt>
      <trkpt lat="41.700418" lon="1.055431">
        <ele>297.141</ele>
        <time>2021-08-19T10:43:03Z</time>
      </trkpt>
      <trkpt lat="41.700433" lon="1.055350">
        <ele>296.895</ele>
        <time>2021-08-19T10:43:05Z</time>
      </trkpt>
      <trkpt lat="41.700442" lon="1.055269">
        <ele>296.649</ele>
        <time>2021-08-19T10:43:07Z</time>
      </trkpt>
      <trkpt lat="41.700449" lon="1.055198">
        <ele>296.323</ele>
        <time>2021-08-19T10:43:09Z</time>
      </trkpt>
      <trkpt lat="41.700457" lon="1.055121">
        <ele>296.109</ele>
        <time>2021-08-19T10:43:11Z</time>
      </trkpt>
      <trkpt lat="41.700472" lon="1.055055">
        <ele>295.990</ele>
        <time>2021-08-19T10:43:13Z</time>
      </trkpt>
      <trkpt lat="41.700480" lon="1.054994">
        <ele>295.751</ele>
        <time>2021-08-19T10:43:14Z</time>
      </trkpt>
      <trkpt lat="41.700474" lon="1.054921">
        <ele>295.482</ele>
        <time>2021-08-19T10:43:16Z</time>
      </trkpt>
      <trkpt lat="41.700472" lon="1.054858">
        <ele>295.256</ele>
        <time>2021-08-19T10:43:18Z</time>
      </trkpt>
      <trkpt lat="41.700471" lon="1.054777">
        <ele>294.957</ele>
        <time>2021-08-19T10:43:20Z</time>
      </trkpt>
      <trkpt lat="41.700481" lon="1.054710">
        <ele>294.773</ele>
        <time>2021-08-19T10:43:22Z</time>
      </trkpt>
      <trkpt lat="41.700507" lon="1.054643">
        <ele>294.748</ele>
        <time>2021-08-19T10:43:24Z</time>
      </trkpt>
      <trkpt lat="41.700510" lon="1.054579">
        <ele>294.719</ele>
        <time>2021-08-19T10:43:26Z</time>
      </trkpt>
      <trkpt lat="41.700521" lon="1.054517">
        <ele>294.715</ele>
        <time>2021-08-19T10:43:28Z</time>
      </trkpt>
      <trkpt lat="41.700544" lon="1.054465">
        <ele>294.989</ele>
        <time>2021-08-19T10:43:30Z</time>
      </trkpt>
      <trkpt lat="41.700586" lon="1.054428">
        <ele>295.206</ele>
        <time>2021-08-19T10:43:33Z</time>
      </trkpt>
      <trkpt lat="41.700641" lon="1.054424">
        <ele>295.626</ele>
        <time>2021-08-19T10:43:35Z</time>
      </trkpt>
      <trkpt lat="41.700702" lon="1.054433">
        <ele>296.009</ele>
        <time>2021-08-19T10:43:39Z</time>
      </trkpt>
      <trkpt lat="41.700749" lon="1.054442">
        <ele>296.469</ele>
        <time>2021-08-19T10:43:41Z</time>
      </trkpt>
      <trkpt lat="41.700817" lon="1.054453">
        <ele>296.980</ele>
        <time>2021-08-19T10:43:44Z</time>
      </trkpt>
      <trkpt lat="41.700881" lon="1.054466">
        <ele>297.681</ele>
        <time>2021-08-19T10:43:47Z</time>
      </trkpt>
      <trkpt lat="41.700934" lon="1.054480">
        <ele>298.235</ele>
        <time>2021-08-19T10:43:50Z</time>
      </trkpt>
      <trkpt lat="41.700982" lon="1.054505">
        <ele>298.716</ele>
        <time>2021-08-19T10:43:53Z</time>
      </trkpt>
      <trkpt lat="41.701032" lon="1.054524">
        <ele>299.282</ele>
        <time>2021-08-19T10:43:56Z</time>
      </trkpt>
      <trkpt lat="41.701086" lon="1.054494">
        <ele>299.777</ele>
        <time>2021-08-19T10:44:01Z</time>
      </trkpt>
      <trkpt lat="41.701118" lon="1.054430">
        <ele>300.078</ele>
        <time>2021-08-19T10:44:04Z</time>
      </trkpt>
      <trkpt lat="41.701130" lon="1.054349">
        <ele>299.854</ele>
        <time>2021-08-19T10:44:07Z</time>
      </trkpt>
      <trkpt lat="41.701137" lon="1.054268">
        <ele>299.668</ele>
        <time>2021-08-19T10:44:10Z</time>
      </trkpt>
      <trkpt lat="41.701152" lon="1.054186">
        <ele>299.542</ele>
        <time>2021-08-19T10:44:12Z</time>
      </trkpt>
      <trkpt lat="41.701161" lon="1.054122">
        <ele>299.226</ele>
        <time>2021-08-19T10:44:14Z</time>
      </trkpt>
      <trkpt lat="41.701179" lon="1.054039">
        <ele>298.909</ele>
        <time>2021-08-19T10:44:16Z</time>
      </trkpt>
      <trkpt lat="41.701185" lon="1.053964">
        <ele>298.557</ele>
        <time>2021-08-19T10:44:18Z</time>
      </trkpt>
      <trkpt lat="41.701199" lon="1.053896">
        <ele>298.398</ele>
        <time>2021-08-19T10:44:20Z</time>
      </trkpt>
      <trkpt lat="41.701207" lon="1.053825">
        <ele>298.249</ele>
        <time>2021-08-19T10:44:22Z</time>
      </trkpt>
      <trkpt lat="41.701216" lon="1.053755">
        <ele>298.053</ele>
        <time>2021-08-19T10:44:24Z</time>
      </trkpt>
      <trkpt lat="41.701212" lon="1.053680">
        <ele>297.794</ele>
        <time>2021-08-19T10:44:26Z</time>
      </trkpt>
      <trkpt lat="41.701207" lon="1.053602">
        <ele>297.380</ele>
        <time>2021-08-19T10:44:28Z</time>
      </trkpt>
      <trkpt lat="41.701195" lon="1.053519">
        <ele>296.825</ele>
        <time>2021-08-19T10:44:30Z</time>
      </trkpt>
      <trkpt lat="41.701189" lon="1.053432">
        <ele>296.336</ele>
        <time>2021-08-19T10:44:32Z</time>
      </trkpt>
      <trkpt lat="41.701184" lon="1.053343">
        <ele>295.842</ele>
        <time>2021-08-19T10:44:34Z</time>
      </trkpt>
      <trkpt lat="41.701179" lon="1.053267">
        <ele>295.788</ele>
        <time>2021-08-19T10:44:36Z</time>
      </trkpt>
      <trkpt lat="41.701177" lon="1.053189">
        <ele>295.624</ele>
        <time>2021-08-19T10:44:38Z</time>
      </trkpt>
      <trkpt lat="41.701186" lon="1.053130">
        <ele>295.626</ele>
        <time>2021-08-19T10:44:40Z</time>
      </trkpt>
      <trkpt lat="41.701182" lon="1.053061">
        <ele>295.509</ele>
        <time>2021-08-19T10:44:43Z</time>
      </trkpt>
      <trkpt lat="41.701187" lon="1.052993">
        <ele>295.639</ele>
        <time>2021-08-19T10:44:46Z</time>
      </trkpt>
      <trkpt lat="41.701171" lon="1.052933">
        <ele>295.770</ele>
        <time>2021-08-19T10:44:49Z</time>
      </trkpt>
      <trkpt lat="41.701172" lon="1.052856">
        <ele>295.851</ele>
        <time>2021-08-19T10:44:52Z</time>
      </trkpt>
      <trkpt lat="41.701198" lon="1.052779">
        <ele>296.035</ele>
        <time>2021-08-19T10:44:55Z</time>
      </trkpt>
      <trkpt lat="41.701241" lon="1.052746">
        <ele>296.166</ele>
        <time>2021-08-19T10:44:58Z</time>
      </trkpt>
      <trkpt lat="41.701286" lon="1.052729">
        <ele>296.152</ele>
        <time>2021-08-19T10:45:20Z</time>
      </trkpt>
      <trkpt lat="41.701331" lon="1.052740">
        <ele>296.067</ele>
        <time>2021-08-19T10:45:24Z</time>
      </trkpt>
      <trkpt lat="41.701381" lon="1.052754">
        <ele>296.018</ele>
        <time>2021-08-19T10:45:28Z</time>
      </trkpt>
      <trkpt lat="41.701418" lon="1.052712">
        <ele>295.814</ele>
        <time>2021-08-19T10:45:31Z</time>
      </trkpt>
      <trkpt lat="41.701466" lon="1.052672">
        <ele>295.444</ele>
        <time>2021-08-19T10:45:34Z</time>
      </trkpt>
      <trkpt lat="41.701520" lon="1.052638">
        <ele>295.105</ele>
        <time>2021-08-19T10:45:37Z</time>
      </trkpt>
      <trkpt lat="41.701572" lon="1.052620">
        <ele>294.715</ele>
        <time>2021-08-19T10:45:40Z</time>
      </trkpt>
      <trkpt lat="41.701630" lon="1.052629">
        <ele>294.309</ele>
        <time>2021-08-19T10:45:43Z</time>
      </trkpt>
      <trkpt lat="41.701687" lon="1.052649">
        <ele>293.975</ele>
        <time>2021-08-19T10:45:46Z</time>
      </trkpt>
      <trkpt lat="41.701754" lon="1.052664">
        <ele>293.486</ele>
        <time>2021-08-19T10:45:49Z</time>
      </trkpt>
      <trkpt lat="41.701798" lon="1.052692">
        <ele>293.147</ele>
        <time>2021-08-19T10:45:51Z</time>
      </trkpt>
      <trkpt lat="41.701850" lon="1.052735">
        <ele>292.711</ele>
        <time>2021-08-19T10:45:54Z</time>
      </trkpt>
      <trkpt lat="41.701893" lon="1.052793">
        <ele>292.572</ele>
        <time>2021-08-19T10:45:57Z</time>
      </trkpt>
      <trkpt lat="41.701921" lon="1.052854">
        <ele>292.778</ele>
        <time>2021-08-19T10:46:00Z</time>
      </trkpt>
      <trkpt lat="41.701968" lon="1.052892">
        <ele>292.673</ele>
        <time>2021-08-19T10:47:08Z</time>
      </trkpt>
      <trkpt lat="41.701976" lon="1.052818">
        <ele>292.024</ele>
        <time>2021-08-19T10:47:15Z</time>
      </trkpt>
      <trkpt lat="41.701940" lon="1.052757">
        <ele>292.010</ele>
        <time>2021-08-19T10:47:18Z</time>
      </trkpt>
      <trkpt lat="41.701909" lon="1.052707">
        <ele>292.385</ele>
        <time>2021-08-19T10:47:23Z</time>
      </trkpt>
      <trkpt lat="41.701894" lon="1.052647">
        <ele>292.489</ele>
        <time>2021-08-19T10:47:27Z</time>
      </trkpt>
      <trkpt lat="41.701933" lon="1.052607">
        <ele>292.117</ele>
        <time>2021-08-19T10:47:31Z</time>
      </trkpt>
      <trkpt lat="41.701975" lon="1.052569">
        <ele>291.809</ele>
        <time>2021-08-19T10:47:35Z</time>
      </trkpt>
      <trkpt lat="41.702009" lon="1.052526">
        <ele>291.579</ele>
        <time>2021-08-19T10:47:37Z</time>
      </trkpt>
      <trkpt lat="41.702010" lon="1.052464">
        <ele>291.770</ele>
        <time>2021-08-19T10:47:39Z</time>
      </trkpt>
      <trkpt lat="41.702012" lon="1.052398">
        <ele>291.991</ele>
        <time>2021-08-19T10:47:41Z</time>
      </trkpt>
      <trkpt lat="41.701999" lon="1.052329">
        <ele>292.295</ele>
        <time>2021-08-19T10:47:43Z</time>
      </trkpt>
      <trkpt lat="41.701961" lon="1.052276">
        <ele>292.756</ele>
        <time>2021-08-19T10:47:46Z</time>
      </trkpt>
      <trkpt lat="41.701922" lon="1.052235">
        <ele>293.072</ele>
        <time>2021-08-19T10:47:49Z</time>
      </trkpt>
      <trkpt lat="41.701872" lon="1.052203">
        <ele>293.187</ele>
        <time>2021-08-19T10:47:52Z</time>
      </trkpt>
      <trkpt lat="41.701834" lon="1.052152">
        <ele>293.048</ele>
        <time>2021-08-19T10:47:55Z</time>
      </trkpt>
      <trkpt lat="41.701804" lon="1.052107">
        <ele>292.924</ele>
        <time>2021-08-19T10:47:58Z</time>
      </trkpt>
      <trkpt lat="41.701743" lon="1.052107">
        <ele>293.297</ele>
        <time>2021-08-19T10:48:51Z</time>
      </trkpt>
      <trkpt lat="41.701721" lon="1.052054">
        <ele>293.123</ele>
        <time>2021-08-19T10:48:54Z</time>
      </trkpt>
      <trkpt lat="41.701754" lon="1.052009">
        <ele>292.725</ele>
        <time>2021-08-19T10:48:57Z</time>
      </trkpt>
      <trkpt lat="41.701802" lon="1.051955">
        <ele>292.109</ele>
        <time>2021-08-19T10:49:00Z</time>
      </trkpt>
      <trkpt lat="41.701836" lon="1.051909">
        <ele>291.780</ele>
        <time>2021-08-19T10:49:02Z</time>
      </trkpt>
      <trkpt lat="41.701871" lon="1.051846">
        <ele>291.441</ele>
        <time>2021-08-19T10:49:04Z</time>
      </trkpt>
      <trkpt lat="41.701907" lon="1.051794">
        <ele>291.232</ele>
        <time>2021-08-19T10:49:06Z</time>
      </trkpt>
      <trkpt lat="41.701945" lon="1.051749">
        <ele>291.026</ele>
        <time>2021-08-19T10:49:08Z</time>
      </trkpt>
      <trkpt lat="41.701985" lon="1.051681">
        <ele>290.727</ele>
        <time>2021-08-19T10:49:11Z</time>
      </trkpt>
      <trkpt lat="41.701949" lon="1.051637">
        <ele>290.913</ele>
        <time>2021-08-19T10:49:14Z</time>
      </trkpt>
      <trkpt lat="41.701919" lon="1.051588">
        <ele>290.878</ele>
        <time>2021-08-19T10:49:17Z</time>
      </trkpt>
      <trkpt lat="41.701890" lon="1.051535">
        <ele>290.799</ele>
        <time>2021-08-19T10:49:19Z</time>
      </trkpt>
      <trkpt lat="41.701938" lon="1.051502">
        <ele>290.415</ele>
        <time>2021-08-19T10:50:05Z</time>
      </trkpt>
      <trkpt lat="41.701974" lon="1.051435">
        <ele>290.024</ele>
        <time>2021-08-19T10:50:08Z</time>
      </trkpt>
      <trkpt lat="41.701959" lon="1.051374">
        <ele>289.904</ele>
        <time>2021-08-19T10:50:11Z</time>
      </trkpt>
      <trkpt lat="41.701979" lon="1.051275">
        <ele>289.514</ele>
        <time>2021-08-19T10:50:13Z</time>
      </trkpt>
      <trkpt lat="41.702010" lon="1.051215">
        <ele>289.309</ele>
        <time>2021-08-19T10:50:14Z</time>
      </trkpt>
      <trkpt lat="41.702048" lon="1.051130">
        <ele>289.093</ele>
        <time>2021-08-19T10:50:16Z</time>
      </trkpt>
      <trkpt lat="41.702078" lon="1.051079">
        <ele>289.094</ele>
        <time>2021-08-19T10:50:17Z</time>
      </trkpt>
      <trkpt lat="41.702097" lon="1.051008">
        <ele>289.095</ele>
        <time>2021-08-19T10:50:19Z</time>
      </trkpt>
      <trkpt lat="41.702116" lon="1.050950">
        <ele>289.099</ele>
        <time>2021-08-19T10:50:20Z</time>
      </trkpt>
      <trkpt lat="41.702154" lon="1.050878">
        <ele>289.040</ele>
        <time>2021-08-19T10:50:22Z</time>
      </trkpt>
      <trkpt lat="41.702171" lon="1.050818">
        <ele>289.076</ele>
        <time>2021-08-19T10:50:23Z</time>
      </trkpt>
      <trkpt lat="41.702207" lon="1.050742">
        <ele>289.031</ele>
        <time>2021-08-19T10:50:25Z</time>
      </trkpt>
      <trkpt lat="41.702242" lon="1.050659">
        <ele>289.142</ele>
        <time>2021-08-19T10:50:27Z</time>
      </trkpt>
      <trkpt lat="41.702265" lon="1.050589">
        <ele>289.258</ele>
        <time>2021-08-19T10:50:29Z</time>
      </trkpt>
      <trkpt lat="41.702283" lon="1.050527">
        <ele>289.277</ele>
        <time>2021-08-19T10:50:30Z</time>
      </trkpt>
      <trkpt lat="41.702315" lon="1.050454">
        <ele>289.261</ele>
        <time>2021-08-19T10:50:32Z</time>
      </trkpt>
      <trkpt lat="41.702333" lon="1.050394">
        <ele>289.227</ele>
        <time>2021-08-19T10:50:33Z</time>
      </trkpt>
      <trkpt lat="41.702365" lon="1.050317">
        <ele>289.109</ele>
        <time>2021-08-19T10:50:35Z</time>
      </trkpt>
      <trkpt lat="41.702393" lon="1.050235">
        <ele>288.968</ele>
        <time>2021-08-19T10:50:37Z</time>
      </trkpt>
      <trkpt lat="41.702410" lon="1.050171">
        <ele>288.749</ele>
        <time>2021-08-19T10:50:38Z</time>
      </trkpt>
      <trkpt lat="41.702429" lon="1.050106">
        <ele>288.570</ele>
        <time>2021-08-19T10:50:40Z</time>
      </trkpt>
      <trkpt lat="41.702457" lon="1.050044">
        <ele>288.394</ele>
        <time>2021-08-19T10:50:41Z</time>
      </trkpt>
      <trkpt lat="41.702494" lon="1.049964">
        <ele>287.955</ele>
        <time>2021-08-19T10:50:43Z</time>
      </trkpt>
      <trkpt lat="41.702516" lon="1.049863">
        <ele>287.661</ele>
        <time>2021-08-19T10:50:45Z</time>
      </trkpt>
      <trkpt lat="41.702538" lon="1.049809">
        <ele>287.496</ele>
        <time>2021-08-19T10:50:46Z</time>
      </trkpt>
      <trkpt lat="41.702558" lon="1.049739">
        <ele>287.357</ele>
        <time>2021-08-19T10:50:48Z</time>
      </trkpt>
      <trkpt lat="41.702579" lon="1.049666">
        <ele>287.443</ele>
        <time>2021-08-19T10:50:49Z</time>
      </trkpt>
      <trkpt lat="41.702602" lon="1.049591">
        <ele>287.545</ele>
        <time>2021-08-19T10:50:51Z</time>
      </trkpt>
      <trkpt lat="41.702621" lon="1.049519">
        <ele>287.547</ele>
        <time>2021-08-19T10:50:52Z</time>
      </trkpt>
      <trkpt lat="41.702649" lon="1.049443">
        <ele>287.511</ele>
        <time>2021-08-19T10:50:54Z</time>
      </trkpt>
      <trkpt lat="41.702669" lon="1.049386">
        <ele>287.409</ele>
        <time>2021-08-19T10:50:55Z</time>
      </trkpt>
      <trkpt lat="41.702692" lon="1.049298">
        <ele>287.565</ele>
        <time>2021-08-19T10:50:57Z</time>
      </trkpt>
      <trkpt lat="41.702711" lon="1.049228">
        <ele>287.646</ele>
        <time>2021-08-19T10:50:58Z</time>
      </trkpt>
      <trkpt lat="41.702732" lon="1.049142">
        <ele>287.997</ele>
        <time>2021-08-19T10:51:00Z</time>
      </trkpt>
      <trkpt lat="41.702749" lon="1.049074">
        <ele>288.281</ele>
        <time>2021-08-19T10:51:01Z</time>
      </trkpt>
      <trkpt lat="41.702772" lon="1.048985">
        <ele>288.622</ele>
        <time>2021-08-19T10:51:03Z</time>
      </trkpt>
      <trkpt lat="41.702803" lon="1.048884">
        <ele>289.178</ele>
        <time>2021-08-19T10:51:05Z</time>
      </trkpt>
      <trkpt lat="41.702828" lon="1.048801">
        <ele>289.833</ele>
        <time>2021-08-19T10:51:07Z</time>
      </trkpt>
      <trkpt lat="41.702841" lon="1.048741">
        <ele>290.444</ele>
        <time>2021-08-19T10:51:08Z</time>
      </trkpt>
      <trkpt lat="41.702856" lon="1.048683">
        <ele>290.840</ele>
        <time>2021-08-19T10:51:09Z</time>
      </trkpt>
      <trkpt lat="41.702873" lon="1.048616">
        <ele>291.316</ele>
        <time>2021-08-19T10:51:11Z</time>
      </trkpt>
      <trkpt lat="41.702883" lon="1.048552">
        <ele>291.276</ele>
        <time>2021-08-19T10:51:12Z</time>
      </trkpt>
      <trkpt lat="41.702915" lon="1.048467">
        <ele>291.013</ele>
        <time>2021-08-19T10:51:14Z</time>
      </trkpt>
      <trkpt lat="41.702940" lon="1.048377">
        <ele>290.809</ele>
        <time>2021-08-19T10:51:16Z</time>
      </trkpt>
      <trkpt lat="41.702963" lon="1.048306">
        <ele>290.612</ele>
        <time>2021-08-19T10:51:17Z</time>
      </trkpt>
      <trkpt lat="41.702982" lon="1.048240">
        <ele>290.413</ele>
        <time>2021-08-19T10:51:19Z</time>
      </trkpt>
      <trkpt lat="41.703007" lon="1.048151">
        <ele>290.154</ele>
        <time>2021-08-19T10:51:21Z</time>
      </trkpt>
      <trkpt lat="41.703026" lon="1.048091">
        <ele>290.048</ele>
        <time>2021-08-19T10:51:22Z</time>
      </trkpt>
      <trkpt lat="41.703045" lon="1.048029">
        <ele>289.939</ele>
        <time>2021-08-19T10:51:23Z</time>
      </trkpt>
      <trkpt lat="41.703070" lon="1.047951">
        <ele>289.695</ele>
        <time>2021-08-19T10:51:25Z</time>
      </trkpt>
      <trkpt lat="41.703098" lon="1.047861">
        <ele>289.560</ele>
        <time>2021-08-19T10:51:27Z</time>
      </trkpt>
      <trkpt lat="41.703123" lon="1.047771">
        <ele>289.511</ele>
        <time>2021-08-19T10:51:29Z</time>
      </trkpt>
      <trkpt lat="41.703145" lon="1.047710">
        <ele>290.177</ele>
        <time>2021-08-19T10:51:31Z</time>
      </trkpt>
      <trkpt lat="41.703166" lon="1.047642">
        <ele>290.687</ele>
        <time>2021-08-19T10:51:33Z</time>
      </trkpt>
      <trkpt lat="41.703193" lon="1.047587">
        <ele>291.042</ele>
        <time>2021-08-19T10:51:34Z</time>
      </trkpt>
      <trkpt lat="41.703224" lon="1.047517">
        <ele>291.526</ele>
        <time>2021-08-19T10:51:36Z</time>
      </trkpt>
      <trkpt lat="41.703269" lon="1.047472">
        <ele>291.709</ele>
        <time>2021-08-19T10:51:38Z</time>
      </trkpt>
      <trkpt lat="41.703329" lon="1.047436">
        <ele>291.879</ele>
        <time>2021-08-19T10:51:40Z</time>
      </trkpt>
      <trkpt lat="41.703385" lon="1.047415">
        <ele>291.780</ele>
        <time>2021-08-19T10:51:42Z</time>
      </trkpt>
      <trkpt lat="41.703454" lon="1.047382">
        <ele>291.671</ele>
        <time>2021-08-19T10:51:44Z</time>
      </trkpt>
      <trkpt lat="41.703527" lon="1.047357">
        <ele>291.565</ele>
        <time>2021-08-19T10:51:46Z</time>
      </trkpt>
      <trkpt lat="41.703580" lon="1.047338">
        <ele>291.456</ele>
        <time>2021-08-19T10:51:48Z</time>
      </trkpt>
      <trkpt lat="41.703631" lon="1.047317">
        <ele>291.332</ele>
        <time>2021-08-19T10:51:49Z</time>
      </trkpt>
      <trkpt lat="41.703697" lon="1.047274">
        <ele>291.247</ele>
        <time>2021-08-19T10:51:51Z</time>
      </trkpt>
      <trkpt lat="41.703750" lon="1.047222">
        <ele>291.058</ele>
        <time>2021-08-19T10:51:53Z</time>
      </trkpt>
      <trkpt lat="41.703794" lon="1.047185">
        <ele>290.744</ele>
        <time>2021-08-19T10:51:54Z</time>
      </trkpt>
      <trkpt lat="41.703857" lon="1.047119">
        <ele>290.212</ele>
        <time>2021-08-19T10:51:56Z</time>
      </trkpt>
      <trkpt lat="41.703913" lon="1.047056">
        <ele>289.832</ele>
        <time>2021-08-19T10:51:58Z</time>
      </trkpt>
      <trkpt lat="41.703967" lon="1.046987">
        <ele>289.305</ele>
        <time>2021-08-19T10:52:00Z</time>
      </trkpt>
      <trkpt lat="41.704011" lon="1.046924">
        <ele>288.909</ele>
        <time>2021-08-19T10:52:02Z</time>
      </trkpt>
      <trkpt lat="41.704052" lon="1.046865">
        <ele>288.822</ele>
        <time>2021-08-19T10:52:04Z</time>
      </trkpt>
      <trkpt lat="41.704083" lon="1.046820">
        <ele>288.793</ele>
        <time>2021-08-19T10:52:06Z</time>
      </trkpt>
      <trkpt lat="41.704115" lon="1.046769">
        <ele>288.854</ele>
        <time>2021-08-19T10:52:09Z</time>
      </trkpt>
      <trkpt lat="41.704150" lon="1.046720">
        <ele>288.998</ele>
        <time>2021-08-19T10:52:13Z</time>
      </trkpt>
      <trkpt lat="41.704178" lon="1.046671">
        <ele>289.079</ele>
        <time>2021-08-19T10:52:18Z</time>
      </trkpt>
      <trkpt lat="41.704213" lon="1.046617">
        <ele>288.955</ele>
        <time>2021-08-19T10:52:21Z</time>
      </trkpt>
      <trkpt lat="41.704243" lon="1.046564">
        <ele>288.870</ele>
        <time>2021-08-19T10:52:23Z</time>
      </trkpt>
      <trkpt lat="41.704279" lon="1.046493">
        <ele>288.951</ele>
        <time>2021-08-19T10:52:25Z</time>
      </trkpt>
      <trkpt lat="41.704310" lon="1.046429">
        <ele>289.057</ele>
        <time>2021-08-19T10:52:27Z</time>
      </trkpt>
      <trkpt lat="41.704347" lon="1.046361">
        <ele>289.322</ele>
        <time>2021-08-19T10:52:29Z</time>
      </trkpt>
      <trkpt lat="41.704393" lon="1.046302">
        <ele>289.662</ele>
        <time>2021-08-19T10:52:31Z</time>
      </trkpt>
      <trkpt lat="41.704429" lon="1.046224">
        <ele>289.908</ele>
        <time>2021-08-19T10:52:33Z</time>
      </trkpt>
      <trkpt lat="41.704445" lon="1.046137">
        <ele>290.009</ele>
        <time>2021-08-19T10:52:35Z</time>
      </trkpt>
      <trkpt lat="41.704474" lon="1.046051">
        <ele>290.243</ele>
        <time>2021-08-19T10:52:37Z</time>
      </trkpt>
      <trkpt lat="41.704500" lon="1.045979">
        <ele>290.514</ele>
        <time>2021-08-19T10:52:39Z</time>
      </trkpt>
      <trkpt lat="41.704530" lon="1.045883">
        <ele>290.885</ele>
        <time>2021-08-19T10:52:41Z</time>
      </trkpt>
      <trkpt lat="41.704560" lon="1.045799">
        <ele>290.899</ele>
        <time>2021-08-19T10:52:43Z</time>
      </trkpt>
      <trkpt lat="41.704592" lon="1.045715">
        <ele>290.420</ele>
        <time>2021-08-19T10:52:45Z</time>
      </trkpt>
      <trkpt lat="41.704619" lon="1.045625">
        <ele>290.036</ele>
        <time>2021-08-19T10:52:47Z</time>
      </trkpt>
      <trkpt lat="41.704644" lon="1.045534">
        <ele>289.661</ele>
        <time>2021-08-19T10:52:49Z</time>
      </trkpt>
      <trkpt lat="41.704670" lon="1.045462">
        <ele>289.222</ele>
        <time>2021-08-19T10:52:51Z</time>
      </trkpt>
      <trkpt lat="41.704690" lon="1.045398">
        <ele>288.868</ele>
        <time>2021-08-19T10:52:52Z</time>
      </trkpt>
      <trkpt lat="41.704705" lon="1.045333">
        <ele>288.425</ele>
        <time>2021-08-19T10:52:54Z</time>
      </trkpt>
      <trkpt lat="41.704722" lon="1.045261">
        <ele>287.926</ele>
        <time>2021-08-19T10:52:55Z</time>
      </trkpt>
      <trkpt lat="41.704736" lon="1.045199">
        <ele>287.808</ele>
        <time>2021-08-19T10:52:57Z</time>
      </trkpt>
      <trkpt lat="41.704757" lon="1.045132">
        <ele>287.709</ele>
        <time>2021-08-19T10:52:58Z</time>
      </trkpt>
      <trkpt lat="41.704776" lon="1.045040">
        <ele>287.593</ele>
        <time>2021-08-19T10:53:00Z</time>
      </trkpt>
      <trkpt lat="41.704797" lon="1.044972">
        <ele>287.434</ele>
        <time>2021-08-19T10:53:02Z</time>
      </trkpt>
      <trkpt lat="41.704812" lon="1.044902">
        <ele>287.215</ele>
        <time>2021-08-19T10:53:03Z</time>
      </trkpt>
      <trkpt lat="41.704834" lon="1.044806">
        <ele>286.879</ele>
        <time>2021-08-19T10:53:05Z</time>
      </trkpt>
      <trkpt lat="41.704856" lon="1.044713">
        <ele>286.440</ele>
        <time>2021-08-19T10:53:07Z</time>
      </trkpt>
      <trkpt lat="41.704873" lon="1.044619">
        <ele>286.236</ele>
        <time>2021-08-19T10:53:09Z</time>
      </trkpt>
      <trkpt lat="41.704885" lon="1.044543">
        <ele>285.961</ele>
        <time>2021-08-19T10:53:11Z</time>
      </trkpt>
      <trkpt lat="41.704894" lon="1.044479">
        <ele>285.752</ele>
        <time>2021-08-19T10:53:12Z</time>
      </trkpt>
      <trkpt lat="41.704904" lon="1.044397">
        <ele>285.578</ele>
        <time>2021-08-19T10:53:14Z</time>
      </trkpt>
      <trkpt lat="41.704913" lon="1.044305">
        <ele>285.278</ele>
        <time>2021-08-19T10:53:16Z</time>
      </trkpt>
      <trkpt lat="41.704923" lon="1.044223">
        <ele>284.933</ele>
        <time>2021-08-19T10:53:18Z</time>
      </trkpt>
      <trkpt lat="41.704931" lon="1.044163">
        <ele>284.826</ele>
        <time>2021-08-19T10:53:19Z</time>
      </trkpt>
      <trkpt lat="41.704940" lon="1.044070">
        <ele>285.109</ele>
        <time>2021-08-19T10:53:21Z</time>
      </trkpt>
      <trkpt lat="41.704960" lon="1.043975">
        <ele>285.568</ele>
        <time>2021-08-19T10:53:23Z</time>
      </trkpt>
      <trkpt lat="41.704973" lon="1.043886">
        <ele>285.949</ele>
        <time>2021-08-19T10:53:25Z</time>
      </trkpt>
      <trkpt lat="41.704979" lon="1.043824">
        <ele>286.260</ele>
        <time>2021-08-19T10:53:26Z</time>
      </trkpt>
      <trkpt lat="41.704991" lon="1.043712">
        <ele>286.624</ele>
        <time>2021-08-19T10:53:28Z</time>
      </trkpt>
      <trkpt lat="41.705009" lon="1.043610">
        <ele>287.085</ele>
        <time>2021-08-19T10:53:30Z</time>
      </trkpt>
      <trkpt lat="41.705019" lon="1.043521">
        <ele>287.381</ele>
        <time>2021-08-19T10:53:32Z</time>
      </trkpt>
      <trkpt lat="41.705040" lon="1.043441">
        <ele>287.516</ele>
        <time>2021-08-19T10:53:34Z</time>
      </trkpt>
      <trkpt lat="41.705057" lon="1.043333">
        <ele>287.827</ele>
        <time>2021-08-19T10:53:36Z</time>
      </trkpt>
      <trkpt lat="41.705067" lon="1.043242">
        <ele>286.963</ele>
        <time>2021-08-19T10:53:38Z</time>
      </trkpt>
      <trkpt lat="41.705074" lon="1.043152">
        <ele>286.131</ele>
        <time>2021-08-19T10:53:40Z</time>
      </trkpt>
      <trkpt lat="41.705080" lon="1.043084">
        <ele>285.561</ele>
        <time>2021-08-19T10:53:41Z</time>
      </trkpt>
      <trkpt lat="41.705080" lon="1.042987">
        <ele>285.007</ele>
        <time>2021-08-19T10:53:43Z</time>
      </trkpt>
      <trkpt lat="41.705085" lon="1.042893">
        <ele>284.509</ele>
        <time>2021-08-19T10:53:45Z</time>
      </trkpt>
      <trkpt lat="41.705090" lon="1.042826">
        <ele>284.284</ele>
        <time>2021-08-19T10:53:46Z</time>
      </trkpt>
      <trkpt lat="41.705090" lon="1.042722">
        <ele>284.195</ele>
        <time>2021-08-19T10:53:48Z</time>
      </trkpt>
      <trkpt lat="41.705083" lon="1.042608">
        <ele>284.496</ele>
        <time>2021-08-19T10:53:50Z</time>
      </trkpt>
      <trkpt lat="41.705086" lon="1.042510">
        <ele>284.710</ele>
        <time>2021-08-19T10:53:52Z</time>
      </trkpt>
      <trkpt lat="41.705106" lon="1.042426">
        <ele>284.771</ele>
        <time>2021-08-19T10:53:53Z</time>
      </trkpt>
      <trkpt lat="41.705125" lon="1.042356">
        <ele>284.827</ele>
        <time>2021-08-19T10:53:54Z</time>
      </trkpt>
      <trkpt lat="41.705150" lon="1.042286">
        <ele>284.962</ele>
        <time>2021-08-19T10:53:55Z</time>
      </trkpt>
      <trkpt lat="41.705197" lon="1.042148">
        <ele>284.873</ele>
        <time>2021-08-19T10:53:57Z</time>
      </trkpt>
      <trkpt lat="41.705246" lon="1.042026">
        <ele>284.449</ele>
        <time>2021-08-19T10:53:59Z</time>
      </trkpt>
      <trkpt lat="41.705270" lon="1.041969">
        <ele>284.171</ele>
        <time>2021-08-19T10:54:00Z</time>
      </trkpt>
      <trkpt lat="41.705294" lon="1.041913">
        <ele>284.141</ele>
        <time>2021-08-19T10:54:01Z</time>
      </trkpt>
      <trkpt lat="41.705341" lon="1.041801">
        <ele>284.315</ele>
        <time>2021-08-19T10:54:03Z</time>
      </trkpt>
      <trkpt lat="41.705393" lon="1.041679">
        <ele>284.809</ele>
        <time>2021-08-19T10:54:05Z</time>
      </trkpt>
      <trkpt lat="41.705450" lon="1.041548">
        <ele>285.258</ele>
        <time>2021-08-19T10:54:07Z</time>
      </trkpt>
      <trkpt lat="41.705477" lon="1.041482">
        <ele>285.459</ele>
        <time>2021-08-19T10:54:08Z</time>
      </trkpt>
      <trkpt lat="41.705527" lon="1.041354">
        <ele>285.820</ele>
        <time>2021-08-19T10:54:10Z</time>
      </trkpt>
      <trkpt lat="41.705576" lon="1.041236">
        <ele>286.064</ele>
        <time>2021-08-19T10:54:12Z</time>
      </trkpt>
      <trkpt lat="41.705599" lon="1.041183">
        <ele>286.035</ele>
        <time>2021-08-19T10:54:13Z</time>
      </trkpt>
      <trkpt lat="41.705620" lon="1.041129">
        <ele>286.071</ele>
        <time>2021-08-19T10:54:14Z</time>
      </trkpt>
      <trkpt lat="41.705643" lon="1.041076">
        <ele>286.076</ele>
        <time>2021-08-19T10:54:15Z</time>
      </trkpt>
      <trkpt lat="41.705668" lon="1.041022">
        <ele>286.047</ele>
        <time>2021-08-19T10:54:16Z</time>
      </trkpt>
      <trkpt lat="41.705692" lon="1.040963">
        <ele>286.033</ele>
        <time>2021-08-19T10:54:17Z</time>
      </trkpt>
      <trkpt lat="41.705739" lon="1.040859">
        <ele>286.075</ele>
        <time>2021-08-19T10:54:19Z</time>
      </trkpt>
      <trkpt lat="41.705774" lon="1.040775">
        <ele>286.028</ele>
        <time>2021-08-19T10:54:21Z</time>
      </trkpt>
      <trkpt lat="41.705795" lon="1.040715">
        <ele>285.920</ele>
        <time>2021-08-19T10:54:22Z</time>
      </trkpt>
      <trkpt lat="41.705837" lon="1.040614">
        <ele>286.009</ele>
        <time>2021-08-19T10:54:24Z</time>
      </trkpt>
      <trkpt lat="41.705878" lon="1.040528">
        <ele>286.058</ele>
        <time>2021-08-19T10:54:26Z</time>
      </trkpt>
      <trkpt lat="41.705923" lon="1.040419">
        <ele>286.039</ele>
        <time>2021-08-19T10:54:28Z</time>
      </trkpt>
      <trkpt lat="41.705976" lon="1.040358">
        <ele>286.030</ele>
        <time>2021-08-19T10:54:30Z</time>
      </trkpt>
      <trkpt lat="41.706022" lon="1.040213">
        <ele>285.964</ele>
        <time>2021-08-19T10:54:32Z</time>
      </trkpt>
      <trkpt lat="41.706045" lon="1.040121">
        <ele>285.745</ele>
        <time>2021-08-19T10:54:34Z</time>
      </trkpt>
      <trkpt lat="41.706088" lon="1.040007">
        <ele>285.891</ele>
        <time>2021-08-19T10:54:36Z</time>
      </trkpt>
      <trkpt lat="41.706113" lon="1.039947">
        <ele>285.616</ele>
        <time>2021-08-19T10:54:37Z</time>
      </trkpt>
      <trkpt lat="41.706135" lon="1.039894">
        <ele>285.227</ele>
        <time>2021-08-19T10:54:38Z</time>
      </trkpt>
      <trkpt lat="41.706158" lon="1.039831">
        <ele>284.753</ele>
        <time>2021-08-19T10:54:39Z</time>
      </trkpt>
      <trkpt lat="41.706180" lon="1.039778">
        <ele>284.443</ele>
        <time>2021-08-19T10:54:40Z</time>
      </trkpt>
      <trkpt lat="41.706220" lon="1.039673">
        <ele>284.064</ele>
        <time>2021-08-19T10:54:42Z</time>
      </trkpt>
      <trkpt lat="41.706257" lon="1.039565">
        <ele>284.010</ele>
        <time>2021-08-19T10:54:44Z</time>
      </trkpt>
      <trkpt lat="41.706297" lon="1.039468">
        <ele>284.009</ele>
        <time>2021-08-19T10:54:46Z</time>
      </trkpt>
      <trkpt lat="41.706321" lon="1.039362">
        <ele>284.185</ele>
        <time>2021-08-19T10:54:48Z</time>
      </trkpt>
      <trkpt lat="41.706344" lon="1.039252">
        <ele>284.166</ele>
        <time>2021-08-19T10:54:50Z</time>
      </trkpt>
      <trkpt lat="41.706356" lon="1.039143">
        <ele>284.257</ele>
        <time>2021-08-19T10:54:52Z</time>
      </trkpt>
      <trkpt lat="41.706366" lon="1.039038">
        <ele>284.581</ele>
        <time>2021-08-19T10:54:54Z</time>
      </trkpt>
      <trkpt lat="41.706381" lon="1.038929">
        <ele>284.992</ele>
        <time>2021-08-19T10:54:56Z</time>
      </trkpt>
      <trkpt lat="41.706392" lon="1.038814">
        <ele>285.078</ele>
        <time>2021-08-19T10:54:58Z</time>
      </trkpt>
      <trkpt lat="41.706391" lon="1.038703">
        <ele>285.073</ele>
        <time>2021-08-19T10:55:00Z</time>
      </trkpt>
      <trkpt lat="41.706398" lon="1.038594">
        <ele>285.044</ele>
        <time>2021-08-19T10:55:02Z</time>
      </trkpt>
      <trkpt lat="41.706418" lon="1.038490">
        <ele>285.050</ele>
        <time>2021-08-19T10:55:04Z</time>
      </trkpt>
      <trkpt lat="41.706442" lon="1.038394">
        <ele>285.159</ele>
        <time>2021-08-19T10:55:06Z</time>
      </trkpt>
      <trkpt lat="41.706484" lon="1.038331">
        <ele>285.303</ele>
        <time>2021-08-19T10:55:08Z</time>
      </trkpt>
      <trkpt lat="41.706552" lon="1.038258">
        <ele>285.323</ele>
        <time>2021-08-19T10:55:10Z</time>
      </trkpt>
      <trkpt lat="41.706589" lon="1.038187">
        <ele>285.209</ele>
        <time>2021-08-19T10:55:12Z</time>
      </trkpt>
      <trkpt lat="41.706622" lon="1.038117">
        <ele>285.196</ele>
        <time>2021-08-19T10:55:14Z</time>
      </trkpt>
      <trkpt lat="41.706660" lon="1.038035">
        <ele>284.997</ele>
        <time>2021-08-19T10:55:16Z</time>
      </trkpt>
      <trkpt lat="41.706692" lon="1.037970">
        <ele>284.738</ele>
        <time>2021-08-19T10:55:18Z</time>
      </trkpt>
      <trkpt lat="41.706717" lon="1.037918">
        <ele>284.582</ele>
        <time>2021-08-19T10:55:20Z</time>
      </trkpt>
      <trkpt lat="41.706743" lon="1.037841">
        <ele>284.223</ele>
        <time>2021-08-19T10:55:22Z</time>
      </trkpt>
      <trkpt lat="41.706765" lon="1.037756">
        <ele>283.989</ele>
        <time>2021-08-19T10:55:24Z</time>
      </trkpt>
      <trkpt lat="41.706785" lon="1.037673">
        <ele>283.684</ele>
        <time>2021-08-19T10:55:26Z</time>
      </trkpt>
      <trkpt lat="41.706800" lon="1.037613">
        <ele>283.465</ele>
        <time>2021-08-19T10:55:27Z</time>
      </trkpt>
      <trkpt lat="41.706819" lon="1.037525">
        <ele>283.141</ele>
        <time>2021-08-19T10:55:29Z</time>
      </trkpt>
      <trkpt lat="41.706845" lon="1.037444">
        <ele>283.022</ele>
        <time>2021-08-19T10:55:31Z</time>
      </trkpt>
      <trkpt lat="41.706861" lon="1.037370">
        <ele>283.062</ele>
        <time>2021-08-19T10:55:33Z</time>
      </trkpt>
      <trkpt lat="41.706884" lon="1.037294">
        <ele>283.008</ele>
        <time>2021-08-19T10:55:35Z</time>
      </trkpt>
      <trkpt lat="41.706902" lon="1.037215">
        <ele>283.009</ele>
        <time>2021-08-19T10:55:38Z</time>
      </trkpt>
      <trkpt lat="41.706932" lon="1.037160">
        <ele>283.263</ele>
        <time>2021-08-19T10:55:41Z</time>
      </trkpt>
      <trkpt lat="41.706963" lon="1.037084">
        <ele>283.464</ele>
        <time>2021-08-19T10:56:08Z</time>
      </trkpt>
      <trkpt lat="41.707016" lon="1.037034">
        <ele>283.395</ele>
        <time>2021-08-19T10:56:10Z</time>
      </trkpt>
      <trkpt lat="41.707068" lon="1.036983">
        <ele>283.199</ele>
        <time>2021-08-19T10:56:12Z</time>
      </trkpt>
      <trkpt lat="41.707114" lon="1.036921">
        <ele>282.760</ele>
        <time>2021-08-19T10:56:14Z</time>
      </trkpt>
      <trkpt lat="41.707150" lon="1.036856">
        <ele>282.486</ele>
        <time>2021-08-19T10:56:16Z</time>
      </trkpt>
      <trkpt lat="41.707182" lon="1.036807">
        <ele>282.231</ele>
        <time>2021-08-19T10:56:18Z</time>
      </trkpt>
      <trkpt lat="41.707224" lon="1.036745">
        <ele>282.022</ele>
        <time>2021-08-19T10:56:20Z</time>
      </trkpt>
      <trkpt lat="41.707266" lon="1.036693">
        <ele>282.078</ele>
        <time>2021-08-19T10:56:22Z</time>
      </trkpt>
      <trkpt lat="41.707302" lon="1.036634">
        <ele>281.935</ele>
        <time>2021-08-19T10:56:24Z</time>
      </trkpt>
      <trkpt lat="41.707342" lon="1.036577">
        <ele>281.886</ele>
        <time>2021-08-19T10:56:26Z</time>
      </trkpt>
      <trkpt lat="41.707396" lon="1.036499">
        <ele>281.814</ele>
        <time>2021-08-19T10:56:28Z</time>
      </trkpt>
      <trkpt lat="41.707443" lon="1.036441">
        <ele>281.809</ele>
        <time>2021-08-19T10:56:30Z</time>
      </trkpt>
      <trkpt lat="41.707482" lon="1.036363">
        <ele>281.994</ele>
        <time>2021-08-19T10:56:32Z</time>
      </trkpt>
      <trkpt lat="41.707526" lon="1.036293">
        <ele>282.195</ele>
        <time>2021-08-19T10:56:34Z</time>
      </trkpt>
      <trkpt lat="41.707568" lon="1.036219">
        <ele>282.456</ele>
        <time>2021-08-19T10:56:36Z</time>
      </trkpt>
      <trkpt lat="41.707614" lon="1.036143">
        <ele>282.870</ele>
        <time>2021-08-19T10:56:38Z</time>
      </trkpt>
      <trkpt lat="41.707670" lon="1.036065">
        <ele>283.371</ele>
        <time>2021-08-19T10:56:40Z</time>
      </trkpt>
      <trkpt lat="41.707708" lon="1.036011">
        <ele>283.677</ele>
        <time>2021-08-19T10:56:42Z</time>
      </trkpt>
      <trkpt lat="41.707746" lon="1.035953">
        <ele>283.872</ele>
        <time>2021-08-19T10:56:43Z</time>
      </trkpt>
      <trkpt lat="41.707800" lon="1.035877">
        <ele>284.093</ele>
        <time>2021-08-19T10:56:45Z</time>
      </trkpt>
      <trkpt lat="41.707855" lon="1.035792">
        <ele>284.019</ele>
        <time>2021-08-19T10:56:47Z</time>
      </trkpt>
      <trkpt lat="41.707897" lon="1.035711">
        <ele>284.084</ele>
        <time>2021-08-19T10:56:49Z</time>
      </trkpt>
      <trkpt lat="41.707933" lon="1.035640">
        <ele>284.007</ele>
        <time>2021-08-19T10:56:51Z</time>
      </trkpt>
      <trkpt lat="41.707972" lon="1.035554">
        <ele>284.017</ele>
        <time>2021-08-19T10:56:53Z</time>
      </trkpt>
      <trkpt lat="41.707999" lon="1.035492">
        <ele>284.009</ele>
        <time>2021-08-19T10:56:55Z</time>
      </trkpt>
      <trkpt lat="41.708026" lon="1.035443">
        <ele>284.049</ele>
        <time>2021-08-19T10:56:56Z</time>
      </trkpt>
      <trkpt lat="41.708054" lon="1.035388">
        <ele>284.070</ele>
        <time>2021-08-19T10:56:58Z</time>
      </trkpt>
      <trkpt lat="41.708078" lon="1.035337">
        <ele>283.841</ele>
        <time>2021-08-19T10:57:00Z</time>
      </trkpt>
      <trkpt lat="41.708104" lon="1.035267">
        <ele>283.755</ele>
        <time>2021-08-19T10:57:03Z</time>
      </trkpt>
      <trkpt lat="41.708130" lon="1.035197">
        <ele>283.556</ele>
        <time>2021-08-19T10:57:06Z</time>
      </trkpt>
      <trkpt lat="41.708159" lon="1.035137">
        <ele>283.492</ele>
        <time>2021-08-19T10:57:08Z</time>
      </trkpt>
      <trkpt lat="41.708180" lon="1.035082">
        <ele>283.437</ele>
        <time>2021-08-19T10:57:10Z</time>
      </trkpt>
      <trkpt lat="41.708213" lon="1.035028">
        <ele>283.448</ele>
        <time>2021-08-19T10:57:12Z</time>
      </trkpt>
      <trkpt lat="41.708245" lon="1.034972">
        <ele>283.324</ele>
        <time>2021-08-19T10:57:14Z</time>
      </trkpt>
      <trkpt lat="41.708271" lon="1.034905">
        <ele>283.179</ele>
        <time>2021-08-19T10:57:16Z</time>
      </trkpt>
      <trkpt lat="41.708294" lon="1.034835">
        <ele>283.105</ele>
        <time>2021-08-19T10:57:18Z</time>
      </trkpt>
      <trkpt lat="41.708325" lon="1.034766">
        <ele>283.025</ele>
        <time>2021-08-19T10:57:20Z</time>
      </trkpt>
      <trkpt lat="41.708368" lon="1.034701">
        <ele>283.109</ele>
        <time>2021-08-19T10:57:23Z</time>
      </trkpt>
      <trkpt lat="41.708410" lon="1.034672">
        <ele>283.278</ele>
        <time>2021-08-19T10:57:26Z</time>
      </trkpt>
      <trkpt lat="41.708456" lon="1.034654">
        <ele>283.259</ele>
        <time>2021-08-19T10:57:29Z</time>
      </trkpt>
      <trkpt lat="41.708503" lon="1.034657">
        <ele>283.260</ele>
        <time>2021-08-19T10:57:32Z</time>
      </trkpt>
      <trkpt lat="41.708553" lon="1.034623">
        <ele>283.414</ele>
        <time>2021-08-19T10:57:35Z</time>
      </trkpt>
      <trkpt lat="41.708611" lon="1.034603">
        <ele>283.485</ele>
        <time>2021-08-19T10:57:38Z</time>
      </trkpt>
      <trkpt lat="41.708572" lon="1.034558">
        <ele>283.641</ele>
        <time>2021-08-19T11:01:47Z</time>
      </trkpt>
      <trkpt lat="41.708534" lon="1.034522">
        <ele>283.726</ele>
        <time>2021-08-19T11:01:51Z</time>
      </trkpt>
      <trkpt lat="41.708481" lon="1.034493">
        <ele>283.817</ele>
        <time>2021-08-19T11:01:55Z</time>
      </trkpt>
      <trkpt lat="41.708447" lon="1.034437">
        <ele>284.013</ele>
        <time>2021-08-19T11:01:59Z</time>
      </trkpt>
      <trkpt lat="41.708465" lon="1.034380">
        <ele>284.058</ele>
        <time>2021-08-19T11:02:15Z</time>
      </trkpt>
      <trkpt lat="41.708502" lon="1.034331">
        <ele>284.052</ele>
        <time>2021-08-19T11:02:21Z</time>
      </trkpt>
      <trkpt lat="41.708546" lon="1.034285">
        <ele>284.017</ele>
        <time>2021-08-19T11:02:24Z</time>
      </trkpt>
      <trkpt lat="41.708574" lon="1.034231">
        <ele>284.009</ele>
        <time>2021-08-19T11:02:26Z</time>
      </trkpt>
      <trkpt lat="41.708601" lon="1.034182">
        <ele>284.036</ele>
        <time>2021-08-19T11:02:28Z</time>
      </trkpt>
      <trkpt lat="41.708634" lon="1.034104">
        <ele>283.957</ele>
        <time>2021-08-19T11:02:31Z</time>
      </trkpt>
      <trkpt lat="41.708657" lon="1.034049">
        <ele>283.828</ele>
        <time>2021-08-19T11:02:33Z</time>
      </trkpt>
      <trkpt lat="41.708694" lon="1.033975">
        <ele>283.722</ele>
        <time>2021-08-19T11:02:36Z</time>
      </trkpt>
      <trkpt lat="41.708715" lon="1.033921">
        <ele>283.673</ele>
        <time>2021-08-19T11:02:38Z</time>
      </trkpt>
      <trkpt lat="41.708739" lon="1.033839">
        <ele>283.599</ele>
        <time>2021-08-19T11:02:41Z</time>
      </trkpt>
      <trkpt lat="41.708765" lon="1.033786">
        <ele>283.254</ele>
        <time>2021-08-19T11:02:43Z</time>
      </trkpt>
      <trkpt lat="41.708786" lon="1.033724">
        <ele>283.085</ele>
        <time>2021-08-19T11:02:45Z</time>
      </trkpt>
      <trkpt lat="41.708800" lon="1.033665">
        <ele>282.821</ele>
        <time>2021-08-19T11:02:47Z</time>
      </trkpt>
      <trkpt lat="41.708816" lon="1.033593">
        <ele>282.563</ele>
        <time>2021-08-19T11:02:50Z</time>
      </trkpt>
      <trkpt lat="41.708830" lon="1.033513">
        <ele>282.344</ele>
        <time>2021-08-19T11:02:54Z</time>
      </trkpt>
      <trkpt lat="41.708850" lon="1.033448">
        <ele>282.218</ele>
        <time>2021-08-19T11:02:59Z</time>
      </trkpt>
      <trkpt lat="41.708820" lon="1.033378">
        <ele>282.309</ele>
        <time>2021-08-19T11:04:04Z</time>
      </trkpt>
      <trkpt lat="41.708792" lon="1.033305">
        <ele>282.267</ele>
        <time>2021-08-19T11:04:07Z</time>
      </trkpt>
      <trkpt lat="41.708774" lon="1.033242">
        <ele>282.138</ele>
        <time>2021-08-19T11:04:09Z</time>
      </trkpt>
      <trkpt lat="41.708739" lon="1.033202">
        <ele>282.119</ele>
        <time>2021-08-19T11:04:11Z</time>
      </trkpt>
      <trkpt lat="41.708684" lon="1.033171">
        <ele>282.253</ele>
        <time>2021-08-19T11:04:13Z</time>
      </trkpt>
      <trkpt lat="41.708643" lon="1.033128">
        <ele>282.144</ele>
        <time>2021-08-19T11:04:15Z</time>
      </trkpt>
      <trkpt lat="41.708592" lon="1.033069">
        <ele>282.050</ele>
        <time>2021-08-19T11:04:18Z</time>
      </trkpt>
      <trkpt lat="41.708562" lon="1.032999">
        <ele>281.825</ele>
        <time>2021-08-19T11:04:21Z</time>
      </trkpt>
      <trkpt lat="41.708522" lon="1.032952">
        <ele>281.696</ele>
        <time>2021-08-19T11:04:25Z</time>
      </trkpt>
      <trkpt lat="41.708485" lon="1.032898">
        <ele>281.412</ele>
        <time>2021-08-19T11:04:50Z</time>
      </trkpt>
      <trkpt lat="41.708436" lon="1.032849">
        <ele>281.342</ele>
        <time>2021-08-19T11:04:53Z</time>
      </trkpt>
      <trkpt lat="41.708378" lon="1.032791">
        <ele>281.022</ele>
        <time>2021-08-19T11:04:56Z</time>
      </trkpt>
      <trkpt lat="41.708333" lon="1.032755">
        <ele>281.114</ele>
        <time>2021-08-19T11:04:58Z</time>
      </trkpt>
      <trkpt lat="41.708282" lon="1.032717">
        <ele>281.209</ele>
        <time>2021-08-19T11:05:01Z</time>
      </trkpt>
      <trkpt lat="41.708227" lon="1.032691">
        <ele>281.395</ele>
        <time>2021-08-19T11:05:04Z</time>
      </trkpt>
      <trkpt lat="41.708178" lon="1.032655">
        <ele>281.436</ele>
        <time>2021-08-19T11:05:08Z</time>
      </trkpt>
      <trkpt lat="41.708122" lon="1.032620">
        <ele>281.657</ele>
        <time>2021-08-19T11:05:11Z</time>
      </trkpt>
      <trkpt lat="41.708077" lon="1.032597">
        <ele>281.771</ele>
        <time>2021-08-19T11:05:13Z</time>
      </trkpt>
      <trkpt lat="41.708032" lon="1.032558">
        <ele>281.992</ele>
        <time>2021-08-19T11:05:15Z</time>
      </trkpt>
      <trkpt lat="41.707977" lon="1.032518">
        <ele>282.218</ele>
        <time>2021-08-19T11:05:18Z</time>
      </trkpt>
      <trkpt lat="41.707931" lon="1.032468">
        <ele>282.563</ele>
        <time>2021-08-19T11:05:21Z</time>
      </trkpt>
      <trkpt lat="41.707877" lon="1.032419">
        <ele>282.814</ele>
        <time>2021-08-19T11:05:23Z</time>
      </trkpt>
      <trkpt lat="41.707835" lon="1.032382">
        <ele>283.170</ele>
        <time>2021-08-19T11:05:25Z</time>
      </trkpt>
      <trkpt lat="41.707784" lon="1.032328">
        <ele>283.616</ele>
        <time>2021-08-19T11:05:28Z</time>
      </trkpt>
      <trkpt lat="41.707749" lon="1.032286">
        <ele>284.076</ele>
        <time>2021-08-19T11:05:30Z</time>
      </trkpt>
      <trkpt lat="41.707713" lon="1.032249">
        <ele>284.313</ele>
        <time>2021-08-19T11:05:32Z</time>
      </trkpt>
      <trkpt lat="41.707670" lon="1.032205">
        <ele>284.809</ele>
        <time>2021-08-19T11:05:35Z</time>
      </trkpt>
      <trkpt lat="41.707629" lon="1.032158">
        <ele>285.152</ele>
        <time>2021-08-19T11:05:37Z</time>
      </trkpt>
      <trkpt lat="41.707588" lon="1.032112">
        <ele>285.493</ele>
        <time>2021-08-19T11:05:41Z</time>
      </trkpt>
      <trkpt lat="41.707564" lon="1.032060">
        <ele>285.574</ele>
        <time>2021-08-19T11:06:17Z</time>
      </trkpt>
      <trkpt lat="41.707521" lon="1.032102">
        <ele>285.898</ele>
        <time>2021-08-19T11:06:19Z</time>
      </trkpt>
      <trkpt lat="41.707489" lon="1.032162">
        <ele>286.079</ele>
        <time>2021-08-19T11:06:21Z</time>
      </trkpt>
      <trkpt lat="41.707456" lon="1.032222">
        <ele>285.875</ele>
        <time>2021-08-19T11:06:23Z</time>
      </trkpt>
      <trkpt lat="41.707425" lon="1.032296">
        <ele>285.320</ele>
        <time>2021-08-19T11:06:25Z</time>
      </trkpt>
      <trkpt lat="41.707390" lon="1.032372">
        <ele>285.011</ele>
        <time>2021-08-19T11:06:27Z</time>
      </trkpt>
      <trkpt lat="41.707355" lon="1.032447">
        <ele>284.787</ele>
        <time>2021-08-19T11:06:29Z</time>
      </trkpt>
      <trkpt lat="41.707318" lon="1.032516">
        <ele>284.692</ele>
        <time>2021-08-19T11:06:31Z</time>
      </trkpt>
      <trkpt lat="41.707283" lon="1.032579">
        <ele>284.773</ele>
        <time>2021-08-19T11:06:33Z</time>
      </trkpt>
      <trkpt lat="41.707260" lon="1.032649">
        <ele>284.720</ele>
        <time>2021-08-19T11:06:35Z</time>
      </trkpt>
      <trkpt lat="41.707226" lon="1.032726">
        <ele>285.009</ele>
        <time>2021-08-19T11:06:37Z</time>
      </trkpt>
      <trkpt lat="41.707190" lon="1.032800">
        <ele>285.220</ele>
        <time>2021-08-19T11:06:39Z</time>
      </trkpt>
      <trkpt lat="41.707164" lon="1.032858">
        <ele>285.481</ele>
        <time>2021-08-19T11:06:41Z</time>
      </trkpt>
      <trkpt lat="41.707130" lon="1.032940">
        <ele>285.722</ele>
        <time>2021-08-19T11:06:43Z</time>
      </trkpt>
      <trkpt lat="41.707107" lon="1.033006">
        <ele>285.926</ele>
        <time>2021-08-19T11:06:45Z</time>
      </trkpt>
      <trkpt lat="41.707083" lon="1.033068">
        <ele>286.017</ele>
        <time>2021-08-19T11:06:47Z</time>
      </trkpt>
      <trkpt lat="41.707037" lon="1.033078">
        <ele>285.913</ele>
        <time>2021-08-19T11:06:50Z</time>
      </trkpt>
      <trkpt lat="41.706994" lon="1.033020">
        <ele>286.038</ele>
        <time>2021-08-19T11:06:53Z</time>
      </trkpt>
      <trkpt lat="41.706942" lon="1.032984">
        <ele>286.069</ele>
        <time>2021-08-19T11:06:55Z</time>
      </trkpt>
      <trkpt lat="41.706882" lon="1.032942">
        <ele>285.565</ele>
        <time>2021-08-19T11:06:57Z</time>
      </trkpt>
      <trkpt lat="41.706834" lon="1.032894">
        <ele>285.031</ele>
        <time>2021-08-19T11:06:59Z</time>
      </trkpt>
      <trkpt lat="41.706787" lon="1.032862">
        <ele>284.561</ele>
        <time>2021-08-19T11:07:01Z</time>
      </trkpt>
      <trkpt lat="41.706743" lon="1.032826">
        <ele>283.907</ele>
        <time>2021-08-19T11:07:03Z</time>
      </trkpt>
      <trkpt lat="41.706692" lon="1.032782">
        <ele>283.309</ele>
        <time>2021-08-19T11:07:05Z</time>
      </trkpt>
      <trkpt lat="41.706644" lon="1.032737">
        <ele>282.484</ele>
        <time>2021-08-19T11:07:07Z</time>
      </trkpt>
      <trkpt lat="41.706603" lon="1.032681">
        <ele>281.575</ele>
        <time>2021-08-19T11:07:09Z</time>
      </trkpt>
      <trkpt lat="41.706568" lon="1.032617">
        <ele>280.676</ele>
        <time>2021-08-19T11:07:11Z</time>
      </trkpt>
      <trkpt lat="41.706530" lon="1.032557">
        <ele>279.890</ele>
        <time>2021-08-19T11:07:13Z</time>
      </trkpt>
      <trkpt lat="41.706501" lon="1.032487">
        <ele>279.291</ele>
        <time>2021-08-19T11:07:15Z</time>
      </trkpt>
      <trkpt lat="41.706457" lon="1.032421">
        <ele>278.787</ele>
        <time>2021-08-19T11:07:17Z</time>
      </trkpt>
      <trkpt lat="41.706430" lon="1.032368">
        <ele>278.482</ele>
        <time>2021-08-19T11:07:18Z</time>
      </trkpt>
      <trkpt lat="41.706409" lon="1.032303">
        <ele>278.243</ele>
        <time>2021-08-19T11:07:20Z</time>
      </trkpt>
      <trkpt lat="41.706373" lon="1.032225">
        <ele>278.089</ele>
        <time>2021-08-19T11:07:22Z</time>
      </trkpt>
      <trkpt lat="41.706349" lon="1.032169">
        <ele>278.268</ele>
        <time>2021-08-19T11:07:23Z</time>
      </trkpt>
      <trkpt lat="41.706319" lon="1.032109">
        <ele>278.342</ele>
        <time>2021-08-19T11:07:24Z</time>
      </trkpt>
      <trkpt lat="41.706282" lon="1.032040">
        <ele>278.426</ele>
        <time>2021-08-19T11:07:26Z</time>
      </trkpt>
      <trkpt lat="41.706253" lon="1.031988">
        <ele>278.409</ele>
        <time>2021-08-19T11:07:27Z</time>
      </trkpt>
      <trkpt lat="41.706217" lon="1.031917">
        <ele>278.447</ele>
        <time>2021-08-19T11:07:29Z</time>
      </trkpt>
      <trkpt lat="41.706183" lon="1.031856">
        <ele>278.348</ele>
        <time>2021-08-19T11:07:30Z</time>
      </trkpt>
      <trkpt lat="41.706146" lon="1.031790">
        <ele>278.279</ele>
        <time>2021-08-19T11:07:32Z</time>
      </trkpt>
      <trkpt lat="41.706114" lon="1.031724">
        <ele>278.053</ele>
        <time>2021-08-19T11:07:34Z</time>
      </trkpt>
      <trkpt lat="41.706080" lon="1.031653">
        <ele>278.034</ele>
        <time>2021-08-19T11:07:36Z</time>
      </trkpt>
      <trkpt lat="41.706046" lon="1.031585">
        <ele>277.920</ele>
        <time>2021-08-19T11:07:38Z</time>
      </trkpt>
      <trkpt lat="41.706008" lon="1.031517">
        <ele>277.895</ele>
        <time>2021-08-19T11:07:41Z</time>
      </trkpt>
      <trkpt lat="41.705966" lon="1.031442">
        <ele>277.676</ele>
        <time>2021-08-19T11:07:44Z</time>
      </trkpt>
      <trkpt lat="41.705934" lon="1.031390">
        <ele>277.482</ele>
        <time>2021-08-19T11:07:46Z</time>
      </trkpt>
      <trkpt lat="41.705907" lon="1.031329">
        <ele>277.398</ele>
        <time>2021-08-19T11:07:48Z</time>
      </trkpt>
      <trkpt lat="41.705868" lon="1.031268">
        <ele>277.115</ele>
        <time>2021-08-19T11:07:50Z</time>
      </trkpt>
      <trkpt lat="41.705833" lon="1.031200">
        <ele>277.026</ele>
        <time>2021-08-19T11:07:52Z</time>
      </trkpt>
      <trkpt lat="41.705800" lon="1.031132">
        <ele>277.109</ele>
        <time>2021-08-19T11:07:54Z</time>
      </trkpt>
      <trkpt lat="41.705765" lon="1.031065">
        <ele>277.280</ele>
        <time>2021-08-19T11:07:56Z</time>
      </trkpt>
      <trkpt lat="41.705738" lon="1.030993">
        <ele>277.261</ele>
        <time>2021-08-19T11:07:58Z</time>
      </trkpt>
      <trkpt lat="41.705700" lon="1.030924">
        <ele>277.242</ele>
        <time>2021-08-19T11:08:00Z</time>
      </trkpt>
      <trkpt lat="41.705667" lon="1.030857">
        <ele>277.176</ele>
        <time>2021-08-19T11:08:02Z</time>
      </trkpt>
      <trkpt lat="41.705637" lon="1.030794">
        <ele>277.127</ele>
        <time>2021-08-19T11:08:04Z</time>
      </trkpt>
      <trkpt lat="41.705599" lon="1.030720">
        <ele>277.363</ele>
        <time>2021-08-19T11:08:06Z</time>
      </trkpt>
      <trkpt lat="41.705565" lon="1.030652">
        <ele>277.698</ele>
        <time>2021-08-19T11:08:08Z</time>
      </trkpt>
      <trkpt lat="41.705529" lon="1.030572">
        <ele>277.999</ele>
        <time>2021-08-19T11:08:10Z</time>
      </trkpt>
      <trkpt lat="41.705499" lon="1.030508">
        <ele>277.885</ele>
        <time>2021-08-19T11:08:12Z</time>
      </trkpt>
      <trkpt lat="41.705467" lon="1.030439">
        <ele>277.781</ele>
        <time>2021-08-19T11:08:14Z</time>
      </trkpt>
      <trkpt lat="41.705437" lon="1.030373">
        <ele>277.661</ele>
        <time>2021-08-19T11:08:16Z</time>
      </trkpt>
      <trkpt lat="41.705401" lon="1.030305">
        <ele>277.417</ele>
        <time>2021-08-19T11:08:18Z</time>
      </trkpt>
      <trkpt lat="41.705373" lon="1.030238">
        <ele>277.309</ele>
        <time>2021-08-19T11:08:20Z</time>
      </trkpt>
      <trkpt lat="41.705341" lon="1.030169">
        <ele>277.229</ele>
        <time>2021-08-19T11:08:22Z</time>
      </trkpt>
      <trkpt lat="41.705308" lon="1.030101">
        <ele>277.190</ele>
        <time>2021-08-19T11:08:24Z</time>
      </trkpt>
      <trkpt lat="41.705274" lon="1.030033">
        <ele>277.051</ele>
        <time>2021-08-19T11:08:26Z</time>
      </trkpt>
      <trkpt lat="41.705245" lon="1.029957">
        <ele>277.045</ele>
        <time>2021-08-19T11:08:28Z</time>
      </trkpt>
      <trkpt lat="41.705216" lon="1.029883">
        <ele>276.876</ele>
        <time>2021-08-19T11:08:30Z</time>
      </trkpt>
      <trkpt lat="41.705180" lon="1.029812">
        <ele>276.772</ele>
        <time>2021-08-19T11:08:32Z</time>
      </trkpt>
      <trkpt lat="41.705147" lon="1.029736">
        <ele>276.557</ele>
        <time>2021-08-19T11:08:34Z</time>
      </trkpt>
      <trkpt lat="41.705116" lon="1.029656">
        <ele>276.248</ele>
        <time>2021-08-19T11:08:36Z</time>
      </trkpt>
      <trkpt lat="41.705080" lon="1.029568">
        <ele>275.864</ele>
        <time>2021-08-19T11:08:38Z</time>
      </trkpt>
      <trkpt lat="41.705043" lon="1.029494">
        <ele>275.368</ele>
        <time>2021-08-19T11:08:40Z</time>
      </trkpt>
      <trkpt lat="41.705008" lon="1.029421">
        <ele>274.842</ele>
        <time>2021-08-19T11:08:42Z</time>
      </trkpt>
      <trkpt lat="41.704968" lon="1.029344">
        <ele>274.526</ele>
        <time>2021-08-19T11:08:44Z</time>
      </trkpt>
      <trkpt lat="41.704930" lon="1.029267">
        <ele>274.209</ele>
        <time>2021-08-19T11:08:46Z</time>
      </trkpt>
      <trkpt lat="41.704894" lon="1.029201">
        <ele>274.087</ele>
        <time>2021-08-19T11:08:48Z</time>
      </trkpt>
      <trkpt lat="41.704862" lon="1.029139">
        <ele>274.098</ele>
        <time>2021-08-19T11:08:50Z</time>
      </trkpt>
      <trkpt lat="41.704829" lon="1.029076">
        <ele>274.459</ele>
        <time>2021-08-19T11:08:52Z</time>
      </trkpt>
      <trkpt lat="41.704787" lon="1.029016">
        <ele>274.763</ele>
        <time>2021-08-19T11:08:54Z</time>
      </trkpt>
      <trkpt lat="41.704750" lon="1.028949">
        <ele>274.954</ele>
        <time>2021-08-19T11:08:56Z</time>
      </trkpt>
      <trkpt lat="41.704711" lon="1.028888">
        <ele>275.150</ele>
        <time>2021-08-19T11:08:58Z</time>
      </trkpt>
      <trkpt lat="41.704679" lon="1.028839">
        <ele>275.685</ele>
        <time>2021-08-19T11:09:00Z</time>
      </trkpt>
      <trkpt lat="41.704632" lon="1.028759">
        <ele>276.116</ele>
        <time>2021-08-19T11:09:02Z</time>
      </trkpt>
      <trkpt lat="41.704594" lon="1.028693">
        <ele>276.412</ele>
        <time>2021-08-19T11:09:04Z</time>
      </trkpt>
      <trkpt lat="41.704562" lon="1.028643">
        <ele>276.693</ele>
        <time>2021-08-19T11:09:06Z</time>
      </trkpt>
      <trkpt lat="41.704520" lon="1.028559">
        <ele>276.665</ele>
        <time>2021-08-19T11:09:08Z</time>
      </trkpt>
      <trkpt lat="41.704486" lon="1.028496">
        <ele>276.521</ele>
        <time>2021-08-19T11:09:10Z</time>
      </trkpt>
      <trkpt lat="41.704449" lon="1.028427">
        <ele>276.309</ele>
        <time>2021-08-19T11:09:13Z</time>
      </trkpt>
      <trkpt lat="41.704420" lon="1.028371">
        <ele>276.270</ele>
        <time>2021-08-19T11:09:15Z</time>
      </trkpt>
      <trkpt lat="41.704394" lon="1.028305">
        <ele>276.191</ele>
        <time>2021-08-19T11:09:17Z</time>
      </trkpt>
      <trkpt lat="41.704372" lon="1.028244">
        <ele>275.972</ele>
        <time>2021-08-19T11:09:19Z</time>
      </trkpt>
      <trkpt lat="41.704344" lon="1.028189">
        <ele>275.866</ele>
        <time>2021-08-19T11:09:21Z</time>
      </trkpt>
      <trkpt lat="41.704322" lon="1.028116">
        <ele>275.787</ele>
        <time>2021-08-19T11:09:23Z</time>
      </trkpt>
      <trkpt lat="41.704293" lon="1.028047">
        <ele>275.523</ele>
        <time>2021-08-19T11:09:25Z</time>
      </trkpt>
      <trkpt lat="41.704260" lon="1.027974">
        <ele>275.558</ele>
        <time>2021-08-19T11:09:27Z</time>
      </trkpt>
      <trkpt lat="41.704229" lon="1.027903">
        <ele>275.449</ele>
        <time>2021-08-19T11:09:29Z</time>
      </trkpt>
      <trkpt lat="41.704201" lon="1.027827">
        <ele>275.285</ele>
        <time>2021-08-19T11:09:31Z</time>
      </trkpt>
      <trkpt lat="41.704172" lon="1.027752">
        <ele>275.036</ele>
        <time>2021-08-19T11:09:33Z</time>
      </trkpt>
      <trkpt lat="41.704143" lon="1.027688">
        <ele>275.117</ele>
        <time>2021-08-19T11:09:35Z</time>
      </trkpt>
      <trkpt lat="41.704113" lon="1.027606">
        <ele>275.218</ele>
        <time>2021-08-19T11:09:37Z</time>
      </trkpt>
      <trkpt lat="41.704084" lon="1.027525">
        <ele>275.309</ele>
        <time>2021-08-19T11:09:39Z</time>
      </trkpt>
      <trkpt lat="41.704057" lon="1.027443">
        <ele>275.484</ele>
        <time>2021-08-19T11:09:41Z</time>
      </trkpt>
      <trkpt lat="41.704033" lon="1.027358">
        <ele>275.515</ele>
        <time>2021-08-19T11:09:43Z</time>
      </trkpt>
      <trkpt lat="41.704005" lon="1.027274">
        <ele>275.646</ele>
        <time>2021-08-19T11:09:45Z</time>
      </trkpt>
      <trkpt lat="41.703976" lon="1.027191">
        <ele>275.840</ele>
        <time>2021-08-19T11:09:47Z</time>
      </trkpt>
      <trkpt lat="41.703954" lon="1.027103">
        <ele>276.241</ele>
        <time>2021-08-19T11:09:49Z</time>
      </trkpt>
      <trkpt lat="41.703930" lon="1.027017">
        <ele>276.697</ele>
        <time>2021-08-19T11:09:51Z</time>
      </trkpt>
      <trkpt lat="41.703906" lon="1.026936">
        <ele>276.922</ele>
        <time>2021-08-19T11:09:53Z</time>
      </trkpt>
      <trkpt lat="41.703886" lon="1.026855">
        <ele>277.023</ele>
        <time>2021-08-19T11:09:55Z</time>
      </trkpt>
      <trkpt lat="41.703867" lon="1.026771">
        <ele>277.059</ele>
        <time>2021-08-19T11:09:57Z</time>
      </trkpt>
      <trkpt lat="41.703842" lon="1.026690">
        <ele>277.028</ele>
        <time>2021-08-19T11:09:59Z</time>
      </trkpt>
      <trkpt lat="41.703824" lon="1.026608">
        <ele>277.089</ele>
        <time>2021-08-19T11:10:01Z</time>
      </trkpt>
      <trkpt lat="41.703805" lon="1.026526">
        <ele>277.017</ele>
        <time>2021-08-19T11:10:03Z</time>
      </trkpt>
      <trkpt lat="41.703789" lon="1.026457">
        <ele>277.009</ele>
        <time>2021-08-19T11:10:05Z</time>
      </trkpt>
      <trkpt lat="41.703769" lon="1.026368">
        <ele>277.143</ele>
        <time>2021-08-19T11:10:07Z</time>
      </trkpt>
      <trkpt lat="41.703747" lon="1.026284">
        <ele>277.494</ele>
        <time>2021-08-19T11:10:09Z</time>
      </trkpt>
      <trkpt lat="41.703725" lon="1.026202">
        <ele>277.665</ele>
        <time>2021-08-19T11:10:11Z</time>
      </trkpt>
      <trkpt lat="41.703706" lon="1.026119">
        <ele>277.749</ele>
        <time>2021-08-19T11:10:13Z</time>
      </trkpt>
      <trkpt lat="41.703683" lon="1.026033">
        <ele>277.890</ele>
        <time>2021-08-19T11:10:15Z</time>
      </trkpt>
      <trkpt lat="41.703662" lon="1.025953">
        <ele>277.916</ele>
        <time>2021-08-19T11:10:17Z</time>
      </trkpt>
      <trkpt lat="41.703636" lon="1.025875">
        <ele>278.031</ele>
        <time>2021-08-19T11:10:19Z</time>
      </trkpt>
      <trkpt lat="41.703613" lon="1.025793">
        <ele>278.092</ele>
        <time>2021-08-19T11:10:21Z</time>
      </trkpt>
      <trkpt lat="41.703589" lon="1.025716">
        <ele>277.948</ele>
        <time>2021-08-19T11:10:23Z</time>
      </trkpt>
      <trkpt lat="41.703562" lon="1.025645">
        <ele>277.854</ele>
        <time>2021-08-19T11:10:25Z</time>
      </trkpt>
      <trkpt lat="41.703537" lon="1.025572">
        <ele>277.756</ele>
        <time>2021-08-19T11:10:27Z</time>
      </trkpt>
      <trkpt lat="41.703510" lon="1.025496">
        <ele>277.611</ele>
        <time>2021-08-19T11:10:29Z</time>
      </trkpt>
      <trkpt lat="41.703492" lon="1.025419">
        <ele>277.609</ele>
        <time>2021-08-19T11:10:31Z</time>
      </trkpt>
      <trkpt lat="41.703467" lon="1.025343">
        <ele>277.526</ele>
        <time>2021-08-19T11:10:33Z</time>
      </trkpt>
      <trkpt lat="41.703443" lon="1.025275">
        <ele>277.447</ele>
        <time>2021-08-19T11:10:35Z</time>
      </trkpt>
      <trkpt lat="41.703416" lon="1.025202">
        <ele>277.448</ele>
        <time>2021-08-19T11:10:37Z</time>
      </trkpt>
      <trkpt lat="41.703387" lon="1.025121">
        <ele>277.392</ele>
        <time>2021-08-19T11:10:39Z</time>
      </trkpt>
      <trkpt lat="41.703361" lon="1.025038">
        <ele>277.293</ele>
        <time>2021-08-19T11:10:41Z</time>
      </trkpt>
      <trkpt lat="41.703339" lon="1.024955">
        <ele>277.039</ele>
        <time>2021-08-19T11:10:43Z</time>
      </trkpt>
      <trkpt lat="41.703310" lon="1.024880">
        <ele>277.034</ele>
        <time>2021-08-19T11:10:45Z</time>
      </trkpt>
      <trkpt lat="41.703286" lon="1.024805">
        <ele>277.015</ele>
        <time>2021-08-19T11:10:47Z</time>
      </trkpt>
      <trkpt lat="41.703263" lon="1.024730">
        <ele>277.021</ele>
        <time>2021-08-19T11:10:49Z</time>
      </trkpt>
      <trkpt lat="41.703251" lon="1.024656">
        <ele>277.016</ele>
        <time>2021-08-19T11:10:51Z</time>
      </trkpt>
      <trkpt lat="41.703234" lon="1.024598">
        <ele>277.076</ele>
        <time>2021-08-19T11:10:53Z</time>
      </trkpt>
      <trkpt lat="41.703210" lon="1.024527">
        <ele>277.013</ele>
        <time>2021-08-19T11:11:16Z</time>
      </trkpt>
      <trkpt lat="41.703199" lon="1.024461">
        <ele>277.009</ele>
        <time>2021-08-19T11:11:18Z</time>
      </trkpt>
      <trkpt lat="41.703186" lon="1.024392">
        <ele>276.922</ele>
        <time>2021-08-19T11:11:20Z</time>
      </trkpt>
      <trkpt lat="41.703180" lon="1.024327">
        <ele>276.833</ele>
        <time>2021-08-19T11:11:22Z</time>
      </trkpt>
      <trkpt lat="41.703167" lon="1.024250">
        <ele>276.754</ele>
        <time>2021-08-19T11:11:24Z</time>
      </trkpt>
      <trkpt lat="41.703152" lon="1.024174">
        <ele>276.788</ele>
        <time>2021-08-19T11:11:26Z</time>
      </trkpt>
      <trkpt lat="41.703140" lon="1.024102">
        <ele>276.529</ele>
        <time>2021-08-19T11:11:28Z</time>
      </trkpt>
      <trkpt lat="41.703131" lon="1.024026">
        <ele>276.445</ele>
        <time>2021-08-19T11:11:29Z</time>
      </trkpt>
      <trkpt lat="41.703119" lon="1.023952">
        <ele>276.270</ele>
        <time>2021-08-19T11:11:31Z</time>
      </trkpt>
      <trkpt lat="41.703102" lon="1.023863">
        <ele>276.041</ele>
        <time>2021-08-19T11:11:33Z</time>
      </trkpt>
      <trkpt lat="41.703091" lon="1.023802">
        <ele>276.037</ele>
        <time>2021-08-19T11:11:34Z</time>
      </trkpt>
      <trkpt lat="41.703075" lon="1.023718">
        <ele>276.068</ele>
        <time>2021-08-19T11:11:36Z</time>
      </trkpt>
      <trkpt lat="41.703058" lon="1.023643">
        <ele>276.042</ele>
        <time>2021-08-19T11:11:38Z</time>
      </trkpt>
      <trkpt lat="41.703036" lon="1.023558">
        <ele>276.226</ele>
        <time>2021-08-19T11:11:40Z</time>
      </trkpt>
      <trkpt lat="41.703018" lon="1.023497">
        <ele>276.409</ele>
        <time>2021-08-19T11:11:42Z</time>
      </trkpt>
      <trkpt lat="41.703002" lon="1.023440">
        <ele>276.617</ele>
        <time>2021-08-19T11:11:43Z</time>
      </trkpt>
      <trkpt lat="41.702983" lon="1.023385">
        <ele>276.848</ele>
        <time>2021-08-19T11:11:44Z</time>
      </trkpt>
      <trkpt lat="41.702955" lon="1.023316">
        <ele>277.089</ele>
        <time>2021-08-19T11:11:46Z</time>
      </trkpt>
      <trkpt lat="41.702928" lon="1.023255">
        <ele>277.263</ele>
        <time>2021-08-19T11:11:48Z</time>
      </trkpt>
      <trkpt lat="41.702895" lon="1.023189">
        <ele>277.274</ele>
        <time>2021-08-19T11:11:50Z</time>
      </trkpt>
      <trkpt lat="41.702864" lon="1.023134">
        <ele>277.240</ele>
        <time>2021-08-19T11:11:51Z</time>
      </trkpt>
      <trkpt lat="41.702827" lon="1.023062">
        <ele>277.245</ele>
        <time>2021-08-19T11:11:53Z</time>
      </trkpt>
      <trkpt lat="41.702794" lon="1.023003">
        <ele>276.916</ele>
        <time>2021-08-19T11:11:55Z</time>
      </trkpt>
      <trkpt lat="41.702755" lon="1.022924">
        <ele>276.582</ele>
        <time>2021-08-19T11:11:57Z</time>
      </trkpt>
      <trkpt lat="41.702728" lon="1.022872">
        <ele>276.312</ele>
        <time>2021-08-19T11:11:58Z</time>
      </trkpt>
      <trkpt lat="41.702688" lon="1.022810">
        <ele>276.132</ele>
        <time>2021-08-19T11:12:00Z</time>
      </trkpt>
      <trkpt lat="41.702639" lon="1.022728">
        <ele>275.805</ele>
        <time>2021-08-19T11:12:02Z</time>
      </trkpt>
      <trkpt lat="41.702606" lon="1.022680">
        <ele>275.609</ele>
        <time>2021-08-19T11:12:03Z</time>
      </trkpt>
      <trkpt lat="41.702559" lon="1.022612">
        <ele>275.462</ele>
        <time>2021-08-19T11:12:05Z</time>
      </trkpt>
      <trkpt lat="41.702520" lon="1.022551">
        <ele>275.253</ele>
        <time>2021-08-19T11:12:07Z</time>
      </trkpt>
      <trkpt lat="41.702483" lon="1.022494">
        <ele>275.054</ele>
        <time>2021-08-19T11:12:09Z</time>
      </trkpt>
      <trkpt lat="41.702448" lon="1.022445">
        <ele>274.698</ele>
        <time>2021-08-19T11:12:10Z</time>
      </trkpt>
      <trkpt lat="41.702395" lon="1.022370">
        <ele>274.279</ele>
        <time>2021-08-19T11:12:12Z</time>
      </trkpt>
      <trkpt lat="41.702345" lon="1.022304">
        <ele>274.015</ele>
        <time>2021-08-19T11:12:14Z</time>
      </trkpt>
      <trkpt lat="41.702298" lon="1.022247">
        <ele>273.840</ele>
        <time>2021-08-19T11:12:16Z</time>
      </trkpt>
      <trkpt lat="41.702252" lon="1.022182">
        <ele>273.951</ele>
        <time>2021-08-19T11:12:18Z</time>
      </trkpt>
      <trkpt lat="41.702200" lon="1.022112">
        <ele>274.137</ele>
        <time>2021-08-19T11:12:20Z</time>
      </trkpt>
      <trkpt lat="41.702153" lon="1.022043">
        <ele>274.229</ele>
        <time>2021-08-19T11:12:22Z</time>
      </trkpt>
      <trkpt lat="41.702105" lon="1.021975">
        <ele>274.400</ele>
        <time>2021-08-19T11:12:24Z</time>
      </trkpt>
      <trkpt lat="41.702057" lon="1.021910">
        <ele>274.720</ele>
        <time>2021-08-19T11:12:26Z</time>
      </trkpt>
      <trkpt lat="41.702017" lon="1.021841">
        <ele>275.109</ele>
        <time>2021-08-19T11:12:28Z</time>
      </trkpt>
      <trkpt lat="41.701975" lon="1.021775">
        <ele>275.533</ele>
        <time>2021-08-19T11:12:30Z</time>
      </trkpt>
      <trkpt lat="41.701924" lon="1.021714">
        <ele>275.914</ele>
        <time>2021-08-19T11:12:32Z</time>
      </trkpt>
      <trkpt lat="41.701885" lon="1.021644">
        <ele>276.175</ele>
        <time>2021-08-19T11:12:34Z</time>
      </trkpt>
      <trkpt lat="41.701845" lon="1.021572">
        <ele>275.839</ele>
        <time>2021-08-19T11:12:36Z</time>
      </trkpt>
      <trkpt lat="41.701795" lon="1.021501">
        <ele>275.350</ele>
        <time>2021-08-19T11:12:38Z</time>
      </trkpt>
      <trkpt lat="41.701746" lon="1.021426">
        <ele>274.696</ele>
        <time>2021-08-19T11:12:40Z</time>
      </trkpt>
      <trkpt lat="41.701716" lon="1.021373">
        <ele>274.161</ele>
        <time>2021-08-19T11:12:42Z</time>
      </trkpt>
      <trkpt lat="41.701679" lon="1.021315">
        <ele>273.572</ele>
        <time>2021-08-19T11:12:43Z</time>
      </trkpt>
      <trkpt lat="41.701638" lon="1.021241">
        <ele>273.038</ele>
        <time>2021-08-19T11:12:45Z</time>
      </trkpt>
      <trkpt lat="41.701593" lon="1.021176">
        <ele>272.712</ele>
        <time>2021-08-19T11:12:47Z</time>
      </trkpt>
      <trkpt lat="41.701549" lon="1.021106">
        <ele>272.432</ele>
        <time>2021-08-19T11:12:49Z</time>
      </trkpt>
      <trkpt lat="41.701497" lon="1.021042">
        <ele>272.705</ele>
        <time>2021-08-19T11:12:51Z</time>
      </trkpt>
      <trkpt lat="41.701455" lon="1.020955">
        <ele>272.909</ele>
        <time>2021-08-19T11:12:53Z</time>
      </trkpt>
      <trkpt lat="41.701419" lon="1.020881">
        <ele>273.052</ele>
        <time>2021-08-19T11:12:55Z</time>
      </trkpt>
      <trkpt lat="41.701388" lon="1.020808">
        <ele>273.193</ele>
        <time>2021-08-19T11:12:57Z</time>
      </trkpt>
      <trkpt lat="41.701349" lon="1.020734">
        <ele>273.524</ele>
        <time>2021-08-19T11:12:59Z</time>
      </trkpt>
      <trkpt lat="41.701320" lon="1.020656">
        <ele>273.858</ele>
        <time>2021-08-19T11:13:01Z</time>
      </trkpt>
      <trkpt lat="41.701285" lon="1.020577">
        <ele>274.059</ele>
        <time>2021-08-19T11:13:03Z</time>
      </trkpt>
      <trkpt lat="41.701246" lon="1.020495">
        <ele>274.115</ele>
        <time>2021-08-19T11:13:05Z</time>
      </trkpt>
      <trkpt lat="41.701201" lon="1.020411">
        <ele>274.230</ele>
        <time>2021-08-19T11:13:07Z</time>
      </trkpt>
      <trkpt lat="41.701161" lon="1.020338">
        <ele>274.161</ele>
        <time>2021-08-19T11:13:09Z</time>
      </trkpt>
      <trkpt lat="41.701128" lon="1.020282">
        <ele>274.117</ele>
        <time>2021-08-19T11:13:11Z</time>
      </trkpt>
      <trkpt lat="41.701082" lon="1.020197">
        <ele>274.469</ele>
        <time>2021-08-19T11:13:13Z</time>
      </trkpt>
      <trkpt lat="41.701037" lon="1.020122">
        <ele>274.604</ele>
        <time>2021-08-19T11:13:15Z</time>
      </trkpt>
      <trkpt lat="41.700993" lon="1.020054">
        <ele>274.524</ele>
        <time>2021-08-19T11:13:17Z</time>
      </trkpt>
      <trkpt lat="41.700951" lon="1.019993">
        <ele>274.309</ele>
        <time>2021-08-19T11:13:19Z</time>
      </trkpt>
      <trkpt lat="41.700908" lon="1.019922">
        <ele>274.087</ele>
        <time>2021-08-19T11:13:21Z</time>
      </trkpt>
      <trkpt lat="41.700869" lon="1.019854">
        <ele>273.888</ele>
        <time>2021-08-19T11:13:23Z</time>
      </trkpt>
      <trkpt lat="41.700822" lon="1.019797">
        <ele>273.799</ele>
        <time>2021-08-19T11:13:25Z</time>
      </trkpt>
      <trkpt lat="41.700790" lon="1.019739">
        <ele>273.893</ele>
        <time>2021-08-19T11:13:27Z</time>
      </trkpt>
      <trkpt lat="41.700762" lon="1.019687">
        <ele>273.984</ele>
        <time>2021-08-19T11:13:29Z</time>
      </trkpt>
      <trkpt lat="41.700712" lon="1.019640">
        <ele>273.920</ele>
        <time>2021-08-19T11:13:32Z</time>
      </trkpt>
      <trkpt lat="41.700660" lon="1.019611">
        <ele>273.825</ele>
        <time>2021-08-19T11:13:59Z</time>
      </trkpt>
      <trkpt lat="41.700622" lon="1.019576">
        <ele>273.856</ele>
        <time>2021-08-19T11:14:00Z</time>
      </trkpt>
      <trkpt lat="41.700578" lon="1.019530">
        <ele>273.892</ele>
        <time>2021-08-19T11:14:03Z</time>
      </trkpt>
      <trkpt lat="41.700533" lon="1.019499">
        <ele>273.962</ele>
        <time>2021-08-19T11:14:05Z</time>
      </trkpt>
      <trkpt lat="41.700487" lon="1.019464">
        <ele>274.283</ele>
        <time>2021-08-19T11:14:08Z</time>
      </trkpt>
      <trkpt lat="41.700445" lon="1.019413">
        <ele>274.511</ele>
        <time>2021-08-19T11:14:10Z</time>
      </trkpt>
      <trkpt lat="41.700405" lon="1.019358">
        <ele>274.909</ele>
        <time>2021-08-19T11:14:12Z</time>
      </trkpt>
      <trkpt lat="41.700371" lon="1.019316">
        <ele>275.157</ele>
        <time>2021-08-19T11:14:14Z</time>
      </trkpt>
      <trkpt lat="41.700339" lon="1.019271">
        <ele>275.418</ele>
        <time>2021-08-19T11:14:16Z</time>
      </trkpt>
      <trkpt lat="41.700296" lon="1.019215">
        <ele>275.879</ele>
        <time>2021-08-19T11:14:18Z</time>
      </trkpt>
      <trkpt lat="41.700253" lon="1.019157">
        <ele>276.083</ele>
        <time>2021-08-19T11:14:20Z</time>
      </trkpt>
      <trkpt lat="41.700221" lon="1.019112">
        <ele>276.274</ele>
        <time>2021-08-19T11:14:22Z</time>
      </trkpt>
      <trkpt lat="41.700186" lon="1.019061">
        <ele>276.340</ele>
        <time>2021-08-19T11:14:24Z</time>
      </trkpt>
      <trkpt lat="41.700149" lon="1.019006">
        <ele>276.375</ele>
        <time>2021-08-19T11:14:26Z</time>
      </trkpt>
      <trkpt lat="41.700120" lon="1.018953">
        <ele>276.346</ele>
        <time>2021-08-19T11:14:28Z</time>
      </trkpt>
      <trkpt lat="41.700074" lon="1.018887">
        <ele>276.392</ele>
        <time>2021-08-19T11:14:30Z</time>
      </trkpt>
      <trkpt lat="41.700046" lon="1.018824">
        <ele>276.133</ele>
        <time>2021-08-19T11:14:32Z</time>
      </trkpt>
      <trkpt lat="41.700010" lon="1.018764">
        <ele>276.023</ele>
        <time>2021-08-19T11:14:34Z</time>
      </trkpt>
      <trkpt lat="41.699974" lon="1.018704">
        <ele>275.815</ele>
        <time>2021-08-19T11:14:36Z</time>
      </trkpt>
      <trkpt lat="41.699936" lon="1.018644">
        <ele>275.609</ele>
        <time>2021-08-19T11:14:38Z</time>
      </trkpt>
      <trkpt lat="41.699905" lon="1.018587">
        <ele>275.284</ele>
        <time>2021-08-19T11:14:40Z</time>
      </trkpt>
      <trkpt lat="41.699877" lon="1.018536">
        <ele>274.785</ele>
        <time>2021-08-19T11:14:42Z</time>
      </trkpt>
      <trkpt lat="41.699842" lon="1.018481">
        <ele>274.246</ele>
        <time>2021-08-19T11:14:43Z</time>
      </trkpt>
      <trkpt lat="41.699811" lon="1.018429">
        <ele>273.870</ele>
        <time>2021-08-19T11:14:45Z</time>
      </trkpt>
      <trkpt lat="41.699774" lon="1.018368">
        <ele>273.311</ele>
        <time>2021-08-19T11:14:47Z</time>
      </trkpt>
      <trkpt lat="41.699740" lon="1.018302">
        <ele>273.027</ele>
        <time>2021-08-19T11:14:49Z</time>
      </trkpt>
      <trkpt lat="41.699710" lon="1.018242">
        <ele>272.692</ele>
        <time>2021-08-19T11:14:51Z</time>
      </trkpt>
      <trkpt lat="41.699678" lon="1.018187">
        <ele>272.483</ele>
        <time>2021-08-19T11:14:52Z</time>
      </trkpt>
      <trkpt lat="41.699646" lon="1.018128">
        <ele>272.289</ele>
        <time>2021-08-19T11:14:54Z</time>
      </trkpt>
      <trkpt lat="41.699609" lon="1.018067">
        <ele>272.064</ele>
        <time>2021-08-19T11:14:56Z</time>
      </trkpt>
      <trkpt lat="41.699575" lon="1.018010">
        <ele>272.106</ele>
        <time>2021-08-19T11:14:58Z</time>
      </trkpt>
      <trkpt lat="41.699538" lon="1.017942">
        <ele>272.116</ele>
        <time>2021-08-19T11:15:00Z</time>
      </trkpt>
      <trkpt lat="41.699507" lon="1.017889">
        <ele>272.109</ele>
        <time>2021-08-19T11:15:01Z</time>
      </trkpt>
      <trkpt lat="41.699466" lon="1.017814">
        <ele>272.117</ele>
        <time>2021-08-19T11:15:04Z</time>
      </trkpt>
      <trkpt lat="41.699434" lon="1.017761">
        <ele>272.118</ele>
        <time>2021-08-19T11:15:06Z</time>
      </trkpt>
      <trkpt lat="41.699404" lon="1.017709">
        <ele>272.269</ele>
        <time>2021-08-19T11:15:07Z</time>
      </trkpt>
      <trkpt lat="41.699369" lon="1.017650">
        <ele>272.563</ele>
        <time>2021-08-19T11:15:09Z</time>
      </trkpt>
      <trkpt lat="41.699333" lon="1.017591">
        <ele>272.724</ele>
        <time>2021-08-19T11:15:11Z</time>
      </trkpt>
      <trkpt lat="41.699291" lon="1.017522">
        <ele>272.930</ele>
        <time>2021-08-19T11:15:13Z</time>
      </trkpt>
      <trkpt lat="41.699258" lon="1.017466">
        <ele>273.165</ele>
        <time>2021-08-19T11:15:15Z</time>
      </trkpt>
      <trkpt lat="41.699221" lon="1.017415">
        <ele>273.366</ele>
        <time>2021-08-19T11:15:16Z</time>
      </trkpt>
      <trkpt lat="41.699180" lon="1.017362">
        <ele>273.552</ele>
        <time>2021-08-19T11:15:18Z</time>
      </trkpt>
      <trkpt lat="41.699138" lon="1.017293">
        <ele>273.747</ele>
        <time>2021-08-19T11:15:20Z</time>
      </trkpt>
      <trkpt lat="41.699090" lon="1.017238">
        <ele>273.929</ele>
        <time>2021-08-19T11:15:22Z</time>
      </trkpt>
      <trkpt lat="41.699049" lon="1.017173">
        <ele>274.221</ele>
        <time>2021-08-19T11:15:24Z</time>
      </trkpt>
      <trkpt lat="41.699008" lon="1.017117">
        <ele>274.409</ele>
        <time>2021-08-19T11:15:26Z</time>
      </trkpt>
      <trkpt lat="41.698974" lon="1.017065">
        <ele>274.685</ele>
        <time>2021-08-19T11:15:28Z</time>
      </trkpt>
      <trkpt lat="41.698933" lon="1.017007">
        <ele>274.876</ele>
        <time>2021-08-19T11:15:30Z</time>
      </trkpt>
      <trkpt lat="41.698887" lon="1.016946">
        <ele>275.077</ele>
        <time>2021-08-19T11:15:32Z</time>
      </trkpt>
      <trkpt lat="41.698850" lon="1.016874">
        <ele>275.171</ele>
        <time>2021-08-19T11:15:34Z</time>
      </trkpt>
      <trkpt lat="41.698802" lon="1.016817">
        <ele>275.152</ele>
        <time>2021-08-19T11:15:36Z</time>
      </trkpt>
      <trkpt lat="41.698759" lon="1.016748">
        <ele>275.268</ele>
        <time>2021-08-19T11:15:38Z</time>
      </trkpt>
      <trkpt lat="41.698718" lon="1.016700">
        <ele>275.393</ele>
        <time>2021-08-19T11:15:40Z</time>
      </trkpt>
      <trkpt lat="41.698663" lon="1.016632">
        <ele>275.284</ele>
        <time>2021-08-19T11:15:42Z</time>
      </trkpt>
      <trkpt lat="41.698613" lon="1.016575">
        <ele>275.020</ele>
        <time>2021-08-19T11:15:44Z</time>
      </trkpt>
      <trkpt lat="41.698563" lon="1.016518">
        <ele>275.069</ele>
        <time>2021-08-19T11:15:46Z</time>
      </trkpt>
      <trkpt lat="41.698517" lon="1.016459">
        <ele>275.004</ele>
        <time>2021-08-19T11:15:48Z</time>
      </trkpt>
      <trkpt lat="41.698469" lon="1.016401">
        <ele>275.024</ele>
        <time>2021-08-19T11:15:50Z</time>
      </trkpt>
      <trkpt lat="41.698416" lon="1.016348">
        <ele>274.909</ele>
        <time>2021-08-19T11:15:52Z</time>
      </trkpt>
      <trkpt lat="41.698370" lon="1.016290">
        <ele>274.697</ele>
        <time>2021-08-19T11:15:54Z</time>
      </trkpt>
      <trkpt lat="41.698325" lon="1.016232">
        <ele>274.448</ele>
        <time>2021-08-19T11:15:56Z</time>
      </trkpt>
      <trkpt lat="41.698282" lon="1.016174">
        <ele>274.299</ele>
        <time>2021-08-19T11:15:58Z</time>
      </trkpt>
      <trkpt lat="41.698233" lon="1.016116">
        <ele>274.083</ele>
        <time>2021-08-19T11:16:00Z</time>
      </trkpt>
      <trkpt lat="41.698182" lon="1.016058">
        <ele>273.714</ele>
        <time>2021-08-19T11:16:02Z</time>
      </trkpt>
      <trkpt lat="41.698131" lon="1.015998">
        <ele>273.530</ele>
        <time>2021-08-19T11:16:04Z</time>
      </trkpt>
      <trkpt lat="41.698086" lon="1.015946">
        <ele>273.315</ele>
        <time>2021-08-19T11:16:06Z</time>
      </trkpt>
      <trkpt lat="41.698046" lon="1.015891">
        <ele>273.216</ele>
        <time>2021-08-19T11:16:08Z</time>
      </trkpt>
      <trkpt lat="41.698001" lon="1.015844">
        <ele>273.262</ele>
        <time>2021-08-19T11:16:10Z</time>
      </trkpt>
      <trkpt lat="41.697942" lon="1.015780">
        <ele>273.394</ele>
        <time>2021-08-19T11:16:12Z</time>
      </trkpt>
      <trkpt lat="41.697896" lon="1.015717">
        <ele>273.357</ele>
        <time>2021-08-19T11:16:14Z</time>
      </trkpt>
      <trkpt lat="41.697849" lon="1.015663">
        <ele>273.322</ele>
        <time>2021-08-19T11:16:16Z</time>
      </trkpt>
      <trkpt lat="41.697799" lon="1.015609">
        <ele>273.209</ele>
        <time>2021-08-19T11:16:18Z</time>
      </trkpt>
      <trkpt lat="41.697755" lon="1.015564">
        <ele>272.990</ele>
        <time>2021-08-19T11:16:20Z</time>
      </trkpt>
      <trkpt lat="41.697709" lon="1.015504">
        <ele>272.751</ele>
        <time>2021-08-19T11:16:22Z</time>
      </trkpt>
      <trkpt lat="41.697658" lon="1.015441">
        <ele>272.482</ele>
        <time>2021-08-19T11:16:24Z</time>
      </trkpt>
      <trkpt lat="41.697613" lon="1.015378">
        <ele>272.056</ele>
        <time>2021-08-19T11:16:26Z</time>
      </trkpt>
      <trkpt lat="41.697563" lon="1.015328">
        <ele>271.697</ele>
        <time>2021-08-19T11:16:28Z</time>
      </trkpt>
      <trkpt lat="41.697519" lon="1.015270">
        <ele>271.163</ele>
        <time>2021-08-19T11:16:30Z</time>
      </trkpt>
      <trkpt lat="41.697470" lon="1.015207">
        <ele>270.788</ele>
        <time>2021-08-19T11:16:32Z</time>
      </trkpt>
      <trkpt lat="41.697418" lon="1.015154">
        <ele>270.459</ele>
        <time>2021-08-19T11:16:34Z</time>
      </trkpt>
      <trkpt lat="41.697371" lon="1.015089">
        <ele>270.275</ele>
        <time>2021-08-19T11:16:36Z</time>
      </trkpt>
      <trkpt lat="41.697321" lon="1.015033">
        <ele>270.077</ele>
        <time>2021-08-19T11:16:38Z</time>
      </trkpt>
      <trkpt lat="41.697278" lon="1.014977">
        <ele>270.061</ele>
        <time>2021-08-19T11:16:40Z</time>
      </trkpt>
      <trkpt lat="41.697234" lon="1.014940">
        <ele>270.027</ele>
        <time>2021-08-19T11:16:42Z</time>
      </trkpt>
      <trkpt lat="41.697193" lon="1.014887">
        <ele>270.109</ele>
        <time>2021-08-19T11:16:44Z</time>
      </trkpt>
      <trkpt lat="41.697145" lon="1.014837">
        <ele>270.328</ele>
        <time>2021-08-19T11:16:46Z</time>
      </trkpt>
      <trkpt lat="41.697094" lon="1.014786">
        <ele>270.539</ele>
        <time>2021-08-19T11:16:48Z</time>
      </trkpt>
      <trkpt lat="41.697042" lon="1.014733">
        <ele>270.660</ele>
        <time>2021-08-19T11:16:50Z</time>
      </trkpt>
      <trkpt lat="41.696991" lon="1.014676">
        <ele>271.014</ele>
        <time>2021-08-19T11:16:52Z</time>
      </trkpt>
      <trkpt lat="41.696940" lon="1.014619">
        <ele>271.435</ele>
        <time>2021-08-19T11:16:54Z</time>
      </trkpt>
      <trkpt lat="41.696892" lon="1.014561">
        <ele>272.041</ele>
        <time>2021-08-19T11:16:56Z</time>
      </trkpt>
      <trkpt lat="41.696843" lon="1.014508">
        <ele>272.686</ele>
        <time>2021-08-19T11:16:58Z</time>
      </trkpt>
      <trkpt lat="41.696794" lon="1.014452">
        <ele>273.137</ele>
        <time>2021-08-19T11:17:00Z</time>
      </trkpt>
      <trkpt lat="41.696747" lon="1.014393">
        <ele>273.743</ele>
        <time>2021-08-19T11:17:02Z</time>
      </trkpt>
      <trkpt lat="41.696697" lon="1.014335">
        <ele>274.231</ele>
        <time>2021-08-19T11:17:04Z</time>
      </trkpt>
      <trkpt lat="41.696646" lon="1.014276">
        <ele>274.461</ele>
        <time>2021-08-19T11:17:06Z</time>
      </trkpt>
      <trkpt lat="41.696595" lon="1.014219">
        <ele>274.107</ele>
        <time>2021-08-19T11:17:08Z</time>
      </trkpt>
      <trkpt lat="41.696543" lon="1.014157">
        <ele>273.709</ele>
        <time>2021-08-19T11:17:10Z</time>
      </trkpt>
      <trkpt lat="41.696487" lon="1.014092">
        <ele>273.114</ele>
        <time>2021-08-19T11:17:12Z</time>
      </trkpt>
      <trkpt lat="41.696435" lon="1.014034">
        <ele>272.855</ele>
        <time>2021-08-19T11:17:14Z</time>
      </trkpt>
      <trkpt lat="41.696386" lon="1.013975">
        <ele>272.786</ele>
        <time>2021-08-19T11:17:16Z</time>
      </trkpt>
      <trkpt lat="41.696338" lon="1.013911">
        <ele>272.690</ele>
        <time>2021-08-19T11:17:18Z</time>
      </trkpt>
      <trkpt lat="41.696296" lon="1.013853">
        <ele>272.571</ele>
        <time>2021-08-19T11:17:20Z</time>
      </trkpt>
      <trkpt lat="41.696257" lon="1.013795">
        <ele>272.537</ele>
        <time>2021-08-19T11:17:22Z</time>
      </trkpt>
      <trkpt lat="41.696214" lon="1.013743">
        <ele>272.662</ele>
        <time>2021-08-19T11:17:24Z</time>
      </trkpt>
      <trkpt lat="41.696177" lon="1.013679">
        <ele>272.853</ele>
        <time>2021-08-19T11:17:26Z</time>
      </trkpt>
      <trkpt lat="41.696135" lon="1.013619">
        <ele>273.079</ele>
        <time>2021-08-19T11:17:28Z</time>
      </trkpt>
      <trkpt lat="41.696096" lon="1.013558">
        <ele>273.242</ele>
        <time>2021-08-19T11:17:30Z</time>
      </trkpt>
      <trkpt lat="41.696056" lon="1.013494">
        <ele>273.322</ele>
        <time>2021-08-19T11:17:32Z</time>
      </trkpt>
      <trkpt lat="41.696016" lon="1.013431">
        <ele>273.414</ele>
        <time>2021-08-19T11:17:34Z</time>
      </trkpt>
      <trkpt lat="41.695976" lon="1.013366">
        <ele>273.509</ele>
        <time>2021-08-19T11:17:36Z</time>
      </trkpt>
      <trkpt lat="41.695941" lon="1.013298">
        <ele>273.395</ele>
        <time>2021-08-19T11:17:38Z</time>
      </trkpt>
      <trkpt lat="41.695909" lon="1.013240">
        <ele>272.976</ele>
        <time>2021-08-19T11:17:40Z</time>
      </trkpt>
      <trkpt lat="41.695871" lon="1.013171">
        <ele>272.687</ele>
        <time>2021-08-19T11:17:42Z</time>
      </trkpt>
      <trkpt lat="41.695833" lon="1.013107">
        <ele>272.231</ele>
        <time>2021-08-19T11:17:44Z</time>
      </trkpt>
      <trkpt lat="41.695797" lon="1.013043">
        <ele>272.082</ele>
        <time>2021-08-19T11:17:46Z</time>
      </trkpt>
      <trkpt lat="41.695767" lon="1.012981">
        <ele>272.318</ele>
        <time>2021-08-19T11:17:48Z</time>
      </trkpt>
      <trkpt lat="41.695737" lon="1.012929">
        <ele>272.513</ele>
        <time>2021-08-19T11:17:51Z</time>
      </trkpt>
      <trkpt lat="41.695765" lon="1.012984">
        <ele>272.384</ele>
        <time>2021-08-19T11:17:57Z</time>
      </trkpt>
      <trkpt lat="41.695726" lon="1.012946">
        <ele>272.450</ele>
        <time>2021-08-19T11:18:00Z</time>
      </trkpt>
      <trkpt lat="41.695685" lon="1.012885">
        <ele>272.613</ele>
        <time>2021-08-19T11:18:01Z</time>
      </trkpt>
      <trkpt lat="41.695635" lon="1.012809">
        <ele>272.943</ele>
        <time>2021-08-19T11:18:03Z</time>
      </trkpt>
      <trkpt lat="41.695593" lon="1.012751">
        <ele>273.107</ele>
        <time>2021-08-19T11:18:05Z</time>
      </trkpt>
      <trkpt lat="41.695533" lon="1.012682">
        <ele>273.309</ele>
        <time>2021-08-19T11:18:07Z</time>
      </trkpt>
      <trkpt lat="41.695499" lon="1.012593">
        <ele>273.772</ele>
        <time>2021-08-19T11:18:09Z</time>
      </trkpt>
      <trkpt lat="41.695464" lon="1.012545">
        <ele>273.853</ele>
        <time>2021-08-19T11:18:11Z</time>
      </trkpt>
      <trkpt lat="41.695417" lon="1.012503">
        <ele>274.044</ele>
        <time>2021-08-19T11:18:13Z</time>
      </trkpt>
      <trkpt lat="41.695378" lon="1.012455">
        <ele>274.048</ele>
        <time>2021-08-19T11:18:15Z</time>
      </trkpt>
      <trkpt lat="41.695349" lon="1.012408">
        <ele>274.029</ele>
        <time>2021-08-19T11:18:17Z</time>
      </trkpt>
      <trkpt lat="41.695317" lon="1.012364">
        <ele>274.055</ele>
        <time>2021-08-19T11:19:18Z</time>
      </trkpt>
      <trkpt lat="41.695283" lon="1.012307">
        <ele>274.040</ele>
        <time>2021-08-19T11:19:21Z</time>
      </trkpt>
      <trkpt lat="41.695236" lon="1.012271">
        <ele>274.031</ele>
        <time>2021-08-19T11:19:26Z</time>
      </trkpt>
      <trkpt lat="41.695198" lon="1.012206">
        <ele>274.087</ele>
        <time>2021-08-19T11:19:28Z</time>
      </trkpt>
      <trkpt lat="41.695157" lon="1.012142">
        <ele>274.069</ele>
        <time>2021-08-19T11:19:30Z</time>
      </trkpt>
      <trkpt lat="41.695119" lon="1.012099">
        <ele>274.004</ele>
        <time>2021-08-19T11:19:32Z</time>
      </trkpt>
      <trkpt lat="41.695081" lon="1.012047">
        <ele>274.024</ele>
        <time>2021-08-19T11:19:34Z</time>
      </trkpt>
      <trkpt lat="41.695047" lon="1.011999">
        <ele>274.009</ele>
        <time>2021-08-19T11:19:36Z</time>
      </trkpt>
      <trkpt lat="41.695010" lon="1.011944">
        <ele>274.087</ele>
        <time>2021-08-19T11:19:38Z</time>
      </trkpt>
      <trkpt lat="41.694971" lon="1.011897">
        <ele>273.868</ele>
        <time>2021-08-19T11:19:40Z</time>
      </trkpt>
      <trkpt lat="41.694916" lon="1.011837">
        <ele>273.759</ele>
        <time>2021-08-19T11:19:43Z</time>
      </trkpt>
      <trkpt lat="41.694876" lon="1.011787">
        <ele>273.743</ele>
        <time>2021-08-19T11:19:45Z</time>
      </trkpt>
      <trkpt lat="41.694831" lon="1.011727">
        <ele>273.724</ele>
        <time>2021-08-19T11:19:47Z</time>
      </trkpt>
      <trkpt lat="41.694783" lon="1.011673">
        <ele>273.840</ele>
        <time>2021-08-19T11:19:49Z</time>
      </trkpt>
      <trkpt lat="41.694734" lon="1.011620">
        <ele>273.885</ele>
        <time>2021-08-19T11:19:51Z</time>
      </trkpt>
      <trkpt lat="41.694686" lon="1.011569">
        <ele>273.776</ele>
        <time>2021-08-19T11:19:53Z</time>
      </trkpt>
      <trkpt lat="41.694641" lon="1.011512">
        <ele>273.832</ele>
        <time>2021-08-19T11:19:55Z</time>
      </trkpt>
      <trkpt lat="41.694592" lon="1.011462">
        <ele>274.082</ele>
        <time>2021-08-19T11:19:57Z</time>
      </trkpt>
      <trkpt lat="41.694542" lon="1.011419">
        <ele>274.343</ele>
        <time>2021-08-19T11:19:59Z</time>
      </trkpt>
      <trkpt lat="41.694499" lon="1.011379">
        <ele>274.517</ele>
        <time>2021-08-19T11:20:01Z</time>
      </trkpt>
      <trkpt lat="41.694455" lon="1.011329">
        <ele>274.509</ele>
        <time>2021-08-19T11:20:03Z</time>
      </trkpt>
      <trkpt lat="41.694419" lon="1.011278">
        <ele>274.119</ele>
        <time>2021-08-19T11:20:05Z</time>
      </trkpt>
      <trkpt lat="41.694384" lon="1.011214">
        <ele>273.750</ele>
        <time>2021-08-19T11:20:08Z</time>
      </trkpt>
      <trkpt lat="41.694386" lon="1.011148">
        <ele>273.221</ele>
        <time>2021-08-19T11:20:12Z</time>
      </trkpt>
      <trkpt lat="41.694338" lon="1.011123">
        <ele>273.155</ele>
        <time>2021-08-19T11:20:38Z</time>
      </trkpt>
      <trkpt lat="41.694323" lon="1.011065">
        <ele>272.956</ele>
        <time>2021-08-19T11:20:40Z</time>
      </trkpt>
      <trkpt lat="41.694308" lon="1.011002">
        <ele>272.862</ele>
        <time>2021-08-19T11:20:42Z</time>
      </trkpt>
      <trkpt lat="41.694277" lon="1.010928">
        <ele>272.687</ele>
        <time>2021-08-19T11:20:44Z</time>
      </trkpt>
      <trkpt lat="41.694257" lon="1.010871">
        <ele>272.498</ele>
        <time>2021-08-19T11:20:46Z</time>
      </trkpt>
      <trkpt lat="41.694229" lon="1.010819">
        <ele>272.264</ele>
        <time>2021-08-19T11:20:48Z</time>
      </trkpt>
      <trkpt lat="41.694194" lon="1.010762">
        <ele>272.186</ele>
        <time>2021-08-19T11:20:50Z</time>
      </trkpt>
      <trkpt lat="41.694163" lon="1.010710">
        <ele>272.060</ele>
        <time>2021-08-19T11:20:52Z</time>
      </trkpt>
      <trkpt lat="41.694127" lon="1.010663">
        <ele>272.126</ele>
        <time>2021-08-19T11:20:54Z</time>
      </trkpt>
      <trkpt lat="41.694086" lon="1.010603">
        <ele>272.109</ele>
        <time>2021-08-19T11:20:57Z</time>
      </trkpt>
      <trkpt lat="41.694052" lon="1.010562">
        <ele>272.049</ele>
        <time>2021-08-19T11:20:59Z</time>
      </trkpt>
      <trkpt lat="41.694020" lon="1.010500">
        <ele>272.090</ele>
        <time>2021-08-19T11:21:01Z</time>
      </trkpt>
      <trkpt lat="41.693983" lon="1.010444">
        <ele>272.121</ele>
        <time>2021-08-19T11:21:03Z</time>
      </trkpt>
      <trkpt lat="41.693957" lon="1.010383">
        <ele>272.375</ele>
        <time>2021-08-19T11:21:06Z</time>
      </trkpt>
      <trkpt lat="41.693936" lon="1.010303">
        <ele>272.646</ele>
        <time>2021-08-19T11:21:08Z</time>
      </trkpt>
      <trkpt lat="41.693931" lon="1.010243">
        <ele>272.632</ele>
        <time>2021-08-19T11:21:10Z</time>
      </trkpt>
      <trkpt lat="41.693932" lon="1.010170">
        <ele>272.497</ele>
        <time>2021-08-19T11:21:12Z</time>
      </trkpt>
      <trkpt lat="41.693940" lon="1.010104">
        <ele>272.178</ele>
        <time>2021-08-19T11:21:14Z</time>
      </trkpt>
      <trkpt lat="41.693948" lon="1.010040">
        <ele>271.924</ele>
        <time>2021-08-19T11:21:16Z</time>
      </trkpt>
      <trkpt lat="41.693966" lon="1.009979">
        <ele>271.719</ele>
        <time>2021-08-19T11:21:18Z</time>
      </trkpt>
      <trkpt lat="41.693983" lon="1.009917">
        <ele>271.709</ele>
        <time>2021-08-19T11:21:20Z</time>
      </trkpt>
      <trkpt lat="41.694007" lon="1.009841">
        <ele>271.619</ele>
        <time>2021-08-19T11:21:23Z</time>
      </trkpt>
      <trkpt lat="41.694028" lon="1.009777">
        <ele>271.509</ele>
        <time>2021-08-19T11:21:25Z</time>
      </trkpt>
      <trkpt lat="41.694046" lon="1.009703">
        <ele>271.422</ele>
        <time>2021-08-19T11:21:27Z</time>
      </trkpt>
      <trkpt lat="41.694057" lon="1.009644">
        <ele>271.573</ele>
        <time>2021-08-19T11:21:29Z</time>
      </trkpt>
      <trkpt lat="41.694060" lon="1.009573">
        <ele>271.524</ele>
        <time>2021-08-19T11:21:31Z</time>
      </trkpt>
      <trkpt lat="41.694059" lon="1.009500">
        <ele>271.618</ele>
        <time>2021-08-19T11:21:33Z</time>
      </trkpt>
      <trkpt lat="41.694051" lon="1.009427">
        <ele>271.629</ele>
        <time>2021-08-19T11:21:35Z</time>
      </trkpt>
      <trkpt lat="41.694036" lon="1.009361">
        <ele>271.525</ele>
        <time>2021-08-19T11:21:37Z</time>
      </trkpt>
      <trkpt lat="41.694010" lon="1.009303">
        <ele>271.440</ele>
        <time>2021-08-19T11:21:39Z</time>
      </trkpt>
      <trkpt lat="41.693973" lon="1.009249">
        <ele>271.331</ele>
        <time>2021-08-19T11:21:41Z</time>
      </trkpt>
      <trkpt lat="41.693935" lon="1.009197">
        <ele>271.257</ele>
        <time>2021-08-19T11:21:43Z</time>
      </trkpt>
      <trkpt lat="41.693895" lon="1.009144">
        <ele>270.964</ele>
        <time>2021-08-19T11:21:45Z</time>
      </trkpt>
      <trkpt lat="41.693860" lon="1.009095">
        <ele>270.806</ele>
        <time>2021-08-19T11:21:47Z</time>
      </trkpt>
      <trkpt lat="41.693826" lon="1.009043">
        <ele>270.816</ele>
        <time>2021-08-19T11:21:49Z</time>
      </trkpt>
      <trkpt lat="41.693793" lon="1.008987">
        <ele>270.809</ele>
        <time>2021-08-19T11:21:51Z</time>
      </trkpt>
      <trkpt lat="41.693756" lon="1.008935">
        <ele>271.017</ele>
        <time>2021-08-19T11:21:53Z</time>
      </trkpt>
      <trkpt lat="41.693721" lon="1.008879">
        <ele>271.238</ele>
        <time>2021-08-19T11:21:55Z</time>
      </trkpt>
      <trkpt lat="41.693686" lon="1.008822">
        <ele>271.339</ele>
        <time>2021-08-19T11:21:57Z</time>
      </trkpt>
      <trkpt lat="41.693647" lon="1.008773">
        <ele>271.493</ele>
        <time>2021-08-19T11:21:59Z</time>
      </trkpt>
      <trkpt lat="41.693616" lon="1.008714">
        <ele>271.344</ele>
        <time>2021-08-19T11:22:01Z</time>
      </trkpt>
      <trkpt lat="41.693586" lon="1.008658">
        <ele>271.350</ele>
        <time>2021-08-19T11:22:03Z</time>
      </trkpt>
      <trkpt lat="41.693543" lon="1.008594">
        <ele>271.555</ele>
        <time>2021-08-19T11:22:05Z</time>
      </trkpt>
      <trkpt lat="41.693506" lon="1.008535">
        <ele>271.746</ele>
        <time>2021-08-19T11:22:07Z</time>
      </trkpt>
      <trkpt lat="41.693468" lon="1.008475">
        <ele>271.812</ele>
        <time>2021-08-19T11:22:09Z</time>
      </trkpt>
      <trkpt lat="41.693431" lon="1.008415">
        <ele>271.877</ele>
        <time>2021-08-19T11:22:11Z</time>
      </trkpt>
      <trkpt lat="41.693393" lon="1.008358">
        <ele>271.961</ele>
        <time>2021-08-19T11:22:13Z</time>
      </trkpt>
      <trkpt lat="41.693355" lon="1.008302">
        <ele>271.827</ele>
        <time>2021-08-19T11:22:15Z</time>
      </trkpt>
      <trkpt lat="41.693318" lon="1.008247">
        <ele>271.709</ele>
        <time>2021-08-19T11:22:17Z</time>
      </trkpt>
      <trkpt lat="41.693280" lon="1.008192">
        <ele>271.538</ele>
        <time>2021-08-19T11:22:19Z</time>
      </trkpt>
      <trkpt lat="41.693240" lon="1.008137">
        <ele>271.399</ele>
        <time>2021-08-19T11:22:21Z</time>
      </trkpt>
      <trkpt lat="41.693201" lon="1.008078">
        <ele>271.180</ele>
        <time>2021-08-19T11:22:23Z</time>
      </trkpt>
      <trkpt lat="41.693164" lon="1.008019">
        <ele>270.924</ele>
        <time>2021-08-19T11:22:25Z</time>
      </trkpt>
      <trkpt lat="41.693125" lon="1.007961">
        <ele>270.955</ele>
        <time>2021-08-19T11:22:27Z</time>
      </trkpt>
      <trkpt lat="41.693083" lon="1.007914">
        <ele>270.931</ele>
        <time>2021-08-19T11:22:29Z</time>
      </trkpt>
      <trkpt lat="41.693045" lon="1.007861">
        <ele>271.126</ele>
        <time>2021-08-19T11:22:31Z</time>
      </trkpt>
      <trkpt lat="41.692992" lon="1.007789">
        <ele>271.577</ele>
        <time>2021-08-19T11:22:34Z</time>
      </trkpt>
      <trkpt lat="41.692952" lon="1.007733">
        <ele>271.713</ele>
        <time>2021-08-19T11:22:36Z</time>
      </trkpt>
      <trkpt lat="41.692912" lon="1.007682">
        <ele>272.053</ele>
        <time>2021-08-19T11:22:38Z</time>
      </trkpt>
      <trkpt lat="41.692876" lon="1.007630">
        <ele>272.304</ele>
        <time>2021-08-19T11:22:40Z</time>
      </trkpt>
      <trkpt lat="41.692831" lon="1.007589">
        <ele>272.614</ele>
        <time>2021-08-19T11:22:42Z</time>
      </trkpt>
      <trkpt lat="41.692797" lon="1.007535">
        <ele>272.909</ele>
        <time>2021-08-19T11:22:44Z</time>
      </trkpt>
      <trkpt lat="41.692762" lon="1.007479">
        <ele>273.026</ele>
        <time>2021-08-19T11:22:46Z</time>
      </trkpt>
      <trkpt lat="41.692727" lon="1.007428">
        <ele>272.917</ele>
        <time>2021-08-19T11:22:48Z</time>
      </trkpt>
      <trkpt lat="41.692685" lon="1.007377">
        <ele>272.968</ele>
        <time>2021-08-19T11:22:50Z</time>
      </trkpt>
      <trkpt lat="41.692644" lon="1.007326">
        <ele>272.912</ele>
        <time>2021-08-19T11:22:52Z</time>
      </trkpt>
      <trkpt lat="41.692604" lon="1.007274">
        <ele>272.843</ele>
        <time>2021-08-19T11:22:54Z</time>
      </trkpt>
      <trkpt lat="41.692564" lon="1.007221">
        <ele>272.889</ele>
        <time>2021-08-19T11:22:56Z</time>
      </trkpt>
      <trkpt lat="41.692524" lon="1.007169">
        <ele>273.124</ele>
        <time>2021-08-19T11:22:58Z</time>
      </trkpt>
      <trkpt lat="41.692487" lon="1.007113">
        <ele>273.425</ele>
        <time>2021-08-19T11:23:00Z</time>
      </trkpt>
      <trkpt lat="41.692451" lon="1.007063">
        <ele>273.671</ele>
        <time>2021-08-19T11:23:02Z</time>
      </trkpt>
      <trkpt lat="41.692411" lon="1.007014">
        <ele>273.887</ele>
        <time>2021-08-19T11:23:04Z</time>
      </trkpt>
      <trkpt lat="41.692368" lon="1.006967">
        <ele>274.042</ele>
        <time>2021-08-19T11:23:06Z</time>
      </trkpt>
      <trkpt lat="41.692330" lon="1.006916">
        <ele>274.026</ele>
        <time>2021-08-19T11:23:08Z</time>
      </trkpt>
      <trkpt lat="41.692295" lon="1.006866">
        <ele>274.009</ele>
        <time>2021-08-19T11:23:10Z</time>
      </trkpt>
      <trkpt lat="41.692262" lon="1.006816">
        <ele>274.099</ele>
        <time>2021-08-19T11:23:12Z</time>
      </trkpt>
      <trkpt lat="41.692229" lon="1.006772">
        <ele>274.040</ele>
        <time>2021-08-19T11:23:14Z</time>
      </trkpt>
      <trkpt lat="41.692190" lon="1.006733">
        <ele>273.851</ele>
        <time>2021-08-19T11:25:29Z</time>
      </trkpt>
      <trkpt lat="41.692150" lon="1.006685">
        <ele>273.565</ele>
        <time>2021-08-19T11:25:32Z</time>
      </trkpt>
      <trkpt lat="41.692093" lon="1.006653">
        <ele>273.096</ele>
        <time>2021-08-19T11:25:36Z</time>
      </trkpt>
      <trkpt lat="41.692064" lon="1.006590">
        <ele>272.652</ele>
        <time>2021-08-19T11:25:38Z</time>
      </trkpt>
      <trkpt lat="41.692033" lon="1.006538">
        <ele>272.277</ele>
        <time>2021-08-19T11:25:40Z</time>
      </trkpt>
      <trkpt lat="41.691994" lon="1.006477">
        <ele>271.748</ele>
        <time>2021-08-19T11:25:42Z</time>
      </trkpt>
      <trkpt lat="41.691956" lon="1.006422">
        <ele>271.254</ele>
        <time>2021-08-19T11:25:44Z</time>
      </trkpt>
      <trkpt lat="41.691924" lon="1.006369">
        <ele>270.988</ele>
        <time>2021-08-19T11:25:46Z</time>
      </trkpt>
      <trkpt lat="41.691882" lon="1.006321">
        <ele>270.824</ele>
        <time>2021-08-19T11:25:48Z</time>
      </trkpt>
      <trkpt lat="41.691843" lon="1.006265">
        <ele>270.626</ele>
        <time>2021-08-19T11:25:50Z</time>
      </trkpt>
      <trkpt lat="41.691805" lon="1.006204">
        <ele>270.309</ele>
        <time>2021-08-19T11:25:52Z</time>
      </trkpt>
      <trkpt lat="41.691765" lon="1.006145">
        <ele>270.129</ele>
        <time>2021-08-19T11:25:54Z</time>
      </trkpt>
      <trkpt lat="41.691730" lon="1.006080">
        <ele>270.140</ele>
        <time>2021-08-19T11:25:56Z</time>
      </trkpt>
      <trkpt lat="41.691693" lon="1.006019">
        <ele>270.381</ele>
        <time>2021-08-19T11:25:58Z</time>
      </trkpt>
      <trkpt lat="41.691666" lon="1.005970">
        <ele>270.545</ele>
        <time>2021-08-19T11:26:00Z</time>
      </trkpt>
      <trkpt lat="41.691627" lon="1.005908">
        <ele>270.866</ele>
        <time>2021-08-19T11:26:02Z</time>
      </trkpt>
      <trkpt lat="41.691589" lon="1.005842">
        <ele>271.082</ele>
        <time>2021-08-19T11:26:04Z</time>
      </trkpt>
      <trkpt lat="41.691553" lon="1.005781">
        <ele>271.157</ele>
        <time>2021-08-19T11:26:06Z</time>
      </trkpt>
      <trkpt lat="41.691518" lon="1.005720">
        <ele>271.298</ele>
        <time>2021-08-19T11:26:08Z</time>
      </trkpt>
      <trkpt lat="41.691484" lon="1.005660">
        <ele>271.494</ele>
        <time>2021-08-19T11:26:10Z</time>
      </trkpt>
      <trkpt lat="41.691451" lon="1.005598">
        <ele>271.745</ele>
        <time>2021-08-19T11:26:12Z</time>
      </trkpt>
      <trkpt lat="41.691416" lon="1.005535">
        <ele>271.947</ele>
        <time>2021-08-19T11:26:14Z</time>
      </trkpt>
      <trkpt lat="41.691381" lon="1.005475">
        <ele>272.011</ele>
        <time>2021-08-19T11:26:16Z</time>
      </trkpt>
      <trkpt lat="41.691348" lon="1.005420">
        <ele>272.109</ele>
        <time>2021-08-19T11:26:18Z</time>
      </trkpt>
      <trkpt lat="41.691313" lon="1.005363">
        <ele>272.335</ele>
        <time>2021-08-19T11:26:20Z</time>
      </trkpt>
      <trkpt lat="41.691279" lon="1.005297">
        <ele>272.436</ele>
        <time>2021-08-19T11:26:22Z</time>
      </trkpt>
      <trkpt lat="41.691240" lon="1.005233">
        <ele>272.667</ele>
        <time>2021-08-19T11:26:24Z</time>
      </trkpt>
      <trkpt lat="41.691207" lon="1.005169">
        <ele>272.871</ele>
        <time>2021-08-19T11:26:26Z</time>
      </trkpt>
      <trkpt lat="41.691170" lon="1.005112">
        <ele>272.952</ele>
        <time>2021-08-19T11:26:28Z</time>
      </trkpt>
      <trkpt lat="41.691135" lon="1.005045">
        <ele>273.058</ele>
        <time>2021-08-19T11:26:30Z</time>
      </trkpt>
      <trkpt lat="41.691103" lon="1.004996">
        <ele>273.043</ele>
        <time>2021-08-19T11:26:32Z</time>
      </trkpt>
      <trkpt lat="41.691066" lon="1.004931">
        <ele>272.814</ele>
        <time>2021-08-19T11:26:34Z</time>
      </trkpt>
      <trkpt lat="41.691028" lon="1.004871">
        <ele>272.670</ele>
        <time>2021-08-19T11:26:36Z</time>
      </trkpt>
      <trkpt lat="41.690994" lon="1.004812">
        <ele>272.329</ele>
        <time>2021-08-19T11:26:38Z</time>
      </trkpt>
      <trkpt lat="41.690958" lon="1.004754">
        <ele>272.000</ele>
        <time>2021-08-19T11:26:40Z</time>
      </trkpt>
      <trkpt lat="41.690924" lon="1.004694">
        <ele>271.620</ele>
        <time>2021-08-19T11:26:42Z</time>
      </trkpt>
      <trkpt lat="41.690890" lon="1.004632">
        <ele>271.309</ele>
        <time>2021-08-19T11:26:44Z</time>
      </trkpt>
      <trkpt lat="41.690854" lon="1.004572">
        <ele>271.133</ele>
        <time>2021-08-19T11:26:46Z</time>
      </trkpt>
      <trkpt lat="41.690820" lon="1.004512">
        <ele>271.054</ele>
        <time>2021-08-19T11:26:48Z</time>
      </trkpt>
      <trkpt lat="41.690787" lon="1.004455">
        <ele>271.045</ele>
        <time>2021-08-19T11:26:50Z</time>
      </trkpt>
      <trkpt lat="41.690749" lon="1.004404">
        <ele>270.949</ele>
        <time>2021-08-19T11:26:52Z</time>
      </trkpt>
      <trkpt lat="41.690717" lon="1.004340">
        <ele>270.630</ele>
        <time>2021-08-19T11:26:54Z</time>
      </trkpt>
      <trkpt lat="41.690674" lon="1.004293">
        <ele>270.556</ele>
        <time>2021-08-19T11:26:56Z</time>
      </trkpt>
      <trkpt lat="41.690639" lon="1.004239">
        <ele>270.341</ele>
        <time>2021-08-19T11:26:58Z</time>
      </trkpt>
      <trkpt lat="41.690605" lon="1.004184">
        <ele>270.112</ele>
        <time>2021-08-19T11:27:00Z</time>
      </trkpt>
      <trkpt lat="41.690568" lon="1.004130">
        <ele>269.948</ele>
        <time>2021-08-19T11:27:02Z</time>
      </trkpt>
      <trkpt lat="41.690539" lon="1.004080">
        <ele>269.834</ele>
        <time>2021-08-19T11:27:04Z</time>
      </trkpt>
      <trkpt lat="41.690502" lon="1.004017">
        <ele>269.855</ele>
        <time>2021-08-19T11:27:06Z</time>
      </trkpt>
      <trkpt lat="41.690460" lon="1.003968">
        <ele>269.910</ele>
        <time>2021-08-19T11:27:08Z</time>
      </trkpt>
      <trkpt lat="41.690426" lon="1.003905">
        <ele>270.009</ele>
        <time>2021-08-19T11:27:10Z</time>
      </trkpt>
      <trkpt lat="41.690387" lon="1.003844">
        <ele>270.214</ele>
        <time>2021-08-19T11:27:12Z</time>
      </trkpt>
      <trkpt lat="41.690352" lon="1.003779">
        <ele>270.515</ele>
        <time>2021-08-19T11:27:14Z</time>
      </trkpt>
      <trkpt lat="41.690319" lon="1.003721">
        <ele>270.766</ele>
        <time>2021-08-19T11:27:16Z</time>
      </trkpt>
      <trkpt lat="41.690283" lon="1.003661">
        <ele>271.060</ele>
        <time>2021-08-19T11:27:18Z</time>
      </trkpt>
      <trkpt lat="41.690244" lon="1.003605">
        <ele>271.121</ele>
        <time>2021-08-19T11:27:20Z</time>
      </trkpt>
      <trkpt lat="41.690207" lon="1.003550">
        <ele>271.037</ele>
        <time>2021-08-19T11:27:22Z</time>
      </trkpt>
      <trkpt lat="41.690173" lon="1.003490">
        <ele>270.982</ele>
        <time>2021-08-19T11:27:24Z</time>
      </trkpt>
      <trkpt lat="41.690143" lon="1.003429">
        <ele>270.863</ele>
        <time>2021-08-19T11:27:26Z</time>
      </trkpt>
      <trkpt lat="41.690112" lon="1.003368">
        <ele>270.759</ele>
        <time>2021-08-19T11:27:28Z</time>
      </trkpt>
      <trkpt lat="41.690075" lon="1.003307">
        <ele>270.751</ele>
        <time>2021-08-19T11:27:30Z</time>
      </trkpt>
      <trkpt lat="41.690038" lon="1.003244">
        <ele>270.901</ele>
        <time>2021-08-19T11:27:32Z</time>
      </trkpt>
      <trkpt lat="41.690002" lon="1.003192">
        <ele>271.011</ele>
        <time>2021-08-19T11:27:34Z</time>
      </trkpt>
      <trkpt lat="41.689960" lon="1.003126">
        <ele>271.009</ele>
        <time>2021-08-19T11:27:36Z</time>
      </trkpt>
      <trkpt lat="41.689922" lon="1.003070">
        <ele>271.076</ele>
        <time>2021-08-19T11:27:38Z</time>
      </trkpt>
      <trkpt lat="41.689888" lon="1.003015">
        <ele>271.057</ele>
        <time>2021-08-19T11:27:40Z</time>
      </trkpt>
      <trkpt lat="41.689858" lon="1.002965">
        <ele>271.068</ele>
        <time>2021-08-19T11:27:42Z</time>
      </trkpt>
      <trkpt lat="41.689814" lon="1.002902">
        <ele>271.022</ele>
        <time>2021-08-19T11:27:45Z</time>
      </trkpt>
      <trkpt lat="41.689777" lon="1.002863">
        <ele>271.053</ele>
        <time>2021-08-19T11:27:48Z</time>
      </trkpt>
      <trkpt lat="41.689740" lon="1.002772">
        <ele>271.059</ele>
        <time>2021-08-19T11:27:51Z</time>
      </trkpt>
      <trkpt lat="41.689685" lon="1.002648">
        <ele>270.954</ele>
        <time>2021-08-19T11:27:53Z</time>
      </trkpt>
      <trkpt lat="41.689630" lon="1.002533">
        <ele>270.765</ele>
        <time>2021-08-19T11:27:55Z</time>
      </trkpt>
      <trkpt lat="41.689580" lon="1.002418">
        <ele>270.341</ele>
        <time>2021-08-19T11:27:57Z</time>
      </trkpt>
      <trkpt lat="41.689549" lon="1.002339">
        <ele>270.288</ele>
        <time>2021-08-19T11:27:59Z</time>
      </trkpt>
      <trkpt lat="41.689528" lon="1.002282">
        <ele>270.124</ele>
        <time>2021-08-19T11:28:00Z</time>
      </trkpt>
      <trkpt lat="41.689503" lon="1.002229">
        <ele>270.026</ele>
        <time>2021-08-19T11:28:01Z</time>
      </trkpt>
      <trkpt lat="41.689469" lon="1.002151">
        <ele>270.009</ele>
        <time>2021-08-19T11:28:03Z</time>
      </trkpt>
      <trkpt lat="41.689444" lon="1.002091">
        <ele>270.089</ele>
        <time>2021-08-19T11:28:04Z</time>
      </trkpt>
      <trkpt lat="41.689401" lon="1.001990">
        <ele>269.750</ele>
        <time>2021-08-19T11:28:06Z</time>
      </trkpt>
      <trkpt lat="41.689369" lon="1.001895">
        <ele>269.681</ele>
        <time>2021-08-19T11:28:08Z</time>
      </trkpt>
      <trkpt lat="41.689344" lon="1.001789">
        <ele>269.815</ele>
        <time>2021-08-19T11:28:10Z</time>
      </trkpt>
      <trkpt lat="41.689320" lon="1.001684">
        <ele>270.096</ele>
        <time>2021-08-19T11:28:12Z</time>
      </trkpt>
      <trkpt lat="41.689296" lon="1.001579">
        <ele>269.922</ele>
        <time>2021-08-19T11:28:14Z</time>
      </trkpt>
      <trkpt lat="41.689278" lon="1.001474">
        <ele>269.867</ele>
        <time>2021-08-19T11:28:16Z</time>
      </trkpt>
      <trkpt lat="41.689254" lon="1.001381">
        <ele>269.628</ele>
        <time>2021-08-19T11:28:18Z</time>
      </trkpt>
      <trkpt lat="41.689239" lon="1.001293">
        <ele>269.894</ele>
        <time>2021-08-19T11:28:20Z</time>
      </trkpt>
      <trkpt lat="41.689217" lon="1.001201">
        <ele>269.941</ele>
        <time>2021-08-19T11:28:22Z</time>
      </trkpt>
      <trkpt lat="41.689187" lon="1.001103">
        <ele>270.181</ele>
        <time>2021-08-19T11:28:24Z</time>
      </trkpt>
      <trkpt lat="41.689162" lon="1.000997">
        <ele>270.009</ele>
        <time>2021-08-19T11:28:26Z</time>
      </trkpt>
      <trkpt lat="41.689133" lon="1.000898">
        <ele>270.009</ele>
        <time>2021-08-19T11:28:28Z</time>
      </trkpt>
      <trkpt lat="41.689113" lon="1.000812">
        <ele>270.185</ele>
        <time>2021-08-19T11:28:30Z</time>
      </trkpt>
      <trkpt lat="41.689097" lon="1.000729">
        <ele>270.336</ele>
        <time>2021-08-19T11:28:32Z</time>
      </trkpt>
      <trkpt lat="41.689085" lon="1.000660">
        <ele>270.417</ele>
        <time>2021-08-19T11:28:34Z</time>
      </trkpt>
      <trkpt lat="41.689064" lon="1.000570">
        <ele>270.671</ele>
        <time>2021-08-19T11:28:36Z</time>
      </trkpt>
      <trkpt lat="41.689037" lon="1.000489">
        <ele>270.432</ele>
        <time>2021-08-19T11:28:38Z</time>
      </trkpt>
      <trkpt lat="41.689016" lon="1.000396">
        <ele>270.218</ele>
        <time>2021-08-19T11:28:40Z</time>
      </trkpt>
      <trkpt lat="41.688994" lon="1.000302">
        <ele>270.053</ele>
        <time>2021-08-19T11:28:42Z</time>
      </trkpt>
      <trkpt lat="41.688977" lon="1.000204">
        <ele>270.144</ele>
        <time>2021-08-19T11:28:44Z</time>
      </trkpt>
      <trkpt lat="41.688970" lon="1.000109">
        <ele>270.280</ele>
        <time>2021-08-19T11:28:46Z</time>
      </trkpt>
      <trkpt lat="41.688967" lon="1.000018">
        <ele>270.369</ele>
        <time>2021-08-19T11:28:48Z</time>
      </trkpt>
      <trkpt lat="41.688952" lon="0.999930">
        <ele>270.204</ele>
        <time>2021-08-19T11:28:50Z</time>
      </trkpt>
      <trkpt lat="41.688926" lon="0.999843">
        <ele>270.124</ele>
        <time>2021-08-19T11:28:52Z</time>
      </trkpt>
      <trkpt lat="41.688884" lon="0.999766">
        <ele>270.009</ele>
        <time>2021-08-19T11:28:54Z</time>
      </trkpt>
      <trkpt lat="41.688826" lon="0.999696">
        <ele>269.757</ele>
        <time>2021-08-19T11:28:56Z</time>
      </trkpt>
      <trkpt lat="41.688752" lon="0.999650">
        <ele>269.458</ele>
        <time>2021-08-19T11:28:58Z</time>
      </trkpt>
      <trkpt lat="41.688678" lon="0.999627">
        <ele>269.239</ele>
        <time>2021-08-19T11:29:00Z</time>
      </trkpt>
      <trkpt lat="41.688603" lon="0.999603">
        <ele>269.153</ele>
        <time>2021-08-19T11:29:02Z</time>
      </trkpt>
      <trkpt lat="41.688550" lon="0.999581">
        <ele>269.424</ele>
        <time>2021-08-19T11:29:04Z</time>
      </trkpt>
      <trkpt lat="41.688489" lon="0.999555">
        <ele>269.910</ele>
        <time>2021-08-19T11:29:05Z</time>
      </trkpt>
      <trkpt lat="41.688415" lon="0.999510">
        <ele>270.425</ele>
        <time>2021-08-19T11:29:07Z</time>
      </trkpt>
      <trkpt lat="41.688350" lon="0.999467">
        <ele>270.916</ele>
        <time>2021-08-19T11:29:09Z</time>
      </trkpt>
      <trkpt lat="41.688281" lon="0.999425">
        <ele>270.972</ele>
        <time>2021-08-19T11:29:11Z</time>
      </trkpt>
      <trkpt lat="41.688219" lon="0.999380">
        <ele>270.856</ele>
        <time>2021-08-19T11:29:13Z</time>
      </trkpt>
      <trkpt lat="41.688161" lon="0.999332">
        <ele>270.659</ele>
        <time>2021-08-19T11:29:15Z</time>
      </trkpt>
      <trkpt lat="41.688106" lon="0.999286">
        <ele>270.414</ele>
        <time>2021-08-19T11:29:17Z</time>
      </trkpt>
      <trkpt lat="41.688050" lon="0.999240">
        <ele>270.209</ele>
        <time>2021-08-19T11:29:19Z</time>
      </trkpt>
      <trkpt lat="41.688001" lon="0.999197">
        <ele>269.996</ele>
        <time>2021-08-19T11:29:21Z</time>
      </trkpt>
      <trkpt lat="41.687950" lon="0.999149">
        <ele>269.677</ele>
        <time>2021-08-19T11:29:23Z</time>
      </trkpt>
      <trkpt lat="41.687902" lon="0.999087">
        <ele>269.378</ele>
        <time>2021-08-19T11:29:25Z</time>
      </trkpt>
      <trkpt lat="41.687857" lon="0.999030">
        <ele>269.112</ele>
        <time>2021-08-19T11:29:27Z</time>
      </trkpt>
      <trkpt lat="41.687809" lon="0.998972">
        <ele>269.053</ele>
        <time>2021-08-19T11:29:29Z</time>
      </trkpt>
      <trkpt lat="41.687776" lon="0.998895">
        <ele>269.029</ele>
        <time>2021-08-19T11:29:31Z</time>
      </trkpt>
      <trkpt lat="41.687752" lon="0.998826">
        <ele>269.084</ele>
        <time>2021-08-19T11:29:33Z</time>
      </trkpt>
      <trkpt lat="41.687720" lon="0.998739">
        <ele>269.045</ele>
        <time>2021-08-19T11:29:35Z</time>
      </trkpt>
      <trkpt lat="41.687688" lon="0.998659">
        <ele>269.041</ele>
        <time>2021-08-19T11:29:37Z</time>
      </trkpt>
      <trkpt lat="41.687655" lon="0.998583">
        <ele>268.943</ele>
        <time>2021-08-19T11:29:39Z</time>
      </trkpt>
      <trkpt lat="41.687630" lon="0.998502">
        <ele>268.864</ele>
        <time>2021-08-19T11:29:41Z</time>
      </trkpt>
      <trkpt lat="41.687603" lon="0.998430">
        <ele>268.810</ele>
        <time>2021-08-19T11:29:43Z</time>
      </trkpt>
      <trkpt lat="41.687564" lon="0.998365">
        <ele>268.809</ele>
        <time>2021-08-19T11:29:45Z</time>
      </trkpt>
      <trkpt lat="41.687533" lon="0.998300">
        <ele>268.895</ele>
        <time>2021-08-19T11:29:47Z</time>
      </trkpt>
      <trkpt lat="41.687491" lon="0.998239">
        <ele>268.616</ele>
        <time>2021-08-19T11:29:49Z</time>
      </trkpt>
      <trkpt lat="41.687452" lon="0.998180">
        <ele>268.427</ele>
        <time>2021-08-19T11:29:51Z</time>
      </trkpt>
      <trkpt lat="41.687414" lon="0.998119">
        <ele>268.261</ele>
        <time>2021-08-19T11:29:53Z</time>
      </trkpt>
      <trkpt lat="41.687377" lon="0.998060">
        <ele>268.082</ele>
        <time>2021-08-19T11:29:55Z</time>
      </trkpt>
      <trkpt lat="41.687334" lon="0.998000">
        <ele>268.028</ele>
        <time>2021-08-19T11:29:57Z</time>
      </trkpt>
      <trkpt lat="41.687299" lon="0.997933">
        <ele>268.043</ele>
        <time>2021-08-19T11:29:59Z</time>
      </trkpt>
      <trkpt lat="41.687265" lon="0.997869">
        <ele>268.094</ele>
        <time>2021-08-19T11:30:01Z</time>
      </trkpt>
      <trkpt lat="41.687243" lon="0.997812">
        <ele>268.040</ele>
        <time>2021-08-19T11:30:03Z</time>
      </trkpt>
      <trkpt lat="41.687225" lon="0.997743">
        <ele>268.139</ele>
        <time>2021-08-19T11:30:05Z</time>
      </trkpt>
      <trkpt lat="41.687208" lon="0.997665">
        <ele>268.401</ele>
        <time>2021-08-19T11:30:07Z</time>
      </trkpt>
      <trkpt lat="41.687200" lon="0.997576">
        <ele>268.721</ele>
        <time>2021-08-19T11:30:09Z</time>
      </trkpt>
      <trkpt lat="41.687198" lon="0.997485">
        <ele>269.109</ele>
        <time>2021-08-19T11:30:11Z</time>
      </trkpt>
      <trkpt lat="41.687194" lon="0.997395">
        <ele>269.484</ele>
        <time>2021-08-19T11:30:13Z</time>
      </trkpt>
      <trkpt lat="41.687192" lon="0.997302">
        <ele>269.735</ele>
        <time>2021-08-19T11:30:15Z</time>
      </trkpt>
      <trkpt lat="41.687196" lon="0.997206">
        <ele>269.926</ele>
        <time>2021-08-19T11:30:17Z</time>
      </trkpt>
      <trkpt lat="41.687195" lon="0.997112">
        <ele>269.680</ele>
        <time>2021-08-19T11:30:19Z</time>
      </trkpt>
      <trkpt lat="41.687192" lon="0.997025">
        <ele>269.471</ele>
        <time>2021-08-19T11:30:21Z</time>
      </trkpt>
      <trkpt lat="41.687196" lon="0.996939">
        <ele>269.177</ele>
        <time>2021-08-19T11:30:23Z</time>
      </trkpt>
      <trkpt lat="41.687197" lon="0.996848">
        <ele>269.162</ele>
        <time>2021-08-19T11:30:25Z</time>
      </trkpt>
      <trkpt lat="41.687198" lon="0.996749">
        <ele>269.083</ele>
        <time>2021-08-19T11:30:27Z</time>
      </trkpt>
      <trkpt lat="41.687193" lon="0.996651">
        <ele>269.049</ele>
        <time>2021-08-19T11:30:29Z</time>
      </trkpt>
      <trkpt lat="41.687189" lon="0.996554">
        <ele>269.071</ele>
        <time>2021-08-19T11:30:31Z</time>
      </trkpt>
      <trkpt lat="41.687187" lon="0.996474">
        <ele>268.941</ele>
        <time>2021-08-19T11:30:33Z</time>
      </trkpt>
      <trkpt lat="41.687190" lon="0.996389">
        <ele>268.915</ele>
        <time>2021-08-19T11:30:35Z</time>
      </trkpt>
      <trkpt lat="41.687191" lon="0.996298">
        <ele>268.609</ele>
        <time>2021-08-19T11:30:37Z</time>
      </trkpt>
      <trkpt lat="41.687189" lon="0.996206">
        <ele>268.328</ele>
        <time>2021-08-19T11:30:39Z</time>
      </trkpt>
      <trkpt lat="41.687192" lon="0.996118">
        <ele>268.039</ele>
        <time>2021-08-19T11:30:41Z</time>
      </trkpt>
      <trkpt lat="41.687188" lon="0.996030">
        <ele>267.780</ele>
        <time>2021-08-19T11:30:43Z</time>
      </trkpt>
      <trkpt lat="41.687185" lon="0.995938">
        <ele>267.584</ele>
        <time>2021-08-19T11:30:45Z</time>
      </trkpt>
      <trkpt lat="41.687183" lon="0.995844">
        <ele>267.265</ele>
        <time>2021-08-19T11:30:47Z</time>
      </trkpt>
      <trkpt lat="41.687179" lon="0.995745">
        <ele>267.211</ele>
        <time>2021-08-19T11:30:49Z</time>
      </trkpt>
      <trkpt lat="41.687171" lon="0.995646">
        <ele>267.216</ele>
        <time>2021-08-19T11:30:51Z</time>
      </trkpt>
      <trkpt lat="41.687163" lon="0.995550">
        <ele>267.237</ele>
        <time>2021-08-19T11:30:53Z</time>
      </trkpt>
      <trkpt lat="41.687155" lon="0.995459">
        <ele>267.223</ele>
        <time>2021-08-19T11:30:55Z</time>
      </trkpt>
      <trkpt lat="41.687151" lon="0.995372">
        <ele>267.358</ele>
        <time>2021-08-19T11:30:57Z</time>
      </trkpt>
      <trkpt lat="41.687139" lon="0.995287">
        <ele>267.352</ele>
        <time>2021-08-19T11:30:59Z</time>
      </trkpt>
      <trkpt lat="41.687136" lon="0.995198">
        <ele>267.317</ele>
        <time>2021-08-19T11:31:01Z</time>
      </trkpt>
      <trkpt lat="41.687137" lon="0.995120">
        <ele>267.309</ele>
        <time>2021-08-19T11:31:03Z</time>
      </trkpt>
      <trkpt lat="41.687122" lon="0.995031">
        <ele>267.426</ele>
        <time>2021-08-19T11:31:05Z</time>
      </trkpt>
      <trkpt lat="41.687119" lon="0.994944">
        <ele>267.317</ele>
        <time>2021-08-19T11:31:07Z</time>
      </trkpt>
      <trkpt lat="41.687124" lon="0.994856">
        <ele>267.278</ele>
        <time>2021-08-19T11:31:09Z</time>
      </trkpt>
      <trkpt lat="41.687117" lon="0.994768">
        <ele>267.162</ele>
        <time>2021-08-19T11:31:11Z</time>
      </trkpt>
      <trkpt lat="41.687122" lon="0.994679">
        <ele>267.163</ele>
        <time>2021-08-19T11:31:13Z</time>
      </trkpt>
      <trkpt lat="41.687127" lon="0.994591">
        <ele>267.289</ele>
        <time>2021-08-19T11:31:15Z</time>
      </trkpt>
      <trkpt lat="41.687139" lon="0.994504">
        <ele>267.294</ele>
        <time>2021-08-19T11:31:17Z</time>
      </trkpt>
      <trkpt lat="41.687141" lon="0.994413">
        <ele>267.455</ele>
        <time>2021-08-19T11:31:19Z</time>
      </trkpt>
      <trkpt lat="41.687151" lon="0.994329">
        <ele>267.671</ele>
        <time>2021-08-19T11:31:21Z</time>
      </trkpt>
      <trkpt lat="41.687163" lon="0.994247">
        <ele>267.886</ele>
        <time>2021-08-19T11:31:23Z</time>
      </trkpt>
      <trkpt lat="41.687165" lon="0.994164">
        <ele>268.060</ele>
        <time>2021-08-19T11:31:25Z</time>
      </trkpt>
      <trkpt lat="41.687162" lon="0.994094">
        <ele>268.026</ele>
        <time>2021-08-19T11:31:27Z</time>
      </trkpt>
      <trkpt lat="41.687149" lon="0.994012">
        <ele>268.009</ele>
        <time>2021-08-19T11:31:29Z</time>
      </trkpt>
      <trkpt lat="41.687132" lon="0.993943">
        <ele>268.029</ele>
        <time>2021-08-19T11:31:31Z</time>
      </trkpt>
      <trkpt lat="41.687104" lon="0.993890">
        <ele>268.070</ele>
        <time>2021-08-19T11:31:33Z</time>
      </trkpt>
      <trkpt lat="41.687065" lon="0.993845">
        <ele>267.981</ele>
        <time>2021-08-19T11:31:35Z</time>
      </trkpt>
      <trkpt lat="41.687013" lon="0.993788">
        <ele>267.745</ele>
        <time>2021-08-19T11:31:37Z</time>
      </trkpt>
      <trkpt lat="41.686967" lon="0.993738">
        <ele>267.546</ele>
        <time>2021-08-19T11:31:39Z</time>
      </trkpt>
      <trkpt lat="41.686928" lon="0.993680">
        <ele>267.182</ele>
        <time>2021-08-19T11:31:41Z</time>
      </trkpt>
      <trkpt lat="41.686883" lon="0.993621">
        <ele>266.677</ele>
        <time>2021-08-19T11:31:43Z</time>
      </trkpt>
      <trkpt lat="41.686834" lon="0.993562">
        <ele>266.288</ele>
        <time>2021-08-19T11:31:45Z</time>
      </trkpt>
      <trkpt lat="41.686790" lon="0.993505">
        <ele>265.984</ele>
        <time>2021-08-19T11:31:47Z</time>
      </trkpt>
      <trkpt lat="41.686751" lon="0.993447">
        <ele>265.649</ele>
        <time>2021-08-19T11:31:49Z</time>
      </trkpt>
      <trkpt lat="41.686706" lon="0.993389">
        <ele>265.302</ele>
        <time>2021-08-19T11:31:51Z</time>
      </trkpt>
      <trkpt lat="41.686664" lon="0.993331">
        <ele>265.022</ele>
        <time>2021-08-19T11:31:53Z</time>
      </trkpt>
      <trkpt lat="41.686619" lon="0.993269">
        <ele>265.409</ele>
        <time>2021-08-19T11:31:55Z</time>
      </trkpt>
      <trkpt lat="41.686574" lon="0.993205">
        <ele>265.895</ele>
        <time>2021-08-19T11:31:57Z</time>
      </trkpt>
      <trkpt lat="41.686526" lon="0.993145">
        <ele>266.056</ele>
        <time>2021-08-19T11:31:59Z</time>
      </trkpt>
      <trkpt lat="41.686479" lon="0.993081">
        <ele>266.227</ele>
        <time>2021-08-19T11:32:01Z</time>
      </trkpt>
      <trkpt lat="41.686431" lon="0.993019">
        <ele>266.331</ele>
        <time>2021-08-19T11:32:03Z</time>
      </trkpt>
      <trkpt lat="41.686381" lon="0.992956">
        <ele>266.452</ele>
        <time>2021-08-19T11:32:05Z</time>
      </trkpt>
      <trkpt lat="41.686327" lon="0.992886">
        <ele>266.818</ele>
        <time>2021-08-19T11:32:07Z</time>
      </trkpt>
      <trkpt lat="41.686278" lon="0.992828">
        <ele>267.233</ele>
        <time>2021-08-19T11:32:09Z</time>
      </trkpt>
      <trkpt lat="41.686232" lon="0.992766">
        <ele>267.674</ele>
        <time>2021-08-19T11:32:11Z</time>
      </trkpt>
      <trkpt lat="41.686183" lon="0.992708">
        <ele>267.760</ele>
        <time>2021-08-19T11:32:13Z</time>
      </trkpt>
      <trkpt lat="41.686138" lon="0.992658">
        <ele>267.945</ele>
        <time>2021-08-19T11:32:15Z</time>
      </trkpt>
      <trkpt lat="41.686097" lon="0.992609">
        <ele>268.047</ele>
        <time>2021-08-19T11:32:17Z</time>
      </trkpt>
      <trkpt lat="41.686058" lon="0.992558">
        <ele>268.011</ele>
        <time>2021-08-19T11:32:19Z</time>
      </trkpt>
      <trkpt lat="41.686011" lon="0.992510">
        <ele>268.009</ele>
        <time>2021-08-19T11:32:21Z</time>
      </trkpt>
      <trkpt lat="41.685969" lon="0.992460">
        <ele>267.965</ele>
        <time>2021-08-19T11:32:23Z</time>
      </trkpt>
      <trkpt lat="41.685922" lon="0.992416">
        <ele>267.816</ele>
        <time>2021-08-19T11:32:25Z</time>
      </trkpt>
      <trkpt lat="41.685873" lon="0.992370">
        <ele>267.937</ele>
        <time>2021-08-19T11:32:27Z</time>
      </trkpt>
      <trkpt lat="41.685826" lon="0.992320">
        <ele>268.041</ele>
        <time>2021-08-19T11:32:29Z</time>
      </trkpt>
      <trkpt lat="41.685780" lon="0.992268">
        <ele>267.822</ele>
        <time>2021-08-19T11:32:31Z</time>
      </trkpt>
      <trkpt lat="41.685735" lon="0.992219">
        <ele>267.688</ele>
        <time>2021-08-19T11:32:33Z</time>
      </trkpt>
      <trkpt lat="41.685696" lon="0.992178">
        <ele>267.333</ele>
        <time>2021-08-19T11:32:35Z</time>
      </trkpt>
      <trkpt lat="41.685646" lon="0.992123">
        <ele>266.994</ele>
        <time>2021-08-19T11:32:37Z</time>
      </trkpt>
      <trkpt lat="41.685609" lon="0.992076">
        <ele>266.610</ele>
        <time>2021-08-19T11:32:39Z</time>
      </trkpt>
      <trkpt lat="41.685571" lon="0.992029">
        <ele>266.387</ele>
        <time>2021-08-19T11:32:41Z</time>
      </trkpt>
      <trkpt lat="41.685534" lon="0.991981">
        <ele>266.142</ele>
        <time>2021-08-19T11:32:43Z</time>
      </trkpt>
      <trkpt lat="41.685497" lon="0.991933">
        <ele>265.726</ele>
        <time>2021-08-19T11:32:45Z</time>
      </trkpt>
      <trkpt lat="41.685453" lon="0.991878">
        <ele>265.209</ele>
        <time>2021-08-19T11:32:47Z</time>
      </trkpt>
      <trkpt lat="41.685415" lon="0.991820">
        <ele>264.879</ele>
        <time>2021-08-19T11:32:49Z</time>
      </trkpt>
      <trkpt lat="41.685373" lon="0.991774">
        <ele>264.560</ele>
        <time>2021-08-19T11:32:51Z</time>
      </trkpt>
      <trkpt lat="41.685328" lon="0.991723">
        <ele>264.231</ele>
        <time>2021-08-19T11:32:53Z</time>
      </trkpt>
      <trkpt lat="41.685291" lon="0.991665">
        <ele>264.065</ele>
        <time>2021-08-19T11:32:55Z</time>
      </trkpt>
      <trkpt lat="41.685252" lon="0.991610">
        <ele>264.196</ele>
        <time>2021-08-19T11:32:57Z</time>
      </trkpt>
      <trkpt lat="41.685210" lon="0.991551">
        <ele>264.222</ele>
        <time>2021-08-19T11:32:59Z</time>
      </trkpt>
      <trkpt lat="41.685173" lon="0.991483">
        <ele>264.427</ele>
        <time>2021-08-19T11:33:01Z</time>
      </trkpt>
      <trkpt lat="41.685133" lon="0.991424">
        <ele>264.598</ele>
        <time>2021-08-19T11:33:03Z</time>
      </trkpt>
      <trkpt lat="41.685104" lon="0.991366">
        <ele>264.744</ele>
        <time>2021-08-19T11:33:05Z</time>
      </trkpt>
      <trkpt lat="41.685068" lon="0.991295">
        <ele>265.011</ele>
        <time>2021-08-19T11:33:07Z</time>
      </trkpt>
      <trkpt lat="41.685035" lon="0.991226">
        <ele>265.421</ele>
        <time>2021-08-19T11:33:09Z</time>
      </trkpt>
      <trkpt lat="41.685011" lon="0.991158">
        <ele>265.803</ele>
        <time>2021-08-19T11:33:11Z</time>
      </trkpt>
      <trkpt lat="41.684986" lon="0.991090">
        <ele>265.909</ele>
        <time>2021-08-19T11:33:13Z</time>
      </trkpt>
      <trkpt lat="41.684965" lon="0.991021">
        <ele>265.722</ele>
        <time>2021-08-19T11:33:15Z</time>
      </trkpt>
      <trkpt lat="41.684942" lon="0.990949">
        <ele>265.553</ele>
        <time>2021-08-19T11:33:17Z</time>
      </trkpt>
      <trkpt lat="41.684924" lon="0.990879">
        <ele>265.454</ele>
        <time>2021-08-19T11:33:19Z</time>
      </trkpt>
      <trkpt lat="41.684906" lon="0.990807">
        <ele>265.358</ele>
        <time>2021-08-19T11:33:21Z</time>
      </trkpt>
      <trkpt lat="41.684887" lon="0.990733">
        <ele>265.489</ele>
        <time>2021-08-19T11:33:23Z</time>
      </trkpt>
      <trkpt lat="41.684872" lon="0.990658">
        <ele>265.585</ele>
        <time>2021-08-19T11:33:25Z</time>
      </trkpt>
      <trkpt lat="41.684852" lon="0.990585">
        <ele>265.570</ele>
        <time>2021-08-19T11:33:27Z</time>
      </trkpt>
      <trkpt lat="41.684829" lon="0.990506">
        <ele>265.561</ele>
        <time>2021-08-19T11:33:29Z</time>
      </trkpt>
      <trkpt lat="41.684804" lon="0.990441">
        <ele>265.467</ele>
        <time>2021-08-19T11:33:31Z</time>
      </trkpt>
      <trkpt lat="41.684786" lon="0.990380">
        <ele>265.338</ele>
        <time>2021-08-19T11:33:33Z</time>
      </trkpt>
      <trkpt lat="41.684758" lon="0.990291">
        <ele>265.070</ele>
        <time>2021-08-19T11:33:36Z</time>
      </trkpt>
      <trkpt lat="41.684730" lon="0.990229">
        <ele>265.217</ele>
        <time>2021-08-19T11:33:38Z</time>
      </trkpt>
      <trkpt lat="41.684708" lon="0.990162">
        <ele>265.409</ele>
        <time>2021-08-19T11:33:40Z</time>
      </trkpt>
      <trkpt lat="41.684680" lon="0.990095">
        <ele>265.664</ele>
        <time>2021-08-19T11:33:42Z</time>
      </trkpt>
      <trkpt lat="41.684656" lon="0.990039">
        <ele>265.795</ele>
        <time>2021-08-19T11:33:44Z</time>
      </trkpt>
      <trkpt lat="41.684631" lon="0.989978">
        <ele>265.756</ele>
        <time>2021-08-19T11:33:46Z</time>
      </trkpt>
      <trkpt lat="41.684610" lon="0.989915">
        <ele>265.720</ele>
        <time>2021-08-19T11:33:48Z</time>
      </trkpt>
      <trkpt lat="41.684582" lon="0.989843">
        <ele>265.851</ele>
        <time>2021-08-19T11:33:50Z</time>
      </trkpt>
      <trkpt lat="41.684549" lon="0.989783">
        <ele>265.987</ele>
        <time>2021-08-19T11:33:52Z</time>
      </trkpt>
      <trkpt lat="41.684522" lon="0.989726">
        <ele>266.012</ele>
        <time>2021-08-19T11:33:54Z</time>
      </trkpt>
      <trkpt lat="41.684494" lon="0.989676">
        <ele>266.013</ele>
        <time>2021-08-19T11:33:56Z</time>
      </trkpt>
      <trkpt lat="41.684459" lon="0.989618">
        <ele>266.099</ele>
        <time>2021-08-19T11:33:58Z</time>
      </trkpt>
      <trkpt lat="41.684422" lon="0.989534">
        <ele>266.061</ele>
        <time>2021-08-19T11:34:01Z</time>
      </trkpt>
      <trkpt lat="41.684391" lon="0.989464">
        <ele>266.021</ele>
        <time>2021-08-19T11:34:04Z</time>
      </trkpt>
      <trkpt lat="41.684358" lon="0.989406">
        <ele>266.013</ele>
        <time>2021-08-19T11:34:06Z</time>
      </trkpt>
      <trkpt lat="41.684332" lon="0.989347">
        <ele>265.909</ele>
        <time>2021-08-19T11:34:08Z</time>
      </trkpt>
      <trkpt lat="41.684302" lon="0.989293">
        <ele>265.777</ele>
        <time>2021-08-19T11:34:10Z</time>
      </trkpt>
      <trkpt lat="41.684273" lon="0.989231">
        <ele>265.538</ele>
        <time>2021-08-19T11:34:12Z</time>
      </trkpt>
      <trkpt lat="41.684245" lon="0.989170">
        <ele>265.369</ele>
        <time>2021-08-19T11:34:14Z</time>
      </trkpt>
      <trkpt lat="41.684213" lon="0.989113">
        <ele>265.143</ele>
        <time>2021-08-19T11:34:16Z</time>
      </trkpt>
      <trkpt lat="41.684183" lon="0.989057">
        <ele>265.034</ele>
        <time>2021-08-19T11:34:18Z</time>
      </trkpt>
      <trkpt lat="41.684156" lon="0.988999">
        <ele>265.080</ele>
        <time>2021-08-19T11:34:20Z</time>
      </trkpt>
      <trkpt lat="41.684126" lon="0.988939">
        <ele>264.945</ele>
        <time>2021-08-19T11:34:22Z</time>
      </trkpt>
      <trkpt lat="41.684098" lon="0.988881">
        <ele>264.756</ele>
        <time>2021-08-19T11:34:24Z</time>
      </trkpt>
      <trkpt lat="41.684067" lon="0.988829">
        <ele>264.552</ele>
        <time>2021-08-19T11:34:26Z</time>
      </trkpt>
      <trkpt lat="41.684034" lon="0.988774">
        <ele>264.385</ele>
        <time>2021-08-19T11:34:28Z</time>
      </trkpt>
      <trkpt lat="41.684000" lon="0.988714">
        <ele>264.189</ele>
        <time>2021-08-19T11:34:30Z</time>
      </trkpt>
      <trkpt lat="41.683963" lon="0.988657">
        <ele>264.017</ele>
        <time>2021-08-19T11:34:32Z</time>
      </trkpt>
      <trkpt lat="41.683918" lon="0.988593">
        <ele>264.009</ele>
        <time>2021-08-19T11:34:35Z</time>
      </trkpt>
      <trkpt lat="41.683871" lon="0.988521">
        <ele>264.129</ele>
        <time>2021-08-19T11:34:37Z</time>
      </trkpt>
      <trkpt lat="41.683834" lon="0.988458">
        <ele>264.340</ele>
        <time>2021-08-19T11:34:39Z</time>
      </trkpt>
      <trkpt lat="41.683795" lon="0.988400">
        <ele>264.621</ele>
        <time>2021-08-19T11:34:41Z</time>
      </trkpt>
      <trkpt lat="41.683766" lon="0.988340">
        <ele>264.965</ele>
        <time>2021-08-19T11:34:43Z</time>
      </trkpt>
      <trkpt lat="41.683730" lon="0.988289">
        <ele>265.256</ele>
        <time>2021-08-19T11:34:45Z</time>
      </trkpt>
      <trkpt lat="41.683699" lon="0.988225">
        <ele>265.512</ele>
        <time>2021-08-19T11:34:47Z</time>
      </trkpt>
      <trkpt lat="41.683666" lon="0.988169">
        <ele>265.757</ele>
        <time>2021-08-19T11:34:49Z</time>
      </trkpt>
      <trkpt lat="41.683641" lon="0.988107">
        <ele>265.948</ele>
        <time>2021-08-19T11:34:51Z</time>
      </trkpt>
      <trkpt lat="41.683606" lon="0.988036">
        <ele>266.154</ele>
        <time>2021-08-19T11:34:54Z</time>
      </trkpt>
      <trkpt lat="41.683575" lon="0.987989">
        <ele>266.458</ele>
        <time>2021-08-19T11:34:56Z</time>
      </trkpt>
      <trkpt lat="41.683545" lon="0.987926">
        <ele>266.852</ele>
        <time>2021-08-19T11:34:58Z</time>
      </trkpt>
      <trkpt lat="41.683527" lon="0.987851">
        <ele>267.217</ele>
        <time>2021-08-19T11:35:00Z</time>
      </trkpt>
      <trkpt lat="41.683493" lon="0.987790">
        <ele>267.509</ele>
        <time>2021-08-19T11:35:02Z</time>
      </trkpt>
      <trkpt lat="41.683464" lon="0.987738">
        <ele>267.676</ele>
        <time>2021-08-19T11:35:04Z</time>
      </trkpt>
      <trkpt lat="41.683427" lon="0.987659">
        <ele>267.847</ele>
        <time>2021-08-19T11:35:06Z</time>
      </trkpt>
      <trkpt lat="41.683395" lon="0.987597">
        <ele>267.948</ele>
        <time>2021-08-19T11:35:08Z</time>
      </trkpt>
      <trkpt lat="41.683363" lon="0.987548">
        <ele>267.972</ele>
        <time>2021-08-19T11:35:10Z</time>
      </trkpt>
      <trkpt lat="41.683319" lon="0.987492">
        <ele>267.953</ele>
        <time>2021-08-19T11:35:13Z</time>
      </trkpt>
      <trkpt lat="41.683294" lon="0.987429">
        <ele>267.889</ele>
        <time>2021-08-19T11:35:16Z</time>
      </trkpt>
      <trkpt lat="41.683288" lon="0.987358">
        <ele>267.844</ele>
        <time>2021-08-19T11:35:26Z</time>
      </trkpt>
      <trkpt lat="41.683292" lon="0.987283">
        <ele>267.815</ele>
        <time>2021-08-19T11:35:29Z</time>
      </trkpt>
      <trkpt lat="41.683302" lon="0.987204">
        <ele>267.971</ele>
        <time>2021-08-19T11:35:32Z</time>
      </trkpt>
      <trkpt lat="41.683263" lon="0.987119">
        <ele>267.884</ele>
        <time>2021-08-19T11:35:36Z</time>
      </trkpt>
      <trkpt lat="41.683217" lon="0.987057">
        <ele>267.807</ele>
        <time>2021-08-19T11:35:38Z</time>
      </trkpt>
      <trkpt lat="41.683180" lon="0.987012">
        <ele>267.917</ele>
        <time>2021-08-19T11:35:40Z</time>
      </trkpt>
      <trkpt lat="41.683144" lon="0.986975">
        <ele>267.909</ele>
        <time>2021-08-19T11:35:51Z</time>
      </trkpt>
      <trkpt lat="41.683131" lon="0.986917">
        <ele>268.049</ele>
        <time>2021-08-19T11:35:57Z</time>
      </trkpt>
      <trkpt lat="41.683129" lon="0.986857">
        <ele>268.080</ele>
        <time>2021-08-19T11:37:37Z</time>
      </trkpt>
      <trkpt lat="41.683118" lon="0.986798">
        <ele>268.081</ele>
        <time>2021-08-19T11:39:36Z</time>
      </trkpt>
      <trkpt lat="41.683140" lon="0.986723">
        <ele>268.025</ele>
        <time>2021-08-19T11:39:39Z</time>
      </trkpt>
      <trkpt lat="41.683154" lon="0.986649">
        <ele>268.066</ele>
        <time>2021-08-19T11:39:42Z</time>
      </trkpt>
      <trkpt lat="41.683168" lon="0.986589">
        <ele>268.032</ele>
        <time>2021-08-19T11:39:44Z</time>
      </trkpt>
      <trkpt lat="41.683187" lon="0.986525">
        <ele>268.057</ele>
        <time>2021-08-19T11:39:46Z</time>
      </trkpt>
      <trkpt lat="41.683204" lon="0.986461">
        <ele>268.058</ele>
        <time>2021-08-19T11:39:48Z</time>
      </trkpt>
      <trkpt lat="41.683229" lon="0.986382">
        <ele>268.064</ele>
        <time>2021-08-19T11:39:50Z</time>
      </trkpt>
      <trkpt lat="41.683248" lon="0.986304">
        <ele>267.899</ele>
        <time>2021-08-19T11:39:52Z</time>
      </trkpt>
      <trkpt lat="41.683257" lon="0.986225">
        <ele>267.607</ele>
        <time>2021-08-19T11:39:54Z</time>
      </trkpt>
      <trkpt lat="41.683272" lon="0.986147">
        <ele>267.327</ele>
        <time>2021-08-19T11:39:56Z</time>
      </trkpt>
      <trkpt lat="41.683286" lon="0.986070">
        <ele>267.009</ele>
        <time>2021-08-19T11:39:58Z</time>
      </trkpt>
      <trkpt lat="41.683302" lon="0.985991">
        <ele>266.770</ele>
        <time>2021-08-19T11:40:00Z</time>
      </trkpt>
      <trkpt lat="41.683320" lon="0.985913">
        <ele>266.371</ele>
        <time>2021-08-19T11:40:02Z</time>
      </trkpt>
      <trkpt lat="41.683331" lon="0.985833">
        <ele>266.012</ele>
        <time>2021-08-19T11:40:04Z</time>
      </trkpt>
      <trkpt lat="41.683344" lon="0.985760">
        <ele>266.096</ele>
        <time>2021-08-19T11:40:06Z</time>
      </trkpt>
      <trkpt lat="41.683358" lon="0.985685">
        <ele>266.087</ele>
        <time>2021-08-19T11:40:08Z</time>
      </trkpt>
      <trkpt lat="41.683377" lon="0.985609">
        <ele>266.013</ele>
        <time>2021-08-19T11:40:10Z</time>
      </trkpt>
      <trkpt lat="41.683390" lon="0.985533">
        <ele>266.158</ele>
        <time>2021-08-19T11:40:12Z</time>
      </trkpt>
      <trkpt lat="41.683401" lon="0.985457">
        <ele>266.359</ele>
        <time>2021-08-19T11:40:14Z</time>
      </trkpt>
      <trkpt lat="41.683408" lon="0.985384">
        <ele>266.565</ele>
        <time>2021-08-19T11:40:16Z</time>
      </trkpt>
      <trkpt lat="41.683419" lon="0.985323">
        <ele>266.659</ele>
        <time>2021-08-19T11:40:18Z</time>
      </trkpt>
      <trkpt lat="41.683416" lon="0.985261">
        <ele>266.703</ele>
        <time>2021-08-19T11:40:51Z</time>
      </trkpt>
      <trkpt lat="41.683422" lon="0.985188">
        <ele>266.623</ele>
        <time>2021-08-19T11:40:54Z</time>
      </trkpt>
      <trkpt lat="41.683428" lon="0.985122">
        <ele>266.509</ele>
        <time>2021-08-19T11:40:56Z</time>
      </trkpt>
      <trkpt lat="41.683429" lon="0.985059">
        <ele>266.436</ele>
        <time>2021-08-19T11:40:58Z</time>
      </trkpt>
      <trkpt lat="41.683398" lon="0.985008">
        <ele>266.537</ele>
        <time>2021-08-19T11:41:01Z</time>
      </trkpt>
      <trkpt lat="41.683335" lon="0.985014">
        <ele>267.098</ele>
        <time>2021-08-19T11:41:06Z</time>
      </trkpt>
      <trkpt lat="41.683290" lon="0.985005">
        <ele>267.032</ele>
        <time>2021-08-19T11:41:08Z</time>
      </trkpt>
      <trkpt lat="41.683244" lon="0.984986">
        <ele>266.943</ele>
        <time>2021-08-19T11:41:11Z</time>
      </trkpt>
      <trkpt lat="41.683199" lon="0.984977">
        <ele>266.959</ele>
        <time>2021-08-19T11:41:13Z</time>
      </trkpt>
      <trkpt lat="41.683155" lon="0.984963">
        <ele>266.944</ele>
        <time>2021-08-19T11:41:16Z</time>
      </trkpt>
      <trkpt lat="41.683122" lon="0.984905">
        <ele>266.725</ele>
        <time>2021-08-19T11:41:20Z</time>
      </trkpt>
      <trkpt lat="41.683139" lon="0.984836">
        <ele>266.441</ele>
        <time>2021-08-19T11:41:24Z</time>
      </trkpt>
      <trkpt lat="41.683147" lon="0.984767">
        <ele>266.289</ele>
        <time>2021-08-19T11:41:26Z</time>
      </trkpt>
      <trkpt lat="41.683156" lon="0.984707">
        <ele>265.906</ele>
        <time>2021-08-19T11:41:28Z</time>
      </trkpt>
      <trkpt lat="41.683168" lon="0.984605">
        <ele>265.626</ele>
        <time>2021-08-19T11:41:31Z</time>
      </trkpt>
      <trkpt lat="41.683175" lon="0.984536">
        <ele>265.309</ele>
        <time>2021-08-19T11:41:33Z</time>
      </trkpt>
      <trkpt lat="41.683186" lon="0.984457">
        <ele>265.079</ele>
        <time>2021-08-19T11:41:35Z</time>
      </trkpt>
      <trkpt lat="41.683194" lon="0.984373">
        <ele>264.750</ele>
        <time>2021-08-19T11:41:37Z</time>
      </trkpt>
      <trkpt lat="41.683201" lon="0.984311">
        <ele>264.561</ele>
        <time>2021-08-19T11:41:38Z</time>
      </trkpt>
      <trkpt lat="41.683206" lon="0.984249">
        <ele>264.315</ele>
        <time>2021-08-19T11:41:40Z</time>
      </trkpt>
      <trkpt lat="41.683210" lon="0.984183">
        <ele>264.116</ele>
        <time>2021-08-19T11:41:41Z</time>
      </trkpt>
      <trkpt lat="41.683215" lon="0.984105">
        <ele>263.832</ele>
        <time>2021-08-19T11:41:43Z</time>
      </trkpt>
      <trkpt lat="41.683224" lon="0.984032">
        <ele>263.547</ele>
        <time>2021-08-19T11:41:45Z</time>
      </trkpt>
      <trkpt lat="41.683230" lon="0.983965">
        <ele>263.358</ele>
        <time>2021-08-19T11:41:48Z</time>
      </trkpt>
      <trkpt lat="41.683207" lon="0.983895">
        <ele>263.034</ele>
        <time>2021-08-19T11:41:52Z</time>
      </trkpt>
      <trkpt lat="41.683160" lon="0.983879">
        <ele>263.061</ele>
        <time>2021-08-19T11:41:54Z</time>
      </trkpt>
      <trkpt lat="41.683110" lon="0.983864">
        <ele>262.921</ele>
        <time>2021-08-19T11:41:56Z</time>
      </trkpt>
      <trkpt lat="41.683061" lon="0.983844">
        <ele>262.813</ele>
        <time>2021-08-19T11:41:58Z</time>
      </trkpt>
      <trkpt lat="41.683003" lon="0.983823">
        <ele>262.609</ele>
        <time>2021-08-19T11:42:00Z</time>
      </trkpt>
      <trkpt lat="41.682955" lon="0.983810">
        <ele>262.437</ele>
        <time>2021-08-19T11:42:02Z</time>
      </trkpt>
      <trkpt lat="41.682904" lon="0.983799">
        <ele>262.158</ele>
        <time>2021-08-19T11:42:11Z</time>
      </trkpt>
      <trkpt lat="41.682861" lon="0.983780">
        <ele>261.949</ele>
        <time>2021-08-19T11:42:13Z</time>
      </trkpt>
      <trkpt lat="41.682802" lon="0.983747">
        <ele>261.643</ele>
        <time>2021-08-19T11:42:15Z</time>
      </trkpt>
      <trkpt lat="41.682730" lon="0.983721">
        <ele>261.424</ele>
        <time>2021-08-19T11:42:17Z</time>
      </trkpt>
      <trkpt lat="41.682651" lon="0.983689">
        <ele>261.530</ele>
        <time>2021-08-19T11:42:19Z</time>
      </trkpt>
      <trkpt lat="41.682574" lon="0.983647">
        <ele>261.735</ele>
        <time>2021-08-19T11:42:21Z</time>
      </trkpt>
      <trkpt lat="41.682505" lon="0.983607">
        <ele>262.046</ele>
        <time>2021-08-19T11:42:23Z</time>
      </trkpt>
      <trkpt lat="41.682443" lon="0.983570">
        <ele>262.282</ele>
        <time>2021-08-19T11:42:25Z</time>
      </trkpt>
      <trkpt lat="41.682385" lon="0.983532">
        <ele>262.491</ele>
        <time>2021-08-19T11:42:27Z</time>
      </trkpt>
      <trkpt lat="41.682325" lon="0.983486">
        <ele>262.681</ele>
        <time>2021-08-19T11:42:29Z</time>
      </trkpt>
      <trkpt lat="41.682258" lon="0.983443">
        <ele>262.919</ele>
        <time>2021-08-19T11:42:31Z</time>
      </trkpt>
      <trkpt lat="41.682191" lon="0.983397">
        <ele>262.909</ele>
        <time>2021-08-19T11:42:33Z</time>
      </trkpt>
      <trkpt lat="41.682133" lon="0.983361">
        <ele>262.750</ele>
        <time>2021-08-19T11:42:35Z</time>
      </trkpt>
      <trkpt lat="41.682063" lon="0.983319">
        <ele>262.441</ele>
        <time>2021-08-19T11:42:37Z</time>
      </trkpt>
      <trkpt lat="41.681998" lon="0.983281">
        <ele>262.222</ele>
        <time>2021-08-19T11:42:39Z</time>
      </trkpt>
      <trkpt lat="41.681937" lon="0.983253">
        <ele>262.076</ele>
        <time>2021-08-19T11:42:41Z</time>
      </trkpt>
      <trkpt lat="41.681891" lon="0.983232">
        <ele>262.377</ele>
        <time>2021-08-19T11:42:43Z</time>
      </trkpt>
      <trkpt lat="41.681833" lon="0.983193">
        <ele>262.673</ele>
        <time>2021-08-19T11:42:45Z</time>
      </trkpt>
      <trkpt lat="41.681780" lon="0.983157">
        <ele>263.038</ele>
        <time>2021-08-19T11:42:47Z</time>
      </trkpt>
      <trkpt lat="41.681732" lon="0.983132">
        <ele>263.399</ele>
        <time>2021-08-19T11:42:49Z</time>
      </trkpt>
      <trkpt lat="41.681679" lon="0.983106">
        <ele>263.755</ele>
        <time>2021-08-19T11:42:51Z</time>
      </trkpt>
      <trkpt lat="41.681635" lon="0.983079">
        <ele>264.014</ele>
        <time>2021-08-19T11:42:53Z</time>
      </trkpt>
      <trkpt lat="41.681599" lon="0.983042">
        <ele>264.354</ele>
        <time>2021-08-19T11:42:55Z</time>
      </trkpt>
      <trkpt lat="41.681592" lon="0.982967">
        <ele>264.609</ele>
        <time>2021-08-19T11:42:58Z</time>
      </trkpt>
      <trkpt lat="41.681614" lon="0.982904">
        <ele>264.709</ele>
        <time>2021-08-19T11:43:01Z</time>
      </trkpt>
      <trkpt lat="41.681640" lon="0.982823">
        <ele>264.982</ele>
        <time>2021-08-19T11:43:04Z</time>
      </trkpt>
      <trkpt lat="41.681667" lon="0.982765">
        <ele>265.153</ele>
        <time>2021-08-19T11:43:06Z</time>
      </trkpt>
      <trkpt lat="41.681689" lon="0.982702">
        <ele>265.584</ele>
        <time>2021-08-19T11:43:08Z</time>
      </trkpt>
      <trkpt lat="41.681709" lon="0.982636">
        <ele>265.998</ele>
        <time>2021-08-19T11:43:10Z</time>
      </trkpt>
      <trkpt lat="41.681736" lon="0.982581">
        <ele>266.239</ele>
        <time>2021-08-19T11:43:12Z</time>
      </trkpt>
      <trkpt lat="41.681759" lon="0.982519">
        <ele>266.595</ele>
        <time>2021-08-19T11:43:14Z</time>
      </trkpt>
      <trkpt lat="41.681778" lon="0.982457">
        <ele>266.750</ele>
        <time>2021-08-19T11:43:16Z</time>
      </trkpt>
      <trkpt lat="41.681800" lon="0.982394">
        <ele>266.721</ele>
        <time>2021-08-19T11:43:18Z</time>
      </trkpt>
      <trkpt lat="41.681820" lon="0.982329">
        <ele>266.877</ele>
        <time>2021-08-19T11:43:20Z</time>
      </trkpt>
      <trkpt lat="41.681841" lon="0.982266">
        <ele>266.987</ele>
        <time>2021-08-19T11:43:22Z</time>
      </trkpt>
      <trkpt lat="41.681864" lon="0.982204">
        <ele>267.042</ele>
        <time>2021-08-19T11:43:24Z</time>
      </trkpt>
      <trkpt lat="41.681888" lon="0.982130">
        <ele>267.026</ele>
        <time>2021-08-19T11:43:26Z</time>
      </trkpt>
      <trkpt lat="41.681910" lon="0.982063">
        <ele>267.009</ele>
        <time>2021-08-19T11:43:28Z</time>
      </trkpt>
      <trkpt lat="41.681924" lon="0.981998">
        <ele>267.099</ele>
        <time>2021-08-19T11:43:30Z</time>
      </trkpt>
      <trkpt lat="41.681948" lon="0.981914">
        <ele>267.010</ele>
        <time>2021-08-19T11:43:33Z</time>
      </trkpt>
      <trkpt lat="41.681961" lon="0.981849">
        <ele>267.041</ele>
        <time>2021-08-19T11:43:35Z</time>
      </trkpt>
      <trkpt lat="41.681969" lon="0.981784">
        <ele>267.085</ele>
        <time>2021-08-19T11:43:37Z</time>
      </trkpt>
      <trkpt lat="41.681975" lon="0.981694">
        <ele>267.076</ele>
        <time>2021-08-19T11:43:40Z</time>
      </trkpt>
      <trkpt lat="41.681974" lon="0.981619">
        <ele>267.042</ele>
        <time>2021-08-19T11:43:42Z</time>
      </trkpt>
      <trkpt lat="41.681971" lon="0.981544">
        <ele>267.047</ele>
        <time>2021-08-19T11:43:44Z</time>
      </trkpt>
      <trkpt lat="41.681963" lon="0.981467">
        <ele>267.038</ele>
        <time>2021-08-19T11:43:46Z</time>
      </trkpt>
      <trkpt lat="41.681955" lon="0.981387">
        <ele>267.084</ele>
        <time>2021-08-19T11:43:48Z</time>
      </trkpt>
      <trkpt lat="41.681950" lon="0.981302">
        <ele>267.386</ele>
        <time>2021-08-19T11:43:50Z</time>
      </trkpt>
      <trkpt lat="41.681940" lon="0.981218">
        <ele>267.660</ele>
        <time>2021-08-19T11:43:52Z</time>
      </trkpt>
      <trkpt lat="41.681932" lon="0.981135">
        <ele>267.926</ele>
        <time>2021-08-19T11:43:54Z</time>
      </trkpt>
      <trkpt lat="41.681928" lon="0.981051">
        <ele>267.909</ele>
        <time>2021-08-19T11:43:56Z</time>
      </trkpt>
      <trkpt lat="41.681922" lon="0.980967">
        <ele>267.959</ele>
        <time>2021-08-19T11:43:58Z</time>
      </trkpt>
      <trkpt lat="41.681926" lon="0.980894">
        <ele>267.980</ele>
        <time>2021-08-19T11:44:00Z</time>
      </trkpt>
      <trkpt lat="41.681921" lon="0.980793">
        <ele>267.891</ele>
        <time>2021-08-19T11:44:03Z</time>
      </trkpt>
      <trkpt lat="41.681921" lon="0.980714">
        <ele>267.575</ele>
        <time>2021-08-19T11:44:05Z</time>
      </trkpt>
      <trkpt lat="41.681924" lon="0.980647">
        <ele>267.366</ele>
        <time>2021-08-19T11:44:07Z</time>
      </trkpt>
      <trkpt lat="41.681923" lon="0.980563">
        <ele>267.072</ele>
        <time>2021-08-19T11:44:09Z</time>
      </trkpt>
      <trkpt lat="41.681923" lon="0.980480">
        <ele>266.767</ele>
        <time>2021-08-19T11:44:11Z</time>
      </trkpt>
      <trkpt lat="41.681922" lon="0.980397">
        <ele>266.448</ele>
        <time>2021-08-19T11:44:13Z</time>
      </trkpt>
      <trkpt lat="41.681929" lon="0.980314">
        <ele>266.174</ele>
        <time>2021-08-19T11:44:15Z</time>
      </trkpt>
      <trkpt lat="41.681950" lon="0.980241">
        <ele>266.095</ele>
        <time>2021-08-19T11:44:17Z</time>
      </trkpt>
      <trkpt lat="41.681968" lon="0.980161">
        <ele>266.049</ele>
        <time>2021-08-19T11:44:19Z</time>
      </trkpt>
      <trkpt lat="41.681989" lon="0.980084">
        <ele>266.023</ele>
        <time>2021-08-19T11:44:21Z</time>
      </trkpt>
      <trkpt lat="41.682009" lon="0.980008">
        <ele>266.009</ele>
        <time>2021-08-19T11:44:23Z</time>
      </trkpt>
      <trkpt lat="41.682024" lon="0.979942">
        <ele>266.110</ele>
        <time>2021-08-19T11:44:25Z</time>
      </trkpt>
      <trkpt lat="41.682048" lon="0.979880">
        <ele>266.211</ele>
        <time>2021-08-19T11:44:27Z</time>
      </trkpt>
      <trkpt lat="41.682068" lon="0.979816">
        <ele>266.312</ele>
        <time>2021-08-19T11:44:29Z</time>
      </trkpt>
      <trkpt lat="41.682099" lon="0.979740">
        <ele>266.516</ele>
        <time>2021-08-19T11:44:32Z</time>
      </trkpt>
      <trkpt lat="41.682124" lon="0.979679">
        <ele>266.517</ele>
        <time>2021-08-19T11:44:35Z</time>
      </trkpt>
      <trkpt lat="41.682152" lon="0.979616">
        <ele>266.443</ele>
        <time>2021-08-19T11:45:07Z</time>
      </trkpt>
      <trkpt lat="41.682182" lon="0.979541">
        <ele>266.248</ele>
        <time>2021-08-19T11:45:10Z</time>
      </trkpt>
      <trkpt lat="41.682197" lon="0.979484">
        <ele>266.189</ele>
        <time>2021-08-19T11:45:12Z</time>
      </trkpt>
      <trkpt lat="41.682213" lon="0.979418">
        <ele>265.975</ele>
        <time>2021-08-19T11:45:14Z</time>
      </trkpt>
      <trkpt lat="41.682233" lon="0.979349">
        <ele>265.785</ele>
        <time>2021-08-19T11:45:16Z</time>
      </trkpt>
      <trkpt lat="41.682251" lon="0.979284">
        <ele>265.589</ele>
        <time>2021-08-19T11:45:18Z</time>
      </trkpt>
      <trkpt lat="41.682268" lon="0.979217">
        <ele>265.317</ele>
        <time>2021-08-19T11:45:20Z</time>
      </trkpt>
      <trkpt lat="41.682284" lon="0.979151">
        <ele>265.109</ele>
        <time>2021-08-19T11:45:22Z</time>
      </trkpt>
      <trkpt lat="41.682302" lon="0.979078">
        <ele>264.629</ele>
        <time>2021-08-19T11:45:24Z</time>
      </trkpt>
      <trkpt lat="41.682326" lon="0.979000">
        <ele>264.250</ele>
        <time>2021-08-19T11:45:26Z</time>
      </trkpt>
      <trkpt lat="41.682345" lon="0.978925">
        <ele>263.741</ele>
        <time>2021-08-19T11:45:28Z</time>
      </trkpt>
      <trkpt lat="41.682370" lon="0.978858">
        <ele>263.565</ele>
        <time>2021-08-19T11:45:30Z</time>
      </trkpt>
      <trkpt lat="41.682409" lon="0.978780">
        <ele>263.436</ele>
        <time>2021-08-19T11:45:33Z</time>
      </trkpt>
      <trkpt lat="41.682442" lon="0.978693">
        <ele>263.222</ele>
        <time>2021-08-19T11:45:35Z</time>
      </trkpt>
      <trkpt lat="41.682470" lon="0.978620">
        <ele>263.097</ele>
        <time>2021-08-19T11:45:37Z</time>
      </trkpt>
      <trkpt lat="41.682506" lon="0.978536">
        <ele>263.058</ele>
        <time>2021-08-19T11:45:39Z</time>
      </trkpt>
      <trkpt lat="41.682539" lon="0.978460">
        <ele>263.194</ele>
        <time>2021-08-19T11:45:41Z</time>
      </trkpt>
      <trkpt lat="41.682575" lon="0.978410">
        <ele>263.124</ele>
        <time>2021-08-19T11:45:43Z</time>
      </trkpt>
      <trkpt lat="41.682615" lon="0.978331">
        <ele>263.004</ele>
        <time>2021-08-19T11:45:45Z</time>
      </trkpt>
      <trkpt lat="41.682642" lon="0.978249">
        <ele>263.114</ele>
        <time>2021-08-19T11:45:47Z</time>
      </trkpt>
      <trkpt lat="41.682658" lon="0.978182">
        <ele>263.209</ele>
        <time>2021-08-19T11:45:49Z</time>
      </trkpt>
      <trkpt lat="41.682686" lon="0.978119">
        <ele>263.373</ele>
        <time>2021-08-19T11:45:51Z</time>
      </trkpt>
      <trkpt lat="41.682708" lon="0.978047">
        <ele>263.374</ele>
        <time>2021-08-19T11:45:53Z</time>
      </trkpt>
      <trkpt lat="41.682746" lon="0.977968">
        <ele>263.415</ele>
        <time>2021-08-19T11:45:55Z</time>
      </trkpt>
      <trkpt lat="41.682779" lon="0.977894">
        <ele>263.679</ele>
        <time>2021-08-19T11:45:57Z</time>
      </trkpt>
      <trkpt lat="41.682801" lon="0.977806">
        <ele>263.880</ele>
        <time>2021-08-19T11:45:59Z</time>
      </trkpt>
      <trkpt lat="41.682825" lon="0.977737">
        <ele>264.046</ele>
        <time>2021-08-19T11:46:01Z</time>
      </trkpt>
      <trkpt lat="41.682840" lon="0.977677">
        <ele>264.181</ele>
        <time>2021-08-19T11:46:02Z</time>
      </trkpt>
      <trkpt lat="41.682863" lon="0.977584">
        <ele>264.222</ele>
        <time>2021-08-19T11:46:04Z</time>
      </trkpt>
      <trkpt lat="41.682914" lon="0.977480">
        <ele>263.928</ele>
        <time>2021-08-19T11:46:06Z</time>
      </trkpt>
      <trkpt lat="41.682934" lon="0.977383">
        <ele>263.364</ele>
        <time>2021-08-19T11:46:08Z</time>
      </trkpt>
      <trkpt lat="41.682955" lon="0.977289">
        <ele>262.706</ele>
        <time>2021-08-19T11:46:10Z</time>
      </trkpt>
      <trkpt lat="41.682975" lon="0.977197">
        <ele>262.116</ele>
        <time>2021-08-19T11:46:12Z</time>
      </trkpt>
      <trkpt lat="41.682998" lon="0.977093">
        <ele>261.409</ele>
        <time>2021-08-19T11:46:14Z</time>
      </trkpt>
      <trkpt lat="41.683018" lon="0.977000">
        <ele>260.667</ele>
        <time>2021-08-19T11:46:16Z</time>
      </trkpt>
      <trkpt lat="41.683032" lon="0.976914">
        <ele>260.398</ele>
        <time>2021-08-19T11:46:18Z</time>
      </trkpt>
      <trkpt lat="41.683050" lon="0.976819">
        <ele>260.529</ele>
        <time>2021-08-19T11:46:20Z</time>
      </trkpt>
      <trkpt lat="41.683067" lon="0.976740">
        <ele>260.773</ele>
        <time>2021-08-19T11:46:22Z</time>
      </trkpt>
      <trkpt lat="41.683084" lon="0.976678">
        <ele>260.994</ele>
        <time>2021-08-19T11:46:23Z</time>
      </trkpt>
      <trkpt lat="41.683107" lon="0.976580">
        <ele>261.230</ele>
        <time>2021-08-19T11:46:25Z</time>
      </trkpt>
      <trkpt lat="41.683127" lon="0.976472">
        <ele>261.645</ele>
        <time>2021-08-19T11:46:27Z</time>
      </trkpt>
      <trkpt lat="41.683147" lon="0.976386">
        <ele>262.076</ele>
        <time>2021-08-19T11:46:29Z</time>
      </trkpt>
      <trkpt lat="41.683164" lon="0.976321">
        <ele>262.132</ele>
        <time>2021-08-19T11:46:30Z</time>
      </trkpt>
      <trkpt lat="41.683187" lon="0.976227">
        <ele>262.364</ele>
        <time>2021-08-19T11:46:32Z</time>
      </trkpt>
      <trkpt lat="41.683200" lon="0.976158">
        <ele>262.406</ele>
        <time>2021-08-19T11:46:34Z</time>
      </trkpt>
      <trkpt lat="41.683219" lon="0.976100">
        <ele>262.616</ele>
        <time>2021-08-19T11:46:38Z</time>
      </trkpt>
      <trkpt lat="41.683236" lon="0.976041">
        <ele>262.709</ele>
        <time>2021-08-19T11:46:43Z</time>
      </trkpt>
      <trkpt lat="41.683259" lon="0.975987">
        <ele>262.947</ele>
        <time>2021-08-19T11:46:48Z</time>
      </trkpt>
      <trkpt lat="41.683276" lon="0.975913">
        <ele>262.998</ele>
        <time>2021-08-19T11:46:52Z</time>
      </trkpt>
      <trkpt lat="41.683290" lon="0.975853">
        <ele>263.089</ele>
        <time>2021-08-19T11:46:55Z</time>
      </trkpt>
      <trkpt lat="41.683307" lon="0.975795">
        <ele>262.973</ele>
        <time>2021-08-19T11:46:58Z</time>
      </trkpt>
      <trkpt lat="41.683325" lon="0.975727">
        <ele>262.674</ele>
        <time>2021-08-19T11:47:02Z</time>
      </trkpt>
      <trkpt lat="41.683341" lon="0.975669">
        <ele>262.440</ele>
        <time>2021-08-19T11:47:06Z</time>
      </trkpt>
      <trkpt lat="41.683361" lon="0.975609">
        <ele>262.225</ele>
        <time>2021-08-19T11:47:10Z</time>
      </trkpt>
      <trkpt lat="41.683377" lon="0.975542">
        <ele>262.076</ele>
        <time>2021-08-19T11:47:14Z</time>
      </trkpt>
      <trkpt lat="41.683403" lon="0.975465">
        <ele>262.022</ele>
        <time>2021-08-19T11:47:42Z</time>
      </trkpt>
      <trkpt lat="41.683419" lon="0.975393">
        <ele>262.054</ele>
        <time>2021-08-19T11:47:44Z</time>
      </trkpt>
      <trkpt lat="41.683443" lon="0.975325">
        <ele>262.056</ele>
        <time>2021-08-19T11:47:46Z</time>
      </trkpt>
      <trkpt lat="41.683466" lon="0.975260">
        <ele>262.011</ele>
        <time>2021-08-19T11:47:48Z</time>
      </trkpt>
      <trkpt lat="41.683483" lon="0.975194">
        <ele>261.909</ele>
        <time>2021-08-19T11:47:50Z</time>
      </trkpt>
      <trkpt lat="41.683498" lon="0.975130">
        <ele>261.826</ele>
        <time>2021-08-19T11:47:52Z</time>
      </trkpt>
      <trkpt lat="41.683514" lon="0.975054">
        <ele>261.777</ele>
        <time>2021-08-19T11:47:54Z</time>
      </trkpt>
      <trkpt lat="41.683540" lon="0.974962">
        <ele>261.628</ele>
        <time>2021-08-19T11:47:57Z</time>
      </trkpt>
      <trkpt lat="41.683554" lon="0.974900">
        <ele>261.552</ele>
        <time>2021-08-19T11:47:59Z</time>
      </trkpt>
      <trkpt lat="41.683574" lon="0.974841">
        <ele>261.443</ele>
        <time>2021-08-19T11:48:01Z</time>
      </trkpt>
      <trkpt lat="41.683591" lon="0.974764">
        <ele>261.179</ele>
        <time>2021-08-19T11:48:04Z</time>
      </trkpt>
      <trkpt lat="41.683609" lon="0.974690">
        <ele>260.844</ele>
        <time>2021-08-19T11:48:07Z</time>
      </trkpt>
      <trkpt lat="41.683628" lon="0.974628">
        <ele>260.345</ele>
        <time>2021-08-19T11:48:10Z</time>
      </trkpt>
      <trkpt lat="41.683665" lon="0.974582">
        <ele>260.091</ele>
        <time>2021-08-19T11:48:13Z</time>
      </trkpt>
      <trkpt lat="41.683611" lon="0.974587">
        <ele>260.041</ele>
        <time>2021-08-19T11:48:32Z</time>
      </trkpt>
      <trkpt lat="41.683585" lon="0.974528">
        <ele>259.781</ele>
        <time>2021-08-19T11:48:35Z</time>
      </trkpt>
      <trkpt lat="41.683566" lon="0.974455">
        <ele>259.409</ele>
        <time>2021-08-19T11:48:37Z</time>
      </trkpt>
      <trkpt lat="41.683554" lon="0.974370">
        <ele>259.409</ele>
        <time>2021-08-19T11:48:39Z</time>
      </trkpt>
      <trkpt lat="41.683552" lon="0.974300">
        <ele>259.365</ele>
        <time>2021-08-19T11:48:41Z</time>
      </trkpt>
      <trkpt lat="41.683550" lon="0.974227">
        <ele>259.336</ele>
        <time>2021-08-19T11:48:42Z</time>
      </trkpt>
      <trkpt lat="41.683548" lon="0.974149">
        <ele>259.277</ele>
        <time>2021-08-19T11:48:44Z</time>
      </trkpt>
      <trkpt lat="41.683555" lon="0.974080">
        <ele>259.391</ele>
        <time>2021-08-19T11:48:46Z</time>
      </trkpt>
      <trkpt lat="41.683559" lon="0.974020">
        <ele>259.362</ele>
        <time>2021-08-19T11:48:48Z</time>
      </trkpt>
      <trkpt lat="41.683555" lon="0.973954">
        <ele>259.488</ele>
        <time>2021-08-19T11:48:50Z</time>
      </trkpt>
      <trkpt lat="41.683556" lon="0.973881">
        <ele>259.473</ele>
        <time>2021-08-19T11:48:52Z</time>
      </trkpt>
      <trkpt lat="41.683551" lon="0.973812">
        <ele>259.464</ele>
        <time>2021-08-19T11:48:54Z</time>
      </trkpt>
      <trkpt lat="41.683545" lon="0.973722">
        <ele>259.520</ele>
        <time>2021-08-19T11:48:56Z</time>
      </trkpt>
      <trkpt lat="41.683545" lon="0.973650">
        <ele>259.548</ele>
        <time>2021-08-19T11:48:58Z</time>
      </trkpt>
      <trkpt lat="41.683541" lon="0.973587">
        <ele>259.661</ele>
        <time>2021-08-19T11:49:00Z</time>
      </trkpt>
      <trkpt lat="41.683543" lon="0.973506">
        <ele>260.117</ele>
        <time>2021-08-19T11:49:02Z</time>
      </trkpt>
      <trkpt lat="41.683538" lon="0.973429">
        <ele>260.509</ele>
        <time>2021-08-19T11:49:04Z</time>
      </trkpt>
      <trkpt lat="41.683544" lon="0.973350">
        <ele>260.915</ele>
        <time>2021-08-19T11:49:06Z</time>
      </trkpt>
      <trkpt lat="41.683541" lon="0.973277">
        <ele>261.236</ele>
        <time>2021-08-19T11:49:09Z</time>
      </trkpt>
      <trkpt lat="41.683547" lon="0.973212">
        <ele>261.427</ele>
        <time>2021-08-19T11:49:10Z</time>
      </trkpt>
      <trkpt lat="41.683548" lon="0.973141">
        <ele>261.741</ele>
        <time>2021-08-19T11:49:12Z</time>
      </trkpt>
      <trkpt lat="41.683544" lon="0.973064">
        <ele>262.012</ele>
        <time>2021-08-19T11:49:14Z</time>
      </trkpt>
      <trkpt lat="41.683544" lon="0.972987">
        <ele>262.168</ele>
        <time>2021-08-19T11:49:16Z</time>
      </trkpt>
      <trkpt lat="41.683544" lon="0.972919">
        <ele>262.183</ele>
        <time>2021-08-19T11:49:18Z</time>
      </trkpt>
      <trkpt lat="41.683543" lon="0.972846">
        <ele>262.244</ele>
        <time>2021-08-19T11:49:20Z</time>
      </trkpt>
      <trkpt lat="41.683542" lon="0.972784">
        <ele>262.250</ele>
        <time>2021-08-19T11:49:21Z</time>
      </trkpt>
      <trkpt lat="41.683540" lon="0.972718">
        <ele>262.162</ele>
        <time>2021-08-19T11:49:23Z</time>
      </trkpt>
      <trkpt lat="41.683540" lon="0.972644">
        <ele>261.983</ele>
        <time>2021-08-19T11:49:25Z</time>
      </trkpt>
      <trkpt lat="41.683532" lon="0.972552">
        <ele>261.711</ele>
        <time>2021-08-19T11:49:27Z</time>
      </trkpt>
      <trkpt lat="41.683528" lon="0.972464">
        <ele>261.409</ele>
        <time>2021-08-19T11:49:29Z</time>
      </trkpt>
      <trkpt lat="41.683521" lon="0.972391">
        <ele>261.027</ele>
        <time>2021-08-19T11:49:31Z</time>
      </trkpt>
      <trkpt lat="41.683527" lon="0.972324">
        <ele>260.548</ele>
        <time>2021-08-19T11:49:33Z</time>
      </trkpt>
      <trkpt lat="41.683520" lon="0.972252">
        <ele>260.229</ele>
        <time>2021-08-19T11:49:35Z</time>
      </trkpt>
      <trkpt lat="41.683515" lon="0.972183">
        <ele>260.083</ele>
        <time>2021-08-19T11:49:37Z</time>
      </trkpt>
      <trkpt lat="41.683508" lon="0.972111">
        <ele>260.014</ele>
        <time>2021-08-19T11:49:39Z</time>
      </trkpt>
      <trkpt lat="41.683505" lon="0.972043">
        <ele>259.990</ele>
        <time>2021-08-19T11:49:41Z</time>
      </trkpt>
      <trkpt lat="41.683494" lon="0.971973">
        <ele>259.935</ele>
        <time>2021-08-19T11:49:43Z</time>
      </trkpt>
      <trkpt lat="41.683485" lon="0.971894">
        <ele>260.066</ele>
        <time>2021-08-19T11:49:45Z</time>
      </trkpt>
      <trkpt lat="41.683477" lon="0.971814">
        <ele>260.292</ele>
        <time>2021-08-19T11:49:47Z</time>
      </trkpt>
      <trkpt lat="41.683470" lon="0.971753">
        <ele>260.418</ele>
        <time>2021-08-19T11:49:49Z</time>
      </trkpt>
      <trkpt lat="41.683452" lon="0.971668">
        <ele>260.698</ele>
        <time>2021-08-19T11:49:51Z</time>
      </trkpt>
      <trkpt lat="41.683448" lon="0.971595">
        <ele>260.617</ele>
        <time>2021-08-19T11:49:53Z</time>
      </trkpt>
      <trkpt lat="41.683438" lon="0.971508">
        <ele>260.609</ele>
        <time>2021-08-19T11:49:55Z</time>
      </trkpt>
      <trkpt lat="41.683427" lon="0.971423">
        <ele>260.752</ele>
        <time>2021-08-19T11:49:57Z</time>
      </trkpt>
      <trkpt lat="41.683422" lon="0.971339">
        <ele>260.943</ele>
        <time>2021-08-19T11:49:59Z</time>
      </trkpt>
      <trkpt lat="41.683408" lon="0.971263">
        <ele>261.234</ele>
        <time>2021-08-19T11:50:01Z</time>
      </trkpt>
      <trkpt lat="41.683404" lon="0.971182">
        <ele>261.578</ele>
        <time>2021-08-19T11:50:03Z</time>
      </trkpt>
      <trkpt lat="41.683399" lon="0.971092">
        <ele>261.839</ele>
        <time>2021-08-19T11:50:05Z</time>
      </trkpt>
      <trkpt lat="41.683394" lon="0.971010">
        <ele>261.845</ele>
        <time>2021-08-19T11:50:07Z</time>
      </trkpt>
      <trkpt lat="41.683400" lon="0.970936">
        <ele>261.840</ele>
        <time>2021-08-19T11:50:09Z</time>
      </trkpt>
      <trkpt lat="41.683399" lon="0.970860">
        <ele>261.871</ele>
        <time>2021-08-19T11:50:11Z</time>
      </trkpt>
      <trkpt lat="41.683402" lon="0.970785">
        <ele>261.567</ele>
        <time>2021-08-19T11:50:13Z</time>
      </trkpt>
      <trkpt lat="41.683405" lon="0.970715">
        <ele>261.222</ele>
        <time>2021-08-19T11:50:15Z</time>
      </trkpt>
      <trkpt lat="41.683410" lon="0.970633">
        <ele>260.862</ele>
        <time>2021-08-19T11:50:17Z</time>
      </trkpt>
      <trkpt lat="41.683418" lon="0.970555">
        <ele>260.408</ele>
        <time>2021-08-19T11:50:19Z</time>
      </trkpt>
      <trkpt lat="41.683424" lon="0.970495">
        <ele>259.909</ele>
        <time>2021-08-19T11:50:20Z</time>
      </trkpt>
      <trkpt lat="41.683427" lon="0.970433">
        <ele>259.413</ele>
        <time>2021-08-19T11:50:21Z</time>
      </trkpt>
      <trkpt lat="41.683442" lon="0.970322">
        <ele>258.764</ele>
        <time>2021-08-19T11:50:23Z</time>
      </trkpt>
      <trkpt lat="41.683454" lon="0.970231">
        <ele>258.255</ele>
        <time>2021-08-19T11:50:25Z</time>
      </trkpt>
      <trkpt lat="41.683462" lon="0.970138">
        <ele>257.759</ele>
        <time>2021-08-19T11:50:27Z</time>
      </trkpt>
      <trkpt lat="41.683461" lon="0.970042">
        <ele>257.260</ele>
        <time>2021-08-19T11:50:29Z</time>
      </trkpt>
      <trkpt lat="41.683446" lon="0.969951">
        <ele>256.656</ele>
        <time>2021-08-19T11:50:31Z</time>
      </trkpt>
      <trkpt lat="41.683421" lon="0.969853">
        <ele>256.111</ele>
        <time>2021-08-19T11:50:33Z</time>
      </trkpt>
      <trkpt lat="41.683380" lon="0.969736">
        <ele>255.442</ele>
        <time>2021-08-19T11:50:35Z</time>
      </trkpt>
      <trkpt lat="41.683360" lon="0.969679">
        <ele>255.068</ele>
        <time>2021-08-19T11:50:36Z</time>
      </trkpt>
      <trkpt lat="41.683340" lon="0.969623">
        <ele>254.792</ele>
        <time>2021-08-19T11:50:37Z</time>
      </trkpt>
      <trkpt lat="41.683304" lon="0.969514">
        <ele>254.273</ele>
        <time>2021-08-19T11:50:39Z</time>
      </trkpt>
      <trkpt lat="41.683262" lon="0.969401">
        <ele>253.720</ele>
        <time>2021-08-19T11:50:41Z</time>
      </trkpt>
      <trkpt lat="41.683219" lon="0.969292">
        <ele>253.409</ele>
        <time>2021-08-19T11:50:43Z</time>
      </trkpt>
      <trkpt lat="41.683174" lon="0.969185">
        <ele>252.960</ele>
        <time>2021-08-19T11:50:45Z</time>
      </trkpt>
      <trkpt lat="41.683140" lon="0.969100">
        <ele>252.191</ele>
        <time>2021-08-19T11:50:47Z</time>
      </trkpt>
      <trkpt lat="41.683112" lon="0.969051">
        <ele>251.642</ele>
        <time>2021-08-19T11:50:50Z</time>
      </trkpt>
      <trkpt lat="41.683091" lon="0.968969">
        <ele>250.886</ele>
        <time>2021-08-19T11:50:51Z</time>
      </trkpt>
      <trkpt lat="41.683070" lon="0.968876">
        <ele>250.047</ele>
        <time>2021-08-19T11:50:53Z</time>
      </trkpt>
      <trkpt lat="41.683061" lon="0.968777">
        <ele>249.273</ele>
        <time>2021-08-19T11:50:55Z</time>
      </trkpt>
      <trkpt lat="41.683083" lon="0.968666">
        <ele>248.648</ele>
        <time>2021-08-19T11:50:57Z</time>
      </trkpt>
      <trkpt lat="41.683097" lon="0.968605">
        <ele>248.339</ele>
        <time>2021-08-19T11:50:58Z</time>
      </trkpt>
      <trkpt lat="41.683127" lon="0.968503">
        <ele>248.045</ele>
        <time>2021-08-19T11:51:00Z</time>
      </trkpt>
      <trkpt lat="41.683142" lon="0.968379">
        <ele>247.578</ele>
        <time>2021-08-19T11:51:02Z</time>
      </trkpt>
      <trkpt lat="41.683139" lon="0.968314">
        <ele>247.233</ele>
        <time>2021-08-19T11:51:03Z</time>
      </trkpt>
      <trkpt lat="41.683135" lon="0.968249">
        <ele>246.726</ele>
        <time>2021-08-19T11:51:04Z</time>
      </trkpt>
      <trkpt lat="41.683126" lon="0.968184">
        <ele>246.209</ele>
        <time>2021-08-19T11:51:05Z</time>
      </trkpt>
      <trkpt lat="41.683100" lon="0.968056">
        <ele>245.298</ele>
        <time>2021-08-19T11:51:07Z</time>
      </trkpt>
      <trkpt lat="41.683079" lon="0.967927">
        <ele>244.629</ele>
        <time>2021-08-19T11:51:09Z</time>
      </trkpt>
      <trkpt lat="41.683067" lon="0.967863">
        <ele>244.340</ele>
        <time>2021-08-19T11:51:10Z</time>
      </trkpt>
      <trkpt lat="41.683057" lon="0.967798">
        <ele>244.184</ele>
        <time>2021-08-19T11:51:11Z</time>
      </trkpt>
      <trkpt lat="41.683045" lon="0.967738">
        <ele>243.825</ele>
        <time>2021-08-19T11:51:12Z</time>
      </trkpt>
      <trkpt lat="41.683020" lon="0.967620">
        <ele>243.181</ele>
        <time>2021-08-19T11:51:14Z</time>
      </trkpt>
      <trkpt lat="41.683008" lon="0.967560">
        <ele>242.766</ele>
        <time>2021-08-19T11:51:15Z</time>
      </trkpt>
      <trkpt lat="41.682992" lon="0.967461">
        <ele>242.317</ele>
        <time>2021-08-19T11:51:17Z</time>
      </trkpt>
      <trkpt lat="41.682974" lon="0.967355">
        <ele>242.223</ele>
        <time>2021-08-19T11:51:19Z</time>
      </trkpt>
      <trkpt lat="41.682953" lon="0.967244">
        <ele>242.211</ele>
        <time>2021-08-19T11:51:21Z</time>
      </trkpt>
      <trkpt lat="41.682938" lon="0.967174">
        <ele>242.321</ele>
        <time>2021-08-19T11:51:22Z</time>
      </trkpt>
      <trkpt lat="41.682892" lon="0.967084">
        <ele>242.703</ele>
        <time>2021-08-19T11:51:24Z</time>
      </trkpt>
      <trkpt lat="41.682882" lon="0.967013">
        <ele>242.709</ele>
        <time>2021-08-19T11:51:25Z</time>
      </trkpt>
      <trkpt lat="41.682872" lon="0.966939">
        <ele>242.722</ele>
        <time>2021-08-19T11:51:27Z</time>
      </trkpt>
      <trkpt lat="41.682858" lon="0.966872">
        <ele>242.713</ele>
        <time>2021-08-19T11:51:28Z</time>
      </trkpt>
      <trkpt lat="41.682840" lon="0.966757">
        <ele>242.834</ele>
        <time>2021-08-19T11:51:30Z</time>
      </trkpt>
      <trkpt lat="41.682832" lon="0.966660">
        <ele>242.888</ele>
        <time>2021-08-19T11:51:32Z</time>
      </trkpt>
      <trkpt lat="41.682819" lon="0.966578">
        <ele>242.399</ele>
        <time>2021-08-19T11:51:34Z</time>
      </trkpt>
      <trkpt lat="41.682802" lon="0.966512">
        <ele>241.845</ele>
        <time>2021-08-19T11:51:36Z</time>
      </trkpt>
      <trkpt lat="41.682772" lon="0.966450">
        <ele>241.460</ele>
        <time>2021-08-19T11:51:38Z</time>
      </trkpt>
      <trkpt lat="41.682762" lon="0.966365">
        <ele>240.921</ele>
        <time>2021-08-19T11:51:40Z</time>
      </trkpt>
      <trkpt lat="41.682744" lon="0.966276">
        <ele>240.687</ele>
        <time>2021-08-19T11:51:42Z</time>
      </trkpt>
      <trkpt lat="41.682732" lon="0.966195">
        <ele>240.452</ele>
        <time>2021-08-19T11:51:44Z</time>
      </trkpt>
      <trkpt lat="41.682716" lon="0.966109">
        <ele>240.253</ele>
        <time>2021-08-19T11:51:46Z</time>
      </trkpt>
      <trkpt lat="41.682705" lon="0.966018">
        <ele>240.308</ele>
        <time>2021-08-19T11:51:48Z</time>
      </trkpt>
      <trkpt lat="41.682688" lon="0.965943">
        <ele>240.309</ele>
        <time>2021-08-19T11:51:50Z</time>
      </trkpt>
      <trkpt lat="41.682675" lon="0.965882">
        <ele>240.436</ele>
        <time>2021-08-19T11:51:51Z</time>
      </trkpt>
      <trkpt lat="41.682662" lon="0.965816">
        <ele>240.497</ele>
        <time>2021-08-19T11:51:53Z</time>
      </trkpt>
      <trkpt lat="41.682641" lon="0.965722">
        <ele>240.148</ele>
        <time>2021-08-19T11:51:55Z</time>
      </trkpt>
      <trkpt lat="41.682617" lon="0.965628">
        <ele>239.882</ele>
        <time>2021-08-19T11:51:57Z</time>
      </trkpt>
      <trkpt lat="41.682598" lon="0.965539">
        <ele>239.693</ele>
        <time>2021-08-19T11:51:59Z</time>
      </trkpt>
      <trkpt lat="41.682575" lon="0.965453">
        <ele>239.619</ele>
        <time>2021-08-19T11:52:01Z</time>
      </trkpt>
      <trkpt lat="41.682555" lon="0.965363">
        <ele>239.794</ele>
        <time>2021-08-19T11:52:03Z</time>
      </trkpt>
      <trkpt lat="41.682531" lon="0.965275">
        <ele>239.855</ele>
        <time>2021-08-19T11:52:05Z</time>
      </trkpt>
      <trkpt lat="41.682509" lon="0.965187">
        <ele>239.921</ele>
        <time>2021-08-19T11:52:07Z</time>
      </trkpt>
      <trkpt lat="41.682490" lon="0.965109">
        <ele>240.142</ele>
        <time>2021-08-19T11:52:09Z</time>
      </trkpt>
      <trkpt lat="41.682467" lon="0.965029">
        <ele>240.222</ele>
        <time>2021-08-19T11:52:11Z</time>
      </trkpt>
      <trkpt lat="41.682447" lon="0.964941">
        <ele>240.614</ele>
        <time>2021-08-19T11:52:13Z</time>
      </trkpt>
      <trkpt lat="41.682427" lon="0.964854">
        <ele>240.909</ele>
        <time>2021-08-19T11:52:15Z</time>
      </trkpt>
      <trkpt lat="41.682407" lon="0.964768">
        <ele>241.235</ele>
        <time>2021-08-19T11:52:17Z</time>
      </trkpt>
      <trkpt lat="41.682384" lon="0.964683">
        <ele>241.366</ele>
        <time>2021-08-19T11:52:19Z</time>
      </trkpt>
      <trkpt lat="41.682362" lon="0.964594">
        <ele>241.327</ele>
        <time>2021-08-19T11:52:21Z</time>
      </trkpt>
      <trkpt lat="41.682340" lon="0.964496">
        <ele>241.241</ele>
        <time>2021-08-19T11:52:23Z</time>
      </trkpt>
      <trkpt lat="41.682315" lon="0.964412">
        <ele>241.312</ele>
        <time>2021-08-19T11:52:25Z</time>
      </trkpt>
      <trkpt lat="41.682296" lon="0.964336">
        <ele>241.358</ele>
        <time>2021-08-19T11:52:27Z</time>
      </trkpt>
      <trkpt lat="41.682274" lon="0.964267">
        <ele>241.273</ele>
        <time>2021-08-19T11:52:29Z</time>
      </trkpt>
      <trkpt lat="41.682249" lon="0.964188">
        <ele>241.144</ele>
        <time>2021-08-19T11:52:31Z</time>
      </trkpt>
      <trkpt lat="41.682230" lon="0.964104">
        <ele>241.040</ele>
        <time>2021-08-19T11:52:33Z</time>
      </trkpt>
      <trkpt lat="41.682205" lon="0.964023">
        <ele>241.161</ele>
        <time>2021-08-19T11:52:35Z</time>
      </trkpt>
      <trkpt lat="41.682168" lon="0.963941">
        <ele>241.121</ele>
        <time>2021-08-19T11:52:37Z</time>
      </trkpt>
      <trkpt lat="41.682132" lon="0.963867">
        <ele>240.913</ele>
        <time>2021-08-19T11:52:39Z</time>
      </trkpt>
      <trkpt lat="41.682112" lon="0.963785">
        <ele>240.409</ele>
        <time>2021-08-19T11:52:41Z</time>
      </trkpt>
      <trkpt lat="41.682069" lon="0.963722">
        <ele>240.167</ele>
        <time>2021-08-19T11:52:43Z</time>
      </trkpt>
      <trkpt lat="41.682035" lon="0.963660">
        <ele>239.928</ele>
        <time>2021-08-19T11:52:45Z</time>
      </trkpt>
      <trkpt lat="41.682008" lon="0.963587">
        <ele>239.859</ele>
        <time>2021-08-19T11:52:47Z</time>
      </trkpt>
      <trkpt lat="41.681981" lon="0.963523">
        <ele>239.943</ele>
        <time>2021-08-19T11:52:49Z</time>
      </trkpt>
      <trkpt lat="41.681969" lon="0.963460">
        <ele>239.974</ele>
        <time>2021-08-19T11:52:51Z</time>
      </trkpt>
      <trkpt lat="41.681955" lon="0.963393">
        <ele>240.080</ele>
        <time>2021-08-19T11:52:52Z</time>
      </trkpt>
      <trkpt lat="41.681935" lon="0.963317">
        <ele>240.115</ele>
        <time>2021-08-19T11:52:54Z</time>
      </trkpt>
      <trkpt lat="41.681915" lon="0.963228">
        <ele>240.266</ele>
        <time>2021-08-19T11:52:56Z</time>
      </trkpt>
      <trkpt lat="41.681895" lon="0.963137">
        <ele>240.272</ele>
        <time>2021-08-19T11:52:58Z</time>
      </trkpt>
      <trkpt lat="41.681873" lon="0.963043">
        <ele>240.244</ele>
        <time>2021-08-19T11:53:00Z</time>
      </trkpt>
      <trkpt lat="41.681846" lon="0.962946">
        <ele>239.605</ele>
        <time>2021-08-19T11:53:02Z</time>
      </trkpt>
      <trkpt lat="41.681816" lon="0.962852">
        <ele>239.015</ele>
        <time>2021-08-19T11:53:04Z</time>
      </trkpt>
      <trkpt lat="41.681785" lon="0.962765">
        <ele>238.509</ele>
        <time>2021-08-19T11:53:06Z</time>
      </trkpt>
      <trkpt lat="41.681757" lon="0.962681">
        <ele>238.035</ele>
        <time>2021-08-19T11:53:08Z</time>
      </trkpt>
      <trkpt lat="41.681726" lon="0.962592">
        <ele>237.486</ele>
        <time>2021-08-19T11:53:10Z</time>
      </trkpt>
      <trkpt lat="41.681692" lon="0.962500">
        <ele>236.957</ele>
        <time>2021-08-19T11:53:12Z</time>
      </trkpt>
      <trkpt lat="41.681655" lon="0.962413">
        <ele>236.891</ele>
        <time>2021-08-19T11:53:14Z</time>
      </trkpt>
      <trkpt lat="41.681628" lon="0.962333">
        <ele>236.782</ele>
        <time>2021-08-19T11:53:16Z</time>
      </trkpt>
      <trkpt lat="41.681608" lon="0.962234">
        <ele>236.568</ele>
        <time>2021-08-19T11:53:18Z</time>
      </trkpt>
      <trkpt lat="41.681579" lon="0.962137">
        <ele>236.363</ele>
        <time>2021-08-19T11:53:20Z</time>
      </trkpt>
      <trkpt lat="41.681564" lon="0.962073">
        <ele>236.214</ele>
        <time>2021-08-19T11:53:21Z</time>
      </trkpt>
      <trkpt lat="41.681552" lon="0.961979">
        <ele>235.940</ele>
        <time>2021-08-19T11:53:23Z</time>
      </trkpt>
      <trkpt lat="41.681544" lon="0.961871">
        <ele>235.818</ele>
        <time>2021-08-19T11:53:25Z</time>
      </trkpt>
      <trkpt lat="41.681544" lon="0.961775">
        <ele>235.698</ele>
        <time>2021-08-19T11:53:27Z</time>
      </trkpt>
      <trkpt lat="41.681550" lon="0.961683">
        <ele>235.417</ele>
        <time>2021-08-19T11:53:29Z</time>
      </trkpt>
      <trkpt lat="41.681562" lon="0.961583">
        <ele>235.109</ele>
        <time>2021-08-19T11:53:31Z</time>
      </trkpt>
      <trkpt lat="41.681579" lon="0.961482">
        <ele>234.782</ele>
        <time>2021-08-19T11:53:33Z</time>
      </trkpt>
      <trkpt lat="41.681595" lon="0.961377">
        <ele>234.293</ele>
        <time>2021-08-19T11:53:35Z</time>
      </trkpt>
      <trkpt lat="41.681617" lon="0.961263">
        <ele>233.754</ele>
        <time>2021-08-19T11:53:37Z</time>
      </trkpt>
      <trkpt lat="41.681642" lon="0.961156">
        <ele>233.238</ele>
        <time>2021-08-19T11:53:39Z</time>
      </trkpt>
      <trkpt lat="41.681666" lon="0.961057">
        <ele>233.039</ele>
        <time>2021-08-19T11:53:41Z</time>
      </trkpt>
      <trkpt lat="41.681681" lon="0.960956">
        <ele>233.175</ele>
        <time>2021-08-19T11:53:43Z</time>
      </trkpt>
      <trkpt lat="41.681710" lon="0.960856">
        <ele>233.230</ele>
        <time>2021-08-19T11:53:45Z</time>
      </trkpt>
      <trkpt lat="41.681736" lon="0.960745">
        <ele>233.551</ele>
        <time>2021-08-19T11:53:47Z</time>
      </trkpt>
      <trkpt lat="41.681751" lon="0.960655">
        <ele>233.887</ele>
        <time>2021-08-19T11:53:49Z</time>
      </trkpt>
      <trkpt lat="41.681732" lon="0.960563">
        <ele>234.054</ele>
        <time>2021-08-19T11:53:51Z</time>
      </trkpt>
      <trkpt lat="41.681752" lon="0.960496">
        <ele>233.956</ele>
        <time>2021-08-19T11:53:52Z</time>
      </trkpt>
      <trkpt lat="41.681797" lon="0.960361">
        <ele>233.611</ele>
        <time>2021-08-19T11:53:54Z</time>
      </trkpt>
      <trkpt lat="41.681819" lon="0.960237">
        <ele>233.509</ele>
        <time>2021-08-19T11:53:56Z</time>
      </trkpt>
      <trkpt lat="41.681826" lon="0.960176">
        <ele>233.446</ele>
        <time>2021-08-19T11:53:57Z</time>
      </trkpt>
      <trkpt lat="41.681829" lon="0.960111">
        <ele>233.267</ele>
        <time>2021-08-19T11:53:58Z</time>
      </trkpt>
      <trkpt lat="41.681834" lon="0.960046">
        <ele>233.188</ele>
        <time>2021-08-19T11:54:00Z</time>
      </trkpt>
      <trkpt lat="41.681806" lon="0.959991">
        <ele>233.092</ele>
        <time>2021-08-19T11:54:01Z</time>
      </trkpt>
      <trkpt lat="41.681811" lon="0.959923">
        <ele>233.113</ele>
        <time>2021-08-19T11:54:02Z</time>
      </trkpt>
      <trkpt lat="41.681842" lon="0.959768">
        <ele>233.349</ele>
        <time>2021-08-19T11:54:04Z</time>
      </trkpt>
      <trkpt lat="41.681850" lon="0.959644">
        <ele>233.824</ele>
        <time>2021-08-19T11:54:06Z</time>
      </trkpt>
      <trkpt lat="41.681850" lon="0.959583">
        <ele>234.245</ele>
        <time>2021-08-19T11:54:07Z</time>
      </trkpt>
      <trkpt lat="41.681851" lon="0.959515">
        <ele>234.611</ele>
        <time>2021-08-19T11:54:09Z</time>
      </trkpt>
      <trkpt lat="41.681851" lon="0.959453">
        <ele>234.916</ele>
        <time>2021-08-19T11:54:10Z</time>
      </trkpt>
      <trkpt lat="41.681844" lon="0.959348">
        <ele>235.676</ele>
        <time>2021-08-19T11:54:12Z</time>
      </trkpt>
      <trkpt lat="41.681845" lon="0.959274">
        <ele>236.013</ele>
        <time>2021-08-19T11:54:14Z</time>
      </trkpt>
      <trkpt lat="41.681849" lon="0.959205">
        <ele>236.409</ele>
        <time>2021-08-19T11:54:16Z</time>
      </trkpt>
      <trkpt lat="41.681845" lon="0.959143">
        <ele>236.662</ele>
        <time>2021-08-19T11:54:18Z</time>
      </trkpt>
      <trkpt lat="41.681845" lon="0.959061">
        <ele>236.373</ele>
        <time>2021-08-19T11:54:21Z</time>
      </trkpt>
      <trkpt lat="41.681845" lon="0.958996">
        <ele>236.014</ele>
        <time>2021-08-19T11:54:24Z</time>
      </trkpt>
      <trkpt lat="41.681848" lon="0.958913">
        <ele>235.768</ele>
        <time>2021-08-19T11:54:27Z</time>
      </trkpt>
      <trkpt lat="41.681845" lon="0.958849">
        <ele>235.559</ele>
        <time>2021-08-19T11:54:30Z</time>
      </trkpt>
      <trkpt lat="41.681831" lon="0.958774">
        <ele>235.245</ele>
        <time>2021-08-19T11:54:34Z</time>
      </trkpt>
      <trkpt lat="41.681819" lon="0.958715">
        <ele>234.920</ele>
        <time>2021-08-19T11:54:38Z</time>
      </trkpt>
      <trkpt lat="41.681785" lon="0.958665">
        <ele>234.641</ele>
        <time>2021-08-19T11:54:42Z</time>
      </trkpt>
      <trkpt lat="41.681740" lon="0.958615">
        <ele>234.347</ele>
        <time>2021-08-19T11:54:45Z</time>
      </trkpt>
      <trkpt lat="41.681687" lon="0.958619">
        <ele>234.149</ele>
        <time>2021-08-19T11:54:49Z</time>
      </trkpt>
      <trkpt lat="41.681637" lon="0.958607">
        <ele>234.102</ele>
        <time>2021-08-19T11:54:53Z</time>
      </trkpt>
      <trkpt lat="41.681591" lon="0.958589">
        <ele>234.322</ele>
        <time>2021-08-19T11:54:56Z</time>
      </trkpt>
      <trkpt lat="41.681543" lon="0.958570">
        <ele>234.409</ele>
        <time>2021-08-19T11:54:59Z</time>
      </trkpt>
      <trkpt lat="41.681480" lon="0.958564">
        <ele>234.725</ele>
        <time>2021-08-19T11:55:03Z</time>
      </trkpt>
      <trkpt lat="41.681422" lon="0.958550">
        <ele>234.936</ele>
        <time>2021-08-19T11:55:06Z</time>
      </trkpt>
      <trkpt lat="41.681363" lon="0.958544">
        <ele>234.937</ele>
        <time>2021-08-19T11:55:09Z</time>
      </trkpt>
      <trkpt lat="41.681301" lon="0.958532">
        <ele>234.841</ele>
        <time>2021-08-19T11:55:12Z</time>
      </trkpt>
      <trkpt lat="41.681246" lon="0.958532">
        <ele>234.642</ele>
        <time>2021-08-19T11:55:15Z</time>
      </trkpt>
      <trkpt lat="41.681180" lon="0.958525">
        <ele>234.568</ele>
        <time>2021-08-19T11:55:18Z</time>
      </trkpt>
      <trkpt lat="41.681130" lon="0.958508">
        <ele>234.463</ele>
        <time>2021-08-19T11:55:21Z</time>
      </trkpt>
      <trkpt lat="41.681079" lon="0.958506">
        <ele>234.494</ele>
        <time>2021-08-19T11:55:23Z</time>
      </trkpt>
      <trkpt lat="41.681021" lon="0.958496">
        <ele>234.460</ele>
        <time>2021-08-19T11:55:26Z</time>
      </trkpt>
      <trkpt lat="41.680968" lon="0.958493">
        <ele>234.452</ele>
        <time>2021-08-19T11:55:29Z</time>
      </trkpt>
      <trkpt lat="41.680907" lon="0.958485">
        <ele>234.553</ele>
        <time>2021-08-19T11:55:32Z</time>
      </trkpt>
      <trkpt lat="41.680848" lon="0.958486">
        <ele>234.408</ele>
        <time>2021-08-19T11:55:35Z</time>
      </trkpt>
      <trkpt lat="41.680802" lon="0.958480">
        <ele>234.609</ele>
        <time>2021-08-19T11:55:38Z</time>
      </trkpt>
      <trkpt lat="41.680765" lon="0.958445">
        <ele>234.936</ele>
        <time>2021-08-19T11:55:41Z</time>
      </trkpt>
      <trkpt lat="41.680728" lon="0.958383">
        <ele>235.317</ele>
        <time>2021-08-19T11:55:44Z</time>
      </trkpt>
      <trkpt lat="41.680722" lon="0.958302">
        <ele>235.358</ele>
        <time>2021-08-19T11:55:46Z</time>
      </trkpt>
      <trkpt lat="41.680713" lon="0.958229">
        <ele>235.192</ele>
        <time>2021-08-19T11:55:48Z</time>
      </trkpt>
      <trkpt lat="41.680711" lon="0.958162">
        <ele>234.863</ele>
        <time>2021-08-19T11:55:50Z</time>
      </trkpt>
      <trkpt lat="41.680699" lon="0.958099">
        <ele>234.639</ele>
        <time>2021-08-19T11:55:53Z</time>
      </trkpt>
      <trkpt lat="41.680685" lon="0.958021">
        <ele>234.534</ele>
        <time>2021-08-19T11:55:55Z</time>
      </trkpt>
      <trkpt lat="41.680673" lon="0.957959">
        <ele>234.455</ele>
        <time>2021-08-19T11:55:57Z</time>
      </trkpt>
      <trkpt lat="41.680660" lon="0.957875">
        <ele>234.451</ele>
        <time>2021-08-19T11:56:00Z</time>
      </trkpt>
      <trkpt lat="41.680652" lon="0.957809">
        <ele>234.361</ele>
        <time>2021-08-19T11:56:02Z</time>
      </trkpt>
      <trkpt lat="41.680645" lon="0.957739">
        <ele>234.321</ele>
        <time>2021-08-19T11:56:04Z</time>
      </trkpt>
      <trkpt lat="41.680628" lon="0.957679">
        <ele>234.313</ele>
        <time>2021-08-19T11:56:06Z</time>
      </trkpt>
      <trkpt lat="41.680624" lon="0.957605">
        <ele>234.209</ele>
        <time>2021-08-19T11:56:09Z</time>
      </trkpt>
      <trkpt lat="41.680675" lon="0.957603">
        <ele>234.197</ele>
        <time>2021-08-19T11:56:21Z</time>
      </trkpt>
      <trkpt lat="41.680740" lon="0.957596">
        <ele>233.948</ele>
        <time>2021-08-19T11:56:24Z</time>
      </trkpt>
      <trkpt lat="41.680804" lon="0.957593">
        <ele>233.739</ele>
        <time>2021-08-19T11:56:27Z</time>
      </trkpt>
      <trkpt lat="41.680855" lon="0.957594">
        <ele>233.893</ele>
        <time>2021-08-19T11:56:30Z</time>
      </trkpt>
      <trkpt lat="41.680908" lon="0.957581">
        <ele>234.194</ele>
        <time>2021-08-19T11:56:34Z</time>
      </trkpt>
      <trkpt lat="41.680964" lon="0.957596">
        <ele>234.360</ele>
        <time>2021-08-19T11:56:37Z</time>
      </trkpt>
      <trkpt lat="41.681022" lon="0.957593">
        <ele>234.665</ele>
        <time>2021-08-19T11:56:40Z</time>
      </trkpt>
      <trkpt lat="41.681067" lon="0.957602">
        <ele>234.886</ele>
        <time>2021-08-19T11:56:42Z</time>
      </trkpt>
      <trkpt lat="41.681113" lon="0.957603">
        <ele>235.052</ele>
        <time>2021-08-19T11:56:44Z</time>
      </trkpt>
      <trkpt lat="41.681158" lon="0.957615">
        <ele>235.056</ele>
        <time>2021-08-19T11:56:46Z</time>
      </trkpt>
      <trkpt lat="41.681208" lon="0.957626">
        <ele>235.059</ele>
        <time>2021-08-19T11:56:48Z</time>
      </trkpt>
      <trkpt lat="41.681260" lon="0.957632">
        <ele>235.014</ele>
        <time>2021-08-19T11:56:51Z</time>
      </trkpt>
      <trkpt lat="41.681308" lon="0.957637">
        <ele>235.009</ele>
        <time>2021-08-19T11:56:53Z</time>
      </trkpt>
      <trkpt lat="41.681372" lon="0.957635">
        <ele>235.056</ele>
        <time>2021-08-19T11:56:56Z</time>
      </trkpt>
      <trkpt lat="41.681418" lon="0.957636">
        <ele>234.997</ele>
        <time>2021-08-19T11:56:58Z</time>
      </trkpt>
      <trkpt lat="41.681469" lon="0.957642">
        <ele>234.748</ele>
        <time>2021-08-19T11:57:01Z</time>
      </trkpt>
      <trkpt lat="41.681418" lon="0.957660">
        <ele>234.932</ele>
        <time>2021-08-19T11:59:42Z</time>
      </trkpt>
      <trkpt lat="41.681364" lon="0.957652">
        <ele>235.013</ele>
        <time>2021-08-19T11:59:45Z</time>
      </trkpt>
      <trkpt lat="41.681297" lon="0.957646">
        <ele>235.049</ele>
        <time>2021-08-19T11:59:48Z</time>
      </trkpt>
      <trkpt lat="41.681249" lon="0.957638">
        <ele>235.024</ele>
        <time>2021-08-19T11:59:50Z</time>
      </trkpt>
      <trkpt lat="41.681205" lon="0.957663">
        <ele>235.025</ele>
        <time>2021-08-19T11:59:53Z</time>
      </trkpt>
      <trkpt lat="41.681141" lon="0.957647">
        <ele>235.081</ele>
        <time>2021-08-19T11:59:55Z</time>
      </trkpt>
      <trkpt lat="41.681087" lon="0.957633">
        <ele>234.915</ele>
        <time>2021-08-19T11:59:56Z</time>
      </trkpt>
      <trkpt lat="41.681042" lon="0.957625">
        <ele>234.665</ele>
        <time>2021-08-19T11:59:58Z</time>
      </trkpt>
      <trkpt lat="41.680992" lon="0.957612">
        <ele>234.411</ele>
        <time>2021-08-19T11:59:59Z</time>
      </trkpt>
      <trkpt lat="41.680928" lon="0.957602">
        <ele>234.109</ele>
        <time>2021-08-19T12:00:01Z</time>
      </trkpt>
      <trkpt lat="41.680874" lon="0.957601">
        <ele>233.892</ele>
        <time>2021-08-19T12:00:03Z</time>
      </trkpt>
      <trkpt lat="41.680827" lon="0.957601">
        <ele>233.743</ele>
        <time>2021-08-19T12:00:04Z</time>
      </trkpt>
      <trkpt lat="41.680779" lon="0.957599">
        <ele>233.824</ele>
        <time>2021-08-19T12:00:05Z</time>
      </trkpt>
      <trkpt lat="41.680726" lon="0.957600">
        <ele>233.988</ele>
        <time>2021-08-19T12:00:07Z</time>
      </trkpt>
      <trkpt lat="41.680670" lon="0.957597">
        <ele>234.149</ele>
        <time>2021-08-19T12:00:09Z</time>
      </trkpt>
      <trkpt lat="41.680625" lon="0.957592">
        <ele>234.225</ele>
        <time>2021-08-19T12:00:11Z</time>
      </trkpt>
      <trkpt lat="41.680590" lon="0.957524">
        <ele>234.110</ele>
        <time>2021-08-19T12:00:14Z</time>
      </trkpt>
      <trkpt lat="41.680573" lon="0.957452">
        <ele>234.011</ele>
        <time>2021-08-19T12:00:17Z</time>
      </trkpt>
      <trkpt lat="41.680561" lon="0.957393">
        <ele>234.027</ele>
        <time>2021-08-19T12:00:19Z</time>
      </trkpt>
      <trkpt lat="41.680538" lon="0.957316">
        <ele>234.152</ele>
        <time>2021-08-19T12:00:21Z</time>
      </trkpt>
      <trkpt lat="41.680519" lon="0.957258">
        <ele>234.253</ele>
        <time>2021-08-19T12:00:23Z</time>
      </trkpt>
      <trkpt lat="41.680499" lon="0.957196">
        <ele>234.108</ele>
        <time>2021-08-19T12:00:24Z</time>
      </trkpt>
      <trkpt lat="41.680479" lon="0.957133">
        <ele>234.009</ele>
        <time>2021-08-19T12:00:26Z</time>
      </trkpt>
      <trkpt lat="41.680460" lon="0.957076">
        <ele>234.076</ele>
        <time>2021-08-19T12:00:28Z</time>
      </trkpt>
      <trkpt lat="41.680448" lon="0.957008">
        <ele>233.937</ele>
        <time>2021-08-19T12:00:32Z</time>
      </trkpt>
      <trkpt lat="41.680434" lon="0.956945">
        <ele>233.968</ele>
        <time>2021-08-19T12:00:35Z</time>
      </trkpt>
      <trkpt lat="41.680433" lon="0.956863">
        <ele>233.832</ele>
        <time>2021-08-19T12:00:38Z</time>
      </trkpt>
      <trkpt lat="41.680427" lon="0.956796">
        <ele>233.723</ele>
        <time>2021-08-19T12:00:40Z</time>
      </trkpt>
      <trkpt lat="41.680415" lon="0.956735">
        <ele>233.619</ele>
        <time>2021-08-19T12:00:41Z</time>
      </trkpt>
      <trkpt lat="41.680402" lon="0.956664">
        <ele>233.624</ele>
        <time>2021-08-19T12:00:44Z</time>
      </trkpt>
      <trkpt lat="41.680394" lon="0.956578">
        <ele>233.645</ele>
        <time>2021-08-19T12:00:47Z</time>
      </trkpt>
      <trkpt lat="41.680387" lon="0.956507">
        <ele>233.621</ele>
        <time>2021-08-19T12:00:50Z</time>
      </trkpt>
      <trkpt lat="41.680382" lon="0.956574">
        <ele>233.637</ele>
        <time>2021-08-19T12:01:00Z</time>
      </trkpt>
      <trkpt lat="41.680401" lon="0.956638">
        <ele>233.649</ele>
        <time>2021-08-19T12:01:03Z</time>
      </trkpt>
      <trkpt lat="41.680434" lon="0.956688">
        <ele>233.513</ele>
        <time>2021-08-19T12:01:06Z</time>
      </trkpt>
      <trkpt lat="41.680498" lon="0.956690">
        <ele>233.209</ele>
        <time>2021-08-19T12:01:08Z</time>
      </trkpt>
      <trkpt lat="41.680540" lon="0.956662">
        <ele>233.124</ele>
        <time>2021-08-19T12:01:10Z</time>
      </trkpt>
      <trkpt lat="41.680583" lon="0.956626">
        <ele>233.045</ele>
        <time>2021-08-19T12:01:12Z</time>
      </trkpt>
      <trkpt lat="41.680630" lon="0.956592">
        <ele>233.046</ele>
        <time>2021-08-19T12:01:15Z</time>
      </trkpt>
      <trkpt lat="41.680673" lon="0.956548">
        <ele>233.010</ele>
        <time>2021-08-19T12:01:17Z</time>
      </trkpt>
      <trkpt lat="41.680718" lon="0.956520">
        <ele>233.011</ele>
        <time>2021-08-19T12:01:19Z</time>
      </trkpt>
      <trkpt lat="41.680779" lon="0.956502">
        <ele>233.097</ele>
        <time>2021-08-19T12:01:22Z</time>
      </trkpt>
      <trkpt lat="41.680829" lon="0.956492">
        <ele>233.052</ele>
        <time>2021-08-19T12:01:26Z</time>
      </trkpt>
      <trkpt lat="41.680879" lon="0.956522">
        <ele>233.053</ele>
        <time>2021-08-19T12:01:31Z</time>
      </trkpt>
      <trkpt lat="41.680921" lon="0.956551">
        <ele>233.059</ele>
        <time>2021-08-19T12:01:43Z</time>
      </trkpt>
      <trkpt lat="41.680964" lon="0.956582">
        <ele>233.075</ele>
        <time>2021-08-19T12:01:48Z</time>
      </trkpt>
      <trkpt lat="41.680995" lon="0.956628">
        <ele>233.028</ele>
        <time>2021-08-19T12:02:55Z</time>
      </trkpt>
      <trkpt lat="41.680957" lon="0.956596">
        <ele>233.020</ele>
        <time>2021-08-19T12:05:23Z</time>
      </trkpt>
      <trkpt lat="41.680918" lon="0.956565">
        <ele>233.009</ele>
        <time>2021-08-19T12:05:33Z</time>
      </trkpt>
      <trkpt lat="41.680872" lon="0.956537">
        <ele>233.018</ele>
        <time>2021-08-19T12:05:38Z</time>
      </trkpt>
      <trkpt lat="41.680823" lon="0.956520">
        <ele>233.069</ele>
        <time>2021-08-19T12:05:42Z</time>
      </trkpt>
      <trkpt lat="41.680772" lon="0.956529">
        <ele>233.020</ele>
        <time>2021-08-19T12:05:49Z</time>
      </trkpt>
      <trkpt lat="41.680727" lon="0.956551">
        <ele>233.074</ele>
        <time>2021-08-19T12:06:14Z</time>
      </trkpt>
      <trkpt lat="41.680678" lon="0.956578">
        <ele>233.085</ele>
        <time>2021-08-19T12:06:19Z</time>
      </trkpt>
      <trkpt lat="41.680630" lon="0.956610">
        <ele>233.061</ele>
        <time>2021-08-19T12:06:24Z</time>
      </trkpt>
      <trkpt lat="41.680590" lon="0.956638">
        <ele>233.056</ele>
        <time>2021-08-19T12:06:29Z</time>
      </trkpt>
      <trkpt lat="41.680546" lon="0.956658">
        <ele>233.037</ele>
        <time>2021-08-19T12:06:33Z</time>
      </trkpt>
      <trkpt lat="41.680495" lon="0.956680">
        <ele>233.223</ele>
        <time>2021-08-19T12:06:39Z</time>
      </trkpt>
      <trkpt lat="41.680454" lon="0.956711">
        <ele>233.449</ele>
        <time>2021-08-19T12:06:44Z</time>
      </trkpt>
      <trkpt lat="41.680409" lon="0.956700">
        <ele>233.602</ele>
        <time>2021-08-19T12:06:49Z</time>
      </trkpt>
      <trkpt lat="41.680414" lon="0.956632">
        <ele>233.522</ele>
        <time>2021-08-19T12:06:56Z</time>
      </trkpt>
      <trkpt lat="41.680386" lon="0.956577">
        <ele>233.609</ele>
        <time>2021-08-19T12:07:24Z</time>
      </trkpt>
      <trkpt lat="41.680360" lon="0.956500">
        <ele>233.775</ele>
        <time>2021-08-19T12:07:28Z</time>
      </trkpt>
      <trkpt lat="41.680370" lon="0.956424">
        <ele>233.726</ele>
        <time>2021-08-19T12:07:30Z</time>
      </trkpt>
      <trkpt lat="41.680372" lon="0.956358">
        <ele>233.677</ele>
        <time>2021-08-19T12:07:32Z</time>
      </trkpt>
      <trkpt lat="41.680368" lon="0.956286">
        <ele>233.641</ele>
        <time>2021-08-19T12:07:34Z</time>
      </trkpt>
      <trkpt lat="41.680362" lon="0.956226">
        <ele>233.592</ele>
        <time>2021-08-19T12:07:36Z</time>
      </trkpt>
      <trkpt lat="41.680357" lon="0.956162">
        <ele>233.558</ele>
        <time>2021-08-19T12:07:38Z</time>
      </trkpt>
      <trkpt lat="41.680356" lon="0.956084">
        <ele>233.683</ele>
        <time>2021-08-19T12:07:40Z</time>
      </trkpt>
      <trkpt lat="41.680353" lon="0.956011">
        <ele>234.044</ele>
        <time>2021-08-19T12:07:42Z</time>
      </trkpt>
      <trkpt lat="41.680350" lon="0.955950">
        <ele>234.330</ele>
        <time>2021-08-19T12:07:44Z</time>
      </trkpt>
      <trkpt lat="41.680347" lon="0.955884">
        <ele>234.778</ele>
        <time>2021-08-19T12:07:46Z</time>
      </trkpt>
      <trkpt lat="41.680349" lon="0.955810">
        <ele>234.933</ele>
        <time>2021-08-19T12:07:48Z</time>
      </trkpt>
      <trkpt lat="41.680344" lon="0.955741">
        <ele>234.826</ele>
        <time>2021-08-19T12:07:50Z</time>
      </trkpt>
      <trkpt lat="41.680336" lon="0.955678">
        <ele>234.709</ele>
        <time>2021-08-19T12:07:52Z</time>
      </trkpt>
      <trkpt lat="41.680328" lon="0.955606">
        <ele>234.688</ele>
        <time>2021-08-19T12:07:54Z</time>
      </trkpt>
      <trkpt lat="41.680330" lon="0.955545">
        <ele>234.559</ele>
        <time>2021-08-19T12:07:56Z</time>
      </trkpt>
      <trkpt lat="41.680315" lon="0.955461">
        <ele>234.940</ele>
        <time>2021-08-19T12:07:59Z</time>
      </trkpt>
      <trkpt lat="41.680298" lon="0.955399">
        <ele>235.374</ele>
        <time>2021-08-19T12:08:02Z</time>
      </trkpt>
      <trkpt lat="41.680280" lon="0.955342">
        <ele>235.745</ele>
        <time>2021-08-19T12:08:04Z</time>
      </trkpt>
      <trkpt lat="41.680251" lon="0.955276">
        <ele>236.221</ele>
        <time>2021-08-19T12:08:07Z</time>
      </trkpt>
      <trkpt lat="41.680217" lon="0.955227">
        <ele>236.486</ele>
        <time>2021-08-19T12:08:09Z</time>
      </trkpt>
      <trkpt lat="41.680192" lon="0.955175">
        <ele>236.517</ele>
        <time>2021-08-19T12:08:11Z</time>
      </trkpt>
      <trkpt lat="41.680176" lon="0.955109">
        <ele>236.593</ele>
        <time>2021-08-19T12:08:13Z</time>
      </trkpt>
      <trkpt lat="41.680149" lon="0.955048">
        <ele>236.541</ele>
        <time>2021-08-19T12:08:15Z</time>
      </trkpt>
      <trkpt lat="41.680113" lon="0.954989">
        <ele>236.681</ele>
        <time>2021-08-19T12:08:17Z</time>
      </trkpt>
      <trkpt lat="41.680096" lon="0.954933">
        <ele>236.509</ele>
        <time>2021-08-19T12:08:19Z</time>
      </trkpt>
      <trkpt lat="41.680069" lon="0.954868">
        <ele>236.409</ele>
        <time>2021-08-19T12:08:22Z</time>
      </trkpt>
      <trkpt lat="41.680061" lon="0.954805">
        <ele>236.275</ele>
        <time>2021-08-19T12:08:24Z</time>
      </trkpt>
      <trkpt lat="41.680042" lon="0.954741">
        <ele>236.156</ele>
        <time>2021-08-19T12:08:26Z</time>
      </trkpt>
      <trkpt lat="41.680022" lon="0.954675">
        <ele>235.787</ele>
        <time>2021-08-19T12:08:28Z</time>
      </trkpt>
      <trkpt lat="41.679999" lon="0.954616">
        <ele>235.251</ele>
        <time>2021-08-19T12:08:30Z</time>
      </trkpt>
      <trkpt lat="41.679987" lon="0.954543">
        <ele>234.722</ele>
        <time>2021-08-19T12:08:32Z</time>
      </trkpt>
      <trkpt lat="41.679969" lon="0.954475">
        <ele>234.168</ele>
        <time>2021-08-19T12:08:34Z</time>
      </trkpt>
      <trkpt lat="41.679945" lon="0.954388">
        <ele>233.763</ele>
        <time>2021-08-19T12:08:37Z</time>
      </trkpt>
      <trkpt lat="41.679929" lon="0.954324">
        <ele>233.514</ele>
        <time>2021-08-19T12:08:39Z</time>
      </trkpt>
      <trkpt lat="41.679912" lon="0.954265">
        <ele>233.430</ele>
        <time>2021-08-19T12:08:41Z</time>
      </trkpt>
      <trkpt lat="41.679895" lon="0.954207">
        <ele>233.499</ele>
        <time>2021-08-19T12:08:43Z</time>
      </trkpt>
      <trkpt lat="41.679875" lon="0.954149">
        <ele>233.507</ele>
        <time>2021-08-19T12:08:45Z</time>
      </trkpt>
      <trkpt lat="41.679845" lon="0.954090">
        <ele>234.027</ele>
        <time>2021-08-19T12:08:47Z</time>
      </trkpt>
      <trkpt lat="41.679822" lon="0.954029">
        <ele>234.309</ele>
        <time>2021-08-19T12:08:49Z</time>
      </trkpt>
      <trkpt lat="41.679798" lon="0.953960">
        <ele>234.720</ele>
        <time>2021-08-19T12:08:51Z</time>
      </trkpt>
      <trkpt lat="41.679781" lon="0.953885">
        <ele>235.091</ele>
        <time>2021-08-19T12:08:53Z</time>
      </trkpt>
      <trkpt lat="41.679759" lon="0.953818">
        <ele>235.482</ele>
        <time>2021-08-19T12:08:55Z</time>
      </trkpt>
      <trkpt lat="41.679739" lon="0.953745">
        <ele>236.046</ele>
        <time>2021-08-19T12:08:57Z</time>
      </trkpt>
      <trkpt lat="41.679727" lon="0.953673">
        <ele>236.567</ele>
        <time>2021-08-19T12:08:59Z</time>
      </trkpt>
      <trkpt lat="41.679722" lon="0.953598">
        <ele>237.053</ele>
        <time>2021-08-19T12:09:01Z</time>
      </trkpt>
      <trkpt lat="41.679706" lon="0.953522">
        <ele>236.858</ele>
        <time>2021-08-19T12:09:03Z</time>
      </trkpt>
      <trkpt lat="41.679689" lon="0.953453">
        <ele>236.839</ele>
        <time>2021-08-19T12:09:05Z</time>
      </trkpt>
      <trkpt lat="41.679663" lon="0.953373">
        <ele>236.925</ele>
        <time>2021-08-19T12:09:07Z</time>
      </trkpt>
      <trkpt lat="41.679636" lon="0.953289">
        <ele>237.137</ele>
        <time>2021-08-19T12:09:09Z</time>
      </trkpt>
      <trkpt lat="41.679613" lon="0.953217">
        <ele>237.249</ele>
        <time>2021-08-19T12:09:11Z</time>
      </trkpt>
      <trkpt lat="41.679598" lon="0.953147">
        <ele>237.113</ele>
        <time>2021-08-19T12:09:13Z</time>
      </trkpt>
      <trkpt lat="41.679576" lon="0.953064">
        <ele>237.109</ele>
        <time>2021-08-19T12:09:15Z</time>
      </trkpt>
      <trkpt lat="41.679552" lon="0.952992">
        <ele>237.134</ele>
        <time>2021-08-19T12:09:17Z</time>
      </trkpt>
      <trkpt lat="41.679537" lon="0.952913">
        <ele>236.835</ele>
        <time>2021-08-19T12:09:19Z</time>
      </trkpt>
      <trkpt lat="41.679517" lon="0.952841">
        <ele>236.666</ele>
        <time>2021-08-19T12:09:21Z</time>
      </trkpt>
      <trkpt lat="41.679504" lon="0.952769">
        <ele>236.380</ele>
        <time>2021-08-19T12:09:23Z</time>
      </trkpt>
      <trkpt lat="41.679488" lon="0.952687">
        <ele>235.971</ele>
        <time>2021-08-19T12:09:25Z</time>
      </trkpt>
      <trkpt lat="41.679469" lon="0.952608">
        <ele>235.527</ele>
        <time>2021-08-19T12:09:27Z</time>
      </trkpt>
      <trkpt lat="41.679465" lon="0.952522">
        <ele>234.972</ele>
        <time>2021-08-19T12:09:29Z</time>
      </trkpt>
      <trkpt lat="41.679456" lon="0.952444">
        <ele>234.713</ele>
        <time>2021-08-19T12:09:31Z</time>
      </trkpt>
      <trkpt lat="41.679445" lon="0.952361">
        <ele>234.569</ele>
        <time>2021-08-19T12:09:33Z</time>
      </trkpt>
      <trkpt lat="41.679443" lon="0.952293">
        <ele>234.317</ele>
        <time>2021-08-19T12:09:35Z</time>
      </trkpt>
      <trkpt lat="41.679435" lon="0.952189">
        <ele>234.287</ele>
        <time>2021-08-19T12:09:37Z</time>
      </trkpt>
      <trkpt lat="41.679431" lon="0.952105">
        <ele>234.515</ele>
        <time>2021-08-19T12:09:39Z</time>
      </trkpt>
      <trkpt lat="41.679422" lon="0.952016">
        <ele>234.909</ele>
        <time>2021-08-19T12:09:41Z</time>
      </trkpt>
      <trkpt lat="41.679415" lon="0.951935">
        <ele>235.162</ele>
        <time>2021-08-19T12:09:43Z</time>
      </trkpt>
      <trkpt lat="41.679405" lon="0.951854">
        <ele>234.743</ele>
        <time>2021-08-19T12:09:45Z</time>
      </trkpt>
      <trkpt lat="41.679399" lon="0.951779">
        <ele>234.234</ele>
        <time>2021-08-19T12:09:47Z</time>
      </trkpt>
      <trkpt lat="41.679396" lon="0.951710">
        <ele>233.818</ele>
        <time>2021-08-19T12:09:49Z</time>
      </trkpt>
      <trkpt lat="41.679391" lon="0.951643">
        <ele>233.679</ele>
        <time>2021-08-19T12:09:51Z</time>
      </trkpt>
      <trkpt lat="41.679374" lon="0.951573">
        <ele>233.875</ele>
        <time>2021-08-19T12:09:53Z</time>
      </trkpt>
      <trkpt lat="41.679368" lon="0.951489">
        <ele>234.040</ele>
        <time>2021-08-19T12:09:55Z</time>
      </trkpt>
      <trkpt lat="41.679359" lon="0.951413">
        <ele>234.261</ele>
        <time>2021-08-19T12:09:57Z</time>
      </trkpt>
      <trkpt lat="41.679352" lon="0.951339">
        <ele>234.257</ele>
        <time>2021-08-19T12:09:59Z</time>
      </trkpt>
      <trkpt lat="41.679338" lon="0.951267">
        <ele>234.342</ele>
        <time>2021-08-19T12:10:01Z</time>
      </trkpt>
      <trkpt lat="41.679327" lon="0.951204">
        <ele>234.322</ele>
        <time>2021-08-19T12:10:03Z</time>
      </trkpt>
      <trkpt lat="41.679319" lon="0.951118">
        <ele>234.314</ele>
        <time>2021-08-19T12:10:06Z</time>
      </trkpt>
      <trkpt lat="41.679307" lon="0.951030">
        <ele>234.509</ele>
        <time>2021-08-19T12:10:08Z</time>
      </trkpt>
      <trkpt lat="41.679302" lon="0.950965">
        <ele>234.615</ele>
        <time>2021-08-19T12:10:10Z</time>
      </trkpt>
      <trkpt lat="41.679295" lon="0.950878">
        <ele>234.696</ele>
        <time>2021-08-19T12:10:13Z</time>
      </trkpt>
      <trkpt lat="41.679294" lon="0.950815">
        <ele>234.667</ele>
        <time>2021-08-19T12:10:15Z</time>
      </trkpt>
      <trkpt lat="41.679289" lon="0.950753">
        <ele>234.521</ele>
        <time>2021-08-19T12:10:17Z</time>
      </trkpt>
      <trkpt lat="41.679281" lon="0.950692">
        <ele>234.572</ele>
        <time>2021-08-19T12:10:19Z</time>
      </trkpt>
      <trkpt lat="41.679281" lon="0.950609">
        <ele>234.388</ele>
        <time>2021-08-19T12:10:22Z</time>
      </trkpt>
      <trkpt lat="41.679271" lon="0.950543">
        <ele>234.293</ele>
        <time>2021-08-19T12:10:24Z</time>
      </trkpt>
      <trkpt lat="41.679258" lon="0.950456">
        <ele>234.294</ele>
        <time>2021-08-19T12:10:27Z</time>
      </trkpt>
      <trkpt lat="41.679262" lon="0.950379">
        <ele>234.160</ele>
        <time>2021-08-19T12:10:29Z</time>
      </trkpt>
      <trkpt lat="41.679256" lon="0.950306">
        <ele>234.117</ele>
        <time>2021-08-19T12:10:31Z</time>
      </trkpt>
      <trkpt lat="41.679240" lon="0.950242">
        <ele>234.387</ele>
        <time>2021-08-19T12:10:33Z</time>
      </trkpt>
      <trkpt lat="41.679238" lon="0.950160">
        <ele>234.715</ele>
        <time>2021-08-19T12:10:36Z</time>
      </trkpt>
      <trkpt lat="41.679231" lon="0.950095">
        <ele>235.009</ele>
        <time>2021-08-19T12:10:39Z</time>
      </trkpt>
      <trkpt lat="41.679235" lon="0.950022">
        <ele>235.242</ele>
        <time>2021-08-19T12:10:42Z</time>
      </trkpt>
      <trkpt lat="41.679227" lon="0.949936">
        <ele>235.323</ele>
        <time>2021-08-19T12:10:45Z</time>
      </trkpt>
      <trkpt lat="41.679216" lon="0.949855">
        <ele>235.484</ele>
        <time>2021-08-19T12:10:48Z</time>
      </trkpt>
      <trkpt lat="41.679186" lon="0.949808">
        <ele>235.798</ele>
        <time>2021-08-19T12:10:50Z</time>
      </trkpt>
      <trkpt lat="41.679171" lon="0.949750">
        <ele>235.949</ele>
        <time>2021-08-19T12:10:52Z</time>
      </trkpt>
      <trkpt lat="41.679161" lon="0.949672">
        <ele>236.225</ele>
        <time>2021-08-19T12:10:54Z</time>
      </trkpt>
      <trkpt lat="41.679158" lon="0.949602">
        <ele>236.260</ele>
        <time>2021-08-19T12:10:56Z</time>
      </trkpt>
      <trkpt lat="41.679145" lon="0.949515">
        <ele>236.621</ele>
        <time>2021-08-19T12:10:59Z</time>
      </trkpt>
      <trkpt lat="41.679138" lon="0.949441">
        <ele>236.747</ele>
        <time>2021-08-19T12:11:01Z</time>
      </trkpt>
      <trkpt lat="41.679122" lon="0.949371">
        <ele>236.655</ele>
        <time>2021-08-19T12:11:03Z</time>
      </trkpt>
      <trkpt lat="41.679116" lon="0.949286">
        <ele>236.107</ele>
        <time>2021-08-19T12:11:06Z</time>
      </trkpt>
      <trkpt lat="41.679112" lon="0.949195">
        <ele>235.617</ele>
        <time>2021-08-19T12:11:08Z</time>
      </trkpt>
      <trkpt lat="41.679106" lon="0.949114">
        <ele>235.209</ele>
        <time>2021-08-19T12:11:10Z</time>
      </trkpt>
      <trkpt lat="41.679103" lon="0.949038">
        <ele>234.726</ele>
        <time>2021-08-19T12:11:12Z</time>
      </trkpt>
      <trkpt lat="41.679089" lon="0.948957">
        <ele>234.447</ele>
        <time>2021-08-19T12:11:14Z</time>
      </trkpt>
      <trkpt lat="41.679083" lon="0.948873">
        <ele>234.118</ele>
        <time>2021-08-19T12:11:16Z</time>
      </trkpt>
      <trkpt lat="41.679071" lon="0.948793">
        <ele>234.522</ele>
        <time>2021-08-19T12:11:18Z</time>
      </trkpt>
      <trkpt lat="41.679059" lon="0.948708">
        <ele>235.033</ele>
        <time>2021-08-19T12:11:20Z</time>
      </trkpt>
      <trkpt lat="41.679051" lon="0.948628">
        <ele>235.379</ele>
        <time>2021-08-19T12:11:22Z</time>
      </trkpt>
      <trkpt lat="41.679053" lon="0.948553">
        <ele>235.454</ele>
        <time>2021-08-19T12:11:24Z</time>
      </trkpt>
      <trkpt lat="41.679050" lon="0.948452">
        <ele>235.755</ele>
        <time>2021-08-19T12:11:26Z</time>
      </trkpt>
      <trkpt lat="41.679060" lon="0.948343">
        <ele>235.711</ele>
        <time>2021-08-19T12:11:28Z</time>
      </trkpt>
      <trkpt lat="41.679066" lon="0.948243">
        <ele>235.144</ele>
        <time>2021-08-19T12:11:30Z</time>
      </trkpt>
      <trkpt lat="41.679063" lon="0.948156">
        <ele>234.705</ele>
        <time>2021-08-19T12:11:32Z</time>
      </trkpt>
      <trkpt lat="41.679062" lon="0.948062">
        <ele>234.315</ele>
        <time>2021-08-19T12:11:34Z</time>
      </trkpt>
      <trkpt lat="41.679050" lon="0.947986">
        <ele>234.609</ele>
        <time>2021-08-19T12:11:36Z</time>
      </trkpt>
      <trkpt lat="41.679033" lon="0.947878">
        <ele>234.945</ele>
        <time>2021-08-19T12:11:38Z</time>
      </trkpt>
      <trkpt lat="41.679013" lon="0.947796">
        <ele>235.226</ele>
        <time>2021-08-19T12:11:40Z</time>
      </trkpt>
      <trkpt lat="41.679004" lon="0.947722">
        <ele>235.387</ele>
        <time>2021-08-19T12:11:42Z</time>
      </trkpt>
      <trkpt lat="41.678992" lon="0.947655">
        <ele>235.461</ele>
        <time>2021-08-19T12:11:44Z</time>
      </trkpt>
      <trkpt lat="41.678981" lon="0.947589">
        <ele>235.442</ele>
        <time>2021-08-19T12:11:46Z</time>
      </trkpt>
      <trkpt lat="41.678963" lon="0.947521">
        <ele>235.558</ele>
        <time>2021-08-19T12:11:48Z</time>
      </trkpt>
      <trkpt lat="41.678939" lon="0.947445">
        <ele>235.693</ele>
        <time>2021-08-19T12:11:50Z</time>
      </trkpt>
      <trkpt lat="41.678918" lon="0.947382">
        <ele>235.794</ele>
        <time>2021-08-19T12:11:52Z</time>
      </trkpt>
      <trkpt lat="41.678889" lon="0.947303">
        <ele>236.090</ele>
        <time>2021-08-19T12:11:54Z</time>
      </trkpt>
      <trkpt lat="41.678860" lon="0.947211">
        <ele>236.041</ele>
        <time>2021-08-19T12:11:56Z</time>
      </trkpt>
      <trkpt lat="41.678828" lon="0.947119">
        <ele>235.681</ele>
        <time>2021-08-19T12:11:58Z</time>
      </trkpt>
      <trkpt lat="41.678796" lon="0.947027">
        <ele>235.309</ele>
        <time>2021-08-19T12:12:00Z</time>
      </trkpt>
      <trkpt lat="41.678770" lon="0.946938">
        <ele>235.009</ele>
        <time>2021-08-19T12:12:02Z</time>
      </trkpt>
      <trkpt lat="41.678747" lon="0.946859">
        <ele>234.525</ele>
        <time>2021-08-19T12:12:04Z</time>
      </trkpt>
      <trkpt lat="41.678727" lon="0.946781">
        <ele>234.276</ele>
        <time>2021-08-19T12:12:06Z</time>
      </trkpt>
      <trkpt lat="41.678698" lon="0.946711">
        <ele>233.977</ele>
        <time>2021-08-19T12:12:08Z</time>
      </trkpt>
      <trkpt lat="41.678682" lon="0.946638">
        <ele>233.791</ele>
        <time>2021-08-19T12:12:10Z</time>
      </trkpt>
      <trkpt lat="41.678654" lon="0.946563">
        <ele>233.522</ele>
        <time>2021-08-19T12:12:12Z</time>
      </trkpt>
      <trkpt lat="41.678633" lon="0.946485">
        <ele>233.398</ele>
        <time>2021-08-19T12:12:14Z</time>
      </trkpt>
      <trkpt lat="41.678608" lon="0.946413">
        <ele>233.173</ele>
        <time>2021-08-19T12:12:16Z</time>
      </trkpt>
      <trkpt lat="41.678590" lon="0.946343">
        <ele>233.024</ele>
        <time>2021-08-19T12:12:18Z</time>
      </trkpt>
      <trkpt lat="41.678570" lon="0.946283">
        <ele>232.990</ele>
        <time>2021-08-19T12:12:20Z</time>
      </trkpt>
      <trkpt lat="41.678552" lon="0.946224">
        <ele>232.816</ele>
        <time>2021-08-19T12:12:22Z</time>
      </trkpt>
      <trkpt lat="41.678538" lon="0.946162">
        <ele>232.576</ele>
        <time>2021-08-19T12:12:24Z</time>
      </trkpt>
      <trkpt lat="41.678518" lon="0.946102">
        <ele>232.313</ele>
        <time>2021-08-19T12:12:26Z</time>
      </trkpt>
      <trkpt lat="41.678508" lon="0.946026">
        <ele>232.009</ele>
        <time>2021-08-19T12:12:29Z</time>
      </trkpt>
      <trkpt lat="41.678562" lon="0.945991">
        <ele>231.722</ele>
        <time>2021-08-19T12:12:32Z</time>
      </trkpt>
      <trkpt lat="41.678631" lon="0.945990">
        <ele>231.673</ele>
        <time>2021-08-19T12:12:35Z</time>
      </trkpt>
      <trkpt lat="41.678692" lon="0.945975">
        <ele>231.774</ele>
        <time>2021-08-19T12:12:38Z</time>
      </trkpt>
      <trkpt lat="41.678737" lon="0.945969">
        <ele>231.758</ele>
        <time>2021-08-19T12:12:40Z</time>
      </trkpt>
      <trkpt lat="41.678792" lon="0.945953">
        <ele>231.889</ele>
        <time>2021-08-19T12:12:43Z</time>
      </trkpt>
      <trkpt lat="41.678844" lon="0.945950">
        <ele>231.935</ele>
        <time>2021-08-19T12:16:18Z</time>
      </trkpt>
      <trkpt lat="41.678795" lon="0.945956">
        <ele>231.830</ele>
        <time>2021-08-19T12:20:21Z</time>
      </trkpt>
      <trkpt lat="41.678748" lon="0.945984">
        <ele>231.871</ele>
        <time>2021-08-19T12:21:04Z</time>
      </trkpt>
      <trkpt lat="41.678696" lon="0.946013">
        <ele>231.867</ele>
        <time>2021-08-19T12:21:09Z</time>
      </trkpt>
      <trkpt lat="41.678649" lon="0.946014">
        <ele>231.716</ele>
        <time>2021-08-19T12:21:11Z</time>
      </trkpt>
      <trkpt lat="41.678600" lon="0.946023">
        <ele>231.776</ele>
        <time>2021-08-19T12:21:13Z</time>
      </trkpt>
      <trkpt lat="41.678548" lon="0.946027">
        <ele>231.913</ele>
        <time>2021-08-19T12:21:15Z</time>
      </trkpt>
      <trkpt lat="41.678501" lon="0.946031">
        <ele>232.009</ele>
        <time>2021-08-19T12:21:18Z</time>
      </trkpt>
      <trkpt lat="41.678459" lon="0.945985">
        <ele>231.852</ele>
        <time>2021-08-19T12:21:22Z</time>
      </trkpt>
      <trkpt lat="41.678420" lon="0.945940">
        <ele>231.673</ele>
        <time>2021-08-19T12:21:25Z</time>
      </trkpt>
      <trkpt lat="41.678362" lon="0.945936">
        <ele>231.774</ele>
        <time>2021-08-19T12:21:28Z</time>
      </trkpt>
      <trkpt lat="41.678307" lon="0.945950">
        <ele>232.238</ele>
        <time>2021-08-19T12:21:30Z</time>
      </trkpt>
      <trkpt lat="41.678249" lon="0.945956">
        <ele>232.939</ele>
        <time>2021-08-19T12:21:33Z</time>
      </trkpt>
      <trkpt lat="41.678202" lon="0.945912">
        <ele>233.115</ele>
        <time>2021-08-19T12:21:36Z</time>
      </trkpt>
      <trkpt lat="41.678177" lon="0.945855">
        <ele>232.930</ele>
        <time>2021-08-19T12:21:38Z</time>
      </trkpt>
      <trkpt lat="41.678158" lon="0.945782">
        <ele>232.911</ele>
        <time>2021-08-19T12:21:40Z</time>
      </trkpt>
      <trkpt lat="41.678143" lon="0.945711">
        <ele>233.157</ele>
        <time>2021-08-19T12:21:42Z</time>
      </trkpt>
      <trkpt lat="41.678136" lon="0.945625">
        <ele>233.138</ele>
        <time>2021-08-19T12:21:44Z</time>
      </trkpt>
      <trkpt lat="41.678126" lon="0.945548">
        <ele>233.370</ele>
        <time>2021-08-19T12:21:46Z</time>
      </trkpt>
      <trkpt lat="41.678117" lon="0.945464">
        <ele>233.817</ele>
        <time>2021-08-19T12:21:48Z</time>
      </trkpt>
      <trkpt lat="41.678096" lon="0.945383">
        <ele>234.609</ele>
        <time>2021-08-19T12:21:50Z</time>
      </trkpt>
      <trkpt lat="41.678087" lon="0.945299">
        <ele>235.344</ele>
        <time>2021-08-19T12:21:52Z</time>
      </trkpt>
      <trkpt lat="41.678076" lon="0.945215">
        <ele>235.645</ele>
        <time>2021-08-19T12:21:54Z</time>
      </trkpt>
      <trkpt lat="41.678060" lon="0.945145">
        <ele>235.956</ele>
        <time>2021-08-19T12:21:56Z</time>
      </trkpt>
      <trkpt lat="41.678051" lon="0.945058">
        <ele>236.130</ele>
        <time>2021-08-19T12:21:58Z</time>
      </trkpt>
      <trkpt lat="41.678035" lon="0.944977">
        <ele>236.411</ele>
        <time>2021-08-19T12:22:00Z</time>
      </trkpt>
      <trkpt lat="41.678024" lon="0.944910">
        <ele>236.787</ele>
        <time>2021-08-19T12:22:02Z</time>
      </trkpt>
      <trkpt lat="41.678015" lon="0.944843">
        <ele>237.122</ele>
        <time>2021-08-19T12:22:04Z</time>
      </trkpt>
      <trkpt lat="41.678007" lon="0.944743">
        <ele>237.583</ele>
        <time>2021-08-19T12:22:06Z</time>
      </trkpt>
      <trkpt lat="41.677995" lon="0.944657">
        <ele>237.399</ele>
        <time>2021-08-19T12:22:08Z</time>
      </trkpt>
      <trkpt lat="41.677977" lon="0.944582">
        <ele>237.338</ele>
        <time>2021-08-19T12:22:10Z</time>
      </trkpt>
      <trkpt lat="41.677962" lon="0.944510">
        <ele>237.370</ele>
        <time>2021-08-19T12:22:12Z</time>
      </trkpt>
      <trkpt lat="41.677944" lon="0.944438">
        <ele>237.417</ele>
        <time>2021-08-19T12:22:14Z</time>
      </trkpt>
      <trkpt lat="41.677937" lon="0.944363">
        <ele>237.009</ele>
        <time>2021-08-19T12:22:16Z</time>
      </trkpt>
      <trkpt lat="41.677915" lon="0.944291">
        <ele>236.944</ele>
        <time>2021-08-19T12:22:18Z</time>
      </trkpt>
      <trkpt lat="41.677903" lon="0.944210">
        <ele>236.515</ele>
        <time>2021-08-19T12:22:20Z</time>
      </trkpt>
      <trkpt lat="41.677900" lon="0.944120">
        <ele>236.146</ele>
        <time>2021-08-19T12:22:22Z</time>
      </trkpt>
      <trkpt lat="41.677890" lon="0.944028">
        <ele>236.010</ele>
        <time>2021-08-19T12:22:24Z</time>
      </trkpt>
      <trkpt lat="41.677878" lon="0.943944">
        <ele>236.081</ele>
        <time>2021-08-19T12:22:26Z</time>
      </trkpt>
      <trkpt lat="41.677865" lon="0.943864">
        <ele>236.047</ele>
        <time>2021-08-19T12:22:28Z</time>
      </trkpt>
      <trkpt lat="41.677859" lon="0.943783">
        <ele>235.692</ele>
        <time>2021-08-19T12:22:30Z</time>
      </trkpt>
      <trkpt lat="41.677843" lon="0.943714">
        <ele>235.573</ele>
        <time>2021-08-19T12:22:32Z</time>
      </trkpt>
      <trkpt lat="41.677838" lon="0.943629">
        <ele>235.029</ele>
        <time>2021-08-19T12:22:34Z</time>
      </trkpt>
      <trkpt lat="41.677828" lon="0.943548">
        <ele>235.361</ele>
        <time>2021-08-19T12:22:36Z</time>
      </trkpt>
      <trkpt lat="41.677818" lon="0.943470">
        <ele>235.721</ele>
        <time>2021-08-19T12:22:38Z</time>
      </trkpt>
      <trkpt lat="41.677814" lon="0.943395">
        <ele>236.013</ele>
        <time>2021-08-19T12:22:40Z</time>
      </trkpt>
      <trkpt lat="41.677802" lon="0.943313">
        <ele>236.609</ele>
        <time>2021-08-19T12:22:42Z</time>
      </trkpt>
      <trkpt lat="41.677792" lon="0.943226">
        <ele>237.467</ele>
        <time>2021-08-19T12:22:44Z</time>
      </trkpt>
      <trkpt lat="41.677787" lon="0.943141">
        <ele>238.218</ele>
        <time>2021-08-19T12:22:46Z</time>
      </trkpt>
      <trkpt lat="41.677778" lon="0.943056">
        <ele>239.069</ele>
        <time>2021-08-19T12:22:48Z</time>
      </trkpt>
      <trkpt lat="41.677771" lon="0.942963">
        <ele>239.923</ele>
        <time>2021-08-19T12:22:50Z</time>
      </trkpt>
      <trkpt lat="41.677769" lon="0.942872">
        <ele>240.614</ele>
        <time>2021-08-19T12:22:52Z</time>
      </trkpt>
      <trkpt lat="41.677774" lon="0.942792">
        <ele>241.080</ele>
        <time>2021-08-19T12:22:54Z</time>
      </trkpt>
      <trkpt lat="41.677781" lon="0.942705">
        <ele>240.685</ele>
        <time>2021-08-19T12:22:56Z</time>
      </trkpt>
      <trkpt lat="41.677791" lon="0.942615">
        <ele>240.016</ele>
        <time>2021-08-19T12:22:58Z</time>
      </trkpt>
      <trkpt lat="41.677809" lon="0.942542">
        <ele>239.312</ele>
        <time>2021-08-19T12:23:00Z</time>
      </trkpt>
      <trkpt lat="41.677824" lon="0.942476">
        <ele>238.858</ele>
        <time>2021-08-19T12:23:01Z</time>
      </trkpt>
      <trkpt lat="41.677835" lon="0.942411">
        <ele>238.652</ele>
        <time>2021-08-19T12:23:02Z</time>
      </trkpt>
      <trkpt lat="41.677849" lon="0.942322">
        <ele>238.417</ele>
        <time>2021-08-19T12:23:04Z</time>
      </trkpt>
      <trkpt lat="41.677857" lon="0.942231">
        <ele>238.309</ele>
        <time>2021-08-19T12:23:06Z</time>
      </trkpt>
      <trkpt lat="41.677872" lon="0.942145">
        <ele>238.056</ele>
        <time>2021-08-19T12:23:08Z</time>
      </trkpt>
      <trkpt lat="41.677879" lon="0.942058">
        <ele>237.967</ele>
        <time>2021-08-19T12:23:10Z</time>
      </trkpt>
      <trkpt lat="41.677882" lon="0.941967">
        <ele>237.918</ele>
        <time>2021-08-19T12:23:12Z</time>
      </trkpt>
      <trkpt lat="41.677893" lon="0.941885">
        <ele>237.962</ele>
        <time>2021-08-19T12:23:14Z</time>
      </trkpt>
      <trkpt lat="41.677903" lon="0.941809">
        <ele>237.923</ele>
        <time>2021-08-19T12:23:16Z</time>
      </trkpt>
      <trkpt lat="41.677905" lon="0.941738">
        <ele>238.069</ele>
        <time>2021-08-19T12:23:18Z</time>
      </trkpt>
      <trkpt lat="41.677913" lon="0.941668">
        <ele>238.124</ele>
        <time>2021-08-19T12:23:20Z</time>
      </trkpt>
      <trkpt lat="41.677909" lon="0.941582">
        <ele>237.855</ele>
        <time>2021-08-19T12:23:22Z</time>
      </trkpt>
      <trkpt lat="41.677901" lon="0.941497">
        <ele>237.511</ele>
        <time>2021-08-19T12:23:24Z</time>
      </trkpt>
      <trkpt lat="41.677892" lon="0.941413">
        <ele>237.393</ele>
        <time>2021-08-19T12:23:26Z</time>
      </trkpt>
      <trkpt lat="41.677880" lon="0.941330">
        <ele>237.165</ele>
        <time>2021-08-19T12:23:28Z</time>
      </trkpt>
      <trkpt lat="41.677864" lon="0.941241">
        <ele>236.821</ele>
        <time>2021-08-19T12:23:30Z</time>
      </trkpt>
      <trkpt lat="41.677839" lon="0.941178">
        <ele>236.809</ele>
        <time>2021-08-19T12:23:32Z</time>
      </trkpt>
      <trkpt lat="41.677813" lon="0.941080">
        <ele>236.530</ele>
        <time>2021-08-19T12:23:34Z</time>
      </trkpt>
      <trkpt lat="41.677789" lon="0.940995">
        <ele>236.131</ele>
        <time>2021-08-19T12:23:36Z</time>
      </trkpt>
      <trkpt lat="41.677768" lon="0.940913">
        <ele>235.752</ele>
        <time>2021-08-19T12:23:38Z</time>
      </trkpt>
      <trkpt lat="41.677750" lon="0.940836">
        <ele>235.326</ele>
        <time>2021-08-19T12:23:40Z</time>
      </trkpt>
      <trkpt lat="41.677731" lon="0.940755">
        <ele>235.277</ele>
        <time>2021-08-19T12:23:42Z</time>
      </trkpt>
      <trkpt lat="41.677714" lon="0.940681">
        <ele>235.183</ele>
        <time>2021-08-19T12:23:44Z</time>
      </trkpt>
      <trkpt lat="41.677690" lon="0.940614">
        <ele>235.248</ele>
        <time>2021-08-19T12:23:46Z</time>
      </trkpt>
      <trkpt lat="41.677677" lon="0.940541">
        <ele>235.139</ele>
        <time>2021-08-19T12:23:48Z</time>
      </trkpt>
      <trkpt lat="41.677668" lon="0.940461">
        <ele>235.135</ele>
        <time>2021-08-19T12:23:50Z</time>
      </trkpt>
      <trkpt lat="41.677666" lon="0.940380">
        <ele>235.019</ele>
        <time>2021-08-19T12:23:52Z</time>
      </trkpt>
      <trkpt lat="41.677672" lon="0.940294">
        <ele>234.809</ele>
        <time>2021-08-19T12:23:54Z</time>
      </trkpt>
      <trkpt lat="41.677676" lon="0.940219">
        <ele>234.719</ele>
        <time>2021-08-19T12:23:56Z</time>
      </trkpt>
      <trkpt lat="41.677673" lon="0.940140">
        <ele>234.609</ele>
        <time>2021-08-19T12:23:58Z</time>
      </trkpt>
      <trkpt lat="41.677669" lon="0.940069">
        <ele>234.532</ele>
        <time>2021-08-19T12:24:00Z</time>
      </trkpt>
      <trkpt lat="41.677672" lon="0.940005">
        <ele>234.463</ele>
        <time>2021-08-19T12:24:02Z</time>
      </trkpt>
      <trkpt lat="41.677681" lon="0.939904">
        <ele>234.064</ele>
        <time>2021-08-19T12:24:05Z</time>
      </trkpt>
      <trkpt lat="41.677685" lon="0.939812">
        <ele>233.738</ele>
        <time>2021-08-19T12:24:07Z</time>
      </trkpt>
      <trkpt lat="41.677691" lon="0.939720">
        <ele>233.349</ele>
        <time>2021-08-19T12:24:09Z</time>
      </trkpt>
      <trkpt lat="41.677686" lon="0.939634">
        <ele>233.145</ele>
        <time>2021-08-19T12:24:11Z</time>
      </trkpt>
      <trkpt lat="41.677688" lon="0.939534">
        <ele>232.950</ele>
        <time>2021-08-19T12:24:13Z</time>
      </trkpt>
      <trkpt lat="41.677675" lon="0.939442">
        <ele>232.791</ele>
        <time>2021-08-19T12:24:15Z</time>
      </trkpt>
      <trkpt lat="41.677668" lon="0.939349">
        <ele>232.837</ele>
        <time>2021-08-19T12:24:17Z</time>
      </trkpt>
      <trkpt lat="41.677675" lon="0.939251">
        <ele>232.721</ele>
        <time>2021-08-19T12:24:19Z</time>
      </trkpt>
      <trkpt lat="41.677683" lon="0.939171">
        <ele>232.741</ele>
        <time>2021-08-19T12:24:21Z</time>
      </trkpt>
      <trkpt lat="41.677696" lon="0.939085">
        <ele>232.905</ele>
        <time>2021-08-19T12:24:23Z</time>
      </trkpt>
      <trkpt lat="41.677703" lon="0.939017">
        <ele>233.109</ele>
        <time>2021-08-19T12:24:25Z</time>
      </trkpt>
      <trkpt lat="41.677696" lon="0.938933">
        <ele>233.453</ele>
        <time>2021-08-19T12:24:27Z</time>
      </trkpt>
      <trkpt lat="41.677695" lon="0.938844">
        <ele>233.514</ele>
        <time>2021-08-19T12:24:29Z</time>
      </trkpt>
      <trkpt lat="41.677702" lon="0.938777">
        <ele>233.425</ele>
        <time>2021-08-19T12:24:31Z</time>
      </trkpt>
      <trkpt lat="41.677707" lon="0.938707">
        <ele>233.379</ele>
        <time>2021-08-19T12:24:33Z</time>
      </trkpt>
      <trkpt lat="41.677716" lon="0.938609">
        <ele>233.220</ele>
        <time>2021-08-19T12:24:35Z</time>
      </trkpt>
      <trkpt lat="41.677720" lon="0.938532">
        <ele>232.916</ele>
        <time>2021-08-19T12:24:37Z</time>
      </trkpt>
      <trkpt lat="41.677716" lon="0.938451">
        <ele>232.691</ele>
        <time>2021-08-19T12:24:39Z</time>
      </trkpt>
      <trkpt lat="41.677725" lon="0.938381">
        <ele>232.462</ele>
        <time>2021-08-19T12:24:41Z</time>
      </trkpt>
      <trkpt lat="41.677737" lon="0.938310">
        <ele>232.188</ele>
        <time>2021-08-19T12:24:43Z</time>
      </trkpt>
      <trkpt lat="41.677727" lon="0.938238">
        <ele>231.959</ele>
        <time>2021-08-19T12:24:45Z</time>
      </trkpt>
      <trkpt lat="41.677737" lon="0.938166">
        <ele>231.603</ele>
        <time>2021-08-19T12:24:47Z</time>
      </trkpt>
      <trkpt lat="41.677741" lon="0.938086">
        <ele>231.423</ele>
        <time>2021-08-19T12:24:49Z</time>
      </trkpt>
      <trkpt lat="41.677753" lon="0.937996">
        <ele>231.209</ele>
        <time>2021-08-19T12:24:51Z</time>
      </trkpt>
      <trkpt lat="41.677767" lon="0.937931">
        <ele>231.116</ele>
        <time>2021-08-19T12:24:53Z</time>
      </trkpt>
      <trkpt lat="41.677759" lon="0.937869">
        <ele>231.217</ele>
        <time>2021-08-19T12:24:55Z</time>
      </trkpt>
      <trkpt lat="41.677771" lon="0.937807">
        <ele>231.178</ele>
        <time>2021-08-19T12:24:57Z</time>
      </trkpt>
      <trkpt lat="41.677776" lon="0.937735">
        <ele>231.242</ele>
        <time>2021-08-19T12:24:59Z</time>
      </trkpt>
      <trkpt lat="41.677781" lon="0.937666">
        <ele>231.423</ele>
        <time>2021-08-19T12:25:01Z</time>
      </trkpt>
      <trkpt lat="41.677804" lon="0.937566">
        <ele>231.719</ele>
        <time>2021-08-19T12:25:04Z</time>
      </trkpt>
      <trkpt lat="41.677817" lon="0.937480">
        <ele>231.974</ele>
        <time>2021-08-19T12:25:06Z</time>
      </trkpt>
      <trkpt lat="41.677825" lon="0.937417">
        <ele>232.135</ele>
        <time>2021-08-19T12:25:08Z</time>
      </trkpt>
      <trkpt lat="41.677832" lon="0.937356">
        <ele>232.271</ele>
        <time>2021-08-19T12:25:09Z</time>
      </trkpt>
      <trkpt lat="41.677837" lon="0.937287">
        <ele>232.449</ele>
        <time>2021-08-19T12:25:11Z</time>
      </trkpt>
      <trkpt lat="41.677848" lon="0.937198">
        <ele>232.602</ele>
        <time>2021-08-19T12:25:13Z</time>
      </trkpt>
      <trkpt lat="41.677861" lon="0.937132">
        <ele>232.722</ele>
        <time>2021-08-19T12:25:15Z</time>
      </trkpt>
      <trkpt lat="41.677884" lon="0.937048">
        <ele>232.909</ele>
        <time>2021-08-19T12:25:17Z</time>
      </trkpt>
      <trkpt lat="41.677887" lon="0.936986">
        <ele>233.165</ele>
        <time>2021-08-19T12:25:19Z</time>
      </trkpt>
      <trkpt lat="41.677921" lon="0.936903">
        <ele>233.176</ele>
        <time>2021-08-19T12:25:22Z</time>
      </trkpt>
      <trkpt lat="41.677943" lon="0.936846">
        <ele>233.267</ele>
        <time>2021-08-19T12:25:24Z</time>
      </trkpt>
      <trkpt lat="41.677989" lon="0.936811">
        <ele>233.061</ele>
        <time>2021-08-19T12:25:27Z</time>
      </trkpt>
      <trkpt lat="41.678035" lon="0.936811">
        <ele>232.672</ele>
        <time>2021-08-19T12:25:30Z</time>
      </trkpt>
      <trkpt lat="41.678085" lon="0.936794">
        <ele>232.528</ele>
        <time>2021-08-19T12:25:34Z</time>
      </trkpt>
      <trkpt lat="41.678143" lon="0.936773">
        <ele>232.433</ele>
        <time>2021-08-19T12:25:37Z</time>
      </trkpt>
      <trkpt lat="41.678207" lon="0.936766">
        <ele>232.344</ele>
        <time>2021-08-19T12:25:39Z</time>
      </trkpt>
      <trkpt lat="41.678258" lon="0.936764">
        <ele>232.290</ele>
        <time>2021-08-19T12:25:41Z</time>
      </trkpt>
      <trkpt lat="41.678311" lon="0.936767">
        <ele>232.155</ele>
        <time>2021-08-19T12:25:43Z</time>
      </trkpt>
      <trkpt lat="41.678367" lon="0.936744">
        <ele>232.107</ele>
        <time>2021-08-19T12:25:46Z</time>
      </trkpt>
      <trkpt lat="41.678428" lon="0.936727">
        <ele>232.317</ele>
        <time>2021-08-19T12:25:49Z</time>
      </trkpt>
      <trkpt lat="41.678480" lon="0.936715">
        <ele>232.509</ele>
        <time>2021-08-19T12:25:51Z</time>
      </trkpt>
      <trkpt lat="41.678533" lon="0.936718">
        <ele>232.766</ele>
        <time>2021-08-19T12:25:53Z</time>
      </trkpt>
      <trkpt lat="41.678583" lon="0.936706">
        <ele>232.937</ele>
        <time>2021-08-19T12:25:55Z</time>
      </trkpt>
      <trkpt lat="41.678634" lon="0.936697">
        <ele>233.138</ele>
        <time>2021-08-19T12:25:58Z</time>
      </trkpt>
      <trkpt lat="41.678688" lon="0.936696">
        <ele>233.222</ele>
        <time>2021-08-19T12:26:00Z</time>
      </trkpt>
      <trkpt lat="41.678740" lon="0.936678">
        <ele>233.453</ele>
        <time>2021-08-19T12:26:04Z</time>
      </trkpt>
      <trkpt lat="41.678786" lon="0.936666">
        <ele>233.679</ele>
        <time>2021-08-19T12:26:14Z</time>
      </trkpt>
      <trkpt lat="41.678851" lon="0.936649">
        <ele>233.954</ele>
        <time>2021-08-19T12:26:17Z</time>
      </trkpt>
      <trkpt lat="41.678905" lon="0.936643">
        <ele>233.995</ele>
        <time>2021-08-19T12:26:19Z</time>
      </trkpt>
      <trkpt lat="41.678951" lon="0.936641">
        <ele>233.881</ele>
        <time>2021-08-19T12:26:20Z</time>
      </trkpt>
      <trkpt lat="41.678996" lon="0.936630">
        <ele>233.788</ele>
        <time>2021-08-19T12:26:22Z</time>
      </trkpt>
      <trkpt lat="41.679044" lon="0.936626">
        <ele>233.524</ele>
        <time>2021-08-19T12:26:24Z</time>
      </trkpt>
      <trkpt lat="41.679095" lon="0.936617">
        <ele>233.426</ele>
        <time>2021-08-19T12:26:26Z</time>
      </trkpt>
      <trkpt lat="41.679154" lon="0.936593">
        <ele>233.309</ele>
        <time>2021-08-19T12:26:28Z</time>
      </trkpt>
      <trkpt lat="41.679216" lon="0.936553">
        <ele>233.379</ele>
        <time>2021-08-19T12:26:31Z</time>
      </trkpt>
      <trkpt lat="41.679272" lon="0.936516">
        <ele>233.330</ele>
        <time>2021-08-19T12:26:33Z</time>
      </trkpt>
      <trkpt lat="41.679309" lon="0.936470">
        <ele>233.361</ele>
        <time>2021-08-19T12:26:35Z</time>
      </trkpt>
      <trkpt lat="41.679347" lon="0.936433">
        <ele>233.355</ele>
        <time>2021-08-19T12:26:37Z</time>
      </trkpt>
      <trkpt lat="41.679387" lon="0.936383">
        <ele>233.236</ele>
        <time>2021-08-19T12:26:39Z</time>
      </trkpt>
      <trkpt lat="41.679421" lon="0.936340">
        <ele>232.712</ele>
        <time>2021-08-19T12:26:41Z</time>
      </trkpt>
      <trkpt lat="41.679460" lon="0.936287">
        <ele>232.327</ele>
        <time>2021-08-19T12:26:43Z</time>
      </trkpt>
      <trkpt lat="41.679497" lon="0.936227">
        <ele>231.888</ele>
        <time>2021-08-19T12:26:45Z</time>
      </trkpt>
      <trkpt lat="41.679540" lon="0.936183">
        <ele>231.554</ele>
        <time>2021-08-19T12:26:47Z</time>
      </trkpt>
      <trkpt lat="41.679588" lon="0.936142">
        <ele>231.221</ele>
        <time>2021-08-19T12:26:49Z</time>
      </trkpt>
      <trkpt lat="41.679635" lon="0.936085">
        <ele>230.741</ele>
        <time>2021-08-19T12:26:51Z</time>
      </trkpt>
      <trkpt lat="41.679673" lon="0.936031">
        <ele>230.205</ele>
        <time>2021-08-19T12:26:53Z</time>
      </trkpt>
      <trkpt lat="41.679708" lon="0.935988">
        <ele>229.709</ele>
        <time>2021-08-19T12:26:54Z</time>
      </trkpt>
      <trkpt lat="41.679765" lon="0.935930">
        <ele>229.793</ele>
        <time>2021-08-19T12:26:57Z</time>
      </trkpt>
      <trkpt lat="41.679801" lon="0.935886">
        <ele>229.924</ele>
        <time>2021-08-19T12:26:59Z</time>
      </trkpt>
      <trkpt lat="41.679836" lon="0.935838">
        <ele>230.135</ele>
        <time>2021-08-19T12:27:01Z</time>
      </trkpt>
      <trkpt lat="41.679886" lon="0.935787">
        <ele>231.069</ele>
        <time>2021-08-19T12:27:03Z</time>
      </trkpt>
      <trkpt lat="41.679925" lon="0.935738">
        <ele>231.720</ele>
        <time>2021-08-19T12:27:05Z</time>
      </trkpt>
      <trkpt lat="41.679967" lon="0.935695">
        <ele>232.556</ele>
        <time>2021-08-19T12:27:07Z</time>
      </trkpt>
      <trkpt lat="41.680020" lon="0.935660">
        <ele>233.451</ele>
        <time>2021-08-19T12:27:10Z</time>
      </trkpt>
      <trkpt lat="41.680062" lon="0.935703">
        <ele>234.372</ele>
        <time>2021-08-19T12:27:12Z</time>
      </trkpt>
      <trkpt lat="41.680085" lon="0.935758">
        <ele>234.888</ele>
        <time>2021-08-19T12:27:14Z</time>
      </trkpt>
      <trkpt lat="41.680117" lon="0.935851">
        <ele>235.566</ele>
        <time>2021-08-19T12:27:16Z</time>
      </trkpt>
      <trkpt lat="41.680138" lon="0.935910">
        <ele>236.029</ele>
        <time>2021-08-19T12:27:17Z</time>
      </trkpt>
      <trkpt lat="41.680172" lon="0.935978">
        <ele>236.621</ele>
        <time>2021-08-19T12:27:19Z</time>
      </trkpt>
      <trkpt lat="41.680206" lon="0.936048">
        <ele>237.109</ele>
        <time>2021-08-19T12:27:21Z</time>
      </trkpt>
      <trkpt lat="41.680228" lon="0.936108">
        <ele>237.327</ele>
        <time>2021-08-19T12:27:23Z</time>
      </trkpt>
      <trkpt lat="41.680250" lon="0.936170">
        <ele>237.468</ele>
        <time>2021-08-19T12:27:25Z</time>
      </trkpt>
      <trkpt lat="41.680275" lon="0.936246">
        <ele>237.529</ele>
        <time>2021-08-19T12:27:28Z</time>
      </trkpt>
      <trkpt lat="41.680297" lon="0.936312">
        <ele>237.483</ele>
        <time>2021-08-19T12:27:30Z</time>
      </trkpt>
      <trkpt lat="41.680317" lon="0.936367">
        <ele>237.234</ele>
        <time>2021-08-19T12:27:32Z</time>
      </trkpt>
      <trkpt lat="41.680334" lon="0.936431">
        <ele>236.960</ele>
        <time>2021-08-19T12:27:34Z</time>
      </trkpt>
      <trkpt lat="41.680356" lon="0.936498">
        <ele>236.655</ele>
        <time>2021-08-19T12:27:36Z</time>
      </trkpt>
      <trkpt lat="41.680380" lon="0.936553">
        <ele>236.466</ele>
        <time>2021-08-19T12:27:39Z</time>
      </trkpt>
      <trkpt lat="41.680404" lon="0.936613">
        <ele>236.292</ele>
        <time>2021-08-19T12:27:41Z</time>
      </trkpt>
      <trkpt lat="41.680435" lon="0.936685">
        <ele>236.071</ele>
        <time>2021-08-19T12:27:44Z</time>
      </trkpt>
      <trkpt lat="41.680469" lon="0.936753">
        <ele>236.041</ele>
        <time>2021-08-19T12:27:47Z</time>
      </trkpt>
      <trkpt lat="41.680494" lon="0.936827">
        <ele>235.915</ele>
        <time>2021-08-19T12:27:50Z</time>
      </trkpt>
      <trkpt lat="41.680523" lon="0.936882">
        <ele>235.909</ele>
        <time>2021-08-19T12:27:52Z</time>
      </trkpt>
      <trkpt lat="41.680559" lon="0.936943">
        <ele>236.098</ele>
        <time>2021-08-19T12:27:56Z</time>
      </trkpt>
      <trkpt lat="41.680590" lon="0.936995">
        <ele>235.969</ele>
        <time>2021-08-19T12:28:00Z</time>
      </trkpt>
      <trkpt lat="41.680615" lon="0.937060">
        <ele>235.670</ele>
        <time>2021-08-19T12:28:04Z</time>
      </trkpt>
      <trkpt lat="41.680651" lon="0.937124">
        <ele>235.474</ele>
        <time>2021-08-19T12:28:07Z</time>
      </trkpt>
      <trkpt lat="41.680688" lon="0.937183">
        <ele>235.285</ele>
        <time>2021-08-19T12:28:10Z</time>
      </trkpt>
      <trkpt lat="41.680720" lon="0.937233">
        <ele>235.121</ele>
        <time>2021-08-19T12:28:13Z</time>
      </trkpt>
      <trkpt lat="41.680736" lon="0.937290">
        <ele>235.196</ele>
        <time>2021-08-19T12:28:16Z</time>
      </trkpt>
      <trkpt lat="41.680781" lon="0.937339">
        <ele>235.217</ele>
        <time>2021-08-19T12:28:19Z</time>
      </trkpt>
      <trkpt lat="41.680833" lon="0.937393">
        <ele>235.463</ele>
        <time>2021-08-19T12:28:22Z</time>
      </trkpt>
      <trkpt lat="41.680873" lon="0.937434">
        <ele>235.351</ele>
        <time>2021-08-19T12:28:24Z</time>
      </trkpt>
      <trkpt lat="41.680911" lon="0.937470">
        <ele>235.101</ele>
        <time>2021-08-19T12:28:26Z</time>
      </trkpt>
      <trkpt lat="41.680958" lon="0.937502">
        <ele>235.011</ele>
        <time>2021-08-19T12:28:28Z</time>
      </trkpt>
      <trkpt lat="41.681006" lon="0.937529">
        <ele>234.809</ele>
        <time>2021-08-19T12:28:31Z</time>
      </trkpt>
      <trkpt lat="41.681052" lon="0.937557">
        <ele>234.636</ele>
        <time>2021-08-19T12:28:34Z</time>
      </trkpt>
      <trkpt lat="41.681111" lon="0.937543">
        <ele>234.737</ele>
        <time>2021-08-19T12:28:37Z</time>
      </trkpt>
      <trkpt lat="41.681152" lon="0.937516">
        <ele>234.998</ele>
        <time>2021-08-19T12:28:39Z</time>
      </trkpt>
      <trkpt lat="41.681197" lon="0.937498">
        <ele>235.012</ele>
        <time>2021-08-19T12:28:44Z</time>
      </trkpt>
      <trkpt lat="41.681242" lon="0.937476">
        <ele>235.153</ele>
        <time>2021-08-19T12:28:49Z</time>
      </trkpt>
      <trkpt lat="41.681283" lon="0.937450">
        <ele>235.269</ele>
        <time>2021-08-19T12:28:54Z</time>
      </trkpt>
      <trkpt lat="41.681279" lon="0.937514">
        <ele>234.924</ele>
        <time>2021-08-19T12:29:22Z</time>
      </trkpt>
      <trkpt lat="41.681321" lon="0.937473">
        <ele>235.165</ele>
        <time>2021-08-19T12:44:44Z</time>
      </trkpt>
      <trkpt lat="41.681366" lon="0.937454">
        <ele>235.281</ele>
        <time>2021-08-19T12:44:48Z</time>
      </trkpt>
      <trkpt lat="41.681410" lon="0.937416">
        <ele>235.227</ele>
        <time>2021-08-19T12:44:51Z</time>
      </trkpt>
      <trkpt lat="41.681446" lon="0.937356">
        <ele>235.368</ele>
        <time>2021-08-19T12:44:55Z</time>
      </trkpt>
      <trkpt lat="41.681482" lon="0.937309">
        <ele>235.414</ele>
        <time>2021-08-19T12:45:00Z</time>
      </trkpt>
      <trkpt lat="41.681513" lon="0.937256">
        <ele>235.409</ele>
        <time>2021-08-19T12:45:04Z</time>
      </trkpt>
      <trkpt lat="41.681537" lon="0.937201">
        <ele>235.623</ele>
        <time>2021-08-19T12:45:06Z</time>
      </trkpt>
      <trkpt lat="41.681562" lon="0.937139">
        <ele>235.854</ele>
        <time>2021-08-19T12:45:08Z</time>
      </trkpt>
      <trkpt lat="41.681583" lon="0.937069">
        <ele>236.075</ele>
        <time>2021-08-19T12:45:10Z</time>
      </trkpt>
      <trkpt lat="41.681603" lon="0.936966">
        <ele>236.419</ele>
        <time>2021-08-19T12:45:12Z</time>
      </trkpt>
      <trkpt lat="41.681617" lon="0.936896">
        <ele>236.570</ele>
        <time>2021-08-19T12:45:14Z</time>
      </trkpt>
      <trkpt lat="41.681632" lon="0.936839">
        <ele>236.696</ele>
        <time>2021-08-19T12:45:16Z</time>
      </trkpt>
      <trkpt lat="41.681649" lon="0.936778">
        <ele>236.771</ele>
        <time>2021-08-19T12:45:18Z</time>
      </trkpt>
      <trkpt lat="41.681653" lon="0.936715">
        <ele>236.962</ele>
        <time>2021-08-19T12:45:21Z</time>
      </trkpt>
      <trkpt lat="41.681673" lon="0.936659">
        <ele>236.948</ele>
        <time>2021-08-19T12:45:23Z</time>
      </trkpt>
      <trkpt lat="41.681708" lon="0.936594">
        <ele>236.277</ele>
        <time>2021-08-19T12:45:26Z</time>
      </trkpt>
      <trkpt lat="41.681734" lon="0.936525">
        <ele>235.661</ele>
        <time>2021-08-19T12:45:29Z</time>
      </trkpt>
      <trkpt lat="41.681755" lon="0.936470">
        <ele>235.227</ele>
        <time>2021-08-19T12:45:31Z</time>
      </trkpt>
      <trkpt lat="41.681770" lon="0.936399">
        <ele>234.909</ele>
        <time>2021-08-19T12:45:34Z</time>
      </trkpt>
      <trkpt lat="41.681790" lon="0.936329">
        <ele>234.848</ele>
        <time>2021-08-19T12:45:37Z</time>
      </trkpt>
      <trkpt lat="41.681818" lon="0.936278">
        <ele>234.579</ele>
        <time>2021-08-19T12:45:40Z</time>
      </trkpt>
      <trkpt lat="41.681833" lon="0.936212">
        <ele>234.580</ele>
        <time>2021-08-19T12:45:42Z</time>
      </trkpt>
      <trkpt lat="41.681853" lon="0.936156">
        <ele>234.354</ele>
        <time>2021-08-19T12:45:45Z</time>
      </trkpt>
      <trkpt lat="41.681867" lon="0.936098">
        <ele>234.225</ele>
        <time>2021-08-19T12:45:47Z</time>
      </trkpt>
      <trkpt lat="41.681876" lon="0.936026">
        <ele>234.351</ele>
        <time>2021-08-19T12:45:49Z</time>
      </trkpt>
      <trkpt lat="41.681892" lon="0.935951">
        <ele>234.366</ele>
        <time>2021-08-19T12:45:52Z</time>
      </trkpt>
      <trkpt lat="41.681913" lon="0.935871">
        <ele>234.397</ele>
        <time>2021-08-19T12:45:55Z</time>
      </trkpt>
      <trkpt lat="41.681926" lon="0.935795">
        <ele>234.483</ele>
        <time>2021-08-19T12:45:58Z</time>
      </trkpt>
      <trkpt lat="41.681938" lon="0.935724">
        <ele>234.542</ele>
        <time>2021-08-19T12:46:00Z</time>
      </trkpt>
      <trkpt lat="41.681947" lon="0.935665">
        <ele>234.622</ele>
        <time>2021-08-19T12:46:02Z</time>
      </trkpt>
      <trkpt lat="41.681965" lon="0.935594">
        <ele>234.814</ele>
        <time>2021-08-19T12:46:05Z</time>
      </trkpt>
      <trkpt lat="41.681973" lon="0.935528">
        <ele>235.109</ele>
        <time>2021-08-19T12:46:07Z</time>
      </trkpt>
      <trkpt lat="41.681978" lon="0.935461">
        <ele>235.625</ele>
        <time>2021-08-19T12:46:09Z</time>
      </trkpt>
      <trkpt lat="41.681978" lon="0.935398">
        <ele>236.166</ele>
        <time>2021-08-19T12:46:11Z</time>
      </trkpt>
      <trkpt lat="41.681959" lon="0.935328">
        <ele>236.667</ele>
        <time>2021-08-19T12:46:14Z</time>
      </trkpt>
      <trkpt lat="41.681922" lon="0.935270">
        <ele>237.471</ele>
        <time>2021-08-19T12:46:16Z</time>
      </trkpt>
      <trkpt lat="41.681888" lon="0.935227">
        <ele>238.342</ele>
        <time>2021-08-19T12:46:18Z</time>
      </trkpt>
      <trkpt lat="41.681843" lon="0.935196">
        <ele>239.198</ele>
        <time>2021-08-19T12:46:22Z</time>
      </trkpt>
      <trkpt lat="41.681801" lon="0.935166">
        <ele>239.933</ele>
        <time>2021-08-19T12:46:25Z</time>
      </trkpt>
      <trkpt lat="41.681761" lon="0.935133">
        <ele>240.574</ele>
        <time>2021-08-19T12:46:29Z</time>
      </trkpt>
      <trkpt lat="41.681711" lon="0.935101">
        <ele>241.270</ele>
        <time>2021-08-19T12:46:34Z</time>
      </trkpt>
      <trkpt lat="41.681667" lon="0.935066">
        <ele>241.856</ele>
        <time>2021-08-19T12:46:38Z</time>
      </trkpt>
      <trkpt lat="41.681608" lon="0.935040">
        <ele>242.159</ele>
        <time>2021-08-19T12:47:03Z</time>
      </trkpt>
      <trkpt lat="41.681575" lon="0.934992">
        <ele>242.314</ele>
        <time>2021-08-19T12:47:05Z</time>
      </trkpt>
      <trkpt lat="41.681525" lon="0.934962">
        <ele>242.509</ele>
        <time>2021-08-19T12:47:08Z</time>
      </trkpt>
      <trkpt lat="41.681481" lon="0.934923">
        <ele>242.786</ele>
        <time>2021-08-19T12:47:11Z</time>
      </trkpt>
      <trkpt lat="41.681433" lon="0.934872">
        <ele>242.877</ele>
        <time>2021-08-19T12:47:14Z</time>
      </trkpt>
      <trkpt lat="41.681385" lon="0.934829">
        <ele>243.078</ele>
        <time>2021-08-19T12:47:17Z</time>
      </trkpt>
      <trkpt lat="41.681335" lon="0.934792">
        <ele>243.092</ele>
        <time>2021-08-19T12:47:20Z</time>
      </trkpt>
      <trkpt lat="41.681286" lon="0.934749">
        <ele>243.093</ele>
        <time>2021-08-19T12:47:23Z</time>
      </trkpt>
      <trkpt lat="41.681239" lon="0.934737">
        <ele>243.039</ele>
        <time>2021-08-19T12:47:26Z</time>
      </trkpt>
      <trkpt lat="41.681183" lon="0.934710">
        <ele>243.054</ele>
        <time>2021-08-19T12:47:29Z</time>
      </trkpt>
      <trkpt lat="41.681132" lon="0.934699">
        <ele>243.015</ele>
        <time>2021-08-19T12:47:32Z</time>
      </trkpt>
      <trkpt lat="41.681083" lon="0.934678">
        <ele>242.951</ele>
        <time>2021-08-19T12:47:36Z</time>
      </trkpt>
      <trkpt lat="41.681022" lon="0.934692">
        <ele>242.753</ele>
        <time>2021-08-19T12:47:58Z</time>
      </trkpt>
      <trkpt lat="41.680968" lon="0.934703">
        <ele>242.604</ele>
        <time>2021-08-19T12:48:00Z</time>
      </trkpt>
      <trkpt lat="41.680897" lon="0.934719">
        <ele>242.214</ele>
        <time>2021-08-19T12:48:02Z</time>
      </trkpt>
      <trkpt lat="41.680826" lon="0.934747">
        <ele>241.909</ele>
        <time>2021-08-19T12:48:04Z</time>
      </trkpt>
      <trkpt lat="41.680777" lon="0.934770">
        <ele>241.616</ele>
        <time>2021-08-19T12:48:06Z</time>
      </trkpt>
      <trkpt lat="41.680717" lon="0.934794">
        <ele>241.337</ele>
        <time>2021-08-19T12:48:08Z</time>
      </trkpt>
      <trkpt lat="41.680768" lon="0.934779">
        <ele>241.638</ele>
        <time>2021-08-19T12:48:15Z</time>
      </trkpt>
      <trkpt lat="41.680821" lon="0.934777">
        <ele>241.852</ele>
        <time>2021-08-19T12:48:18Z</time>
      </trkpt>
      <trkpt lat="41.680866" lon="0.934770">
        <ele>242.063</ele>
        <time>2021-08-19T12:48:21Z</time>
      </trkpt>
      <trkpt lat="41.680913" lon="0.934749">
        <ele>242.299</ele>
        <time>2021-08-19T12:48:24Z</time>
      </trkpt>
      <trkpt lat="41.680965" lon="0.934724">
        <ele>242.534</ele>
        <time>2021-08-19T12:48:28Z</time>
      </trkpt>
      <trkpt lat="41.681024" lon="0.934711">
        <ele>242.765</ele>
        <time>2021-08-19T12:48:32Z</time>
      </trkpt>
      <trkpt lat="41.681083" lon="0.934715">
        <ele>242.971</ele>
        <time>2021-08-19T12:48:36Z</time>
      </trkpt>
      <trkpt lat="41.681137" lon="0.934721">
        <ele>243.071</ele>
        <time>2021-08-19T12:48:40Z</time>
      </trkpt>
      <trkpt lat="41.681190" lon="0.934717">
        <ele>243.041</ele>
        <time>2021-08-19T12:48:44Z</time>
      </trkpt>
      <trkpt lat="41.681236" lon="0.934705">
        <ele>243.015</ele>
        <time>2021-08-19T12:48:47Z</time>
      </trkpt>
      <trkpt lat="41.681287" lon="0.934701">
        <ele>243.009</ele>
        <time>2021-08-19T12:48:50Z</time>
      </trkpt>
      <trkpt lat="41.681333" lon="0.934701">
        <ele>243.048</ele>
        <time>2021-08-19T12:48:53Z</time>
      </trkpt>
      <trkpt lat="41.681384" lon="0.934680">
        <ele>243.059</ele>
        <time>2021-08-19T12:48:56Z</time>
      </trkpt>
      <trkpt lat="41.681435" lon="0.934685">
        <ele>242.810</ele>
        <time>2021-08-19T12:48:58Z</time>
      </trkpt>
      <trkpt lat="41.681508" lon="0.934681">
        <ele>242.654</ele>
        <time>2021-08-19T12:49:00Z</time>
      </trkpt>
      <trkpt lat="41.681560" lon="0.934685">
        <ele>242.465</ele>
        <time>2021-08-19T12:49:01Z</time>
      </trkpt>
      <trkpt lat="41.681616" lon="0.934677">
        <ele>242.211</ele>
        <time>2021-08-19T12:49:03Z</time>
      </trkpt>
      <trkpt lat="41.681665" lon="0.934665">
        <ele>242.066</ele>
        <time>2021-08-19T12:49:04Z</time>
      </trkpt>
      <trkpt lat="41.681719" lon="0.934645">
        <ele>241.837</ele>
        <time>2021-08-19T12:49:06Z</time>
      </trkpt>
      <trkpt lat="41.681764" lon="0.934603">
        <ele>241.753</ele>
        <time>2021-08-19T12:49:09Z</time>
      </trkpt>
      <trkpt lat="41.681822" lon="0.934560">
        <ele>241.474</ele>
        <time>2021-08-19T12:49:11Z</time>
      </trkpt>
      <trkpt lat="41.681874" lon="0.934517">
        <ele>241.356</ele>
        <time>2021-08-19T12:49:13Z</time>
      </trkpt>
      <trkpt lat="41.681920" lon="0.934473">
        <ele>241.121</ele>
        <time>2021-08-19T12:49:14Z</time>
      </trkpt>
      <trkpt lat="41.681972" lon="0.934429">
        <ele>240.909</ele>
        <time>2021-08-19T12:49:15Z</time>
      </trkpt>
      <trkpt lat="41.682017" lon="0.934385">
        <ele>240.718</ele>
        <time>2021-08-19T12:49:17Z</time>
      </trkpt>
      <trkpt lat="41.682076" lon="0.934336">
        <ele>240.429</ele>
        <time>2021-08-19T12:49:18Z</time>
      </trkpt>
      <trkpt lat="41.682115" lon="0.934299">
        <ele>240.370</ele>
        <time>2021-08-19T12:49:19Z</time>
      </trkpt>
      <trkpt lat="41.682152" lon="0.934261">
        <ele>240.224</ele>
        <time>2021-08-19T12:49:20Z</time>
      </trkpt>
      <trkpt lat="41.682234" lon="0.934177">
        <ele>239.995</ele>
        <time>2021-08-19T12:49:22Z</time>
      </trkpt>
      <trkpt lat="41.682276" lon="0.934135">
        <ele>239.911</ele>
        <time>2021-08-19T12:49:23Z</time>
      </trkpt>
      <trkpt lat="41.682319" lon="0.934092">
        <ele>239.916</ele>
        <time>2021-08-19T12:49:24Z</time>
      </trkpt>
      <trkpt lat="41.682363" lon="0.934047">
        <ele>239.847</ele>
        <time>2021-08-19T12:49:25Z</time>
      </trkpt>
      <trkpt lat="41.682446" lon="0.933959">
        <ele>239.453</ele>
        <time>2021-08-19T12:49:27Z</time>
      </trkpt>
      <trkpt lat="41.682486" lon="0.933917">
        <ele>239.155</ele>
        <time>2021-08-19T12:49:28Z</time>
      </trkpt>
      <trkpt lat="41.682524" lon="0.933872">
        <ele>239.007</ele>
        <time>2021-08-19T12:49:29Z</time>
      </trkpt>
      <trkpt lat="41.682561" lon="0.933829">
        <ele>239.217</ele>
        <time>2021-08-19T12:49:30Z</time>
      </trkpt>
      <trkpt lat="41.682600" lon="0.933790">
        <ele>239.209</ele>
        <time>2021-08-19T12:49:31Z</time>
      </trkpt>
      <trkpt lat="41.682676" lon="0.933714">
        <ele>239.276</ele>
        <time>2021-08-19T12:49:33Z</time>
      </trkpt>
      <trkpt lat="41.682748" lon="0.933638">
        <ele>239.157</ele>
        <time>2021-08-19T12:49:35Z</time>
      </trkpt>
      <trkpt lat="41.682784" lon="0.933601">
        <ele>239.168</ele>
        <time>2021-08-19T12:49:36Z</time>
      </trkpt>
      <trkpt lat="41.682851" lon="0.933531">
        <ele>239.282</ele>
        <time>2021-08-19T12:49:38Z</time>
      </trkpt>
      <trkpt lat="41.682917" lon="0.933462">
        <ele>239.333</ele>
        <time>2021-08-19T12:49:40Z</time>
      </trkpt>
      <trkpt lat="41.682979" lon="0.933399">
        <ele>239.239</ele>
        <time>2021-08-19T12:49:42Z</time>
      </trkpt>
      <trkpt lat="41.683033" lon="0.933346">
        <ele>239.164</ele>
        <time>2021-08-19T12:49:44Z</time>
      </trkpt>
      <trkpt lat="41.683072" lon="0.933308">
        <ele>238.925</ele>
        <time>2021-08-19T12:49:45Z</time>
      </trkpt>
      <trkpt lat="41.683138" lon="0.933264">
        <ele>238.771</ele>
        <time>2021-08-19T12:49:47Z</time>
      </trkpt>
      <trkpt lat="41.683203" lon="0.933209">
        <ele>238.516</ele>
        <time>2021-08-19T12:49:49Z</time>
      </trkpt>
      <trkpt lat="41.683261" lon="0.933155">
        <ele>238.376</ele>
        <time>2021-08-19T12:49:50Z</time>
      </trkpt>
      <trkpt lat="41.683307" lon="0.933119">
        <ele>238.113</ele>
        <time>2021-08-19T12:49:51Z</time>
      </trkpt>
      <trkpt lat="41.683399" lon="0.933032">
        <ele>238.009</ele>
        <time>2021-08-19T12:49:53Z</time>
      </trkpt>
      <trkpt lat="41.683489" lon="0.932941">
        <ele>237.872</ele>
        <time>2021-08-19T12:49:55Z</time>
      </trkpt>
      <trkpt lat="41.683533" lon="0.932891">
        <ele>237.683</ele>
        <time>2021-08-19T12:49:56Z</time>
      </trkpt>
      <trkpt lat="41.683621" lon="0.932798">
        <ele>237.044</ele>
        <time>2021-08-19T12:49:58Z</time>
      </trkpt>
      <trkpt lat="41.683707" lon="0.932707">
        <ele>236.588</ele>
        <time>2021-08-19T12:50:00Z</time>
      </trkpt>
      <trkpt lat="41.683792" lon="0.932620">
        <ele>236.249</ele>
        <time>2021-08-19T12:50:02Z</time>
      </trkpt>
      <trkpt lat="41.683881" lon="0.932536">
        <ele>236.015</ele>
        <time>2021-08-19T12:50:04Z</time>
      </trkpt>
      <trkpt lat="41.683925" lon="0.932496">
        <ele>236.010</ele>
        <time>2021-08-19T12:50:05Z</time>
      </trkpt>
      <trkpt lat="41.684016" lon="0.932430">
        <ele>236.181</ele>
        <time>2021-08-19T12:50:07Z</time>
      </trkpt>
      <trkpt lat="41.684060" lon="0.932398">
        <ele>236.277</ele>
        <time>2021-08-19T12:50:08Z</time>
      </trkpt>
      <trkpt lat="41.684101" lon="0.932371">
        <ele>236.459</ele>
        <time>2021-08-19T12:50:09Z</time>
      </trkpt>
      <trkpt lat="41.684167" lon="0.932325">
        <ele>236.603</ele>
        <time>2021-08-19T12:50:11Z</time>
      </trkpt>
      <trkpt lat="41.684228" lon="0.932281">
        <ele>236.423</ele>
        <time>2021-08-19T12:50:13Z</time>
      </trkpt>
      <trkpt lat="41.684287" lon="0.932232">
        <ele>236.109</ele>
        <time>2021-08-19T12:50:15Z</time>
      </trkpt>
      <trkpt lat="41.684345" lon="0.932212">
        <ele>235.736</ele>
        <time>2021-08-19T12:50:17Z</time>
      </trkpt>
      <trkpt lat="41.684386" lon="0.932167">
        <ele>235.497</ele>
        <time>2021-08-19T12:50:19Z</time>
      </trkpt>
      <trkpt lat="41.684433" lon="0.932133">
        <ele>235.118</ele>
        <time>2021-08-19T12:50:21Z</time>
      </trkpt>
      <trkpt lat="41.684483" lon="0.932086">
        <ele>234.932</ele>
        <time>2021-08-19T12:50:23Z</time>
      </trkpt>
      <trkpt lat="41.684544" lon="0.932039">
        <ele>234.663</ele>
        <time>2021-08-19T12:50:25Z</time>
      </trkpt>
      <trkpt lat="41.684619" lon="0.931991">
        <ele>234.439</ele>
        <time>2021-08-19T12:50:27Z</time>
      </trkpt>
      <trkpt lat="41.684659" lon="0.931962">
        <ele>234.294</ele>
        <time>2021-08-19T12:50:28Z</time>
      </trkpt>
      <trkpt lat="41.684735" lon="0.931911">
        <ele>233.875</ele>
        <time>2021-08-19T12:50:30Z</time>
      </trkpt>
      <trkpt lat="41.684814" lon="0.931867">
        <ele>233.271</ele>
        <time>2021-08-19T12:50:32Z</time>
      </trkpt>
      <trkpt lat="41.684865" lon="0.931838">
        <ele>232.874</ele>
        <time>2021-08-19T12:50:33Z</time>
      </trkpt>
      <trkpt lat="41.684925" lon="0.931801">
        <ele>232.456</ele>
        <time>2021-08-19T12:50:35Z</time>
      </trkpt>
      <trkpt lat="41.684983" lon="0.931755">
        <ele>232.121</ele>
        <time>2021-08-19T12:50:37Z</time>
      </trkpt>
      <trkpt lat="41.685025" lon="0.931718">
        <ele>232.009</ele>
        <time>2021-08-19T12:50:38Z</time>
      </trkpt>
      <trkpt lat="41.685094" lon="0.931668">
        <ele>232.078</ele>
        <time>2021-08-19T12:50:40Z</time>
      </trkpt>
      <trkpt lat="41.685160" lon="0.931623">
        <ele>232.089</ele>
        <time>2021-08-19T12:50:42Z</time>
      </trkpt>
      <trkpt lat="41.685231" lon="0.931574">
        <ele>232.020</ele>
        <time>2021-08-19T12:50:44Z</time>
      </trkpt>
      <trkpt lat="41.685297" lon="0.931528">
        <ele>231.934</ele>
        <time>2021-08-19T12:50:46Z</time>
      </trkpt>
      <trkpt lat="41.685365" lon="0.931473">
        <ele>231.725</ele>
        <time>2021-08-19T12:50:48Z</time>
      </trkpt>
      <trkpt lat="41.685441" lon="0.931428">
        <ele>231.461</ele>
        <time>2021-08-19T12:50:50Z</time>
      </trkpt>
      <trkpt lat="41.685511" lon="0.931384">
        <ele>231.216</ele>
        <time>2021-08-19T12:50:52Z</time>
      </trkpt>
      <trkpt lat="41.685580" lon="0.931326">
        <ele>231.187</ele>
        <time>2021-08-19T12:50:54Z</time>
      </trkpt>
      <trkpt lat="41.685654" lon="0.931281">
        <ele>230.713</ele>
        <time>2021-08-19T12:50:56Z</time>
      </trkpt>
      <trkpt lat="41.685722" lon="0.931241">
        <ele>230.383</ele>
        <time>2021-08-19T12:50:58Z</time>
      </trkpt>
      <trkpt lat="41.685775" lon="0.931203">
        <ele>230.125</ele>
        <time>2021-08-19T12:51:00Z</time>
      </trkpt>
      <trkpt lat="41.685834" lon="0.931159">
        <ele>229.817</ele>
        <time>2021-08-19T12:51:01Z</time>
      </trkpt>
      <trkpt lat="41.685907" lon="0.931111">
        <ele>229.709</ele>
        <time>2021-08-19T12:51:03Z</time>
      </trkpt>
      <trkpt lat="41.685975" lon="0.931057">
        <ele>229.769</ele>
        <time>2021-08-19T12:51:05Z</time>
      </trkpt>
      <trkpt lat="41.686033" lon="0.930982">
        <ele>229.730</ele>
        <time>2021-08-19T12:51:07Z</time>
      </trkpt>
      <trkpt lat="41.686090" lon="0.930918">
        <ele>229.831</ele>
        <time>2021-08-19T12:51:09Z</time>
      </trkpt>
      <trkpt lat="41.686147" lon="0.930845">
        <ele>230.145</ele>
        <time>2021-08-19T12:51:11Z</time>
      </trkpt>
      <trkpt lat="41.686198" lon="0.930776">
        <ele>230.456</ele>
        <time>2021-08-19T12:51:13Z</time>
      </trkpt>
      <trkpt lat="41.686243" lon="0.930695">
        <ele>230.742</ele>
        <time>2021-08-19T12:51:15Z</time>
      </trkpt>
      <trkpt lat="41.686287" lon="0.930616">
        <ele>231.177</ele>
        <time>2021-08-19T12:51:17Z</time>
      </trkpt>
      <trkpt lat="41.686334" lon="0.930540">
        <ele>231.688</ele>
        <time>2021-08-19T12:51:19Z</time>
      </trkpt>
      <trkpt lat="41.686383" lon="0.930469">
        <ele>232.014</ele>
        <time>2021-08-19T12:51:21Z</time>
      </trkpt>
      <trkpt lat="41.686417" lon="0.930418">
        <ele>232.195</ele>
        <time>2021-08-19T12:51:23Z</time>
      </trkpt>
      <trkpt lat="41.686462" lon="0.930370">
        <ele>232.349</ele>
        <time>2021-08-19T12:51:24Z</time>
      </trkpt>
      <trkpt lat="41.686502" lon="0.930330">
        <ele>232.423</ele>
        <time>2021-08-19T12:51:25Z</time>
      </trkpt>
      <trkpt lat="41.686549" lon="0.930277">
        <ele>232.609</ele>
        <time>2021-08-19T12:51:27Z</time>
      </trkpt>
      <trkpt lat="41.686592" lon="0.930217">
        <ele>232.820</ele>
        <time>2021-08-19T12:51:29Z</time>
      </trkpt>
      <trkpt lat="41.686629" lon="0.930174">
        <ele>232.971</ele>
        <time>2021-08-19T12:51:30Z</time>
      </trkpt>
      <trkpt lat="41.686684" lon="0.930109">
        <ele>233.062</ele>
        <time>2021-08-19T12:51:32Z</time>
      </trkpt>
      <trkpt lat="41.686737" lon="0.930041">
        <ele>232.866</ele>
        <time>2021-08-19T12:51:34Z</time>
      </trkpt>
      <trkpt lat="41.686785" lon="0.929986">
        <ele>232.597</ele>
        <time>2021-08-19T12:51:36Z</time>
      </trkpt>
      <trkpt lat="41.686819" lon="0.929946">
        <ele>232.333</ele>
        <time>2021-08-19T12:51:37Z</time>
      </trkpt>
      <trkpt lat="41.686865" lon="0.929881">
        <ele>231.968</ele>
        <time>2021-08-19T12:51:39Z</time>
      </trkpt>
      <trkpt lat="41.686928" lon="0.929811">
        <ele>231.429</ele>
        <time>2021-08-19T12:51:41Z</time>
      </trkpt>
      <trkpt lat="41.686967" lon="0.929766">
        <ele>231.235</ele>
        <time>2021-08-19T12:51:43Z</time>
      </trkpt>
      <trkpt lat="41.687009" lon="0.929710">
        <ele>231.298</ele>
        <time>2021-08-19T12:51:44Z</time>
      </trkpt>
      <trkpt lat="41.687064" lon="0.929648">
        <ele>231.315</ele>
        <time>2021-08-19T12:51:46Z</time>
      </trkpt>
      <trkpt lat="41.687122" lon="0.929594">
        <ele>231.526</ele>
        <time>2021-08-19T12:51:48Z</time>
      </trkpt>
      <trkpt lat="41.687168" lon="0.929552">
        <ele>231.709</ele>
        <time>2021-08-19T12:51:50Z</time>
      </trkpt>
      <trkpt lat="41.687209" lon="0.929522">
        <ele>231.990</ele>
        <time>2021-08-19T12:51:51Z</time>
      </trkpt>
      <trkpt lat="41.687261" lon="0.929476">
        <ele>232.021</ele>
        <time>2021-08-19T12:51:53Z</time>
      </trkpt>
      <trkpt lat="41.687315" lon="0.929433">
        <ele>232.032</ele>
        <time>2021-08-19T12:51:55Z</time>
      </trkpt>
      <trkpt lat="41.687371" lon="0.929392">
        <ele>231.996</ele>
        <time>2021-08-19T12:51:57Z</time>
      </trkpt>
      <trkpt lat="41.687427" lon="0.929349">
        <ele>231.967</ele>
        <time>2021-08-19T12:51:59Z</time>
      </trkpt>
      <trkpt lat="41.687486" lon="0.929300">
        <ele>232.033</ele>
        <time>2021-08-19T12:52:01Z</time>
      </trkpt>
      <trkpt lat="41.687540" lon="0.929267">
        <ele>231.958</ele>
        <time>2021-08-19T12:52:02Z</time>
      </trkpt>
      <trkpt lat="41.687595" lon="0.929231">
        <ele>231.959</ele>
        <time>2021-08-19T12:52:04Z</time>
      </trkpt>
      <trkpt lat="41.687651" lon="0.929191">
        <ele>232.015</ele>
        <time>2021-08-19T12:52:06Z</time>
      </trkpt>
      <trkpt lat="41.687722" lon="0.929126">
        <ele>232.278</ele>
        <time>2021-08-19T12:52:08Z</time>
      </trkpt>
      <trkpt lat="41.687782" lon="0.929081">
        <ele>232.333</ele>
        <time>2021-08-19T12:52:10Z</time>
      </trkpt>
      <trkpt lat="41.687840" lon="0.929034">
        <ele>232.626</ele>
        <time>2021-08-19T12:52:12Z</time>
      </trkpt>
      <trkpt lat="41.687880" lon="0.929003">
        <ele>232.809</ele>
        <time>2021-08-19T12:52:13Z</time>
      </trkpt>
      <trkpt lat="41.687942" lon="0.928944">
        <ele>233.358</ele>
        <time>2021-08-19T12:52:15Z</time>
      </trkpt>
      <trkpt lat="41.687985" lon="0.928907">
        <ele>233.639</ele>
        <time>2021-08-19T12:52:16Z</time>
      </trkpt>
      <trkpt lat="41.688022" lon="0.928871">
        <ele>233.910</ele>
        <time>2021-08-19T12:52:18Z</time>
      </trkpt>
      <trkpt lat="41.688062" lon="0.928827">
        <ele>234.034</ele>
        <time>2021-08-19T12:52:19Z</time>
      </trkpt>
      <trkpt lat="41.688124" lon="0.928780">
        <ele>234.085</ele>
        <time>2021-08-19T12:52:21Z</time>
      </trkpt>
      <trkpt lat="41.688186" lon="0.928724">
        <ele>234.041</ele>
        <time>2021-08-19T12:52:23Z</time>
      </trkpt>
      <trkpt lat="41.688249" lon="0.928665">
        <ele>234.076</ele>
        <time>2021-08-19T12:52:25Z</time>
      </trkpt>
      <trkpt lat="41.688305" lon="0.928605">
        <ele>234.017</ele>
        <time>2021-08-19T12:52:27Z</time>
      </trkpt>
      <trkpt lat="41.688373" lon="0.928552">
        <ele>234.193</ele>
        <time>2021-08-19T12:52:29Z</time>
      </trkpt>
      <trkpt lat="41.688442" lon="0.928502">
        <ele>234.468</ele>
        <time>2021-08-19T12:52:31Z</time>
      </trkpt>
      <trkpt lat="41.688510" lon="0.928447">
        <ele>234.642</ele>
        <time>2021-08-19T12:52:33Z</time>
      </trkpt>
      <trkpt lat="41.688578" lon="0.928403">
        <ele>234.926</ele>
        <time>2021-08-19T12:52:35Z</time>
      </trkpt>
      <trkpt lat="41.688625" lon="0.928363">
        <ele>235.109</ele>
        <time>2021-08-19T12:52:37Z</time>
      </trkpt>
      <trkpt lat="41.688668" lon="0.928330">
        <ele>235.467</ele>
        <time>2021-08-19T12:52:38Z</time>
      </trkpt>
      <trkpt lat="41.688722" lon="0.928275">
        <ele>235.888</ele>
        <time>2021-08-19T12:52:40Z</time>
      </trkpt>
      <trkpt lat="41.688763" lon="0.928248">
        <ele>236.139</ele>
        <time>2021-08-19T12:52:41Z</time>
      </trkpt>
      <trkpt lat="41.688810" lon="0.928220">
        <ele>236.473</ele>
        <time>2021-08-19T12:52:43Z</time>
      </trkpt>
      <trkpt lat="41.688861" lon="0.928181">
        <ele>236.844</ele>
        <time>2021-08-19T12:52:45Z</time>
      </trkpt>
      <trkpt lat="41.688909" lon="0.928144">
        <ele>237.110</ele>
        <time>2021-08-19T12:52:47Z</time>
      </trkpt>
      <trkpt lat="41.688959" lon="0.928118">
        <ele>237.535</ele>
        <time>2021-08-19T12:52:49Z</time>
      </trkpt>
      <trkpt lat="41.688999" lon="0.928085">
        <ele>237.876</ele>
        <time>2021-08-19T12:52:51Z</time>
      </trkpt>
      <trkpt lat="41.689053" lon="0.928031">
        <ele>238.142</ele>
        <time>2021-08-19T12:52:54Z</time>
      </trkpt>
      <trkpt lat="41.689096" lon="0.928006">
        <ele>238.381</ele>
        <time>2021-08-19T12:52:56Z</time>
      </trkpt>
      <trkpt lat="41.689150" lon="0.927970">
        <ele>238.661</ele>
        <time>2021-08-19T12:52:59Z</time>
      </trkpt>
      <trkpt lat="41.689198" lon="0.927937">
        <ele>238.817</ele>
        <time>2021-08-19T12:53:02Z</time>
      </trkpt>
      <trkpt lat="41.689240" lon="0.927911">
        <ele>239.009</ele>
        <time>2021-08-19T12:53:05Z</time>
      </trkpt>
      <trkpt lat="41.689286" lon="0.927891">
        <ele>239.369</ele>
        <time>2021-08-19T12:53:08Z</time>
      </trkpt>
      <trkpt lat="41.689328" lon="0.927870">
        <ele>239.540</ele>
        <time>2021-08-19T12:53:11Z</time>
      </trkpt>
      <trkpt lat="41.689366" lon="0.927835">
        <ele>239.641</ele>
        <time>2021-08-19T12:53:14Z</time>
      </trkpt>
      <trkpt lat="41.689411" lon="0.927805">
        <ele>239.985</ele>
        <time>2021-08-19T12:53:17Z</time>
      </trkpt>
      <trkpt lat="41.689458" lon="0.927776">
        <ele>240.046</ele>
        <time>2021-08-19T12:53:21Z</time>
      </trkpt>
      <trkpt lat="41.689507" lon="0.927745">
        <ele>240.092</ele>
        <time>2021-08-19T12:53:25Z</time>
      </trkpt>
      <trkpt lat="41.689556" lon="0.927712">
        <ele>240.087</ele>
        <time>2021-08-19T12:53:28Z</time>
      </trkpt>
      <trkpt lat="41.689605" lon="0.927672">
        <ele>240.088</ele>
        <time>2021-08-19T12:53:31Z</time>
      </trkpt>
      <trkpt lat="41.689656" lon="0.927632">
        <ele>240.154</ele>
        <time>2021-08-19T12:53:34Z</time>
      </trkpt>
      <trkpt lat="41.689705" lon="0.927588">
        <ele>240.221</ele>
        <time>2021-08-19T12:53:37Z</time>
      </trkpt>
      <trkpt lat="41.689752" lon="0.927555">
        <ele>240.341</ele>
        <time>2021-08-19T12:53:40Z</time>
      </trkpt>
      <trkpt lat="41.689805" lon="0.927514">
        <ele>240.305</ele>
        <time>2021-08-19T12:53:43Z</time>
      </trkpt>
      <trkpt lat="41.689858" lon="0.927479">
        <ele>240.509</ele>
        <time>2021-08-19T12:53:46Z</time>
      </trkpt>
      <trkpt lat="41.689899" lon="0.927452">
        <ele>240.773</ele>
        <time>2021-08-19T12:53:48Z</time>
      </trkpt>
      <trkpt lat="41.689954" lon="0.927409">
        <ele>241.194</ele>
        <time>2021-08-19T12:53:51Z</time>
      </trkpt>
      <trkpt lat="41.690008" lon="0.927367">
        <ele>241.535</ele>
        <time>2021-08-19T12:53:54Z</time>
      </trkpt>
      <trkpt lat="41.690064" lon="0.927327">
        <ele>241.679</ele>
        <time>2021-08-19T12:53:57Z</time>
      </trkpt>
      <trkpt lat="41.690124" lon="0.927282">
        <ele>241.840</ele>
        <time>2021-08-19T12:54:00Z</time>
      </trkpt>
      <trkpt lat="41.690166" lon="0.927250">
        <ele>241.996</ele>
        <time>2021-08-19T12:54:02Z</time>
      </trkpt>
      <trkpt lat="41.690222" lon="0.927211">
        <ele>242.091</ele>
        <time>2021-08-19T12:54:05Z</time>
      </trkpt>
      <trkpt lat="41.690286" lon="0.927188">
        <ele>242.152</ele>
        <time>2021-08-19T12:54:08Z</time>
      </trkpt>
      <trkpt lat="41.690331" lon="0.927174">
        <ele>242.238</ele>
        <time>2021-08-19T12:54:10Z</time>
      </trkpt>
      <trkpt lat="41.690381" lon="0.927145">
        <ele>242.352</ele>
        <time>2021-08-19T12:54:12Z</time>
      </trkpt>
      <trkpt lat="41.690436" lon="0.927110">
        <ele>242.453</ele>
        <time>2021-08-19T12:54:14Z</time>
      </trkpt>
      <trkpt lat="41.690491" lon="0.927075">
        <ele>242.508</ele>
        <time>2021-08-19T12:54:16Z</time>
      </trkpt>
      <trkpt lat="41.690539" lon="0.927044">
        <ele>242.609</ele>
        <time>2021-08-19T12:54:18Z</time>
      </trkpt>
      <trkpt lat="41.690589" lon="0.927015">
        <ele>242.866</ele>
        <time>2021-08-19T12:54:20Z</time>
      </trkpt>
      <trkpt lat="41.690635" lon="0.926975">
        <ele>242.987</ele>
        <time>2021-08-19T12:54:22Z</time>
      </trkpt>
      <trkpt lat="41.690684" lon="0.926943">
        <ele>243.088</ele>
        <time>2021-08-19T12:54:24Z</time>
      </trkpt>
      <trkpt lat="41.690733" lon="0.926921">
        <ele>242.992</ele>
        <time>2021-08-19T12:54:26Z</time>
      </trkpt>
      <trkpt lat="41.690792" lon="0.926902">
        <ele>242.873</ele>
        <time>2021-08-19T12:54:28Z</time>
      </trkpt>
      <trkpt lat="41.690862" lon="0.926879">
        <ele>242.859</ele>
        <time>2021-08-19T12:54:30Z</time>
      </trkpt>
      <trkpt lat="41.690935" lon="0.926849">
        <ele>242.954</ele>
        <time>2021-08-19T12:54:32Z</time>
      </trkpt>
      <trkpt lat="41.691008" lon="0.926816">
        <ele>242.935</ele>
        <time>2021-08-19T12:54:34Z</time>
      </trkpt>
      <trkpt lat="41.691083" lon="0.926785">
        <ele>242.871</ele>
        <time>2021-08-19T12:54:36Z</time>
      </trkpt>
      <trkpt lat="41.691154" lon="0.926753">
        <ele>242.531</ele>
        <time>2021-08-19T12:54:38Z</time>
      </trkpt>
      <trkpt lat="41.691229" lon="0.926715">
        <ele>242.261</ele>
        <time>2021-08-19T12:54:40Z</time>
      </trkpt>
      <trkpt lat="41.691308" lon="0.926682">
        <ele>242.007</ele>
        <time>2021-08-19T12:54:42Z</time>
      </trkpt>
      <trkpt lat="41.691389" lon="0.926638">
        <ele>241.809</ele>
        <time>2021-08-19T12:54:44Z</time>
      </trkpt>
      <trkpt lat="41.691485" lon="0.926595">
        <ele>240.514</ele>
        <time>2021-08-19T12:54:46Z</time>
      </trkpt>
      <trkpt lat="41.691535" lon="0.926577">
        <ele>239.975</ele>
        <time>2021-08-19T12:54:47Z</time>
      </trkpt>
      <trkpt lat="41.691589" lon="0.926559">
        <ele>239.336</ele>
        <time>2021-08-19T12:54:48Z</time>
      </trkpt>
      <trkpt lat="41.691698" lon="0.926516">
        <ele>238.230</ele>
        <time>2021-08-19T12:54:50Z</time>
      </trkpt>
      <trkpt lat="41.691757" lon="0.926497">
        <ele>237.761</ele>
        <time>2021-08-19T12:54:51Z</time>
      </trkpt>
      <trkpt lat="41.691814" lon="0.926480">
        <ele>237.397</ele>
        <time>2021-08-19T12:54:52Z</time>
      </trkpt>
      <trkpt lat="41.691871" lon="0.926459">
        <ele>236.892</ele>
        <time>2021-08-19T12:54:53Z</time>
      </trkpt>
      <trkpt lat="41.691929" lon="0.926440">
        <ele>236.313</ele>
        <time>2021-08-19T12:54:54Z</time>
      </trkpt>
      <trkpt lat="41.692040" lon="0.926404">
        <ele>235.779</ele>
        <time>2021-08-19T12:54:56Z</time>
      </trkpt>
      <trkpt lat="41.692098" lon="0.926387">
        <ele>235.466</ele>
        <time>2021-08-19T12:54:57Z</time>
      </trkpt>
      <trkpt lat="41.692160" lon="0.926370">
        <ele>235.229</ele>
        <time>2021-08-19T12:54:58Z</time>
      </trkpt>
      <trkpt lat="41.692272" lon="0.926343">
        <ele>235.321</ele>
        <time>2021-08-19T12:55:00Z</time>
      </trkpt>
      <trkpt lat="41.692329" lon="0.926330">
        <ele>235.609</ele>
        <time>2021-08-19T12:55:01Z</time>
      </trkpt>
      <trkpt lat="41.692439" lon="0.926299">
        <ele>236.127</ele>
        <time>2021-08-19T12:55:03Z</time>
      </trkpt>
      <trkpt lat="41.692543" lon="0.926258">
        <ele>235.958</ele>
        <time>2021-08-19T12:55:05Z</time>
      </trkpt>
      <trkpt lat="41.692644" lon="0.926222">
        <ele>235.459</ele>
        <time>2021-08-19T12:55:07Z</time>
      </trkpt>
      <trkpt lat="41.692743" lon="0.926194">
        <ele>235.183</ele>
        <time>2021-08-19T12:55:09Z</time>
      </trkpt>
      <trkpt lat="41.692842" lon="0.926191">
        <ele>234.814</ele>
        <time>2021-08-19T12:55:11Z</time>
      </trkpt>
      <trkpt lat="41.692893" lon="0.926199">
        <ele>234.670</ele>
        <time>2021-08-19T12:55:12Z</time>
      </trkpt>
      <trkpt lat="41.692992" lon="0.926238">
        <ele>234.275</ele>
        <time>2021-08-19T12:55:14Z</time>
      </trkpt>
      <trkpt lat="41.693091" lon="0.926272">
        <ele>233.936</ele>
        <time>2021-08-19T12:55:16Z</time>
      </trkpt>
      <trkpt lat="41.693139" lon="0.926290">
        <ele>233.712</ele>
        <time>2021-08-19T12:55:17Z</time>
      </trkpt>
      <trkpt lat="41.693236" lon="0.926324">
        <ele>233.326</ele>
        <time>2021-08-19T12:55:19Z</time>
      </trkpt>
      <trkpt lat="41.693339" lon="0.926352">
        <ele>233.047</ele>
        <time>2021-08-19T12:55:21Z</time>
      </trkpt>
      <trkpt lat="41.693444" lon="0.926374">
        <ele>233.411</ele>
        <time>2021-08-19T12:55:23Z</time>
      </trkpt>
      <trkpt lat="41.693497" lon="0.926381">
        <ele>233.609</ele>
        <time>2021-08-19T12:55:24Z</time>
      </trkpt>
      <trkpt lat="41.693550" lon="0.926388">
        <ele>233.823</ele>
        <time>2021-08-19T12:55:25Z</time>
      </trkpt>
      <trkpt lat="41.693652" lon="0.926396">
        <ele>234.024</ele>
        <time>2021-08-19T12:55:27Z</time>
      </trkpt>
      <trkpt lat="41.693707" lon="0.926395">
        <ele>234.065</ele>
        <time>2021-08-19T12:55:28Z</time>
      </trkpt>
      <trkpt lat="41.693757" lon="0.926391">
        <ele>234.069</ele>
        <time>2021-08-19T12:55:29Z</time>
      </trkpt>
      <trkpt lat="41.693856" lon="0.926371">
        <ele>234.070</ele>
        <time>2021-08-19T12:55:31Z</time>
      </trkpt>
      <trkpt lat="41.693957" lon="0.926351">
        <ele>233.886</ele>
        <time>2021-08-19T12:55:33Z</time>
      </trkpt>
      <trkpt lat="41.694059" lon="0.926326">
        <ele>233.441</ele>
        <time>2021-08-19T12:55:35Z</time>
      </trkpt>
      <trkpt lat="41.694109" lon="0.926313">
        <ele>233.232</ele>
        <time>2021-08-19T12:55:36Z</time>
      </trkpt>
      <trkpt lat="41.694206" lon="0.926284">
        <ele>232.998</ele>
        <time>2021-08-19T12:55:38Z</time>
      </trkpt>
      <trkpt lat="41.694300" lon="0.926257">
        <ele>232.568</ele>
        <time>2021-08-19T12:55:40Z</time>
      </trkpt>
      <trkpt lat="41.694346" lon="0.926247">
        <ele>232.442</ele>
        <time>2021-08-19T12:55:41Z</time>
      </trkpt>
      <trkpt lat="41.694434" lon="0.926233">
        <ele>232.026</ele>
        <time>2021-08-19T12:55:43Z</time>
      </trkpt>
      <trkpt lat="41.694509" lon="0.926216">
        <ele>232.409</ele>
        <time>2021-08-19T12:55:45Z</time>
      </trkpt>
      <trkpt lat="41.694588" lon="0.926198">
        <ele>232.997</ele>
        <time>2021-08-19T12:55:47Z</time>
      </trkpt>
      <trkpt lat="41.694668" lon="0.926179">
        <ele>233.438</ele>
        <time>2021-08-19T12:55:49Z</time>
      </trkpt>
      <trkpt lat="41.694736" lon="0.926154">
        <ele>233.899</ele>
        <time>2021-08-19T12:55:51Z</time>
      </trkpt>
      <trkpt lat="41.694827" lon="0.926130">
        <ele>233.673</ele>
        <time>2021-08-19T12:55:53Z</time>
      </trkpt>
      <trkpt lat="41.694871" lon="0.926116">
        <ele>233.424</ele>
        <time>2021-08-19T12:55:54Z</time>
      </trkpt>
      <trkpt lat="41.694946" lon="0.926085">
        <ele>233.390</ele>
        <time>2021-08-19T12:55:56Z</time>
      </trkpt>
      <trkpt lat="41.695028" lon="0.926043">
        <ele>233.145</ele>
        <time>2021-08-19T12:55:58Z</time>
      </trkpt>
      <trkpt lat="41.695108" lon="0.926009">
        <ele>232.886</ele>
        <time>2021-08-19T12:56:00Z</time>
      </trkpt>
      <trkpt lat="41.695192" lon="0.925968">
        <ele>232.542</ele>
        <time>2021-08-19T12:56:02Z</time>
      </trkpt>
      <trkpt lat="41.695273" lon="0.925926">
        <ele>232.034</ele>
        <time>2021-08-19T12:56:04Z</time>
      </trkpt>
      <trkpt lat="41.695351" lon="0.925884">
        <ele>232.055</ele>
        <time>2021-08-19T12:56:06Z</time>
      </trkpt>
      <trkpt lat="41.695428" lon="0.925845">
        <ele>232.010</ele>
        <time>2021-08-19T12:56:08Z</time>
      </trkpt>
      <trkpt lat="41.695505" lon="0.925810">
        <ele>232.109</ele>
        <time>2021-08-19T12:56:10Z</time>
      </trkpt>
      <trkpt lat="41.695578" lon="0.925770">
        <ele>232.434</ele>
        <time>2021-08-19T12:56:12Z</time>
      </trkpt>
      <trkpt lat="41.695651" lon="0.925733">
        <ele>232.945</ele>
        <time>2021-08-19T12:56:14Z</time>
      </trkpt>
      <trkpt lat="41.695733" lon="0.925704">
        <ele>233.466</ele>
        <time>2021-08-19T12:56:16Z</time>
      </trkpt>
      <trkpt lat="41.695807" lon="0.925667">
        <ele>233.970</ele>
        <time>2021-08-19T12:56:18Z</time>
      </trkpt>
      <trkpt lat="41.695879" lon="0.925639">
        <ele>234.071</ele>
        <time>2021-08-19T12:56:20Z</time>
      </trkpt>
      <trkpt lat="41.695956" lon="0.925614">
        <ele>234.177</ele>
        <time>2021-08-19T12:56:22Z</time>
      </trkpt>
      <trkpt lat="41.696028" lon="0.925572">
        <ele>234.062</ele>
        <time>2021-08-19T12:56:24Z</time>
      </trkpt>
      <trkpt lat="41.696084" lon="0.925550">
        <ele>234.023</ele>
        <time>2021-08-19T12:56:26Z</time>
      </trkpt>
      <trkpt lat="41.696148" lon="0.925530">
        <ele>233.779</ele>
        <time>2021-08-19T12:56:28Z</time>
      </trkpt>
      <trkpt lat="41.696198" lon="0.925522">
        <ele>233.551</ele>
        <time>2021-08-19T12:56:30Z</time>
      </trkpt>
      <trkpt lat="41.696246" lon="0.925513">
        <ele>233.301</ele>
        <time>2021-08-19T12:56:32Z</time>
      </trkpt>
      <trkpt lat="41.696309" lon="0.925503">
        <ele>233.011</ele>
        <time>2021-08-19T12:56:35Z</time>
      </trkpt>
      <trkpt lat="41.696355" lon="0.925469">
        <ele>232.809</ele>
        <time>2021-08-19T12:56:38Z</time>
      </trkpt>
      <trkpt lat="41.696343" lon="0.925407">
        <ele>232.566</ele>
        <time>2021-08-19T12:58:35Z</time>
      </trkpt>
      <trkpt lat="41.696338" lon="0.925322">
        <ele>232.287</ele>
        <time>2021-08-19T12:58:39Z</time>
      </trkpt>
      <trkpt lat="41.696343" lon="0.925256">
        <ele>231.868</ele>
        <time>2021-08-19T12:58:41Z</time>
      </trkpt>
      <trkpt lat="41.696360" lon="0.925178">
        <ele>231.022</ele>
        <time>2021-08-19T12:58:44Z</time>
      </trkpt>
      <trkpt lat="41.696375" lon="0.925114">
        <ele>230.383</ele>
        <time>2021-08-19T12:58:46Z</time>
      </trkpt>
      <trkpt lat="41.696392" lon="0.925041">
        <ele>229.589</ele>
        <time>2021-08-19T12:58:48Z</time>
      </trkpt>
      <trkpt lat="41.696418" lon="0.924957">
        <ele>229.164</ele>
        <time>2021-08-19T12:58:50Z</time>
      </trkpt>
      <trkpt lat="41.696441" lon="0.924883">
        <ele>229.195</ele>
        <time>2021-08-19T12:58:52Z</time>
      </trkpt>
      <trkpt lat="41.696451" lon="0.924822">
        <ele>228.991</ele>
        <time>2021-08-19T12:58:53Z</time>
      </trkpt>
      <trkpt lat="41.696469" lon="0.924731">
        <ele>228.614</ele>
        <time>2021-08-19T12:58:55Z</time>
      </trkpt>
      <trkpt lat="41.696485" lon="0.924654">
        <ele>228.854</ele>
        <time>2021-08-19T12:58:57Z</time>
      </trkpt>
      <trkpt lat="41.696503" lon="0.924574">
        <ele>228.909</ele>
        <time>2021-08-19T12:58:59Z</time>
      </trkpt>
      <trkpt lat="41.696522" lon="0.924487">
        <ele>229.009</ele>
        <time>2021-08-19T12:59:01Z</time>
      </trkpt>
      <trkpt lat="41.696538" lon="0.924417">
        <ele>229.232</ele>
        <time>2021-08-19T12:59:03Z</time>
      </trkpt>
      <trkpt lat="41.696568" lon="0.924319">
        <ele>229.963</ele>
        <time>2021-08-19T12:59:05Z</time>
      </trkpt>
      <trkpt lat="41.696590" lon="0.924234">
        <ele>230.514</ele>
        <time>2021-08-19T12:59:07Z</time>
      </trkpt>
      <trkpt lat="41.696613" lon="0.924153">
        <ele>231.048</ele>
        <time>2021-08-19T12:59:09Z</time>
      </trkpt>
      <trkpt lat="41.696636" lon="0.924071">
        <ele>231.329</ele>
        <time>2021-08-19T12:59:11Z</time>
      </trkpt>
      <trkpt lat="41.696663" lon="0.923988">
        <ele>231.645</ele>
        <time>2021-08-19T12:59:13Z</time>
      </trkpt>
      <trkpt lat="41.696674" lon="0.923921">
        <ele>231.980</ele>
        <time>2021-08-19T12:59:15Z</time>
      </trkpt>
      <trkpt lat="41.696703" lon="0.923822">
        <ele>232.151</ele>
        <time>2021-08-19T12:59:17Z</time>
      </trkpt>
      <trkpt lat="41.696723" lon="0.923735">
        <ele>232.227</ele>
        <time>2021-08-19T12:59:19Z</time>
      </trkpt>
      <trkpt lat="41.696743" lon="0.923646">
        <ele>232.367</ele>
        <time>2021-08-19T12:59:21Z</time>
      </trkpt>
      <trkpt lat="41.696755" lon="0.923581">
        <ele>232.281</ele>
        <time>2021-08-19T12:59:23Z</time>
      </trkpt>
      <trkpt lat="41.696762" lon="0.923512">
        <ele>232.119</ele>
        <time>2021-08-19T12:59:24Z</time>
      </trkpt>
      <trkpt lat="41.696774" lon="0.923449">
        <ele>232.009</ele>
        <time>2021-08-19T12:59:26Z</time>
      </trkpt>
      <trkpt lat="41.696794" lon="0.923381">
        <ele>232.057</ele>
        <time>2021-08-19T12:59:27Z</time>
      </trkpt>
      <trkpt lat="41.696807" lon="0.923284">
        <ele>231.878</ele>
        <time>2021-08-19T12:59:29Z</time>
      </trkpt>
      <trkpt lat="41.696824" lon="0.923201">
        <ele>231.739</ele>
        <time>2021-08-19T12:59:31Z</time>
      </trkpt>
      <trkpt lat="41.696831" lon="0.923135">
        <ele>231.513</ele>
        <time>2021-08-19T12:59:32Z</time>
      </trkpt>
      <trkpt lat="41.696840" lon="0.923049">
        <ele>231.294</ele>
        <time>2021-08-19T12:59:34Z</time>
      </trkpt>
      <trkpt lat="41.696846" lon="0.922947">
        <ele>231.290</ele>
        <time>2021-08-19T12:59:36Z</time>
      </trkpt>
      <trkpt lat="41.696855" lon="0.922882">
        <ele>231.285</ele>
        <time>2021-08-19T12:59:38Z</time>
      </trkpt>
      <trkpt lat="41.696864" lon="0.922815">
        <ele>231.216</ele>
        <time>2021-08-19T12:59:39Z</time>
      </trkpt>
      <trkpt lat="41.696876" lon="0.922754">
        <ele>231.392</ele>
        <time>2021-08-19T12:59:40Z</time>
      </trkpt>
      <trkpt lat="41.696896" lon="0.922659">
        <ele>231.651</ele>
        <time>2021-08-19T12:59:42Z</time>
      </trkpt>
      <trkpt lat="41.696920" lon="0.922570">
        <ele>231.801</ele>
        <time>2021-08-19T12:59:44Z</time>
      </trkpt>
      <trkpt lat="41.696931" lon="0.922473">
        <ele>231.911</ele>
        <time>2021-08-19T12:59:46Z</time>
      </trkpt>
      <trkpt lat="41.696942" lon="0.922377">
        <ele>232.009</ele>
        <time>2021-08-19T12:59:48Z</time>
      </trkpt>
      <trkpt lat="41.696956" lon="0.922277">
        <ele>232.196</ele>
        <time>2021-08-19T12:59:50Z</time>
      </trkpt>
      <trkpt lat="41.696974" lon="0.922184">
        <ele>232.247</ele>
        <time>2021-08-19T12:59:52Z</time>
      </trkpt>
      <trkpt lat="41.696986" lon="0.922086">
        <ele>232.258</ele>
        <time>2021-08-19T12:59:54Z</time>
      </trkpt>
      <trkpt lat="41.697000" lon="0.921990">
        <ele>232.222</ele>
        <time>2021-08-19T12:59:56Z</time>
      </trkpt>
      <trkpt lat="41.697014" lon="0.921901">
        <ele>232.253</ele>
        <time>2021-08-19T12:59:58Z</time>
      </trkpt>
      <trkpt lat="41.697027" lon="0.921811">
        <ele>232.339</ele>
        <time>2021-08-19T13:00:00Z</time>
      </trkpt>
      <trkpt lat="41.697037" lon="0.921739">
        <ele>232.314</ele>
        <time>2021-08-19T13:00:02Z</time>
      </trkpt>
      <trkpt lat="41.697046" lon="0.921678">
        <ele>232.435</ele>
        <time>2021-08-19T13:00:03Z</time>
      </trkpt>
      <trkpt lat="41.697063" lon="0.921574">
        <ele>232.851</ele>
        <time>2021-08-19T13:00:05Z</time>
      </trkpt>
      <trkpt lat="41.697082" lon="0.921480">
        <ele>233.262</ele>
        <time>2021-08-19T13:00:07Z</time>
      </trkpt>
      <trkpt lat="41.697096" lon="0.921381">
        <ele>233.483</ele>
        <time>2021-08-19T13:00:09Z</time>
      </trkpt>
      <trkpt lat="41.697107" lon="0.921290">
        <ele>233.311</ele>
        <time>2021-08-19T13:00:11Z</time>
      </trkpt>
      <trkpt lat="41.697117" lon="0.921198">
        <ele>233.109</ele>
        <time>2021-08-19T13:00:13Z</time>
      </trkpt>
      <trkpt lat="41.697127" lon="0.921117">
        <ele>233.087</ele>
        <time>2021-08-19T13:00:15Z</time>
      </trkpt>
      <trkpt lat="41.697135" lon="0.921040">
        <ele>232.988</ele>
        <time>2021-08-19T13:00:17Z</time>
      </trkpt>
      <trkpt lat="41.697147" lon="0.920976">
        <ele>232.999</ele>
        <time>2021-08-19T13:00:19Z</time>
      </trkpt>
      <trkpt lat="41.697148" lon="0.920907">
        <ele>232.893</ele>
        <time>2021-08-19T13:01:03Z</time>
      </trkpt>
      <trkpt lat="41.697140" lon="0.920823">
        <ele>232.734</ele>
        <time>2021-08-19T13:01:07Z</time>
      </trkpt>
      <trkpt lat="41.697140" lon="0.920746">
        <ele>232.450</ele>
        <time>2021-08-19T13:01:10Z</time>
      </trkpt>
      <trkpt lat="41.697131" lon="0.920665">
        <ele>232.115</ele>
        <time>2021-08-19T13:01:13Z</time>
      </trkpt>
      <trkpt lat="41.697148" lon="0.920577">
        <ele>231.846</ele>
        <time>2021-08-19T13:01:15Z</time>
      </trkpt>
      <trkpt lat="41.697160" lon="0.920481">
        <ele>231.822</ele>
        <time>2021-08-19T13:01:17Z</time>
      </trkpt>
      <trkpt lat="41.697177" lon="0.920398">
        <ele>231.819</ele>
        <time>2021-08-19T13:01:19Z</time>
      </trkpt>
      <trkpt lat="41.697177" lon="0.920398">
        <ele>231.809</ele>
        <time>2021-08-19T13:01:19Z</time>
      </trkpt>
      <trkpt lat="41.697182" lon="0.920329">
        <ele>231.919</ele>
        <time>2021-08-19T13:01:21Z</time>
      </trkpt>
      <trkpt lat="41.697186" lon="0.920264">
        <ele>231.909</ele>
        <time>2021-08-19T13:01:23Z</time>
      </trkpt>
      <trkpt lat="41.697196" lon="0.920172">
        <ele>231.922</ele>
        <time>2021-08-19T13:01:25Z</time>
      </trkpt>
      <trkpt lat="41.697198" lon="0.920101">
        <ele>231.953</ele>
        <time>2021-08-19T13:01:27Z</time>
      </trkpt>
      <trkpt lat="41.697201" lon="0.920005">
        <ele>231.914</ele>
        <time>2021-08-19T13:01:29Z</time>
      </trkpt>
      <trkpt lat="41.697221" lon="0.919916">
        <ele>232.038</ele>
        <time>2021-08-19T13:01:31Z</time>
      </trkpt>
      <trkpt lat="41.697240" lon="0.919816">
        <ele>232.099</ele>
        <time>2021-08-19T13:01:33Z</time>
      </trkpt>
      <trkpt lat="41.697263" lon="0.919723">
        <ele>232.145</ele>
        <time>2021-08-19T13:01:35Z</time>
      </trkpt>
      <trkpt lat="41.697280" lon="0.919632">
        <ele>232.190</ele>
        <time>2021-08-19T13:01:37Z</time>
      </trkpt>
      <trkpt lat="41.697290" lon="0.919570">
        <ele>232.151</ele>
        <time>2021-08-19T13:01:38Z</time>
      </trkpt>
      <trkpt lat="41.697297" lon="0.919501">
        <ele>232.147</ele>
        <time>2021-08-19T13:01:39Z</time>
      </trkpt>
      <trkpt lat="41.697307" lon="0.919414">
        <ele>231.962</ele>
        <time>2021-08-19T13:01:41Z</time>
      </trkpt>
      <trkpt lat="41.697315" lon="0.919337">
        <ele>231.683</ele>
        <time>2021-08-19T13:01:42Z</time>
      </trkpt>
      <trkpt lat="41.697331" lon="0.919227">
        <ele>231.211</ele>
        <time>2021-08-19T13:01:44Z</time>
      </trkpt>
      <trkpt lat="41.697344" lon="0.919156">
        <ele>231.009</ele>
        <time>2021-08-19T13:01:45Z</time>
      </trkpt>
      <trkpt lat="41.697355" lon="0.919072">
        <ele>231.087</ele>
        <time>2021-08-19T13:01:47Z</time>
      </trkpt>
      <trkpt lat="41.697363" lon="0.919007">
        <ele>231.048</ele>
        <time>2021-08-19T13:01:48Z</time>
      </trkpt>
      <trkpt lat="41.697374" lon="0.918902">
        <ele>231.099</ele>
        <time>2021-08-19T13:01:50Z</time>
      </trkpt>
      <trkpt lat="41.697386" lon="0.918804">
        <ele>231.253</ele>
        <time>2021-08-19T13:01:52Z</time>
      </trkpt>
      <trkpt lat="41.697397" lon="0.918730">
        <ele>231.424</ele>
        <time>2021-08-19T13:01:53Z</time>
      </trkpt>
      <trkpt lat="41.697415" lon="0.918616">
        <ele>231.730</ele>
        <time>2021-08-19T13:01:55Z</time>
      </trkpt>
      <trkpt lat="41.697427" lon="0.918539">
        <ele>231.585</ele>
        <time>2021-08-19T13:01:56Z</time>
      </trkpt>
      <trkpt lat="41.697442" lon="0.918413">
        <ele>231.286</ele>
        <time>2021-08-19T13:01:58Z</time>
      </trkpt>
      <trkpt lat="41.697450" lon="0.918353">
        <ele>231.192</ele>
        <time>2021-08-19T13:01:59Z</time>
      </trkpt>
      <trkpt lat="41.697465" lon="0.918228">
        <ele>230.347</ele>
        <time>2021-08-19T13:02:01Z</time>
      </trkpt>
      <trkpt lat="41.697472" lon="0.918164">
        <ele>229.929</ele>
        <time>2021-08-19T13:02:02Z</time>
      </trkpt>
      <trkpt lat="41.697488" lon="0.918026">
        <ele>229.021</ele>
        <time>2021-08-19T13:02:04Z</time>
      </trkpt>
      <trkpt lat="41.697510" lon="0.917880">
        <ele>228.309</ele>
        <time>2021-08-19T13:02:06Z</time>
      </trkpt>
      <trkpt lat="41.697519" lon="0.917806">
        <ele>228.065</ele>
        <time>2021-08-19T13:02:07Z</time>
      </trkpt>
      <trkpt lat="41.697534" lon="0.917655">
        <ele>227.516</ele>
        <time>2021-08-19T13:02:09Z</time>
      </trkpt>
      <trkpt lat="41.697553" lon="0.917508">
        <ele>227.217</ele>
        <time>2021-08-19T13:02:11Z</time>
      </trkpt>
      <trkpt lat="41.697569" lon="0.917364">
        <ele>227.181</ele>
        <time>2021-08-19T13:02:13Z</time>
      </trkpt>
      <trkpt lat="41.697587" lon="0.917226">
        <ele>227.012</ele>
        <time>2021-08-19T13:02:15Z</time>
      </trkpt>
      <trkpt lat="41.697594" lon="0.917159">
        <ele>227.058</ele>
        <time>2021-08-19T13:02:16Z</time>
      </trkpt>
      <trkpt lat="41.697612" lon="0.917024">
        <ele>227.053</ele>
        <time>2021-08-19T13:02:18Z</time>
      </trkpt>
      <trkpt lat="41.697625" lon="0.916886">
        <ele>227.034</ele>
        <time>2021-08-19T13:02:20Z</time>
      </trkpt>
      <trkpt lat="41.697643" lon="0.916752">
        <ele>227.060</ele>
        <time>2021-08-19T13:02:22Z</time>
      </trkpt>
      <trkpt lat="41.697656" lon="0.916623">
        <ele>226.987</ele>
        <time>2021-08-19T13:02:24Z</time>
      </trkpt>
      <trkpt lat="41.697676" lon="0.916497">
        <ele>226.642</ele>
        <time>2021-08-19T13:02:26Z</time>
      </trkpt>
      <trkpt lat="41.697683" lon="0.916435">
        <ele>226.526</ele>
        <time>2021-08-19T13:02:27Z</time>
      </trkpt>
      <trkpt lat="41.697690" lon="0.916375">
        <ele>226.309</ele>
        <time>2021-08-19T13:02:28Z</time>
      </trkpt>
      <trkpt lat="41.697704" lon="0.916268">
        <ele>226.099</ele>
        <time>2021-08-19T13:02:30Z</time>
      </trkpt>
      <trkpt lat="41.697730" lon="0.916168">
        <ele>225.980</ele>
        <time>2021-08-19T13:02:32Z</time>
      </trkpt>
      <trkpt lat="41.697765" lon="0.916070">
        <ele>226.041</ele>
        <time>2021-08-19T13:02:34Z</time>
      </trkpt>
      <trkpt lat="41.697809" lon="0.915990">
        <ele>225.975</ele>
        <time>2021-08-19T13:02:36Z</time>
      </trkpt>
      <trkpt lat="41.697871" lon="0.915965">
        <ele>225.776</ele>
        <time>2021-08-19T13:02:39Z</time>
      </trkpt>
      <trkpt lat="41.697922" lon="0.915892">
        <ele>225.522</ele>
        <time>2021-08-19T13:02:40Z</time>
      </trkpt>
      <trkpt lat="41.697975" lon="0.915815">
        <ele>225.337</ele>
        <time>2021-08-19T13:02:41Z</time>
      </trkpt>
      <trkpt lat="41.698018" lon="0.915761">
        <ele>225.448</ele>
        <time>2021-08-19T13:02:43Z</time>
      </trkpt>
      <trkpt lat="41.698062" lon="0.915708">
        <ele>225.484</ele>
        <time>2021-08-19T13:02:44Z</time>
      </trkpt>
      <trkpt lat="41.698109" lon="0.915642">
        <ele>225.674</ele>
        <time>2021-08-19T13:02:46Z</time>
      </trkpt>
      <trkpt lat="41.698152" lon="0.915587">
        <ele>225.656</ele>
        <time>2021-08-19T13:02:48Z</time>
      </trkpt>
      <trkpt lat="41.698193" lon="0.915538">
        <ele>225.521</ele>
        <time>2021-08-19T13:02:49Z</time>
      </trkpt>
      <trkpt lat="41.698240" lon="0.915475">
        <ele>225.109</ele>
        <time>2021-08-19T13:02:51Z</time>
      </trkpt>
      <trkpt lat="41.698284" lon="0.915426">
        <ele>224.858</ele>
        <time>2021-08-19T13:02:53Z</time>
      </trkpt>
      <trkpt lat="41.698326" lon="0.915379">
        <ele>224.459</ele>
        <time>2021-08-19T13:02:54Z</time>
      </trkpt>
      <trkpt lat="41.698366" lon="0.915334">
        <ele>224.150</ele>
        <time>2021-08-19T13:02:56Z</time>
      </trkpt>
      <trkpt lat="41.698411" lon="0.915271">
        <ele>223.734</ele>
        <time>2021-08-19T13:02:58Z</time>
      </trkpt>
      <trkpt lat="41.698445" lon="0.915227">
        <ele>223.745</ele>
        <time>2021-08-19T13:02:59Z</time>
      </trkpt>
      <trkpt lat="41.698505" lon="0.915155">
        <ele>223.681</ele>
        <time>2021-08-19T13:03:01Z</time>
      </trkpt>
      <trkpt lat="41.698557" lon="0.915105">
        <ele>223.396</ele>
        <time>2021-08-19T13:03:02Z</time>
      </trkpt>
      <trkpt lat="41.698618" lon="0.915055">
        <ele>223.017</ele>
        <time>2021-08-19T13:03:04Z</time>
      </trkpt>
      <trkpt lat="41.698656" lon="0.915011">
        <ele>223.253</ele>
        <time>2021-08-19T13:03:05Z</time>
      </trkpt>
      <trkpt lat="41.698729" lon="0.914934">
        <ele>223.842</ele>
        <time>2021-08-19T13:03:07Z</time>
      </trkpt>
      <trkpt lat="41.698798" lon="0.914860">
        <ele>224.322</ele>
        <time>2021-08-19T13:03:09Z</time>
      </trkpt>
      <trkpt lat="41.698834" lon="0.914792">
        <ele>224.714</ele>
        <time>2021-08-19T13:03:11Z</time>
      </trkpt>
      <trkpt lat="41.698884" lon="0.914726">
        <ele>225.009</ele>
        <time>2021-08-19T13:03:12Z</time>
      </trkpt>
      <trkpt lat="41.698949" lon="0.914652">
        <ele>225.135</ele>
        <time>2021-08-19T13:03:14Z</time>
      </trkpt>
      <trkpt lat="41.699006" lon="0.914589">
        <ele>225.296</ele>
        <time>2021-08-19T13:03:16Z</time>
      </trkpt>
      <trkpt lat="41.699053" lon="0.914532">
        <ele>225.437</ele>
        <time>2021-08-19T13:03:17Z</time>
      </trkpt>
      <trkpt lat="41.699105" lon="0.914468">
        <ele>225.711</ele>
        <time>2021-08-19T13:03:19Z</time>
      </trkpt>
      <trkpt lat="41.699170" lon="0.914398">
        <ele>225.892</ele>
        <time>2021-08-19T13:03:21Z</time>
      </trkpt>
      <trkpt lat="41.699208" lon="0.914352">
        <ele>225.958</ele>
        <time>2021-08-19T13:03:22Z</time>
      </trkpt>
      <trkpt lat="41.699248" lon="0.914301">
        <ele>226.123</ele>
        <time>2021-08-19T13:03:24Z</time>
      </trkpt>
      <trkpt lat="41.699295" lon="0.914248">
        <ele>226.434</ele>
        <time>2021-08-19T13:03:25Z</time>
      </trkpt>
      <trkpt lat="41.699354" lon="0.914178">
        <ele>227.050</ele>
        <time>2021-08-19T13:03:27Z</time>
      </trkpt>
      <trkpt lat="41.699387" lon="0.914135">
        <ele>227.419</ele>
        <time>2021-08-19T13:03:28Z</time>
      </trkpt>
      <trkpt lat="41.699441" lon="0.914063">
        <ele>228.009</ele>
        <time>2021-08-19T13:03:30Z</time>
      </trkpt>
      <trkpt lat="41.699495" lon="0.913993">
        <ele>228.419</ele>
        <time>2021-08-19T13:03:32Z</time>
      </trkpt>
      <trkpt lat="41.699544" lon="0.913927">
        <ele>228.709</ele>
        <time>2021-08-19T13:03:34Z</time>
      </trkpt>
      <trkpt lat="41.699589" lon="0.913867">
        <ele>229.072</ele>
        <time>2021-08-19T13:03:35Z</time>
      </trkpt>
      <trkpt lat="41.699628" lon="0.913828">
        <ele>229.213</ele>
        <time>2021-08-19T13:03:37Z</time>
      </trkpt>
      <trkpt lat="41.699672" lon="0.913773">
        <ele>229.324</ele>
        <time>2021-08-19T13:03:38Z</time>
      </trkpt>
      <trkpt lat="41.699717" lon="0.913705">
        <ele>229.368</ele>
        <time>2021-08-19T13:03:40Z</time>
      </trkpt>
      <trkpt lat="41.699769" lon="0.913635">
        <ele>228.969</ele>
        <time>2021-08-19T13:03:42Z</time>
      </trkpt>
      <trkpt lat="41.699806" lon="0.913589">
        <ele>228.685</ele>
        <time>2021-08-19T13:03:43Z</time>
      </trkpt>
      <trkpt lat="41.699848" lon="0.913534">
        <ele>228.110</ele>
        <time>2021-08-19T13:03:45Z</time>
      </trkpt>
      <trkpt lat="41.699848" lon="0.913534">
        <ele>228.151</ele>
        <time>2021-08-19T13:03:45Z</time>
      </trkpt>
      <trkpt lat="41.699881" lon="0.913488">
        <ele>227.737</ele>
        <time>2021-08-19T13:03:46Z</time>
      </trkpt>
      <trkpt lat="41.699914" lon="0.913443">
        <ele>227.322</ele>
        <time>2021-08-19T13:03:48Z</time>
      </trkpt>
      <trkpt lat="41.699945" lon="0.913398">
        <ele>226.862</ele>
        <time>2021-08-19T13:03:49Z</time>
      </trkpt>
      <trkpt lat="41.699980" lon="0.913355">
        <ele>226.308</ele>
        <time>2021-08-19T13:03:50Z</time>
      </trkpt>
      <trkpt lat="41.700033" lon="0.913282">
        <ele>225.609</ele>
        <time>2021-08-19T13:03:52Z</time>
      </trkpt>
      <trkpt lat="41.700087" lon="0.913217">
        <ele>225.043</ele>
        <time>2021-08-19T13:03:54Z</time>
      </trkpt>
      <trkpt lat="41.700117" lon="0.913169">
        <ele>224.654</ele>
        <time>2021-08-19T13:03:55Z</time>
      </trkpt>
      <trkpt lat="41.700161" lon="0.913107">
        <ele>224.095</ele>
        <time>2021-08-19T13:03:57Z</time>
      </trkpt>
      <trkpt lat="41.700203" lon="0.913052">
        <ele>223.589</ele>
        <time>2021-08-19T13:03:59Z</time>
      </trkpt>
      <trkpt lat="41.700243" lon="0.912994">
        <ele>223.440</ele>
        <time>2021-08-19T13:04:00Z</time>
      </trkpt>
      <trkpt lat="41.700282" lon="0.912939">
        <ele>223.496</ele>
        <time>2021-08-19T13:04:02Z</time>
      </trkpt>
      <trkpt lat="41.700319" lon="0.912891">
        <ele>223.751</ele>
        <time>2021-08-19T13:04:03Z</time>
      </trkpt>
      <trkpt lat="41.700356" lon="0.912838">
        <ele>223.892</ele>
        <time>2021-08-19T13:04:05Z</time>
      </trkpt>
      <trkpt lat="41.700392" lon="0.912789">
        <ele>224.088</ele>
        <time>2021-08-19T13:04:06Z</time>
      </trkpt>
      <trkpt lat="41.700427" lon="0.912739">
        <ele>224.179</ele>
        <time>2021-08-19T13:04:08Z</time>
      </trkpt>
      <trkpt lat="41.700456" lon="0.912689">
        <ele>224.305</ele>
        <time>2021-08-19T13:04:09Z</time>
      </trkpt>
      <trkpt lat="41.700488" lon="0.912640">
        <ele>224.525</ele>
        <time>2021-08-19T13:04:11Z</time>
      </trkpt>
      <trkpt lat="41.700522" lon="0.912598">
        <ele>224.609</ele>
        <time>2021-08-19T13:04:12Z</time>
      </trkpt>
      <trkpt lat="41.700568" lon="0.912543">
        <ele>224.998</ele>
        <time>2021-08-19T13:04:14Z</time>
      </trkpt>
      <trkpt lat="41.700607" lon="0.912483">
        <ele>225.039</ele>
        <time>2021-08-19T13:04:15Z</time>
      </trkpt>
      <trkpt lat="41.700648" lon="0.912427">
        <ele>225.180</ele>
        <time>2021-08-19T13:04:17Z</time>
      </trkpt>
      <trkpt lat="41.700698" lon="0.912369">
        <ele>225.254</ele>
        <time>2021-08-19T13:04:19Z</time>
      </trkpt>
      <trkpt lat="41.700747" lon="0.912297">
        <ele>225.515</ele>
        <time>2021-08-19T13:04:21Z</time>
      </trkpt>
      <trkpt lat="41.700786" lon="0.912245">
        <ele>225.821</ele>
        <time>2021-08-19T13:04:23Z</time>
      </trkpt>
      <trkpt lat="41.700827" lon="0.912175">
        <ele>226.016</ele>
        <time>2021-08-19T13:04:25Z</time>
      </trkpt>
      <trkpt lat="41.700877" lon="0.912118">
        <ele>226.077</ele>
        <time>2021-08-19T13:04:27Z</time>
      </trkpt>
      <trkpt lat="41.700922" lon="0.912061">
        <ele>226.053</ele>
        <time>2021-08-19T13:04:29Z</time>
      </trkpt>
      <trkpt lat="41.700956" lon="0.912008">
        <ele>226.014</ele>
        <time>2021-08-19T13:04:30Z</time>
      </trkpt>
      <trkpt lat="41.701004" lon="0.911949">
        <ele>226.054</ele>
        <time>2021-08-19T13:04:32Z</time>
      </trkpt>
      <trkpt lat="41.701039" lon="0.911891">
        <ele>225.909</ele>
        <time>2021-08-19T13:04:34Z</time>
      </trkpt>
      <trkpt lat="41.701075" lon="0.911841">
        <ele>225.709</ele>
        <time>2021-08-19T13:04:35Z</time>
      </trkpt>
      <trkpt lat="41.701111" lon="0.911790">
        <ele>225.462</ele>
        <time>2021-08-19T13:04:37Z</time>
      </trkpt>
      <trkpt lat="41.701144" lon="0.911744">
        <ele>225.333</ele>
        <time>2021-08-19T13:04:38Z</time>
      </trkpt>
      <trkpt lat="41.701181" lon="0.911691">
        <ele>225.144</ele>
        <time>2021-08-19T13:04:39Z</time>
      </trkpt>
      <trkpt lat="41.701224" lon="0.911634">
        <ele>225.068</ele>
        <time>2021-08-19T13:04:41Z</time>
      </trkpt>
      <trkpt lat="41.701257" lon="0.911591">
        <ele>224.959</ele>
        <time>2021-08-19T13:04:42Z</time>
      </trkpt>
      <trkpt lat="41.701298" lon="0.911536">
        <ele>224.735</ele>
        <time>2021-08-19T13:04:44Z</time>
      </trkpt>
      <trkpt lat="41.701343" lon="0.911476">
        <ele>224.420</ele>
        <time>2021-08-19T13:04:46Z</time>
      </trkpt>
      <trkpt lat="41.701374" lon="0.911432">
        <ele>224.251</ele>
        <time>2021-08-19T13:04:47Z</time>
      </trkpt>
      <trkpt lat="41.701418" lon="0.911377">
        <ele>224.247</ele>
        <time>2021-08-19T13:04:48Z</time>
      </trkpt>
      <trkpt lat="41.701460" lon="0.911321">
        <ele>224.498</ele>
        <time>2021-08-19T13:04:50Z</time>
      </trkpt>
      <trkpt lat="41.701511" lon="0.911252">
        <ele>224.715</ele>
        <time>2021-08-19T13:04:52Z</time>
      </trkpt>
      <trkpt lat="41.701559" lon="0.911190">
        <ele>224.826</ele>
        <time>2021-08-19T13:04:54Z</time>
      </trkpt>
      <trkpt lat="41.701609" lon="0.911119">
        <ele>224.809</ele>
        <time>2021-08-19T13:04:56Z</time>
      </trkpt>
      <trkpt lat="41.701646" lon="0.911071">
        <ele>224.990</ele>
        <time>2021-08-19T13:04:58Z</time>
      </trkpt>
      <trkpt lat="41.701688" lon="0.911016">
        <ele>225.131</ele>
        <time>2021-08-19T13:04:59Z</time>
      </trkpt>
      <trkpt lat="41.701738" lon="0.910953">
        <ele>225.462</ele>
        <time>2021-08-19T13:05:01Z</time>
      </trkpt>
      <trkpt lat="41.701780" lon="0.910890">
        <ele>225.746</ele>
        <time>2021-08-19T13:05:03Z</time>
      </trkpt>
      <trkpt lat="41.701822" lon="0.910844">
        <ele>226.177</ele>
        <time>2021-08-19T13:05:05Z</time>
      </trkpt>
      <trkpt lat="41.701856" lon="0.910792">
        <ele>226.473</ele>
        <time>2021-08-19T13:05:06Z</time>
      </trkpt>
      <trkpt lat="41.701888" lon="0.910742">
        <ele>226.768</ele>
        <time>2021-08-19T13:05:08Z</time>
      </trkpt>
      <trkpt lat="41.701930" lon="0.910684">
        <ele>226.929</ele>
        <time>2021-08-19T13:05:09Z</time>
      </trkpt>
      <trkpt lat="41.701967" lon="0.910628">
        <ele>227.085</ele>
        <time>2021-08-19T13:05:11Z</time>
      </trkpt>
      <trkpt lat="41.702009" lon="0.910567">
        <ele>227.076</ele>
        <time>2021-08-19T13:05:13Z</time>
      </trkpt>
      <trkpt lat="41.702049" lon="0.910504">
        <ele>226.990</ele>
        <time>2021-08-19T13:05:15Z</time>
      </trkpt>
      <trkpt lat="41.702080" lon="0.910459">
        <ele>226.819</ele>
        <time>2021-08-19T13:05:16Z</time>
      </trkpt>
      <trkpt lat="41.702117" lon="0.910396">
        <ele>226.809</ele>
        <time>2021-08-19T13:05:18Z</time>
      </trkpt>
      <trkpt lat="41.702150" lon="0.910341">
        <ele>226.858</ele>
        <time>2021-08-19T13:05:19Z</time>
      </trkpt>
      <trkpt lat="41.702191" lon="0.910262">
        <ele>226.849</ele>
        <time>2021-08-19T13:05:21Z</time>
      </trkpt>
      <trkpt lat="41.702222" lon="0.910188">
        <ele>226.720</ele>
        <time>2021-08-19T13:05:23Z</time>
      </trkpt>
      <trkpt lat="41.702248" lon="0.910130">
        <ele>226.584</ele>
        <time>2021-08-19T13:05:24Z</time>
      </trkpt>
      <trkpt lat="41.702276" lon="0.910066">
        <ele>226.285</ele>
        <time>2021-08-19T13:05:26Z</time>
      </trkpt>
      <trkpt lat="41.702299" lon="0.910005">
        <ele>226.031</ele>
        <time>2021-08-19T13:05:27Z</time>
      </trkpt>
      <trkpt lat="41.702327" lon="0.909936">
        <ele>226.046</ele>
        <time>2021-08-19T13:05:29Z</time>
      </trkpt>
      <trkpt lat="41.702350" lon="0.909882">
        <ele>226.057</ele>
        <time>2021-08-19T13:05:30Z</time>
      </trkpt>
      <trkpt lat="41.702373" lon="0.909828">
        <ele>226.053</ele>
        <time>2021-08-19T13:05:31Z</time>
      </trkpt>
      <trkpt lat="41.702409" lon="0.909733">
        <ele>226.088</ele>
        <time>2021-08-19T13:05:33Z</time>
      </trkpt>
      <trkpt lat="41.702435" lon="0.909660">
        <ele>226.024</ele>
        <time>2021-08-19T13:05:35Z</time>
      </trkpt>
      <trkpt lat="41.702453" lon="0.909596">
        <ele>226.026</ele>
        <time>2021-08-19T13:05:36Z</time>
      </trkpt>
      <trkpt lat="41.702482" lon="0.909529">
        <ele>226.009</ele>
        <time>2021-08-19T13:05:38Z</time>
      </trkpt>
      <trkpt lat="41.702523" lon="0.909451">
        <ele>226.019</ele>
        <time>2021-08-19T13:05:40Z</time>
      </trkpt>
      <trkpt lat="41.702557" lon="0.909379">
        <ele>226.050</ele>
        <time>2021-08-19T13:05:41Z</time>
      </trkpt>
      <trkpt lat="41.702591" lon="0.909306">
        <ele>226.091</ele>
        <time>2021-08-19T13:05:43Z</time>
      </trkpt>
      <trkpt lat="41.702616" lon="0.909240">
        <ele>226.075</ele>
        <time>2021-08-19T13:05:45Z</time>
      </trkpt>
      <trkpt lat="41.702641" lon="0.909185">
        <ele>226.076</ele>
        <time>2021-08-19T13:05:46Z</time>
      </trkpt>
      <trkpt lat="41.702677" lon="0.909110">
        <ele>225.942</ele>
        <time>2021-08-19T13:05:48Z</time>
      </trkpt>
      <trkpt lat="41.702708" lon="0.909035">
        <ele>225.667</ele>
        <time>2021-08-19T13:05:50Z</time>
      </trkpt>
      <trkpt lat="41.702739" lon="0.908966">
        <ele>225.478</ele>
        <time>2021-08-19T13:05:51Z</time>
      </trkpt>
      <trkpt lat="41.702760" lon="0.908905">
        <ele>225.144</ele>
        <time>2021-08-19T13:05:52Z</time>
      </trkpt>
      <trkpt lat="41.702776" lon="0.908847">
        <ele>225.016</ele>
        <time>2021-08-19T13:05:54Z</time>
      </trkpt>
      <trkpt lat="41.702797" lon="0.908793">
        <ele>225.076</ele>
        <time>2021-08-19T13:05:55Z</time>
      </trkpt>
      <trkpt lat="41.702826" lon="0.908710">
        <ele>225.113</ele>
        <time>2021-08-19T13:05:57Z</time>
      </trkpt>
      <trkpt lat="41.702850" lon="0.908629">
        <ele>225.209</ele>
        <time>2021-08-19T13:05:59Z</time>
      </trkpt>
      <trkpt lat="41.702875" lon="0.908559">
        <ele>225.612</ele>
        <time>2021-08-19T13:06:01Z</time>
      </trkpt>
      <trkpt lat="41.702895" lon="0.908492">
        <ele>226.063</ele>
        <time>2021-08-19T13:06:03Z</time>
      </trkpt>
      <trkpt lat="41.702932" lon="0.908421">
        <ele>226.614</ele>
        <time>2021-08-19T13:06:06Z</time>
      </trkpt>
      <trkpt lat="41.702974" lon="0.908385">
        <ele>227.148</ele>
        <time>2021-08-19T13:06:08Z</time>
      </trkpt>
      <trkpt lat="41.703024" lon="0.908356">
        <ele>227.669</ele>
        <time>2021-08-19T13:06:10Z</time>
      </trkpt>
      <trkpt lat="41.703066" lon="0.908307">
        <ele>228.495</ele>
        <time>2021-08-19T13:06:12Z</time>
      </trkpt>
      <trkpt lat="41.703094" lon="0.908227">
        <ele>229.410</ele>
        <time>2021-08-19T13:06:14Z</time>
      </trkpt>
      <trkpt lat="41.703106" lon="0.908139">
        <ele>230.361</ele>
        <time>2021-08-19T13:06:16Z</time>
      </trkpt>
      <trkpt lat="41.703096" lon="0.908044">
        <ele>231.237</ele>
        <time>2021-08-19T13:06:18Z</time>
      </trkpt>
      <trkpt lat="41.703085" lon="0.907955">
        <ele>231.575</ele>
        <time>2021-08-19T13:06:20Z</time>
      </trkpt>
      <trkpt lat="41.703097" lon="0.907894">
        <ele>231.728</ele>
        <time>2021-08-19T13:06:22Z</time>
      </trkpt>
      <trkpt lat="41.703114" lon="0.907810">
        <ele>232.120</ele>
        <time>2021-08-19T13:06:24Z</time>
      </trkpt>
      <trkpt lat="41.703132" lon="0.907743">
        <ele>232.309</ele>
        <time>2021-08-19T13:06:26Z</time>
      </trkpt>
      <trkpt lat="41.703155" lon="0.907686">
        <ele>232.448</ele>
        <time>2021-08-19T13:06:28Z</time>
      </trkpt>
      <trkpt lat="41.703180" lon="0.907633">
        <ele>232.499</ele>
        <time>2021-08-19T13:06:30Z</time>
      </trkpt>
      <trkpt lat="41.703197" lon="0.907562">
        <ele>232.510</ele>
        <time>2021-08-19T13:06:33Z</time>
      </trkpt>
      <trkpt lat="41.703228" lon="0.907495">
        <ele>232.644</ele>
        <time>2021-08-19T13:06:37Z</time>
      </trkpt>
      <trkpt lat="41.703250" lon="0.907438">
        <ele>232.765</ele>
        <time>2021-08-19T13:06:40Z</time>
      </trkpt>
      <trkpt lat="41.703269" lon="0.907371">
        <ele>232.851</ele>
        <time>2021-08-19T13:06:43Z</time>
      </trkpt>
      <trkpt lat="41.703300" lon="0.907294">
        <ele>232.986</ele>
        <time>2021-08-19T13:06:46Z</time>
      </trkpt>
      <trkpt lat="41.703330" lon="0.907224">
        <ele>233.027</ele>
        <time>2021-08-19T13:06:49Z</time>
      </trkpt>
      <trkpt lat="41.703349" lon="0.907161">
        <ele>232.843</ele>
        <time>2021-08-19T13:06:52Z</time>
      </trkpt>
      <trkpt lat="41.703367" lon="0.907101">
        <ele>232.738</ele>
        <time>2021-08-19T13:06:54Z</time>
      </trkpt>
      <trkpt lat="41.703397" lon="0.907025">
        <ele>232.570</ele>
        <time>2021-08-19T13:06:57Z</time>
      </trkpt>
      <trkpt lat="41.703416" lon="0.906942">
        <ele>232.317</ele>
        <time>2021-08-19T13:07:00Z</time>
      </trkpt>
      <trkpt lat="41.703447" lon="0.906868">
        <ele>232.109</ele>
        <time>2021-08-19T13:07:03Z</time>
      </trkpt>
      <trkpt lat="41.703483" lon="0.906803">
        <ele>232.024</ele>
        <time>2021-08-19T13:07:06Z</time>
      </trkpt>
      <trkpt lat="41.703508" lon="0.906745">
        <ele>231.985</ele>
        <time>2021-08-19T13:07:09Z</time>
      </trkpt>
      <trkpt lat="41.703537" lon="0.906681">
        <ele>231.816</ele>
        <time>2021-08-19T13:07:12Z</time>
      </trkpt>
      <trkpt lat="41.703581" lon="0.906629">
        <ele>231.810</ele>
        <time>2021-08-19T13:07:15Z</time>
      </trkpt>
      <trkpt lat="41.703629" lon="0.906572">
        <ele>231.821</ele>
        <time>2021-08-19T13:07:18Z</time>
      </trkpt>
      <trkpt lat="41.703678" lon="0.906529">
        <ele>232.187</ele>
        <time>2021-08-19T13:07:21Z</time>
      </trkpt>
      <trkpt lat="41.703710" lon="0.906481">
        <ele>232.342</ele>
        <time>2021-08-19T13:07:23Z</time>
      </trkpt>
      <trkpt lat="41.703758" lon="0.906425">
        <ele>232.673</ele>
        <time>2021-08-19T13:07:26Z</time>
      </trkpt>
      <trkpt lat="41.703803" lon="0.906364">
        <ele>233.169</ele>
        <time>2021-08-19T13:07:29Z</time>
      </trkpt>
      <trkpt lat="41.703855" lon="0.906309">
        <ele>233.741</ele>
        <time>2021-08-19T13:07:32Z</time>
      </trkpt>
      <trkpt lat="41.703892" lon="0.906273">
        <ele>234.081</ele>
        <time>2021-08-19T13:07:34Z</time>
      </trkpt>
      <trkpt lat="41.703945" lon="0.906217">
        <ele>234.309</ele>
        <time>2021-08-19T13:07:37Z</time>
      </trkpt>
      <trkpt lat="41.703984" lon="0.906182">
        <ele>234.409</ele>
        <time>2021-08-19T13:07:39Z</time>
      </trkpt>
      <trkpt lat="41.704024" lon="0.906145">
        <ele>234.565</ele>
        <time>2021-08-19T13:07:41Z</time>
      </trkpt>
      <trkpt lat="41.704065" lon="0.906117">
        <ele>234.666</ele>
        <time>2021-08-19T13:07:43Z</time>
      </trkpt>
      <trkpt lat="41.704108" lon="0.906098">
        <ele>234.857</ele>
        <time>2021-08-19T13:07:45Z</time>
      </trkpt>
      <trkpt lat="41.704167" lon="0.906064">
        <ele>234.851</ele>
        <time>2021-08-19T13:07:48Z</time>
      </trkpt>
      <trkpt lat="41.704217" lon="0.906015">
        <ele>234.782</ele>
        <time>2021-08-19T13:07:51Z</time>
      </trkpt>
      <trkpt lat="41.704253" lon="0.905960">
        <ele>234.538</ele>
        <time>2021-08-19T13:07:53Z</time>
      </trkpt>
      <trkpt lat="41.704297" lon="0.905926">
        <ele>234.383</ele>
        <time>2021-08-19T13:07:55Z</time>
      </trkpt>
      <trkpt lat="41.704337" lon="0.905888">
        <ele>234.284</ele>
        <time>2021-08-19T13:07:57Z</time>
      </trkpt>
      <trkpt lat="41.704373" lon="0.905837">
        <ele>234.010</ele>
        <time>2021-08-19T13:07:59Z</time>
      </trkpt>
      <trkpt lat="41.704411" lon="0.905798">
        <ele>234.097</ele>
        <time>2021-08-19T13:08:01Z</time>
      </trkpt>
      <trkpt lat="41.704442" lon="0.905742">
        <ele>234.023</ele>
        <time>2021-08-19T13:08:03Z</time>
      </trkpt>
      <trkpt lat="41.704477" lon="0.905674">
        <ele>234.125</ele>
        <time>2021-08-19T13:08:06Z</time>
      </trkpt>
      <trkpt lat="41.704492" lon="0.905608">
        <ele>234.009</ele>
        <time>2021-08-19T13:08:08Z</time>
      </trkpt>
      <trkpt lat="41.704518" lon="0.905549">
        <ele>234.030</ele>
        <time>2021-08-19T13:08:11Z</time>
      </trkpt>
      <trkpt lat="41.704554" lon="0.905493">
        <ele>233.831</ele>
        <time>2021-08-19T13:08:13Z</time>
      </trkpt>
      <trkpt lat="41.704583" lon="0.905440">
        <ele>233.672</ele>
        <time>2021-08-19T13:08:15Z</time>
      </trkpt>
      <trkpt lat="41.704621" lon="0.905377">
        <ele>233.426</ele>
        <time>2021-08-19T13:08:18Z</time>
      </trkpt>
      <trkpt lat="41.704646" lon="0.905308">
        <ele>233.157</ele>
        <time>2021-08-19T13:08:21Z</time>
      </trkpt>
      <trkpt lat="41.704677" lon="0.905245">
        <ele>232.953</ele>
        <time>2021-08-19T13:08:23Z</time>
      </trkpt>
      <trkpt lat="41.704715" lon="0.905179">
        <ele>232.718</ele>
        <time>2021-08-19T13:08:25Z</time>
      </trkpt>
      <trkpt lat="41.704759" lon="0.905111">
        <ele>232.569</ele>
        <time>2021-08-19T13:08:28Z</time>
      </trkpt>
      <trkpt lat="41.704793" lon="0.905045">
        <ele>232.495</ele>
        <time>2021-08-19T13:08:31Z</time>
      </trkpt>
      <trkpt lat="41.704832" lon="0.904978">
        <ele>232.416</ele>
        <time>2021-08-19T13:08:34Z</time>
      </trkpt>
      <trkpt lat="41.704861" lon="0.904926">
        <ele>232.576</ele>
        <time>2021-08-19T13:10:49Z</time>
      </trkpt>
      <trkpt lat="41.704887" lon="0.904868">
        <ele>232.613</ele>
        <time>2021-08-19T13:10:53Z</time>
      </trkpt>
      <trkpt lat="41.704915" lon="0.904818">
        <ele>232.709</ele>
        <time>2021-08-19T13:10:55Z</time>
      </trkpt>
      <trkpt lat="41.704958" lon="0.904744">
        <ele>232.842</ele>
        <time>2021-08-19T13:10:58Z</time>
      </trkpt>
      <trkpt lat="41.704994" lon="0.904687">
        <ele>232.983</ele>
        <time>2021-08-19T13:11:01Z</time>
      </trkpt>
      <trkpt lat="41.705023" lon="0.904640">
        <ele>232.734</ele>
        <time>2021-08-19T13:11:03Z</time>
      </trkpt>
      <trkpt lat="41.705054" lon="0.904576">
        <ele>232.658</ele>
        <time>2021-08-19T13:11:05Z</time>
      </trkpt>
      <trkpt lat="41.705082" lon="0.904517">
        <ele>232.539</ele>
        <time>2021-08-19T13:11:07Z</time>
      </trkpt>
      <trkpt lat="41.705104" lon="0.904451">
        <ele>232.415</ele>
        <time>2021-08-19T13:11:09Z</time>
      </trkpt>
      <trkpt lat="41.705132" lon="0.904383">
        <ele>232.360</ele>
        <time>2021-08-19T13:11:11Z</time>
      </trkpt>
      <trkpt lat="41.705170" lon="0.904317">
        <ele>232.291</ele>
        <time>2021-08-19T13:11:13Z</time>
      </trkpt>
      <trkpt lat="41.705200" lon="0.904260">
        <ele>232.127</ele>
        <time>2021-08-19T13:11:15Z</time>
      </trkpt>
      <trkpt lat="41.705237" lon="0.904172">
        <ele>231.918</ele>
        <time>2021-08-19T13:11:17Z</time>
      </trkpt>
      <trkpt lat="41.705267" lon="0.904094">
        <ele>232.298</ele>
        <time>2021-08-19T13:11:19Z</time>
      </trkpt>
      <trkpt lat="41.705295" lon="0.904006">
        <ele>232.617</ele>
        <time>2021-08-19T13:11:21Z</time>
      </trkpt>
      <trkpt lat="41.705332" lon="0.903924">
        <ele>232.909</ele>
        <time>2021-08-19T13:11:23Z</time>
      </trkpt>
      <trkpt lat="41.705360" lon="0.903876">
        <ele>233.082</ele>
        <time>2021-08-19T13:11:24Z</time>
      </trkpt>
      <trkpt lat="41.705393" lon="0.903830">
        <ele>233.253</ele>
        <time>2021-08-19T13:11:25Z</time>
      </trkpt>
      <trkpt lat="41.705417" lon="0.903773">
        <ele>233.444</ele>
        <time>2021-08-19T13:11:27Z</time>
      </trkpt>
      <trkpt lat="41.705460" lon="0.903693">
        <ele>233.778</ele>
        <time>2021-08-19T13:11:29Z</time>
      </trkpt>
      <trkpt lat="41.705492" lon="0.903636">
        <ele>233.939</ele>
        <time>2021-08-19T13:11:31Z</time>
      </trkpt>
      <trkpt lat="41.705525" lon="0.903587">
        <ele>234.185</ele>
        <time>2021-08-19T13:11:33Z</time>
      </trkpt>
      <trkpt lat="41.705573" lon="0.903580">
        <ele>234.140</ele>
        <time>2021-08-19T13:11:43Z</time>
      </trkpt>
      <trkpt lat="41.705627" lon="0.903569">
        <ele>234.231</ele>
        <time>2021-08-19T13:11:46Z</time>
      </trkpt>
      <trkpt lat="41.705676" lon="0.903571">
        <ele>234.197</ele>
        <time>2021-08-19T13:11:48Z</time>
      </trkpt>
      <trkpt lat="41.705737" lon="0.903583">
        <ele>234.146</ele>
        <time>2021-08-19T13:11:50Z</time>
      </trkpt>
      <trkpt lat="41.705802" lon="0.903595">
        <ele>234.188</ele>
        <time>2021-08-19T13:11:52Z</time>
      </trkpt>
      <trkpt lat="41.705870" lon="0.903611">
        <ele>234.116</ele>
        <time>2021-08-19T13:11:54Z</time>
      </trkpt>
      <trkpt lat="41.705935" lon="0.903618">
        <ele>234.309</ele>
        <time>2021-08-19T13:11:56Z</time>
      </trkpt>
      <trkpt lat="41.705994" lon="0.903630">
        <ele>234.665</ele>
        <time>2021-08-19T13:11:58Z</time>
      </trkpt>
      <trkpt lat="41.706059" lon="0.903633">
        <ele>234.836</ele>
        <time>2021-08-19T13:12:00Z</time>
      </trkpt>
      <trkpt lat="41.706120" lon="0.903635">
        <ele>235.017</ele>
        <time>2021-08-19T13:12:02Z</time>
      </trkpt>
      <trkpt lat="41.706183" lon="0.903642">
        <ele>235.361</ele>
        <time>2021-08-19T13:12:04Z</time>
      </trkpt>
      <trkpt lat="41.706245" lon="0.903648">
        <ele>235.552</ele>
        <time>2021-08-19T13:12:06Z</time>
      </trkpt>
      <trkpt lat="41.706301" lon="0.903656">
        <ele>235.738</ele>
        <time>2021-08-19T13:12:08Z</time>
      </trkpt>
      <trkpt lat="41.706353" lon="0.903663">
        <ele>235.993</ele>
        <time>2021-08-19T13:12:10Z</time>
      </trkpt>
      <trkpt lat="41.706407" lon="0.903666">
        <ele>236.024</ele>
        <time>2021-08-19T13:12:12Z</time>
      </trkpt>
      <trkpt lat="41.706467" lon="0.903672">
        <ele>236.040</ele>
        <time>2021-08-19T13:12:14Z</time>
      </trkpt>
      <trkpt lat="41.706523" lon="0.903681">
        <ele>236.096</ele>
        <time>2021-08-19T13:12:16Z</time>
      </trkpt>
      <trkpt lat="41.706579" lon="0.903689">
        <ele>236.031</ele>
        <time>2021-08-19T13:12:18Z</time>
      </trkpt>
      <trkpt lat="41.706647" lon="0.903689">
        <ele>236.024</ele>
        <time>2021-08-19T13:12:20Z</time>
      </trkpt>
      <trkpt lat="41.706701" lon="0.903695">
        <ele>236.209</ele>
        <time>2021-08-19T13:12:22Z</time>
      </trkpt>
      <trkpt lat="41.706760" lon="0.903700">
        <ele>236.660</ele>
        <time>2021-08-19T13:12:24Z</time>
      </trkpt>
      <trkpt lat="41.706809" lon="0.903697">
        <ele>236.931</ele>
        <time>2021-08-19T13:12:26Z</time>
      </trkpt>
      <trkpt lat="41.706870" lon="0.903699">
        <ele>237.212</ele>
        <time>2021-08-19T13:12:28Z</time>
      </trkpt>
      <trkpt lat="41.706922" lon="0.903711">
        <ele>237.566</ele>
        <time>2021-08-19T13:12:30Z</time>
      </trkpt>
      <trkpt lat="41.706964" lon="0.903733">
        <ele>237.677</ele>
        <time>2021-08-19T13:12:32Z</time>
      </trkpt>
      <trkpt lat="41.707021" lon="0.903740">
        <ele>237.553</ele>
        <time>2021-08-19T13:12:35Z</time>
      </trkpt>
      <trkpt lat="41.707067" lon="0.903729">
        <ele>237.688</ele>
        <time>2021-08-19T13:13:20Z</time>
      </trkpt>
      <trkpt lat="41.707117" lon="0.903783">
        <ele>237.459</ele>
        <time>2021-08-19T13:13:22Z</time>
      </trkpt>
      <trkpt lat="41.707171" lon="0.903747">
        <ele>237.595</ele>
        <time>2021-08-19T13:13:25Z</time>
      </trkpt>
      <trkpt lat="41.707221" lon="0.903746">
        <ele>237.546</ele>
        <time>2021-08-19T13:13:27Z</time>
      </trkpt>
      <trkpt lat="41.707273" lon="0.903751">
        <ele>237.688</ele>
        <time>2021-08-19T13:13:30Z</time>
      </trkpt>
      <trkpt lat="41.707340" lon="0.903753">
        <ele>237.716</ele>
        <time>2021-08-19T13:13:33Z</time>
      </trkpt>
      <trkpt lat="41.707397" lon="0.903750">
        <ele>237.809</ele>
        <time>2021-08-19T13:13:35Z</time>
      </trkpt>
      <trkpt lat="41.707443" lon="0.903745">
        <ele>237.985</ele>
        <time>2021-08-19T13:13:37Z</time>
      </trkpt>
      <trkpt lat="41.707497" lon="0.903758">
        <ele>237.926</ele>
        <time>2021-08-19T13:13:39Z</time>
      </trkpt>
      <trkpt lat="41.707550" lon="0.903756">
        <ele>238.137</ele>
        <time>2021-08-19T13:13:42Z</time>
      </trkpt>
      <trkpt lat="41.707595" lon="0.903748">
        <ele>238.491</ele>
        <time>2021-08-19T13:13:44Z</time>
      </trkpt>
      <trkpt lat="41.707646" lon="0.903747">
        <ele>238.592</ele>
        <time>2021-08-19T13:13:45Z</time>
      </trkpt>
      <trkpt lat="41.707703" lon="0.903749">
        <ele>238.778</ele>
        <time>2021-08-19T13:13:48Z</time>
      </trkpt>
      <trkpt lat="41.707756" lon="0.903746">
        <ele>238.923</ele>
        <time>2021-08-19T13:13:50Z</time>
      </trkpt>
      <trkpt lat="41.707805" lon="0.903763">
        <ele>239.294</ele>
        <time>2021-08-19T13:13:52Z</time>
      </trkpt>
      <trkpt lat="41.707850" lon="0.903787">
        <ele>239.440</ele>
        <time>2021-08-19T13:13:54Z</time>
      </trkpt>
      <trkpt lat="41.707905" lon="0.903802">
        <ele>239.897</ele>
        <time>2021-08-19T13:13:56Z</time>
      </trkpt>
      <trkpt lat="41.707951" lon="0.903823">
        <ele>240.123</ele>
        <time>2021-08-19T13:13:58Z</time>
      </trkpt>
      <trkpt lat="41.708000" lon="0.903820">
        <ele>240.425</ele>
        <time>2021-08-19T13:14:00Z</time>
      </trkpt>
      <trkpt lat="41.708055" lon="0.903812">
        <ele>240.709</ele>
        <time>2021-08-19T13:14:02Z</time>
      </trkpt>
      <trkpt lat="41.708106" lon="0.903836">
        <ele>240.990</ele>
        <time>2021-08-19T13:14:05Z</time>
      </trkpt>
      <trkpt lat="41.708154" lon="0.903891">
        <ele>241.091</ele>
        <time>2021-08-19T13:14:07Z</time>
      </trkpt>
      <trkpt lat="41.708196" lon="0.903937">
        <ele>241.092</ele>
        <time>2021-08-19T13:14:09Z</time>
      </trkpt>
      <trkpt lat="41.708240" lon="0.903984">
        <ele>241.056</ele>
        <time>2021-08-19T13:14:11Z</time>
      </trkpt>
      <trkpt lat="41.708288" lon="0.904035">
        <ele>241.037</ele>
        <time>2021-08-19T13:14:13Z</time>
      </trkpt>
      <trkpt lat="41.708325" lon="0.904079">
        <ele>241.093</ele>
        <time>2021-08-19T13:14:15Z</time>
      </trkpt>
      <trkpt lat="41.708362" lon="0.904136">
        <ele>241.088</ele>
        <time>2021-08-19T13:14:17Z</time>
      </trkpt>
      <trkpt lat="41.708394" lon="0.904183">
        <ele>241.099</ele>
        <time>2021-08-19T13:14:19Z</time>
      </trkpt>
      <trkpt lat="41.708433" lon="0.904232">
        <ele>241.085</ele>
        <time>2021-08-19T13:14:21Z</time>
      </trkpt>
      <trkpt lat="41.708474" lon="0.904271">
        <ele>241.025</ele>
        <time>2021-08-19T13:14:23Z</time>
      </trkpt>
      <trkpt lat="41.708516" lon="0.904306">
        <ele>241.026</ele>
        <time>2021-08-19T13:14:25Z</time>
      </trkpt>
      <trkpt lat="41.708562" lon="0.904337">
        <ele>241.008</ele>
        <time>2021-08-19T13:14:27Z</time>
      </trkpt>
      <trkpt lat="41.708602" lon="0.904370">
        <ele>241.009</ele>
        <time>2021-08-19T13:14:29Z</time>
      </trkpt>
      <trkpt lat="41.708643" lon="0.904401">
        <ele>241.133</ele>
        <time>2021-08-19T13:14:31Z</time>
      </trkpt>
      <trkpt lat="41.708682" lon="0.904449">
        <ele>241.364</ele>
        <time>2021-08-19T13:14:33Z</time>
      </trkpt>
      <trkpt lat="41.708717" lon="0.904499">
        <ele>241.475</ele>
        <time>2021-08-19T13:14:35Z</time>
      </trkpt>
      <trkpt lat="41.708759" lon="0.904537">
        <ele>241.599</ele>
        <time>2021-08-19T13:14:37Z</time>
      </trkpt>
      <trkpt lat="41.708797" lon="0.904571">
        <ele>241.790</ele>
        <time>2021-08-19T13:14:39Z</time>
      </trkpt>
      <trkpt lat="41.708856" lon="0.904618">
        <ele>241.926</ele>
        <time>2021-08-19T13:14:42Z</time>
      </trkpt>
      <trkpt lat="41.708897" lon="0.904675">
        <ele>242.191</ele>
        <time>2021-08-19T13:14:44Z</time>
      </trkpt>
      <trkpt lat="41.708936" lon="0.904720">
        <ele>242.522</ele>
        <time>2021-08-19T13:14:46Z</time>
      </trkpt>
      <trkpt lat="41.708974" lon="0.904764">
        <ele>243.098</ele>
        <time>2021-08-19T13:14:48Z</time>
      </trkpt>
      <trkpt lat="41.709017" lon="0.904799">
        <ele>243.491</ele>
        <time>2021-08-19T13:14:50Z</time>
      </trkpt>
      <trkpt lat="41.709051" lon="0.904852">
        <ele>243.781</ele>
        <time>2021-08-19T13:14:52Z</time>
      </trkpt>
      <trkpt lat="41.709087" lon="0.904898">
        <ele>243.919</ele>
        <time>2021-08-19T13:14:54Z</time>
      </trkpt>
      <trkpt lat="41.709129" lon="0.904967">
        <ele>244.009</ele>
        <time>2021-08-19T13:14:57Z</time>
      </trkpt>
      <trkpt lat="41.709163" lon="0.905011">
        <ele>244.050</ele>
        <time>2021-08-19T13:14:59Z</time>
      </trkpt>
      <trkpt lat="41.709206" lon="0.904989">
        <ele>244.111</ele>
        <time>2021-08-19T13:15:01Z</time>
      </trkpt>
      <trkpt lat="41.709251" lon="0.904960">
        <ele>244.252</ele>
        <time>2021-08-19T13:15:03Z</time>
      </trkpt>
      <trkpt lat="41.709297" lon="0.904922">
        <ele>244.566</ele>
        <time>2021-08-19T13:15:05Z</time>
      </trkpt>
      <trkpt lat="41.709350" lon="0.904870">
        <ele>245.177</ele>
        <time>2021-08-19T13:15:08Z</time>
      </trkpt>
      <trkpt lat="41.709407" lon="0.904821">
        <ele>245.883</ele>
        <time>2021-08-19T13:15:11Z</time>
      </trkpt>
      <trkpt lat="41.709452" lon="0.904781">
        <ele>246.458</ele>
        <time>2021-08-19T13:15:14Z</time>
      </trkpt>
      <trkpt lat="41.709504" lon="0.904799">
        <ele>246.549</ele>
        <time>2021-08-19T13:15:17Z</time>
      </trkpt>
      <trkpt lat="41.709545" lon="0.904862">
        <ele>246.095</ele>
        <time>2021-08-19T13:15:20Z</time>
      </trkpt>
      <trkpt lat="41.709583" lon="0.904912">
        <ele>245.622</ele>
        <time>2021-08-19T13:15:22Z</time>
      </trkpt>
      <trkpt lat="41.709620" lon="0.904958">
        <ele>245.262</ele>
        <time>2021-08-19T13:15:24Z</time>
      </trkpt>
      <trkpt lat="41.709671" lon="0.905030">
        <ele>244.708</ele>
        <time>2021-08-19T13:15:26Z</time>
      </trkpt>
      <trkpt lat="41.709712" lon="0.905095">
        <ele>244.609</ele>
        <time>2021-08-19T13:15:28Z</time>
      </trkpt>
      <trkpt lat="41.709761" lon="0.905169">
        <ele>244.743</ele>
        <time>2021-08-19T13:15:30Z</time>
      </trkpt>
      <trkpt lat="41.709801" lon="0.905236">
        <ele>244.834</ele>
        <time>2021-08-19T13:15:32Z</time>
      </trkpt>
      <trkpt lat="41.709851" lon="0.905293">
        <ele>244.915</ele>
        <time>2021-08-19T13:15:34Z</time>
      </trkpt>
      <trkpt lat="41.709901" lon="0.905346">
        <ele>245.179</ele>
        <time>2021-08-19T13:15:36Z</time>
      </trkpt>
      <trkpt lat="41.709941" lon="0.905421">
        <ele>245.250</ele>
        <time>2021-08-19T13:15:38Z</time>
      </trkpt>
      <trkpt lat="41.709997" lon="0.905483">
        <ele>245.266</ele>
        <time>2021-08-19T13:15:40Z</time>
      </trkpt>
      <trkpt lat="41.710044" lon="0.905549">
        <ele>245.341</ele>
        <time>2021-08-19T13:15:42Z</time>
      </trkpt>
      <trkpt lat="41.710089" lon="0.905591">
        <ele>245.682</ele>
        <time>2021-08-19T13:15:44Z</time>
      </trkpt>
      <trkpt lat="41.710139" lon="0.905644">
        <ele>245.838</ele>
        <time>2021-08-19T13:15:45Z</time>
      </trkpt>
      <trkpt lat="41.710180" lon="0.905674">
        <ele>246.064</ele>
        <time>2021-08-19T13:15:47Z</time>
      </trkpt>
      <trkpt lat="41.710245" lon="0.905747">
        <ele>246.206</ele>
        <time>2021-08-19T13:15:49Z</time>
      </trkpt>
      <trkpt lat="41.710306" lon="0.905812">
        <ele>246.216</ele>
        <time>2021-08-19T13:15:51Z</time>
      </trkpt>
      <trkpt lat="41.710344" lon="0.905875">
        <ele>246.309</ele>
        <time>2021-08-19T13:15:53Z</time>
      </trkpt>
      <trkpt lat="41.710386" lon="0.905923">
        <ele>246.597</ele>
        <time>2021-08-19T13:15:55Z</time>
      </trkpt>
      <trkpt lat="41.710437" lon="0.905956">
        <ele>246.898</ele>
        <time>2021-08-19T13:15:57Z</time>
      </trkpt>
      <trkpt lat="41.710478" lon="0.905989">
        <ele>247.159</ele>
        <time>2021-08-19T13:15:59Z</time>
      </trkpt>
      <trkpt lat="41.710517" lon="0.906023">
        <ele>247.463</ele>
        <time>2021-08-19T13:16:01Z</time>
      </trkpt>
      <trkpt lat="41.710565" lon="0.906067">
        <ele>247.824</ele>
        <time>2021-08-19T13:16:04Z</time>
      </trkpt>
      <trkpt lat="41.710606" lon="0.906094">
        <ele>247.930</ele>
        <time>2021-08-19T13:16:06Z</time>
      </trkpt>
      <trkpt lat="41.710655" lon="0.906147">
        <ele>247.925</ele>
        <time>2021-08-19T13:16:09Z</time>
      </trkpt>
      <trkpt lat="41.710718" lon="0.906155">
        <ele>247.836</ele>
        <time>2021-08-19T13:16:12Z</time>
      </trkpt>
      <trkpt lat="41.710769" lon="0.906133">
        <ele>247.992</ele>
        <time>2021-08-19T13:16:14Z</time>
      </trkpt>
      <trkpt lat="41.710825" lon="0.906082">
        <ele>248.041</ele>
        <time>2021-08-19T13:16:16Z</time>
      </trkpt>
      <trkpt lat="41.710866" lon="0.906030">
        <ele>247.781</ele>
        <time>2021-08-19T13:16:18Z</time>
      </trkpt>
      <trkpt lat="41.710906" lon="0.905982">
        <ele>247.309</ele>
        <time>2021-08-19T13:16:20Z</time>
      </trkpt>
      <trkpt lat="41.710948" lon="0.905936">
        <ele>247.009</ele>
        <time>2021-08-19T13:16:22Z</time>
      </trkpt>
      <trkpt lat="41.710990" lon="0.905887">
        <ele>246.825</ele>
        <time>2021-08-19T13:16:24Z</time>
      </trkpt>
      <trkpt lat="41.711023" lon="0.905836">
        <ele>246.666</ele>
        <time>2021-08-19T13:16:26Z</time>
      </trkpt>
      <trkpt lat="41.711050" lon="0.905786">
        <ele>246.577</ele>
        <time>2021-08-19T13:16:28Z</time>
      </trkpt>
      <trkpt lat="41.711058" lon="0.905703">
        <ele>246.521</ele>
        <time>2021-08-19T13:16:31Z</time>
      </trkpt>
      <trkpt lat="41.711073" lon="0.905644">
        <ele>246.432</ele>
        <time>2021-08-19T13:16:33Z</time>
      </trkpt>
      <trkpt lat="41.711071" lon="0.905556">
        <ele>246.438</ele>
        <time>2021-08-19T13:16:36Z</time>
      </trkpt>
      <trkpt lat="41.711071" lon="0.905489">
        <ele>246.793</ele>
        <time>2021-08-19T13:16:38Z</time>
      </trkpt>
      <trkpt lat="41.711062" lon="0.905427">
        <ele>247.194</ele>
        <time>2021-08-19T13:16:40Z</time>
      </trkpt>
      <trkpt lat="41.711058" lon="0.905358">
        <ele>247.430</ele>
        <time>2021-08-19T13:16:42Z</time>
      </trkpt>
      <trkpt lat="41.711048" lon="0.905260">
        <ele>248.076</ele>
        <time>2021-08-19T13:16:45Z</time>
      </trkpt>
      <trkpt lat="41.711042" lon="0.905194">
        <ele>248.390</ele>
        <time>2021-08-19T13:16:47Z</time>
      </trkpt>
      <trkpt lat="41.711028" lon="0.905109">
        <ele>248.819</ele>
        <time>2021-08-19T13:16:50Z</time>
      </trkpt>
      <trkpt lat="41.711015" lon="0.905023">
        <ele>249.309</ele>
        <time>2021-08-19T13:16:53Z</time>
      </trkpt>
      <trkpt lat="41.711007" lon="0.904943">
        <ele>249.818</ele>
        <time>2021-08-19T13:16:56Z</time>
      </trkpt>
      <trkpt lat="41.711001" lon="0.904880">
        <ele>250.169</ele>
        <time>2021-08-19T13:16:58Z</time>
      </trkpt>
      <trkpt lat="41.710997" lon="0.904800">
        <ele>250.540</ele>
        <time>2021-08-19T13:17:01Z</time>
      </trkpt>
      <trkpt lat="41.710996" lon="0.904739">
        <ele>250.844</ele>
        <time>2021-08-19T13:17:28Z</time>
      </trkpt>
      <trkpt lat="41.711037" lon="0.904709">
        <ele>250.695</ele>
        <time>2021-08-19T13:18:10Z</time>
      </trkpt>
      <trkpt lat="41.710994" lon="0.904729">
        <ele>250.861</ele>
        <time>2021-08-19T13:18:29Z</time>
      </trkpt>
      <trkpt lat="41.711041" lon="0.904734">
        <ele>250.466</ele>
        <time>2021-08-19T13:19:04Z</time>
      </trkpt>
      <trkpt lat="41.711083" lon="0.904764">
        <ele>249.947</ele>
        <time>2021-08-19T13:19:19Z</time>
      </trkpt>
      <trkpt lat="41.711119" lon="0.904807">
        <ele>249.353</ele>
        <time>2021-08-19T13:19:42Z</time>
      </trkpt>
      <trkpt lat="41.711181" lon="0.904819">
        <ele>248.441</ele>
        <time>2021-08-19T13:19:44Z</time>
      </trkpt>
      <trkpt lat="41.711218" lon="0.904855">
        <ele>247.781</ele>
        <time>2021-08-19T13:20:42Z</time>
      </trkpt>
      <trkpt lat="41.711212" lon="0.904795">
        <ele>248.109</ele>
        <time>2021-08-19T13:21:06Z</time>
      </trkpt>
      <trkpt lat="41.711169" lon="0.904773">
        <ele>248.809</ele>
        <time>2021-08-19T13:22:08Z</time>
      </trkpt>
      <trkpt lat="41.711119" lon="0.904771">
        <ele>249.565</ele>
        <time>2021-08-19T13:22:16Z</time>
      </trkpt>
      <trkpt lat="41.711070" lon="0.904752">
        <ele>250.186</ele>
        <time>2021-08-19T13:22:25Z</time>
      </trkpt>
      <trkpt lat="41.711102" lon="0.904818">
        <ele>249.417</ele>
        <time>2021-08-19T13:23:00Z</time>
      </trkpt>
      <trkpt lat="41.711068" lon="0.904752">
        <ele>250.161</ele>
        <time>2021-08-19T13:23:07Z</time>
      </trkpt>
      <trkpt lat="41.711112" lon="0.904779">
        <ele>249.692</ele>
        <time>2021-08-19T13:23:17Z</time>
      </trkpt>
      <trkpt lat="41.711064" lon="0.904767">
        <ele>250.128</ele>
        <time>2021-08-19T13:24:25Z</time>
      </trkpt>
      <trkpt lat="41.711017" lon="0.904729">
        <ele>250.643</ele>
        <time>2021-08-19T13:24:46Z</time>
      </trkpt>
      <trkpt lat="41.710968" lon="0.904717">
        <ele>251.064</ele>
        <time>2021-08-19T13:28:39Z</time>
      </trkpt>
      <trkpt lat="41.710944" lon="0.904665">
        <ele>251.320</ele>
        <time>2021-08-19T13:30:58Z</time>
      </trkpt>
      <trkpt lat="41.710993" lon="0.904652">
        <ele>251.084</ele>
        <time>2021-08-19T13:31:06Z</time>
      </trkpt>
      <trkpt lat="41.711049" lon="0.904672">
        <ele>250.607</ele>
        <time>2021-08-19T13:31:10Z</time>
      </trkpt>
      <trkpt lat="41.711095" lon="0.904689">
        <ele>250.217</ele>
        <time>2021-08-19T13:31:13Z</time>
      </trkpt>
      <trkpt lat="41.711142" lon="0.904710">
        <ele>249.609</ele>
        <time>2021-08-19T13:31:16Z</time>
      </trkpt>
      <trkpt lat="41.711186" lon="0.904725">
        <ele>248.949</ele>
        <time>2021-08-19T13:31:17Z</time>
      </trkpt>
      <trkpt lat="41.711237" lon="0.904740">
        <ele>248.160</ele>
        <time>2021-08-19T13:31:20Z</time>
      </trkpt>
      <trkpt lat="41.711280" lon="0.904759">
        <ele>247.481</ele>
        <time>2021-08-19T13:31:23Z</time>
      </trkpt>
      <trkpt lat="41.711334" lon="0.904779">
        <ele>246.535</ele>
        <time>2021-08-19T13:31:27Z</time>
      </trkpt>
      <trkpt lat="41.711384" lon="0.904784">
        <ele>245.826</ele>
        <time>2021-08-19T13:31:30Z</time>
      </trkpt>
      <trkpt lat="41.711433" lon="0.904791">
        <ele>245.492</ele>
        <time>2021-08-19T13:31:34Z</time>
      </trkpt>
      <trkpt lat="41.711488" lon="0.904790">
        <ele>245.057</ele>
        <time>2021-08-19T13:31:37Z</time>
      </trkpt>
      <trkpt lat="41.711544" lon="0.904786">
        <ele>244.558</ele>
        <time>2021-08-19T13:31:41Z</time>
      </trkpt>
      <trkpt lat="41.711594" lon="0.904784">
        <ele>244.134</ele>
        <time>2021-08-19T13:31:46Z</time>
      </trkpt>
      <trkpt lat="41.711633" lon="0.904837">
        <ele>243.532</ele>
        <time>2021-08-19T13:31:50Z</time>
      </trkpt>
      <trkpt lat="41.711673" lon="0.904881">
        <ele>242.892</ele>
        <time>2021-08-19T13:31:54Z</time>
      </trkpt>
      <trkpt lat="41.711700" lon="0.904930">
        <ele>242.411</ele>
        <time>2021-08-19T13:32:09Z</time>
      </trkpt>
      <trkpt lat="41.711750" lon="0.904982">
        <ele>241.809</ele>
        <time>2021-08-19T13:32:11Z</time>
      </trkpt>
      <trkpt lat="41.711807" lon="0.905057">
        <ele>241.444</ele>
        <time>2021-08-19T13:32:13Z</time>
      </trkpt>
      <trkpt lat="41.711868" lon="0.905134">
        <ele>241.125</ele>
        <time>2021-08-19T13:32:14Z</time>
      </trkpt>
      <trkpt lat="41.711911" lon="0.905182">
        <ele>241.046</ele>
        <time>2021-08-19T13:32:15Z</time>
      </trkpt>
      <trkpt lat="41.711951" lon="0.905228">
        <ele>241.030</ele>
        <time>2021-08-19T13:32:16Z</time>
      </trkpt>
      <trkpt lat="41.712026" lon="0.905309">
        <ele>240.651</ele>
        <time>2021-08-19T13:32:18Z</time>
      </trkpt>
      <trkpt lat="41.712065" lon="0.905347">
        <ele>240.467</ele>
        <time>2021-08-19T13:32:19Z</time>
      </trkpt>
      <trkpt lat="41.712105" lon="0.905380">
        <ele>240.332</ele>
        <time>2021-08-19T13:32:20Z</time>
      </trkpt>
      <trkpt lat="41.712175" lon="0.905452">
        <ele>240.183</ele>
        <time>2021-08-19T13:32:22Z</time>
      </trkpt>
      <trkpt lat="41.712238" lon="0.905493">
        <ele>239.939</ele>
        <time>2021-08-19T13:32:24Z</time>
      </trkpt>
      <trkpt lat="41.712271" lon="0.905535">
        <ele>239.853</ele>
        <time>2021-08-19T13:32:25Z</time>
      </trkpt>
      <trkpt lat="41.712313" lon="0.905606">
        <ele>239.904</ele>
        <time>2021-08-19T13:32:27Z</time>
      </trkpt>
      <trkpt lat="41.712371" lon="0.905669">
        <ele>239.914</ele>
        <time>2021-08-19T13:32:29Z</time>
      </trkpt>
      <trkpt lat="41.712437" lon="0.905749">
        <ele>239.909</ele>
        <time>2021-08-19T13:32:31Z</time>
      </trkpt>
      <trkpt lat="41.712472" lon="0.905789">
        <ele>239.986</ele>
        <time>2021-08-19T13:32:32Z</time>
      </trkpt>
      <trkpt lat="41.712541" lon="0.905874">
        <ele>239.787</ele>
        <time>2021-08-19T13:32:34Z</time>
      </trkpt>
      <trkpt lat="41.712606" lon="0.905930">
        <ele>239.288</ele>
        <time>2021-08-19T13:32:36Z</time>
      </trkpt>
      <trkpt lat="41.712663" lon="0.905986">
        <ele>238.832</ele>
        <time>2021-08-19T13:32:38Z</time>
      </trkpt>
      <trkpt lat="41.712713" lon="0.906037">
        <ele>238.543</ele>
        <time>2021-08-19T13:32:40Z</time>
      </trkpt>
      <trkpt lat="41.712762" lon="0.906079">
        <ele>238.139</ele>
        <time>2021-08-19T13:32:42Z</time>
      </trkpt>
      <trkpt lat="41.712807" lon="0.906121">
        <ele>237.984</ele>
        <time>2021-08-19T13:32:44Z</time>
      </trkpt>
      <trkpt lat="41.712854" lon="0.906162">
        <ele>237.755</ele>
        <time>2021-08-19T13:32:46Z</time>
      </trkpt>
      <trkpt lat="41.712907" lon="0.906207">
        <ele>237.541</ele>
        <time>2021-08-19T13:32:48Z</time>
      </trkpt>
      <trkpt lat="41.712954" lon="0.906259">
        <ele>237.485</ele>
        <time>2021-08-19T13:32:50Z</time>
      </trkpt>
      <trkpt lat="41.712997" lon="0.906316">
        <ele>237.289</ele>
        <time>2021-08-19T13:32:52Z</time>
      </trkpt>
      <trkpt lat="41.713044" lon="0.906370">
        <ele>237.017</ele>
        <time>2021-08-19T13:32:54Z</time>
      </trkpt>
      <trkpt lat="41.713092" lon="0.906424">
        <ele>237.009</ele>
        <time>2021-08-19T13:32:56Z</time>
      </trkpt>
      <trkpt lat="41.713143" lon="0.906481">
        <ele>237.069</ele>
        <time>2021-08-19T13:32:58Z</time>
      </trkpt>
      <trkpt lat="41.713191" lon="0.906539">
        <ele>237.020</ele>
        <time>2021-08-19T13:33:00Z</time>
      </trkpt>
      <trkpt lat="41.713237" lon="0.906598">
        <ele>237.031</ele>
        <time>2021-08-19T13:33:02Z</time>
      </trkpt>
      <trkpt lat="41.713294" lon="0.906654">
        <ele>237.025</ele>
        <time>2021-08-19T13:33:04Z</time>
      </trkpt>
      <trkpt lat="41.713358" lon="0.906708">
        <ele>237.056</ele>
        <time>2021-08-19T13:33:06Z</time>
      </trkpt>
      <trkpt lat="41.713418" lon="0.906765">
        <ele>237.082</ele>
        <time>2021-08-19T13:33:08Z</time>
      </trkpt>
      <trkpt lat="41.713480" lon="0.906816">
        <ele>237.057</ele>
        <time>2021-08-19T13:33:10Z</time>
      </trkpt>
      <trkpt lat="41.713530" lon="0.906866">
        <ele>237.038</ele>
        <time>2021-08-19T13:33:12Z</time>
      </trkpt>
      <trkpt lat="41.713597" lon="0.906934">
        <ele>237.094</ele>
        <time>2021-08-19T13:33:14Z</time>
      </trkpt>
      <trkpt lat="41.713656" lon="0.906998">
        <ele>236.476</ele>
        <time>2021-08-19T13:33:16Z</time>
      </trkpt>
      <trkpt lat="41.713713" lon="0.907058">
        <ele>235.690</ele>
        <time>2021-08-19T13:33:18Z</time>
      </trkpt>
      <trkpt lat="41.713764" lon="0.907121">
        <ele>235.119</ele>
        <time>2021-08-19T13:33:20Z</time>
      </trkpt>
      <trkpt lat="41.713818" lon="0.907184">
        <ele>234.509</ele>
        <time>2021-08-19T13:33:22Z</time>
      </trkpt>
      <trkpt lat="41.713872" lon="0.907246">
        <ele>234.088</ele>
        <time>2021-08-19T13:33:24Z</time>
      </trkpt>
      <trkpt lat="41.713923" lon="0.907300">
        <ele>233.419</ele>
        <time>2021-08-19T13:33:26Z</time>
      </trkpt>
      <trkpt lat="41.713977" lon="0.907354">
        <ele>232.920</ele>
        <time>2021-08-19T13:33:28Z</time>
      </trkpt>
      <trkpt lat="41.714032" lon="0.907406">
        <ele>232.564</ele>
        <time>2021-08-19T13:33:30Z</time>
      </trkpt>
      <trkpt lat="41.714077" lon="0.907452">
        <ele>232.365</ele>
        <time>2021-08-19T13:33:32Z</time>
      </trkpt>
      <trkpt lat="41.714139" lon="0.907514">
        <ele>232.271</ele>
        <time>2021-08-19T13:33:34Z</time>
      </trkpt>
      <trkpt lat="41.714197" lon="0.907585">
        <ele>232.426</ele>
        <time>2021-08-19T13:33:36Z</time>
      </trkpt>
      <trkpt lat="41.714250" lon="0.907640">
        <ele>232.837</ele>
        <time>2021-08-19T13:33:38Z</time>
      </trkpt>
      <trkpt lat="41.714294" lon="0.907692">
        <ele>233.273</ele>
        <time>2021-08-19T13:33:40Z</time>
      </trkpt>
      <trkpt lat="41.714338" lon="0.907743">
        <ele>233.515</ele>
        <time>2021-08-19T13:33:42Z</time>
      </trkpt>
      <trkpt lat="41.714383" lon="0.907796">
        <ele>233.865</ele>
        <time>2021-08-19T13:33:44Z</time>
      </trkpt>
      <trkpt lat="41.714435" lon="0.907845">
        <ele>234.011</ele>
        <time>2021-08-19T13:33:46Z</time>
      </trkpt>
      <trkpt lat="41.714487" lon="0.907895">
        <ele>233.809</ele>
        <time>2021-08-19T13:33:48Z</time>
      </trkpt>
      <trkpt lat="41.714534" lon="0.907948">
        <ele>233.712</ele>
        <time>2021-08-19T13:33:50Z</time>
      </trkpt>
      <trkpt lat="41.714573" lon="0.907998">
        <ele>233.563</ele>
        <time>2021-08-19T13:33:52Z</time>
      </trkpt>
      <trkpt lat="41.714599" lon="0.908059">
        <ele>233.454</ele>
        <time>2021-08-19T13:33:54Z</time>
      </trkpt>
      <trkpt lat="41.714613" lon="0.908147">
        <ele>233.358</ele>
        <time>2021-08-19T13:33:56Z</time>
      </trkpt>
      <trkpt lat="41.714627" lon="0.908216">
        <ele>233.169</ele>
        <time>2021-08-19T13:33:58Z</time>
      </trkpt>
      <trkpt lat="41.714656" lon="0.908281">
        <ele>233.045</ele>
        <time>2021-08-19T13:34:00Z</time>
      </trkpt>
      <trkpt lat="41.714694" lon="0.908325">
        <ele>233.060</ele>
        <time>2021-08-19T13:34:02Z</time>
      </trkpt>
      <trkpt lat="41.714735" lon="0.908357">
        <ele>233.031</ele>
        <time>2021-08-19T13:34:04Z</time>
      </trkpt>
      <trkpt lat="41.714796" lon="0.908389">
        <ele>233.277</ele>
        <time>2021-08-19T13:34:06Z</time>
      </trkpt>
      <trkpt lat="41.714870" lon="0.908422">
        <ele>233.695</ele>
        <time>2021-08-19T13:34:08Z</time>
      </trkpt>
      <trkpt lat="41.714924" lon="0.908477">
        <ele>234.049</ele>
        <time>2021-08-19T13:34:10Z</time>
      </trkpt>
      <trkpt lat="41.714964" lon="0.908534">
        <ele>234.423</ele>
        <time>2021-08-19T13:34:12Z</time>
      </trkpt>
      <trkpt lat="41.714996" lon="0.908587">
        <ele>234.909</ele>
        <time>2021-08-19T13:34:14Z</time>
      </trkpt>
      <trkpt lat="41.715046" lon="0.908662">
        <ele>234.880</ele>
        <time>2021-08-19T13:34:16Z</time>
      </trkpt>
      <trkpt lat="41.715080" lon="0.908704">
        <ele>234.791</ele>
        <time>2021-08-19T13:34:17Z</time>
      </trkpt>
      <trkpt lat="41.715144" lon="0.908761">
        <ele>234.582</ele>
        <time>2021-08-19T13:34:19Z</time>
      </trkpt>
      <trkpt lat="41.715199" lon="0.908810">
        <ele>234.326</ele>
        <time>2021-08-19T13:34:21Z</time>
      </trkpt>
      <trkpt lat="41.715252" lon="0.908855">
        <ele>234.167</ele>
        <time>2021-08-19T13:34:23Z</time>
      </trkpt>
      <trkpt lat="41.715307" lon="0.908888">
        <ele>233.763</ele>
        <time>2021-08-19T13:34:25Z</time>
      </trkpt>
      <trkpt lat="41.715360" lon="0.908923">
        <ele>232.898</ele>
        <time>2021-08-19T13:34:27Z</time>
      </trkpt>
      <trkpt lat="41.715416" lon="0.908950">
        <ele>232.039</ele>
        <time>2021-08-19T13:34:29Z</time>
      </trkpt>
      <trkpt lat="41.715467" lon="0.908990">
        <ele>231.145</ele>
        <time>2021-08-19T13:34:31Z</time>
      </trkpt>
      <trkpt lat="41.715517" lon="0.909005">
        <ele>230.556</ele>
        <time>2021-08-19T13:34:33Z</time>
      </trkpt>
      <trkpt lat="41.715567" lon="0.909031">
        <ele>229.959</ele>
        <time>2021-08-19T13:34:36Z</time>
      </trkpt>
      <trkpt lat="41.715610" lon="0.909076">
        <ele>229.214</ele>
        <time>2021-08-19T13:34:39Z</time>
      </trkpt>
      <trkpt lat="41.715657" lon="0.909128">
        <ele>228.509</ele>
        <time>2021-08-19T13:34:42Z</time>
      </trkpt>
      <trkpt lat="41.715710" lon="0.909094">
        <ele>228.376</ele>
        <time>2021-08-19T13:34:45Z</time>
      </trkpt>
      <trkpt lat="41.715717" lon="0.909023">
        <ele>228.637</ele>
        <time>2021-08-19T13:34:48Z</time>
      </trkpt>
      <trkpt lat="41.715682" lon="0.908961">
        <ele>229.218</ele>
        <time>2021-08-19T13:34:51Z</time>
      </trkpt>
      <trkpt lat="41.715650" lon="0.908918">
        <ele>229.882</ele>
        <time>2021-08-19T13:34:53Z</time>
      </trkpt>
      <trkpt lat="41.715618" lon="0.908849">
        <ele>230.523</ele>
        <time>2021-08-19T13:34:56Z</time>
      </trkpt>
      <trkpt lat="41.715590" lon="0.908786">
        <ele>231.099</ele>
        <time>2021-08-19T13:34:59Z</time>
      </trkpt>
      <trkpt lat="41.715558" lon="0.908717">
        <ele>231.684</ele>
        <time>2021-08-19T13:35:02Z</time>
      </trkpt>
      <trkpt lat="41.715531" lon="0.908657">
        <ele>232.175</ele>
        <time>2021-08-19T13:35:04Z</time>
      </trkpt>
      <trkpt lat="41.715507" lon="0.908597">
        <ele>232.471</ele>
        <time>2021-08-19T13:35:06Z</time>
      </trkpt>
      <trkpt lat="41.715467" lon="0.908524">
        <ele>232.431</ele>
        <time>2021-08-19T13:35:09Z</time>
      </trkpt>
      <trkpt lat="41.715438" lon="0.908463">
        <ele>232.461</ele>
        <time>2021-08-19T13:35:12Z</time>
      </trkpt>
      <trkpt lat="41.715406" lon="0.908410">
        <ele>232.607</ele>
        <time>2021-08-19T13:35:15Z</time>
      </trkpt>
      <trkpt lat="41.715369" lon="0.908374">
        <ele>232.909</ele>
        <time>2021-08-19T13:35:30Z</time>
      </trkpt>
      <trkpt lat="41.715337" lon="0.908320">
        <ele>233.054</ele>
        <time>2021-08-19T13:35:39Z</time>
      </trkpt>
      <trkpt lat="41.715333" lon="0.908381">
        <ele>233.425</ele>
        <time>2021-08-19T13:37:00Z</time>
      </trkpt>
      <trkpt lat="41.715378" lon="0.908382">
        <ele>232.866</ele>
        <time>2021-08-19T13:37:33Z</time>
      </trkpt>
      <trkpt lat="41.715409" lon="0.908333">
        <ele>232.140</ele>
        <time>2021-08-19T13:38:04Z</time>
      </trkpt>
      <trkpt lat="41.715365" lon="0.908346">
        <ele>232.851</ele>
        <time>2021-08-19T13:45:25Z</time>
      </trkpt>
      <trkpt lat="41.715403" lon="0.908389">
        <ele>232.587</ele>
        <time>2021-08-19T13:46:25Z</time>
      </trkpt>
      <trkpt lat="41.715357" lon="0.908381">
        <ele>233.122</ele>
        <time>2021-08-19T13:51:02Z</time>
      </trkpt>
      <trkpt lat="41.715316" lon="0.908406">
        <ele>233.793</ele>
        <time>2021-08-19T13:54:16Z</time>
      </trkpt>
      <trkpt lat="41.715314" lon="0.908345">
        <ele>233.579</ele>
        <time>2021-08-19T13:54:28Z</time>
      </trkpt>
      <trkpt lat="41.715349" lon="0.908386">
        <ele>233.254</ele>
        <time>2021-08-19T13:58:28Z</time>
      </trkpt>
      <trkpt lat="41.715316" lon="0.908427">
        <ele>233.856</ele>
        <time>2021-08-19T13:59:32Z</time>
      </trkpt>
      <trkpt lat="41.715285" lon="0.908381">
        <ele>234.111</ele>
        <time>2021-08-19T14:00:47Z</time>
      </trkpt>
      <trkpt lat="41.715314" lon="0.908331">
        <ele>233.509</ele>
        <time>2021-08-19T14:01:34Z</time>
      </trkpt>
      <trkpt lat="41.715268" lon="0.908327">
        <ele>233.966</ele>
        <time>2021-08-19T14:02:18Z</time>
      </trkpt>
      <trkpt lat="41.715216" lon="0.908320">
        <ele>233.947</ele>
        <time>2021-08-19T14:02:23Z</time>
      </trkpt>
      <trkpt lat="41.715166" lon="0.908313">
        <ele>233.878</ele>
        <time>2021-08-19T14:02:31Z</time>
      </trkpt>
      <trkpt lat="41.715116" lon="0.908307">
        <ele>233.842</ele>
        <time>2021-08-19T14:02:36Z</time>
      </trkpt>
      <trkpt lat="41.715070" lon="0.908285">
        <ele>233.753</ele>
        <time>2021-08-19T14:02:40Z</time>
      </trkpt>
      <trkpt lat="41.715027" lon="0.908253">
        <ele>233.749</ele>
        <time>2021-08-19T14:02:44Z</time>
      </trkpt>
      <trkpt lat="41.714983" lon="0.908219">
        <ele>233.684</ele>
        <time>2021-08-19T14:02:49Z</time>
      </trkpt>
      <trkpt lat="41.714951" lon="0.908170">
        <ele>233.315</ele>
        <time>2021-08-19T14:02:53Z</time>
      </trkpt>
      <trkpt lat="41.714925" lon="0.908119">
        <ele>233.271</ele>
        <time>2021-08-19T14:03:34Z</time>
      </trkpt>
      <trkpt lat="41.714884" lon="0.908063">
        <ele>233.022</ele>
        <time>2021-08-19T14:03:41Z</time>
      </trkpt>
      <trkpt lat="41.714840" lon="0.908020">
        <ele>232.962</ele>
        <time>2021-08-19T14:03:43Z</time>
      </trkpt>
      <trkpt lat="41.714783" lon="0.908025">
        <ele>233.008</ele>
        <time>2021-08-19T14:03:46Z</time>
      </trkpt>
      <trkpt lat="41.714731" lon="0.908023">
        <ele>233.009</ele>
        <time>2021-08-19T14:03:48Z</time>
      </trkpt>
      <trkpt lat="41.714683" lon="0.907998">
        <ele>233.163</ele>
        <time>2021-08-19T14:03:49Z</time>
      </trkpt>
      <trkpt lat="41.714629" lon="0.907963">
        <ele>233.314</ele>
        <time>2021-08-19T14:03:51Z</time>
      </trkpt>
      <trkpt lat="41.714579" lon="0.907913">
        <ele>233.515</ele>
        <time>2021-08-19T14:03:53Z</time>
      </trkpt>
      <trkpt lat="41.714536" lon="0.907868">
        <ele>233.759</ele>
        <time>2021-08-19T14:03:54Z</time>
      </trkpt>
      <trkpt lat="41.714488" lon="0.907815">
        <ele>233.830</ele>
        <time>2021-08-19T14:03:56Z</time>
      </trkpt>
      <trkpt lat="41.714425" lon="0.907762">
        <ele>233.956</ele>
        <time>2021-08-19T14:03:58Z</time>
      </trkpt>
      <trkpt lat="41.714360" lon="0.907693">
        <ele>233.441</ele>
        <time>2021-08-19T14:04:00Z</time>
      </trkpt>
      <trkpt lat="41.714299" lon="0.907623">
        <ele>232.942</ele>
        <time>2021-08-19T14:04:02Z</time>
      </trkpt>
      <trkpt lat="41.714241" lon="0.907558">
        <ele>232.548</ele>
        <time>2021-08-19T14:04:04Z</time>
      </trkpt>
      <trkpt lat="41.714180" lon="0.907484">
        <ele>232.013</ele>
        <time>2021-08-19T14:04:06Z</time>
      </trkpt>
      <trkpt lat="41.714118" lon="0.907419">
        <ele>232.043</ele>
        <time>2021-08-19T14:04:08Z</time>
      </trkpt>
      <trkpt lat="41.714060" lon="0.907356">
        <ele>232.307</ele>
        <time>2021-08-19T14:04:10Z</time>
      </trkpt>
      <trkpt lat="41.714001" lon="0.907288">
        <ele>232.709</ele>
        <time>2021-08-19T14:04:12Z</time>
      </trkpt>
      <trkpt lat="41.713941" lon="0.907220">
        <ele>233.432</ele>
        <time>2021-08-19T14:04:14Z</time>
      </trkpt>
      <trkpt lat="41.713882" lon="0.907157">
        <ele>234.153</ele>
        <time>2021-08-19T14:04:16Z</time>
      </trkpt>
      <trkpt lat="41.713828" lon="0.907101">
        <ele>234.564</ele>
        <time>2021-08-19T14:04:18Z</time>
      </trkpt>
      <trkpt lat="41.713772" lon="0.907042">
        <ele>235.118</ele>
        <time>2021-08-19T14:04:20Z</time>
      </trkpt>
      <trkpt lat="41.713733" lon="0.907002">
        <ele>235.639</ele>
        <time>2021-08-19T14:04:21Z</time>
      </trkpt>
      <trkpt lat="41.713675" lon="0.906946">
        <ele>236.345</ele>
        <time>2021-08-19T14:04:23Z</time>
      </trkpt>
      <trkpt lat="41.713616" lon="0.906888">
        <ele>237.090</ele>
        <time>2021-08-19T14:04:25Z</time>
      </trkpt>
      <trkpt lat="41.713559" lon="0.906831">
        <ele>237.091</ele>
        <time>2021-08-19T14:04:27Z</time>
      </trkpt>
      <trkpt lat="41.713506" lon="0.906774">
        <ele>237.027</ele>
        <time>2021-08-19T14:04:29Z</time>
      </trkpt>
      <trkpt lat="41.713469" lon="0.906729">
        <ele>237.095</ele>
        <time>2021-08-19T14:04:31Z</time>
      </trkpt>
      <trkpt lat="41.713431" lon="0.906688">
        <ele>237.049</ele>
        <time>2021-08-19T14:04:32Z</time>
      </trkpt>
      <trkpt lat="41.713382" lon="0.906623">
        <ele>237.023</ele>
        <time>2021-08-19T14:04:34Z</time>
      </trkpt>
      <trkpt lat="41.713328" lon="0.906567">
        <ele>237.009</ele>
        <time>2021-08-19T14:04:36Z</time>
      </trkpt>
      <trkpt lat="41.713275" lon="0.906515">
        <ele>237.060</ele>
        <time>2021-08-19T14:04:38Z</time>
      </trkpt>
      <trkpt lat="41.713222" lon="0.906470">
        <ele>237.041</ele>
        <time>2021-08-19T14:04:40Z</time>
      </trkpt>
      <trkpt lat="41.713175" lon="0.906421">
        <ele>237.042</ele>
        <time>2021-08-19T14:04:42Z</time>
      </trkpt>
      <trkpt lat="41.713131" lon="0.906380">
        <ele>237.026</ele>
        <time>2021-08-19T14:04:44Z</time>
      </trkpt>
      <trkpt lat="41.713077" lon="0.906330">
        <ele>237.057</ele>
        <time>2021-08-19T14:04:46Z</time>
      </trkpt>
      <trkpt lat="41.713028" lon="0.906278">
        <ele>237.113</ele>
        <time>2021-08-19T14:04:48Z</time>
      </trkpt>
      <trkpt lat="41.712981" lon="0.906228">
        <ele>237.368</ele>
        <time>2021-08-19T14:04:50Z</time>
      </trkpt>
      <trkpt lat="41.712932" lon="0.906181">
        <ele>237.489</ele>
        <time>2021-08-19T14:04:52Z</time>
      </trkpt>
      <trkpt lat="41.712889" lon="0.906123">
        <ele>237.625</ele>
        <time>2021-08-19T14:04:54Z</time>
      </trkpt>
      <trkpt lat="41.712848" lon="0.906073">
        <ele>237.898</ele>
        <time>2021-08-19T14:04:56Z</time>
      </trkpt>
      <trkpt lat="41.712805" lon="0.906023">
        <ele>237.915</ele>
        <time>2021-08-19T14:04:58Z</time>
      </trkpt>
      <trkpt lat="41.712758" lon="0.905982">
        <ele>238.126</ele>
        <time>2021-08-19T14:05:00Z</time>
      </trkpt>
      <trkpt lat="41.712710" lon="0.905927">
        <ele>238.509</ele>
        <time>2021-08-19T14:05:02Z</time>
      </trkpt>
      <trkpt lat="41.712675" lon="0.905874">
        <ele>238.750</ele>
        <time>2021-08-19T14:05:05Z</time>
      </trkpt>
      <trkpt lat="41.712627" lon="0.905869">
        <ele>239.121</ele>
        <time>2021-08-19T14:07:03Z</time>
      </trkpt>
      <trkpt lat="41.712587" lon="0.905824">
        <ele>239.432</ele>
        <time>2021-08-19T14:07:06Z</time>
      </trkpt>
      <trkpt lat="41.712557" lon="0.905776">
        <ele>239.426</ele>
        <time>2021-08-19T14:07:09Z</time>
      </trkpt>
      <trkpt lat="41.712513" lon="0.905735">
        <ele>239.667</ele>
        <time>2021-08-19T14:07:12Z</time>
      </trkpt>
      <trkpt lat="41.712466" lon="0.905699">
        <ele>239.663</ele>
        <time>2021-08-19T14:07:14Z</time>
      </trkpt>
      <trkpt lat="41.712413" lon="0.905650">
        <ele>239.728</ele>
        <time>2021-08-19T14:07:18Z</time>
      </trkpt>
      <trkpt lat="41.712408" lon="0.905589">
        <ele>239.559</ele>
        <time>2021-08-19T14:07:21Z</time>
      </trkpt>
      <trkpt lat="41.712439" lon="0.905528">
        <ele>239.295</ele>
        <time>2021-08-19T14:07:23Z</time>
      </trkpt>
      <trkpt lat="41.712444" lon="0.905451">
        <ele>239.266</ele>
        <time>2021-08-19T14:07:26Z</time>
      </trkpt>
      <trkpt lat="41.712443" lon="0.905381">
        <ele>239.229</ele>
        <time>2021-08-19T14:07:29Z</time>
      </trkpt>
      <trkpt lat="41.712448" lon="0.905308">
        <ele>239.221</ele>
        <time>2021-08-19T14:07:32Z</time>
      </trkpt>
      <trkpt lat="41.712455" lon="0.905237">
        <ele>239.209</ele>
        <time>2021-08-19T14:07:35Z</time>
      </trkpt>
      <trkpt lat="41.712449" lon="0.905171">
        <ele>239.227</ele>
        <time>2021-08-19T14:07:54Z</time>
      </trkpt>
      <trkpt lat="41.712442" lon="0.905087">
        <ele>239.268</ele>
        <time>2021-08-19T14:07:57Z</time>
      </trkpt>
      <trkpt lat="41.712442" lon="0.905007">
        <ele>239.279</ele>
        <time>2021-08-19T14:07:59Z</time>
      </trkpt>
      <trkpt lat="41.712440" lon="0.904926">
        <ele>239.293</ele>
        <time>2021-08-19T14:08:01Z</time>
      </trkpt>
      <trkpt lat="41.712440" lon="0.904843">
        <ele>239.284</ele>
        <time>2021-08-19T14:08:03Z</time>
      </trkpt>
      <trkpt lat="41.712433" lon="0.904767">
        <ele>239.270</ele>
        <time>2021-08-19T14:08:05Z</time>
      </trkpt>
      <trkpt lat="41.712417" lon="0.904703">
        <ele>239.325</ele>
        <time>2021-08-19T14:08:08Z</time>
      </trkpt>
      <trkpt lat="41.712381" lon="0.904650">
        <ele>239.416</ele>
        <time>2021-08-19T14:08:10Z</time>
      </trkpt>
      <trkpt lat="41.712376" lon="0.904563">
        <ele>239.482</ele>
        <time>2021-08-19T14:08:12Z</time>
      </trkpt>
      <trkpt lat="41.712382" lon="0.904472">
        <ele>239.416</ele>
        <time>2021-08-19T14:08:14Z</time>
      </trkpt>
      <trkpt lat="41.712390" lon="0.904394">
        <ele>239.576</ele>
        <time>2021-08-19T14:08:16Z</time>
      </trkpt>
      <trkpt lat="41.712392" lon="0.904322">
        <ele>239.713</ele>
        <time>2021-08-19T14:08:17Z</time>
      </trkpt>
      <trkpt lat="41.712389" lon="0.904252">
        <ele>239.809</ele>
        <time>2021-08-19T14:08:19Z</time>
      </trkpt>
      <trkpt lat="41.712382" lon="0.904167">
        <ele>240.082</ele>
        <time>2021-08-19T14:08:21Z</time>
      </trkpt>
      <trkpt lat="41.712385" lon="0.904077">
        <ele>240.143</ele>
        <time>2021-08-19T14:08:23Z</time>
      </trkpt>
      <trkpt lat="41.712394" lon="0.903992">
        <ele>240.244</ele>
        <time>2021-08-19T14:08:25Z</time>
      </trkpt>
      <trkpt lat="41.712406" lon="0.903911">
        <ele>240.318</ele>
        <time>2021-08-19T14:08:27Z</time>
      </trkpt>
      <trkpt lat="41.712411" lon="0.903837">
        <ele>240.559</ele>
        <time>2021-08-19T14:08:29Z</time>
      </trkpt>
      <trkpt lat="41.712416" lon="0.903757">
        <ele>240.875</ele>
        <time>2021-08-19T14:08:31Z</time>
      </trkpt>
      <trkpt lat="41.712417" lon="0.903687">
        <ele>241.030</ele>
        <time>2021-08-19T14:08:32Z</time>
      </trkpt>
      <trkpt lat="41.712416" lon="0.903600">
        <ele>241.331</ele>
        <time>2021-08-19T14:08:34Z</time>
      </trkpt>
      <trkpt lat="41.712414" lon="0.903510">
        <ele>241.777</ele>
        <time>2021-08-19T14:08:36Z</time>
      </trkpt>
      <trkpt lat="41.712411" lon="0.903425">
        <ele>242.039</ele>
        <time>2021-08-19T14:08:38Z</time>
      </trkpt>
      <trkpt lat="41.712411" lon="0.903337">
        <ele>242.301</ele>
        <time>2021-08-19T14:08:40Z</time>
      </trkpt>
      <trkpt lat="41.712413" lon="0.903255">
        <ele>242.521</ele>
        <time>2021-08-19T14:08:42Z</time>
      </trkpt>
      <trkpt lat="41.712413" lon="0.903185">
        <ele>242.709</ele>
        <time>2021-08-19T14:08:43Z</time>
      </trkpt>
      <trkpt lat="41.712407" lon="0.903113">
        <ele>242.924</ele>
        <time>2021-08-19T14:08:45Z</time>
      </trkpt>
      <trkpt lat="41.712407" lon="0.903113">
        <ele>242.995</ele>
        <time>2021-08-19T14:08:45Z</time>
      </trkpt>
      <trkpt lat="41.712403" lon="0.903034">
        <ele>243.056</ele>
        <time>2021-08-19T14:08:47Z</time>
      </trkpt>
      <trkpt lat="41.712400" lon="0.902972">
        <ele>243.180</ele>
        <time>2021-08-19T14:08:49Z</time>
      </trkpt>
      <trkpt lat="41.712394" lon="0.902897">
        <ele>243.211</ele>
        <time>2021-08-19T14:08:51Z</time>
      </trkpt>
      <trkpt lat="41.712388" lon="0.902821">
        <ele>243.377</ele>
        <time>2021-08-19T14:08:53Z</time>
      </trkpt>
      <trkpt lat="41.712384" lon="0.902757">
        <ele>243.572</ele>
        <time>2021-08-19T14:08:55Z</time>
      </trkpt>
      <trkpt lat="41.712378" lon="0.902686">
        <ele>243.663</ele>
        <time>2021-08-19T14:08:57Z</time>
      </trkpt>
      <trkpt lat="41.712374" lon="0.902607">
        <ele>243.879</ele>
        <time>2021-08-19T14:08:59Z</time>
      </trkpt>
      <trkpt lat="41.712396" lon="0.902542">
        <ele>243.978</ele>
        <time>2021-08-19T14:09:02Z</time>
      </trkpt>
      <trkpt lat="41.712461" lon="0.902523">
        <ele>243.933</ele>
        <time>2021-08-19T14:09:05Z</time>
      </trkpt>
      <trkpt lat="41.712524" lon="0.902527">
        <ele>243.926</ele>
        <time>2021-08-19T14:09:07Z</time>
      </trkpt>
      <trkpt lat="41.712594" lon="0.902524">
        <ele>243.909</ele>
        <time>2021-08-19T14:09:09Z</time>
      </trkpt>
      <trkpt lat="41.712665" lon="0.902511">
        <ele>244.048</ele>
        <time>2021-08-19T14:09:11Z</time>
      </trkpt>
      <trkpt lat="41.712720" lon="0.902506">
        <ele>244.079</ele>
        <time>2021-08-19T14:09:12Z</time>
      </trkpt>
      <trkpt lat="41.712784" lon="0.902502">
        <ele>244.080</ele>
        <time>2021-08-19T14:09:14Z</time>
      </trkpt>
      <trkpt lat="41.712868" lon="0.902490">
        <ele>243.794</ele>
        <time>2021-08-19T14:09:16Z</time>
      </trkpt>
      <trkpt lat="41.712950" lon="0.902482">
        <ele>243.485</ele>
        <time>2021-08-19T14:09:18Z</time>
      </trkpt>
      <trkpt lat="41.713036" lon="0.902467">
        <ele>243.261</ele>
        <time>2021-08-19T14:09:20Z</time>
      </trkpt>
      <trkpt lat="41.713113" lon="0.902457">
        <ele>242.776</ele>
        <time>2021-08-19T14:09:22Z</time>
      </trkpt>
      <trkpt lat="41.713192" lon="0.902463">
        <ele>242.227</ele>
        <time>2021-08-19T14:09:24Z</time>
      </trkpt>
      <trkpt lat="41.713268" lon="0.902469">
        <ele>241.663</ele>
        <time>2021-08-19T14:09:26Z</time>
      </trkpt>
      <trkpt lat="41.713350" lon="0.902473">
        <ele>241.026</ele>
        <time>2021-08-19T14:09:28Z</time>
      </trkpt>
      <trkpt lat="41.713427" lon="0.902473">
        <ele>240.847</ele>
        <time>2021-08-19T14:09:30Z</time>
      </trkpt>
      <trkpt lat="41.713492" lon="0.902476">
        <ele>240.511</ele>
        <time>2021-08-19T14:09:32Z</time>
      </trkpt>
      <trkpt lat="41.713547" lon="0.902472">
        <ele>240.309</ele>
        <time>2021-08-19T14:09:34Z</time>
      </trkpt>
      <trkpt lat="41.713627" lon="0.902472">
        <ele>240.123</ele>
        <time>2021-08-19T14:09:36Z</time>
      </trkpt>
      <trkpt lat="41.713700" lon="0.902485">
        <ele>240.194</ele>
        <time>2021-08-19T14:09:38Z</time>
      </trkpt>
      <trkpt lat="41.713771" lon="0.902493">
        <ele>240.085</ele>
        <time>2021-08-19T14:09:40Z</time>
      </trkpt>
      <trkpt lat="41.713819" lon="0.902499">
        <ele>240.049</ele>
        <time>2021-08-19T14:09:41Z</time>
      </trkpt>
      <trkpt lat="41.713886" lon="0.902508">
        <ele>240.050</ele>
        <time>2021-08-19T14:09:43Z</time>
      </trkpt>
      <trkpt lat="41.713941" lon="0.902515">
        <ele>240.276</ele>
        <time>2021-08-19T14:09:44Z</time>
      </trkpt>
      <trkpt lat="41.714027" lon="0.902528">
        <ele>240.481</ele>
        <time>2021-08-19T14:09:46Z</time>
      </trkpt>
      <trkpt lat="41.714078" lon="0.902535">
        <ele>240.672</ele>
        <time>2021-08-19T14:09:47Z</time>
      </trkpt>
      <trkpt lat="41.714141" lon="0.902544">
        <ele>240.878</ele>
        <time>2021-08-19T14:09:49Z</time>
      </trkpt>
      <trkpt lat="41.714195" lon="0.902553">
        <ele>240.792</ele>
        <time>2021-08-19T14:09:50Z</time>
      </trkpt>
      <trkpt lat="41.714246" lon="0.902553">
        <ele>240.673</ele>
        <time>2021-08-19T14:09:51Z</time>
      </trkpt>
      <trkpt lat="41.714311" lon="0.902553">
        <ele>240.420</ele>
        <time>2021-08-19T14:09:53Z</time>
      </trkpt>
      <trkpt lat="41.714370" lon="0.902540">
        <ele>240.209</ele>
        <time>2021-08-19T14:09:56Z</time>
      </trkpt>
      <trkpt lat="41.714395" lon="0.902479">
        <ele>240.290</ele>
        <time>2021-08-19T14:10:00Z</time>
      </trkpt>
      <trkpt lat="41.714340" lon="0.902454">
        <ele>240.471</ele>
        <time>2021-08-19T14:10:02Z</time>
      </trkpt>
      <trkpt lat="41.714271" lon="0.902451">
        <ele>240.722</ele>
        <time>2021-08-19T14:10:04Z</time>
      </trkpt>
      <trkpt lat="41.714223" lon="0.902455">
        <ele>240.976</ele>
        <time>2021-08-19T14:10:05Z</time>
      </trkpt>
      <trkpt lat="41.714164" lon="0.902458">
        <ele>241.127</ele>
        <time>2021-08-19T14:10:06Z</time>
      </trkpt>
      <trkpt lat="41.714095" lon="0.902450">
        <ele>241.023</ele>
        <time>2021-08-19T14:10:08Z</time>
      </trkpt>
      <trkpt lat="41.714020" lon="0.902448">
        <ele>240.838</ele>
        <time>2021-08-19T14:10:10Z</time>
      </trkpt>
      <trkpt lat="41.713943" lon="0.902446">
        <ele>240.579</ele>
        <time>2021-08-19T14:10:12Z</time>
      </trkpt>
      <trkpt lat="41.713871" lon="0.902438">
        <ele>240.415</ele>
        <time>2021-08-19T14:10:14Z</time>
      </trkpt>
      <trkpt lat="41.713801" lon="0.902429">
        <ele>240.497</ele>
        <time>2021-08-19T14:10:16Z</time>
      </trkpt>
      <trkpt lat="41.713734" lon="0.902423">
        <ele>240.423</ele>
        <time>2021-08-19T14:10:18Z</time>
      </trkpt>
      <trkpt lat="41.713675" lon="0.902406">
        <ele>240.425</ele>
        <time>2021-08-19T14:10:20Z</time>
      </trkpt>
      <trkpt lat="41.713635" lon="0.902356">
        <ele>240.609</ele>
        <time>2021-08-19T14:10:22Z</time>
      </trkpt>
      <trkpt lat="41.713652" lon="0.902289">
        <ele>240.990</ele>
        <time>2021-08-19T14:10:24Z</time>
      </trkpt>
      <trkpt lat="41.713691" lon="0.902239">
        <ele>241.241</ele>
        <time>2021-08-19T14:10:25Z</time>
      </trkpt>
      <trkpt lat="41.713730" lon="0.902167">
        <ele>241.732</ele>
        <time>2021-08-19T14:10:28Z</time>
      </trkpt>
      <trkpt lat="41.713755" lon="0.902107">
        <ele>242.126</ele>
        <time>2021-08-19T14:10:29Z</time>
      </trkpt>
      <trkpt lat="41.713801" lon="0.902033">
        <ele>242.687</ele>
        <time>2021-08-19T14:10:31Z</time>
      </trkpt>
      <trkpt lat="41.713839" lon="0.901962">
        <ele>242.953</ele>
        <time>2021-08-19T14:10:33Z</time>
      </trkpt>
      <trkpt lat="41.713879" lon="0.901898">
        <ele>243.088</ele>
        <time>2021-08-19T14:10:35Z</time>
      </trkpt>
      <trkpt lat="41.713929" lon="0.901812">
        <ele>242.979</ele>
        <time>2021-08-19T14:10:37Z</time>
      </trkpt>
      <trkpt lat="41.713968" lon="0.901745">
        <ele>242.775</ele>
        <time>2021-08-19T14:10:39Z</time>
      </trkpt>
      <trkpt lat="41.714003" lon="0.901682">
        <ele>242.654</ele>
        <time>2021-08-19T14:10:41Z</time>
      </trkpt>
      <trkpt lat="41.714048" lon="0.901613">
        <ele>242.556</ele>
        <time>2021-08-19T14:10:43Z</time>
      </trkpt>
      <trkpt lat="41.714093" lon="0.901562">
        <ele>242.511</ele>
        <time>2021-08-19T14:10:45Z</time>
      </trkpt>
      <trkpt lat="41.714134" lon="0.901505">
        <ele>242.609</ele>
        <time>2021-08-19T14:10:46Z</time>
      </trkpt>
      <trkpt lat="41.714177" lon="0.901455">
        <ele>242.736</ele>
        <time>2021-08-19T14:10:48Z</time>
      </trkpt>
      <trkpt lat="41.714211" lon="0.901404">
        <ele>242.647</ele>
        <time>2021-08-19T14:10:50Z</time>
      </trkpt>
      <trkpt lat="41.714245" lon="0.901354">
        <ele>242.478</ele>
        <time>2021-08-19T14:10:51Z</time>
      </trkpt>
      <trkpt lat="41.714277" lon="0.901311">
        <ele>242.272</ele>
        <time>2021-08-19T14:10:52Z</time>
      </trkpt>
      <trkpt lat="41.714310" lon="0.901261">
        <ele>242.093</ele>
        <time>2021-08-19T14:10:53Z</time>
      </trkpt>
      <trkpt lat="41.714346" lon="0.901196">
        <ele>241.789</ele>
        <time>2021-08-19T14:10:55Z</time>
      </trkpt>
      <trkpt lat="41.714380" lon="0.901137">
        <ele>241.554</ele>
        <time>2021-08-19T14:10:56Z</time>
      </trkpt>
      <trkpt lat="41.714420" lon="0.901068">
        <ele>241.285</ele>
        <time>2021-08-19T14:10:58Z</time>
      </trkpt>
      <trkpt lat="41.714461" lon="0.901005">
        <ele>240.951</ele>
        <time>2021-08-19T14:10:59Z</time>
      </trkpt>
      <trkpt lat="41.714500" lon="0.900928">
        <ele>240.691</ele>
        <time>2021-08-19T14:11:01Z</time>
      </trkpt>
      <trkpt lat="41.714539" lon="0.900865">
        <ele>240.381</ele>
        <time>2021-08-19T14:11:02Z</time>
      </trkpt>
      <trkpt lat="41.714573" lon="0.900808">
        <ele>240.119</ele>
        <time>2021-08-19T14:11:04Z</time>
      </trkpt>
      <trkpt lat="41.714607" lon="0.900721">
        <ele>239.809</ele>
        <time>2021-08-19T14:11:05Z</time>
      </trkpt>
      <trkpt lat="41.714668" lon="0.900630">
        <ele>239.450</ele>
        <time>2021-08-19T14:11:07Z</time>
      </trkpt>
      <trkpt lat="41.714728" lon="0.900537">
        <ele>239.041</ele>
        <time>2021-08-19T14:11:09Z</time>
      </trkpt>
      <trkpt lat="41.714787" lon="0.900445">
        <ele>238.752</ele>
        <time>2021-08-19T14:11:11Z</time>
      </trkpt>
      <trkpt lat="41.714815" lon="0.900396">
        <ele>238.526</ele>
        <time>2021-08-19T14:11:12Z</time>
      </trkpt>
      <trkpt lat="41.714841" lon="0.900340">
        <ele>238.297</ele>
        <time>2021-08-19T14:11:13Z</time>
      </trkpt>
      <trkpt lat="41.714900" lon="0.900238">
        <ele>237.883</ele>
        <time>2021-08-19T14:11:15Z</time>
      </trkpt>
      <trkpt lat="41.714930" lon="0.900192">
        <ele>237.788</ele>
        <time>2021-08-19T14:11:16Z</time>
      </trkpt>
      <trkpt lat="41.714989" lon="0.900094">
        <ele>237.789</ele>
        <time>2021-08-19T14:11:18Z</time>
      </trkpt>
      <trkpt lat="41.715018" lon="0.900041">
        <ele>237.845</ele>
        <time>2021-08-19T14:11:19Z</time>
      </trkpt>
      <trkpt lat="41.715048" lon="0.899988">
        <ele>237.816</ele>
        <time>2021-08-19T14:11:20Z</time>
      </trkpt>
      <trkpt lat="41.715108" lon="0.899884">
        <ele>237.676</ele>
        <time>2021-08-19T14:11:22Z</time>
      </trkpt>
      <trkpt lat="41.715163" lon="0.899777">
        <ele>237.413</ele>
        <time>2021-08-19T14:11:24Z</time>
      </trkpt>
      <trkpt lat="41.715221" lon="0.899677">
        <ele>237.209</ele>
        <time>2021-08-19T14:11:26Z</time>
      </trkpt>
      <trkpt lat="41.715275" lon="0.899571">
        <ele>237.032</ele>
        <time>2021-08-19T14:11:28Z</time>
      </trkpt>
      <trkpt lat="41.715305" lon="0.899521">
        <ele>236.963</ele>
        <time>2021-08-19T14:11:29Z</time>
      </trkpt>
      <trkpt lat="41.715335" lon="0.899474">
        <ele>236.614</ele>
        <time>2021-08-19T14:11:30Z</time>
      </trkpt>
      <trkpt lat="41.715392" lon="0.899377">
        <ele>236.228</ele>
        <time>2021-08-19T14:11:32Z</time>
      </trkpt>
      <trkpt lat="41.715452" lon="0.899287">
        <ele>235.739</ele>
        <time>2021-08-19T14:11:34Z</time>
      </trkpt>
      <trkpt lat="41.715484" lon="0.899235">
        <ele>235.575</ele>
        <time>2021-08-19T14:11:35Z</time>
      </trkpt>
      <trkpt lat="41.715548" lon="0.899128">
        <ele>235.290</ele>
        <time>2021-08-19T14:11:37Z</time>
      </trkpt>
      <trkpt lat="41.715613" lon="0.899025">
        <ele>235.381</ele>
        <time>2021-08-19T14:11:39Z</time>
      </trkpt>
      <trkpt lat="41.715646" lon="0.898974">
        <ele>235.427</ele>
        <time>2021-08-19T14:11:40Z</time>
      </trkpt>
      <trkpt lat="41.715704" lon="0.898862">
        <ele>235.661</ele>
        <time>2021-08-19T14:11:42Z</time>
      </trkpt>
      <trkpt lat="41.715773" lon="0.898760">
        <ele>235.721</ele>
        <time>2021-08-19T14:11:44Z</time>
      </trkpt>
      <trkpt lat="41.715809" lon="0.898708">
        <ele>235.713</ele>
        <time>2021-08-19T14:11:45Z</time>
      </trkpt>
      <trkpt lat="41.715874" lon="0.898602">
        <ele>236.009</ele>
        <time>2021-08-19T14:11:47Z</time>
      </trkpt>
      <trkpt lat="41.715939" lon="0.898498">
        <ele>235.747</ele>
        <time>2021-08-19T14:11:49Z</time>
      </trkpt>
      <trkpt lat="41.716010" lon="0.898395">
        <ele>235.718</ele>
        <time>2021-08-19T14:11:51Z</time>
      </trkpt>
      <trkpt lat="41.716082" lon="0.898296">
        <ele>235.639</ele>
        <time>2021-08-19T14:11:53Z</time>
      </trkpt>
      <trkpt lat="41.716155" lon="0.898209">
        <ele>235.083</ele>
        <time>2021-08-19T14:11:55Z</time>
      </trkpt>
      <trkpt lat="41.716232" lon="0.898123">
        <ele>234.214</ele>
        <time>2021-08-19T14:11:57Z</time>
      </trkpt>
      <trkpt lat="41.716274" lon="0.898082">
        <ele>233.740</ele>
        <time>2021-08-19T14:11:58Z</time>
      </trkpt>
      <trkpt lat="41.716356" lon="0.897998">
        <ele>232.945</ele>
        <time>2021-08-19T14:12:00Z</time>
      </trkpt>
      <trkpt lat="41.716436" lon="0.897916">
        <ele>232.516</ele>
        <time>2021-08-19T14:12:02Z</time>
      </trkpt>
      <trkpt lat="41.716515" lon="0.897838">
        <ele>232.232</ele>
        <time>2021-08-19T14:12:04Z</time>
      </trkpt>
      <trkpt lat="41.716598" lon="0.897762">
        <ele>232.095</ele>
        <time>2021-08-19T14:12:06Z</time>
      </trkpt>
      <trkpt lat="41.716682" lon="0.897685">
        <ele>232.049</ele>
        <time>2021-08-19T14:12:08Z</time>
      </trkpt>
      <trkpt lat="41.716768" lon="0.897613">
        <ele>232.223</ele>
        <time>2021-08-19T14:12:10Z</time>
      </trkpt>
      <trkpt lat="41.716810" lon="0.897574">
        <ele>232.409</ele>
        <time>2021-08-19T14:12:11Z</time>
      </trkpt>
      <trkpt lat="41.716851" lon="0.897534">
        <ele>232.610</ele>
        <time>2021-08-19T14:12:12Z</time>
      </trkpt>
      <trkpt lat="41.716931" lon="0.897455">
        <ele>233.111</ele>
        <time>2021-08-19T14:12:14Z</time>
      </trkpt>
      <trkpt lat="41.716970" lon="0.897418">
        <ele>233.232</ele>
        <time>2021-08-19T14:12:15Z</time>
      </trkpt>
      <trkpt lat="41.717010" lon="0.897386">
        <ele>233.226</ele>
        <time>2021-08-19T14:12:16Z</time>
      </trkpt>
      <trkpt lat="41.717076" lon="0.897325">
        <ele>233.297</ele>
        <time>2021-08-19T14:12:18Z</time>
      </trkpt>
      <trkpt lat="41.717143" lon="0.897256">
        <ele>233.283</ele>
        <time>2021-08-19T14:12:20Z</time>
      </trkpt>
      <trkpt lat="41.717209" lon="0.897181">
        <ele>233.128</ele>
        <time>2021-08-19T14:12:22Z</time>
      </trkpt>
      <trkpt lat="41.717266" lon="0.897117">
        <ele>232.769</ele>
        <time>2021-08-19T14:12:24Z</time>
      </trkpt>
      <trkpt lat="41.717319" lon="0.897117">
        <ele>232.315</ele>
        <time>2021-08-19T14:12:26Z</time>
      </trkpt>
      <trkpt lat="41.717406" lon="0.896971">
        <ele>231.755</ele>
        <time>2021-08-19T14:12:28Z</time>
      </trkpt>
      <trkpt lat="41.717455" lon="0.896898">
        <ele>231.307</ele>
        <time>2021-08-19T14:12:30Z</time>
      </trkpt>
      <trkpt lat="41.717475" lon="0.896844">
        <ele>231.217</ele>
        <time>2021-08-19T14:12:31Z</time>
      </trkpt>
      <trkpt lat="41.717558" lon="0.896745">
        <ele>231.109</ele>
        <time>2021-08-19T14:12:33Z</time>
      </trkpt>
      <trkpt lat="41.717628" lon="0.896668">
        <ele>231.026</ele>
        <time>2021-08-19T14:12:35Z</time>
      </trkpt>
      <trkpt lat="41.717684" lon="0.896615">
        <ele>231.077</ele>
        <time>2021-08-19T14:12:37Z</time>
      </trkpt>
      <trkpt lat="41.717732" lon="0.896541">
        <ele>231.098</ele>
        <time>2021-08-19T14:12:38Z</time>
      </trkpt>
      <trkpt lat="41.717802" lon="0.896445">
        <ele>231.112</ele>
        <time>2021-08-19T14:12:40Z</time>
      </trkpt>
      <trkpt lat="41.717867" lon="0.896365">
        <ele>231.363</ele>
        <time>2021-08-19T14:12:42Z</time>
      </trkpt>
      <trkpt lat="41.717908" lon="0.896313">
        <ele>231.349</ele>
        <time>2021-08-19T14:12:44Z</time>
      </trkpt>
      <trkpt lat="41.717956" lon="0.896254">
        <ele>231.374</ele>
        <time>2021-08-19T14:12:45Z</time>
      </trkpt>
      <trkpt lat="41.717993" lon="0.896196">
        <ele>231.255</ele>
        <time>2021-08-19T14:12:46Z</time>
      </trkpt>
      <trkpt lat="41.718035" lon="0.896135">
        <ele>231.121</ele>
        <time>2021-08-19T14:12:48Z</time>
      </trkpt>
      <trkpt lat="41.718075" lon="0.896094">
        <ele>231.149</ele>
        <time>2021-08-19T14:12:49Z</time>
      </trkpt>
      <trkpt lat="41.718115" lon="0.896056">
        <ele>231.202</ele>
        <time>2021-08-19T14:12:50Z</time>
      </trkpt>
      <trkpt lat="41.718184" lon="0.895985">
        <ele>231.522</ele>
        <time>2021-08-19T14:12:52Z</time>
      </trkpt>
      <trkpt lat="41.718233" lon="0.895940">
        <ele>231.609</ele>
        <time>2021-08-19T14:12:53Z</time>
      </trkpt>
      <trkpt lat="41.718278" lon="0.895896">
        <ele>231.825</ele>
        <time>2021-08-19T14:12:55Z</time>
      </trkpt>
      <trkpt lat="41.718322" lon="0.895851">
        <ele>232.076</ele>
        <time>2021-08-19T14:12:56Z</time>
      </trkpt>
      <trkpt lat="41.718365" lon="0.895811">
        <ele>232.027</ele>
        <time>2021-08-19T14:12:57Z</time>
      </trkpt>
      <trkpt lat="41.718412" lon="0.895765">
        <ele>232.181</ele>
        <time>2021-08-19T14:12:59Z</time>
      </trkpt>
      <trkpt lat="41.718464" lon="0.895718">
        <ele>232.292</ele>
        <time>2021-08-19T14:13:00Z</time>
      </trkpt>
      <trkpt lat="41.718505" lon="0.895678">
        <ele>232.398</ele>
        <time>2021-08-19T14:13:01Z</time>
      </trkpt>
      <trkpt lat="41.718542" lon="0.895641">
        <ele>232.563</ele>
        <time>2021-08-19T14:13:02Z</time>
      </trkpt>
      <trkpt lat="41.718584" lon="0.895599">
        <ele>232.864</ele>
        <time>2021-08-19T14:13:04Z</time>
      </trkpt>
      <trkpt lat="41.718629" lon="0.895551">
        <ele>233.080</ele>
        <time>2021-08-19T14:13:05Z</time>
      </trkpt>
      <trkpt lat="41.718683" lon="0.895499">
        <ele>232.866</ele>
        <time>2021-08-19T14:13:07Z</time>
      </trkpt>
      <trkpt lat="41.718726" lon="0.895460">
        <ele>232.829</ele>
        <time>2021-08-19T14:13:09Z</time>
      </trkpt>
      <trkpt lat="41.718781" lon="0.895408">
        <ele>232.821</ele>
        <time>2021-08-19T14:13:10Z</time>
      </trkpt>
      <trkpt lat="41.718835" lon="0.895352">
        <ele>232.909</ele>
        <time>2021-08-19T14:13:12Z</time>
      </trkpt>
      <trkpt lat="41.718885" lon="0.895300">
        <ele>233.037</ele>
        <time>2021-08-19T14:13:14Z</time>
      </trkpt>
      <trkpt lat="41.718922" lon="0.895261">
        <ele>233.188</ele>
        <time>2021-08-19T14:13:15Z</time>
      </trkpt>
      <trkpt lat="41.718961" lon="0.895223">
        <ele>233.119</ele>
        <time>2021-08-19T14:13:16Z</time>
      </trkpt>
      <trkpt lat="41.719027" lon="0.895156">
        <ele>233.123</ele>
        <time>2021-08-19T14:13:18Z</time>
      </trkpt>
      <trkpt lat="41.719079" lon="0.895102">
        <ele>233.114</ele>
        <time>2021-08-19T14:13:20Z</time>
      </trkpt>
      <trkpt lat="41.719136" lon="0.895050">
        <ele>233.120</ele>
        <time>2021-08-19T14:13:21Z</time>
      </trkpt>
      <trkpt lat="41.719197" lon="0.894993">
        <ele>233.255</ele>
        <time>2021-08-19T14:13:23Z</time>
      </trkpt>
      <trkpt lat="41.719233" lon="0.894955">
        <ele>233.316</ele>
        <time>2021-08-19T14:13:24Z</time>
      </trkpt>
      <trkpt lat="41.719281" lon="0.894899">
        <ele>233.372</ele>
        <time>2021-08-19T14:13:26Z</time>
      </trkpt>
      <trkpt lat="41.719324" lon="0.894850">
        <ele>233.356</ele>
        <time>2021-08-19T14:13:27Z</time>
      </trkpt>
      <trkpt lat="41.719387" lon="0.894787">
        <ele>233.259</ele>
        <time>2021-08-19T14:13:29Z</time>
      </trkpt>
      <trkpt lat="41.719435" lon="0.894739">
        <ele>233.114</ele>
        <time>2021-08-19T14:13:31Z</time>
      </trkpt>
      <trkpt lat="41.719474" lon="0.894697">
        <ele>232.809</ele>
        <time>2021-08-19T14:13:32Z</time>
      </trkpt>
      <trkpt lat="41.719530" lon="0.894646">
        <ele>232.546</ele>
        <time>2021-08-19T14:13:33Z</time>
      </trkpt>
      <trkpt lat="41.719581" lon="0.894599">
        <ele>232.127</ele>
        <time>2021-08-19T14:13:35Z</time>
      </trkpt>
      <trkpt lat="41.719623" lon="0.894558">
        <ele>231.878</ele>
        <time>2021-08-19T14:13:36Z</time>
      </trkpt>
      <trkpt lat="41.719677" lon="0.894503">
        <ele>231.452</ele>
        <time>2021-08-19T14:13:38Z</time>
      </trkpt>
      <trkpt lat="41.719723" lon="0.894463">
        <ele>231.153</ele>
        <time>2021-08-19T14:13:39Z</time>
      </trkpt>
      <trkpt lat="41.719764" lon="0.894430">
        <ele>231.189</ele>
        <time>2021-08-19T14:13:41Z</time>
      </trkpt>
      <trkpt lat="41.719823" lon="0.894374">
        <ele>231.184</ele>
        <time>2021-08-19T14:13:42Z</time>
      </trkpt>
      <trkpt lat="41.719862" lon="0.894331">
        <ele>231.145</ele>
        <time>2021-08-19T14:13:44Z</time>
      </trkpt>
      <trkpt lat="41.719914" lon="0.894279">
        <ele>231.131</ele>
        <time>2021-08-19T14:13:45Z</time>
      </trkpt>
      <trkpt lat="41.719955" lon="0.894240">
        <ele>231.198</ele>
        <time>2021-08-19T14:13:46Z</time>
      </trkpt>
      <trkpt lat="41.719996" lon="0.894197">
        <ele>231.115</ele>
        <time>2021-08-19T14:13:47Z</time>
      </trkpt>
      <trkpt lat="41.720044" lon="0.894148">
        <ele>231.326</ele>
        <time>2021-08-19T14:13:49Z</time>
      </trkpt>
      <trkpt lat="41.720087" lon="0.894100">
        <ele>231.509</ele>
        <time>2021-08-19T14:13:50Z</time>
      </trkpt>
      <trkpt lat="41.720141" lon="0.894047">
        <ele>231.850</ele>
        <time>2021-08-19T14:13:52Z</time>
      </trkpt>
      <trkpt lat="41.720196" lon="0.893994">
        <ele>232.291</ele>
        <time>2021-08-19T14:13:54Z</time>
      </trkpt>
      <trkpt lat="41.720250" lon="0.893940">
        <ele>232.712</ele>
        <time>2021-08-19T14:13:55Z</time>
      </trkpt>
      <trkpt lat="41.720298" lon="0.893896">
        <ele>232.926</ele>
        <time>2021-08-19T14:13:57Z</time>
      </trkpt>
      <trkpt lat="41.720334" lon="0.893859">
        <ele>232.637</ele>
        <time>2021-08-19T14:13:58Z</time>
      </trkpt>
      <trkpt lat="41.720371" lon="0.893820">
        <ele>232.313</ele>
        <time>2021-08-19T14:13:59Z</time>
      </trkpt>
      <trkpt lat="41.720435" lon="0.893759">
        <ele>231.878</ele>
        <time>2021-08-19T14:14:01Z</time>
      </trkpt>
      <trkpt lat="41.720487" lon="0.893709">
        <ele>231.479</ele>
        <time>2021-08-19T14:14:02Z</time>
      </trkpt>
      <trkpt lat="41.720539" lon="0.893663">
        <ele>231.235</ele>
        <time>2021-08-19T14:14:04Z</time>
      </trkpt>
      <trkpt lat="41.720575" lon="0.893627">
        <ele>231.011</ele>
        <time>2021-08-19T14:14:05Z</time>
      </trkpt>
      <trkpt lat="41.720613" lon="0.893589">
        <ele>230.921</ele>
        <time>2021-08-19T14:14:06Z</time>
      </trkpt>
      <trkpt lat="41.720656" lon="0.893544">
        <ele>230.903</ele>
        <time>2021-08-19T14:14:08Z</time>
      </trkpt>
      <trkpt lat="41.720696" lon="0.893503">
        <ele>230.909</ele>
        <time>2021-08-19T14:14:09Z</time>
      </trkpt>
      <trkpt lat="41.720749" lon="0.893454">
        <ele>230.952</ele>
        <time>2021-08-19T14:14:11Z</time>
      </trkpt>
      <trkpt lat="41.720792" lon="0.893411">
        <ele>230.963</ele>
        <time>2021-08-19T14:14:12Z</time>
      </trkpt>
      <trkpt lat="41.720853" lon="0.893345">
        <ele>231.034</ele>
        <time>2021-08-19T14:14:14Z</time>
      </trkpt>
      <trkpt lat="41.720902" lon="0.893294">
        <ele>231.028</ele>
        <time>2021-08-19T14:14:16Z</time>
      </trkpt>
      <trkpt lat="41.720941" lon="0.893262">
        <ele>231.029</ele>
        <time>2021-08-19T14:14:17Z</time>
      </trkpt>
      <trkpt lat="41.720982" lon="0.893221">
        <ele>231.025</ele>
        <time>2021-08-19T14:14:18Z</time>
      </trkpt>
      <trkpt lat="41.721032" lon="0.893171">
        <ele>231.090</ele>
        <time>2021-08-19T14:14:20Z</time>
      </trkpt>
      <trkpt lat="41.721078" lon="0.893124">
        <ele>231.041</ele>
        <time>2021-08-19T14:14:21Z</time>
      </trkpt>
      <trkpt lat="41.721117" lon="0.893084">
        <ele>231.087</ele>
        <time>2021-08-19T14:14:22Z</time>
      </trkpt>
      <trkpt lat="41.721153" lon="0.893048">
        <ele>231.073</ele>
        <time>2021-08-19T14:14:23Z</time>
      </trkpt>
      <trkpt lat="41.721197" lon="0.893002">
        <ele>230.985</ele>
        <time>2021-08-19T14:14:25Z</time>
      </trkpt>
      <trkpt lat="41.721235" lon="0.892968">
        <ele>230.813</ele>
        <time>2021-08-19T14:14:26Z</time>
      </trkpt>
      <trkpt lat="41.721274" lon="0.892932">
        <ele>230.809</ele>
        <time>2021-08-19T14:14:27Z</time>
      </trkpt>
      <trkpt lat="41.721330" lon="0.892882">
        <ele>230.928</ele>
        <time>2021-08-19T14:14:29Z</time>
      </trkpt>
      <trkpt lat="41.721389" lon="0.892827">
        <ele>231.029</ele>
        <time>2021-08-19T14:14:30Z</time>
      </trkpt>
      <trkpt lat="41.721441" lon="0.892780">
        <ele>230.850</ele>
        <time>2021-08-19T14:14:32Z</time>
      </trkpt>
      <trkpt lat="41.721492" lon="0.892737">
        <ele>230.484</ele>
        <time>2021-08-19T14:14:34Z</time>
      </trkpt>
      <trkpt lat="41.721536" lon="0.892695">
        <ele>230.065</ele>
        <time>2021-08-19T14:14:35Z</time>
      </trkpt>
      <trkpt lat="41.721574" lon="0.892656">
        <ele>229.631</ele>
        <time>2021-08-19T14:14:36Z</time>
      </trkpt>
      <trkpt lat="41.721634" lon="0.892594">
        <ele>228.926</ele>
        <time>2021-08-19T14:14:38Z</time>
      </trkpt>
      <trkpt lat="41.721695" lon="0.892535">
        <ele>228.347</ele>
        <time>2021-08-19T14:14:40Z</time>
      </trkpt>
      <trkpt lat="41.721733" lon="0.892499">
        <ele>228.253</ele>
        <time>2021-08-19T14:14:41Z</time>
      </trkpt>
      <trkpt lat="41.721790" lon="0.892444">
        <ele>228.432</ele>
        <time>2021-08-19T14:14:43Z</time>
      </trkpt>
      <trkpt lat="41.721845" lon="0.892387">
        <ele>228.492</ele>
        <time>2021-08-19T14:14:45Z</time>
      </trkpt>
      <trkpt lat="41.721890" lon="0.892340">
        <ele>228.311</ele>
        <time>2021-08-19T14:14:46Z</time>
      </trkpt>
      <trkpt lat="41.721943" lon="0.892294">
        <ele>228.309</ele>
        <time>2021-08-19T14:14:48Z</time>
      </trkpt>
      <trkpt lat="41.721996" lon="0.892243">
        <ele>228.664</ele>
        <time>2021-08-19T14:14:49Z</time>
      </trkpt>
      <trkpt lat="41.722049" lon="0.892191">
        <ele>229.355</ele>
        <time>2021-08-19T14:14:51Z</time>
      </trkpt>
      <trkpt lat="41.722085" lon="0.892153">
        <ele>229.826</ele>
        <time>2021-08-19T14:14:52Z</time>
      </trkpt>
      <trkpt lat="41.722119" lon="0.892113">
        <ele>230.270</ele>
        <time>2021-08-19T14:14:54Z</time>
      </trkpt>
      <trkpt lat="41.722169" lon="0.892059">
        <ele>230.731</ele>
        <time>2021-08-19T14:14:56Z</time>
      </trkpt>
      <trkpt lat="41.722201" lon="0.892012">
        <ele>230.957</ele>
        <time>2021-08-19T14:14:57Z</time>
      </trkpt>
      <trkpt lat="41.722246" lon="0.891958">
        <ele>231.082</ele>
        <time>2021-08-19T14:14:59Z</time>
      </trkpt>
      <trkpt lat="41.722299" lon="0.891893">
        <ele>231.153</ele>
        <time>2021-08-19T14:15:01Z</time>
      </trkpt>
      <trkpt lat="41.722348" lon="0.891827">
        <ele>231.299</ele>
        <time>2021-08-19T14:15:03Z</time>
      </trkpt>
      <trkpt lat="41.722382" lon="0.891782">
        <ele>231.362</ele>
        <time>2021-08-19T14:15:04Z</time>
      </trkpt>
      <trkpt lat="41.722430" lon="0.891711">
        <ele>231.683</ele>
        <time>2021-08-19T14:15:06Z</time>
      </trkpt>
      <trkpt lat="41.722465" lon="0.891666">
        <ele>231.911</ele>
        <time>2021-08-19T14:15:07Z</time>
      </trkpt>
      <trkpt lat="41.722507" lon="0.891617">
        <ele>231.809</ele>
        <time>2021-08-19T14:15:09Z</time>
      </trkpt>
      <trkpt lat="41.722544" lon="0.891566">
        <ele>231.767</ele>
        <time>2021-08-19T14:15:11Z</time>
      </trkpt>
      <trkpt lat="41.722572" lon="0.891513">
        <ele>231.688</ele>
        <time>2021-08-19T14:15:13Z</time>
      </trkpt>
      <trkpt lat="41.722598" lon="0.891462">
        <ele>231.549</ele>
        <time>2021-08-19T14:15:15Z</time>
      </trkpt>
      <trkpt lat="41.722633" lon="0.891419">
        <ele>231.513</ele>
        <time>2021-08-19T14:15:16Z</time>
      </trkpt>
      <trkpt lat="41.722666" lon="0.891375">
        <ele>231.624</ele>
        <time>2021-08-19T14:15:18Z</time>
      </trkpt>
      <trkpt lat="41.722691" lon="0.891323">
        <ele>231.910</ele>
        <time>2021-08-19T14:15:20Z</time>
      </trkpt>
      <trkpt lat="41.722721" lon="0.891274">
        <ele>232.195</ele>
        <time>2021-08-19T14:15:22Z</time>
      </trkpt>
      <trkpt lat="41.722750" lon="0.891223">
        <ele>232.446</ele>
        <time>2021-08-19T14:15:23Z</time>
      </trkpt>
      <trkpt lat="41.722784" lon="0.891158">
        <ele>232.962</ele>
        <time>2021-08-19T14:15:25Z</time>
      </trkpt>
      <trkpt lat="41.722827" lon="0.891083">
        <ele>233.423</ele>
        <time>2021-08-19T14:15:28Z</time>
      </trkpt>
      <trkpt lat="41.722861" lon="0.891027">
        <ele>233.683</ele>
        <time>2021-08-19T14:15:30Z</time>
      </trkpt>
      <trkpt lat="41.722896" lon="0.890980">
        <ele>233.911</ele>
        <time>2021-08-19T14:15:32Z</time>
      </trkpt>
      <trkpt lat="41.722926" lon="0.890935">
        <ele>234.109</ele>
        <time>2021-08-19T14:15:33Z</time>
      </trkpt>
      <trkpt lat="41.722955" lon="0.890888">
        <ele>234.323</ele>
        <time>2021-08-19T14:15:34Z</time>
      </trkpt>
      <trkpt lat="41.722987" lon="0.890833">
        <ele>234.544</ele>
        <time>2021-08-19T14:15:36Z</time>
      </trkpt>
      <trkpt lat="41.723025" lon="0.890780">
        <ele>234.675</ele>
        <time>2021-08-19T14:15:38Z</time>
      </trkpt>
      <trkpt lat="41.723070" lon="0.890717">
        <ele>234.619</ele>
        <time>2021-08-19T14:15:40Z</time>
      </trkpt>
      <trkpt lat="41.723114" lon="0.890664">
        <ele>234.480</ele>
        <time>2021-08-19T14:15:42Z</time>
      </trkpt>
      <trkpt lat="41.723156" lon="0.890611">
        <ele>234.246</ele>
        <time>2021-08-19T14:15:44Z</time>
      </trkpt>
      <trkpt lat="41.723202" lon="0.890550">
        <ele>234.071</ele>
        <time>2021-08-19T14:15:46Z</time>
      </trkpt>
      <trkpt lat="41.723238" lon="0.890509">
        <ele>233.892</ele>
        <time>2021-08-19T14:15:47Z</time>
      </trkpt>
      <trkpt lat="41.723280" lon="0.890455">
        <ele>233.648</ele>
        <time>2021-08-19T14:15:49Z</time>
      </trkpt>
      <trkpt lat="41.723329" lon="0.890395">
        <ele>233.457</ele>
        <time>2021-08-19T14:15:51Z</time>
      </trkpt>
      <trkpt lat="41.723364" lon="0.890355">
        <ele>233.400</ele>
        <time>2021-08-19T14:15:52Z</time>
      </trkpt>
      <trkpt lat="41.723412" lon="0.890308">
        <ele>233.420</ele>
        <time>2021-08-19T14:15:54Z</time>
      </trkpt>
      <trkpt lat="41.723453" lon="0.890266">
        <ele>233.409</ele>
        <time>2021-08-19T14:15:56Z</time>
      </trkpt>
      <trkpt lat="41.723496" lon="0.890220">
        <ele>233.696</ele>
        <time>2021-08-19T14:15:57Z</time>
      </trkpt>
      <trkpt lat="41.723554" lon="0.890167">
        <ele>233.847</ele>
        <time>2021-08-19T14:16:00Z</time>
      </trkpt>
      <trkpt lat="41.723594" lon="0.890117">
        <ele>233.998</ele>
        <time>2021-08-19T14:16:02Z</time>
      </trkpt>
      <trkpt lat="41.723640" lon="0.890072">
        <ele>234.232</ele>
        <time>2021-08-19T14:16:03Z</time>
      </trkpt>
      <trkpt lat="41.723681" lon="0.890031">
        <ele>234.553</ele>
        <time>2021-08-19T14:16:05Z</time>
      </trkpt>
      <trkpt lat="41.723720" lon="0.889991">
        <ele>234.859</ele>
        <time>2021-08-19T14:16:07Z</time>
      </trkpt>
      <trkpt lat="41.723759" lon="0.889957">
        <ele>235.174</ele>
        <time>2021-08-19T14:16:08Z</time>
      </trkpt>
      <trkpt lat="41.723812" lon="0.889908">
        <ele>235.395</ele>
        <time>2021-08-19T14:16:10Z</time>
      </trkpt>
      <trkpt lat="41.723851" lon="0.889858">
        <ele>235.411</ele>
        <time>2021-08-19T14:16:12Z</time>
      </trkpt>
      <trkpt lat="41.723898" lon="0.889801">
        <ele>235.326</ele>
        <time>2021-08-19T14:16:14Z</time>
      </trkpt>
      <trkpt lat="41.723946" lon="0.889751">
        <ele>234.947</ele>
        <time>2021-08-19T14:16:15Z</time>
      </trkpt>
      <trkpt lat="41.723987" lon="0.889703">
        <ele>234.611</ele>
        <time>2021-08-19T14:16:17Z</time>
      </trkpt>
      <trkpt lat="41.724017" lon="0.889655">
        <ele>234.409</ele>
        <time>2021-08-19T14:16:18Z</time>
      </trkpt>
      <trkpt lat="41.724044" lon="0.889606">
        <ele>234.273</ele>
        <time>2021-08-19T14:16:20Z</time>
      </trkpt>
      <trkpt lat="41.724081" lon="0.889528">
        <ele>233.854</ele>
        <time>2021-08-19T14:16:22Z</time>
      </trkpt>
      <trkpt lat="41.724123" lon="0.889453">
        <ele>233.365</ele>
        <time>2021-08-19T14:16:24Z</time>
      </trkpt>
      <trkpt lat="41.724158" lon="0.889381">
        <ele>233.029</ele>
        <time>2021-08-19T14:16:25Z</time>
      </trkpt>
      <trkpt lat="41.724195" lon="0.889316">
        <ele>233.060</ele>
        <time>2021-08-19T14:16:27Z</time>
      </trkpt>
      <trkpt lat="41.724236" lon="0.889238">
        <ele>233.016</ele>
        <time>2021-08-19T14:16:29Z</time>
      </trkpt>
      <trkpt lat="41.724262" lon="0.889181">
        <ele>233.061</ele>
        <time>2021-08-19T14:16:30Z</time>
      </trkpt>
      <trkpt lat="41.724309" lon="0.889095">
        <ele>233.042</ele>
        <time>2021-08-19T14:16:32Z</time>
      </trkpt>
      <trkpt lat="41.724348" lon="0.889024">
        <ele>233.068</ele>
        <time>2021-08-19T14:16:33Z</time>
      </trkpt>
      <trkpt lat="41.724405" lon="0.888917">
        <ele>233.085</ele>
        <time>2021-08-19T14:16:35Z</time>
      </trkpt>
      <trkpt lat="41.724457" lon="0.888823">
        <ele>232.789</ele>
        <time>2021-08-19T14:16:37Z</time>
      </trkpt>
      <trkpt lat="41.724512" lon="0.888720">
        <ele>232.117</ele>
        <time>2021-08-19T14:16:39Z</time>
      </trkpt>
      <trkpt lat="41.724563" lon="0.888623">
        <ele>231.609</ele>
        <time>2021-08-19T14:16:41Z</time>
      </trkpt>
      <trkpt lat="41.724611" lon="0.888526">
        <ele>231.499</ele>
        <time>2021-08-19T14:16:43Z</time>
      </trkpt>
      <trkpt lat="41.724660" lon="0.888425">
        <ele>231.290</ele>
        <time>2021-08-19T14:16:45Z</time>
      </trkpt>
      <trkpt lat="41.724714" lon="0.888323">
        <ele>231.141</ele>
        <time>2021-08-19T14:16:47Z</time>
      </trkpt>
      <trkpt lat="41.724741" lon="0.888272">
        <ele>231.245</ele>
        <time>2021-08-19T14:16:48Z</time>
      </trkpt>
      <trkpt lat="41.724768" lon="0.888221">
        <ele>231.376</ele>
        <time>2021-08-19T14:16:49Z</time>
      </trkpt>
      <trkpt lat="41.724820" lon="0.888115">
        <ele>231.582</ele>
        <time>2021-08-19T14:16:51Z</time>
      </trkpt>
      <trkpt lat="41.724861" lon="0.888026">
        <ele>231.597</ele>
        <time>2021-08-19T14:16:53Z</time>
      </trkpt>
      <trkpt lat="41.724888" lon="0.887969">
        <ele>231.528</ele>
        <time>2021-08-19T14:16:54Z</time>
      </trkpt>
      <trkpt lat="41.724920" lon="0.887915">
        <ele>231.514</ele>
        <time>2021-08-19T14:16:55Z</time>
      </trkpt>
      <trkpt lat="41.724965" lon="0.887850">
        <ele>231.731</ele>
        <time>2021-08-19T14:16:57Z</time>
      </trkpt>
      <trkpt lat="41.725000" lon="0.887785">
        <ele>232.061</ele>
        <time>2021-08-19T14:16:58Z</time>
      </trkpt>
      <trkpt lat="41.725032" lon="0.887731">
        <ele>232.107</ele>
        <time>2021-08-19T14:16:59Z</time>
      </trkpt>
      <trkpt lat="41.725085" lon="0.887642">
        <ele>232.309</ele>
        <time>2021-08-19T14:17:01Z</time>
      </trkpt>
      <trkpt lat="41.725130" lon="0.887570">
        <ele>232.484</ele>
        <time>2021-08-19T14:17:03Z</time>
      </trkpt>
      <trkpt lat="41.725159" lon="0.887520">
        <ele>232.455</ele>
        <time>2021-08-19T14:17:04Z</time>
      </trkpt>
      <trkpt lat="41.725212" lon="0.887423">
        <ele>232.466</ele>
        <time>2021-08-19T14:17:06Z</time>
      </trkpt>
      <trkpt lat="41.725267" lon="0.887327">
        <ele>232.610</ele>
        <time>2021-08-19T14:17:08Z</time>
      </trkpt>
      <trkpt lat="41.725295" lon="0.887279">
        <ele>232.711</ele>
        <time>2021-08-19T14:17:09Z</time>
      </trkpt>
      <trkpt lat="41.725350" lon="0.887185">
        <ele>232.447</ele>
        <time>2021-08-19T14:17:11Z</time>
      </trkpt>
      <trkpt lat="41.725382" lon="0.887132">
        <ele>232.042</ele>
        <time>2021-08-19T14:17:12Z</time>
      </trkpt>
      <trkpt lat="41.725414" lon="0.887087">
        <ele>231.853</ele>
        <time>2021-08-19T14:17:13Z</time>
      </trkpt>
      <trkpt lat="41.725448" lon="0.887043">
        <ele>231.549</ele>
        <time>2021-08-19T14:17:14Z</time>
      </trkpt>
      <trkpt lat="41.725515" lon="0.886955">
        <ele>231.286</ele>
        <time>2021-08-19T14:17:16Z</time>
      </trkpt>
      <trkpt lat="41.725589" lon="0.886874">
        <ele>230.960</ele>
        <time>2021-08-19T14:17:18Z</time>
      </trkpt>
      <trkpt lat="41.725628" lon="0.886838">
        <ele>230.726</ele>
        <time>2021-08-19T14:17:19Z</time>
      </trkpt>
      <trkpt lat="41.725704" lon="0.886768">
        <ele>230.509</ele>
        <time>2021-08-19T14:17:21Z</time>
      </trkpt>
      <trkpt lat="41.725763" lon="0.886711">
        <ele>230.389</ele>
        <time>2021-08-19T14:17:23Z</time>
      </trkpt>
      <trkpt lat="41.725805" lon="0.886673">
        <ele>230.150</ele>
        <time>2021-08-19T14:17:24Z</time>
      </trkpt>
      <trkpt lat="41.725847" lon="0.886638">
        <ele>229.831</ele>
        <time>2021-08-19T14:17:25Z</time>
      </trkpt>
      <trkpt lat="41.725916" lon="0.886573">
        <ele>229.235</ele>
        <time>2021-08-19T14:17:27Z</time>
      </trkpt>
      <trkpt lat="41.725998" lon="0.886498">
        <ele>228.926</ele>
        <time>2021-08-19T14:17:29Z</time>
      </trkpt>
      <trkpt lat="41.726072" lon="0.886430">
        <ele>228.982</ele>
        <time>2021-08-19T14:17:32Z</time>
      </trkpt>
      <trkpt lat="41.726160" lon="0.886346">
        <ele>229.157</ele>
        <time>2021-08-19T14:17:34Z</time>
      </trkpt>
      <trkpt lat="41.726239" lon="0.886274">
        <ele>229.468</ele>
        <time>2021-08-19T14:17:36Z</time>
      </trkpt>
      <trkpt lat="41.726312" lon="0.886206">
        <ele>230.064</ele>
        <time>2021-08-19T14:17:38Z</time>
      </trkpt>
      <trkpt lat="41.726370" lon="0.886150">
        <ele>230.768</ele>
        <time>2021-08-19T14:17:40Z</time>
      </trkpt>
      <trkpt lat="41.726405" lon="0.886112">
        <ele>231.042</ele>
        <time>2021-08-19T14:17:41Z</time>
      </trkpt>
      <trkpt lat="41.726469" lon="0.886055">
        <ele>230.826</ele>
        <time>2021-08-19T14:17:43Z</time>
      </trkpt>
      <trkpt lat="41.726527" lon="0.885990">
        <ele>230.609</ele>
        <time>2021-08-19T14:17:45Z</time>
      </trkpt>
      <trkpt lat="41.726590" lon="0.885930">
        <ele>230.317</ele>
        <time>2021-08-19T14:17:47Z</time>
      </trkpt>
      <trkpt lat="41.726658" lon="0.885872">
        <ele>230.198</ele>
        <time>2021-08-19T14:17:49Z</time>
      </trkpt>
      <trkpt lat="41.726726" lon="0.885812">
        <ele>229.899</ele>
        <time>2021-08-19T14:17:51Z</time>
      </trkpt>
      <trkpt lat="41.726794" lon="0.885754">
        <ele>229.583</ele>
        <time>2021-08-19T14:17:53Z</time>
      </trkpt>
      <trkpt lat="41.726862" lon="0.885698">
        <ele>229.394</ele>
        <time>2021-08-19T14:17:55Z</time>
      </trkpt>
      <trkpt lat="41.726930" lon="0.885644">
        <ele>229.190</ele>
        <time>2021-08-19T14:17:57Z</time>
      </trkpt>
      <trkpt lat="41.726994" lon="0.885582">
        <ele>228.865</ele>
        <time>2021-08-19T14:17:59Z</time>
      </trkpt>
      <trkpt lat="41.727057" lon="0.885518">
        <ele>228.586</ele>
        <time>2021-08-19T14:18:01Z</time>
      </trkpt>
      <trkpt lat="41.727120" lon="0.885455">
        <ele>228.242</ele>
        <time>2021-08-19T14:18:03Z</time>
      </trkpt>
      <trkpt lat="41.727183" lon="0.885389">
        <ele>228.176</ele>
        <time>2021-08-19T14:18:05Z</time>
      </trkpt>
      <trkpt lat="41.727241" lon="0.885317">
        <ele>228.090</ele>
        <time>2021-08-19T14:18:07Z</time>
      </trkpt>
      <trkpt lat="41.727300" lon="0.885249">
        <ele>227.919</ele>
        <time>2021-08-19T14:18:09Z</time>
      </trkpt>
      <trkpt lat="41.727358" lon="0.885183">
        <ele>227.809</ele>
        <time>2021-08-19T14:18:11Z</time>
      </trkpt>
      <trkpt lat="41.727418" lon="0.885117">
        <ele>227.888</ele>
        <time>2021-08-19T14:18:13Z</time>
      </trkpt>
      <trkpt lat="41.727469" lon="0.885057">
        <ele>227.979</ele>
        <time>2021-08-19T14:18:15Z</time>
      </trkpt>
      <trkpt lat="41.727523" lon="0.884998">
        <ele>227.960</ele>
        <time>2021-08-19T14:18:17Z</time>
      </trkpt>
      <trkpt lat="41.727578" lon="0.884937">
        <ele>227.854</ele>
        <time>2021-08-19T14:18:19Z</time>
      </trkpt>
      <trkpt lat="41.727634" lon="0.884874">
        <ele>227.725</ele>
        <time>2021-08-19T14:18:21Z</time>
      </trkpt>
      <trkpt lat="41.727690" lon="0.884813">
        <ele>227.821</ele>
        <time>2021-08-19T14:18:23Z</time>
      </trkpt>
      <trkpt lat="41.727744" lon="0.884749">
        <ele>227.936</ele>
        <time>2021-08-19T14:18:25Z</time>
      </trkpt>
      <trkpt lat="41.727798" lon="0.884684">
        <ele>227.897</ele>
        <time>2021-08-19T14:18:27Z</time>
      </trkpt>
      <trkpt lat="41.727854" lon="0.884623">
        <ele>227.783</ele>
        <time>2021-08-19T14:18:29Z</time>
      </trkpt>
      <trkpt lat="41.727911" lon="0.884562">
        <ele>227.884</ele>
        <time>2021-08-19T14:18:31Z</time>
      </trkpt>
      <trkpt lat="41.727969" lon="0.884500">
        <ele>228.207</ele>
        <time>2021-08-19T14:18:33Z</time>
      </trkpt>
      <trkpt lat="41.728023" lon="0.884438">
        <ele>228.817</ele>
        <time>2021-08-19T14:18:35Z</time>
      </trkpt>
      <trkpt lat="41.728078" lon="0.884376">
        <ele>229.309</ele>
        <time>2021-08-19T14:18:37Z</time>
      </trkpt>
      <trkpt lat="41.728131" lon="0.884310">
        <ele>229.819</ele>
        <time>2021-08-19T14:18:39Z</time>
      </trkpt>
      <trkpt lat="41.728188" lon="0.884246">
        <ele>230.270</ele>
        <time>2021-08-19T14:18:41Z</time>
      </trkpt>
      <trkpt lat="41.728245" lon="0.884183">
        <ele>230.631</ele>
        <time>2021-08-19T14:18:43Z</time>
      </trkpt>
      <trkpt lat="41.728299" lon="0.884124">
        <ele>230.995</ele>
        <time>2021-08-19T14:18:45Z</time>
      </trkpt>
      <trkpt lat="41.728351" lon="0.884063">
        <ele>230.966</ele>
        <time>2021-08-19T14:18:47Z</time>
      </trkpt>
      <trkpt lat="41.728406" lon="0.884003">
        <ele>230.732</ele>
        <time>2021-08-19T14:18:49Z</time>
      </trkpt>
      <trkpt lat="41.728462" lon="0.883944">
        <ele>230.577</ele>
        <time>2021-08-19T14:18:51Z</time>
      </trkpt>
      <trkpt lat="41.728518" lon="0.883885">
        <ele>230.358</ele>
        <time>2021-08-19T14:18:53Z</time>
      </trkpt>
      <trkpt lat="41.728572" lon="0.883824">
        <ele>229.954</ele>
        <time>2021-08-19T14:18:55Z</time>
      </trkpt>
      <trkpt lat="41.728628" lon="0.883765">
        <ele>229.599</ele>
        <time>2021-08-19T14:18:57Z</time>
      </trkpt>
      <trkpt lat="41.728682" lon="0.883703">
        <ele>229.107</ele>
        <time>2021-08-19T14:18:59Z</time>
      </trkpt>
      <trkpt lat="41.728734" lon="0.883635">
        <ele>228.627</ele>
        <time>2021-08-19T14:19:01Z</time>
      </trkpt>
      <trkpt lat="41.728783" lon="0.883561">
        <ele>228.409</ele>
        <time>2021-08-19T14:19:03Z</time>
      </trkpt>
      <trkpt lat="41.728825" lon="0.883485">
        <ele>228.460</ele>
        <time>2021-08-19T14:19:05Z</time>
      </trkpt>
      <trkpt lat="41.728862" lon="0.883401">
        <ele>228.611</ele>
        <time>2021-08-19T14:19:07Z</time>
      </trkpt>
      <trkpt lat="41.728896" lon="0.883317">
        <ele>228.942</ele>
        <time>2021-08-19T14:19:09Z</time>
      </trkpt>
      <trkpt lat="41.728930" lon="0.883226">
        <ele>228.716</ele>
        <time>2021-08-19T14:19:11Z</time>
      </trkpt>
      <trkpt lat="41.728961" lon="0.883135">
        <ele>228.717</ele>
        <time>2021-08-19T14:19:13Z</time>
      </trkpt>
      <trkpt lat="41.728994" lon="0.883052">
        <ele>228.883</ele>
        <time>2021-08-19T14:19:15Z</time>
      </trkpt>
      <trkpt lat="41.729026" lon="0.882963">
        <ele>229.248</ele>
        <time>2021-08-19T14:19:17Z</time>
      </trkpt>
      <trkpt lat="41.729058" lon="0.882875">
        <ele>229.589</ele>
        <time>2021-08-19T14:19:19Z</time>
      </trkpt>
      <trkpt lat="41.729090" lon="0.882787">
        <ele>229.785</ele>
        <time>2021-08-19T14:19:21Z</time>
      </trkpt>
      <trkpt lat="41.729121" lon="0.882699">
        <ele>230.476</ele>
        <time>2021-08-19T14:19:23Z</time>
      </trkpt>
      <trkpt lat="41.729151" lon="0.882607">
        <ele>231.190</ele>
        <time>2021-08-19T14:19:25Z</time>
      </trkpt>
      <trkpt lat="41.729183" lon="0.882517">
        <ele>231.919</ele>
        <time>2021-08-19T14:19:27Z</time>
      </trkpt>
      <trkpt lat="41.729214" lon="0.882425">
        <ele>231.809</ele>
        <time>2021-08-19T14:19:29Z</time>
      </trkpt>
      <trkpt lat="41.729244" lon="0.882332">
        <ele>231.618</ele>
        <time>2021-08-19T14:19:31Z</time>
      </trkpt>
      <trkpt lat="41.729278" lon="0.882242">
        <ele>231.489</ele>
        <time>2021-08-19T14:19:33Z</time>
      </trkpt>
      <trkpt lat="41.729313" lon="0.882149">
        <ele>231.140</ele>
        <time>2021-08-19T14:19:35Z</time>
      </trkpt>
      <trkpt lat="41.729351" lon="0.882057">
        <ele>230.734</ele>
        <time>2021-08-19T14:19:37Z</time>
      </trkpt>
      <trkpt lat="41.729393" lon="0.881970">
        <ele>230.285</ele>
        <time>2021-08-19T14:19:39Z</time>
      </trkpt>
      <trkpt lat="41.729437" lon="0.881879">
        <ele>229.841</ele>
        <time>2021-08-19T14:19:41Z</time>
      </trkpt>
      <trkpt lat="41.729481" lon="0.881782">
        <ele>229.446</ele>
        <time>2021-08-19T14:19:43Z</time>
      </trkpt>
      <trkpt lat="41.729529" lon="0.881705">
        <ele>229.157</ele>
        <time>2021-08-19T14:19:45Z</time>
      </trkpt>
      <trkpt lat="41.729566" lon="0.881626">
        <ele>228.843</ele>
        <time>2021-08-19T14:19:47Z</time>
      </trkpt>
      <trkpt lat="41.729608" lon="0.881556">
        <ele>228.787</ele>
        <time>2021-08-19T14:19:49Z</time>
      </trkpt>
      <trkpt lat="41.729654" lon="0.881482">
        <ele>228.742</ele>
        <time>2021-08-19T14:19:51Z</time>
      </trkpt>
      <trkpt lat="41.729708" lon="0.881416">
        <ele>228.926</ele>
        <time>2021-08-19T14:19:53Z</time>
      </trkpt>
      <trkpt lat="41.729759" lon="0.881337">
        <ele>228.709</ele>
        <time>2021-08-19T14:19:55Z</time>
      </trkpt>
      <trkpt lat="41.729811" lon="0.881261">
        <ele>228.429</ele>
        <time>2021-08-19T14:19:57Z</time>
      </trkpt>
      <trkpt lat="41.729864" lon="0.881185">
        <ele>228.130</ele>
        <time>2021-08-19T14:19:59Z</time>
      </trkpt>
      <trkpt lat="41.729915" lon="0.881116">
        <ele>228.051</ele>
        <time>2021-08-19T14:20:01Z</time>
      </trkpt>
      <trkpt lat="41.729968" lon="0.881039">
        <ele>228.555</ele>
        <time>2021-08-19T14:20:03Z</time>
      </trkpt>
      <trkpt lat="41.730021" lon="0.880968">
        <ele>229.176</ele>
        <time>2021-08-19T14:20:05Z</time>
      </trkpt>
      <trkpt lat="41.730070" lon="0.880894">
        <ele>229.862</ele>
        <time>2021-08-19T14:20:07Z</time>
      </trkpt>
      <trkpt lat="41.730117" lon="0.880816">
        <ele>230.587</ele>
        <time>2021-08-19T14:20:09Z</time>
      </trkpt>
      <trkpt lat="41.730165" lon="0.880755">
        <ele>230.918</ele>
        <time>2021-08-19T14:20:11Z</time>
      </trkpt>
      <trkpt lat="41.730221" lon="0.880673">
        <ele>231.464</ele>
        <time>2021-08-19T14:20:13Z</time>
      </trkpt>
      <trkpt lat="41.730268" lon="0.880594">
        <ele>231.881</ele>
        <time>2021-08-19T14:20:15Z</time>
      </trkpt>
      <trkpt lat="41.730318" lon="0.880526">
        <ele>231.961</ele>
        <time>2021-08-19T14:20:17Z</time>
      </trkpt>
      <trkpt lat="41.730367" lon="0.880454">
        <ele>231.717</ele>
        <time>2021-08-19T14:20:19Z</time>
      </trkpt>
      <trkpt lat="41.730419" lon="0.880383">
        <ele>231.509</ele>
        <time>2021-08-19T14:20:21Z</time>
      </trkpt>
      <trkpt lat="41.730467" lon="0.880310">
        <ele>231.339</ele>
        <time>2021-08-19T14:20:23Z</time>
      </trkpt>
      <trkpt lat="41.730512" lon="0.880235">
        <ele>231.070</ele>
        <time>2021-08-19T14:20:25Z</time>
      </trkpt>
      <trkpt lat="41.730559" lon="0.880170">
        <ele>230.631</ele>
        <time>2021-08-19T14:20:27Z</time>
      </trkpt>
      <trkpt lat="41.730606" lon="0.880105">
        <ele>229.845</ele>
        <time>2021-08-19T14:20:29Z</time>
      </trkpt>
      <trkpt lat="41.730657" lon="0.880038">
        <ele>229.016</ele>
        <time>2021-08-19T14:20:31Z</time>
      </trkpt>
      <trkpt lat="41.730709" lon="0.879962">
        <ele>228.372</ele>
        <time>2021-08-19T14:20:33Z</time>
      </trkpt>
      <trkpt lat="41.730763" lon="0.879896">
        <ele>227.897</ele>
        <time>2021-08-19T14:20:35Z</time>
      </trkpt>
      <trkpt lat="41.730815" lon="0.879828">
        <ele>227.228</ele>
        <time>2021-08-19T14:20:37Z</time>
      </trkpt>
      <trkpt lat="41.730862" lon="0.879760">
        <ele>226.854</ele>
        <time>2021-08-19T14:20:39Z</time>
      </trkpt>
      <trkpt lat="41.730910" lon="0.879692">
        <ele>226.659</ele>
        <time>2021-08-19T14:20:41Z</time>
      </trkpt>
      <trkpt lat="41.730943" lon="0.879640">
        <ele>226.603</ele>
        <time>2021-08-19T14:20:43Z</time>
      </trkpt>
      <trkpt lat="41.730977" lon="0.879588">
        <ele>226.723</ele>
        <time>2021-08-19T14:20:44Z</time>
      </trkpt>
      <trkpt lat="41.731029" lon="0.879518">
        <ele>226.809</ele>
        <time>2021-08-19T14:20:46Z</time>
      </trkpt>
      <trkpt lat="41.731075" lon="0.879451">
        <ele>227.176</ele>
        <time>2021-08-19T14:20:48Z</time>
      </trkpt>
      <trkpt lat="41.731118" lon="0.879378">
        <ele>227.587</ele>
        <time>2021-08-19T14:20:50Z</time>
      </trkpt>
      <trkpt lat="41.731168" lon="0.879305">
        <ele>228.188</ele>
        <time>2021-08-19T14:20:52Z</time>
      </trkpt>
      <trkpt lat="41.731218" lon="0.879240">
        <ele>228.652</ele>
        <time>2021-08-19T14:20:54Z</time>
      </trkpt>
      <trkpt lat="41.731264" lon="0.879166">
        <ele>229.053</ele>
        <time>2021-08-19T14:20:56Z</time>
      </trkpt>
      <trkpt lat="41.731315" lon="0.879096">
        <ele>229.059</ele>
        <time>2021-08-19T14:20:58Z</time>
      </trkpt>
      <trkpt lat="41.731366" lon="0.879024">
        <ele>229.044</ele>
        <time>2021-08-19T14:21:00Z</time>
      </trkpt>
      <trkpt lat="41.731416" lon="0.878955">
        <ele>229.165</ele>
        <time>2021-08-19T14:21:02Z</time>
      </trkpt>
      <trkpt lat="41.731464" lon="0.878886">
        <ele>229.281</ele>
        <time>2021-08-19T14:21:04Z</time>
      </trkpt>
      <trkpt lat="41.731513" lon="0.878819">
        <ele>228.871</ele>
        <time>2021-08-19T14:21:06Z</time>
      </trkpt>
      <trkpt lat="41.731558" lon="0.878749">
        <ele>228.441</ele>
        <time>2021-08-19T14:21:08Z</time>
      </trkpt>
      <trkpt lat="41.731597" lon="0.878667">
        <ele>228.015</ele>
        <time>2021-08-19T14:21:10Z</time>
      </trkpt>
      <trkpt lat="41.731627" lon="0.878615">
        <ele>227.709</ele>
        <time>2021-08-19T14:21:12Z</time>
      </trkpt>
      <trkpt lat="41.731650" lon="0.878534">
        <ele>227.188</ele>
        <time>2021-08-19T14:21:14Z</time>
      </trkpt>
      <trkpt lat="41.731672" lon="0.878462">
        <ele>226.449</ele>
        <time>2021-08-19T14:21:16Z</time>
      </trkpt>
      <trkpt lat="41.731694" lon="0.878392">
        <ele>225.970</ele>
        <time>2021-08-19T14:21:18Z</time>
      </trkpt>
      <trkpt lat="41.731709" lon="0.878309">
        <ele>225.554</ele>
        <time>2021-08-19T14:21:20Z</time>
      </trkpt>
      <trkpt lat="41.731735" lon="0.878220">
        <ele>226.095</ele>
        <time>2021-08-19T14:21:22Z</time>
      </trkpt>
      <trkpt lat="41.731769" lon="0.878139">
        <ele>226.541</ele>
        <time>2021-08-19T14:21:24Z</time>
      </trkpt>
      <trkpt lat="41.731802" lon="0.878054">
        <ele>227.096</ele>
        <time>2021-08-19T14:21:26Z</time>
      </trkpt>
      <trkpt lat="41.731836" lon="0.877967">
        <ele>227.537</ele>
        <time>2021-08-19T14:21:28Z</time>
      </trkpt>
      <trkpt lat="41.731866" lon="0.877883">
        <ele>228.173</ele>
        <time>2021-08-19T14:21:30Z</time>
      </trkpt>
      <trkpt lat="41.731899" lon="0.877801">
        <ele>228.619</ele>
        <time>2021-08-19T14:21:32Z</time>
      </trkpt>
      <trkpt lat="41.731933" lon="0.877721">
        <ele>229.309</ele>
        <time>2021-08-19T14:21:34Z</time>
      </trkpt>
      <trkpt lat="41.731966" lon="0.877649">
        <ele>230.019</ele>
        <time>2021-08-19T14:21:36Z</time>
      </trkpt>
      <trkpt lat="41.731994" lon="0.877575">
        <ele>230.509</ele>
        <time>2021-08-19T14:21:38Z</time>
      </trkpt>
      <trkpt lat="41.732026" lon="0.877513">
        <ele>230.982</ele>
        <time>2021-08-19T14:21:40Z</time>
      </trkpt>
      <trkpt lat="41.732056" lon="0.877463">
        <ele>231.173</ele>
        <time>2021-08-19T14:21:42Z</time>
      </trkpt>
      <trkpt lat="41.732090" lon="0.877388">
        <ele>231.494</ele>
        <time>2021-08-19T14:21:44Z</time>
      </trkpt>
      <trkpt lat="41.732120" lon="0.877320">
        <ele>231.648</ele>
        <time>2021-08-19T14:21:46Z</time>
      </trkpt>
      <trkpt lat="41.732159" lon="0.877259">
        <ele>231.959</ele>
        <time>2021-08-19T14:21:48Z</time>
      </trkpt>
      <trkpt lat="41.732201" lon="0.877176">
        <ele>231.835</ele>
        <time>2021-08-19T14:21:50Z</time>
      </trkpt>
      <trkpt lat="41.732245" lon="0.877099">
        <ele>231.330</ele>
        <time>2021-08-19T14:21:52Z</time>
      </trkpt>
      <trkpt lat="41.732289" lon="0.877018">
        <ele>230.751</ele>
        <time>2021-08-19T14:21:54Z</time>
      </trkpt>
      <trkpt lat="41.732334" lon="0.876943">
        <ele>230.297</ele>
        <time>2021-08-19T14:21:56Z</time>
      </trkpt>
      <trkpt lat="41.732374" lon="0.876871">
        <ele>229.691</ele>
        <time>2021-08-19T14:21:58Z</time>
      </trkpt>
      <trkpt lat="41.732424" lon="0.876797">
        <ele>229.081</ele>
        <time>2021-08-19T14:22:00Z</time>
      </trkpt>
      <trkpt lat="41.732469" lon="0.876720">
        <ele>228.419</ele>
        <time>2021-08-19T14:22:02Z</time>
      </trkpt>
      <trkpt lat="41.732514" lon="0.876651">
        <ele>227.909</ele>
        <time>2021-08-19T14:22:04Z</time>
      </trkpt>
      <trkpt lat="41.732565" lon="0.876586">
        <ele>227.860</ele>
        <time>2021-08-19T14:22:06Z</time>
      </trkpt>
      <trkpt lat="41.732618" lon="0.876526">
        <ele>227.681</ele>
        <time>2021-08-19T14:22:08Z</time>
      </trkpt>
      <trkpt lat="41.732685" lon="0.876494">
        <ele>227.342</ele>
        <time>2021-08-19T14:22:10Z</time>
      </trkpt>
      <trkpt lat="41.732741" lon="0.876467">
        <ele>227.126</ele>
        <time>2021-08-19T14:22:12Z</time>
      </trkpt>
      <trkpt lat="41.732821" lon="0.876445">
        <ele>227.047</ele>
        <time>2021-08-19T14:22:14Z</time>
      </trkpt>
      <trkpt lat="41.732894" lon="0.876420">
        <ele>227.033</ele>
        <time>2021-08-19T14:22:16Z</time>
      </trkpt>
      <trkpt lat="41.732964" lon="0.876390">
        <ele>227.078</ele>
        <time>2021-08-19T14:22:18Z</time>
      </trkpt>
      <trkpt lat="41.733027" lon="0.876361">
        <ele>227.159</ele>
        <time>2021-08-19T14:22:20Z</time>
      </trkpt>
      <trkpt lat="41.733090" lon="0.876337">
        <ele>227.335</ele>
        <time>2021-08-19T14:22:22Z</time>
      </trkpt>
      <trkpt lat="41.733155" lon="0.876312">
        <ele>227.795</ele>
        <time>2021-08-19T14:22:24Z</time>
      </trkpt>
      <trkpt lat="41.733217" lon="0.876276">
        <ele>228.249</ele>
        <time>2021-08-19T14:22:26Z</time>
      </trkpt>
      <trkpt lat="41.733279" lon="0.876241">
        <ele>228.823</ele>
        <time>2021-08-19T14:22:28Z</time>
      </trkpt>
      <trkpt lat="41.733338" lon="0.876206">
        <ele>229.309</ele>
        <time>2021-08-19T14:22:30Z</time>
      </trkpt>
      <trkpt lat="41.733399" lon="0.876174">
        <ele>229.190</ele>
        <time>2021-08-19T14:22:32Z</time>
      </trkpt>
      <trkpt lat="41.733453" lon="0.876131">
        <ele>229.031</ele>
        <time>2021-08-19T14:22:34Z</time>
      </trkpt>
      <trkpt lat="41.733504" lon="0.876088">
        <ele>228.832</ele>
        <time>2021-08-19T14:22:36Z</time>
      </trkpt>
      <trkpt lat="41.733552" lon="0.876033">
        <ele>228.616</ele>
        <time>2021-08-19T14:22:38Z</time>
      </trkpt>
      <trkpt lat="41.733602" lon="0.875979">
        <ele>228.537</ele>
        <time>2021-08-19T14:22:40Z</time>
      </trkpt>
      <trkpt lat="41.733647" lon="0.875939">
        <ele>228.353</ele>
        <time>2021-08-19T14:22:42Z</time>
      </trkpt>
      <trkpt lat="41.733701" lon="0.875878">
        <ele>228.158</ele>
        <time>2021-08-19T14:22:44Z</time>
      </trkpt>
      <trkpt lat="41.733755" lon="0.875824">
        <ele>228.079</ele>
        <time>2021-08-19T14:22:46Z</time>
      </trkpt>
      <trkpt lat="41.733804" lon="0.875766">
        <ele>227.865</ele>
        <time>2021-08-19T14:22:48Z</time>
      </trkpt>
      <trkpt lat="41.733856" lon="0.875723">
        <ele>227.674</ele>
        <time>2021-08-19T14:22:50Z</time>
      </trkpt>
      <trkpt lat="41.733915" lon="0.875667">
        <ele>227.456</ele>
        <time>2021-08-19T14:22:52Z</time>
      </trkpt>
      <trkpt lat="41.733963" lon="0.875607">
        <ele>227.321</ele>
        <time>2021-08-19T14:22:54Z</time>
      </trkpt>
      <trkpt lat="41.734020" lon="0.875558">
        <ele>227.109</ele>
        <time>2021-08-19T14:22:56Z</time>
      </trkpt>
      <trkpt lat="41.734067" lon="0.875507">
        <ele>226.738</ele>
        <time>2021-08-19T14:22:58Z</time>
      </trkpt>
      <trkpt lat="41.734109" lon="0.875455">
        <ele>226.359</ele>
        <time>2021-08-19T14:23:00Z</time>
      </trkpt>
      <trkpt lat="41.734161" lon="0.875399">
        <ele>226.070</ele>
        <time>2021-08-19T14:23:02Z</time>
      </trkpt>
      <trkpt lat="41.734210" lon="0.875348">
        <ele>226.184</ele>
        <time>2021-08-19T14:23:04Z</time>
      </trkpt>
      <trkpt lat="41.734264" lon="0.875300">
        <ele>226.375</ele>
        <time>2021-08-19T14:23:06Z</time>
      </trkpt>
      <trkpt lat="41.734311" lon="0.875243">
        <ele>226.591</ele>
        <time>2021-08-19T14:23:08Z</time>
      </trkpt>
      <trkpt lat="41.734360" lon="0.875185">
        <ele>226.886</ele>
        <time>2021-08-19T14:23:10Z</time>
      </trkpt>
      <trkpt lat="41.734408" lon="0.875138">
        <ele>227.297</ele>
        <time>2021-08-19T14:23:13Z</time>
      </trkpt>
      <trkpt lat="41.734458" lon="0.875088">
        <ele>227.753</ele>
        <time>2021-08-19T14:23:15Z</time>
      </trkpt>
      <trkpt lat="41.734493" lon="0.875050">
        <ele>228.011</ele>
        <time>2021-08-19T14:23:17Z</time>
      </trkpt>
      <trkpt lat="41.734539" lon="0.874997">
        <ele>228.421</ele>
        <time>2021-08-19T14:23:20Z</time>
      </trkpt>
      <trkpt lat="41.734597" lon="0.874980">
        <ele>228.603</ele>
        <time>2021-08-19T14:23:23Z</time>
      </trkpt>
      <trkpt lat="41.734650" lon="0.874950">
        <ele>228.909</ele>
        <time>2021-08-19T14:23:26Z</time>
      </trkpt>
      <trkpt lat="41.734692" lon="0.874925">
        <ele>229.272</ele>
        <time>2021-08-19T14:23:28Z</time>
      </trkpt>
      <trkpt lat="41.734736" lon="0.874899">
        <ele>229.493</ele>
        <time>2021-08-19T14:23:30Z</time>
      </trkpt>
      <trkpt lat="41.734786" lon="0.874878">
        <ele>229.444</ele>
        <time>2021-08-19T14:23:32Z</time>
      </trkpt>
      <trkpt lat="41.734832" lon="0.874847">
        <ele>229.678</ele>
        <time>2021-08-19T14:23:34Z</time>
      </trkpt>
      <trkpt lat="41.734884" lon="0.874817">
        <ele>229.739</ele>
        <time>2021-08-19T14:23:36Z</time>
      </trkpt>
      <trkpt lat="41.734932" lon="0.874782">
        <ele>229.825</ele>
        <time>2021-08-19T14:23:38Z</time>
      </trkpt>
      <trkpt lat="41.734977" lon="0.874733">
        <ele>230.010</ele>
        <time>2021-08-19T14:23:40Z</time>
      </trkpt>
      <trkpt lat="41.735021" lon="0.874697">
        <ele>229.741</ele>
        <time>2021-08-19T14:23:42Z</time>
      </trkpt>
      <trkpt lat="41.735070" lon="0.874640">
        <ele>229.177</ele>
        <time>2021-08-19T14:23:44Z</time>
      </trkpt>
      <trkpt lat="41.735117" lon="0.874583">
        <ele>228.717</ele>
        <time>2021-08-19T14:23:46Z</time>
      </trkpt>
      <trkpt lat="41.735160" lon="0.874526">
        <ele>228.487</ele>
        <time>2021-08-19T14:23:48Z</time>
      </trkpt>
      <trkpt lat="41.735203" lon="0.874470">
        <ele>228.215</ele>
        <time>2021-08-19T14:23:50Z</time>
      </trkpt>
      <trkpt lat="41.735246" lon="0.874406">
        <ele>228.209</ele>
        <time>2021-08-19T14:23:52Z</time>
      </trkpt>
      <trkpt lat="41.735294" lon="0.874348">
        <ele>228.422</ele>
        <time>2021-08-19T14:23:54Z</time>
      </trkpt>
      <trkpt lat="41.735331" lon="0.874298">
        <ele>228.623</ele>
        <time>2021-08-19T14:23:56Z</time>
      </trkpt>
      <trkpt lat="41.735383" lon="0.874229">
        <ele>229.174</ele>
        <time>2021-08-19T14:23:58Z</time>
      </trkpt>
      <trkpt lat="41.735424" lon="0.874171">
        <ele>229.598</ele>
        <time>2021-08-19T14:24:00Z</time>
      </trkpt>
      <trkpt lat="41.735464" lon="0.874111">
        <ele>229.559</ele>
        <time>2021-08-19T14:24:02Z</time>
      </trkpt>
      <trkpt lat="41.735506" lon="0.874052">
        <ele>229.415</ele>
        <time>2021-08-19T14:24:04Z</time>
      </trkpt>
      <trkpt lat="41.735552" lon="0.873997">
        <ele>229.480</ele>
        <time>2021-08-19T14:24:06Z</time>
      </trkpt>
      <trkpt lat="41.735593" lon="0.873935">
        <ele>229.261</ele>
        <time>2021-08-19T14:24:08Z</time>
      </trkpt>
      <trkpt lat="41.735628" lon="0.873880">
        <ele>228.967</ele>
        <time>2021-08-19T14:24:10Z</time>
      </trkpt>
      <trkpt lat="41.735668" lon="0.873822">
        <ele>228.522</ele>
        <time>2021-08-19T14:24:12Z</time>
      </trkpt>
      <trkpt lat="41.735703" lon="0.873767">
        <ele>228.162</ele>
        <time>2021-08-19T14:24:14Z</time>
      </trkpt>
      <trkpt lat="41.735739" lon="0.873704">
        <ele>227.708</ele>
        <time>2021-08-19T14:24:16Z</time>
      </trkpt>
      <trkpt lat="41.735776" lon="0.873642">
        <ele>227.209</ele>
        <time>2021-08-19T14:24:18Z</time>
      </trkpt>
      <trkpt lat="41.735818" lon="0.873580">
        <ele>227.083</ele>
        <time>2021-08-19T14:24:20Z</time>
      </trkpt>
      <trkpt lat="41.735866" lon="0.873524">
        <ele>227.274</ele>
        <time>2021-08-19T14:24:22Z</time>
      </trkpt>
      <trkpt lat="41.735911" lon="0.873470">
        <ele>227.445</ele>
        <time>2021-08-19T14:24:24Z</time>
      </trkpt>
      <trkpt lat="41.735955" lon="0.873411">
        <ele>227.659</ele>
        <time>2021-08-19T14:24:26Z</time>
      </trkpt>
      <trkpt lat="41.735996" lon="0.873348">
        <ele>227.650</ele>
        <time>2021-08-19T14:24:28Z</time>
      </trkpt>
      <trkpt lat="41.736041" lon="0.873289">
        <ele>227.626</ele>
        <time>2021-08-19T14:24:30Z</time>
      </trkpt>
      <trkpt lat="41.736083" lon="0.873232">
        <ele>227.651</ele>
        <time>2021-08-19T14:24:32Z</time>
      </trkpt>
      <trkpt lat="41.736131" lon="0.873176">
        <ele>227.582</ele>
        <time>2021-08-19T14:24:34Z</time>
      </trkpt>
      <trkpt lat="41.736174" lon="0.873117">
        <ele>227.588</ele>
        <time>2021-08-19T14:24:36Z</time>
      </trkpt>
      <trkpt lat="41.736215" lon="0.873057">
        <ele>227.423</ele>
        <time>2021-08-19T14:24:38Z</time>
      </trkpt>
      <trkpt lat="41.736259" lon="0.872994">
        <ele>227.883</ele>
        <time>2021-08-19T14:24:40Z</time>
      </trkpt>
      <trkpt lat="41.736298" lon="0.872927">
        <ele>228.111</ele>
        <time>2021-08-19T14:24:42Z</time>
      </trkpt>
      <trkpt lat="41.736340" lon="0.872873">
        <ele>228.509</ele>
        <time>2021-08-19T14:24:44Z</time>
      </trkpt>
      <trkpt lat="41.736393" lon="0.872804">
        <ele>228.933</ele>
        <time>2021-08-19T14:24:46Z</time>
      </trkpt>
      <trkpt lat="41.736433" lon="0.872740">
        <ele>229.384</ele>
        <time>2021-08-19T14:24:48Z</time>
      </trkpt>
      <trkpt lat="41.736478" lon="0.872675">
        <ele>229.795</ele>
        <time>2021-08-19T14:24:50Z</time>
      </trkpt>
      <trkpt lat="41.736521" lon="0.872612">
        <ele>230.129</ele>
        <time>2021-08-19T14:24:52Z</time>
      </trkpt>
      <trkpt lat="41.736561" lon="0.872550">
        <ele>230.480</ele>
        <time>2021-08-19T14:24:54Z</time>
      </trkpt>
      <trkpt lat="41.736603" lon="0.872485">
        <ele>230.846</ele>
        <time>2021-08-19T14:24:56Z</time>
      </trkpt>
      <trkpt lat="41.736637" lon="0.872428">
        <ele>231.221</ele>
        <time>2021-08-19T14:24:58Z</time>
      </trkpt>
      <trkpt lat="41.736669" lon="0.872368">
        <ele>231.542</ele>
        <time>2021-08-19T14:25:00Z</time>
      </trkpt>
      <trkpt lat="41.736713" lon="0.872300">
        <ele>231.798</ele>
        <time>2021-08-19T14:25:02Z</time>
      </trkpt>
      <trkpt lat="41.736760" lon="0.872230">
        <ele>232.065</ele>
        <time>2021-08-19T14:25:04Z</time>
      </trkpt>
      <trkpt lat="41.736803" lon="0.872166">
        <ele>232.068</ele>
        <time>2021-08-19T14:25:06Z</time>
      </trkpt>
      <trkpt lat="41.736846" lon="0.872101">
        <ele>232.014</ele>
        <time>2021-08-19T14:25:08Z</time>
      </trkpt>
      <trkpt lat="41.736887" lon="0.872026">
        <ele>232.009</ele>
        <time>2021-08-19T14:25:10Z</time>
      </trkpt>
      <trkpt lat="41.736933" lon="0.871964">
        <ele>232.047</ele>
        <time>2021-08-19T14:25:12Z</time>
      </trkpt>
      <trkpt lat="41.736972" lon="0.871911">
        <ele>231.958</ele>
        <time>2021-08-19T14:25:14Z</time>
      </trkpt>
      <trkpt lat="41.737020" lon="0.871850">
        <ele>231.769</ele>
        <time>2021-08-19T14:25:16Z</time>
      </trkpt>
      <trkpt lat="41.737063" lon="0.871788">
        <ele>231.643</ele>
        <time>2021-08-19T14:25:18Z</time>
      </trkpt>
      <trkpt lat="41.737105" lon="0.871729">
        <ele>231.474</ele>
        <time>2021-08-19T14:25:20Z</time>
      </trkpt>
      <trkpt lat="41.737147" lon="0.871667">
        <ele>231.350</ele>
        <time>2021-08-19T14:25:22Z</time>
      </trkpt>
      <trkpt lat="41.737192" lon="0.871603">
        <ele>231.525</ele>
        <time>2021-08-19T14:25:24Z</time>
      </trkpt>
      <trkpt lat="41.737236" lon="0.871544">
        <ele>231.816</ele>
        <time>2021-08-19T14:25:26Z</time>
      </trkpt>
      <trkpt lat="41.737279" lon="0.871485">
        <ele>232.052</ele>
        <time>2021-08-19T14:25:28Z</time>
      </trkpt>
      <trkpt lat="41.737321" lon="0.871423">
        <ele>232.115</ele>
        <time>2021-08-19T14:25:30Z</time>
      </trkpt>
      <trkpt lat="41.737366" lon="0.871361">
        <ele>232.065</ele>
        <time>2021-08-19T14:25:32Z</time>
      </trkpt>
      <trkpt lat="41.737411" lon="0.871299">
        <ele>231.811</ele>
        <time>2021-08-19T14:25:34Z</time>
      </trkpt>
      <trkpt lat="41.737449" lon="0.871235">
        <ele>231.709</ele>
        <time>2021-08-19T14:25:36Z</time>
      </trkpt>
      <trkpt lat="41.737489" lon="0.871176">
        <ele>231.862</ele>
        <time>2021-08-19T14:25:38Z</time>
      </trkpt>
      <trkpt lat="41.737535" lon="0.871115">
        <ele>231.673</ele>
        <time>2021-08-19T14:25:40Z</time>
      </trkpt>
      <trkpt lat="41.737579" lon="0.871055">
        <ele>230.764</ele>
        <time>2021-08-19T14:25:42Z</time>
      </trkpt>
      <trkpt lat="41.737617" lon="0.871005">
        <ele>230.088</ele>
        <time>2021-08-19T14:25:44Z</time>
      </trkpt>
      <trkpt lat="41.737666" lon="0.870936">
        <ele>228.919</ele>
        <time>2021-08-19T14:25:46Z</time>
      </trkpt>
      <trkpt lat="41.737713" lon="0.870863">
        <ele>227.995</ele>
        <time>2021-08-19T14:25:48Z</time>
      </trkpt>
      <trkpt lat="41.737758" lon="0.870793">
        <ele>227.280</ele>
        <time>2021-08-19T14:25:50Z</time>
      </trkpt>
      <trkpt lat="41.737811" lon="0.870727">
        <ele>227.081</ele>
        <time>2021-08-19T14:25:52Z</time>
      </trkpt>
      <trkpt lat="41.737855" lon="0.870670">
        <ele>226.817</ele>
        <time>2021-08-19T14:25:54Z</time>
      </trkpt>
      <trkpt lat="41.737888" lon="0.870608">
        <ele>226.788</ele>
        <time>2021-08-19T14:25:56Z</time>
      </trkpt>
      <trkpt lat="41.737927" lon="0.870539">
        <ele>226.524</ele>
        <time>2021-08-19T14:25:58Z</time>
      </trkpt>
      <trkpt lat="41.737957" lon="0.870471">
        <ele>226.726</ele>
        <time>2021-08-19T14:26:00Z</time>
      </trkpt>
      <trkpt lat="41.737985" lon="0.870404">
        <ele>226.809</ele>
        <time>2021-08-19T14:26:02Z</time>
      </trkpt>
      <trkpt lat="41.738025" lon="0.870332">
        <ele>226.969</ele>
        <time>2021-08-19T14:26:04Z</time>
      </trkpt>
      <trkpt lat="41.738061" lon="0.870252">
        <ele>227.110</ele>
        <time>2021-08-19T14:26:06Z</time>
      </trkpt>
      <trkpt lat="41.738098" lon="0.870176">
        <ele>227.471</ele>
        <time>2021-08-19T14:26:08Z</time>
      </trkpt>
      <trkpt lat="41.738132" lon="0.870091">
        <ele>227.745</ele>
        <time>2021-08-19T14:26:10Z</time>
      </trkpt>
      <trkpt lat="41.738166" lon="0.870007">
        <ele>228.076</ele>
        <time>2021-08-19T14:26:12Z</time>
      </trkpt>
      <trkpt lat="41.738188" lon="0.869951">
        <ele>228.042</ele>
        <time>2021-08-19T14:26:14Z</time>
      </trkpt>
      <trkpt lat="41.738225" lon="0.869874">
        <ele>228.027</ele>
        <time>2021-08-19T14:26:16Z</time>
      </trkpt>
      <trkpt lat="41.738262" lon="0.869793">
        <ele>228.018</ele>
        <time>2021-08-19T14:26:18Z</time>
      </trkpt>
      <trkpt lat="41.738301" lon="0.869721">
        <ele>228.044</ele>
        <time>2021-08-19T14:26:20Z</time>
      </trkpt>
      <trkpt lat="41.738349" lon="0.869649">
        <ele>228.341</ele>
        <time>2021-08-19T14:26:22Z</time>
      </trkpt>
      <trkpt lat="41.738399" lon="0.869580">
        <ele>228.681</ele>
        <time>2021-08-19T14:26:24Z</time>
      </trkpt>
      <trkpt lat="41.738454" lon="0.869515">
        <ele>228.909</ele>
        <time>2021-08-19T14:26:26Z</time>
      </trkpt>
      <trkpt lat="41.738510" lon="0.869449">
        <ele>229.009</ele>
        <time>2021-08-19T14:26:28Z</time>
      </trkpt>
      <trkpt lat="41.738566" lon="0.869391">
        <ele>229.075</ele>
        <time>2021-08-19T14:26:30Z</time>
      </trkpt>
      <trkpt lat="41.738617" lon="0.869336">
        <ele>229.076</ele>
        <time>2021-08-19T14:26:32Z</time>
      </trkpt>
      <trkpt lat="41.738672" lon="0.869284">
        <ele>228.867</ele>
        <time>2021-08-19T14:26:34Z</time>
      </trkpt>
      <trkpt lat="41.738731" lon="0.869233">
        <ele>228.881</ele>
        <time>2021-08-19T14:26:36Z</time>
      </trkpt>
      <trkpt lat="41.738791" lon="0.869179">
        <ele>228.942</ele>
        <time>2021-08-19T14:26:38Z</time>
      </trkpt>
      <trkpt lat="41.738849" lon="0.869127">
        <ele>229.138</ele>
        <time>2021-08-19T14:26:40Z</time>
      </trkpt>
      <trkpt lat="41.738906" lon="0.869073">
        <ele>229.343</ele>
        <time>2021-08-19T14:26:42Z</time>
      </trkpt>
      <trkpt lat="41.738967" lon="0.869019">
        <ele>229.294</ele>
        <time>2021-08-19T14:26:44Z</time>
      </trkpt>
      <trkpt lat="41.739006" lon="0.868987">
        <ele>229.290</ele>
        <time>2021-08-19T14:26:45Z</time>
      </trkpt>
      <trkpt lat="41.739068" lon="0.868928">
        <ele>229.294</ele>
        <time>2021-08-19T14:26:47Z</time>
      </trkpt>
      <trkpt lat="41.739126" lon="0.868866">
        <ele>229.257</ele>
        <time>2021-08-19T14:26:49Z</time>
      </trkpt>
      <trkpt lat="41.739180" lon="0.868798">
        <ele>229.222</ele>
        <time>2021-08-19T14:26:51Z</time>
      </trkpt>
      <trkpt lat="41.739245" lon="0.868752">
        <ele>228.909</ele>
        <time>2021-08-19T14:26:53Z</time>
      </trkpt>
      <trkpt lat="41.739300" lon="0.868692">
        <ele>228.550</ele>
        <time>2021-08-19T14:26:55Z</time>
      </trkpt>
      <trkpt lat="41.739359" lon="0.868632">
        <ele>228.041</ele>
        <time>2021-08-19T14:26:57Z</time>
      </trkpt>
      <trkpt lat="41.739417" lon="0.868581">
        <ele>227.322</ele>
        <time>2021-08-19T14:26:59Z</time>
      </trkpt>
      <trkpt lat="41.739472" lon="0.868525">
        <ele>226.856</ele>
        <time>2021-08-19T14:27:01Z</time>
      </trkpt>
      <trkpt lat="41.739526" lon="0.868468">
        <ele>226.697</ele>
        <time>2021-08-19T14:27:03Z</time>
      </trkpt>
      <trkpt lat="41.739586" lon="0.868415">
        <ele>226.343</ele>
        <time>2021-08-19T14:27:05Z</time>
      </trkpt>
      <trkpt lat="41.739644" lon="0.868358">
        <ele>226.268</ele>
        <time>2021-08-19T14:27:07Z</time>
      </trkpt>
      <trkpt lat="41.739703" lon="0.868303">
        <ele>226.379</ele>
        <time>2021-08-19T14:27:09Z</time>
      </trkpt>
      <trkpt lat="41.739759" lon="0.868250">
        <ele>226.755</ele>
        <time>2021-08-19T14:27:11Z</time>
      </trkpt>
      <trkpt lat="41.739810" lon="0.868202">
        <ele>227.319</ele>
        <time>2021-08-19T14:27:13Z</time>
      </trkpt>
      <trkpt lat="41.739849" lon="0.868167">
        <ele>227.709</ele>
        <time>2021-08-19T14:27:14Z</time>
      </trkpt>
      <trkpt lat="41.739898" lon="0.868116">
        <ele>228.219</ele>
        <time>2021-08-19T14:27:16Z</time>
      </trkpt>
      <trkpt lat="41.739955" lon="0.868056">
        <ele>228.809</ele>
        <time>2021-08-19T14:27:18Z</time>
      </trkpt>
      <trkpt lat="41.740013" lon="0.867995">
        <ele>229.352</ele>
        <time>2021-08-19T14:27:20Z</time>
      </trkpt>
      <trkpt lat="41.740074" lon="0.867939">
        <ele>229.743</ele>
        <time>2021-08-19T14:27:22Z</time>
      </trkpt>
      <trkpt lat="41.740132" lon="0.867885">
        <ele>230.154</ele>
        <time>2021-08-19T14:27:24Z</time>
      </trkpt>
      <trkpt lat="41.740186" lon="0.867843">
        <ele>230.448</ele>
        <time>2021-08-19T14:27:26Z</time>
      </trkpt>
      <trkpt lat="41.740236" lon="0.867786">
        <ele>230.849</ele>
        <time>2021-08-19T14:27:28Z</time>
      </trkpt>
      <trkpt lat="41.740289" lon="0.867729">
        <ele>231.025</ele>
        <time>2021-08-19T14:27:30Z</time>
      </trkpt>
      <trkpt lat="41.740347" lon="0.867684">
        <ele>230.830</ele>
        <time>2021-08-19T14:27:32Z</time>
      </trkpt>
      <trkpt lat="41.740397" lon="0.867639">
        <ele>230.661</ele>
        <time>2021-08-19T14:27:34Z</time>
      </trkpt>
      <trkpt lat="41.740450" lon="0.867600">
        <ele>230.497</ele>
        <time>2021-08-19T14:27:36Z</time>
      </trkpt>
      <trkpt lat="41.740497" lon="0.867549">
        <ele>230.213</ele>
        <time>2021-08-19T14:27:38Z</time>
      </trkpt>
      <trkpt lat="41.740550" lon="0.867498">
        <ele>230.043</ele>
        <time>2021-08-19T14:27:40Z</time>
      </trkpt>
      <trkpt lat="41.740600" lon="0.867442">
        <ele>229.807</ele>
        <time>2021-08-19T14:27:42Z</time>
      </trkpt>
      <trkpt lat="41.740650" lon="0.867398">
        <ele>229.509</ele>
        <time>2021-08-19T14:27:44Z</time>
      </trkpt>
      <trkpt lat="41.740712" lon="0.867336">
        <ele>229.162</ele>
        <time>2021-08-19T14:27:46Z</time>
      </trkpt>
      <trkpt lat="41.740763" lon="0.867279">
        <ele>228.723</ele>
        <time>2021-08-19T14:27:48Z</time>
      </trkpt>
      <trkpt lat="41.740818" lon="0.867222">
        <ele>228.134</ele>
        <time>2021-08-19T14:27:50Z</time>
      </trkpt>
      <trkpt lat="41.740868" lon="0.867155">
        <ele>228.178</ele>
        <time>2021-08-19T14:27:52Z</time>
      </trkpt>
      <trkpt lat="41.740920" lon="0.867092">
        <ele>228.399</ele>
        <time>2021-08-19T14:27:54Z</time>
      </trkpt>
      <trkpt lat="41.740970" lon="0.867027">
        <ele>228.595</ele>
        <time>2021-08-19T14:27:56Z</time>
      </trkpt>
      <trkpt lat="41.741018" lon="0.866963">
        <ele>228.790</ele>
        <time>2021-08-19T14:27:58Z</time>
      </trkpt>
      <trkpt lat="41.741063" lon="0.866898">
        <ele>228.721</ele>
        <time>2021-08-19T14:28:00Z</time>
      </trkpt>
      <trkpt lat="41.741118" lon="0.866831">
        <ele>228.727</ele>
        <time>2021-08-19T14:28:02Z</time>
      </trkpt>
      <trkpt lat="41.741167" lon="0.866761">
        <ele>228.975</ele>
        <time>2021-08-19T14:28:04Z</time>
      </trkpt>
      <trkpt lat="41.741218" lon="0.866708">
        <ele>229.228</ele>
        <time>2021-08-19T14:28:06Z</time>
      </trkpt>
      <trkpt lat="41.741291" lon="0.866620">
        <ele>230.120</ele>
        <time>2021-08-19T14:28:09Z</time>
      </trkpt>
      <trkpt lat="41.741347" lon="0.866547">
        <ele>231.009</ele>
        <time>2021-08-19T14:28:11Z</time>
      </trkpt>
      <trkpt lat="41.741398" lon="0.866483">
        <ele>231.798</ele>
        <time>2021-08-19T14:28:13Z</time>
      </trkpt>
      <trkpt lat="41.741437" lon="0.866441">
        <ele>232.089</ele>
        <time>2021-08-19T14:28:14Z</time>
      </trkpt>
      <trkpt lat="41.741479" lon="0.866394">
        <ele>232.370</ele>
        <time>2021-08-19T14:28:15Z</time>
      </trkpt>
      <trkpt lat="41.741545" lon="0.866314">
        <ele>232.474</ele>
        <time>2021-08-19T14:28:17Z</time>
      </trkpt>
      <trkpt lat="41.741617" lon="0.866248">
        <ele>232.425</ele>
        <time>2021-08-19T14:28:19Z</time>
      </trkpt>
      <trkpt lat="41.741689" lon="0.866171">
        <ele>232.121</ele>
        <time>2021-08-19T14:28:21Z</time>
      </trkpt>
      <trkpt lat="41.741761" lon="0.866099">
        <ele>231.666</ele>
        <time>2021-08-19T14:28:23Z</time>
      </trkpt>
      <trkpt lat="41.741831" lon="0.866020">
        <ele>230.987</ele>
        <time>2021-08-19T14:28:25Z</time>
      </trkpt>
      <trkpt lat="41.741899" lon="0.865941">
        <ele>230.533</ele>
        <time>2021-08-19T14:28:27Z</time>
      </trkpt>
      <trkpt lat="41.741957" lon="0.865867">
        <ele>230.123</ele>
        <time>2021-08-19T14:28:29Z</time>
      </trkpt>
      <trkpt lat="41.742018" lon="0.865801">
        <ele>230.083</ele>
        <time>2021-08-19T14:28:31Z</time>
      </trkpt>
      <trkpt lat="41.742082" lon="0.865744">
        <ele>230.011</ele>
        <time>2021-08-19T14:28:33Z</time>
      </trkpt>
      <trkpt lat="41.742146" lon="0.865674">
        <ele>230.009</ele>
        <time>2021-08-19T14:28:35Z</time>
      </trkpt>
      <trkpt lat="41.742198" lon="0.865602">
        <ele>230.023</ele>
        <time>2021-08-19T14:28:37Z</time>
      </trkpt>
      <trkpt lat="41.742242" lon="0.865521">
        <ele>230.074</ele>
        <time>2021-08-19T14:28:39Z</time>
      </trkpt>
      <trkpt lat="41.742285" lon="0.865443">
        <ele>230.035</ele>
        <time>2021-08-19T14:28:41Z</time>
      </trkpt>
      <trkpt lat="41.742318" lon="0.865368">
        <ele>230.079</ele>
        <time>2021-08-19T14:28:43Z</time>
      </trkpt>
      <trkpt lat="41.742352" lon="0.865286">
        <ele>230.070</ele>
        <time>2021-08-19T14:28:45Z</time>
      </trkpt>
      <trkpt lat="41.742392" lon="0.865202">
        <ele>229.916</ele>
        <time>2021-08-19T14:28:47Z</time>
      </trkpt>
      <trkpt lat="41.742426" lon="0.865119">
        <ele>229.831</ele>
        <time>2021-08-19T14:28:49Z</time>
      </trkpt>
      <trkpt lat="41.742460" lon="0.865037">
        <ele>229.972</ele>
        <time>2021-08-19T14:28:51Z</time>
      </trkpt>
      <trkpt lat="41.742494" lon="0.864960">
        <ele>230.068</ele>
        <time>2021-08-19T14:28:53Z</time>
      </trkpt>
      <trkpt lat="41.742533" lon="0.864884">
        <ele>230.065</ele>
        <time>2021-08-19T14:28:55Z</time>
      </trkpt>
      <trkpt lat="41.742566" lon="0.864805">
        <ele>230.068</ele>
        <time>2021-08-19T14:28:57Z</time>
      </trkpt>
      <trkpt lat="41.742601" lon="0.864739">
        <ele>230.014</ele>
        <time>2021-08-19T14:28:59Z</time>
      </trkpt>
      <trkpt lat="41.742621" lon="0.864672">
        <ele>230.009</ele>
        <time>2021-08-19T14:29:01Z</time>
      </trkpt>
      <trkpt lat="41.742658" lon="0.864601">
        <ele>230.067</ele>
        <time>2021-08-19T14:29:04Z</time>
      </trkpt>
      <trkpt lat="41.742688" lon="0.864518">
        <ele>230.068</ele>
        <time>2021-08-19T14:29:07Z</time>
      </trkpt>
      <trkpt lat="41.742712" lon="0.864460">
        <ele>230.049</ele>
        <time>2021-08-19T14:29:09Z</time>
      </trkpt>
      <trkpt lat="41.742734" lon="0.864398">
        <ele>230.073</ele>
        <time>2021-08-19T14:29:11Z</time>
      </trkpt>
      <trkpt lat="41.742751" lon="0.864338">
        <ele>230.064</ele>
        <time>2021-08-19T14:29:13Z</time>
      </trkpt>
      <trkpt lat="41.742805" lon="0.864297">
        <ele>229.990</ele>
        <time>2021-08-19T14:29:16Z</time>
      </trkpt>
      <trkpt lat="41.742854" lon="0.864264">
        <ele>229.745</ele>
        <time>2021-08-19T14:29:19Z</time>
      </trkpt>
      <trkpt lat="41.742893" lon="0.864323">
        <ele>229.626</ele>
        <time>2021-08-19T14:29:23Z</time>
      </trkpt>
      <trkpt lat="41.742924" lon="0.864370">
        <ele>229.512</ele>
        <time>2021-08-19T14:29:27Z</time>
      </trkpt>
      <trkpt lat="41.742970" lon="0.864382">
        <ele>229.388</ele>
        <time>2021-08-19T14:29:30Z</time>
      </trkpt>
      <trkpt lat="41.743024" lon="0.864389">
        <ele>229.124</ele>
        <time>2021-08-19T14:29:32Z</time>
      </trkpt>
      <trkpt lat="41.743094" lon="0.864400">
        <ele>228.726</ele>
        <time>2021-08-19T14:29:34Z</time>
      </trkpt>
      <trkpt lat="41.743157" lon="0.864403">
        <ele>228.309</ele>
        <time>2021-08-19T14:29:36Z</time>
      </trkpt>
      <trkpt lat="41.743211" lon="0.864376">
        <ele>228.099</ele>
        <time>2021-08-19T14:29:38Z</time>
      </trkpt>
      <trkpt lat="41.743271" lon="0.864342">
        <ele>227.760</ele>
        <time>2021-08-19T14:29:40Z</time>
      </trkpt>
      <trkpt lat="41.743331" lon="0.864316">
        <ele>227.531</ele>
        <time>2021-08-19T14:29:42Z</time>
      </trkpt>
      <trkpt lat="41.743385" lon="0.864289">
        <ele>227.695</ele>
        <time>2021-08-19T14:29:44Z</time>
      </trkpt>
      <trkpt lat="41.743433" lon="0.864252">
        <ele>227.776</ele>
        <time>2021-08-19T14:29:46Z</time>
      </trkpt>
      <trkpt lat="41.743485" lon="0.864206">
        <ele>227.982</ele>
        <time>2021-08-19T14:29:48Z</time>
      </trkpt>
      <trkpt lat="41.743535" lon="0.864166">
        <ele>228.057</ele>
        <time>2021-08-19T14:29:50Z</time>
      </trkpt>
      <trkpt lat="41.743589" lon="0.864130">
        <ele>228.158</ele>
        <time>2021-08-19T14:29:52Z</time>
      </trkpt>
      <trkpt lat="41.743640" lon="0.864096">
        <ele>228.214</ele>
        <time>2021-08-19T14:29:54Z</time>
      </trkpt>
      <trkpt lat="41.743686" lon="0.864056">
        <ele>228.344</ele>
        <time>2021-08-19T14:29:56Z</time>
      </trkpt>
      <trkpt lat="41.743738" lon="0.864022">
        <ele>228.305</ele>
        <time>2021-08-19T14:29:58Z</time>
      </trkpt>
      <trkpt lat="41.743787" lon="0.863989">
        <ele>228.215</ele>
        <time>2021-08-19T14:30:00Z</time>
      </trkpt>
      <trkpt lat="41.743836" lon="0.863946">
        <ele>228.209</ele>
        <time>2021-08-19T14:30:02Z</time>
      </trkpt>
      <trkpt lat="41.743884" lon="0.863902">
        <ele>228.075</ele>
        <time>2021-08-19T14:30:04Z</time>
      </trkpt>
      <trkpt lat="41.743934" lon="0.863861">
        <ele>227.916</ele>
        <time>2021-08-19T14:30:06Z</time>
      </trkpt>
      <trkpt lat="41.743986" lon="0.863813">
        <ele>227.757</ele>
        <time>2021-08-19T14:30:08Z</time>
      </trkpt>
      <trkpt lat="41.744044" lon="0.863767">
        <ele>227.691</ele>
        <time>2021-08-19T14:30:10Z</time>
      </trkpt>
      <trkpt lat="41.744102" lon="0.863723">
        <ele>227.492</ele>
        <time>2021-08-19T14:30:12Z</time>
      </trkpt>
      <trkpt lat="41.744143" lon="0.863683">
        <ele>227.368</ele>
        <time>2021-08-19T14:30:14Z</time>
      </trkpt>
      <trkpt lat="41.744209" lon="0.863624">
        <ele>227.213</ele>
        <time>2021-08-19T14:30:16Z</time>
      </trkpt>
      <trkpt lat="41.744268" lon="0.863585">
        <ele>227.424</ele>
        <time>2021-08-19T14:30:18Z</time>
      </trkpt>
      <trkpt lat="41.744314" lon="0.863532">
        <ele>227.790</ele>
        <time>2021-08-19T14:30:20Z</time>
      </trkpt>
      <trkpt lat="41.744366" lon="0.863481">
        <ele>227.844</ele>
        <time>2021-08-19T14:30:22Z</time>
      </trkpt>
      <trkpt lat="41.744416" lon="0.863432">
        <ele>228.005</ele>
        <time>2021-08-19T14:30:24Z</time>
      </trkpt>
      <trkpt lat="41.744466" lon="0.863378">
        <ele>228.115</ele>
        <time>2021-08-19T14:30:26Z</time>
      </trkpt>
      <trkpt lat="41.744509" lon="0.863321">
        <ele>228.509</ele>
        <time>2021-08-19T14:30:28Z</time>
      </trkpt>
      <trkpt lat="41.744559" lon="0.863278">
        <ele>229.015</ele>
        <time>2021-08-19T14:30:30Z</time>
      </trkpt>
      <trkpt lat="41.744599" lon="0.863220">
        <ele>229.596</ele>
        <time>2021-08-19T14:30:32Z</time>
      </trkpt>
      <trkpt lat="41.744648" lon="0.863166">
        <ele>230.167</ele>
        <time>2021-08-19T14:30:34Z</time>
      </trkpt>
      <trkpt lat="41.744694" lon="0.863103">
        <ele>230.651</ele>
        <time>2021-08-19T14:30:36Z</time>
      </trkpt>
      <trkpt lat="41.744743" lon="0.863045">
        <ele>231.172</ele>
        <time>2021-08-19T14:30:38Z</time>
      </trkpt>
      <trkpt lat="41.744788" lon="0.862983">
        <ele>231.238</ele>
        <time>2021-08-19T14:30:40Z</time>
      </trkpt>
      <trkpt lat="41.744832" lon="0.862921">
        <ele>231.433</ele>
        <time>2021-08-19T14:30:42Z</time>
      </trkpt>
      <trkpt lat="41.744871" lon="0.862866">
        <ele>231.584</ele>
        <time>2021-08-19T14:30:44Z</time>
      </trkpt>
      <trkpt lat="41.744917" lon="0.862803">
        <ele>231.740</ele>
        <time>2021-08-19T14:30:46Z</time>
      </trkpt>
      <trkpt lat="41.744963" lon="0.862746">
        <ele>231.849</ele>
        <time>2021-08-19T14:30:48Z</time>
      </trkpt>
      <trkpt lat="41.744998" lon="0.862698">
        <ele>231.702</ele>
        <time>2021-08-19T14:30:50Z</time>
      </trkpt>
      <trkpt lat="41.745034" lon="0.862655">
        <ele>231.422</ele>
        <time>2021-08-19T14:30:52Z</time>
      </trkpt>
      <trkpt lat="41.745070" lon="0.862611">
        <ele>231.109</ele>
        <time>2021-08-19T14:30:54Z</time>
      </trkpt>
      <trkpt lat="41.745108" lon="0.862563">
        <ele>230.895</ele>
        <time>2021-08-19T14:30:56Z</time>
      </trkpt>
      <trkpt lat="41.745139" lon="0.862513">
        <ele>230.516</ele>
        <time>2021-08-19T14:30:57Z</time>
      </trkpt>
      <trkpt lat="41.745199" lon="0.862442">
        <ele>230.177</ele>
        <time>2021-08-19T14:30:59Z</time>
      </trkpt>
      <trkpt lat="41.745243" lon="0.862404">
        <ele>229.851</ele>
        <time>2021-08-19T14:31:00Z</time>
      </trkpt>
      <trkpt lat="41.745281" lon="0.862368">
        <ele>229.542</ele>
        <time>2021-08-19T14:31:01Z</time>
      </trkpt>
      <trkpt lat="41.745336" lon="0.862306">
        <ele>228.618</ele>
        <time>2021-08-19T14:31:03Z</time>
      </trkpt>
      <trkpt lat="41.745404" lon="0.862208">
        <ele>227.693</ele>
        <time>2021-08-19T14:31:06Z</time>
      </trkpt>
      <trkpt lat="41.745447" lon="0.862161">
        <ele>227.244</ele>
        <time>2021-08-19T14:31:07Z</time>
      </trkpt>
      <trkpt lat="41.745518" lon="0.862066">
        <ele>226.810</ele>
        <time>2021-08-19T14:31:09Z</time>
      </trkpt>
      <trkpt lat="41.745556" lon="0.862022">
        <ele>226.789</ele>
        <time>2021-08-19T14:31:10Z</time>
      </trkpt>
      <trkpt lat="41.745627" lon="0.861950">
        <ele>226.706</ele>
        <time>2021-08-19T14:31:12Z</time>
      </trkpt>
      <trkpt lat="41.745673" lon="0.861898">
        <ele>226.726</ele>
        <time>2021-08-19T14:31:14Z</time>
      </trkpt>
      <trkpt lat="41.745733" lon="0.861831">
        <ele>226.809</ele>
        <time>2021-08-19T14:31:16Z</time>
      </trkpt>
      <trkpt lat="41.745787" lon="0.861769">
        <ele>226.859</ele>
        <time>2021-08-19T14:31:18Z</time>
      </trkpt>
      <trkpt lat="41.745839" lon="0.861702">
        <ele>226.950</ele>
        <time>2021-08-19T14:31:20Z</time>
      </trkpt>
      <trkpt lat="41.745888" lon="0.861630">
        <ele>227.531</ele>
        <time>2021-08-19T14:31:22Z</time>
      </trkpt>
      <trkpt lat="41.745943" lon="0.861571">
        <ele>228.185</ele>
        <time>2021-08-19T14:31:24Z</time>
      </trkpt>
      <trkpt lat="41.745994" lon="0.861509">
        <ele>228.736</ele>
        <time>2021-08-19T14:31:26Z</time>
      </trkpt>
      <trkpt lat="41.746050" lon="0.861451">
        <ele>229.322</ele>
        <time>2021-08-19T14:31:28Z</time>
      </trkpt>
      <trkpt lat="41.746099" lon="0.861387">
        <ele>230.087</ele>
        <time>2021-08-19T14:31:30Z</time>
      </trkpt>
      <trkpt lat="41.746151" lon="0.861319">
        <ele>230.088</ele>
        <time>2021-08-19T14:31:32Z</time>
      </trkpt>
      <trkpt lat="41.746205" lon="0.861259">
        <ele>230.274</ele>
        <time>2021-08-19T14:31:34Z</time>
      </trkpt>
      <trkpt lat="41.746253" lon="0.861192">
        <ele>230.464</ele>
        <time>2021-08-19T14:31:36Z</time>
      </trkpt>
      <trkpt lat="41.746305" lon="0.861130">
        <ele>230.706</ele>
        <time>2021-08-19T14:31:38Z</time>
      </trkpt>
      <trkpt lat="41.746353" lon="0.861066">
        <ele>230.716</ele>
        <time>2021-08-19T14:31:40Z</time>
      </trkpt>
      <trkpt lat="41.746404" lon="0.861001">
        <ele>230.609</ele>
        <time>2021-08-19T14:31:42Z</time>
      </trkpt>
      <trkpt lat="41.746444" lon="0.860951">
        <ele>230.487</ele>
        <time>2021-08-19T14:31:44Z</time>
      </trkpt>
      <trkpt lat="41.746504" lon="0.860877">
        <ele>230.238</ele>
        <time>2021-08-19T14:31:46Z</time>
      </trkpt>
      <trkpt lat="41.746555" lon="0.860813">
        <ele>229.959</ele>
        <time>2021-08-19T14:31:48Z</time>
      </trkpt>
      <trkpt lat="41.746606" lon="0.860752">
        <ele>229.753</ele>
        <time>2021-08-19T14:31:50Z</time>
      </trkpt>
      <trkpt lat="41.746658" lon="0.860690">
        <ele>229.524</ele>
        <time>2021-08-19T14:31:52Z</time>
      </trkpt>
      <trkpt lat="41.746706" lon="0.860620">
        <ele>229.210</ele>
        <time>2021-08-19T14:31:54Z</time>
      </trkpt>
      <trkpt lat="41.746760" lon="0.860555">
        <ele>229.075</ele>
        <time>2021-08-19T14:31:56Z</time>
      </trkpt>
      <trkpt lat="41.746810" lon="0.860491">
        <ele>228.946</ele>
        <time>2021-08-19T14:31:58Z</time>
      </trkpt>
      <trkpt lat="41.746853" lon="0.860433">
        <ele>228.942</ele>
        <time>2021-08-19T14:32:00Z</time>
      </trkpt>
      <trkpt lat="41.746899" lon="0.860368">
        <ele>228.988</ele>
        <time>2021-08-19T14:32:02Z</time>
      </trkpt>
      <trkpt lat="41.746943" lon="0.860299">
        <ele>229.024</ele>
        <time>2021-08-19T14:32:04Z</time>
      </trkpt>
      <trkpt lat="41.746986" lon="0.860236">
        <ele>228.826</ele>
        <time>2021-08-19T14:32:06Z</time>
      </trkpt>
      <trkpt lat="41.747031" lon="0.860170">
        <ele>228.609</ele>
        <time>2021-08-19T14:32:08Z</time>
      </trkpt>
      <trkpt lat="41.747076" lon="0.860103">
        <ele>228.499</ele>
        <time>2021-08-19T14:32:10Z</time>
      </trkpt>
      <trkpt lat="41.747123" lon="0.860042">
        <ele>228.290</ele>
        <time>2021-08-19T14:32:12Z</time>
      </trkpt>
      <trkpt lat="41.747164" lon="0.859980">
        <ele>228.111</ele>
        <time>2021-08-19T14:32:14Z</time>
      </trkpt>
      <trkpt lat="41.747197" lon="0.859931">
        <ele>228.295</ele>
        <time>2021-08-19T14:32:16Z</time>
      </trkpt>
      <trkpt lat="41.747238" lon="0.859867">
        <ele>228.586</ele>
        <time>2021-08-19T14:32:18Z</time>
      </trkpt>
      <trkpt lat="41.747284" lon="0.859805">
        <ele>228.772</ele>
        <time>2021-08-19T14:32:20Z</time>
      </trkpt>
      <trkpt lat="41.747328" lon="0.859739">
        <ele>228.977</ele>
        <time>2021-08-19T14:32:22Z</time>
      </trkpt>
      <trkpt lat="41.747371" lon="0.859673">
        <ele>229.288</ele>
        <time>2021-08-19T14:32:24Z</time>
      </trkpt>
      <trkpt lat="41.747417" lon="0.859610">
        <ele>229.434</ele>
        <time>2021-08-19T14:32:26Z</time>
      </trkpt>
      <trkpt lat="41.747466" lon="0.859546">
        <ele>229.618</ele>
        <time>2021-08-19T14:32:28Z</time>
      </trkpt>
      <trkpt lat="41.747514" lon="0.859483">
        <ele>229.998</ele>
        <time>2021-08-19T14:32:30Z</time>
      </trkpt>
      <trkpt lat="41.747561" lon="0.859413">
        <ele>230.017</ele>
        <time>2021-08-19T14:32:32Z</time>
      </trkpt>
      <trkpt lat="41.747608" lon="0.859342">
        <ele>230.109</ele>
        <time>2021-08-19T14:32:34Z</time>
      </trkpt>
      <trkpt lat="41.747654" lon="0.859276">
        <ele>230.382</ele>
        <time>2021-08-19T14:32:36Z</time>
      </trkpt>
      <trkpt lat="41.747700" lon="0.859212">
        <ele>230.613</ele>
        <time>2021-08-19T14:32:38Z</time>
      </trkpt>
      <trkpt lat="41.747745" lon="0.859150">
        <ele>230.964</ele>
        <time>2021-08-19T14:32:40Z</time>
      </trkpt>
      <trkpt lat="41.747789" lon="0.859088">
        <ele>231.088</ele>
        <time>2021-08-19T14:32:42Z</time>
      </trkpt>
      <trkpt lat="41.747832" lon="0.859029">
        <ele>230.979</ele>
        <time>2021-08-19T14:32:44Z</time>
      </trkpt>
      <trkpt lat="41.747880" lon="0.858963">
        <ele>230.935</ele>
        <time>2021-08-19T14:32:46Z</time>
      </trkpt>
      <trkpt lat="41.747920" lon="0.858907">
        <ele>231.070</ele>
        <time>2021-08-19T14:32:48Z</time>
      </trkpt>
      <trkpt lat="41.747961" lon="0.858844">
        <ele>230.861</ele>
        <time>2021-08-19T14:32:50Z</time>
      </trkpt>
      <trkpt lat="41.748002" lon="0.858776">
        <ele>230.697</ele>
        <time>2021-08-19T14:32:52Z</time>
      </trkpt>
      <trkpt lat="41.748043" lon="0.858710">
        <ele>230.421</ele>
        <time>2021-08-19T14:32:54Z</time>
      </trkpt>
      <trkpt lat="41.748084" lon="0.858648">
        <ele>229.941</ele>
        <time>2021-08-19T14:32:56Z</time>
      </trkpt>
      <trkpt lat="41.748123" lon="0.858586">
        <ele>229.305</ele>
        <time>2021-08-19T14:32:58Z</time>
      </trkpt>
      <trkpt lat="41.748165" lon="0.858526">
        <ele>228.509</ele>
        <time>2021-08-19T14:33:00Z</time>
      </trkpt>
      <trkpt lat="41.748206" lon="0.858466">
        <ele>227.983</ele>
        <time>2021-08-19T14:33:02Z</time>
      </trkpt>
      <trkpt lat="41.748245" lon="0.858402">
        <ele>227.454</ele>
        <time>2021-08-19T14:33:04Z</time>
      </trkpt>
      <trkpt lat="41.748284" lon="0.858343">
        <ele>227.055</ele>
        <time>2021-08-19T14:33:06Z</time>
      </trkpt>
      <trkpt lat="41.748324" lon="0.858286">
        <ele>227.059</ele>
        <time>2021-08-19T14:33:08Z</time>
      </trkpt>
      <trkpt lat="41.748367" lon="0.858232">
        <ele>227.080</ele>
        <time>2021-08-19T14:33:10Z</time>
      </trkpt>
      <trkpt lat="41.748408" lon="0.858178">
        <ele>227.286</ele>
        <time>2021-08-19T14:33:12Z</time>
      </trkpt>
      <trkpt lat="41.748456" lon="0.858122">
        <ele>227.311</ele>
        <time>2021-08-19T14:33:14Z</time>
      </trkpt>
      <trkpt lat="41.748505" lon="0.858068">
        <ele>227.622</ele>
        <time>2021-08-19T14:33:16Z</time>
      </trkpt>
      <trkpt lat="41.748556" lon="0.858009">
        <ele>227.878</ele>
        <time>2021-08-19T14:33:18Z</time>
      </trkpt>
      <trkpt lat="41.748606" lon="0.857964">
        <ele>228.099</ele>
        <time>2021-08-19T14:33:20Z</time>
      </trkpt>
      <trkpt lat="41.748649" lon="0.857914">
        <ele>227.907</ele>
        <time>2021-08-19T14:33:22Z</time>
      </trkpt>
      <trkpt lat="41.748703" lon="0.857875">
        <ele>227.927</ele>
        <time>2021-08-19T14:33:24Z</time>
      </trkpt>
      <trkpt lat="41.748761" lon="0.857837">
        <ele>227.909</ele>
        <time>2021-08-19T14:33:26Z</time>
      </trkpt>
      <trkpt lat="41.748812" lon="0.857790">
        <ele>228.030</ele>
        <time>2021-08-19T14:33:28Z</time>
      </trkpt>
      <trkpt lat="41.748860" lon="0.857741">
        <ele>228.081</ele>
        <time>2021-08-19T14:33:30Z</time>
      </trkpt>
      <trkpt lat="41.748908" lon="0.857690">
        <ele>227.922</ele>
        <time>2021-08-19T14:33:32Z</time>
      </trkpt>
      <trkpt lat="41.748961" lon="0.857643">
        <ele>227.726</ele>
        <time>2021-08-19T14:33:34Z</time>
      </trkpt>
      <trkpt lat="41.749008" lon="0.857595">
        <ele>227.647</ele>
        <time>2021-08-19T14:33:36Z</time>
      </trkpt>
      <trkpt lat="41.749061" lon="0.857555">
        <ele>227.453</ele>
        <time>2021-08-19T14:33:38Z</time>
      </trkpt>
      <trkpt lat="41.749109" lon="0.857508">
        <ele>227.258</ele>
        <time>2021-08-19T14:33:40Z</time>
      </trkpt>
      <trkpt lat="41.749159" lon="0.857460">
        <ele>226.929</ele>
        <time>2021-08-19T14:33:42Z</time>
      </trkpt>
      <trkpt lat="41.749204" lon="0.857406">
        <ele>226.485</ele>
        <time>2021-08-19T14:33:44Z</time>
      </trkpt>
      <trkpt lat="41.749250" lon="0.857365">
        <ele>226.138</ele>
        <time>2021-08-19T14:33:46Z</time>
      </trkpt>
      <trkpt lat="41.749310" lon="0.857310">
        <ele>225.670</ele>
        <time>2021-08-19T14:33:48Z</time>
      </trkpt>
      <trkpt lat="41.749363" lon="0.857261">
        <ele>225.317</ele>
        <time>2021-08-19T14:33:50Z</time>
      </trkpt>
      <trkpt lat="41.749420" lon="0.857214">
        <ele>225.109</ele>
        <time>2021-08-19T14:33:52Z</time>
      </trkpt>
      <trkpt lat="41.749469" lon="0.857159">
        <ele>225.294</ele>
        <time>2021-08-19T14:33:54Z</time>
      </trkpt>
      <trkpt lat="41.749515" lon="0.857115">
        <ele>225.475</ele>
        <time>2021-08-19T14:33:56Z</time>
      </trkpt>
      <trkpt lat="41.749573" lon="0.857061">
        <ele>225.696</ele>
        <time>2021-08-19T14:33:58Z</time>
      </trkpt>
      <trkpt lat="41.749627" lon="0.857012">
        <ele>225.850</ele>
        <time>2021-08-19T14:34:00Z</time>
      </trkpt>
      <trkpt lat="41.749678" lon="0.856963">
        <ele>225.911</ele>
        <time>2021-08-19T14:34:02Z</time>
      </trkpt>
      <trkpt lat="41.749734" lon="0.856918">
        <ele>226.297</ele>
        <time>2021-08-19T14:34:04Z</time>
      </trkpt>
      <trkpt lat="41.749787" lon="0.856868">
        <ele>226.722</ele>
        <time>2021-08-19T14:34:06Z</time>
      </trkpt>
      <trkpt lat="41.749837" lon="0.856826">
        <ele>226.923</ele>
        <time>2021-08-19T14:34:08Z</time>
      </trkpt>
      <trkpt lat="41.749890" lon="0.856775">
        <ele>227.139</ele>
        <time>2021-08-19T14:34:10Z</time>
      </trkpt>
      <trkpt lat="41.749934" lon="0.856722">
        <ele>227.198</ele>
        <time>2021-08-19T14:34:12Z</time>
      </trkpt>
      <trkpt lat="41.749979" lon="0.856676">
        <ele>227.115</ele>
        <time>2021-08-19T14:34:14Z</time>
      </trkpt>
      <trkpt lat="41.750021" lon="0.856644">
        <ele>227.126</ele>
        <time>2021-08-19T14:34:16Z</time>
      </trkpt>
      <trkpt lat="41.750069" lon="0.856602">
        <ele>227.209</ele>
        <time>2021-08-19T14:34:18Z</time>
      </trkpt>
      <trkpt lat="41.750114" lon="0.856562">
        <ele>227.440</ele>
        <time>2021-08-19T14:34:20Z</time>
      </trkpt>
      <trkpt lat="41.750151" lon="0.856524">
        <ele>227.571</ele>
        <time>2021-08-19T14:34:22Z</time>
      </trkpt>
      <trkpt lat="41.750185" lon="0.856483">
        <ele>227.762</ele>
        <time>2021-08-19T14:34:53Z</time>
      </trkpt>
      <trkpt lat="41.750232" lon="0.856440">
        <ele>227.886</ele>
        <time>2021-08-19T14:34:56Z</time>
      </trkpt>
      <trkpt lat="41.750289" lon="0.856395">
        <ele>228.157</ele>
        <time>2021-08-19T14:34:58Z</time>
      </trkpt>
      <trkpt lat="41.750337" lon="0.856345">
        <ele>228.893</ele>
        <time>2021-08-19T14:35:00Z</time>
      </trkpt>
      <trkpt lat="41.750390" lon="0.856304">
        <ele>229.618</ele>
        <time>2021-08-19T14:35:02Z</time>
      </trkpt>
      <trkpt lat="41.750446" lon="0.856257">
        <ele>230.669</ele>
        <time>2021-08-19T14:35:04Z</time>
      </trkpt>
      <trkpt lat="41.750497" lon="0.856210">
        <ele>231.515</ele>
        <time>2021-08-19T14:35:06Z</time>
      </trkpt>
      <trkpt lat="41.750549" lon="0.856165">
        <ele>232.558</ele>
        <time>2021-08-19T14:35:08Z</time>
      </trkpt>
      <trkpt lat="41.750599" lon="0.856116">
        <ele>233.352</ele>
        <time>2021-08-19T14:35:10Z</time>
      </trkpt>
      <trkpt lat="41.750643" lon="0.856067">
        <ele>233.617</ele>
        <time>2021-08-19T14:35:12Z</time>
      </trkpt>
      <trkpt lat="41.750688" lon="0.856020">
        <ele>234.009</ele>
        <time>2021-08-19T14:35:13Z</time>
      </trkpt>
      <trkpt lat="41.750735" lon="0.855975">
        <ele>234.376</ele>
        <time>2021-08-19T14:35:15Z</time>
      </trkpt>
      <trkpt lat="41.750782" lon="0.855939">
        <ele>234.657</ele>
        <time>2021-08-19T14:35:17Z</time>
      </trkpt>
      <trkpt lat="41.750835" lon="0.855887">
        <ele>235.028</ele>
        <time>2021-08-19T14:35:19Z</time>
      </trkpt>
      <trkpt lat="41.750888" lon="0.855828">
        <ele>235.092</ele>
        <time>2021-08-19T14:35:21Z</time>
      </trkpt>
      <trkpt lat="41.750928" lon="0.855789">
        <ele>234.953</ele>
        <time>2021-08-19T14:35:23Z</time>
      </trkpt>
      <trkpt lat="41.750975" lon="0.855745">
        <ele>234.879</ele>
        <time>2021-08-19T14:35:24Z</time>
      </trkpt>
      <trkpt lat="41.751021" lon="0.855705">
        <ele>234.724</ele>
        <time>2021-08-19T14:35:26Z</time>
      </trkpt>
      <trkpt lat="41.751064" lon="0.855668">
        <ele>234.525</ele>
        <time>2021-08-19T14:35:28Z</time>
      </trkpt>
      <trkpt lat="41.751109" lon="0.855624">
        <ele>234.341</ele>
        <time>2021-08-19T14:35:29Z</time>
      </trkpt>
      <trkpt lat="41.751146" lon="0.855586">
        <ele>233.722</ele>
        <time>2021-08-19T14:35:31Z</time>
      </trkpt>
      <trkpt lat="41.751194" lon="0.855543">
        <ele>233.062</ele>
        <time>2021-08-19T14:35:33Z</time>
      </trkpt>
      <trkpt lat="41.751243" lon="0.855496">
        <ele>232.308</ele>
        <time>2021-08-19T14:35:35Z</time>
      </trkpt>
      <trkpt lat="41.751285" lon="0.855457">
        <ele>231.509</ele>
        <time>2021-08-19T14:35:36Z</time>
      </trkpt>
      <trkpt lat="41.751336" lon="0.855407">
        <ele>230.613</ele>
        <time>2021-08-19T14:35:38Z</time>
      </trkpt>
      <trkpt lat="41.751385" lon="0.855360">
        <ele>229.684</ele>
        <time>2021-08-19T14:35:40Z</time>
      </trkpt>
      <trkpt lat="41.751424" lon="0.855323">
        <ele>229.245</ele>
        <time>2021-08-19T14:35:41Z</time>
      </trkpt>
      <trkpt lat="41.751467" lon="0.855279">
        <ele>228.739</ele>
        <time>2021-08-19T14:35:43Z</time>
      </trkpt>
      <trkpt lat="41.751518" lon="0.855238">
        <ele>228.630</ele>
        <time>2021-08-19T14:35:44Z</time>
      </trkpt>
      <trkpt lat="41.751568" lon="0.855198">
        <ele>228.586</ele>
        <time>2021-08-19T14:35:46Z</time>
      </trkpt>
      <trkpt lat="41.751613" lon="0.855157">
        <ele>228.521</ele>
        <time>2021-08-19T14:35:48Z</time>
      </trkpt>
      <trkpt lat="41.751654" lon="0.855117">
        <ele>228.692</ele>
        <time>2021-08-19T14:35:49Z</time>
      </trkpt>
      <trkpt lat="41.751698" lon="0.855070">
        <ele>228.888</ele>
        <time>2021-08-19T14:35:51Z</time>
      </trkpt>
      <trkpt lat="41.751743" lon="0.855027">
        <ele>228.936</ele>
        <time>2021-08-19T14:35:53Z</time>
      </trkpt>
      <trkpt lat="41.751791" lon="0.854981">
        <ele>229.017</ele>
        <time>2021-08-19T14:35:55Z</time>
      </trkpt>
      <trkpt lat="41.751828" lon="0.854946">
        <ele>229.018</ele>
        <time>2021-08-19T14:35:56Z</time>
      </trkpt>
      <trkpt lat="41.751882" lon="0.854897">
        <ele>229.009</ele>
        <time>2021-08-19T14:35:58Z</time>
      </trkpt>
      <trkpt lat="41.751920" lon="0.854863">
        <ele>229.034</ele>
        <time>2021-08-19T14:36:00Z</time>
      </trkpt>
      <trkpt lat="41.751967" lon="0.854817">
        <ele>229.035</ele>
        <time>2021-08-19T14:36:02Z</time>
      </trkpt>
      <trkpt lat="41.752024" lon="0.854759">
        <ele>228.816</ele>
        <time>2021-08-19T14:36:04Z</time>
      </trkpt>
      <trkpt lat="41.752076" lon="0.854713">
        <ele>228.540</ele>
        <time>2021-08-19T14:36:06Z</time>
      </trkpt>
      <trkpt lat="41.752122" lon="0.854665">
        <ele>228.361</ele>
        <time>2021-08-19T14:36:08Z</time>
      </trkpt>
      <trkpt lat="41.752171" lon="0.854620">
        <ele>228.157</ele>
        <time>2021-08-19T14:36:10Z</time>
      </trkpt>
      <trkpt lat="41.752221" lon="0.854576">
        <ele>228.062</ele>
        <time>2021-08-19T14:36:12Z</time>
      </trkpt>
      <trkpt lat="41.752263" lon="0.854520">
        <ele>228.233</ele>
        <time>2021-08-19T14:36:14Z</time>
      </trkpt>
      <trkpt lat="41.752291" lon="0.854462">
        <ele>228.369</ele>
        <time>2021-08-19T14:36:16Z</time>
      </trkpt>
      <trkpt lat="41.752338" lon="0.854420">
        <ele>228.357</ele>
        <time>2021-08-19T14:36:18Z</time>
      </trkpt>
      <trkpt lat="41.752383" lon="0.854381">
        <ele>228.300</ele>
        <time>2021-08-19T14:36:20Z</time>
      </trkpt>
      <trkpt lat="41.752431" lon="0.854338">
        <ele>228.420</ele>
        <time>2021-08-19T14:36:22Z</time>
      </trkpt>
      <trkpt lat="41.752471" lon="0.854311">
        <ele>228.409</ele>
        <time>2021-08-19T14:36:24Z</time>
      </trkpt>
      <trkpt lat="41.752523" lon="0.854273">
        <ele>228.626</ele>
        <time>2021-08-19T14:36:26Z</time>
      </trkpt>
      <trkpt lat="41.752572" lon="0.854239">
        <ele>229.047</ele>
        <time>2021-08-19T14:36:28Z</time>
      </trkpt>
      <trkpt lat="41.752625" lon="0.854217">
        <ele>229.578</ele>
        <time>2021-08-19T14:36:30Z</time>
      </trkpt>
      <trkpt lat="41.752673" lon="0.854196">
        <ele>230.092</ele>
        <time>2021-08-19T14:36:32Z</time>
      </trkpt>
      <trkpt lat="41.752738" lon="0.854180">
        <ele>230.673</ele>
        <time>2021-08-19T14:36:35Z</time>
      </trkpt>
      <trkpt lat="41.752786" lon="0.854169">
        <ele>231.089</ele>
        <time>2021-08-19T14:36:37Z</time>
      </trkpt>
      <trkpt lat="41.752829" lon="0.854146">
        <ele>231.274</ele>
        <time>2021-08-19T14:36:39Z</time>
      </trkpt>
      <trkpt lat="41.752873" lon="0.854100">
        <ele>231.445</ele>
        <time>2021-08-19T14:36:41Z</time>
      </trkpt>
      <trkpt lat="41.752930" lon="0.854077">
        <ele>231.741</ele>
        <time>2021-08-19T14:36:43Z</time>
      </trkpt>
      <trkpt lat="41.752978" lon="0.854025">
        <ele>232.179</ele>
        <time>2021-08-19T14:36:45Z</time>
      </trkpt>
      <trkpt lat="41.753031" lon="0.853980">
        <ele>232.505</ele>
        <time>2021-08-19T14:36:47Z</time>
      </trkpt>
      <trkpt lat="41.753078" lon="0.853935">
        <ele>232.825</ele>
        <time>2021-08-19T14:36:49Z</time>
      </trkpt>
      <trkpt lat="41.753125" lon="0.853877">
        <ele>233.009</ele>
        <time>2021-08-19T14:36:51Z</time>
      </trkpt>
      <trkpt lat="41.753173" lon="0.853822">
        <ele>233.288</ele>
        <time>2021-08-19T14:36:53Z</time>
      </trkpt>
      <trkpt lat="41.753211" lon="0.853771">
        <ele>233.419</ele>
        <time>2021-08-19T14:36:55Z</time>
      </trkpt>
      <trkpt lat="41.753252" lon="0.853698">
        <ele>233.730</ele>
        <time>2021-08-19T14:36:57Z</time>
      </trkpt>
      <trkpt lat="41.753294" lon="0.853635">
        <ele>233.924</ele>
        <time>2021-08-19T14:36:59Z</time>
      </trkpt>
      <trkpt lat="41.753331" lon="0.853568">
        <ele>234.095</ele>
        <time>2021-08-19T14:37:01Z</time>
      </trkpt>
      <trkpt lat="41.753370" lon="0.853508">
        <ele>233.931</ele>
        <time>2021-08-19T14:37:03Z</time>
      </trkpt>
      <trkpt lat="41.753405" lon="0.853438">
        <ele>233.726</ele>
        <time>2021-08-19T14:37:05Z</time>
      </trkpt>
      <trkpt lat="41.753452" lon="0.853380">
        <ele>233.677</ele>
        <time>2021-08-19T14:37:07Z</time>
      </trkpt>
      <trkpt lat="41.753488" lon="0.853323">
        <ele>233.483</ele>
        <time>2021-08-19T14:37:09Z</time>
      </trkpt>
      <trkpt lat="41.753520" lon="0.853277">
        <ele>233.082</ele>
        <time>2021-08-19T14:37:11Z</time>
      </trkpt>
      <trkpt lat="41.753548" lon="0.853226">
        <ele>232.543</ele>
        <time>2021-08-19T14:37:12Z</time>
      </trkpt>
      <trkpt lat="41.753589" lon="0.853169">
        <ele>231.917</ele>
        <time>2021-08-19T14:37:14Z</time>
      </trkpt>
      <trkpt lat="41.753623" lon="0.853096">
        <ele>231.309</ele>
        <time>2021-08-19T14:37:16Z</time>
      </trkpt>
      <trkpt lat="41.753666" lon="0.853029">
        <ele>231.069</ele>
        <time>2021-08-19T14:37:18Z</time>
      </trkpt>
      <trkpt lat="41.753706" lon="0.852962">
        <ele>231.030</ele>
        <time>2021-08-19T14:37:20Z</time>
      </trkpt>
      <trkpt lat="41.753747" lon="0.852894">
        <ele>231.031</ele>
        <time>2021-08-19T14:37:22Z</time>
      </trkpt>
      <trkpt lat="41.753797" lon="0.852837">
        <ele>231.085</ele>
        <time>2021-08-19T14:37:24Z</time>
      </trkpt>
      <trkpt lat="41.753825" lon="0.852775">
        <ele>231.036</ele>
        <time>2021-08-19T14:37:26Z</time>
      </trkpt>
      <trkpt lat="41.753869" lon="0.852701">
        <ele>231.352</ele>
        <time>2021-08-19T14:37:28Z</time>
      </trkpt>
      <trkpt lat="41.753904" lon="0.852643">
        <ele>231.547</ele>
        <time>2021-08-19T14:37:30Z</time>
      </trkpt>
      <trkpt lat="41.753955" lon="0.852572">
        <ele>231.688</ele>
        <time>2021-08-19T14:37:32Z</time>
      </trkpt>
      <trkpt lat="41.753999" lon="0.852517">
        <ele>231.674</ele>
        <time>2021-08-19T14:37:34Z</time>
      </trkpt>
      <trkpt lat="41.754037" lon="0.852462">
        <ele>231.564</ele>
        <time>2021-08-19T14:37:36Z</time>
      </trkpt>
      <trkpt lat="41.754082" lon="0.852421">
        <ele>231.306</ele>
        <time>2021-08-19T14:37:38Z</time>
      </trkpt>
      <trkpt lat="41.754132" lon="0.852373">
        <ele>231.116</ele>
        <time>2021-08-19T14:37:40Z</time>
      </trkpt>
      <trkpt lat="41.754174" lon="0.852327">
        <ele>231.009</ele>
        <time>2021-08-19T14:37:42Z</time>
      </trkpt>
      <trkpt lat="41.754222" lon="0.852288">
        <ele>230.887</ele>
        <time>2021-08-19T14:37:44Z</time>
      </trkpt>
      <trkpt lat="41.754272" lon="0.852247">
        <ele>230.678</ele>
        <time>2021-08-19T14:37:46Z</time>
      </trkpt>
      <trkpt lat="41.754320" lon="0.852204">
        <ele>230.489</ele>
        <time>2021-08-19T14:37:48Z</time>
      </trkpt>
      <trkpt lat="41.754370" lon="0.852166">
        <ele>230.363</ele>
        <time>2021-08-19T14:37:50Z</time>
      </trkpt>
      <trkpt lat="41.754416" lon="0.852121">
        <ele>230.174</ele>
        <time>2021-08-19T14:37:52Z</time>
      </trkpt>
      <trkpt lat="41.754473" lon="0.852086">
        <ele>229.990</ele>
        <time>2021-08-19T14:37:54Z</time>
      </trkpt>
      <trkpt lat="41.754516" lon="0.852043">
        <ele>229.995</ele>
        <time>2021-08-19T14:37:56Z</time>
      </trkpt>
      <trkpt lat="41.754572" lon="0.851995">
        <ele>229.946</ele>
        <time>2021-08-19T14:37:58Z</time>
      </trkpt>
      <trkpt lat="41.754623" lon="0.851949">
        <ele>230.012</ele>
        <time>2021-08-19T14:38:00Z</time>
      </trkpt>
      <trkpt lat="41.754675" lon="0.851899">
        <ele>230.097</ele>
        <time>2021-08-19T14:38:02Z</time>
      </trkpt>
      <trkpt lat="41.754722" lon="0.851845">
        <ele>230.023</ele>
        <time>2021-08-19T14:38:04Z</time>
      </trkpt>
      <trkpt lat="41.754773" lon="0.851807">
        <ele>230.225</ele>
        <time>2021-08-19T14:38:06Z</time>
      </trkpt>
      <trkpt lat="41.754818" lon="0.851764">
        <ele>230.309</ele>
        <time>2021-08-19T14:38:08Z</time>
      </trkpt>
      <trkpt lat="41.754864" lon="0.851718">
        <ele>230.560</ele>
        <time>2021-08-19T14:38:10Z</time>
      </trkpt>
      <trkpt lat="41.754912" lon="0.851678">
        <ele>230.711</ele>
        <time>2021-08-19T14:38:12Z</time>
      </trkpt>
      <trkpt lat="41.754964" lon="0.851639">
        <ele>230.952</ele>
        <time>2021-08-19T14:38:14Z</time>
      </trkpt>
      <trkpt lat="41.755011" lon="0.851604">
        <ele>231.026</ele>
        <time>2021-08-19T14:38:16Z</time>
      </trkpt>
      <trkpt lat="41.755059" lon="0.851557">
        <ele>230.997</ele>
        <time>2021-08-19T14:38:18Z</time>
      </trkpt>
      <trkpt lat="41.755109" lon="0.851525">
        <ele>230.823</ele>
        <time>2021-08-19T14:38:20Z</time>
      </trkpt>
      <trkpt lat="41.755158" lon="0.851479">
        <ele>230.688</ele>
        <time>2021-08-19T14:38:22Z</time>
      </trkpt>
      <trkpt lat="41.755205" lon="0.851441">
        <ele>230.439</ele>
        <time>2021-08-19T14:38:24Z</time>
      </trkpt>
      <trkpt lat="41.755249" lon="0.851406">
        <ele>230.255</ele>
        <time>2021-08-19T14:38:26Z</time>
      </trkpt>
      <trkpt lat="41.755303" lon="0.851362">
        <ele>230.195</ele>
        <time>2021-08-19T14:38:28Z</time>
      </trkpt>
      <trkpt lat="41.755351" lon="0.851323">
        <ele>230.249</ele>
        <time>2021-08-19T14:38:30Z</time>
      </trkpt>
      <trkpt lat="41.755397" lon="0.851281">
        <ele>230.423</ele>
        <time>2021-08-19T14:38:32Z</time>
      </trkpt>
      <trkpt lat="41.755446" lon="0.851234">
        <ele>230.609</ele>
        <time>2021-08-19T14:38:34Z</time>
      </trkpt>
      <trkpt lat="41.755497" lon="0.851198">
        <ele>230.750</ele>
        <time>2021-08-19T14:38:36Z</time>
      </trkpt>
      <trkpt lat="41.755547" lon="0.851162">
        <ele>230.821</ele>
        <time>2021-08-19T14:38:38Z</time>
      </trkpt>
      <trkpt lat="41.755589" lon="0.851113">
        <ele>231.132</ele>
        <time>2021-08-19T14:38:40Z</time>
      </trkpt>
      <trkpt lat="41.755640" lon="0.851075">
        <ele>231.486</ele>
        <time>2021-08-19T14:38:42Z</time>
      </trkpt>
      <trkpt lat="41.755687" lon="0.851026">
        <ele>231.687</ele>
        <time>2021-08-19T14:38:44Z</time>
      </trkpt>
      <trkpt lat="41.755742" lon="0.850987">
        <ele>231.893</ele>
        <time>2021-08-19T14:38:46Z</time>
      </trkpt>
      <trkpt lat="41.755785" lon="0.850935">
        <ele>231.938</ele>
        <time>2021-08-19T14:38:48Z</time>
      </trkpt>
      <trkpt lat="41.755838" lon="0.850897">
        <ele>232.059</ele>
        <time>2021-08-19T14:38:50Z</time>
      </trkpt>
      <trkpt lat="41.755889" lon="0.850846">
        <ele>231.835</ele>
        <time>2021-08-19T14:38:52Z</time>
      </trkpt>
      <trkpt lat="41.755942" lon="0.850806">
        <ele>231.614</ele>
        <time>2021-08-19T14:38:54Z</time>
      </trkpt>
      <trkpt lat="41.755985" lon="0.850767">
        <ele>231.554</ele>
        <time>2021-08-19T14:38:56Z</time>
      </trkpt>
      <trkpt lat="41.756040" lon="0.850718">
        <ele>231.309</ele>
        <time>2021-08-19T14:38:58Z</time>
      </trkpt>
      <trkpt lat="41.756084" lon="0.850688">
        <ele>231.109</ele>
        <time>2021-08-19T14:39:00Z</time>
      </trkpt>
      <trkpt lat="41.756132" lon="0.850647">
        <ele>231.152</ele>
        <time>2021-08-19T14:39:02Z</time>
      </trkpt>
      <trkpt lat="41.756183" lon="0.850600">
        <ele>231.343</ele>
        <time>2021-08-19T14:39:04Z</time>
      </trkpt>
      <trkpt lat="41.756231" lon="0.850558">
        <ele>231.444</ele>
        <time>2021-08-19T14:39:06Z</time>
      </trkpt>
      <trkpt lat="41.756279" lon="0.850519">
        <ele>231.658</ele>
        <time>2021-08-19T14:39:08Z</time>
      </trkpt>
      <trkpt lat="41.756329" lon="0.850480">
        <ele>231.839</ele>
        <time>2021-08-19T14:39:10Z</time>
      </trkpt>
      <trkpt lat="41.756377" lon="0.850431">
        <ele>232.055</ele>
        <time>2021-08-19T14:39:12Z</time>
      </trkpt>
      <trkpt lat="41.756423" lon="0.850384">
        <ele>232.150</ele>
        <time>2021-08-19T14:39:14Z</time>
      </trkpt>
      <trkpt lat="41.756467" lon="0.850335">
        <ele>232.311</ele>
        <time>2021-08-19T14:39:16Z</time>
      </trkpt>
      <trkpt lat="41.756512" lon="0.850296">
        <ele>232.417</ele>
        <time>2021-08-19T14:39:18Z</time>
      </trkpt>
      <trkpt lat="41.756557" lon="0.850253">
        <ele>232.658</ele>
        <time>2021-08-19T14:39:20Z</time>
      </trkpt>
      <trkpt lat="41.756599" lon="0.850209">
        <ele>232.852</ele>
        <time>2021-08-19T14:39:22Z</time>
      </trkpt>
      <trkpt lat="41.756645" lon="0.850163">
        <ele>233.017</ele>
        <time>2021-08-19T14:39:24Z</time>
      </trkpt>
      <trkpt lat="41.756684" lon="0.850131">
        <ele>233.009</ele>
        <time>2021-08-19T14:39:26Z</time>
      </trkpt>
      <trkpt lat="41.756740" lon="0.850081">
        <ele>233.246</ele>
        <time>2021-08-19T14:39:28Z</time>
      </trkpt>
      <trkpt lat="41.756786" lon="0.850043">
        <ele>233.427</ele>
        <time>2021-08-19T14:39:30Z</time>
      </trkpt>
      <trkpt lat="41.756832" lon="0.849996">
        <ele>233.678</ele>
        <time>2021-08-19T14:39:32Z</time>
      </trkpt>
      <trkpt lat="41.756880" lon="0.849953">
        <ele>233.872</ele>
        <time>2021-08-19T14:39:34Z</time>
      </trkpt>
      <trkpt lat="41.756928" lon="0.849914">
        <ele>234.033</ele>
        <time>2021-08-19T14:39:36Z</time>
      </trkpt>
      <trkpt lat="41.756974" lon="0.849870">
        <ele>234.199</ele>
        <time>2021-08-19T14:39:38Z</time>
      </trkpt>
      <trkpt lat="41.757019" lon="0.849831">
        <ele>234.314</ele>
        <time>2021-08-19T14:39:40Z</time>
      </trkpt>
      <trkpt lat="41.757068" lon="0.849785">
        <ele>234.435</ele>
        <time>2021-08-19T14:39:42Z</time>
      </trkpt>
      <trkpt lat="41.757122" lon="0.849750">
        <ele>234.681</ele>
        <time>2021-08-19T14:39:44Z</time>
      </trkpt>
      <trkpt lat="41.757173" lon="0.849710">
        <ele>234.872</ele>
        <time>2021-08-19T14:39:46Z</time>
      </trkpt>
      <trkpt lat="41.757222" lon="0.849664">
        <ele>234.813</ele>
        <time>2021-08-19T14:39:48Z</time>
      </trkpt>
      <trkpt lat="41.757266" lon="0.849615">
        <ele>234.714</ele>
        <time>2021-08-19T14:39:50Z</time>
      </trkpt>
      <trkpt lat="41.757310" lon="0.849570">
        <ele>234.609</ele>
        <time>2021-08-19T14:39:52Z</time>
      </trkpt>
      <trkpt lat="41.757355" lon="0.849538">
        <ele>234.798</ele>
        <time>2021-08-19T14:39:54Z</time>
      </trkpt>
      <trkpt lat="41.757393" lon="0.849493">
        <ele>234.729</ele>
        <time>2021-08-19T14:39:56Z</time>
      </trkpt>
      <trkpt lat="41.757428" lon="0.849450">
        <ele>234.780</ele>
        <time>2021-08-19T14:39:58Z</time>
      </trkpt>
      <trkpt lat="41.757474" lon="0.849410">
        <ele>234.924</ele>
        <time>2021-08-19T14:40:00Z</time>
      </trkpt>
      <trkpt lat="41.757514" lon="0.849376">
        <ele>235.015</ele>
        <time>2021-08-19T14:40:02Z</time>
      </trkpt>
      <trkpt lat="41.757552" lon="0.849340">
        <ele>234.921</ele>
        <time>2021-08-19T14:40:04Z</time>
      </trkpt>
      <trkpt lat="41.757587" lon="0.849300">
        <ele>234.836</ele>
        <time>2021-08-19T14:40:06Z</time>
      </trkpt>
      <trkpt lat="41.757626" lon="0.849265">
        <ele>234.877</ele>
        <time>2021-08-19T14:40:08Z</time>
      </trkpt>
      <trkpt lat="41.757666" lon="0.849225">
        <ele>234.923</ele>
        <time>2021-08-19T14:40:10Z</time>
      </trkpt>
      <trkpt lat="41.757704" lon="0.849193">
        <ele>234.987</ele>
        <time>2021-08-19T14:40:12Z</time>
      </trkpt>
      <trkpt lat="41.757762" lon="0.849148">
        <ele>235.042</ele>
        <time>2021-08-19T14:40:15Z</time>
      </trkpt>
      <trkpt lat="41.757819" lon="0.849104">
        <ele>234.926</ele>
        <time>2021-08-19T14:40:18Z</time>
      </trkpt>
      <trkpt lat="41.757857" lon="0.849071">
        <ele>234.709</ele>
        <time>2021-08-19T14:40:20Z</time>
      </trkpt>
      <trkpt lat="41.757916" lon="0.849035">
        <ele>234.539</ele>
        <time>2021-08-19T14:40:23Z</time>
      </trkpt>
      <trkpt lat="41.757965" lon="0.849001">
        <ele>234.320</ele>
        <time>2021-08-19T14:40:26Z</time>
      </trkpt>
      <trkpt lat="41.758005" lon="0.848967">
        <ele>234.271</ele>
        <time>2021-08-19T14:40:28Z</time>
      </trkpt>
      <trkpt lat="41.758064" lon="0.848928">
        <ele>234.015</ele>
        <time>2021-08-19T14:40:31Z</time>
      </trkpt>
      <trkpt lat="41.758108" lon="0.848899">
        <ele>234.046</ele>
        <time>2021-08-19T14:40:33Z</time>
      </trkpt>
      <trkpt lat="41.758153" lon="0.848874">
        <ele>234.042</ele>
        <time>2021-08-19T14:40:35Z</time>
      </trkpt>
      <trkpt lat="41.758196" lon="0.848848">
        <ele>234.117</ele>
        <time>2021-08-19T14:40:37Z</time>
      </trkpt>
      <trkpt lat="41.758236" lon="0.848819">
        <ele>234.218</ele>
        <time>2021-08-19T14:40:39Z</time>
      </trkpt>
      <trkpt lat="41.758280" lon="0.848792">
        <ele>234.364</ele>
        <time>2021-08-19T14:40:41Z</time>
      </trkpt>
      <trkpt lat="41.758322" lon="0.848765">
        <ele>234.475</ele>
        <time>2021-08-19T14:40:43Z</time>
      </trkpt>
      <trkpt lat="41.758364" lon="0.848734">
        <ele>234.628</ele>
        <time>2021-08-19T14:40:45Z</time>
      </trkpt>
      <trkpt lat="41.758409" lon="0.848701">
        <ele>234.720</ele>
        <time>2021-08-19T14:40:47Z</time>
      </trkpt>
      <trkpt lat="41.758453" lon="0.848666">
        <ele>234.809</ele>
        <time>2021-08-19T14:40:49Z</time>
      </trkpt>
      <trkpt lat="41.758496" lon="0.848631">
        <ele>234.938</ele>
        <time>2021-08-19T14:40:51Z</time>
      </trkpt>
      <trkpt lat="41.758537" lon="0.848602">
        <ele>235.099</ele>
        <time>2021-08-19T14:40:53Z</time>
      </trkpt>
      <trkpt lat="41.758574" lon="0.848566">
        <ele>235.070</ele>
        <time>2021-08-19T14:40:55Z</time>
      </trkpt>
      <trkpt lat="41.758631" lon="0.848512">
        <ele>234.954</ele>
        <time>2021-08-19T14:40:58Z</time>
      </trkpt>
      <trkpt lat="41.758685" lon="0.848472">
        <ele>234.525</ele>
        <time>2021-08-19T14:41:01Z</time>
      </trkpt>
      <trkpt lat="41.758730" lon="0.848439">
        <ele>234.161</ele>
        <time>2021-08-19T14:41:04Z</time>
      </trkpt>
      <trkpt lat="41.758778" lon="0.848394">
        <ele>233.816</ele>
        <time>2021-08-19T14:41:08Z</time>
      </trkpt>
      <trkpt lat="41.758832" lon="0.848361">
        <ele>233.497</ele>
        <time>2021-08-19T14:41:11Z</time>
      </trkpt>
      <trkpt lat="41.758866" lon="0.848321">
        <ele>233.233</ele>
        <time>2021-08-19T14:41:13Z</time>
      </trkpt>
      <trkpt lat="41.758916" lon="0.848281">
        <ele>233.117</ele>
        <time>2021-08-19T14:41:15Z</time>
      </trkpt>
      <trkpt lat="41.758967" lon="0.848238">
        <ele>233.187</ele>
        <time>2021-08-19T14:41:17Z</time>
      </trkpt>
      <trkpt lat="41.759010" lon="0.848188">
        <ele>233.115</ele>
        <time>2021-08-19T14:41:19Z</time>
      </trkpt>
      <trkpt lat="41.759051" lon="0.848141">
        <ele>233.109</ele>
        <time>2021-08-19T14:41:21Z</time>
      </trkpt>
      <trkpt lat="41.759098" lon="0.848093">
        <ele>233.112</ele>
        <time>2021-08-19T14:41:23Z</time>
      </trkpt>
      <trkpt lat="41.759135" lon="0.848041">
        <ele>233.223</ele>
        <time>2021-08-19T14:41:25Z</time>
      </trkpt>
      <trkpt lat="41.759178" lon="0.848007">
        <ele>233.354</ele>
        <time>2021-08-19T14:41:27Z</time>
      </trkpt>
      <trkpt lat="41.759217" lon="0.847969">
        <ele>233.838</ele>
        <time>2021-08-19T14:41:28Z</time>
      </trkpt>
      <trkpt lat="41.759270" lon="0.847908">
        <ele>234.449</ele>
        <time>2021-08-19T14:41:30Z</time>
      </trkpt>
      <trkpt lat="41.759323" lon="0.847853">
        <ele>235.075</ele>
        <time>2021-08-19T14:41:32Z</time>
      </trkpt>
      <trkpt lat="41.759369" lon="0.847796">
        <ele>235.450</ele>
        <time>2021-08-19T14:41:34Z</time>
      </trkpt>
      <trkpt lat="41.759410" lon="0.847750">
        <ele>235.821</ele>
        <time>2021-08-19T14:41:36Z</time>
      </trkpt>
      <trkpt lat="41.759454" lon="0.847700">
        <ele>236.157</ele>
        <time>2021-08-19T14:41:38Z</time>
      </trkpt>
      <trkpt lat="41.759497" lon="0.847653">
        <ele>236.432</ele>
        <time>2021-08-19T14:41:40Z</time>
      </trkpt>
      <trkpt lat="41.759530" lon="0.847597">
        <ele>236.692</ele>
        <time>2021-08-19T14:41:42Z</time>
      </trkpt>
      <trkpt lat="41.759573" lon="0.847540">
        <ele>236.911</ele>
        <time>2021-08-19T14:41:44Z</time>
      </trkpt>
      <trkpt lat="41.759608" lon="0.847491">
        <ele>237.209</ele>
        <time>2021-08-19T14:41:46Z</time>
      </trkpt>
      <trkpt lat="41.759647" lon="0.847442">
        <ele>237.334</ele>
        <time>2021-08-19T14:41:48Z</time>
      </trkpt>
      <trkpt lat="41.759683" lon="0.847395">
        <ele>237.415</ele>
        <time>2021-08-19T14:41:50Z</time>
      </trkpt>
      <trkpt lat="41.759716" lon="0.847349">
        <ele>237.466</ele>
        <time>2021-08-19T14:41:52Z</time>
      </trkpt>
      <trkpt lat="41.759751" lon="0.847307">
        <ele>237.430</ele>
        <time>2021-08-19T14:41:54Z</time>
      </trkpt>
      <trkpt lat="41.759781" lon="0.847241">
        <ele>237.361</ele>
        <time>2021-08-19T14:41:57Z</time>
      </trkpt>
      <trkpt lat="41.759824" lon="0.847179">
        <ele>237.457</ele>
        <time>2021-08-19T14:41:59Z</time>
      </trkpt>
      <trkpt lat="41.759858" lon="0.847127">
        <ele>237.512</ele>
        <time>2021-08-19T14:42:01Z</time>
      </trkpt>
      <trkpt lat="41.759896" lon="0.847085">
        <ele>237.623</ele>
        <time>2021-08-19T14:42:03Z</time>
      </trkpt>
      <trkpt lat="41.759936" lon="0.847039">
        <ele>237.899</ele>
        <time>2021-08-19T14:42:05Z</time>
      </trkpt>
      <trkpt lat="41.759968" lon="0.846991">
        <ele>237.912</ele>
        <time>2021-08-19T14:42:07Z</time>
      </trkpt>
      <trkpt lat="41.760017" lon="0.846939">
        <ele>238.132</ele>
        <time>2021-08-19T14:42:10Z</time>
      </trkpt>
      <trkpt lat="41.760061" lon="0.846877">
        <ele>238.305</ele>
        <time>2021-08-19T14:42:13Z</time>
      </trkpt>
      <trkpt lat="41.760097" lon="0.846838">
        <ele>238.509</ele>
        <time>2021-08-19T14:42:15Z</time>
      </trkpt>
      <trkpt lat="41.760133" lon="0.846792">
        <ele>238.772</ele>
        <time>2021-08-19T14:42:17Z</time>
      </trkpt>
      <trkpt lat="41.760172" lon="0.846746">
        <ele>239.143</ele>
        <time>2021-08-19T14:42:19Z</time>
      </trkpt>
      <trkpt lat="41.760205" lon="0.846701">
        <ele>239.494</ele>
        <time>2021-08-19T14:42:21Z</time>
      </trkpt>
      <trkpt lat="41.760238" lon="0.846657">
        <ele>239.728</ele>
        <time>2021-08-19T14:42:23Z</time>
      </trkpt>
      <trkpt lat="41.760279" lon="0.846605">
        <ele>240.229</ele>
        <time>2021-08-19T14:42:26Z</time>
      </trkpt>
      <trkpt lat="41.760314" lon="0.846549">
        <ele>240.675</ele>
        <time>2021-08-19T14:42:28Z</time>
      </trkpt>
      <trkpt lat="41.760359" lon="0.846482">
        <ele>241.010</ele>
        <time>2021-08-19T14:42:31Z</time>
      </trkpt>
      <trkpt lat="41.760390" lon="0.846434">
        <ele>241.231</ele>
        <time>2021-08-19T14:42:33Z</time>
      </trkpt>
      <trkpt lat="41.760420" lon="0.846387">
        <ele>241.597</ele>
        <time>2021-08-19T14:42:35Z</time>
      </trkpt>
      <trkpt lat="41.760457" lon="0.846344">
        <ele>241.686</ele>
        <time>2021-08-19T14:42:37Z</time>
      </trkpt>
      <trkpt lat="41.760493" lon="0.846302">
        <ele>241.860</ele>
        <time>2021-08-19T14:42:39Z</time>
      </trkpt>
      <trkpt lat="41.760536" lon="0.846238">
        <ele>241.926</ele>
        <time>2021-08-19T14:42:42Z</time>
      </trkpt>
      <trkpt lat="41.760584" lon="0.846192">
        <ele>241.909</ele>
        <time>2021-08-19T14:42:45Z</time>
      </trkpt>
      <trkpt lat="41.760624" lon="0.846131">
        <ele>241.849</ele>
        <time>2021-08-19T14:42:48Z</time>
      </trkpt>
      <trkpt lat="41.760659" lon="0.846076">
        <ele>241.720</ele>
        <time>2021-08-19T14:42:51Z</time>
      </trkpt>
      <trkpt lat="41.760693" lon="0.846030">
        <ele>241.781</ele>
        <time>2021-08-19T14:42:54Z</time>
      </trkpt>
      <trkpt lat="41.760733" lon="0.845980">
        <ele>241.765</ele>
        <time>2021-08-19T14:42:57Z</time>
      </trkpt>
      <trkpt lat="41.760770" lon="0.845928">
        <ele>241.766</ele>
        <time>2021-08-19T14:43:00Z</time>
      </trkpt>
      <trkpt lat="41.760810" lon="0.845874">
        <ele>241.932</ele>
        <time>2021-08-19T14:43:03Z</time>
      </trkpt>
      <trkpt lat="41.760848" lon="0.845818">
        <ele>242.067</ele>
        <time>2021-08-19T14:43:06Z</time>
      </trkpt>
      <trkpt lat="41.760894" lon="0.845761">
        <ele>241.998</ele>
        <time>2021-08-19T14:43:09Z</time>
      </trkpt>
      <trkpt lat="41.760936" lon="0.845714">
        <ele>241.924</ele>
        <time>2021-08-19T14:43:12Z</time>
      </trkpt>
      <trkpt lat="41.760981" lon="0.845660">
        <ele>242.131</ele>
        <time>2021-08-19T14:43:15Z</time>
      </trkpt>
      <trkpt lat="41.761019" lon="0.845615">
        <ele>242.461</ele>
        <time>2021-08-19T14:43:18Z</time>
      </trkpt>
      <trkpt lat="41.761058" lon="0.845584">
        <ele>242.607</ele>
        <time>2021-08-19T14:47:04Z</time>
      </trkpt>
      <trkpt lat="41.761098" lon="0.845531">
        <ele>243.009</ele>
        <time>2021-08-19T14:48:42Z</time>
      </trkpt>
      <trkpt lat="41.761131" lon="0.845479">
        <ele>243.354</ele>
        <time>2021-08-19T14:48:45Z</time>
      </trkpt>
      <trkpt lat="41.761177" lon="0.845449">
        <ele>243.585</ele>
        <time>2021-08-19T14:48:49Z</time>
      </trkpt>
      <trkpt lat="41.761215" lon="0.845399">
        <ele>243.736</ele>
        <time>2021-08-19T14:48:52Z</time>
      </trkpt>
      <trkpt lat="41.761250" lon="0.845353">
        <ele>243.990</ele>
        <time>2021-08-19T14:48:55Z</time>
      </trkpt>
      <trkpt lat="41.761296" lon="0.845318">
        <ele>244.021</ele>
        <time>2021-08-19T14:48:58Z</time>
      </trkpt>
      <trkpt lat="41.761341" lon="0.845280">
        <ele>244.047</ele>
        <time>2021-08-19T14:49:01Z</time>
      </trkpt>
      <trkpt lat="41.761387" lon="0.845232">
        <ele>244.072</ele>
        <time>2021-08-19T14:49:04Z</time>
      </trkpt>
      <trkpt lat="41.761429" lon="0.845183">
        <ele>244.063</ele>
        <time>2021-08-19T14:49:06Z</time>
      </trkpt>
      <trkpt lat="41.761478" lon="0.845143">
        <ele>243.859</ele>
        <time>2021-08-19T14:49:09Z</time>
      </trkpt>
      <trkpt lat="41.761519" lon="0.845105">
        <ele>243.725</ele>
        <time>2021-08-19T14:49:11Z</time>
      </trkpt>
      <trkpt lat="41.761560" lon="0.845066">
        <ele>243.526</ele>
        <time>2021-08-19T14:49:13Z</time>
      </trkpt>
      <trkpt lat="41.761604" lon="0.845036">
        <ele>243.308</ele>
        <time>2021-08-19T14:49:15Z</time>
      </trkpt>
      <trkpt lat="41.761650" lon="0.844997">
        <ele>243.009</ele>
        <time>2021-08-19T14:49:18Z</time>
      </trkpt>
      <trkpt lat="41.761691" lon="0.844961">
        <ele>242.933</ele>
        <time>2021-08-19T14:49:20Z</time>
      </trkpt>
      <trkpt lat="41.761733" lon="0.844936">
        <ele>243.094</ele>
        <time>2021-08-19T14:49:22Z</time>
      </trkpt>
      <trkpt lat="41.761779" lon="0.844896">
        <ele>243.025</ele>
        <time>2021-08-19T14:49:25Z</time>
      </trkpt>
      <trkpt lat="41.761820" lon="0.844858">
        <ele>243.019</ele>
        <time>2021-08-19T14:49:27Z</time>
      </trkpt>
      <trkpt lat="41.761859" lon="0.844826">
        <ele>243.120</ele>
        <time>2021-08-19T14:49:29Z</time>
      </trkpt>
      <trkpt lat="41.761902" lon="0.844792">
        <ele>243.126</ele>
        <time>2021-08-19T14:49:31Z</time>
      </trkpt>
      <trkpt lat="41.761951" lon="0.844751">
        <ele>243.281</ele>
        <time>2021-08-19T14:49:33Z</time>
      </trkpt>
      <trkpt lat="41.761992" lon="0.844714">
        <ele>243.352</ele>
        <time>2021-08-19T14:49:35Z</time>
      </trkpt>
      <trkpt lat="41.762042" lon="0.844684">
        <ele>243.738</ele>
        <time>2021-08-19T14:49:38Z</time>
      </trkpt>
      <trkpt lat="41.762087" lon="0.844640">
        <ele>244.099</ele>
        <time>2021-08-19T14:49:40Z</time>
      </trkpt>
      <trkpt lat="41.762131" lon="0.844607">
        <ele>244.307</ele>
        <time>2021-08-19T14:49:42Z</time>
      </trkpt>
      <trkpt lat="41.762182" lon="0.844570">
        <ele>244.727</ele>
        <time>2021-08-19T14:49:45Z</time>
      </trkpt>
      <trkpt lat="41.762225" lon="0.844534">
        <ele>245.009</ele>
        <time>2021-08-19T14:49:47Z</time>
      </trkpt>
      <trkpt lat="41.762267" lon="0.844507">
        <ele>245.370</ele>
        <time>2021-08-19T14:49:49Z</time>
      </trkpt>
      <trkpt lat="41.762313" lon="0.844472">
        <ele>245.791</ele>
        <time>2021-08-19T14:49:52Z</time>
      </trkpt>
      <trkpt lat="41.762371" lon="0.844419">
        <ele>246.012</ele>
        <time>2021-08-19T14:49:55Z</time>
      </trkpt>
      <trkpt lat="41.762432" lon="0.844380">
        <ele>246.336</ele>
        <time>2021-08-19T14:49:58Z</time>
      </trkpt>
      <trkpt lat="41.762485" lon="0.844345">
        <ele>246.667</ele>
        <time>2021-08-19T14:50:01Z</time>
      </trkpt>
      <trkpt lat="41.762522" lon="0.844307">
        <ele>246.613</ele>
        <time>2021-08-19T14:50:03Z</time>
      </trkpt>
      <trkpt lat="41.762570" lon="0.844265">
        <ele>246.628</ele>
        <time>2021-08-19T14:50:06Z</time>
      </trkpt>
      <trkpt lat="41.762620" lon="0.844216">
        <ele>246.649</ele>
        <time>2021-08-19T14:50:09Z</time>
      </trkpt>
      <trkpt lat="41.762666" lon="0.844174">
        <ele>246.665</ele>
        <time>2021-08-19T14:50:12Z</time>
      </trkpt>
      <trkpt lat="41.762706" lon="0.844142">
        <ele>246.764</ele>
        <time>2021-08-19T14:50:14Z</time>
      </trkpt>
      <trkpt lat="41.762750" lon="0.844112">
        <ele>246.706</ele>
        <time>2021-08-19T14:50:17Z</time>
      </trkpt>
      <trkpt lat="41.762794" lon="0.844078">
        <ele>246.716</ele>
        <time>2021-08-19T14:50:20Z</time>
      </trkpt>
      <trkpt lat="41.762845" lon="0.844061">
        <ele>246.709</ele>
        <time>2021-08-19T14:50:23Z</time>
      </trkpt>
      <trkpt lat="41.762890" lon="0.844032">
        <ele>246.757</ele>
        <time>2021-08-19T14:50:27Z</time>
      </trkpt>
      <trkpt lat="41.762932" lon="0.844004">
        <ele>246.738</ele>
        <time>2021-08-19T14:50:29Z</time>
      </trkpt>
      <trkpt lat="41.762980" lon="0.843982">
        <ele>246.889</ele>
        <time>2021-08-19T14:50:31Z</time>
      </trkpt>
      <trkpt lat="41.763023" lon="0.843953">
        <ele>246.953</ele>
        <time>2021-08-19T14:50:33Z</time>
      </trkpt>
      <trkpt lat="41.763083" lon="0.843919">
        <ele>247.054</ele>
        <time>2021-08-19T14:50:36Z</time>
      </trkpt>
      <trkpt lat="41.763135" lon="0.843883">
        <ele>247.080</ele>
        <time>2021-08-19T14:50:38Z</time>
      </trkpt>
      <trkpt lat="41.763183" lon="0.843848">
        <ele>246.925</ele>
        <time>2021-08-19T14:50:41Z</time>
      </trkpt>
      <trkpt lat="41.763224" lon="0.843820">
        <ele>246.846</ele>
        <time>2021-08-19T14:50:43Z</time>
      </trkpt>
      <trkpt lat="41.763274" lon="0.843789">
        <ele>246.692</ele>
        <time>2021-08-19T14:50:45Z</time>
      </trkpt>
      <trkpt lat="41.763320" lon="0.843761">
        <ele>246.587</ele>
        <time>2021-08-19T14:50:47Z</time>
      </trkpt>
      <trkpt lat="41.763377" lon="0.843729">
        <ele>246.442</ele>
        <time>2021-08-19T14:50:50Z</time>
      </trkpt>
      <trkpt lat="41.763427" lon="0.843703">
        <ele>246.326</ele>
        <time>2021-08-19T14:50:52Z</time>
      </trkpt>
      <trkpt lat="41.763479" lon="0.843675">
        <ele>246.209</ele>
        <time>2021-08-19T14:50:54Z</time>
      </trkpt>
      <trkpt lat="41.763522" lon="0.843639">
        <ele>246.179</ele>
        <time>2021-08-19T14:50:56Z</time>
      </trkpt>
      <trkpt lat="41.763564" lon="0.843601">
        <ele>246.070</ele>
        <time>2021-08-19T14:50:58Z</time>
      </trkpt>
      <trkpt lat="41.763609" lon="0.843582">
        <ele>245.911</ele>
        <time>2021-08-19T14:51:00Z</time>
      </trkpt>
      <trkpt lat="41.763655" lon="0.843560">
        <ele>245.845</ele>
        <time>2021-08-19T14:51:02Z</time>
      </trkpt>
      <trkpt lat="41.763700" lon="0.843537">
        <ele>245.836</ele>
        <time>2021-08-19T14:51:04Z</time>
      </trkpt>
      <trkpt lat="41.763741" lon="0.843506">
        <ele>245.862</ele>
        <time>2021-08-19T14:51:06Z</time>
      </trkpt>
      <trkpt lat="41.763784" lon="0.843479">
        <ele>245.887</ele>
        <time>2021-08-19T14:51:08Z</time>
      </trkpt>
      <trkpt lat="41.763827" lon="0.843455">
        <ele>245.988</ele>
        <time>2021-08-19T14:51:10Z</time>
      </trkpt>
      <trkpt lat="41.763868" lon="0.843421">
        <ele>245.924</ele>
        <time>2021-08-19T14:51:12Z</time>
      </trkpt>
      <trkpt lat="41.763913" lon="0.843394">
        <ele>246.095</ele>
        <time>2021-08-19T14:51:14Z</time>
      </trkpt>
      <trkpt lat="41.763956" lon="0.843362">
        <ele>246.049</ele>
        <time>2021-08-19T14:51:16Z</time>
      </trkpt>
      <trkpt lat="41.764019" lon="0.843319">
        <ele>246.023</ele>
        <time>2021-08-19T14:51:19Z</time>
      </trkpt>
      <trkpt lat="41.764064" lon="0.843298">
        <ele>246.009</ele>
        <time>2021-08-19T14:51:21Z</time>
      </trkpt>
      <trkpt lat="41.764109" lon="0.843271">
        <ele>246.060</ele>
        <time>2021-08-19T14:51:23Z</time>
      </trkpt>
      <trkpt lat="41.764161" lon="0.843239">
        <ele>246.011</ele>
        <time>2021-08-19T14:51:26Z</time>
      </trkpt>
      <trkpt lat="41.764210" lon="0.843214">
        <ele>246.352</ele>
        <time>2021-08-19T14:51:28Z</time>
      </trkpt>
      <trkpt lat="41.764260" lon="0.843178">
        <ele>246.736</ele>
        <time>2021-08-19T14:51:30Z</time>
      </trkpt>
      <trkpt lat="41.764304" lon="0.843158">
        <ele>247.047</ele>
        <time>2021-08-19T14:51:32Z</time>
      </trkpt>
      <trkpt lat="41.764362" lon="0.843120">
        <ele>247.463</ele>
        <time>2021-08-19T14:51:35Z</time>
      </trkpt>
      <trkpt lat="41.764406" lon="0.843100">
        <ele>247.788</ele>
        <time>2021-08-19T14:51:37Z</time>
      </trkpt>
      <trkpt lat="41.764459" lon="0.843062">
        <ele>248.199</ele>
        <time>2021-08-19T14:51:40Z</time>
      </trkpt>
      <trkpt lat="41.764513" lon="0.843028">
        <ele>248.365</ele>
        <time>2021-08-19T14:51:43Z</time>
      </trkpt>
      <trkpt lat="41.764569" lon="0.842999">
        <ele>248.755</ele>
        <time>2021-08-19T14:51:46Z</time>
      </trkpt>
      <trkpt lat="41.764633" lon="0.842961">
        <ele>249.007</ele>
        <time>2021-08-19T14:51:49Z</time>
      </trkpt>
      <trkpt lat="41.764689" lon="0.842940">
        <ele>249.317</ele>
        <time>2021-08-19T14:51:52Z</time>
      </trkpt>
      <trkpt lat="41.764734" lon="0.842899">
        <ele>249.609</ele>
        <time>2021-08-19T14:51:55Z</time>
      </trkpt>
      <trkpt lat="41.764775" lon="0.842861">
        <ele>249.986</ele>
        <time>2021-08-19T14:51:58Z</time>
      </trkpt>
      <trkpt lat="41.764821" lon="0.842845">
        <ele>250.147</ele>
        <time>2021-08-19T14:52:13Z</time>
      </trkpt>
      <trkpt lat="41.764865" lon="0.842833">
        <ele>250.388</ele>
        <time>2021-08-19T14:52:17Z</time>
      </trkpt>
      <trkpt lat="41.764921" lon="0.842825">
        <ele>250.592</ele>
        <time>2021-08-19T14:52:20Z</time>
      </trkpt>
      <trkpt lat="41.764971" lon="0.842806">
        <ele>250.833</ele>
        <time>2021-08-19T14:52:22Z</time>
      </trkpt>
      <trkpt lat="41.765017" lon="0.842796">
        <ele>250.919</ele>
        <time>2021-08-19T14:52:24Z</time>
      </trkpt>
      <trkpt lat="41.765066" lon="0.842781">
        <ele>250.814</ele>
        <time>2021-08-19T14:52:25Z</time>
      </trkpt>
      <trkpt lat="41.765137" lon="0.842762">
        <ele>250.565</ele>
        <time>2021-08-19T14:52:28Z</time>
      </trkpt>
      <trkpt lat="41.765184" lon="0.842759">
        <ele>250.341</ele>
        <time>2021-08-19T14:52:29Z</time>
      </trkpt>
      <trkpt lat="41.765246" lon="0.842744">
        <ele>250.119</ele>
        <time>2021-08-19T14:52:30Z</time>
      </trkpt>
      <trkpt lat="41.765296" lon="0.842730">
        <ele>250.009</ele>
        <time>2021-08-19T14:52:31Z</time>
      </trkpt>
      <trkpt lat="41.765343" lon="0.842715">
        <ele>249.919</ele>
        <time>2021-08-19T14:52:32Z</time>
      </trkpt>
      <trkpt lat="41.765430" lon="0.842674">
        <ele>249.809</ele>
        <time>2021-08-19T14:52:34Z</time>
      </trkpt>
      <trkpt lat="41.765520" lon="0.842627">
        <ele>249.552</ele>
        <time>2021-08-19T14:52:36Z</time>
      </trkpt>
      <trkpt lat="41.765605" lon="0.842566">
        <ele>249.133</ele>
        <time>2021-08-19T14:52:38Z</time>
      </trkpt>
      <trkpt lat="41.765693" lon="0.842501">
        <ele>248.514</ele>
        <time>2021-08-19T14:52:40Z</time>
      </trkpt>
      <trkpt lat="41.765785" lon="0.842443">
        <ele>248.018</ele>
        <time>2021-08-19T14:52:42Z</time>
      </trkpt>
      <trkpt lat="41.765832" lon="0.842411">
        <ele>247.739</ele>
        <time>2021-08-19T14:52:43Z</time>
      </trkpt>
      <trkpt lat="41.765926" lon="0.842343">
        <ele>246.975</ele>
        <time>2021-08-19T14:52:45Z</time>
      </trkpt>
      <trkpt lat="41.766010" lon="0.842266">
        <ele>246.090</ele>
        <time>2021-08-19T14:52:47Z</time>
      </trkpt>
      <trkpt lat="41.766052" lon="0.842225">
        <ele>245.481</ele>
        <time>2021-08-19T14:52:48Z</time>
      </trkpt>
      <trkpt lat="41.766132" lon="0.842143">
        <ele>244.687</ele>
        <time>2021-08-19T14:52:50Z</time>
      </trkpt>
      <trkpt lat="41.766173" lon="0.842103">
        <ele>244.333</ele>
        <time>2021-08-19T14:52:51Z</time>
      </trkpt>
      <trkpt lat="41.766214" lon="0.842061">
        <ele>244.123</ele>
        <time>2021-08-19T14:52:52Z</time>
      </trkpt>
      <trkpt lat="41.766294" lon="0.841981">
        <ele>244.015</ele>
        <time>2021-08-19T14:52:54Z</time>
      </trkpt>
      <trkpt lat="41.766333" lon="0.841939">
        <ele>244.009</ele>
        <time>2021-08-19T14:52:55Z</time>
      </trkpt>
      <trkpt lat="41.766411" lon="0.841860">
        <ele>244.224</ele>
        <time>2021-08-19T14:52:57Z</time>
      </trkpt>
      <trkpt lat="41.766481" lon="0.841794">
        <ele>244.415</ele>
        <time>2021-08-19T14:52:59Z</time>
      </trkpt>
      <trkpt lat="41.766543" lon="0.841726">
        <ele>244.766</ele>
        <time>2021-08-19T14:53:01Z</time>
      </trkpt>
      <trkpt lat="41.766605" lon="0.841659">
        <ele>245.040</ele>
        <time>2021-08-19T14:53:03Z</time>
      </trkpt>
      <trkpt lat="41.766661" lon="0.841583">
        <ele>245.011</ele>
        <time>2021-08-19T14:53:05Z</time>
      </trkpt>
      <trkpt lat="41.766709" lon="0.841514">
        <ele>244.737</ele>
        <time>2021-08-19T14:53:07Z</time>
      </trkpt>
      <trkpt lat="41.766753" lon="0.841445">
        <ele>244.412</ele>
        <time>2021-08-19T14:53:09Z</time>
      </trkpt>
      <trkpt lat="41.766792" lon="0.841369">
        <ele>244.043</ele>
        <time>2021-08-19T14:53:11Z</time>
      </trkpt>
      <trkpt lat="41.766831" lon="0.841300">
        <ele>243.569</ele>
        <time>2021-08-19T14:53:13Z</time>
      </trkpt>
      <trkpt lat="41.766872" lon="0.841224">
        <ele>242.986</ele>
        <time>2021-08-19T14:53:15Z</time>
      </trkpt>
      <trkpt lat="41.766917" lon="0.841143">
        <ele>242.360</ele>
        <time>2021-08-19T14:53:17Z</time>
      </trkpt>
      <trkpt lat="41.766969" lon="0.841054">
        <ele>241.626</ele>
        <time>2021-08-19T14:53:19Z</time>
      </trkpt>
      <trkpt lat="41.767015" lon="0.840978">
        <ele>241.009</ele>
        <time>2021-08-19T14:53:21Z</time>
      </trkpt>
      <trkpt lat="41.767062" lon="0.840900">
        <ele>240.469</ele>
        <time>2021-08-19T14:53:23Z</time>
      </trkpt>
      <trkpt lat="41.767105" lon="0.840821">
        <ele>239.830</ele>
        <time>2021-08-19T14:53:25Z</time>
      </trkpt>
      <trkpt lat="41.767148" lon="0.840739">
        <ele>239.591</ele>
        <time>2021-08-19T14:53:27Z</time>
      </trkpt>
      <trkpt lat="41.767206" lon="0.840654">
        <ele>239.165</ele>
        <time>2021-08-19T14:53:29Z</time>
      </trkpt>
      <trkpt lat="41.767280" lon="0.840546">
        <ele>239.056</ele>
        <time>2021-08-19T14:53:31Z</time>
      </trkpt>
      <trkpt lat="41.767345" lon="0.840451">
        <ele>239.052</ele>
        <time>2021-08-19T14:53:33Z</time>
      </trkpt>
      <trkpt lat="41.767399" lon="0.840384">
        <ele>239.067</ele>
        <time>2021-08-19T14:53:35Z</time>
      </trkpt>
      <trkpt lat="41.767468" lon="0.840310">
        <ele>239.028</ele>
        <time>2021-08-19T14:53:37Z</time>
      </trkpt>
      <trkpt lat="41.767509" lon="0.840258">
        <ele>238.914</ele>
        <time>2021-08-19T14:53:38Z</time>
      </trkpt>
      <trkpt lat="41.767566" lon="0.840173">
        <ele>238.651</ele>
        <time>2021-08-19T14:53:40Z</time>
      </trkpt>
      <trkpt lat="41.767626" lon="0.840103">
        <ele>238.401</ele>
        <time>2021-08-19T14:53:42Z</time>
      </trkpt>
      <trkpt lat="41.767687" lon="0.840010">
        <ele>238.011</ele>
        <time>2021-08-19T14:53:44Z</time>
      </trkpt>
      <trkpt lat="41.767749" lon="0.839914">
        <ele>237.709</ele>
        <time>2021-08-19T14:53:46Z</time>
      </trkpt>
      <trkpt lat="41.767804" lon="0.839820">
        <ele>237.426</ele>
        <time>2021-08-19T14:53:48Z</time>
      </trkpt>
      <trkpt lat="41.767860" lon="0.839740">
        <ele>237.487</ele>
        <time>2021-08-19T14:53:50Z</time>
      </trkpt>
      <trkpt lat="41.767906" lon="0.839650">
        <ele>237.398</ele>
        <time>2021-08-19T14:53:52Z</time>
      </trkpt>
      <trkpt lat="41.767958" lon="0.839563">
        <ele>237.472</ele>
        <time>2021-08-19T14:53:54Z</time>
      </trkpt>
      <trkpt lat="41.768009" lon="0.839497">
        <ele>237.723</ele>
        <time>2021-08-19T14:53:56Z</time>
      </trkpt>
      <trkpt lat="41.768061" lon="0.839407">
        <ele>238.089</ele>
        <time>2021-08-19T14:53:58Z</time>
      </trkpt>
      <trkpt lat="41.768114" lon="0.839317">
        <ele>238.264</ele>
        <time>2021-08-19T14:54:00Z</time>
      </trkpt>
      <trkpt lat="41.768161" lon="0.839227">
        <ele>238.475</ele>
        <time>2021-08-19T14:54:02Z</time>
      </trkpt>
      <trkpt lat="41.768214" lon="0.839155">
        <ele>238.691</ele>
        <time>2021-08-19T14:54:04Z</time>
      </trkpt>
      <trkpt lat="41.768264" lon="0.839088">
        <ele>238.847</ele>
        <time>2021-08-19T14:54:06Z</time>
      </trkpt>
      <trkpt lat="41.768319" lon="0.839031">
        <ele>238.929</ele>
        <time>2021-08-19T14:54:08Z</time>
      </trkpt>
      <trkpt lat="41.768378" lon="0.838988">
        <ele>239.121</ele>
        <time>2021-08-19T14:54:10Z</time>
      </trkpt>
      <trkpt lat="41.768425" lon="0.838941">
        <ele>239.109</ele>
        <time>2021-08-19T14:54:12Z</time>
      </trkpt>
      <trkpt lat="41.768474" lon="0.838902">
        <ele>239.095</ele>
        <time>2021-08-19T14:54:14Z</time>
      </trkpt>
      <trkpt lat="41.768542" lon="0.838859">
        <ele>238.966</ele>
        <time>2021-08-19T14:54:16Z</time>
      </trkpt>
      <trkpt lat="41.768608" lon="0.838815">
        <ele>238.747</ele>
        <time>2021-08-19T14:54:18Z</time>
      </trkpt>
      <trkpt lat="41.768671" lon="0.838759">
        <ele>238.781</ele>
        <time>2021-08-19T14:54:20Z</time>
      </trkpt>
      <trkpt lat="41.768731" lon="0.838712">
        <ele>238.832</ele>
        <time>2021-08-19T14:54:22Z</time>
      </trkpt>
      <trkpt lat="41.768798" lon="0.838658">
        <ele>238.898</ele>
        <time>2021-08-19T14:54:24Z</time>
      </trkpt>
      <trkpt lat="41.768867" lon="0.838604">
        <ele>238.923</ele>
        <time>2021-08-19T14:54:26Z</time>
      </trkpt>
      <trkpt lat="41.768935" lon="0.838550">
        <ele>239.064</ele>
        <time>2021-08-19T14:54:28Z</time>
      </trkpt>
      <trkpt lat="41.769002" lon="0.838497">
        <ele>239.090</ele>
        <time>2021-08-19T14:54:30Z</time>
      </trkpt>
      <trkpt lat="41.769068" lon="0.838437">
        <ele>239.046</ele>
        <time>2021-08-19T14:54:32Z</time>
      </trkpt>
      <trkpt lat="41.769131" lon="0.838378">
        <ele>239.088</ele>
        <time>2021-08-19T14:54:34Z</time>
      </trkpt>
      <trkpt lat="41.769197" lon="0.838325">
        <ele>238.816</ele>
        <time>2021-08-19T14:54:36Z</time>
      </trkpt>
      <trkpt lat="41.769259" lon="0.838289">
        <ele>238.209</ele>
        <time>2021-08-19T14:54:38Z</time>
      </trkpt>
      <trkpt lat="41.769317" lon="0.838243">
        <ele>237.875</ele>
        <time>2021-08-19T14:54:40Z</time>
      </trkpt>
      <trkpt lat="41.769379" lon="0.838193">
        <ele>237.436</ele>
        <time>2021-08-19T14:54:42Z</time>
      </trkpt>
      <trkpt lat="41.769442" lon="0.838146">
        <ele>237.037</ele>
        <time>2021-08-19T14:54:44Z</time>
      </trkpt>
      <trkpt lat="41.769500" lon="0.838100">
        <ele>236.661</ele>
        <time>2021-08-19T14:54:46Z</time>
      </trkpt>
      <trkpt lat="41.769563" lon="0.838051">
        <ele>236.122</ele>
        <time>2021-08-19T14:54:48Z</time>
      </trkpt>
      <trkpt lat="41.769630" lon="0.838000">
        <ele>235.748</ele>
        <time>2021-08-19T14:54:50Z</time>
      </trkpt>
      <trkpt lat="41.769698" lon="0.837945">
        <ele>235.593</ele>
        <time>2021-08-19T14:54:52Z</time>
      </trkpt>
      <trkpt lat="41.769767" lon="0.837895">
        <ele>235.434</ele>
        <time>2021-08-19T14:54:54Z</time>
      </trkpt>
      <trkpt lat="41.769833" lon="0.837843">
        <ele>235.490</ele>
        <time>2021-08-19T14:54:56Z</time>
      </trkpt>
      <trkpt lat="41.769900" lon="0.837791">
        <ele>235.345</ele>
        <time>2021-08-19T14:54:58Z</time>
      </trkpt>
      <trkpt lat="41.769965" lon="0.837733">
        <ele>235.347</ele>
        <time>2021-08-19T14:55:00Z</time>
      </trkpt>
      <trkpt lat="41.770031" lon="0.837683">
        <ele>235.511</ele>
        <time>2021-08-19T14:55:02Z</time>
      </trkpt>
      <trkpt lat="41.770096" lon="0.837633">
        <ele>235.909</ele>
        <time>2021-08-19T14:55:04Z</time>
      </trkpt>
      <trkpt lat="41.770161" lon="0.837585">
        <ele>236.395</ele>
        <time>2021-08-19T14:55:06Z</time>
      </trkpt>
      <trkpt lat="41.770224" lon="0.837534">
        <ele>236.796</ele>
        <time>2021-08-19T14:55:08Z</time>
      </trkpt>
      <trkpt lat="41.770287" lon="0.837483">
        <ele>237.027</ele>
        <time>2021-08-19T14:55:10Z</time>
      </trkpt>
      <trkpt lat="41.770354" lon="0.837430">
        <ele>237.071</ele>
        <time>2021-08-19T14:55:12Z</time>
      </trkpt>
      <trkpt lat="41.770420" lon="0.837378">
        <ele>237.082</ele>
        <time>2021-08-19T14:55:14Z</time>
      </trkpt>
      <trkpt lat="41.770481" lon="0.837329">
        <ele>237.098</ele>
        <time>2021-08-19T14:55:16Z</time>
      </trkpt>
      <trkpt lat="41.770545" lon="0.837278">
        <ele>237.073</ele>
        <time>2021-08-19T14:55:18Z</time>
      </trkpt>
      <trkpt lat="41.770610" lon="0.837226">
        <ele>236.434</ele>
        <time>2021-08-19T14:55:20Z</time>
      </trkpt>
      <trkpt lat="41.770675" lon="0.837177">
        <ele>235.680</ele>
        <time>2021-08-19T14:55:22Z</time>
      </trkpt>
      <trkpt lat="41.770736" lon="0.837124">
        <ele>234.851</ele>
        <time>2021-08-19T14:55:24Z</time>
      </trkpt>
      <trkpt lat="41.770799" lon="0.837069">
        <ele>233.901</ele>
        <time>2021-08-19T14:55:26Z</time>
      </trkpt>
      <trkpt lat="41.770864" lon="0.837021">
        <ele>233.111</ele>
        <time>2021-08-19T14:55:28Z</time>
      </trkpt>
      <trkpt lat="41.770925" lon="0.836972">
        <ele>232.509</ele>
        <time>2021-08-19T14:55:30Z</time>
      </trkpt>
      <trkpt lat="41.770986" lon="0.836920">
        <ele>231.956</ele>
        <time>2021-08-19T14:55:32Z</time>
      </trkpt>
      <trkpt lat="41.771050" lon="0.836872">
        <ele>231.457</ele>
        <time>2021-08-19T14:55:34Z</time>
      </trkpt>
      <trkpt lat="41.771116" lon="0.836818">
        <ele>231.188</ele>
        <time>2021-08-19T14:55:36Z</time>
      </trkpt>
      <trkpt lat="41.771181" lon="0.836763">
        <ele>232.262</ele>
        <time>2021-08-19T14:55:38Z</time>
      </trkpt>
      <trkpt lat="41.771240" lon="0.836711">
        <ele>233.033</ele>
        <time>2021-08-19T14:55:40Z</time>
      </trkpt>
      <trkpt lat="41.771301" lon="0.836655">
        <ele>233.889</ele>
        <time>2021-08-19T14:55:42Z</time>
      </trkpt>
      <trkpt lat="41.771357" lon="0.836607">
        <ele>234.684</ele>
        <time>2021-08-19T14:55:44Z</time>
      </trkpt>
      <trkpt lat="41.771419" lon="0.836562">
        <ele>235.275</ele>
        <time>2021-08-19T14:55:46Z</time>
      </trkpt>
      <trkpt lat="41.771482" lon="0.836514">
        <ele>235.651</ele>
        <time>2021-08-19T14:55:48Z</time>
      </trkpt>
      <trkpt lat="41.771544" lon="0.836460">
        <ele>235.844</ele>
        <time>2021-08-19T14:55:50Z</time>
      </trkpt>
      <trkpt lat="41.771611" lon="0.836402">
        <ele>235.905</ele>
        <time>2021-08-19T14:55:52Z</time>
      </trkpt>
      <trkpt lat="41.771677" lon="0.836351">
        <ele>235.915</ele>
        <time>2021-08-19T14:55:54Z</time>
      </trkpt>
      <trkpt lat="41.771740" lon="0.836291">
        <ele>235.609</ele>
        <time>2021-08-19T14:55:56Z</time>
      </trkpt>
      <trkpt lat="41.771805" lon="0.836236">
        <ele>235.455</ele>
        <time>2021-08-19T14:55:58Z</time>
      </trkpt>
      <trkpt lat="41.771871" lon="0.836191">
        <ele>235.346</ele>
        <time>2021-08-19T14:56:00Z</time>
      </trkpt>
      <trkpt lat="41.771929" lon="0.836126">
        <ele>235.137</ele>
        <time>2021-08-19T14:56:02Z</time>
      </trkpt>
      <trkpt lat="41.771991" lon="0.836067">
        <ele>235.021</ele>
        <time>2021-08-19T14:56:04Z</time>
      </trkpt>
      <trkpt lat="41.772060" lon="0.836025">
        <ele>234.982</ele>
        <time>2021-08-19T14:56:06Z</time>
      </trkpt>
      <trkpt lat="41.772122" lon="0.835971">
        <ele>234.788</ele>
        <time>2021-08-19T14:56:08Z</time>
      </trkpt>
      <trkpt lat="41.772181" lon="0.835912">
        <ele>234.413</ele>
        <time>2021-08-19T14:56:10Z</time>
      </trkpt>
      <trkpt lat="41.772246" lon="0.835856">
        <ele>234.244</ele>
        <time>2021-08-19T14:56:12Z</time>
      </trkpt>
      <trkpt lat="41.772308" lon="0.835808">
        <ele>234.310</ele>
        <time>2021-08-19T14:56:14Z</time>
      </trkpt>
      <trkpt lat="41.772364" lon="0.835756">
        <ele>234.273</ele>
        <time>2021-08-19T14:56:16Z</time>
      </trkpt>
      <trkpt lat="41.772421" lon="0.835704">
        <ele>234.085</ele>
        <time>2021-08-19T14:56:18Z</time>
      </trkpt>
      <trkpt lat="41.772481" lon="0.835659">
        <ele>233.813</ele>
        <time>2021-08-19T14:56:20Z</time>
      </trkpt>
      <trkpt lat="41.772538" lon="0.835610">
        <ele>233.509</ele>
        <time>2021-08-19T14:56:22Z</time>
      </trkpt>
      <trkpt lat="41.772596" lon="0.835561">
        <ele>233.498</ele>
        <time>2021-08-19T14:56:24Z</time>
      </trkpt>
      <trkpt lat="41.772655" lon="0.835512">
        <ele>233.549</ele>
        <time>2021-08-19T14:56:26Z</time>
      </trkpt>
      <trkpt lat="41.772713" lon="0.835463">
        <ele>233.550</ele>
        <time>2021-08-19T14:56:28Z</time>
      </trkpt>
      <trkpt lat="41.772772" lon="0.835418">
        <ele>233.574</ele>
        <time>2021-08-19T14:56:30Z</time>
      </trkpt>
      <trkpt lat="41.772829" lon="0.835369">
        <ele>233.595</ele>
        <time>2021-08-19T14:56:32Z</time>
      </trkpt>
      <trkpt lat="41.772887" lon="0.835319">
        <ele>233.591</ele>
        <time>2021-08-19T14:56:34Z</time>
      </trkpt>
      <trkpt lat="41.772945" lon="0.835275">
        <ele>233.636</ele>
        <time>2021-08-19T14:56:36Z</time>
      </trkpt>
      <trkpt lat="41.773000" lon="0.835225">
        <ele>233.887</ele>
        <time>2021-08-19T14:56:38Z</time>
      </trkpt>
      <trkpt lat="41.773052" lon="0.835180">
        <ele>234.013</ele>
        <time>2021-08-19T14:56:40Z</time>
      </trkpt>
      <trkpt lat="41.773105" lon="0.835133">
        <ele>234.356</ele>
        <time>2021-08-19T14:56:42Z</time>
      </trkpt>
      <trkpt lat="41.773161" lon="0.835086">
        <ele>234.559</ele>
        <time>2021-08-19T14:56:44Z</time>
      </trkpt>
      <trkpt lat="41.773208" lon="0.835046">
        <ele>234.614</ele>
        <time>2021-08-19T14:56:46Z</time>
      </trkpt>
      <trkpt lat="41.773248" lon="0.835011">
        <ele>234.709</ele>
        <time>2021-08-19T14:56:47Z</time>
      </trkpt>
      <trkpt lat="41.773307" lon="0.834954">
        <ele>234.986</ele>
        <time>2021-08-19T14:56:49Z</time>
      </trkpt>
      <trkpt lat="41.773364" lon="0.834906">
        <ele>235.217</ele>
        <time>2021-08-19T14:56:51Z</time>
      </trkpt>
      <trkpt lat="41.773414" lon="0.834860">
        <ele>235.428</ele>
        <time>2021-08-19T14:56:53Z</time>
      </trkpt>
      <trkpt lat="41.773466" lon="0.834813">
        <ele>235.642</ele>
        <time>2021-08-19T14:56:55Z</time>
      </trkpt>
      <trkpt lat="41.773517" lon="0.834772">
        <ele>235.863</ele>
        <time>2021-08-19T14:56:57Z</time>
      </trkpt>
      <trkpt lat="41.773568" lon="0.834726">
        <ele>235.989</ele>
        <time>2021-08-19T14:56:59Z</time>
      </trkpt>
      <trkpt lat="41.773614" lon="0.834673">
        <ele>235.854</ele>
        <time>2021-08-19T14:57:01Z</time>
      </trkpt>
      <trkpt lat="41.773663" lon="0.834629">
        <ele>235.445</ele>
        <time>2021-08-19T14:57:03Z</time>
      </trkpt>
      <trkpt lat="41.773717" lon="0.834600">
        <ele>235.041</ele>
        <time>2021-08-19T14:57:05Z</time>
      </trkpt>
      <trkpt lat="41.773760" lon="0.834562">
        <ele>234.775</ele>
        <time>2021-08-19T14:57:07Z</time>
      </trkpt>
      <trkpt lat="41.773811" lon="0.834518">
        <ele>234.428</ele>
        <time>2021-08-19T14:57:10Z</time>
      </trkpt>
      <trkpt lat="41.773859" lon="0.834465">
        <ele>234.120</ele>
        <time>2021-08-19T14:57:13Z</time>
      </trkpt>
      <trkpt lat="41.773893" lon="0.834425">
        <ele>234.009</ele>
        <time>2021-08-19T14:57:15Z</time>
      </trkpt>
      <trkpt lat="41.773944" lon="0.834372">
        <ele>233.718</ele>
        <time>2021-08-19T14:57:17Z</time>
      </trkpt>
      <trkpt lat="41.773994" lon="0.834321">
        <ele>233.459</ele>
        <time>2021-08-19T14:57:19Z</time>
      </trkpt>
      <trkpt lat="41.774040" lon="0.834278">
        <ele>233.260</ele>
        <time>2021-08-19T14:57:21Z</time>
      </trkpt>
      <trkpt lat="41.774085" lon="0.834231">
        <ele>233.164</ele>
        <time>2021-08-19T14:57:23Z</time>
      </trkpt>
      <trkpt lat="41.774124" lon="0.834179">
        <ele>233.115</ele>
        <time>2021-08-19T14:57:25Z</time>
      </trkpt>
      <trkpt lat="41.774168" lon="0.834129">
        <ele>233.141</ele>
        <time>2021-08-19T14:57:27Z</time>
      </trkpt>
      <trkpt lat="41.774220" lon="0.834104">
        <ele>233.426</ele>
        <time>2021-08-19T14:57:29Z</time>
      </trkpt>
      <trkpt lat="41.774264" lon="0.834069">
        <ele>233.637</ele>
        <time>2021-08-19T14:57:31Z</time>
      </trkpt>
      <trkpt lat="41.774301" lon="0.834028">
        <ele>233.793</ele>
        <time>2021-08-19T14:57:33Z</time>
      </trkpt>
      <trkpt lat="41.774343" lon="0.833990">
        <ele>233.929</ele>
        <time>2021-08-19T14:57:35Z</time>
      </trkpt>
      <trkpt lat="41.774392" lon="0.833950">
        <ele>234.000</ele>
        <time>2021-08-19T14:57:37Z</time>
      </trkpt>
      <trkpt lat="41.774444" lon="0.833919">
        <ele>234.020</ele>
        <time>2021-08-19T14:57:39Z</time>
      </trkpt>
      <trkpt lat="41.774492" lon="0.833880">
        <ele>234.209</ele>
        <time>2021-08-19T14:57:41Z</time>
      </trkpt>
      <trkpt lat="41.774542" lon="0.833839">
        <ele>234.333</ele>
        <time>2021-08-19T14:57:43Z</time>
      </trkpt>
      <trkpt lat="41.774594" lon="0.833797">
        <ele>234.414</ele>
        <time>2021-08-19T14:57:46Z</time>
      </trkpt>
      <trkpt lat="41.774632" lon="0.833761">
        <ele>234.425</ele>
        <time>2021-08-19T14:57:47Z</time>
      </trkpt>
      <trkpt lat="41.774683" lon="0.833725">
        <ele>234.459</ele>
        <time>2021-08-19T14:57:49Z</time>
      </trkpt>
      <trkpt lat="41.774735" lon="0.833683">
        <ele>234.320</ele>
        <time>2021-08-19T14:57:51Z</time>
      </trkpt>
      <trkpt lat="41.774793" lon="0.833626">
        <ele>234.136</ele>
        <time>2021-08-19T14:57:53Z</time>
      </trkpt>
      <trkpt lat="41.774849" lon="0.833585">
        <ele>233.941</ele>
        <time>2021-08-19T14:57:55Z</time>
      </trkpt>
      <trkpt lat="41.774892" lon="0.833533">
        <ele>233.932</ele>
        <time>2021-08-19T14:57:57Z</time>
      </trkpt>
      <trkpt lat="41.774938" lon="0.833476">
        <ele>233.948</ele>
        <time>2021-08-19T14:57:59Z</time>
      </trkpt>
      <trkpt lat="41.774997" lon="0.833435">
        <ele>234.094</ele>
        <time>2021-08-19T14:58:01Z</time>
      </trkpt>
      <trkpt lat="41.775051" lon="0.833383">
        <ele>234.257</ele>
        <time>2021-08-19T14:58:03Z</time>
      </trkpt>
      <trkpt lat="41.775104" lon="0.833329">
        <ele>234.422</ele>
        <time>2021-08-19T14:58:05Z</time>
      </trkpt>
      <trkpt lat="41.775157" lon="0.833280">
        <ele>234.609</ele>
        <time>2021-08-19T14:58:07Z</time>
      </trkpt>
      <trkpt lat="41.775214" lon="0.833236">
        <ele>234.860</ele>
        <time>2021-08-19T14:58:09Z</time>
      </trkpt>
      <trkpt lat="41.775269" lon="0.833197">
        <ele>235.041</ele>
        <time>2021-08-19T14:58:11Z</time>
      </trkpt>
      <trkpt lat="41.775322" lon="0.833151">
        <ele>235.062</ele>
        <time>2021-08-19T14:58:13Z</time>
      </trkpt>
      <trkpt lat="41.775367" lon="0.833120">
        <ele>235.066</ele>
        <time>2021-08-19T14:58:15Z</time>
      </trkpt>
      <trkpt lat="41.775423" lon="0.833075">
        <ele>235.077</ele>
        <time>2021-08-19T14:58:17Z</time>
      </trkpt>
      <trkpt lat="41.775468" lon="0.833028">
        <ele>235.063</ele>
        <time>2021-08-19T14:58:19Z</time>
      </trkpt>
      <trkpt lat="41.775531" lon="0.832996">
        <ele>235.058</ele>
        <time>2021-08-19T14:58:22Z</time>
      </trkpt>
      <trkpt lat="41.775582" lon="0.832971">
        <ele>234.929</ele>
        <time>2021-08-19T14:58:24Z</time>
      </trkpt>
      <trkpt lat="41.775624" lon="0.832927">
        <ele>234.885</ele>
        <time>2021-08-19T14:58:26Z</time>
      </trkpt>
      <trkpt lat="41.775669" lon="0.832893">
        <ele>234.611</ele>
        <time>2021-08-19T14:58:28Z</time>
      </trkpt>
      <trkpt lat="41.775708" lon="0.832857">
        <ele>234.521</ele>
        <time>2021-08-19T14:58:30Z</time>
      </trkpt>
      <trkpt lat="41.775758" lon="0.832824">
        <ele>234.303</ele>
        <time>2021-08-19T14:58:32Z</time>
      </trkpt>
      <trkpt lat="41.775803" lon="0.832788">
        <ele>234.109</ele>
        <time>2021-08-19T14:58:34Z</time>
      </trkpt>
      <trkpt lat="41.775854" lon="0.832764">
        <ele>234.152</ele>
        <time>2021-08-19T14:58:37Z</time>
      </trkpt>
      <trkpt lat="41.775904" lon="0.832758">
        <ele>234.173</ele>
        <time>2021-08-19T14:58:57Z</time>
      </trkpt>
      <trkpt lat="41.775955" lon="0.832744">
        <ele>234.174</ele>
        <time>2021-08-19T14:59:00Z</time>
      </trkpt>
      <trkpt lat="41.776000" lon="0.832710">
        <ele>234.268</ele>
        <time>2021-08-19T14:59:02Z</time>
      </trkpt>
      <trkpt lat="41.776036" lon="0.832659">
        <ele>234.459</ele>
        <time>2021-08-19T14:59:04Z</time>
      </trkpt>
      <trkpt lat="41.776081" lon="0.832615">
        <ele>234.615</ele>
        <time>2021-08-19T14:59:06Z</time>
      </trkpt>
      <trkpt lat="41.776137" lon="0.832590">
        <ele>234.780</ele>
        <time>2021-08-19T14:59:09Z</time>
      </trkpt>
      <trkpt lat="41.776181" lon="0.832554">
        <ele>234.951</ele>
        <time>2021-08-19T14:59:12Z</time>
      </trkpt>
      <trkpt lat="41.776227" lon="0.832515">
        <ele>235.057</ele>
        <time>2021-08-19T14:59:15Z</time>
      </trkpt>
      <trkpt lat="41.776273" lon="0.832502">
        <ele>235.022</ele>
        <time>2021-08-19T15:00:23Z</time>
      </trkpt>
      <trkpt lat="41.776321" lon="0.832465">
        <ele>235.162</ele>
        <time>2021-08-19T15:00:26Z</time>
      </trkpt>
      <trkpt lat="41.776361" lon="0.832438">
        <ele>235.208</ele>
        <time>2021-08-19T15:00:28Z</time>
      </trkpt>
      <trkpt lat="41.776414" lon="0.832404">
        <ele>235.409</ele>
        <time>2021-08-19T15:00:30Z</time>
      </trkpt>
      <trkpt lat="41.776472" lon="0.832373">
        <ele>235.683</ele>
        <time>2021-08-19T15:00:32Z</time>
      </trkpt>
      <trkpt lat="41.776528" lon="0.832329">
        <ele>235.884</ele>
        <time>2021-08-19T15:00:34Z</time>
      </trkpt>
      <trkpt lat="41.776592" lon="0.832280">
        <ele>235.995</ele>
        <time>2021-08-19T15:00:36Z</time>
      </trkpt>
      <trkpt lat="41.776654" lon="0.832231">
        <ele>236.089</ele>
        <time>2021-08-19T15:00:38Z</time>
      </trkpt>
      <trkpt lat="41.776703" lon="0.832184">
        <ele>236.130</ele>
        <time>2021-08-19T15:00:40Z</time>
      </trkpt>
      <trkpt lat="41.776749" lon="0.832145">
        <ele>236.396</ele>
        <time>2021-08-19T15:00:42Z</time>
      </trkpt>
      <trkpt lat="41.776791" lon="0.832114">
        <ele>236.441</ele>
        <time>2021-08-19T15:00:44Z</time>
      </trkpt>
      <trkpt lat="41.776842" lon="0.832078">
        <ele>236.522</ele>
        <time>2021-08-19T15:00:46Z</time>
      </trkpt>
      <trkpt lat="41.776893" lon="0.832051">
        <ele>236.628</ele>
        <time>2021-08-19T15:00:48Z</time>
      </trkpt>
      <trkpt lat="41.776946" lon="0.832014">
        <ele>236.785</ele>
        <time>2021-08-19T15:00:50Z</time>
      </trkpt>
      <trkpt lat="41.776999" lon="0.831969">
        <ele>236.789</ele>
        <time>2021-08-19T15:00:52Z</time>
      </trkpt>
      <trkpt lat="41.777049" lon="0.831936">
        <ele>236.617</ele>
        <time>2021-08-19T15:00:54Z</time>
      </trkpt>
      <trkpt lat="41.777102" lon="0.831894">
        <ele>236.509</ele>
        <time>2021-08-19T15:00:56Z</time>
      </trkpt>
      <trkpt lat="41.777154" lon="0.831851">
        <ele>236.379</ele>
        <time>2021-08-19T15:00:58Z</time>
      </trkpt>
      <trkpt lat="41.777209" lon="0.831810">
        <ele>236.190</ele>
        <time>2021-08-19T15:01:00Z</time>
      </trkpt>
      <trkpt lat="41.777265" lon="0.831771">
        <ele>235.881</ele>
        <time>2021-08-19T15:01:02Z</time>
      </trkpt>
      <trkpt lat="41.777319" lon="0.831726">
        <ele>235.615</ele>
        <time>2021-08-19T15:01:04Z</time>
      </trkpt>
      <trkpt lat="41.777370" lon="0.831691">
        <ele>235.486</ele>
        <time>2021-08-19T15:01:06Z</time>
      </trkpt>
      <trkpt lat="41.777422" lon="0.831660">
        <ele>235.372</ele>
        <time>2021-08-19T15:01:08Z</time>
      </trkpt>
      <trkpt lat="41.777482" lon="0.831636">
        <ele>235.127</ele>
        <time>2021-08-19T15:01:10Z</time>
      </trkpt>
      <trkpt lat="41.777534" lon="0.831600">
        <ele>235.028</ele>
        <time>2021-08-19T15:01:12Z</time>
      </trkpt>
      <trkpt lat="41.777576" lon="0.831566">
        <ele>235.034</ele>
        <time>2021-08-19T15:01:14Z</time>
      </trkpt>
      <trkpt lat="41.777644" lon="0.831518">
        <ele>235.089</ele>
        <time>2021-08-19T15:01:16Z</time>
      </trkpt>
      <trkpt lat="41.777700" lon="0.831482">
        <ele>235.006</ele>
        <time>2021-08-19T15:01:18Z</time>
      </trkpt>
      <trkpt lat="41.777743" lon="0.831450">
        <ele>235.026</ele>
        <time>2021-08-19T15:01:20Z</time>
      </trkpt>
      <trkpt lat="41.777791" lon="0.831410">
        <ele>235.009</ele>
        <time>2021-08-19T15:01:22Z</time>
      </trkpt>
      <trkpt lat="41.777845" lon="0.831374">
        <ele>235.279</ele>
        <time>2021-08-19T15:01:24Z</time>
      </trkpt>
      <trkpt lat="41.777894" lon="0.831328">
        <ele>235.380</ele>
        <time>2021-08-19T15:01:26Z</time>
      </trkpt>
      <trkpt lat="41.777944" lon="0.831289">
        <ele>235.441</ele>
        <time>2021-08-19T15:01:28Z</time>
      </trkpt>
      <trkpt lat="41.777989" lon="0.831243">
        <ele>235.435</ele>
        <time>2021-08-19T15:01:30Z</time>
      </trkpt>
      <trkpt lat="41.778032" lon="0.831198">
        <ele>235.396</ele>
        <time>2021-08-19T15:01:32Z</time>
      </trkpt>
      <trkpt lat="41.778084" lon="0.831167">
        <ele>235.332</ele>
        <time>2021-08-19T15:01:34Z</time>
      </trkpt>
      <trkpt lat="41.778130" lon="0.831125">
        <ele>235.397</ele>
        <time>2021-08-19T15:01:36Z</time>
      </trkpt>
      <trkpt lat="41.778176" lon="0.831083">
        <ele>235.488</ele>
        <time>2021-08-19T15:01:38Z</time>
      </trkpt>
      <trkpt lat="41.778219" lon="0.831043">
        <ele>235.444</ele>
        <time>2021-08-19T15:01:40Z</time>
      </trkpt>
      <trkpt lat="41.778267" lon="0.831012">
        <ele>235.586</ele>
        <time>2021-08-19T15:01:42Z</time>
      </trkpt>
      <trkpt lat="41.778301" lon="0.830972">
        <ele>235.460</ele>
        <time>2021-08-19T15:01:44Z</time>
      </trkpt>
      <trkpt lat="41.778347" lon="0.830928">
        <ele>235.426</ele>
        <time>2021-08-19T15:01:46Z</time>
      </trkpt>
      <trkpt lat="41.778392" lon="0.830885">
        <ele>235.409</ele>
        <time>2021-08-19T15:01:48Z</time>
      </trkpt>
      <trkpt lat="41.778440" lon="0.830842">
        <ele>235.469</ele>
        <time>2021-08-19T15:01:50Z</time>
      </trkpt>
      <trkpt lat="41.778479" lon="0.830788">
        <ele>235.670</ele>
        <time>2021-08-19T15:01:52Z</time>
      </trkpt>
      <trkpt lat="41.778527" lon="0.830748">
        <ele>235.911</ele>
        <time>2021-08-19T15:01:54Z</time>
      </trkpt>
      <trkpt lat="41.778570" lon="0.830710">
        <ele>236.235</ele>
        <time>2021-08-19T15:01:56Z</time>
      </trkpt>
      <trkpt lat="41.778613" lon="0.830667">
        <ele>236.666</ele>
        <time>2021-08-19T15:01:58Z</time>
      </trkpt>
      <trkpt lat="41.778656" lon="0.830621">
        <ele>236.982</ele>
        <time>2021-08-19T15:02:00Z</time>
      </trkpt>
      <trkpt lat="41.778704" lon="0.830580">
        <ele>237.237</ele>
        <time>2021-08-19T15:02:02Z</time>
      </trkpt>
      <trkpt lat="41.778747" lon="0.830533">
        <ele>237.698</ele>
        <time>2021-08-19T15:02:04Z</time>
      </trkpt>
      <trkpt lat="41.778789" lon="0.830486">
        <ele>237.924</ele>
        <time>2021-08-19T15:02:06Z</time>
      </trkpt>
      <trkpt lat="41.778838" lon="0.830446">
        <ele>238.255</ele>
        <time>2021-08-19T15:02:08Z</time>
      </trkpt>
      <trkpt lat="41.778884" lon="0.830410">
        <ele>238.507</ele>
        <time>2021-08-19T15:02:10Z</time>
      </trkpt>
      <trkpt lat="41.778931" lon="0.830373">
        <ele>238.517</ele>
        <time>2021-08-19T15:02:12Z</time>
      </trkpt>
      <trkpt lat="41.778992" lon="0.830307">
        <ele>238.209</ele>
        <time>2021-08-19T15:02:15Z</time>
      </trkpt>
      <trkpt lat="41.779035" lon="0.830255">
        <ele>237.936</ele>
        <time>2021-08-19T15:02:17Z</time>
      </trkpt>
      <trkpt lat="41.779081" lon="0.830218">
        <ele>237.487</ele>
        <time>2021-08-19T15:02:19Z</time>
      </trkpt>
      <trkpt lat="41.779124" lon="0.830171">
        <ele>236.938</ele>
        <time>2021-08-19T15:02:21Z</time>
      </trkpt>
      <trkpt lat="41.779169" lon="0.830129">
        <ele>236.452</ele>
        <time>2021-08-19T15:02:23Z</time>
      </trkpt>
      <trkpt lat="41.779215" lon="0.830090">
        <ele>236.013</ele>
        <time>2021-08-19T15:02:25Z</time>
      </trkpt>
      <trkpt lat="41.779260" lon="0.830047">
        <ele>235.549</ele>
        <time>2021-08-19T15:02:27Z</time>
      </trkpt>
      <trkpt lat="41.779302" lon="0.830006">
        <ele>235.034</ele>
        <time>2021-08-19T15:02:29Z</time>
      </trkpt>
      <trkpt lat="41.779347" lon="0.829962">
        <ele>234.795</ele>
        <time>2021-08-19T15:02:31Z</time>
      </trkpt>
      <trkpt lat="41.779388" lon="0.829918">
        <ele>234.421</ele>
        <time>2021-08-19T15:02:33Z</time>
      </trkpt>
      <trkpt lat="41.779431" lon="0.829878">
        <ele>234.164</ele>
        <time>2021-08-19T15:02:35Z</time>
      </trkpt>
      <trkpt lat="41.779480" lon="0.829843">
        <ele>233.906</ele>
        <time>2021-08-19T15:02:37Z</time>
      </trkpt>
      <trkpt lat="41.779523" lon="0.829795">
        <ele>233.916</ele>
        <time>2021-08-19T15:02:39Z</time>
      </trkpt>
      <trkpt lat="41.779565" lon="0.829750">
        <ele>234.009</ele>
        <time>2021-08-19T15:02:41Z</time>
      </trkpt>
      <trkpt lat="41.779607" lon="0.829718">
        <ele>234.017</ele>
        <time>2021-08-19T15:02:43Z</time>
      </trkpt>
      <trkpt lat="41.779656" lon="0.829675">
        <ele>234.048</ele>
        <time>2021-08-19T15:02:45Z</time>
      </trkpt>
      <trkpt lat="41.779701" lon="0.829631">
        <ele>234.089</ele>
        <time>2021-08-19T15:02:47Z</time>
      </trkpt>
      <trkpt lat="41.779748" lon="0.829589">
        <ele>234.093</ele>
        <time>2021-08-19T15:02:49Z</time>
      </trkpt>
      <trkpt lat="41.779795" lon="0.829548">
        <ele>234.044</ele>
        <time>2021-08-19T15:02:51Z</time>
      </trkpt>
      <trkpt lat="41.779839" lon="0.829504">
        <ele>234.090</ele>
        <time>2021-08-19T15:02:53Z</time>
      </trkpt>
      <trkpt lat="41.779878" lon="0.829457">
        <ele>234.025</ele>
        <time>2021-08-19T15:02:55Z</time>
      </trkpt>
      <trkpt lat="41.779920" lon="0.829419">
        <ele>234.016</ele>
        <time>2021-08-19T15:02:57Z</time>
      </trkpt>
      <trkpt lat="41.779960" lon="0.829389">
        <ele>234.032</ele>
        <time>2021-08-19T15:02:59Z</time>
      </trkpt>
      <trkpt lat="41.779993" lon="0.829344">
        <ele>234.074</ele>
        <time>2021-08-19T15:03:01Z</time>
      </trkpt>
      <trkpt lat="41.780054" lon="0.829297">
        <ele>234.056</ele>
        <time>2021-08-19T15:03:04Z</time>
      </trkpt>
      <trkpt lat="41.780095" lon="0.829260">
        <ele>234.021</ele>
        <time>2021-08-19T15:03:06Z</time>
      </trkpt>
      <trkpt lat="41.780134" lon="0.829219">
        <ele>234.009</ele>
        <time>2021-08-19T15:03:08Z</time>
      </trkpt>
      <trkpt lat="41.780171" lon="0.829182">
        <ele>234.058</ele>
        <time>2021-08-19T15:03:10Z</time>
      </trkpt>
      <trkpt lat="41.780214" lon="0.829137">
        <ele>234.299</ele>
        <time>2021-08-19T15:03:13Z</time>
      </trkpt>
      <trkpt lat="41.780253" lon="0.829106">
        <ele>234.480</ele>
        <time>2021-08-19T15:03:15Z</time>
      </trkpt>
      <trkpt lat="41.780291" lon="0.829060">
        <ele>234.854</ele>
        <time>2021-08-19T15:03:18Z</time>
      </trkpt>
      <trkpt lat="41.780347" lon="0.829014">
        <ele>235.375</ele>
        <time>2021-08-19T15:03:21Z</time>
      </trkpt>
      <trkpt lat="41.780393" lon="0.828975">
        <ele>235.871</ele>
        <time>2021-08-19T15:03:24Z</time>
      </trkpt>
      <trkpt lat="41.780441" lon="0.828935">
        <ele>236.326</ele>
        <time>2021-08-19T15:03:27Z</time>
      </trkpt>
      <trkpt lat="41.780487" lon="0.828880">
        <ele>236.887</ele>
        <time>2021-08-19T15:03:30Z</time>
      </trkpt>
      <trkpt lat="41.780530" lon="0.828829">
        <ele>237.323</ele>
        <time>2021-08-19T15:03:33Z</time>
      </trkpt>
      <trkpt lat="41.780587" lon="0.828784">
        <ele>237.818</ele>
        <time>2021-08-19T15:03:36Z</time>
      </trkpt>
      <trkpt lat="41.780622" lon="0.828740">
        <ele>238.198</ele>
        <time>2021-08-19T15:03:38Z</time>
      </trkpt>
      <trkpt lat="41.780661" lon="0.828708">
        <ele>238.317</ele>
        <time>2021-08-19T15:03:40Z</time>
      </trkpt>
      <trkpt lat="41.780703" lon="0.828682">
        <ele>238.509</ele>
        <time>2021-08-19T15:03:42Z</time>
      </trkpt>
      <trkpt lat="41.780755" lon="0.828617">
        <ele>239.062</ele>
        <time>2021-08-19T15:03:45Z</time>
      </trkpt>
      <trkpt lat="41.780798" lon="0.828581">
        <ele>239.163</ele>
        <time>2021-08-19T15:03:47Z</time>
      </trkpt>
      <trkpt lat="41.780837" lon="0.828536">
        <ele>239.214</ele>
        <time>2021-08-19T15:03:49Z</time>
      </trkpt>
      <trkpt lat="41.780878" lon="0.828496">
        <ele>239.198</ele>
        <time>2021-08-19T15:03:51Z</time>
      </trkpt>
      <trkpt lat="41.780917" lon="0.828454">
        <ele>239.059</ele>
        <time>2021-08-19T15:03:53Z</time>
      </trkpt>
      <trkpt lat="41.780953" lon="0.828417">
        <ele>238.825</ele>
        <time>2021-08-19T15:03:55Z</time>
      </trkpt>
      <trkpt lat="41.780992" lon="0.828386">
        <ele>238.760</ele>
        <time>2021-08-19T15:03:56Z</time>
      </trkpt>
      <trkpt lat="41.781032" lon="0.828350">
        <ele>238.581</ele>
        <time>2021-08-19T15:03:58Z</time>
      </trkpt>
      <trkpt lat="41.781073" lon="0.828314">
        <ele>238.337</ele>
        <time>2021-08-19T15:04:00Z</time>
      </trkpt>
      <trkpt lat="41.781113" lon="0.828268">
        <ele>238.039</ele>
        <time>2021-08-19T15:04:02Z</time>
      </trkpt>
      <trkpt lat="41.781154" lon="0.828224">
        <ele>237.901</ele>
        <time>2021-08-19T15:04:04Z</time>
      </trkpt>
      <trkpt lat="41.781197" lon="0.828182">
        <ele>237.921</ele>
        <time>2021-08-19T15:04:06Z</time>
      </trkpt>
      <trkpt lat="41.781242" lon="0.828149">
        <ele>237.809</ele>
        <time>2021-08-19T15:04:08Z</time>
      </trkpt>
      <trkpt lat="41.781284" lon="0.828113">
        <ele>237.914</ele>
        <time>2021-08-19T15:04:10Z</time>
      </trkpt>
      <trkpt lat="41.781322" lon="0.828072">
        <ele>238.055</ele>
        <time>2021-08-19T15:04:12Z</time>
      </trkpt>
      <trkpt lat="41.781359" lon="0.828033">
        <ele>238.176</ele>
        <time>2021-08-19T15:04:14Z</time>
      </trkpt>
      <trkpt lat="41.781407" lon="0.827992">
        <ele>238.220</ele>
        <time>2021-08-19T15:04:16Z</time>
      </trkpt>
      <trkpt lat="41.781451" lon="0.827951">
        <ele>238.341</ele>
        <time>2021-08-19T15:04:18Z</time>
      </trkpt>
      <trkpt lat="41.781497" lon="0.827916">
        <ele>238.367</ele>
        <time>2021-08-19T15:04:20Z</time>
      </trkpt>
      <trkpt lat="41.781540" lon="0.827875">
        <ele>238.312</ele>
        <time>2021-08-19T15:04:22Z</time>
      </trkpt>
      <trkpt lat="41.781586" lon="0.827830">
        <ele>238.233</ele>
        <time>2021-08-19T15:04:24Z</time>
      </trkpt>
      <trkpt lat="41.781634" lon="0.827788">
        <ele>238.169</ele>
        <time>2021-08-19T15:04:26Z</time>
      </trkpt>
      <trkpt lat="41.781677" lon="0.827749">
        <ele>238.042</ele>
        <time>2021-08-19T15:04:28Z</time>
      </trkpt>
      <trkpt lat="41.781719" lon="0.827710">
        <ele>237.822</ele>
        <time>2021-08-19T15:04:30Z</time>
      </trkpt>
      <trkpt lat="41.781762" lon="0.827669">
        <ele>237.514</ele>
        <time>2021-08-19T15:04:32Z</time>
      </trkpt>
      <trkpt lat="41.781806" lon="0.827631">
        <ele>237.209</ele>
        <time>2021-08-19T15:04:34Z</time>
      </trkpt>
      <trkpt lat="41.781863" lon="0.827571">
        <ele>236.825</ele>
        <time>2021-08-19T15:04:37Z</time>
      </trkpt>
      <trkpt lat="41.781900" lon="0.827525">
        <ele>236.466</ele>
        <time>2021-08-19T15:04:39Z</time>
      </trkpt>
      <trkpt lat="41.781941" lon="0.827475">
        <ele>236.087</ele>
        <time>2021-08-19T15:04:41Z</time>
      </trkpt>
      <trkpt lat="41.781984" lon="0.827436">
        <ele>236.191</ele>
        <time>2021-08-19T15:04:43Z</time>
      </trkpt>
      <trkpt lat="41.782019" lon="0.827398">
        <ele>236.342</ele>
        <time>2021-08-19T15:04:45Z</time>
      </trkpt>
      <trkpt lat="41.782066" lon="0.827354">
        <ele>236.448</ele>
        <time>2021-08-19T15:04:47Z</time>
      </trkpt>
      <trkpt lat="41.782104" lon="0.827304">
        <ele>236.613</ele>
        <time>2021-08-19T15:04:49Z</time>
      </trkpt>
      <trkpt lat="41.782142" lon="0.827258">
        <ele>236.724</ele>
        <time>2021-08-19T15:04:51Z</time>
      </trkpt>
      <trkpt lat="41.782181" lon="0.827211">
        <ele>236.890</ele>
        <time>2021-08-19T15:04:53Z</time>
      </trkpt>
      <trkpt lat="41.782223" lon="0.827161">
        <ele>236.883</ele>
        <time>2021-08-19T15:04:55Z</time>
      </trkpt>
      <trkpt lat="41.782266" lon="0.827114">
        <ele>236.925</ele>
        <time>2021-08-19T15:04:57Z</time>
      </trkpt>
      <trkpt lat="41.782307" lon="0.827066">
        <ele>237.017</ele>
        <time>2021-08-19T15:04:59Z</time>
      </trkpt>
      <trkpt lat="41.782342" lon="0.827017">
        <ele>237.109</ele>
        <time>2021-08-19T15:05:01Z</time>
      </trkpt>
      <trkpt lat="41.782379" lon="0.826968">
        <ele>237.269</ele>
        <time>2021-08-19T15:05:03Z</time>
      </trkpt>
      <trkpt lat="41.782419" lon="0.826917">
        <ele>237.440</ele>
        <time>2021-08-19T15:05:05Z</time>
      </trkpt>
      <trkpt lat="41.782458" lon="0.826868">
        <ele>237.791</ele>
        <time>2021-08-19T15:05:07Z</time>
      </trkpt>
      <trkpt lat="41.782494" lon="0.826812">
        <ele>238.085</ele>
        <time>2021-08-19T15:05:09Z</time>
      </trkpt>
      <trkpt lat="41.782531" lon="0.826760">
        <ele>238.366</ele>
        <time>2021-08-19T15:05:11Z</time>
      </trkpt>
      <trkpt lat="41.782565" lon="0.826701">
        <ele>238.742</ele>
        <time>2021-08-19T15:05:13Z</time>
      </trkpt>
      <trkpt lat="41.782599" lon="0.826658">
        <ele>239.117</ele>
        <time>2021-08-19T15:05:15Z</time>
      </trkpt>
      <trkpt lat="41.782637" lon="0.826602">
        <ele>239.868</ele>
        <time>2021-08-19T15:05:17Z</time>
      </trkpt>
      <trkpt lat="41.782670" lon="0.826543">
        <ele>240.684</ele>
        <time>2021-08-19T15:05:19Z</time>
      </trkpt>
      <trkpt lat="41.782701" lon="0.826486">
        <ele>241.355</ele>
        <time>2021-08-19T15:05:21Z</time>
      </trkpt>
      <trkpt lat="41.782724" lon="0.826422">
        <ele>242.007</ele>
        <time>2021-08-19T15:05:23Z</time>
      </trkpt>
      <trkpt lat="41.782739" lon="0.826357">
        <ele>242.517</ele>
        <time>2021-08-19T15:05:25Z</time>
      </trkpt>
      <trkpt lat="41.782745" lon="0.826286">
        <ele>242.609</ele>
        <time>2021-08-19T15:05:27Z</time>
      </trkpt>
      <trkpt lat="41.782739" lon="0.826214">
        <ele>242.546</ele>
        <time>2021-08-19T15:05:29Z</time>
      </trkpt>
      <trkpt lat="41.782734" lon="0.826143">
        <ele>242.597</ele>
        <time>2021-08-19T15:05:31Z</time>
      </trkpt>
      <trkpt lat="41.782733" lon="0.826063">
        <ele>242.418</ele>
        <time>2021-08-19T15:05:33Z</time>
      </trkpt>
      <trkpt lat="41.782727" lon="0.825978">
        <ele>242.122</ele>
        <time>2021-08-19T15:05:35Z</time>
      </trkpt>
      <trkpt lat="41.782726" lon="0.825899">
        <ele>241.883</ele>
        <time>2021-08-19T15:05:37Z</time>
      </trkpt>
      <trkpt lat="41.782729" lon="0.825827">
        <ele>241.649</ele>
        <time>2021-08-19T15:05:39Z</time>
      </trkpt>
      <trkpt lat="41.782733" lon="0.825766">
        <ele>241.354</ele>
        <time>2021-08-19T15:05:41Z</time>
      </trkpt>
      <trkpt lat="41.782750" lon="0.825696">
        <ele>240.965</ele>
        <time>2021-08-19T15:05:44Z</time>
      </trkpt>
      <trkpt lat="41.782807" lon="0.825679">
        <ele>241.041</ele>
        <time>2021-08-19T15:05:47Z</time>
      </trkpt>
      <trkpt lat="41.782864" lon="0.825697">
        <ele>241.387</ele>
        <time>2021-08-19T15:05:50Z</time>
      </trkpt>
      <trkpt lat="41.782911" lon="0.825725">
        <ele>241.742</ele>
        <time>2021-08-19T15:05:53Z</time>
      </trkpt>
      <trkpt lat="41.782944" lon="0.825789">
        <ele>242.326</ele>
        <time>2021-08-19T15:05:57Z</time>
      </trkpt>
      <trkpt lat="41.783003" lon="0.825798">
        <ele>242.609</ele>
        <time>2021-08-19T15:05:59Z</time>
      </trkpt>
      <trkpt lat="41.783054" lon="0.825850">
        <ele>243.119</ele>
        <time>2021-08-19T15:06:01Z</time>
      </trkpt>
      <trkpt lat="41.783101" lon="0.825889">
        <ele>242.850</ele>
        <time>2021-08-19T15:06:03Z</time>
      </trkpt>
      <trkpt lat="41.783142" lon="0.825938">
        <ele>242.681</ele>
        <time>2021-08-19T15:06:05Z</time>
      </trkpt>
      <trkpt lat="41.783186" lon="0.825992">
        <ele>242.455</ele>
        <time>2021-08-19T15:06:07Z</time>
      </trkpt>
      <trkpt lat="41.783228" lon="0.826029">
        <ele>242.046</ele>
        <time>2021-08-19T15:06:09Z</time>
      </trkpt>
      <trkpt lat="41.783266" lon="0.826073">
        <ele>241.792</ele>
        <time>2021-08-19T15:06:11Z</time>
      </trkpt>
      <trkpt lat="41.783294" lon="0.826134">
        <ele>241.347</ele>
        <time>2021-08-19T15:06:13Z</time>
      </trkpt>
      <trkpt lat="41.783339" lon="0.826210">
        <ele>240.658</ele>
        <time>2021-08-19T15:06:16Z</time>
      </trkpt>
      <trkpt lat="41.783372" lon="0.826264">
        <ele>240.024</ele>
        <time>2021-08-19T15:06:18Z</time>
      </trkpt>
      <trkpt lat="41.783410" lon="0.826307">
        <ele>239.587</ele>
        <time>2021-08-19T15:06:20Z</time>
      </trkpt>
      <trkpt lat="41.783456" lon="0.826366">
        <ele>238.842</ele>
        <time>2021-08-19T15:06:23Z</time>
      </trkpt>
      <trkpt lat="41.783482" lon="0.826416">
        <ele>238.326</ele>
        <time>2021-08-19T15:06:25Z</time>
      </trkpt>
      <trkpt lat="41.783517" lon="0.826459">
        <ele>237.909</ele>
        <time>2021-08-19T15:06:27Z</time>
      </trkpt>
      <trkpt lat="41.783551" lon="0.826511">
        <ele>237.619</ele>
        <time>2021-08-19T15:06:29Z</time>
      </trkpt>
      <trkpt lat="41.783587" lon="0.826555">
        <ele>237.270</ele>
        <time>2021-08-19T15:06:31Z</time>
      </trkpt>
      <trkpt lat="41.783624" lon="0.826596">
        <ele>237.061</ele>
        <time>2021-08-19T15:06:33Z</time>
      </trkpt>
      <trkpt lat="41.783661" lon="0.826642">
        <ele>237.045</ele>
        <time>2021-08-19T15:06:35Z</time>
      </trkpt>
      <trkpt lat="41.783694" lon="0.826691">
        <ele>237.176</ele>
        <time>2021-08-19T15:06:37Z</time>
      </trkpt>
      <trkpt lat="41.783729" lon="0.826738">
        <ele>237.122</ele>
        <time>2021-08-19T15:06:39Z</time>
      </trkpt>
      <trkpt lat="41.783772" lon="0.826788">
        <ele>237.227</ele>
        <time>2021-08-19T15:06:42Z</time>
      </trkpt>
      <trkpt lat="41.783744" lon="0.826732">
        <ele>237.188</ele>
        <time>2021-08-19T15:08:24Z</time>
      </trkpt>
      <trkpt lat="41.783687" lon="0.826678">
        <ele>237.064</ele>
        <time>2021-08-19T15:08:27Z</time>
      </trkpt>
      <trkpt lat="41.783644" lon="0.826639">
        <ele>237.042</ele>
        <time>2021-08-19T15:08:29Z</time>
      </trkpt>
      <trkpt lat="41.783620" lon="0.826573">
        <ele>237.022</ele>
        <time>2021-08-19T15:08:32Z</time>
      </trkpt>
      <trkpt lat="41.783563" lon="0.826509">
        <ele>237.414</ele>
        <time>2021-08-19T15:08:34Z</time>
      </trkpt>
      <trkpt lat="41.783524" lon="0.826461">
        <ele>237.909</ele>
        <time>2021-08-19T15:08:35Z</time>
      </trkpt>
      <trkpt lat="41.783480" lon="0.826411">
        <ele>238.435</ele>
        <time>2021-08-19T15:08:37Z</time>
      </trkpt>
      <trkpt lat="41.783441" lon="0.826357">
        <ele>239.036</ele>
        <time>2021-08-19T15:08:39Z</time>
      </trkpt>
      <trkpt lat="41.783401" lon="0.826293">
        <ele>239.697</ele>
        <time>2021-08-19T15:08:40Z</time>
      </trkpt>
      <trkpt lat="41.783367" lon="0.826239">
        <ele>240.291</ele>
        <time>2021-08-19T15:08:42Z</time>
      </trkpt>
      <trkpt lat="41.783337" lon="0.826188">
        <ele>240.752</ele>
        <time>2021-08-19T15:08:43Z</time>
      </trkpt>
      <trkpt lat="41.783305" lon="0.826138">
        <ele>241.218</ele>
        <time>2021-08-19T15:08:45Z</time>
      </trkpt>
      <trkpt lat="41.783264" lon="0.826080">
        <ele>241.763</ele>
        <time>2021-08-19T15:08:47Z</time>
      </trkpt>
      <trkpt lat="41.783232" lon="0.826033">
        <ele>242.064</ele>
        <time>2021-08-19T15:08:49Z</time>
      </trkpt>
      <trkpt lat="41.783196" lon="0.825983">
        <ele>242.310</ele>
        <time>2021-08-19T15:08:51Z</time>
      </trkpt>
      <trkpt lat="41.783148" lon="0.825923">
        <ele>242.679</ele>
        <time>2021-08-19T15:08:54Z</time>
      </trkpt>
      <trkpt lat="41.783107" lon="0.825889">
        <ele>242.805</ele>
        <time>2021-08-19T15:08:56Z</time>
      </trkpt>
      <trkpt lat="41.783067" lon="0.825852">
        <ele>243.025</ele>
        <time>2021-08-19T15:08:58Z</time>
      </trkpt>
      <trkpt lat="41.783017" lon="0.825815">
        <ele>242.709</ele>
        <time>2021-08-19T15:09:00Z</time>
      </trkpt>
      <trkpt lat="41.782973" lon="0.825780">
        <ele>242.338</ele>
        <time>2021-08-19T15:09:02Z</time>
      </trkpt>
      <trkpt lat="41.782928" lon="0.825740">
        <ele>241.969</ele>
        <time>2021-08-19T15:09:04Z</time>
      </trkpt>
      <trkpt lat="41.782882" lon="0.825695">
        <ele>241.430</ele>
        <time>2021-08-19T15:09:06Z</time>
      </trkpt>
      <trkpt lat="41.782837" lon="0.825676">
        <ele>241.154</ele>
        <time>2021-08-19T15:09:08Z</time>
      </trkpt>
      <trkpt lat="41.782776" lon="0.825663">
        <ele>240.885</ele>
        <time>2021-08-19T15:09:10Z</time>
      </trkpt>
      <trkpt lat="41.782732" lon="0.825651">
        <ele>240.631</ele>
        <time>2021-08-19T15:09:13Z</time>
      </trkpt>
      <trkpt lat="41.782761" lon="0.825605">
        <ele>240.336</ele>
        <time>2021-08-19T15:09:20Z</time>
      </trkpt>
      <trkpt lat="41.782809" lon="0.825558">
        <ele>240.117</ele>
        <time>2021-08-19T15:09:23Z</time>
      </trkpt>
      <trkpt lat="41.782863" lon="0.825579">
        <ele>240.523</ele>
        <time>2021-08-19T15:09:26Z</time>
      </trkpt>
      <trkpt lat="41.782897" lon="0.825537">
        <ele>240.498</ele>
        <time>2021-08-19T15:09:33Z</time>
      </trkpt>
      <trkpt lat="41.782944" lon="0.825497">
        <ele>240.515</ele>
        <time>2021-08-19T15:09:36Z</time>
      </trkpt>
      <trkpt lat="41.783003" lon="0.825503">
        <ele>240.826</ele>
        <time>2021-08-19T15:09:39Z</time>
      </trkpt>
      <trkpt lat="41.783035" lon="0.825562">
        <ele>241.009</ele>
        <time>2021-08-19T15:09:41Z</time>
      </trkpt>
      <trkpt lat="41.783069" lon="0.825618">
        <ele>241.490</ele>
        <time>2021-08-19T15:09:43Z</time>
      </trkpt>
      <trkpt lat="41.783120" lon="0.825648">
        <ele>241.531</ele>
        <time>2021-08-19T15:09:45Z</time>
      </trkpt>
      <trkpt lat="41.783186" lon="0.825658">
        <ele>241.432</ele>
        <time>2021-08-19T15:09:47Z</time>
      </trkpt>
      <trkpt lat="41.783259" lon="0.825686">
        <ele>241.316</ele>
        <time>2021-08-19T15:09:49Z</time>
      </trkpt>
      <trkpt lat="41.783318" lon="0.825695">
        <ele>241.147</ele>
        <time>2021-08-19T15:09:51Z</time>
      </trkpt>
      <trkpt lat="41.783366" lon="0.825664">
        <ele>241.013</ele>
        <time>2021-08-19T15:09:53Z</time>
      </trkpt>
      <trkpt lat="41.783389" lon="0.825612">
        <ele>241.098</ele>
        <time>2021-08-19T15:09:55Z</time>
      </trkpt>
      <trkpt lat="41.783455" lon="0.825589">
        <ele>240.929</ele>
        <time>2021-08-19T15:09:58Z</time>
      </trkpt>
      <trkpt lat="41.783513" lon="0.825550">
        <ele>241.075</ele>
        <time>2021-08-19T15:10:00Z</time>
      </trkpt>
      <trkpt lat="41.783562" lon="0.825500">
        <ele>241.011</ele>
        <time>2021-08-19T15:10:02Z</time>
      </trkpt>
      <trkpt lat="41.783613" lon="0.825444">
        <ele>241.021</ele>
        <time>2021-08-19T15:10:04Z</time>
      </trkpt>
      <trkpt lat="41.783660" lon="0.825391">
        <ele>240.903</ele>
        <time>2021-08-19T15:10:06Z</time>
      </trkpt>
      <trkpt lat="41.783709" lon="0.825352">
        <ele>240.909</ele>
        <time>2021-08-19T15:10:08Z</time>
      </trkpt>
      <trkpt lat="41.783764" lon="0.825318">
        <ele>240.952</ele>
        <time>2021-08-19T15:10:10Z</time>
      </trkpt>
      <trkpt lat="41.783818" lon="0.825270">
        <ele>241.043</ele>
        <time>2021-08-19T15:10:12Z</time>
      </trkpt>
      <trkpt lat="41.783867" lon="0.825216">
        <ele>241.064</ele>
        <time>2021-08-19T15:10:14Z</time>
      </trkpt>
      <trkpt lat="41.783917" lon="0.825176">
        <ele>240.998</ele>
        <time>2021-08-19T15:10:16Z</time>
      </trkpt>
      <trkpt lat="41.783973" lon="0.825128">
        <ele>240.999</ele>
        <time>2021-08-19T15:10:18Z</time>
      </trkpt>
      <trkpt lat="41.784028" lon="0.825081">
        <ele>240.965</ele>
        <time>2021-08-19T15:10:20Z</time>
      </trkpt>
      <trkpt lat="41.784086" lon="0.825032">
        <ele>240.910</ele>
        <time>2021-08-19T15:10:22Z</time>
      </trkpt>
      <trkpt lat="41.784144" lon="0.824980">
        <ele>241.031</ele>
        <time>2021-08-19T15:10:24Z</time>
      </trkpt>
      <trkpt lat="41.784201" lon="0.824928">
        <ele>240.937</ele>
        <time>2021-08-19T15:10:26Z</time>
      </trkpt>
      <trkpt lat="41.784261" lon="0.824879">
        <ele>240.736</ele>
        <time>2021-08-19T15:10:28Z</time>
      </trkpt>
      <trkpt lat="41.784312" lon="0.824825">
        <ele>240.517</ele>
        <time>2021-08-19T15:10:30Z</time>
      </trkpt>
      <trkpt lat="41.784351" lon="0.824784">
        <ele>240.318</ele>
        <time>2021-08-19T15:10:32Z</time>
      </trkpt>
      <trkpt lat="41.784420" lon="0.824742">
        <ele>240.109</ele>
        <time>2021-08-19T15:10:34Z</time>
      </trkpt>
      <trkpt lat="41.784473" lon="0.824692">
        <ele>239.914</ele>
        <time>2021-08-19T15:10:36Z</time>
      </trkpt>
      <trkpt lat="41.784524" lon="0.824638">
        <ele>239.755</ele>
        <time>2021-08-19T15:10:38Z</time>
      </trkpt>
      <trkpt lat="41.784573" lon="0.824579">
        <ele>239.536</ele>
        <time>2021-08-19T15:10:40Z</time>
      </trkpt>
      <trkpt lat="41.784633" lon="0.824536">
        <ele>239.340</ele>
        <time>2021-08-19T15:10:42Z</time>
      </trkpt>
      <trkpt lat="41.784686" lon="0.824481">
        <ele>239.111</ele>
        <time>2021-08-19T15:10:44Z</time>
      </trkpt>
      <trkpt lat="41.784744" lon="0.824434">
        <ele>238.897</ele>
        <time>2021-08-19T15:10:46Z</time>
      </trkpt>
      <trkpt lat="41.784802" lon="0.824395">
        <ele>238.412</ele>
        <time>2021-08-19T15:10:48Z</time>
      </trkpt>
      <trkpt lat="41.784865" lon="0.824360">
        <ele>238.033</ele>
        <time>2021-08-19T15:10:50Z</time>
      </trkpt>
      <trkpt lat="41.784926" lon="0.824322">
        <ele>237.779</ele>
        <time>2021-08-19T15:10:52Z</time>
      </trkpt>
      <trkpt lat="41.784977" lon="0.824266">
        <ele>237.475</ele>
        <time>2021-08-19T15:10:54Z</time>
      </trkpt>
      <trkpt lat="41.785031" lon="0.824222">
        <ele>237.328</ele>
        <time>2021-08-19T15:10:56Z</time>
      </trkpt>
      <trkpt lat="41.785085" lon="0.824174">
        <ele>237.320</ele>
        <time>2021-08-19T15:10:58Z</time>
      </trkpt>
      <trkpt lat="41.785141" lon="0.824131">
        <ele>237.509</ele>
        <time>2021-08-19T15:11:00Z</time>
      </trkpt>
      <trkpt lat="41.785174" lon="0.824084">
        <ele>237.668</ele>
        <time>2021-08-19T15:11:02Z</time>
      </trkpt>
      <trkpt lat="41.785232" lon="0.824013">
        <ele>237.839</ele>
        <time>2021-08-19T15:11:04Z</time>
      </trkpt>
      <trkpt lat="41.785287" lon="0.823971">
        <ele>238.060</ele>
        <time>2021-08-19T15:11:06Z</time>
      </trkpt>
      <trkpt lat="41.785338" lon="0.823927">
        <ele>238.034</ele>
        <time>2021-08-19T15:11:08Z</time>
      </trkpt>
      <trkpt lat="41.785397" lon="0.823883">
        <ele>238.065</ele>
        <time>2021-08-19T15:11:10Z</time>
      </trkpt>
      <trkpt lat="41.785451" lon="0.823821">
        <ele>237.831</ele>
        <time>2021-08-19T15:11:12Z</time>
      </trkpt>
      <trkpt lat="41.785506" lon="0.823767">
        <ele>237.696</ele>
        <time>2021-08-19T15:11:14Z</time>
      </trkpt>
      <trkpt lat="41.785559" lon="0.823713">
        <ele>237.477</ele>
        <time>2021-08-19T15:11:16Z</time>
      </trkpt>
      <trkpt lat="41.785617" lon="0.823667">
        <ele>237.273</ele>
        <time>2021-08-19T15:11:18Z</time>
      </trkpt>
      <trkpt lat="41.785669" lon="0.823628">
        <ele>237.052</ele>
        <time>2021-08-19T15:11:20Z</time>
      </trkpt>
      <trkpt lat="41.785716" lon="0.823581">
        <ele>236.953</ele>
        <time>2021-08-19T15:11:22Z</time>
      </trkpt>
      <trkpt lat="41.785766" lon="0.823539">
        <ele>236.808</ele>
        <time>2021-08-19T15:11:24Z</time>
      </trkpt>
      <trkpt lat="41.785810" lon="0.823493">
        <ele>236.609</ele>
        <time>2021-08-19T15:11:26Z</time>
      </trkpt>
      <trkpt lat="41.785862" lon="0.823449">
        <ele>236.416</ele>
        <time>2021-08-19T15:11:28Z</time>
      </trkpt>
      <trkpt lat="41.785911" lon="0.823422">
        <ele>236.277</ele>
        <time>2021-08-19T15:11:30Z</time>
      </trkpt>
      <trkpt lat="41.785953" lon="0.823381">
        <ele>236.138</ele>
        <time>2021-08-19T15:11:32Z</time>
      </trkpt>
      <trkpt lat="41.786006" lon="0.823334">
        <ele>236.092</ele>
        <time>2021-08-19T15:11:34Z</time>
      </trkpt>
      <trkpt lat="41.786045" lon="0.823295">
        <ele>235.983</ele>
        <time>2021-08-19T15:11:36Z</time>
      </trkpt>
      <trkpt lat="41.786086" lon="0.823264">
        <ele>235.819</ele>
        <time>2021-08-19T15:11:38Z</time>
      </trkpt>
      <trkpt lat="41.786157" lon="0.823208">
        <ele>235.584</ele>
        <time>2021-08-19T15:11:41Z</time>
      </trkpt>
      <trkpt lat="41.786205" lon="0.823161">
        <ele>235.495</ele>
        <time>2021-08-19T15:11:43Z</time>
      </trkpt>
      <trkpt lat="41.786261" lon="0.823119">
        <ele>235.211</ele>
        <time>2021-08-19T15:11:45Z</time>
      </trkpt>
      <trkpt lat="41.786308" lon="0.823077">
        <ele>235.131</ele>
        <time>2021-08-19T15:11:47Z</time>
      </trkpt>
      <trkpt lat="41.786355" lon="0.823033">
        <ele>235.061</ele>
        <time>2021-08-19T15:11:49Z</time>
      </trkpt>
      <trkpt lat="41.786400" lon="0.822994">
        <ele>235.107</ele>
        <time>2021-08-19T15:11:51Z</time>
      </trkpt>
      <trkpt lat="41.786448" lon="0.822951">
        <ele>235.409</ele>
        <time>2021-08-19T15:11:53Z</time>
      </trkpt>
      <trkpt lat="41.786506" lon="0.822906">
        <ele>235.894</ele>
        <time>2021-08-19T15:11:56Z</time>
      </trkpt>
      <trkpt lat="41.786559" lon="0.822867">
        <ele>236.275</ele>
        <time>2021-08-19T15:11:59Z</time>
      </trkpt>
      <trkpt lat="41.786603" lon="0.822834">
        <ele>236.566</ele>
        <time>2021-08-19T15:12:01Z</time>
      </trkpt>
      <trkpt lat="41.786662" lon="0.822798">
        <ele>237.010</ele>
        <time>2021-08-19T15:12:03Z</time>
      </trkpt>
      <trkpt lat="41.786708" lon="0.822756">
        <ele>237.191</ele>
        <time>2021-08-19T15:12:05Z</time>
      </trkpt>
      <trkpt lat="41.786753" lon="0.822726">
        <ele>237.337</ele>
        <time>2021-08-19T15:12:07Z</time>
      </trkpt>
      <trkpt lat="41.786799" lon="0.822689">
        <ele>237.522</ele>
        <time>2021-08-19T15:12:09Z</time>
      </trkpt>
      <trkpt lat="41.786853" lon="0.822658">
        <ele>237.713</ele>
        <time>2021-08-19T15:12:11Z</time>
      </trkpt>
      <trkpt lat="41.786912" lon="0.822627">
        <ele>237.999</ele>
        <time>2021-08-19T15:12:13Z</time>
      </trkpt>
      <trkpt lat="41.786964" lon="0.822586">
        <ele>238.058</ele>
        <time>2021-08-19T15:12:15Z</time>
      </trkpt>
      <trkpt lat="41.787012" lon="0.822557">
        <ele>238.052</ele>
        <time>2021-08-19T15:12:17Z</time>
      </trkpt>
      <trkpt lat="41.787073" lon="0.822524">
        <ele>238.017</ele>
        <time>2021-08-19T15:12:19Z</time>
      </trkpt>
      <trkpt lat="41.787127" lon="0.822495">
        <ele>238.009</ele>
        <time>2021-08-19T15:12:21Z</time>
      </trkpt>
      <trkpt lat="41.787187" lon="0.822478">
        <ele>238.066</ele>
        <time>2021-08-19T15:12:23Z</time>
      </trkpt>
      <trkpt lat="41.787257" lon="0.822445">
        <ele>238.067</ele>
        <time>2021-08-19T15:12:25Z</time>
      </trkpt>
      <trkpt lat="41.787323" lon="0.822419">
        <ele>238.028</ele>
        <time>2021-08-19T15:12:27Z</time>
      </trkpt>
      <trkpt lat="41.787388" lon="0.822387">
        <ele>238.032</ele>
        <time>2021-08-19T15:12:29Z</time>
      </trkpt>
      <trkpt lat="41.787437" lon="0.822355">
        <ele>238.093</ele>
        <time>2021-08-19T15:12:31Z</time>
      </trkpt>
      <trkpt lat="41.787487" lon="0.822326">
        <ele>238.059</ele>
        <time>2021-08-19T15:12:33Z</time>
      </trkpt>
      <trkpt lat="41.787542" lon="0.822293">
        <ele>238.014</ele>
        <time>2021-08-19T15:12:35Z</time>
      </trkpt>
      <trkpt lat="41.787597" lon="0.822260">
        <ele>238.035</ele>
        <time>2021-08-19T15:12:37Z</time>
      </trkpt>
      <trkpt lat="41.787660" lon="0.822227">
        <ele>238.011</ele>
        <time>2021-08-19T15:12:39Z</time>
      </trkpt>
      <trkpt lat="41.787722" lon="0.822194">
        <ele>238.019</ele>
        <time>2021-08-19T15:12:41Z</time>
      </trkpt>
      <trkpt lat="41.787781" lon="0.822164">
        <ele>238.009</ele>
        <time>2021-08-19T15:12:43Z</time>
      </trkpt>
      <trkpt lat="41.787837" lon="0.822140">
        <ele>237.819</ele>
        <time>2021-08-19T15:12:45Z</time>
      </trkpt>
      <trkpt lat="41.787895" lon="0.822103">
        <ele>237.609</ele>
        <time>2021-08-19T15:12:47Z</time>
      </trkpt>
      <trkpt lat="41.787960" lon="0.822079">
        <ele>237.352</ele>
        <time>2021-08-19T15:12:49Z</time>
      </trkpt>
      <trkpt lat="41.788024" lon="0.822047">
        <ele>237.113</ele>
        <time>2021-08-19T15:12:51Z</time>
      </trkpt>
      <trkpt lat="41.788091" lon="0.822022">
        <ele>236.724</ele>
        <time>2021-08-19T15:12:53Z</time>
      </trkpt>
      <trkpt lat="41.788146" lon="0.821995">
        <ele>236.348</ele>
        <time>2021-08-19T15:12:55Z</time>
      </trkpt>
      <trkpt lat="41.788192" lon="0.821975">
        <ele>236.099</ele>
        <time>2021-08-19T15:12:57Z</time>
      </trkpt>
      <trkpt lat="41.788248" lon="0.821952">
        <ele>235.685</ele>
        <time>2021-08-19T15:13:00Z</time>
      </trkpt>
      <trkpt lat="41.788293" lon="0.821931">
        <ele>235.360</ele>
        <time>2021-08-19T15:13:08Z</time>
      </trkpt>
      <trkpt lat="41.788314" lon="0.821845">
        <ele>235.121</ele>
        <time>2021-08-19T15:13:11Z</time>
      </trkpt>
      <trkpt lat="41.788355" lon="0.821777">
        <ele>234.857</ele>
        <time>2021-08-19T15:13:14Z</time>
      </trkpt>
      <trkpt lat="41.788402" lon="0.821749">
        <ele>234.477</ele>
        <time>2021-08-19T15:13:16Z</time>
      </trkpt>
      <trkpt lat="41.788459" lon="0.821723">
        <ele>233.861</ele>
        <time>2021-08-19T15:13:20Z</time>
      </trkpt>
      <trkpt lat="41.788504" lon="0.821694">
        <ele>233.327</ele>
        <time>2021-08-19T15:13:23Z</time>
      </trkpt>
      <trkpt lat="41.788542" lon="0.821645">
        <ele>232.609</ele>
        <time>2021-08-19T15:13:26Z</time>
      </trkpt>
      <trkpt lat="41.788580" lon="0.821598">
        <ele>231.978</ele>
        <time>2021-08-19T15:13:30Z</time>
      </trkpt>
      <trkpt lat="41.788636" lon="0.821566">
        <ele>231.199</ele>
        <time>2021-08-19T15:13:33Z</time>
      </trkpt>
      <trkpt lat="41.788684" lon="0.821520">
        <ele>230.690</ele>
        <time>2021-08-19T15:13:35Z</time>
      </trkpt>
      <trkpt lat="41.788737" lon="0.821468">
        <ele>230.084</ele>
        <time>2021-08-19T15:13:37Z</time>
      </trkpt>
      <trkpt lat="41.788791" lon="0.821418">
        <ele>229.555</ele>
        <time>2021-08-19T15:13:39Z</time>
      </trkpt>
      <trkpt lat="41.788837" lon="0.821372">
        <ele>229.111</ele>
        <time>2021-08-19T15:13:41Z</time>
      </trkpt>
      <trkpt lat="41.788890" lon="0.821315">
        <ele>228.716</ele>
        <time>2021-08-19T15:13:43Z</time>
      </trkpt>
      <trkpt lat="41.788927" lon="0.821278">
        <ele>228.767</ele>
        <time>2021-08-19T15:13:45Z</time>
      </trkpt>
      <trkpt lat="41.788965" lon="0.821244">
        <ele>228.683</ele>
        <time>2021-08-19T15:13:46Z</time>
      </trkpt>
      <trkpt lat="41.789009" lon="0.821194">
        <ele>228.673</ele>
        <time>2021-08-19T15:13:48Z</time>
      </trkpt>
      <trkpt lat="41.789055" lon="0.821126">
        <ele>228.685</ele>
        <time>2021-08-19T15:13:50Z</time>
      </trkpt>
      <trkpt lat="41.789100" lon="0.821050">
        <ele>228.813</ele>
        <time>2021-08-19T15:13:52Z</time>
      </trkpt>
      <trkpt lat="41.789141" lon="0.820965">
        <ele>228.909</ele>
        <time>2021-08-19T15:13:54Z</time>
      </trkpt>
      <trkpt lat="41.789184" lon="0.820886">
        <ele>229.098</ele>
        <time>2021-08-19T15:13:56Z</time>
      </trkpt>
      <trkpt lat="41.789237" lon="0.820819">
        <ele>228.999</ele>
        <time>2021-08-19T15:13:58Z</time>
      </trkpt>
      <trkpt lat="41.789274" lon="0.820745">
        <ele>228.720</ele>
        <time>2021-08-19T15:14:00Z</time>
      </trkpt>
      <trkpt lat="41.789297" lon="0.820685">
        <ele>228.584</ele>
        <time>2021-08-19T15:14:02Z</time>
      </trkpt>
      <trkpt lat="41.789325" lon="0.820607">
        <ele>228.275</ele>
        <time>2021-08-19T15:14:05Z</time>
      </trkpt>
      <trkpt lat="41.789353" lon="0.820549">
        <ele>228.091</ele>
        <time>2021-08-19T15:14:09Z</time>
      </trkpt>
      <trkpt lat="41.789361" lon="0.820486">
        <ele>227.586</ele>
        <time>2021-08-19T15:14:12Z</time>
      </trkpt>
      <trkpt lat="41.789385" lon="0.820435">
        <ele>227.197</ele>
        <time>2021-08-19T15:14:14Z</time>
      </trkpt>
      <trkpt lat="41.789407" lon="0.820373">
        <ele>226.773</ele>
        <time>2021-08-19T15:14:18Z</time>
      </trkpt>
      <trkpt lat="41.789456" lon="0.820390">
        <ele>226.841</ele>
        <time>2021-08-19T15:14:25Z</time>
      </trkpt>
      <trkpt lat="41.789485" lon="0.820333">
        <ele>226.281</ele>
        <time>2021-08-19T15:14:27Z</time>
      </trkpt>
      <trkpt lat="41.789505" lon="0.820243">
        <ele>225.609</ele>
        <time>2021-08-19T15:14:29Z</time>
      </trkpt>
      <trkpt lat="41.789538" lon="0.820131">
        <ele>225.009</ele>
        <time>2021-08-19T15:14:31Z</time>
      </trkpt>
      <trkpt lat="41.789561" lon="0.820070">
        <ele>224.795</ele>
        <time>2021-08-19T15:14:32Z</time>
      </trkpt>
      <trkpt lat="41.789607" lon="0.819962">
        <ele>224.746</ele>
        <time>2021-08-19T15:14:34Z</time>
      </trkpt>
      <trkpt lat="41.789641" lon="0.819862">
        <ele>225.267</ele>
        <time>2021-08-19T15:14:36Z</time>
      </trkpt>
      <trkpt lat="41.789674" lon="0.819768">
        <ele>225.771</ele>
        <time>2021-08-19T15:14:38Z</time>
      </trkpt>
      <trkpt lat="41.789704" lon="0.819678">
        <ele>225.962</ele>
        <time>2021-08-19T15:14:40Z</time>
      </trkpt>
      <trkpt lat="41.789723" lon="0.819593">
        <ele>226.068</ele>
        <time>2021-08-19T15:14:42Z</time>
      </trkpt>
      <trkpt lat="41.789756" lon="0.819522">
        <ele>225.993</ele>
        <time>2021-08-19T15:14:44Z</time>
      </trkpt>
      <trkpt lat="41.789788" lon="0.819422">
        <ele>225.844</ele>
        <time>2021-08-19T15:14:47Z</time>
      </trkpt>
      <trkpt lat="41.789793" lon="0.819351">
        <ele>225.850</ele>
        <time>2021-08-19T15:14:49Z</time>
      </trkpt>
      <trkpt lat="41.789807" lon="0.819278">
        <ele>225.967</ele>
        <time>2021-08-19T15:14:51Z</time>
      </trkpt>
      <trkpt lat="41.789851" lon="0.819197">
        <ele>225.981</ele>
        <time>2021-08-19T15:14:53Z</time>
      </trkpt>
      <trkpt lat="41.789889" lon="0.819109">
        <ele>226.119</ele>
        <time>2021-08-19T15:14:55Z</time>
      </trkpt>
      <trkpt lat="41.789918" lon="0.819017">
        <ele>226.409</ele>
        <time>2021-08-19T15:14:57Z</time>
      </trkpt>
      <trkpt lat="41.789948" lon="0.818933">
        <ele>226.747</ele>
        <time>2021-08-19T15:14:59Z</time>
      </trkpt>
      <trkpt lat="41.789976" lon="0.818855">
        <ele>227.048</ele>
        <time>2021-08-19T15:15:01Z</time>
      </trkpt>
      <trkpt lat="41.790007" lon="0.818779">
        <ele>227.429</ele>
        <time>2021-08-19T15:15:03Z</time>
      </trkpt>
      <trkpt lat="41.790035" lon="0.818703">
        <ele>227.613</ele>
        <time>2021-08-19T15:15:05Z</time>
      </trkpt>
      <trkpt lat="41.790060" lon="0.818625">
        <ele>227.724</ele>
        <time>2021-08-19T15:15:07Z</time>
      </trkpt>
      <trkpt lat="41.790088" lon="0.818561">
        <ele>227.650</ele>
        <time>2021-08-19T15:15:09Z</time>
      </trkpt>
      <trkpt lat="41.790122" lon="0.818502">
        <ele>227.385</ele>
        <time>2021-08-19T15:15:11Z</time>
      </trkpt>
      <trkpt lat="41.790142" lon="0.818438">
        <ele>227.236</ele>
        <time>2021-08-19T15:15:13Z</time>
      </trkpt>
      <trkpt lat="41.790170" lon="0.818348">
        <ele>227.082</ele>
        <time>2021-08-19T15:15:16Z</time>
      </trkpt>
      <trkpt lat="41.790198" lon="0.818287">
        <ele>226.771</ele>
        <time>2021-08-19T15:15:18Z</time>
      </trkpt>
      <trkpt lat="41.790237" lon="0.818227">
        <ele>226.341</ele>
        <time>2021-08-19T15:15:20Z</time>
      </trkpt>
      <trkpt lat="41.790259" lon="0.818163">
        <ele>225.815</ele>
        <time>2021-08-19T15:15:22Z</time>
      </trkpt>
      <trkpt lat="41.790276" lon="0.818097">
        <ele>225.309</ele>
        <time>2021-08-19T15:15:24Z</time>
      </trkpt>
      <trkpt lat="41.790303" lon="0.818030">
        <ele>224.898</ele>
        <time>2021-08-19T15:15:26Z</time>
      </trkpt>
      <trkpt lat="41.790326" lon="0.817957">
        <ele>224.579</ele>
        <time>2021-08-19T15:15:28Z</time>
      </trkpt>
      <trkpt lat="41.790345" lon="0.817885">
        <ele>224.380</ele>
        <time>2021-08-19T15:15:30Z</time>
      </trkpt>
      <trkpt lat="41.790365" lon="0.817816">
        <ele>224.134</ele>
        <time>2021-08-19T15:15:32Z</time>
      </trkpt>
      <trkpt lat="41.790388" lon="0.817757">
        <ele>224.045</ele>
        <time>2021-08-19T15:15:34Z</time>
      </trkpt>
      <trkpt lat="41.790423" lon="0.817691">
        <ele>223.991</ele>
        <time>2021-08-19T15:15:36Z</time>
      </trkpt>
      <trkpt lat="41.790440" lon="0.817616">
        <ele>223.836</ele>
        <time>2021-08-19T15:15:38Z</time>
      </trkpt>
      <trkpt lat="41.790466" lon="0.817552">
        <ele>223.757</ele>
        <time>2021-08-19T15:15:40Z</time>
      </trkpt>
      <trkpt lat="41.790490" lon="0.817493">
        <ele>223.813</ele>
        <time>2021-08-19T15:15:42Z</time>
      </trkpt>
      <trkpt lat="41.790517" lon="0.817434">
        <ele>223.974</ele>
        <time>2021-08-19T15:15:44Z</time>
      </trkpt>
      <trkpt lat="41.790545" lon="0.817371">
        <ele>224.056</ele>
        <time>2021-08-19T15:15:46Z</time>
      </trkpt>
      <trkpt lat="41.790577" lon="0.817287">
        <ele>224.021</ele>
        <time>2021-08-19T15:15:48Z</time>
      </trkpt>
      <trkpt lat="41.790607" lon="0.817219">
        <ele>224.009</ele>
        <time>2021-08-19T15:15:50Z</time>
      </trkpt>
      <trkpt lat="41.790628" lon="0.817149">
        <ele>223.848</ele>
        <time>2021-08-19T15:15:52Z</time>
      </trkpt>
      <trkpt lat="41.790657" lon="0.817088">
        <ele>223.769</ele>
        <time>2021-08-19T15:15:54Z</time>
      </trkpt>
      <trkpt lat="41.790676" lon="0.817014">
        <ele>223.650</ele>
        <time>2021-08-19T15:15:56Z</time>
      </trkpt>
      <trkpt lat="41.790696" lon="0.816937">
        <ele>223.534</ele>
        <time>2021-08-19T15:15:58Z</time>
      </trkpt>
      <trkpt lat="41.790714" lon="0.816869">
        <ele>223.795</ele>
        <time>2021-08-19T15:16:00Z</time>
      </trkpt>
      <trkpt lat="41.790739" lon="0.816797">
        <ele>223.831</ele>
        <time>2021-08-19T15:16:02Z</time>
      </trkpt>
      <trkpt lat="41.790769" lon="0.816712">
        <ele>224.056</ele>
        <time>2021-08-19T15:16:04Z</time>
      </trkpt>
      <trkpt lat="41.790803" lon="0.816626">
        <ele>224.147</ele>
        <time>2021-08-19T15:16:06Z</time>
      </trkpt>
      <trkpt lat="41.790833" lon="0.816546">
        <ele>224.413</ele>
        <time>2021-08-19T15:16:08Z</time>
      </trkpt>
      <trkpt lat="41.790853" lon="0.816468">
        <ele>224.824</ele>
        <time>2021-08-19T15:16:10Z</time>
      </trkpt>
      <trkpt lat="41.790882" lon="0.816399">
        <ele>225.304</ele>
        <time>2021-08-19T15:16:12Z</time>
      </trkpt>
      <trkpt lat="41.790911" lon="0.816325">
        <ele>225.614</ele>
        <time>2021-08-19T15:16:14Z</time>
      </trkpt>
      <trkpt lat="41.790932" lon="0.816269">
        <ele>225.909</ele>
        <time>2021-08-19T15:16:16Z</time>
      </trkpt>
      <trkpt lat="41.790965" lon="0.816185">
        <ele>226.373</ele>
        <time>2021-08-19T15:16:18Z</time>
      </trkpt>
      <trkpt lat="41.790979" lon="0.816119">
        <ele>226.614</ele>
        <time>2021-08-19T15:16:20Z</time>
      </trkpt>
      <trkpt lat="41.790996" lon="0.816061">
        <ele>226.835</ele>
        <time>2021-08-19T15:16:22Z</time>
      </trkpt>
      <trkpt lat="41.791025" lon="0.815981">
        <ele>227.219</ele>
        <time>2021-08-19T15:16:25Z</time>
      </trkpt>
      <trkpt lat="41.791055" lon="0.815929">
        <ele>227.540</ele>
        <time>2021-08-19T15:16:27Z</time>
      </trkpt>
      <trkpt lat="41.791073" lon="0.815869">
        <ele>227.716</ele>
        <time>2021-08-19T15:16:29Z</time>
      </trkpt>
      <trkpt lat="41.791104" lon="0.815785">
        <ele>227.851</ele>
        <time>2021-08-19T15:16:32Z</time>
      </trkpt>
      <trkpt lat="41.791128" lon="0.815717">
        <ele>227.632</ele>
        <time>2021-08-19T15:16:34Z</time>
      </trkpt>
      <trkpt lat="41.791157" lon="0.815655">
        <ele>227.598</ele>
        <time>2021-08-19T15:16:36Z</time>
      </trkpt>
      <trkpt lat="41.791179" lon="0.815597">
        <ele>227.488</ele>
        <time>2021-08-19T15:16:38Z</time>
      </trkpt>
      <trkpt lat="41.791202" lon="0.815536">
        <ele>227.324</ele>
        <time>2021-08-19T15:16:40Z</time>
      </trkpt>
      <trkpt lat="41.791221" lon="0.815471">
        <ele>227.126</ele>
        <time>2021-08-19T15:16:42Z</time>
      </trkpt>
      <trkpt lat="41.791251" lon="0.815398">
        <ele>226.909</ele>
        <time>2021-08-19T15:16:45Z</time>
      </trkpt>
      <trkpt lat="41.791281" lon="0.815327">
        <ele>226.839</ele>
        <time>2021-08-19T15:16:48Z</time>
      </trkpt>
      <trkpt lat="41.791305" lon="0.815254">
        <ele>226.630</ele>
        <time>2021-08-19T15:16:50Z</time>
      </trkpt>
      <trkpt lat="41.791333" lon="0.815166">
        <ele>226.491</ele>
        <time>2021-08-19T15:16:52Z</time>
      </trkpt>
      <trkpt lat="41.791360" lon="0.815084">
        <ele>226.215</ele>
        <time>2021-08-19T15:16:54Z</time>
      </trkpt>
      <trkpt lat="41.791380" lon="0.815011">
        <ele>226.046</ele>
        <time>2021-08-19T15:16:56Z</time>
      </trkpt>
      <trkpt lat="41.791403" lon="0.814945">
        <ele>225.862</ele>
        <time>2021-08-19T15:16:58Z</time>
      </trkpt>
      <trkpt lat="41.791422" lon="0.814877">
        <ele>225.467</ele>
        <time>2021-08-19T15:17:00Z</time>
      </trkpt>
      <trkpt lat="41.791434" lon="0.814810">
        <ele>225.218</ele>
        <time>2021-08-19T15:17:02Z</time>
      </trkpt>
      <trkpt lat="41.791463" lon="0.814734">
        <ele>224.824</ele>
        <time>2021-08-19T15:17:05Z</time>
      </trkpt>
      <trkpt lat="41.791483" lon="0.814676">
        <ele>224.665</ele>
        <time>2021-08-19T15:17:07Z</time>
      </trkpt>
      <trkpt lat="41.791503" lon="0.814620">
        <ele>224.468</ele>
        <time>2021-08-19T15:17:09Z</time>
      </trkpt>
      <trkpt lat="41.791526" lon="0.814553">
        <ele>224.214</ele>
        <time>2021-08-19T15:17:11Z</time>
      </trkpt>
      <trkpt lat="41.791566" lon="0.814485">
        <ele>224.109</ele>
        <time>2021-08-19T15:17:14Z</time>
      </trkpt>
      <trkpt lat="41.789938" lon="0.806670">
        <ele>216.479</ele>
        <time>2020-08-23T05:41:06Z</time>
      </trkpt>
      <trkpt lat="41.790022" lon="0.806789">
        <ele>216.305</ele>
        <time>2020-08-23T05:49:02Z</time>
      </trkpt>
      <trkpt lat="41.790027" lon="0.806711">
        <ele>216.425</ele>
        <time>2020-08-23T05:49:08Z</time>
      </trkpt>
      <trkpt lat="41.790048" lon="0.806640">
        <ele>216.408</ele>
        <time>2020-08-23T05:49:11Z</time>
      </trkpt>
      <trkpt lat="41.790072" lon="0.806572">
        <ele>216.482</ele>
        <time>2020-08-23T05:49:17Z</time>
      </trkpt>
      <trkpt lat="41.790082" lon="0.806503">
        <ele>216.542</ele>
        <time>2020-08-23T05:49:22Z</time>
      </trkpt>
      <trkpt lat="41.790108" lon="0.806429">
        <ele>216.390</ele>
        <time>2020-08-23T05:50:19Z</time>
      </trkpt>
      <trkpt lat="41.790133" lon="0.806362">
        <ele>216.412</ele>
        <time>2020-08-23T05:50:26Z</time>
      </trkpt>
      <trkpt lat="41.790161" lon="0.806299">
        <ele>216.473</ele>
        <time>2020-08-23T05:50:29Z</time>
      </trkpt>
      <trkpt lat="41.790125" lon="0.806336">
        <ele>216.474</ele>
        <time>2020-08-23T05:51:05Z</time>
      </trkpt>
      <trkpt lat="41.790071" lon="0.806302">
        <ele>216.470</ele>
        <time>2020-08-23T05:51:13Z</time>
      </trkpt>
      <trkpt lat="41.790029" lon="0.806327">
        <ele>216.499</ele>
        <time>2020-08-23T05:51:25Z</time>
      </trkpt>
      <trkpt lat="41.789989" lon="0.806355">
        <ele>216.074</ele>
        <time>2020-08-23T05:52:36Z</time>
      </trkpt>
      <trkpt lat="41.789968" lon="0.806411">
        <ele>216.256</ele>
        <time>2020-08-23T05:53:57Z</time>
      </trkpt>
      <trkpt lat="41.790007" lon="0.806377">
        <ele>216.921</ele>
        <time>2020-08-23T05:55:06Z</time>
      </trkpt>
      <trkpt lat="41.790029" lon="0.806315">
        <ele>216.808</ele>
        <time>2020-08-23T05:55:15Z</time>
      </trkpt>
      <trkpt lat="41.790050" lon="0.806260">
        <ele>216.632</ele>
        <time>2020-08-23T05:55:27Z</time>
      </trkpt>
      <trkpt lat="41.790067" lon="0.806317">
        <ele>216.912</ele>
        <time>2020-08-23T05:55:48Z</time>
      </trkpt>
      <trkpt lat="41.790045" lon="0.806263">
        <ele>216.830</ele>
        <time>2020-08-23T05:56:20Z</time>
      </trkpt>
      <trkpt lat="41.790020" lon="0.806313">
        <ele>217.012</ele>
        <time>2020-08-23T05:56:40Z</time>
      </trkpt>
      <trkpt lat="41.790010" lon="0.806379">
        <ele>216.863</ele>
        <time>2020-08-23T05:57:36Z</time>
      </trkpt>
      <trkpt lat="41.790028" lon="0.806462">
        <ele>217.024</ele>
        <time>2020-08-23T05:57:44Z</time>
      </trkpt>
      <trkpt lat="41.789984" lon="0.806477">
        <ele>217.150</ele>
        <time>2020-08-23T05:57:51Z</time>
      </trkpt>
      <trkpt lat="41.789972" lon="0.806403">
        <ele>217.019</ele>
        <time>2020-08-23T05:57:55Z</time>
      </trkpt>
      <trkpt lat="41.789953" lon="0.806330">
        <ele>216.837</ele>
        <time>2020-08-23T05:58:47Z</time>
      </trkpt>
      <trkpt lat="41.789944" lon="0.806408">
        <ele>216.849</ele>
        <time>2020-08-23T05:58:52Z</time>
      </trkpt>
      <trkpt lat="41.789944" lon="0.806499">
        <ele>216.813</ele>
        <time>2020-08-23T05:58:54Z</time>
      </trkpt>
      <trkpt lat="41.789937" lon="0.806587">
        <ele>216.808</ele>
        <time>2020-08-23T05:58:56Z</time>
      </trkpt>
      <trkpt lat="41.789958" lon="0.806533">
        <ele>216.868</ele>
        <time>2020-08-23T05:59:17Z</time>
      </trkpt>
      <trkpt lat="41.789904" lon="0.806512">
        <ele>216.838</ele>
        <time>2020-08-23T05:59:22Z</time>
      </trkpt>
      <trkpt lat="41.789852" lon="0.806493">
        <ele>216.996</ele>
        <time>2020-08-23T05:59:25Z</time>
      </trkpt>
      <trkpt lat="41.789788" lon="0.806480">
        <ele>217.128</ele>
        <time>2020-08-23T05:59:28Z</time>
      </trkpt>
      <trkpt lat="41.789742" lon="0.806462">
        <ele>217.329</ele>
        <time>2020-08-23T05:59:30Z</time>
      </trkpt>
      <trkpt lat="41.789716" lon="0.806378">
        <ele>217.620</ele>
        <time>2020-08-23T05:59:33Z</time>
      </trkpt>
      <trkpt lat="41.789733" lon="0.806306">
        <ele>217.816</ele>
        <time>2020-08-23T05:59:35Z</time>
      </trkpt>
      <trkpt lat="41.789761" lon="0.806227">
        <ele>218.055</ele>
        <time>2020-08-23T05:59:37Z</time>
      </trkpt>
      <trkpt lat="41.789765" lon="0.806162">
        <ele>218.381</ele>
        <time>2020-08-23T05:59:39Z</time>
      </trkpt>
      <trkpt lat="41.789771" lon="0.806067">
        <ele>218.761</ele>
        <time>2020-08-23T05:59:42Z</time>
      </trkpt>
      <trkpt lat="41.789764" lon="0.805997">
        <ele>219.017</ele>
        <time>2020-08-23T05:59:44Z</time>
      </trkpt>
      <trkpt lat="41.789758" lon="0.805933">
        <ele>219.308</ele>
        <time>2020-08-23T05:59:46Z</time>
      </trkpt>
      <trkpt lat="41.789767" lon="0.805864">
        <ele>219.753</ele>
        <time>2020-08-23T05:59:49Z</time>
      </trkpt>
      <trkpt lat="41.789789" lon="0.805785">
        <ele>219.823</ele>
        <time>2020-08-23T05:59:51Z</time>
      </trkpt>
      <trkpt lat="41.789826" lon="0.805711">
        <ele>219.871</ele>
        <time>2020-08-23T05:59:53Z</time>
      </trkpt>
      <trkpt lat="41.789868" lon="0.805645">
        <ele>219.923</ele>
        <time>2020-08-23T05:59:55Z</time>
      </trkpt>
      <trkpt lat="41.789873" lon="0.805583">
        <ele>219.994</ele>
        <time>2020-08-23T05:59:57Z</time>
      </trkpt>
      <trkpt lat="41.789909" lon="0.805504">
        <ele>220.085</ele>
        <time>2020-08-23T06:00:00Z</time>
      </trkpt>
      <trkpt lat="41.789926" lon="0.805430">
        <ele>220.231</ele>
        <time>2020-08-23T06:00:02Z</time>
      </trkpt>
      <trkpt lat="41.789925" lon="0.805349">
        <ele>220.450</ele>
        <time>2020-08-23T06:00:04Z</time>
      </trkpt>
      <trkpt lat="41.789942" lon="0.805271">
        <ele>220.539</ele>
        <time>2020-08-23T06:00:06Z</time>
      </trkpt>
      <trkpt lat="41.789963" lon="0.805201">
        <ele>220.601</ele>
        <time>2020-08-23T06:00:08Z</time>
      </trkpt>
      <trkpt lat="41.789975" lon="0.805128">
        <ele>220.821</ele>
        <time>2020-08-23T06:00:10Z</time>
      </trkpt>
      <trkpt lat="41.790005" lon="0.805062">
        <ele>221.208</ele>
        <time>2020-08-23T06:00:12Z</time>
      </trkpt>
      <trkpt lat="41.790032" lon="0.805012">
        <ele>221.528</ele>
        <time>2020-08-23T06:00:14Z</time>
      </trkpt>
      <trkpt lat="41.790074" lon="0.804955">
        <ele>221.988</ele>
        <time>2020-08-23T06:00:17Z</time>
      </trkpt>
      <trkpt lat="41.790119" lon="0.804935">
        <ele>222.336</ele>
        <time>2020-08-23T06:00:20Z</time>
      </trkpt>
      <trkpt lat="41.790177" lon="0.804914">
        <ele>222.878</ele>
        <time>2020-08-23T06:00:23Z</time>
      </trkpt>
      <trkpt lat="41.790219" lon="0.804875">
        <ele>223.349</ele>
        <time>2020-08-23T06:00:26Z</time>
      </trkpt>
      <trkpt lat="41.790255" lon="0.804833">
        <ele>223.820</ele>
        <time>2020-08-23T06:00:29Z</time>
      </trkpt>
      <trkpt lat="41.790309" lon="0.804808">
        <ele>224.556</ele>
        <time>2020-08-23T06:00:33Z</time>
      </trkpt>
      <trkpt lat="41.790368" lon="0.804766">
        <ele>224.795</ele>
        <time>2020-08-23T06:00:35Z</time>
      </trkpt>
      <trkpt lat="41.790421" lon="0.804731">
        <ele>225.088</ele>
        <time>2020-08-23T06:00:37Z</time>
      </trkpt>
      <trkpt lat="41.790460" lon="0.804695">
        <ele>225.324</ele>
        <time>2020-08-23T06:00:39Z</time>
      </trkpt>
      <trkpt lat="41.790502" lon="0.804643">
        <ele>225.626</ele>
        <time>2020-08-23T06:00:41Z</time>
      </trkpt>
      <trkpt lat="41.790564" lon="0.804592">
        <ele>226.008</ele>
        <time>2020-08-23T06:00:43Z</time>
      </trkpt>
      <trkpt lat="41.790616" lon="0.804546">
        <ele>226.573</ele>
        <time>2020-08-23T06:00:45Z</time>
      </trkpt>
      <trkpt lat="41.790653" lon="0.804506">
        <ele>227.013</ele>
        <time>2020-08-23T06:00:47Z</time>
      </trkpt>
      <trkpt lat="41.790698" lon="0.804466">
        <ele>227.621</ele>
        <time>2020-08-23T06:00:49Z</time>
      </trkpt>
      <trkpt lat="41.790750" lon="0.804421">
        <ele>228.233</ele>
        <time>2020-08-23T06:00:51Z</time>
      </trkpt>
      <trkpt lat="41.790801" lon="0.804364">
        <ele>229.164</ele>
        <time>2020-08-23T06:00:54Z</time>
      </trkpt>
      <trkpt lat="41.790839" lon="0.804315">
        <ele>230.255</ele>
        <time>2020-08-23T06:00:56Z</time>
      </trkpt>
      <trkpt lat="41.790862" lon="0.804246">
        <ele>231.661</ele>
        <time>2020-08-23T06:01:00Z</time>
      </trkpt>
      <trkpt lat="41.790899" lon="0.804204">
        <ele>232.390</ele>
        <time>2020-08-23T06:01:03Z</time>
      </trkpt>
      <trkpt lat="41.790936" lon="0.804167">
        <ele>235.066</ele>
        <time>2020-08-23T06:01:11Z</time>
      </trkpt>
      <trkpt lat="41.790972" lon="0.804117">
        <ele>236.129</ele>
        <time>2020-08-23T06:01:14Z</time>
      </trkpt>
      <trkpt lat="41.791002" lon="0.804068">
        <ele>236.621</ele>
        <time>2020-08-23T06:01:16Z</time>
      </trkpt>
      <trkpt lat="41.791048" lon="0.804009">
        <ele>237.508</ele>
        <time>2020-08-23T06:01:19Z</time>
      </trkpt>
      <trkpt lat="41.791093" lon="0.803952">
        <ele>238.111</ele>
        <time>2020-08-23T06:01:21Z</time>
      </trkpt>
      <trkpt lat="41.791130" lon="0.803893">
        <ele>238.731</ele>
        <time>2020-08-23T06:01:23Z</time>
      </trkpt>
      <trkpt lat="41.791168" lon="0.803836">
        <ele>239.769</ele>
        <time>2020-08-23T06:01:26Z</time>
      </trkpt>
      <trkpt lat="41.791210" lon="0.803778">
        <ele>240.781</ele>
        <time>2020-08-23T06:01:29Z</time>
      </trkpt>
      <trkpt lat="41.791245" lon="0.803729">
        <ele>241.882</ele>
        <time>2020-08-23T06:01:33Z</time>
      </trkpt>
      <trkpt lat="41.791257" lon="0.803658">
        <ele>243.363</ele>
        <time>2020-08-23T06:01:38Z</time>
      </trkpt>
      <trkpt lat="41.791277" lon="0.803593">
        <ele>244.419</ele>
        <time>2020-08-23T06:01:42Z</time>
      </trkpt>
      <trkpt lat="41.791288" lon="0.803529">
        <ele>245.478</ele>
        <time>2020-08-23T06:01:46Z</time>
      </trkpt>
      <trkpt lat="41.791303" lon="0.803464">
        <ele>247.062</ele>
        <time>2020-08-23T06:01:52Z</time>
      </trkpt>
      <trkpt lat="41.791347" lon="0.803434">
        <ele>248.283</ele>
        <time>2020-08-23T06:01:56Z</time>
      </trkpt>
      <trkpt lat="41.791383" lon="0.803394">
        <ele>248.911</ele>
        <time>2020-08-23T06:01:59Z</time>
      </trkpt>
      <trkpt lat="41.791433" lon="0.803363">
        <ele>249.608</ele>
        <time>2020-08-23T06:02:02Z</time>
      </trkpt>
      <trkpt lat="41.791492" lon="0.803337">
        <ele>251.231</ele>
        <time>2020-08-23T06:02:07Z</time>
      </trkpt>
      <trkpt lat="41.791532" lon="0.803303">
        <ele>252.081</ele>
        <time>2020-08-23T06:02:10Z</time>
      </trkpt>
      <trkpt lat="41.791564" lon="0.803256">
        <ele>252.889</ele>
        <time>2020-08-23T06:02:13Z</time>
      </trkpt>
      <trkpt lat="41.791608" lon="0.803219">
        <ele>253.611</ele>
        <time>2020-08-23T06:02:16Z</time>
      </trkpt>
      <trkpt lat="41.791651" lon="0.803184">
        <ele>254.492</ele>
        <time>2020-08-23T06:02:19Z</time>
      </trkpt>
      <trkpt lat="41.791698" lon="0.803154">
        <ele>256.033</ele>
        <time>2020-08-23T06:02:25Z</time>
      </trkpt>
      <trkpt lat="41.791739" lon="0.803117">
        <ele>256.769</ele>
        <time>2020-08-23T06:02:29Z</time>
      </trkpt>
      <trkpt lat="41.791783" lon="0.803089">
        <ele>257.348</ele>
        <time>2020-08-23T06:02:33Z</time>
      </trkpt>
      <trkpt lat="41.791835" lon="0.803055">
        <ele>257.993</ele>
        <time>2020-08-23T06:02:37Z</time>
      </trkpt>
      <trkpt lat="41.791877" lon="0.803025">
        <ele>258.765</ele>
        <time>2020-08-23T06:02:42Z</time>
      </trkpt>
      <trkpt lat="41.791924" lon="0.802996">
        <ele>259.621</ele>
        <time>2020-08-23T06:02:47Z</time>
      </trkpt>
      <trkpt lat="41.791962" lon="0.802940">
        <ele>260.408</ele>
        <time>2020-08-23T06:02:51Z</time>
      </trkpt>
      <trkpt lat="41.791991" lon="0.802873">
        <ele>261.014</ele>
        <time>2020-08-23T06:02:55Z</time>
      </trkpt>
      <trkpt lat="41.792022" lon="0.802822">
        <ele>261.384</ele>
        <time>2020-08-23T06:02:57Z</time>
      </trkpt>
      <trkpt lat="41.792060" lon="0.802776">
        <ele>262.072</ele>
        <time>2020-08-23T06:03:01Z</time>
      </trkpt>
      <trkpt lat="41.792084" lon="0.802724">
        <ele>262.694</ele>
        <time>2020-08-23T06:03:04Z</time>
      </trkpt>
      <trkpt lat="41.792100" lon="0.802665">
        <ele>263.385</ele>
        <time>2020-08-23T06:03:07Z</time>
      </trkpt>
      <trkpt lat="41.792118" lon="0.802600">
        <ele>264.386</ele>
        <time>2020-08-23T06:03:11Z</time>
      </trkpt>
      <trkpt lat="41.792128" lon="0.802540">
        <ele>265.052</ele>
        <time>2020-08-23T06:03:16Z</time>
      </trkpt>
      <trkpt lat="41.792107" lon="0.802480">
        <ele>265.481</ele>
        <time>2020-08-23T06:03:20Z</time>
      </trkpt>
      <trkpt lat="41.792095" lon="0.802406">
        <ele>265.796</ele>
        <time>2020-08-23T06:03:23Z</time>
      </trkpt>
      <trkpt lat="41.792091" lon="0.802332">
        <ele>266.031</ele>
        <time>2020-08-23T06:03:26Z</time>
      </trkpt>
      <trkpt lat="41.792105" lon="0.802266">
        <ele>266.324</ele>
        <time>2020-08-23T06:03:29Z</time>
      </trkpt>
      <trkpt lat="41.792132" lon="0.802189">
        <ele>266.708</ele>
        <time>2020-08-23T06:03:32Z</time>
      </trkpt>
      <trkpt lat="41.792143" lon="0.802120">
        <ele>267.054</ele>
        <time>2020-08-23T06:03:35Z</time>
      </trkpt>
      <trkpt lat="41.792152" lon="0.802052">
        <ele>267.214</ele>
        <time>2020-08-23T06:03:38Z</time>
      </trkpt>
      <trkpt lat="41.792167" lon="0.801989">
        <ele>267.392</ele>
        <time>2020-08-23T06:03:40Z</time>
      </trkpt>
      <trkpt lat="41.792185" lon="0.801926">
        <ele>267.444</ele>
        <time>2020-08-23T06:03:42Z</time>
      </trkpt>
      <trkpt lat="41.792209" lon="0.801861">
        <ele>267.595</ele>
        <time>2020-08-23T06:03:44Z</time>
      </trkpt>
      <trkpt lat="41.792231" lon="0.801800">
        <ele>267.676</ele>
        <time>2020-08-23T06:03:46Z</time>
      </trkpt>
      <trkpt lat="41.792253" lon="0.801729">
        <ele>267.752</ele>
        <time>2020-08-23T06:03:48Z</time>
      </trkpt>
      <trkpt lat="41.792267" lon="0.801670">
        <ele>267.931</ele>
        <time>2020-08-23T06:03:50Z</time>
      </trkpt>
      <trkpt lat="41.792282" lon="0.801602">
        <ele>268.173</ele>
        <time>2020-08-23T06:03:52Z</time>
      </trkpt>
      <trkpt lat="41.792302" lon="0.801529">
        <ele>268.485</ele>
        <time>2020-08-23T06:03:54Z</time>
      </trkpt>
      <trkpt lat="41.792318" lon="0.801453">
        <ele>268.613</ele>
        <time>2020-08-23T06:03:56Z</time>
      </trkpt>
      <trkpt lat="41.792335" lon="0.801376">
        <ele>268.808</ele>
        <time>2020-08-23T06:03:58Z</time>
      </trkpt>
      <trkpt lat="41.792352" lon="0.801290">
        <ele>269.152</ele>
        <time>2020-08-23T06:04:01Z</time>
      </trkpt>
      <trkpt lat="41.792372" lon="0.801223">
        <ele>269.352</ele>
        <time>2020-08-23T06:04:03Z</time>
      </trkpt>
      <trkpt lat="41.792390" lon="0.801163">
        <ele>269.580</ele>
        <time>2020-08-23T06:04:05Z</time>
      </trkpt>
      <trkpt lat="41.792411" lon="0.801105">
        <ele>269.762</ele>
        <time>2020-08-23T06:04:07Z</time>
      </trkpt>
      <trkpt lat="41.792437" lon="0.801034">
        <ele>269.983</ele>
        <time>2020-08-23T06:04:09Z</time>
      </trkpt>
      <trkpt lat="41.792462" lon="0.800970">
        <ele>270.174</ele>
        <time>2020-08-23T06:04:11Z</time>
      </trkpt>
      <trkpt lat="41.792488" lon="0.800913">
        <ele>270.330</ele>
        <time>2020-08-23T06:04:13Z</time>
      </trkpt>
      <trkpt lat="41.792523" lon="0.800838">
        <ele>270.789</ele>
        <time>2020-08-23T06:04:16Z</time>
      </trkpt>
      <trkpt lat="41.792540" lon="0.800772">
        <ele>270.996</ele>
        <time>2020-08-23T06:04:18Z</time>
      </trkpt>
      <trkpt lat="41.792566" lon="0.800706">
        <ele>271.131</ele>
        <time>2020-08-23T06:04:20Z</time>
      </trkpt>
      <trkpt lat="41.792583" lon="0.800647">
        <ele>271.324</ele>
        <time>2020-08-23T06:04:22Z</time>
      </trkpt>
      <trkpt lat="41.792603" lon="0.800584">
        <ele>271.508</ele>
        <time>2020-08-23T06:04:24Z</time>
      </trkpt>
      <trkpt lat="41.792615" lon="0.800511">
        <ele>271.764</ele>
        <time>2020-08-23T06:04:26Z</time>
      </trkpt>
      <trkpt lat="41.792625" lon="0.800432">
        <ele>271.954</ele>
        <time>2020-08-23T06:04:28Z</time>
      </trkpt>
      <trkpt lat="41.792635" lon="0.800358">
        <ele>272.142</ele>
        <time>2020-08-23T06:04:30Z</time>
      </trkpt>
      <trkpt lat="41.792655" lon="0.800290">
        <ele>272.364</ele>
        <time>2020-08-23T06:04:32Z</time>
      </trkpt>
      <trkpt lat="41.792680" lon="0.800213">
        <ele>272.775</ele>
        <time>2020-08-23T06:04:35Z</time>
      </trkpt>
      <trkpt lat="41.792703" lon="0.800156">
        <ele>273.026</ele>
        <time>2020-08-23T06:04:37Z</time>
      </trkpt>
      <trkpt lat="41.792718" lon="0.800092">
        <ele>273.592</ele>
        <time>2020-08-23T06:04:39Z</time>
      </trkpt>
      <trkpt lat="41.792741" lon="0.800026">
        <ele>273.831</ele>
        <time>2020-08-23T06:04:41Z</time>
      </trkpt>
      <trkpt lat="41.792759" lon="0.799962">
        <ele>274.121</ele>
        <time>2020-08-23T06:04:43Z</time>
      </trkpt>
      <trkpt lat="41.792781" lon="0.799891">
        <ele>274.341</ele>
        <time>2020-08-23T06:04:45Z</time>
      </trkpt>
      <trkpt lat="41.792799" lon="0.799829">
        <ele>274.505</ele>
        <time>2020-08-23T06:04:47Z</time>
      </trkpt>
      <trkpt lat="41.792827" lon="0.799770">
        <ele>274.708</ele>
        <time>2020-08-23T06:04:49Z</time>
      </trkpt>
      <trkpt lat="41.792854" lon="0.799718">
        <ele>274.977</ele>
        <time>2020-08-23T06:04:51Z</time>
      </trkpt>
      <trkpt lat="41.792878" lon="0.799663">
        <ele>275.167</ele>
        <time>2020-08-23T06:04:53Z</time>
      </trkpt>
      <trkpt lat="41.792906" lon="0.799588">
        <ele>275.465</ele>
        <time>2020-08-23T06:04:56Z</time>
      </trkpt>
      <trkpt lat="41.792937" lon="0.799539">
        <ele>275.557</ele>
        <time>2020-08-23T06:04:58Z</time>
      </trkpt>
      <trkpt lat="41.792971" lon="0.799474">
        <ele>275.788</ele>
        <time>2020-08-23T06:05:00Z</time>
      </trkpt>
      <trkpt lat="41.793012" lon="0.799409">
        <ele>275.929</ele>
        <time>2020-08-23T06:05:02Z</time>
      </trkpt>
      <trkpt lat="41.793055" lon="0.799332">
        <ele>276.065</ele>
        <time>2020-08-23T06:05:04Z</time>
      </trkpt>
      <trkpt lat="41.793097" lon="0.799260">
        <ele>276.024</ele>
        <time>2020-08-23T06:05:06Z</time>
      </trkpt>
      <trkpt lat="41.793155" lon="0.799193">
        <ele>276.012</ele>
        <time>2020-08-23T06:05:08Z</time>
      </trkpt>
      <trkpt lat="41.793205" lon="0.799109">
        <ele>276.032</ele>
        <time>2020-08-23T06:05:10Z</time>
      </trkpt>
      <trkpt lat="41.793247" lon="0.799035">
        <ele>276.005</ele>
        <time>2020-08-23T06:05:12Z</time>
      </trkpt>
      <trkpt lat="41.793280" lon="0.798958">
        <ele>276.008</ele>
        <time>2020-08-23T06:05:14Z</time>
      </trkpt>
      <trkpt lat="41.793309" lon="0.798875">
        <ele>276.016</ele>
        <time>2020-08-23T06:05:16Z</time>
      </trkpt>
      <trkpt lat="41.793345" lon="0.798785">
        <ele>276.176</ele>
        <time>2020-08-23T06:05:18Z</time>
      </trkpt>
      <trkpt lat="41.793378" lon="0.798709">
        <ele>276.244</ele>
        <time>2020-08-23T06:05:20Z</time>
      </trkpt>
      <trkpt lat="41.793407" lon="0.798629">
        <ele>276.476</ele>
        <time>2020-08-23T06:05:22Z</time>
      </trkpt>
      <trkpt lat="41.793443" lon="0.798558">
        <ele>276.597</ele>
        <time>2020-08-23T06:05:24Z</time>
      </trkpt>
      <trkpt lat="41.793475" lon="0.798498">
        <ele>276.668</ele>
        <time>2020-08-23T06:05:26Z</time>
      </trkpt>
      <trkpt lat="41.793505" lon="0.798435">
        <ele>276.674</ele>
        <time>2020-08-23T06:05:28Z</time>
      </trkpt>
      <trkpt lat="41.793534" lon="0.798368">
        <ele>276.633</ele>
        <time>2020-08-23T06:05:30Z</time>
      </trkpt>
      <trkpt lat="41.793561" lon="0.798291">
        <ele>276.629</ele>
        <time>2020-08-23T06:05:32Z</time>
      </trkpt>
      <trkpt lat="41.793594" lon="0.798193">
        <ele>276.600</ele>
        <time>2020-08-23T06:05:34Z</time>
      </trkpt>
      <trkpt lat="41.793610" lon="0.798136">
        <ele>276.620</ele>
        <time>2020-08-23T06:05:35Z</time>
      </trkpt>
      <trkpt lat="41.793635" lon="0.798081">
        <ele>276.508</ele>
        <time>2020-08-23T06:05:36Z</time>
      </trkpt>
      <trkpt lat="41.793653" lon="0.798023">
        <ele>276.587</ele>
        <time>2020-08-23T06:05:37Z</time>
      </trkpt>
      <trkpt lat="41.793679" lon="0.797959">
        <ele>276.577</ele>
        <time>2020-08-23T06:05:38Z</time>
      </trkpt>
      <trkpt lat="41.793699" lon="0.797903">
        <ele>276.565</ele>
        <time>2020-08-23T06:05:39Z</time>
      </trkpt>
      <trkpt lat="41.793739" lon="0.797787">
        <ele>276.627</ele>
        <time>2020-08-23T06:05:41Z</time>
      </trkpt>
      <trkpt lat="41.793762" lon="0.797732">
        <ele>276.698</ele>
        <time>2020-08-23T06:05:42Z</time>
      </trkpt>
      <trkpt lat="41.793790" lon="0.797677">
        <ele>276.689</ele>
        <time>2020-08-23T06:05:43Z</time>
      </trkpt>
      <trkpt lat="41.793817" lon="0.797624">
        <ele>276.645</ele>
        <time>2020-08-23T06:05:44Z</time>
      </trkpt>
      <trkpt lat="41.793843" lon="0.797574">
        <ele>276.624</ele>
        <time>2020-08-23T06:05:45Z</time>
      </trkpt>
      <trkpt lat="41.793875" lon="0.797464">
        <ele>276.637</ele>
        <time>2020-08-23T06:05:47Z</time>
      </trkpt>
      <trkpt lat="41.793898" lon="0.797409">
        <ele>276.649</ele>
        <time>2020-08-23T06:05:48Z</time>
      </trkpt>
      <trkpt lat="41.793928" lon="0.797360">
        <ele>276.613</ele>
        <time>2020-08-23T06:05:49Z</time>
      </trkpt>
      <trkpt lat="41.793951" lon="0.797308">
        <ele>276.608</ele>
        <time>2020-08-23T06:05:50Z</time>
      </trkpt>
      <trkpt lat="41.793996" lon="0.797228">
        <ele>276.538</ele>
        <time>2020-08-23T06:05:52Z</time>
      </trkpt>
      <trkpt lat="41.794046" lon="0.797145">
        <ele>276.468</ele>
        <time>2020-08-23T06:05:54Z</time>
      </trkpt>
      <trkpt lat="41.794113" lon="0.797070">
        <ele>276.446</ele>
        <time>2020-08-23T06:05:56Z</time>
      </trkpt>
      <trkpt lat="41.794149" lon="0.797032">
        <ele>276.448</ele>
        <time>2020-08-23T06:05:57Z</time>
      </trkpt>
      <trkpt lat="41.794183" lon="0.796992">
        <ele>276.479</ele>
        <time>2020-08-23T06:05:58Z</time>
      </trkpt>
      <trkpt lat="41.794247" lon="0.796904">
        <ele>276.460</ele>
        <time>2020-08-23T06:06:00Z</time>
      </trkpt>
      <trkpt lat="41.794282" lon="0.796863">
        <ele>276.436</ele>
        <time>2020-08-23T06:06:01Z</time>
      </trkpt>
      <trkpt lat="41.794317" lon="0.796821">
        <ele>276.415</ele>
        <time>2020-08-23T06:06:02Z</time>
      </trkpt>
      <trkpt lat="41.794352" lon="0.796775">
        <ele>276.486</ele>
        <time>2020-08-23T06:06:03Z</time>
      </trkpt>
      <trkpt lat="41.794388" lon="0.796728">
        <ele>276.560</ele>
        <time>2020-08-23T06:06:04Z</time>
      </trkpt>
      <trkpt lat="41.794452" lon="0.796647">
        <ele>276.626</ele>
        <time>2020-08-23T06:06:06Z</time>
      </trkpt>
      <trkpt lat="41.794513" lon="0.796588">
        <ele>276.708</ele>
        <time>2020-08-23T06:06:08Z</time>
      </trkpt>
      <trkpt lat="41.794572" lon="0.796516">
        <ele>276.753</ele>
        <time>2020-08-23T06:06:10Z</time>
      </trkpt>
      <trkpt lat="41.794637" lon="0.796445">
        <ele>276.873</ele>
        <time>2020-08-23T06:06:12Z</time>
      </trkpt>
      <trkpt lat="41.794702" lon="0.796376">
        <ele>276.971</ele>
        <time>2020-08-23T06:06:14Z</time>
      </trkpt>
      <trkpt lat="41.794774" lon="0.796311">
        <ele>277.023</ele>
        <time>2020-08-23T06:06:16Z</time>
      </trkpt>
      <trkpt lat="41.794843" lon="0.796250">
        <ele>277.164</ele>
        <time>2020-08-23T06:06:18Z</time>
      </trkpt>
      <trkpt lat="41.794907" lon="0.796188">
        <ele>277.255</ele>
        <time>2020-08-23T06:06:20Z</time>
      </trkpt>
      <trkpt lat="41.794975" lon="0.796123">
        <ele>277.211</ele>
        <time>2020-08-23T06:06:22Z</time>
      </trkpt>
      <trkpt lat="41.795036" lon="0.796039">
        <ele>277.320</ele>
        <time>2020-08-23T06:06:24Z</time>
      </trkpt>
      <trkpt lat="41.795100" lon="0.795953">
        <ele>277.597</ele>
        <time>2020-08-23T06:06:26Z</time>
      </trkpt>
      <trkpt lat="41.795159" lon="0.795898">
        <ele>277.723</ele>
        <time>2020-08-23T06:06:28Z</time>
      </trkpt>
      <trkpt lat="41.795234" lon="0.795839">
        <ele>277.925</ele>
        <time>2020-08-23T06:06:30Z</time>
      </trkpt>
      <trkpt lat="41.795309" lon="0.795765">
        <ele>278.108</ele>
        <time>2020-08-23T06:06:32Z</time>
      </trkpt>
      <trkpt lat="41.795371" lon="0.795691">
        <ele>278.244</ele>
        <time>2020-08-23T06:06:34Z</time>
      </trkpt>
      <trkpt lat="41.795450" lon="0.795625">
        <ele>278.314</ele>
        <time>2020-08-23T06:06:36Z</time>
      </trkpt>
      <trkpt lat="41.795519" lon="0.795562">
        <ele>278.412</ele>
        <time>2020-08-23T06:06:38Z</time>
      </trkpt>
      <trkpt lat="41.795575" lon="0.795497">
        <ele>278.534</ele>
        <time>2020-08-23T06:06:40Z</time>
      </trkpt>
      <trkpt lat="41.795627" lon="0.795424">
        <ele>278.665</ele>
        <time>2020-08-23T06:06:42Z</time>
      </trkpt>
      <trkpt lat="41.795679" lon="0.795352">
        <ele>278.676</ele>
        <time>2020-08-23T06:06:44Z</time>
      </trkpt>
      <trkpt lat="41.795733" lon="0.795268">
        <ele>278.792</ele>
        <time>2020-08-23T06:06:46Z</time>
      </trkpt>
      <trkpt lat="41.795782" lon="0.795178">
        <ele>278.791</ele>
        <time>2020-08-23T06:06:48Z</time>
      </trkpt>
      <trkpt lat="41.795824" lon="0.795096">
        <ele>278.723</ele>
        <time>2020-08-23T06:06:50Z</time>
      </trkpt>
      <trkpt lat="41.795872" lon="0.795019">
        <ele>278.783</ele>
        <time>2020-08-23T06:06:52Z</time>
      </trkpt>
      <trkpt lat="41.795920" lon="0.794939">
        <ele>278.811</ele>
        <time>2020-08-23T06:06:54Z</time>
      </trkpt>
      <trkpt lat="41.795966" lon="0.794854">
        <ele>279.008</ele>
        <time>2020-08-23T06:06:56Z</time>
      </trkpt>
      <trkpt lat="41.796018" lon="0.794762">
        <ele>279.257</ele>
        <time>2020-08-23T06:06:58Z</time>
      </trkpt>
      <trkpt lat="41.796072" lon="0.794670">
        <ele>279.377</ele>
        <time>2020-08-23T06:07:00Z</time>
      </trkpt>
      <trkpt lat="41.796100" lon="0.794621">
        <ele>279.335</ele>
        <time>2020-08-23T06:07:01Z</time>
      </trkpt>
      <trkpt lat="41.796156" lon="0.794539">
        <ele>279.327</ele>
        <time>2020-08-23T06:07:03Z</time>
      </trkpt>
      <trkpt lat="41.796206" lon="0.794470">
        <ele>279.478</ele>
        <time>2020-08-23T06:07:05Z</time>
      </trkpt>
      <trkpt lat="41.796239" lon="0.794426">
        <ele>279.569</ele>
        <time>2020-08-23T06:07:06Z</time>
      </trkpt>
      <trkpt lat="41.796275" lon="0.794388">
        <ele>279.585</ele>
        <time>2020-08-23T06:07:07Z</time>
      </trkpt>
      <trkpt lat="41.796316" lon="0.794351">
        <ele>279.544</ele>
        <time>2020-08-23T06:07:08Z</time>
      </trkpt>
      <trkpt lat="41.796387" lon="0.794294">
        <ele>279.481</ele>
        <time>2020-08-23T06:07:10Z</time>
      </trkpt>
      <trkpt lat="41.796454" lon="0.794247">
        <ele>279.361</ele>
        <time>2020-08-23T06:07:12Z</time>
      </trkpt>
      <trkpt lat="41.796498" lon="0.794218">
        <ele>279.317</ele>
        <time>2020-08-23T06:07:13Z</time>
      </trkpt>
      <trkpt lat="41.796553" lon="0.794176">
        <ele>279.308</ele>
        <time>2020-08-23T06:07:14Z</time>
      </trkpt>
      <trkpt lat="41.796599" lon="0.794138">
        <ele>279.383</ele>
        <time>2020-08-23T06:07:15Z</time>
      </trkpt>
      <trkpt lat="41.796646" lon="0.794103">
        <ele>279.283</ele>
        <time>2020-08-23T06:07:16Z</time>
      </trkpt>
      <trkpt lat="41.796727" lon="0.794060">
        <ele>279.141</ele>
        <time>2020-08-23T06:07:18Z</time>
      </trkpt>
      <trkpt lat="41.796769" lon="0.794032">
        <ele>279.073</ele>
        <time>2020-08-23T06:07:19Z</time>
      </trkpt>
      <trkpt lat="41.796813" lon="0.794008">
        <ele>279.074</ele>
        <time>2020-08-23T06:07:20Z</time>
      </trkpt>
      <trkpt lat="41.796859" lon="0.793972">
        <ele>279.035</ele>
        <time>2020-08-23T06:07:21Z</time>
      </trkpt>
      <trkpt lat="41.796903" lon="0.793943">
        <ele>279.041</ele>
        <time>2020-08-23T06:07:22Z</time>
      </trkpt>
      <trkpt lat="41.796949" lon="0.793907">
        <ele>279.090</ele>
        <time>2020-08-23T06:07:23Z</time>
      </trkpt>
      <trkpt lat="41.796993" lon="0.793877">
        <ele>279.049</ele>
        <time>2020-08-23T06:07:24Z</time>
      </trkpt>
      <trkpt lat="41.797039" lon="0.793844">
        <ele>279.002</ele>
        <time>2020-08-23T06:07:25Z</time>
      </trkpt>
      <trkpt lat="41.797084" lon="0.793812">
        <ele>279.022</ele>
        <time>2020-08-23T06:07:26Z</time>
      </trkpt>
      <trkpt lat="41.797131" lon="0.793778">
        <ele>279.008</ele>
        <time>2020-08-23T06:07:27Z</time>
      </trkpt>
      <trkpt lat="41.797181" lon="0.793742">
        <ele>278.949</ele>
        <time>2020-08-23T06:07:28Z</time>
      </trkpt>
      <trkpt lat="41.797227" lon="0.793698">
        <ele>278.939</ele>
        <time>2020-08-23T06:07:29Z</time>
      </trkpt>
      <trkpt lat="41.797270" lon="0.793655">
        <ele>278.837</ele>
        <time>2020-08-23T06:07:30Z</time>
      </trkpt>
      <trkpt lat="41.797311" lon="0.793620">
        <ele>278.759</ele>
        <time>2020-08-23T06:07:31Z</time>
      </trkpt>
      <trkpt lat="41.797353" lon="0.793592">
        <ele>278.780</ele>
        <time>2020-08-23T06:07:32Z</time>
      </trkpt>
      <trkpt lat="41.797433" lon="0.793543">
        <ele>278.741</ele>
        <time>2020-08-23T06:07:34Z</time>
      </trkpt>
      <trkpt lat="41.797471" lon="0.793503">
        <ele>278.737</ele>
        <time>2020-08-23T06:07:35Z</time>
      </trkpt>
      <trkpt lat="41.797506" lon="0.793456">
        <ele>278.826</ele>
        <time>2020-08-23T06:07:36Z</time>
      </trkpt>
      <trkpt lat="41.797546" lon="0.793347">
        <ele>278.932</ele>
        <time>2020-08-23T06:07:38Z</time>
      </trkpt>
      <trkpt lat="41.797522" lon="0.793124">
        <ele>279.192</ele>
        <time>2020-08-23T06:07:42Z</time>
      </trkpt>
      <trkpt lat="41.797536" lon="0.793059">
        <ele>279.111</ele>
        <time>2020-08-23T06:07:43Z</time>
      </trkpt>
      <trkpt lat="41.797551" lon="0.792996">
        <ele>279.108</ele>
        <time>2020-08-23T06:07:44Z</time>
      </trkpt>
      <trkpt lat="41.797578" lon="0.792896">
        <ele>279.128</ele>
        <time>2020-08-23T06:07:46Z</time>
      </trkpt>
      <trkpt lat="41.797621" lon="0.792773">
        <ele>279.188</ele>
        <time>2020-08-23T06:07:48Z</time>
      </trkpt>
      <trkpt lat="41.797643" lon="0.792669">
        <ele>279.126</ele>
        <time>2020-08-23T06:07:50Z</time>
      </trkpt>
      <trkpt lat="41.797656" lon="0.792611">
        <ele>279.168</ele>
        <time>2020-08-23T06:07:51Z</time>
      </trkpt>
      <trkpt lat="41.797670" lon="0.792552">
        <ele>279.289</ele>
        <time>2020-08-23T06:07:52Z</time>
      </trkpt>
      <trkpt lat="41.797707" lon="0.792454">
        <ele>279.320</ele>
        <time>2020-08-23T06:07:54Z</time>
      </trkpt>
      <trkpt lat="41.797735" lon="0.792343">
        <ele>279.416</ele>
        <time>2020-08-23T06:07:56Z</time>
      </trkpt>
      <trkpt lat="41.797766" lon="0.792238">
        <ele>279.525</ele>
        <time>2020-08-23T06:07:58Z</time>
      </trkpt>
      <trkpt lat="41.797781" lon="0.792179">
        <ele>279.648</ele>
        <time>2020-08-23T06:07:59Z</time>
      </trkpt>
      <trkpt lat="41.797800" lon="0.792111">
        <ele>279.761</ele>
        <time>2020-08-23T06:08:00Z</time>
      </trkpt>
      <trkpt lat="41.797827" lon="0.792047">
        <ele>279.817</ele>
        <time>2020-08-23T06:08:01Z</time>
      </trkpt>
      <trkpt lat="41.797856" lon="0.791993">
        <ele>279.908</ele>
        <time>2020-08-23T06:08:02Z</time>
      </trkpt>
      <trkpt lat="41.797886" lon="0.791946">
        <ele>279.979</ele>
        <time>2020-08-23T06:08:03Z</time>
      </trkpt>
      <trkpt lat="41.797916" lon="0.791897">
        <ele>279.989</ele>
        <time>2020-08-23T06:08:04Z</time>
      </trkpt>
      <trkpt lat="41.797950" lon="0.791849">
        <ele>280.067</ele>
        <time>2020-08-23T06:08:05Z</time>
      </trkpt>
      <trkpt lat="41.797978" lon="0.791802">
        <ele>280.169</ele>
        <time>2020-08-23T06:08:06Z</time>
      </trkpt>
      <trkpt lat="41.798000" lon="0.791743">
        <ele>280.350</ele>
        <time>2020-08-23T06:08:07Z</time>
      </trkpt>
      <trkpt lat="41.798047" lon="0.791649">
        <ele>280.751</ele>
        <time>2020-08-23T06:08:09Z</time>
      </trkpt>
      <trkpt lat="41.798095" lon="0.791551">
        <ele>281.087</ele>
        <time>2020-08-23T06:08:11Z</time>
      </trkpt>
      <trkpt lat="41.798123" lon="0.791492">
        <ele>281.146</ele>
        <time>2020-08-23T06:08:12Z</time>
      </trkpt>
      <trkpt lat="41.798151" lon="0.791444">
        <ele>281.297</ele>
        <time>2020-08-23T06:08:13Z</time>
      </trkpt>
      <trkpt lat="41.798206" lon="0.791355">
        <ele>281.223</ele>
        <time>2020-08-23T06:08:15Z</time>
      </trkpt>
      <trkpt lat="41.798264" lon="0.791271">
        <ele>281.225</ele>
        <time>2020-08-23T06:08:17Z</time>
      </trkpt>
      <trkpt lat="41.798299" lon="0.791222">
        <ele>281.108</ele>
        <time>2020-08-23T06:08:18Z</time>
      </trkpt>
      <trkpt lat="41.798329" lon="0.791176">
        <ele>281.174</ele>
        <time>2020-08-23T06:08:19Z</time>
      </trkpt>
      <trkpt lat="41.798379" lon="0.791091">
        <ele>281.044</ele>
        <time>2020-08-23T06:08:21Z</time>
      </trkpt>
      <trkpt lat="41.798411" lon="0.791036">
        <ele>280.962</ele>
        <time>2020-08-23T06:08:22Z</time>
      </trkpt>
      <trkpt lat="41.798446" lon="0.790974">
        <ele>280.814</ele>
        <time>2020-08-23T06:08:23Z</time>
      </trkpt>
      <trkpt lat="41.798504" lon="0.790880">
        <ele>280.615</ele>
        <time>2020-08-23T06:08:25Z</time>
      </trkpt>
      <trkpt lat="41.798538" lon="0.790824">
        <ele>280.566</ele>
        <time>2020-08-23T06:08:26Z</time>
      </trkpt>
      <trkpt lat="41.798578" lon="0.790767">
        <ele>280.462</ele>
        <time>2020-08-23T06:08:27Z</time>
      </trkpt>
      <trkpt lat="41.798617" lon="0.790706">
        <ele>280.391</ele>
        <time>2020-08-23T06:08:28Z</time>
      </trkpt>
      <trkpt lat="41.798649" lon="0.790661">
        <ele>280.213</ele>
        <time>2020-08-23T06:08:29Z</time>
      </trkpt>
      <trkpt lat="41.798681" lon="0.790608">
        <ele>280.143</ele>
        <time>2020-08-23T06:08:30Z</time>
      </trkpt>
      <trkpt lat="41.798714" lon="0.790556">
        <ele>280.007</ele>
        <time>2020-08-23T06:08:31Z</time>
      </trkpt>
      <trkpt lat="41.798757" lon="0.790494">
        <ele>279.908</ele>
        <time>2020-08-23T06:08:32Z</time>
      </trkpt>
      <trkpt lat="41.798801" lon="0.790425">
        <ele>279.896</ele>
        <time>2020-08-23T06:08:33Z</time>
      </trkpt>
      <trkpt lat="41.798836" lon="0.790353">
        <ele>279.756</ele>
        <time>2020-08-23T06:08:34Z</time>
      </trkpt>
      <trkpt lat="41.798871" lon="0.790289">
        <ele>279.544</ele>
        <time>2020-08-23T06:08:35Z</time>
      </trkpt>
      <trkpt lat="41.798912" lon="0.790229">
        <ele>279.446</ele>
        <time>2020-08-23T06:08:36Z</time>
      </trkpt>
      <trkpt lat="41.798951" lon="0.790161">
        <ele>279.357</ele>
        <time>2020-08-23T06:08:37Z</time>
      </trkpt>
      <trkpt lat="41.798985" lon="0.790088">
        <ele>279.228</ele>
        <time>2020-08-23T06:08:38Z</time>
      </trkpt>
      <trkpt lat="41.799012" lon="0.790027">
        <ele>279.114</ele>
        <time>2020-08-23T06:08:39Z</time>
      </trkpt>
      <trkpt lat="41.799049" lon="0.789960">
        <ele>278.953</ele>
        <time>2020-08-23T06:08:40Z</time>
      </trkpt>
      <trkpt lat="41.799083" lon="0.789894">
        <ele>278.894</ele>
        <time>2020-08-23T06:08:41Z</time>
      </trkpt>
      <trkpt lat="41.799115" lon="0.789834">
        <ele>278.657</ele>
        <time>2020-08-23T06:08:42Z</time>
      </trkpt>
      <trkpt lat="41.799145" lon="0.789778">
        <ele>278.522</ele>
        <time>2020-08-23T06:08:43Z</time>
      </trkpt>
      <trkpt lat="41.799176" lon="0.789718">
        <ele>278.408</ele>
        <time>2020-08-23T06:08:44Z</time>
      </trkpt>
      <trkpt lat="41.799202" lon="0.789659">
        <ele>278.354</ele>
        <time>2020-08-23T06:08:45Z</time>
      </trkpt>
      <trkpt lat="41.799231" lon="0.789594">
        <ele>278.284</ele>
        <time>2020-08-23T06:08:46Z</time>
      </trkpt>
      <trkpt lat="41.799256" lon="0.789524">
        <ele>278.112</ele>
        <time>2020-08-23T06:08:47Z</time>
      </trkpt>
      <trkpt lat="41.799280" lon="0.789457">
        <ele>278.034</ele>
        <time>2020-08-23T06:08:48Z</time>
      </trkpt>
      <trkpt lat="41.799302" lon="0.789398">
        <ele>277.955</ele>
        <time>2020-08-23T06:08:49Z</time>
      </trkpt>
      <trkpt lat="41.799321" lon="0.789304">
        <ele>277.536</ele>
        <time>2020-08-23T06:08:51Z</time>
      </trkpt>
      <trkpt lat="41.799337" lon="0.789236">
        <ele>277.432</ele>
        <time>2020-08-23T06:08:52Z</time>
      </trkpt>
      <trkpt lat="41.799360" lon="0.789171">
        <ele>277.411</ele>
        <time>2020-08-23T06:08:53Z</time>
      </trkpt>
      <trkpt lat="41.799391" lon="0.789106">
        <ele>277.264</ele>
        <time>2020-08-23T06:08:54Z</time>
      </trkpt>
      <trkpt lat="41.799421" lon="0.789038">
        <ele>277.206</ele>
        <time>2020-08-23T06:08:55Z</time>
      </trkpt>
      <trkpt lat="41.799454" lon="0.788963">
        <ele>277.016</ele>
        <time>2020-08-23T06:08:56Z</time>
      </trkpt>
      <trkpt lat="41.799492" lon="0.788893">
        <ele>276.808</ele>
        <time>2020-08-23T06:08:57Z</time>
      </trkpt>
      <trkpt lat="41.799532" lon="0.788831">
        <ele>276.731</ele>
        <time>2020-08-23T06:08:58Z</time>
      </trkpt>
      <trkpt lat="41.799568" lon="0.788769">
        <ele>276.651</ele>
        <time>2020-08-23T06:08:59Z</time>
      </trkpt>
      <trkpt lat="41.799603" lon="0.788706">
        <ele>276.549</ele>
        <time>2020-08-23T06:09:00Z</time>
      </trkpt>
      <trkpt lat="41.799635" lon="0.788643">
        <ele>276.371</ele>
        <time>2020-08-23T06:09:01Z</time>
      </trkpt>
      <trkpt lat="41.799666" lon="0.788574">
        <ele>276.182</ele>
        <time>2020-08-23T06:09:02Z</time>
      </trkpt>
      <trkpt lat="41.799698" lon="0.788502">
        <ele>275.913</ele>
        <time>2020-08-23T06:09:03Z</time>
      </trkpt>
      <trkpt lat="41.799732" lon="0.788431">
        <ele>275.739</ele>
        <time>2020-08-23T06:09:04Z</time>
      </trkpt>
      <trkpt lat="41.799768" lon="0.788360">
        <ele>275.518</ele>
        <time>2020-08-23T06:09:05Z</time>
      </trkpt>
      <trkpt lat="41.799802" lon="0.788286">
        <ele>275.326</ele>
        <time>2020-08-23T06:09:06Z</time>
      </trkpt>
      <trkpt lat="41.799836" lon="0.788205">
        <ele>275.147</ele>
        <time>2020-08-23T06:09:07Z</time>
      </trkpt>
      <trkpt lat="41.799875" lon="0.788125">
        <ele>274.911</ele>
        <time>2020-08-23T06:09:08Z</time>
      </trkpt>
      <trkpt lat="41.799916" lon="0.788040">
        <ele>274.708</ele>
        <time>2020-08-23T06:09:09Z</time>
      </trkpt>
      <trkpt lat="41.799957" lon="0.787957">
        <ele>274.567</ele>
        <time>2020-08-23T06:09:10Z</time>
      </trkpt>
      <trkpt lat="41.799994" lon="0.787884">
        <ele>274.337</ele>
        <time>2020-08-23T06:09:11Z</time>
      </trkpt>
      <trkpt lat="41.800035" lon="0.787799">
        <ele>274.155</ele>
        <time>2020-08-23T06:09:12Z</time>
      </trkpt>
      <trkpt lat="41.800055" lon="0.787730">
        <ele>273.977</ele>
        <time>2020-08-23T06:09:13Z</time>
      </trkpt>
      <trkpt lat="41.800075" lon="0.787671">
        <ele>273.718</ele>
        <time>2020-08-23T06:09:14Z</time>
      </trkpt>
      <trkpt lat="41.800097" lon="0.787594">
        <ele>273.589</ele>
        <time>2020-08-23T06:09:15Z</time>
      </trkpt>
      <trkpt lat="41.800111" lon="0.787485">
        <ele>273.085</ele>
        <time>2020-08-23T06:09:17Z</time>
      </trkpt>
      <trkpt lat="41.800125" lon="0.787418">
        <ele>272.794</ele>
        <time>2020-08-23T06:09:18Z</time>
      </trkpt>
      <trkpt lat="41.800140" lon="0.787354">
        <ele>272.648</ele>
        <time>2020-08-23T06:09:19Z</time>
      </trkpt>
      <trkpt lat="41.800157" lon="0.787284">
        <ele>272.561</ele>
        <time>2020-08-23T06:09:20Z</time>
      </trkpt>
      <trkpt lat="41.800179" lon="0.787219">
        <ele>272.417</ele>
        <time>2020-08-23T06:09:21Z</time>
      </trkpt>
      <trkpt lat="41.800200" lon="0.787158">
        <ele>272.308</ele>
        <time>2020-08-23T06:09:22Z</time>
      </trkpt>
      <trkpt lat="41.800228" lon="0.787047">
        <ele>272.159</ele>
        <time>2020-08-23T06:09:24Z</time>
      </trkpt>
      <trkpt lat="41.800246" lon="0.786985">
        <ele>272.039</ele>
        <time>2020-08-23T06:09:25Z</time>
      </trkpt>
      <trkpt lat="41.800271" lon="0.786921">
        <ele>271.827</ele>
        <time>2020-08-23T06:09:26Z</time>
      </trkpt>
      <trkpt lat="41.800298" lon="0.786845">
        <ele>271.639</ele>
        <time>2020-08-23T06:09:27Z</time>
      </trkpt>
      <trkpt lat="41.800328" lon="0.786766">
        <ele>271.470</ele>
        <time>2020-08-23T06:09:28Z</time>
      </trkpt>
      <trkpt lat="41.800361" lon="0.786684">
        <ele>271.221</ele>
        <time>2020-08-23T06:09:29Z</time>
      </trkpt>
      <trkpt lat="41.800387" lon="0.786603">
        <ele>270.997</ele>
        <time>2020-08-23T06:09:30Z</time>
      </trkpt>
      <trkpt lat="41.800414" lon="0.786517">
        <ele>270.646</ele>
        <time>2020-08-23T06:09:31Z</time>
      </trkpt>
      <trkpt lat="41.800450" lon="0.786431">
        <ele>270.359</ele>
        <time>2020-08-23T06:09:32Z</time>
      </trkpt>
      <trkpt lat="41.800482" lon="0.786350">
        <ele>270.003</ele>
        <time>2020-08-23T06:09:33Z</time>
      </trkpt>
      <trkpt lat="41.800514" lon="0.786263">
        <ele>269.723</ele>
        <time>2020-08-23T06:09:34Z</time>
      </trkpt>
      <trkpt lat="41.800552" lon="0.786173">
        <ele>269.508</ele>
        <time>2020-08-23T06:09:35Z</time>
      </trkpt>
      <trkpt lat="41.800585" lon="0.786082">
        <ele>269.330</ele>
        <time>2020-08-23T06:09:36Z</time>
      </trkpt>
      <trkpt lat="41.800616" lon="0.785993">
        <ele>269.140</ele>
        <time>2020-08-23T06:09:37Z</time>
      </trkpt>
      <trkpt lat="41.800647" lon="0.785907">
        <ele>269.038</ele>
        <time>2020-08-23T06:09:38Z</time>
      </trkpt>
      <trkpt lat="41.800679" lon="0.785827">
        <ele>268.730</ele>
        <time>2020-08-23T06:09:39Z</time>
      </trkpt>
      <trkpt lat="41.800710" lon="0.785747">
        <ele>268.691</ele>
        <time>2020-08-23T06:09:40Z</time>
      </trkpt>
      <trkpt lat="41.800737" lon="0.785670">
        <ele>268.582</ele>
        <time>2020-08-23T06:09:41Z</time>
      </trkpt>
      <trkpt lat="41.800771" lon="0.785592">
        <ele>268.488</ele>
        <time>2020-08-23T06:09:42Z</time>
      </trkpt>
      <trkpt lat="41.800797" lon="0.785516">
        <ele>268.357</ele>
        <time>2020-08-23T06:09:43Z</time>
      </trkpt>
      <trkpt lat="41.800824" lon="0.785443">
        <ele>268.281</ele>
        <time>2020-08-23T06:09:44Z</time>
      </trkpt>
      <trkpt lat="41.800852" lon="0.785372">
        <ele>268.161</ele>
        <time>2020-08-23T06:09:45Z</time>
      </trkpt>
      <trkpt lat="41.800880" lon="0.785297">
        <ele>268.017</ele>
        <time>2020-08-23T06:09:46Z</time>
      </trkpt>
      <trkpt lat="41.800908" lon="0.785215">
        <ele>267.908</ele>
        <time>2020-08-23T06:09:47Z</time>
      </trkpt>
      <trkpt lat="41.800932" lon="0.785131">
        <ele>267.893</ele>
        <time>2020-08-23T06:09:48Z</time>
      </trkpt>
      <trkpt lat="41.800953" lon="0.785058">
        <ele>267.853</ele>
        <time>2020-08-23T06:09:49Z</time>
      </trkpt>
      <trkpt lat="41.800975" lon="0.784986">
        <ele>267.881</ele>
        <time>2020-08-23T06:09:50Z</time>
      </trkpt>
      <trkpt lat="41.801003" lon="0.784918">
        <ele>267.893</ele>
        <time>2020-08-23T06:09:51Z</time>
      </trkpt>
      <trkpt lat="41.801024" lon="0.784851">
        <ele>267.854</ele>
        <time>2020-08-23T06:09:52Z</time>
      </trkpt>
      <trkpt lat="41.801050" lon="0.784785">
        <ele>267.855</ele>
        <time>2020-08-23T06:09:53Z</time>
      </trkpt>
      <trkpt lat="41.801069" lon="0.784712">
        <ele>267.891</ele>
        <time>2020-08-23T06:09:54Z</time>
      </trkpt>
      <trkpt lat="41.801085" lon="0.784643">
        <ele>267.860</ele>
        <time>2020-08-23T06:09:55Z</time>
      </trkpt>
      <trkpt lat="41.801103" lon="0.784575">
        <ele>267.817</ele>
        <time>2020-08-23T06:09:56Z</time>
      </trkpt>
      <trkpt lat="41.801124" lon="0.784507">
        <ele>267.887</ele>
        <time>2020-08-23T06:09:57Z</time>
      </trkpt>
      <trkpt lat="41.801142" lon="0.784435">
        <ele>267.815</ele>
        <time>2020-08-23T06:09:58Z</time>
      </trkpt>
      <trkpt lat="41.801160" lon="0.784363">
        <ele>267.908</ele>
        <time>2020-08-23T06:09:59Z</time>
      </trkpt>
      <trkpt lat="41.801183" lon="0.784296">
        <ele>268.016</ele>
        <time>2020-08-23T06:10:00Z</time>
      </trkpt>
      <trkpt lat="41.801206" lon="0.784225">
        <ele>268.016</ele>
        <time>2020-08-23T06:10:01Z</time>
      </trkpt>
      <trkpt lat="41.801225" lon="0.784155">
        <ele>268.064</ele>
        <time>2020-08-23T06:10:02Z</time>
      </trkpt>
      <trkpt lat="41.801237" lon="0.784090">
        <ele>268.076</ele>
        <time>2020-08-23T06:10:03Z</time>
      </trkpt>
      <trkpt lat="41.801252" lon="0.784023">
        <ele>268.067</ele>
        <time>2020-08-23T06:10:04Z</time>
      </trkpt>
      <trkpt lat="41.801270" lon="0.783956">
        <ele>268.148</ele>
        <time>2020-08-23T06:10:05Z</time>
      </trkpt>
      <trkpt lat="41.801287" lon="0.783891">
        <ele>268.284</ele>
        <time>2020-08-23T06:10:06Z</time>
      </trkpt>
      <trkpt lat="41.801311" lon="0.783830">
        <ele>268.313</ele>
        <time>2020-08-23T06:10:07Z</time>
      </trkpt>
      <trkpt lat="41.801335" lon="0.783758">
        <ele>268.328</ele>
        <time>2020-08-23T06:10:08Z</time>
      </trkpt>
      <trkpt lat="41.801360" lon="0.783694">
        <ele>268.389</ele>
        <time>2020-08-23T06:10:09Z</time>
      </trkpt>
      <trkpt lat="41.801378" lon="0.783628">
        <ele>268.317</ele>
        <time>2020-08-23T06:10:10Z</time>
      </trkpt>
      <trkpt lat="41.801402" lon="0.783559">
        <ele>268.308</ele>
        <time>2020-08-23T06:10:11Z</time>
      </trkpt>
      <trkpt lat="41.801428" lon="0.783497">
        <ele>268.347</ele>
        <time>2020-08-23T06:10:12Z</time>
      </trkpt>
      <trkpt lat="41.801450" lon="0.783436">
        <ele>268.317</ele>
        <time>2020-08-23T06:10:13Z</time>
      </trkpt>
      <trkpt lat="41.801471" lon="0.783364">
        <ele>268.425</ele>
        <time>2020-08-23T06:10:14Z</time>
      </trkpt>
      <trkpt lat="41.801497" lon="0.783290">
        <ele>268.537</ele>
        <time>2020-08-23T06:10:15Z</time>
      </trkpt>
      <trkpt lat="41.801515" lon="0.783220">
        <ele>268.638</ele>
        <time>2020-08-23T06:10:16Z</time>
      </trkpt>
      <trkpt lat="41.801534" lon="0.783152">
        <ele>268.739</ele>
        <time>2020-08-23T06:10:17Z</time>
      </trkpt>
      <trkpt lat="41.801552" lon="0.783092">
        <ele>268.815</ele>
        <time>2020-08-23T06:10:18Z</time>
      </trkpt>
      <trkpt lat="41.801567" lon="0.783028">
        <ele>268.934</ele>
        <time>2020-08-23T06:10:19Z</time>
      </trkpt>
      <trkpt lat="41.801585" lon="0.782968">
        <ele>269.061</ele>
        <time>2020-08-23T06:10:20Z</time>
      </trkpt>
      <trkpt lat="41.801629" lon="0.782862">
        <ele>269.221</ele>
        <time>2020-08-23T06:10:22Z</time>
      </trkpt>
      <trkpt lat="41.801650" lon="0.782806">
        <ele>269.513</ele>
        <time>2020-08-23T06:10:23Z</time>
      </trkpt>
      <trkpt lat="41.801674" lon="0.782742">
        <ele>269.608</ele>
        <time>2020-08-23T06:10:24Z</time>
      </trkpt>
      <trkpt lat="41.801700" lon="0.782686">
        <ele>269.761</ele>
        <time>2020-08-23T06:10:25Z</time>
      </trkpt>
      <trkpt lat="41.801726" lon="0.782631">
        <ele>269.821</ele>
        <time>2020-08-23T06:10:26Z</time>
      </trkpt>
      <trkpt lat="41.801748" lon="0.782572">
        <ele>269.879</ele>
        <time>2020-08-23T06:10:27Z</time>
      </trkpt>
      <trkpt lat="41.801767" lon="0.782513">
        <ele>269.911</ele>
        <time>2020-08-23T06:10:28Z</time>
      </trkpt>
      <trkpt lat="41.801813" lon="0.782410">
        <ele>270.142</ele>
        <time>2020-08-23T06:10:30Z</time>
      </trkpt>
      <trkpt lat="41.801837" lon="0.782357">
        <ele>270.353</ele>
        <time>2020-08-23T06:10:31Z</time>
      </trkpt>
      <trkpt lat="41.801857" lon="0.782302">
        <ele>270.519</ele>
        <time>2020-08-23T06:10:32Z</time>
      </trkpt>
      <trkpt lat="41.801892" lon="0.782203">
        <ele>270.788</ele>
        <time>2020-08-23T06:10:34Z</time>
      </trkpt>
      <trkpt lat="41.801920" lon="0.782094">
        <ele>271.037</ele>
        <time>2020-08-23T06:10:36Z</time>
      </trkpt>
      <trkpt lat="41.801932" lon="0.782033">
        <ele>271.149</ele>
        <time>2020-08-23T06:10:37Z</time>
      </trkpt>
      <trkpt lat="41.801965" lon="0.781926">
        <ele>271.313</ele>
        <time>2020-08-23T06:10:39Z</time>
      </trkpt>
      <trkpt lat="41.801975" lon="0.781836">
        <ele>271.508</ele>
        <time>2020-08-23T06:10:41Z</time>
      </trkpt>
      <trkpt lat="41.801987" lon="0.781739">
        <ele>271.898</ele>
        <time>2020-08-23T06:10:43Z</time>
      </trkpt>
      <trkpt lat="41.801996" lon="0.781646">
        <ele>272.338</ele>
        <time>2020-08-23T06:10:45Z</time>
      </trkpt>
      <trkpt lat="41.802007" lon="0.781552">
        <ele>272.766</ele>
        <time>2020-08-23T06:10:47Z</time>
      </trkpt>
      <trkpt lat="41.802022" lon="0.781459">
        <ele>273.118</ele>
        <time>2020-08-23T06:10:49Z</time>
      </trkpt>
      <trkpt lat="41.802040" lon="0.781364">
        <ele>273.469</ele>
        <time>2020-08-23T06:10:51Z</time>
      </trkpt>
      <trkpt lat="41.802039" lon="0.781266">
        <ele>273.670</ele>
        <time>2020-08-23T06:10:53Z</time>
      </trkpt>
      <trkpt lat="41.802051" lon="0.781180">
        <ele>273.716</ele>
        <time>2020-08-23T06:10:55Z</time>
      </trkpt>
      <trkpt lat="41.802085" lon="0.781090">
        <ele>273.945</ele>
        <time>2020-08-23T06:10:57Z</time>
      </trkpt>
      <trkpt lat="41.802107" lon="0.780995">
        <ele>274.171</ele>
        <time>2020-08-23T06:10:59Z</time>
      </trkpt>
      <trkpt lat="41.802128" lon="0.780905">
        <ele>274.341</ele>
        <time>2020-08-23T06:11:01Z</time>
      </trkpt>
      <trkpt lat="41.802142" lon="0.780828">
        <ele>274.515</ele>
        <time>2020-08-23T06:11:03Z</time>
      </trkpt>
      <trkpt lat="41.802152" lon="0.780760">
        <ele>274.808</ele>
        <time>2020-08-23T06:11:05Z</time>
      </trkpt>
      <trkpt lat="41.802153" lon="0.780692">
        <ele>275.152</ele>
        <time>2020-08-23T06:11:07Z</time>
      </trkpt>
      <trkpt lat="41.802164" lon="0.780633">
        <ele>275.552</ele>
        <time>2020-08-23T06:11:09Z</time>
      </trkpt>
      <trkpt lat="41.802187" lon="0.780576">
        <ele>275.810</ele>
        <time>2020-08-23T06:11:11Z</time>
      </trkpt>
      <trkpt lat="41.802195" lon="0.780515">
        <ele>276.292</ele>
        <time>2020-08-23T06:11:13Z</time>
      </trkpt>
      <trkpt lat="41.802180" lon="0.780581">
        <ele>276.183</ele>
        <time>2020-08-23T06:11:20Z</time>
      </trkpt>
      <trkpt lat="41.802162" lon="0.780662">
        <ele>276.034</ele>
        <time>2020-08-23T06:11:22Z</time>
      </trkpt>
      <trkpt lat="41.802139" lon="0.780771">
        <ele>275.880</ele>
        <time>2020-08-23T06:11:24Z</time>
      </trkpt>
      <trkpt lat="41.802116" lon="0.780883">
        <ele>275.579</ele>
        <time>2020-08-23T06:11:26Z</time>
      </trkpt>
      <trkpt lat="41.802102" lon="0.780943">
        <ele>275.414</ele>
        <time>2020-08-23T06:11:27Z</time>
      </trkpt>
      <trkpt lat="41.802087" lon="0.781006">
        <ele>275.354</ele>
        <time>2020-08-23T06:11:28Z</time>
      </trkpt>
      <trkpt lat="41.802073" lon="0.781071">
        <ele>275.009</ele>
        <time>2020-08-23T06:11:29Z</time>
      </trkpt>
      <trkpt lat="41.802055" lon="0.781135">
        <ele>274.908</ele>
        <time>2020-08-23T06:11:30Z</time>
      </trkpt>
      <trkpt lat="41.802041" lon="0.781200">
        <ele>274.766</ele>
        <time>2020-08-23T06:11:31Z</time>
      </trkpt>
      <trkpt lat="41.802025" lon="0.781262">
        <ele>274.546</ele>
        <time>2020-08-23T06:11:32Z</time>
      </trkpt>
      <trkpt lat="41.802001" lon="0.781374">
        <ele>274.214</ele>
        <time>2020-08-23T06:11:34Z</time>
      </trkpt>
      <trkpt lat="41.801995" lon="0.781437">
        <ele>274.076</ele>
        <time>2020-08-23T06:11:35Z</time>
      </trkpt>
      <trkpt lat="41.801986" lon="0.781499">
        <ele>273.967</ele>
        <time>2020-08-23T06:11:36Z</time>
      </trkpt>
      <trkpt lat="41.801973" lon="0.781558">
        <ele>273.828</ele>
        <time>2020-08-23T06:11:37Z</time>
      </trkpt>
      <trkpt lat="41.801951" lon="0.781656">
        <ele>273.654</ele>
        <time>2020-08-23T06:11:39Z</time>
      </trkpt>
      <trkpt lat="41.801933" lon="0.781746">
        <ele>273.263</ele>
        <time>2020-08-23T06:11:41Z</time>
      </trkpt>
      <trkpt lat="41.801937" lon="0.781817">
        <ele>272.883</ele>
        <time>2020-08-23T06:11:43Z</time>
      </trkpt>
      <trkpt lat="41.801915" lon="0.781890">
        <ele>272.425</ele>
        <time>2020-08-23T06:11:45Z</time>
      </trkpt>
      <trkpt lat="41.801889" lon="0.781957">
        <ele>272.117</ele>
        <time>2020-08-23T06:11:47Z</time>
      </trkpt>
      <trkpt lat="41.801911" lon="0.782011">
        <ele>271.708</ele>
        <time>2020-08-23T06:12:20Z</time>
      </trkpt>
      <trkpt lat="41.801913" lon="0.781942">
        <ele>272.253</ele>
        <time>2020-08-23T06:13:01Z</time>
      </trkpt>
      <trkpt lat="41.801926" lon="0.781869">
        <ele>272.743</ele>
        <time>2020-08-23T06:13:04Z</time>
      </trkpt>
      <trkpt lat="41.801926" lon="0.781802">
        <ele>272.951</ele>
        <time>2020-08-23T06:13:06Z</time>
      </trkpt>
      <trkpt lat="41.801939" lon="0.781729">
        <ele>273.133</ele>
        <time>2020-08-23T06:13:08Z</time>
      </trkpt>
      <trkpt lat="41.801947" lon="0.781656">
        <ele>273.284</ele>
        <time>2020-08-23T06:13:10Z</time>
      </trkpt>
      <trkpt lat="41.801963" lon="0.781578">
        <ele>273.315</ele>
        <time>2020-08-23T06:13:12Z</time>
      </trkpt>
      <trkpt lat="41.801973" lon="0.781490">
        <ele>273.581</ele>
        <time>2020-08-23T06:13:14Z</time>
      </trkpt>
      <trkpt lat="41.801976" lon="0.781397">
        <ele>273.710</ele>
        <time>2020-08-23T06:13:16Z</time>
      </trkpt>
      <trkpt lat="41.802001" lon="0.781313">
        <ele>273.855</ele>
        <time>2020-08-23T06:13:18Z</time>
      </trkpt>
      <trkpt lat="41.802019" lon="0.781228">
        <ele>273.907</ele>
        <time>2020-08-23T06:13:20Z</time>
      </trkpt>
      <trkpt lat="41.802032" lon="0.781129">
        <ele>274.017</ele>
        <time>2020-08-23T06:13:22Z</time>
      </trkpt>
      <trkpt lat="41.802062" lon="0.781015">
        <ele>274.208</ele>
        <time>2020-08-23T06:13:24Z</time>
      </trkpt>
      <trkpt lat="41.802095" lon="0.780915">
        <ele>274.510</ele>
        <time>2020-08-23T06:13:26Z</time>
      </trkpt>
      <trkpt lat="41.802107" lon="0.780852">
        <ele>274.780</ele>
        <time>2020-08-23T06:13:27Z</time>
      </trkpt>
      <trkpt lat="41.802122" lon="0.780742">
        <ele>275.198</ele>
        <time>2020-08-23T06:13:29Z</time>
      </trkpt>
      <trkpt lat="41.802141" lon="0.780659">
        <ele>275.450</ele>
        <time>2020-08-23T06:13:31Z</time>
      </trkpt>
      <trkpt lat="41.802172" lon="0.780573">
        <ele>275.791</ele>
        <time>2020-08-23T06:13:33Z</time>
      </trkpt>
      <trkpt lat="41.802192" lon="0.780519">
        <ele>275.972</ele>
        <time>2020-08-23T06:13:34Z</time>
      </trkpt>
      <trkpt lat="41.802221" lon="0.780469">
        <ele>276.118</ele>
        <time>2020-08-23T06:13:35Z</time>
      </trkpt>
      <trkpt lat="41.802239" lon="0.780376">
        <ele>276.657</ele>
        <time>2020-08-23T06:13:37Z</time>
      </trkpt>
      <trkpt lat="41.802243" lon="0.780284">
        <ele>276.991</ele>
        <time>2020-08-23T06:13:39Z</time>
      </trkpt>
      <trkpt lat="41.802248" lon="0.780187">
        <ele>277.281</ele>
        <time>2020-08-23T06:13:41Z</time>
      </trkpt>
      <trkpt lat="41.802257" lon="0.780103">
        <ele>277.519</ele>
        <time>2020-08-23T06:13:43Z</time>
      </trkpt>
      <trkpt lat="41.802260" lon="0.780036">
        <ele>277.808</ele>
        <time>2020-08-23T06:13:45Z</time>
      </trkpt>
      <trkpt lat="41.802268" lon="0.779953">
        <ele>278.234</ele>
        <time>2020-08-23T06:13:47Z</time>
      </trkpt>
      <trkpt lat="41.802279" lon="0.779871">
        <ele>278.564</ele>
        <time>2020-08-23T06:13:49Z</time>
      </trkpt>
      <trkpt lat="41.802292" lon="0.779811">
        <ele>278.862</ele>
        <time>2020-08-23T06:13:51Z</time>
      </trkpt>
      <trkpt lat="41.802297" lon="0.779732">
        <ele>279.264</ele>
        <time>2020-08-23T06:13:53Z</time>
      </trkpt>
      <trkpt lat="41.802304" lon="0.779654">
        <ele>279.675</ele>
        <time>2020-08-23T06:13:55Z</time>
      </trkpt>
      <trkpt lat="41.802323" lon="0.779593">
        <ele>280.296</ele>
        <time>2020-08-23T06:13:57Z</time>
      </trkpt>
      <trkpt lat="41.802335" lon="0.779518">
        <ele>280.542</ele>
        <time>2020-08-23T06:13:59Z</time>
      </trkpt>
      <trkpt lat="41.802357" lon="0.779428">
        <ele>280.881</ele>
        <time>2020-08-23T06:14:01Z</time>
      </trkpt>
      <trkpt lat="41.802375" lon="0.779340">
        <ele>281.147</ele>
        <time>2020-08-23T06:14:03Z</time>
      </trkpt>
      <trkpt lat="41.802402" lon="0.779251">
        <ele>281.429</ele>
        <time>2020-08-23T06:14:05Z</time>
      </trkpt>
      <trkpt lat="41.802418" lon="0.779176">
        <ele>281.621</ele>
        <time>2020-08-23T06:14:07Z</time>
      </trkpt>
      <trkpt lat="41.802440" lon="0.779097">
        <ele>281.808</ele>
        <time>2020-08-23T06:14:09Z</time>
      </trkpt>
      <trkpt lat="41.802458" lon="0.779033">
        <ele>282.099</ele>
        <time>2020-08-23T06:14:11Z</time>
      </trkpt>
      <trkpt lat="41.802465" lon="0.778971">
        <ele>282.359</ele>
        <time>2020-08-23T06:14:13Z</time>
      </trkpt>
      <trkpt lat="41.802475" lon="0.778898">
        <ele>282.517</ele>
        <time>2020-08-23T06:14:15Z</time>
      </trkpt>
      <trkpt lat="41.802484" lon="0.778829">
        <ele>282.869</ele>
        <time>2020-08-23T06:14:17Z</time>
      </trkpt>
      <trkpt lat="41.802501" lon="0.778752">
        <ele>283.060</ele>
        <time>2020-08-23T06:14:19Z</time>
      </trkpt>
      <trkpt lat="41.802525" lon="0.778657">
        <ele>283.391</ele>
        <time>2020-08-23T06:14:21Z</time>
      </trkpt>
      <trkpt lat="41.802542" lon="0.778562">
        <ele>283.487</ele>
        <time>2020-08-23T06:14:23Z</time>
      </trkpt>
      <trkpt lat="41.802556" lon="0.778487">
        <ele>283.576</ele>
        <time>2020-08-23T06:14:25Z</time>
      </trkpt>
      <trkpt lat="41.802580" lon="0.778405">
        <ele>283.775</ele>
        <time>2020-08-23T06:14:27Z</time>
      </trkpt>
      <trkpt lat="41.802594" lon="0.778343">
        <ele>283.828</ele>
        <time>2020-08-23T06:14:28Z</time>
      </trkpt>
      <trkpt lat="41.802612" lon="0.778278">
        <ele>283.920</ele>
        <time>2020-08-23T06:14:29Z</time>
      </trkpt>
      <trkpt lat="41.802642" lon="0.778198">
        <ele>284.008</ele>
        <time>2020-08-23T06:14:31Z</time>
      </trkpt>
      <trkpt lat="41.802652" lon="0.778125">
        <ele>284.122</ele>
        <time>2020-08-23T06:14:33Z</time>
      </trkpt>
      <trkpt lat="41.802648" lon="0.778055">
        <ele>284.262</ele>
        <time>2020-08-23T06:14:35Z</time>
      </trkpt>
      <trkpt lat="41.802668" lon="0.777957">
        <ele>284.470</ele>
        <time>2020-08-23T06:14:37Z</time>
      </trkpt>
      <trkpt lat="41.802694" lon="0.777872">
        <ele>284.782</ele>
        <time>2020-08-23T06:14:39Z</time>
      </trkpt>
      <trkpt lat="41.802713" lon="0.777809">
        <ele>284.833</ele>
        <time>2020-08-23T06:14:41Z</time>
      </trkpt>
      <trkpt lat="41.802752" lon="0.777737">
        <ele>284.964</ele>
        <time>2020-08-23T06:14:43Z</time>
      </trkpt>
      <trkpt lat="41.802769" lon="0.777646">
        <ele>284.910</ele>
        <time>2020-08-23T06:14:45Z</time>
      </trkpt>
      <trkpt lat="41.802789" lon="0.777561">
        <ele>284.969</ele>
        <time>2020-08-23T06:14:47Z</time>
      </trkpt>
      <trkpt lat="41.802820" lon="0.777459">
        <ele>284.841</ele>
        <time>2020-08-23T06:14:49Z</time>
      </trkpt>
      <trkpt lat="41.802846" lon="0.777349">
        <ele>284.681</ele>
        <time>2020-08-23T06:14:51Z</time>
      </trkpt>
      <trkpt lat="41.802855" lon="0.777288">
        <ele>284.409</ele>
        <time>2020-08-23T06:14:52Z</time>
      </trkpt>
      <trkpt lat="41.802868" lon="0.777224">
        <ele>284.308</ele>
        <time>2020-08-23T06:14:53Z</time>
      </trkpt>
      <trkpt lat="41.802882" lon="0.777160">
        <ele>284.269</ele>
        <time>2020-08-23T06:14:54Z</time>
      </trkpt>
      <trkpt lat="41.802896" lon="0.777096">
        <ele>284.169</ele>
        <time>2020-08-23T06:14:55Z</time>
      </trkpt>
      <trkpt lat="41.802912" lon="0.777034">
        <ele>284.017</ele>
        <time>2020-08-23T06:14:56Z</time>
      </trkpt>
      <trkpt lat="41.802929" lon="0.776976">
        <ele>284.029</ele>
        <time>2020-08-23T06:14:57Z</time>
      </trkpt>
      <trkpt lat="41.802950" lon="0.776912">
        <ele>283.970</ele>
        <time>2020-08-23T06:14:58Z</time>
      </trkpt>
      <trkpt lat="41.802969" lon="0.776846">
        <ele>283.991</ele>
        <time>2020-08-23T06:14:59Z</time>
      </trkpt>
      <trkpt lat="41.802985" lon="0.776775">
        <ele>283.977</ele>
        <time>2020-08-23T06:15:00Z</time>
      </trkpt>
      <trkpt lat="41.802995" lon="0.776705">
        <ele>283.946</ele>
        <time>2020-08-23T06:15:01Z</time>
      </trkpt>
      <trkpt lat="41.803007" lon="0.776632">
        <ele>283.974</ele>
        <time>2020-08-23T06:15:02Z</time>
      </trkpt>
      <trkpt lat="41.803026" lon="0.776568">
        <ele>283.956</ele>
        <time>2020-08-23T06:15:03Z</time>
      </trkpt>
      <trkpt lat="41.803042" lon="0.776509">
        <ele>283.821</ele>
        <time>2020-08-23T06:15:04Z</time>
      </trkpt>
      <trkpt lat="41.803072" lon="0.776391">
        <ele>283.808</ele>
        <time>2020-08-23T06:15:06Z</time>
      </trkpt>
      <trkpt lat="41.803095" lon="0.776273">
        <ele>283.752</ele>
        <time>2020-08-23T06:15:08Z</time>
      </trkpt>
      <trkpt lat="41.803131" lon="0.776168">
        <ele>283.712</ele>
        <time>2020-08-23T06:15:10Z</time>
      </trkpt>
      <trkpt lat="41.803155" lon="0.776113">
        <ele>283.720</ele>
        <time>2020-08-23T06:15:11Z</time>
      </trkpt>
      <trkpt lat="41.803177" lon="0.776060">
        <ele>283.862</ele>
        <time>2020-08-23T06:15:12Z</time>
      </trkpt>
      <trkpt lat="41.803214" lon="0.775955">
        <ele>284.093</ele>
        <time>2020-08-23T06:15:14Z</time>
      </trkpt>
      <trkpt lat="41.803261" lon="0.775847">
        <ele>284.214</ele>
        <time>2020-08-23T06:15:16Z</time>
      </trkpt>
      <trkpt lat="41.803293" lon="0.775741">
        <ele>284.460</ele>
        <time>2020-08-23T06:15:18Z</time>
      </trkpt>
      <trkpt lat="41.803310" lon="0.775685">
        <ele>284.549</ele>
        <time>2020-08-23T06:15:19Z</time>
      </trkpt>
      <trkpt lat="41.803350" lon="0.775573">
        <ele>284.627</ele>
        <time>2020-08-23T06:15:21Z</time>
      </trkpt>
      <trkpt lat="41.803368" lon="0.775515">
        <ele>284.768</ele>
        <time>2020-08-23T06:15:22Z</time>
      </trkpt>
      <trkpt lat="41.803396" lon="0.775403">
        <ele>284.714</ele>
        <time>2020-08-23T06:15:24Z</time>
      </trkpt>
      <trkpt lat="41.803435" lon="0.775292">
        <ele>284.708</ele>
        <time>2020-08-23T06:15:26Z</time>
      </trkpt>
      <trkpt lat="41.803455" lon="0.775234">
        <ele>284.777</ele>
        <time>2020-08-23T06:15:27Z</time>
      </trkpt>
      <trkpt lat="41.803481" lon="0.775177">
        <ele>284.797</ele>
        <time>2020-08-23T06:15:28Z</time>
      </trkpt>
      <trkpt lat="41.803498" lon="0.775115">
        <ele>284.755</ele>
        <time>2020-08-23T06:15:29Z</time>
      </trkpt>
      <trkpt lat="41.803515" lon="0.775057">
        <ele>284.787</ele>
        <time>2020-08-23T06:15:30Z</time>
      </trkpt>
      <trkpt lat="41.803538" lon="0.775001">
        <ele>284.728</ele>
        <time>2020-08-23T06:15:31Z</time>
      </trkpt>
      <trkpt lat="41.803553" lon="0.774938">
        <ele>284.769</ele>
        <time>2020-08-23T06:15:32Z</time>
      </trkpt>
      <trkpt lat="41.803574" lon="0.774874">
        <ele>284.845</ele>
        <time>2020-08-23T06:15:33Z</time>
      </trkpt>
      <trkpt lat="41.803597" lon="0.774817">
        <ele>284.994</ele>
        <time>2020-08-23T06:15:34Z</time>
      </trkpt>
      <trkpt lat="41.803615" lon="0.774759">
        <ele>285.085</ele>
        <time>2020-08-23T06:15:35Z</time>
      </trkpt>
      <trkpt lat="41.803659" lon="0.774660">
        <ele>285.489</ele>
        <time>2020-08-23T06:15:37Z</time>
      </trkpt>
      <trkpt lat="41.803692" lon="0.774566">
        <ele>285.717</ele>
        <time>2020-08-23T06:15:39Z</time>
      </trkpt>
      <trkpt lat="41.803714" lon="0.774482">
        <ele>286.008</ele>
        <time>2020-08-23T06:15:41Z</time>
      </trkpt>
      <trkpt lat="41.803737" lon="0.774404">
        <ele>286.473</ele>
        <time>2020-08-23T06:15:43Z</time>
      </trkpt>
      <trkpt lat="41.803763" lon="0.774308">
        <ele>286.763</ele>
        <time>2020-08-23T06:15:45Z</time>
      </trkpt>
      <trkpt lat="41.803786" lon="0.774228">
        <ele>287.031</ele>
        <time>2020-08-23T06:15:47Z</time>
      </trkpt>
      <trkpt lat="41.803811" lon="0.774152">
        <ele>287.423</ele>
        <time>2020-08-23T06:15:49Z</time>
      </trkpt>
      <trkpt lat="41.803833" lon="0.774068">
        <ele>287.814</ele>
        <time>2020-08-23T06:15:51Z</time>
      </trkpt>
      <trkpt lat="41.803814" lon="0.773967">
        <ele>288.135</ele>
        <time>2020-08-23T06:15:53Z</time>
      </trkpt>
      <trkpt lat="41.803838" lon="0.773887">
        <ele>288.451</ele>
        <time>2020-08-23T06:15:55Z</time>
      </trkpt>
      <trkpt lat="41.803854" lon="0.773783">
        <ele>288.880</ele>
        <time>2020-08-23T06:15:57Z</time>
      </trkpt>
      <trkpt lat="41.803848" lon="0.773689">
        <ele>288.955</ele>
        <time>2020-08-23T06:15:59Z</time>
      </trkpt>
      <trkpt lat="41.803851" lon="0.773595">
        <ele>289.007</ele>
        <time>2020-08-23T06:16:01Z</time>
      </trkpt>
      <trkpt lat="41.803870" lon="0.773527">
        <ele>289.117</ele>
        <time>2020-08-23T06:16:04Z</time>
      </trkpt>
      <trkpt lat="41.803909" lon="0.773478">
        <ele>289.008</ele>
        <time>2020-08-23T06:16:15Z</time>
      </trkpt>
      <trkpt lat="41.803933" lon="0.773409">
        <ele>288.920</ele>
        <time>2020-08-23T06:16:17Z</time>
      </trkpt>
      <trkpt lat="41.803946" lon="0.773317">
        <ele>288.770</ele>
        <time>2020-08-23T06:16:19Z</time>
      </trkpt>
      <trkpt lat="41.803980" lon="0.773210">
        <ele>288.348</ele>
        <time>2020-08-23T06:16:21Z</time>
      </trkpt>
      <trkpt lat="41.804002" lon="0.773153">
        <ele>288.080</ele>
        <time>2020-08-23T06:16:22Z</time>
      </trkpt>
      <trkpt lat="41.804017" lon="0.773094">
        <ele>287.731</ele>
        <time>2020-08-23T06:16:23Z</time>
      </trkpt>
      <trkpt lat="41.804034" lon="0.773031">
        <ele>287.422</ele>
        <time>2020-08-23T06:16:24Z</time>
      </trkpt>
      <trkpt lat="41.804059" lon="0.772965">
        <ele>287.118</ele>
        <time>2020-08-23T06:16:25Z</time>
      </trkpt>
      <trkpt lat="41.804081" lon="0.772900">
        <ele>286.827</ele>
        <time>2020-08-23T06:16:26Z</time>
      </trkpt>
      <trkpt lat="41.804103" lon="0.772835">
        <ele>286.575</ele>
        <time>2020-08-23T06:16:27Z</time>
      </trkpt>
      <trkpt lat="41.804126" lon="0.772775">
        <ele>286.228</ele>
        <time>2020-08-23T06:16:28Z</time>
      </trkpt>
      <trkpt lat="41.804150" lon="0.772719">
        <ele>286.020</ele>
        <time>2020-08-23T06:16:29Z</time>
      </trkpt>
      <trkpt lat="41.804177" lon="0.772657">
        <ele>285.808</ele>
        <time>2020-08-23T06:16:30Z</time>
      </trkpt>
      <trkpt lat="41.804199" lon="0.772597">
        <ele>285.672</ele>
        <time>2020-08-23T06:16:31Z</time>
      </trkpt>
      <trkpt lat="41.804222" lon="0.772544">
        <ele>285.532</ele>
        <time>2020-08-23T06:16:32Z</time>
      </trkpt>
      <trkpt lat="41.804246" lon="0.772483">
        <ele>285.490</ele>
        <time>2020-08-23T06:16:33Z</time>
      </trkpt>
      <trkpt lat="41.804266" lon="0.772422">
        <ele>285.372</ele>
        <time>2020-08-23T06:16:34Z</time>
      </trkpt>
      <trkpt lat="41.804302" lon="0.772325">
        <ele>285.273</ele>
        <time>2020-08-23T06:16:36Z</time>
      </trkpt>
      <trkpt lat="41.804334" lon="0.772217">
        <ele>285.124</ele>
        <time>2020-08-23T06:16:38Z</time>
      </trkpt>
      <trkpt lat="41.804360" lon="0.772156">
        <ele>285.150</ele>
        <time>2020-08-23T06:16:39Z</time>
      </trkpt>
      <trkpt lat="41.804386" lon="0.772050">
        <ele>285.119</ele>
        <time>2020-08-23T06:16:41Z</time>
      </trkpt>
      <trkpt lat="41.804426" lon="0.771950">
        <ele>285.176</ele>
        <time>2020-08-23T06:16:43Z</time>
      </trkpt>
      <trkpt lat="41.804463" lon="0.771868">
        <ele>285.090</ele>
        <time>2020-08-23T06:16:45Z</time>
      </trkpt>
      <trkpt lat="41.804506" lon="0.771769">
        <ele>284.919</ele>
        <time>2020-08-23T06:16:47Z</time>
      </trkpt>
      <trkpt lat="41.804527" lon="0.771715">
        <ele>284.908</ele>
        <time>2020-08-23T06:16:48Z</time>
      </trkpt>
      <trkpt lat="41.804548" lon="0.771661">
        <ele>284.892</ele>
        <time>2020-08-23T06:16:49Z</time>
      </trkpt>
      <trkpt lat="41.804569" lon="0.771600">
        <ele>284.782</ele>
        <time>2020-08-23T06:16:50Z</time>
      </trkpt>
      <trkpt lat="41.804587" lon="0.771538">
        <ele>284.650</ele>
        <time>2020-08-23T06:16:51Z</time>
      </trkpt>
      <trkpt lat="41.804607" lon="0.771472">
        <ele>284.592</ele>
        <time>2020-08-23T06:16:52Z</time>
      </trkpt>
      <trkpt lat="41.804627" lon="0.771405">
        <ele>284.493</ele>
        <time>2020-08-23T06:16:53Z</time>
      </trkpt>
      <trkpt lat="41.804643" lon="0.771341">
        <ele>284.214</ele>
        <time>2020-08-23T06:16:54Z</time>
      </trkpt>
      <trkpt lat="41.804660" lon="0.771274">
        <ele>284.190</ele>
        <time>2020-08-23T06:16:55Z</time>
      </trkpt>
      <trkpt lat="41.804679" lon="0.771205">
        <ele>284.019</ele>
        <time>2020-08-23T06:16:56Z</time>
      </trkpt>
      <trkpt lat="41.804702" lon="0.771134">
        <ele>284.035</ele>
        <time>2020-08-23T06:16:57Z</time>
      </trkpt>
      <trkpt lat="41.804725" lon="0.771055">
        <ele>284.086</ele>
        <time>2020-08-23T06:16:58Z</time>
      </trkpt>
      <trkpt lat="41.804741" lon="0.770981">
        <ele>284.014</ele>
        <time>2020-08-23T06:16:59Z</time>
      </trkpt>
      <trkpt lat="41.804753" lon="0.770911">
        <ele>284.008</ele>
        <time>2020-08-23T06:17:00Z</time>
      </trkpt>
      <trkpt lat="41.804768" lon="0.770842">
        <ele>284.058</ele>
        <time>2020-08-23T06:17:01Z</time>
      </trkpt>
      <trkpt lat="41.804789" lon="0.770775">
        <ele>283.988</ele>
        <time>2020-08-23T06:17:02Z</time>
      </trkpt>
      <trkpt lat="41.804819" lon="0.770697">
        <ele>283.866</ele>
        <time>2020-08-23T06:17:03Z</time>
      </trkpt>
      <trkpt lat="41.804841" lon="0.770624">
        <ele>283.818</ele>
        <time>2020-08-23T06:17:04Z</time>
      </trkpt>
      <trkpt lat="41.804864" lon="0.770548">
        <ele>283.869</ele>
        <time>2020-08-23T06:17:05Z</time>
      </trkpt>
      <trkpt lat="41.804880" lon="0.770483">
        <ele>283.810</ele>
        <time>2020-08-23T06:17:06Z</time>
      </trkpt>
      <trkpt lat="41.804894" lon="0.770416">
        <ele>283.886</ele>
        <time>2020-08-23T06:17:07Z</time>
      </trkpt>
      <trkpt lat="41.804908" lon="0.770344">
        <ele>283.985</ele>
        <time>2020-08-23T06:17:08Z</time>
      </trkpt>
      <trkpt lat="41.804916" lon="0.770270">
        <ele>283.964</ele>
        <time>2020-08-23T06:17:09Z</time>
      </trkpt>
      <trkpt lat="41.804933" lon="0.770207">
        <ele>283.906</ele>
        <time>2020-08-23T06:17:10Z</time>
      </trkpt>
      <trkpt lat="41.804955" lon="0.770142">
        <ele>283.916</ele>
        <time>2020-08-23T06:17:11Z</time>
      </trkpt>
      <trkpt lat="41.804978" lon="0.770070">
        <ele>284.008</ele>
        <time>2020-08-23T06:17:12Z</time>
      </trkpt>
      <trkpt lat="41.804991" lon="0.769997">
        <ele>284.051</ele>
        <time>2020-08-23T06:17:13Z</time>
      </trkpt>
      <trkpt lat="41.805004" lon="0.769933">
        <ele>284.191</ele>
        <time>2020-08-23T06:17:14Z</time>
      </trkpt>
      <trkpt lat="41.805016" lon="0.769824">
        <ele>284.279</ele>
        <time>2020-08-23T06:17:16Z</time>
      </trkpt>
      <trkpt lat="41.805024" lon="0.769725">
        <ele>284.321</ele>
        <time>2020-08-23T06:17:18Z</time>
      </trkpt>
      <trkpt lat="41.805028" lon="0.769627">
        <ele>284.322</ele>
        <time>2020-08-23T06:17:20Z</time>
      </trkpt>
      <trkpt lat="41.805042" lon="0.769510">
        <ele>284.263</ele>
        <time>2020-08-23T06:17:22Z</time>
      </trkpt>
      <trkpt lat="41.805058" lon="0.769451">
        <ele>284.279</ele>
        <time>2020-08-23T06:17:23Z</time>
      </trkpt>
      <trkpt lat="41.805070" lon="0.769391">
        <ele>284.238</ele>
        <time>2020-08-23T06:17:24Z</time>
      </trkpt>
      <trkpt lat="41.805077" lon="0.769330">
        <ele>284.146</ele>
        <time>2020-08-23T06:17:25Z</time>
      </trkpt>
      <trkpt lat="41.805086" lon="0.769270">
        <ele>284.188</ele>
        <time>2020-08-23T06:17:26Z</time>
      </trkpt>
      <trkpt lat="41.805097" lon="0.769209">
        <ele>284.116</ele>
        <time>2020-08-23T06:17:27Z</time>
      </trkpt>
      <trkpt lat="41.805117" lon="0.769149">
        <ele>284.108</ele>
        <time>2020-08-23T06:17:28Z</time>
      </trkpt>
      <trkpt lat="41.805130" lon="0.769081">
        <ele>284.169</ele>
        <time>2020-08-23T06:17:29Z</time>
      </trkpt>
      <trkpt lat="41.805159" lon="0.769017">
        <ele>284.139</ele>
        <time>2020-08-23T06:17:30Z</time>
      </trkpt>
      <trkpt lat="41.805182" lon="0.768945">
        <ele>284.167</ele>
        <time>2020-08-23T06:17:31Z</time>
      </trkpt>
      <trkpt lat="41.805200" lon="0.768874">
        <ele>284.159</ele>
        <time>2020-08-23T06:17:32Z</time>
      </trkpt>
      <trkpt lat="41.805218" lon="0.768809">
        <ele>284.130</ele>
        <time>2020-08-23T06:17:33Z</time>
      </trkpt>
      <trkpt lat="41.805233" lon="0.768748">
        <ele>284.161</ele>
        <time>2020-08-23T06:17:34Z</time>
      </trkpt>
      <trkpt lat="41.805251" lon="0.768684">
        <ele>284.167</ele>
        <time>2020-08-23T06:17:35Z</time>
      </trkpt>
      <trkpt lat="41.805263" lon="0.768615">
        <ele>284.116</ele>
        <time>2020-08-23T06:17:36Z</time>
      </trkpt>
      <trkpt lat="41.805275" lon="0.768551">
        <ele>284.123</ele>
        <time>2020-08-23T06:17:37Z</time>
      </trkpt>
      <trkpt lat="41.805286" lon="0.768491">
        <ele>284.183</ele>
        <time>2020-08-23T06:17:38Z</time>
      </trkpt>
      <trkpt lat="41.805302" lon="0.768424">
        <ele>284.111</ele>
        <time>2020-08-23T06:17:39Z</time>
      </trkpt>
      <trkpt lat="41.805309" lon="0.768354">
        <ele>284.108</ele>
        <time>2020-08-23T06:17:40Z</time>
      </trkpt>
      <trkpt lat="41.805321" lon="0.768284">
        <ele>284.167</ele>
        <time>2020-08-23T06:17:41Z</time>
      </trkpt>
      <trkpt lat="41.805331" lon="0.768221">
        <ele>284.187</ele>
        <time>2020-08-23T06:17:42Z</time>
      </trkpt>
      <trkpt lat="41.805343" lon="0.768163">
        <ele>284.285</ele>
        <time>2020-08-23T06:17:43Z</time>
      </trkpt>
      <trkpt lat="41.805370" lon="0.768052">
        <ele>284.237</ele>
        <time>2020-08-23T06:17:45Z</time>
      </trkpt>
      <trkpt lat="41.805386" lon="0.767995">
        <ele>284.178</ele>
        <time>2020-08-23T06:17:46Z</time>
      </trkpt>
      <trkpt lat="41.805404" lon="0.767933">
        <ele>284.039</ele>
        <time>2020-08-23T06:17:47Z</time>
      </trkpt>
      <trkpt lat="41.805428" lon="0.767871">
        <ele>283.835</ele>
        <time>2020-08-23T06:17:48Z</time>
      </trkpt>
      <trkpt lat="41.805452" lon="0.767809">
        <ele>283.664</ele>
        <time>2020-08-23T06:17:49Z</time>
      </trkpt>
      <trkpt lat="41.805463" lon="0.767746">
        <ele>283.243</ele>
        <time>2020-08-23T06:17:50Z</time>
      </trkpt>
      <trkpt lat="41.805479" lon="0.767676">
        <ele>283.064</ele>
        <time>2020-08-23T06:17:51Z</time>
      </trkpt>
      <trkpt lat="41.805497" lon="0.767600">
        <ele>282.810</ele>
        <time>2020-08-23T06:17:52Z</time>
      </trkpt>
      <trkpt lat="41.805520" lon="0.767529">
        <ele>282.708</ele>
        <time>2020-08-23T06:17:53Z</time>
      </trkpt>
      <trkpt lat="41.805540" lon="0.767459">
        <ele>282.589</ele>
        <time>2020-08-23T06:17:54Z</time>
      </trkpt>
      <trkpt lat="41.805559" lon="0.767386">
        <ele>282.419</ele>
        <time>2020-08-23T06:17:55Z</time>
      </trkpt>
      <trkpt lat="41.805581" lon="0.767310">
        <ele>282.317</ele>
        <time>2020-08-23T06:17:56Z</time>
      </trkpt>
      <trkpt lat="41.805599" lon="0.767245">
        <ele>282.179</ele>
        <time>2020-08-23T06:17:57Z</time>
      </trkpt>
      <trkpt lat="41.805618" lon="0.767176">
        <ele>282.010</ele>
        <time>2020-08-23T06:17:58Z</time>
      </trkpt>
      <trkpt lat="41.805631" lon="0.767110">
        <ele>281.951</ele>
        <time>2020-08-23T06:17:59Z</time>
      </trkpt>
      <trkpt lat="41.805654" lon="0.767028">
        <ele>281.747</ele>
        <time>2020-08-23T06:18:00Z</time>
      </trkpt>
      <trkpt lat="41.805678" lon="0.766962">
        <ele>281.556</ele>
        <time>2020-08-23T06:18:01Z</time>
      </trkpt>
      <trkpt lat="41.805701" lon="0.766893">
        <ele>281.333</ele>
        <time>2020-08-23T06:18:02Z</time>
      </trkpt>
      <trkpt lat="41.805728" lon="0.766824">
        <ele>281.123</ele>
        <time>2020-08-23T06:18:03Z</time>
      </trkpt>
      <trkpt lat="41.805753" lon="0.766763">
        <ele>280.915</ele>
        <time>2020-08-23T06:18:04Z</time>
      </trkpt>
      <trkpt lat="41.805783" lon="0.766696">
        <ele>280.708</ele>
        <time>2020-08-23T06:18:05Z</time>
      </trkpt>
      <trkpt lat="41.805810" lon="0.766619">
        <ele>280.588</ele>
        <time>2020-08-23T06:18:06Z</time>
      </trkpt>
      <trkpt lat="41.805844" lon="0.766539">
        <ele>280.428</ele>
        <time>2020-08-23T06:18:07Z</time>
      </trkpt>
      <trkpt lat="41.805874" lon="0.766463">
        <ele>280.116</ele>
        <time>2020-08-23T06:18:08Z</time>
      </trkpt>
      <trkpt lat="41.805904" lon="0.766390">
        <ele>280.068</ele>
        <time>2020-08-23T06:18:09Z</time>
      </trkpt>
      <trkpt lat="41.805931" lon="0.766324">
        <ele>279.899</ele>
        <time>2020-08-23T06:18:10Z</time>
      </trkpt>
      <trkpt lat="41.805964" lon="0.766262">
        <ele>279.710</ele>
        <time>2020-08-23T06:18:11Z</time>
      </trkpt>
      <trkpt lat="41.805992" lon="0.766197">
        <ele>279.686</ele>
        <time>2020-08-23T06:18:12Z</time>
      </trkpt>
      <trkpt lat="41.806012" lon="0.766131">
        <ele>279.575</ele>
        <time>2020-08-23T06:18:13Z</time>
      </trkpt>
      <trkpt lat="41.806034" lon="0.766070">
        <ele>279.435</ele>
        <time>2020-08-23T06:18:14Z</time>
      </trkpt>
      <trkpt lat="41.806064" lon="0.766009">
        <ele>279.386</ele>
        <time>2020-08-23T06:18:15Z</time>
      </trkpt>
      <trkpt lat="41.806093" lon="0.765944">
        <ele>279.214</ele>
        <time>2020-08-23T06:18:16Z</time>
      </trkpt>
      <trkpt lat="41.806118" lon="0.765880">
        <ele>279.208</ele>
        <time>2020-08-23T06:18:17Z</time>
      </trkpt>
      <trkpt lat="41.806148" lon="0.765814">
        <ele>279.248</ele>
        <time>2020-08-23T06:18:18Z</time>
      </trkpt>
      <trkpt lat="41.806176" lon="0.765737">
        <ele>279.238</ele>
        <time>2020-08-23T06:18:19Z</time>
      </trkpt>
      <trkpt lat="41.806202" lon="0.765666">
        <ele>279.296</ele>
        <time>2020-08-23T06:18:20Z</time>
      </trkpt>
      <trkpt lat="41.806220" lon="0.765608">
        <ele>279.358</ele>
        <time>2020-08-23T06:18:21Z</time>
      </trkpt>
      <trkpt lat="41.806257" lon="0.765502">
        <ele>279.419</ele>
        <time>2020-08-23T06:18:23Z</time>
      </trkpt>
      <trkpt lat="41.806268" lon="0.765441">
        <ele>279.550</ele>
        <time>2020-08-23T06:18:24Z</time>
      </trkpt>
      <trkpt lat="41.806294" lon="0.765326">
        <ele>279.716</ele>
        <time>2020-08-23T06:18:26Z</time>
      </trkpt>
      <trkpt lat="41.806327" lon="0.765222">
        <ele>279.845</ele>
        <time>2020-08-23T06:18:28Z</time>
      </trkpt>
      <trkpt lat="41.806364" lon="0.765116">
        <ele>279.944</ele>
        <time>2020-08-23T06:18:30Z</time>
      </trkpt>
      <trkpt lat="41.806397" lon="0.765015">
        <ele>280.005</ele>
        <time>2020-08-23T06:18:32Z</time>
      </trkpt>
      <trkpt lat="41.806422" lon="0.764964">
        <ele>280.115</ele>
        <time>2020-08-23T06:18:33Z</time>
      </trkpt>
      <trkpt lat="41.806473" lon="0.764859">
        <ele>280.208</ele>
        <time>2020-08-23T06:18:35Z</time>
      </trkpt>
      <trkpt lat="41.806508" lon="0.764753">
        <ele>280.339</ele>
        <time>2020-08-23T06:18:37Z</time>
      </trkpt>
      <trkpt lat="41.806548" lon="0.764663">
        <ele>280.479</ele>
        <time>2020-08-23T06:18:39Z</time>
      </trkpt>
      <trkpt lat="41.806586" lon="0.764583">
        <ele>280.527</ele>
        <time>2020-08-23T06:18:41Z</time>
      </trkpt>
      <trkpt lat="41.806607" lon="0.764480">
        <ele>280.729</ele>
        <time>2020-08-23T06:18:43Z</time>
      </trkpt>
      <trkpt lat="41.806611" lon="0.764418">
        <ele>280.930</ele>
        <time>2020-08-23T06:18:44Z</time>
      </trkpt>
      <trkpt lat="41.806622" lon="0.764359">
        <ele>281.051</ele>
        <time>2020-08-23T06:18:45Z</time>
      </trkpt>
      <trkpt lat="41.806642" lon="0.764250">
        <ele>281.237</ele>
        <time>2020-08-23T06:18:47Z</time>
      </trkpt>
      <trkpt lat="41.806651" lon="0.764190">
        <ele>281.366</ele>
        <time>2020-08-23T06:18:48Z</time>
      </trkpt>
      <trkpt lat="41.806669" lon="0.764119">
        <ele>281.455</ele>
        <time>2020-08-23T06:18:49Z</time>
      </trkpt>
      <trkpt lat="41.806680" lon="0.764052">
        <ele>281.407</ele>
        <time>2020-08-23T06:18:50Z</time>
      </trkpt>
      <trkpt lat="41.806700" lon="0.763931">
        <ele>281.417</ele>
        <time>2020-08-23T06:18:52Z</time>
      </trkpt>
      <trkpt lat="41.806709" lon="0.763866">
        <ele>281.408</ele>
        <time>2020-08-23T06:18:53Z</time>
      </trkpt>
      <trkpt lat="41.806717" lon="0.763758">
        <ele>281.490</ele>
        <time>2020-08-23T06:18:55Z</time>
      </trkpt>
      <trkpt lat="41.806738" lon="0.763655">
        <ele>281.410</ele>
        <time>2020-08-23T06:18:57Z</time>
      </trkpt>
      <trkpt lat="41.806758" lon="0.763535">
        <ele>281.448</ele>
        <time>2020-08-23T06:18:59Z</time>
      </trkpt>
      <trkpt lat="41.806765" lon="0.763459">
        <ele>281.440</ele>
        <time>2020-08-23T06:19:00Z</time>
      </trkpt>
      <trkpt lat="41.806777" lon="0.763390">
        <ele>281.491</ele>
        <time>2020-08-23T06:19:01Z</time>
      </trkpt>
      <trkpt lat="41.806791" lon="0.763329">
        <ele>281.442</ele>
        <time>2020-08-23T06:19:02Z</time>
      </trkpt>
      <trkpt lat="41.806807" lon="0.763217">
        <ele>281.628</ele>
        <time>2020-08-23T06:19:04Z</time>
      </trkpt>
      <trkpt lat="41.806817" lon="0.763110">
        <ele>281.877</ele>
        <time>2020-08-23T06:19:06Z</time>
      </trkpt>
      <trkpt lat="41.806830" lon="0.763002">
        <ele>282.036</ele>
        <time>2020-08-23T06:19:08Z</time>
      </trkpt>
      <trkpt lat="41.806836" lon="0.762907">
        <ele>282.217</ele>
        <time>2020-08-23T06:19:10Z</time>
      </trkpt>
      <trkpt lat="41.806845" lon="0.762806">
        <ele>282.518</ele>
        <time>2020-08-23T06:19:12Z</time>
      </trkpt>
      <trkpt lat="41.806859" lon="0.762725">
        <ele>282.808</ele>
        <time>2020-08-23T06:19:14Z</time>
      </trkpt>
      <trkpt lat="41.806867" lon="0.762629">
        <ele>283.258</ele>
        <time>2020-08-23T06:19:16Z</time>
      </trkpt>
      <trkpt lat="41.806883" lon="0.762538">
        <ele>283.618</ele>
        <time>2020-08-23T06:19:18Z</time>
      </trkpt>
      <trkpt lat="41.806895" lon="0.762449">
        <ele>284.096</ele>
        <time>2020-08-23T06:19:20Z</time>
      </trkpt>
      <trkpt lat="41.806901" lon="0.762365">
        <ele>284.618</ele>
        <time>2020-08-23T06:19:22Z</time>
      </trkpt>
      <trkpt lat="41.806912" lon="0.762288">
        <ele>284.929</ele>
        <time>2020-08-23T06:19:24Z</time>
      </trkpt>
      <trkpt lat="41.806922" lon="0.762206">
        <ele>285.220</ele>
        <time>2020-08-23T06:19:26Z</time>
      </trkpt>
      <trkpt lat="41.806939" lon="0.762130">
        <ele>285.566</ele>
        <time>2020-08-23T06:19:28Z</time>
      </trkpt>
      <trkpt lat="41.806951" lon="0.762058">
        <ele>285.895</ele>
        <time>2020-08-23T06:19:30Z</time>
      </trkpt>
      <trkpt lat="41.806964" lon="0.761979">
        <ele>286.143</ele>
        <time>2020-08-23T06:19:32Z</time>
      </trkpt>
      <trkpt lat="41.806983" lon="0.761891">
        <ele>286.464</ele>
        <time>2020-08-23T06:19:34Z</time>
      </trkpt>
      <trkpt lat="41.807001" lon="0.761830">
        <ele>286.710</ele>
        <time>2020-08-23T06:19:36Z</time>
      </trkpt>
      <trkpt lat="41.807022" lon="0.761768">
        <ele>287.108</ele>
        <time>2020-08-23T06:19:38Z</time>
      </trkpt>
      <trkpt lat="41.807033" lon="0.761696">
        <ele>287.619</ele>
        <time>2020-08-23T06:19:40Z</time>
      </trkpt>
      <trkpt lat="41.807052" lon="0.761629">
        <ele>287.919</ele>
        <time>2020-08-23T06:19:42Z</time>
      </trkpt>
      <trkpt lat="41.807067" lon="0.761558">
        <ele>288.387</ele>
        <time>2020-08-23T06:19:44Z</time>
      </trkpt>
      <trkpt lat="41.807075" lon="0.761488">
        <ele>288.729</ele>
        <time>2020-08-23T06:19:46Z</time>
      </trkpt>
      <trkpt lat="41.807081" lon="0.761411">
        <ele>289.110</ele>
        <time>2020-08-23T06:19:48Z</time>
      </trkpt>
      <trkpt lat="41.807094" lon="0.761338">
        <ele>289.531</ele>
        <time>2020-08-23T06:19:50Z</time>
      </trkpt>
      <trkpt lat="41.807102" lon="0.761265">
        <ele>290.187</ele>
        <time>2020-08-23T06:19:53Z</time>
      </trkpt>
      <trkpt lat="41.807099" lon="0.761175">
        <ele>291.056</ele>
        <time>2020-08-23T06:19:56Z</time>
      </trkpt>
      <trkpt lat="41.807100" lon="0.761103">
        <ele>291.326</ele>
        <time>2020-08-23T06:19:58Z</time>
      </trkpt>
      <trkpt lat="41.807097" lon="0.761018">
        <ele>291.647</ele>
        <time>2020-08-23T06:20:00Z</time>
      </trkpt>
      <trkpt lat="41.807098" lon="0.760928">
        <ele>291.811</ele>
        <time>2020-08-23T06:20:02Z</time>
      </trkpt>
      <trkpt lat="41.807099" lon="0.760830">
        <ele>291.908</ele>
        <time>2020-08-23T06:20:04Z</time>
      </trkpt>
      <trkpt lat="41.807095" lon="0.760743">
        <ele>292.037</ele>
        <time>2020-08-23T06:20:06Z</time>
      </trkpt>
      <trkpt lat="41.807095" lon="0.760649">
        <ele>292.027</ele>
        <time>2020-08-23T06:20:08Z</time>
      </trkpt>
      <trkpt lat="41.807104" lon="0.760546">
        <ele>292.085</ele>
        <time>2020-08-23T06:20:10Z</time>
      </trkpt>
      <trkpt lat="41.807105" lon="0.760447">
        <ele>291.967</ele>
        <time>2020-08-23T06:20:12Z</time>
      </trkpt>
      <trkpt lat="41.807100" lon="0.760348">
        <ele>292.338</ele>
        <time>2020-08-23T06:20:14Z</time>
      </trkpt>
      <trkpt lat="41.807100" lon="0.760257">
        <ele>292.689</ele>
        <time>2020-08-23T06:20:16Z</time>
      </trkpt>
      <trkpt lat="41.807092" lon="0.760189">
        <ele>292.685</ele>
        <time>2020-08-23T06:20:18Z</time>
      </trkpt>
      <trkpt lat="41.807086" lon="0.760115">
        <ele>292.874</ele>
        <time>2020-08-23T06:20:20Z</time>
      </trkpt>
      <trkpt lat="41.807073" lon="0.760046">
        <ele>293.072</ele>
        <time>2020-08-23T06:20:22Z</time>
      </trkpt>
      <trkpt lat="41.807064" lon="0.759965">
        <ele>293.213</ele>
        <time>2020-08-23T06:20:24Z</time>
      </trkpt>
      <trkpt lat="41.807069" lon="0.759872">
        <ele>293.214</ele>
        <time>2020-08-23T06:20:26Z</time>
      </trkpt>
      <trkpt lat="41.807062" lon="0.759764">
        <ele>293.108</ele>
        <time>2020-08-23T06:20:28Z</time>
      </trkpt>
      <trkpt lat="41.807062" lon="0.759654">
        <ele>292.972</ele>
        <time>2020-08-23T06:20:30Z</time>
      </trkpt>
      <trkpt lat="41.807066" lon="0.759591">
        <ele>292.752</ele>
        <time>2020-08-23T06:20:31Z</time>
      </trkpt>
      <trkpt lat="41.807074" lon="0.759524">
        <ele>292.350</ele>
        <time>2020-08-23T06:20:32Z</time>
      </trkpt>
      <trkpt lat="41.807075" lon="0.759454">
        <ele>292.192</ele>
        <time>2020-08-23T06:20:33Z</time>
      </trkpt>
      <trkpt lat="41.807084" lon="0.759332">
        <ele>291.663</ele>
        <time>2020-08-23T06:20:35Z</time>
      </trkpt>
      <trkpt lat="41.807087" lon="0.759268">
        <ele>291.484</ele>
        <time>2020-08-23T06:20:36Z</time>
      </trkpt>
      <trkpt lat="41.807094" lon="0.759192">
        <ele>291.220</ele>
        <time>2020-08-23T06:20:37Z</time>
      </trkpt>
      <trkpt lat="41.807106" lon="0.759113">
        <ele>291.099</ele>
        <time>2020-08-23T06:20:38Z</time>
      </trkpt>
      <trkpt lat="41.807118" lon="0.759036">
        <ele>290.786</ele>
        <time>2020-08-23T06:20:39Z</time>
      </trkpt>
      <trkpt lat="41.807127" lon="0.758956">
        <ele>290.460</ele>
        <time>2020-08-23T06:20:40Z</time>
      </trkpt>
      <trkpt lat="41.807141" lon="0.758867">
        <ele>290.226</ele>
        <time>2020-08-23T06:20:41Z</time>
      </trkpt>
      <trkpt lat="41.807159" lon="0.758777">
        <ele>289.908</ele>
        <time>2020-08-23T06:20:42Z</time>
      </trkpt>
      <trkpt lat="41.807172" lon="0.758683">
        <ele>289.693</ele>
        <time>2020-08-23T06:20:43Z</time>
      </trkpt>
      <trkpt lat="41.807188" lon="0.758589">
        <ele>289.493</ele>
        <time>2020-08-23T06:20:44Z</time>
      </trkpt>
      <trkpt lat="41.807206" lon="0.758498">
        <ele>289.281</ele>
        <time>2020-08-23T06:20:45Z</time>
      </trkpt>
      <trkpt lat="41.807221" lon="0.758401">
        <ele>288.983</ele>
        <time>2020-08-23T06:20:46Z</time>
      </trkpt>
      <trkpt lat="41.807235" lon="0.758308">
        <ele>288.634</ele>
        <time>2020-08-23T06:20:47Z</time>
      </trkpt>
      <trkpt lat="41.807248" lon="0.758215">
        <ele>288.445</ele>
        <time>2020-08-23T06:20:48Z</time>
      </trkpt>
      <trkpt lat="41.807263" lon="0.758138">
        <ele>288.251</ele>
        <time>2020-08-23T06:20:49Z</time>
      </trkpt>
      <trkpt lat="41.807278" lon="0.758055">
        <ele>287.970</ele>
        <time>2020-08-23T06:20:50Z</time>
      </trkpt>
      <trkpt lat="41.807294" lon="0.757973">
        <ele>287.872</ele>
        <time>2020-08-23T06:20:51Z</time>
      </trkpt>
      <trkpt lat="41.807311" lon="0.757891">
        <ele>287.713</ele>
        <time>2020-08-23T06:20:52Z</time>
      </trkpt>
      <trkpt lat="41.807320" lon="0.757818">
        <ele>287.514</ele>
        <time>2020-08-23T06:20:53Z</time>
      </trkpt>
      <trkpt lat="41.807330" lon="0.757753">
        <ele>287.308</ele>
        <time>2020-08-23T06:20:54Z</time>
      </trkpt>
      <trkpt lat="41.807340" lon="0.757666">
        <ele>287.052</ele>
        <time>2020-08-23T06:20:55Z</time>
      </trkpt>
      <trkpt lat="41.807361" lon="0.757575">
        <ele>286.792</ele>
        <time>2020-08-23T06:20:56Z</time>
      </trkpt>
      <trkpt lat="41.807375" lon="0.757491">
        <ele>286.420</ele>
        <time>2020-08-23T06:20:57Z</time>
      </trkpt>
      <trkpt lat="41.807398" lon="0.757398">
        <ele>286.172</ele>
        <time>2020-08-23T06:20:58Z</time>
      </trkpt>
      <trkpt lat="41.807418" lon="0.757312">
        <ele>285.933</ele>
        <time>2020-08-23T06:20:59Z</time>
      </trkpt>
      <trkpt lat="41.807442" lon="0.757219">
        <ele>285.684</ele>
        <time>2020-08-23T06:21:00Z</time>
      </trkpt>
      <trkpt lat="41.807468" lon="0.757134">
        <ele>285.340</ele>
        <time>2020-08-23T06:21:01Z</time>
      </trkpt>
      <trkpt lat="41.807499" lon="0.757049">
        <ele>285.089</ele>
        <time>2020-08-23T06:21:02Z</time>
      </trkpt>
      <trkpt lat="41.807533" lon="0.756965">
        <ele>284.856</ele>
        <time>2020-08-23T06:21:03Z</time>
      </trkpt>
      <trkpt lat="41.807568" lon="0.756878">
        <ele>284.659</ele>
        <time>2020-08-23T06:21:04Z</time>
      </trkpt>
      <trkpt lat="41.807604" lon="0.756802">
        <ele>284.514</ele>
        <time>2020-08-23T06:21:05Z</time>
      </trkpt>
      <trkpt lat="41.807632" lon="0.756727">
        <ele>284.408</ele>
        <time>2020-08-23T06:21:06Z</time>
      </trkpt>
      <trkpt lat="41.807663" lon="0.756648">
        <ele>284.270</ele>
        <time>2020-08-23T06:21:07Z</time>
      </trkpt>
      <trkpt lat="41.807690" lon="0.756569">
        <ele>284.170</ele>
        <time>2020-08-23T06:21:08Z</time>
      </trkpt>
      <trkpt lat="41.807727" lon="0.756488">
        <ele>284.078</ele>
        <time>2020-08-23T06:21:09Z</time>
      </trkpt>
      <trkpt lat="41.807766" lon="0.756414">
        <ele>283.950</ele>
        <time>2020-08-23T06:21:10Z</time>
      </trkpt>
      <trkpt lat="41.807812" lon="0.756344">
        <ele>283.961</ele>
        <time>2020-08-23T06:21:11Z</time>
      </trkpt>
      <trkpt lat="41.807842" lon="0.756291">
        <ele>283.952</ele>
        <time>2020-08-23T06:21:12Z</time>
      </trkpt>
      <trkpt lat="41.807876" lon="0.756233">
        <ele>284.048</ele>
        <time>2020-08-23T06:21:13Z</time>
      </trkpt>
      <trkpt lat="41.807912" lon="0.756173">
        <ele>284.137</ele>
        <time>2020-08-23T06:21:14Z</time>
      </trkpt>
      <trkpt lat="41.807942" lon="0.756120">
        <ele>284.126</ele>
        <time>2020-08-23T06:21:15Z</time>
      </trkpt>
      <trkpt lat="41.807970" lon="0.756068">
        <ele>284.247</ele>
        <time>2020-08-23T06:21:16Z</time>
      </trkpt>
      <trkpt lat="41.807995" lon="0.756012">
        <ele>284.311</ele>
        <time>2020-08-23T06:21:17Z</time>
      </trkpt>
      <trkpt lat="41.808027" lon="0.755900">
        <ele>284.508</ele>
        <time>2020-08-23T06:21:19Z</time>
      </trkpt>
      <trkpt lat="41.808066" lon="0.755798">
        <ele>284.817</ele>
        <time>2020-08-23T06:21:21Z</time>
      </trkpt>
      <trkpt lat="41.808110" lon="0.755698">
        <ele>285.197</ele>
        <time>2020-08-23T06:21:23Z</time>
      </trkpt>
      <trkpt lat="41.808155" lon="0.755615">
        <ele>285.585</ele>
        <time>2020-08-23T06:21:25Z</time>
      </trkpt>
      <trkpt lat="41.808204" lon="0.755538">
        <ele>285.767</ele>
        <time>2020-08-23T06:21:27Z</time>
      </trkpt>
      <trkpt lat="41.808245" lon="0.755468">
        <ele>285.958</ele>
        <time>2020-08-23T06:21:29Z</time>
      </trkpt>
      <trkpt lat="41.808279" lon="0.755385">
        <ele>286.119</ele>
        <time>2020-08-23T06:21:31Z</time>
      </trkpt>
      <trkpt lat="41.808312" lon="0.755297">
        <ele>286.345</ele>
        <time>2020-08-23T06:21:33Z</time>
      </trkpt>
      <trkpt lat="41.808350" lon="0.755221">
        <ele>286.634</ele>
        <time>2020-08-23T06:21:35Z</time>
      </trkpt>
      <trkpt lat="41.808382" lon="0.755123">
        <ele>286.837</ele>
        <time>2020-08-23T06:21:37Z</time>
      </trkpt>
      <trkpt lat="41.808418" lon="0.755032">
        <ele>287.049</ele>
        <time>2020-08-23T06:21:39Z</time>
      </trkpt>
      <trkpt lat="41.808446" lon="0.754937">
        <ele>287.213</ele>
        <time>2020-08-23T06:21:41Z</time>
      </trkpt>
      <trkpt lat="41.808476" lon="0.754843">
        <ele>287.508</ele>
        <time>2020-08-23T06:21:43Z</time>
      </trkpt>
      <trkpt lat="41.808510" lon="0.754751">
        <ele>287.728</ele>
        <time>2020-08-23T06:21:45Z</time>
      </trkpt>
      <trkpt lat="41.808535" lon="0.754664">
        <ele>287.938</ele>
        <time>2020-08-23T06:21:47Z</time>
      </trkpt>
      <trkpt lat="41.808558" lon="0.754557">
        <ele>288.176</ele>
        <time>2020-08-23T06:21:49Z</time>
      </trkpt>
      <trkpt lat="41.808585" lon="0.754460">
        <ele>288.378</ele>
        <time>2020-08-23T06:21:51Z</time>
      </trkpt>
      <trkpt lat="41.808599" lon="0.754401">
        <ele>288.459</ele>
        <time>2020-08-23T06:21:52Z</time>
      </trkpt>
      <trkpt lat="41.808619" lon="0.754347">
        <ele>288.590</ele>
        <time>2020-08-23T06:21:53Z</time>
      </trkpt>
      <trkpt lat="41.808645" lon="0.754295">
        <ele>288.686</ele>
        <time>2020-08-23T06:21:54Z</time>
      </trkpt>
      <trkpt lat="41.808668" lon="0.754237">
        <ele>288.715</ele>
        <time>2020-08-23T06:21:55Z</time>
      </trkpt>
      <trkpt lat="41.808708" lon="0.754149">
        <ele>288.949</ele>
        <time>2020-08-23T06:21:57Z</time>
      </trkpt>
      <trkpt lat="41.808728" lon="0.754094">
        <ele>289.002</ele>
        <time>2020-08-23T06:21:58Z</time>
      </trkpt>
      <trkpt lat="41.808747" lon="0.754029">
        <ele>289.122</ele>
        <time>2020-08-23T06:21:59Z</time>
      </trkpt>
      <trkpt lat="41.808765" lon="0.753973">
        <ele>289.208</ele>
        <time>2020-08-23T06:22:00Z</time>
      </trkpt>
      <trkpt lat="41.808783" lon="0.753917">
        <ele>289.389</ele>
        <time>2020-08-23T06:22:01Z</time>
      </trkpt>
      <trkpt lat="41.808816" lon="0.753815">
        <ele>289.439</ele>
        <time>2020-08-23T06:22:03Z</time>
      </trkpt>
      <trkpt lat="41.808844" lon="0.753709">
        <ele>289.537</ele>
        <time>2020-08-23T06:22:05Z</time>
      </trkpt>
      <trkpt lat="41.808877" lon="0.753615">
        <ele>289.679</ele>
        <time>2020-08-23T06:22:07Z</time>
      </trkpt>
      <trkpt lat="41.808914" lon="0.753519">
        <ele>289.790</ele>
        <time>2020-08-23T06:22:09Z</time>
      </trkpt>
      <trkpt lat="41.808938" lon="0.753460">
        <ele>289.781</ele>
        <time>2020-08-23T06:22:10Z</time>
      </trkpt>
      <trkpt lat="41.808959" lon="0.753404">
        <ele>289.747</ele>
        <time>2020-08-23T06:22:11Z</time>
      </trkpt>
      <trkpt lat="41.808987" lon="0.753314">
        <ele>289.856</ele>
        <time>2020-08-23T06:22:13Z</time>
      </trkpt>
      <trkpt lat="41.809003" lon="0.753231">
        <ele>289.953</ele>
        <time>2020-08-23T06:22:15Z</time>
      </trkpt>
      <trkpt lat="41.809028" lon="0.753147">
        <ele>290.004</ele>
        <time>2020-08-23T06:22:17Z</time>
      </trkpt>
      <trkpt lat="41.809069" lon="0.753043">
        <ele>290.114</ele>
        <time>2020-08-23T06:22:19Z</time>
      </trkpt>
      <trkpt lat="41.809113" lon="0.752952">
        <ele>290.208</ele>
        <time>2020-08-23T06:22:21Z</time>
      </trkpt>
      <trkpt lat="41.809143" lon="0.752899">
        <ele>290.280</ele>
        <time>2020-08-23T06:22:22Z</time>
      </trkpt>
      <trkpt lat="41.809180" lon="0.752806">
        <ele>290.220</ele>
        <time>2020-08-23T06:22:24Z</time>
      </trkpt>
      <trkpt lat="41.809221" lon="0.752720">
        <ele>290.378</ele>
        <time>2020-08-23T06:22:26Z</time>
      </trkpt>
      <trkpt lat="41.809270" lon="0.752629">
        <ele>290.330</ele>
        <time>2020-08-23T06:22:28Z</time>
      </trkpt>
      <trkpt lat="41.809296" lon="0.752576">
        <ele>290.371</ele>
        <time>2020-08-23T06:22:29Z</time>
      </trkpt>
      <trkpt lat="41.809323" lon="0.752523">
        <ele>290.392</ele>
        <time>2020-08-23T06:22:30Z</time>
      </trkpt>
      <trkpt lat="41.809370" lon="0.752436">
        <ele>290.328</ele>
        <time>2020-08-23T06:22:32Z</time>
      </trkpt>
      <trkpt lat="41.809417" lon="0.752345">
        <ele>290.557</ele>
        <time>2020-08-23T06:22:34Z</time>
      </trkpt>
      <trkpt lat="41.809452" lon="0.752267">
        <ele>290.716</ele>
        <time>2020-08-23T06:22:36Z</time>
      </trkpt>
      <trkpt lat="41.809491" lon="0.752208">
        <ele>290.976</ele>
        <time>2020-08-23T06:22:38Z</time>
      </trkpt>
      <trkpt lat="41.809536" lon="0.752157">
        <ele>291.213</ele>
        <time>2020-08-23T06:22:40Z</time>
      </trkpt>
      <trkpt lat="41.809576" lon="0.752080">
        <ele>291.508</ele>
        <time>2020-08-23T06:22:42Z</time>
      </trkpt>
      <trkpt lat="41.809612" lon="0.751996">
        <ele>291.896</ele>
        <time>2020-08-23T06:22:44Z</time>
      </trkpt>
      <trkpt lat="41.809662" lon="0.751903">
        <ele>292.126</ele>
        <time>2020-08-23T06:22:46Z</time>
      </trkpt>
      <trkpt lat="41.809714" lon="0.751826">
        <ele>292.594</ele>
        <time>2020-08-23T06:22:48Z</time>
      </trkpt>
      <trkpt lat="41.809760" lon="0.751743">
        <ele>292.986</ele>
        <time>2020-08-23T06:22:50Z</time>
      </trkpt>
      <trkpt lat="41.809801" lon="0.751664">
        <ele>293.527</ele>
        <time>2020-08-23T06:22:52Z</time>
      </trkpt>
      <trkpt lat="41.809827" lon="0.751592">
        <ele>293.968</ele>
        <time>2020-08-23T06:22:54Z</time>
      </trkpt>
      <trkpt lat="41.809847" lon="0.751531">
        <ele>294.344</ele>
        <time>2020-08-23T06:22:56Z</time>
      </trkpt>
      <trkpt lat="41.809888" lon="0.751464">
        <ele>294.943</ele>
        <time>2020-08-23T06:22:59Z</time>
      </trkpt>
      <trkpt lat="41.809911" lon="0.751408">
        <ele>295.335</ele>
        <time>2020-08-23T06:23:01Z</time>
      </trkpt>
      <trkpt lat="41.809946" lon="0.751342">
        <ele>295.786</ele>
        <time>2020-08-23T06:23:03Z</time>
      </trkpt>
      <trkpt lat="41.809984" lon="0.751292">
        <ele>296.014</ele>
        <time>2020-08-23T06:23:05Z</time>
      </trkpt>
      <trkpt lat="41.810029" lon="0.751241">
        <ele>296.308</ele>
        <time>2020-08-23T06:23:07Z</time>
      </trkpt>
      <trkpt lat="41.810074" lon="0.751189">
        <ele>296.968</ele>
        <time>2020-08-23T06:23:09Z</time>
      </trkpt>
      <trkpt lat="41.810118" lon="0.751129">
        <ele>297.318</ele>
        <time>2020-08-23T06:23:11Z</time>
      </trkpt>
      <trkpt lat="41.810160" lon="0.751081">
        <ele>297.646</ele>
        <time>2020-08-23T06:23:13Z</time>
      </trkpt>
      <trkpt lat="41.810205" lon="0.751032">
        <ele>297.918</ele>
        <time>2020-08-23T06:23:15Z</time>
      </trkpt>
      <trkpt lat="41.810250" lon="0.750975">
        <ele>298.229</ele>
        <time>2020-08-23T06:23:17Z</time>
      </trkpt>
      <trkpt lat="41.810288" lon="0.750904">
        <ele>298.540</ele>
        <time>2020-08-23T06:23:19Z</time>
      </trkpt>
      <trkpt lat="41.810319" lon="0.750832">
        <ele>298.866</ele>
        <time>2020-08-23T06:23:21Z</time>
      </trkpt>
      <trkpt lat="41.810355" lon="0.750775">
        <ele>299.195</ele>
        <time>2020-08-23T06:23:23Z</time>
      </trkpt>
      <trkpt lat="41.810395" lon="0.750706">
        <ele>299.472</ele>
        <time>2020-08-23T06:23:25Z</time>
      </trkpt>
      <trkpt lat="41.810434" lon="0.750646">
        <ele>299.913</ele>
        <time>2020-08-23T06:23:27Z</time>
      </trkpt>
      <trkpt lat="41.810461" lon="0.750597">
        <ele>300.214</ele>
        <time>2020-08-23T06:23:29Z</time>
      </trkpt>
      <trkpt lat="41.810491" lon="0.750535">
        <ele>300.508</ele>
        <time>2020-08-23T06:23:31Z</time>
      </trkpt>
      <trkpt lat="41.810512" lon="0.750468">
        <ele>300.872</ele>
        <time>2020-08-23T06:23:33Z</time>
      </trkpt>
      <trkpt lat="41.810544" lon="0.750411">
        <ele>301.112</ele>
        <time>2020-08-23T06:23:35Z</time>
      </trkpt>
      <trkpt lat="41.810571" lon="0.750354">
        <ele>301.420</ele>
        <time>2020-08-23T06:23:37Z</time>
      </trkpt>
      <trkpt lat="41.810599" lon="0.750301">
        <ele>301.752</ele>
        <time>2020-08-23T06:23:39Z</time>
      </trkpt>
      <trkpt lat="41.810630" lon="0.750252">
        <ele>302.073</ele>
        <time>2020-08-23T06:23:41Z</time>
      </trkpt>
      <trkpt lat="41.810656" lon="0.750201">
        <ele>302.414</ele>
        <time>2020-08-23T06:23:43Z</time>
      </trkpt>
      <trkpt lat="41.810681" lon="0.750136">
        <ele>302.990</ele>
        <time>2020-08-23T06:23:46Z</time>
      </trkpt>
      <trkpt lat="41.810699" lon="0.750074">
        <ele>303.459</ele>
        <time>2020-08-23T06:23:49Z</time>
      </trkpt>
      <trkpt lat="41.810734" lon="0.750005">
        <ele>304.081</ele>
        <time>2020-08-23T06:23:52Z</time>
      </trkpt>
      <trkpt lat="41.810752" lon="0.749948">
        <ele>304.461</ele>
        <time>2020-08-23T06:23:54Z</time>
      </trkpt>
      <trkpt lat="41.810784" lon="0.749885">
        <ele>304.817</ele>
        <time>2020-08-23T06:23:56Z</time>
      </trkpt>
      <trkpt lat="41.810813" lon="0.749815">
        <ele>305.208</ele>
        <time>2020-08-23T06:23:58Z</time>
      </trkpt>
      <trkpt lat="41.810839" lon="0.749744">
        <ele>305.723</ele>
        <time>2020-08-23T06:24:00Z</time>
      </trkpt>
      <trkpt lat="41.810851" lon="0.749682">
        <ele>306.033</ele>
        <time>2020-08-23T06:24:02Z</time>
      </trkpt>
      <trkpt lat="41.810875" lon="0.749619">
        <ele>306.321</ele>
        <time>2020-08-23T06:24:04Z</time>
      </trkpt>
      <trkpt lat="41.810899" lon="0.749562">
        <ele>306.623</ele>
        <time>2020-08-23T06:24:06Z</time>
      </trkpt>
      <trkpt lat="41.810927" lon="0.749496">
        <ele>306.994</ele>
        <time>2020-08-23T06:24:08Z</time>
      </trkpt>
      <trkpt lat="41.810960" lon="0.749441">
        <ele>307.245</ele>
        <time>2020-08-23T06:24:10Z</time>
      </trkpt>
      <trkpt lat="41.810995" lon="0.749375">
        <ele>307.611</ele>
        <time>2020-08-23T06:24:13Z</time>
      </trkpt>
      <trkpt lat="41.811022" lon="0.749316">
        <ele>307.990</ele>
        <time>2020-08-23T06:24:15Z</time>
      </trkpt>
      <trkpt lat="41.811052" lon="0.749253">
        <ele>308.348</ele>
        <time>2020-08-23T06:24:18Z</time>
      </trkpt>
      <trkpt lat="41.811081" lon="0.749185">
        <ele>308.661</ele>
        <time>2020-08-23T06:24:21Z</time>
      </trkpt>
      <trkpt lat="41.811110" lon="0.749119">
        <ele>308.817</ele>
        <time>2020-08-23T06:24:23Z</time>
      </trkpt>
      <trkpt lat="41.811137" lon="0.749045">
        <ele>308.908</ele>
        <time>2020-08-23T06:24:25Z</time>
      </trkpt>
      <trkpt lat="41.811155" lon="0.748976">
        <ele>309.119</ele>
        <time>2020-08-23T06:24:27Z</time>
      </trkpt>
      <trkpt lat="41.811190" lon="0.748909">
        <ele>309.389</ele>
        <time>2020-08-23T06:24:29Z</time>
      </trkpt>
      <trkpt lat="41.811228" lon="0.748828">
        <ele>309.667</ele>
        <time>2020-08-23T06:24:32Z</time>
      </trkpt>
      <trkpt lat="41.811257" lon="0.748781">
        <ele>309.739</ele>
        <time>2020-08-23T06:24:34Z</time>
      </trkpt>
      <trkpt lat="41.811296" lon="0.748728">
        <ele>309.930</ele>
        <time>2020-08-23T06:24:36Z</time>
      </trkpt>
      <trkpt lat="41.811336" lon="0.748667">
        <ele>310.051</ele>
        <time>2020-08-23T06:24:38Z</time>
      </trkpt>
      <trkpt lat="41.811374" lon="0.748603">
        <ele>310.177</ele>
        <time>2020-08-23T06:24:40Z</time>
      </trkpt>
      <trkpt lat="41.811400" lon="0.748508">
        <ele>310.126</ele>
        <time>2020-08-23T06:24:42Z</time>
      </trkpt>
      <trkpt lat="41.811432" lon="0.748404">
        <ele>310.124</ele>
        <time>2020-08-23T06:24:44Z</time>
      </trkpt>
      <trkpt lat="41.811471" lon="0.748309">
        <ele>310.104</ele>
        <time>2020-08-23T06:24:46Z</time>
      </trkpt>
      <trkpt lat="41.811508" lon="0.748187">
        <ele>310.114</ele>
        <time>2020-08-23T06:24:48Z</time>
      </trkpt>
      <trkpt lat="41.811528" lon="0.748121">
        <ele>310.008</ele>
        <time>2020-08-23T06:24:50Z</time>
      </trkpt>
      <trkpt lat="41.811551" lon="0.748043">
        <ele>309.927</ele>
        <time>2020-08-23T06:24:52Z</time>
      </trkpt>
      <trkpt lat="41.811590" lon="0.747985">
        <ele>310.087</ele>
        <time>2020-08-23T06:24:54Z</time>
      </trkpt>
      <trkpt lat="41.811624" lon="0.747919">
        <ele>310.195</ele>
        <time>2020-08-23T06:24:56Z</time>
      </trkpt>
      <trkpt lat="41.811676" lon="0.747844">
        <ele>310.297</ele>
        <time>2020-08-23T06:24:58Z</time>
      </trkpt>
      <trkpt lat="41.811745" lon="0.747777">
        <ele>310.338</ele>
        <time>2020-08-23T06:25:00Z</time>
      </trkpt>
      <trkpt lat="41.811782" lon="0.747740">
        <ele>310.349</ele>
        <time>2020-08-23T06:25:01Z</time>
      </trkpt>
      <trkpt lat="41.811853" lon="0.747677">
        <ele>310.345</ele>
        <time>2020-08-23T06:25:03Z</time>
      </trkpt>
      <trkpt lat="41.811906" lon="0.747597">
        <ele>310.374</ele>
        <time>2020-08-23T06:25:05Z</time>
      </trkpt>
      <trkpt lat="41.811952" lon="0.747517">
        <ele>310.371</ele>
        <time>2020-08-23T06:25:07Z</time>
      </trkpt>
      <trkpt lat="41.811980" lon="0.747456">
        <ele>310.441</ele>
        <time>2020-08-23T06:25:09Z</time>
      </trkpt>
      <trkpt lat="41.812018" lon="0.747385">
        <ele>310.515</ele>
        <time>2020-08-23T06:25:11Z</time>
      </trkpt>
      <trkpt lat="41.812063" lon="0.747303">
        <ele>310.608</ele>
        <time>2020-08-23T06:25:13Z</time>
      </trkpt>
      <trkpt lat="41.812120" lon="0.747220">
        <ele>310.612</ele>
        <time>2020-08-23T06:25:15Z</time>
      </trkpt>
      <trkpt lat="41.812172" lon="0.747131">
        <ele>310.642</ele>
        <time>2020-08-23T06:25:17Z</time>
      </trkpt>
      <trkpt lat="41.812186" lon="0.747025">
        <ele>310.690</ele>
        <time>2020-08-23T06:25:19Z</time>
      </trkpt>
      <trkpt lat="41.812185" lon="0.746932">
        <ele>310.742</ele>
        <time>2020-08-23T06:25:21Z</time>
      </trkpt>
      <trkpt lat="41.812180" lon="0.746871">
        <ele>310.753</ele>
        <time>2020-08-23T06:25:22Z</time>
      </trkpt>
      <trkpt lat="41.812175" lon="0.746808">
        <ele>310.744</ele>
        <time>2020-08-23T06:25:23Z</time>
      </trkpt>
      <trkpt lat="41.812168" lon="0.746745">
        <ele>310.730</ele>
        <time>2020-08-23T06:25:24Z</time>
      </trkpt>
      <trkpt lat="41.812163" lon="0.746681">
        <ele>310.849</ele>
        <time>2020-08-23T06:25:25Z</time>
      </trkpt>
      <trkpt lat="41.812155" lon="0.746572">
        <ele>310.981</ele>
        <time>2020-08-23T06:25:27Z</time>
      </trkpt>
      <trkpt lat="41.812149" lon="0.746463">
        <ele>311.061</ele>
        <time>2020-08-23T06:25:29Z</time>
      </trkpt>
      <trkpt lat="41.812158" lon="0.746372">
        <ele>311.017</ele>
        <time>2020-08-23T06:25:31Z</time>
      </trkpt>
      <trkpt lat="41.812165" lon="0.746269">
        <ele>311.108</ele>
        <time>2020-08-23T06:25:33Z</time>
      </trkpt>
      <trkpt lat="41.812176" lon="0.746165">
        <ele>311.253</ele>
        <time>2020-08-23T06:25:35Z</time>
      </trkpt>
      <trkpt lat="41.812174" lon="0.746051">
        <ele>311.283</ele>
        <time>2020-08-23T06:25:37Z</time>
      </trkpt>
      <trkpt lat="41.812175" lon="0.745951">
        <ele>311.291</ele>
        <time>2020-08-23T06:25:39Z</time>
      </trkpt>
      <trkpt lat="41.812170" lon="0.745857">
        <ele>311.343</ele>
        <time>2020-08-23T06:25:41Z</time>
      </trkpt>
      <trkpt lat="41.812179" lon="0.745766">
        <ele>311.484</ele>
        <time>2020-08-23T06:25:43Z</time>
      </trkpt>
      <trkpt lat="41.812190" lon="0.745653">
        <ele>311.345</ele>
        <time>2020-08-23T06:25:45Z</time>
      </trkpt>
      <trkpt lat="41.812188" lon="0.745539">
        <ele>311.021</ele>
        <time>2020-08-23T06:25:47Z</time>
      </trkpt>
      <trkpt lat="41.812186" lon="0.745475">
        <ele>310.820</ele>
        <time>2020-08-23T06:25:48Z</time>
      </trkpt>
      <trkpt lat="41.812181" lon="0.745355">
        <ele>310.652</ele>
        <time>2020-08-23T06:25:50Z</time>
      </trkpt>
      <trkpt lat="41.812179" lon="0.745294">
        <ele>310.653</ele>
        <time>2020-08-23T06:25:51Z</time>
      </trkpt>
      <trkpt lat="41.812179" lon="0.745234">
        <ele>310.508</ele>
        <time>2020-08-23T06:25:52Z</time>
      </trkpt>
      <trkpt lat="41.812181" lon="0.745172">
        <ele>310.508</ele>
        <time>2020-08-23T06:25:53Z</time>
      </trkpt>
      <trkpt lat="41.812188" lon="0.745060">
        <ele>310.530</ele>
        <time>2020-08-23T06:25:55Z</time>
      </trkpt>
      <trkpt lat="41.812184" lon="0.744998">
        <ele>310.520</ele>
        <time>2020-08-23T06:25:56Z</time>
      </trkpt>
      <trkpt lat="41.812188" lon="0.744893">
        <ele>310.578</ele>
        <time>2020-08-23T06:25:58Z</time>
      </trkpt>
      <trkpt lat="41.812167" lon="0.744779">
        <ele>310.390</ele>
        <time>2020-08-23T06:26:00Z</time>
      </trkpt>
      <trkpt lat="41.812134" lon="0.744669">
        <ele>310.251</ele>
        <time>2020-08-23T06:26:02Z</time>
      </trkpt>
      <trkpt lat="41.812117" lon="0.744612">
        <ele>310.112</ele>
        <time>2020-08-23T06:26:03Z</time>
      </trkpt>
      <trkpt lat="41.812084" lon="0.744515">
        <ele>310.078</ele>
        <time>2020-08-23T06:26:05Z</time>
      </trkpt>
      <trkpt lat="41.812080" lon="0.744405">
        <ele>310.067</ele>
        <time>2020-08-23T06:26:07Z</time>
      </trkpt>
      <trkpt lat="41.812110" lon="0.744312">
        <ele>310.023</ele>
        <time>2020-08-23T06:26:09Z</time>
      </trkpt>
      <trkpt lat="41.812139" lon="0.744198">
        <ele>310.183</ele>
        <time>2020-08-23T06:26:11Z</time>
      </trkpt>
      <trkpt lat="41.812167" lon="0.744090">
        <ele>310.111</ele>
        <time>2020-08-23T06:26:13Z</time>
      </trkpt>
      <trkpt lat="41.812201" lon="0.743985">
        <ele>310.208</ele>
        <time>2020-08-23T06:26:15Z</time>
      </trkpt>
      <trkpt lat="41.812220" lon="0.743927">
        <ele>310.287</ele>
        <time>2020-08-23T06:26:16Z</time>
      </trkpt>
      <trkpt lat="41.812246" lon="0.743874">
        <ele>310.217</ele>
        <time>2020-08-23T06:26:17Z</time>
      </trkpt>
      <trkpt lat="41.812294" lon="0.743772">
        <ele>310.365</ele>
        <time>2020-08-23T06:26:19Z</time>
      </trkpt>
      <trkpt lat="41.812336" lon="0.743668">
        <ele>310.427</ele>
        <time>2020-08-23T06:26:21Z</time>
      </trkpt>
      <trkpt lat="41.812375" lon="0.743575">
        <ele>310.548</ele>
        <time>2020-08-23T06:26:23Z</time>
      </trkpt>
      <trkpt lat="41.812411" lon="0.743490">
        <ele>310.559</ele>
        <time>2020-08-23T06:26:25Z</time>
      </trkpt>
      <trkpt lat="41.812447" lon="0.743413">
        <ele>310.525</ele>
        <time>2020-08-23T06:26:27Z</time>
      </trkpt>
      <trkpt lat="41.812494" lon="0.743316">
        <ele>310.654</ele>
        <time>2020-08-23T06:26:29Z</time>
      </trkpt>
      <trkpt lat="41.812521" lon="0.743263">
        <ele>310.622</ele>
        <time>2020-08-23T06:26:30Z</time>
      </trkpt>
      <trkpt lat="41.812542" lon="0.743205">
        <ele>310.662</ele>
        <time>2020-08-23T06:26:31Z</time>
      </trkpt>
      <trkpt lat="41.812583" lon="0.743105">
        <ele>310.808</ele>
        <time>2020-08-23T06:26:33Z</time>
      </trkpt>
      <trkpt lat="41.812620" lon="0.743005">
        <ele>311.008</ele>
        <time>2020-08-23T06:26:35Z</time>
      </trkpt>
      <trkpt lat="41.812646" lon="0.742905">
        <ele>311.137</ele>
        <time>2020-08-23T06:26:37Z</time>
      </trkpt>
      <trkpt lat="41.812666" lon="0.742797">
        <ele>311.237</ele>
        <time>2020-08-23T06:26:39Z</time>
      </trkpt>
      <trkpt lat="41.812693" lon="0.742697">
        <ele>311.325</ele>
        <time>2020-08-23T06:26:41Z</time>
      </trkpt>
      <trkpt lat="41.812735" lon="0.742592">
        <ele>311.457</ele>
        <time>2020-08-23T06:26:43Z</time>
      </trkpt>
      <trkpt lat="41.812763" lon="0.742544">
        <ele>311.578</ele>
        <time>2020-08-23T06:26:44Z</time>
      </trkpt>
      <trkpt lat="41.812805" lon="0.742444">
        <ele>311.659</ele>
        <time>2020-08-23T06:26:46Z</time>
      </trkpt>
      <trkpt lat="41.812829" lon="0.742393">
        <ele>311.675</ele>
        <time>2020-08-23T06:26:47Z</time>
      </trkpt>
      <trkpt lat="41.812858" lon="0.742306">
        <ele>311.774</ele>
        <time>2020-08-23T06:26:49Z</time>
      </trkpt>
      <trkpt lat="41.812903" lon="0.742224">
        <ele>311.899</ele>
        <time>2020-08-23T06:26:51Z</time>
      </trkpt>
      <trkpt lat="41.812950" lon="0.742134">
        <ele>311.907</ele>
        <time>2020-08-23T06:26:53Z</time>
      </trkpt>
      <trkpt lat="41.812990" lon="0.742054">
        <ele>312.027</ele>
        <time>2020-08-23T06:26:55Z</time>
      </trkpt>
      <trkpt lat="41.813041" lon="0.741961">
        <ele>312.208</ele>
        <time>2020-08-23T06:26:57Z</time>
      </trkpt>
      <trkpt lat="41.813096" lon="0.741886">
        <ele>312.474</ele>
        <time>2020-08-23T06:26:59Z</time>
      </trkpt>
      <trkpt lat="41.813153" lon="0.741815">
        <ele>312.594</ele>
        <time>2020-08-23T06:27:01Z</time>
      </trkpt>
      <trkpt lat="41.813212" lon="0.741753">
        <ele>312.792</ele>
        <time>2020-08-23T06:27:03Z</time>
      </trkpt>
      <trkpt lat="41.813264" lon="0.741702">
        <ele>312.994</ele>
        <time>2020-08-23T06:27:05Z</time>
      </trkpt>
      <trkpt lat="41.813300" lon="0.741632">
        <ele>313.595</ele>
        <time>2020-08-23T06:27:07Z</time>
      </trkpt>
      <trkpt lat="41.813337" lon="0.741574">
        <ele>314.186</ele>
        <time>2020-08-23T06:27:09Z</time>
      </trkpt>
      <trkpt lat="41.813371" lon="0.741511">
        <ele>314.632</ele>
        <time>2020-08-23T06:27:11Z</time>
      </trkpt>
      <trkpt lat="41.813434" lon="0.741448">
        <ele>315.181</ele>
        <time>2020-08-23T06:27:14Z</time>
      </trkpt>
      <trkpt lat="41.813495" lon="0.741392">
        <ele>315.441</ele>
        <time>2020-08-23T06:27:16Z</time>
      </trkpt>
      <trkpt lat="41.813552" lon="0.741343">
        <ele>315.681</ele>
        <time>2020-08-23T06:27:18Z</time>
      </trkpt>
      <trkpt lat="41.813611" lon="0.741339">
        <ele>315.809</ele>
        <time>2020-08-23T06:27:20Z</time>
      </trkpt>
      <trkpt lat="41.813661" lon="0.741359">
        <ele>316.008</ele>
        <time>2020-08-23T06:27:22Z</time>
      </trkpt>
      <trkpt lat="41.813715" lon="0.741387">
        <ele>316.439</ele>
        <time>2020-08-23T06:27:24Z</time>
      </trkpt>
      <trkpt lat="41.813775" lon="0.741395">
        <ele>316.549</ele>
        <time>2020-08-23T06:27:25Z</time>
      </trkpt>
      <trkpt lat="41.813849" lon="0.741356">
        <ele>316.777</ele>
        <time>2020-08-23T06:27:27Z</time>
      </trkpt>
      <trkpt lat="41.813893" lon="0.741327">
        <ele>316.819</ele>
        <time>2020-08-23T06:27:28Z</time>
      </trkpt>
      <trkpt lat="41.813941" lon="0.741280">
        <ele>316.950</ele>
        <time>2020-08-23T06:27:30Z</time>
      </trkpt>
      <trkpt lat="41.813961" lon="0.741216">
        <ele>317.081</ele>
        <time>2020-08-23T06:27:32Z</time>
      </trkpt>
      <trkpt lat="41.813987" lon="0.741133">
        <ele>317.297</ele>
        <time>2020-08-23T06:27:34Z</time>
      </trkpt>
      <trkpt lat="41.814007" lon="0.741052">
        <ele>317.336</ele>
        <time>2020-08-23T06:27:36Z</time>
      </trkpt>
      <trkpt lat="41.814022" lon="0.740977">
        <ele>317.435</ele>
        <time>2020-08-23T06:27:38Z</time>
      </trkpt>
      <trkpt lat="41.814053" lon="0.740884">
        <ele>317.586</ele>
        <time>2020-08-23T06:27:40Z</time>
      </trkpt>
      <trkpt lat="41.814070" lon="0.740814">
        <ele>317.614</ele>
        <time>2020-08-23T06:27:42Z</time>
      </trkpt>
      <trkpt lat="41.814110" lon="0.740733">
        <ele>317.608</ele>
        <time>2020-08-23T06:27:44Z</time>
      </trkpt>
      <trkpt lat="41.814151" lon="0.740648">
        <ele>317.788</ele>
        <time>2020-08-23T06:27:46Z</time>
      </trkpt>
      <trkpt lat="41.814182" lon="0.740560">
        <ele>317.868</ele>
        <time>2020-08-23T06:27:48Z</time>
      </trkpt>
      <trkpt lat="41.814208" lon="0.740466">
        <ele>317.976</ele>
        <time>2020-08-23T06:27:50Z</time>
      </trkpt>
      <trkpt lat="41.814248" lon="0.740347">
        <ele>318.068</ele>
        <time>2020-08-23T06:27:52Z</time>
      </trkpt>
      <trkpt lat="41.814262" lon="0.740287">
        <ele>318.149</ele>
        <time>2020-08-23T06:27:53Z</time>
      </trkpt>
      <trkpt lat="41.814272" lon="0.740184">
        <ele>318.240</ele>
        <time>2020-08-23T06:27:55Z</time>
      </trkpt>
      <trkpt lat="41.814288" lon="0.740084">
        <ele>318.386</ele>
        <time>2020-08-23T06:27:57Z</time>
      </trkpt>
      <trkpt lat="41.814289" lon="0.739989">
        <ele>318.555</ele>
        <time>2020-08-23T06:27:59Z</time>
      </trkpt>
      <trkpt lat="41.814298" lon="0.739903">
        <ele>318.742</ele>
        <time>2020-08-23T06:28:01Z</time>
      </trkpt>
      <trkpt lat="41.814315" lon="0.739817">
        <ele>318.922</ele>
        <time>2020-08-23T06:28:03Z</time>
      </trkpt>
      <trkpt lat="41.814336" lon="0.739726">
        <ele>319.114</ele>
        <time>2020-08-23T06:28:05Z</time>
      </trkpt>
      <trkpt lat="41.814347" lon="0.739637">
        <ele>319.208</ele>
        <time>2020-08-23T06:28:07Z</time>
      </trkpt>
      <trkpt lat="41.814371" lon="0.739544">
        <ele>319.559</ele>
        <time>2020-08-23T06:28:09Z</time>
      </trkpt>
      <trkpt lat="41.814400" lon="0.739467">
        <ele>319.899</ele>
        <time>2020-08-23T06:28:11Z</time>
      </trkpt>
      <trkpt lat="41.814420" lon="0.739412">
        <ele>320.237</ele>
        <time>2020-08-23T06:28:13Z</time>
      </trkpt>
      <trkpt lat="41.814438" lon="0.739329">
        <ele>320.999</ele>
        <time>2020-08-23T06:28:16Z</time>
      </trkpt>
      <trkpt lat="41.814460" lon="0.739255">
        <ele>321.250</ele>
        <time>2020-08-23T06:28:18Z</time>
      </trkpt>
      <trkpt lat="41.814488" lon="0.739204">
        <ele>321.511</ele>
        <time>2020-08-23T06:28:20Z</time>
      </trkpt>
      <trkpt lat="41.814522" lon="0.739152">
        <ele>321.797</ele>
        <time>2020-08-23T06:28:22Z</time>
      </trkpt>
      <trkpt lat="41.814571" lon="0.739094">
        <ele>321.866</ele>
        <time>2020-08-23T06:28:24Z</time>
      </trkpt>
      <trkpt lat="41.814617" lon="0.739039">
        <ele>321.961</ele>
        <time>2020-08-23T06:28:26Z</time>
      </trkpt>
      <trkpt lat="41.814647" lon="0.738968">
        <ele>322.121</ele>
        <time>2020-08-23T06:28:29Z</time>
      </trkpt>
      <trkpt lat="41.814704" lon="0.738942">
        <ele>322.213</ele>
        <time>2020-08-23T06:28:31Z</time>
      </trkpt>
      <trkpt lat="41.814772" lon="0.738891">
        <ele>322.408</ele>
        <time>2020-08-23T06:28:33Z</time>
      </trkpt>
      <trkpt lat="41.814837" lon="0.738844">
        <ele>322.771</ele>
        <time>2020-08-23T06:28:35Z</time>
      </trkpt>
      <trkpt lat="41.814888" lon="0.738804">
        <ele>323.031</ele>
        <time>2020-08-23T06:28:37Z</time>
      </trkpt>
      <trkpt lat="41.814947" lon="0.738778">
        <ele>323.329</ele>
        <time>2020-08-23T06:28:39Z</time>
      </trkpt>
      <trkpt lat="41.815002" lon="0.738713">
        <ele>323.581</ele>
        <time>2020-08-23T06:28:41Z</time>
      </trkpt>
      <trkpt lat="41.815042" lon="0.738681">
        <ele>323.782</ele>
        <time>2020-08-23T06:28:43Z</time>
      </trkpt>
      <trkpt lat="41.815094" lon="0.738647">
        <ele>323.853</ele>
        <time>2020-08-23T06:28:45Z</time>
      </trkpt>
      <trkpt lat="41.815129" lon="0.738597">
        <ele>324.089</ele>
        <time>2020-08-23T06:28:47Z</time>
      </trkpt>
      <trkpt lat="41.815147" lon="0.738523">
        <ele>324.458</ele>
        <time>2020-08-23T06:28:49Z</time>
      </trkpt>
      <trkpt lat="41.815157" lon="0.738450">
        <ele>324.672</ele>
        <time>2020-08-23T06:28:51Z</time>
      </trkpt>
      <trkpt lat="41.815171" lon="0.738360">
        <ele>324.813</ele>
        <time>2020-08-23T06:28:53Z</time>
      </trkpt>
      <trkpt lat="41.815189" lon="0.738284">
        <ele>325.014</ele>
        <time>2020-08-23T06:28:55Z</time>
      </trkpt>
      <trkpt lat="41.815205" lon="0.738196">
        <ele>325.208</ele>
        <time>2020-08-23T06:28:57Z</time>
      </trkpt>
      <trkpt lat="41.815222" lon="0.738108">
        <ele>325.312</ele>
        <time>2020-08-23T06:28:59Z</time>
      </trkpt>
      <trkpt lat="41.815245" lon="0.738024">
        <ele>325.462</ele>
        <time>2020-08-23T06:29:01Z</time>
      </trkpt>
      <trkpt lat="41.815274" lon="0.737954">
        <ele>325.510</ele>
        <time>2020-08-23T06:29:03Z</time>
      </trkpt>
      <trkpt lat="41.815292" lon="0.737873">
        <ele>325.712</ele>
        <time>2020-08-23T06:29:05Z</time>
      </trkpt>
      <trkpt lat="41.815311" lon="0.737790">
        <ele>325.883</ele>
        <time>2020-08-23T06:29:07Z</time>
      </trkpt>
      <trkpt lat="41.815337" lon="0.737715">
        <ele>325.974</ele>
        <time>2020-08-23T06:29:09Z</time>
      </trkpt>
      <trkpt lat="41.815345" lon="0.737652">
        <ele>326.080</ele>
        <time>2020-08-23T06:29:11Z</time>
      </trkpt>
      <trkpt lat="41.815365" lon="0.737578">
        <ele>326.119</ele>
        <time>2020-08-23T06:29:13Z</time>
      </trkpt>
      <trkpt lat="41.815378" lon="0.737516">
        <ele>326.228</ele>
        <time>2020-08-23T06:29:15Z</time>
      </trkpt>
      <trkpt lat="41.815369" lon="0.737432">
        <ele>326.389</ele>
        <time>2020-08-23T06:29:17Z</time>
      </trkpt>
      <trkpt lat="41.815370" lon="0.737344">
        <ele>326.417</ele>
        <time>2020-08-23T06:29:19Z</time>
      </trkpt>
      <trkpt lat="41.815377" lon="0.737242">
        <ele>326.508</ele>
        <time>2020-08-23T06:29:21Z</time>
      </trkpt>
      <trkpt lat="41.815371" lon="0.737181">
        <ele>326.547</ele>
        <time>2020-08-23T06:29:22Z</time>
      </trkpt>
      <trkpt lat="41.815370" lon="0.737083">
        <ele>326.487</ele>
        <time>2020-08-23T06:29:24Z</time>
      </trkpt>
      <trkpt lat="41.815372" lon="0.737007">
        <ele>326.585</ele>
        <time>2020-08-23T06:29:26Z</time>
      </trkpt>
      <trkpt lat="41.815362" lon="0.736932">
        <ele>326.067</ele>
        <time>2020-08-23T06:29:28Z</time>
      </trkpt>
      <trkpt lat="41.815372" lon="0.736843">
        <ele>326.158</ele>
        <time>2020-08-23T06:29:30Z</time>
      </trkpt>
      <trkpt lat="41.815369" lon="0.736776">
        <ele>326.889</ele>
        <time>2020-08-23T06:29:32Z</time>
      </trkpt>
      <trkpt lat="41.815380" lon="0.736708">
        <ele>327.625</ele>
        <time>2020-08-23T06:29:34Z</time>
      </trkpt>
      <trkpt lat="41.815395" lon="0.736633">
        <ele>327.684</ele>
        <time>2020-08-23T06:29:36Z</time>
      </trkpt>
      <trkpt lat="41.815409" lon="0.736557">
        <ele>327.632</ele>
        <time>2020-08-23T06:29:38Z</time>
      </trkpt>
      <trkpt lat="41.815426" lon="0.736487">
        <ele>327.892</ele>
        <time>2020-08-23T06:29:40Z</time>
      </trkpt>
      <trkpt lat="41.815438" lon="0.736400">
        <ele>327.911</ele>
        <time>2020-08-23T06:29:43Z</time>
      </trkpt>
      <trkpt lat="41.815450" lon="0.736328">
        <ele>328.108</ele>
        <time>2020-08-23T06:29:46Z</time>
      </trkpt>
      <trkpt lat="41.815454" lon="0.736265">
        <ele>328.548</ele>
        <time>2020-08-23T06:29:48Z</time>
      </trkpt>
      <trkpt lat="41.815476" lon="0.736196">
        <ele>329.348</ele>
        <time>2020-08-23T06:29:51Z</time>
      </trkpt>
      <trkpt lat="41.815516" lon="0.736123">
        <ele>329.966</ele>
        <time>2020-08-23T06:29:54Z</time>
      </trkpt>
      <trkpt lat="41.815545" lon="0.736075">
        <ele>330.478</ele>
        <time>2020-08-23T06:29:56Z</time>
      </trkpt>
      <trkpt lat="41.815592" lon="0.736032">
        <ele>330.989</ele>
        <time>2020-08-23T06:29:59Z</time>
      </trkpt>
      <trkpt lat="41.815630" lon="0.735974">
        <ele>331.120</ele>
        <time>2020-08-23T06:30:02Z</time>
      </trkpt>
      <trkpt lat="41.815655" lon="0.735897">
        <ele>330.946</ele>
        <time>2020-08-23T06:30:36Z</time>
      </trkpt>
      <trkpt lat="41.815681" lon="0.735818">
        <ele>330.975</ele>
        <time>2020-08-23T06:30:38Z</time>
      </trkpt>
      <trkpt lat="41.815713" lon="0.735730">
        <ele>330.999</ele>
        <time>2020-08-23T06:30:40Z</time>
      </trkpt>
      <trkpt lat="41.815752" lon="0.735649">
        <ele>330.907</ele>
        <time>2020-08-23T06:30:42Z</time>
      </trkpt>
      <trkpt lat="41.815795" lon="0.735568">
        <ele>330.927</ele>
        <time>2020-08-23T06:30:44Z</time>
      </trkpt>
      <trkpt lat="41.815821" lon="0.735473">
        <ele>331.008</ele>
        <time>2020-08-23T06:30:46Z</time>
      </trkpt>
      <trkpt lat="41.815835" lon="0.735367">
        <ele>331.184</ele>
        <time>2020-08-23T06:30:48Z</time>
      </trkpt>
      <trkpt lat="41.815861" lon="0.735270">
        <ele>331.064</ele>
        <time>2020-08-23T06:30:50Z</time>
      </trkpt>
      <trkpt lat="41.815896" lon="0.735161">
        <ele>330.962</ele>
        <time>2020-08-23T06:30:52Z</time>
      </trkpt>
      <trkpt lat="41.815925" lon="0.735068">
        <ele>330.934</ele>
        <time>2020-08-23T06:30:54Z</time>
      </trkpt>
      <trkpt lat="41.815962" lon="0.734957">
        <ele>330.815</ele>
        <time>2020-08-23T06:30:56Z</time>
      </trkpt>
      <trkpt lat="41.815979" lon="0.734894">
        <ele>330.776</ele>
        <time>2020-08-23T06:30:57Z</time>
      </trkpt>
      <trkpt lat="41.815992" lon="0.734828">
        <ele>330.632</ele>
        <time>2020-08-23T06:30:58Z</time>
      </trkpt>
      <trkpt lat="41.816002" lon="0.734761">
        <ele>330.591</ele>
        <time>2020-08-23T06:30:59Z</time>
      </trkpt>
      <trkpt lat="41.816011" lon="0.734691">
        <ele>330.489</ele>
        <time>2020-08-23T06:31:00Z</time>
      </trkpt>
      <trkpt lat="41.816023" lon="0.734615">
        <ele>330.306</ele>
        <time>2020-08-23T06:31:01Z</time>
      </trkpt>
      <trkpt lat="41.816032" lon="0.734531">
        <ele>330.226</ele>
        <time>2020-08-23T06:31:02Z</time>
      </trkpt>
      <trkpt lat="41.816040" lon="0.734442">
        <ele>330.008</ele>
        <time>2020-08-23T06:31:03Z</time>
      </trkpt>
      <trkpt lat="41.816056" lon="0.734353">
        <ele>329.783</ele>
        <time>2020-08-23T06:31:04Z</time>
      </trkpt>
      <trkpt lat="41.816068" lon="0.734265">
        <ele>329.573</ele>
        <time>2020-08-23T06:31:05Z</time>
      </trkpt>
      <trkpt lat="41.816082" lon="0.734189">
        <ele>329.351</ele>
        <time>2020-08-23T06:31:06Z</time>
      </trkpt>
      <trkpt lat="41.816097" lon="0.734112">
        <ele>329.123</ele>
        <time>2020-08-23T06:31:07Z</time>
      </trkpt>
      <trkpt lat="41.816110" lon="0.734038">
        <ele>328.984</ele>
        <time>2020-08-23T06:31:08Z</time>
      </trkpt>
      <trkpt lat="41.816122" lon="0.733961">
        <ele>328.685</ele>
        <time>2020-08-23T06:31:09Z</time>
      </trkpt>
      <trkpt lat="41.816133" lon="0.733884">
        <ele>328.341</ele>
        <time>2020-08-23T06:31:10Z</time>
      </trkpt>
      <trkpt lat="41.816143" lon="0.733796">
        <ele>328.110</ele>
        <time>2020-08-23T06:31:11Z</time>
      </trkpt>
      <trkpt lat="41.816152" lon="0.733703">
        <ele>327.879</ele>
        <time>2020-08-23T06:31:12Z</time>
      </trkpt>
      <trkpt lat="41.816166" lon="0.733611">
        <ele>327.505</ele>
        <time>2020-08-23T06:31:13Z</time>
      </trkpt>
      <trkpt lat="41.816183" lon="0.733514">
        <ele>327.325</ele>
        <time>2020-08-23T06:31:14Z</time>
      </trkpt>
      <trkpt lat="41.816199" lon="0.733416">
        <ele>327.008</ele>
        <time>2020-08-23T06:31:14Z</time>
      </trkpt>
      <trkpt lat="41.816216" lon="0.733318">
        <ele>326.762</ele>
        <time>2020-08-23T06:31:15Z</time>
      </trkpt>
      <trkpt lat="41.816232" lon="0.733218">
        <ele>326.472</ele>
        <time>2020-08-23T06:31:16Z</time>
      </trkpt>
      <trkpt lat="41.816248" lon="0.733112">
        <ele>326.130</ele>
        <time>2020-08-23T06:31:17Z</time>
      </trkpt>
      <trkpt lat="41.816262" lon="0.733010">
        <ele>325.862</ele>
        <time>2020-08-23T06:31:18Z</time>
      </trkpt>
      <trkpt lat="41.816272" lon="0.732909">
        <ele>325.593</ele>
        <time>2020-08-23T06:31:19Z</time>
      </trkpt>
      <trkpt lat="41.816285" lon="0.732810">
        <ele>324.964</ele>
        <time>2020-08-23T06:31:20Z</time>
      </trkpt>
      <trkpt lat="41.816298" lon="0.732708">
        <ele>324.730</ele>
        <time>2020-08-23T06:31:21Z</time>
      </trkpt>
      <trkpt lat="41.816318" lon="0.732604">
        <ele>324.519</ele>
        <time>2020-08-23T06:31:22Z</time>
      </trkpt>
      <trkpt lat="41.816343" lon="0.732506">
        <ele>324.329</ele>
        <time>2020-08-23T06:31:23Z</time>
      </trkpt>
      <trkpt lat="41.816366" lon="0.732414">
        <ele>324.100</ele>
        <time>2020-08-23T06:31:24Z</time>
      </trkpt>
      <trkpt lat="41.816390" lon="0.732319">
        <ele>323.920</ele>
        <time>2020-08-23T06:31:25Z</time>
      </trkpt>
      <trkpt lat="41.816423" lon="0.732228">
        <ele>323.608</ele>
        <time>2020-08-23T06:31:26Z</time>
      </trkpt>
      <trkpt lat="41.816460" lon="0.732138">
        <ele>323.367</ele>
        <time>2020-08-23T06:31:27Z</time>
      </trkpt>
      <trkpt lat="41.816502" lon="0.732046">
        <ele>323.097</ele>
        <time>2020-08-23T06:31:28Z</time>
      </trkpt>
      <trkpt lat="41.816544" lon="0.731950">
        <ele>322.775</ele>
        <time>2020-08-23T06:31:29Z</time>
      </trkpt>
      <trkpt lat="41.816591" lon="0.731864">
        <ele>322.467</ele>
        <time>2020-08-23T06:31:30Z</time>
      </trkpt>
      <trkpt lat="41.816639" lon="0.731782">
        <ele>322.168</ele>
        <time>2020-08-23T06:31:31Z</time>
      </trkpt>
      <trkpt lat="41.816692" lon="0.731705">
        <ele>321.839</ele>
        <time>2020-08-23T06:31:32Z</time>
      </trkpt>
      <trkpt lat="41.816746" lon="0.731631">
        <ele>321.555</ele>
        <time>2020-08-23T06:31:33Z</time>
      </trkpt>
      <trkpt lat="41.816797" lon="0.731556">
        <ele>321.344</ele>
        <time>2020-08-23T06:31:34Z</time>
      </trkpt>
      <trkpt lat="41.816848" lon="0.731479">
        <ele>321.129</ele>
        <time>2020-08-23T06:31:35Z</time>
      </trkpt>
      <trkpt lat="41.816899" lon="0.731397">
        <ele>320.900</ele>
        <time>2020-08-23T06:31:36Z</time>
      </trkpt>
      <trkpt lat="41.816955" lon="0.731324">
        <ele>320.520</ele>
        <time>2020-08-23T06:31:37Z</time>
      </trkpt>
      <trkpt lat="41.817009" lon="0.731250">
        <ele>320.308</ele>
        <time>2020-08-23T06:31:38Z</time>
      </trkpt>
      <trkpt lat="41.817057" lon="0.731164">
        <ele>320.197</ele>
        <time>2020-08-23T06:31:39Z</time>
      </trkpt>
      <trkpt lat="41.817106" lon="0.731081">
        <ele>319.957</ele>
        <time>2020-08-23T06:31:40Z</time>
      </trkpt>
      <trkpt lat="41.817152" lon="0.730999">
        <ele>319.715</ele>
        <time>2020-08-23T06:31:41Z</time>
      </trkpt>
      <trkpt lat="41.817200" lon="0.730917">
        <ele>319.557</ele>
        <time>2020-08-23T06:31:42Z</time>
      </trkpt>
      <trkpt lat="41.817247" lon="0.730833">
        <ele>319.428</ele>
        <time>2020-08-23T06:31:43Z</time>
      </trkpt>
      <trkpt lat="41.817293" lon="0.730754">
        <ele>319.399</ele>
        <time>2020-08-23T06:31:44Z</time>
      </trkpt>
      <trkpt lat="41.817338" lon="0.730675">
        <ele>319.275</ele>
        <time>2020-08-23T06:31:45Z</time>
      </trkpt>
      <trkpt lat="41.817387" lon="0.730599">
        <ele>319.164</ele>
        <time>2020-08-23T06:31:46Z</time>
      </trkpt>
      <trkpt lat="41.817437" lon="0.730523">
        <ele>319.065</ele>
        <time>2020-08-23T06:31:47Z</time>
      </trkpt>
      <trkpt lat="41.817482" lon="0.730443">
        <ele>318.968</ele>
        <time>2020-08-23T06:31:48Z</time>
      </trkpt>
      <trkpt lat="41.817531" lon="0.730373">
        <ele>318.914</ele>
        <time>2020-08-23T06:31:49Z</time>
      </trkpt>
      <trkpt lat="41.817574" lon="0.730302">
        <ele>318.908</ele>
        <time>2020-08-23T06:31:50Z</time>
      </trkpt>
      <trkpt lat="41.817613" lon="0.730227">
        <ele>318.921</ele>
        <time>2020-08-23T06:31:51Z</time>
      </trkpt>
      <trkpt lat="41.817646" lon="0.730145">
        <ele>318.961</ele>
        <time>2020-08-23T06:31:52Z</time>
      </trkpt>
      <trkpt lat="41.817672" lon="0.730060">
        <ele>318.719</ele>
        <time>2020-08-23T06:31:53Z</time>
      </trkpt>
      <trkpt lat="41.817698" lon="0.729976">
        <ele>318.611</ele>
        <time>2020-08-23T06:31:54Z</time>
      </trkpt>
      <trkpt lat="41.817726" lon="0.729895">
        <ele>318.462</ele>
        <time>2020-08-23T06:31:55Z</time>
      </trkpt>
      <trkpt lat="41.817741" lon="0.729811">
        <ele>318.473</ele>
        <time>2020-08-23T06:31:56Z</time>
      </trkpt>
      <trkpt lat="41.817750" lon="0.729724">
        <ele>318.249</ele>
        <time>2020-08-23T06:31:57Z</time>
      </trkpt>
      <trkpt lat="41.817756" lon="0.729637">
        <ele>318.178</ele>
        <time>2020-08-23T06:31:58Z</time>
      </trkpt>
      <trkpt lat="41.817752" lon="0.729549">
        <ele>318.147</ele>
        <time>2020-08-23T06:31:59Z</time>
      </trkpt>
      <trkpt lat="41.817754" lon="0.729464">
        <ele>318.129</ele>
        <time>2020-08-23T06:32:00Z</time>
      </trkpt>
      <trkpt lat="41.817756" lon="0.729382">
        <ele>318.221</ele>
        <time>2020-08-23T06:32:01Z</time>
      </trkpt>
      <trkpt lat="41.817750" lon="0.729300">
        <ele>318.208</ele>
        <time>2020-08-23T06:32:02Z</time>
      </trkpt>
      <trkpt lat="41.817748" lon="0.729217">
        <ele>318.169</ele>
        <time>2020-08-23T06:32:03Z</time>
      </trkpt>
      <trkpt lat="41.817744" lon="0.729135">
        <ele>318.169</ele>
        <time>2020-08-23T06:32:04Z</time>
      </trkpt>
      <trkpt lat="41.817740" lon="0.729055">
        <ele>318.167</ele>
        <time>2020-08-23T06:32:05Z</time>
      </trkpt>
      <trkpt lat="41.817728" lon="0.728978">
        <ele>318.099</ele>
        <time>2020-08-23T06:32:06Z</time>
      </trkpt>
      <trkpt lat="41.817719" lon="0.728901">
        <ele>317.960</ele>
        <time>2020-08-23T06:32:07Z</time>
      </trkpt>
      <trkpt lat="41.817715" lon="0.728822">
        <ele>317.991</ele>
        <time>2020-08-23T06:32:08Z</time>
      </trkpt>
      <trkpt lat="41.817713" lon="0.728739">
        <ele>317.877</ele>
        <time>2020-08-23T06:32:09Z</time>
      </trkpt>
      <trkpt lat="41.817708" lon="0.728657">
        <ele>317.726</ele>
        <time>2020-08-23T06:32:10Z</time>
      </trkpt>
      <trkpt lat="41.817696" lon="0.728580">
        <ele>317.764</ele>
        <time>2020-08-23T06:32:11Z</time>
      </trkpt>
      <trkpt lat="41.817681" lon="0.728506">
        <ele>317.706</ele>
        <time>2020-08-23T06:32:12Z</time>
      </trkpt>
      <trkpt lat="41.817665" lon="0.728441">
        <ele>317.716</ele>
        <time>2020-08-23T06:32:13Z</time>
      </trkpt>
      <trkpt lat="41.817647" lon="0.728385">
        <ele>317.808</ele>
        <time>2020-08-23T06:32:14Z</time>
      </trkpt>
      <trkpt lat="41.817609" lon="0.728282">
        <ele>317.941</ele>
        <time>2020-08-23T06:32:16Z</time>
      </trkpt>
      <trkpt lat="41.817564" lon="0.728213">
        <ele>317.961</ele>
        <time>2020-08-23T06:32:18Z</time>
      </trkpt>
      <trkpt lat="41.817587" lon="0.728147">
        <ele>317.859</ele>
        <time>2020-08-23T06:32:22Z</time>
      </trkpt>
      <trkpt lat="41.817649" lon="0.728147">
        <ele>317.621</ele>
        <time>2020-08-23T06:32:24Z</time>
      </trkpt>
      <trkpt lat="41.817726" lon="0.728135">
        <ele>317.512</ele>
        <time>2020-08-23T06:32:26Z</time>
      </trkpt>
      <trkpt lat="41.817796" lon="0.728128">
        <ele>317.653</ele>
        <time>2020-08-23T06:32:28Z</time>
      </trkpt>
      <trkpt lat="41.817870" lon="0.728132">
        <ele>317.789</ele>
        <time>2020-08-23T06:32:30Z</time>
      </trkpt>
      <trkpt lat="41.817939" lon="0.728143">
        <ele>317.858</ele>
        <time>2020-08-23T06:32:32Z</time>
      </trkpt>
      <trkpt lat="41.817999" lon="0.728156">
        <ele>317.975</ele>
        <time>2020-08-23T06:32:34Z</time>
      </trkpt>
      <trkpt lat="41.818065" lon="0.728163">
        <ele>317.928</ele>
        <time>2020-08-23T06:32:36Z</time>
      </trkpt>
      <trkpt lat="41.818141" lon="0.728172">
        <ele>318.020</ele>
        <time>2020-08-23T06:32:38Z</time>
      </trkpt>
      <trkpt lat="41.818196" lon="0.728156">
        <ele>318.108</ele>
        <time>2020-08-23T06:32:40Z</time>
      </trkpt>
      <trkpt lat="41.818242" lon="0.728111">
        <ele>318.192</ele>
        <time>2020-08-23T06:32:44Z</time>
      </trkpt>
      <trkpt lat="41.818233" lon="0.728029">
        <ele>318.442</ele>
        <time>2020-08-23T06:32:46Z</time>
      </trkpt>
      <trkpt lat="41.818232" lon="0.727965">
        <ele>318.730</ele>
        <time>2020-08-23T06:32:48Z</time>
      </trkpt>
      <trkpt lat="41.818225" lon="0.727894">
        <ele>319.062</ele>
        <time>2020-08-23T06:32:50Z</time>
      </trkpt>
      <trkpt lat="41.818213" lon="0.727823">
        <ele>319.313</ele>
        <time>2020-08-23T06:32:52Z</time>
      </trkpt>
      <trkpt lat="41.818217" lon="0.727755">
        <ele>319.554</ele>
        <time>2020-08-23T06:32:54Z</time>
      </trkpt>
      <trkpt lat="41.818217" lon="0.727687">
        <ele>319.720</ele>
        <time>2020-08-23T06:32:57Z</time>
      </trkpt>
      <trkpt lat="41.818156" lon="0.727625">
        <ele>319.929</ele>
        <time>2020-08-23T06:33:00Z</time>
      </trkpt>
      <trkpt lat="41.818100" lon="0.727614">
        <ele>320.128</ele>
        <time>2020-08-23T06:33:02Z</time>
      </trkpt>
      <trkpt lat="41.818040" lon="0.727572">
        <ele>320.289</ele>
        <time>2020-08-23T06:33:04Z</time>
      </trkpt>
      <trkpt lat="41.817985" lon="0.727537">
        <ele>320.417</ele>
        <time>2020-08-23T06:33:06Z</time>
      </trkpt>
      <trkpt lat="41.817932" lon="0.727511">
        <ele>320.608</ele>
        <time>2020-08-23T06:33:08Z</time>
      </trkpt>
      <trkpt lat="41.817874" lon="0.727499">
        <ele>320.857</ele>
        <time>2020-08-23T06:33:10Z</time>
      </trkpt>
      <trkpt lat="41.817822" lon="0.727438">
        <ele>321.037</ele>
        <time>2020-08-23T06:33:12Z</time>
      </trkpt>
      <trkpt lat="41.817783" lon="0.727401">
        <ele>321.335</ele>
        <time>2020-08-23T06:33:14Z</time>
      </trkpt>
      <trkpt lat="41.817727" lon="0.727393">
        <ele>321.677</ele>
        <time>2020-08-23T06:33:16Z</time>
      </trkpt>
      <trkpt lat="41.817677" lon="0.727349">
        <ele>321.968</ele>
        <time>2020-08-23T06:33:18Z</time>
      </trkpt>
      <trkpt lat="41.817632" lon="0.727292">
        <ele>322.449</ele>
        <time>2020-08-23T06:33:20Z</time>
      </trkpt>
      <trkpt lat="41.817614" lon="0.727204">
        <ele>323.035</ele>
        <time>2020-08-23T06:33:23Z</time>
      </trkpt>
      <trkpt lat="41.817618" lon="0.727140">
        <ele>323.454</ele>
        <time>2020-08-23T06:33:25Z</time>
      </trkpt>
      <trkpt lat="41.817612" lon="0.727053">
        <ele>324.224</ele>
        <time>2020-08-23T06:33:28Z</time>
      </trkpt>
      <trkpt lat="41.817600" lon="0.726988">
        <ele>324.704</ele>
        <time>2020-08-23T06:33:30Z</time>
      </trkpt>
      <trkpt lat="41.817594" lon="0.726927">
        <ele>325.114</ele>
        <time>2020-08-23T06:33:32Z</time>
      </trkpt>
      <trkpt lat="41.817569" lon="0.726843">
        <ele>325.908</ele>
        <time>2020-08-23T06:33:36Z</time>
      </trkpt>
      <trkpt lat="41.817562" lon="0.726775">
        <ele>326.537</ele>
        <time>2020-08-23T06:33:38Z</time>
      </trkpt>
      <trkpt lat="41.817560" lon="0.726711">
        <ele>326.987</ele>
        <time>2020-08-23T06:33:40Z</time>
      </trkpt>
      <trkpt lat="41.817562" lon="0.726620">
        <ele>327.585</ele>
        <time>2020-08-23T06:33:43Z</time>
      </trkpt>
      <trkpt lat="41.817560" lon="0.726526">
        <ele>328.167</ele>
        <time>2020-08-23T06:33:46Z</time>
      </trkpt>
      <trkpt lat="41.817549" lon="0.726464">
        <ele>328.448</ele>
        <time>2020-08-23T06:33:48Z</time>
      </trkpt>
      <trkpt lat="41.817548" lon="0.726392">
        <ele>328.929</ele>
        <time>2020-08-23T06:33:51Z</time>
      </trkpt>
      <trkpt lat="41.817543" lon="0.726324">
        <ele>329.565</ele>
        <time>2020-08-23T06:33:54Z</time>
      </trkpt>
      <trkpt lat="41.817533" lon="0.726242">
        <ele>329.964</ele>
        <time>2020-08-23T06:33:57Z</time>
      </trkpt>
      <trkpt lat="41.817534" lon="0.726157">
        <ele>330.333</ele>
        <time>2020-08-23T06:34:00Z</time>
      </trkpt>
      <trkpt lat="41.817529" lon="0.726070">
        <ele>330.723</ele>
        <time>2020-08-23T06:34:03Z</time>
      </trkpt>
      <trkpt lat="41.817516" lon="0.725993">
        <ele>331.015</ele>
        <time>2020-08-23T06:34:06Z</time>
      </trkpt>
      <trkpt lat="41.817511" lon="0.725907">
        <ele>331.408</ele>
        <time>2020-08-23T06:34:09Z</time>
      </trkpt>
      <trkpt lat="41.817507" lon="0.725828">
        <ele>331.938</ele>
        <time>2020-08-23T06:34:12Z</time>
      </trkpt>
      <trkpt lat="41.817508" lon="0.725741">
        <ele>332.278</ele>
        <time>2020-08-23T06:34:15Z</time>
      </trkpt>
      <trkpt lat="41.817506" lon="0.725678">
        <ele>332.436</ele>
        <time>2020-08-23T06:34:17Z</time>
      </trkpt>
      <trkpt lat="41.817508" lon="0.725616">
        <ele>332.788</ele>
        <time>2020-08-23T06:34:19Z</time>
      </trkpt>
      <trkpt lat="41.817505" lon="0.725556">
        <ele>333.019</ele>
        <time>2020-08-23T06:34:21Z</time>
      </trkpt>
      <trkpt lat="41.817503" lon="0.725486">
        <ele>333.250</ele>
        <time>2020-08-23T06:34:23Z</time>
      </trkpt>
      <trkpt lat="41.817498" lon="0.725420">
        <ele>333.526</ele>
        <time>2020-08-23T06:34:25Z</time>
      </trkpt>
      <trkpt lat="41.817490" lon="0.725360">
        <ele>333.895</ele>
        <time>2020-08-23T06:34:27Z</time>
      </trkpt>
      <trkpt lat="41.817465" lon="0.725283">
        <ele>334.472</ele>
        <time>2020-08-23T06:34:30Z</time>
      </trkpt>
      <trkpt lat="41.817465" lon="0.725205">
        <ele>334.813</ele>
        <time>2020-08-23T06:34:33Z</time>
      </trkpt>
      <trkpt lat="41.817457" lon="0.725129">
        <ele>335.214</ele>
        <time>2020-08-23T06:34:36Z</time>
      </trkpt>
      <trkpt lat="41.817453" lon="0.725043">
        <ele>335.608</ele>
        <time>2020-08-23T06:34:39Z</time>
      </trkpt>
      <trkpt lat="41.817442" lon="0.724960">
        <ele>335.972</ele>
        <time>2020-08-23T06:34:42Z</time>
      </trkpt>
      <trkpt lat="41.817392" lon="0.724906">
        <ele>336.172</ele>
        <time>2020-08-23T06:34:45Z</time>
      </trkpt>
      <trkpt lat="41.817327" lon="0.724873">
        <ele>336.280</ele>
        <time>2020-08-23T06:34:48Z</time>
      </trkpt>
      <trkpt lat="41.817284" lon="0.724843">
        <ele>336.332</ele>
        <time>2020-08-23T06:34:50Z</time>
      </trkpt>
      <trkpt lat="41.817244" lon="0.724809">
        <ele>336.653</ele>
        <time>2020-08-23T06:34:52Z</time>
      </trkpt>
      <trkpt lat="41.817200" lon="0.724752">
        <ele>336.944</ele>
        <time>2020-08-23T06:34:54Z</time>
      </trkpt>
      <trkpt lat="41.817172" lon="0.724693">
        <ele>337.280</ele>
        <time>2020-08-23T06:34:56Z</time>
      </trkpt>
      <trkpt lat="41.817149" lon="0.724638">
        <ele>337.499</ele>
        <time>2020-08-23T06:34:58Z</time>
      </trkpt>
      <trkpt lat="41.817128" lon="0.724575">
        <ele>337.631</ele>
        <time>2020-08-23T06:35:00Z</time>
      </trkpt>
      <trkpt lat="41.817108" lon="0.724510">
        <ele>337.861</ele>
        <time>2020-08-23T06:35:02Z</time>
      </trkpt>
      <trkpt lat="41.817098" lon="0.724449">
        <ele>338.107</ele>
        <time>2020-08-23T06:35:04Z</time>
      </trkpt>
      <trkpt lat="41.817081" lon="0.724370">
        <ele>338.508</ele>
        <time>2020-08-23T06:35:07Z</time>
      </trkpt>
      <trkpt lat="41.817071" lon="0.724297">
        <ele>338.988</ele>
        <time>2020-08-23T06:35:10Z</time>
      </trkpt>
      <trkpt lat="41.817059" lon="0.724226">
        <ele>339.348</ele>
        <time>2020-08-23T06:35:13Z</time>
      </trkpt>
      <trkpt lat="41.817034" lon="0.724171">
        <ele>339.736</ele>
        <time>2020-08-23T06:35:16Z</time>
      </trkpt>
      <trkpt lat="41.817018" lon="0.724101">
        <ele>340.138</ele>
        <time>2020-08-23T06:35:19Z</time>
      </trkpt>
      <trkpt lat="41.816997" lon="0.724027">
        <ele>340.739</ele>
        <time>2020-08-23T06:35:22Z</time>
      </trkpt>
      <trkpt lat="41.816973" lon="0.723955">
        <ele>341.430</ele>
        <time>2020-08-23T06:35:25Z</time>
      </trkpt>
      <trkpt lat="41.816941" lon="0.723888">
        <ele>342.396</ele>
        <time>2020-08-23T06:35:29Z</time>
      </trkpt>
      <trkpt lat="41.816917" lon="0.723808">
        <ele>342.465</ele>
        <time>2020-08-23T06:35:32Z</time>
      </trkpt>
      <trkpt lat="41.816894" lon="0.723738">
        <ele>342.364</ele>
        <time>2020-08-23T06:35:34Z</time>
      </trkpt>
      <trkpt lat="41.816866" lon="0.723677">
        <ele>342.306</ele>
        <time>2020-08-23T06:35:36Z</time>
      </trkpt>
      <trkpt lat="41.816835" lon="0.723627">
        <ele>342.416</ele>
        <time>2020-08-23T06:35:38Z</time>
      </trkpt>
      <trkpt lat="41.816817" lon="0.723569">
        <ele>342.508</ele>
        <time>2020-08-23T06:35:43Z</time>
      </trkpt>
      <trkpt lat="41.816787" lon="0.723514">
        <ele>342.451</ele>
        <time>2020-08-23T06:36:04Z</time>
      </trkpt>
      <trkpt lat="41.816749" lon="0.723437">
        <ele>342.561</ele>
        <time>2020-08-23T06:36:07Z</time>
      </trkpt>
      <trkpt lat="41.816700" lon="0.723374">
        <ele>342.519</ele>
        <time>2020-08-23T06:36:09Z</time>
      </trkpt>
      <trkpt lat="41.816657" lon="0.723308">
        <ele>342.481</ele>
        <time>2020-08-23T06:36:11Z</time>
      </trkpt>
      <trkpt lat="41.816611" lon="0.723244">
        <ele>342.452</ele>
        <time>2020-08-23T06:36:13Z</time>
      </trkpt>
      <trkpt lat="41.816558" lon="0.723175">
        <ele>342.373</ele>
        <time>2020-08-23T06:36:15Z</time>
      </trkpt>
      <trkpt lat="41.816500" lon="0.723104">
        <ele>342.269</ele>
        <time>2020-08-23T06:36:17Z</time>
      </trkpt>
      <trkpt lat="41.816449" lon="0.723025">
        <ele>342.138</ele>
        <time>2020-08-23T06:36:19Z</time>
      </trkpt>
      <trkpt lat="41.816400" lon="0.722935">
        <ele>342.085</ele>
        <time>2020-08-23T06:36:21Z</time>
      </trkpt>
      <trkpt lat="41.816376" lon="0.722883">
        <ele>341.989</ele>
        <time>2020-08-23T06:36:22Z</time>
      </trkpt>
      <trkpt lat="41.816354" lon="0.722830">
        <ele>341.817</ele>
        <time>2020-08-23T06:36:23Z</time>
      </trkpt>
      <trkpt lat="41.816315" lon="0.722722">
        <ele>341.708</ele>
        <time>2020-08-23T06:36:25Z</time>
      </trkpt>
      <trkpt lat="41.816278" lon="0.722613">
        <ele>341.673</ele>
        <time>2020-08-23T06:36:27Z</time>
      </trkpt>
      <trkpt lat="41.816258" lon="0.722555">
        <ele>341.653</ele>
        <time>2020-08-23T06:36:28Z</time>
      </trkpt>
      <trkpt lat="41.816241" lon="0.722490">
        <ele>341.621</ele>
        <time>2020-08-23T06:36:29Z</time>
      </trkpt>
      <trkpt lat="41.816226" lon="0.722430">
        <ele>341.693</ele>
        <time>2020-08-23T06:36:30Z</time>
      </trkpt>
      <trkpt lat="41.816204" lon="0.722371">
        <ele>341.684</ele>
        <time>2020-08-23T06:36:31Z</time>
      </trkpt>
      <trkpt lat="41.816165" lon="0.722271">
        <ele>341.615</ele>
        <time>2020-08-23T06:36:33Z</time>
      </trkpt>
      <trkpt lat="41.816129" lon="0.722175">
        <ele>341.671</ele>
        <time>2020-08-23T06:36:35Z</time>
      </trkpt>
      <trkpt lat="41.816091" lon="0.722067">
        <ele>341.650</ele>
        <time>2020-08-23T06:36:37Z</time>
      </trkpt>
      <trkpt lat="41.816058" lon="0.721968">
        <ele>341.634</ele>
        <time>2020-08-23T06:36:39Z</time>
      </trkpt>
      <trkpt lat="41.816016" lon="0.721868">
        <ele>341.555</ele>
        <time>2020-08-23T06:36:41Z</time>
      </trkpt>
      <trkpt lat="41.815991" lon="0.721818">
        <ele>341.510</ele>
        <time>2020-08-23T06:36:42Z</time>
      </trkpt>
      <trkpt lat="41.815964" lon="0.721768">
        <ele>341.408</ele>
        <time>2020-08-23T06:36:43Z</time>
      </trkpt>
      <trkpt lat="41.815929" lon="0.721716">
        <ele>341.458</ele>
        <time>2020-08-23T06:36:44Z</time>
      </trkpt>
      <trkpt lat="41.815907" lon="0.721660">
        <ele>341.488</ele>
        <time>2020-08-23T06:36:45Z</time>
      </trkpt>
      <trkpt lat="41.815880" lon="0.721604">
        <ele>341.436</ele>
        <time>2020-08-23T06:36:46Z</time>
      </trkpt>
      <trkpt lat="41.815855" lon="0.721553">
        <ele>341.498</ele>
        <time>2020-08-23T06:36:47Z</time>
      </trkpt>
      <trkpt lat="41.815830" lon="0.721497">
        <ele>341.419</ele>
        <time>2020-08-23T06:36:48Z</time>
      </trkpt>
      <trkpt lat="41.815807" lon="0.721445">
        <ele>341.410</ele>
        <time>2020-08-23T06:36:49Z</time>
      </trkpt>
      <trkpt lat="41.815784" lon="0.721386">
        <ele>341.426</ele>
        <time>2020-08-23T06:36:50Z</time>
      </trkpt>
      <trkpt lat="41.815764" lon="0.721330">
        <ele>341.425</ele>
        <time>2020-08-23T06:36:51Z</time>
      </trkpt>
      <trkpt lat="41.815743" lon="0.721276">
        <ele>341.423</ele>
        <time>2020-08-23T06:36:52Z</time>
      </trkpt>
      <trkpt lat="41.815714" lon="0.721222">
        <ele>341.483</ele>
        <time>2020-08-23T06:36:53Z</time>
      </trkpt>
      <trkpt lat="41.815681" lon="0.721158">
        <ele>341.411</ele>
        <time>2020-08-23T06:36:54Z</time>
      </trkpt>
      <trkpt lat="41.815652" lon="0.721104">
        <ele>341.408</ele>
        <time>2020-08-23T06:36:55Z</time>
      </trkpt>
      <trkpt lat="41.815624" lon="0.721048">
        <ele>341.417</ele>
        <time>2020-08-23T06:36:56Z</time>
      </trkpt>
      <trkpt lat="41.815593" lon="0.720989">
        <ele>341.467</ele>
        <time>2020-08-23T06:36:57Z</time>
      </trkpt>
      <trkpt lat="41.815572" lon="0.720933">
        <ele>341.425</ele>
        <time>2020-08-23T06:36:58Z</time>
      </trkpt>
      <trkpt lat="41.815550" lon="0.720875">
        <ele>341.447</ele>
        <time>2020-08-23T06:36:59Z</time>
      </trkpt>
      <trkpt lat="41.815530" lon="0.720819">
        <ele>341.488</ele>
        <time>2020-08-23T06:37:00Z</time>
      </trkpt>
      <trkpt lat="41.815510" lon="0.720756">
        <ele>341.459</ele>
        <time>2020-08-23T06:37:01Z</time>
      </trkpt>
      <trkpt lat="41.815490" lon="0.720698">
        <ele>341.475</ele>
        <time>2020-08-23T06:37:02Z</time>
      </trkpt>
      <trkpt lat="41.815473" lon="0.720641">
        <ele>341.424</ele>
        <time>2020-08-23T06:37:03Z</time>
      </trkpt>
      <trkpt lat="41.815434" lon="0.720537">
        <ele>341.433</ele>
        <time>2020-08-23T06:37:05Z</time>
      </trkpt>
      <trkpt lat="41.815409" lon="0.720486">
        <ele>341.423</ele>
        <time>2020-08-23T06:37:06Z</time>
      </trkpt>
      <trkpt lat="41.815388" lon="0.720429">
        <ele>341.315</ele>
        <time>2020-08-23T06:37:07Z</time>
      </trkpt>
      <trkpt lat="41.815367" lon="0.720371">
        <ele>341.208</ele>
        <time>2020-08-23T06:37:08Z</time>
      </trkpt>
      <trkpt lat="41.815344" lon="0.720311">
        <ele>341.198</ele>
        <time>2020-08-23T06:37:09Z</time>
      </trkpt>
      <trkpt lat="41.815307" lon="0.720193">
        <ele>340.948</ele>
        <time>2020-08-23T06:37:11Z</time>
      </trkpt>
      <trkpt lat="41.815280" lon="0.720124">
        <ele>340.786</ele>
        <time>2020-08-23T06:37:12Z</time>
      </trkpt>
      <trkpt lat="41.815259" lon="0.720054">
        <ele>340.688</ele>
        <time>2020-08-23T06:37:13Z</time>
      </trkpt>
      <trkpt lat="41.815234" lon="0.719991">
        <ele>340.559</ele>
        <time>2020-08-23T06:37:14Z</time>
      </trkpt>
      <trkpt lat="41.815209" lon="0.719931">
        <ele>340.340</ele>
        <time>2020-08-23T06:37:15Z</time>
      </trkpt>
      <trkpt lat="41.815192" lon="0.719865">
        <ele>340.156</ele>
        <time>2020-08-23T06:37:16Z</time>
      </trkpt>
      <trkpt lat="41.815167" lon="0.719801">
        <ele>339.925</ele>
        <time>2020-08-23T06:37:17Z</time>
      </trkpt>
      <trkpt lat="41.815140" lon="0.719737">
        <ele>339.743</ele>
        <time>2020-08-23T06:37:18Z</time>
      </trkpt>
      <trkpt lat="41.815112" lon="0.719675">
        <ele>339.564</ele>
        <time>2020-08-23T06:37:19Z</time>
      </trkpt>
      <trkpt lat="41.815085" lon="0.719619">
        <ele>339.410</ele>
        <time>2020-08-23T06:37:20Z</time>
      </trkpt>
      <trkpt lat="41.815056" lon="0.719561">
        <ele>339.308</ele>
        <time>2020-08-23T06:37:21Z</time>
      </trkpt>
      <trkpt lat="41.815027" lon="0.719511">
        <ele>339.269</ele>
        <time>2020-08-23T06:37:22Z</time>
      </trkpt>
      <trkpt lat="41.814997" lon="0.719465">
        <ele>339.159</ele>
        <time>2020-08-23T06:37:23Z</time>
      </trkpt>
      <trkpt lat="41.814963" lon="0.719422">
        <ele>339.177</ele>
        <time>2020-08-23T06:37:24Z</time>
      </trkpt>
      <trkpt lat="41.814922" lon="0.719374">
        <ele>339.199</ele>
        <time>2020-08-23T06:37:25Z</time>
      </trkpt>
      <trkpt lat="41.814886" lon="0.719333">
        <ele>339.150</ele>
        <time>2020-08-23T06:37:26Z</time>
      </trkpt>
      <trkpt lat="41.814849" lon="0.719279">
        <ele>339.161</ele>
        <time>2020-08-23T06:37:27Z</time>
      </trkpt>
      <trkpt lat="41.814813" lon="0.719224">
        <ele>339.137</ele>
        <time>2020-08-23T06:37:28Z</time>
      </trkpt>
      <trkpt lat="41.814776" lon="0.719167">
        <ele>339.116</ele>
        <time>2020-08-23T06:37:29Z</time>
      </trkpt>
      <trkpt lat="41.814735" lon="0.719118">
        <ele>339.137</ele>
        <time>2020-08-23T06:37:30Z</time>
      </trkpt>
      <trkpt lat="41.814694" lon="0.719062">
        <ele>339.149</ele>
        <time>2020-08-23T06:37:31Z</time>
      </trkpt>
      <trkpt lat="41.814657" lon="0.719014">
        <ele>339.113</ele>
        <time>2020-08-23T06:37:32Z</time>
      </trkpt>
      <trkpt lat="41.814619" lon="0.718962">
        <ele>339.108</ele>
        <time>2020-08-23T06:37:33Z</time>
      </trkpt>
      <trkpt lat="41.814585" lon="0.718913">
        <ele>339.158</ele>
        <time>2020-08-23T06:37:34Z</time>
      </trkpt>
      <trkpt lat="41.814524" lon="0.718827">
        <ele>339.118</ele>
        <time>2020-08-23T06:37:36Z</time>
      </trkpt>
      <trkpt lat="41.814492" lon="0.718783">
        <ele>339.176</ele>
        <time>2020-08-23T06:37:37Z</time>
      </trkpt>
      <trkpt lat="41.814461" lon="0.718735">
        <ele>339.158</ele>
        <time>2020-08-23T06:37:38Z</time>
      </trkpt>
      <trkpt lat="41.814429" lon="0.718687">
        <ele>339.199</ele>
        <time>2020-08-23T06:37:39Z</time>
      </trkpt>
      <trkpt lat="41.814400" lon="0.718635">
        <ele>339.190</ele>
        <time>2020-08-23T06:37:40Z</time>
      </trkpt>
      <trkpt lat="41.814371" lon="0.718576">
        <ele>339.166</ele>
        <time>2020-08-23T06:37:41Z</time>
      </trkpt>
      <trkpt lat="41.814343" lon="0.718517">
        <ele>339.145</ele>
        <time>2020-08-23T06:37:42Z</time>
      </trkpt>
      <trkpt lat="41.814313" lon="0.718470">
        <ele>339.133</ele>
        <time>2020-08-23T06:37:43Z</time>
      </trkpt>
      <trkpt lat="41.814283" lon="0.718420">
        <ele>339.123</ele>
        <time>2020-08-23T06:37:44Z</time>
      </trkpt>
      <trkpt lat="41.814255" lon="0.718370">
        <ele>339.115</ele>
        <time>2020-08-23T06:37:45Z</time>
      </trkpt>
      <trkpt lat="41.814225" lon="0.718320">
        <ele>339.108</ele>
        <time>2020-08-23T06:37:46Z</time>
      </trkpt>
      <trkpt lat="41.814173" lon="0.718224">
        <ele>339.198</ele>
        <time>2020-08-23T06:37:48Z</time>
      </trkpt>
      <trkpt lat="41.814138" lon="0.718178">
        <ele>339.188</ele>
        <time>2020-08-23T06:37:49Z</time>
      </trkpt>
      <trkpt lat="41.814103" lon="0.718127">
        <ele>339.146</ele>
        <time>2020-08-23T06:37:50Z</time>
      </trkpt>
      <trkpt lat="41.814070" lon="0.718080">
        <ele>339.158</ele>
        <time>2020-08-23T06:37:51Z</time>
      </trkpt>
      <trkpt lat="41.814037" lon="0.718032">
        <ele>339.199</ele>
        <time>2020-08-23T06:37:52Z</time>
      </trkpt>
      <trkpt lat="41.814005" lon="0.717978">
        <ele>339.170</ele>
        <time>2020-08-23T06:37:53Z</time>
      </trkpt>
      <trkpt lat="41.813974" lon="0.717932">
        <ele>339.126</ele>
        <time>2020-08-23T06:37:54Z</time>
      </trkpt>
      <trkpt lat="41.813916" lon="0.717836">
        <ele>339.115</ele>
        <time>2020-08-23T06:37:56Z</time>
      </trkpt>
      <trkpt lat="41.813891" lon="0.717719">
        <ele>339.216</ele>
        <time>2020-08-23T06:37:58Z</time>
      </trkpt>
      <trkpt lat="41.813886" lon="0.717651">
        <ele>339.376</ele>
        <time>2020-08-23T06:37:59Z</time>
      </trkpt>
      <trkpt lat="41.813883" lon="0.717585">
        <ele>339.413</ele>
        <time>2020-08-23T06:38:00Z</time>
      </trkpt>
      <trkpt lat="41.813889" lon="0.717517">
        <ele>339.408</ele>
        <time>2020-08-23T06:38:01Z</time>
      </trkpt>
      <trkpt lat="41.813900" lon="0.717445">
        <ele>339.446</ele>
        <time>2020-08-23T06:38:02Z</time>
      </trkpt>
      <trkpt lat="41.813905" lon="0.717378">
        <ele>339.496</ele>
        <time>2020-08-23T06:38:03Z</time>
      </trkpt>
      <trkpt lat="41.813905" lon="0.717309">
        <ele>339.424</ele>
        <time>2020-08-23T06:38:04Z</time>
      </trkpt>
      <trkpt lat="41.813897" lon="0.717245">
        <ele>339.496</ele>
        <time>2020-08-23T06:38:05Z</time>
      </trkpt>
      <trkpt lat="41.813875" lon="0.717146">
        <ele>339.587</ele>
        <time>2020-08-23T06:38:07Z</time>
      </trkpt>
      <trkpt lat="41.813856" lon="0.717042">
        <ele>339.598</ele>
        <time>2020-08-23T06:38:09Z</time>
      </trkpt>
      <trkpt lat="41.813838" lon="0.716937">
        <ele>339.574</ele>
        <time>2020-08-23T06:38:11Z</time>
      </trkpt>
      <trkpt lat="41.813814" lon="0.716830">
        <ele>339.443</ele>
        <time>2020-08-23T06:38:13Z</time>
      </trkpt>
      <trkpt lat="41.813798" lon="0.716751">
        <ele>339.445</ele>
        <time>2020-08-23T06:38:14Z</time>
      </trkpt>
      <trkpt lat="41.813784" lon="0.716680">
        <ele>339.347</ele>
        <time>2020-08-23T06:38:15Z</time>
      </trkpt>
      <trkpt lat="41.813774" lon="0.716616">
        <ele>339.311</ele>
        <time>2020-08-23T06:38:16Z</time>
      </trkpt>
      <trkpt lat="41.813767" lon="0.716551">
        <ele>339.208</ele>
        <time>2020-08-23T06:38:17Z</time>
      </trkpt>
      <trkpt lat="41.813779" lon="0.716429">
        <ele>339.269</ele>
        <time>2020-08-23T06:38:19Z</time>
      </trkpt>
      <trkpt lat="41.813792" lon="0.716369">
        <ele>339.289</ele>
        <time>2020-08-23T06:38:20Z</time>
      </trkpt>
      <trkpt lat="41.813828" lon="0.716263">
        <ele>339.467</ele>
        <time>2020-08-23T06:38:22Z</time>
      </trkpt>
      <trkpt lat="41.813845" lon="0.716207">
        <ele>339.589</ele>
        <time>2020-08-23T06:38:23Z</time>
      </trkpt>
      <trkpt lat="41.813860" lon="0.716147">
        <ele>339.650</ele>
        <time>2020-08-23T06:38:24Z</time>
      </trkpt>
      <trkpt lat="41.813889" lon="0.716041">
        <ele>339.621</ele>
        <time>2020-08-23T06:38:26Z</time>
      </trkpt>
      <trkpt lat="41.813914" lon="0.715947">
        <ele>339.637</ele>
        <time>2020-08-23T06:38:28Z</time>
      </trkpt>
      <trkpt lat="41.813934" lon="0.715838">
        <ele>339.666</ele>
        <time>2020-08-23T06:38:30Z</time>
      </trkpt>
      <trkpt lat="41.813939" lon="0.715722">
        <ele>339.622</ele>
        <time>2020-08-23T06:38:32Z</time>
      </trkpt>
      <trkpt lat="41.813936" lon="0.715605">
        <ele>339.662</ele>
        <time>2020-08-23T06:38:34Z</time>
      </trkpt>
      <trkpt lat="41.813927" lon="0.715493">
        <ele>339.608</ele>
        <time>2020-08-23T06:38:36Z</time>
      </trkpt>
      <trkpt lat="41.813904" lon="0.715382">
        <ele>339.508</ele>
        <time>2020-08-23T06:38:38Z</time>
      </trkpt>
      <trkpt lat="41.813889" lon="0.715324">
        <ele>339.537</ele>
        <time>2020-08-23T06:38:39Z</time>
      </trkpt>
      <trkpt lat="41.813872" lon="0.715263">
        <ele>339.587</ele>
        <time>2020-08-23T06:38:40Z</time>
      </trkpt>
      <trkpt lat="41.813858" lon="0.715196">
        <ele>339.565</ele>
        <time>2020-08-23T06:38:41Z</time>
      </trkpt>
      <trkpt lat="41.813843" lon="0.715134">
        <ele>339.577</ele>
        <time>2020-08-23T06:38:42Z</time>
      </trkpt>
      <trkpt lat="41.813828" lon="0.715075">
        <ele>339.618</ele>
        <time>2020-08-23T06:38:43Z</time>
      </trkpt>
      <trkpt lat="41.813811" lon="0.715017">
        <ele>339.759</ele>
        <time>2020-08-23T06:38:44Z</time>
      </trkpt>
      <trkpt lat="41.813783" lon="0.714902">
        <ele>339.845</ele>
        <time>2020-08-23T06:38:46Z</time>
      </trkpt>
      <trkpt lat="41.813769" lon="0.714843">
        <ele>339.864</ele>
        <time>2020-08-23T06:38:47Z</time>
      </trkpt>
      <trkpt lat="41.813753" lon="0.714784">
        <ele>339.914</ele>
        <time>2020-08-23T06:38:48Z</time>
      </trkpt>
      <trkpt lat="41.813739" lon="0.714724">
        <ele>339.954</ele>
        <time>2020-08-23T06:38:49Z</time>
      </trkpt>
      <trkpt lat="41.813723" lon="0.714664">
        <ele>339.909</ele>
        <time>2020-08-23T06:38:50Z</time>
      </trkpt>
      <trkpt lat="41.813707" lon="0.714600">
        <ele>339.908</ele>
        <time>2020-08-23T06:38:51Z</time>
      </trkpt>
      <trkpt lat="41.813692" lon="0.714542">
        <ele>339.976</ele>
        <time>2020-08-23T06:38:52Z</time>
      </trkpt>
      <trkpt lat="41.813677" lon="0.714482">
        <ele>339.966</ele>
        <time>2020-08-23T06:38:53Z</time>
      </trkpt>
      <trkpt lat="41.813663" lon="0.714418">
        <ele>339.974</ele>
        <time>2020-08-23T06:38:54Z</time>
      </trkpt>
      <trkpt lat="41.813651" lon="0.714354">
        <ele>339.996</ele>
        <time>2020-08-23T06:38:55Z</time>
      </trkpt>
      <trkpt lat="41.813637" lon="0.714296">
        <ele>339.967</ele>
        <time>2020-08-23T06:38:56Z</time>
      </trkpt>
      <trkpt lat="41.813627" lon="0.714235">
        <ele>339.948</ele>
        <time>2020-08-23T06:38:57Z</time>
      </trkpt>
      <trkpt lat="41.813616" lon="0.714170">
        <ele>339.994</ele>
        <time>2020-08-23T06:38:58Z</time>
      </trkpt>
      <trkpt lat="41.813603" lon="0.714100">
        <ele>339.973</ele>
        <time>2020-08-23T06:38:59Z</time>
      </trkpt>
      <trkpt lat="41.813589" lon="0.714031">
        <ele>339.953</ele>
        <time>2020-08-23T06:39:00Z</time>
      </trkpt>
      <trkpt lat="41.813573" lon="0.713972">
        <ele>339.904</ele>
        <time>2020-08-23T06:39:01Z</time>
      </trkpt>
      <trkpt lat="41.813557" lon="0.713911">
        <ele>339.914</ele>
        <time>2020-08-23T06:39:02Z</time>
      </trkpt>
      <trkpt lat="41.813532" lon="0.713798">
        <ele>339.908</ele>
        <time>2020-08-23T06:39:04Z</time>
      </trkpt>
      <trkpt lat="41.813515" lon="0.713689">
        <ele>339.810</ele>
        <time>2020-08-23T06:39:06Z</time>
      </trkpt>
      <trkpt lat="41.813504" lon="0.713626">
        <ele>339.870</ele>
        <time>2020-08-23T06:39:07Z</time>
      </trkpt>
      <trkpt lat="41.813479" lon="0.713512">
        <ele>339.888</ele>
        <time>2020-08-23T06:39:09Z</time>
      </trkpt>
      <trkpt lat="41.813461" lon="0.713453">
        <ele>339.970</ele>
        <time>2020-08-23T06:39:10Z</time>
      </trkpt>
      <trkpt lat="41.813443" lon="0.713396">
        <ele>340.071</ele>
        <time>2020-08-23T06:39:11Z</time>
      </trkpt>
      <trkpt lat="41.813422" lon="0.713338">
        <ele>340.122</ele>
        <time>2020-08-23T06:39:12Z</time>
      </trkpt>
      <trkpt lat="41.813404" lon="0.713283">
        <ele>340.228</ele>
        <time>2020-08-23T06:39:13Z</time>
      </trkpt>
      <trkpt lat="41.813366" lon="0.713187">
        <ele>340.497</ele>
        <time>2020-08-23T06:39:15Z</time>
      </trkpt>
      <trkpt lat="41.813317" lon="0.713093">
        <ele>340.636</ele>
        <time>2020-08-23T06:39:17Z</time>
      </trkpt>
      <trkpt lat="41.813291" lon="0.713038">
        <ele>340.617</ele>
        <time>2020-08-23T06:39:18Z</time>
      </trkpt>
      <trkpt lat="41.813266" lon="0.712972">
        <ele>340.618</ele>
        <time>2020-08-23T06:39:19Z</time>
      </trkpt>
      <trkpt lat="41.813237" lon="0.712905">
        <ele>340.508</ele>
        <time>2020-08-23T06:39:20Z</time>
      </trkpt>
      <trkpt lat="41.813200" lon="0.712840">
        <ele>340.438</ele>
        <time>2020-08-23T06:39:21Z</time>
      </trkpt>
      <trkpt lat="41.813166" lon="0.712777">
        <ele>340.248</ele>
        <time>2020-08-23T06:39:22Z</time>
      </trkpt>
      <trkpt lat="41.813137" lon="0.712712">
        <ele>340.016</ele>
        <time>2020-08-23T06:39:23Z</time>
      </trkpt>
      <trkpt lat="41.813110" lon="0.712647">
        <ele>339.848</ele>
        <time>2020-08-23T06:39:24Z</time>
      </trkpt>
      <trkpt lat="41.813082" lon="0.712587">
        <ele>339.619</ele>
        <time>2020-08-23T06:39:25Z</time>
      </trkpt>
      <trkpt lat="41.813058" lon="0.712529">
        <ele>339.390</ele>
        <time>2020-08-23T06:39:26Z</time>
      </trkpt>
      <trkpt lat="41.813036" lon="0.712471">
        <ele>339.196</ele>
        <time>2020-08-23T06:39:27Z</time>
      </trkpt>
      <trkpt lat="41.813017" lon="0.712409">
        <ele>338.645</ele>
        <time>2020-08-23T06:39:28Z</time>
      </trkpt>
      <trkpt lat="41.813002" lon="0.712336">
        <ele>338.343</ele>
        <time>2020-08-23T06:39:29Z</time>
      </trkpt>
      <trkpt lat="41.812986" lon="0.712265">
        <ele>338.164</ele>
        <time>2020-08-23T06:39:30Z</time>
      </trkpt>
      <trkpt lat="41.812968" lon="0.712193">
        <ele>337.910</ele>
        <time>2020-08-23T06:39:31Z</time>
      </trkpt>
      <trkpt lat="41.812950" lon="0.712125">
        <ele>337.808</ele>
        <time>2020-08-23T06:39:32Z</time>
      </trkpt>
      <trkpt lat="41.812927" lon="0.712053">
        <ele>337.629</ele>
        <time>2020-08-23T06:39:33Z</time>
      </trkpt>
      <trkpt lat="41.812904" lon="0.711975">
        <ele>337.529</ele>
        <time>2020-08-23T06:39:34Z</time>
      </trkpt>
      <trkpt lat="41.812887" lon="0.711898">
        <ele>337.487</ele>
        <time>2020-08-23T06:39:35Z</time>
      </trkpt>
      <trkpt lat="41.812871" lon="0.711828">
        <ele>337.299</ele>
        <time>2020-08-23T06:39:36Z</time>
      </trkpt>
      <trkpt lat="41.812852" lon="0.711750">
        <ele>337.010</ele>
        <time>2020-08-23T06:39:37Z</time>
      </trkpt>
      <trkpt lat="41.812833" lon="0.711675">
        <ele>336.821</ele>
        <time>2020-08-23T06:39:38Z</time>
      </trkpt>
      <trkpt lat="41.812813" lon="0.711603">
        <ele>336.697</ele>
        <time>2020-08-23T06:39:39Z</time>
      </trkpt>
      <trkpt lat="41.812794" lon="0.711532">
        <ele>336.596</ele>
        <time>2020-08-23T06:39:40Z</time>
      </trkpt>
      <trkpt lat="41.812773" lon="0.711456">
        <ele>336.491</ele>
        <time>2020-08-23T06:39:41Z</time>
      </trkpt>
      <trkpt lat="41.812753" lon="0.711388">
        <ele>336.381</ele>
        <time>2020-08-23T06:39:42Z</time>
      </trkpt>
      <trkpt lat="41.812731" lon="0.711322">
        <ele>336.219</ele>
        <time>2020-08-23T06:39:43Z</time>
      </trkpt>
      <trkpt lat="41.812708" lon="0.711257">
        <ele>336.108</ele>
        <time>2020-08-23T06:39:44Z</time>
      </trkpt>
      <trkpt lat="41.812681" lon="0.711196">
        <ele>335.924</ele>
        <time>2020-08-23T06:39:45Z</time>
      </trkpt>
      <trkpt lat="41.812652" lon="0.711134">
        <ele>335.814</ele>
        <time>2020-08-23T06:39:46Z</time>
      </trkpt>
      <trkpt lat="41.812624" lon="0.711077">
        <ele>335.722</ele>
        <time>2020-08-23T06:39:47Z</time>
      </trkpt>
      <trkpt lat="41.812594" lon="0.711017">
        <ele>335.644</ele>
        <time>2020-08-23T06:39:48Z</time>
      </trkpt>
      <trkpt lat="41.812561" lon="0.710957">
        <ele>335.515</ele>
        <time>2020-08-23T06:39:49Z</time>
      </trkpt>
      <trkpt lat="41.812531" lon="0.710896">
        <ele>335.476</ele>
        <time>2020-08-23T06:39:50Z</time>
      </trkpt>
      <trkpt lat="41.812505" lon="0.710835">
        <ele>335.332</ele>
        <time>2020-08-23T06:39:51Z</time>
      </trkpt>
      <trkpt lat="41.812479" lon="0.710770">
        <ele>335.221</ele>
        <time>2020-08-23T06:39:52Z</time>
      </trkpt>
      <trkpt lat="41.812452" lon="0.710708">
        <ele>335.185</ele>
        <time>2020-08-23T06:39:53Z</time>
      </trkpt>
      <trkpt lat="41.812421" lon="0.710647">
        <ele>335.089</ele>
        <time>2020-08-23T06:39:54Z</time>
      </trkpt>
      <trkpt lat="41.812390" lon="0.710581">
        <ele>334.917</ele>
        <time>2020-08-23T06:39:55Z</time>
      </trkpt>
      <trkpt lat="41.812360" lon="0.710515">
        <ele>334.808</ele>
        <time>2020-08-23T06:39:56Z</time>
      </trkpt>
      <trkpt lat="41.812334" lon="0.710457">
        <ele>334.783</ele>
        <time>2020-08-23T06:39:57Z</time>
      </trkpt>
      <trkpt lat="41.812309" lon="0.710395">
        <ele>334.683</ele>
        <time>2020-08-23T06:39:58Z</time>
      </trkpt>
      <trkpt lat="41.812292" lon="0.710334">
        <ele>334.541</ele>
        <time>2020-08-23T06:39:59Z</time>
      </trkpt>
      <trkpt lat="41.812270" lon="0.710267">
        <ele>334.593</ele>
        <time>2020-08-23T06:40:00Z</time>
      </trkpt>
      <trkpt lat="41.812244" lon="0.710213">
        <ele>334.484</ele>
        <time>2020-08-23T06:40:01Z</time>
      </trkpt>
      <trkpt lat="41.812219" lon="0.710162">
        <ele>334.455</ele>
        <time>2020-08-23T06:40:02Z</time>
      </trkpt>
      <trkpt lat="41.812162" lon="0.710064">
        <ele>334.281</ele>
        <time>2020-08-23T06:40:04Z</time>
      </trkpt>
      <trkpt lat="41.812133" lon="0.710003">
        <ele>334.110</ele>
        <time>2020-08-23T06:40:05Z</time>
      </trkpt>
      <trkpt lat="41.812100" lon="0.709948">
        <ele>334.143</ele>
        <time>2020-08-23T06:40:06Z</time>
      </trkpt>
      <trkpt lat="41.812075" lon="0.709891">
        <ele>334.064</ele>
        <time>2020-08-23T06:40:07Z</time>
      </trkpt>
      <trkpt lat="41.812050" lon="0.709823">
        <ele>334.010</ele>
        <time>2020-08-23T06:40:08Z</time>
      </trkpt>
      <trkpt lat="41.812020" lon="0.709761">
        <ele>334.008</ele>
        <time>2020-08-23T06:40:09Z</time>
      </trkpt>
      <trkpt lat="41.811994" lon="0.709698">
        <ele>334.099</ele>
        <time>2020-08-23T06:40:10Z</time>
      </trkpt>
      <trkpt lat="41.811973" lon="0.709632">
        <ele>334.069</ele>
        <time>2020-08-23T06:40:11Z</time>
      </trkpt>
      <trkpt lat="41.811947" lon="0.709570">
        <ele>334.077</ele>
        <time>2020-08-23T06:40:12Z</time>
      </trkpt>
      <trkpt lat="41.811928" lon="0.709502">
        <ele>334.049</ele>
        <time>2020-08-23T06:40:13Z</time>
      </trkpt>
      <trkpt lat="41.811918" lon="0.709437">
        <ele>334.060</ele>
        <time>2020-08-23T06:40:14Z</time>
      </trkpt>
      <trkpt lat="41.811903" lon="0.709371">
        <ele>334.041</ele>
        <time>2020-08-23T06:40:15Z</time>
      </trkpt>
      <trkpt lat="41.811889" lon="0.709297">
        <ele>334.087</ele>
        <time>2020-08-23T06:40:16Z</time>
      </trkpt>
      <trkpt lat="41.811876" lon="0.709228">
        <ele>334.066</ele>
        <time>2020-08-23T06:40:17Z</time>
      </trkpt>
      <trkpt lat="41.811862" lon="0.709163">
        <ele>334.198</ele>
        <time>2020-08-23T06:40:18Z</time>
      </trkpt>
      <trkpt lat="41.811846" lon="0.709040">
        <ele>334.215</ele>
        <time>2020-08-23T06:40:20Z</time>
      </trkpt>
      <trkpt lat="41.811833" lon="0.708942">
        <ele>334.426</ele>
        <time>2020-08-23T06:40:22Z</time>
      </trkpt>
      <trkpt lat="41.811819" lon="0.708834">
        <ele>334.408</ele>
        <time>2020-08-23T06:40:24Z</time>
      </trkpt>
      <trkpt lat="41.811811" lon="0.708716">
        <ele>334.414</ele>
        <time>2020-08-23T06:40:26Z</time>
      </trkpt>
      <trkpt lat="41.811811" lon="0.708648">
        <ele>334.444</ele>
        <time>2020-08-23T06:40:27Z</time>
      </trkpt>
      <trkpt lat="41.811813" lon="0.708573">
        <ele>334.472</ele>
        <time>2020-08-23T06:40:28Z</time>
      </trkpt>
      <trkpt lat="41.811816" lon="0.708501">
        <ele>334.424</ele>
        <time>2020-08-23T06:40:29Z</time>
      </trkpt>
      <trkpt lat="41.811821" lon="0.708434">
        <ele>334.455</ele>
        <time>2020-08-23T06:40:30Z</time>
      </trkpt>
      <trkpt lat="41.811821" lon="0.708364">
        <ele>334.486</ele>
        <time>2020-08-23T06:40:31Z</time>
      </trkpt>
      <trkpt lat="41.811826" lon="0.708294">
        <ele>334.452</ele>
        <time>2020-08-23T06:40:32Z</time>
      </trkpt>
      <trkpt lat="41.811826" lon="0.708226">
        <ele>334.491</ele>
        <time>2020-08-23T06:40:33Z</time>
      </trkpt>
      <trkpt lat="41.811823" lon="0.708153">
        <ele>334.452</ele>
        <time>2020-08-23T06:40:34Z</time>
      </trkpt>
      <trkpt lat="41.811819" lon="0.708078">
        <ele>334.453</ele>
        <time>2020-08-23T06:40:35Z</time>
      </trkpt>
      <trkpt lat="41.811813" lon="0.708006">
        <ele>334.408</ele>
        <time>2020-08-23T06:40:36Z</time>
      </trkpt>
      <trkpt lat="41.811802" lon="0.707934">
        <ele>334.408</ele>
        <time>2020-08-23T06:40:37Z</time>
      </trkpt>
      <trkpt lat="41.811793" lon="0.707869">
        <ele>334.470</ele>
        <time>2020-08-23T06:40:38Z</time>
      </trkpt>
      <trkpt lat="41.811787" lon="0.707807">
        <ele>334.510</ele>
        <time>2020-08-23T06:40:39Z</time>
      </trkpt>
      <trkpt lat="41.811782" lon="0.707746">
        <ele>334.618</ele>
        <time>2020-08-23T06:40:40Z</time>
      </trkpt>
      <trkpt lat="41.811783" lon="0.707676">
        <ele>334.730</ele>
        <time>2020-08-23T06:40:41Z</time>
      </trkpt>
      <trkpt lat="41.811785" lon="0.707609">
        <ele>334.751</ele>
        <time>2020-08-23T06:40:42Z</time>
      </trkpt>
      <trkpt lat="41.811789" lon="0.707537">
        <ele>334.732</ele>
        <time>2020-08-23T06:40:43Z</time>
      </trkpt>
      <trkpt lat="41.811795" lon="0.707472">
        <ele>334.778</ele>
        <time>2020-08-23T06:40:44Z</time>
      </trkpt>
      <trkpt lat="41.811807" lon="0.707406">
        <ele>334.787</ele>
        <time>2020-08-23T06:40:45Z</time>
      </trkpt>
      <trkpt lat="41.811822" lon="0.707335">
        <ele>334.748</ele>
        <time>2020-08-23T06:40:46Z</time>
      </trkpt>
      <trkpt lat="41.811843" lon="0.707276">
        <ele>334.761</ele>
        <time>2020-08-23T06:40:47Z</time>
      </trkpt>
      <trkpt lat="41.811864" lon="0.707218">
        <ele>334.817</ele>
        <time>2020-08-23T06:40:48Z</time>
      </trkpt>
      <trkpt lat="41.811882" lon="0.707156">
        <ele>334.808</ele>
        <time>2020-08-23T06:40:49Z</time>
      </trkpt>
      <trkpt lat="41.811901" lon="0.707097">
        <ele>334.819</ele>
        <time>2020-08-23T06:40:50Z</time>
      </trkpt>
      <trkpt lat="41.811917" lon="0.707036">
        <ele>334.999</ele>
        <time>2020-08-23T06:40:51Z</time>
      </trkpt>
      <trkpt lat="41.811938" lon="0.706976">
        <ele>334.997</ele>
        <time>2020-08-23T06:40:52Z</time>
      </trkpt>
      <trkpt lat="41.811955" lon="0.706905">
        <ele>334.929</ele>
        <time>2020-08-23T06:40:53Z</time>
      </trkpt>
      <trkpt lat="41.811977" lon="0.706835">
        <ele>334.990</ele>
        <time>2020-08-23T06:40:54Z</time>
      </trkpt>
      <trkpt lat="41.812003" lon="0.706769">
        <ele>334.921</ele>
        <time>2020-08-23T06:40:55Z</time>
      </trkpt>
      <trkpt lat="41.812029" lon="0.706705">
        <ele>334.987</ele>
        <time>2020-08-23T06:40:56Z</time>
      </trkpt>
      <trkpt lat="41.812054" lon="0.706642">
        <ele>334.916</ele>
        <time>2020-08-23T06:40:57Z</time>
      </trkpt>
      <trkpt lat="41.812079" lon="0.706580">
        <ele>335.061</ele>
        <time>2020-08-23T06:40:58Z</time>
      </trkpt>
      <trkpt lat="41.812103" lon="0.706526">
        <ele>335.121</ele>
        <time>2020-08-23T06:40:59Z</time>
      </trkpt>
      <trkpt lat="41.812133" lon="0.706471">
        <ele>335.213</ele>
        <time>2020-08-23T06:41:00Z</time>
      </trkpt>
      <trkpt lat="41.812171" lon="0.706372">
        <ele>335.308</ele>
        <time>2020-08-23T06:41:02Z</time>
      </trkpt>
      <trkpt lat="41.812205" lon="0.706281">
        <ele>335.451</ele>
        <time>2020-08-23T06:41:04Z</time>
      </trkpt>
      <trkpt lat="41.812225" lon="0.706224">
        <ele>335.581</ele>
        <time>2020-08-23T06:41:05Z</time>
      </trkpt>
      <trkpt lat="41.812252" lon="0.706134">
        <ele>335.749</ele>
        <time>2020-08-23T06:41:07Z</time>
      </trkpt>
      <trkpt lat="41.812289" lon="0.706046">
        <ele>335.911</ele>
        <time>2020-08-23T06:41:09Z</time>
      </trkpt>
      <trkpt lat="41.812315" lon="0.705965">
        <ele>336.192</ele>
        <time>2020-08-23T06:41:11Z</time>
      </trkpt>
      <trkpt lat="41.812342" lon="0.705902">
        <ele>336.343</ele>
        <time>2020-08-23T06:41:13Z</time>
      </trkpt>
      <trkpt lat="41.812378" lon="0.705830">
        <ele>336.779</ele>
        <time>2020-08-23T06:41:15Z</time>
      </trkpt>
      <trkpt lat="41.812409" lon="0.705750">
        <ele>337.048</ele>
        <time>2020-08-23T06:41:17Z</time>
      </trkpt>
      <trkpt lat="41.812450" lon="0.705669">
        <ele>337.428</ele>
        <time>2020-08-23T06:41:19Z</time>
      </trkpt>
      <trkpt lat="41.812491" lon="0.705607">
        <ele>337.989</ele>
        <time>2020-08-23T06:41:21Z</time>
      </trkpt>
      <trkpt lat="41.812521" lon="0.705533">
        <ele>338.317</ele>
        <time>2020-08-23T06:41:23Z</time>
      </trkpt>
      <trkpt lat="41.812549" lon="0.705452">
        <ele>338.708</ele>
        <time>2020-08-23T06:41:25Z</time>
      </trkpt>
      <trkpt lat="41.812569" lon="0.705385">
        <ele>339.017</ele>
        <time>2020-08-23T06:41:27Z</time>
      </trkpt>
      <trkpt lat="41.812602" lon="0.705315">
        <ele>339.317</ele>
        <time>2020-08-23T06:41:29Z</time>
      </trkpt>
      <trkpt lat="41.812636" lon="0.705243">
        <ele>339.525</ele>
        <time>2020-08-23T06:41:31Z</time>
      </trkpt>
      <trkpt lat="41.812675" lon="0.705170">
        <ele>339.937</ele>
        <time>2020-08-23T06:41:33Z</time>
      </trkpt>
      <trkpt lat="41.812721" lon="0.705109">
        <ele>340.228</ele>
        <time>2020-08-23T06:41:35Z</time>
      </trkpt>
      <trkpt lat="41.812764" lon="0.705070">
        <ele>340.559</ele>
        <time>2020-08-23T06:41:37Z</time>
      </trkpt>
      <trkpt lat="41.812812" lon="0.705023">
        <ele>340.895</ele>
        <time>2020-08-23T06:41:39Z</time>
      </trkpt>
      <trkpt lat="41.812865" lon="0.704943">
        <ele>341.064</ele>
        <time>2020-08-23T06:41:41Z</time>
      </trkpt>
      <trkpt lat="41.812910" lon="0.704871">
        <ele>341.131</ele>
        <time>2020-08-23T06:41:43Z</time>
      </trkpt>
      <trkpt lat="41.812946" lon="0.704823">
        <ele>341.061</ele>
        <time>2020-08-23T06:41:45Z</time>
      </trkpt>
      <trkpt lat="41.813001" lon="0.704756">
        <ele>340.907</ele>
        <time>2020-08-23T06:41:47Z</time>
      </trkpt>
      <trkpt lat="41.813072" lon="0.704694">
        <ele>340.808</ele>
        <time>2020-08-23T06:41:49Z</time>
      </trkpt>
      <trkpt lat="41.813135" lon="0.704649">
        <ele>340.888</ele>
        <time>2020-08-23T06:41:51Z</time>
      </trkpt>
      <trkpt lat="41.813186" lon="0.704594">
        <ele>340.868</ele>
        <time>2020-08-23T06:41:53Z</time>
      </trkpt>
      <trkpt lat="41.813229" lon="0.704551">
        <ele>340.846</ele>
        <time>2020-08-23T06:41:55Z</time>
      </trkpt>
      <trkpt lat="41.813275" lon="0.704493">
        <ele>340.848</ele>
        <time>2020-08-23T06:41:57Z</time>
      </trkpt>
      <trkpt lat="41.813329" lon="0.704418">
        <ele>340.899</ele>
        <time>2020-08-23T06:41:59Z</time>
      </trkpt>
      <trkpt lat="41.813386" lon="0.704338">
        <ele>340.840</ele>
        <time>2020-08-23T06:42:01Z</time>
      </trkpt>
      <trkpt lat="41.813440" lon="0.704251">
        <ele>340.856</ele>
        <time>2020-08-23T06:42:03Z</time>
      </trkpt>
      <trkpt lat="41.813465" lon="0.704201">
        <ele>340.875</ele>
        <time>2020-08-23T06:42:04Z</time>
      </trkpt>
      <trkpt lat="41.813492" lon="0.704139">
        <ele>340.872</ele>
        <time>2020-08-23T06:42:05Z</time>
      </trkpt>
      <trkpt lat="41.813522" lon="0.704083">
        <ele>340.813</ele>
        <time>2020-08-23T06:42:06Z</time>
      </trkpt>
      <trkpt lat="41.813552" lon="0.704026">
        <ele>340.814</ele>
        <time>2020-08-23T06:42:07Z</time>
      </trkpt>
      <trkpt lat="41.813594" lon="0.703942">
        <ele>340.908</ele>
        <time>2020-08-23T06:42:09Z</time>
      </trkpt>
      <trkpt lat="41.813631" lon="0.703843">
        <ele>341.052</ele>
        <time>2020-08-23T06:42:11Z</time>
      </trkpt>
      <trkpt lat="41.813662" lon="0.703725">
        <ele>341.182</ele>
        <time>2020-08-23T06:42:13Z</time>
      </trkpt>
      <trkpt lat="41.813688" lon="0.703622">
        <ele>341.280</ele>
        <time>2020-08-23T06:42:15Z</time>
      </trkpt>
      <trkpt lat="41.813710" lon="0.703545">
        <ele>341.342</ele>
        <time>2020-08-23T06:42:17Z</time>
      </trkpt>
      <trkpt lat="41.813736" lon="0.703458">
        <ele>341.473</ele>
        <time>2020-08-23T06:42:19Z</time>
      </trkpt>
      <trkpt lat="41.813761" lon="0.703372">
        <ele>341.664</ele>
        <time>2020-08-23T06:42:21Z</time>
      </trkpt>
      <trkpt lat="41.813793" lon="0.703287">
        <ele>341.820</ele>
        <time>2020-08-23T06:42:23Z</time>
      </trkpt>
      <trkpt lat="41.813841" lon="0.703217">
        <ele>342.039</ele>
        <time>2020-08-23T06:42:25Z</time>
      </trkpt>
      <trkpt lat="41.813891" lon="0.703163">
        <ele>342.288</ele>
        <time>2020-08-23T06:42:27Z</time>
      </trkpt>
      <trkpt lat="41.813950" lon="0.703101">
        <ele>342.424</ele>
        <time>2020-08-23T06:42:29Z</time>
      </trkpt>
      <trkpt lat="41.814007" lon="0.703037">
        <ele>342.526</ele>
        <time>2020-08-23T06:42:31Z</time>
      </trkpt>
      <trkpt lat="41.814054" lon="0.702977">
        <ele>342.708</ele>
        <time>2020-08-23T06:42:33Z</time>
      </trkpt>
      <trkpt lat="41.814088" lon="0.702901">
        <ele>342.973</ele>
        <time>2020-08-23T06:42:35Z</time>
      </trkpt>
      <trkpt lat="41.814132" lon="0.702844">
        <ele>343.253</ele>
        <time>2020-08-23T06:42:37Z</time>
      </trkpt>
      <trkpt lat="41.814168" lon="0.702785">
        <ele>343.531</ele>
        <time>2020-08-23T06:42:39Z</time>
      </trkpt>
      <trkpt lat="41.814190" lon="0.702725">
        <ele>343.963</ele>
        <time>2020-08-23T06:42:41Z</time>
      </trkpt>
      <trkpt lat="41.814217" lon="0.702674">
        <ele>344.484</ele>
        <time>2020-08-23T06:42:43Z</time>
      </trkpt>
      <trkpt lat="41.814242" lon="0.702588">
        <ele>345.145</ele>
        <time>2020-08-23T06:42:46Z</time>
      </trkpt>
      <trkpt lat="41.814274" lon="0.702543">
        <ele>345.551</ele>
        <time>2020-08-23T06:42:48Z</time>
      </trkpt>
      <trkpt lat="41.814314" lon="0.702476">
        <ele>346.120</ele>
        <time>2020-08-23T06:42:51Z</time>
      </trkpt>
      <trkpt lat="41.814342" lon="0.702421">
        <ele>346.537</ele>
        <time>2020-08-23T06:42:53Z</time>
      </trkpt>
      <trkpt lat="41.814369" lon="0.702364">
        <ele>346.849</ele>
        <time>2020-08-23T06:42:55Z</time>
      </trkpt>
      <trkpt lat="41.814385" lon="0.702274">
        <ele>347.213</ele>
        <time>2020-08-23T06:42:58Z</time>
      </trkpt>
      <trkpt lat="41.814401" lon="0.702207">
        <ele>347.308</ele>
        <time>2020-08-23T06:43:00Z</time>
      </trkpt>
      <trkpt lat="41.814410" lon="0.702120">
        <ele>347.328</ele>
        <time>2020-08-23T06:43:02Z</time>
      </trkpt>
      <trkpt lat="41.814421" lon="0.702028">
        <ele>347.158</ele>
        <time>2020-08-23T06:43:04Z</time>
      </trkpt>
      <trkpt lat="41.814423" lon="0.701925">
        <ele>347.096</ele>
        <time>2020-08-23T06:43:06Z</time>
      </trkpt>
      <trkpt lat="41.814423" lon="0.701833">
        <ele>347.028</ele>
        <time>2020-08-23T06:43:08Z</time>
      </trkpt>
      <trkpt lat="41.814395" lon="0.701748">
        <ele>347.189</ele>
        <time>2020-08-23T06:43:10Z</time>
      </trkpt>
      <trkpt lat="41.814368" lon="0.701669">
        <ele>347.210</ele>
        <time>2020-08-23T06:43:12Z</time>
      </trkpt>
      <trkpt lat="41.814336" lon="0.701596">
        <ele>347.376</ele>
        <time>2020-08-23T06:43:14Z</time>
      </trkpt>
      <trkpt lat="41.814305" lon="0.701531">
        <ele>347.435</ele>
        <time>2020-08-23T06:43:16Z</time>
      </trkpt>
      <trkpt lat="41.814270" lon="0.701489">
        <ele>347.573</ele>
        <time>2020-08-23T06:43:18Z</time>
      </trkpt>
      <trkpt lat="41.814231" lon="0.701451">
        <ele>347.685</ele>
        <time>2020-08-23T06:43:20Z</time>
      </trkpt>
      <trkpt lat="41.814167" lon="0.701431">
        <ele>347.313</ele>
        <time>2020-08-23T06:43:22Z</time>
      </trkpt>
      <trkpt lat="41.814083" lon="0.701427">
        <ele>346.908</ele>
        <time>2020-08-23T06:43:24Z</time>
      </trkpt>
      <trkpt lat="41.814034" lon="0.701424">
        <ele>346.722</ele>
        <time>2020-08-23T06:43:25Z</time>
      </trkpt>
      <trkpt lat="41.813961" lon="0.701435">
        <ele>346.622</ele>
        <time>2020-08-23T06:43:27Z</time>
      </trkpt>
      <trkpt lat="41.813882" lon="0.701450">
        <ele>346.680</ele>
        <time>2020-08-23T06:43:29Z</time>
      </trkpt>
      <trkpt lat="41.813796" lon="0.701488">
        <ele>346.562</ele>
        <time>2020-08-23T06:43:31Z</time>
      </trkpt>
      <trkpt lat="41.813753" lon="0.701509">
        <ele>346.523</ele>
        <time>2020-08-23T06:43:32Z</time>
      </trkpt>
      <trkpt lat="41.813675" lon="0.701536">
        <ele>346.444</ele>
        <time>2020-08-23T06:43:34Z</time>
      </trkpt>
      <trkpt lat="41.813622" lon="0.701529">
        <ele>346.460</ele>
        <time>2020-08-23T06:43:35Z</time>
      </trkpt>
      <trkpt lat="41.813570" lon="0.701513">
        <ele>346.429</ele>
        <time>2020-08-23T06:43:36Z</time>
      </trkpt>
      <trkpt lat="41.813514" lon="0.701492">
        <ele>346.372</ele>
        <time>2020-08-23T06:43:37Z</time>
      </trkpt>
      <trkpt lat="41.813471" lon="0.701454">
        <ele>346.213</ele>
        <time>2020-08-23T06:43:38Z</time>
      </trkpt>
      <trkpt lat="41.813413" lon="0.701415">
        <ele>346.014</ele>
        <time>2020-08-23T06:43:39Z</time>
      </trkpt>
      <trkpt lat="41.813364" lon="0.701370">
        <ele>345.908</ele>
        <time>2020-08-23T06:43:40Z</time>
      </trkpt>
      <trkpt lat="41.813324" lon="0.701323">
        <ele>345.812</ele>
        <time>2020-08-23T06:43:41Z</time>
      </trkpt>
      <trkpt lat="41.813286" lon="0.701280">
        <ele>345.792</ele>
        <time>2020-08-23T06:43:42Z</time>
      </trkpt>
      <trkpt lat="41.813255" lon="0.701223">
        <ele>345.650</ele>
        <time>2020-08-23T06:43:43Z</time>
      </trkpt>
      <trkpt lat="41.813218" lon="0.701184">
        <ele>345.512</ele>
        <time>2020-08-23T06:43:44Z</time>
      </trkpt>
      <trkpt lat="41.813176" lon="0.701151">
        <ele>345.433</ele>
        <time>2020-08-23T06:43:45Z</time>
      </trkpt>
      <trkpt lat="41.813100" lon="0.701106">
        <ele>345.214</ele>
        <time>2020-08-23T06:43:47Z</time>
      </trkpt>
      <trkpt lat="41.813026" lon="0.701081">
        <ele>345.090</ele>
        <time>2020-08-23T06:43:49Z</time>
      </trkpt>
      <trkpt lat="41.812936" lon="0.701044">
        <ele>345.089</ele>
        <time>2020-08-23T06:43:51Z</time>
      </trkpt>
      <trkpt lat="41.812898" lon="0.701008">
        <ele>345.029</ele>
        <time>2020-08-23T06:43:52Z</time>
      </trkpt>
      <trkpt lat="41.812854" lon="0.700981">
        <ele>345.000</ele>
        <time>2020-08-23T06:43:53Z</time>
      </trkpt>
      <trkpt lat="41.812806" lon="0.700952">
        <ele>345.020</ele>
        <time>2020-08-23T06:43:54Z</time>
      </trkpt>
      <trkpt lat="41.812754" lon="0.700926">
        <ele>345.008</ele>
        <time>2020-08-23T06:43:55Z</time>
      </trkpt>
      <trkpt lat="41.812700" lon="0.700897">
        <ele>344.997</ele>
        <time>2020-08-23T06:43:56Z</time>
      </trkpt>
      <trkpt lat="41.812650" lon="0.700872">
        <ele>344.877</ele>
        <time>2020-08-23T06:43:57Z</time>
      </trkpt>
      <trkpt lat="41.812599" lon="0.700848">
        <ele>344.885</ele>
        <time>2020-08-23T06:43:58Z</time>
      </trkpt>
      <trkpt lat="41.812545" lon="0.700827">
        <ele>344.737</ele>
        <time>2020-08-23T06:43:59Z</time>
      </trkpt>
      <trkpt lat="41.812493" lon="0.700798">
        <ele>344.678</ele>
        <time>2020-08-23T06:44:00Z</time>
      </trkpt>
      <trkpt lat="41.812444" lon="0.700773">
        <ele>344.639</ele>
        <time>2020-08-23T06:44:01Z</time>
      </trkpt>
      <trkpt lat="41.812400" lon="0.700739">
        <ele>344.595</ele>
        <time>2020-08-23T06:44:02Z</time>
      </trkpt>
      <trkpt lat="41.812355" lon="0.700711">
        <ele>344.464</ele>
        <time>2020-08-23T06:44:03Z</time>
      </trkpt>
      <trkpt lat="41.812312" lon="0.700673">
        <ele>344.478</ele>
        <time>2020-08-23T06:44:04Z</time>
      </trkpt>
      <trkpt lat="41.812277" lon="0.700610">
        <ele>344.333</ele>
        <time>2020-08-23T06:44:05Z</time>
      </trkpt>
      <trkpt lat="41.812240" lon="0.700561">
        <ele>344.226</ele>
        <time>2020-08-23T06:44:06Z</time>
      </trkpt>
      <trkpt lat="41.812205" lon="0.700506">
        <ele>344.108</ele>
        <time>2020-08-23T06:44:07Z</time>
      </trkpt>
      <trkpt lat="41.812174" lon="0.700441">
        <ele>344.052</ele>
        <time>2020-08-23T06:44:08Z</time>
      </trkpt>
      <trkpt lat="41.812143" lon="0.700379">
        <ele>343.982</ele>
        <time>2020-08-23T06:44:09Z</time>
      </trkpt>
      <trkpt lat="41.812110" lon="0.700318">
        <ele>343.830</ele>
        <time>2020-08-23T06:44:10Z</time>
      </trkpt>
      <trkpt lat="41.812084" lon="0.700263">
        <ele>343.842</ele>
        <time>2020-08-23T06:44:11Z</time>
      </trkpt>
      <trkpt lat="41.812058" lon="0.700213">
        <ele>343.713</ele>
        <time>2020-08-23T06:44:12Z</time>
      </trkpt>
      <trkpt lat="41.812034" lon="0.700150">
        <ele>343.664</ele>
        <time>2020-08-23T06:44:13Z</time>
      </trkpt>
      <trkpt lat="41.812010" lon="0.700092">
        <ele>343.520</ele>
        <time>2020-08-23T06:44:14Z</time>
      </trkpt>
      <trkpt lat="41.811982" lon="0.700036">
        <ele>343.419</ele>
        <time>2020-08-23T06:44:15Z</time>
      </trkpt>
      <trkpt lat="41.811957" lon="0.699976">
        <ele>343.418</ele>
        <time>2020-08-23T06:44:16Z</time>
      </trkpt>
      <trkpt lat="41.811930" lon="0.699916">
        <ele>343.498</ele>
        <time>2020-08-23T06:44:17Z</time>
      </trkpt>
      <trkpt lat="41.811913" lon="0.699860">
        <ele>343.417</ele>
        <time>2020-08-23T06:44:18Z</time>
      </trkpt>
      <trkpt lat="41.811884" lon="0.699759">
        <ele>343.408</ele>
        <time>2020-08-23T06:44:20Z</time>
      </trkpt>
      <trkpt lat="41.811871" lon="0.699697">
        <ele>343.426</ele>
        <time>2020-08-23T06:44:21Z</time>
      </trkpt>
      <trkpt lat="41.811858" lon="0.699639">
        <ele>343.386</ele>
        <time>2020-08-23T06:44:22Z</time>
      </trkpt>
      <trkpt lat="41.811841" lon="0.699572">
        <ele>343.254</ele>
        <time>2020-08-23T06:44:23Z</time>
      </trkpt>
      <trkpt lat="41.811824" lon="0.699512">
        <ele>343.146</ele>
        <time>2020-08-23T06:44:24Z</time>
      </trkpt>
      <trkpt lat="41.811804" lon="0.699452">
        <ele>343.087</ele>
        <time>2020-08-23T06:44:25Z</time>
      </trkpt>
      <trkpt lat="41.811785" lon="0.699391">
        <ele>343.088</ele>
        <time>2020-08-23T06:44:26Z</time>
      </trkpt>
      <trkpt lat="41.811763" lon="0.699322">
        <ele>343.044</ele>
        <time>2020-08-23T06:44:27Z</time>
      </trkpt>
      <trkpt lat="41.811744" lon="0.699260">
        <ele>343.083</ele>
        <time>2020-08-23T06:44:28Z</time>
      </trkpt>
      <trkpt lat="41.811723" lon="0.699204">
        <ele>343.045</ele>
        <time>2020-08-23T06:44:29Z</time>
      </trkpt>
      <trkpt lat="41.811699" lon="0.699148">
        <ele>343.047</ele>
        <time>2020-08-23T06:44:30Z</time>
      </trkpt>
      <trkpt lat="41.811676" lon="0.699096">
        <ele>343.011</ele>
        <time>2020-08-23T06:44:31Z</time>
      </trkpt>
      <trkpt lat="41.811653" lon="0.699042">
        <ele>343.008</ele>
        <time>2020-08-23T06:44:32Z</time>
      </trkpt>
      <trkpt lat="41.811628" lon="0.698984">
        <ele>343.019</ele>
        <time>2020-08-23T06:44:33Z</time>
      </trkpt>
      <trkpt lat="41.811602" lon="0.698925">
        <ele>342.959</ele>
        <time>2020-08-23T06:44:34Z</time>
      </trkpt>
      <trkpt lat="41.811573" lon="0.698871">
        <ele>342.947</ele>
        <time>2020-08-23T06:44:35Z</time>
      </trkpt>
      <trkpt lat="41.811537" lon="0.698822">
        <ele>342.959</ele>
        <time>2020-08-23T06:44:36Z</time>
      </trkpt>
      <trkpt lat="41.811501" lon="0.698778">
        <ele>342.950</ele>
        <time>2020-08-23T06:44:37Z</time>
      </trkpt>
      <trkpt lat="41.811460" lon="0.698735">
        <ele>342.881</ele>
        <time>2020-08-23T06:44:38Z</time>
      </trkpt>
      <trkpt lat="41.811423" lon="0.698687">
        <ele>342.887</ele>
        <time>2020-08-23T06:44:39Z</time>
      </trkpt>
      <trkpt lat="41.811390" lon="0.698645">
        <ele>342.796</ele>
        <time>2020-08-23T06:44:40Z</time>
      </trkpt>
      <trkpt lat="41.811359" lon="0.698591">
        <ele>342.637</ele>
        <time>2020-08-23T06:44:41Z</time>
      </trkpt>
      <trkpt lat="41.811329" lon="0.698526">
        <ele>342.649</ele>
        <time>2020-08-23T06:44:42Z</time>
      </trkpt>
      <trkpt lat="41.811302" lon="0.698462">
        <ele>342.613</ele>
        <time>2020-08-23T06:44:43Z</time>
      </trkpt>
      <trkpt lat="41.811275" lon="0.698403">
        <ele>342.608</ele>
        <time>2020-08-23T06:44:44Z</time>
      </trkpt>
      <trkpt lat="41.811247" lon="0.698337">
        <ele>342.658</ele>
        <time>2020-08-23T06:44:45Z</time>
      </trkpt>
      <trkpt lat="41.811222" lon="0.698274">
        <ele>342.618</ele>
        <time>2020-08-23T06:44:46Z</time>
      </trkpt>
      <trkpt lat="41.811203" lon="0.698213">
        <ele>342.546</ele>
        <time>2020-08-23T06:44:47Z</time>
      </trkpt>
      <trkpt lat="41.811181" lon="0.698154">
        <ele>342.598</ele>
        <time>2020-08-23T06:44:48Z</time>
      </trkpt>
      <trkpt lat="41.811158" lon="0.698093">
        <ele>342.599</ele>
        <time>2020-08-23T06:44:49Z</time>
      </trkpt>
      <trkpt lat="41.811134" lon="0.698031">
        <ele>342.510</ele>
        <time>2020-08-23T06:44:50Z</time>
      </trkpt>
      <trkpt lat="41.811109" lon="0.697970">
        <ele>342.536</ele>
        <time>2020-08-23T06:44:51Z</time>
      </trkpt>
      <trkpt lat="41.811086" lon="0.697909">
        <ele>342.575</ele>
        <time>2020-08-23T06:44:52Z</time>
      </trkpt>
      <trkpt lat="41.811067" lon="0.697842">
        <ele>342.557</ele>
        <time>2020-08-23T06:44:53Z</time>
      </trkpt>
      <trkpt lat="41.811046" lon="0.697775">
        <ele>342.500</ele>
        <time>2020-08-23T06:44:54Z</time>
      </trkpt>
      <trkpt lat="41.811026" lon="0.697717">
        <ele>342.520</ele>
        <time>2020-08-23T06:44:55Z</time>
      </trkpt>
      <trkpt lat="41.810988" lon="0.697606">
        <ele>342.508</ele>
        <time>2020-08-23T06:44:57Z</time>
      </trkpt>
      <trkpt lat="41.810970" lon="0.697546">
        <ele>342.560</ele>
        <time>2020-08-23T06:44:58Z</time>
      </trkpt>
      <trkpt lat="41.810953" lon="0.697486">
        <ele>342.580</ele>
        <time>2020-08-23T06:44:59Z</time>
      </trkpt>
      <trkpt lat="41.810944" lon="0.697426">
        <ele>342.588</ele>
        <time>2020-08-23T06:45:00Z</time>
      </trkpt>
      <trkpt lat="41.810917" lon="0.697313">
        <ele>342.580</ele>
        <time>2020-08-23T06:45:02Z</time>
      </trkpt>
      <trkpt lat="41.810881" lon="0.697212">
        <ele>342.511</ele>
        <time>2020-08-23T06:45:04Z</time>
      </trkpt>
      <trkpt lat="41.810859" lon="0.697156">
        <ele>342.582</ele>
        <time>2020-08-23T06:45:05Z</time>
      </trkpt>
      <trkpt lat="41.810835" lon="0.697097">
        <ele>342.518</ele>
        <time>2020-08-23T06:45:06Z</time>
      </trkpt>
      <trkpt lat="41.810809" lon="0.697034">
        <ele>342.597</ele>
        <time>2020-08-23T06:45:07Z</time>
      </trkpt>
      <trkpt lat="41.810785" lon="0.696968">
        <ele>342.549</ele>
        <time>2020-08-23T06:45:08Z</time>
      </trkpt>
      <trkpt lat="41.810764" lon="0.696910">
        <ele>342.502</ele>
        <time>2020-08-23T06:45:09Z</time>
      </trkpt>
      <trkpt lat="41.810732" lon="0.696796">
        <ele>342.522</ele>
        <time>2020-08-23T06:45:11Z</time>
      </trkpt>
      <trkpt lat="41.810713" lon="0.696680">
        <ele>342.508</ele>
        <time>2020-08-23T06:45:13Z</time>
      </trkpt>
      <trkpt lat="41.810704" lon="0.696598">
        <ele>342.589</ele>
        <time>2020-08-23T06:45:14Z</time>
      </trkpt>
      <trkpt lat="41.810695" lon="0.696518">
        <ele>342.589</ele>
        <time>2020-08-23T06:45:15Z</time>
      </trkpt>
      <trkpt lat="41.810688" lon="0.696449">
        <ele>342.547</ele>
        <time>2020-08-23T06:45:16Z</time>
      </trkpt>
      <trkpt lat="41.810683" lon="0.696383">
        <ele>342.549</ele>
        <time>2020-08-23T06:45:17Z</time>
      </trkpt>
      <trkpt lat="41.810682" lon="0.696315">
        <ele>342.530</ele>
        <time>2020-08-23T06:45:18Z</time>
      </trkpt>
      <trkpt lat="41.810676" lon="0.696248">
        <ele>342.521</ele>
        <time>2020-08-23T06:45:19Z</time>
      </trkpt>
      <trkpt lat="41.810668" lon="0.696179">
        <ele>342.587</ele>
        <time>2020-08-23T06:45:20Z</time>
      </trkpt>
      <trkpt lat="41.810659" lon="0.696112">
        <ele>342.486</ele>
        <time>2020-08-23T06:45:21Z</time>
      </trkpt>
      <trkpt lat="41.810648" lon="0.696046">
        <ele>342.316</ele>
        <time>2020-08-23T06:45:22Z</time>
      </trkpt>
      <trkpt lat="41.810639" lon="0.695977">
        <ele>342.276</ele>
        <time>2020-08-23T06:45:23Z</time>
      </trkpt>
      <trkpt lat="41.810633" lon="0.695907">
        <ele>342.113</ele>
        <time>2020-08-23T06:45:24Z</time>
      </trkpt>
      <trkpt lat="41.810622" lon="0.695842">
        <ele>342.008</ele>
        <time>2020-08-23T06:45:25Z</time>
      </trkpt>
      <trkpt lat="41.810605" lon="0.695783">
        <ele>341.986</ele>
        <time>2020-08-23T06:45:26Z</time>
      </trkpt>
      <trkpt lat="41.810550" lon="0.695688">
        <ele>341.616</ele>
        <time>2020-08-23T06:45:28Z</time>
      </trkpt>
      <trkpt lat="41.810520" lon="0.695597">
        <ele>340.974</ele>
        <time>2020-08-23T06:45:30Z</time>
      </trkpt>
      <trkpt lat="41.810516" lon="0.695481">
        <ele>340.546</ele>
        <time>2020-08-23T06:45:32Z</time>
      </trkpt>
      <trkpt lat="41.810513" lon="0.695421">
        <ele>340.317</ele>
        <time>2020-08-23T06:45:33Z</time>
      </trkpt>
      <trkpt lat="41.810504" lon="0.695301">
        <ele>340.068</ele>
        <time>2020-08-23T06:45:35Z</time>
      </trkpt>
      <trkpt lat="41.810495" lon="0.695237">
        <ele>339.854</ele>
        <time>2020-08-23T06:45:36Z</time>
      </trkpt>
      <trkpt lat="41.810481" lon="0.695173">
        <ele>339.613</ele>
        <time>2020-08-23T06:45:37Z</time>
      </trkpt>
      <trkpt lat="41.810466" lon="0.695103">
        <ele>339.314</ele>
        <time>2020-08-23T06:45:38Z</time>
      </trkpt>
      <trkpt lat="41.810453" lon="0.695027">
        <ele>339.154</ele>
        <time>2020-08-23T06:45:39Z</time>
      </trkpt>
      <trkpt lat="41.810446" lon="0.694949">
        <ele>338.909</ele>
        <time>2020-08-23T06:45:40Z</time>
      </trkpt>
      <trkpt lat="41.810436" lon="0.694871">
        <ele>338.708</ele>
        <time>2020-08-23T06:45:41Z</time>
      </trkpt>
      <trkpt lat="41.810425" lon="0.694795">
        <ele>338.556</ele>
        <time>2020-08-23T06:45:42Z</time>
      </trkpt>
      <trkpt lat="41.810414" lon="0.694719">
        <ele>338.436</ele>
        <time>2020-08-23T06:45:43Z</time>
      </trkpt>
      <trkpt lat="41.810407" lon="0.694650">
        <ele>338.314</ele>
        <time>2020-08-23T06:45:44Z</time>
      </trkpt>
      <trkpt lat="41.810400" lon="0.694583">
        <ele>338.146</ele>
        <time>2020-08-23T06:45:45Z</time>
      </trkpt>
      <trkpt lat="41.810395" lon="0.694515">
        <ele>338.067</ele>
        <time>2020-08-23T06:45:46Z</time>
      </trkpt>
      <trkpt lat="41.810385" lon="0.694444">
        <ele>337.968</ele>
        <time>2020-08-23T06:45:47Z</time>
      </trkpt>
      <trkpt lat="41.810377" lon="0.694374">
        <ele>337.664</ele>
        <time>2020-08-23T06:45:48Z</time>
      </trkpt>
      <trkpt lat="41.810368" lon="0.694305">
        <ele>337.553</ele>
        <time>2020-08-23T06:45:49Z</time>
      </trkpt>
      <trkpt lat="41.810361" lon="0.694241">
        <ele>337.358</ele>
        <time>2020-08-23T06:45:50Z</time>
      </trkpt>
      <trkpt lat="41.810353" lon="0.694178">
        <ele>337.252</ele>
        <time>2020-08-23T06:45:51Z</time>
      </trkpt>
      <trkpt lat="41.810344" lon="0.694116">
        <ele>337.117</ele>
        <time>2020-08-23T06:45:52Z</time>
      </trkpt>
      <trkpt lat="41.810334" lon="0.694055">
        <ele>337.108</ele>
        <time>2020-08-23T06:45:53Z</time>
      </trkpt>
      <trkpt lat="41.810322" lon="0.693995">
        <ele>337.130</ele>
        <time>2020-08-23T06:45:54Z</time>
      </trkpt>
      <trkpt lat="41.810316" lon="0.693935">
        <ele>337.130</ele>
        <time>2020-08-23T06:45:55Z</time>
      </trkpt>
      <trkpt lat="41.810305" lon="0.693872">
        <ele>337.048</ele>
        <time>2020-08-23T06:45:56Z</time>
      </trkpt>
      <trkpt lat="41.810297" lon="0.693801">
        <ele>336.930</ele>
        <time>2020-08-23T06:45:57Z</time>
      </trkpt>
      <trkpt lat="41.810290" lon="0.693737">
        <ele>336.841</ele>
        <time>2020-08-23T06:45:58Z</time>
      </trkpt>
      <trkpt lat="41.810282" lon="0.693670">
        <ele>336.732</ele>
        <time>2020-08-23T06:45:59Z</time>
      </trkpt>
      <trkpt lat="41.810275" lon="0.693602">
        <ele>336.618</ele>
        <time>2020-08-23T06:46:00Z</time>
      </trkpt>
      <trkpt lat="41.810265" lon="0.693532">
        <ele>336.587</ele>
        <time>2020-08-23T06:46:01Z</time>
      </trkpt>
      <trkpt lat="41.810256" lon="0.693470">
        <ele>336.488</ele>
        <time>2020-08-23T06:46:02Z</time>
      </trkpt>
      <trkpt lat="41.810245" lon="0.693403">
        <ele>336.324</ele>
        <time>2020-08-23T06:46:03Z</time>
      </trkpt>
      <trkpt lat="41.810236" lon="0.693335">
        <ele>336.226</ele>
        <time>2020-08-23T06:46:04Z</time>
      </trkpt>
      <trkpt lat="41.810226" lon="0.693269">
        <ele>336.108</ele>
        <time>2020-08-23T06:46:05Z</time>
      </trkpt>
      <trkpt lat="41.810215" lon="0.693207">
        <ele>336.033</ele>
        <time>2020-08-23T06:46:06Z</time>
      </trkpt>
      <trkpt lat="41.810203" lon="0.693142">
        <ele>336.033</ele>
        <time>2020-08-23T06:46:07Z</time>
      </trkpt>
      <trkpt lat="41.810192" lon="0.693077">
        <ele>336.051</ele>
        <time>2020-08-23T06:46:08Z</time>
      </trkpt>
      <trkpt lat="41.810180" lon="0.693007">
        <ele>335.913</ele>
        <time>2020-08-23T06:46:09Z</time>
      </trkpt>
      <trkpt lat="41.810171" lon="0.692936">
        <ele>335.884</ele>
        <time>2020-08-23T06:46:10Z</time>
      </trkpt>
      <trkpt lat="41.810160" lon="0.692863">
        <ele>335.835</ele>
        <time>2020-08-23T06:46:11Z</time>
      </trkpt>
      <trkpt lat="41.810146" lon="0.692793">
        <ele>335.761</ele>
        <time>2020-08-23T06:46:12Z</time>
      </trkpt>
      <trkpt lat="41.810138" lon="0.692719">
        <ele>335.650</ele>
        <time>2020-08-23T06:46:13Z</time>
      </trkpt>
      <trkpt lat="41.810127" lon="0.692644">
        <ele>335.571</ele>
        <time>2020-08-23T06:46:14Z</time>
      </trkpt>
      <trkpt lat="41.810120" lon="0.692569">
        <ele>335.441</ele>
        <time>2020-08-23T06:46:15Z</time>
      </trkpt>
      <trkpt lat="41.810116" lon="0.692498">
        <ele>335.415</ele>
        <time>2020-08-23T06:46:16Z</time>
      </trkpt>
      <trkpt lat="41.810110" lon="0.692429">
        <ele>335.308</ele>
        <time>2020-08-23T06:46:17Z</time>
      </trkpt>
      <trkpt lat="41.810104" lon="0.692359">
        <ele>335.362</ele>
        <time>2020-08-23T06:46:18Z</time>
      </trkpt>
      <trkpt lat="41.810099" lon="0.692293">
        <ele>335.322</ele>
        <time>2020-08-23T06:46:19Z</time>
      </trkpt>
      <trkpt lat="41.810089" lon="0.692226">
        <ele>335.240</ele>
        <time>2020-08-23T06:46:20Z</time>
      </trkpt>
      <trkpt lat="41.810079" lon="0.692156">
        <ele>335.112</ele>
        <time>2020-08-23T06:46:21Z</time>
      </trkpt>
      <trkpt lat="41.810065" lon="0.692087">
        <ele>335.013</ele>
        <time>2020-08-23T06:46:22Z</time>
      </trkpt>
      <trkpt lat="41.810050" lon="0.692019">
        <ele>334.924</ele>
        <time>2020-08-23T06:46:23Z</time>
      </trkpt>
      <trkpt lat="41.810038" lon="0.691953">
        <ele>334.840</ele>
        <time>2020-08-23T06:46:24Z</time>
      </trkpt>
      <trkpt lat="41.810028" lon="0.691880">
        <ele>334.759</ele>
        <time>2020-08-23T06:46:25Z</time>
      </trkpt>
      <trkpt lat="41.810024" lon="0.691806">
        <ele>334.637</ele>
        <time>2020-08-23T06:46:26Z</time>
      </trkpt>
      <trkpt lat="41.810020" lon="0.691731">
        <ele>334.549</ele>
        <time>2020-08-23T06:46:27Z</time>
      </trkpt>
      <trkpt lat="41.810019" lon="0.691654">
        <ele>334.413</ele>
        <time>2020-08-23T06:46:28Z</time>
      </trkpt>
      <trkpt lat="41.810026" lon="0.691578">
        <ele>334.308</ele>
        <time>2020-08-23T06:46:29Z</time>
      </trkpt>
      <trkpt lat="41.810022" lon="0.691501">
        <ele>334.218</ele>
        <time>2020-08-23T06:46:30Z</time>
      </trkpt>
      <trkpt lat="41.810019" lon="0.691429">
        <ele>334.138</ele>
        <time>2020-08-23T06:46:31Z</time>
      </trkpt>
      <trkpt lat="41.810016" lon="0.691358">
        <ele>334.016</ele>
        <time>2020-08-23T06:46:32Z</time>
      </trkpt>
      <trkpt lat="41.810014" lon="0.691285">
        <ele>333.958</ele>
        <time>2020-08-23T06:46:33Z</time>
      </trkpt>
      <trkpt lat="41.810022" lon="0.691213">
        <ele>333.979</ele>
        <time>2020-08-23T06:46:34Z</time>
      </trkpt>
      <trkpt lat="41.810025" lon="0.691142">
        <ele>333.950</ele>
        <time>2020-08-23T06:46:35Z</time>
      </trkpt>
      <trkpt lat="41.810028" lon="0.691074">
        <ele>333.846</ele>
        <time>2020-08-23T06:46:36Z</time>
      </trkpt>
      <trkpt lat="41.810027" lon="0.691004">
        <ele>333.855</ele>
        <time>2020-08-23T06:46:37Z</time>
      </trkpt>
      <trkpt lat="41.810025" lon="0.690932">
        <ele>333.854</ele>
        <time>2020-08-23T06:46:38Z</time>
      </trkpt>
      <trkpt lat="41.810025" lon="0.690855">
        <ele>333.856</ele>
        <time>2020-08-23T06:46:39Z</time>
      </trkpt>
      <trkpt lat="41.810023" lon="0.690776">
        <ele>333.711</ele>
        <time>2020-08-23T06:46:40Z</time>
      </trkpt>
      <trkpt lat="41.810022" lon="0.690705">
        <ele>333.708</ele>
        <time>2020-08-23T06:46:41Z</time>
      </trkpt>
      <trkpt lat="41.810018" lon="0.690632">
        <ele>333.780</ele>
        <time>2020-08-23T06:46:42Z</time>
      </trkpt>
      <trkpt lat="41.810013" lon="0.690561">
        <ele>333.630</ele>
        <time>2020-08-23T06:46:43Z</time>
      </trkpt>
      <trkpt lat="41.810008" lon="0.690494">
        <ele>333.698</ele>
        <time>2020-08-23T06:46:44Z</time>
      </trkpt>
      <trkpt lat="41.810003" lon="0.690428">
        <ele>333.630</ele>
        <time>2020-08-23T06:46:45Z</time>
      </trkpt>
      <trkpt lat="41.809998" lon="0.690355">
        <ele>333.651</ele>
        <time>2020-08-23T06:46:46Z</time>
      </trkpt>
      <trkpt lat="41.809995" lon="0.690282">
        <ele>333.652</ele>
        <time>2020-08-23T06:46:47Z</time>
      </trkpt>
      <trkpt lat="41.809996" lon="0.690214">
        <ele>333.678</ele>
        <time>2020-08-23T06:46:48Z</time>
      </trkpt>
      <trkpt lat="41.809996" lon="0.690138">
        <ele>333.627</ele>
        <time>2020-08-23T06:46:49Z</time>
      </trkpt>
      <trkpt lat="41.810002" lon="0.690062">
        <ele>333.673</ele>
        <time>2020-08-23T06:46:50Z</time>
      </trkpt>
      <trkpt lat="41.810008" lon="0.689986">
        <ele>333.585</ele>
        <time>2020-08-23T06:46:51Z</time>
      </trkpt>
      <trkpt lat="41.810011" lon="0.689908">
        <ele>333.513</ele>
        <time>2020-08-23T06:46:52Z</time>
      </trkpt>
      <trkpt lat="41.810012" lon="0.689834">
        <ele>333.508</ele>
        <time>2020-08-23T06:46:53Z</time>
      </trkpt>
      <trkpt lat="41.810009" lon="0.689767">
        <ele>333.562</ele>
        <time>2020-08-23T06:46:54Z</time>
      </trkpt>
      <trkpt lat="41.810006" lon="0.689700">
        <ele>333.522</ele>
        <time>2020-08-23T06:46:55Z</time>
      </trkpt>
      <trkpt lat="41.810006" lon="0.689632">
        <ele>333.680</ele>
        <time>2020-08-23T06:46:56Z</time>
      </trkpt>
      <trkpt lat="41.810008" lon="0.689568">
        <ele>333.722</ele>
        <time>2020-08-23T06:46:57Z</time>
      </trkpt>
      <trkpt lat="41.810012" lon="0.689504">
        <ele>333.843</ele>
        <time>2020-08-23T06:46:58Z</time>
      </trkpt>
      <trkpt lat="41.810013" lon="0.689443">
        <ele>333.864</ele>
        <time>2020-08-23T06:46:59Z</time>
      </trkpt>
      <trkpt lat="41.810024" lon="0.689320">
        <ele>334.020</ele>
        <time>2020-08-23T06:47:01Z</time>
      </trkpt>
      <trkpt lat="41.810032" lon="0.689251">
        <ele>334.139</ele>
        <time>2020-08-23T06:47:02Z</time>
      </trkpt>
      <trkpt lat="41.810042" lon="0.689179">
        <ele>334.269</ele>
        <time>2020-08-23T06:47:03Z</time>
      </trkpt>
      <trkpt lat="41.810050" lon="0.689110">
        <ele>334.304</ele>
        <time>2020-08-23T06:47:04Z</time>
      </trkpt>
      <trkpt lat="41.810057" lon="0.689041">
        <ele>334.424</ele>
        <time>2020-08-23T06:47:05Z</time>
      </trkpt>
      <trkpt lat="41.810063" lon="0.688969">
        <ele>334.508</ele>
        <time>2020-08-23T06:47:06Z</time>
      </trkpt>
      <trkpt lat="41.810069" lon="0.688905">
        <ele>334.561</ele>
        <time>2020-08-23T06:47:07Z</time>
      </trkpt>
      <trkpt lat="41.810074" lon="0.688841">
        <ele>334.641</ele>
        <time>2020-08-23T06:47:08Z</time>
      </trkpt>
      <trkpt lat="41.810091" lon="0.688736">
        <ele>334.739</ele>
        <time>2020-08-23T06:47:10Z</time>
      </trkpt>
      <trkpt lat="41.810098" lon="0.688631">
        <ele>335.061</ele>
        <time>2020-08-23T06:47:12Z</time>
      </trkpt>
      <trkpt lat="41.810101" lon="0.688569">
        <ele>335.122</ele>
        <time>2020-08-23T06:47:13Z</time>
      </trkpt>
      <trkpt lat="41.810106" lon="0.688499">
        <ele>335.223</ele>
        <time>2020-08-23T06:47:14Z</time>
      </trkpt>
      <trkpt lat="41.810119" lon="0.688430">
        <ele>335.389</ele>
        <time>2020-08-23T06:47:15Z</time>
      </trkpt>
      <trkpt lat="41.810133" lon="0.688363">
        <ele>335.378</ele>
        <time>2020-08-23T06:47:16Z</time>
      </trkpt>
      <trkpt lat="41.810145" lon="0.688297">
        <ele>335.388</ele>
        <time>2020-08-23T06:47:17Z</time>
      </trkpt>
      <trkpt lat="41.810159" lon="0.688235">
        <ele>335.324</ele>
        <time>2020-08-23T06:47:18Z</time>
      </trkpt>
      <trkpt lat="41.810182" lon="0.688167">
        <ele>335.226</ele>
        <time>2020-08-23T06:47:19Z</time>
      </trkpt>
      <trkpt lat="41.810221" lon="0.688059">
        <ele>335.008</ele>
        <time>2020-08-23T06:47:21Z</time>
      </trkpt>
      <trkpt lat="41.810240" lon="0.687999">
        <ele>334.923</ele>
        <time>2020-08-23T06:47:22Z</time>
      </trkpt>
      <trkpt lat="41.810263" lon="0.687940">
        <ele>334.833</ele>
        <time>2020-08-23T06:47:23Z</time>
      </trkpt>
      <trkpt lat="41.810286" lon="0.687880">
        <ele>334.831</ele>
        <time>2020-08-23T06:47:24Z</time>
      </trkpt>
      <trkpt lat="41.810304" lon="0.687817">
        <ele>334.883</ele>
        <time>2020-08-23T06:47:25Z</time>
      </trkpt>
      <trkpt lat="41.810316" lon="0.687755">
        <ele>334.894</ele>
        <time>2020-08-23T06:47:26Z</time>
      </trkpt>
      <trkpt lat="41.810329" lon="0.687684">
        <ele>334.785</ele>
        <time>2020-08-23T06:47:27Z</time>
      </trkpt>
      <trkpt lat="41.810345" lon="0.687614">
        <ele>334.641</ele>
        <time>2020-08-23T06:47:28Z</time>
      </trkpt>
      <trkpt lat="41.810349" lon="0.687548">
        <ele>334.510</ele>
        <time>2020-08-23T06:47:29Z</time>
      </trkpt>
      <trkpt lat="41.810345" lon="0.687481">
        <ele>334.513</ele>
        <time>2020-08-23T06:47:30Z</time>
      </trkpt>
      <trkpt lat="41.810346" lon="0.687417">
        <ele>334.543</ele>
        <time>2020-08-23T06:47:31Z</time>
      </trkpt>
      <trkpt lat="41.810344" lon="0.687357">
        <ele>334.507</ele>
        <time>2020-08-23T06:47:32Z</time>
      </trkpt>
      <trkpt lat="41.810332" lon="0.687230">
        <ele>334.708</ele>
        <time>2020-08-23T06:47:34Z</time>
      </trkpt>
      <trkpt lat="41.810318" lon="0.687117">
        <ele>334.986</ele>
        <time>2020-08-23T06:47:36Z</time>
      </trkpt>
      <trkpt lat="41.810310" lon="0.686994">
        <ele>335.186</ele>
        <time>2020-08-23T06:47:38Z</time>
      </trkpt>
      <trkpt lat="41.810307" lon="0.686930">
        <ele>335.254</ele>
        <time>2020-08-23T06:47:39Z</time>
      </trkpt>
      <trkpt lat="41.810302" lon="0.686869">
        <ele>335.346</ele>
        <time>2020-08-23T06:47:40Z</time>
      </trkpt>
      <trkpt lat="41.810297" lon="0.686804">
        <ele>335.387</ele>
        <time>2020-08-23T06:47:41Z</time>
      </trkpt>
      <trkpt lat="41.810293" lon="0.686743">
        <ele>335.398</ele>
        <time>2020-08-23T06:47:42Z</time>
      </trkpt>
      <trkpt lat="41.810295" lon="0.686680">
        <ele>335.384</ele>
        <time>2020-08-23T06:47:43Z</time>
      </trkpt>
      <trkpt lat="41.810299" lon="0.686617">
        <ele>335.313</ele>
        <time>2020-08-23T06:47:44Z</time>
      </trkpt>
      <trkpt lat="41.810300" lon="0.686553">
        <ele>335.352</ele>
        <time>2020-08-23T06:47:45Z</time>
      </trkpt>
      <trkpt lat="41.810299" lon="0.686491">
        <ele>335.453</ele>
        <time>2020-08-23T06:47:46Z</time>
      </trkpt>
      <trkpt lat="41.810303" lon="0.686372">
        <ele>335.608</ele>
        <time>2020-08-23T06:47:48Z</time>
      </trkpt>
      <trkpt lat="41.810307" lon="0.686308">
        <ele>335.708</ele>
        <time>2020-08-23T06:47:49Z</time>
      </trkpt>
      <trkpt lat="41.810316" lon="0.686192">
        <ele>336.020</ele>
        <time>2020-08-23T06:47:51Z</time>
      </trkpt>
      <trkpt lat="41.810323" lon="0.686132">
        <ele>336.250</ele>
        <time>2020-08-23T06:47:52Z</time>
      </trkpt>
      <trkpt lat="41.810330" lon="0.686015">
        <ele>336.538</ele>
        <time>2020-08-23T06:47:54Z</time>
      </trkpt>
      <trkpt lat="41.810335" lon="0.685950">
        <ele>336.680</ele>
        <time>2020-08-23T06:47:55Z</time>
      </trkpt>
      <trkpt lat="41.810346" lon="0.685870">
        <ele>336.631</ele>
        <time>2020-08-23T06:47:56Z</time>
      </trkpt>
      <trkpt lat="41.810359" lon="0.685794">
        <ele>336.532</ele>
        <time>2020-08-23T06:47:57Z</time>
      </trkpt>
      <trkpt lat="41.810371" lon="0.685719">
        <ele>336.438</ele>
        <time>2020-08-23T06:47:58Z</time>
      </trkpt>
      <trkpt lat="41.810382" lon="0.685649">
        <ele>336.387</ele>
        <time>2020-08-23T06:47:59Z</time>
      </trkpt>
      <trkpt lat="41.810392" lon="0.685575">
        <ele>336.295</ele>
        <time>2020-08-23T06:48:00Z</time>
      </trkpt>
      <trkpt lat="41.810404" lon="0.685506">
        <ele>336.149</ele>
        <time>2020-08-23T06:48:01Z</time>
      </trkpt>
      <trkpt lat="41.810415" lon="0.685437">
        <ele>336.023</ele>
        <time>2020-08-23T06:48:02Z</time>
      </trkpt>
      <trkpt lat="41.810423" lon="0.685365">
        <ele>335.908</ele>
        <time>2020-08-23T06:48:03Z</time>
      </trkpt>
      <trkpt lat="41.810432" lon="0.685298">
        <ele>335.844</ele>
        <time>2020-08-23T06:48:04Z</time>
      </trkpt>
      <trkpt lat="41.810434" lon="0.685196">
        <ele>335.744</ele>
        <time>2020-08-23T06:48:06Z</time>
      </trkpt>
      <trkpt lat="41.810434" lon="0.685131">
        <ele>335.782</ele>
        <time>2020-08-23T06:48:07Z</time>
      </trkpt>
      <trkpt lat="41.810438" lon="0.685060">
        <ele>335.724</ele>
        <time>2020-08-23T06:48:08Z</time>
      </trkpt>
      <trkpt lat="41.810449" lon="0.685001">
        <ele>335.875</ele>
        <time>2020-08-23T06:48:09Z</time>
      </trkpt>
      <trkpt lat="41.810465" lon="0.684941">
        <ele>335.936</ele>
        <time>2020-08-23T06:48:10Z</time>
      </trkpt>
      <trkpt lat="41.810496" lon="0.684831">
        <ele>336.232</ele>
        <time>2020-08-23T06:48:12Z</time>
      </trkpt>
      <trkpt lat="41.810529" lon="0.684738">
        <ele>336.671</ele>
        <time>2020-08-23T06:48:14Z</time>
      </trkpt>
      <trkpt lat="41.810559" lon="0.684652">
        <ele>336.858</ele>
        <time>2020-08-23T06:48:16Z</time>
      </trkpt>
      <trkpt lat="41.810583" lon="0.684552">
        <ele>337.052</ele>
        <time>2020-08-23T06:48:18Z</time>
      </trkpt>
      <trkpt lat="41.810604" lon="0.684437">
        <ele>337.117</ele>
        <time>2020-08-23T06:48:20Z</time>
      </trkpt>
      <trkpt lat="41.810619" lon="0.684316">
        <ele>337.208</ele>
        <time>2020-08-23T06:48:22Z</time>
      </trkpt>
      <trkpt lat="41.810634" lon="0.684246">
        <ele>337.270</ele>
        <time>2020-08-23T06:48:23Z</time>
      </trkpt>
      <trkpt lat="41.810649" lon="0.684181">
        <ele>337.240</ele>
        <time>2020-08-23T06:48:24Z</time>
      </trkpt>
      <trkpt lat="41.810660" lon="0.684120">
        <ele>337.298</ele>
        <time>2020-08-23T06:48:25Z</time>
      </trkpt>
      <trkpt lat="41.810674" lon="0.684053">
        <ele>337.220</ele>
        <time>2020-08-23T06:48:26Z</time>
      </trkpt>
      <trkpt lat="41.810682" lon="0.683988">
        <ele>337.291</ele>
        <time>2020-08-23T06:48:27Z</time>
      </trkpt>
      <trkpt lat="41.810694" lon="0.683916">
        <ele>337.262</ele>
        <time>2020-08-23T06:48:28Z</time>
      </trkpt>
      <trkpt lat="41.810701" lon="0.683853">
        <ele>337.268</ele>
        <time>2020-08-23T06:48:29Z</time>
      </trkpt>
      <trkpt lat="41.810708" lon="0.683775">
        <ele>337.297</ele>
        <time>2020-08-23T06:48:30Z</time>
      </trkpt>
      <trkpt lat="41.810709" lon="0.683701">
        <ele>337.234</ele>
        <time>2020-08-23T06:48:31Z</time>
      </trkpt>
      <trkpt lat="41.810710" lon="0.683630">
        <ele>337.255</ele>
        <time>2020-08-23T06:48:32Z</time>
      </trkpt>
      <trkpt lat="41.810710" lon="0.683563">
        <ele>337.210</ele>
        <time>2020-08-23T06:48:33Z</time>
      </trkpt>
      <trkpt lat="41.810708" lon="0.683497">
        <ele>337.208</ele>
        <time>2020-08-23T06:48:34Z</time>
      </trkpt>
      <trkpt lat="41.810709" lon="0.683436">
        <ele>337.248</ele>
        <time>2020-08-23T06:48:35Z</time>
      </trkpt>
      <trkpt lat="41.810708" lon="0.683332">
        <ele>337.238</ele>
        <time>2020-08-23T06:48:37Z</time>
      </trkpt>
      <trkpt lat="41.810711" lon="0.683256">
        <ele>337.256</ele>
        <time>2020-08-23T06:48:38Z</time>
      </trkpt>
      <trkpt lat="41.810709" lon="0.683179">
        <ele>337.298</ele>
        <time>2020-08-23T06:48:39Z</time>
      </trkpt>
      <trkpt lat="41.810710" lon="0.683108">
        <ele>337.279</ele>
        <time>2020-08-23T06:48:40Z</time>
      </trkpt>
      <trkpt lat="41.810711" lon="0.683043">
        <ele>337.220</ele>
        <time>2020-08-23T06:48:41Z</time>
      </trkpt>
      <trkpt lat="41.810716" lon="0.682922">
        <ele>337.296</ele>
        <time>2020-08-23T06:48:43Z</time>
      </trkpt>
      <trkpt lat="41.810715" lon="0.682856">
        <ele>337.245</ele>
        <time>2020-08-23T06:48:44Z</time>
      </trkpt>
      <trkpt lat="41.810715" lon="0.682789">
        <ele>337.252</ele>
        <time>2020-08-23T06:48:45Z</time>
      </trkpt>
      <trkpt lat="41.810721" lon="0.682724">
        <ele>337.253</ele>
        <time>2020-08-23T06:48:46Z</time>
      </trkpt>
      <trkpt lat="41.810727" lon="0.682659">
        <ele>337.208</ele>
        <time>2020-08-23T06:48:47Z</time>
      </trkpt>
      <trkpt lat="41.810728" lon="0.682596">
        <ele>337.208</ele>
        <time>2020-08-23T06:48:48Z</time>
      </trkpt>
      <trkpt lat="41.810726" lon="0.682533">
        <ele>337.260</ele>
        <time>2020-08-23T06:48:49Z</time>
      </trkpt>
      <trkpt lat="41.810731" lon="0.682416">
        <ele>337.350</ele>
        <time>2020-08-23T06:48:51Z</time>
      </trkpt>
      <trkpt lat="41.810727" lon="0.682355">
        <ele>337.378</ele>
        <time>2020-08-23T06:48:52Z</time>
      </trkpt>
      <trkpt lat="41.810727" lon="0.682290">
        <ele>337.310</ele>
        <time>2020-08-23T06:48:53Z</time>
      </trkpt>
      <trkpt lat="41.810725" lon="0.682227">
        <ele>337.381</ele>
        <time>2020-08-23T06:48:54Z</time>
      </trkpt>
      <trkpt lat="41.810723" lon="0.682163">
        <ele>337.332</ele>
        <time>2020-08-23T06:48:55Z</time>
      </trkpt>
      <trkpt lat="41.810709" lon="0.682041">
        <ele>337.448</ele>
        <time>2020-08-23T06:48:57Z</time>
      </trkpt>
      <trkpt lat="41.810697" lon="0.681983">
        <ele>337.577</ele>
        <time>2020-08-23T06:48:58Z</time>
      </trkpt>
      <trkpt lat="41.810682" lon="0.681921">
        <ele>337.642</ele>
        <time>2020-08-23T06:48:59Z</time>
      </trkpt>
      <trkpt lat="41.810663" lon="0.681860">
        <ele>337.722</ele>
        <time>2020-08-23T06:49:00Z</time>
      </trkpt>
      <trkpt lat="41.810646" lon="0.681795">
        <ele>337.814</ele>
        <time>2020-08-23T06:49:01Z</time>
      </trkpt>
      <trkpt lat="41.810626" lon="0.681734">
        <ele>337.908</ele>
        <time>2020-08-23T06:49:02Z</time>
      </trkpt>
      <trkpt lat="41.810611" lon="0.681674">
        <ele>338.089</ele>
        <time>2020-08-23T06:49:03Z</time>
      </trkpt>
      <trkpt lat="41.810599" lon="0.681614">
        <ele>338.099</ele>
        <time>2020-08-23T06:49:04Z</time>
      </trkpt>
      <trkpt lat="41.810588" lon="0.681549">
        <ele>338.147</ele>
        <time>2020-08-23T06:49:05Z</time>
      </trkpt>
      <trkpt lat="41.810580" lon="0.681488">
        <ele>338.119</ele>
        <time>2020-08-23T06:49:06Z</time>
      </trkpt>
      <trkpt lat="41.810571" lon="0.681375">
        <ele>338.270</ele>
        <time>2020-08-23T06:49:08Z</time>
      </trkpt>
      <trkpt lat="41.810568" lon="0.681314">
        <ele>338.361</ele>
        <time>2020-08-23T06:49:09Z</time>
      </trkpt>
      <trkpt lat="41.810564" lon="0.681249">
        <ele>338.487</ele>
        <time>2020-08-23T06:49:10Z</time>
      </trkpt>
      <trkpt lat="41.810561" lon="0.681184">
        <ele>338.546</ele>
        <time>2020-08-23T06:49:11Z</time>
      </trkpt>
      <trkpt lat="41.810566" lon="0.681122">
        <ele>338.682</ele>
        <time>2020-08-23T06:49:12Z</time>
      </trkpt>
      <trkpt lat="41.810598" lon="0.681013">
        <ele>338.843</ele>
        <time>2020-08-23T06:49:14Z</time>
      </trkpt>
      <trkpt lat="41.810628" lon="0.680906">
        <ele>339.117</ele>
        <time>2020-08-23T06:49:16Z</time>
      </trkpt>
      <trkpt lat="41.810640" lon="0.680791">
        <ele>339.408</ele>
        <time>2020-08-23T06:49:18Z</time>
      </trkpt>
      <trkpt lat="41.810646" lon="0.680692">
        <ele>339.663</ele>
        <time>2020-08-23T06:49:20Z</time>
      </trkpt>
      <trkpt lat="41.810644" lon="0.680584">
        <ele>339.643</ele>
        <time>2020-08-23T06:49:22Z</time>
      </trkpt>
      <trkpt lat="41.810644" lon="0.680523">
        <ele>339.711</ele>
        <time>2020-08-23T06:49:23Z</time>
      </trkpt>
      <trkpt lat="41.810646" lon="0.680406">
        <ele>339.823</ele>
        <time>2020-08-23T06:49:25Z</time>
      </trkpt>
      <trkpt lat="41.810628" lon="0.680302">
        <ele>339.834</ele>
        <time>2020-08-23T06:49:27Z</time>
      </trkpt>
      <trkpt lat="41.810621" lon="0.680190">
        <ele>339.825</ele>
        <time>2020-08-23T06:49:29Z</time>
      </trkpt>
      <trkpt lat="41.810615" lon="0.680070">
        <ele>339.951</ele>
        <time>2020-08-23T06:49:31Z</time>
      </trkpt>
      <trkpt lat="41.810609" lon="0.679948">
        <ele>340.070</ele>
        <time>2020-08-23T06:49:33Z</time>
      </trkpt>
      <trkpt lat="41.810612" lon="0.679821">
        <ele>340.195</ele>
        <time>2020-08-23T06:49:35Z</time>
      </trkpt>
      <trkpt lat="41.810619" lon="0.679758">
        <ele>340.249</ele>
        <time>2020-08-23T06:49:36Z</time>
      </trkpt>
      <trkpt lat="41.810640" lon="0.679643">
        <ele>340.323</ele>
        <time>2020-08-23T06:49:38Z</time>
      </trkpt>
      <trkpt lat="41.810654" lon="0.679582">
        <ele>340.308</ele>
        <time>2020-08-23T06:49:39Z</time>
      </trkpt>
      <trkpt lat="41.810667" lon="0.679518">
        <ele>340.384</ele>
        <time>2020-08-23T06:49:40Z</time>
      </trkpt>
      <trkpt lat="41.810683" lon="0.679456">
        <ele>340.334</ele>
        <time>2020-08-23T06:49:41Z</time>
      </trkpt>
      <trkpt lat="41.810703" lon="0.679398">
        <ele>340.322</ele>
        <time>2020-08-23T06:49:42Z</time>
      </trkpt>
      <trkpt lat="41.810718" lon="0.679339">
        <ele>340.344</ele>
        <time>2020-08-23T06:49:43Z</time>
      </trkpt>
      <trkpt lat="41.810734" lon="0.679283">
        <ele>340.345</ele>
        <time>2020-08-23T06:49:44Z</time>
      </trkpt>
      <trkpt lat="41.810762" lon="0.679175">
        <ele>340.426</ele>
        <time>2020-08-23T06:49:46Z</time>
      </trkpt>
      <trkpt lat="41.810789" lon="0.679059">
        <ele>340.472</ele>
        <time>2020-08-23T06:49:48Z</time>
      </trkpt>
      <trkpt lat="41.810805" lon="0.678992">
        <ele>340.461</ele>
        <time>2020-08-23T06:49:49Z</time>
      </trkpt>
      <trkpt lat="41.810824" lon="0.678932">
        <ele>340.447</ele>
        <time>2020-08-23T06:49:50Z</time>
      </trkpt>
      <trkpt lat="41.810839" lon="0.678866">
        <ele>340.429</ele>
        <time>2020-08-23T06:49:51Z</time>
      </trkpt>
      <trkpt lat="41.810855" lon="0.678794">
        <ele>340.421</ele>
        <time>2020-08-23T06:49:52Z</time>
      </trkpt>
      <trkpt lat="41.810871" lon="0.678727">
        <ele>340.408</ele>
        <time>2020-08-23T06:49:53Z</time>
      </trkpt>
      <trkpt lat="41.810882" lon="0.678661">
        <ele>340.479</ele>
        <time>2020-08-23T06:49:54Z</time>
      </trkpt>
      <trkpt lat="41.810896" lon="0.678544">
        <ele>340.469</ele>
        <time>2020-08-23T06:49:56Z</time>
      </trkpt>
      <trkpt lat="41.810909" lon="0.678427">
        <ele>340.457</ele>
        <time>2020-08-23T06:49:58Z</time>
      </trkpt>
      <trkpt lat="41.810921" lon="0.678310">
        <ele>340.589</ele>
        <time>2020-08-23T06:50:00Z</time>
      </trkpt>
      <trkpt lat="41.810928" lon="0.678242">
        <ele>340.560</ele>
        <time>2020-08-23T06:50:01Z</time>
      </trkpt>
      <trkpt lat="41.810938" lon="0.678170">
        <ele>340.581</ele>
        <time>2020-08-23T06:50:02Z</time>
      </trkpt>
      <trkpt lat="41.810948" lon="0.678102">
        <ele>340.667</ele>
        <time>2020-08-23T06:50:03Z</time>
      </trkpt>
      <trkpt lat="41.810949" lon="0.678040">
        <ele>340.776</ele>
        <time>2020-08-23T06:50:04Z</time>
      </trkpt>
      <trkpt lat="41.810950" lon="0.677980">
        <ele>340.882</ele>
        <time>2020-08-23T06:50:05Z</time>
      </trkpt>
      <trkpt lat="41.810955" lon="0.677863">
        <ele>341.043</ele>
        <time>2020-08-23T06:50:07Z</time>
      </trkpt>
      <trkpt lat="41.810962" lon="0.677800">
        <ele>341.117</ele>
        <time>2020-08-23T06:50:08Z</time>
      </trkpt>
      <trkpt lat="41.810970" lon="0.677737">
        <ele>341.208</ele>
        <time>2020-08-23T06:50:09Z</time>
      </trkpt>
      <trkpt lat="41.810981" lon="0.677673">
        <ele>341.243</ele>
        <time>2020-08-23T06:50:10Z</time>
      </trkpt>
      <trkpt lat="41.811011" lon="0.677606">
        <ele>341.213</ele>
        <time>2020-08-23T06:50:11Z</time>
      </trkpt>
      <trkpt lat="41.811025" lon="0.677546">
        <ele>341.221</ele>
        <time>2020-08-23T06:50:12Z</time>
      </trkpt>
      <trkpt lat="41.811033" lon="0.677484">
        <ele>341.283</ele>
        <time>2020-08-23T06:50:13Z</time>
      </trkpt>
      <trkpt lat="41.811052" lon="0.677371">
        <ele>341.394</ele>
        <time>2020-08-23T06:50:15Z</time>
      </trkpt>
      <trkpt lat="41.811065" lon="0.677308">
        <ele>341.455</ele>
        <time>2020-08-23T06:50:16Z</time>
      </trkpt>
      <trkpt lat="41.811080" lon="0.677212">
        <ele>341.561</ele>
        <time>2020-08-23T06:50:18Z</time>
      </trkpt>
      <trkpt lat="41.811093" lon="0.677106">
        <ele>341.750</ele>
        <time>2020-08-23T06:50:20Z</time>
      </trkpt>
      <trkpt lat="41.811100" lon="0.676991">
        <ele>342.088</ele>
        <time>2020-08-23T06:50:22Z</time>
      </trkpt>
      <trkpt lat="41.811101" lon="0.676869">
        <ele>342.124</ele>
        <time>2020-08-23T06:50:24Z</time>
      </trkpt>
      <trkpt lat="41.811099" lon="0.676802">
        <ele>342.226</ele>
        <time>2020-08-23T06:50:25Z</time>
      </trkpt>
      <trkpt lat="41.811100" lon="0.676686">
        <ele>342.408</ele>
        <time>2020-08-23T06:50:27Z</time>
      </trkpt>
      <trkpt lat="41.811118" lon="0.676589">
        <ele>342.673</ele>
        <time>2020-08-23T06:50:29Z</time>
      </trkpt>
      <trkpt lat="41.811133" lon="0.676490">
        <ele>342.893</ele>
        <time>2020-08-23T06:50:31Z</time>
      </trkpt>
      <trkpt lat="41.811159" lon="0.676382">
        <ele>342.921</ele>
        <time>2020-08-23T06:50:33Z</time>
      </trkpt>
      <trkpt lat="41.811185" lon="0.676307">
        <ele>343.063</ele>
        <time>2020-08-23T06:50:35Z</time>
      </trkpt>
      <trkpt lat="41.811209" lon="0.676227">
        <ele>343.254</ele>
        <time>2020-08-23T06:50:37Z</time>
      </trkpt>
      <trkpt lat="41.811231" lon="0.676141">
        <ele>343.635</ele>
        <time>2020-08-23T06:50:39Z</time>
      </trkpt>
      <trkpt lat="41.811264" lon="0.676053">
        <ele>343.871</ele>
        <time>2020-08-23T06:50:41Z</time>
      </trkpt>
      <trkpt lat="41.811286" lon="0.675976">
        <ele>344.040</ele>
        <time>2020-08-23T06:50:43Z</time>
      </trkpt>
      <trkpt lat="41.811300" lon="0.675898">
        <ele>344.386</ele>
        <time>2020-08-23T06:50:45Z</time>
      </trkpt>
      <trkpt lat="41.811305" lon="0.675812">
        <ele>344.760</ele>
        <time>2020-08-23T06:50:47Z</time>
      </trkpt>
      <trkpt lat="41.811307" lon="0.675728">
        <ele>345.226</ele>
        <time>2020-08-23T06:50:49Z</time>
      </trkpt>
      <trkpt lat="41.811313" lon="0.675658">
        <ele>345.808</ele>
        <time>2020-08-23T06:50:51Z</time>
      </trkpt>
      <trkpt lat="41.811311" lon="0.675573">
        <ele>346.573</ele>
        <time>2020-08-23T06:50:54Z</time>
      </trkpt>
      <trkpt lat="41.811316" lon="0.675513">
        <ele>346.853</ele>
        <time>2020-08-23T06:50:56Z</time>
      </trkpt>
      <trkpt lat="41.811335" lon="0.675457">
        <ele>347.041</ele>
        <time>2020-08-23T06:50:58Z</time>
      </trkpt>
      <trkpt lat="41.811378" lon="0.675420">
        <ele>347.143</ele>
        <time>2020-08-23T06:51:00Z</time>
      </trkpt>
      <trkpt lat="41.811434" lon="0.675413">
        <ele>347.334</ele>
        <time>2020-08-23T06:51:02Z</time>
      </trkpt>
      <trkpt lat="41.811491" lon="0.675413">
        <ele>347.515</ele>
        <time>2020-08-23T06:51:04Z</time>
      </trkpt>
      <trkpt lat="41.811550" lon="0.675410">
        <ele>347.721</ele>
        <time>2020-08-23T06:51:06Z</time>
      </trkpt>
      <trkpt lat="41.811605" lon="0.675388">
        <ele>348.010</ele>
        <time>2020-08-23T06:51:08Z</time>
      </trkpt>
      <trkpt lat="41.811659" lon="0.675326">
        <ele>348.224</ele>
        <time>2020-08-23T06:51:10Z</time>
      </trkpt>
      <trkpt lat="41.811687" lon="0.675270">
        <ele>348.304</ele>
        <time>2020-08-23T06:51:12Z</time>
      </trkpt>
      <trkpt lat="41.811702" lon="0.675187">
        <ele>348.314</ele>
        <time>2020-08-23T06:51:14Z</time>
      </trkpt>
      <trkpt lat="41.811707" lon="0.675081">
        <ele>348.108</ele>
        <time>2020-08-23T06:51:16Z</time>
      </trkpt>
      <trkpt lat="41.811700" lon="0.674972">
        <ele>348.047</ele>
        <time>2020-08-23T06:51:18Z</time>
      </trkpt>
      <trkpt lat="41.811691" lon="0.674860">
        <ele>348.077</ele>
        <time>2020-08-23T06:51:20Z</time>
      </trkpt>
      <trkpt lat="41.811688" lon="0.674800">
        <ele>348.045</ele>
        <time>2020-08-23T06:51:21Z</time>
      </trkpt>
      <trkpt lat="41.811688" lon="0.674684">
        <ele>348.147</ele>
        <time>2020-08-23T06:51:23Z</time>
      </trkpt>
      <trkpt lat="41.811692" lon="0.674609">
        <ele>348.188</ele>
        <time>2020-08-23T06:51:24Z</time>
      </trkpt>
      <trkpt lat="41.811694" lon="0.674547">
        <ele>348.199</ele>
        <time>2020-08-23T06:51:25Z</time>
      </trkpt>
      <trkpt lat="41.811698" lon="0.674484">
        <ele>348.075</ele>
        <time>2020-08-23T06:51:26Z</time>
      </trkpt>
      <trkpt lat="41.811700" lon="0.674424">
        <ele>347.974</ele>
        <time>2020-08-23T06:51:27Z</time>
      </trkpt>
      <trkpt lat="41.811703" lon="0.674309">
        <ele>347.855</ele>
        <time>2020-08-23T06:51:29Z</time>
      </trkpt>
      <trkpt lat="41.811704" lon="0.674186">
        <ele>347.807</ele>
        <time>2020-08-23T06:51:31Z</time>
      </trkpt>
      <trkpt lat="41.811702" lon="0.674124">
        <ele>347.817</ele>
        <time>2020-08-23T06:51:32Z</time>
      </trkpt>
      <trkpt lat="41.811706" lon="0.674011">
        <ele>347.908</ele>
        <time>2020-08-23T06:51:34Z</time>
      </trkpt>
      <trkpt lat="41.811708" lon="0.673894">
        <ele>348.040</ele>
        <time>2020-08-23T06:51:36Z</time>
      </trkpt>
      <trkpt lat="41.811711" lon="0.673778">
        <ele>348.050</ele>
        <time>2020-08-23T06:51:38Z</time>
      </trkpt>
      <trkpt lat="41.811712" lon="0.673661">
        <ele>348.048</ele>
        <time>2020-08-23T06:51:40Z</time>
      </trkpt>
      <trkpt lat="41.811721" lon="0.673551">
        <ele>348.020</ele>
        <time>2020-08-23T06:51:42Z</time>
      </trkpt>
      <trkpt lat="41.811727" lon="0.673489">
        <ele>348.021</ele>
        <time>2020-08-23T06:51:43Z</time>
      </trkpt>
      <trkpt lat="41.811738" lon="0.673427">
        <ele>348.072</ele>
        <time>2020-08-23T06:51:44Z</time>
      </trkpt>
      <trkpt lat="41.811754" lon="0.673323">
        <ele>348.268</ele>
        <time>2020-08-23T06:51:46Z</time>
      </trkpt>
      <trkpt lat="41.811764" lon="0.673223">
        <ele>348.547</ele>
        <time>2020-08-23T06:51:48Z</time>
      </trkpt>
      <trkpt lat="41.811761" lon="0.673150">
        <ele>348.964</ele>
        <time>2020-08-23T06:51:50Z</time>
      </trkpt>
      <trkpt lat="41.811760" lon="0.673069">
        <ele>349.306</ele>
        <time>2020-08-23T06:51:52Z</time>
      </trkpt>
      <trkpt lat="41.811757" lon="0.672976">
        <ele>349.516</ele>
        <time>2020-08-23T06:51:54Z</time>
      </trkpt>
      <trkpt lat="41.811754" lon="0.672881">
        <ele>349.608</ele>
        <time>2020-08-23T06:51:56Z</time>
      </trkpt>
      <trkpt lat="41.811747" lon="0.672786">
        <ele>349.661</ele>
        <time>2020-08-23T06:51:58Z</time>
      </trkpt>
      <trkpt lat="41.811738" lon="0.672700">
        <ele>349.691</ele>
        <time>2020-08-23T06:52:00Z</time>
      </trkpt>
      <trkpt lat="41.811737" lon="0.672622">
        <ele>349.729</ele>
        <time>2020-08-23T06:52:02Z</time>
      </trkpt>
      <trkpt lat="41.811731" lon="0.672519">
        <ele>349.871</ele>
        <time>2020-08-23T06:52:04Z</time>
      </trkpt>
      <trkpt lat="41.811728" lon="0.672456">
        <ele>349.912</ele>
        <time>2020-08-23T06:52:05Z</time>
      </trkpt>
      <trkpt lat="41.811725" lon="0.672344">
        <ele>350.093</ele>
        <time>2020-08-23T06:52:07Z</time>
      </trkpt>
      <trkpt lat="41.811738" lon="0.672235">
        <ele>349.969</ele>
        <time>2020-08-23T06:52:09Z</time>
      </trkpt>
      <trkpt lat="41.811752" lon="0.672171">
        <ele>349.758</ele>
        <time>2020-08-23T06:52:10Z</time>
      </trkpt>
      <trkpt lat="41.811766" lon="0.672099">
        <ele>349.572</ele>
        <time>2020-08-23T06:52:11Z</time>
      </trkpt>
      <trkpt lat="41.811780" lon="0.672019">
        <ele>349.213</ele>
        <time>2020-08-23T06:52:12Z</time>
      </trkpt>
      <trkpt lat="41.811799" lon="0.671933">
        <ele>348.814</ele>
        <time>2020-08-23T06:52:13Z</time>
      </trkpt>
      <trkpt lat="41.811822" lon="0.671849">
        <ele>348.308</ele>
        <time>2020-08-23T06:52:14Z</time>
      </trkpt>
      <trkpt lat="41.811852" lon="0.671764">
        <ele>347.882</ele>
        <time>2020-08-23T06:52:15Z</time>
      </trkpt>
      <trkpt lat="41.811886" lon="0.671673">
        <ele>347.392</ele>
        <time>2020-08-23T06:52:16Z</time>
      </trkpt>
      <trkpt lat="41.811917" lon="0.671589">
        <ele>346.940</ele>
        <time>2020-08-23T06:52:17Z</time>
      </trkpt>
      <trkpt lat="41.811950" lon="0.671503">
        <ele>346.592</ele>
        <time>2020-08-23T06:52:18Z</time>
      </trkpt>
      <trkpt lat="41.811980" lon="0.671407">
        <ele>346.243</ele>
        <time>2020-08-23T06:52:19Z</time>
      </trkpt>
      <trkpt lat="41.812007" lon="0.671311">
        <ele>346.024</ele>
        <time>2020-08-23T06:52:20Z</time>
      </trkpt>
      <trkpt lat="41.812032" lon="0.671215">
        <ele>345.860</ele>
        <time>2020-08-23T06:52:21Z</time>
      </trkpt>
      <trkpt lat="41.812055" lon="0.671130">
        <ele>345.779</ele>
        <time>2020-08-23T06:52:22Z</time>
      </trkpt>
      <trkpt lat="41.812077" lon="0.671041">
        <ele>345.529</ele>
        <time>2020-08-23T06:52:23Z</time>
      </trkpt>
      <trkpt lat="41.812097" lon="0.670950">
        <ele>345.300</ele>
        <time>2020-08-23T06:52:24Z</time>
      </trkpt>
      <trkpt lat="41.812113" lon="0.670855">
        <ele>345.220</ele>
        <time>2020-08-23T06:52:25Z</time>
      </trkpt>
      <trkpt lat="41.812126" lon="0.670764">
        <ele>345.108</ele>
        <time>2020-08-23T06:52:26Z</time>
      </trkpt>
      <trkpt lat="41.812138" lon="0.670687">
        <ele>344.957</ele>
        <time>2020-08-23T06:52:27Z</time>
      </trkpt>
      <trkpt lat="41.812148" lon="0.670609">
        <ele>344.997</ele>
        <time>2020-08-23T06:52:28Z</time>
      </trkpt>
      <trkpt lat="41.812160" lon="0.670536">
        <ele>344.995</ele>
        <time>2020-08-23T06:52:29Z</time>
      </trkpt>
      <trkpt lat="41.812172" lon="0.670459">
        <ele>344.967</ele>
        <time>2020-08-23T06:52:30Z</time>
      </trkpt>
      <trkpt lat="41.812187" lon="0.670382">
        <ele>344.948</ele>
        <time>2020-08-23T06:52:31Z</time>
      </trkpt>
      <trkpt lat="41.812199" lon="0.670309">
        <ele>344.959</ele>
        <time>2020-08-23T06:52:32Z</time>
      </trkpt>
      <trkpt lat="41.812209" lon="0.670233">
        <ele>344.945</ele>
        <time>2020-08-23T06:52:33Z</time>
      </trkpt>
      <trkpt lat="41.812219" lon="0.670160">
        <ele>344.914</ele>
        <time>2020-08-23T06:52:34Z</time>
      </trkpt>
      <trkpt lat="41.812225" lon="0.670087">
        <ele>344.964</ele>
        <time>2020-08-23T06:52:35Z</time>
      </trkpt>
      <trkpt lat="41.812233" lon="0.670020">
        <ele>344.906</ele>
        <time>2020-08-23T06:52:36Z</time>
      </trkpt>
      <trkpt lat="41.812235" lon="0.669949">
        <ele>344.916</ele>
        <time>2020-08-23T06:52:37Z</time>
      </trkpt>
      <trkpt lat="41.812231" lon="0.669881">
        <ele>344.908</ele>
        <time>2020-08-23T06:52:38Z</time>
      </trkpt>
      <trkpt lat="41.812231" lon="0.669814">
        <ele>344.991</ele>
        <time>2020-08-23T06:52:39Z</time>
      </trkpt>
      <trkpt lat="41.812228" lon="0.669743">
        <ele>344.921</ele>
        <time>2020-08-23T06:52:40Z</time>
      </trkpt>
      <trkpt lat="41.812218" lon="0.669671">
        <ele>344.929</ele>
        <time>2020-08-23T06:52:41Z</time>
      </trkpt>
      <trkpt lat="41.812208" lon="0.669600">
        <ele>344.921</ele>
        <time>2020-08-23T06:52:42Z</time>
      </trkpt>
      <trkpt lat="41.812198" lon="0.669530">
        <ele>344.972</ele>
        <time>2020-08-23T06:52:43Z</time>
      </trkpt>
      <trkpt lat="41.812189" lon="0.669464">
        <ele>344.943</ele>
        <time>2020-08-23T06:52:44Z</time>
      </trkpt>
      <trkpt lat="41.812178" lon="0.669398">
        <ele>344.989</ele>
        <time>2020-08-23T06:52:45Z</time>
      </trkpt>
      <trkpt lat="41.812173" lon="0.669338">
        <ele>344.978</ele>
        <time>2020-08-23T06:52:46Z</time>
      </trkpt>
      <trkpt lat="41.812175" lon="0.669215">
        <ele>345.141</ele>
        <time>2020-08-23T06:52:48Z</time>
      </trkpt>
      <trkpt lat="41.812178" lon="0.669153">
        <ele>345.281</ele>
        <time>2020-08-23T06:52:49Z</time>
      </trkpt>
      <trkpt lat="41.812187" lon="0.669038">
        <ele>345.509</ele>
        <time>2020-08-23T06:52:51Z</time>
      </trkpt>
      <trkpt lat="41.812201" lon="0.668926">
        <ele>345.708</ele>
        <time>2020-08-23T06:52:53Z</time>
      </trkpt>
      <trkpt lat="41.812222" lon="0.668819">
        <ele>346.019</ele>
        <time>2020-08-23T06:52:55Z</time>
      </trkpt>
      <trkpt lat="41.812243" lon="0.668726">
        <ele>346.279</ele>
        <time>2020-08-23T06:52:57Z</time>
      </trkpt>
      <trkpt lat="41.812266" lon="0.668636">
        <ele>346.457</ele>
        <time>2020-08-23T06:52:59Z</time>
      </trkpt>
      <trkpt lat="41.812298" lon="0.668537">
        <ele>346.649</ele>
        <time>2020-08-23T06:53:01Z</time>
      </trkpt>
      <trkpt lat="41.812321" lon="0.668427">
        <ele>346.790</ele>
        <time>2020-08-23T06:53:03Z</time>
      </trkpt>
      <trkpt lat="41.812330" lon="0.668308">
        <ele>346.711</ele>
        <time>2020-08-23T06:53:05Z</time>
      </trkpt>
      <trkpt lat="41.812338" lon="0.668191">
        <ele>346.787</ele>
        <time>2020-08-23T06:53:07Z</time>
      </trkpt>
      <trkpt lat="41.812354" lon="0.668082">
        <ele>346.786</ele>
        <time>2020-08-23T06:53:09Z</time>
      </trkpt>
      <trkpt lat="41.812362" lon="0.667968">
        <ele>346.744</ele>
        <time>2020-08-23T06:53:11Z</time>
      </trkpt>
      <trkpt lat="41.812370" lon="0.667859">
        <ele>346.705</ele>
        <time>2020-08-23T06:53:13Z</time>
      </trkpt>
      <trkpt lat="41.812380" lon="0.667751">
        <ele>346.815</ele>
        <time>2020-08-23T06:53:15Z</time>
      </trkpt>
      <trkpt lat="41.812374" lon="0.667640">
        <ele>346.908</ele>
        <time>2020-08-23T06:53:17Z</time>
      </trkpt>
      <trkpt lat="41.812371" lon="0.667579">
        <ele>346.999</ele>
        <time>2020-08-23T06:53:18Z</time>
      </trkpt>
      <trkpt lat="41.812364" lon="0.667462">
        <ele>347.059</ele>
        <time>2020-08-23T06:53:20Z</time>
      </trkpt>
      <trkpt lat="41.812351" lon="0.667351">
        <ele>347.227</ele>
        <time>2020-08-23T06:53:22Z</time>
      </trkpt>
      <trkpt lat="41.812345" lon="0.667246">
        <ele>347.469</ele>
        <time>2020-08-23T06:53:24Z</time>
      </trkpt>
      <trkpt lat="41.812336" lon="0.667139">
        <ele>347.750</ele>
        <time>2020-08-23T06:53:26Z</time>
      </trkpt>
      <trkpt lat="41.812326" lon="0.667043">
        <ele>348.021</ele>
        <time>2020-08-23T06:53:28Z</time>
      </trkpt>
      <trkpt lat="41.812327" lon="0.666950">
        <ele>348.237</ele>
        <time>2020-08-23T06:53:30Z</time>
      </trkpt>
      <trkpt lat="41.812336" lon="0.666860">
        <ele>348.466</ele>
        <time>2020-08-23T06:53:32Z</time>
      </trkpt>
      <trkpt lat="41.812345" lon="0.666763">
        <ele>348.556</ele>
        <time>2020-08-23T06:53:34Z</time>
      </trkpt>
      <trkpt lat="41.812359" lon="0.666670">
        <ele>348.759</ele>
        <time>2020-08-23T06:53:36Z</time>
      </trkpt>
      <trkpt lat="41.812363" lon="0.666583">
        <ele>348.914</ele>
        <time>2020-08-23T06:53:38Z</time>
      </trkpt>
      <trkpt lat="41.812364" lon="0.666494">
        <ele>349.308</ele>
        <time>2020-08-23T06:53:40Z</time>
      </trkpt>
      <trkpt lat="41.812368" lon="0.666399">
        <ele>349.530</ele>
        <time>2020-08-23T06:53:42Z</time>
      </trkpt>
      <trkpt lat="41.812372" lon="0.666299">
        <ele>349.650</ele>
        <time>2020-08-23T06:53:44Z</time>
      </trkpt>
      <trkpt lat="41.812383" lon="0.666193">
        <ele>349.788</ele>
        <time>2020-08-23T06:53:46Z</time>
      </trkpt>
      <trkpt lat="41.812394" lon="0.666091">
        <ele>349.860</ele>
        <time>2020-08-23T06:53:48Z</time>
      </trkpt>
      <trkpt lat="41.812402" lon="0.665996">
        <ele>349.891</ele>
        <time>2020-08-23T06:53:50Z</time>
      </trkpt>
      <trkpt lat="41.812407" lon="0.665908">
        <ele>349.882</ele>
        <time>2020-08-23T06:53:52Z</time>
      </trkpt>
      <trkpt lat="41.812411" lon="0.665808">
        <ele>349.918</ele>
        <time>2020-08-23T06:53:54Z</time>
      </trkpt>
      <trkpt lat="41.812413" lon="0.665698">
        <ele>350.057</ele>
        <time>2020-08-23T06:53:56Z</time>
      </trkpt>
      <trkpt lat="41.812412" lon="0.665635">
        <ele>350.011</ele>
        <time>2020-08-23T06:53:57Z</time>
      </trkpt>
      <trkpt lat="41.812406" lon="0.665522">
        <ele>350.121</ele>
        <time>2020-08-23T06:53:59Z</time>
      </trkpt>
      <trkpt lat="41.812401" lon="0.665412">
        <ele>350.203</ele>
        <time>2020-08-23T06:54:01Z</time>
      </trkpt>
      <trkpt lat="41.812398" lon="0.665300">
        <ele>350.308</ele>
        <time>2020-08-23T06:54:03Z</time>
      </trkpt>
      <trkpt lat="41.812398" lon="0.665192">
        <ele>350.466</ele>
        <time>2020-08-23T06:54:05Z</time>
      </trkpt>
      <trkpt lat="41.812383" lon="0.665077">
        <ele>350.566</ele>
        <time>2020-08-23T06:54:07Z</time>
      </trkpt>
      <trkpt lat="41.812367" lon="0.664971">
        <ele>350.634</ele>
        <time>2020-08-23T06:54:09Z</time>
      </trkpt>
      <trkpt lat="41.812351" lon="0.664869">
        <ele>350.716</ele>
        <time>2020-08-23T06:54:11Z</time>
      </trkpt>
      <trkpt lat="41.812343" lon="0.664778">
        <ele>350.867</ele>
        <time>2020-08-23T06:54:13Z</time>
      </trkpt>
      <trkpt lat="41.812327" lon="0.664669">
        <ele>350.988</ele>
        <time>2020-08-23T06:54:15Z</time>
      </trkpt>
      <trkpt lat="41.812324" lon="0.664559">
        <ele>351.294</ele>
        <time>2020-08-23T06:54:17Z</time>
      </trkpt>
      <trkpt lat="41.812326" lon="0.664458">
        <ele>351.593</ele>
        <time>2020-08-23T06:54:19Z</time>
      </trkpt>
      <trkpt lat="41.812325" lon="0.664359">
        <ele>351.852</ele>
        <time>2020-08-23T06:54:21Z</time>
      </trkpt>
      <trkpt lat="41.812314" lon="0.664255">
        <ele>352.053</ele>
        <time>2020-08-23T06:54:23Z</time>
      </trkpt>
      <trkpt lat="41.812310" lon="0.664191">
        <ele>352.008</ele>
        <time>2020-08-23T06:54:24Z</time>
      </trkpt>
      <trkpt lat="41.812292" lon="0.664117">
        <ele>351.908</ele>
        <time>2020-08-23T06:54:25Z</time>
      </trkpt>
      <trkpt lat="41.812274" lon="0.664036">
        <ele>351.790</ele>
        <time>2020-08-23T06:54:26Z</time>
      </trkpt>
      <trkpt lat="41.812250" lon="0.663958">
        <ele>351.420</ele>
        <time>2020-08-23T06:54:27Z</time>
      </trkpt>
      <trkpt lat="41.812218" lon="0.663885">
        <ele>351.018</ele>
        <time>2020-08-23T06:54:28Z</time>
      </trkpt>
      <trkpt lat="41.812190" lon="0.663810">
        <ele>350.660</ele>
        <time>2020-08-23T06:54:29Z</time>
      </trkpt>
      <trkpt lat="41.812164" lon="0.663732">
        <ele>350.291</ele>
        <time>2020-08-23T06:54:30Z</time>
      </trkpt>
      <trkpt lat="41.812139" lon="0.663652">
        <ele>349.882</ele>
        <time>2020-08-23T06:54:31Z</time>
      </trkpt>
      <trkpt lat="41.812123" lon="0.663567">
        <ele>349.488</ele>
        <time>2020-08-23T06:54:32Z</time>
      </trkpt>
      <trkpt lat="41.812110" lon="0.663481">
        <ele>349.197</ele>
        <time>2020-08-23T06:54:33Z</time>
      </trkpt>
      <trkpt lat="41.812115" lon="0.663388">
        <ele>348.763</ele>
        <time>2020-08-23T06:54:34Z</time>
      </trkpt>
      <trkpt lat="41.812116" lon="0.663286">
        <ele>347.844</ele>
        <time>2020-08-23T06:54:35Z</time>
      </trkpt>
      <trkpt lat="41.812123" lon="0.663184">
        <ele>347.418</ele>
        <time>2020-08-23T06:54:36Z</time>
      </trkpt>
      <trkpt lat="41.812138" lon="0.663088">
        <ele>347.008</ele>
        <time>2020-08-23T06:54:37Z</time>
      </trkpt>
      <trkpt lat="41.812151" lon="0.662994">
        <ele>346.741</ele>
        <time>2020-08-23T06:54:38Z</time>
      </trkpt>
      <trkpt lat="41.812159" lon="0.662898">
        <ele>346.451</ele>
        <time>2020-08-23T06:54:39Z</time>
      </trkpt>
      <trkpt lat="41.812172" lon="0.662804">
        <ele>346.279</ele>
        <time>2020-08-23T06:54:40Z</time>
      </trkpt>
      <trkpt lat="41.812178" lon="0.662711">
        <ele>346.181</ele>
        <time>2020-08-23T06:54:41Z</time>
      </trkpt>
      <trkpt lat="41.812179" lon="0.662620">
        <ele>346.092</ele>
        <time>2020-08-23T06:54:42Z</time>
      </trkpt>
      <trkpt lat="41.812182" lon="0.662529">
        <ele>345.973</ele>
        <time>2020-08-23T06:54:43Z</time>
      </trkpt>
      <trkpt lat="41.812179" lon="0.662440">
        <ele>345.839</ele>
        <time>2020-08-23T06:54:44Z</time>
      </trkpt>
      <trkpt lat="41.812173" lon="0.662354">
        <ele>345.748</ele>
        <time>2020-08-23T06:54:45Z</time>
      </trkpt>
      <trkpt lat="41.812165" lon="0.662270">
        <ele>345.649</ele>
        <time>2020-08-23T06:54:46Z</time>
      </trkpt>
      <trkpt lat="41.812156" lon="0.662187">
        <ele>345.502</ele>
        <time>2020-08-23T06:54:47Z</time>
      </trkpt>
      <trkpt lat="41.812145" lon="0.662105">
        <ele>345.422</ele>
        <time>2020-08-23T06:54:48Z</time>
      </trkpt>
      <trkpt lat="41.812137" lon="0.662023">
        <ele>345.408</ele>
        <time>2020-08-23T06:54:49Z</time>
      </trkpt>
      <trkpt lat="41.812125" lon="0.661941">
        <ele>345.459</ele>
        <time>2020-08-23T06:54:50Z</time>
      </trkpt>
      <trkpt lat="41.812113" lon="0.661862">
        <ele>345.469</ele>
        <time>2020-08-23T06:54:51Z</time>
      </trkpt>
      <trkpt lat="41.812098" lon="0.661781">
        <ele>345.487</ele>
        <time>2020-08-23T06:54:52Z</time>
      </trkpt>
      <trkpt lat="41.812087" lon="0.661698">
        <ele>345.479</ele>
        <time>2020-08-23T06:54:53Z</time>
      </trkpt>
      <trkpt lat="41.812079" lon="0.661618">
        <ele>345.440</ele>
        <time>2020-08-23T06:54:54Z</time>
      </trkpt>
      <trkpt lat="41.812065" lon="0.661540">
        <ele>345.341</ele>
        <time>2020-08-23T06:54:55Z</time>
      </trkpt>
      <trkpt lat="41.812056" lon="0.661458">
        <ele>345.227</ele>
        <time>2020-08-23T06:54:56Z</time>
      </trkpt>
      <trkpt lat="41.812048" lon="0.661374">
        <ele>345.176</ele>
        <time>2020-08-23T06:54:57Z</time>
      </trkpt>
      <trkpt lat="41.812047" lon="0.661284">
        <ele>345.031</ele>
        <time>2020-08-23T06:54:58Z</time>
      </trkpt>
      <trkpt lat="41.812040" lon="0.661195">
        <ele>344.961</ele>
        <time>2020-08-23T06:54:59Z</time>
      </trkpt>
      <trkpt lat="41.812028" lon="0.661109">
        <ele>344.807</ele>
        <time>2020-08-23T06:55:00Z</time>
      </trkpt>
      <trkpt lat="41.812016" lon="0.661027">
        <ele>344.708</ele>
        <time>2020-08-23T06:55:01Z</time>
      </trkpt>
      <trkpt lat="41.812002" lon="0.660949">
        <ele>344.698</ele>
        <time>2020-08-23T06:55:02Z</time>
      </trkpt>
      <trkpt lat="41.811984" lon="0.660874">
        <ele>344.548</ele>
        <time>2020-08-23T06:55:03Z</time>
      </trkpt>
      <trkpt lat="41.811970" lon="0.660797">
        <ele>344.596</ele>
        <time>2020-08-23T06:55:04Z</time>
      </trkpt>
      <trkpt lat="41.811956" lon="0.660717">
        <ele>344.598</ele>
        <time>2020-08-23T06:55:05Z</time>
      </trkpt>
      <trkpt lat="41.811937" lon="0.660646">
        <ele>344.579</ele>
        <time>2020-08-23T06:55:06Z</time>
      </trkpt>
      <trkpt lat="41.811921" lon="0.660576">
        <ele>344.510</ele>
        <time>2020-08-23T06:55:07Z</time>
      </trkpt>
      <trkpt lat="41.811905" lon="0.660503">
        <ele>344.586</ele>
        <time>2020-08-23T06:55:08Z</time>
      </trkpt>
      <trkpt lat="41.811890" lon="0.660427">
        <ele>344.525</ele>
        <time>2020-08-23T06:55:09Z</time>
      </trkpt>
      <trkpt lat="41.811874" lon="0.660346">
        <ele>344.532</ele>
        <time>2020-08-23T06:55:10Z</time>
      </trkpt>
      <trkpt lat="41.811854" lon="0.660261">
        <ele>344.292</ele>
        <time>2020-08-23T06:55:11Z</time>
      </trkpt>
      <trkpt lat="41.811837" lon="0.660172">
        <ele>343.911</ele>
        <time>2020-08-23T06:55:12Z</time>
      </trkpt>
      <trkpt lat="41.811825" lon="0.660077">
        <ele>343.708</ele>
        <time>2020-08-23T06:55:13Z</time>
      </trkpt>
      <trkpt lat="41.811813" lon="0.659981">
        <ele>343.498</ele>
        <time>2020-08-23T06:55:14Z</time>
      </trkpt>
      <trkpt lat="41.811806" lon="0.659883">
        <ele>343.138</ele>
        <time>2020-08-23T06:55:15Z</time>
      </trkpt>
      <trkpt lat="41.811801" lon="0.659783">
        <ele>342.826</ele>
        <time>2020-08-23T06:55:16Z</time>
      </trkpt>
      <trkpt lat="41.811800" lon="0.659687">
        <ele>342.618</ele>
        <time>2020-08-23T06:55:17Z</time>
      </trkpt>
      <trkpt lat="41.811800" lon="0.659594">
        <ele>342.459</ele>
        <time>2020-08-23T06:55:18Z</time>
      </trkpt>
      <trkpt lat="41.811799" lon="0.659498">
        <ele>342.380</ele>
        <time>2020-08-23T06:55:19Z</time>
      </trkpt>
      <trkpt lat="41.811801" lon="0.659403">
        <ele>342.256</ele>
        <time>2020-08-23T06:55:20Z</time>
      </trkpt>
      <trkpt lat="41.811801" lon="0.659311">
        <ele>342.155</ele>
        <time>2020-08-23T06:55:21Z</time>
      </trkpt>
      <trkpt lat="41.811805" lon="0.659224">
        <ele>342.062</ele>
        <time>2020-08-23T06:55:22Z</time>
      </trkpt>
      <trkpt lat="41.811804" lon="0.659139">
        <ele>341.983</ele>
        <time>2020-08-23T06:55:23Z</time>
      </trkpt>
      <trkpt lat="41.811797" lon="0.659052">
        <ele>341.811</ele>
        <time>2020-08-23T06:55:24Z</time>
      </trkpt>
      <trkpt lat="41.811787" lon="0.658966">
        <ele>341.808</ele>
        <time>2020-08-23T06:55:25Z</time>
      </trkpt>
      <trkpt lat="41.811772" lon="0.658879">
        <ele>341.861</ele>
        <time>2020-08-23T06:55:26Z</time>
      </trkpt>
      <trkpt lat="41.811746" lon="0.658798">
        <ele>341.821</ele>
        <time>2020-08-23T06:55:27Z</time>
      </trkpt>
      <trkpt lat="41.811723" lon="0.658723">
        <ele>341.849</ele>
        <time>2020-08-23T06:55:28Z</time>
      </trkpt>
      <trkpt lat="41.811698" lon="0.658650">
        <ele>341.981</ele>
        <time>2020-08-23T06:55:29Z</time>
      </trkpt>
      <trkpt lat="41.811672" lon="0.658580">
        <ele>342.052</ele>
        <time>2020-08-23T06:55:30Z</time>
      </trkpt>
      <trkpt lat="41.811646" lon="0.658511">
        <ele>342.043</ele>
        <time>2020-08-23T06:55:31Z</time>
      </trkpt>
      <trkpt lat="41.811619" lon="0.658444">
        <ele>342.049</ele>
        <time>2020-08-23T06:55:32Z</time>
      </trkpt>
      <trkpt lat="41.811598" lon="0.658373">
        <ele>342.098</ele>
        <time>2020-08-23T06:55:33Z</time>
      </trkpt>
      <trkpt lat="41.811577" lon="0.658302">
        <ele>342.042</ele>
        <time>2020-08-23T06:55:34Z</time>
      </trkpt>
      <trkpt lat="41.811560" lon="0.658229">
        <ele>342.022</ele>
        <time>2020-08-23T06:55:35Z</time>
      </trkpt>
      <trkpt lat="41.811541" lon="0.658155">
        <ele>341.914</ele>
        <time>2020-08-23T06:55:36Z</time>
      </trkpt>
      <trkpt lat="41.811528" lon="0.658076">
        <ele>341.908</ele>
        <time>2020-08-23T06:55:37Z</time>
      </trkpt>
      <trkpt lat="41.811519" lon="0.657996">
        <ele>341.849</ele>
        <time>2020-08-23T06:55:38Z</time>
      </trkpt>
      <trkpt lat="41.811513" lon="0.657913">
        <ele>341.719</ele>
        <time>2020-08-23T06:55:39Z</time>
      </trkpt>
      <trkpt lat="41.811503" lon="0.657832">
        <ele>341.687</ele>
        <time>2020-08-23T06:55:40Z</time>
      </trkpt>
      <trkpt lat="41.811498" lon="0.657749">
        <ele>341.519</ele>
        <time>2020-08-23T06:55:41Z</time>
      </trkpt>
      <trkpt lat="41.811506" lon="0.657668">
        <ele>341.460</ele>
        <time>2020-08-23T06:55:42Z</time>
      </trkpt>
      <trkpt lat="41.811505" lon="0.657585">
        <ele>341.321</ele>
        <time>2020-08-23T06:55:43Z</time>
      </trkpt>
      <trkpt lat="41.811507" lon="0.657501">
        <ele>341.247</ele>
        <time>2020-08-23T06:55:44Z</time>
      </trkpt>
      <trkpt lat="41.811510" lon="0.657417">
        <ele>341.296</ele>
        <time>2020-08-23T06:55:45Z</time>
      </trkpt>
      <trkpt lat="41.811517" lon="0.657340">
        <ele>341.139</ele>
        <time>2020-08-23T06:55:46Z</time>
      </trkpt>
      <trkpt lat="41.811527" lon="0.657264">
        <ele>341.001</ele>
        <time>2020-08-23T06:55:47Z</time>
      </trkpt>
      <trkpt lat="41.811539" lon="0.657186">
        <ele>341.021</ele>
        <time>2020-08-23T06:55:48Z</time>
      </trkpt>
      <trkpt lat="41.811551" lon="0.657110">
        <ele>341.008</ele>
        <time>2020-08-23T06:55:49Z</time>
      </trkpt>
      <trkpt lat="41.811565" lon="0.657035">
        <ele>341.028</ele>
        <time>2020-08-23T06:55:50Z</time>
      </trkpt>
      <trkpt lat="41.811568" lon="0.656959">
        <ele>340.958</ele>
        <time>2020-08-23T06:55:51Z</time>
      </trkpt>
      <trkpt lat="41.811575" lon="0.656880">
        <ele>340.856</ele>
        <time>2020-08-23T06:55:52Z</time>
      </trkpt>
      <trkpt lat="41.811584" lon="0.656799">
        <ele>340.738</ele>
        <time>2020-08-23T06:55:53Z</time>
      </trkpt>
      <trkpt lat="41.811593" lon="0.656715">
        <ele>340.669</ele>
        <time>2020-08-23T06:55:54Z</time>
      </trkpt>
      <trkpt lat="41.811602" lon="0.656630">
        <ele>340.590</ele>
        <time>2020-08-23T06:55:55Z</time>
      </trkpt>
      <trkpt lat="41.811607" lon="0.656547">
        <ele>340.456</ele>
        <time>2020-08-23T06:55:56Z</time>
      </trkpt>
      <trkpt lat="41.811613" lon="0.656463">
        <ele>340.345</ele>
        <time>2020-08-23T06:55:57Z</time>
      </trkpt>
      <trkpt lat="41.811617" lon="0.656376">
        <ele>340.255</ele>
        <time>2020-08-23T06:55:58Z</time>
      </trkpt>
      <trkpt lat="41.811624" lon="0.656289">
        <ele>340.107</ele>
        <time>2020-08-23T06:55:59Z</time>
      </trkpt>
      <trkpt lat="41.811633" lon="0.656206">
        <ele>339.917</ele>
        <time>2020-08-23T06:56:00Z</time>
      </trkpt>
      <trkpt lat="41.811640" lon="0.656120">
        <ele>339.708</ele>
        <time>2020-08-23T06:56:01Z</time>
      </trkpt>
      <trkpt lat="41.811651" lon="0.656034">
        <ele>339.510</ele>
        <time>2020-08-23T06:56:02Z</time>
      </trkpt>
      <trkpt lat="41.811658" lon="0.655947">
        <ele>339.310</ele>
        <time>2020-08-23T06:56:03Z</time>
      </trkpt>
      <trkpt lat="41.811668" lon="0.655861">
        <ele>339.148</ele>
        <time>2020-08-23T06:56:04Z</time>
      </trkpt>
      <trkpt lat="41.811676" lon="0.655774">
        <ele>338.960</ele>
        <time>2020-08-23T06:56:05Z</time>
      </trkpt>
      <trkpt lat="41.811683" lon="0.655686">
        <ele>338.671</ele>
        <time>2020-08-23T06:56:06Z</time>
      </trkpt>
      <trkpt lat="41.811692" lon="0.655599">
        <ele>338.332</ele>
        <time>2020-08-23T06:56:07Z</time>
      </trkpt>
      <trkpt lat="41.811699" lon="0.655513">
        <ele>338.068</ele>
        <time>2020-08-23T06:56:08Z</time>
      </trkpt>
      <trkpt lat="41.811702" lon="0.655428">
        <ele>337.827</ele>
        <time>2020-08-23T06:56:09Z</time>
      </trkpt>
      <trkpt lat="41.811705" lon="0.655345">
        <ele>337.672</ele>
        <time>2020-08-23T06:56:10Z</time>
      </trkpt>
      <trkpt lat="41.811708" lon="0.655260">
        <ele>337.413</ele>
        <time>2020-08-23T06:56:11Z</time>
      </trkpt>
      <trkpt lat="41.811708" lon="0.655178">
        <ele>337.214</ele>
        <time>2020-08-23T06:56:12Z</time>
      </trkpt>
      <trkpt lat="41.811703" lon="0.655096">
        <ele>337.108</ele>
        <time>2020-08-23T06:56:13Z</time>
      </trkpt>
      <trkpt lat="41.811696" lon="0.655008">
        <ele>337.022</ele>
        <time>2020-08-23T06:56:14Z</time>
      </trkpt>
      <trkpt lat="41.811688" lon="0.654926">
        <ele>336.912</ele>
        <time>2020-08-23T06:56:15Z</time>
      </trkpt>
      <trkpt lat="41.811679" lon="0.654843">
        <ele>336.850</ele>
        <time>2020-08-23T06:56:16Z</time>
      </trkpt>
      <trkpt lat="41.811672" lon="0.654757">
        <ele>336.642</ele>
        <time>2020-08-23T06:56:17Z</time>
      </trkpt>
      <trkpt lat="41.811667" lon="0.654670">
        <ele>336.413</ele>
        <time>2020-08-23T06:56:18Z</time>
      </trkpt>
      <trkpt lat="41.811665" lon="0.654587">
        <ele>336.324</ele>
        <time>2020-08-23T06:56:19Z</time>
      </trkpt>
      <trkpt lat="41.811671" lon="0.654505">
        <ele>336.150</ele>
        <time>2020-08-23T06:56:20Z</time>
      </trkpt>
      <trkpt lat="41.811678" lon="0.654419">
        <ele>336.089</ele>
        <time>2020-08-23T06:56:21Z</time>
      </trkpt>
      <trkpt lat="41.811691" lon="0.654329">
        <ele>336.031</ele>
        <time>2020-08-23T06:56:22Z</time>
      </trkpt>
      <trkpt lat="41.811703" lon="0.654243">
        <ele>336.061</ele>
        <time>2020-08-23T06:56:23Z</time>
      </trkpt>
      <trkpt lat="41.811710" lon="0.654155">
        <ele>335.807</ele>
        <time>2020-08-23T06:56:24Z</time>
      </trkpt>
      <trkpt lat="41.811720" lon="0.654065">
        <ele>335.708</ele>
        <time>2020-08-23T06:56:25Z</time>
      </trkpt>
      <trkpt lat="41.811726" lon="0.653975">
        <ele>335.548</ele>
        <time>2020-08-23T06:56:26Z</time>
      </trkpt>
      <trkpt lat="41.811727" lon="0.653885">
        <ele>335.428</ele>
        <time>2020-08-23T06:56:27Z</time>
      </trkpt>
      <trkpt lat="41.811723" lon="0.653796">
        <ele>335.356</ele>
        <time>2020-08-23T06:56:28Z</time>
      </trkpt>
      <trkpt lat="41.811719" lon="0.653709">
        <ele>335.258</ele>
        <time>2020-08-23T06:56:29Z</time>
      </trkpt>
      <trkpt lat="41.811715" lon="0.653624">
        <ele>335.159</ele>
        <time>2020-08-23T06:56:30Z</time>
      </trkpt>
      <trkpt lat="41.811705" lon="0.653539">
        <ele>335.050</ele>
        <time>2020-08-23T06:56:31Z</time>
      </trkpt>
      <trkpt lat="41.811699" lon="0.653455">
        <ele>334.916</ele>
        <time>2020-08-23T06:56:32Z</time>
      </trkpt>
      <trkpt lat="41.811694" lon="0.653368">
        <ele>334.875</ele>
        <time>2020-08-23T06:56:33Z</time>
      </trkpt>
      <trkpt lat="41.811687" lon="0.653281">
        <ele>334.827</ele>
        <time>2020-08-23T06:56:34Z</time>
      </trkpt>
      <trkpt lat="41.811680" lon="0.653193">
        <ele>334.768</ele>
        <time>2020-08-23T06:56:35Z</time>
      </trkpt>
      <trkpt lat="41.811675" lon="0.653108">
        <ele>334.614</ele>
        <time>2020-08-23T06:56:36Z</time>
      </trkpt>
      <trkpt lat="41.811675" lon="0.653025">
        <ele>334.508</ele>
        <time>2020-08-23T06:56:37Z</time>
      </trkpt>
      <trkpt lat="41.811669" lon="0.652940">
        <ele>334.427</ele>
        <time>2020-08-23T06:56:38Z</time>
      </trkpt>
      <trkpt lat="41.811668" lon="0.652860">
        <ele>334.377</ele>
        <time>2020-08-23T06:56:39Z</time>
      </trkpt>
      <trkpt lat="41.811666" lon="0.652782">
        <ele>334.365</ele>
        <time>2020-08-23T06:56:40Z</time>
      </trkpt>
      <trkpt lat="41.811663" lon="0.652697">
        <ele>334.267</ele>
        <time>2020-08-23T06:56:41Z</time>
      </trkpt>
      <trkpt lat="41.811660" lon="0.652612">
        <ele>334.198</ele>
        <time>2020-08-23T06:56:42Z</time>
      </trkpt>
      <trkpt lat="41.811665" lon="0.652527">
        <ele>334.079</ele>
        <time>2020-08-23T06:56:43Z</time>
      </trkpt>
      <trkpt lat="41.811671" lon="0.652443">
        <ele>333.965</ele>
        <time>2020-08-23T06:56:44Z</time>
      </trkpt>
      <trkpt lat="41.811682" lon="0.652362">
        <ele>333.954</ele>
        <time>2020-08-23T06:56:45Z</time>
      </trkpt>
      <trkpt lat="41.811693" lon="0.652289">
        <ele>333.858</ele>
        <time>2020-08-23T06:56:46Z</time>
      </trkpt>
      <trkpt lat="41.811705" lon="0.652214">
        <ele>333.852</ele>
        <time>2020-08-23T06:56:47Z</time>
      </trkpt>
      <trkpt lat="41.811720" lon="0.652134">
        <ele>333.817</ele>
        <time>2020-08-23T06:56:48Z</time>
      </trkpt>
      <trkpt lat="41.811736" lon="0.652053">
        <ele>333.808</ele>
        <time>2020-08-23T06:56:49Z</time>
      </trkpt>
      <trkpt lat="41.811753" lon="0.651977">
        <ele>333.840</ele>
        <time>2020-08-23T06:56:50Z</time>
      </trkpt>
      <trkpt lat="41.811771" lon="0.651906">
        <ele>333.810</ele>
        <time>2020-08-23T06:56:51Z</time>
      </trkpt>
      <trkpt lat="41.811786" lon="0.651828">
        <ele>333.828</ele>
        <time>2020-08-23T06:56:52Z</time>
      </trkpt>
      <trkpt lat="41.811799" lon="0.651754">
        <ele>333.810</ele>
        <time>2020-08-23T06:56:53Z</time>
      </trkpt>
      <trkpt lat="41.811812" lon="0.651680">
        <ele>333.861</ele>
        <time>2020-08-23T06:56:54Z</time>
      </trkpt>
      <trkpt lat="41.811824" lon="0.651597">
        <ele>333.852</ele>
        <time>2020-08-23T06:56:55Z</time>
      </trkpt>
      <trkpt lat="41.811826" lon="0.651520">
        <ele>333.828</ele>
        <time>2020-08-23T06:56:56Z</time>
      </trkpt>
      <trkpt lat="41.811832" lon="0.651448">
        <ele>333.887</ele>
        <time>2020-08-23T06:56:57Z</time>
      </trkpt>
      <trkpt lat="41.811840" lon="0.651378">
        <ele>333.838</ele>
        <time>2020-08-23T06:56:58Z</time>
      </trkpt>
      <trkpt lat="41.811848" lon="0.651307">
        <ele>333.870</ele>
        <time>2020-08-23T06:56:59Z</time>
      </trkpt>
      <trkpt lat="41.811858" lon="0.651236">
        <ele>333.917</ele>
        <time>2020-08-23T06:57:00Z</time>
      </trkpt>
      <trkpt lat="41.811866" lon="0.651165">
        <ele>333.908</ele>
        <time>2020-08-23T06:57:01Z</time>
      </trkpt>
      <trkpt lat="41.811874" lon="0.651096">
        <ele>333.918</ele>
        <time>2020-08-23T06:57:02Z</time>
      </trkpt>
      <trkpt lat="41.811878" lon="0.651022">
        <ele>333.928</ele>
        <time>2020-08-23T06:57:03Z</time>
      </trkpt>
      <trkpt lat="41.811886" lon="0.650951">
        <ele>333.956</ele>
        <time>2020-08-23T06:57:04Z</time>
      </trkpt>
      <trkpt lat="41.811893" lon="0.650882">
        <ele>333.988</ele>
        <time>2020-08-23T06:57:05Z</time>
      </trkpt>
      <trkpt lat="41.811903" lon="0.650813">
        <ele>333.949</ele>
        <time>2020-08-23T06:57:06Z</time>
      </trkpt>
      <trkpt lat="41.811912" lon="0.650744">
        <ele>333.960</ele>
        <time>2020-08-23T06:57:07Z</time>
      </trkpt>
      <trkpt lat="41.811920" lon="0.650673">
        <ele>334.076</ele>
        <time>2020-08-23T06:57:08Z</time>
      </trkpt>
      <trkpt lat="41.811925" lon="0.650600">
        <ele>334.095</ele>
        <time>2020-08-23T06:57:09Z</time>
      </trkpt>
      <trkpt lat="41.811927" lon="0.650529">
        <ele>334.153</ele>
        <time>2020-08-23T06:57:10Z</time>
      </trkpt>
      <trkpt lat="41.811928" lon="0.650463">
        <ele>334.204</ele>
        <time>2020-08-23T06:57:11Z</time>
      </trkpt>
      <trkpt lat="41.811926" lon="0.650399">
        <ele>334.214</ele>
        <time>2020-08-23T06:57:12Z</time>
      </trkpt>
      <trkpt lat="41.811927" lon="0.650335">
        <ele>334.308</ele>
        <time>2020-08-23T06:57:13Z</time>
      </trkpt>
      <trkpt lat="41.811929" lon="0.650273">
        <ele>334.370</ele>
        <time>2020-08-23T06:57:14Z</time>
      </trkpt>
      <trkpt lat="41.811924" lon="0.650206">
        <ele>334.330</ele>
        <time>2020-08-23T06:57:15Z</time>
      </trkpt>
      <trkpt lat="41.811912" lon="0.650140">
        <ele>334.358</ele>
        <time>2020-08-23T06:57:16Z</time>
      </trkpt>
      <trkpt lat="41.811896" lon="0.650081">
        <ele>334.340</ele>
        <time>2020-08-23T06:57:17Z</time>
      </trkpt>
      <trkpt lat="41.811856" lon="0.649976">
        <ele>334.491</ele>
        <time>2020-08-23T06:57:19Z</time>
      </trkpt>
      <trkpt lat="41.811837" lon="0.649918">
        <ele>334.422</ele>
        <time>2020-08-23T06:57:20Z</time>
      </trkpt>
      <trkpt lat="41.811817" lon="0.649857">
        <ele>334.518</ele>
        <time>2020-08-23T06:57:21Z</time>
      </trkpt>
      <trkpt lat="41.811796" lon="0.649796">
        <ele>334.567</ele>
        <time>2020-08-23T06:57:22Z</time>
      </trkpt>
      <trkpt lat="41.811776" lon="0.649736">
        <ele>334.536</ele>
        <time>2020-08-23T06:57:23Z</time>
      </trkpt>
      <trkpt lat="41.811758" lon="0.649677">
        <ele>334.517</ele>
        <time>2020-08-23T06:57:24Z</time>
      </trkpt>
      <trkpt lat="41.811743" lon="0.649618">
        <ele>334.618</ele>
        <time>2020-08-23T06:57:25Z</time>
      </trkpt>
      <trkpt lat="41.811737" lon="0.649554">
        <ele>334.708</ele>
        <time>2020-08-23T06:57:26Z</time>
      </trkpt>
      <trkpt lat="41.811737" lon="0.649489">
        <ele>334.788</ele>
        <time>2020-08-23T06:57:27Z</time>
      </trkpt>
      <trkpt lat="41.811750" lon="0.649429">
        <ele>334.748</ele>
        <time>2020-08-23T06:57:28Z</time>
      </trkpt>
      <trkpt lat="41.811771" lon="0.649367">
        <ele>334.756</ele>
        <time>2020-08-23T06:57:29Z</time>
      </trkpt>
      <trkpt lat="41.811792" lon="0.649309">
        <ele>334.718</ele>
        <time>2020-08-23T06:57:30Z</time>
      </trkpt>
      <trkpt lat="41.811811" lon="0.649254">
        <ele>334.759</ele>
        <time>2020-08-23T06:57:31Z</time>
      </trkpt>
      <trkpt lat="41.811854" lon="0.649152">
        <ele>334.760</ele>
        <time>2020-08-23T06:57:33Z</time>
      </trkpt>
      <trkpt lat="41.811893" lon="0.649051">
        <ele>334.886</ele>
        <time>2020-08-23T06:57:35Z</time>
      </trkpt>
      <trkpt lat="41.811921" lon="0.648961">
        <ele>335.295</ele>
        <time>2020-08-23T06:57:37Z</time>
      </trkpt>
      <trkpt lat="41.811937" lon="0.648876">
        <ele>335.497</ele>
        <time>2020-08-23T06:57:39Z</time>
      </trkpt>
      <trkpt lat="41.811966" lon="0.648810">
        <ele>335.623</ele>
        <time>2020-08-23T06:57:41Z</time>
      </trkpt>
      <trkpt lat="41.811993" lon="0.648749">
        <ele>335.925</ele>
        <time>2020-08-23T06:57:43Z</time>
      </trkpt>
      <trkpt lat="41.812025" lon="0.648681">
        <ele>336.108</ele>
        <time>2020-08-23T06:57:45Z</time>
      </trkpt>
      <trkpt lat="41.812051" lon="0.648609">
        <ele>336.294</ele>
        <time>2020-08-23T06:57:47Z</time>
      </trkpt>
      <trkpt lat="41.812082" lon="0.648526">
        <ele>336.354</ele>
        <time>2020-08-23T06:57:49Z</time>
      </trkpt>
      <trkpt lat="41.812113" lon="0.648439">
        <ele>336.412</ele>
        <time>2020-08-23T06:57:51Z</time>
      </trkpt>
      <trkpt lat="41.812137" lon="0.648365">
        <ele>336.654</ele>
        <time>2020-08-23T06:57:53Z</time>
      </trkpt>
      <trkpt lat="41.812168" lon="0.648289">
        <ele>337.175</ele>
        <time>2020-08-23T06:57:55Z</time>
      </trkpt>
      <trkpt lat="41.812201" lon="0.648224">
        <ele>337.476</ele>
        <time>2020-08-23T06:57:57Z</time>
      </trkpt>
      <trkpt lat="41.812222" lon="0.648154">
        <ele>337.722</ele>
        <time>2020-08-23T06:57:59Z</time>
      </trkpt>
      <trkpt lat="41.812245" lon="0.648082">
        <ele>337.971</ele>
        <time>2020-08-23T06:58:01Z</time>
      </trkpt>
      <trkpt lat="41.812259" lon="0.648000">
        <ele>338.135</ele>
        <time>2020-08-23T06:58:03Z</time>
      </trkpt>
      <trkpt lat="41.812284" lon="0.647916">
        <ele>338.386</ele>
        <time>2020-08-23T06:58:05Z</time>
      </trkpt>
      <trkpt lat="41.812306" lon="0.647835">
        <ele>338.514</ele>
        <time>2020-08-23T06:58:07Z</time>
      </trkpt>
      <trkpt lat="41.812336" lon="0.647747">
        <ele>338.608</ele>
        <time>2020-08-23T06:58:09Z</time>
      </trkpt>
      <trkpt lat="41.812363" lon="0.647655">
        <ele>338.768</ele>
        <time>2020-08-23T06:58:11Z</time>
      </trkpt>
      <trkpt lat="41.812387" lon="0.647564">
        <ele>338.898</ele>
        <time>2020-08-23T06:58:13Z</time>
      </trkpt>
      <trkpt lat="41.812404" lon="0.647485">
        <ele>338.966</ele>
        <time>2020-08-23T06:58:15Z</time>
      </trkpt>
      <trkpt lat="41.812421" lon="0.647411">
        <ele>339.068</ele>
        <time>2020-08-23T06:58:17Z</time>
      </trkpt>
      <trkpt lat="41.812443" lon="0.647343">
        <ele>339.299</ele>
        <time>2020-08-23T06:58:19Z</time>
      </trkpt>
      <trkpt lat="41.812464" lon="0.647265">
        <ele>339.530</ele>
        <time>2020-08-23T06:58:21Z</time>
      </trkpt>
      <trkpt lat="41.812490" lon="0.647170">
        <ele>339.736</ele>
        <time>2020-08-23T06:58:23Z</time>
      </trkpt>
      <trkpt lat="41.812535" lon="0.647070">
        <ele>339.675</ele>
        <time>2020-08-23T06:58:25Z</time>
      </trkpt>
      <trkpt lat="41.812583" lon="0.646983">
        <ele>339.442</ele>
        <time>2020-08-23T06:58:27Z</time>
      </trkpt>
      <trkpt lat="41.812631" lon="0.646900">
        <ele>339.222</ele>
        <time>2020-08-23T06:58:29Z</time>
      </trkpt>
      <trkpt lat="41.812682" lon="0.646809">
        <ele>339.114</ele>
        <time>2020-08-23T06:58:31Z</time>
      </trkpt>
      <trkpt lat="41.812732" lon="0.646706">
        <ele>339.008</ele>
        <time>2020-08-23T06:58:33Z</time>
      </trkpt>
      <trkpt lat="41.812753" lon="0.646646">
        <ele>339.049</ele>
        <time>2020-08-23T06:58:34Z</time>
      </trkpt>
      <trkpt lat="41.812794" lon="0.646552">
        <ele>339.049</ele>
        <time>2020-08-23T06:58:36Z</time>
      </trkpt>
      <trkpt lat="41.812818" lon="0.646498">
        <ele>339.037</ele>
        <time>2020-08-23T06:58:37Z</time>
      </trkpt>
      <trkpt lat="41.812840" lon="0.646440">
        <ele>339.059</ele>
        <time>2020-08-23T06:58:38Z</time>
      </trkpt>
      <trkpt lat="41.812861" lon="0.646385">
        <ele>339.030</ele>
        <time>2020-08-23T06:58:39Z</time>
      </trkpt>
      <trkpt lat="41.812879" lon="0.646328">
        <ele>339.081</ele>
        <time>2020-08-23T06:58:40Z</time>
      </trkpt>
      <trkpt lat="41.812896" lon="0.646272">
        <ele>339.097</ele>
        <time>2020-08-23T06:58:41Z</time>
      </trkpt>
      <trkpt lat="41.812927" lon="0.646156">
        <ele>339.066</ele>
        <time>2020-08-23T06:58:43Z</time>
      </trkpt>
      <trkpt lat="41.812940" lon="0.646092">
        <ele>339.093</ele>
        <time>2020-08-23T06:58:44Z</time>
      </trkpt>
      <trkpt lat="41.812954" lon="0.646029">
        <ele>339.065</ele>
        <time>2020-08-23T06:58:45Z</time>
      </trkpt>
      <trkpt lat="41.812970" lon="0.645971">
        <ele>339.021</ele>
        <time>2020-08-23T06:58:46Z</time>
      </trkpt>
      <trkpt lat="41.812990" lon="0.645914">
        <ele>339.008</ele>
        <time>2020-08-23T06:58:47Z</time>
      </trkpt>
      <trkpt lat="41.813009" lon="0.645854">
        <ele>339.014</ele>
        <time>2020-08-23T06:58:48Z</time>
      </trkpt>
      <trkpt lat="41.813023" lon="0.645796">
        <ele>339.074</ele>
        <time>2020-08-23T06:58:49Z</time>
      </trkpt>
      <trkpt lat="41.813056" lon="0.645687">
        <ele>339.032</ele>
        <time>2020-08-23T06:58:51Z</time>
      </trkpt>
      <trkpt lat="41.813074" lon="0.645629">
        <ele>339.064</ele>
        <time>2020-08-23T06:58:52Z</time>
      </trkpt>
      <trkpt lat="41.813095" lon="0.645575">
        <ele>339.085</ele>
        <time>2020-08-23T06:58:53Z</time>
      </trkpt>
      <trkpt lat="41.813136" lon="0.645474">
        <ele>339.176</ele>
        <time>2020-08-23T06:58:55Z</time>
      </trkpt>
      <trkpt lat="41.813179" lon="0.645374">
        <ele>339.262</ele>
        <time>2020-08-23T06:58:57Z</time>
      </trkpt>
      <trkpt lat="41.813222" lon="0.645275">
        <ele>339.261</ele>
        <time>2020-08-23T06:58:59Z</time>
      </trkpt>
      <trkpt lat="41.813274" lon="0.645173">
        <ele>339.276</ele>
        <time>2020-08-23T06:59:01Z</time>
      </trkpt>
      <trkpt lat="41.813298" lon="0.645121">
        <ele>339.290</ele>
        <time>2020-08-23T06:59:02Z</time>
      </trkpt>
      <trkpt lat="41.813345" lon="0.645022">
        <ele>339.319</ele>
        <time>2020-08-23T06:59:04Z</time>
      </trkpt>
      <trkpt lat="41.813370" lon="0.644967">
        <ele>339.408</ele>
        <time>2020-08-23T06:59:05Z</time>
      </trkpt>
      <trkpt lat="41.813392" lon="0.644909">
        <ele>339.492</ele>
        <time>2020-08-23T06:59:06Z</time>
      </trkpt>
      <trkpt lat="41.813410" lon="0.644846">
        <ele>339.482</ele>
        <time>2020-08-23T06:59:07Z</time>
      </trkpt>
      <trkpt lat="41.813427" lon="0.644781">
        <ele>339.470</ele>
        <time>2020-08-23T06:59:08Z</time>
      </trkpt>
      <trkpt lat="41.813446" lon="0.644720">
        <ele>339.442</ele>
        <time>2020-08-23T06:59:09Z</time>
      </trkpt>
      <trkpt lat="41.813467" lon="0.644651">
        <ele>339.413</ele>
        <time>2020-08-23T06:59:10Z</time>
      </trkpt>
      <trkpt lat="41.813485" lon="0.644579">
        <ele>339.444</ele>
        <time>2020-08-23T06:59:11Z</time>
      </trkpt>
      <trkpt lat="41.813509" lon="0.644513">
        <ele>339.450</ele>
        <time>2020-08-23T06:59:12Z</time>
      </trkpt>
      <trkpt lat="41.813539" lon="0.644451">
        <ele>339.469</ele>
        <time>2020-08-23T06:59:13Z</time>
      </trkpt>
      <trkpt lat="41.813568" lon="0.644392">
        <ele>339.455</ele>
        <time>2020-08-23T06:59:14Z</time>
      </trkpt>
      <trkpt lat="41.813593" lon="0.644334">
        <ele>339.407</ele>
        <time>2020-08-23T06:59:15Z</time>
      </trkpt>
      <trkpt lat="41.813618" lon="0.644275">
        <ele>339.417</ele>
        <time>2020-08-23T06:59:16Z</time>
      </trkpt>
      <trkpt lat="41.813644" lon="0.644215">
        <ele>339.408</ele>
        <time>2020-08-23T06:59:17Z</time>
      </trkpt>
      <trkpt lat="41.813670" lon="0.644153">
        <ele>339.420</ele>
        <time>2020-08-23T06:59:18Z</time>
      </trkpt>
      <trkpt lat="41.813695" lon="0.644088">
        <ele>339.480</ele>
        <time>2020-08-23T06:59:19Z</time>
      </trkpt>
      <trkpt lat="41.813718" lon="0.644024">
        <ele>339.358</ele>
        <time>2020-08-23T06:59:20Z</time>
      </trkpt>
      <trkpt lat="41.813745" lon="0.643962">
        <ele>339.230</ele>
        <time>2020-08-23T06:59:21Z</time>
      </trkpt>
      <trkpt lat="41.813776" lon="0.643899">
        <ele>339.191</ele>
        <time>2020-08-23T06:59:22Z</time>
      </trkpt>
      <trkpt lat="41.813804" lon="0.643835">
        <ele>339.032</ele>
        <time>2020-08-23T06:59:23Z</time>
      </trkpt>
      <trkpt lat="41.813829" lon="0.643769">
        <ele>338.988</ele>
        <time>2020-08-23T06:59:24Z</time>
      </trkpt>
      <trkpt lat="41.813855" lon="0.643703">
        <ele>338.817</ele>
        <time>2020-08-23T06:59:25Z</time>
      </trkpt>
      <trkpt lat="41.813877" lon="0.643634">
        <ele>338.792</ele>
        <time>2020-08-23T06:59:26Z</time>
      </trkpt>
      <trkpt lat="41.813899" lon="0.643561">
        <ele>338.673</ele>
        <time>2020-08-23T06:59:27Z</time>
      </trkpt>
      <trkpt lat="41.813921" lon="0.643486">
        <ele>338.520</ele>
        <time>2020-08-23T06:59:28Z</time>
      </trkpt>
      <trkpt lat="41.813943" lon="0.643417">
        <ele>338.408</ele>
        <time>2020-08-23T06:59:29Z</time>
      </trkpt>
      <trkpt lat="41.813966" lon="0.643350">
        <ele>338.324</ele>
        <time>2020-08-23T06:59:30Z</time>
      </trkpt>
      <trkpt lat="41.813990" lon="0.643282">
        <ele>338.264</ele>
        <time>2020-08-23T06:59:31Z</time>
      </trkpt>
      <trkpt lat="41.814010" lon="0.643209">
        <ele>338.182</ele>
        <time>2020-08-23T06:59:32Z</time>
      </trkpt>
      <trkpt lat="41.814033" lon="0.643134">
        <ele>338.054</ele>
        <time>2020-08-23T06:59:33Z</time>
      </trkpt>
      <trkpt lat="41.814058" lon="0.643056">
        <ele>337.995</ele>
        <time>2020-08-23T06:59:34Z</time>
      </trkpt>
      <trkpt lat="41.814083" lon="0.642981">
        <ele>337.846</ele>
        <time>2020-08-23T06:59:35Z</time>
      </trkpt>
      <trkpt lat="41.814106" lon="0.642905">
        <ele>337.732</ele>
        <time>2020-08-23T06:59:36Z</time>
      </trkpt>
      <trkpt lat="41.814129" lon="0.642832">
        <ele>337.611</ele>
        <time>2020-08-23T06:59:37Z</time>
      </trkpt>
      <trkpt lat="41.814148" lon="0.642757">
        <ele>337.523</ele>
        <time>2020-08-23T06:59:38Z</time>
      </trkpt>
      <trkpt lat="41.814167" lon="0.642681">
        <ele>337.483</ele>
        <time>2020-08-23T06:59:39Z</time>
      </trkpt>
      <trkpt lat="41.814188" lon="0.642607">
        <ele>337.311</ele>
        <time>2020-08-23T06:59:40Z</time>
      </trkpt>
      <trkpt lat="41.814212" lon="0.642538">
        <ele>337.208</ele>
        <time>2020-08-23T06:59:41Z</time>
      </trkpt>
      <trkpt lat="41.814236" lon="0.642467">
        <ele>337.157</ele>
        <time>2020-08-23T06:59:42Z</time>
      </trkpt>
      <trkpt lat="41.814260" lon="0.642396">
        <ele>336.997</ele>
        <time>2020-08-23T06:59:43Z</time>
      </trkpt>
      <trkpt lat="41.814282" lon="0.642324">
        <ele>336.985</ele>
        <time>2020-08-23T06:59:44Z</time>
      </trkpt>
      <trkpt lat="41.814299" lon="0.642250">
        <ele>336.847</ele>
        <time>2020-08-23T06:59:45Z</time>
      </trkpt>
      <trkpt lat="41.814317" lon="0.642178">
        <ele>336.828</ele>
        <time>2020-08-23T06:59:46Z</time>
      </trkpt>
      <trkpt lat="41.814329" lon="0.642103">
        <ele>336.799</ele>
        <time>2020-08-23T06:59:47Z</time>
      </trkpt>
      <trkpt lat="41.814342" lon="0.642027">
        <ele>336.635</ele>
        <time>2020-08-23T06:59:48Z</time>
      </trkpt>
      <trkpt lat="41.814362" lon="0.641956">
        <ele>336.484</ele>
        <time>2020-08-23T06:59:49Z</time>
      </trkpt>
      <trkpt lat="41.814381" lon="0.641884">
        <ele>336.259</ele>
        <time>2020-08-23T06:59:50Z</time>
      </trkpt>
      <trkpt lat="41.814398" lon="0.641811">
        <ele>336.003</ele>
        <time>2020-08-23T06:59:51Z</time>
      </trkpt>
      <trkpt lat="41.814412" lon="0.641735">
        <ele>335.823</ele>
        <time>2020-08-23T06:59:52Z</time>
      </trkpt>
      <trkpt lat="41.814427" lon="0.641653">
        <ele>335.608</ele>
        <time>2020-08-23T06:59:53Z</time>
      </trkpt>
      <trkpt lat="41.814446" lon="0.641569">
        <ele>335.410</ele>
        <time>2020-08-23T06:59:54Z</time>
      </trkpt>
      <trkpt lat="41.814456" lon="0.641486">
        <ele>335.340</ele>
        <time>2020-08-23T06:59:55Z</time>
      </trkpt>
      <trkpt lat="41.814450" lon="0.641404">
        <ele>335.148</ele>
        <time>2020-08-23T06:59:56Z</time>
      </trkpt>
      <trkpt lat="41.814435" lon="0.641317">
        <ele>335.090</ele>
        <time>2020-08-23T06:59:57Z</time>
      </trkpt>
      <trkpt lat="41.814414" lon="0.641237">
        <ele>334.831</ele>
        <time>2020-08-23T06:59:58Z</time>
      </trkpt>
      <trkpt lat="41.814400" lon="0.641161">
        <ele>334.692</ele>
        <time>2020-08-23T06:59:59Z</time>
      </trkpt>
      <trkpt lat="41.814383" lon="0.641077">
        <ele>334.418</ele>
        <time>2020-08-23T07:00:00Z</time>
      </trkpt>
      <trkpt lat="41.814349" lon="0.640999">
        <ele>334.287</ele>
        <time>2020-08-23T07:00:01Z</time>
      </trkpt>
      <trkpt lat="41.814316" lon="0.640920">
        <ele>333.821</ele>
        <time>2020-08-23T07:00:02Z</time>
      </trkpt>
      <trkpt lat="41.814297" lon="0.640838">
        <ele>333.641</ele>
        <time>2020-08-23T07:00:03Z</time>
      </trkpt>
      <trkpt lat="41.814293" lon="0.640762">
        <ele>333.505</ele>
        <time>2020-08-23T07:00:04Z</time>
      </trkpt>
      <trkpt lat="41.814298" lon="0.640692">
        <ele>333.408</ele>
        <time>2020-08-23T07:00:05Z</time>
      </trkpt>
      <trkpt lat="41.814291" lon="0.640629">
        <ele>333.387</ele>
        <time>2020-08-23T07:00:06Z</time>
      </trkpt>
      <trkpt lat="41.814288" lon="0.640562">
        <ele>333.367</ele>
        <time>2020-08-23T07:00:07Z</time>
      </trkpt>
      <trkpt lat="41.814278" lon="0.640502">
        <ele>333.355</ele>
        <time>2020-08-23T07:00:08Z</time>
      </trkpt>
      <trkpt lat="41.814256" lon="0.640449">
        <ele>333.397</ele>
        <time>2020-08-23T07:00:09Z</time>
      </trkpt>
      <trkpt lat="41.814222" lon="0.640405">
        <ele>333.398</ele>
        <time>2020-08-23T07:00:10Z</time>
      </trkpt>
      <trkpt lat="41.814178" lon="0.640378">
        <ele>333.489</ele>
        <time>2020-08-23T07:00:11Z</time>
      </trkpt>
      <trkpt lat="41.814138" lon="0.640346">
        <ele>333.575</ele>
        <time>2020-08-23T07:00:12Z</time>
      </trkpt>
      <trkpt lat="41.814093" lon="0.640313">
        <ele>333.654</ele>
        <time>2020-08-23T07:00:13Z</time>
      </trkpt>
      <trkpt lat="41.814061" lon="0.640219">
        <ele>333.872</ele>
        <time>2020-08-23T07:00:15Z</time>
      </trkpt>
      <trkpt lat="41.814057" lon="0.640117">
        <ele>334.113</ele>
        <time>2020-08-23T07:00:17Z</time>
      </trkpt>
      <trkpt lat="41.814077" lon="0.640015">
        <ele>334.514</ele>
        <time>2020-08-23T07:00:19Z</time>
      </trkpt>
      <trkpt lat="41.814100" lon="0.639925">
        <ele>334.808</ele>
        <time>2020-08-23T07:00:21Z</time>
      </trkpt>
      <trkpt lat="41.814123" lon="0.639833">
        <ele>334.942</ele>
        <time>2020-08-23T07:00:23Z</time>
      </trkpt>
      <trkpt lat="41.814147" lon="0.639724">
        <ele>335.152</ele>
        <time>2020-08-23T07:00:25Z</time>
      </trkpt>
      <trkpt lat="41.814177" lon="0.639632">
        <ele>335.440</ele>
        <time>2020-08-23T07:00:27Z</time>
      </trkpt>
      <trkpt lat="41.814177" lon="0.639561">
        <ele>335.542</ele>
        <time>2020-08-23T07:00:29Z</time>
      </trkpt>
      <trkpt lat="41.814201" lon="0.639503">
        <ele>335.473</ele>
        <time>2020-08-23T07:00:34Z</time>
      </trkpt>
      <trkpt lat="41.814188" lon="0.639445">
        <ele>335.564</ele>
        <time>2020-08-23T07:00:50Z</time>
      </trkpt>
      <trkpt lat="41.814210" lon="0.639391">
        <ele>335.310</ele>
        <time>2020-08-23T07:01:05Z</time>
      </trkpt>
      <trkpt lat="41.814242" lon="0.639314">
        <ele>335.569</ele>
        <time>2020-08-23T07:01:08Z</time>
      </trkpt>
      <trkpt lat="41.814258" lon="0.639246">
        <ele>335.777</ele>
        <time>2020-08-23T07:01:10Z</time>
      </trkpt>
      <trkpt lat="41.814271" lon="0.639174">
        <ele>335.861</ele>
        <time>2020-08-23T07:01:12Z</time>
      </trkpt>
      <trkpt lat="41.814282" lon="0.639091">
        <ele>335.927</ele>
        <time>2020-08-23T07:01:14Z</time>
      </trkpt>
      <trkpt lat="41.814314" lon="0.639022">
        <ele>336.108</ele>
        <time>2020-08-23T07:01:16Z</time>
      </trkpt>
      <trkpt lat="41.814376" lon="0.638966">
        <ele>336.212</ele>
        <time>2020-08-23T07:01:18Z</time>
      </trkpt>
      <trkpt lat="41.814433" lon="0.638914">
        <ele>336.322</ele>
        <time>2020-08-23T07:01:20Z</time>
      </trkpt>
      <trkpt lat="41.814482" lon="0.638881">
        <ele>336.440</ele>
        <time>2020-08-23T07:01:22Z</time>
      </trkpt>
      <trkpt lat="41.814543" lon="0.638847">
        <ele>336.572</ele>
        <time>2020-08-23T07:01:24Z</time>
      </trkpt>
      <trkpt lat="41.814600" lon="0.638787">
        <ele>336.683</ele>
        <time>2020-08-23T07:01:26Z</time>
      </trkpt>
      <trkpt lat="41.814645" lon="0.638729">
        <ele>336.744</ele>
        <time>2020-08-23T07:01:28Z</time>
      </trkpt>
      <trkpt lat="41.814682" lon="0.638670">
        <ele>336.950</ele>
        <time>2020-08-23T07:01:30Z</time>
      </trkpt>
      <trkpt lat="41.814738" lon="0.638623">
        <ele>337.159</ele>
        <time>2020-08-23T07:01:33Z</time>
      </trkpt>
      <trkpt lat="41.814787" lon="0.638566">
        <ele>337.157</ele>
        <time>2020-08-23T07:01:35Z</time>
      </trkpt>
      <trkpt lat="41.814813" lon="0.638479">
        <ele>337.100</ele>
        <time>2020-08-23T07:01:37Z</time>
      </trkpt>
      <trkpt lat="41.814834" lon="0.638405">
        <ele>337.320</ele>
        <time>2020-08-23T07:01:39Z</time>
      </trkpt>
      <trkpt lat="41.814863" lon="0.638323">
        <ele>337.508</ele>
        <time>2020-08-23T07:01:41Z</time>
      </trkpt>
      <trkpt lat="41.814896" lon="0.638227">
        <ele>337.730</ele>
        <time>2020-08-23T07:01:43Z</time>
      </trkpt>
      <trkpt lat="41.814925" lon="0.638147">
        <ele>337.910</ele>
        <time>2020-08-23T07:01:45Z</time>
      </trkpt>
      <trkpt lat="41.814968" lon="0.638076">
        <ele>338.148</ele>
        <time>2020-08-23T07:01:47Z</time>
      </trkpt>
      <trkpt lat="41.814972" lon="0.638000">
        <ele>338.220</ele>
        <time>2020-08-23T07:01:49Z</time>
      </trkpt>
      <trkpt lat="41.814968" lon="0.637922">
        <ele>338.291</ele>
        <time>2020-08-23T07:01:51Z</time>
      </trkpt>
      <trkpt lat="41.814954" lon="0.637838">
        <ele>338.462</ele>
        <time>2020-08-23T07:01:53Z</time>
      </trkpt>
      <trkpt lat="41.814940" lon="0.637752">
        <ele>338.738</ele>
        <time>2020-08-23T07:01:56Z</time>
      </trkpt>
      <trkpt lat="41.814923" lon="0.637664">
        <ele>338.997</ele>
        <time>2020-08-23T07:01:58Z</time>
      </trkpt>
      <trkpt lat="41.814912" lon="0.637565">
        <ele>339.297</ele>
        <time>2020-08-23T07:02:00Z</time>
      </trkpt>
      <trkpt lat="41.814911" lon="0.637485">
        <ele>339.423</ele>
        <time>2020-08-23T07:02:02Z</time>
      </trkpt>
      <trkpt lat="41.814899" lon="0.637399">
        <ele>339.525</ele>
        <time>2020-08-23T07:02:04Z</time>
      </trkpt>
      <trkpt lat="41.814888" lon="0.637295">
        <ele>339.508</ele>
        <time>2020-08-23T07:02:06Z</time>
      </trkpt>
      <trkpt lat="41.814871" lon="0.637238">
        <ele>339.564</ele>
        <time>2020-08-23T07:02:07Z</time>
      </trkpt>
      <trkpt lat="41.814847" lon="0.637136">
        <ele>339.634</ele>
        <time>2020-08-23T07:02:09Z</time>
      </trkpt>
      <trkpt lat="41.814830" lon="0.637030">
        <ele>339.842</ele>
        <time>2020-08-23T07:02:11Z</time>
      </trkpt>
      <trkpt lat="41.814811" lon="0.636948">
        <ele>339.914</ele>
        <time>2020-08-23T07:02:13Z</time>
      </trkpt>
      <trkpt lat="41.814792" lon="0.636876">
        <ele>340.225</ele>
        <time>2020-08-23T07:02:15Z</time>
      </trkpt>
      <trkpt lat="41.814770" lon="0.636784">
        <ele>340.566</ele>
        <time>2020-08-23T07:02:17Z</time>
      </trkpt>
      <trkpt lat="41.814740" lon="0.636703">
        <ele>340.772</ele>
        <time>2020-08-23T07:02:19Z</time>
      </trkpt>
      <trkpt lat="41.814739" lon="0.636637">
        <ele>340.831</ele>
        <time>2020-08-23T07:02:20Z</time>
      </trkpt>
      <trkpt lat="41.814738" lon="0.636534">
        <ele>341.094</ele>
        <time>2020-08-23T07:02:22Z</time>
      </trkpt>
      <trkpt lat="41.814725" lon="0.636429">
        <ele>341.257</ele>
        <time>2020-08-23T07:02:24Z</time>
      </trkpt>
      <trkpt lat="41.814700" lon="0.636321">
        <ele>341.422</ele>
        <time>2020-08-23T07:02:26Z</time>
      </trkpt>
      <trkpt lat="41.814685" lon="0.636228">
        <ele>341.608</ele>
        <time>2020-08-23T07:02:28Z</time>
      </trkpt>
      <trkpt lat="41.814678" lon="0.636134">
        <ele>342.094</ele>
        <time>2020-08-23T07:02:30Z</time>
      </trkpt>
      <trkpt lat="41.814695" lon="0.636052">
        <ele>342.284</ele>
        <time>2020-08-23T07:02:32Z</time>
      </trkpt>
      <trkpt lat="41.814724" lon="0.635961">
        <ele>342.482</ele>
        <time>2020-08-23T07:02:34Z</time>
      </trkpt>
      <trkpt lat="41.814752" lon="0.635883">
        <ele>342.754</ele>
        <time>2020-08-23T07:02:36Z</time>
      </trkpt>
      <trkpt lat="41.814773" lon="0.635795">
        <ele>343.025</ele>
        <time>2020-08-23T07:02:38Z</time>
      </trkpt>
      <trkpt lat="41.814796" lon="0.635699">
        <ele>343.316</ele>
        <time>2020-08-23T07:02:40Z</time>
      </trkpt>
      <trkpt lat="41.814813" lon="0.635604">
        <ele>343.672</ele>
        <time>2020-08-23T07:02:42Z</time>
      </trkpt>
      <trkpt lat="41.814826" lon="0.635510">
        <ele>343.821</ele>
        <time>2020-08-23T07:02:44Z</time>
      </trkpt>
      <trkpt lat="41.814833" lon="0.635418">
        <ele>344.025</ele>
        <time>2020-08-23T07:02:46Z</time>
      </trkpt>
      <trkpt lat="41.814834" lon="0.635326">
        <ele>344.226</ele>
        <time>2020-08-23T07:02:48Z</time>
      </trkpt>
      <trkpt lat="41.814838" lon="0.635230">
        <ele>344.308</ele>
        <time>2020-08-23T07:02:50Z</time>
      </trkpt>
      <trkpt lat="41.814840" lon="0.635145">
        <ele>344.408</ele>
        <time>2020-08-23T07:02:52Z</time>
      </trkpt>
      <trkpt lat="41.814852" lon="0.635043">
        <ele>344.517</ele>
        <time>2020-08-23T07:02:54Z</time>
      </trkpt>
      <trkpt lat="41.814876" lon="0.634947">
        <ele>344.647</ele>
        <time>2020-08-23T07:02:56Z</time>
      </trkpt>
      <trkpt lat="41.814895" lon="0.634850">
        <ele>344.745</ele>
        <time>2020-08-23T07:02:58Z</time>
      </trkpt>
      <trkpt lat="41.814925" lon="0.634757">
        <ele>344.817</ele>
        <time>2020-08-23T07:03:00Z</time>
      </trkpt>
      <trkpt lat="41.814950" lon="0.634647">
        <ele>344.988</ele>
        <time>2020-08-23T07:03:02Z</time>
      </trkpt>
      <trkpt lat="41.814961" lon="0.634587">
        <ele>344.949</ele>
        <time>2020-08-23T07:03:03Z</time>
      </trkpt>
      <trkpt lat="41.814985" lon="0.634476">
        <ele>344.985</ele>
        <time>2020-08-23T07:03:05Z</time>
      </trkpt>
      <trkpt lat="41.814999" lon="0.634418">
        <ele>345.094</ele>
        <time>2020-08-23T07:03:06Z</time>
      </trkpt>
      <trkpt lat="41.815023" lon="0.634309">
        <ele>345.138</ele>
        <time>2020-08-23T07:03:08Z</time>
      </trkpt>
      <trkpt lat="41.815049" lon="0.634194">
        <ele>345.270</ele>
        <time>2020-08-23T07:03:10Z</time>
      </trkpt>
      <trkpt lat="41.815065" lon="0.634135">
        <ele>345.217</ele>
        <time>2020-08-23T07:03:11Z</time>
      </trkpt>
      <trkpt lat="41.815081" lon="0.634078">
        <ele>345.208</ele>
        <time>2020-08-23T07:03:12Z</time>
      </trkpt>
      <trkpt lat="41.815098" lon="0.634020">
        <ele>345.248</ele>
        <time>2020-08-23T07:03:13Z</time>
      </trkpt>
      <trkpt lat="41.815114" lon="0.633963">
        <ele>345.218</ele>
        <time>2020-08-23T07:03:14Z</time>
      </trkpt>
      <trkpt lat="41.815128" lon="0.633902">
        <ele>345.266</ele>
        <time>2020-08-23T07:03:15Z</time>
      </trkpt>
      <trkpt lat="41.815141" lon="0.633840">
        <ele>345.218</ele>
        <time>2020-08-23T07:03:16Z</time>
      </trkpt>
      <trkpt lat="41.815152" lon="0.633777">
        <ele>345.289</ele>
        <time>2020-08-23T07:03:17Z</time>
      </trkpt>
      <trkpt lat="41.815167" lon="0.633716">
        <ele>345.280</ele>
        <time>2020-08-23T07:03:18Z</time>
      </trkpt>
      <trkpt lat="41.815179" lon="0.633655">
        <ele>345.236</ele>
        <time>2020-08-23T07:03:19Z</time>
      </trkpt>
      <trkpt lat="41.815188" lon="0.633594">
        <ele>345.295</ele>
        <time>2020-08-23T07:03:20Z</time>
      </trkpt>
      <trkpt lat="41.815203" lon="0.633532">
        <ele>345.276</ele>
        <time>2020-08-23T07:03:21Z</time>
      </trkpt>
      <trkpt lat="41.815217" lon="0.633469">
        <ele>345.290</ele>
        <time>2020-08-23T07:03:22Z</time>
      </trkpt>
      <trkpt lat="41.815231" lon="0.633406">
        <ele>345.219</ele>
        <time>2020-08-23T07:03:23Z</time>
      </trkpt>
      <trkpt lat="41.815247" lon="0.633344">
        <ele>345.208</ele>
        <time>2020-08-23T07:03:24Z</time>
      </trkpt>
      <trkpt lat="41.815260" lon="0.633281">
        <ele>345.262</ele>
        <time>2020-08-23T07:03:25Z</time>
      </trkpt>
      <trkpt lat="41.815277" lon="0.633217">
        <ele>345.232</ele>
        <time>2020-08-23T07:03:26Z</time>
      </trkpt>
      <trkpt lat="41.815292" lon="0.633150">
        <ele>345.280</ele>
        <time>2020-08-23T07:03:27Z</time>
      </trkpt>
      <trkpt lat="41.815308" lon="0.633084">
        <ele>345.252</ele>
        <time>2020-08-23T07:03:28Z</time>
      </trkpt>
      <trkpt lat="41.815321" lon="0.633018">
        <ele>345.243</ele>
        <time>2020-08-23T07:03:29Z</time>
      </trkpt>
      <trkpt lat="41.815335" lon="0.632956">
        <ele>345.284</ele>
        <time>2020-08-23T07:03:30Z</time>
      </trkpt>
      <trkpt lat="41.815346" lon="0.632888">
        <ele>345.280</ele>
        <time>2020-08-23T07:03:31Z</time>
      </trkpt>
      <trkpt lat="41.815358" lon="0.632822">
        <ele>345.349</ele>
        <time>2020-08-23T07:03:32Z</time>
      </trkpt>
      <trkpt lat="41.815369" lon="0.632757">
        <ele>345.444</ele>
        <time>2020-08-23T07:03:33Z</time>
      </trkpt>
      <trkpt lat="41.815382" lon="0.632694">
        <ele>345.505</ele>
        <time>2020-08-23T07:03:34Z</time>
      </trkpt>
      <trkpt lat="41.815394" lon="0.632632">
        <ele>345.515</ele>
        <time>2020-08-23T07:03:35Z</time>
      </trkpt>
      <trkpt lat="41.815407" lon="0.632571">
        <ele>345.508</ele>
        <time>2020-08-23T07:03:36Z</time>
      </trkpt>
      <trkpt lat="41.815417" lon="0.632507">
        <ele>345.539</ele>
        <time>2020-08-23T07:03:37Z</time>
      </trkpt>
      <trkpt lat="41.815424" lon="0.632441">
        <ele>345.569</ele>
        <time>2020-08-23T07:03:38Z</time>
      </trkpt>
      <trkpt lat="41.815432" lon="0.632380">
        <ele>345.537</ele>
        <time>2020-08-23T07:03:39Z</time>
      </trkpt>
      <trkpt lat="41.815437" lon="0.632315">
        <ele>345.599</ele>
        <time>2020-08-23T07:03:40Z</time>
      </trkpt>
      <trkpt lat="41.815445" lon="0.632248">
        <ele>345.580</ele>
        <time>2020-08-23T07:03:41Z</time>
      </trkpt>
      <trkpt lat="41.815450" lon="0.632179">
        <ele>345.551</ele>
        <time>2020-08-23T07:03:42Z</time>
      </trkpt>
      <trkpt lat="41.815461" lon="0.632114">
        <ele>345.527</ele>
        <time>2020-08-23T07:03:43Z</time>
      </trkpt>
      <trkpt lat="41.815465" lon="0.632048">
        <ele>345.556</ele>
        <time>2020-08-23T07:03:44Z</time>
      </trkpt>
      <trkpt lat="41.815469" lon="0.631983">
        <ele>345.557</ele>
        <time>2020-08-23T07:03:45Z</time>
      </trkpt>
      <trkpt lat="41.815472" lon="0.631920">
        <ele>345.500</ele>
        <time>2020-08-23T07:03:46Z</time>
      </trkpt>
      <trkpt lat="41.815476" lon="0.631858">
        <ele>345.520</ele>
        <time>2020-08-23T07:03:47Z</time>
      </trkpt>
      <trkpt lat="41.815488" lon="0.631737">
        <ele>345.508</ele>
        <time>2020-08-23T07:03:49Z</time>
      </trkpt>
      <trkpt lat="41.815494" lon="0.631670">
        <ele>345.550</ele>
        <time>2020-08-23T07:03:50Z</time>
      </trkpt>
      <trkpt lat="41.815498" lon="0.631599">
        <ele>345.560</ele>
        <time>2020-08-23T07:03:51Z</time>
      </trkpt>
      <trkpt lat="41.815496" lon="0.631528">
        <ele>345.568</ele>
        <time>2020-08-23T07:03:52Z</time>
      </trkpt>
      <trkpt lat="41.815499" lon="0.631459">
        <ele>345.580</ele>
        <time>2020-08-23T07:03:53Z</time>
      </trkpt>
      <trkpt lat="41.815507" lon="0.631391">
        <ele>345.571</ele>
        <time>2020-08-23T07:03:54Z</time>
      </trkpt>
      <trkpt lat="41.815508" lon="0.631322">
        <ele>345.572</ele>
        <time>2020-08-23T07:03:55Z</time>
      </trkpt>
      <trkpt lat="41.815512" lon="0.631257">
        <ele>345.538</ele>
        <time>2020-08-23T07:03:56Z</time>
      </trkpt>
      <trkpt lat="41.815517" lon="0.631189">
        <ele>345.567</ele>
        <time>2020-08-23T07:03:57Z</time>
      </trkpt>
      <trkpt lat="41.815518" lon="0.631123">
        <ele>345.561</ele>
        <time>2020-08-23T07:03:58Z</time>
      </trkpt>
      <trkpt lat="41.815524" lon="0.631061">
        <ele>345.521</ele>
        <time>2020-08-23T07:03:59Z</time>
      </trkpt>
      <trkpt lat="41.815532" lon="0.630996">
        <ele>345.513</ele>
        <time>2020-08-23T07:04:00Z</time>
      </trkpt>
      <trkpt lat="41.815536" lon="0.630928">
        <ele>345.508</ele>
        <time>2020-08-23T07:04:01Z</time>
      </trkpt>
      <trkpt lat="41.815541" lon="0.630863">
        <ele>345.561</ele>
        <time>2020-08-23T07:04:02Z</time>
      </trkpt>
      <trkpt lat="41.815545" lon="0.630798">
        <ele>345.571</ele>
        <time>2020-08-23T07:04:03Z</time>
      </trkpt>
      <trkpt lat="41.815554" lon="0.630736">
        <ele>345.519</ele>
        <time>2020-08-23T07:04:04Z</time>
      </trkpt>
      <trkpt lat="41.815567" lon="0.630618">
        <ele>345.541</ele>
        <time>2020-08-23T07:04:06Z</time>
      </trkpt>
      <trkpt lat="41.815577" lon="0.630502">
        <ele>345.552</ele>
        <time>2020-08-23T07:04:08Z</time>
      </trkpt>
      <trkpt lat="41.815580" lon="0.630441">
        <ele>345.573</ele>
        <time>2020-08-23T07:04:09Z</time>
      </trkpt>
      <trkpt lat="41.815588" lon="0.630380">
        <ele>345.579</ele>
        <time>2020-08-23T07:04:10Z</time>
      </trkpt>
      <trkpt lat="41.815594" lon="0.630319">
        <ele>345.538</ele>
        <time>2020-08-23T07:04:11Z</time>
      </trkpt>
      <trkpt lat="41.815598" lon="0.630255">
        <ele>345.533</ele>
        <time>2020-08-23T07:04:12Z</time>
      </trkpt>
      <trkpt lat="41.815601" lon="0.630192">
        <ele>345.523</ele>
        <time>2020-08-23T07:04:13Z</time>
      </trkpt>
      <trkpt lat="41.815605" lon="0.630131">
        <ele>345.515</ele>
        <time>2020-08-23T07:04:14Z</time>
      </trkpt>
      <trkpt lat="41.815606" lon="0.630067">
        <ele>345.508</ele>
        <time>2020-08-23T07:04:15Z</time>
      </trkpt>
      <trkpt lat="41.815611" lon="0.630007">
        <ele>345.538</ele>
        <time>2020-08-23T07:04:16Z</time>
      </trkpt>
      <trkpt lat="41.815619" lon="0.629886">
        <ele>345.588</ele>
        <time>2020-08-23T07:04:18Z</time>
      </trkpt>
      <trkpt lat="41.815623" lon="0.629818">
        <ele>345.536</ele>
        <time>2020-08-23T07:04:19Z</time>
      </trkpt>
      <trkpt lat="41.815626" lon="0.629754">
        <ele>345.668</ele>
        <time>2020-08-23T07:04:20Z</time>
      </trkpt>
      <trkpt lat="41.815633" lon="0.629690">
        <ele>345.679</ele>
        <time>2020-08-23T07:04:21Z</time>
      </trkpt>
      <trkpt lat="41.815638" lon="0.629629">
        <ele>345.690</ele>
        <time>2020-08-23T07:04:22Z</time>
      </trkpt>
      <trkpt lat="41.815645" lon="0.629569">
        <ele>345.756</ele>
        <time>2020-08-23T07:04:23Z</time>
      </trkpt>
      <trkpt lat="41.815650" lon="0.629509">
        <ele>345.875</ele>
        <time>2020-08-23T07:04:24Z</time>
      </trkpt>
      <trkpt lat="41.815655" lon="0.629395">
        <ele>345.942</ele>
        <time>2020-08-23T07:04:26Z</time>
      </trkpt>
      <trkpt lat="41.815665" lon="0.629285">
        <ele>346.122</ele>
        <time>2020-08-23T07:04:28Z</time>
      </trkpt>
      <trkpt lat="41.815671" lon="0.629225">
        <ele>346.214</ele>
        <time>2020-08-23T07:04:29Z</time>
      </trkpt>
      <trkpt lat="41.815685" lon="0.629110">
        <ele>346.408</ele>
        <time>2020-08-23T07:04:31Z</time>
      </trkpt>
      <trkpt lat="41.815695" lon="0.628999">
        <ele>346.679</ele>
        <time>2020-08-23T07:04:33Z</time>
      </trkpt>
      <trkpt lat="41.815707" lon="0.628893">
        <ele>346.799</ele>
        <time>2020-08-23T07:04:35Z</time>
      </trkpt>
      <trkpt lat="41.815725" lon="0.628787">
        <ele>346.817</ele>
        <time>2020-08-23T07:04:37Z</time>
      </trkpt>
      <trkpt lat="41.815731" lon="0.628700">
        <ele>347.019</ele>
        <time>2020-08-23T07:04:39Z</time>
      </trkpt>
      <trkpt lat="41.815703" lon="0.628636">
        <ele>347.390</ele>
        <time>2020-08-23T07:04:41Z</time>
      </trkpt>
      <trkpt lat="41.815705" lon="0.628562">
        <ele>347.531</ele>
        <time>2020-08-23T07:04:43Z</time>
      </trkpt>
      <trkpt lat="41.815722" lon="0.628454">
        <ele>347.337</ele>
        <time>2020-08-23T07:04:45Z</time>
      </trkpt>
      <trkpt lat="41.815728" lon="0.628387">
        <ele>347.036</ele>
        <time>2020-08-23T07:04:46Z</time>
      </trkpt>
      <trkpt lat="41.815736" lon="0.628316">
        <ele>346.727</ele>
        <time>2020-08-23T07:04:47Z</time>
      </trkpt>
      <trkpt lat="41.815740" lon="0.628243">
        <ele>346.368</ele>
        <time>2020-08-23T07:04:48Z</time>
      </trkpt>
      <trkpt lat="41.815744" lon="0.628167">
        <ele>346.014</ele>
        <time>2020-08-23T07:04:49Z</time>
      </trkpt>
      <trkpt lat="41.815748" lon="0.628091">
        <ele>345.708</ele>
        <time>2020-08-23T07:04:50Z</time>
      </trkpt>
      <trkpt lat="41.815745" lon="0.628014">
        <ele>345.417</ele>
        <time>2020-08-23T07:04:51Z</time>
      </trkpt>
      <trkpt lat="41.815737" lon="0.627936">
        <ele>345.157</ele>
        <time>2020-08-23T07:04:52Z</time>
      </trkpt>
      <trkpt lat="41.815715" lon="0.627869">
        <ele>344.945</ele>
        <time>2020-08-23T07:04:53Z</time>
      </trkpt>
      <trkpt lat="41.815685" lon="0.627798">
        <ele>344.717</ele>
        <time>2020-08-23T07:04:54Z</time>
      </trkpt>
      <trkpt lat="41.815658" lon="0.627722">
        <ele>344.668</ele>
        <time>2020-08-23T07:04:55Z</time>
      </trkpt>
      <trkpt lat="41.815622" lon="0.627648">
        <ele>344.589</ele>
        <time>2020-08-23T07:04:56Z</time>
      </trkpt>
      <trkpt lat="41.815591" lon="0.627581">
        <ele>344.455</ele>
        <time>2020-08-23T07:04:57Z</time>
      </trkpt>
      <trkpt lat="41.815558" lon="0.627520">
        <ele>344.374</ele>
        <time>2020-08-23T07:04:58Z</time>
      </trkpt>
      <trkpt lat="41.815520" lon="0.627455">
        <ele>344.213</ele>
        <time>2020-08-23T07:04:59Z</time>
      </trkpt>
      <trkpt lat="41.815484" lon="0.627387">
        <ele>344.143</ele>
        <time>2020-08-23T07:05:00Z</time>
      </trkpt>
      <trkpt lat="41.815451" lon="0.627330">
        <ele>344.007</ele>
        <time>2020-08-23T07:05:01Z</time>
      </trkpt>
      <trkpt lat="41.815418" lon="0.627278">
        <ele>343.908</ele>
        <time>2020-08-23T07:05:02Z</time>
      </trkpt>
      <trkpt lat="41.815381" lon="0.627220">
        <ele>343.896</ele>
        <time>2020-08-23T07:05:03Z</time>
      </trkpt>
      <trkpt lat="41.815348" lon="0.627153">
        <ele>343.746</ele>
        <time>2020-08-23T07:05:04Z</time>
      </trkpt>
      <trkpt lat="41.815324" lon="0.627082">
        <ele>343.634</ele>
        <time>2020-08-23T07:05:05Z</time>
      </trkpt>
      <trkpt lat="41.815308" lon="0.627006">
        <ele>343.566</ele>
        <time>2020-08-23T07:05:06Z</time>
      </trkpt>
      <trkpt lat="41.815292" lon="0.626928">
        <ele>343.457</ele>
        <time>2020-08-23T07:05:07Z</time>
      </trkpt>
      <trkpt lat="41.815276" lon="0.626847">
        <ele>343.318</ele>
        <time>2020-08-23T07:05:08Z</time>
      </trkpt>
      <trkpt lat="41.815262" lon="0.626766">
        <ele>343.264</ele>
        <time>2020-08-23T07:05:09Z</time>
      </trkpt>
      <trkpt lat="41.815251" lon="0.626689">
        <ele>343.183</ele>
        <time>2020-08-23T07:05:10Z</time>
      </trkpt>
      <trkpt lat="41.815245" lon="0.626607">
        <ele>343.052</ele>
        <time>2020-08-23T07:05:11Z</time>
      </trkpt>
      <trkpt lat="41.815234" lon="0.626527">
        <ele>342.953</ele>
        <time>2020-08-23T07:05:12Z</time>
      </trkpt>
      <trkpt lat="41.815224" lon="0.626443">
        <ele>342.808</ele>
        <time>2020-08-23T07:05:13Z</time>
      </trkpt>
      <trkpt lat="41.815212" lon="0.626360">
        <ele>342.708</ele>
        <time>2020-08-23T07:05:14Z</time>
      </trkpt>
      <trkpt lat="41.815198" lon="0.626275">
        <ele>342.580</ele>
        <time>2020-08-23T07:05:15Z</time>
      </trkpt>
      <trkpt lat="41.815187" lon="0.626188">
        <ele>342.410</ele>
        <time>2020-08-23T07:05:16Z</time>
      </trkpt>
      <trkpt lat="41.815178" lon="0.626099">
        <ele>342.398</ele>
        <time>2020-08-23T07:05:17Z</time>
      </trkpt>
      <trkpt lat="41.815175" lon="0.626013">
        <ele>342.280</ele>
        <time>2020-08-23T07:05:18Z</time>
      </trkpt>
      <trkpt lat="41.815174" lon="0.625930">
        <ele>342.161</ele>
        <time>2020-08-23T07:05:19Z</time>
      </trkpt>
      <trkpt lat="41.815173" lon="0.625841">
        <ele>342.042</ele>
        <time>2020-08-23T07:05:20Z</time>
      </trkpt>
      <trkpt lat="41.815172" lon="0.625748">
        <ele>341.968</ele>
        <time>2020-08-23T07:05:21Z</time>
      </trkpt>
      <trkpt lat="41.815170" lon="0.625662">
        <ele>341.897</ele>
        <time>2020-08-23T07:05:22Z</time>
      </trkpt>
      <trkpt lat="41.815181" lon="0.625580">
        <ele>341.763</ele>
        <time>2020-08-23T07:05:23Z</time>
      </trkpt>
      <trkpt lat="41.815197" lon="0.625497">
        <ele>341.644</ele>
        <time>2020-08-23T07:05:24Z</time>
      </trkpt>
      <trkpt lat="41.815210" lon="0.625410">
        <ele>341.518</ele>
        <time>2020-08-23T07:05:25Z</time>
      </trkpt>
      <trkpt lat="41.815224" lon="0.625327">
        <ele>341.408</ele>
        <time>2020-08-23T07:05:26Z</time>
      </trkpt>
      <trkpt lat="41.815235" lon="0.625245">
        <ele>341.351</ele>
        <time>2020-08-23T07:05:27Z</time>
      </trkpt>
      <trkpt lat="41.815246" lon="0.625162">
        <ele>341.281</ele>
        <time>2020-08-23T07:05:28Z</time>
      </trkpt>
      <trkpt lat="41.815256" lon="0.625078">
        <ele>341.139</ele>
        <time>2020-08-23T07:05:29Z</time>
      </trkpt>
      <trkpt lat="41.815258" lon="0.624987">
        <ele>341.091</ele>
        <time>2020-08-23T07:05:30Z</time>
      </trkpt>
      <trkpt lat="41.815257" lon="0.624898">
        <ele>340.942</ele>
        <time>2020-08-23T07:05:31Z</time>
      </trkpt>
      <trkpt lat="41.815255" lon="0.624811">
        <ele>340.723</ele>
        <time>2020-08-23T07:05:32Z</time>
      </trkpt>
      <trkpt lat="41.815238" lon="0.624728">
        <ele>340.539</ele>
        <time>2020-08-23T07:05:33Z</time>
      </trkpt>
      <trkpt lat="41.815210" lon="0.624646">
        <ele>340.228</ele>
        <time>2020-08-23T07:05:34Z</time>
      </trkpt>
      <trkpt lat="41.815172" lon="0.624565">
        <ele>339.911</ele>
        <time>2020-08-23T07:05:35Z</time>
      </trkpt>
      <trkpt lat="41.815127" lon="0.624488">
        <ele>339.621</ele>
        <time>2020-08-23T07:05:36Z</time>
      </trkpt>
      <trkpt lat="41.815087" lon="0.624413">
        <ele>339.203</ele>
        <time>2020-08-23T07:05:37Z</time>
      </trkpt>
      <trkpt lat="41.815050" lon="0.624336">
        <ele>338.908</ele>
        <time>2020-08-23T07:05:38Z</time>
      </trkpt>
      <trkpt lat="41.815021" lon="0.624256">
        <ele>338.466</ele>
        <time>2020-08-23T07:05:39Z</time>
      </trkpt>
      <trkpt lat="41.815002" lon="0.624180">
        <ele>338.036</ele>
        <time>2020-08-23T07:05:40Z</time>
      </trkpt>
      <trkpt lat="41.814991" lon="0.624102">
        <ele>337.684</ele>
        <time>2020-08-23T07:05:41Z</time>
      </trkpt>
      <trkpt lat="41.814998" lon="0.624016">
        <ele>337.216</ele>
        <time>2020-08-23T07:05:42Z</time>
      </trkpt>
      <trkpt lat="41.815011" lon="0.623924">
        <ele>336.957</ele>
        <time>2020-08-23T07:05:43Z</time>
      </trkpt>
      <trkpt lat="41.815027" lon="0.623837">
        <ele>336.618</ele>
        <time>2020-08-23T07:05:44Z</time>
      </trkpt>
      <trkpt lat="41.815044" lon="0.623747">
        <ele>336.264</ele>
        <time>2020-08-23T07:05:45Z</time>
      </trkpt>
      <trkpt lat="41.815051" lon="0.623646">
        <ele>335.973</ele>
        <time>2020-08-23T07:05:46Z</time>
      </trkpt>
      <trkpt lat="41.815061" lon="0.623557">
        <ele>335.683</ele>
        <time>2020-08-23T07:05:47Z</time>
      </trkpt>
      <trkpt lat="41.815075" lon="0.623469">
        <ele>335.425</ele>
        <time>2020-08-23T07:05:48Z</time>
      </trkpt>
      <trkpt lat="41.815092" lon="0.623374">
        <ele>335.217</ele>
        <time>2020-08-23T07:05:49Z</time>
      </trkpt>
      <trkpt lat="41.815119" lon="0.623279">
        <ele>334.908</ele>
        <time>2020-08-23T07:05:50Z</time>
      </trkpt>
      <trkpt lat="41.815145" lon="0.623177">
        <ele>334.623</ele>
        <time>2020-08-23T07:05:51Z</time>
      </trkpt>
      <trkpt lat="41.815170" lon="0.623078">
        <ele>333.943</ele>
        <time>2020-08-23T07:05:52Z</time>
      </trkpt>
      <trkpt lat="41.815199" lon="0.622977">
        <ele>333.481</ele>
        <time>2020-08-23T07:05:53Z</time>
      </trkpt>
      <trkpt lat="41.815224" lon="0.622876">
        <ele>333.073</ele>
        <time>2020-08-23T07:05:54Z</time>
      </trkpt>
      <trkpt lat="41.815251" lon="0.622777">
        <ele>332.754</ele>
        <time>2020-08-23T07:05:55Z</time>
      </trkpt>
      <trkpt lat="41.815273" lon="0.622675">
        <ele>332.495</ele>
        <time>2020-08-23T07:05:56Z</time>
      </trkpt>
      <trkpt lat="41.815293" lon="0.622573">
        <ele>332.261</ele>
        <time>2020-08-23T07:05:57Z</time>
      </trkpt>
      <trkpt lat="41.815315" lon="0.622472">
        <ele>332.030</ele>
        <time>2020-08-23T07:05:58Z</time>
      </trkpt>
      <trkpt lat="41.815342" lon="0.622379">
        <ele>331.817</ele>
        <time>2020-08-23T07:05:59Z</time>
      </trkpt>
      <trkpt lat="41.815369" lon="0.622292">
        <ele>331.687</ele>
        <time>2020-08-23T07:06:00Z</time>
      </trkpt>
      <trkpt lat="41.815397" lon="0.622201">
        <ele>331.415</ele>
        <time>2020-08-23T07:06:01Z</time>
      </trkpt>
      <trkpt lat="41.815424" lon="0.622107">
        <ele>331.208</ele>
        <time>2020-08-23T07:06:02Z</time>
      </trkpt>
      <trkpt lat="41.815450" lon="0.622013">
        <ele>331.036</ele>
        <time>2020-08-23T07:06:03Z</time>
      </trkpt>
      <trkpt lat="41.815473" lon="0.621914">
        <ele>330.896</ele>
        <time>2020-08-23T07:06:04Z</time>
      </trkpt>
      <trkpt lat="41.815493" lon="0.621815">
        <ele>330.574</ele>
        <time>2020-08-23T07:06:05Z</time>
      </trkpt>
      <trkpt lat="41.815514" lon="0.621717">
        <ele>330.396</ele>
        <time>2020-08-23T07:06:06Z</time>
      </trkpt>
      <trkpt lat="41.815531" lon="0.621623">
        <ele>330.037</ele>
        <time>2020-08-23T07:06:07Z</time>
      </trkpt>
      <trkpt lat="41.815550" lon="0.621533">
        <ele>329.848</ele>
        <time>2020-08-23T07:06:08Z</time>
      </trkpt>
      <trkpt lat="41.815570" lon="0.621440">
        <ele>329.674</ele>
        <time>2020-08-23T07:06:09Z</time>
      </trkpt>
      <trkpt lat="41.815588" lon="0.621345">
        <ele>329.453</ele>
        <time>2020-08-23T07:06:10Z</time>
      </trkpt>
      <trkpt lat="41.815603" lon="0.621255">
        <ele>329.048</ele>
        <time>2020-08-23T07:06:11Z</time>
      </trkpt>
      <trkpt lat="41.815619" lon="0.621165">
        <ele>328.861</ele>
        <time>2020-08-23T07:06:12Z</time>
      </trkpt>
      <trkpt lat="41.815634" lon="0.621072">
        <ele>328.717</ele>
        <time>2020-08-23T07:06:13Z</time>
      </trkpt>
      <trkpt lat="41.815652" lon="0.620988">
        <ele>328.608</ele>
        <time>2020-08-23T07:06:14Z</time>
      </trkpt>
      <trkpt lat="41.815664" lon="0.620908">
        <ele>328.569</ele>
        <time>2020-08-23T07:06:15Z</time>
      </trkpt>
      <trkpt lat="41.815683" lon="0.620827">
        <ele>328.479</ele>
        <time>2020-08-23T07:06:16Z</time>
      </trkpt>
      <trkpt lat="41.815704" lon="0.620748">
        <ele>328.317</ele>
        <time>2020-08-23T07:06:17Z</time>
      </trkpt>
      <trkpt lat="41.815727" lon="0.620671">
        <ele>328.279</ele>
        <time>2020-08-23T07:06:18Z</time>
      </trkpt>
      <trkpt lat="41.815747" lon="0.620593">
        <ele>328.290</ele>
        <time>2020-08-23T07:06:19Z</time>
      </trkpt>
      <trkpt lat="41.815764" lon="0.620516">
        <ele>328.231</ele>
        <time>2020-08-23T07:06:20Z</time>
      </trkpt>
      <trkpt lat="41.815783" lon="0.620442">
        <ele>328.237</ele>
        <time>2020-08-23T07:06:21Z</time>
      </trkpt>
      <trkpt lat="41.815803" lon="0.620372">
        <ele>328.226</ele>
        <time>2020-08-23T07:06:22Z</time>
      </trkpt>
      <trkpt lat="41.815818" lon="0.620297">
        <ele>328.243</ele>
        <time>2020-08-23T07:06:23Z</time>
      </trkpt>
      <trkpt lat="41.815832" lon="0.620219">
        <ele>328.264</ele>
        <time>2020-08-23T07:06:24Z</time>
      </trkpt>
      <trkpt lat="41.815849" lon="0.620144">
        <ele>328.210</ele>
        <time>2020-08-23T07:06:25Z</time>
      </trkpt>
      <trkpt lat="41.815866" lon="0.620067">
        <ele>328.208</ele>
        <time>2020-08-23T07:06:26Z</time>
      </trkpt>
      <trkpt lat="41.815885" lon="0.619989">
        <ele>328.249</ele>
        <time>2020-08-23T07:06:27Z</time>
      </trkpt>
      <trkpt lat="41.815906" lon="0.619912">
        <ele>328.259</ele>
        <time>2020-08-23T07:06:28Z</time>
      </trkpt>
      <trkpt lat="41.815923" lon="0.619834">
        <ele>328.157</ele>
        <time>2020-08-23T07:06:29Z</time>
      </trkpt>
      <trkpt lat="41.815946" lon="0.619765">
        <ele>328.049</ele>
        <time>2020-08-23T07:06:30Z</time>
      </trkpt>
      <trkpt lat="41.815968" lon="0.619694">
        <ele>328.090</ele>
        <time>2020-08-23T07:06:31Z</time>
      </trkpt>
      <trkpt lat="41.815988" lon="0.619620">
        <ele>327.931</ele>
        <time>2020-08-23T07:06:32Z</time>
      </trkpt>
      <trkpt lat="41.816006" lon="0.619553">
        <ele>327.897</ele>
        <time>2020-08-23T07:06:33Z</time>
      </trkpt>
      <trkpt lat="41.816005" lon="0.619485">
        <ele>327.816</ele>
        <time>2020-08-23T07:06:34Z</time>
      </trkpt>
      <trkpt lat="41.815984" lon="0.619412">
        <ele>327.766</ele>
        <time>2020-08-23T07:06:35Z</time>
      </trkpt>
      <trkpt lat="41.815976" lon="0.619335">
        <ele>327.629</ele>
        <time>2020-08-23T07:06:36Z</time>
      </trkpt>
      <trkpt lat="41.815983" lon="0.619265">
        <ele>327.521</ele>
        <time>2020-08-23T07:06:37Z</time>
      </trkpt>
      <trkpt lat="41.815999" lon="0.619192">
        <ele>327.408</ele>
        <time>2020-08-23T07:06:38Z</time>
      </trkpt>
      <trkpt lat="41.816012" lon="0.619110">
        <ele>327.381</ele>
        <time>2020-08-23T07:06:39Z</time>
      </trkpt>
      <trkpt lat="41.816029" lon="0.619035">
        <ele>327.221</ele>
        <time>2020-08-23T07:06:40Z</time>
      </trkpt>
      <trkpt lat="41.816049" lon="0.618961">
        <ele>327.239</ele>
        <time>2020-08-23T07:06:41Z</time>
      </trkpt>
      <trkpt lat="41.816069" lon="0.618886">
        <ele>327.221</ele>
        <time>2020-08-23T07:06:42Z</time>
      </trkpt>
      <trkpt lat="41.816085" lon="0.618807">
        <ele>327.292</ele>
        <time>2020-08-23T07:06:43Z</time>
      </trkpt>
      <trkpt lat="41.816098" lon="0.618728">
        <ele>327.223</ele>
        <time>2020-08-23T07:06:44Z</time>
      </trkpt>
      <trkpt lat="41.816115" lon="0.618656">
        <ele>327.279</ele>
        <time>2020-08-23T07:06:45Z</time>
      </trkpt>
      <trkpt lat="41.816134" lon="0.618585">
        <ele>327.248</ele>
        <time>2020-08-23T07:06:46Z</time>
      </trkpt>
      <trkpt lat="41.816155" lon="0.618509">
        <ele>327.245</ele>
        <time>2020-08-23T07:06:47Z</time>
      </trkpt>
      <trkpt lat="41.816177" lon="0.618435">
        <ele>327.247</ele>
        <time>2020-08-23T07:06:48Z</time>
      </trkpt>
      <trkpt lat="41.816195" lon="0.618358">
        <ele>327.211</ele>
        <time>2020-08-23T07:06:49Z</time>
      </trkpt>
      <trkpt lat="41.816211" lon="0.618286">
        <ele>327.208</ele>
        <time>2020-08-23T07:06:50Z</time>
      </trkpt>
      <trkpt lat="41.816217" lon="0.618213">
        <ele>327.129</ele>
        <time>2020-08-23T07:06:51Z</time>
      </trkpt>
      <trkpt lat="41.816231" lon="0.618137">
        <ele>327.049</ele>
        <time>2020-08-23T07:06:52Z</time>
      </trkpt>
      <trkpt lat="41.816240" lon="0.618065">
        <ele>326.957</ele>
        <time>2020-08-23T07:06:53Z</time>
      </trkpt>
      <trkpt lat="41.816248" lon="0.617993">
        <ele>326.829</ele>
        <time>2020-08-23T07:06:54Z</time>
      </trkpt>
      <trkpt lat="41.816250" lon="0.617920">
        <ele>326.810</ele>
        <time>2020-08-23T07:06:55Z</time>
      </trkpt>
      <trkpt lat="41.816247" lon="0.617846">
        <ele>326.861</ele>
        <time>2020-08-23T07:06:56Z</time>
      </trkpt>
      <trkpt lat="41.816244" lon="0.617774">
        <ele>326.827</ele>
        <time>2020-08-23T07:06:57Z</time>
      </trkpt>
      <trkpt lat="41.816243" lon="0.617699">
        <ele>326.846</ele>
        <time>2020-08-23T07:06:58Z</time>
      </trkpt>
      <trkpt lat="41.816238" lon="0.617615">
        <ele>326.896</ele>
        <time>2020-08-23T07:06:59Z</time>
      </trkpt>
      <trkpt lat="41.816226" lon="0.617526">
        <ele>326.731</ele>
        <time>2020-08-23T07:07:00Z</time>
      </trkpt>
      <trkpt lat="41.816213" lon="0.617446">
        <ele>326.624</ele>
        <time>2020-08-23T07:07:01Z</time>
      </trkpt>
      <trkpt lat="41.816201" lon="0.617363">
        <ele>326.508</ele>
        <time>2020-08-23T07:07:02Z</time>
      </trkpt>
      <trkpt lat="41.816190" lon="0.617282">
        <ele>326.534</ele>
        <time>2020-08-23T07:07:03Z</time>
      </trkpt>
      <trkpt lat="41.816178" lon="0.617200">
        <ele>326.534</ele>
        <time>2020-08-23T07:07:04Z</time>
      </trkpt>
      <trkpt lat="41.816160" lon="0.617120">
        <ele>326.592</ele>
        <time>2020-08-23T07:07:05Z</time>
      </trkpt>
      <trkpt lat="41.816136" lon="0.617043">
        <ele>326.574</ele>
        <time>2020-08-23T07:07:06Z</time>
      </trkpt>
      <trkpt lat="41.816111" lon="0.616970">
        <ele>326.515</ele>
        <time>2020-08-23T07:07:07Z</time>
      </trkpt>
      <trkpt lat="41.816081" lon="0.616906">
        <ele>326.536</ele>
        <time>2020-08-23T07:07:08Z</time>
      </trkpt>
      <trkpt lat="41.816046" lon="0.616847">
        <ele>326.572</ele>
        <time>2020-08-23T07:07:09Z</time>
      </trkpt>
      <trkpt lat="41.816013" lon="0.616787">
        <ele>326.581</ele>
        <time>2020-08-23T07:07:10Z</time>
      </trkpt>
      <trkpt lat="41.815973" lon="0.616727">
        <ele>326.551</ele>
        <time>2020-08-23T07:07:11Z</time>
      </trkpt>
      <trkpt lat="41.815931" lon="0.616670">
        <ele>326.401</ele>
        <time>2020-08-23T07:07:12Z</time>
      </trkpt>
      <trkpt lat="41.815886" lon="0.616613">
        <ele>326.311</ele>
        <time>2020-08-23T07:07:13Z</time>
      </trkpt>
      <trkpt lat="41.815845" lon="0.616546">
        <ele>326.008</ele>
        <time>2020-08-23T07:07:14Z</time>
      </trkpt>
      <trkpt lat="41.815818" lon="0.616471">
        <ele>325.820</ele>
        <time>2020-08-23T07:07:15Z</time>
      </trkpt>
      <trkpt lat="41.815808" lon="0.616391">
        <ele>325.680</ele>
        <time>2020-08-23T07:07:16Z</time>
      </trkpt>
      <trkpt lat="41.815795" lon="0.616312">
        <ele>325.458</ele>
        <time>2020-08-23T07:07:17Z</time>
      </trkpt>
      <trkpt lat="41.815786" lon="0.616223">
        <ele>325.180</ele>
        <time>2020-08-23T07:07:18Z</time>
      </trkpt>
      <trkpt lat="41.815777" lon="0.616127">
        <ele>325.011</ele>
        <time>2020-08-23T07:07:19Z</time>
      </trkpt>
      <trkpt lat="41.815767" lon="0.616036">
        <ele>324.632</ele>
        <time>2020-08-23T07:07:20Z</time>
      </trkpt>
      <trkpt lat="41.815757" lon="0.615945">
        <ele>324.268</ele>
        <time>2020-08-23T07:07:21Z</time>
      </trkpt>
      <trkpt lat="41.815746" lon="0.615845">
        <ele>323.857</ele>
        <time>2020-08-23T07:07:22Z</time>
      </trkpt>
      <trkpt lat="41.815728" lon="0.615738">
        <ele>323.488</ele>
        <time>2020-08-23T07:07:23Z</time>
      </trkpt>
      <trkpt lat="41.815693" lon="0.615637">
        <ele>323.024</ele>
        <time>2020-08-23T07:07:24Z</time>
      </trkpt>
      <trkpt lat="41.815647" lon="0.615540">
        <ele>322.126</ele>
        <time>2020-08-23T07:07:25Z</time>
      </trkpt>
      <trkpt lat="41.815612" lon="0.615430">
        <ele>321.708</ele>
        <time>2020-08-23T07:07:26Z</time>
      </trkpt>
      <trkpt lat="41.815590" lon="0.615310">
        <ele>321.443</ele>
        <time>2020-08-23T07:07:27Z</time>
      </trkpt>
      <trkpt lat="41.815572" lon="0.615197">
        <ele>321.123</ele>
        <time>2020-08-23T07:07:28Z</time>
      </trkpt>
      <trkpt lat="41.815558" lon="0.615091">
        <ele>320.971</ele>
        <time>2020-08-23T07:07:29Z</time>
      </trkpt>
      <trkpt lat="41.815544" lon="0.614982">
        <ele>320.713</ele>
        <time>2020-08-23T07:07:30Z</time>
      </trkpt>
      <trkpt lat="41.815532" lon="0.614870">
        <ele>320.564</ele>
        <time>2020-08-23T07:07:31Z</time>
      </trkpt>
      <trkpt lat="41.815526" lon="0.614764">
        <ele>320.345</ele>
        <time>2020-08-23T07:07:32Z</time>
      </trkpt>
      <trkpt lat="41.815521" lon="0.614670">
        <ele>320.111</ele>
        <time>2020-08-23T07:07:33Z</time>
      </trkpt>
      <trkpt lat="41.815517" lon="0.614580">
        <ele>319.920</ele>
        <time>2020-08-23T07:07:34Z</time>
      </trkpt>
      <trkpt lat="41.815512" lon="0.614490">
        <ele>319.896</ele>
        <time>2020-08-23T07:07:35Z</time>
      </trkpt>
      <trkpt lat="41.815514" lon="0.614409">
        <ele>319.731</ele>
        <time>2020-08-23T07:07:36Z</time>
      </trkpt>
      <trkpt lat="41.815523" lon="0.614326">
        <ele>319.624</ele>
        <time>2020-08-23T07:07:37Z</time>
      </trkpt>
      <trkpt lat="41.815525" lon="0.614244">
        <ele>319.608</ele>
        <time>2020-08-23T07:07:38Z</time>
      </trkpt>
      <trkpt lat="41.815531" lon="0.614166">
        <ele>319.644</ele>
        <time>2020-08-23T07:07:39Z</time>
      </trkpt>
      <trkpt lat="41.815540" lon="0.614085">
        <ele>319.674</ele>
        <time>2020-08-23T07:07:40Z</time>
      </trkpt>
      <trkpt lat="41.815552" lon="0.614005">
        <ele>319.682</ele>
        <time>2020-08-23T07:07:41Z</time>
      </trkpt>
      <trkpt lat="41.815572" lon="0.613932">
        <ele>319.654</ele>
        <time>2020-08-23T07:07:42Z</time>
      </trkpt>
      <trkpt lat="41.815589" lon="0.613857">
        <ele>319.675</ele>
        <time>2020-08-23T07:07:43Z</time>
      </trkpt>
      <trkpt lat="41.815597" lon="0.613782">
        <ele>319.536</ele>
        <time>2020-08-23T07:07:44Z</time>
      </trkpt>
      <trkpt lat="41.815597" lon="0.613702">
        <ele>319.422</ele>
        <time>2020-08-23T07:07:45Z</time>
      </trkpt>
      <trkpt lat="41.815600" lon="0.613624">
        <ele>319.431</ele>
        <time>2020-08-23T07:07:46Z</time>
      </trkpt>
      <trkpt lat="41.815600" lon="0.613545">
        <ele>319.336</ele>
        <time>2020-08-23T07:07:47Z</time>
      </trkpt>
      <trkpt lat="41.815597" lon="0.613467">
        <ele>319.317</ele>
        <time>2020-08-23T07:07:48Z</time>
      </trkpt>
      <trkpt lat="41.815590" lon="0.613387">
        <ele>319.318</ele>
        <time>2020-08-23T07:07:49Z</time>
      </trkpt>
      <trkpt lat="41.815579" lon="0.613305">
        <ele>319.308</ele>
        <time>2020-08-23T07:07:50Z</time>
      </trkpt>
      <trkpt lat="41.815566" lon="0.613222">
        <ele>319.358</ele>
        <time>2020-08-23T07:07:51Z</time>
      </trkpt>
      <trkpt lat="41.815545" lon="0.613140">
        <ele>319.318</ele>
        <time>2020-08-23T07:07:52Z</time>
      </trkpt>
      <trkpt lat="41.815525" lon="0.613057">
        <ele>319.346</ele>
        <time>2020-08-23T07:07:53Z</time>
      </trkpt>
      <trkpt lat="41.815507" lon="0.612975">
        <ele>319.338</ele>
        <time>2020-08-23T07:07:54Z</time>
      </trkpt>
      <trkpt lat="41.815494" lon="0.612895">
        <ele>319.399</ele>
        <time>2020-08-23T07:07:55Z</time>
      </trkpt>
      <trkpt lat="41.815481" lon="0.612818">
        <ele>319.320</ele>
        <time>2020-08-23T07:07:56Z</time>
      </trkpt>
      <trkpt lat="41.815470" lon="0.612739">
        <ele>319.356</ele>
        <time>2020-08-23T07:07:57Z</time>
      </trkpt>
      <trkpt lat="41.815457" lon="0.612658">
        <ele>319.355</ele>
        <time>2020-08-23T07:07:58Z</time>
      </trkpt>
      <trkpt lat="41.815447" lon="0.612578">
        <ele>319.384</ele>
        <time>2020-08-23T07:07:59Z</time>
      </trkpt>
      <trkpt lat="41.815442" lon="0.612497">
        <ele>319.307</ele>
        <time>2020-08-23T07:08:00Z</time>
      </trkpt>
      <trkpt lat="41.815431" lon="0.612413">
        <ele>319.317</ele>
        <time>2020-08-23T07:08:01Z</time>
      </trkpt>
      <trkpt lat="41.815424" lon="0.612329">
        <ele>319.308</ele>
        <time>2020-08-23T07:08:02Z</time>
      </trkpt>
      <trkpt lat="41.815417" lon="0.612254">
        <ele>319.373</ele>
        <time>2020-08-23T07:08:03Z</time>
      </trkpt>
      <trkpt lat="41.815409" lon="0.612180">
        <ele>319.363</ele>
        <time>2020-08-23T07:08:04Z</time>
      </trkpt>
      <trkpt lat="41.815395" lon="0.612110">
        <ele>319.341</ele>
        <time>2020-08-23T07:08:05Z</time>
      </trkpt>
      <trkpt lat="41.815379" lon="0.612037">
        <ele>319.313</ele>
        <time>2020-08-23T07:08:06Z</time>
      </trkpt>
      <trkpt lat="41.815357" lon="0.611968">
        <ele>319.324</ele>
        <time>2020-08-23T07:08:07Z</time>
      </trkpt>
      <trkpt lat="41.815333" lon="0.611902">
        <ele>319.385</ele>
        <time>2020-08-23T07:08:08Z</time>
      </trkpt>
      <trkpt lat="41.815316" lon="0.611839">
        <ele>319.361</ele>
        <time>2020-08-23T07:08:09Z</time>
      </trkpt>
      <trkpt lat="41.815303" lon="0.611776">
        <ele>319.350</ele>
        <time>2020-08-23T07:08:10Z</time>
      </trkpt>
      <trkpt lat="41.815284" lon="0.611711">
        <ele>319.367</ele>
        <time>2020-08-23T07:08:11Z</time>
      </trkpt>
      <trkpt lat="41.815270" lon="0.611645">
        <ele>319.381</ele>
        <time>2020-08-23T07:08:12Z</time>
      </trkpt>
      <trkpt lat="41.815250" lon="0.611581">
        <ele>319.319</ele>
        <time>2020-08-23T07:08:13Z</time>
      </trkpt>
      <trkpt lat="41.815222" lon="0.611521">
        <ele>319.308</ele>
        <time>2020-08-23T07:08:14Z</time>
      </trkpt>
      <trkpt lat="41.815189" lon="0.611465">
        <ele>319.321</ele>
        <time>2020-08-23T07:08:15Z</time>
      </trkpt>
      <trkpt lat="41.815158" lon="0.611405">
        <ele>319.311</ele>
        <time>2020-08-23T07:08:16Z</time>
      </trkpt>
      <trkpt lat="41.815128" lon="0.611345">
        <ele>319.369</ele>
        <time>2020-08-23T07:08:17Z</time>
      </trkpt>
      <trkpt lat="41.815090" lon="0.611292">
        <ele>319.331</ele>
        <time>2020-08-23T07:08:18Z</time>
      </trkpt>
      <trkpt lat="41.815051" lon="0.611246">
        <ele>319.322</ele>
        <time>2020-08-23T07:08:19Z</time>
      </trkpt>
      <trkpt lat="41.815013" lon="0.611194">
        <ele>319.373</ele>
        <time>2020-08-23T07:08:20Z</time>
      </trkpt>
      <trkpt lat="41.814973" lon="0.611150">
        <ele>319.399</ele>
        <time>2020-08-23T07:08:21Z</time>
      </trkpt>
      <trkpt lat="41.814932" lon="0.611110">
        <ele>319.328</ele>
        <time>2020-08-23T07:08:22Z</time>
      </trkpt>
      <trkpt lat="41.814892" lon="0.611068">
        <ele>319.428</ele>
        <time>2020-08-23T07:08:23Z</time>
      </trkpt>
      <trkpt lat="41.814852" lon="0.611026">
        <ele>319.589</ele>
        <time>2020-08-23T07:08:24Z</time>
      </trkpt>
      <trkpt lat="41.814813" lon="0.610979">
        <ele>319.617</ele>
        <time>2020-08-23T07:08:25Z</time>
      </trkpt>
      <trkpt lat="41.814777" lon="0.610926">
        <ele>319.708</ele>
        <time>2020-08-23T07:08:26Z</time>
      </trkpt>
      <trkpt lat="41.814747" lon="0.610864">
        <ele>319.887</ele>
        <time>2020-08-23T07:08:27Z</time>
      </trkpt>
      <trkpt lat="41.814707" lon="0.610809">
        <ele>319.987</ele>
        <time>2020-08-23T07:08:28Z</time>
      </trkpt>
      <trkpt lat="41.814668" lon="0.610757">
        <ele>320.095</ele>
        <time>2020-08-23T07:08:29Z</time>
      </trkpt>
      <trkpt lat="41.814625" lon="0.610708">
        <ele>320.147</ele>
        <time>2020-08-23T07:08:30Z</time>
      </trkpt>
      <trkpt lat="41.814585" lon="0.610660">
        <ele>320.298</ele>
        <time>2020-08-23T07:08:31Z</time>
      </trkpt>
      <trkpt lat="41.814543" lon="0.610613">
        <ele>320.239</ele>
        <time>2020-08-23T07:08:32Z</time>
      </trkpt>
      <trkpt lat="41.814503" lon="0.610567">
        <ele>320.345</ele>
        <time>2020-08-23T07:08:33Z</time>
      </trkpt>
      <trkpt lat="41.814465" lon="0.610521">
        <ele>320.444</ele>
        <time>2020-08-23T07:08:34Z</time>
      </trkpt>
      <trkpt lat="41.814434" lon="0.610472">
        <ele>320.552</ele>
        <time>2020-08-23T07:08:35Z</time>
      </trkpt>
      <trkpt lat="41.814407" lon="0.610419">
        <ele>320.653</ele>
        <time>2020-08-23T07:08:36Z</time>
      </trkpt>
      <trkpt lat="41.814380" lon="0.610364">
        <ele>320.708</ele>
        <time>2020-08-23T07:08:37Z</time>
      </trkpt>
      <trkpt lat="41.814338" lon="0.610256">
        <ele>320.908</ele>
        <time>2020-08-23T07:08:39Z</time>
      </trkpt>
      <trkpt lat="41.814320" lon="0.610199">
        <ele>320.920</ele>
        <time>2020-08-23T07:08:40Z</time>
      </trkpt>
      <trkpt lat="41.814301" lon="0.610132">
        <ele>320.970</ele>
        <time>2020-08-23T07:08:41Z</time>
      </trkpt>
      <trkpt lat="41.814284" lon="0.610059">
        <ele>320.938</ele>
        <time>2020-08-23T07:08:42Z</time>
      </trkpt>
      <trkpt lat="41.814269" lon="0.609992">
        <ele>320.850</ele>
        <time>2020-08-23T07:08:43Z</time>
      </trkpt>
      <trkpt lat="41.814265" lon="0.609921">
        <ele>320.711</ele>
        <time>2020-08-23T07:08:44Z</time>
      </trkpt>
      <trkpt lat="41.814271" lon="0.609847">
        <ele>320.612</ele>
        <time>2020-08-23T07:08:45Z</time>
      </trkpt>
      <trkpt lat="41.814279" lon="0.609768">
        <ele>320.498</ele>
        <time>2020-08-23T07:08:46Z</time>
      </trkpt>
      <trkpt lat="41.814285" lon="0.609685">
        <ele>320.117</ele>
        <time>2020-08-23T07:08:47Z</time>
      </trkpt>
      <trkpt lat="41.814298" lon="0.609604">
        <ele>319.936</ele>
        <time>2020-08-23T07:08:48Z</time>
      </trkpt>
      <trkpt lat="41.814310" lon="0.609526">
        <ele>319.717</ele>
        <time>2020-08-23T07:08:49Z</time>
      </trkpt>
      <trkpt lat="41.814323" lon="0.609443">
        <ele>319.518</ele>
        <time>2020-08-23T07:08:50Z</time>
      </trkpt>
      <trkpt lat="41.814341" lon="0.609355">
        <ele>319.308</ele>
        <time>2020-08-23T07:08:51Z</time>
      </trkpt>
      <trkpt lat="41.814356" lon="0.609266">
        <ele>319.138</ele>
        <time>2020-08-23T07:08:52Z</time>
      </trkpt>
      <trkpt lat="41.814372" lon="0.609178">
        <ele>318.868</ele>
        <time>2020-08-23T07:08:53Z</time>
      </trkpt>
      <trkpt lat="41.814389" lon="0.609089">
        <ele>318.656</ele>
        <time>2020-08-23T07:08:54Z</time>
      </trkpt>
      <trkpt lat="41.814392" lon="0.608994">
        <ele>318.468</ele>
        <time>2020-08-23T07:08:55Z</time>
      </trkpt>
      <trkpt lat="41.814400" lon="0.608900">
        <ele>318.279</ele>
        <time>2020-08-23T07:08:56Z</time>
      </trkpt>
      <trkpt lat="41.814410" lon="0.608809">
        <ele>318.040</ele>
        <time>2020-08-23T07:08:57Z</time>
      </trkpt>
      <trkpt lat="41.814419" lon="0.608723">
        <ele>317.536</ele>
        <time>2020-08-23T07:08:58Z</time>
      </trkpt>
      <trkpt lat="41.814424" lon="0.608637">
        <ele>317.235</ele>
        <time>2020-08-23T07:08:59Z</time>
      </trkpt>
      <trkpt lat="41.814426" lon="0.608550">
        <ele>317.086</ele>
        <time>2020-08-23T07:09:00Z</time>
      </trkpt>
      <trkpt lat="41.814430" lon="0.608464">
        <ele>316.760</ele>
        <time>2020-08-23T07:09:01Z</time>
      </trkpt>
      <trkpt lat="41.814435" lon="0.608386">
        <ele>316.526</ele>
        <time>2020-08-23T07:09:02Z</time>
      </trkpt>
      <trkpt lat="41.814439" lon="0.608306">
        <ele>316.308</ele>
        <time>2020-08-23T07:09:03Z</time>
      </trkpt>
      <trkpt lat="41.814436" lon="0.608216">
        <ele>316.223</ele>
        <time>2020-08-23T07:09:04Z</time>
      </trkpt>
      <trkpt lat="41.814422" lon="0.608126">
        <ele>316.023</ele>
        <time>2020-08-23T07:09:05Z</time>
      </trkpt>
      <trkpt lat="41.814409" lon="0.608033">
        <ele>315.911</ele>
        <time>2020-08-23T07:09:06Z</time>
      </trkpt>
      <trkpt lat="41.814392" lon="0.607938">
        <ele>315.853</ele>
        <time>2020-08-23T07:09:07Z</time>
      </trkpt>
      <trkpt lat="41.814376" lon="0.607842">
        <ele>315.724</ele>
        <time>2020-08-23T07:09:08Z</time>
      </trkpt>
      <trkpt lat="41.814366" lon="0.607753">
        <ele>315.695</ele>
        <time>2020-08-23T07:09:09Z</time>
      </trkpt>
      <trkpt lat="41.814355" lon="0.607660">
        <ele>315.591</ele>
        <time>2020-08-23T07:09:10Z</time>
      </trkpt>
      <trkpt lat="41.814339" lon="0.607562">
        <ele>315.430</ele>
        <time>2020-08-23T07:09:11Z</time>
      </trkpt>
      <trkpt lat="41.814321" lon="0.607472">
        <ele>315.276</ele>
        <time>2020-08-23T07:09:12Z</time>
      </trkpt>
      <trkpt lat="41.814299" lon="0.607384">
        <ele>315.190</ele>
        <time>2020-08-23T07:09:13Z</time>
      </trkpt>
      <trkpt lat="41.814275" lon="0.607296">
        <ele>315.019</ele>
        <time>2020-08-23T07:09:14Z</time>
      </trkpt>
      <trkpt lat="41.814255" lon="0.607208">
        <ele>314.808</ele>
        <time>2020-08-23T07:09:15Z</time>
      </trkpt>
      <trkpt lat="41.814235" lon="0.607121">
        <ele>314.512</ele>
        <time>2020-08-23T07:09:16Z</time>
      </trkpt>
      <trkpt lat="41.814215" lon="0.607033">
        <ele>314.322</ele>
        <time>2020-08-23T07:09:17Z</time>
      </trkpt>
      <trkpt lat="41.814199" lon="0.606949">
        <ele>314.290</ele>
        <time>2020-08-23T07:09:18Z</time>
      </trkpt>
      <trkpt lat="41.814180" lon="0.606868">
        <ele>314.172</ele>
        <time>2020-08-23T07:09:19Z</time>
      </trkpt>
      <trkpt lat="41.814158" lon="0.606783">
        <ele>314.093</ele>
        <time>2020-08-23T07:09:20Z</time>
      </trkpt>
      <trkpt lat="41.814136" lon="0.606696">
        <ele>313.964</ele>
        <time>2020-08-23T07:09:21Z</time>
      </trkpt>
      <trkpt lat="41.814116" lon="0.606613">
        <ele>313.840</ele>
        <time>2020-08-23T07:09:22Z</time>
      </trkpt>
      <trkpt lat="41.814094" lon="0.606532">
        <ele>313.719</ele>
        <time>2020-08-23T07:09:23Z</time>
      </trkpt>
      <trkpt lat="41.814067" lon="0.606448">
        <ele>313.615</ele>
        <time>2020-08-23T07:09:24Z</time>
      </trkpt>
      <trkpt lat="41.814037" lon="0.606365">
        <ele>313.565</ele>
        <time>2020-08-23T07:09:25Z</time>
      </trkpt>
      <trkpt lat="41.814010" lon="0.606280">
        <ele>313.511</ele>
        <time>2020-08-23T07:09:26Z</time>
      </trkpt>
      <trkpt lat="41.813984" lon="0.606198">
        <ele>313.408</ele>
        <time>2020-08-23T07:09:27Z</time>
      </trkpt>
      <trkpt lat="41.813961" lon="0.606114">
        <ele>313.386</ele>
        <time>2020-08-23T07:09:28Z</time>
      </trkpt>
      <trkpt lat="41.813941" lon="0.606029">
        <ele>313.256</ele>
        <time>2020-08-23T07:09:29Z</time>
      </trkpt>
      <trkpt lat="41.813926" lon="0.605947">
        <ele>313.124</ele>
        <time>2020-08-23T07:09:30Z</time>
      </trkpt>
      <trkpt lat="41.813911" lon="0.605860">
        <ele>313.096</ele>
        <time>2020-08-23T07:09:31Z</time>
      </trkpt>
      <trkpt lat="41.813900" lon="0.605776">
        <ele>312.957</ele>
        <time>2020-08-23T07:09:32Z</time>
      </trkpt>
      <trkpt lat="41.813889" lon="0.605698">
        <ele>312.828</ele>
        <time>2020-08-23T07:09:33Z</time>
      </trkpt>
      <trkpt lat="41.813876" lon="0.605625">
        <ele>312.814</ele>
        <time>2020-08-23T07:09:34Z</time>
      </trkpt>
      <trkpt lat="41.813863" lon="0.605548">
        <ele>312.723</ele>
        <time>2020-08-23T07:09:35Z</time>
      </trkpt>
      <trkpt lat="41.813841" lon="0.605465">
        <ele>312.726</ele>
        <time>2020-08-23T07:09:36Z</time>
      </trkpt>
      <trkpt lat="41.813825" lon="0.605383">
        <ele>312.747</ele>
        <time>2020-08-23T07:09:37Z</time>
      </trkpt>
      <trkpt lat="41.813809" lon="0.605306">
        <ele>312.711</ele>
        <time>2020-08-23T07:09:38Z</time>
      </trkpt>
      <trkpt lat="41.813791" lon="0.605225">
        <ele>312.608</ele>
        <time>2020-08-23T07:09:39Z</time>
      </trkpt>
      <trkpt lat="41.813776" lon="0.605141">
        <ele>312.567</ele>
        <time>2020-08-23T07:09:40Z</time>
      </trkpt>
      <trkpt lat="41.813756" lon="0.605059">
        <ele>312.417</ele>
        <time>2020-08-23T07:09:41Z</time>
      </trkpt>
      <trkpt lat="41.813741" lon="0.604978">
        <ele>312.365</ele>
        <time>2020-08-23T07:09:42Z</time>
      </trkpt>
      <trkpt lat="41.813721" lon="0.604895">
        <ele>312.287</ele>
        <time>2020-08-23T07:09:43Z</time>
      </trkpt>
      <trkpt lat="41.813700" lon="0.604814">
        <ele>312.128</ele>
        <time>2020-08-23T07:09:44Z</time>
      </trkpt>
      <trkpt lat="41.813680" lon="0.604735">
        <ele>312.139</ele>
        <time>2020-08-23T07:09:45Z</time>
      </trkpt>
      <trkpt lat="41.813653" lon="0.604660">
        <ele>312.145</ele>
        <time>2020-08-23T07:09:46Z</time>
      </trkpt>
      <trkpt lat="41.813627" lon="0.604579">
        <ele>312.084</ele>
        <time>2020-08-23T07:09:47Z</time>
      </trkpt>
      <trkpt lat="41.813593" lon="0.604496">
        <ele>311.938</ele>
        <time>2020-08-23T07:09:48Z</time>
      </trkpt>
      <trkpt lat="41.813560" lon="0.604413">
        <ele>311.770</ele>
        <time>2020-08-23T07:09:49Z</time>
      </trkpt>
      <trkpt lat="41.813534" lon="0.604327">
        <ele>311.517</ele>
        <time>2020-08-23T07:09:50Z</time>
      </trkpt>
      <trkpt lat="41.813506" lon="0.604245">
        <ele>311.208</ele>
        <time>2020-08-23T07:09:51Z</time>
      </trkpt>
      <trkpt lat="41.813475" lon="0.604159">
        <ele>310.928</ele>
        <time>2020-08-23T07:09:52Z</time>
      </trkpt>
      <trkpt lat="41.813447" lon="0.604075">
        <ele>310.688</ele>
        <time>2020-08-23T07:09:53Z</time>
      </trkpt>
      <trkpt lat="41.813418" lon="0.603994">
        <ele>310.156</ele>
        <time>2020-08-23T07:09:54Z</time>
      </trkpt>
      <trkpt lat="41.813388" lon="0.603909">
        <ele>309.888</ele>
        <time>2020-08-23T07:09:55Z</time>
      </trkpt>
      <trkpt lat="41.813359" lon="0.603827">
        <ele>309.649</ele>
        <time>2020-08-23T07:09:56Z</time>
      </trkpt>
      <trkpt lat="41.813334" lon="0.603739">
        <ele>309.470</ele>
        <time>2020-08-23T07:09:57Z</time>
      </trkpt>
      <trkpt lat="41.813308" lon="0.603656">
        <ele>309.296</ele>
        <time>2020-08-23T07:09:58Z</time>
      </trkpt>
      <trkpt lat="41.813283" lon="0.603569">
        <ele>309.095</ele>
        <time>2020-08-23T07:09:59Z</time>
      </trkpt>
      <trkpt lat="41.813254" lon="0.603476">
        <ele>308.783</ele>
        <time>2020-08-23T07:10:00Z</time>
      </trkpt>
      <trkpt lat="41.813218" lon="0.603379">
        <ele>308.425</ele>
        <time>2020-08-23T07:10:01Z</time>
      </trkpt>
      <trkpt lat="41.813184" lon="0.603286">
        <ele>308.117</ele>
        <time>2020-08-23T07:10:02Z</time>
      </trkpt>
      <trkpt lat="41.813152" lon="0.603195">
        <ele>307.808</ele>
        <time>2020-08-23T07:10:03Z</time>
      </trkpt>
      <trkpt lat="41.813117" lon="0.603108">
        <ele>307.673</ele>
        <time>2020-08-23T07:10:04Z</time>
      </trkpt>
      <trkpt lat="41.813083" lon="0.603019">
        <ele>307.423</ele>
        <time>2020-08-23T07:10:05Z</time>
      </trkpt>
      <trkpt lat="41.813053" lon="0.602925">
        <ele>307.361</ele>
        <time>2020-08-23T07:10:06Z</time>
      </trkpt>
      <trkpt lat="41.813024" lon="0.602831">
        <ele>307.233</ele>
        <time>2020-08-23T07:10:07Z</time>
      </trkpt>
      <trkpt lat="41.813001" lon="0.602739">
        <ele>307.084</ele>
        <time>2020-08-23T07:10:08Z</time>
      </trkpt>
      <trkpt lat="41.812978" lon="0.602649">
        <ele>306.825</ele>
        <time>2020-08-23T07:10:09Z</time>
      </trkpt>
      <trkpt lat="41.812962" lon="0.602558">
        <ele>306.751</ele>
        <time>2020-08-23T07:10:10Z</time>
      </trkpt>
      <trkpt lat="41.812950" lon="0.602461">
        <ele>306.560</ele>
        <time>2020-08-23T07:10:11Z</time>
      </trkpt>
      <trkpt lat="41.812938" lon="0.602364">
        <ele>306.372</ele>
        <time>2020-08-23T07:10:12Z</time>
      </trkpt>
      <trkpt lat="41.812930" lon="0.602270">
        <ele>305.913</ele>
        <time>2020-08-23T07:10:13Z</time>
      </trkpt>
      <trkpt lat="41.812918" lon="0.602174">
        <ele>305.714</ele>
        <time>2020-08-23T07:10:14Z</time>
      </trkpt>
      <trkpt lat="41.812911" lon="0.602077">
        <ele>305.508</ele>
        <time>2020-08-23T07:10:15Z</time>
      </trkpt>
      <trkpt lat="41.812902" lon="0.601979">
        <ele>305.372</ele>
        <time>2020-08-23T07:10:16Z</time>
      </trkpt>
      <trkpt lat="41.812895" lon="0.601885">
        <ele>305.192</ele>
        <time>2020-08-23T07:10:17Z</time>
      </trkpt>
      <trkpt lat="41.812890" lon="0.601791">
        <ele>304.910</ele>
        <time>2020-08-23T07:10:18Z</time>
      </trkpt>
      <trkpt lat="41.812881" lon="0.601692">
        <ele>304.892</ele>
        <time>2020-08-23T07:10:19Z</time>
      </trkpt>
      <trkpt lat="41.812867" lon="0.601590">
        <ele>304.733</ele>
        <time>2020-08-23T07:10:20Z</time>
      </trkpt>
      <trkpt lat="41.812844" lon="0.601495">
        <ele>304.514</ele>
        <time>2020-08-23T07:10:21Z</time>
      </trkpt>
      <trkpt lat="41.812821" lon="0.601400">
        <ele>304.310</ele>
        <time>2020-08-23T07:10:22Z</time>
      </trkpt>
      <trkpt lat="41.812784" lon="0.601313">
        <ele>304.059</ele>
        <time>2020-08-23T07:10:23Z</time>
      </trkpt>
      <trkpt lat="41.812749" lon="0.601229">
        <ele>303.837</ele>
        <time>2020-08-23T07:10:24Z</time>
      </trkpt>
      <trkpt lat="41.812709" lon="0.601143">
        <ele>303.649</ele>
        <time>2020-08-23T07:10:25Z</time>
      </trkpt>
      <trkpt lat="41.812669" lon="0.601053">
        <ele>303.313</ele>
        <time>2020-08-23T07:10:26Z</time>
      </trkpt>
      <trkpt lat="41.812627" lon="0.600962">
        <ele>303.108</ele>
        <time>2020-08-23T07:10:27Z</time>
      </trkpt>
      <trkpt lat="41.812591" lon="0.600872">
        <ele>303.058</ele>
        <time>2020-08-23T07:10:28Z</time>
      </trkpt>
      <trkpt lat="41.812553" lon="0.600785">
        <ele>302.888</ele>
        <time>2020-08-23T07:10:29Z</time>
      </trkpt>
      <trkpt lat="41.812515" lon="0.600699">
        <ele>302.616</ele>
        <time>2020-08-23T07:10:30Z</time>
      </trkpt>
      <trkpt lat="41.812474" lon="0.600615">
        <ele>302.368</ele>
        <time>2020-08-23T07:10:31Z</time>
      </trkpt>
      <trkpt lat="41.812432" lon="0.600532">
        <ele>302.199</ele>
        <time>2020-08-23T07:10:32Z</time>
      </trkpt>
      <trkpt lat="41.812387" lon="0.600449">
        <ele>301.970</ele>
        <time>2020-08-23T07:10:33Z</time>
      </trkpt>
      <trkpt lat="41.812344" lon="0.600357">
        <ele>301.786</ele>
        <time>2020-08-23T07:10:34Z</time>
      </trkpt>
      <trkpt lat="41.812304" lon="0.600266">
        <ele>301.555</ele>
        <time>2020-08-23T07:10:35Z</time>
      </trkpt>
      <trkpt lat="41.812268" lon="0.600179">
        <ele>301.254</ele>
        <time>2020-08-23T07:10:36Z</time>
      </trkpt>
      <trkpt lat="41.812236" lon="0.600100">
        <ele>300.956</ele>
        <time>2020-08-23T07:10:37Z</time>
      </trkpt>
      <trkpt lat="41.812203" lon="0.600022">
        <ele>300.611</ele>
        <time>2020-08-23T07:10:38Z</time>
      </trkpt>
      <trkpt lat="41.812167" lon="0.599943">
        <ele>300.208</ele>
        <time>2020-08-23T07:10:39Z</time>
      </trkpt>
      <trkpt lat="41.812131" lon="0.599868">
        <ele>299.980</ele>
        <time>2020-08-23T07:10:40Z</time>
      </trkpt>
      <trkpt lat="41.812100" lon="0.599799">
        <ele>299.710</ele>
        <time>2020-08-23T07:10:41Z</time>
      </trkpt>
      <trkpt lat="41.812072" lon="0.599742">
        <ele>299.568</ele>
        <time>2020-08-23T07:10:42Z</time>
      </trkpt>
      <trkpt lat="41.812039" lon="0.599698">
        <ele>299.340</ele>
        <time>2020-08-23T07:10:43Z</time>
      </trkpt>
      <trkpt lat="41.812000" lon="0.599603">
        <ele>299.231</ele>
        <time>2020-08-23T07:10:45Z</time>
      </trkpt>
      <trkpt lat="41.812002" lon="0.599521">
        <ele>299.132</ele>
        <time>2020-08-23T07:10:47Z</time>
      </trkpt>
      <trkpt lat="41.812048" lon="0.599448">
        <ele>298.778</ele>
        <time>2020-08-23T07:10:49Z</time>
      </trkpt>
      <trkpt lat="41.812116" lon="0.599372">
        <ele>298.467</ele>
        <time>2020-08-23T07:10:51Z</time>
      </trkpt>
      <trkpt lat="41.812171" lon="0.599277">
        <ele>298.328</ele>
        <time>2020-08-23T07:10:53Z</time>
      </trkpt>
      <trkpt lat="41.812234" lon="0.599193">
        <ele>298.289</ele>
        <time>2020-08-23T07:10:55Z</time>
      </trkpt>
      <trkpt lat="41.812269" lon="0.599151">
        <ele>298.217</ele>
        <time>2020-08-23T07:10:56Z</time>
      </trkpt>
      <trkpt lat="41.812308" lon="0.599107">
        <ele>298.208</ele>
        <time>2020-08-23T07:10:57Z</time>
      </trkpt>
      <trkpt lat="41.812351" lon="0.599077">
        <ele>298.247</ele>
        <time>2020-08-23T07:10:58Z</time>
      </trkpt>
      <trkpt lat="41.812394" lon="0.599054">
        <ele>298.247</ele>
        <time>2020-08-23T07:10:59Z</time>
      </trkpt>
      <trkpt lat="41.812436" lon="0.599026">
        <ele>298.345</ele>
        <time>2020-08-23T07:11:00Z</time>
      </trkpt>
      <trkpt lat="41.812481" lon="0.598997">
        <ele>298.347</ele>
        <time>2020-08-23T07:11:01Z</time>
      </trkpt>
      <trkpt lat="41.812525" lon="0.598966">
        <ele>298.398</ele>
        <time>2020-08-23T07:11:02Z</time>
      </trkpt>
      <trkpt lat="41.812569" lon="0.598931">
        <ele>298.349</ele>
        <time>2020-08-23T07:11:03Z</time>
      </trkpt>
      <trkpt lat="41.812612" lon="0.598897">
        <ele>298.335</ele>
        <time>2020-08-23T07:11:04Z</time>
      </trkpt>
      <trkpt lat="41.812651" lon="0.598861">
        <ele>298.384</ele>
        <time>2020-08-23T07:11:05Z</time>
      </trkpt>
      <trkpt lat="41.812691" lon="0.598824">
        <ele>298.341</ele>
        <time>2020-08-23T07:11:06Z</time>
      </trkpt>
      <trkpt lat="41.812731" lon="0.598786">
        <ele>298.381</ele>
        <time>2020-08-23T07:11:07Z</time>
      </trkpt>
      <trkpt lat="41.812769" lon="0.598746">
        <ele>298.309</ele>
        <time>2020-08-23T07:11:08Z</time>
      </trkpt>
      <trkpt lat="41.812804" lon="0.598698">
        <ele>298.308</ele>
        <time>2020-08-23T07:11:09Z</time>
      </trkpt>
      <trkpt lat="41.812838" lon="0.598650">
        <ele>298.349</ele>
        <time>2020-08-23T07:11:10Z</time>
      </trkpt>
      <trkpt lat="41.812867" lon="0.598593">
        <ele>298.329</ele>
        <time>2020-08-23T07:11:11Z</time>
      </trkpt>
      <trkpt lat="41.812900" lon="0.598541">
        <ele>298.367</ele>
        <time>2020-08-23T07:11:12Z</time>
      </trkpt>
      <trkpt lat="41.812931" lon="0.598489">
        <ele>298.319</ele>
        <time>2020-08-23T07:11:13Z</time>
      </trkpt>
      <trkpt lat="41.812970" lon="0.598443">
        <ele>298.420</ele>
        <time>2020-08-23T07:11:14Z</time>
      </trkpt>
      <trkpt lat="41.813008" lon="0.598398">
        <ele>298.541</ele>
        <time>2020-08-23T07:11:15Z</time>
      </trkpt>
      <trkpt lat="41.813042" lon="0.598350">
        <ele>298.667</ele>
        <time>2020-08-23T07:11:16Z</time>
      </trkpt>
      <trkpt lat="41.813079" lon="0.598299">
        <ele>298.696</ele>
        <time>2020-08-23T07:11:17Z</time>
      </trkpt>
      <trkpt lat="41.813119" lon="0.598249">
        <ele>298.648</ele>
        <time>2020-08-23T07:11:18Z</time>
      </trkpt>
      <trkpt lat="41.813154" lon="0.598194">
        <ele>298.661</ele>
        <time>2020-08-23T07:11:19Z</time>
      </trkpt>
      <trkpt lat="41.813195" lon="0.598145">
        <ele>298.617</ele>
        <time>2020-08-23T07:11:20Z</time>
      </trkpt>
      <trkpt lat="41.813229" lon="0.598093">
        <ele>298.608</ele>
        <time>2020-08-23T07:11:21Z</time>
      </trkpt>
      <trkpt lat="41.813268" lon="0.598044">
        <ele>298.679</ele>
        <time>2020-08-23T07:11:22Z</time>
      </trkpt>
      <trkpt lat="41.813302" lon="0.597989">
        <ele>298.659</ele>
        <time>2020-08-23T07:11:23Z</time>
      </trkpt>
      <trkpt lat="41.813335" lon="0.597938">
        <ele>298.667</ele>
        <time>2020-08-23T07:11:24Z</time>
      </trkpt>
      <trkpt lat="41.813372" lon="0.597888">
        <ele>298.629</ele>
        <time>2020-08-23T07:11:25Z</time>
      </trkpt>
      <trkpt lat="41.813410" lon="0.597836">
        <ele>298.610</ele>
        <time>2020-08-23T07:11:26Z</time>
      </trkpt>
      <trkpt lat="41.813445" lon="0.597786">
        <ele>298.651</ele>
        <time>2020-08-23T07:11:27Z</time>
      </trkpt>
      <trkpt lat="41.813479" lon="0.597734">
        <ele>298.757</ele>
        <time>2020-08-23T07:11:28Z</time>
      </trkpt>
      <trkpt lat="41.813513" lon="0.597681">
        <ele>298.796</ele>
        <time>2020-08-23T07:11:29Z</time>
      </trkpt>
      <trkpt lat="41.813545" lon="0.597632">
        <ele>298.754</ele>
        <time>2020-08-23T07:11:30Z</time>
      </trkpt>
      <trkpt lat="41.813575" lon="0.597584">
        <ele>298.756</ele>
        <time>2020-08-23T07:11:31Z</time>
      </trkpt>
      <trkpt lat="41.813604" lon="0.597534">
        <ele>298.711</ele>
        <time>2020-08-23T07:11:32Z</time>
      </trkpt>
      <trkpt lat="41.813635" lon="0.597485">
        <ele>298.708</ele>
        <time>2020-08-23T07:11:33Z</time>
      </trkpt>
      <trkpt lat="41.813665" lon="0.597433">
        <ele>298.790</ele>
        <time>2020-08-23T07:11:34Z</time>
      </trkpt>
      <trkpt lat="41.813698" lon="0.597382">
        <ele>298.730</ele>
        <time>2020-08-23T07:11:35Z</time>
      </trkpt>
      <trkpt lat="41.813728" lon="0.597328">
        <ele>298.748</ele>
        <time>2020-08-23T07:11:36Z</time>
      </trkpt>
      <trkpt lat="41.813758" lon="0.597275">
        <ele>298.870</ele>
        <time>2020-08-23T07:11:37Z</time>
      </trkpt>
      <trkpt lat="41.813785" lon="0.597223">
        <ele>298.881</ele>
        <time>2020-08-23T07:11:38Z</time>
      </trkpt>
      <trkpt lat="41.813813" lon="0.597171">
        <ele>298.882</ele>
        <time>2020-08-23T07:11:39Z</time>
      </trkpt>
      <trkpt lat="41.813845" lon="0.597124">
        <ele>298.858</ele>
        <time>2020-08-23T07:11:40Z</time>
      </trkpt>
      <trkpt lat="41.813897" lon="0.597032">
        <ele>298.757</ele>
        <time>2020-08-23T07:11:42Z</time>
      </trkpt>
      <trkpt lat="41.813938" lon="0.596934">
        <ele>298.516</ele>
        <time>2020-08-23T07:11:44Z</time>
      </trkpt>
      <trkpt lat="41.813985" lon="0.596834">
        <ele>298.576</ele>
        <time>2020-08-23T07:11:46Z</time>
      </trkpt>
      <trkpt lat="41.814037" lon="0.596737">
        <ele>298.513</ele>
        <time>2020-08-23T07:11:48Z</time>
      </trkpt>
      <trkpt lat="41.814057" lon="0.596680">
        <ele>298.508</ele>
        <time>2020-08-23T07:11:49Z</time>
      </trkpt>
      <trkpt lat="41.814082" lon="0.596625">
        <ele>298.516</ele>
        <time>2020-08-23T07:11:50Z</time>
      </trkpt>
      <trkpt lat="41.814111" lon="0.596572">
        <ele>298.576</ele>
        <time>2020-08-23T07:11:51Z</time>
      </trkpt>
      <trkpt lat="41.814140" lon="0.596515">
        <ele>298.614</ele>
        <time>2020-08-23T07:11:52Z</time>
      </trkpt>
      <trkpt lat="41.814174" lon="0.596462">
        <ele>298.656</ele>
        <time>2020-08-23T07:11:53Z</time>
      </trkpt>
      <trkpt lat="41.814200" lon="0.596404">
        <ele>298.627</ele>
        <time>2020-08-23T07:11:54Z</time>
      </trkpt>
      <trkpt lat="41.814230" lon="0.596353">
        <ele>298.668</ele>
        <time>2020-08-23T07:11:55Z</time>
      </trkpt>
      <trkpt lat="41.814261" lon="0.596300">
        <ele>298.514</ele>
        <time>2020-08-23T07:11:56Z</time>
      </trkpt>
      <trkpt lat="41.814294" lon="0.596246">
        <ele>298.433</ele>
        <time>2020-08-23T07:11:57Z</time>
      </trkpt>
      <trkpt lat="41.814327" lon="0.596195">
        <ele>298.399</ele>
        <time>2020-08-23T07:11:58Z</time>
      </trkpt>
      <trkpt lat="41.814358" lon="0.596146">
        <ele>298.307</ele>
        <time>2020-08-23T07:11:59Z</time>
      </trkpt>
      <trkpt lat="41.814386" lon="0.596099">
        <ele>298.327</ele>
        <time>2020-08-23T07:12:00Z</time>
      </trkpt>
      <trkpt lat="41.814419" lon="0.596053">
        <ele>298.308</ele>
        <time>2020-08-23T07:12:01Z</time>
      </trkpt>
      <trkpt lat="41.814452" lon="0.596010">
        <ele>298.394</ele>
        <time>2020-08-23T07:12:02Z</time>
      </trkpt>
      <trkpt lat="41.814483" lon="0.595960">
        <ele>298.374</ele>
        <time>2020-08-23T07:12:03Z</time>
      </trkpt>
      <trkpt lat="41.814516" lon="0.595913">
        <ele>298.392</ele>
        <time>2020-08-23T07:12:04Z</time>
      </trkpt>
      <trkpt lat="41.814548" lon="0.595862">
        <ele>298.334</ele>
        <time>2020-08-23T07:12:05Z</time>
      </trkpt>
      <trkpt lat="41.814580" lon="0.595813">
        <ele>298.335</ele>
        <time>2020-08-23T07:12:06Z</time>
      </trkpt>
      <trkpt lat="41.814612" lon="0.595767">
        <ele>298.396</ele>
        <time>2020-08-23T07:12:07Z</time>
      </trkpt>
      <trkpt lat="41.814644" lon="0.595719">
        <ele>298.212</ele>
        <time>2020-08-23T07:12:08Z</time>
      </trkpt>
      <trkpt lat="41.814680" lon="0.595671">
        <ele>298.231</ele>
        <time>2020-08-23T07:12:09Z</time>
      </trkpt>
      <trkpt lat="41.814710" lon="0.595618">
        <ele>298.239</ele>
        <time>2020-08-23T07:12:10Z</time>
      </trkpt>
      <trkpt lat="41.814738" lon="0.595562">
        <ele>298.201</ele>
        <time>2020-08-23T07:12:11Z</time>
      </trkpt>
      <trkpt lat="41.814765" lon="0.595504">
        <ele>298.221</ele>
        <time>2020-08-23T07:12:12Z</time>
      </trkpt>
      <trkpt lat="41.814794" lon="0.595452">
        <ele>298.208</ele>
        <time>2020-08-23T07:12:13Z</time>
      </trkpt>
      <trkpt lat="41.814827" lon="0.595404">
        <ele>298.258</ele>
        <time>2020-08-23T07:12:14Z</time>
      </trkpt>
      <trkpt lat="41.814859" lon="0.595351">
        <ele>298.238</ele>
        <time>2020-08-23T07:12:15Z</time>
      </trkpt>
      <trkpt lat="41.814887" lon="0.595297">
        <ele>298.246</ele>
        <time>2020-08-23T07:12:16Z</time>
      </trkpt>
      <trkpt lat="41.814916" lon="0.595246">
        <ele>298.298</ele>
        <time>2020-08-23T07:12:17Z</time>
      </trkpt>
      <trkpt lat="41.814948" lon="0.595198">
        <ele>298.299</ele>
        <time>2020-08-23T07:12:18Z</time>
      </trkpt>
      <trkpt lat="41.814977" lon="0.595151">
        <ele>298.290</ele>
        <time>2020-08-23T07:12:19Z</time>
      </trkpt>
      <trkpt lat="41.815009" lon="0.595101">
        <ele>298.226</ele>
        <time>2020-08-23T07:12:20Z</time>
      </trkpt>
      <trkpt lat="41.815037" lon="0.595046">
        <ele>298.285</ele>
        <time>2020-08-23T07:12:21Z</time>
      </trkpt>
      <trkpt lat="41.815071" lon="0.594994">
        <ele>298.214</ele>
        <time>2020-08-23T07:12:22Z</time>
      </trkpt>
      <trkpt lat="41.815099" lon="0.594938">
        <ele>298.254</ele>
        <time>2020-08-23T07:12:23Z</time>
      </trkpt>
      <trkpt lat="41.815158" lon="0.594855">
        <ele>298.209</ele>
        <time>2020-08-23T07:12:25Z</time>
      </trkpt>
      <trkpt lat="41.815187" lon="0.594806">
        <ele>298.208</ele>
        <time>2020-08-23T07:12:26Z</time>
      </trkpt>
      <trkpt lat="41.815211" lon="0.594755">
        <ele>298.216</ele>
        <time>2020-08-23T07:12:27Z</time>
      </trkpt>
      <trkpt lat="41.815276" lon="0.594688">
        <ele>298.336</ele>
        <time>2020-08-23T07:12:29Z</time>
      </trkpt>
      <trkpt lat="41.815344" lon="0.594632">
        <ele>298.534</ele>
        <time>2020-08-23T07:12:31Z</time>
      </trkpt>
      <trkpt lat="41.815424" lon="0.594575">
        <ele>298.756</ele>
        <time>2020-08-23T07:12:33Z</time>
      </trkpt>
      <trkpt lat="41.815492" lon="0.594521">
        <ele>298.817</ele>
        <time>2020-08-23T07:12:35Z</time>
      </trkpt>
      <trkpt lat="41.815560" lon="0.594443">
        <ele>298.848</ele>
        <time>2020-08-23T07:12:37Z</time>
      </trkpt>
      <trkpt lat="41.815596" lon="0.594403">
        <ele>298.734</ele>
        <time>2020-08-23T07:12:38Z</time>
      </trkpt>
      <trkpt lat="41.815629" lon="0.594358">
        <ele>298.683</ele>
        <time>2020-08-23T07:12:39Z</time>
      </trkpt>
      <trkpt lat="41.815702" lon="0.594284">
        <ele>298.589</ele>
        <time>2020-08-23T07:12:41Z</time>
      </trkpt>
      <trkpt lat="41.815741" lon="0.594251">
        <ele>298.406</ele>
        <time>2020-08-23T07:12:42Z</time>
      </trkpt>
      <trkpt lat="41.815778" lon="0.594216">
        <ele>298.426</ele>
        <time>2020-08-23T07:12:43Z</time>
      </trkpt>
      <trkpt lat="41.815844" lon="0.594145">
        <ele>298.408</ele>
        <time>2020-08-23T07:12:45Z</time>
      </trkpt>
      <trkpt lat="41.815915" lon="0.594080">
        <ele>298.473</ele>
        <time>2020-08-23T07:12:47Z</time>
      </trkpt>
      <trkpt lat="41.815991" lon="0.594011">
        <ele>298.473</ele>
        <time>2020-08-23T07:12:49Z</time>
      </trkpt>
      <trkpt lat="41.816057" lon="0.593932">
        <ele>298.491</ele>
        <time>2020-08-23T07:12:51Z</time>
      </trkpt>
      <trkpt lat="41.816095" lon="0.593894">
        <ele>298.493</ele>
        <time>2020-08-23T07:12:52Z</time>
      </trkpt>
      <trkpt lat="41.816133" lon="0.593857">
        <ele>298.494</ele>
        <time>2020-08-23T07:12:53Z</time>
      </trkpt>
      <trkpt lat="41.816170" lon="0.593819">
        <ele>298.475</ele>
        <time>2020-08-23T07:12:54Z</time>
      </trkpt>
      <trkpt lat="41.816210" lon="0.593781">
        <ele>298.481</ele>
        <time>2020-08-23T07:12:55Z</time>
      </trkpt>
      <trkpt lat="41.816284" lon="0.593721">
        <ele>298.470</ele>
        <time>2020-08-23T07:12:57Z</time>
      </trkpt>
      <trkpt lat="41.816321" lon="0.593686">
        <ele>298.427</ele>
        <time>2020-08-23T07:12:58Z</time>
      </trkpt>
      <trkpt lat="41.816360" lon="0.593642">
        <ele>298.468</ele>
        <time>2020-08-23T07:12:59Z</time>
      </trkpt>
      <trkpt lat="41.816398" lon="0.593597">
        <ele>298.414</ele>
        <time>2020-08-23T07:13:00Z</time>
      </trkpt>
      <trkpt lat="41.816435" lon="0.593555">
        <ele>298.408</ele>
        <time>2020-08-23T07:13:01Z</time>
      </trkpt>
      <trkpt lat="41.816469" lon="0.593503">
        <ele>298.477</ele>
        <time>2020-08-23T07:13:02Z</time>
      </trkpt>
      <trkpt lat="41.816501" lon="0.593446">
        <ele>298.367</ele>
        <time>2020-08-23T07:13:03Z</time>
      </trkpt>
      <trkpt lat="41.816535" lon="0.593390">
        <ele>298.235</ele>
        <time>2020-08-23T07:13:04Z</time>
      </trkpt>
      <trkpt lat="41.816568" lon="0.593338">
        <ele>298.147</ele>
        <time>2020-08-23T07:13:05Z</time>
      </trkpt>
      <trkpt lat="41.816603" lon="0.593284">
        <ele>298.198</ele>
        <time>2020-08-23T07:13:06Z</time>
      </trkpt>
      <trkpt lat="41.816638" lon="0.593234">
        <ele>298.019</ele>
        <time>2020-08-23T07:13:07Z</time>
      </trkpt>
      <trkpt lat="41.816670" lon="0.593179">
        <ele>298.065</ele>
        <time>2020-08-23T07:13:08Z</time>
      </trkpt>
      <trkpt lat="41.816704" lon="0.593127">
        <ele>298.024</ele>
        <time>2020-08-23T07:13:09Z</time>
      </trkpt>
      <trkpt lat="41.816738" lon="0.593072">
        <ele>298.045</ele>
        <time>2020-08-23T07:13:10Z</time>
      </trkpt>
      <trkpt lat="41.816768" lon="0.593015">
        <ele>298.047</ele>
        <time>2020-08-23T07:13:11Z</time>
      </trkpt>
      <trkpt lat="41.816797" lon="0.592957">
        <ele>298.011</ele>
        <time>2020-08-23T07:13:12Z</time>
      </trkpt>
      <trkpt lat="41.816823" lon="0.592898">
        <ele>298.008</ele>
        <time>2020-08-23T07:13:13Z</time>
      </trkpt>
      <trkpt lat="41.816854" lon="0.592845">
        <ele>298.199</ele>
        <time>2020-08-23T07:13:14Z</time>
      </trkpt>
      <trkpt lat="41.816889" lon="0.592794">
        <ele>298.279</ele>
        <time>2020-08-23T07:13:15Z</time>
      </trkpt>
      <trkpt lat="41.816921" lon="0.592741">
        <ele>298.227</ele>
        <time>2020-08-23T07:13:16Z</time>
      </trkpt>
      <trkpt lat="41.816954" lon="0.592688">
        <ele>298.399</ele>
        <time>2020-08-23T07:13:17Z</time>
      </trkpt>
      <trkpt lat="41.816983" lon="0.592634">
        <ele>298.360</ele>
        <time>2020-08-23T07:13:18Z</time>
      </trkpt>
      <trkpt lat="41.817010" lon="0.592579">
        <ele>298.341</ele>
        <time>2020-08-23T07:13:19Z</time>
      </trkpt>
      <trkpt lat="41.817045" lon="0.592524">
        <ele>298.397</ele>
        <time>2020-08-23T07:13:20Z</time>
      </trkpt>
      <trkpt lat="41.817092" lon="0.592476">
        <ele>298.396</ele>
        <time>2020-08-23T07:13:21Z</time>
      </trkpt>
      <trkpt lat="41.817132" lon="0.592422">
        <ele>298.351</ele>
        <time>2020-08-23T07:13:22Z</time>
      </trkpt>
      <trkpt lat="41.817167" lon="0.592369">
        <ele>298.301</ele>
        <time>2020-08-23T07:13:23Z</time>
      </trkpt>
      <trkpt lat="41.817197" lon="0.592317">
        <ele>298.311</ele>
        <time>2020-08-23T07:13:24Z</time>
      </trkpt>
      <trkpt lat="41.817230" lon="0.592265">
        <ele>298.308</ele>
        <time>2020-08-23T07:13:25Z</time>
      </trkpt>
      <trkpt lat="41.817263" lon="0.592215">
        <ele>298.290</ele>
        <time>2020-08-23T07:13:26Z</time>
      </trkpt>
      <trkpt lat="41.817292" lon="0.592158">
        <ele>298.110</ele>
        <time>2020-08-23T07:13:27Z</time>
      </trkpt>
      <trkpt lat="41.817317" lon="0.592098">
        <ele>298.088</ele>
        <time>2020-08-23T07:13:28Z</time>
      </trkpt>
      <trkpt lat="41.817339" lon="0.592039">
        <ele>298.060</ele>
        <time>2020-08-23T07:13:29Z</time>
      </trkpt>
      <trkpt lat="41.817363" lon="0.591983">
        <ele>298.081</ele>
        <time>2020-08-23T07:13:30Z</time>
      </trkpt>
      <trkpt lat="41.817390" lon="0.591929">
        <ele>298.022</ele>
        <time>2020-08-23T07:13:31Z</time>
      </trkpt>
      <trkpt lat="41.817426" lon="0.591882">
        <ele>298.078</ele>
        <time>2020-08-23T07:13:32Z</time>
      </trkpt>
      <trkpt lat="41.817462" lon="0.591835">
        <ele>298.017</ele>
        <time>2020-08-23T07:13:33Z</time>
      </trkpt>
      <trkpt lat="41.817495" lon="0.591785">
        <ele>298.191</ele>
        <time>2020-08-23T07:13:34Z</time>
      </trkpt>
      <trkpt lat="41.817522" lon="0.591737">
        <ele>298.281</ele>
        <time>2020-08-23T07:13:35Z</time>
      </trkpt>
      <trkpt lat="41.817581" lon="0.591647">
        <ele>298.319</ele>
        <time>2020-08-23T07:13:37Z</time>
      </trkpt>
      <trkpt lat="41.817615" lon="0.591602">
        <ele>298.408</ele>
        <time>2020-08-23T07:13:38Z</time>
      </trkpt>
      <trkpt lat="41.817647" lon="0.591558">
        <ele>298.424</ele>
        <time>2020-08-23T07:13:39Z</time>
      </trkpt>
      <trkpt lat="41.817675" lon="0.591509">
        <ele>298.484</ele>
        <time>2020-08-23T07:13:40Z</time>
      </trkpt>
      <trkpt lat="41.817703" lon="0.591457">
        <ele>298.422</ele>
        <time>2020-08-23T07:13:41Z</time>
      </trkpt>
      <trkpt lat="41.817732" lon="0.591403">
        <ele>298.574</ele>
        <time>2020-08-23T07:13:42Z</time>
      </trkpt>
      <trkpt lat="41.817763" lon="0.591352">
        <ele>298.525</ele>
        <time>2020-08-23T07:13:43Z</time>
      </trkpt>
      <trkpt lat="41.817791" lon="0.591304">
        <ele>298.566</ele>
        <time>2020-08-23T07:13:44Z</time>
      </trkpt>
      <trkpt lat="41.817845" lon="0.591207">
        <ele>298.592</ele>
        <time>2020-08-23T07:13:46Z</time>
      </trkpt>
      <trkpt lat="41.817881" lon="0.591168">
        <ele>298.581</ele>
        <time>2020-08-23T07:13:47Z</time>
      </trkpt>
      <trkpt lat="41.817914" lon="0.591118">
        <ele>298.524</ele>
        <time>2020-08-23T07:13:48Z</time>
      </trkpt>
      <trkpt lat="41.817948" lon="0.591065">
        <ele>298.504</ele>
        <time>2020-08-23T07:13:49Z</time>
      </trkpt>
      <trkpt lat="41.817975" lon="0.591007">
        <ele>298.514</ele>
        <time>2020-08-23T07:13:50Z</time>
      </trkpt>
      <trkpt lat="41.818002" lon="0.590951">
        <ele>298.508</ele>
        <time>2020-08-23T07:13:51Z</time>
      </trkpt>
      <trkpt lat="41.818031" lon="0.590900">
        <ele>298.557</ele>
        <time>2020-08-23T07:13:52Z</time>
      </trkpt>
      <trkpt lat="41.818062" lon="0.590848">
        <ele>298.557</ele>
        <time>2020-08-23T07:13:53Z</time>
      </trkpt>
      <trkpt lat="41.818091" lon="0.590795">
        <ele>298.575</ele>
        <time>2020-08-23T07:13:54Z</time>
      </trkpt>
      <trkpt lat="41.818120" lon="0.590743">
        <ele>298.597</ele>
        <time>2020-08-23T07:13:55Z</time>
      </trkpt>
      <trkpt lat="41.818147" lon="0.590688">
        <ele>298.538</ele>
        <time>2020-08-23T07:13:56Z</time>
      </trkpt>
      <trkpt lat="41.818177" lon="0.590631">
        <ele>298.599</ele>
        <time>2020-08-23T07:13:57Z</time>
      </trkpt>
      <trkpt lat="41.818202" lon="0.590574">
        <ele>298.515</ele>
        <time>2020-08-23T07:13:58Z</time>
      </trkpt>
      <trkpt lat="41.818225" lon="0.590521">
        <ele>298.524</ele>
        <time>2020-08-23T07:13:59Z</time>
      </trkpt>
      <trkpt lat="41.818274" lon="0.590420">
        <ele>298.413</ele>
        <time>2020-08-23T07:14:01Z</time>
      </trkpt>
      <trkpt lat="41.818304" lon="0.590373">
        <ele>298.443</ele>
        <time>2020-08-23T07:14:02Z</time>
      </trkpt>
      <trkpt lat="41.818340" lon="0.590330">
        <ele>298.407</ele>
        <time>2020-08-23T07:14:03Z</time>
      </trkpt>
      <trkpt lat="41.818380" lon="0.590287">
        <ele>298.408</ele>
        <time>2020-08-23T07:14:04Z</time>
      </trkpt>
      <trkpt lat="41.818419" lon="0.590239">
        <ele>298.426</ele>
        <time>2020-08-23T07:14:05Z</time>
      </trkpt>
      <trkpt lat="41.818457" lon="0.590199">
        <ele>298.416</ele>
        <time>2020-08-23T07:14:06Z</time>
      </trkpt>
      <trkpt lat="41.818499" lon="0.590163">
        <ele>298.484</ele>
        <time>2020-08-23T07:14:07Z</time>
      </trkpt>
      <trkpt lat="41.818541" lon="0.590129">
        <ele>298.426</ele>
        <time>2020-08-23T07:14:08Z</time>
      </trkpt>
      <trkpt lat="41.818585" lon="0.590096">
        <ele>298.467</ele>
        <time>2020-08-23T07:14:09Z</time>
      </trkpt>
      <trkpt lat="41.818634" lon="0.590071">
        <ele>298.458</ele>
        <time>2020-08-23T07:14:10Z</time>
      </trkpt>
      <trkpt lat="41.818685" lon="0.590045">
        <ele>298.424</ele>
        <time>2020-08-23T07:14:11Z</time>
      </trkpt>
      <trkpt lat="41.818736" lon="0.590016">
        <ele>298.443</ele>
        <time>2020-08-23T07:14:12Z</time>
      </trkpt>
      <trkpt lat="41.818783" lon="0.589986">
        <ele>298.453</ele>
        <time>2020-08-23T07:14:13Z</time>
      </trkpt>
      <trkpt lat="41.818828" lon="0.589956">
        <ele>298.404</ele>
        <time>2020-08-23T07:14:14Z</time>
      </trkpt>
      <trkpt lat="41.818874" lon="0.589924">
        <ele>298.414</ele>
        <time>2020-08-23T07:14:15Z</time>
      </trkpt>
      <trkpt lat="41.818924" lon="0.589896">
        <ele>298.508</ele>
        <time>2020-08-23T07:14:16Z</time>
      </trkpt>
      <trkpt lat="41.818973" lon="0.589866">
        <ele>298.520</ele>
        <time>2020-08-23T07:14:17Z</time>
      </trkpt>
      <trkpt lat="41.819016" lon="0.589831">
        <ele>298.640</ele>
        <time>2020-08-23T07:14:18Z</time>
      </trkpt>
      <trkpt lat="41.819059" lon="0.589800">
        <ele>298.668</ele>
        <time>2020-08-23T07:14:19Z</time>
      </trkpt>
      <trkpt lat="41.819100" lon="0.589769">
        <ele>298.670</ele>
        <time>2020-08-23T07:14:20Z</time>
      </trkpt>
      <trkpt lat="41.819139" lon="0.589735">
        <ele>298.611</ele>
        <time>2020-08-23T07:14:21Z</time>
      </trkpt>
      <trkpt lat="41.819180" lon="0.589705">
        <ele>298.632</ele>
        <time>2020-08-23T07:14:22Z</time>
      </trkpt>
      <trkpt lat="41.819263" lon="0.589654">
        <ele>298.698</ele>
        <time>2020-08-23T07:14:24Z</time>
      </trkpt>
      <trkpt lat="41.819306" lon="0.589626">
        <ele>298.697</ele>
        <time>2020-08-23T07:14:25Z</time>
      </trkpt>
      <trkpt lat="41.819350" lon="0.589594">
        <ele>298.692</ele>
        <time>2020-08-23T07:14:26Z</time>
      </trkpt>
      <trkpt lat="41.819397" lon="0.589572">
        <ele>298.673</ele>
        <time>2020-08-23T07:14:27Z</time>
      </trkpt>
      <trkpt lat="41.819441" lon="0.589550">
        <ele>298.620</ele>
        <time>2020-08-23T07:14:28Z</time>
      </trkpt>
      <trkpt lat="41.819519" lon="0.589489">
        <ele>298.608</ele>
        <time>2020-08-23T07:14:30Z</time>
      </trkpt>
      <trkpt lat="41.819558" lon="0.589447">
        <ele>298.654</ele>
        <time>2020-08-23T07:14:31Z</time>
      </trkpt>
      <trkpt lat="41.819596" lon="0.589403">
        <ele>298.664</ele>
        <time>2020-08-23T07:14:32Z</time>
      </trkpt>
      <trkpt lat="41.819627" lon="0.589352">
        <ele>298.692</ele>
        <time>2020-08-23T07:14:33Z</time>
      </trkpt>
      <trkpt lat="41.819652" lon="0.589300">
        <ele>298.664</ele>
        <time>2020-08-23T07:14:34Z</time>
      </trkpt>
      <trkpt lat="41.819666" lon="0.589242">
        <ele>298.645</ele>
        <time>2020-08-23T07:14:35Z</time>
      </trkpt>
      <trkpt lat="41.819685" lon="0.589124">
        <ele>298.616</ele>
        <time>2020-08-23T07:14:37Z</time>
      </trkpt>
      <trkpt lat="41.819691" lon="0.589060">
        <ele>298.662</ele>
        <time>2020-08-23T07:14:38Z</time>
      </trkpt>
      <trkpt lat="41.819700" lon="0.588998">
        <ele>298.671</ele>
        <time>2020-08-23T07:14:39Z</time>
      </trkpt>
      <trkpt lat="41.819697" lon="0.588935">
        <ele>298.641</ele>
        <time>2020-08-23T07:14:40Z</time>
      </trkpt>
      <trkpt lat="41.819692" lon="0.588872">
        <ele>298.681</ele>
        <time>2020-08-23T07:14:41Z</time>
      </trkpt>
      <trkpt lat="41.819668" lon="0.588749">
        <ele>298.609</ele>
        <time>2020-08-23T07:14:43Z</time>
      </trkpt>
      <trkpt lat="41.819650" lon="0.588687">
        <ele>298.608</ele>
        <time>2020-08-23T07:14:44Z</time>
      </trkpt>
      <trkpt lat="41.819627" lon="0.588620">
        <ele>298.669</ele>
        <time>2020-08-23T07:14:45Z</time>
      </trkpt>
      <trkpt lat="41.819603" lon="0.588552">
        <ele>298.619</ele>
        <time>2020-08-23T07:14:46Z</time>
      </trkpt>
      <trkpt lat="41.819575" lon="0.588492">
        <ele>298.697</ele>
        <time>2020-08-23T07:14:47Z</time>
      </trkpt>
      <trkpt lat="41.819548" lon="0.588439">
        <ele>298.669</ele>
        <time>2020-08-23T07:14:48Z</time>
      </trkpt>
      <trkpt lat="41.819524" lon="0.588385">
        <ele>298.690</ele>
        <time>2020-08-23T07:14:49Z</time>
      </trkpt>
      <trkpt lat="41.819502" lon="0.588329">
        <ele>298.661</ele>
        <time>2020-08-23T07:14:50Z</time>
      </trkpt>
      <trkpt lat="41.819471" lon="0.588285">
        <ele>298.617</ele>
        <time>2020-08-23T07:14:51Z</time>
      </trkpt>
      <trkpt lat="41.819443" lon="0.588236">
        <ele>298.636</ele>
        <time>2020-08-23T07:14:52Z</time>
      </trkpt>
      <trkpt lat="41.819417" lon="0.588182">
        <ele>298.658</ele>
        <time>2020-08-23T07:14:53Z</time>
      </trkpt>
      <trkpt lat="41.819401" lon="0.588125">
        <ele>298.652</ele>
        <time>2020-08-23T07:14:54Z</time>
      </trkpt>
      <trkpt lat="41.819386" lon="0.587999">
        <ele>298.717</ele>
        <time>2020-08-23T07:14:56Z</time>
      </trkpt>
      <trkpt lat="41.819377" lon="0.587922">
        <ele>298.708</ele>
        <time>2020-08-23T07:14:57Z</time>
      </trkpt>
      <trkpt lat="41.819374" lon="0.587845">
        <ele>298.710</ele>
        <time>2020-08-23T07:14:58Z</time>
      </trkpt>
      <trkpt lat="41.819373" lon="0.587765">
        <ele>298.720</ele>
        <time>2020-08-23T07:14:59Z</time>
      </trkpt>
      <trkpt lat="41.819376" lon="0.587686">
        <ele>298.628</ele>
        <time>2020-08-23T07:15:00Z</time>
      </trkpt>
      <trkpt lat="41.819390" lon="0.587618">
        <ele>298.640</ele>
        <time>2020-08-23T07:15:01Z</time>
      </trkpt>
      <trkpt lat="41.819409" lon="0.587555">
        <ele>298.661</ele>
        <time>2020-08-23T07:15:02Z</time>
      </trkpt>
      <trkpt lat="41.819431" lon="0.587486">
        <ele>298.642</ele>
        <time>2020-08-23T07:15:03Z</time>
      </trkpt>
      <trkpt lat="41.819454" lon="0.587417">
        <ele>298.698</ele>
        <time>2020-08-23T07:15:04Z</time>
      </trkpt>
      <trkpt lat="41.819482" lon="0.587364">
        <ele>298.647</ele>
        <time>2020-08-23T07:15:05Z</time>
      </trkpt>
      <trkpt lat="41.819516" lon="0.587316">
        <ele>298.653</ele>
        <time>2020-08-23T07:15:06Z</time>
      </trkpt>
      <trkpt lat="41.819554" lon="0.587274">
        <ele>298.604</ele>
        <time>2020-08-23T07:15:07Z</time>
      </trkpt>
      <trkpt lat="41.819591" lon="0.587237">
        <ele>298.614</ele>
        <time>2020-08-23T07:15:08Z</time>
      </trkpt>
      <trkpt lat="41.819630" lon="0.587203">
        <ele>298.608</ele>
        <time>2020-08-23T07:15:09Z</time>
      </trkpt>
      <trkpt lat="41.819671" lon="0.587177">
        <ele>298.620</ele>
        <time>2020-08-23T07:15:10Z</time>
      </trkpt>
      <trkpt lat="41.819717" lon="0.587158">
        <ele>298.690</ele>
        <time>2020-08-23T07:15:11Z</time>
      </trkpt>
      <trkpt lat="41.819764" lon="0.587145">
        <ele>298.638</ele>
        <time>2020-08-23T07:15:12Z</time>
      </trkpt>
      <trkpt lat="41.819811" lon="0.587131">
        <ele>298.520</ele>
        <time>2020-08-23T07:15:13Z</time>
      </trkpt>
      <trkpt lat="41.819859" lon="0.587121">
        <ele>298.581</ele>
        <time>2020-08-23T07:15:14Z</time>
      </trkpt>
      <trkpt lat="41.819905" lon="0.587111">
        <ele>298.522</ele>
        <time>2020-08-23T07:15:15Z</time>
      </trkpt>
      <trkpt lat="41.819948" lon="0.587094">
        <ele>298.578</ele>
        <time>2020-08-23T07:15:16Z</time>
      </trkpt>
      <trkpt lat="41.819999" lon="0.587078">
        <ele>298.517</ele>
        <time>2020-08-23T07:15:17Z</time>
      </trkpt>
      <trkpt lat="41.820051" lon="0.587066">
        <ele>298.517</ele>
        <time>2020-08-23T07:15:18Z</time>
      </trkpt>
      <trkpt lat="41.820103" lon="0.587060">
        <ele>298.587</ele>
        <time>2020-08-23T07:15:19Z</time>
      </trkpt>
      <trkpt lat="41.820152" lon="0.587046">
        <ele>298.615</ele>
        <time>2020-08-23T07:15:20Z</time>
      </trkpt>
      <trkpt lat="41.820202" lon="0.587034">
        <ele>298.608</ele>
        <time>2020-08-23T07:15:21Z</time>
      </trkpt>
      <trkpt lat="41.820251" lon="0.587022">
        <ele>298.636</ele>
        <time>2020-08-23T07:15:22Z</time>
      </trkpt>
      <trkpt lat="41.820298" lon="0.587010">
        <ele>298.626</ele>
        <time>2020-08-23T07:15:23Z</time>
      </trkpt>
      <trkpt lat="41.820346" lon="0.587000">
        <ele>298.664</ele>
        <time>2020-08-23T07:15:24Z</time>
      </trkpt>
      <trkpt lat="41.820393" lon="0.586995">
        <ele>298.626</ele>
        <time>2020-08-23T07:15:25Z</time>
      </trkpt>
      <trkpt lat="41.820442" lon="0.586990">
        <ele>298.627</ele>
        <time>2020-08-23T07:15:26Z</time>
      </trkpt>
      <trkpt lat="41.820489" lon="0.586989">
        <ele>298.558</ele>
        <time>2020-08-23T07:15:27Z</time>
      </trkpt>
      <trkpt lat="41.820535" lon="0.586989">
        <ele>298.524</ele>
        <time>2020-08-23T07:15:28Z</time>
      </trkpt>
      <trkpt lat="41.820584" lon="0.587000">
        <ele>298.553</ele>
        <time>2020-08-23T07:15:29Z</time>
      </trkpt>
      <trkpt lat="41.820668" lon="0.587034">
        <ele>298.535</ele>
        <time>2020-08-23T07:15:31Z</time>
      </trkpt>
      <trkpt lat="41.820712" lon="0.587048">
        <ele>298.586</ele>
        <time>2020-08-23T07:15:32Z</time>
      </trkpt>
      <trkpt lat="41.820756" lon="0.587074">
        <ele>298.514</ele>
        <time>2020-08-23T07:15:33Z</time>
      </trkpt>
      <trkpt lat="41.820830" lon="0.587131">
        <ele>298.508</ele>
        <time>2020-08-23T07:15:35Z</time>
      </trkpt>
      <trkpt lat="41.820900" lon="0.587210">
        <ele>298.578</ele>
        <time>2020-08-23T07:15:37Z</time>
      </trkpt>
      <trkpt lat="41.820937" lon="0.587252">
        <ele>298.578</ele>
        <time>2020-08-23T07:15:38Z</time>
      </trkpt>
      <trkpt lat="41.821000" lon="0.587338">
        <ele>298.626</ele>
        <time>2020-08-23T07:15:40Z</time>
      </trkpt>
      <trkpt lat="41.821030" lon="0.587389">
        <ele>298.668</ele>
        <time>2020-08-23T07:15:41Z</time>
      </trkpt>
      <trkpt lat="41.821061" lon="0.587441">
        <ele>298.649</ele>
        <time>2020-08-23T07:15:42Z</time>
      </trkpt>
      <trkpt lat="41.821089" lon="0.587500">
        <ele>298.660</ele>
        <time>2020-08-23T07:15:43Z</time>
      </trkpt>
      <trkpt lat="41.821114" lon="0.587561">
        <ele>298.646</ele>
        <time>2020-08-23T07:15:44Z</time>
      </trkpt>
      <trkpt lat="41.821134" lon="0.587623">
        <ele>298.675</ele>
        <time>2020-08-23T07:15:45Z</time>
      </trkpt>
      <trkpt lat="41.821151" lon="0.587681">
        <ele>298.676</ele>
        <time>2020-08-23T07:15:46Z</time>
      </trkpt>
      <trkpt lat="41.821169" lon="0.587736">
        <ele>298.690</ele>
        <time>2020-08-23T07:15:47Z</time>
      </trkpt>
      <trkpt lat="41.821192" lon="0.587793">
        <ele>298.619</ele>
        <time>2020-08-23T07:15:48Z</time>
      </trkpt>
      <trkpt lat="41.821219" lon="0.587844">
        <ele>298.608</ele>
        <time>2020-08-23T07:15:49Z</time>
      </trkpt>
      <trkpt lat="41.821249" lon="0.587892">
        <ele>298.632</ele>
        <time>2020-08-23T07:15:50Z</time>
      </trkpt>
      <trkpt lat="41.821279" lon="0.587938">
        <ele>298.692</ele>
        <time>2020-08-23T07:15:51Z</time>
      </trkpt>
      <trkpt lat="41.821307" lon="0.587986">
        <ele>298.690</ele>
        <time>2020-08-23T07:15:52Z</time>
      </trkpt>
      <trkpt lat="41.821348" lon="0.588088">
        <ele>298.612</ele>
        <time>2020-08-23T07:15:54Z</time>
      </trkpt>
      <trkpt lat="41.821407" lon="0.588184">
        <ele>298.623</ele>
        <time>2020-08-23T07:15:56Z</time>
      </trkpt>
      <trkpt lat="41.821440" lon="0.588234">
        <ele>298.694</ele>
        <time>2020-08-23T07:15:57Z</time>
      </trkpt>
      <trkpt lat="41.821470" lon="0.588281">
        <ele>298.660</ele>
        <time>2020-08-23T07:15:58Z</time>
      </trkpt>
      <trkpt lat="41.821501" lon="0.588327">
        <ele>298.649</ele>
        <time>2020-08-23T07:15:59Z</time>
      </trkpt>
      <trkpt lat="41.821536" lon="0.588372">
        <ele>298.685</ele>
        <time>2020-08-23T07:16:00Z</time>
      </trkpt>
      <trkpt lat="41.821568" lon="0.588419">
        <ele>298.689</ele>
        <time>2020-08-23T07:16:01Z</time>
      </trkpt>
      <trkpt lat="41.821632" lon="0.588495">
        <ele>298.617</ele>
        <time>2020-08-23T07:16:03Z</time>
      </trkpt>
      <trkpt lat="41.821695" lon="0.588582">
        <ele>298.708</ele>
        <time>2020-08-23T07:16:05Z</time>
      </trkpt>
      <trkpt lat="41.821724" lon="0.588634">
        <ele>298.743</ele>
        <time>2020-08-23T07:16:06Z</time>
      </trkpt>
      <trkpt lat="41.821747" lon="0.588686">
        <ele>298.723</ele>
        <time>2020-08-23T07:16:07Z</time>
      </trkpt>
      <trkpt lat="41.821770" lon="0.588742">
        <ele>298.791</ele>
        <time>2020-08-23T07:16:08Z</time>
      </trkpt>
      <trkpt lat="41.821786" lon="0.588800">
        <ele>298.723</ele>
        <time>2020-08-23T07:16:09Z</time>
      </trkpt>
      <trkpt lat="41.821827" lon="0.588909">
        <ele>298.654</ele>
        <time>2020-08-23T07:16:11Z</time>
      </trkpt>
      <trkpt lat="41.821862" lon="0.589016">
        <ele>298.585</ele>
        <time>2020-08-23T07:16:13Z</time>
      </trkpt>
      <trkpt lat="41.821890" lon="0.589069">
        <ele>298.571</ele>
        <time>2020-08-23T07:16:14Z</time>
      </trkpt>
      <trkpt lat="41.821922" lon="0.589119">
        <ele>298.580</ele>
        <time>2020-08-23T07:16:15Z</time>
      </trkpt>
      <trkpt lat="41.821954" lon="0.589163">
        <ele>298.583</ele>
        <time>2020-08-23T07:16:16Z</time>
      </trkpt>
      <trkpt lat="41.821988" lon="0.589209">
        <ele>298.525</ele>
        <time>2020-08-23T07:16:17Z</time>
      </trkpt>
      <trkpt lat="41.822024" lon="0.589251">
        <ele>298.517</ele>
        <time>2020-08-23T07:16:18Z</time>
      </trkpt>
      <trkpt lat="41.822102" lon="0.589322">
        <ele>298.608</ele>
        <time>2020-08-23T07:16:20Z</time>
      </trkpt>
      <trkpt lat="41.822146" lon="0.589356">
        <ele>298.763</ele>
        <time>2020-08-23T07:16:21Z</time>
      </trkpt>
      <trkpt lat="41.822190" lon="0.589386">
        <ele>298.813</ele>
        <time>2020-08-23T07:16:22Z</time>
      </trkpt>
      <trkpt lat="41.822233" lon="0.589418">
        <ele>298.931</ele>
        <time>2020-08-23T07:16:23Z</time>
      </trkpt>
      <trkpt lat="41.822270" lon="0.589454">
        <ele>298.923</ele>
        <time>2020-08-23T07:16:24Z</time>
      </trkpt>
      <trkpt lat="41.822309" lon="0.589489">
        <ele>298.924</ele>
        <time>2020-08-23T07:16:25Z</time>
      </trkpt>
      <trkpt lat="41.822381" lon="0.589553">
        <ele>298.845</ele>
        <time>2020-08-23T07:16:27Z</time>
      </trkpt>
      <trkpt lat="41.822461" lon="0.589617">
        <ele>298.771</ele>
        <time>2020-08-23T07:16:29Z</time>
      </trkpt>
      <trkpt lat="41.822503" lon="0.589652">
        <ele>298.790</ele>
        <time>2020-08-23T07:16:30Z</time>
      </trkpt>
      <trkpt lat="41.822544" lon="0.589686">
        <ele>298.663</ele>
        <time>2020-08-23T07:16:31Z</time>
      </trkpt>
      <trkpt lat="41.822588" lon="0.589718">
        <ele>298.444</ele>
        <time>2020-08-23T07:16:32Z</time>
      </trkpt>
      <trkpt lat="41.822640" lon="0.589734">
        <ele>298.318</ele>
        <time>2020-08-23T07:16:33Z</time>
      </trkpt>
      <trkpt lat="41.822692" lon="0.589747">
        <ele>298.308</ele>
        <time>2020-08-23T07:16:34Z</time>
      </trkpt>
      <trkpt lat="41.822747" lon="0.589747">
        <ele>298.321</ele>
        <time>2020-08-23T07:16:35Z</time>
      </trkpt>
      <trkpt lat="41.822799" lon="0.589738">
        <ele>298.341</ele>
        <time>2020-08-23T07:16:36Z</time>
      </trkpt>
      <trkpt lat="41.822851" lon="0.589722">
        <ele>298.329</ele>
        <time>2020-08-23T07:16:37Z</time>
      </trkpt>
      <trkpt lat="41.822899" lon="0.589706">
        <ele>298.311</ele>
        <time>2020-08-23T07:16:38Z</time>
      </trkpt>
      <trkpt lat="41.822946" lon="0.589688">
        <ele>298.372</ele>
        <time>2020-08-23T07:16:39Z</time>
      </trkpt>
      <trkpt lat="41.822992" lon="0.589669">
        <ele>298.313</ele>
        <time>2020-08-23T07:16:40Z</time>
      </trkpt>
      <trkpt lat="41.823035" lon="0.589640">
        <ele>298.399</ele>
        <time>2020-08-23T07:16:41Z</time>
      </trkpt>
      <trkpt lat="41.823077" lon="0.589608">
        <ele>298.338</ele>
        <time>2020-08-23T07:16:42Z</time>
      </trkpt>
      <trkpt lat="41.823120" lon="0.589573">
        <ele>298.372</ele>
        <time>2020-08-23T07:16:43Z</time>
      </trkpt>
      <trkpt lat="41.823162" lon="0.589546">
        <ele>298.313</ele>
        <time>2020-08-23T07:16:44Z</time>
      </trkpt>
      <trkpt lat="41.823205" lon="0.589521">
        <ele>298.314</ele>
        <time>2020-08-23T07:16:45Z</time>
      </trkpt>
      <trkpt lat="41.823247" lon="0.589492">
        <ele>298.308</ele>
        <time>2020-08-23T07:16:46Z</time>
      </trkpt>
      <trkpt lat="41.823289" lon="0.589457">
        <ele>298.352</ele>
        <time>2020-08-23T07:16:47Z</time>
      </trkpt>
      <trkpt lat="41.823325" lon="0.589421">
        <ele>298.352</ele>
        <time>2020-08-23T07:16:48Z</time>
      </trkpt>
      <trkpt lat="41.823396" lon="0.589351">
        <ele>298.310</ele>
        <time>2020-08-23T07:16:50Z</time>
      </trkpt>
      <trkpt lat="41.823436" lon="0.589323">
        <ele>298.382</ele>
        <time>2020-08-23T07:16:51Z</time>
      </trkpt>
      <trkpt lat="41.823513" lon="0.589259">
        <ele>298.343</ele>
        <time>2020-08-23T07:16:53Z</time>
      </trkpt>
      <trkpt lat="41.823555" lon="0.589231">
        <ele>298.344</ele>
        <time>2020-08-23T07:16:54Z</time>
      </trkpt>
      <trkpt lat="41.823595" lon="0.589196">
        <ele>298.350</ele>
        <time>2020-08-23T07:16:55Z</time>
      </trkpt>
      <trkpt lat="41.823634" lon="0.589161">
        <ele>298.379</ele>
        <time>2020-08-23T07:16:56Z</time>
      </trkpt>
      <trkpt lat="41.823671" lon="0.589121">
        <ele>298.393</ele>
        <time>2020-08-23T07:16:57Z</time>
      </trkpt>
      <trkpt lat="41.823707" lon="0.589082">
        <ele>298.365</ele>
        <time>2020-08-23T07:16:58Z</time>
      </trkpt>
      <trkpt lat="41.823746" lon="0.589047">
        <ele>298.321</ele>
        <time>2020-08-23T07:16:59Z</time>
      </trkpt>
      <trkpt lat="41.823787" lon="0.589009">
        <ele>298.308</ele>
        <time>2020-08-23T07:17:00Z</time>
      </trkpt>
      <trkpt lat="41.823833" lon="0.588972">
        <ele>298.374</ele>
        <time>2020-08-23T07:17:01Z</time>
      </trkpt>
      <trkpt lat="41.823876" lon="0.588938">
        <ele>298.354</ele>
        <time>2020-08-23T07:17:02Z</time>
      </trkpt>
      <trkpt lat="41.823919" lon="0.588905">
        <ele>298.222</ele>
        <time>2020-08-23T07:17:03Z</time>
      </trkpt>
      <trkpt lat="41.823961" lon="0.588873">
        <ele>298.194</ele>
        <time>2020-08-23T07:17:04Z</time>
      </trkpt>
      <trkpt lat="41.824005" lon="0.588845">
        <ele>298.195</ele>
        <time>2020-08-23T07:17:05Z</time>
      </trkpt>
      <trkpt lat="41.824048" lon="0.588818">
        <ele>298.116</ele>
        <time>2020-08-23T07:17:06Z</time>
      </trkpt>
      <trkpt lat="41.824090" lon="0.588791">
        <ele>298.112</ele>
        <time>2020-08-23T07:17:07Z</time>
      </trkpt>
      <trkpt lat="41.824129" lon="0.588759">
        <ele>298.181</ele>
        <time>2020-08-23T07:17:08Z</time>
      </trkpt>
      <trkpt lat="41.824171" lon="0.588729">
        <ele>298.161</ele>
        <time>2020-08-23T07:17:09Z</time>
      </trkpt>
      <trkpt lat="41.824213" lon="0.588691">
        <ele>298.121</ele>
        <time>2020-08-23T07:17:10Z</time>
      </trkpt>
      <trkpt lat="41.824255" lon="0.588644">
        <ele>298.113</ele>
        <time>2020-08-23T07:17:11Z</time>
      </trkpt>
      <trkpt lat="41.824296" lon="0.588598">
        <ele>298.108</ele>
        <time>2020-08-23T07:17:12Z</time>
      </trkpt>
      <trkpt lat="41.824336" lon="0.588558">
        <ele>298.131</ele>
        <time>2020-08-23T07:17:13Z</time>
      </trkpt>
      <trkpt lat="41.824376" lon="0.588519">
        <ele>298.271</ele>
        <time>2020-08-23T07:17:14Z</time>
      </trkpt>
      <trkpt lat="41.824412" lon="0.588482">
        <ele>298.379</ele>
        <time>2020-08-23T07:17:15Z</time>
      </trkpt>
      <trkpt lat="41.824468" lon="0.588419">
        <ele>298.681</ele>
        <time>2020-08-23T07:17:17Z</time>
      </trkpt>
      <trkpt lat="41.824513" lon="0.588363">
        <ele>298.932</ele>
        <time>2020-08-23T07:17:19Z</time>
      </trkpt>
      <trkpt lat="41.824556" lon="0.588275">
        <ele>299.163</ele>
        <time>2020-08-23T07:17:21Z</time>
      </trkpt>
      <trkpt lat="41.824574" lon="0.588171">
        <ele>299.139</ele>
        <time>2020-08-23T07:17:23Z</time>
      </trkpt>
      <trkpt lat="41.824594" lon="0.588055">
        <ele>298.888</ele>
        <time>2020-08-23T07:17:25Z</time>
      </trkpt>
      <trkpt lat="41.824602" lon="0.587986">
        <ele>298.555</ele>
        <time>2020-08-23T07:17:26Z</time>
      </trkpt>
      <trkpt lat="41.824609" lon="0.587911">
        <ele>298.407</ele>
        <time>2020-08-23T07:17:27Z</time>
      </trkpt>
      <trkpt lat="41.824611" lon="0.587839">
        <ele>298.317</ele>
        <time>2020-08-23T07:17:28Z</time>
      </trkpt>
      <trkpt lat="41.824621" lon="0.587757">
        <ele>298.208</ele>
        <time>2020-08-23T07:17:29Z</time>
      </trkpt>
      <trkpt lat="41.824635" lon="0.587674">
        <ele>298.130</ele>
        <time>2020-08-23T07:17:30Z</time>
      </trkpt>
      <trkpt lat="41.824645" lon="0.587593">
        <ele>298.070</ele>
        <time>2020-08-23T07:17:31Z</time>
      </trkpt>
      <trkpt lat="41.824657" lon="0.587517">
        <ele>297.978</ele>
        <time>2020-08-23T07:17:32Z</time>
      </trkpt>
      <trkpt lat="41.824672" lon="0.587439">
        <ele>297.850</ele>
        <time>2020-08-23T07:17:33Z</time>
      </trkpt>
      <trkpt lat="41.824682" lon="0.587362">
        <ele>297.671</ele>
        <time>2020-08-23T07:17:34Z</time>
      </trkpt>
      <trkpt lat="41.824693" lon="0.587283">
        <ele>297.552</ele>
        <time>2020-08-23T07:17:35Z</time>
      </trkpt>
      <trkpt lat="41.824706" lon="0.587198">
        <ele>297.328</ele>
        <time>2020-08-23T07:17:36Z</time>
      </trkpt>
      <trkpt lat="41.824714" lon="0.587113">
        <ele>297.137</ele>
        <time>2020-08-23T07:17:37Z</time>
      </trkpt>
      <trkpt lat="41.824726" lon="0.587031">
        <ele>296.979</ele>
        <time>2020-08-23T07:17:38Z</time>
      </trkpt>
      <trkpt lat="41.824736" lon="0.586938">
        <ele>296.705</ele>
        <time>2020-08-23T07:17:39Z</time>
      </trkpt>
      <trkpt lat="41.824741" lon="0.586844">
        <ele>296.525</ele>
        <time>2020-08-23T07:17:40Z</time>
      </trkpt>
      <trkpt lat="41.824754" lon="0.586752">
        <ele>296.308</ele>
        <time>2020-08-23T07:17:41Z</time>
      </trkpt>
      <trkpt lat="41.824770" lon="0.586665">
        <ele>296.152</ele>
        <time>2020-08-23T07:17:42Z</time>
      </trkpt>
      <trkpt lat="41.824780" lon="0.586574">
        <ele>295.952</ele>
        <time>2020-08-23T07:17:43Z</time>
      </trkpt>
      <trkpt lat="41.824791" lon="0.586476">
        <ele>295.530</ele>
        <time>2020-08-23T07:17:44Z</time>
      </trkpt>
      <trkpt lat="41.824804" lon="0.586375">
        <ele>295.392</ele>
        <time>2020-08-23T07:17:45Z</time>
      </trkpt>
      <trkpt lat="41.824816" lon="0.586275">
        <ele>295.123</ele>
        <time>2020-08-23T07:17:46Z</time>
      </trkpt>
      <trkpt lat="41.824831" lon="0.586175">
        <ele>294.994</ele>
        <time>2020-08-23T07:17:47Z</time>
      </trkpt>
      <trkpt lat="41.824841" lon="0.586068">
        <ele>294.720</ele>
        <time>2020-08-23T07:17:48Z</time>
      </trkpt>
      <trkpt lat="41.824850" lon="0.585961">
        <ele>294.559</ele>
        <time>2020-08-23T07:17:49Z</time>
      </trkpt>
      <trkpt lat="41.824859" lon="0.585855">
        <ele>294.351</ele>
        <time>2020-08-23T07:17:50Z</time>
      </trkpt>
      <trkpt lat="41.824873" lon="0.585754">
        <ele>294.101</ele>
        <time>2020-08-23T07:17:51Z</time>
      </trkpt>
      <trkpt lat="41.824889" lon="0.585652">
        <ele>293.811</ele>
        <time>2020-08-23T07:17:52Z</time>
      </trkpt>
      <trkpt lat="41.824897" lon="0.585548">
        <ele>293.608</ele>
        <time>2020-08-23T07:17:53Z</time>
      </trkpt>
      <trkpt lat="41.824907" lon="0.585444">
        <ele>293.420</ele>
        <time>2020-08-23T07:17:54Z</time>
      </trkpt>
      <trkpt lat="41.824912" lon="0.585340">
        <ele>293.230</ele>
        <time>2020-08-23T07:17:55Z</time>
      </trkpt>
      <trkpt lat="41.824923" lon="0.585241">
        <ele>293.148</ele>
        <time>2020-08-23T07:17:56Z</time>
      </trkpt>
      <trkpt lat="41.824937" lon="0.585143">
        <ele>293.020</ele>
        <time>2020-08-23T07:17:57Z</time>
      </trkpt>
      <trkpt lat="41.824953" lon="0.585043">
        <ele>292.811</ele>
        <time>2020-08-23T07:17:58Z</time>
      </trkpt>
      <trkpt lat="41.824969" lon="0.584940">
        <ele>292.632</ele>
        <time>2020-08-23T07:17:59Z</time>
      </trkpt>
      <trkpt lat="41.824985" lon="0.584835">
        <ele>292.418</ele>
        <time>2020-08-23T07:18:00Z</time>
      </trkpt>
      <trkpt lat="41.825002" lon="0.584736">
        <ele>292.197</ele>
        <time>2020-08-23T07:18:01Z</time>
      </trkpt>
      <trkpt lat="41.825022" lon="0.584638">
        <ele>291.667</ele>
        <time>2020-08-23T07:18:02Z</time>
      </trkpt>
      <trkpt lat="41.825045" lon="0.584533">
        <ele>291.481</ele>
        <time>2020-08-23T07:18:03Z</time>
      </trkpt>
      <trkpt lat="41.825058" lon="0.584429">
        <ele>291.219</ele>
        <time>2020-08-23T07:18:04Z</time>
      </trkpt>
      <trkpt lat="41.825080" lon="0.584329">
        <ele>291.008</ele>
        <time>2020-08-23T07:18:05Z</time>
      </trkpt>
      <trkpt lat="41.825107" lon="0.584230">
        <ele>290.871</ele>
        <time>2020-08-23T07:18:06Z</time>
      </trkpt>
      <trkpt lat="41.825134" lon="0.584130">
        <ele>290.711</ele>
        <time>2020-08-23T07:18:07Z</time>
      </trkpt>
      <trkpt lat="41.825152" lon="0.584030">
        <ele>290.639</ele>
        <time>2020-08-23T07:18:08Z</time>
      </trkpt>
      <trkpt lat="41.825178" lon="0.583936">
        <ele>290.541</ele>
        <time>2020-08-23T07:18:09Z</time>
      </trkpt>
      <trkpt lat="41.825206" lon="0.583845">
        <ele>290.462</ele>
        <time>2020-08-23T07:18:10Z</time>
      </trkpt>
      <trkpt lat="41.825232" lon="0.583750">
        <ele>290.373</ele>
        <time>2020-08-23T07:18:11Z</time>
      </trkpt>
      <trkpt lat="41.825255" lon="0.583653">
        <ele>290.139</ele>
        <time>2020-08-23T07:18:12Z</time>
      </trkpt>
      <trkpt lat="41.825281" lon="0.583556">
        <ele>289.958</ele>
        <time>2020-08-23T07:18:13Z</time>
      </trkpt>
      <trkpt lat="41.825309" lon="0.583457">
        <ele>289.734</ele>
        <time>2020-08-23T07:18:14Z</time>
      </trkpt>
      <trkpt lat="41.825341" lon="0.583361">
        <ele>289.555</ele>
        <time>2020-08-23T07:18:15Z</time>
      </trkpt>
      <trkpt lat="41.825367" lon="0.583261">
        <ele>289.310</ele>
        <time>2020-08-23T07:18:16Z</time>
      </trkpt>
      <trkpt lat="41.825392" lon="0.583164">
        <ele>289.208</ele>
        <time>2020-08-23T07:18:17Z</time>
      </trkpt>
      <trkpt lat="41.825418" lon="0.583064">
        <ele>289.198</ele>
        <time>2020-08-23T07:18:18Z</time>
      </trkpt>
      <trkpt lat="41.825450" lon="0.582968">
        <ele>289.058</ele>
        <time>2020-08-23T07:18:19Z</time>
      </trkpt>
      <trkpt lat="41.825483" lon="0.582878">
        <ele>288.746</ele>
        <time>2020-08-23T07:18:20Z</time>
      </trkpt>
      <trkpt lat="41.825518" lon="0.582789">
        <ele>288.578</ele>
        <time>2020-08-23T07:18:21Z</time>
      </trkpt>
      <trkpt lat="41.825554" lon="0.582704">
        <ele>288.339</ele>
        <time>2020-08-23T07:18:22Z</time>
      </trkpt>
      <trkpt lat="41.825591" lon="0.582619">
        <ele>288.130</ele>
        <time>2020-08-23T07:18:23Z</time>
      </trkpt>
      <trkpt lat="41.825627" lon="0.582531">
        <ele>288.046</ele>
        <time>2020-08-23T07:18:24Z</time>
      </trkpt>
      <trkpt lat="41.825666" lon="0.582445">
        <ele>287.925</ele>
        <time>2020-08-23T07:18:25Z</time>
      </trkpt>
      <trkpt lat="41.825705" lon="0.582364">
        <ele>287.826</ele>
        <time>2020-08-23T07:18:26Z</time>
      </trkpt>
      <trkpt lat="41.825745" lon="0.582283">
        <ele>287.647</ele>
        <time>2020-08-23T07:18:27Z</time>
      </trkpt>
      <trkpt lat="41.825782" lon="0.582201">
        <ele>287.411</ele>
        <time>2020-08-23T07:18:28Z</time>
      </trkpt>
      <trkpt lat="41.825816" lon="0.582116">
        <ele>287.208</ele>
        <time>2020-08-23T07:18:29Z</time>
      </trkpt>
      <trkpt lat="41.825850" lon="0.582030">
        <ele>287.197</ele>
        <time>2020-08-23T07:18:30Z</time>
      </trkpt>
      <trkpt lat="41.825887" lon="0.581943">
        <ele>287.087</ele>
        <time>2020-08-23T07:18:31Z</time>
      </trkpt>
      <trkpt lat="41.825925" lon="0.581857">
        <ele>286.955</ele>
        <time>2020-08-23T07:18:32Z</time>
      </trkpt>
      <trkpt lat="41.825965" lon="0.581771">
        <ele>286.877</ele>
        <time>2020-08-23T07:18:33Z</time>
      </trkpt>
      <trkpt lat="41.826009" lon="0.581689">
        <ele>286.688</ele>
        <time>2020-08-23T07:18:34Z</time>
      </trkpt>
      <trkpt lat="41.826060" lon="0.581613">
        <ele>286.539</ele>
        <time>2020-08-23T07:18:35Z</time>
      </trkpt>
      <trkpt lat="41.826104" lon="0.581530">
        <ele>286.415</ele>
        <time>2020-08-23T07:18:36Z</time>
      </trkpt>
      <trkpt lat="41.826153" lon="0.581454">
        <ele>286.314</ele>
        <time>2020-08-23T07:18:37Z</time>
      </trkpt>
      <trkpt lat="41.826201" lon="0.581382">
        <ele>286.124</ele>
        <time>2020-08-23T07:18:38Z</time>
      </trkpt>
      <trkpt lat="41.826251" lon="0.581309">
        <ele>286.004</ele>
        <time>2020-08-23T07:18:39Z</time>
      </trkpt>
      <trkpt lat="41.826297" lon="0.581236">
        <ele>285.914</ele>
        <time>2020-08-23T07:18:40Z</time>
      </trkpt>
      <trkpt lat="41.826346" lon="0.581163">
        <ele>285.808</ele>
        <time>2020-08-23T07:18:41Z</time>
      </trkpt>
      <trkpt lat="41.826396" lon="0.581091">
        <ele>285.747</ele>
        <time>2020-08-23T07:18:42Z</time>
      </trkpt>
      <trkpt lat="41.826449" lon="0.581026">
        <ele>285.697</ele>
        <time>2020-08-23T07:18:43Z</time>
      </trkpt>
      <trkpt lat="41.826498" lon="0.580958">
        <ele>285.595</ele>
        <time>2020-08-23T07:18:44Z</time>
      </trkpt>
      <trkpt lat="41.826548" lon="0.580887">
        <ele>285.437</ele>
        <time>2020-08-23T07:18:45Z</time>
      </trkpt>
      <trkpt lat="41.826604" lon="0.580819">
        <ele>285.268</ele>
        <time>2020-08-23T07:18:46Z</time>
      </trkpt>
      <trkpt lat="41.826662" lon="0.580753">
        <ele>285.079</ele>
        <time>2020-08-23T07:18:47Z</time>
      </trkpt>
      <trkpt lat="41.826720" lon="0.580693">
        <ele>284.835</ele>
        <time>2020-08-23T07:18:48Z</time>
      </trkpt>
      <trkpt lat="41.826778" lon="0.580633">
        <ele>284.614</ele>
        <time>2020-08-23T07:18:49Z</time>
      </trkpt>
      <trkpt lat="41.826839" lon="0.580574">
        <ele>284.434</ele>
        <time>2020-08-23T07:18:50Z</time>
      </trkpt>
      <trkpt lat="41.826899" lon="0.580521">
        <ele>284.355</ele>
        <time>2020-08-23T07:18:51Z</time>
      </trkpt>
      <trkpt lat="41.826959" lon="0.580469">
        <ele>284.210</ele>
        <time>2020-08-23T07:18:52Z</time>
      </trkpt>
      <trkpt lat="41.827019" lon="0.580420">
        <ele>284.108</ele>
        <time>2020-08-23T07:18:53Z</time>
      </trkpt>
      <trkpt lat="41.827084" lon="0.580368">
        <ele>283.938</ele>
        <time>2020-08-23T07:18:54Z</time>
      </trkpt>
      <trkpt lat="41.827148" lon="0.580318">
        <ele>283.778</ele>
        <time>2020-08-23T07:18:55Z</time>
      </trkpt>
      <trkpt lat="41.827215" lon="0.580276">
        <ele>283.486</ele>
        <time>2020-08-23T07:18:56Z</time>
      </trkpt>
      <trkpt lat="41.827281" lon="0.580236">
        <ele>283.248</ele>
        <time>2020-08-23T07:18:57Z</time>
      </trkpt>
      <trkpt lat="41.827346" lon="0.580195">
        <ele>283.049</ele>
        <time>2020-08-23T07:18:58Z</time>
      </trkpt>
      <trkpt lat="41.827413" lon="0.580158">
        <ele>282.870</ele>
        <time>2020-08-23T07:18:59Z</time>
      </trkpt>
      <trkpt lat="41.827479" lon="0.580125">
        <ele>282.676</ele>
        <time>2020-08-23T07:19:00Z</time>
      </trkpt>
      <trkpt lat="41.827547" lon="0.580097">
        <ele>282.495</ele>
        <time>2020-08-23T07:19:01Z</time>
      </trkpt>
      <trkpt lat="41.827615" lon="0.580070">
        <ele>282.248</ele>
        <time>2020-08-23T07:19:02Z</time>
      </trkpt>
      <trkpt lat="41.827681" lon="0.580039">
        <ele>282.061</ele>
        <time>2020-08-23T07:19:03Z</time>
      </trkpt>
      <trkpt lat="41.827751" lon="0.580005">
        <ele>281.817</ele>
        <time>2020-08-23T07:19:04Z</time>
      </trkpt>
      <trkpt lat="41.827820" lon="0.579973">
        <ele>281.708</ele>
        <time>2020-08-23T07:19:05Z</time>
      </trkpt>
      <trkpt lat="41.827892" lon="0.579940">
        <ele>281.649</ele>
        <time>2020-08-23T07:19:06Z</time>
      </trkpt>
      <trkpt lat="41.827966" lon="0.579906">
        <ele>281.579</ele>
        <time>2020-08-23T07:19:07Z</time>
      </trkpt>
      <trkpt lat="41.828041" lon="0.579876">
        <ele>281.457</ele>
        <time>2020-08-23T07:19:08Z</time>
      </trkpt>
      <trkpt lat="41.828115" lon="0.579848">
        <ele>281.349</ele>
        <time>2020-08-23T07:19:09Z</time>
      </trkpt>
      <trkpt lat="41.828185" lon="0.579817">
        <ele>281.280</ele>
        <time>2020-08-23T07:19:10Z</time>
      </trkpt>
      <trkpt lat="41.828256" lon="0.579782">
        <ele>281.161</ele>
        <time>2020-08-23T07:19:11Z</time>
      </trkpt>
      <trkpt lat="41.828331" lon="0.579745">
        <ele>281.027</ele>
        <time>2020-08-23T07:19:12Z</time>
      </trkpt>
      <trkpt lat="41.828399" lon="0.579704">
        <ele>280.736</ele>
        <time>2020-08-23T07:19:13Z</time>
      </trkpt>
      <trkpt lat="41.828467" lon="0.579670">
        <ele>280.552</ele>
        <time>2020-08-23T07:19:14Z</time>
      </trkpt>
      <trkpt lat="41.828530" lon="0.579648">
        <ele>280.453</ele>
        <time>2020-08-23T07:19:15Z</time>
      </trkpt>
      <trkpt lat="41.828595" lon="0.579626">
        <ele>280.408</ele>
        <time>2020-08-23T07:19:16Z</time>
      </trkpt>
      <trkpt lat="41.828660" lon="0.579599">
        <ele>280.308</ele>
        <time>2020-08-23T07:19:17Z</time>
      </trkpt>
      <trkpt lat="41.828728" lon="0.579569">
        <ele>280.240</ele>
        <time>2020-08-23T07:19:18Z</time>
      </trkpt>
      <trkpt lat="41.828783" lon="0.579523">
        <ele>280.130</ele>
        <time>2020-08-23T07:19:19Z</time>
      </trkpt>
      <trkpt lat="41.828837" lon="0.579473">
        <ele>280.058</ele>
        <time>2020-08-23T07:19:20Z</time>
      </trkpt>
      <trkpt lat="41.828890" lon="0.579420">
        <ele>279.830</ele>
        <time>2020-08-23T07:19:21Z</time>
      </trkpt>
      <trkpt lat="41.828944" lon="0.579370">
        <ele>279.641</ele>
        <time>2020-08-23T07:19:22Z</time>
      </trkpt>
      <trkpt lat="41.828989" lon="0.579322">
        <ele>279.532</ele>
        <time>2020-08-23T07:19:23Z</time>
      </trkpt>
      <trkpt lat="41.829034" lon="0.579270">
        <ele>279.478</ele>
        <time>2020-08-23T07:19:24Z</time>
      </trkpt>
      <trkpt lat="41.829080" lon="0.579220">
        <ele>279.397</ele>
        <time>2020-08-23T07:19:25Z</time>
      </trkpt>
      <trkpt lat="41.829118" lon="0.579159">
        <ele>279.394</ele>
        <time>2020-08-23T07:19:26Z</time>
      </trkpt>
      <trkpt lat="41.829147" lon="0.579083">
        <ele>279.357</ele>
        <time>2020-08-23T07:19:27Z</time>
      </trkpt>
      <trkpt lat="41.829156" lon="0.579003">
        <ele>279.222</ele>
        <time>2020-08-23T07:19:28Z</time>
      </trkpt>
      <trkpt lat="41.829158" lon="0.578922">
        <ele>279.108</ele>
        <time>2020-08-23T07:19:29Z</time>
      </trkpt>
      <trkpt lat="41.829154" lon="0.578838">
        <ele>279.034</ele>
        <time>2020-08-23T07:19:30Z</time>
      </trkpt>
      <trkpt lat="41.829149" lon="0.578755">
        <ele>278.894</ele>
        <time>2020-08-23T07:19:31Z</time>
      </trkpt>
      <trkpt lat="41.829147" lon="0.578673">
        <ele>278.742</ele>
        <time>2020-08-23T07:19:32Z</time>
      </trkpt>
      <trkpt lat="41.829151" lon="0.578588">
        <ele>278.794</ele>
        <time>2020-08-23T07:19:33Z</time>
      </trkpt>
      <trkpt lat="41.829156" lon="0.578505">
        <ele>278.725</ele>
        <time>2020-08-23T07:19:34Z</time>
      </trkpt>
      <trkpt lat="41.829161" lon="0.578424">
        <ele>278.746</ele>
        <time>2020-08-23T07:19:35Z</time>
      </trkpt>
      <trkpt lat="41.829170" lon="0.578347">
        <ele>278.772</ele>
        <time>2020-08-23T07:19:36Z</time>
      </trkpt>
      <trkpt lat="41.829181" lon="0.578263">
        <ele>278.781</ele>
        <time>2020-08-23T07:19:37Z</time>
      </trkpt>
      <trkpt lat="41.829191" lon="0.578182">
        <ele>278.738</ele>
        <time>2020-08-23T07:19:38Z</time>
      </trkpt>
      <trkpt lat="41.829200" lon="0.578106">
        <ele>278.770</ele>
        <time>2020-08-23T07:19:39Z</time>
      </trkpt>
      <trkpt lat="41.829210" lon="0.578030">
        <ele>278.717</ele>
        <time>2020-08-23T07:19:40Z</time>
      </trkpt>
      <trkpt lat="41.829221" lon="0.577958">
        <ele>278.708</ele>
        <time>2020-08-23T07:19:41Z</time>
      </trkpt>
      <trkpt lat="41.829228" lon="0.577882">
        <ele>278.718</ele>
        <time>2020-08-23T07:19:42Z</time>
      </trkpt>
      <trkpt lat="41.829232" lon="0.577808">
        <ele>278.728</ele>
        <time>2020-08-23T07:19:43Z</time>
      </trkpt>
      <trkpt lat="41.829240" lon="0.577736">
        <ele>278.726</ele>
        <time>2020-08-23T07:19:44Z</time>
      </trkpt>
      <trkpt lat="41.829248" lon="0.577668">
        <ele>278.768</ele>
        <time>2020-08-23T07:19:45Z</time>
      </trkpt>
      <trkpt lat="41.829251" lon="0.577598">
        <ele>278.649</ele>
        <time>2020-08-23T07:19:46Z</time>
      </trkpt>
      <trkpt lat="41.829256" lon="0.577530">
        <ele>278.560</ele>
        <time>2020-08-23T07:19:47Z</time>
      </trkpt>
      <trkpt lat="41.829263" lon="0.577456">
        <ele>278.596</ele>
        <time>2020-08-23T07:19:48Z</time>
      </trkpt>
      <trkpt lat="41.829270" lon="0.577387">
        <ele>278.425</ele>
        <time>2020-08-23T07:19:49Z</time>
      </trkpt>
      <trkpt lat="41.829278" lon="0.577317">
        <ele>278.447</ele>
        <time>2020-08-23T07:19:50Z</time>
      </trkpt>
      <trkpt lat="41.829283" lon="0.577247">
        <ele>278.429</ele>
        <time>2020-08-23T07:19:51Z</time>
      </trkpt>
      <trkpt lat="41.829294" lon="0.577176">
        <ele>278.321</ele>
        <time>2020-08-23T07:19:52Z</time>
      </trkpt>
      <trkpt lat="41.829303" lon="0.577104">
        <ele>278.208</ele>
        <time>2020-08-23T07:19:53Z</time>
      </trkpt>
      <trkpt lat="41.829306" lon="0.577030">
        <ele>278.179</ele>
        <time>2020-08-23T07:19:54Z</time>
      </trkpt>
      <trkpt lat="41.829309" lon="0.576955">
        <ele>278.069</ele>
        <time>2020-08-23T07:19:55Z</time>
      </trkpt>
      <trkpt lat="41.829312" lon="0.576873">
        <ele>277.957</ele>
        <time>2020-08-23T07:19:56Z</time>
      </trkpt>
      <trkpt lat="41.829314" lon="0.576795">
        <ele>277.879</ele>
        <time>2020-08-23T07:19:57Z</time>
      </trkpt>
      <trkpt lat="41.829318" lon="0.576718">
        <ele>277.820</ele>
        <time>2020-08-23T07:19:58Z</time>
      </trkpt>
      <trkpt lat="41.829321" lon="0.576640">
        <ele>277.831</ele>
        <time>2020-08-23T07:19:59Z</time>
      </trkpt>
      <trkpt lat="41.829318" lon="0.576568">
        <ele>277.897</ele>
        <time>2020-08-23T07:20:00Z</time>
      </trkpt>
      <trkpt lat="41.829320" lon="0.576502">
        <ele>277.876</ele>
        <time>2020-08-23T07:20:01Z</time>
      </trkpt>
      <trkpt lat="41.829324" lon="0.576434">
        <ele>277.844</ele>
        <time>2020-08-23T07:20:02Z</time>
      </trkpt>
      <trkpt lat="41.829334" lon="0.576368">
        <ele>277.905</ele>
        <time>2020-08-23T07:20:03Z</time>
      </trkpt>
      <trkpt lat="41.829341" lon="0.576295">
        <ele>278.015</ele>
        <time>2020-08-23T07:20:04Z</time>
      </trkpt>
      <trkpt lat="41.829341" lon="0.576224">
        <ele>278.008</ele>
        <time>2020-08-23T07:20:05Z</time>
      </trkpt>
      <trkpt lat="41.829344" lon="0.576154">
        <ele>278.059</ele>
        <time>2020-08-23T07:20:06Z</time>
      </trkpt>
      <trkpt lat="41.829349" lon="0.576082">
        <ele>278.039</ele>
        <time>2020-08-23T07:20:07Z</time>
      </trkpt>
      <trkpt lat="41.829357" lon="0.576008">
        <ele>277.917</ele>
        <time>2020-08-23T07:20:08Z</time>
      </trkpt>
      <trkpt lat="41.829368" lon="0.575933">
        <ele>277.979</ele>
        <time>2020-08-23T07:20:09Z</time>
      </trkpt>
      <trkpt lat="41.829379" lon="0.575859">
        <ele>277.960</ele>
        <time>2020-08-23T07:20:10Z</time>
      </trkpt>
      <trkpt lat="41.829385" lon="0.575787">
        <ele>277.961</ele>
        <time>2020-08-23T07:20:11Z</time>
      </trkpt>
      <trkpt lat="41.829395" lon="0.575711">
        <ele>277.917</ele>
        <time>2020-08-23T07:20:12Z</time>
      </trkpt>
      <trkpt lat="41.829409" lon="0.575635">
        <ele>277.986</ele>
        <time>2020-08-23T07:20:13Z</time>
      </trkpt>
      <trkpt lat="41.829422" lon="0.575566">
        <ele>277.915</ele>
        <time>2020-08-23T07:20:14Z</time>
      </trkpt>
      <trkpt lat="41.829439" lon="0.575506">
        <ele>277.965</ele>
        <time>2020-08-23T07:20:15Z</time>
      </trkpt>
      <trkpt lat="41.829455" lon="0.575441">
        <ele>277.911</ele>
        <time>2020-08-23T07:20:16Z</time>
      </trkpt>
      <trkpt lat="41.829466" lon="0.575370">
        <ele>277.908</ele>
        <time>2020-08-23T07:20:17Z</time>
      </trkpt>
      <trkpt lat="41.829480" lon="0.575300">
        <ele>277.936</ele>
        <time>2020-08-23T07:20:18Z</time>
      </trkpt>
      <trkpt lat="41.829493" lon="0.575232">
        <ele>277.976</ele>
        <time>2020-08-23T07:20:19Z</time>
      </trkpt>
      <trkpt lat="41.829513" lon="0.575172">
        <ele>277.994</ele>
        <time>2020-08-23T07:20:20Z</time>
      </trkpt>
      <trkpt lat="41.829539" lon="0.575113">
        <ele>277.886</ele>
        <time>2020-08-23T07:20:21Z</time>
      </trkpt>
      <trkpt lat="41.829562" lon="0.575052">
        <ele>277.777</ele>
        <time>2020-08-23T07:20:22Z</time>
      </trkpt>
      <trkpt lat="41.829587" lon="0.574996">
        <ele>277.798</ele>
        <time>2020-08-23T07:20:23Z</time>
      </trkpt>
      <trkpt lat="41.829605" lon="0.574933">
        <ele>277.814</ele>
        <time>2020-08-23T07:20:24Z</time>
      </trkpt>
      <trkpt lat="41.829621" lon="0.574862">
        <ele>277.963</ele>
        <time>2020-08-23T07:20:25Z</time>
      </trkpt>
      <trkpt lat="41.829640" lon="0.574795">
        <ele>278.053</ele>
        <time>2020-08-23T07:20:26Z</time>
      </trkpt>
      <trkpt lat="41.829662" lon="0.574731">
        <ele>278.104</ele>
        <time>2020-08-23T07:20:27Z</time>
      </trkpt>
      <trkpt lat="41.829683" lon="0.574664">
        <ele>278.114</ele>
        <time>2020-08-23T07:20:28Z</time>
      </trkpt>
      <trkpt lat="41.829703" lon="0.574590">
        <ele>278.108</ele>
        <time>2020-08-23T07:20:29Z</time>
      </trkpt>
      <trkpt lat="41.829724" lon="0.574516">
        <ele>278.060</ele>
        <time>2020-08-23T07:20:30Z</time>
      </trkpt>
      <trkpt lat="41.829746" lon="0.574447">
        <ele>278.010</ele>
        <time>2020-08-23T07:20:31Z</time>
      </trkpt>
      <trkpt lat="41.829767" lon="0.574380">
        <ele>277.958</ele>
        <time>2020-08-23T07:20:32Z</time>
      </trkpt>
      <trkpt lat="41.829790" lon="0.574316">
        <ele>277.850</ele>
        <time>2020-08-23T07:20:33Z</time>
      </trkpt>
      <trkpt lat="41.829813" lon="0.574252">
        <ele>277.841</ele>
        <time>2020-08-23T07:20:34Z</time>
      </trkpt>
      <trkpt lat="41.829839" lon="0.574191">
        <ele>277.732</ele>
        <time>2020-08-23T07:20:35Z</time>
      </trkpt>
      <trkpt lat="41.829864" lon="0.574129">
        <ele>277.728</ele>
        <time>2020-08-23T07:20:36Z</time>
      </trkpt>
      <trkpt lat="41.829889" lon="0.574067">
        <ele>277.777</ele>
        <time>2020-08-23T07:20:37Z</time>
      </trkpt>
      <trkpt lat="41.829912" lon="0.574009">
        <ele>277.866</ele>
        <time>2020-08-23T07:20:38Z</time>
      </trkpt>
      <trkpt lat="41.829939" lon="0.573952">
        <ele>277.929</ele>
        <time>2020-08-23T07:20:39Z</time>
      </trkpt>
      <trkpt lat="41.829967" lon="0.573892">
        <ele>278.021</ele>
        <time>2020-08-23T07:20:40Z</time>
      </trkpt>
      <trkpt lat="41.829991" lon="0.573827">
        <ele>278.108</ele>
        <time>2020-08-23T07:20:41Z</time>
      </trkpt>
      <trkpt lat="41.830015" lon="0.573763">
        <ele>278.191</ele>
        <time>2020-08-23T07:20:42Z</time>
      </trkpt>
      <trkpt lat="41.830041" lon="0.573710">
        <ele>278.071</ele>
        <time>2020-08-23T07:20:43Z</time>
      </trkpt>
      <trkpt lat="41.830067" lon="0.573653">
        <ele>278.079</ele>
        <time>2020-08-23T07:20:44Z</time>
      </trkpt>
      <trkpt lat="41.830085" lon="0.573585">
        <ele>278.051</ele>
        <time>2020-08-23T07:20:45Z</time>
      </trkpt>
      <trkpt lat="41.830103" lon="0.573512">
        <ele>278.152</ele>
        <time>2020-08-23T07:20:46Z</time>
      </trkpt>
      <trkpt lat="41.830116" lon="0.573441">
        <ele>278.243</ele>
        <time>2020-08-23T07:20:47Z</time>
      </trkpt>
      <trkpt lat="41.830125" lon="0.573376">
        <ele>278.479</ele>
        <time>2020-08-23T07:20:48Z</time>
      </trkpt>
      <trkpt lat="41.830136" lon="0.573312">
        <ele>278.518</ele>
        <time>2020-08-23T07:20:49Z</time>
      </trkpt>
      <trkpt lat="41.830150" lon="0.573250">
        <ele>278.642</ele>
        <time>2020-08-23T07:20:50Z</time>
      </trkpt>
      <trkpt lat="41.830159" lon="0.573190">
        <ele>278.722</ele>
        <time>2020-08-23T07:20:51Z</time>
      </trkpt>
      <trkpt lat="41.830175" lon="0.573079">
        <ele>278.814</ele>
        <time>2020-08-23T07:20:53Z</time>
      </trkpt>
      <trkpt lat="41.830191" lon="0.572965">
        <ele>279.108</ele>
        <time>2020-08-23T07:20:55Z</time>
      </trkpt>
      <trkpt lat="41.830198" lon="0.572904">
        <ele>279.219</ele>
        <time>2020-08-23T07:20:56Z</time>
      </trkpt>
      <trkpt lat="41.830204" lon="0.572841">
        <ele>279.459</ele>
        <time>2020-08-23T07:20:57Z</time>
      </trkpt>
      <trkpt lat="41.830213" lon="0.572777">
        <ele>279.657</ele>
        <time>2020-08-23T07:20:58Z</time>
      </trkpt>
      <trkpt lat="41.830219" lon="0.572708">
        <ele>279.929</ele>
        <time>2020-08-23T07:20:59Z</time>
      </trkpt>
      <trkpt lat="41.830225" lon="0.572637">
        <ele>280.070</ele>
        <time>2020-08-23T07:21:00Z</time>
      </trkpt>
      <trkpt lat="41.830232" lon="0.572570">
        <ele>280.131</ele>
        <time>2020-08-23T07:21:01Z</time>
      </trkpt>
      <trkpt lat="41.830249" lon="0.572456">
        <ele>280.477</ele>
        <time>2020-08-23T07:21:03Z</time>
      </trkpt>
      <trkpt lat="41.830267" lon="0.572343">
        <ele>280.676</ele>
        <time>2020-08-23T07:21:05Z</time>
      </trkpt>
      <trkpt lat="41.830291" lon="0.572237">
        <ele>280.933</ele>
        <time>2020-08-23T07:21:07Z</time>
      </trkpt>
      <trkpt lat="41.830304" lon="0.572138">
        <ele>281.223</ele>
        <time>2020-08-23T07:21:09Z</time>
      </trkpt>
      <trkpt lat="41.830310" lon="0.572043">
        <ele>281.415</ele>
        <time>2020-08-23T07:21:11Z</time>
      </trkpt>
      <trkpt lat="41.830320" lon="0.571928">
        <ele>281.508</ele>
        <time>2020-08-23T07:21:13Z</time>
      </trkpt>
      <trkpt lat="41.830330" lon="0.571828">
        <ele>281.668</ele>
        <time>2020-08-23T07:21:15Z</time>
      </trkpt>
      <trkpt lat="41.830333" lon="0.571734">
        <ele>281.758</ele>
        <time>2020-08-23T07:21:17Z</time>
      </trkpt>
      <trkpt lat="41.830336" lon="0.571634">
        <ele>281.856</ele>
        <time>2020-08-23T07:21:19Z</time>
      </trkpt>
      <trkpt lat="41.830346" lon="0.571530">
        <ele>281.998</ele>
        <time>2020-08-23T07:21:21Z</time>
      </trkpt>
      <trkpt lat="41.830356" lon="0.571427">
        <ele>281.929</ele>
        <time>2020-08-23T07:21:23Z</time>
      </trkpt>
      <trkpt lat="41.830372" lon="0.571310">
        <ele>281.940</ele>
        <time>2020-08-23T07:21:25Z</time>
      </trkpt>
      <trkpt lat="41.830414" lon="0.571222">
        <ele>282.096</ele>
        <time>2020-08-23T07:21:27Z</time>
      </trkpt>
      <trkpt lat="41.830430" lon="0.571163">
        <ele>282.195</ele>
        <time>2020-08-23T07:21:28Z</time>
      </trkpt>
      <trkpt lat="41.830442" lon="0.571103">
        <ele>282.151</ele>
        <time>2020-08-23T07:21:29Z</time>
      </trkpt>
      <trkpt lat="41.830473" lon="0.571011">
        <ele>282.201</ele>
        <time>2020-08-23T07:21:31Z</time>
      </trkpt>
      <trkpt lat="41.830496" lon="0.570909">
        <ele>282.311</ele>
        <time>2020-08-23T07:21:33Z</time>
      </trkpt>
      <trkpt lat="41.830516" lon="0.570800">
        <ele>282.808</ele>
        <time>2020-08-23T07:21:35Z</time>
      </trkpt>
      <trkpt lat="41.830541" lon="0.570698">
        <ele>283.240</ele>
        <time>2020-08-23T07:21:37Z</time>
      </trkpt>
      <trkpt lat="41.830551" lon="0.570639">
        <ele>283.310</ele>
        <time>2020-08-23T07:21:38Z</time>
      </trkpt>
      <trkpt lat="41.830549" lon="0.570573">
        <ele>283.488</ele>
        <time>2020-08-23T07:21:39Z</time>
      </trkpt>
      <trkpt lat="41.830550" lon="0.570461">
        <ele>283.630</ele>
        <time>2020-08-23T07:21:41Z</time>
      </trkpt>
      <trkpt lat="41.830564" lon="0.570357">
        <ele>283.941</ele>
        <time>2020-08-23T07:21:43Z</time>
      </trkpt>
      <trkpt lat="41.830580" lon="0.570252">
        <ele>284.132</ele>
        <time>2020-08-23T07:21:45Z</time>
      </trkpt>
      <trkpt lat="41.830591" lon="0.570171">
        <ele>284.398</ele>
        <time>2020-08-23T07:21:47Z</time>
      </trkpt>
      <trkpt lat="41.830614" lon="0.570082">
        <ele>284.557</ele>
        <time>2020-08-23T07:21:49Z</time>
      </trkpt>
      <trkpt lat="41.830623" lon="0.569972">
        <ele>284.738</ele>
        <time>2020-08-23T07:21:51Z</time>
      </trkpt>
      <trkpt lat="41.830628" lon="0.569857">
        <ele>285.070</ele>
        <time>2020-08-23T07:21:53Z</time>
      </trkpt>
      <trkpt lat="41.830629" lon="0.569790">
        <ele>285.117</ele>
        <time>2020-08-23T07:21:54Z</time>
      </trkpt>
      <trkpt lat="41.830635" lon="0.569688">
        <ele>285.308</ele>
        <time>2020-08-23T07:21:56Z</time>
      </trkpt>
      <trkpt lat="41.830636" lon="0.569586">
        <ele>285.448</ele>
        <time>2020-08-23T07:21:58Z</time>
      </trkpt>
      <trkpt lat="41.830646" lon="0.569504">
        <ele>285.538</ele>
        <time>2020-08-23T07:22:00Z</time>
      </trkpt>
      <trkpt lat="41.830652" lon="0.569419">
        <ele>285.756</ele>
        <time>2020-08-23T07:22:02Z</time>
      </trkpt>
      <trkpt lat="41.830647" lon="0.569312">
        <ele>286.098</ele>
        <time>2020-08-23T07:22:04Z</time>
      </trkpt>
      <trkpt lat="41.830648" lon="0.569249">
        <ele>286.259</ele>
        <time>2020-08-23T07:22:05Z</time>
      </trkpt>
      <trkpt lat="41.830659" lon="0.569160">
        <ele>286.680</ele>
        <time>2020-08-23T07:22:07Z</time>
      </trkpt>
      <trkpt lat="41.830665" lon="0.569064">
        <ele>286.956</ele>
        <time>2020-08-23T07:22:09Z</time>
      </trkpt>
      <trkpt lat="41.830684" lon="0.568980">
        <ele>287.365</ele>
        <time>2020-08-23T07:22:11Z</time>
      </trkpt>
      <trkpt lat="41.830708" lon="0.568910">
        <ele>287.686</ele>
        <time>2020-08-23T07:22:13Z</time>
      </trkpt>
      <trkpt lat="41.830733" lon="0.568856">
        <ele>288.060</ele>
        <time>2020-08-23T07:22:15Z</time>
      </trkpt>
      <trkpt lat="41.830769" lon="0.568780">
        <ele>288.626</ele>
        <time>2020-08-23T07:22:18Z</time>
      </trkpt>
      <trkpt lat="41.830789" lon="0.568706">
        <ele>288.908</ele>
        <time>2020-08-23T07:22:20Z</time>
      </trkpt>
      <trkpt lat="41.830813" lon="0.568624">
        <ele>289.233</ele>
        <time>2020-08-23T07:22:22Z</time>
      </trkpt>
      <trkpt lat="41.830817" lon="0.568552">
        <ele>289.563</ele>
        <time>2020-08-23T07:22:24Z</time>
      </trkpt>
      <trkpt lat="41.830824" lon="0.568484">
        <ele>289.821</ele>
        <time>2020-08-23T07:22:26Z</time>
      </trkpt>
      <trkpt lat="41.830839" lon="0.568423">
        <ele>290.253</ele>
        <time>2020-08-23T07:22:28Z</time>
      </trkpt>
      <trkpt lat="41.830860" lon="0.568344">
        <ele>290.644</ele>
        <time>2020-08-23T07:22:31Z</time>
      </trkpt>
      <trkpt lat="41.830890" lon="0.568295">
        <ele>291.045</ele>
        <time>2020-08-23T07:22:33Z</time>
      </trkpt>
      <trkpt lat="41.830924" lon="0.568254">
        <ele>291.451</ele>
        <time>2020-08-23T07:22:35Z</time>
      </trkpt>
      <trkpt lat="41.830962" lon="0.568204">
        <ele>291.670</ele>
        <time>2020-08-23T07:22:38Z</time>
      </trkpt>
      <trkpt lat="41.831010" lon="0.568125">
        <ele>292.588</ele>
        <time>2020-08-23T07:26:52Z</time>
      </trkpt>
      <trkpt lat="41.831016" lon="0.568054">
        <ele>292.724</ele>
        <time>2020-08-23T07:27:05Z</time>
      </trkpt>
      <trkpt lat="41.831062" lon="0.568013">
        <ele>292.926</ele>
        <time>2020-08-23T07:27:08Z</time>
      </trkpt>
      <trkpt lat="41.831096" lon="0.567970">
        <ele>293.108</ele>
        <time>2020-08-23T07:27:10Z</time>
      </trkpt>
      <trkpt lat="41.831120" lon="0.567915">
        <ele>293.313</ele>
        <time>2020-08-23T07:27:12Z</time>
      </trkpt>
      <trkpt lat="41.831167" lon="0.567876">
        <ele>293.563</ele>
        <time>2020-08-23T07:27:14Z</time>
      </trkpt>
      <trkpt lat="41.831216" lon="0.567835">
        <ele>293.881</ele>
        <time>2020-08-23T07:27:16Z</time>
      </trkpt>
      <trkpt lat="41.831266" lon="0.567786">
        <ele>294.173</ele>
        <time>2020-08-23T07:27:18Z</time>
      </trkpt>
      <trkpt lat="41.831326" lon="0.567756">
        <ele>294.564</ele>
        <time>2020-08-23T07:27:20Z</time>
      </trkpt>
      <trkpt lat="41.831366" lon="0.567715">
        <ele>294.725</ele>
        <time>2020-08-23T07:27:22Z</time>
      </trkpt>
      <trkpt lat="41.831403" lon="0.567659">
        <ele>294.991</ele>
        <time>2020-08-23T07:27:24Z</time>
      </trkpt>
      <trkpt lat="41.831452" lon="0.567621">
        <ele>295.030</ele>
        <time>2020-08-23T07:27:26Z</time>
      </trkpt>
      <trkpt lat="41.831511" lon="0.567578">
        <ele>295.118</ele>
        <time>2020-08-23T07:27:28Z</time>
      </trkpt>
      <trkpt lat="41.831580" lon="0.567541">
        <ele>295.198</ele>
        <time>2020-08-23T07:27:30Z</time>
      </trkpt>
      <trkpt lat="41.831642" lon="0.567478">
        <ele>295.017</ele>
        <time>2020-08-23T07:27:32Z</time>
      </trkpt>
      <trkpt lat="41.831698" lon="0.567416">
        <ele>295.008</ele>
        <time>2020-08-23T07:27:34Z</time>
      </trkpt>
      <trkpt lat="41.831757" lon="0.567370">
        <ele>295.146</ele>
        <time>2020-08-23T07:27:36Z</time>
      </trkpt>
      <trkpt lat="41.831819" lon="0.567321">
        <ele>295.216</ele>
        <time>2020-08-23T07:27:38Z</time>
      </trkpt>
      <trkpt lat="41.831891" lon="0.567263">
        <ele>295.274</ele>
        <time>2020-08-23T07:27:40Z</time>
      </trkpt>
      <trkpt lat="41.831946" lon="0.567212">
        <ele>295.286</ele>
        <time>2020-08-23T07:27:42Z</time>
      </trkpt>
      <trkpt lat="41.832004" lon="0.567164">
        <ele>295.317</ele>
        <time>2020-08-23T07:27:44Z</time>
      </trkpt>
      <trkpt lat="41.832079" lon="0.567127">
        <ele>295.488</ele>
        <time>2020-08-23T07:27:46Z</time>
      </trkpt>
      <trkpt lat="41.832160" lon="0.567084">
        <ele>295.544</ele>
        <time>2020-08-23T07:27:48Z</time>
      </trkpt>
      <trkpt lat="41.832230" lon="0.567047">
        <ele>295.533</ele>
        <time>2020-08-23T07:27:50Z</time>
      </trkpt>
      <trkpt lat="41.832305" lon="0.567009">
        <ele>295.641</ele>
        <time>2020-08-23T07:27:52Z</time>
      </trkpt>
      <trkpt lat="41.832383" lon="0.566961">
        <ele>295.781</ele>
        <time>2020-08-23T07:27:54Z</time>
      </trkpt>
      <trkpt lat="41.832457" lon="0.566927">
        <ele>296.009</ele>
        <time>2020-08-23T07:27:56Z</time>
      </trkpt>
      <trkpt lat="41.832536" lon="0.566879">
        <ele>296.108</ele>
        <time>2020-08-23T07:27:58Z</time>
      </trkpt>
      <trkpt lat="41.832615" lon="0.566818">
        <ele>296.339</ele>
        <time>2020-08-23T07:28:00Z</time>
      </trkpt>
      <trkpt lat="41.832682" lon="0.566781">
        <ele>296.669</ele>
        <time>2020-08-23T07:28:02Z</time>
      </trkpt>
      <trkpt lat="41.832742" lon="0.566733">
        <ele>296.947</ele>
        <time>2020-08-23T07:28:04Z</time>
      </trkpt>
      <trkpt lat="41.832794" lon="0.566678">
        <ele>297.179</ele>
        <time>2020-08-23T07:28:06Z</time>
      </trkpt>
      <trkpt lat="41.832856" lon="0.566628">
        <ele>297.450</ele>
        <time>2020-08-23T07:28:08Z</time>
      </trkpt>
      <trkpt lat="41.832926" lon="0.566580">
        <ele>297.741</ele>
        <time>2020-08-23T07:28:10Z</time>
      </trkpt>
      <trkpt lat="41.832987" lon="0.566540">
        <ele>298.217</ele>
        <time>2020-08-23T07:28:12Z</time>
      </trkpt>
      <trkpt lat="41.833051" lon="0.566497">
        <ele>298.616</ele>
        <time>2020-08-23T07:28:14Z</time>
      </trkpt>
      <trkpt lat="41.833099" lon="0.566447">
        <ele>299.036</ele>
        <time>2020-08-23T07:28:16Z</time>
      </trkpt>
      <trkpt lat="41.833146" lon="0.566381">
        <ele>299.417</ele>
        <time>2020-08-23T07:28:18Z</time>
      </trkpt>
      <trkpt lat="41.833182" lon="0.566326">
        <ele>299.918</ele>
        <time>2020-08-23T07:28:20Z</time>
      </trkpt>
      <trkpt lat="41.833218" lon="0.566255">
        <ele>300.308</ele>
        <time>2020-08-23T07:28:22Z</time>
      </trkpt>
      <trkpt lat="41.833258" lon="0.566178">
        <ele>300.748</ele>
        <time>2020-08-23T07:28:24Z</time>
      </trkpt>
      <trkpt lat="41.833298" lon="0.566108">
        <ele>301.058</ele>
        <time>2020-08-23T07:28:26Z</time>
      </trkpt>
      <trkpt lat="41.833335" lon="0.566025">
        <ele>301.316</ele>
        <time>2020-08-23T07:28:28Z</time>
      </trkpt>
      <trkpt lat="41.833354" lon="0.565938">
        <ele>301.678</ele>
        <time>2020-08-23T07:28:30Z</time>
      </trkpt>
      <trkpt lat="41.833368" lon="0.565847">
        <ele>301.739</ele>
        <time>2020-08-23T07:28:32Z</time>
      </trkpt>
      <trkpt lat="41.833391" lon="0.565756">
        <ele>301.830</ele>
        <time>2020-08-23T07:28:34Z</time>
      </trkpt>
      <trkpt lat="41.833406" lon="0.565666">
        <ele>301.986</ele>
        <time>2020-08-23T07:28:36Z</time>
      </trkpt>
      <trkpt lat="41.833417" lon="0.565585">
        <ele>302.045</ele>
        <time>2020-08-23T07:28:38Z</time>
      </trkpt>
      <trkpt lat="41.833422" lon="0.565502">
        <ele>302.258</ele>
        <time>2020-08-23T07:28:40Z</time>
      </trkpt>
      <trkpt lat="41.833444" lon="0.565415">
        <ele>302.452</ele>
        <time>2020-08-23T07:28:42Z</time>
      </trkpt>
      <trkpt lat="41.833470" lon="0.565342">
        <ele>302.617</ele>
        <time>2020-08-23T07:28:44Z</time>
      </trkpt>
      <trkpt lat="41.833488" lon="0.565255">
        <ele>302.808</ele>
        <time>2020-08-23T07:28:46Z</time>
      </trkpt>
      <trkpt lat="41.833501" lon="0.565174">
        <ele>303.120</ele>
        <time>2020-08-23T07:28:48Z</time>
      </trkpt>
      <trkpt lat="41.833519" lon="0.565084">
        <ele>303.350</ele>
        <time>2020-08-23T07:28:50Z</time>
      </trkpt>
      <trkpt lat="41.833539" lon="0.565000">
        <ele>303.598</ele>
        <time>2020-08-23T07:28:52Z</time>
      </trkpt>
      <trkpt lat="41.833559" lon="0.564929">
        <ele>303.720</ele>
        <time>2020-08-23T07:28:54Z</time>
      </trkpt>
      <trkpt lat="41.833580" lon="0.564839">
        <ele>303.861</ele>
        <time>2020-08-23T07:28:56Z</time>
      </trkpt>
      <trkpt lat="41.833605" lon="0.564749">
        <ele>304.032</ele>
        <time>2020-08-23T07:28:58Z</time>
      </trkpt>
      <trkpt lat="41.833623" lon="0.564655">
        <ele>304.228</ele>
        <time>2020-08-23T07:29:00Z</time>
      </trkpt>
      <trkpt lat="41.833651" lon="0.564565">
        <ele>304.477</ele>
        <time>2020-08-23T07:29:02Z</time>
      </trkpt>
      <trkpt lat="41.833680" lon="0.564485">
        <ele>304.777</ele>
        <time>2020-08-23T07:29:04Z</time>
      </trkpt>
      <trkpt lat="41.833717" lon="0.564401">
        <ele>304.961</ele>
        <time>2020-08-23T07:29:06Z</time>
      </trkpt>
      <trkpt lat="41.833757" lon="0.564333">
        <ele>305.227</ele>
        <time>2020-08-23T07:29:08Z</time>
      </trkpt>
      <trkpt lat="41.833804" lon="0.564263">
        <ele>305.508</ele>
        <time>2020-08-23T07:29:10Z</time>
      </trkpt>
      <trkpt lat="41.833844" lon="0.564194">
        <ele>305.732</ele>
        <time>2020-08-23T07:29:12Z</time>
      </trkpt>
      <trkpt lat="41.833892" lon="0.564136">
        <ele>306.062</ele>
        <time>2020-08-23T07:29:14Z</time>
      </trkpt>
      <trkpt lat="41.833937" lon="0.564071">
        <ele>306.350</ele>
        <time>2020-08-23T07:29:16Z</time>
      </trkpt>
      <trkpt lat="41.833988" lon="0.564005">
        <ele>306.662</ele>
        <time>2020-08-23T07:29:18Z</time>
      </trkpt>
      <trkpt lat="41.834035" lon="0.563948">
        <ele>306.863</ele>
        <time>2020-08-23T07:29:20Z</time>
      </trkpt>
      <trkpt lat="41.834081" lon="0.563887">
        <ele>307.144</ele>
        <time>2020-08-23T07:29:22Z</time>
      </trkpt>
      <trkpt lat="41.834130" lon="0.563830">
        <ele>307.310</ele>
        <time>2020-08-23T07:29:24Z</time>
      </trkpt>
      <trkpt lat="41.834175" lon="0.563747">
        <ele>307.659</ele>
        <time>2020-08-23T07:29:26Z</time>
      </trkpt>
      <trkpt lat="41.834216" lon="0.563680">
        <ele>307.929</ele>
        <time>2020-08-23T07:29:28Z</time>
      </trkpt>
      <trkpt lat="41.834256" lon="0.563604">
        <ele>308.100</ele>
        <time>2020-08-23T07:29:30Z</time>
      </trkpt>
      <trkpt lat="41.834297" lon="0.563524">
        <ele>308.320</ele>
        <time>2020-08-23T07:29:32Z</time>
      </trkpt>
      <trkpt lat="41.834332" lon="0.563448">
        <ele>308.508</ele>
        <time>2020-08-23T07:29:34Z</time>
      </trkpt>
      <trkpt lat="41.834377" lon="0.563370">
        <ele>308.737</ele>
        <time>2020-08-23T07:29:36Z</time>
      </trkpt>
      <trkpt lat="41.834416" lon="0.563309">
        <ele>309.027</ele>
        <time>2020-08-23T07:29:38Z</time>
      </trkpt>
      <trkpt lat="41.834443" lon="0.563232">
        <ele>309.155</ele>
        <time>2020-08-23T07:29:40Z</time>
      </trkpt>
      <trkpt lat="41.834470" lon="0.563152">
        <ele>309.277</ele>
        <time>2020-08-23T07:29:42Z</time>
      </trkpt>
      <trkpt lat="41.834492" lon="0.563062">
        <ele>309.398</ele>
        <time>2020-08-23T07:29:44Z</time>
      </trkpt>
      <trkpt lat="41.834516" lon="0.562965">
        <ele>309.429</ele>
        <time>2020-08-23T07:29:46Z</time>
      </trkpt>
      <trkpt lat="41.834527" lon="0.562864">
        <ele>309.535</ele>
        <time>2020-08-23T07:29:48Z</time>
      </trkpt>
      <trkpt lat="41.834541" lon="0.562765">
        <ele>309.534</ele>
        <time>2020-08-23T07:29:50Z</time>
      </trkpt>
      <trkpt lat="41.834562" lon="0.562670">
        <ele>309.666</ele>
        <time>2020-08-23T07:29:52Z</time>
      </trkpt>
      <trkpt lat="41.834572" lon="0.562572">
        <ele>309.629</ele>
        <time>2020-08-23T07:29:54Z</time>
      </trkpt>
      <trkpt lat="41.834585" lon="0.562463">
        <ele>309.621</ele>
        <time>2020-08-23T07:29:56Z</time>
      </trkpt>
      <trkpt lat="41.834608" lon="0.562372">
        <ele>309.608</ele>
        <time>2020-08-23T07:29:58Z</time>
      </trkpt>
      <trkpt lat="41.834625" lon="0.562284">
        <ele>309.641</ele>
        <time>2020-08-23T07:30:00Z</time>
      </trkpt>
      <trkpt lat="41.834654" lon="0.562188">
        <ele>309.661</ele>
        <time>2020-08-23T07:30:02Z</time>
      </trkpt>
      <trkpt lat="41.834680" lon="0.562070">
        <ele>309.619</ele>
        <time>2020-08-23T07:30:04Z</time>
      </trkpt>
      <trkpt lat="41.834688" lon="0.562008">
        <ele>309.631</ele>
        <time>2020-08-23T07:30:05Z</time>
      </trkpt>
      <trkpt lat="41.834696" lon="0.561946">
        <ele>309.632</ele>
        <time>2020-08-23T07:30:06Z</time>
      </trkpt>
      <trkpt lat="41.834708" lon="0.561837">
        <ele>309.623</ele>
        <time>2020-08-23T07:30:08Z</time>
      </trkpt>
      <trkpt lat="41.834719" lon="0.561724">
        <ele>309.619</ele>
        <time>2020-08-23T07:30:10Z</time>
      </trkpt>
      <trkpt lat="41.834725" lon="0.561663">
        <ele>309.648</ele>
        <time>2020-08-23T07:30:11Z</time>
      </trkpt>
      <trkpt lat="41.834738" lon="0.561560">
        <ele>309.879</ele>
        <time>2020-08-23T07:30:13Z</time>
      </trkpt>
      <trkpt lat="41.834760" lon="0.561450">
        <ele>309.905</ele>
        <time>2020-08-23T07:30:15Z</time>
      </trkpt>
      <trkpt lat="41.834781" lon="0.561349">
        <ele>309.925</ele>
        <time>2020-08-23T07:30:17Z</time>
      </trkpt>
      <trkpt lat="41.834798" lon="0.561251">
        <ele>310.008</ele>
        <time>2020-08-23T07:30:19Z</time>
      </trkpt>
      <trkpt lat="41.834812" lon="0.561125">
        <ele>310.122</ele>
        <time>2020-08-23T07:30:21Z</time>
      </trkpt>
      <trkpt lat="41.834819" lon="0.561059">
        <ele>310.232</ele>
        <time>2020-08-23T07:30:22Z</time>
      </trkpt>
      <trkpt lat="41.834833" lon="0.560946">
        <ele>310.320</ele>
        <time>2020-08-23T07:30:24Z</time>
      </trkpt>
      <trkpt lat="41.834858" lon="0.560839">
        <ele>310.422</ele>
        <time>2020-08-23T07:30:26Z</time>
      </trkpt>
      <trkpt lat="41.834878" lon="0.560754">
        <ele>310.653</ele>
        <time>2020-08-23T07:30:28Z</time>
      </trkpt>
      <trkpt lat="41.834896" lon="0.560675">
        <ele>310.974</ele>
        <time>2020-08-23T07:30:30Z</time>
      </trkpt>
      <trkpt lat="41.834919" lon="0.560589">
        <ele>311.290</ele>
        <time>2020-08-23T07:30:32Z</time>
      </trkpt>
      <trkpt lat="41.834924" lon="0.560508">
        <ele>311.619</ele>
        <time>2020-08-23T07:30:34Z</time>
      </trkpt>
      <trkpt lat="41.834933" lon="0.560431">
        <ele>311.971</ele>
        <time>2020-08-23T07:30:36Z</time>
      </trkpt>
      <trkpt lat="41.834947" lon="0.560350">
        <ele>312.141</ele>
        <time>2020-08-23T07:30:38Z</time>
      </trkpt>
      <trkpt lat="41.834965" lon="0.560282">
        <ele>312.315</ele>
        <time>2020-08-23T07:30:40Z</time>
      </trkpt>
      <trkpt lat="41.834972" lon="0.560217">
        <ele>312.508</ele>
        <time>2020-08-23T07:30:42Z</time>
      </trkpt>
      <trkpt lat="41.834987" lon="0.560145">
        <ele>312.812</ele>
        <time>2020-08-23T07:30:44Z</time>
      </trkpt>
      <trkpt lat="41.835008" lon="0.560067">
        <ele>313.112</ele>
        <time>2020-08-23T07:30:46Z</time>
      </trkpt>
      <trkpt lat="41.835029" lon="0.559994">
        <ele>313.540</ele>
        <time>2020-08-23T07:30:48Z</time>
      </trkpt>
      <trkpt lat="41.835052" lon="0.559919">
        <ele>313.892</ele>
        <time>2020-08-23T07:30:50Z</time>
      </trkpt>
      <trkpt lat="41.835080" lon="0.559853">
        <ele>314.123</ele>
        <time>2020-08-23T07:30:52Z</time>
      </trkpt>
      <trkpt lat="41.835103" lon="0.559782">
        <ele>314.464</ele>
        <time>2020-08-23T07:30:54Z</time>
      </trkpt>
      <trkpt lat="41.835132" lon="0.559704">
        <ele>314.730</ele>
        <time>2020-08-23T07:30:56Z</time>
      </trkpt>
      <trkpt lat="41.835173" lon="0.559631">
        <ele>315.089</ele>
        <time>2020-08-23T07:30:58Z</time>
      </trkpt>
      <trkpt lat="41.835223" lon="0.559585">
        <ele>315.359</ele>
        <time>2020-08-23T07:31:00Z</time>
      </trkpt>
      <trkpt lat="41.835273" lon="0.559533">
        <ele>315.603</ele>
        <time>2020-08-23T07:31:02Z</time>
      </trkpt>
      <trkpt lat="41.835325" lon="0.559469">
        <ele>316.323</ele>
        <time>2020-08-23T07:31:05Z</time>
      </trkpt>
      <trkpt lat="41.835369" lon="0.559430">
        <ele>316.608</ele>
        <time>2020-08-23T07:31:07Z</time>
      </trkpt>
      <trkpt lat="41.835408" lon="0.559390">
        <ele>316.910</ele>
        <time>2020-08-23T07:31:09Z</time>
      </trkpt>
      <trkpt lat="41.835441" lon="0.559346">
        <ele>317.290</ele>
        <time>2020-08-23T07:31:11Z</time>
      </trkpt>
      <trkpt lat="41.835488" lon="0.559302">
        <ele>317.528</ele>
        <time>2020-08-23T07:31:13Z</time>
      </trkpt>
      <trkpt lat="41.835533" lon="0.559246">
        <ele>317.810</ele>
        <time>2020-08-23T07:31:15Z</time>
      </trkpt>
      <trkpt lat="41.835581" lon="0.559194">
        <ele>318.141</ele>
        <time>2020-08-23T07:31:17Z</time>
      </trkpt>
      <trkpt lat="41.835630" lon="0.559134">
        <ele>318.582</ele>
        <time>2020-08-23T07:31:19Z</time>
      </trkpt>
      <trkpt lat="41.835693" lon="0.559085">
        <ele>318.978</ele>
        <time>2020-08-23T07:31:21Z</time>
      </trkpt>
      <trkpt lat="41.835740" lon="0.559033">
        <ele>319.137</ele>
        <time>2020-08-23T07:31:23Z</time>
      </trkpt>
      <trkpt lat="41.835790" lon="0.558986">
        <ele>319.325</ele>
        <time>2020-08-23T07:31:25Z</time>
      </trkpt>
      <trkpt lat="41.835833" lon="0.558937">
        <ele>319.526</ele>
        <time>2020-08-23T07:31:27Z</time>
      </trkpt>
      <trkpt lat="41.835874" lon="0.558883">
        <ele>319.708</ele>
        <time>2020-08-23T07:31:29Z</time>
      </trkpt>
      <trkpt lat="41.835920" lon="0.558826">
        <ele>319.908</ele>
        <time>2020-08-23T07:31:31Z</time>
      </trkpt>
      <trkpt lat="41.835971" lon="0.558773">
        <ele>320.127</ele>
        <time>2020-08-23T07:31:33Z</time>
      </trkpt>
      <trkpt lat="41.836030" lon="0.558721">
        <ele>320.317</ele>
        <time>2020-08-23T07:31:35Z</time>
      </trkpt>
      <trkpt lat="41.836080" lon="0.558670">
        <ele>320.615</ele>
        <time>2020-08-23T07:31:37Z</time>
      </trkpt>
      <trkpt lat="41.836127" lon="0.558612">
        <ele>320.827</ele>
        <time>2020-08-23T07:31:39Z</time>
      </trkpt>
      <trkpt lat="41.836173" lon="0.558551">
        <ele>321.048</ele>
        <time>2020-08-23T07:31:41Z</time>
      </trkpt>
      <trkpt lat="41.836207" lon="0.558491">
        <ele>321.179</ele>
        <time>2020-08-23T07:31:43Z</time>
      </trkpt>
      <trkpt lat="41.836244" lon="0.558419">
        <ele>321.265</ele>
        <time>2020-08-23T07:31:45Z</time>
      </trkpt>
      <trkpt lat="41.836277" lon="0.558358">
        <ele>321.444</ele>
        <time>2020-08-23T07:31:47Z</time>
      </trkpt>
      <trkpt lat="41.836324" lon="0.558300">
        <ele>321.627</ele>
        <time>2020-08-23T07:31:49Z</time>
      </trkpt>
      <trkpt lat="41.836363" lon="0.558235">
        <ele>321.868</ele>
        <time>2020-08-23T07:31:51Z</time>
      </trkpt>
      <trkpt lat="41.836388" lon="0.558174">
        <ele>322.014</ele>
        <time>2020-08-23T07:31:53Z</time>
      </trkpt>
      <trkpt lat="41.836427" lon="0.558128">
        <ele>322.408</ele>
        <time>2020-08-23T07:31:55Z</time>
      </trkpt>
      <trkpt lat="41.836471" lon="0.558069">
        <ele>322.727</ele>
        <time>2020-08-23T07:31:57Z</time>
      </trkpt>
      <trkpt lat="41.836506" lon="0.558004">
        <ele>323.017</ele>
        <time>2020-08-23T07:31:59Z</time>
      </trkpt>
      <trkpt lat="41.836532" lon="0.557941">
        <ele>323.265</ele>
        <time>2020-08-23T07:32:01Z</time>
      </trkpt>
      <trkpt lat="41.836559" lon="0.557872">
        <ele>323.467</ele>
        <time>2020-08-23T07:32:03Z</time>
      </trkpt>
      <trkpt lat="41.836593" lon="0.557803">
        <ele>323.668</ele>
        <time>2020-08-23T07:32:05Z</time>
      </trkpt>
      <trkpt lat="41.836614" lon="0.557738">
        <ele>323.819</ele>
        <time>2020-08-23T07:32:07Z</time>
      </trkpt>
      <trkpt lat="41.836621" lon="0.557654">
        <ele>324.095</ele>
        <time>2020-08-23T07:32:09Z</time>
      </trkpt>
      <trkpt lat="41.836626" lon="0.557575">
        <ele>324.394</ele>
        <time>2020-08-23T07:32:11Z</time>
      </trkpt>
      <trkpt lat="41.836626" lon="0.557501">
        <ele>324.576</ele>
        <time>2020-08-23T07:32:13Z</time>
      </trkpt>
      <trkpt lat="41.836623" lon="0.557428">
        <ele>324.790</ele>
        <time>2020-08-23T07:32:15Z</time>
      </trkpt>
      <trkpt lat="41.836621" lon="0.557366">
        <ele>324.919</ele>
        <time>2020-08-23T07:32:17Z</time>
      </trkpt>
      <trkpt lat="41.836617" lon="0.557297">
        <ele>325.108</ele>
        <time>2020-08-23T07:32:19Z</time>
      </trkpt>
      <trkpt lat="41.836608" lon="0.557223">
        <ele>325.332</ele>
        <time>2020-08-23T07:32:21Z</time>
      </trkpt>
      <trkpt lat="41.836611" lon="0.557139">
        <ele>325.522</ele>
        <time>2020-08-23T07:32:23Z</time>
      </trkpt>
      <trkpt lat="41.836613" lon="0.557062">
        <ele>325.660</ele>
        <time>2020-08-23T07:32:25Z</time>
      </trkpt>
      <trkpt lat="41.836614" lon="0.556997">
        <ele>325.712</ele>
        <time>2020-08-23T07:32:27Z</time>
      </trkpt>
      <trkpt lat="41.836601" lon="0.556927">
        <ele>325.853</ele>
        <time>2020-08-23T07:32:29Z</time>
      </trkpt>
      <trkpt lat="41.836604" lon="0.556841">
        <ele>325.984</ele>
        <time>2020-08-23T07:32:31Z</time>
      </trkpt>
      <trkpt lat="41.836600" lon="0.556743">
        <ele>326.160</ele>
        <time>2020-08-23T07:32:33Z</time>
      </trkpt>
      <trkpt lat="41.836602" lon="0.556654">
        <ele>326.489</ele>
        <time>2020-08-23T07:32:35Z</time>
      </trkpt>
      <trkpt lat="41.836594" lon="0.556554">
        <ele>326.667</ele>
        <time>2020-08-23T07:32:37Z</time>
      </trkpt>
      <trkpt lat="41.836584" lon="0.556461">
        <ele>326.881</ele>
        <time>2020-08-23T07:32:39Z</time>
      </trkpt>
      <trkpt lat="41.836585" lon="0.556392">
        <ele>327.019</ele>
        <time>2020-08-23T07:32:41Z</time>
      </trkpt>
      <trkpt lat="41.836587" lon="0.556318">
        <ele>327.208</ele>
        <time>2020-08-23T07:32:43Z</time>
      </trkpt>
      <trkpt lat="41.836585" lon="0.556253">
        <ele>327.421</ele>
        <time>2020-08-23T07:32:45Z</time>
      </trkpt>
      <trkpt lat="41.836592" lon="0.556170">
        <ele>327.781</ele>
        <time>2020-08-23T07:32:48Z</time>
      </trkpt>
      <trkpt lat="41.836598" lon="0.556108">
        <ele>328.039</ele>
        <time>2020-08-23T07:32:50Z</time>
      </trkpt>
      <trkpt lat="41.836595" lon="0.556032">
        <ele>328.331</ele>
        <time>2020-08-23T07:32:52Z</time>
      </trkpt>
      <trkpt lat="41.836600" lon="0.555962">
        <ele>328.592</ele>
        <time>2020-08-23T07:32:54Z</time>
      </trkpt>
      <trkpt lat="41.836606" lon="0.555899">
        <ele>328.733</ele>
        <time>2020-08-23T07:32:56Z</time>
      </trkpt>
      <trkpt lat="41.836607" lon="0.555820">
        <ele>328.999</ele>
        <time>2020-08-23T07:32:58Z</time>
      </trkpt>
      <trkpt lat="41.836617" lon="0.555760">
        <ele>329.148</ele>
        <time>2020-08-23T07:33:00Z</time>
      </trkpt>
      <trkpt lat="41.836619" lon="0.555675">
        <ele>329.535</ele>
        <time>2020-08-23T07:33:03Z</time>
      </trkpt>
      <trkpt lat="41.836617" lon="0.555602">
        <ele>329.786</ele>
        <time>2020-08-23T07:33:05Z</time>
      </trkpt>
      <trkpt lat="41.836614" lon="0.555529">
        <ele>330.014</ele>
        <time>2020-08-23T07:33:07Z</time>
      </trkpt>
      <trkpt lat="41.836621" lon="0.555454">
        <ele>330.308</ele>
        <time>2020-08-23T07:33:09Z</time>
      </trkpt>
      <trkpt lat="41.836624" lon="0.555383">
        <ele>330.698</ele>
        <time>2020-08-23T07:33:11Z</time>
      </trkpt>
      <trkpt lat="41.836621" lon="0.555307">
        <ele>330.868</ele>
        <time>2020-08-23T07:33:13Z</time>
      </trkpt>
      <trkpt lat="41.836628" lon="0.555220">
        <ele>331.086</ele>
        <time>2020-08-23T07:33:15Z</time>
      </trkpt>
      <trkpt lat="41.836632" lon="0.555151">
        <ele>331.258</ele>
        <time>2020-08-23T07:33:17Z</time>
      </trkpt>
      <trkpt lat="41.836633" lon="0.555077">
        <ele>331.589</ele>
        <time>2020-08-23T07:33:19Z</time>
      </trkpt>
      <trkpt lat="41.836610" lon="0.554998">
        <ele>331.770</ele>
        <time>2020-08-23T07:33:21Z</time>
      </trkpt>
      <trkpt lat="41.836599" lon="0.554927">
        <ele>331.886</ele>
        <time>2020-08-23T07:33:23Z</time>
      </trkpt>
      <trkpt lat="41.836586" lon="0.554836">
        <ele>331.965</ele>
        <time>2020-08-23T07:33:25Z</time>
      </trkpt>
      <trkpt lat="41.836594" lon="0.554757">
        <ele>332.051</ele>
        <time>2020-08-23T07:33:27Z</time>
      </trkpt>
      <trkpt lat="41.836605" lon="0.554668">
        <ele>332.201</ele>
        <time>2020-08-23T07:33:30Z</time>
      </trkpt>
      <trkpt lat="41.836613" lon="0.554601">
        <ele>332.311</ele>
        <time>2020-08-23T07:33:32Z</time>
      </trkpt>
      <trkpt lat="41.836614" lon="0.554520">
        <ele>332.408</ele>
        <time>2020-08-23T07:33:34Z</time>
      </trkpt>
      <trkpt lat="41.836609" lon="0.554445">
        <ele>332.720</ele>
        <time>2020-08-23T07:33:36Z</time>
      </trkpt>
      <trkpt lat="41.836611" lon="0.554354">
        <ele>332.920</ele>
        <time>2020-08-23T07:33:38Z</time>
      </trkpt>
      <trkpt lat="41.836612" lon="0.554256">
        <ele>333.158</ele>
        <time>2020-08-23T07:33:40Z</time>
      </trkpt>
      <trkpt lat="41.836618" lon="0.554166">
        <ele>333.390</ele>
        <time>2020-08-23T07:33:42Z</time>
      </trkpt>
      <trkpt lat="41.836623" lon="0.554073">
        <ele>333.441</ele>
        <time>2020-08-23T07:33:44Z</time>
      </trkpt>
      <trkpt lat="41.836625" lon="0.553978">
        <ele>333.552</ele>
        <time>2020-08-23T07:33:46Z</time>
      </trkpt>
      <trkpt lat="41.836625" lon="0.553893">
        <ele>333.618</ele>
        <time>2020-08-23T07:33:48Z</time>
      </trkpt>
      <trkpt lat="41.836620" lon="0.553814">
        <ele>333.867</ele>
        <time>2020-08-23T07:33:50Z</time>
      </trkpt>
      <trkpt lat="41.836619" lon="0.553741">
        <ele>334.057</ele>
        <time>2020-08-23T07:33:52Z</time>
      </trkpt>
      <trkpt lat="41.836616" lon="0.553650">
        <ele>334.100</ele>
        <time>2020-08-23T07:33:54Z</time>
      </trkpt>
      <trkpt lat="41.836616" lon="0.553548">
        <ele>334.220</ele>
        <time>2020-08-23T07:33:56Z</time>
      </trkpt>
      <trkpt lat="41.836609" lon="0.553447">
        <ele>334.308</ele>
        <time>2020-08-23T07:33:58Z</time>
      </trkpt>
      <trkpt lat="41.836601" lon="0.553350">
        <ele>334.440</ele>
        <time>2020-08-23T07:34:00Z</time>
      </trkpt>
      <trkpt lat="41.836591" lon="0.553258">
        <ele>334.560</ele>
        <time>2020-08-23T07:34:02Z</time>
      </trkpt>
      <trkpt lat="41.836576" lon="0.553164">
        <ele>334.618</ele>
        <time>2020-08-23T07:34:04Z</time>
      </trkpt>
      <trkpt lat="41.836567" lon="0.553061">
        <ele>334.620</ele>
        <time>2020-08-23T07:34:06Z</time>
      </trkpt>
      <trkpt lat="41.836572" lon="0.552954">
        <ele>334.711</ele>
        <time>2020-08-23T07:34:08Z</time>
      </trkpt>
      <trkpt lat="41.836576" lon="0.552853">
        <ele>334.842</ele>
        <time>2020-08-23T07:34:10Z</time>
      </trkpt>
      <trkpt lat="41.836584" lon="0.552753">
        <ele>334.858</ele>
        <time>2020-08-23T07:34:12Z</time>
      </trkpt>
      <trkpt lat="41.836587" lon="0.552675">
        <ele>334.767</ele>
        <time>2020-08-23T07:34:14Z</time>
      </trkpt>
      <trkpt lat="41.836599" lon="0.552612">
        <ele>334.543</ele>
        <time>2020-08-23T07:34:17Z</time>
      </trkpt>
      <trkpt lat="41.836655" lon="0.552689">
        <ele>334.764</ele>
        <time>2020-08-23T07:36:20Z</time>
      </trkpt>
      <trkpt lat="41.836640" lon="0.552606">
        <ele>334.610</ele>
        <time>2020-08-23T07:36:31Z</time>
      </trkpt>
      <trkpt lat="41.836642" lon="0.552543">
        <ele>334.608</ele>
        <time>2020-08-23T07:36:33Z</time>
      </trkpt>
      <trkpt lat="41.836654" lon="0.552469">
        <ele>334.679</ele>
        <time>2020-08-23T07:36:35Z</time>
      </trkpt>
      <trkpt lat="41.836654" lon="0.552381">
        <ele>334.619</ele>
        <time>2020-08-23T07:36:37Z</time>
      </trkpt>
      <trkpt lat="41.836691" lon="0.552282">
        <ele>334.527</ele>
        <time>2020-08-23T07:36:39Z</time>
      </trkpt>
      <trkpt lat="41.836725" lon="0.552171">
        <ele>334.339</ele>
        <time>2020-08-23T07:36:41Z</time>
      </trkpt>
      <trkpt lat="41.836743" lon="0.552111">
        <ele>334.260</ele>
        <time>2020-08-23T07:36:42Z</time>
      </trkpt>
      <trkpt lat="41.836767" lon="0.552048">
        <ele>334.191</ele>
        <time>2020-08-23T07:36:43Z</time>
      </trkpt>
      <trkpt lat="41.836795" lon="0.551986">
        <ele>334.027</ele>
        <time>2020-08-23T07:36:44Z</time>
      </trkpt>
      <trkpt lat="41.836819" lon="0.551925">
        <ele>333.926</ele>
        <time>2020-08-23T07:36:45Z</time>
      </trkpt>
      <trkpt lat="41.836841" lon="0.551862">
        <ele>333.869</ele>
        <time>2020-08-23T07:36:46Z</time>
      </trkpt>
      <trkpt lat="41.836853" lon="0.551799">
        <ele>333.604</ele>
        <time>2020-08-23T07:36:47Z</time>
      </trkpt>
      <trkpt lat="41.836872" lon="0.551728">
        <ele>333.524</ele>
        <time>2020-08-23T07:36:48Z</time>
      </trkpt>
      <trkpt lat="41.836892" lon="0.551656">
        <ele>333.408</ele>
        <time>2020-08-23T07:36:49Z</time>
      </trkpt>
      <trkpt lat="41.836909" lon="0.551572">
        <ele>333.391</ele>
        <time>2020-08-23T07:36:50Z</time>
      </trkpt>
      <trkpt lat="41.836916" lon="0.551490">
        <ele>333.271</ele>
        <time>2020-08-23T07:36:51Z</time>
      </trkpt>
      <trkpt lat="41.836928" lon="0.551411">
        <ele>333.169</ele>
        <time>2020-08-23T07:36:52Z</time>
      </trkpt>
      <trkpt lat="41.836943" lon="0.551332">
        <ele>333.021</ele>
        <time>2020-08-23T07:36:53Z</time>
      </trkpt>
      <trkpt lat="41.836958" lon="0.551246">
        <ele>332.922</ele>
        <time>2020-08-23T07:36:54Z</time>
      </trkpt>
      <trkpt lat="41.836968" lon="0.551166">
        <ele>332.713</ele>
        <time>2020-08-23T07:36:55Z</time>
      </trkpt>
      <trkpt lat="41.836977" lon="0.551089">
        <ele>332.629</ele>
        <time>2020-08-23T07:36:56Z</time>
      </trkpt>
      <trkpt lat="41.836990" lon="0.551009">
        <ele>332.458</ele>
        <time>2020-08-23T07:36:57Z</time>
      </trkpt>
      <trkpt lat="41.836999" lon="0.550920">
        <ele>332.281</ele>
        <time>2020-08-23T07:36:58Z</time>
      </trkpt>
      <trkpt lat="41.837015" lon="0.550840">
        <ele>332.161</ele>
        <time>2020-08-23T07:36:59Z</time>
      </trkpt>
      <trkpt lat="41.837027" lon="0.550759">
        <ele>332.017</ele>
        <time>2020-08-23T07:37:00Z</time>
      </trkpt>
      <trkpt lat="41.837039" lon="0.550675">
        <ele>331.908</ele>
        <time>2020-08-23T07:37:01Z</time>
      </trkpt>
      <trkpt lat="41.837051" lon="0.550601">
        <ele>331.883</ele>
        <time>2020-08-23T07:37:02Z</time>
      </trkpt>
      <trkpt lat="41.837063" lon="0.550536">
        <ele>331.783</ele>
        <time>2020-08-23T07:37:03Z</time>
      </trkpt>
      <trkpt lat="41.837079" lon="0.550471">
        <ele>331.541</ele>
        <time>2020-08-23T07:37:04Z</time>
      </trkpt>
      <trkpt lat="41.837096" lon="0.550406">
        <ele>331.423</ele>
        <time>2020-08-23T07:37:05Z</time>
      </trkpt>
      <trkpt lat="41.837128" lon="0.550307">
        <ele>331.244</ele>
        <time>2020-08-23T07:37:07Z</time>
      </trkpt>
      <trkpt lat="41.837118" lon="0.550191">
        <ele>331.015</ele>
        <time>2020-08-23T07:37:09Z</time>
      </trkpt>
      <trkpt lat="41.837092" lon="0.550138">
        <ele>330.971</ele>
        <time>2020-08-23T07:37:10Z</time>
      </trkpt>
      <trkpt lat="41.837055" lon="0.550097">
        <ele>330.880</ele>
        <time>2020-08-23T07:37:11Z</time>
      </trkpt>
      <trkpt lat="41.837012" lon="0.550066">
        <ele>330.712</ele>
        <time>2020-08-23T07:37:12Z</time>
      </trkpt>
      <trkpt lat="41.836935" lon="0.550031">
        <ele>330.632</ele>
        <time>2020-08-23T07:37:14Z</time>
      </trkpt>
      <trkpt lat="41.836878" lon="0.550014">
        <ele>330.505</ele>
        <time>2020-08-23T07:37:16Z</time>
      </trkpt>
      <trkpt lat="41.836848" lon="0.549964">
        <ele>330.208</ele>
        <time>2020-08-23T07:37:19Z</time>
      </trkpt>
      <trkpt lat="41.836861" lon="0.549893">
        <ele>329.326</ele>
        <time>2020-08-23T07:37:22Z</time>
      </trkpt>
      <trkpt lat="41.836847" lon="0.549822">
        <ele>328.586</ele>
        <time>2020-08-23T07:37:36Z</time>
      </trkpt>
      <trkpt lat="41.836843" lon="0.549725">
        <ele>328.484</ele>
        <time>2020-08-23T07:37:39Z</time>
      </trkpt>
      <trkpt lat="41.836847" lon="0.549645">
        <ele>328.226</ele>
        <time>2020-08-23T07:37:41Z</time>
      </trkpt>
      <trkpt lat="41.836843" lon="0.549527">
        <ele>328.057</ele>
        <time>2020-08-23T07:37:43Z</time>
      </trkpt>
      <trkpt lat="41.836834" lon="0.549466">
        <ele>327.868</ele>
        <time>2020-08-23T07:37:44Z</time>
      </trkpt>
      <trkpt lat="41.836830" lon="0.549405">
        <ele>327.624</ele>
        <time>2020-08-23T07:37:45Z</time>
      </trkpt>
      <trkpt lat="41.836835" lon="0.549344">
        <ele>327.433</ele>
        <time>2020-08-23T07:37:46Z</time>
      </trkpt>
      <trkpt lat="41.836841" lon="0.549280">
        <ele>327.373</ele>
        <time>2020-08-23T07:37:47Z</time>
      </trkpt>
      <trkpt lat="41.836843" lon="0.549211">
        <ele>327.285</ele>
        <time>2020-08-23T07:37:48Z</time>
      </trkpt>
      <trkpt lat="41.836844" lon="0.549138">
        <ele>327.113</ele>
        <time>2020-08-23T07:37:49Z</time>
      </trkpt>
      <trkpt lat="41.836841" lon="0.549067">
        <ele>327.008</ele>
        <time>2020-08-23T07:37:50Z</time>
      </trkpt>
      <trkpt lat="41.836844" lon="0.548992">
        <ele>326.932</ele>
        <time>2020-08-23T07:37:51Z</time>
      </trkpt>
      <trkpt lat="41.836850" lon="0.548922">
        <ele>326.832</ele>
        <time>2020-08-23T07:37:52Z</time>
      </trkpt>
      <trkpt lat="41.836861" lon="0.548850">
        <ele>326.790</ele>
        <time>2020-08-23T07:37:53Z</time>
      </trkpt>
      <trkpt lat="41.836865" lon="0.548773">
        <ele>326.622</ele>
        <time>2020-08-23T07:37:54Z</time>
      </trkpt>
      <trkpt lat="41.836861" lon="0.548692">
        <ele>326.433</ele>
        <time>2020-08-23T07:37:55Z</time>
      </trkpt>
      <trkpt lat="41.836859" lon="0.548612">
        <ele>326.374</ele>
        <time>2020-08-23T07:37:56Z</time>
      </trkpt>
      <trkpt lat="41.836854" lon="0.548542">
        <ele>326.250</ele>
        <time>2020-08-23T07:37:57Z</time>
      </trkpt>
      <trkpt lat="41.836855" lon="0.548475">
        <ele>326.169</ele>
        <time>2020-08-23T07:37:58Z</time>
      </trkpt>
      <trkpt lat="41.836858" lon="0.548413">
        <ele>326.124</ele>
        <time>2020-08-23T07:37:59Z</time>
      </trkpt>
      <trkpt lat="41.836863" lon="0.548349">
        <ele>326.004</ele>
        <time>2020-08-23T07:38:00Z</time>
      </trkpt>
      <trkpt lat="41.836871" lon="0.548243">
        <ele>325.814</ele>
        <time>2020-08-23T07:38:02Z</time>
      </trkpt>
      <trkpt lat="41.836886" lon="0.548177">
        <ele>325.608</ele>
        <time>2020-08-23T07:38:04Z</time>
      </trkpt>
      <trkpt lat="41.836888" lon="0.548114">
        <ele>325.467</ele>
        <time>2020-08-23T07:38:06Z</time>
      </trkpt>
      <trkpt lat="41.836888" lon="0.548029">
        <ele>325.297</ele>
        <time>2020-08-23T07:38:09Z</time>
      </trkpt>
      <trkpt lat="41.836913" lon="0.547968">
        <ele>325.285</ele>
        <time>2020-08-23T07:38:11Z</time>
      </trkpt>
      <trkpt lat="41.836944" lon="0.547914">
        <ele>325.267</ele>
        <time>2020-08-23T07:38:13Z</time>
      </trkpt>
      <trkpt lat="41.836976" lon="0.547839">
        <ele>325.258</ele>
        <time>2020-08-23T07:38:15Z</time>
      </trkpt>
      <trkpt lat="41.837004" lon="0.547732">
        <ele>325.319</ele>
        <time>2020-08-23T07:38:17Z</time>
      </trkpt>
      <trkpt lat="41.837043" lon="0.547629">
        <ele>325.345</ele>
        <time>2020-08-23T07:38:19Z</time>
      </trkpt>
      <trkpt lat="41.837058" lon="0.547519">
        <ele>325.374</ele>
        <time>2020-08-23T07:38:21Z</time>
      </trkpt>
      <trkpt lat="41.837073" lon="0.547409">
        <ele>325.378</ele>
        <time>2020-08-23T07:38:23Z</time>
      </trkpt>
      <trkpt lat="41.837085" lon="0.547307">
        <ele>325.333</ele>
        <time>2020-08-23T07:38:25Z</time>
      </trkpt>
      <trkpt lat="41.837100" lon="0.547210">
        <ele>325.226</ele>
        <time>2020-08-23T07:38:27Z</time>
      </trkpt>
      <trkpt lat="41.837119" lon="0.547106">
        <ele>325.108</ele>
        <time>2020-08-23T07:38:29Z</time>
      </trkpt>
      <trkpt lat="41.837126" lon="0.546988">
        <ele>325.182</ele>
        <time>2020-08-23T07:38:31Z</time>
      </trkpt>
      <trkpt lat="41.837124" lon="0.546891">
        <ele>325.062</ele>
        <time>2020-08-23T07:38:33Z</time>
      </trkpt>
      <trkpt lat="41.837090" lon="0.546807">
        <ele>324.940</ele>
        <time>2020-08-23T07:38:35Z</time>
      </trkpt>
      <trkpt lat="41.837037" lon="0.546720">
        <ele>324.722</ele>
        <time>2020-08-23T07:38:37Z</time>
      </trkpt>
      <trkpt lat="41.836974" lon="0.546658">
        <ele>324.443</ele>
        <time>2020-08-23T07:38:39Z</time>
      </trkpt>
      <trkpt lat="41.836919" lon="0.546592">
        <ele>324.054</ele>
        <time>2020-08-23T07:38:41Z</time>
      </trkpt>
      <trkpt lat="41.836875" lon="0.546519">
        <ele>323.780</ele>
        <time>2020-08-23T07:38:43Z</time>
      </trkpt>
      <trkpt lat="41.836832" lon="0.546426">
        <ele>323.449</ele>
        <time>2020-08-23T07:38:45Z</time>
      </trkpt>
      <trkpt lat="41.836801" lon="0.546379">
        <ele>323.362</ele>
        <time>2020-08-23T07:38:46Z</time>
      </trkpt>
      <trkpt lat="41.836776" lon="0.546321">
        <ele>323.183</ele>
        <time>2020-08-23T07:38:47Z</time>
      </trkpt>
      <trkpt lat="41.836746" lon="0.546253">
        <ele>323.011</ele>
        <time>2020-08-23T07:38:48Z</time>
      </trkpt>
      <trkpt lat="41.836719" lon="0.546186">
        <ele>322.908</ele>
        <time>2020-08-23T07:38:49Z</time>
      </trkpt>
      <trkpt lat="41.836699" lon="0.546128">
        <ele>322.781</ele>
        <time>2020-08-23T07:38:50Z</time>
      </trkpt>
      <trkpt lat="41.836676" lon="0.546050">
        <ele>322.471</ele>
        <time>2020-08-23T07:38:51Z</time>
      </trkpt>
      <trkpt lat="41.836652" lon="0.545975">
        <ele>322.259</ele>
        <time>2020-08-23T07:38:52Z</time>
      </trkpt>
      <trkpt lat="41.836631" lon="0.545911">
        <ele>322.031</ele>
        <time>2020-08-23T07:38:53Z</time>
      </trkpt>
      <trkpt lat="41.836602" lon="0.545798">
        <ele>321.792</ele>
        <time>2020-08-23T07:38:55Z</time>
      </trkpt>
      <trkpt lat="41.836580" lon="0.545738">
        <ele>321.633</ele>
        <time>2020-08-23T07:38:56Z</time>
      </trkpt>
      <trkpt lat="41.836557" lon="0.545677">
        <ele>321.519</ele>
        <time>2020-08-23T07:38:57Z</time>
      </trkpt>
      <trkpt lat="41.836528" lon="0.545567">
        <ele>321.318</ele>
        <time>2020-08-23T07:38:59Z</time>
      </trkpt>
      <trkpt lat="41.836505" lon="0.545507">
        <ele>321.294</ele>
        <time>2020-08-23T07:39:00Z</time>
      </trkpt>
      <trkpt lat="41.836488" lon="0.545447">
        <ele>321.157</ele>
        <time>2020-08-23T07:39:01Z</time>
      </trkpt>
      <trkpt lat="41.836469" lon="0.545388">
        <ele>320.922</ele>
        <time>2020-08-23T07:39:02Z</time>
      </trkpt>
      <trkpt lat="41.836447" lon="0.545327">
        <ele>320.808</ele>
        <time>2020-08-23T07:39:03Z</time>
      </trkpt>
      <trkpt lat="41.836429" lon="0.545259">
        <ele>320.664</ele>
        <time>2020-08-23T07:39:04Z</time>
      </trkpt>
      <trkpt lat="41.836412" lon="0.545189">
        <ele>320.584</ele>
        <time>2020-08-23T07:39:05Z</time>
      </trkpt>
      <trkpt lat="41.836400" lon="0.545120">
        <ele>320.412</ele>
        <time>2020-08-23T07:39:06Z</time>
      </trkpt>
      <trkpt lat="41.836389" lon="0.545054">
        <ele>320.314</ele>
        <time>2020-08-23T07:39:07Z</time>
      </trkpt>
      <trkpt lat="41.836379" lon="0.544987">
        <ele>320.285</ele>
        <time>2020-08-23T07:39:08Z</time>
      </trkpt>
      <trkpt lat="41.836372" lon="0.544919">
        <ele>320.066</ele>
        <time>2020-08-23T07:39:09Z</time>
      </trkpt>
      <trkpt lat="41.836360" lon="0.544856">
        <ele>319.942</ele>
        <time>2020-08-23T07:39:10Z</time>
      </trkpt>
      <trkpt lat="41.836345" lon="0.544793">
        <ele>319.891</ele>
        <time>2020-08-23T07:39:11Z</time>
      </trkpt>
      <trkpt lat="41.836331" lon="0.544731">
        <ele>319.778</ele>
        <time>2020-08-23T07:39:12Z</time>
      </trkpt>
      <trkpt lat="41.836305" lon="0.544623">
        <ele>319.433</ele>
        <time>2020-08-23T07:39:14Z</time>
      </trkpt>
      <trkpt lat="41.836281" lon="0.544508">
        <ele>319.126</ele>
        <time>2020-08-23T07:39:16Z</time>
      </trkpt>
      <trkpt lat="41.836262" lon="0.544452">
        <ele>318.908</ele>
        <time>2020-08-23T07:39:17Z</time>
      </trkpt>
      <trkpt lat="41.836240" lon="0.544387">
        <ele>318.762</ele>
        <time>2020-08-23T07:39:18Z</time>
      </trkpt>
      <trkpt lat="41.836221" lon="0.544317">
        <ele>318.582</ele>
        <time>2020-08-23T07:39:19Z</time>
      </trkpt>
      <trkpt lat="41.836203" lon="0.544254">
        <ele>318.330</ele>
        <time>2020-08-23T07:39:20Z</time>
      </trkpt>
      <trkpt lat="41.836193" lon="0.544161">
        <ele>318.042</ele>
        <time>2020-08-23T07:39:22Z</time>
      </trkpt>
      <trkpt lat="41.836205" lon="0.544098">
        <ele>317.613</ele>
        <time>2020-08-23T07:39:25Z</time>
      </trkpt>
      <trkpt lat="41.836253" lon="0.544091">
        <ele>317.484</ele>
        <time>2020-08-23T07:39:27Z</time>
      </trkpt>
      <trkpt lat="41.836307" lon="0.544066">
        <ele>317.460</ele>
        <time>2020-08-23T07:39:29Z</time>
      </trkpt>
      <trkpt lat="41.836352" lon="0.544053">
        <ele>317.549</ele>
        <time>2020-08-23T07:39:31Z</time>
      </trkpt>
      <trkpt lat="41.836409" lon="0.544041">
        <ele>317.756</ele>
        <time>2020-08-23T07:39:33Z</time>
      </trkpt>
      <trkpt lat="41.836471" lon="0.544005">
        <ele>317.959</ele>
        <time>2020-08-23T07:39:35Z</time>
      </trkpt>
      <trkpt lat="41.836534" lon="0.544003">
        <ele>318.114</ele>
        <time>2020-08-23T07:39:37Z</time>
      </trkpt>
      <trkpt lat="41.836587" lon="0.543982">
        <ele>318.308</ele>
        <time>2020-08-23T07:39:39Z</time>
      </trkpt>
      <trkpt lat="41.836631" lon="0.543946">
        <ele>318.550</ele>
        <time>2020-08-23T07:39:41Z</time>
      </trkpt>
      <trkpt lat="41.836680" lon="0.543928">
        <ele>318.890</ele>
        <time>2020-08-23T07:39:43Z</time>
      </trkpt>
      <trkpt lat="41.836741" lon="0.543900">
        <ele>319.288</ele>
        <time>2020-08-23T07:39:45Z</time>
      </trkpt>
      <trkpt lat="41.836797" lon="0.543869">
        <ele>319.550</ele>
        <time>2020-08-23T07:39:47Z</time>
      </trkpt>
      <trkpt lat="41.836862" lon="0.543829">
        <ele>319.721</ele>
        <time>2020-08-23T07:39:49Z</time>
      </trkpt>
      <trkpt lat="41.836921" lon="0.543778">
        <ele>319.912</ele>
        <time>2020-08-23T07:39:51Z</time>
      </trkpt>
      <trkpt lat="41.836984" lon="0.543714">
        <ele>320.118</ele>
        <time>2020-08-23T07:39:53Z</time>
      </trkpt>
      <trkpt lat="41.837045" lon="0.543669">
        <ele>320.337</ele>
        <time>2020-08-23T07:39:55Z</time>
      </trkpt>
      <trkpt lat="41.837093" lon="0.543626">
        <ele>320.572</ele>
        <time>2020-08-23T07:39:57Z</time>
      </trkpt>
      <trkpt lat="41.837144" lon="0.543574">
        <ele>320.713</ele>
        <time>2020-08-23T07:39:59Z</time>
      </trkpt>
      <trkpt lat="41.837188" lon="0.543519">
        <ele>321.014</ele>
        <time>2020-08-23T07:40:01Z</time>
      </trkpt>
      <trkpt lat="41.837214" lon="0.543440">
        <ele>321.408</ele>
        <time>2020-08-23T07:40:03Z</time>
      </trkpt>
      <trkpt lat="41.837237" lon="0.543361">
        <ele>321.682</ele>
        <time>2020-08-23T07:40:05Z</time>
      </trkpt>
      <trkpt lat="41.837257" lon="0.543294">
        <ele>321.942</ele>
        <time>2020-08-23T07:40:07Z</time>
      </trkpt>
      <trkpt lat="41.837273" lon="0.543217">
        <ele>322.220</ele>
        <time>2020-08-23T07:40:09Z</time>
      </trkpt>
      <trkpt lat="41.837297" lon="0.543153">
        <ele>322.552</ele>
        <time>2020-08-23T07:40:11Z</time>
      </trkpt>
      <trkpt lat="41.837343" lon="0.543104">
        <ele>322.723</ele>
        <time>2020-08-23T07:40:13Z</time>
      </trkpt>
      <trkpt lat="41.837384" lon="0.543056">
        <ele>322.964</ele>
        <time>2020-08-23T07:40:15Z</time>
      </trkpt>
      <trkpt lat="41.837429" lon="0.543018">
        <ele>323.180</ele>
        <time>2020-08-23T07:40:17Z</time>
      </trkpt>
      <trkpt lat="41.837489" lon="0.543016">
        <ele>323.389</ele>
        <time>2020-08-23T07:40:19Z</time>
      </trkpt>
      <trkpt lat="41.837549" lon="0.543006">
        <ele>323.616</ele>
        <time>2020-08-23T07:40:21Z</time>
      </trkpt>
      <trkpt lat="41.837609" lon="0.542977">
        <ele>323.776</ele>
        <time>2020-08-23T07:40:23Z</time>
      </trkpt>
      <trkpt lat="41.837655" lon="0.542953">
        <ele>323.813</ele>
        <time>2020-08-23T07:40:25Z</time>
      </trkpt>
      <trkpt lat="41.837702" lon="0.542922">
        <ele>324.008</ele>
        <time>2020-08-23T07:40:27Z</time>
      </trkpt>
      <trkpt lat="41.837747" lon="0.542885">
        <ele>324.236</ele>
        <time>2020-08-23T07:40:29Z</time>
      </trkpt>
      <trkpt lat="41.837793" lon="0.542848">
        <ele>324.476</ele>
        <time>2020-08-23T07:40:31Z</time>
      </trkpt>
      <trkpt lat="41.837849" lon="0.542810">
        <ele>324.594</ele>
        <time>2020-08-23T07:40:33Z</time>
      </trkpt>
      <trkpt lat="41.837896" lon="0.542779">
        <ele>324.646</ele>
        <time>2020-08-23T07:40:35Z</time>
      </trkpt>
      <trkpt lat="41.837943" lon="0.542737">
        <ele>324.877</ele>
        <time>2020-08-23T07:40:37Z</time>
      </trkpt>
      <trkpt lat="41.837994" lon="0.542701">
        <ele>325.158</ele>
        <time>2020-08-23T07:40:39Z</time>
      </trkpt>
      <trkpt lat="41.838054" lon="0.542684">
        <ele>325.364</ele>
        <time>2020-08-23T07:40:41Z</time>
      </trkpt>
      <trkpt lat="41.838102" lon="0.542661">
        <ele>325.453</ele>
        <time>2020-08-23T07:40:43Z</time>
      </trkpt>
      <trkpt lat="41.838148" lon="0.542622">
        <ele>325.562</ele>
        <time>2020-08-23T07:40:45Z</time>
      </trkpt>
      <trkpt lat="41.838201" lon="0.542596">
        <ele>325.683</ele>
        <time>2020-08-23T07:40:47Z</time>
      </trkpt>
      <trkpt lat="41.838259" lon="0.542570">
        <ele>325.711</ele>
        <time>2020-08-23T07:40:49Z</time>
      </trkpt>
      <trkpt lat="41.838319" lon="0.542544">
        <ele>325.808</ele>
        <time>2020-08-23T07:40:51Z</time>
      </trkpt>
      <trkpt lat="41.838369" lon="0.542506">
        <ele>325.931</ele>
        <time>2020-08-23T07:40:53Z</time>
      </trkpt>
      <trkpt lat="41.838415" lon="0.542464">
        <ele>326.181</ele>
        <time>2020-08-23T07:40:55Z</time>
      </trkpt>
      <trkpt lat="41.838458" lon="0.542434">
        <ele>326.699</ele>
        <time>2020-08-23T07:40:57Z</time>
      </trkpt>
      <trkpt lat="41.838496" lon="0.542396">
        <ele>327.071</ele>
        <time>2020-08-23T07:41:06Z</time>
      </trkpt>
      <trkpt lat="41.838528" lon="0.542328">
        <ele>327.292</ele>
        <time>2020-08-23T07:41:24Z</time>
      </trkpt>
      <trkpt lat="41.838543" lon="0.542255">
        <ele>327.253</ele>
        <time>2020-08-23T07:41:26Z</time>
      </trkpt>
      <trkpt lat="41.838569" lon="0.542158">
        <ele>327.249</ele>
        <time>2020-08-23T07:41:28Z</time>
      </trkpt>
      <trkpt lat="41.838599" lon="0.542059">
        <ele>327.378</ele>
        <time>2020-08-23T07:41:30Z</time>
      </trkpt>
      <trkpt lat="41.838626" lon="0.541953">
        <ele>327.341</ele>
        <time>2020-08-23T07:41:32Z</time>
      </trkpt>
      <trkpt lat="41.838656" lon="0.541854">
        <ele>327.381</ele>
        <time>2020-08-23T07:41:34Z</time>
      </trkpt>
      <trkpt lat="41.838679" lon="0.541750">
        <ele>327.309</ele>
        <time>2020-08-23T07:41:36Z</time>
      </trkpt>
      <trkpt lat="41.838703" lon="0.541648">
        <ele>327.308</ele>
        <time>2020-08-23T07:41:38Z</time>
      </trkpt>
      <trkpt lat="41.838730" lon="0.541557">
        <ele>327.329</ele>
        <time>2020-08-23T07:41:40Z</time>
      </trkpt>
      <trkpt lat="41.838753" lon="0.541461">
        <ele>327.459</ele>
        <time>2020-08-23T07:41:42Z</time>
      </trkpt>
      <trkpt lat="41.838777" lon="0.541352">
        <ele>327.537</ele>
        <time>2020-08-23T07:41:44Z</time>
      </trkpt>
      <trkpt lat="41.838811" lon="0.541252">
        <ele>327.629</ele>
        <time>2020-08-23T07:41:46Z</time>
      </trkpt>
      <trkpt lat="41.838843" lon="0.541153">
        <ele>327.720</ele>
        <time>2020-08-23T07:41:48Z</time>
      </trkpt>
      <trkpt lat="41.838883" lon="0.541063">
        <ele>327.831</ele>
        <time>2020-08-23T07:41:50Z</time>
      </trkpt>
      <trkpt lat="41.838928" lon="0.540984">
        <ele>327.887</ele>
        <time>2020-08-23T07:41:52Z</time>
      </trkpt>
      <trkpt lat="41.838965" lon="0.540895">
        <ele>327.876</ele>
        <time>2020-08-23T07:41:54Z</time>
      </trkpt>
      <trkpt lat="41.838994" lon="0.540800">
        <ele>327.931</ele>
        <time>2020-08-23T07:41:56Z</time>
      </trkpt>
      <trkpt lat="41.839011" lon="0.540691">
        <ele>328.061</ele>
        <time>2020-08-23T07:41:58Z</time>
      </trkpt>
      <trkpt lat="41.839033" lon="0.540586">
        <ele>328.007</ele>
        <time>2020-08-23T07:42:00Z</time>
      </trkpt>
      <trkpt lat="41.839065" lon="0.540488">
        <ele>328.008</ele>
        <time>2020-08-23T07:42:02Z</time>
      </trkpt>
      <trkpt lat="41.839091" lon="0.540395">
        <ele>328.138</ele>
        <time>2020-08-23T07:42:04Z</time>
      </trkpt>
      <trkpt lat="41.839112" lon="0.540301">
        <ele>328.258</ele>
        <time>2020-08-23T07:42:06Z</time>
      </trkpt>
      <trkpt lat="41.839132" lon="0.540209">
        <ele>328.336</ele>
        <time>2020-08-23T07:42:08Z</time>
      </trkpt>
      <trkpt lat="41.839153" lon="0.540115">
        <ele>328.468</ele>
        <time>2020-08-23T07:42:10Z</time>
      </trkpt>
      <trkpt lat="41.839180" lon="0.540024">
        <ele>328.499</ele>
        <time>2020-08-23T07:42:12Z</time>
      </trkpt>
      <trkpt lat="41.839219" lon="0.539934">
        <ele>328.440</ele>
        <time>2020-08-23T07:42:14Z</time>
      </trkpt>
      <trkpt lat="41.839248" lon="0.539840">
        <ele>328.536</ele>
        <time>2020-08-23T07:42:16Z</time>
      </trkpt>
      <trkpt lat="41.839270" lon="0.539737">
        <ele>328.615</ele>
        <time>2020-08-23T07:42:18Z</time>
      </trkpt>
      <trkpt lat="41.839293" lon="0.539641">
        <ele>328.742</ele>
        <time>2020-08-23T07:42:20Z</time>
      </trkpt>
      <trkpt lat="41.839311" lon="0.539555">
        <ele>328.822</ele>
        <time>2020-08-23T07:42:22Z</time>
      </trkpt>
      <trkpt lat="41.839329" lon="0.539467">
        <ele>329.014</ele>
        <time>2020-08-23T07:42:24Z</time>
      </trkpt>
      <trkpt lat="41.839344" lon="0.539381">
        <ele>329.108</ele>
        <time>2020-08-23T07:42:26Z</time>
      </trkpt>
      <trkpt lat="41.839368" lon="0.539292">
        <ele>329.329</ele>
        <time>2020-08-23T07:42:28Z</time>
      </trkpt>
      <trkpt lat="41.839386" lon="0.539193">
        <ele>329.589</ele>
        <time>2020-08-23T07:42:30Z</time>
      </trkpt>
      <trkpt lat="41.839401" lon="0.539098">
        <ele>329.627</ele>
        <time>2020-08-23T07:42:32Z</time>
      </trkpt>
      <trkpt lat="41.839417" lon="0.539004">
        <ele>329.679</ele>
        <time>2020-08-23T07:42:34Z</time>
      </trkpt>
      <trkpt lat="41.839429" lon="0.538902">
        <ele>329.760</ele>
        <time>2020-08-23T07:42:36Z</time>
      </trkpt>
      <trkpt lat="41.839446" lon="0.538810">
        <ele>329.751</ele>
        <time>2020-08-23T07:42:38Z</time>
      </trkpt>
      <trkpt lat="41.839472" lon="0.538702">
        <ele>329.787</ele>
        <time>2020-08-23T07:42:40Z</time>
      </trkpt>
      <trkpt lat="41.839491" lon="0.538598">
        <ele>329.886</ele>
        <time>2020-08-23T07:42:42Z</time>
      </trkpt>
      <trkpt lat="41.839514" lon="0.538494">
        <ele>329.894</ele>
        <time>2020-08-23T07:42:44Z</time>
      </trkpt>
      <trkpt lat="41.839546" lon="0.538390">
        <ele>329.857</ele>
        <time>2020-08-23T07:42:46Z</time>
      </trkpt>
      <trkpt lat="41.839571" lon="0.538283">
        <ele>329.922</ele>
        <time>2020-08-23T07:42:48Z</time>
      </trkpt>
      <trkpt lat="41.839596" lon="0.538176">
        <ele>329.908</ele>
        <time>2020-08-23T07:42:50Z</time>
      </trkpt>
      <trkpt lat="41.839609" lon="0.538117">
        <ele>329.944</ele>
        <time>2020-08-23T07:42:51Z</time>
      </trkpt>
      <trkpt lat="41.839623" lon="0.538002">
        <ele>329.974</ele>
        <time>2020-08-23T07:42:53Z</time>
      </trkpt>
      <trkpt lat="41.839625" lon="0.537940">
        <ele>329.922</ele>
        <time>2020-08-23T07:42:54Z</time>
      </trkpt>
      <trkpt lat="41.839629" lon="0.537880">
        <ele>329.844</ele>
        <time>2020-08-23T07:42:55Z</time>
      </trkpt>
      <trkpt lat="41.839634" lon="0.537818">
        <ele>329.875</ele>
        <time>2020-08-23T07:42:56Z</time>
      </trkpt>
      <trkpt lat="41.839637" lon="0.537753">
        <ele>329.866</ele>
        <time>2020-08-23T07:42:57Z</time>
      </trkpt>
      <trkpt lat="41.839644" lon="0.537689">
        <ele>329.822</ele>
        <time>2020-08-23T07:42:58Z</time>
      </trkpt>
      <trkpt lat="41.839656" lon="0.537627">
        <ele>329.861</ele>
        <time>2020-08-23T07:42:59Z</time>
      </trkpt>
      <trkpt lat="41.839667" lon="0.537561">
        <ele>329.892</ele>
        <time>2020-08-23T07:43:00Z</time>
      </trkpt>
      <trkpt lat="41.839678" lon="0.537498">
        <ele>329.873</ele>
        <time>2020-08-23T07:43:01Z</time>
      </trkpt>
      <trkpt lat="41.839687" lon="0.537432">
        <ele>329.820</ele>
        <time>2020-08-23T07:43:02Z</time>
      </trkpt>
      <trkpt lat="41.839696" lon="0.537362">
        <ele>329.808</ele>
        <time>2020-08-23T07:43:03Z</time>
      </trkpt>
      <trkpt lat="41.839709" lon="0.537292">
        <ele>329.814</ele>
        <time>2020-08-23T07:43:04Z</time>
      </trkpt>
      <trkpt lat="41.839722" lon="0.537226">
        <ele>329.894</ele>
        <time>2020-08-23T07:43:05Z</time>
      </trkpt>
      <trkpt lat="41.839735" lon="0.537163">
        <ele>329.852</ele>
        <time>2020-08-23T07:43:06Z</time>
      </trkpt>
      <trkpt lat="41.839749" lon="0.537102">
        <ele>329.814</ele>
        <time>2020-08-23T07:43:07Z</time>
      </trkpt>
      <trkpt lat="41.839764" lon="0.537041">
        <ele>329.875</ele>
        <time>2020-08-23T07:43:08Z</time>
      </trkpt>
      <trkpt lat="41.839789" lon="0.536925">
        <ele>329.986</ele>
        <time>2020-08-23T07:43:10Z</time>
      </trkpt>
      <trkpt lat="41.839800" lon="0.536861">
        <ele>329.952</ele>
        <time>2020-08-23T07:43:11Z</time>
      </trkpt>
      <trkpt lat="41.839813" lon="0.536798">
        <ele>329.961</ele>
        <time>2020-08-23T07:43:12Z</time>
      </trkpt>
      <trkpt lat="41.839831" lon="0.536673">
        <ele>329.997</ele>
        <time>2020-08-23T07:43:14Z</time>
      </trkpt>
      <trkpt lat="41.839838" lon="0.536604">
        <ele>329.923</ele>
        <time>2020-08-23T07:43:15Z</time>
      </trkpt>
      <trkpt lat="41.839846" lon="0.536538">
        <ele>329.925</ele>
        <time>2020-08-23T07:43:16Z</time>
      </trkpt>
      <trkpt lat="41.839856" lon="0.536473">
        <ele>329.908</ele>
        <time>2020-08-23T07:43:17Z</time>
      </trkpt>
      <trkpt lat="41.839867" lon="0.536405">
        <ele>329.994</ele>
        <time>2020-08-23T07:43:18Z</time>
      </trkpt>
      <trkpt lat="41.839874" lon="0.536337">
        <ele>329.984</ele>
        <time>2020-08-23T07:43:19Z</time>
      </trkpt>
      <trkpt lat="41.839884" lon="0.536268">
        <ele>329.962</ele>
        <time>2020-08-23T07:43:20Z</time>
      </trkpt>
      <trkpt lat="41.839897" lon="0.536208">
        <ele>329.984</ele>
        <time>2020-08-23T07:43:21Z</time>
      </trkpt>
      <trkpt lat="41.839907" lon="0.536142">
        <ele>329.925</ele>
        <time>2020-08-23T07:43:22Z</time>
      </trkpt>
      <trkpt lat="41.839916" lon="0.536077">
        <ele>329.816</ele>
        <time>2020-08-23T07:43:23Z</time>
      </trkpt>
      <trkpt lat="41.839927" lon="0.535957">
        <ele>329.742</ele>
        <time>2020-08-23T07:43:25Z</time>
      </trkpt>
      <trkpt lat="41.839934" lon="0.535887">
        <ele>329.731</ele>
        <time>2020-08-23T07:43:26Z</time>
      </trkpt>
      <trkpt lat="41.839942" lon="0.535821">
        <ele>329.722</ele>
        <time>2020-08-23T07:43:27Z</time>
      </trkpt>
      <trkpt lat="41.839934" lon="0.535709">
        <ele>329.862</ele>
        <time>2020-08-23T07:43:29Z</time>
      </trkpt>
      <trkpt lat="41.839944" lon="0.535612">
        <ele>329.908</ele>
        <time>2020-08-23T07:43:31Z</time>
      </trkpt>
      <trkpt lat="41.839964" lon="0.535510">
        <ele>330.108</ele>
        <time>2020-08-23T07:43:33Z</time>
      </trkpt>
      <trkpt lat="41.839987" lon="0.535394">
        <ele>330.297</ele>
        <time>2020-08-23T07:43:35Z</time>
      </trkpt>
      <trkpt lat="41.839997" lon="0.535328">
        <ele>330.267</ele>
        <time>2020-08-23T07:43:36Z</time>
      </trkpt>
      <trkpt lat="41.840007" lon="0.535264">
        <ele>330.225</ele>
        <time>2020-08-23T07:43:37Z</time>
      </trkpt>
      <trkpt lat="41.840010" lon="0.535196">
        <ele>330.237</ele>
        <time>2020-08-23T07:43:38Z</time>
      </trkpt>
      <trkpt lat="41.840017" lon="0.535132">
        <ele>330.238</ele>
        <time>2020-08-23T07:43:39Z</time>
      </trkpt>
      <trkpt lat="41.840032" lon="0.535069">
        <ele>330.289</ele>
        <time>2020-08-23T07:43:40Z</time>
      </trkpt>
      <trkpt lat="41.840041" lon="0.535002">
        <ele>330.295</ele>
        <time>2020-08-23T07:43:41Z</time>
      </trkpt>
      <trkpt lat="41.840053" lon="0.534933">
        <ele>330.234</ele>
        <time>2020-08-23T07:43:42Z</time>
      </trkpt>
      <trkpt lat="41.840058" lon="0.534860">
        <ele>330.259</ele>
        <time>2020-08-23T07:43:43Z</time>
      </trkpt>
      <trkpt lat="41.840070" lon="0.534798">
        <ele>330.203</ele>
        <time>2020-08-23T07:43:44Z</time>
      </trkpt>
      <trkpt lat="41.840085" lon="0.534739">
        <ele>330.223</ele>
        <time>2020-08-23T07:43:45Z</time>
      </trkpt>
      <trkpt lat="41.840103" lon="0.534634">
        <ele>330.308</ele>
        <time>2020-08-23T07:43:47Z</time>
      </trkpt>
      <trkpt lat="41.840126" lon="0.534526">
        <ele>330.480</ele>
        <time>2020-08-23T07:43:49Z</time>
      </trkpt>
      <trkpt lat="41.840131" lon="0.534411">
        <ele>330.470</ele>
        <time>2020-08-23T07:43:51Z</time>
      </trkpt>
      <trkpt lat="41.840140" lon="0.534300">
        <ele>330.448</ele>
        <time>2020-08-23T07:43:53Z</time>
      </trkpt>
      <trkpt lat="41.840145" lon="0.534235">
        <ele>330.460</ele>
        <time>2020-08-23T07:43:54Z</time>
      </trkpt>
      <trkpt lat="41.840145" lon="0.534173">
        <ele>330.451</ele>
        <time>2020-08-23T07:43:55Z</time>
      </trkpt>
      <trkpt lat="41.840147" lon="0.534112">
        <ele>330.422</ele>
        <time>2020-08-23T07:43:56Z</time>
      </trkpt>
      <trkpt lat="41.840151" lon="0.534047">
        <ele>330.488</ele>
        <time>2020-08-23T07:43:57Z</time>
      </trkpt>
      <trkpt lat="41.840151" lon="0.533974">
        <ele>330.467</ele>
        <time>2020-08-23T07:43:58Z</time>
      </trkpt>
      <trkpt lat="41.840155" lon="0.533858">
        <ele>330.458</ele>
        <time>2020-08-23T07:44:00Z</time>
      </trkpt>
      <trkpt lat="41.840193" lon="0.533751">
        <ele>330.352</ele>
        <time>2020-08-23T07:44:02Z</time>
      </trkpt>
      <trkpt lat="41.840198" lon="0.533688">
        <ele>330.317</ele>
        <time>2020-08-23T07:44:03Z</time>
      </trkpt>
      <trkpt lat="41.840206" lon="0.533625">
        <ele>330.308</ele>
        <time>2020-08-23T07:44:04Z</time>
      </trkpt>
      <trkpt lat="41.840224" lon="0.533504">
        <ele>330.350</ele>
        <time>2020-08-23T07:44:06Z</time>
      </trkpt>
      <trkpt lat="41.840236" lon="0.533441">
        <ele>330.330</ele>
        <time>2020-08-23T07:44:07Z</time>
      </trkpt>
      <trkpt lat="41.840237" lon="0.533377">
        <ele>330.318</ele>
        <time>2020-08-23T07:44:08Z</time>
      </trkpt>
      <trkpt lat="41.840216" lon="0.533264">
        <ele>330.320</ele>
        <time>2020-08-23T07:44:10Z</time>
      </trkpt>
      <trkpt lat="41.840226" lon="0.533148">
        <ele>330.341</ele>
        <time>2020-08-23T07:44:12Z</time>
      </trkpt>
      <trkpt lat="41.840226" lon="0.533037">
        <ele>330.572</ele>
        <time>2020-08-23T07:44:14Z</time>
      </trkpt>
      <trkpt lat="41.840253" lon="0.532929">
        <ele>330.618</ele>
        <time>2020-08-23T07:44:16Z</time>
      </trkpt>
      <trkpt lat="41.840270" lon="0.532867">
        <ele>330.687</ele>
        <time>2020-08-23T07:44:17Z</time>
      </trkpt>
      <trkpt lat="41.840288" lon="0.532799">
        <ele>330.687</ele>
        <time>2020-08-23T07:44:18Z</time>
      </trkpt>
      <trkpt lat="41.840309" lon="0.532734">
        <ele>330.542</ele>
        <time>2020-08-23T07:44:19Z</time>
      </trkpt>
      <trkpt lat="41.840325" lon="0.532675">
        <ele>330.426</ele>
        <time>2020-08-23T07:44:20Z</time>
      </trkpt>
      <trkpt lat="41.840341" lon="0.532613">
        <ele>330.308</ele>
        <time>2020-08-23T07:44:21Z</time>
      </trkpt>
      <trkpt lat="41.840365" lon="0.532557">
        <ele>330.293</ele>
        <time>2020-08-23T07:44:22Z</time>
      </trkpt>
      <trkpt lat="41.840413" lon="0.532463">
        <ele>330.143</ele>
        <time>2020-08-23T07:44:24Z</time>
      </trkpt>
      <trkpt lat="41.840464" lon="0.532366">
        <ele>330.061</ele>
        <time>2020-08-23T07:44:26Z</time>
      </trkpt>
      <trkpt lat="41.840496" lon="0.532321">
        <ele>330.093</ele>
        <time>2020-08-23T07:44:27Z</time>
      </trkpt>
      <trkpt lat="41.840526" lon="0.532273">
        <ele>329.974</ele>
        <time>2020-08-23T07:44:28Z</time>
      </trkpt>
      <trkpt lat="41.840584" lon="0.532187">
        <ele>329.845</ele>
        <time>2020-08-23T07:44:30Z</time>
      </trkpt>
      <trkpt lat="41.840611" lon="0.532138">
        <ele>329.821</ele>
        <time>2020-08-23T07:44:31Z</time>
      </trkpt>
      <trkpt lat="41.840639" lon="0.532078">
        <ele>329.730</ele>
        <time>2020-08-23T07:44:32Z</time>
      </trkpt>
      <trkpt lat="41.840664" lon="0.532019">
        <ele>329.776</ele>
        <time>2020-08-23T07:44:33Z</time>
      </trkpt>
      <trkpt lat="41.840686" lon="0.531955">
        <ele>329.790</ele>
        <time>2020-08-23T07:44:34Z</time>
      </trkpt>
      <trkpt lat="41.840710" lon="0.531894">
        <ele>329.719</ele>
        <time>2020-08-23T07:44:35Z</time>
      </trkpt>
      <trkpt lat="41.840737" lon="0.531837">
        <ele>329.708</ele>
        <time>2020-08-23T07:44:36Z</time>
      </trkpt>
      <trkpt lat="41.840760" lon="0.531782">
        <ele>329.712</ele>
        <time>2020-08-23T07:44:37Z</time>
      </trkpt>
      <trkpt lat="41.840781" lon="0.531728">
        <ele>329.642</ele>
        <time>2020-08-23T07:44:38Z</time>
      </trkpt>
      <trkpt lat="41.840802" lon="0.531666">
        <ele>329.610</ele>
        <time>2020-08-23T07:44:39Z</time>
      </trkpt>
      <trkpt lat="41.840820" lon="0.531599">
        <ele>329.662</ele>
        <time>2020-08-23T07:44:40Z</time>
      </trkpt>
      <trkpt lat="41.840848" lon="0.531547">
        <ele>329.683</ele>
        <time>2020-08-23T07:44:41Z</time>
      </trkpt>
      <trkpt lat="41.840873" lon="0.531494">
        <ele>329.674</ele>
        <time>2020-08-23T07:44:42Z</time>
      </trkpt>
      <trkpt lat="41.840898" lon="0.531433">
        <ele>329.690</ele>
        <time>2020-08-23T07:44:43Z</time>
      </trkpt>
      <trkpt lat="41.840914" lon="0.531368">
        <ele>329.629</ele>
        <time>2020-08-23T07:44:44Z</time>
      </trkpt>
      <trkpt lat="41.840956" lon="0.531262">
        <ele>329.624</ele>
        <time>2020-08-23T07:44:46Z</time>
      </trkpt>
      <trkpt lat="41.840978" lon="0.531203">
        <ele>329.604</ele>
        <time>2020-08-23T07:44:47Z</time>
      </trkpt>
      <trkpt lat="41.840997" lon="0.531142">
        <ele>329.614</ele>
        <time>2020-08-23T07:44:48Z</time>
      </trkpt>
      <trkpt lat="41.841015" lon="0.531079">
        <ele>329.608</ele>
        <time>2020-08-23T07:44:49Z</time>
      </trkpt>
      <trkpt lat="41.841027" lon="0.531011">
        <ele>329.627</ele>
        <time>2020-08-23T07:44:50Z</time>
      </trkpt>
      <trkpt lat="41.841034" lon="0.530941">
        <ele>329.697</ele>
        <time>2020-08-23T07:44:51Z</time>
      </trkpt>
      <trkpt lat="41.841035" lon="0.530877">
        <ele>329.685</ele>
        <time>2020-08-23T07:44:52Z</time>
      </trkpt>
      <trkpt lat="41.841034" lon="0.530814">
        <ele>329.637</ele>
        <time>2020-08-23T07:44:53Z</time>
      </trkpt>
      <trkpt lat="41.841044" lon="0.530697">
        <ele>329.638</ele>
        <time>2020-08-23T07:44:55Z</time>
      </trkpt>
      <trkpt lat="41.841044" lon="0.530588">
        <ele>329.759</ele>
        <time>2020-08-23T07:44:57Z</time>
      </trkpt>
      <trkpt lat="41.841021" lon="0.530474">
        <ele>329.865</ele>
        <time>2020-08-23T07:44:59Z</time>
      </trkpt>
      <trkpt lat="41.841013" lon="0.530411">
        <ele>329.864</ele>
        <time>2020-08-23T07:45:00Z</time>
      </trkpt>
      <trkpt lat="41.840999" lon="0.530346">
        <ele>329.816</ele>
        <time>2020-08-23T07:45:01Z</time>
      </trkpt>
      <trkpt lat="41.840986" lon="0.530279">
        <ele>329.876</ele>
        <time>2020-08-23T07:45:02Z</time>
      </trkpt>
      <trkpt lat="41.840973" lon="0.530214">
        <ele>329.813</ele>
        <time>2020-08-23T07:45:03Z</time>
      </trkpt>
      <trkpt lat="41.840960" lon="0.530152">
        <ele>329.808</ele>
        <time>2020-08-23T07:45:04Z</time>
      </trkpt>
      <trkpt lat="41.840945" lon="0.530087">
        <ele>329.846</ele>
        <time>2020-08-23T07:45:05Z</time>
      </trkpt>
      <trkpt lat="41.840929" lon="0.530023">
        <ele>329.856</ele>
        <time>2020-08-23T07:45:06Z</time>
      </trkpt>
      <trkpt lat="41.840916" lon="0.529960">
        <ele>329.884</ele>
        <time>2020-08-23T07:45:07Z</time>
      </trkpt>
      <trkpt lat="41.840884" lon="0.529851">
        <ele>329.926</ele>
        <time>2020-08-23T07:45:09Z</time>
      </trkpt>
      <trkpt lat="41.840847" lon="0.529746">
        <ele>330.017</ele>
        <time>2020-08-23T07:45:11Z</time>
      </trkpt>
      <trkpt lat="41.840811" lon="0.529641">
        <ele>330.058</ele>
        <time>2020-08-23T07:45:13Z</time>
      </trkpt>
      <trkpt lat="41.840792" lon="0.529585">
        <ele>330.014</ele>
        <time>2020-08-23T07:45:14Z</time>
      </trkpt>
      <trkpt lat="41.840777" lon="0.529521">
        <ele>330.033</ele>
        <time>2020-08-23T07:45:15Z</time>
      </trkpt>
      <trkpt lat="41.840766" lon="0.529450">
        <ele>330.043</ele>
        <time>2020-08-23T07:45:16Z</time>
      </trkpt>
      <trkpt lat="41.840754" lon="0.529374">
        <ele>330.064</ele>
        <time>2020-08-23T07:45:17Z</time>
      </trkpt>
      <trkpt lat="41.840739" lon="0.529297">
        <ele>330.010</ele>
        <time>2020-08-23T07:45:18Z</time>
      </trkpt>
      <trkpt lat="41.840726" lon="0.529221">
        <ele>330.008</ele>
        <time>2020-08-23T07:45:19Z</time>
      </trkpt>
      <trkpt lat="41.840711" lon="0.529152">
        <ele>330.059</ele>
        <time>2020-08-23T07:45:20Z</time>
      </trkpt>
      <trkpt lat="41.840698" lon="0.529086">
        <ele>330.049</ele>
        <time>2020-08-23T07:45:21Z</time>
      </trkpt>
      <trkpt lat="41.840683" lon="0.529015">
        <ele>330.047</ele>
        <time>2020-08-23T07:45:22Z</time>
      </trkpt>
      <trkpt lat="41.840668" lon="0.528946">
        <ele>330.029</ele>
        <time>2020-08-23T07:45:23Z</time>
      </trkpt>
      <trkpt lat="41.840645" lon="0.528880">
        <ele>330.040</ele>
        <time>2020-08-23T07:45:24Z</time>
      </trkpt>
      <trkpt lat="41.840626" lon="0.528809">
        <ele>330.081</ele>
        <time>2020-08-23T07:45:25Z</time>
      </trkpt>
      <trkpt lat="41.840611" lon="0.528740">
        <ele>330.077</ele>
        <time>2020-08-23T07:45:26Z</time>
      </trkpt>
      <trkpt lat="41.840590" lon="0.528637">
        <ele>330.196</ele>
        <time>2020-08-23T07:45:28Z</time>
      </trkpt>
      <trkpt lat="41.840573" lon="0.528528">
        <ele>330.392</ele>
        <time>2020-08-23T07:45:30Z</time>
      </trkpt>
      <trkpt lat="41.840562" lon="0.528466">
        <ele>330.473</ele>
        <time>2020-08-23T07:45:31Z</time>
      </trkpt>
      <trkpt lat="41.840556" lon="0.528395">
        <ele>330.420</ele>
        <time>2020-08-23T07:45:32Z</time>
      </trkpt>
      <trkpt lat="41.840553" lon="0.528322">
        <ele>330.408</ele>
        <time>2020-08-23T07:45:33Z</time>
      </trkpt>
      <trkpt lat="41.840560" lon="0.528253">
        <ele>330.314</ele>
        <time>2020-08-23T07:45:34Z</time>
      </trkpt>
      <trkpt lat="41.840572" lon="0.528182">
        <ele>330.254</ele>
        <time>2020-08-23T07:45:35Z</time>
      </trkpt>
      <trkpt lat="41.840592" lon="0.528100">
        <ele>330.192</ele>
        <time>2020-08-23T07:45:36Z</time>
      </trkpt>
      <trkpt lat="41.840602" lon="0.528022">
        <ele>329.964</ele>
        <time>2020-08-23T07:45:37Z</time>
      </trkpt>
      <trkpt lat="41.840614" lon="0.527946">
        <ele>329.845</ele>
        <time>2020-08-23T07:45:38Z</time>
      </trkpt>
      <trkpt lat="41.840629" lon="0.527872">
        <ele>329.736</ele>
        <time>2020-08-23T07:45:39Z</time>
      </trkpt>
      <trkpt lat="41.840644" lon="0.527808">
        <ele>329.662</ele>
        <time>2020-08-23T07:45:40Z</time>
      </trkpt>
      <trkpt lat="41.840660" lon="0.527744">
        <ele>329.571</ele>
        <time>2020-08-23T07:45:41Z</time>
      </trkpt>
      <trkpt lat="41.840668" lon="0.527672">
        <ele>329.426</ele>
        <time>2020-08-23T07:45:42Z</time>
      </trkpt>
      <trkpt lat="41.840675" lon="0.527601">
        <ele>329.447</ele>
        <time>2020-08-23T07:45:43Z</time>
      </trkpt>
      <trkpt lat="41.840682" lon="0.527529">
        <ele>329.411</ele>
        <time>2020-08-23T07:45:44Z</time>
      </trkpt>
      <trkpt lat="41.840688" lon="0.527459">
        <ele>329.408</ele>
        <time>2020-08-23T07:45:45Z</time>
      </trkpt>
      <trkpt lat="41.840691" lon="0.527392">
        <ele>329.467</ele>
        <time>2020-08-23T07:45:46Z</time>
      </trkpt>
      <trkpt lat="41.840691" lon="0.527324">
        <ele>329.477</ele>
        <time>2020-08-23T07:45:47Z</time>
      </trkpt>
      <trkpt lat="41.840696" lon="0.527251">
        <ele>329.435</ele>
        <time>2020-08-23T07:45:48Z</time>
      </trkpt>
      <trkpt lat="41.840698" lon="0.527185">
        <ele>329.447</ele>
        <time>2020-08-23T07:45:49Z</time>
      </trkpt>
      <trkpt lat="41.840695" lon="0.527117">
        <ele>329.458</ele>
        <time>2020-08-23T07:45:50Z</time>
      </trkpt>
      <trkpt lat="41.840688" lon="0.527048">
        <ele>329.459</ele>
        <time>2020-08-23T07:45:51Z</time>
      </trkpt>
      <trkpt lat="41.840676" lon="0.526984">
        <ele>329.495</ele>
        <time>2020-08-23T07:45:52Z</time>
      </trkpt>
      <trkpt lat="41.840662" lon="0.526920">
        <ele>329.444</ele>
        <time>2020-08-23T07:45:53Z</time>
      </trkpt>
      <trkpt lat="41.840652" lon="0.526849">
        <ele>329.493</ele>
        <time>2020-08-23T07:45:54Z</time>
      </trkpt>
      <trkpt lat="41.840644" lon="0.526785">
        <ele>329.465</ele>
        <time>2020-08-23T07:45:55Z</time>
      </trkpt>
      <trkpt lat="41.840640" lon="0.526716">
        <ele>329.421</ele>
        <time>2020-08-23T07:45:56Z</time>
      </trkpt>
      <trkpt lat="41.840634" lon="0.526653">
        <ele>329.408</ele>
        <time>2020-08-23T07:45:57Z</time>
      </trkpt>
      <trkpt lat="41.840628" lon="0.526541">
        <ele>329.484</ele>
        <time>2020-08-23T07:45:59Z</time>
      </trkpt>
      <trkpt lat="41.840623" lon="0.526475">
        <ele>329.414</ele>
        <time>2020-08-23T07:46:00Z</time>
      </trkpt>
      <trkpt lat="41.840617" lon="0.526405">
        <ele>329.352</ele>
        <time>2020-08-23T07:46:01Z</time>
      </trkpt>
      <trkpt lat="41.840610" lon="0.526340">
        <ele>329.324</ele>
        <time>2020-08-23T07:46:02Z</time>
      </trkpt>
      <trkpt lat="41.840597" lon="0.526272">
        <ele>329.325</ele>
        <time>2020-08-23T07:46:03Z</time>
      </trkpt>
      <trkpt lat="41.840584" lon="0.526204">
        <ele>329.376</ele>
        <time>2020-08-23T07:46:04Z</time>
      </trkpt>
      <trkpt lat="41.840575" lon="0.526137">
        <ele>329.272</ele>
        <time>2020-08-23T07:46:05Z</time>
      </trkpt>
      <trkpt lat="41.840566" lon="0.526067">
        <ele>329.211</ele>
        <time>2020-08-23T07:46:06Z</time>
      </trkpt>
      <trkpt lat="41.840560" lon="0.526000">
        <ele>329.271</ele>
        <time>2020-08-23T07:46:07Z</time>
      </trkpt>
      <trkpt lat="41.840554" lon="0.525928">
        <ele>329.241</ele>
        <time>2020-08-23T07:46:08Z</time>
      </trkpt>
      <trkpt lat="41.840549" lon="0.525864">
        <ele>329.215</ele>
        <time>2020-08-23T07:46:09Z</time>
      </trkpt>
      <trkpt lat="41.840541" lon="0.525803">
        <ele>329.208</ele>
        <time>2020-08-23T07:46:10Z</time>
      </trkpt>
      <trkpt lat="41.840536" lon="0.525741">
        <ele>329.242</ele>
        <time>2020-08-23T07:46:11Z</time>
      </trkpt>
      <trkpt lat="41.840526" lon="0.525680">
        <ele>329.262</ele>
        <time>2020-08-23T07:46:12Z</time>
      </trkpt>
      <trkpt lat="41.840508" lon="0.525562">
        <ele>329.210</ele>
        <time>2020-08-23T07:46:14Z</time>
      </trkpt>
      <trkpt lat="41.840498" lon="0.525497">
        <ele>329.222</ele>
        <time>2020-08-23T07:46:15Z</time>
      </trkpt>
      <trkpt lat="41.840490" lon="0.525428">
        <ele>329.233</ele>
        <time>2020-08-23T07:46:16Z</time>
      </trkpt>
      <trkpt lat="41.840482" lon="0.525365">
        <ele>329.274</ele>
        <time>2020-08-23T07:46:17Z</time>
      </trkpt>
      <trkpt lat="41.840481" lon="0.525303">
        <ele>329.250</ele>
        <time>2020-08-23T07:46:18Z</time>
      </trkpt>
      <trkpt lat="41.840482" lon="0.525235">
        <ele>329.229</ele>
        <time>2020-08-23T07:46:19Z</time>
      </trkpt>
      <trkpt lat="41.840478" lon="0.525116">
        <ele>329.234</ele>
        <time>2020-08-23T07:46:21Z</time>
      </trkpt>
      <trkpt lat="41.840478" lon="0.525055">
        <ele>329.255</ele>
        <time>2020-08-23T07:46:22Z</time>
      </trkpt>
      <trkpt lat="41.840477" lon="0.524988">
        <ele>329.210</ele>
        <time>2020-08-23T07:46:23Z</time>
      </trkpt>
      <trkpt lat="41.840474" lon="0.524922">
        <ele>329.208</ele>
        <time>2020-08-23T07:46:24Z</time>
      </trkpt>
      <trkpt lat="41.840477" lon="0.524860">
        <ele>329.238</ele>
        <time>2020-08-23T07:46:25Z</time>
      </trkpt>
      <trkpt lat="41.840472" lon="0.524798">
        <ele>329.228</ele>
        <time>2020-08-23T07:46:26Z</time>
      </trkpt>
      <trkpt lat="41.840470" lon="0.524694">
        <ele>329.296</ele>
        <time>2020-08-23T07:46:28Z</time>
      </trkpt>
      <trkpt lat="41.840492" lon="0.524605">
        <ele>329.288</ele>
        <time>2020-08-23T07:46:30Z</time>
      </trkpt>
      <trkpt lat="41.840512" lon="0.524496">
        <ele>329.219</ele>
        <time>2020-08-23T07:46:32Z</time>
      </trkpt>
      <trkpt lat="41.840530" lon="0.524386">
        <ele>329.370</ele>
        <time>2020-08-23T07:46:34Z</time>
      </trkpt>
      <trkpt lat="41.840541" lon="0.524323">
        <ele>329.386</ele>
        <time>2020-08-23T07:46:35Z</time>
      </trkpt>
      <trkpt lat="41.840546" lon="0.524245">
        <ele>329.355</ele>
        <time>2020-08-23T07:46:36Z</time>
      </trkpt>
      <trkpt lat="41.840552" lon="0.524166">
        <ele>329.378</ele>
        <time>2020-08-23T07:46:37Z</time>
      </trkpt>
      <trkpt lat="41.840562" lon="0.524098">
        <ele>329.333</ele>
        <time>2020-08-23T07:46:38Z</time>
      </trkpt>
      <trkpt lat="41.840579" lon="0.524032">
        <ele>329.226</ele>
        <time>2020-08-23T07:46:39Z</time>
      </trkpt>
      <trkpt lat="41.840598" lon="0.523970">
        <ele>329.108</ele>
        <time>2020-08-23T07:46:40Z</time>
      </trkpt>
      <trkpt lat="41.840611" lon="0.523910">
        <ele>329.032</ele>
        <time>2020-08-23T07:46:41Z</time>
      </trkpt>
      <trkpt lat="41.840623" lon="0.523849">
        <ele>328.912</ele>
        <time>2020-08-23T07:46:42Z</time>
      </trkpt>
      <trkpt lat="41.840643" lon="0.523789">
        <ele>328.870</ele>
        <time>2020-08-23T07:46:43Z</time>
      </trkpt>
      <trkpt lat="41.840662" lon="0.523673">
        <ele>328.832</ele>
        <time>2020-08-23T07:46:45Z</time>
      </trkpt>
      <trkpt lat="41.840706" lon="0.523587">
        <ele>328.813</ele>
        <time>2020-08-23T07:46:47Z</time>
      </trkpt>
      <trkpt lat="41.840722" lon="0.523465">
        <ele>328.974</ele>
        <time>2020-08-23T07:46:49Z</time>
      </trkpt>
      <trkpt lat="41.840748" lon="0.523354">
        <ele>329.050</ele>
        <time>2020-08-23T07:46:51Z</time>
      </trkpt>
      <trkpt lat="41.840768" lon="0.523298">
        <ele>329.059</ele>
        <time>2020-08-23T07:46:52Z</time>
      </trkpt>
      <trkpt lat="41.840792" lon="0.523238">
        <ele>329.019</ele>
        <time>2020-08-23T07:46:53Z</time>
      </trkpt>
      <trkpt lat="41.840821" lon="0.523178">
        <ele>329.009</ele>
        <time>2020-08-23T07:46:54Z</time>
      </trkpt>
      <trkpt lat="41.840842" lon="0.523111">
        <ele>329.019</ele>
        <time>2020-08-23T07:46:55Z</time>
      </trkpt>
      <trkpt lat="41.840862" lon="0.523042">
        <ele>329.008</ele>
        <time>2020-08-23T07:46:56Z</time>
      </trkpt>
      <trkpt lat="41.840882" lon="0.522980">
        <ele>329.016</ele>
        <time>2020-08-23T07:46:57Z</time>
      </trkpt>
      <trkpt lat="41.840922" lon="0.522871">
        <ele>329.156</ele>
        <time>2020-08-23T07:46:59Z</time>
      </trkpt>
      <trkpt lat="41.840970" lon="0.522769">
        <ele>329.164</ele>
        <time>2020-08-23T07:47:01Z</time>
      </trkpt>
      <trkpt lat="41.840994" lon="0.522716">
        <ele>329.116</ele>
        <time>2020-08-23T07:47:02Z</time>
      </trkpt>
      <trkpt lat="41.841017" lon="0.522659">
        <ele>329.137</ele>
        <time>2020-08-23T07:47:03Z</time>
      </trkpt>
      <trkpt lat="41.841064" lon="0.522555">
        <ele>329.088</ele>
        <time>2020-08-23T07:47:05Z</time>
      </trkpt>
      <trkpt lat="41.841091" lon="0.522505">
        <ele>329.054</ele>
        <time>2020-08-23T07:47:06Z</time>
      </trkpt>
      <trkpt lat="41.841116" lon="0.522447">
        <ele>328.913</ele>
        <time>2020-08-23T07:47:07Z</time>
      </trkpt>
      <trkpt lat="41.841137" lon="0.522379">
        <ele>328.816</ele>
        <time>2020-08-23T07:47:08Z</time>
      </trkpt>
      <trkpt lat="41.841153" lon="0.522314">
        <ele>328.776</ele>
        <time>2020-08-23T07:47:09Z</time>
      </trkpt>
      <trkpt lat="41.841167" lon="0.522250">
        <ele>328.613</ele>
        <time>2020-08-23T07:47:10Z</time>
      </trkpt>
      <trkpt lat="41.841184" lon="0.522181">
        <ele>328.508</ele>
        <time>2020-08-23T07:47:11Z</time>
      </trkpt>
      <trkpt lat="41.841198" lon="0.522119">
        <ele>328.596</ele>
        <time>2020-08-23T07:47:12Z</time>
      </trkpt>
      <trkpt lat="41.841206" lon="0.522052">
        <ele>328.546</ele>
        <time>2020-08-23T07:47:13Z</time>
      </trkpt>
      <trkpt lat="41.841218" lon="0.521984">
        <ele>328.594</ele>
        <time>2020-08-23T07:47:14Z</time>
      </trkpt>
      <trkpt lat="41.841240" lon="0.521923">
        <ele>328.536</ele>
        <time>2020-08-23T07:47:15Z</time>
      </trkpt>
      <trkpt lat="41.841251" lon="0.521858">
        <ele>328.517</ele>
        <time>2020-08-23T07:47:16Z</time>
      </trkpt>
      <trkpt lat="41.841270" lon="0.521795">
        <ele>328.568</ele>
        <time>2020-08-23T07:47:17Z</time>
      </trkpt>
      <trkpt lat="41.841297" lon="0.521682">
        <ele>328.544</ele>
        <time>2020-08-23T07:47:19Z</time>
      </trkpt>
      <trkpt lat="41.841305" lon="0.521615">
        <ele>328.563</ele>
        <time>2020-08-23T07:47:20Z</time>
      </trkpt>
      <trkpt lat="41.841308" lon="0.521554">
        <ele>328.556</ele>
        <time>2020-08-23T07:47:21Z</time>
      </trkpt>
      <trkpt lat="41.841316" lon="0.521492">
        <ele>328.559</ele>
        <time>2020-08-23T07:47:22Z</time>
      </trkpt>
      <trkpt lat="41.841321" lon="0.521425">
        <ele>328.514</ele>
        <time>2020-08-23T07:47:23Z</time>
      </trkpt>
      <trkpt lat="41.841325" lon="0.521355">
        <ele>328.508</ele>
        <time>2020-08-23T07:47:24Z</time>
      </trkpt>
      <trkpt lat="41.841334" lon="0.521293">
        <ele>328.630</ele>
        <time>2020-08-23T07:47:25Z</time>
      </trkpt>
      <trkpt lat="41.841362" lon="0.521183">
        <ele>328.960</ele>
        <time>2020-08-23T07:47:27Z</time>
      </trkpt>
      <trkpt lat="41.841367" lon="0.521066">
        <ele>328.998</ele>
        <time>2020-08-23T07:47:29Z</time>
      </trkpt>
      <trkpt lat="41.841371" lon="0.521002">
        <ele>328.920</ele>
        <time>2020-08-23T07:47:30Z</time>
      </trkpt>
      <trkpt lat="41.841374" lon="0.520941">
        <ele>328.891</ele>
        <time>2020-08-23T07:47:31Z</time>
      </trkpt>
      <trkpt lat="41.841376" lon="0.520823">
        <ele>328.882</ele>
        <time>2020-08-23T07:47:33Z</time>
      </trkpt>
      <trkpt lat="41.841380" lon="0.520701">
        <ele>328.858</ele>
        <time>2020-08-23T07:47:35Z</time>
      </trkpt>
      <trkpt lat="41.841383" lon="0.520637">
        <ele>328.927</ele>
        <time>2020-08-23T07:47:36Z</time>
      </trkpt>
      <trkpt lat="41.841386" lon="0.520572">
        <ele>328.952</ele>
        <time>2020-08-23T07:47:37Z</time>
      </trkpt>
      <trkpt lat="41.841393" lon="0.520505">
        <ele>328.953</ele>
        <time>2020-08-23T07:47:38Z</time>
      </trkpt>
      <trkpt lat="41.841395" lon="0.520440">
        <ele>328.908</ele>
        <time>2020-08-23T07:47:39Z</time>
      </trkpt>
      <trkpt lat="41.841395" lon="0.520367">
        <ele>328.908</ele>
        <time>2020-08-23T07:47:40Z</time>
      </trkpt>
      <trkpt lat="41.841395" lon="0.520287">
        <ele>328.970</ele>
        <time>2020-08-23T07:47:41Z</time>
      </trkpt>
      <trkpt lat="41.841394" lon="0.520207">
        <ele>328.990</ele>
        <time>2020-08-23T07:47:42Z</time>
      </trkpt>
      <trkpt lat="41.841396" lon="0.520143">
        <ele>329.088</ele>
        <time>2020-08-23T07:47:43Z</time>
      </trkpt>
      <trkpt lat="41.841399" lon="0.520079">
        <ele>329.080</ele>
        <time>2020-08-23T07:47:44Z</time>
      </trkpt>
      <trkpt lat="41.841405" lon="0.520013">
        <ele>329.041</ele>
        <time>2020-08-23T07:47:45Z</time>
      </trkpt>
      <trkpt lat="41.841405" lon="0.519948">
        <ele>329.022</ele>
        <time>2020-08-23T07:47:46Z</time>
      </trkpt>
      <trkpt lat="41.841401" lon="0.519882">
        <ele>329.078</ele>
        <time>2020-08-23T07:47:47Z</time>
      </trkpt>
      <trkpt lat="41.841399" lon="0.519817">
        <ele>329.047</ele>
        <time>2020-08-23T07:47:48Z</time>
      </trkpt>
      <trkpt lat="41.841397" lon="0.519746">
        <ele>329.082</ele>
        <time>2020-08-23T07:47:49Z</time>
      </trkpt>
      <trkpt lat="41.841392" lon="0.519671">
        <ele>328.943</ele>
        <time>2020-08-23T07:47:50Z</time>
      </trkpt>
      <trkpt lat="41.841383" lon="0.519600">
        <ele>328.917</ele>
        <time>2020-08-23T07:47:51Z</time>
      </trkpt>
      <trkpt lat="41.841376" lon="0.519537">
        <ele>328.908</ele>
        <time>2020-08-23T07:47:52Z</time>
      </trkpt>
      <trkpt lat="41.841369" lon="0.519470">
        <ele>328.993</ele>
        <time>2020-08-23T07:47:53Z</time>
      </trkpt>
      <trkpt lat="41.841367" lon="0.519407">
        <ele>328.923</ele>
        <time>2020-08-23T07:47:54Z</time>
      </trkpt>
      <trkpt lat="41.841365" lon="0.519346">
        <ele>329.031</ele>
        <time>2020-08-23T07:47:55Z</time>
      </trkpt>
      <trkpt lat="41.841364" lon="0.519280">
        <ele>329.133</ele>
        <time>2020-08-23T07:47:56Z</time>
      </trkpt>
      <trkpt lat="41.841366" lon="0.519217">
        <ele>329.294</ele>
        <time>2020-08-23T07:47:57Z</time>
      </trkpt>
      <trkpt lat="41.841362" lon="0.519153">
        <ele>329.325</ele>
        <time>2020-08-23T07:47:58Z</time>
      </trkpt>
      <trkpt lat="41.841358" lon="0.519089">
        <ele>329.311</ele>
        <time>2020-08-23T07:47:59Z</time>
      </trkpt>
      <trkpt lat="41.841352" lon="0.519025">
        <ele>329.480</ele>
        <time>2020-08-23T07:48:00Z</time>
      </trkpt>
      <trkpt lat="41.841349" lon="0.518960">
        <ele>329.516</ele>
        <time>2020-08-23T07:48:01Z</time>
      </trkpt>
      <trkpt lat="41.841346" lon="0.518890">
        <ele>329.576</ele>
        <time>2020-08-23T07:48:02Z</time>
      </trkpt>
      <trkpt lat="41.841332" lon="0.518821">
        <ele>329.413</ele>
        <time>2020-08-23T07:48:03Z</time>
      </trkpt>
      <trkpt lat="41.841319" lon="0.518753">
        <ele>329.308</ele>
        <time>2020-08-23T07:48:04Z</time>
      </trkpt>
      <trkpt lat="41.841308" lon="0.518689">
        <ele>329.146</ele>
        <time>2020-08-23T07:48:05Z</time>
      </trkpt>
      <trkpt lat="41.841293" lon="0.518622">
        <ele>329.096</ele>
        <time>2020-08-23T07:48:06Z</time>
      </trkpt>
      <trkpt lat="41.841285" lon="0.518551">
        <ele>328.954</ele>
        <time>2020-08-23T07:48:07Z</time>
      </trkpt>
      <trkpt lat="41.841277" lon="0.518481">
        <ele>328.846</ele>
        <time>2020-08-23T07:48:08Z</time>
      </trkpt>
      <trkpt lat="41.841271" lon="0.518420">
        <ele>328.737</ele>
        <time>2020-08-23T07:48:09Z</time>
      </trkpt>
      <trkpt lat="41.841273" lon="0.518355">
        <ele>328.728</ele>
        <time>2020-08-23T07:48:10Z</time>
      </trkpt>
      <trkpt lat="41.841270" lon="0.518287">
        <ele>328.654</ele>
        <time>2020-08-23T07:48:11Z</time>
      </trkpt>
      <trkpt lat="41.841269" lon="0.518220">
        <ele>328.553</ele>
        <time>2020-08-23T07:48:12Z</time>
      </trkpt>
      <trkpt lat="41.841270" lon="0.518146">
        <ele>328.526</ele>
        <time>2020-08-23T07:48:13Z</time>
      </trkpt>
      <trkpt lat="41.841270" lon="0.518064">
        <ele>328.447</ele>
        <time>2020-08-23T07:48:14Z</time>
      </trkpt>
      <trkpt lat="41.841273" lon="0.517978">
        <ele>328.311</ele>
        <time>2020-08-23T07:48:15Z</time>
      </trkpt>
      <trkpt lat="41.841276" lon="0.517895">
        <ele>328.308</ele>
        <time>2020-08-23T07:48:16Z</time>
      </trkpt>
      <trkpt lat="41.841277" lon="0.517810">
        <ele>328.357</ele>
        <time>2020-08-23T07:48:17Z</time>
      </trkpt>
      <trkpt lat="41.841284" lon="0.517721">
        <ele>328.237</ele>
        <time>2020-08-23T07:48:18Z</time>
      </trkpt>
      <trkpt lat="41.841292" lon="0.517638">
        <ele>328.185</ele>
        <time>2020-08-23T07:48:19Z</time>
      </trkpt>
      <trkpt lat="41.841302" lon="0.517560">
        <ele>328.047</ele>
        <time>2020-08-23T07:48:20Z</time>
      </trkpt>
      <trkpt lat="41.841308" lon="0.517485">
        <ele>327.958</ele>
        <time>2020-08-23T07:48:21Z</time>
      </trkpt>
      <trkpt lat="41.841311" lon="0.517408">
        <ele>327.899</ele>
        <time>2020-08-23T07:48:22Z</time>
      </trkpt>
      <trkpt lat="41.841318" lon="0.517326">
        <ele>327.745</ele>
        <time>2020-08-23T07:48:23Z</time>
      </trkpt>
      <trkpt lat="41.841319" lon="0.517247">
        <ele>327.714</ele>
        <time>2020-08-23T07:48:24Z</time>
      </trkpt>
      <trkpt lat="41.841321" lon="0.517166">
        <ele>327.736</ele>
        <time>2020-08-23T07:48:25Z</time>
      </trkpt>
      <trkpt lat="41.841330" lon="0.517088">
        <ele>327.617</ele>
        <time>2020-08-23T07:48:26Z</time>
      </trkpt>
      <trkpt lat="41.841343" lon="0.517015">
        <ele>327.518</ele>
        <time>2020-08-23T07:48:27Z</time>
      </trkpt>
      <trkpt lat="41.841354" lon="0.516943">
        <ele>327.508</ele>
        <time>2020-08-23T07:48:28Z</time>
      </trkpt>
      <trkpt lat="41.841363" lon="0.516872">
        <ele>327.438</ele>
        <time>2020-08-23T07:48:29Z</time>
      </trkpt>
      <trkpt lat="41.841372" lon="0.516805">
        <ele>327.448</ele>
        <time>2020-08-23T07:48:30Z</time>
      </trkpt>
      <trkpt lat="41.841382" lon="0.516746">
        <ele>327.466</ele>
        <time>2020-08-23T07:48:31Z</time>
      </trkpt>
      <trkpt lat="41.841427" lon="0.516660">
        <ele>327.328</ele>
        <time>2020-08-23T07:48:33Z</time>
      </trkpt>
      <trkpt lat="41.841473" lon="0.516567">
        <ele>327.299</ele>
        <time>2020-08-23T07:48:35Z</time>
      </trkpt>
      <trkpt lat="41.841495" lon="0.516511">
        <ele>327.110</ele>
        <time>2020-08-23T07:48:36Z</time>
      </trkpt>
      <trkpt lat="41.841519" lon="0.516455">
        <ele>326.856</ele>
        <time>2020-08-23T07:48:37Z</time>
      </trkpt>
      <trkpt lat="41.841539" lon="0.516390">
        <ele>326.775</ele>
        <time>2020-08-23T07:48:38Z</time>
      </trkpt>
      <trkpt lat="41.841555" lon="0.516314">
        <ele>326.699</ele>
        <time>2020-08-23T07:48:39Z</time>
      </trkpt>
      <trkpt lat="41.841579" lon="0.516228">
        <ele>326.507</ele>
        <time>2020-08-23T07:48:40Z</time>
      </trkpt>
      <trkpt lat="41.841602" lon="0.516154">
        <ele>326.427</ele>
        <time>2020-08-23T07:48:41Z</time>
      </trkpt>
      <trkpt lat="41.841619" lon="0.516078">
        <ele>326.308</ele>
        <time>2020-08-23T07:48:42Z</time>
      </trkpt>
      <trkpt lat="41.841633" lon="0.516004">
        <ele>326.234</ele>
        <time>2020-08-23T07:48:43Z</time>
      </trkpt>
      <trkpt lat="41.841649" lon="0.515928">
        <ele>326.074</ele>
        <time>2020-08-23T07:48:44Z</time>
      </trkpt>
      <trkpt lat="41.841665" lon="0.515855">
        <ele>325.922</ele>
        <time>2020-08-23T07:48:45Z</time>
      </trkpt>
      <trkpt lat="41.841678" lon="0.515784">
        <ele>325.894</ele>
        <time>2020-08-23T07:48:46Z</time>
      </trkpt>
      <trkpt lat="41.841688" lon="0.515718">
        <ele>325.875</ele>
        <time>2020-08-23T07:48:47Z</time>
      </trkpt>
      <trkpt lat="41.841697" lon="0.515650">
        <ele>325.886</ele>
        <time>2020-08-23T07:48:48Z</time>
      </trkpt>
      <trkpt lat="41.841703" lon="0.515579">
        <ele>325.832</ele>
        <time>2020-08-23T07:48:49Z</time>
      </trkpt>
      <trkpt lat="41.841707" lon="0.515508">
        <ele>325.821</ele>
        <time>2020-08-23T07:48:50Z</time>
      </trkpt>
      <trkpt lat="41.841706" lon="0.515441">
        <ele>325.873</ele>
        <time>2020-08-23T07:48:51Z</time>
      </trkpt>
      <trkpt lat="41.841715" lon="0.515369">
        <ele>325.885</ele>
        <time>2020-08-23T07:48:52Z</time>
      </trkpt>
      <trkpt lat="41.841716" lon="0.515296">
        <ele>325.813</ele>
        <time>2020-08-23T07:48:53Z</time>
      </trkpt>
      <trkpt lat="41.841717" lon="0.515222">
        <ele>325.808</ele>
        <time>2020-08-23T07:48:54Z</time>
      </trkpt>
      <trkpt lat="41.841722" lon="0.515155">
        <ele>325.742</ele>
        <time>2020-08-23T07:48:55Z</time>
      </trkpt>
      <trkpt lat="41.841721" lon="0.515083">
        <ele>325.692</ele>
        <time>2020-08-23T07:48:56Z</time>
      </trkpt>
      <trkpt lat="41.841719" lon="0.515010">
        <ele>325.670</ele>
        <time>2020-08-23T07:48:57Z</time>
      </trkpt>
      <trkpt lat="41.841720" lon="0.514939">
        <ele>325.642</ele>
        <time>2020-08-23T07:48:58Z</time>
      </trkpt>
      <trkpt lat="41.841715" lon="0.514873">
        <ele>325.673</ele>
        <time>2020-08-23T07:48:59Z</time>
      </trkpt>
      <trkpt lat="41.841710" lon="0.514802">
        <ele>325.694</ele>
        <time>2020-08-23T07:49:00Z</time>
      </trkpt>
      <trkpt lat="41.841704" lon="0.514735">
        <ele>325.730</ele>
        <time>2020-08-23T07:49:01Z</time>
      </trkpt>
      <trkpt lat="41.841703" lon="0.514666">
        <ele>325.719</ele>
        <time>2020-08-23T07:49:02Z</time>
      </trkpt>
      <trkpt lat="41.841697" lon="0.514596">
        <ele>325.762</ele>
        <time>2020-08-23T07:49:03Z</time>
      </trkpt>
      <trkpt lat="41.841689" lon="0.514526">
        <ele>325.783</ele>
        <time>2020-08-23T07:49:04Z</time>
      </trkpt>
      <trkpt lat="41.841685" lon="0.514453">
        <ele>325.711</ele>
        <time>2020-08-23T07:49:05Z</time>
      </trkpt>
      <trkpt lat="41.841682" lon="0.514389">
        <ele>325.708</ele>
        <time>2020-08-23T07:49:06Z</time>
      </trkpt>
      <trkpt lat="41.841676" lon="0.514326">
        <ele>325.791</ele>
        <time>2020-08-23T07:49:07Z</time>
      </trkpt>
      <trkpt lat="41.841669" lon="0.514261">
        <ele>325.731</ele>
        <time>2020-08-23T07:49:08Z</time>
      </trkpt>
      <trkpt lat="41.841666" lon="0.514197">
        <ele>325.819</ele>
        <time>2020-08-23T07:49:09Z</time>
      </trkpt>
      <trkpt lat="41.841661" lon="0.514136">
        <ele>325.861</ele>
        <time>2020-08-23T07:49:10Z</time>
      </trkpt>
      <trkpt lat="41.841662" lon="0.514075">
        <ele>325.832</ele>
        <time>2020-08-23T07:49:11Z</time>
      </trkpt>
      <trkpt lat="41.841664" lon="0.514010">
        <ele>325.883</ele>
        <time>2020-08-23T07:49:12Z</time>
      </trkpt>
      <trkpt lat="41.841659" lon="0.513941">
        <ele>325.769</ele>
        <time>2020-08-23T07:49:13Z</time>
      </trkpt>
      <trkpt lat="41.841644" lon="0.513872">
        <ele>325.688</ele>
        <time>2020-08-23T07:49:14Z</time>
      </trkpt>
      <trkpt lat="41.841636" lon="0.513812">
        <ele>325.618</ele>
        <time>2020-08-23T07:49:15Z</time>
      </trkpt>
      <trkpt lat="41.841638" lon="0.513750">
        <ele>325.698</ele>
        <time>2020-08-23T07:49:16Z</time>
      </trkpt>
      <trkpt lat="41.841636" lon="0.513682">
        <ele>325.517</ele>
        <time>2020-08-23T07:49:17Z</time>
      </trkpt>
      <trkpt lat="41.841624" lon="0.513605">
        <ele>325.408</ele>
        <time>2020-08-23T07:49:18Z</time>
      </trkpt>
      <trkpt lat="41.841630" lon="0.513526">
        <ele>325.356</ele>
        <time>2020-08-23T07:49:19Z</time>
      </trkpt>
      <trkpt lat="41.841637" lon="0.513450">
        <ele>325.286</ele>
        <time>2020-08-23T07:49:20Z</time>
      </trkpt>
      <trkpt lat="41.841654" lon="0.513381">
        <ele>325.074</ele>
        <time>2020-08-23T07:49:21Z</time>
      </trkpt>
      <trkpt lat="41.841685" lon="0.513312">
        <ele>324.936</ele>
        <time>2020-08-23T07:49:22Z</time>
      </trkpt>
      <trkpt lat="41.841714" lon="0.513242">
        <ele>324.877</ele>
        <time>2020-08-23T07:49:23Z</time>
      </trkpt>
      <trkpt lat="41.841730" lon="0.513181">
        <ele>324.798</ele>
        <time>2020-08-23T07:49:24Z</time>
      </trkpt>
      <trkpt lat="41.841758" lon="0.513117">
        <ele>324.614</ele>
        <time>2020-08-23T07:49:25Z</time>
      </trkpt>
      <trkpt lat="41.841798" lon="0.513038">
        <ele>324.583</ele>
        <time>2020-08-23T07:49:26Z</time>
      </trkpt>
      <trkpt lat="41.841834" lon="0.512970">
        <ele>324.469</ele>
        <time>2020-08-23T07:49:27Z</time>
      </trkpt>
      <trkpt lat="41.841868" lon="0.512910">
        <ele>324.304</ele>
        <time>2020-08-23T07:49:28Z</time>
      </trkpt>
      <trkpt lat="41.841894" lon="0.512851">
        <ele>324.324</ele>
        <time>2020-08-23T07:49:29Z</time>
      </trkpt>
      <trkpt lat="41.841917" lon="0.512789">
        <ele>324.208</ele>
        <time>2020-08-23T07:49:30Z</time>
      </trkpt>
      <trkpt lat="41.841935" lon="0.512729">
        <ele>324.181</ele>
        <time>2020-08-23T07:49:31Z</time>
      </trkpt>
      <trkpt lat="41.841951" lon="0.512665">
        <ele>324.051</ele>
        <time>2020-08-23T07:49:32Z</time>
      </trkpt>
      <trkpt lat="41.841971" lon="0.512603">
        <ele>324.049</ele>
        <time>2020-08-23T07:49:33Z</time>
      </trkpt>
      <trkpt lat="41.841989" lon="0.512538">
        <ele>323.911</ele>
        <time>2020-08-23T07:49:34Z</time>
      </trkpt>
      <trkpt lat="41.841995" lon="0.512467">
        <ele>323.972</ele>
        <time>2020-08-23T07:49:35Z</time>
      </trkpt>
      <trkpt lat="41.842013" lon="0.512401">
        <ele>323.983</ele>
        <time>2020-08-23T07:49:36Z</time>
      </trkpt>
      <trkpt lat="41.842028" lon="0.512330">
        <ele>323.919</ele>
        <time>2020-08-23T07:49:37Z</time>
      </trkpt>
      <trkpt lat="41.842040" lon="0.512259">
        <ele>323.978</ele>
        <time>2020-08-23T07:49:38Z</time>
      </trkpt>
      <trkpt lat="41.842054" lon="0.512183">
        <ele>323.959</ele>
        <time>2020-08-23T07:49:39Z</time>
      </trkpt>
      <trkpt lat="41.842063" lon="0.512108">
        <ele>323.903</ele>
        <time>2020-08-23T07:49:40Z</time>
      </trkpt>
      <trkpt lat="41.842076" lon="0.512032">
        <ele>323.923</ele>
        <time>2020-08-23T07:49:41Z</time>
      </trkpt>
      <trkpt lat="41.842084" lon="0.511954">
        <ele>323.908</ele>
        <time>2020-08-23T07:49:42Z</time>
      </trkpt>
      <trkpt lat="41.842094" lon="0.511872">
        <ele>323.920</ele>
        <time>2020-08-23T07:49:43Z</time>
      </trkpt>
      <trkpt lat="41.842099" lon="0.511801">
        <ele>323.960</ele>
        <time>2020-08-23T07:49:44Z</time>
      </trkpt>
      <trkpt lat="41.842102" lon="0.511736">
        <ele>323.978</ele>
        <time>2020-08-23T07:49:45Z</time>
      </trkpt>
      <trkpt lat="41.842104" lon="0.511671">
        <ele>324.090</ele>
        <time>2020-08-23T07:49:46Z</time>
      </trkpt>
      <trkpt lat="41.842102" lon="0.511609">
        <ele>324.081</ele>
        <time>2020-08-23T07:49:47Z</time>
      </trkpt>
      <trkpt lat="41.842081" lon="0.511500">
        <ele>324.172</ele>
        <time>2020-08-23T07:49:49Z</time>
      </trkpt>
      <trkpt lat="41.842082" lon="0.511393">
        <ele>324.218</ele>
        <time>2020-08-23T07:49:51Z</time>
      </trkpt>
      <trkpt lat="41.842091" lon="0.511331">
        <ele>324.367</ele>
        <time>2020-08-23T07:49:52Z</time>
      </trkpt>
      <trkpt lat="41.842102" lon="0.511269">
        <ele>324.351</ele>
        <time>2020-08-23T07:49:53Z</time>
      </trkpt>
      <trkpt lat="41.842116" lon="0.511202">
        <ele>324.301</ele>
        <time>2020-08-23T07:49:54Z</time>
      </trkpt>
      <trkpt lat="41.842133" lon="0.511134">
        <ele>324.311</ele>
        <time>2020-08-23T07:49:55Z</time>
      </trkpt>
      <trkpt lat="41.842151" lon="0.511067">
        <ele>324.208</ele>
        <time>2020-08-23T07:49:56Z</time>
      </trkpt>
      <trkpt lat="41.842170" lon="0.510990">
        <ele>324.150</ele>
        <time>2020-08-23T07:49:57Z</time>
      </trkpt>
      <trkpt lat="41.842188" lon="0.510902">
        <ele>323.910</ele>
        <time>2020-08-23T07:49:58Z</time>
      </trkpt>
      <trkpt lat="41.842206" lon="0.510813">
        <ele>323.778</ele>
        <time>2020-08-23T07:49:59Z</time>
      </trkpt>
      <trkpt lat="41.842224" lon="0.510735">
        <ele>323.470</ele>
        <time>2020-08-23T07:50:00Z</time>
      </trkpt>
      <trkpt lat="41.842247" lon="0.510658">
        <ele>323.181</ele>
        <time>2020-08-23T07:50:01Z</time>
      </trkpt>
      <trkpt lat="41.842272" lon="0.510580">
        <ele>322.912</ele>
        <time>2020-08-23T07:50:02Z</time>
      </trkpt>
      <trkpt lat="41.842297" lon="0.510510">
        <ele>322.718</ele>
        <time>2020-08-23T07:50:03Z</time>
      </trkpt>
      <trkpt lat="41.842323" lon="0.510445">
        <ele>322.517</ele>
        <time>2020-08-23T07:50:04Z</time>
      </trkpt>
      <trkpt lat="41.842350" lon="0.510380">
        <ele>322.357</ele>
        <time>2020-08-23T07:50:05Z</time>
      </trkpt>
      <trkpt lat="41.842378" lon="0.510309">
        <ele>322.000</ele>
        <time>2020-08-23T07:50:06Z</time>
      </trkpt>
      <trkpt lat="41.842399" lon="0.510230">
        <ele>321.820</ele>
        <time>2020-08-23T07:50:07Z</time>
      </trkpt>
      <trkpt lat="41.842419" lon="0.510155">
        <ele>321.708</ele>
        <time>2020-08-23T07:50:08Z</time>
      </trkpt>
      <trkpt lat="41.842441" lon="0.510076">
        <ele>321.650</ele>
        <time>2020-08-23T07:50:09Z</time>
      </trkpt>
      <trkpt lat="41.842467" lon="0.509999">
        <ele>321.520</ele>
        <time>2020-08-23T07:50:10Z</time>
      </trkpt>
      <trkpt lat="41.842491" lon="0.509917">
        <ele>321.488</ele>
        <time>2020-08-23T07:50:11Z</time>
      </trkpt>
      <trkpt lat="41.842521" lon="0.509837">
        <ele>321.320</ele>
        <time>2020-08-23T07:50:12Z</time>
      </trkpt>
      <trkpt lat="41.842550" lon="0.509758">
        <ele>321.251</ele>
        <time>2020-08-23T07:50:13Z</time>
      </trkpt>
      <trkpt lat="41.842570" lon="0.509668">
        <ele>321.132</ele>
        <time>2020-08-23T07:50:14Z</time>
      </trkpt>
      <trkpt lat="41.842599" lon="0.509582">
        <ele>321.048</ele>
        <time>2020-08-23T07:50:15Z</time>
      </trkpt>
      <trkpt lat="41.842625" lon="0.509491">
        <ele>321.047</ele>
        <time>2020-08-23T07:50:16Z</time>
      </trkpt>
      <trkpt lat="41.842652" lon="0.509409">
        <ele>321.033</ele>
        <time>2020-08-23T07:50:17Z</time>
      </trkpt>
      <trkpt lat="41.842674" lon="0.509336">
        <ele>321.023</ele>
        <time>2020-08-23T07:50:18Z</time>
      </trkpt>
      <trkpt lat="41.842694" lon="0.509258">
        <ele>320.915</ele>
        <time>2020-08-23T07:50:19Z</time>
      </trkpt>
      <trkpt lat="41.842714" lon="0.509177">
        <ele>320.908</ele>
        <time>2020-08-23T07:50:20Z</time>
      </trkpt>
      <trkpt lat="41.842736" lon="0.509101">
        <ele>320.858</ele>
        <time>2020-08-23T07:50:21Z</time>
      </trkpt>
      <trkpt lat="41.842758" lon="0.509029">
        <ele>320.878</ele>
        <time>2020-08-23T07:50:22Z</time>
      </trkpt>
      <trkpt lat="41.842769" lon="0.508957">
        <ele>320.896</ele>
        <time>2020-08-23T07:50:23Z</time>
      </trkpt>
      <trkpt lat="41.842778" lon="0.508884">
        <ele>320.868</ele>
        <time>2020-08-23T07:50:24Z</time>
      </trkpt>
      <trkpt lat="41.842780" lon="0.508810">
        <ele>320.929</ele>
        <time>2020-08-23T07:50:25Z</time>
      </trkpt>
      <trkpt lat="41.842785" lon="0.508743">
        <ele>320.910</ele>
        <time>2020-08-23T07:50:26Z</time>
      </trkpt>
      <trkpt lat="41.842794" lon="0.508681">
        <ele>321.026</ele>
        <time>2020-08-23T07:50:27Z</time>
      </trkpt>
      <trkpt lat="41.842800" lon="0.508610">
        <ele>321.015</ele>
        <time>2020-08-23T07:50:28Z</time>
      </trkpt>
      <trkpt lat="41.842805" lon="0.508542">
        <ele>321.081</ele>
        <time>2020-08-23T07:50:29Z</time>
      </trkpt>
      <trkpt lat="41.842805" lon="0.508477">
        <ele>321.061</ele>
        <time>2020-08-23T07:50:30Z</time>
      </trkpt>
      <trkpt lat="41.842803" lon="0.508410">
        <ele>321.017</ele>
        <time>2020-08-23T07:50:31Z</time>
      </trkpt>
      <trkpt lat="41.842806" lon="0.508332">
        <ele>321.008</ele>
        <time>2020-08-23T07:50:32Z</time>
      </trkpt>
      <trkpt lat="41.842804" lon="0.508263">
        <ele>321.093</ele>
        <time>2020-08-23T07:50:33Z</time>
      </trkpt>
      <trkpt lat="41.842804" lon="0.508198">
        <ele>321.083</ele>
        <time>2020-08-23T07:50:34Z</time>
      </trkpt>
      <trkpt lat="41.842811" lon="0.508124">
        <ele>321.081</ele>
        <time>2020-08-23T07:50:35Z</time>
      </trkpt>
      <trkpt lat="41.842814" lon="0.508050">
        <ele>321.083</ele>
        <time>2020-08-23T07:50:36Z</time>
      </trkpt>
      <trkpt lat="41.842815" lon="0.507976">
        <ele>321.074</ele>
        <time>2020-08-23T07:50:37Z</time>
      </trkpt>
      <trkpt lat="41.842819" lon="0.507907">
        <ele>321.035</ele>
        <time>2020-08-23T07:50:38Z</time>
      </trkpt>
      <trkpt lat="41.842822" lon="0.507845">
        <ele>321.091</ele>
        <time>2020-08-23T07:50:39Z</time>
      </trkpt>
      <trkpt lat="41.842830" lon="0.507782">
        <ele>321.030</ele>
        <time>2020-08-23T07:50:40Z</time>
      </trkpt>
      <trkpt lat="41.842836" lon="0.507714">
        <ele>321.017</ele>
        <time>2020-08-23T07:50:41Z</time>
      </trkpt>
      <trkpt lat="41.842831" lon="0.507644">
        <ele>321.087</ele>
        <time>2020-08-23T07:50:42Z</time>
      </trkpt>
      <trkpt lat="41.842830" lon="0.507574">
        <ele>321.015</ele>
        <time>2020-08-23T07:50:43Z</time>
      </trkpt>
      <trkpt lat="41.842826" lon="0.507505">
        <ele>321.008</ele>
        <time>2020-08-23T07:50:44Z</time>
      </trkpt>
      <trkpt lat="41.842817" lon="0.507431">
        <ele>321.036</ele>
        <time>2020-08-23T07:50:45Z</time>
      </trkpt>
      <trkpt lat="41.842814" lon="0.507358">
        <ele>321.096</ele>
        <time>2020-08-23T07:50:46Z</time>
      </trkpt>
      <trkpt lat="41.842811" lon="0.507296">
        <ele>321.034</ele>
        <time>2020-08-23T07:50:47Z</time>
      </trkpt>
      <trkpt lat="41.842810" lon="0.507235">
        <ele>321.086</ele>
        <time>2020-08-23T07:50:48Z</time>
      </trkpt>
      <trkpt lat="41.842805" lon="0.507173">
        <ele>321.017</ele>
        <time>2020-08-23T07:50:49Z</time>
      </trkpt>
      <trkpt lat="41.842799" lon="0.507104">
        <ele>321.038</ele>
        <time>2020-08-23T07:50:50Z</time>
      </trkpt>
      <trkpt lat="41.842791" lon="0.507033">
        <ele>321.154</ele>
        <time>2020-08-23T07:50:51Z</time>
      </trkpt>
      <trkpt lat="41.842788" lon="0.506958">
        <ele>321.263</ele>
        <time>2020-08-23T07:50:52Z</time>
      </trkpt>
      <trkpt lat="41.842782" lon="0.506892">
        <ele>321.385</ele>
        <time>2020-08-23T07:50:53Z</time>
      </trkpt>
      <trkpt lat="41.842787" lon="0.506825">
        <ele>321.489</ele>
        <time>2020-08-23T07:50:54Z</time>
      </trkpt>
      <trkpt lat="41.842798" lon="0.506760">
        <ele>321.517</ele>
        <time>2020-08-23T07:50:55Z</time>
      </trkpt>
      <trkpt lat="41.842814" lon="0.506703">
        <ele>321.608</ele>
        <time>2020-08-23T07:50:56Z</time>
      </trkpt>
      <trkpt lat="41.842840" lon="0.506592">
        <ele>321.763</ele>
        <time>2020-08-23T07:50:58Z</time>
      </trkpt>
      <trkpt lat="41.842876" lon="0.506487">
        <ele>321.963</ele>
        <time>2020-08-23T07:51:00Z</time>
      </trkpt>
      <trkpt lat="41.842911" lon="0.506397">
        <ele>322.151</ele>
        <time>2020-08-23T07:51:02Z</time>
      </trkpt>
      <trkpt lat="41.842932" lon="0.506303">
        <ele>322.473</ele>
        <time>2020-08-23T07:51:04Z</time>
      </trkpt>
      <trkpt lat="41.842956" lon="0.506218">
        <ele>322.674</ele>
        <time>2020-08-23T07:51:06Z</time>
      </trkpt>
      <trkpt lat="41.842998" lon="0.506120">
        <ele>322.725</ele>
        <time>2020-08-23T07:51:08Z</time>
      </trkpt>
      <trkpt lat="41.843033" lon="0.506012">
        <ele>322.641</ele>
        <time>2020-08-23T07:51:10Z</time>
      </trkpt>
      <trkpt lat="41.843048" lon="0.505947">
        <ele>322.530</ele>
        <time>2020-08-23T07:51:11Z</time>
      </trkpt>
      <trkpt lat="41.843059" lon="0.505872">
        <ele>322.457</ele>
        <time>2020-08-23T07:51:12Z</time>
      </trkpt>
      <trkpt lat="41.843069" lon="0.505796">
        <ele>322.300</ele>
        <time>2020-08-23T07:51:13Z</time>
      </trkpt>
      <trkpt lat="41.843085" lon="0.505719">
        <ele>322.220</ele>
        <time>2020-08-23T07:51:14Z</time>
      </trkpt>
      <trkpt lat="41.843103" lon="0.505640">
        <ele>322.108</ele>
        <time>2020-08-23T07:51:15Z</time>
      </trkpt>
      <trkpt lat="41.843112" lon="0.505560">
        <ele>322.170</ele>
        <time>2020-08-23T07:51:16Z</time>
      </trkpt>
      <trkpt lat="41.843124" lon="0.505484">
        <ele>322.140</ele>
        <time>2020-08-23T07:51:17Z</time>
      </trkpt>
      <trkpt lat="41.843133" lon="0.505411">
        <ele>322.078</ele>
        <time>2020-08-23T07:51:18Z</time>
      </trkpt>
      <trkpt lat="41.843134" lon="0.505333">
        <ele>322.090</ele>
        <time>2020-08-23T07:51:19Z</time>
      </trkpt>
      <trkpt lat="41.843140" lon="0.505263">
        <ele>322.091</ele>
        <time>2020-08-23T07:51:20Z</time>
      </trkpt>
      <trkpt lat="41.843149" lon="0.505143">
        <ele>322.052</ele>
        <time>2020-08-23T07:51:22Z</time>
      </trkpt>
      <trkpt lat="41.843155" lon="0.505076">
        <ele>322.038</ele>
        <time>2020-08-23T07:51:23Z</time>
      </trkpt>
      <trkpt lat="41.843159" lon="0.505014">
        <ele>322.047</ele>
        <time>2020-08-23T07:51:24Z</time>
      </trkpt>
      <trkpt lat="41.843166" lon="0.504953">
        <ele>321.923</ele>
        <time>2020-08-23T07:51:25Z</time>
      </trkpt>
      <trkpt lat="41.843173" lon="0.504883">
        <ele>321.883</ele>
        <time>2020-08-23T07:51:26Z</time>
      </trkpt>
      <trkpt lat="41.843181" lon="0.504818">
        <ele>321.711</ele>
        <time>2020-08-23T07:51:27Z</time>
      </trkpt>
      <trkpt lat="41.843206" lon="0.504708">
        <ele>321.608</ele>
        <time>2020-08-23T07:51:29Z</time>
      </trkpt>
      <trkpt lat="41.843218" lon="0.504648">
        <ele>321.687</ele>
        <time>2020-08-23T07:51:30Z</time>
      </trkpt>
      <trkpt lat="41.843225" lon="0.504578">
        <ele>321.567</ele>
        <time>2020-08-23T07:51:31Z</time>
      </trkpt>
      <trkpt lat="41.843225" lon="0.504504">
        <ele>321.525</ele>
        <time>2020-08-23T07:51:32Z</time>
      </trkpt>
      <trkpt lat="41.843229" lon="0.504436">
        <ele>321.567</ele>
        <time>2020-08-23T07:51:33Z</time>
      </trkpt>
      <trkpt lat="41.843228" lon="0.504371">
        <ele>321.568</ele>
        <time>2020-08-23T07:51:34Z</time>
      </trkpt>
      <trkpt lat="41.843229" lon="0.504308">
        <ele>321.459</ele>
        <time>2020-08-23T07:51:35Z</time>
      </trkpt>
      <trkpt lat="41.843232" lon="0.504246">
        <ele>321.425</ele>
        <time>2020-08-23T07:51:36Z</time>
      </trkpt>
      <trkpt lat="41.843232" lon="0.504179">
        <ele>321.434</ele>
        <time>2020-08-23T07:51:37Z</time>
      </trkpt>
      <trkpt lat="41.843227" lon="0.504110">
        <ele>321.425</ele>
        <time>2020-08-23T07:51:38Z</time>
      </trkpt>
      <trkpt lat="41.843217" lon="0.504037">
        <ele>321.426</ele>
        <time>2020-08-23T07:51:39Z</time>
      </trkpt>
      <trkpt lat="41.843212" lon="0.503967">
        <ele>321.408</ele>
        <time>2020-08-23T07:51:40Z</time>
      </trkpt>
      <trkpt lat="41.843207" lon="0.503897">
        <ele>321.408</ele>
        <time>2020-08-23T07:51:41Z</time>
      </trkpt>
      <trkpt lat="41.843202" lon="0.503825">
        <ele>321.437</ele>
        <time>2020-08-23T07:51:42Z</time>
      </trkpt>
      <trkpt lat="41.843206" lon="0.503704">
        <ele>321.497</ele>
        <time>2020-08-23T07:51:44Z</time>
      </trkpt>
      <trkpt lat="41.843209" lon="0.503641">
        <ele>321.445</ele>
        <time>2020-08-23T07:51:45Z</time>
      </trkpt>
      <trkpt lat="41.843218" lon="0.503564">
        <ele>321.457</ele>
        <time>2020-08-23T07:51:46Z</time>
      </trkpt>
      <trkpt lat="41.843222" lon="0.503488">
        <ele>321.438</ele>
        <time>2020-08-23T07:51:47Z</time>
      </trkpt>
      <trkpt lat="41.843229" lon="0.503368">
        <ele>321.539</ele>
        <time>2020-08-23T07:51:49Z</time>
      </trkpt>
      <trkpt lat="41.843239" lon="0.503260">
        <ele>321.635</ele>
        <time>2020-08-23T07:51:51Z</time>
      </trkpt>
      <trkpt lat="41.843242" lon="0.503185">
        <ele>321.964</ele>
        <time>2020-08-23T07:51:53Z</time>
      </trkpt>
      <trkpt lat="41.843235" lon="0.503105">
        <ele>322.736</ele>
        <time>2020-08-23T07:51:55Z</time>
      </trkpt>
      <trkpt lat="41.843224" lon="0.503037">
        <ele>323.317</ele>
        <time>2020-08-23T07:51:57Z</time>
      </trkpt>
      <trkpt lat="41.843214" lon="0.502946">
        <ele>323.618</ele>
        <time>2020-08-23T07:51:59Z</time>
      </trkpt>
      <trkpt lat="41.843208" lon="0.502869">
        <ele>323.708</ele>
        <time>2020-08-23T07:52:01Z</time>
      </trkpt>
      <trkpt lat="41.843199" lon="0.502783">
        <ele>323.778</ele>
        <time>2020-08-23T07:52:03Z</time>
      </trkpt>
      <trkpt lat="41.843197" lon="0.502693">
        <ele>323.838</ele>
        <time>2020-08-23T07:52:05Z</time>
      </trkpt>
      <trkpt lat="41.843196" lon="0.502607">
        <ele>323.986</ele>
        <time>2020-08-23T07:52:07Z</time>
      </trkpt>
      <trkpt lat="41.843199" lon="0.502507">
        <ele>323.848</ele>
        <time>2020-08-23T07:52:09Z</time>
      </trkpt>
      <trkpt lat="41.843211" lon="0.502426">
        <ele>323.399</ele>
        <time>2020-08-23T07:52:11Z</time>
      </trkpt>
      <trkpt lat="41.843213" lon="0.502295">
        <ele>322.350</ele>
        <time>2020-08-23T07:52:13Z</time>
      </trkpt>
      <trkpt lat="41.843212" lon="0.502225">
        <ele>322.016</ele>
        <time>2020-08-23T07:52:14Z</time>
      </trkpt>
      <trkpt lat="41.843216" lon="0.502149">
        <ele>321.695</ele>
        <time>2020-08-23T07:52:15Z</time>
      </trkpt>
      <trkpt lat="41.843220" lon="0.502064">
        <ele>321.265</ele>
        <time>2020-08-23T07:52:16Z</time>
      </trkpt>
      <trkpt lat="41.843218" lon="0.501968">
        <ele>320.868</ele>
        <time>2020-08-23T07:52:17Z</time>
      </trkpt>
      <trkpt lat="41.843217" lon="0.501868">
        <ele>320.414</ele>
        <time>2020-08-23T07:52:18Z</time>
      </trkpt>
      <trkpt lat="41.843219" lon="0.501770">
        <ele>320.008</ele>
        <time>2020-08-23T07:52:19Z</time>
      </trkpt>
      <trkpt lat="41.843217" lon="0.501678">
        <ele>319.671</ele>
        <time>2020-08-23T07:52:20Z</time>
      </trkpt>
      <trkpt lat="41.843214" lon="0.501597">
        <ele>319.231</ele>
        <time>2020-08-23T07:52:21Z</time>
      </trkpt>
      <trkpt lat="41.843211" lon="0.501519">
        <ele>318.889</ele>
        <time>2020-08-23T07:52:22Z</time>
      </trkpt>
      <trkpt lat="41.843204" lon="0.501411">
        <ele>318.451</ele>
        <time>2020-08-23T07:52:23Z</time>
      </trkpt>
      <trkpt lat="41.843203" lon="0.501309">
        <ele>317.912</ele>
        <time>2020-08-23T07:52:24Z</time>
      </trkpt>
      <trkpt lat="41.843201" lon="0.501221">
        <ele>317.623</ele>
        <time>2020-08-23T07:52:25Z</time>
      </trkpt>
      <trkpt lat="41.843192" lon="0.501127">
        <ele>317.389</ele>
        <time>2020-08-23T07:52:26Z</time>
      </trkpt>
      <trkpt lat="41.843187" lon="0.501047">
        <ele>317.048</ele>
        <time>2020-08-23T07:52:27Z</time>
      </trkpt>
      <trkpt lat="41.843186" lon="0.500956">
        <ele>316.767</ele>
        <time>2020-08-23T07:52:28Z</time>
      </trkpt>
      <trkpt lat="41.843185" lon="0.500880">
        <ele>316.581</ele>
        <time>2020-08-23T07:52:29Z</time>
      </trkpt>
      <trkpt lat="41.843181" lon="0.500804">
        <ele>316.419</ele>
        <time>2020-08-23T07:52:30Z</time>
      </trkpt>
      <trkpt lat="41.843182" lon="0.500724">
        <ele>316.208</ele>
        <time>2020-08-23T07:52:31Z</time>
      </trkpt>
      <trkpt lat="41.843181" lon="0.500649">
        <ele>316.261</ele>
        <time>2020-08-23T07:52:32Z</time>
      </trkpt>
      <trkpt lat="41.843178" lon="0.500576">
        <ele>316.271</ele>
        <time>2020-08-23T07:52:33Z</time>
      </trkpt>
      <trkpt lat="41.843174" lon="0.500495">
        <ele>316.249</ele>
        <time>2020-08-23T07:52:34Z</time>
      </trkpt>
      <trkpt lat="41.843169" lon="0.500408">
        <ele>316.161</ele>
        <time>2020-08-23T07:52:35Z</time>
      </trkpt>
      <trkpt lat="41.843164" lon="0.500320">
        <ele>316.052</ele>
        <time>2020-08-23T07:52:36Z</time>
      </trkpt>
      <trkpt lat="41.843154" lon="0.500237">
        <ele>315.923</ele>
        <time>2020-08-23T07:52:37Z</time>
      </trkpt>
      <trkpt lat="41.843148" lon="0.500170">
        <ele>315.849</ele>
        <time>2020-08-23T07:52:38Z</time>
      </trkpt>
      <trkpt lat="41.843148" lon="0.500106">
        <ele>315.798</ele>
        <time>2020-08-23T07:52:39Z</time>
      </trkpt>
      <trkpt lat="41.843138" lon="0.500032">
        <ele>315.633</ele>
        <time>2020-08-23T07:52:40Z</time>
      </trkpt>
      <trkpt lat="41.843131" lon="0.499968">
        <ele>315.623</ele>
        <time>2020-08-23T07:52:41Z</time>
      </trkpt>
      <trkpt lat="41.843131" lon="0.499857">
        <ele>315.615</ele>
        <time>2020-08-23T07:52:43Z</time>
      </trkpt>
      <trkpt lat="41.843126" lon="0.499737">
        <ele>315.608</ele>
        <time>2020-08-23T07:52:45Z</time>
      </trkpt>
      <trkpt lat="41.843116" lon="0.499669">
        <ele>315.688</ele>
        <time>2020-08-23T07:52:46Z</time>
      </trkpt>
      <trkpt lat="41.843105" lon="0.499598">
        <ele>315.648</ele>
        <time>2020-08-23T07:52:47Z</time>
      </trkpt>
      <trkpt lat="41.843089" lon="0.499533">
        <ele>315.626</ele>
        <time>2020-08-23T07:52:48Z</time>
      </trkpt>
      <trkpt lat="41.843073" lon="0.499464">
        <ele>315.618</ele>
        <time>2020-08-23T07:52:49Z</time>
      </trkpt>
      <trkpt lat="41.843054" lon="0.499398">
        <ele>315.629</ele>
        <time>2020-08-23T07:52:50Z</time>
      </trkpt>
      <trkpt lat="41.843043" lon="0.499330">
        <ele>315.690</ele>
        <time>2020-08-23T07:52:51Z</time>
      </trkpt>
      <trkpt lat="41.843033" lon="0.499262">
        <ele>315.676</ele>
        <time>2020-08-23T07:52:52Z</time>
      </trkpt>
      <trkpt lat="41.843015" lon="0.499149">
        <ele>315.775</ele>
        <time>2020-08-23T07:52:54Z</time>
      </trkpt>
      <trkpt lat="41.843006" lon="0.499087">
        <ele>315.844</ele>
        <time>2020-08-23T07:52:55Z</time>
      </trkpt>
      <trkpt lat="41.842981" lon="0.498968">
        <ele>315.905</ele>
        <time>2020-08-23T07:52:57Z</time>
      </trkpt>
      <trkpt lat="41.842929" lon="0.498864">
        <ele>316.115</ele>
        <time>2020-08-23T07:52:59Z</time>
      </trkpt>
      <trkpt lat="41.842901" lon="0.498811">
        <ele>316.208</ele>
        <time>2020-08-23T07:53:00Z</time>
      </trkpt>
      <trkpt lat="41.842851" lon="0.498719">
        <ele>316.439</ele>
        <time>2020-08-23T07:53:02Z</time>
      </trkpt>
      <trkpt lat="41.842821" lon="0.498672">
        <ele>316.549</ele>
        <time>2020-08-23T07:53:03Z</time>
      </trkpt>
      <trkpt lat="41.842768" lon="0.498574">
        <ele>316.797</ele>
        <time>2020-08-23T07:53:05Z</time>
      </trkpt>
      <trkpt lat="41.842735" lon="0.498508">
        <ele>316.839</ele>
        <time>2020-08-23T07:53:06Z</time>
      </trkpt>
      <trkpt lat="41.842703" lon="0.498435">
        <ele>316.830</ele>
        <time>2020-08-23T07:53:07Z</time>
      </trkpt>
      <trkpt lat="41.842683" lon="0.498379">
        <ele>316.881</ele>
        <time>2020-08-23T07:53:08Z</time>
      </trkpt>
      <trkpt lat="41.842634" lon="0.498276">
        <ele>316.967</ele>
        <time>2020-08-23T07:53:10Z</time>
      </trkpt>
      <trkpt lat="41.842605" lon="0.498212">
        <ele>316.936</ele>
        <time>2020-08-23T07:53:11Z</time>
      </trkpt>
      <trkpt lat="41.842581" lon="0.498114">
        <ele>317.019</ele>
        <time>2020-08-23T07:53:13Z</time>
      </trkpt>
      <trkpt lat="41.842571" lon="0.498000">
        <ele>317.109</ele>
        <time>2020-08-23T07:53:15Z</time>
      </trkpt>
      <trkpt lat="41.842575" lon="0.497940">
        <ele>317.219</ele>
        <time>2020-08-23T07:53:16Z</time>
      </trkpt>
      <trkpt lat="41.842597" lon="0.497830">
        <ele>317.408</ele>
        <time>2020-08-23T07:53:18Z</time>
      </trkpt>
      <trkpt lat="41.842628" lon="0.497745">
        <ele>317.716</ele>
        <time>2020-08-23T07:53:20Z</time>
      </trkpt>
      <trkpt lat="41.842653" lon="0.497659">
        <ele>318.076</ele>
        <time>2020-08-23T07:53:22Z</time>
      </trkpt>
      <trkpt lat="41.842674" lon="0.497577">
        <ele>318.394</ele>
        <time>2020-08-23T07:53:24Z</time>
      </trkpt>
      <trkpt lat="41.842694" lon="0.497499">
        <ele>318.716</ele>
        <time>2020-08-23T07:53:26Z</time>
      </trkpt>
      <trkpt lat="41.842717" lon="0.497419">
        <ele>319.087</ele>
        <time>2020-08-23T07:53:28Z</time>
      </trkpt>
      <trkpt lat="41.842739" lon="0.497332">
        <ele>319.348</ele>
        <time>2020-08-23T07:53:30Z</time>
      </trkpt>
      <trkpt lat="41.842757" lon="0.497253">
        <ele>319.624</ele>
        <time>2020-08-23T07:53:32Z</time>
      </trkpt>
      <trkpt lat="41.842781" lon="0.497168">
        <ele>319.833</ele>
        <time>2020-08-23T07:53:34Z</time>
      </trkpt>
      <trkpt lat="41.842790" lon="0.497072">
        <ele>320.195</ele>
        <time>2020-08-23T07:53:36Z</time>
      </trkpt>
      <trkpt lat="41.842807" lon="0.496984">
        <ele>320.349</ele>
        <time>2020-08-23T07:53:38Z</time>
      </trkpt>
      <trkpt lat="41.842820" lon="0.496906">
        <ele>320.523</ele>
        <time>2020-08-23T07:53:40Z</time>
      </trkpt>
      <trkpt lat="41.842848" lon="0.496837">
        <ele>320.608</ele>
        <time>2020-08-23T07:53:42Z</time>
      </trkpt>
      <trkpt lat="41.842872" lon="0.496740">
        <ele>320.944</ele>
        <time>2020-08-23T07:53:45Z</time>
      </trkpt>
      <trkpt lat="41.842881" lon="0.496639">
        <ele>321.194</ele>
        <time>2020-08-23T07:53:47Z</time>
      </trkpt>
      <trkpt lat="41.842883" lon="0.496536">
        <ele>321.392</ele>
        <time>2020-08-23T07:53:49Z</time>
      </trkpt>
      <trkpt lat="41.842898" lon="0.496435">
        <ele>321.524</ele>
        <time>2020-08-23T07:53:51Z</time>
      </trkpt>
      <trkpt lat="41.842912" lon="0.496345">
        <ele>321.645</ele>
        <time>2020-08-23T07:53:53Z</time>
      </trkpt>
      <trkpt lat="41.842940" lon="0.496276">
        <ele>321.696</ele>
        <time>2020-08-23T07:53:55Z</time>
      </trkpt>
      <trkpt lat="41.843002" lon="0.496249">
        <ele>321.692</ele>
        <time>2020-08-23T07:53:57Z</time>
      </trkpt>
      <trkpt lat="41.843060" lon="0.496239">
        <ele>321.741</ele>
        <time>2020-08-23T07:53:59Z</time>
      </trkpt>
      <trkpt lat="41.843132" lon="0.496238">
        <ele>322.075</ele>
        <time>2020-08-23T07:54:01Z</time>
      </trkpt>
      <trkpt lat="41.843197" lon="0.496264">
        <ele>322.328</ele>
        <time>2020-08-23T07:54:03Z</time>
      </trkpt>
      <trkpt lat="41.843249" lon="0.496300">
        <ele>322.720</ele>
        <time>2020-08-23T07:54:05Z</time>
      </trkpt>
      <trkpt lat="41.843309" lon="0.496331">
        <ele>323.108</ele>
        <time>2020-08-23T07:54:07Z</time>
      </trkpt>
      <trkpt lat="41.843368" lon="0.496333">
        <ele>323.482</ele>
        <time>2020-08-23T07:54:09Z</time>
      </trkpt>
      <trkpt lat="41.843433" lon="0.496333">
        <ele>323.722</ele>
        <time>2020-08-23T07:54:11Z</time>
      </trkpt>
      <trkpt lat="41.843487" lon="0.496326">
        <ele>323.940</ele>
        <time>2020-08-23T07:54:13Z</time>
      </trkpt>
      <trkpt lat="41.843544" lon="0.496309">
        <ele>324.152</ele>
        <time>2020-08-23T07:54:15Z</time>
      </trkpt>
      <trkpt lat="41.843591" lon="0.496278">
        <ele>324.483</ele>
        <time>2020-08-23T07:54:17Z</time>
      </trkpt>
      <trkpt lat="41.843625" lon="0.496227">
        <ele>324.744</ele>
        <time>2020-08-23T07:54:19Z</time>
      </trkpt>
      <trkpt lat="41.843652" lon="0.496165">
        <ele>325.190</ele>
        <time>2020-08-23T07:54:21Z</time>
      </trkpt>
      <trkpt lat="41.843673" lon="0.496075">
        <ele>325.229</ele>
        <time>2020-08-23T07:54:23Z</time>
      </trkpt>
      <trkpt lat="41.843699" lon="0.495982">
        <ele>325.212</ele>
        <time>2020-08-23T07:54:25Z</time>
      </trkpt>
      <trkpt lat="41.843724" lon="0.495882">
        <ele>325.232</ele>
        <time>2020-08-23T07:54:27Z</time>
      </trkpt>
      <trkpt lat="41.843763" lon="0.495786">
        <ele>325.205</ele>
        <time>2020-08-23T07:54:29Z</time>
      </trkpt>
      <trkpt lat="41.843791" lon="0.495659">
        <ele>325.208</ele>
        <time>2020-08-23T07:54:31Z</time>
      </trkpt>
      <trkpt lat="41.843809" lon="0.495588">
        <ele>325.236</ele>
        <time>2020-08-23T07:54:32Z</time>
      </trkpt>
      <trkpt lat="41.843831" lon="0.495520">
        <ele>325.246</ele>
        <time>2020-08-23T07:54:33Z</time>
      </trkpt>
      <trkpt lat="41.843850" lon="0.495455">
        <ele>325.274</ele>
        <time>2020-08-23T07:54:34Z</time>
      </trkpt>
      <trkpt lat="41.843865" lon="0.495395">
        <ele>325.276</ele>
        <time>2020-08-23T07:54:35Z</time>
      </trkpt>
      <trkpt lat="41.843882" lon="0.495338">
        <ele>325.237</ele>
        <time>2020-08-23T07:54:36Z</time>
      </trkpt>
      <trkpt lat="41.843902" lon="0.495283">
        <ele>325.258</ele>
        <time>2020-08-23T07:54:37Z</time>
      </trkpt>
      <trkpt lat="41.843920" lon="0.495227">
        <ele>325.244</ele>
        <time>2020-08-23T07:54:38Z</time>
      </trkpt>
      <trkpt lat="41.843940" lon="0.495117">
        <ele>325.283</ele>
        <time>2020-08-23T07:54:40Z</time>
      </trkpt>
      <trkpt lat="41.843946" lon="0.495053">
        <ele>325.232</ele>
        <time>2020-08-23T07:54:41Z</time>
      </trkpt>
      <trkpt lat="41.843971" lon="0.494929">
        <ele>325.292</ele>
        <time>2020-08-23T07:54:43Z</time>
      </trkpt>
      <trkpt lat="41.843980" lon="0.494854">
        <ele>325.211</ele>
        <time>2020-08-23T07:54:44Z</time>
      </trkpt>
      <trkpt lat="41.843978" lon="0.494794">
        <ele>325.108</ele>
        <time>2020-08-23T07:54:45Z</time>
      </trkpt>
      <trkpt lat="41.843981" lon="0.494724">
        <ele>325.148</ele>
        <time>2020-08-23T07:54:46Z</time>
      </trkpt>
      <trkpt lat="41.843985" lon="0.494654">
        <ele>325.128</ele>
        <time>2020-08-23T07:54:47Z</time>
      </trkpt>
      <trkpt lat="41.843996" lon="0.494592">
        <ele>325.196</ele>
        <time>2020-08-23T07:54:48Z</time>
      </trkpt>
      <trkpt lat="41.844006" lon="0.494531">
        <ele>325.158</ele>
        <time>2020-08-23T07:54:49Z</time>
      </trkpt>
      <trkpt lat="41.844017" lon="0.494463">
        <ele>325.189</ele>
        <time>2020-08-23T07:54:50Z</time>
      </trkpt>
      <trkpt lat="41.844030" lon="0.494397">
        <ele>325.170</ele>
        <time>2020-08-23T07:54:51Z</time>
      </trkpt>
      <trkpt lat="41.844045" lon="0.494332">
        <ele>325.166</ele>
        <time>2020-08-23T07:54:52Z</time>
      </trkpt>
      <trkpt lat="41.844054" lon="0.494271">
        <ele>325.125</ele>
        <time>2020-08-23T07:54:53Z</time>
      </trkpt>
      <trkpt lat="41.844055" lon="0.494207">
        <ele>325.133</ele>
        <time>2020-08-23T07:54:54Z</time>
      </trkpt>
      <trkpt lat="41.844086" lon="0.494095">
        <ele>325.123</ele>
        <time>2020-08-23T07:54:56Z</time>
      </trkpt>
      <trkpt lat="41.844108" lon="0.493975">
        <ele>325.115</ele>
        <time>2020-08-23T07:54:58Z</time>
      </trkpt>
      <trkpt lat="41.844123" lon="0.493910">
        <ele>325.108</ele>
        <time>2020-08-23T07:54:59Z</time>
      </trkpt>
      <trkpt lat="41.844133" lon="0.493842">
        <ele>325.158</ele>
        <time>2020-08-23T07:55:00Z</time>
      </trkpt>
      <trkpt lat="41.844142" lon="0.493777">
        <ele>325.038</ele>
        <time>2020-08-23T07:55:01Z</time>
      </trkpt>
      <trkpt lat="41.844149" lon="0.493708">
        <ele>325.056</ele>
        <time>2020-08-23T07:55:02Z</time>
      </trkpt>
      <trkpt lat="41.844152" lon="0.493640">
        <ele>325.048</ele>
        <time>2020-08-23T07:55:03Z</time>
      </trkpt>
      <trkpt lat="41.844163" lon="0.493575">
        <ele>325.099</ele>
        <time>2020-08-23T07:55:04Z</time>
      </trkpt>
      <trkpt lat="41.844177" lon="0.493466">
        <ele>325.070</ele>
        <time>2020-08-23T07:55:06Z</time>
      </trkpt>
      <trkpt lat="41.844185" lon="0.493406">
        <ele>325.076</ele>
        <time>2020-08-23T07:55:07Z</time>
      </trkpt>
      <trkpt lat="41.844185" lon="0.493297">
        <ele>325.085</ele>
        <time>2020-08-23T07:55:09Z</time>
      </trkpt>
      <trkpt lat="41.844180" lon="0.493236">
        <ele>325.092</ele>
        <time>2020-08-23T07:55:10Z</time>
      </trkpt>
      <trkpt lat="41.844172" lon="0.493173">
        <ele>325.073</ele>
        <time>2020-08-23T07:55:11Z</time>
      </trkpt>
      <trkpt lat="41.844165" lon="0.493107">
        <ele>325.020</ele>
        <time>2020-08-23T07:55:12Z</time>
      </trkpt>
      <trkpt lat="41.844160" lon="0.493033">
        <ele>325.008</ele>
        <time>2020-08-23T07:55:13Z</time>
      </trkpt>
      <trkpt lat="41.844163" lon="0.492967">
        <ele>325.064</ele>
        <time>2020-08-23T07:55:14Z</time>
      </trkpt>
      <trkpt lat="41.844167" lon="0.492900">
        <ele>325.044</ele>
        <time>2020-08-23T07:55:15Z</time>
      </trkpt>
      <trkpt lat="41.844166" lon="0.492832">
        <ele>325.142</ele>
        <time>2020-08-23T07:55:16Z</time>
      </trkpt>
      <trkpt lat="41.844168" lon="0.492760">
        <ele>325.124</ele>
        <time>2020-08-23T07:55:17Z</time>
      </trkpt>
      <trkpt lat="41.844166" lon="0.492679">
        <ele>325.165</ele>
        <time>2020-08-23T07:55:18Z</time>
      </trkpt>
      <trkpt lat="41.844168" lon="0.492606">
        <ele>325.186</ele>
        <time>2020-08-23T07:55:19Z</time>
      </trkpt>
      <trkpt lat="41.844171" lon="0.492478">
        <ele>325.172</ele>
        <time>2020-08-23T07:55:21Z</time>
      </trkpt>
      <trkpt lat="41.844173" lon="0.492412">
        <ele>325.191</ele>
        <time>2020-08-23T07:55:22Z</time>
      </trkpt>
      <trkpt lat="41.844174" lon="0.492345">
        <ele>325.118</ele>
        <time>2020-08-23T07:55:23Z</time>
      </trkpt>
      <trkpt lat="41.844173" lon="0.492226">
        <ele>325.198</ele>
        <time>2020-08-23T07:55:25Z</time>
      </trkpt>
      <trkpt lat="41.844178" lon="0.492108">
        <ele>325.217</ele>
        <time>2020-08-23T07:55:27Z</time>
      </trkpt>
      <trkpt lat="41.844184" lon="0.491984">
        <ele>325.208</ele>
        <time>2020-08-23T07:55:29Z</time>
      </trkpt>
      <trkpt lat="41.844188" lon="0.491917">
        <ele>325.236</ele>
        <time>2020-08-23T07:55:30Z</time>
      </trkpt>
      <trkpt lat="41.844188" lon="0.491845">
        <ele>325.256</ele>
        <time>2020-08-23T07:55:31Z</time>
      </trkpt>
      <trkpt lat="41.844188" lon="0.491766">
        <ele>325.264</ele>
        <time>2020-08-23T07:55:32Z</time>
      </trkpt>
      <trkpt lat="41.844187" lon="0.491690">
        <ele>325.226</ele>
        <time>2020-08-23T07:55:33Z</time>
      </trkpt>
      <trkpt lat="41.844186" lon="0.491622">
        <ele>325.217</ele>
        <time>2020-08-23T07:55:34Z</time>
      </trkpt>
      <trkpt lat="41.844181" lon="0.491556">
        <ele>325.298</ele>
        <time>2020-08-23T07:55:35Z</time>
      </trkpt>
      <trkpt lat="41.844199" lon="0.491439">
        <ele>325.224</ele>
        <time>2020-08-23T07:55:37Z</time>
      </trkpt>
      <trkpt lat="41.844230" lon="0.491327">
        <ele>325.233</ele>
        <time>2020-08-23T07:55:39Z</time>
      </trkpt>
      <trkpt lat="41.844250" lon="0.491214">
        <ele>325.228</ele>
        <time>2020-08-23T07:55:41Z</time>
      </trkpt>
      <trkpt lat="41.844263" lon="0.491149">
        <ele>325.289</ele>
        <time>2020-08-23T07:55:42Z</time>
      </trkpt>
      <trkpt lat="41.844280" lon="0.491086">
        <ele>325.217</ele>
        <time>2020-08-23T07:55:43Z</time>
      </trkpt>
      <trkpt lat="41.844307" lon="0.490985">
        <ele>325.308</ele>
        <time>2020-08-23T07:55:45Z</time>
      </trkpt>
      <trkpt lat="41.844329" lon="0.490931">
        <ele>325.347</ele>
        <time>2020-08-23T07:55:46Z</time>
      </trkpt>
      <trkpt lat="41.844346" lon="0.490869">
        <ele>325.317</ele>
        <time>2020-08-23T07:55:47Z</time>
      </trkpt>
      <trkpt lat="41.844361" lon="0.490809">
        <ele>325.345</ele>
        <time>2020-08-23T07:55:48Z</time>
      </trkpt>
      <trkpt lat="41.844364" lon="0.490744">
        <ele>325.227</ele>
        <time>2020-08-23T07:55:49Z</time>
      </trkpt>
      <trkpt lat="41.844377" lon="0.490679">
        <ele>325.118</ele>
        <time>2020-08-23T07:55:50Z</time>
      </trkpt>
      <trkpt lat="41.844386" lon="0.490607">
        <ele>324.879</ele>
        <time>2020-08-23T07:55:51Z</time>
      </trkpt>
      <trkpt lat="41.844393" lon="0.490533">
        <ele>324.785</ele>
        <time>2020-08-23T07:55:52Z</time>
      </trkpt>
      <trkpt lat="41.844403" lon="0.490463">
        <ele>324.534</ele>
        <time>2020-08-23T07:55:53Z</time>
      </trkpt>
      <trkpt lat="41.844411" lon="0.490394">
        <ele>324.449</ele>
        <time>2020-08-23T07:55:54Z</time>
      </trkpt>
      <trkpt lat="41.844419" lon="0.490326">
        <ele>324.302</ele>
        <time>2020-08-23T07:55:55Z</time>
      </trkpt>
      <trkpt lat="41.844430" lon="0.490254">
        <ele>324.222</ele>
        <time>2020-08-23T07:55:56Z</time>
      </trkpt>
      <trkpt lat="41.844443" lon="0.490178">
        <ele>324.108</ele>
        <time>2020-08-23T07:55:57Z</time>
      </trkpt>
      <trkpt lat="41.844454" lon="0.490109">
        <ele>324.049</ele>
        <time>2020-08-23T07:55:58Z</time>
      </trkpt>
      <trkpt lat="41.844463" lon="0.490031">
        <ele>323.989</ele>
        <time>2020-08-23T07:55:59Z</time>
      </trkpt>
      <trkpt lat="41.844468" lon="0.489946">
        <ele>323.867</ele>
        <time>2020-08-23T07:56:00Z</time>
      </trkpt>
      <trkpt lat="41.844482" lon="0.489865">
        <ele>323.669</ele>
        <time>2020-08-23T07:56:01Z</time>
      </trkpt>
      <trkpt lat="41.844491" lon="0.489779">
        <ele>323.480</ele>
        <time>2020-08-23T07:56:02Z</time>
      </trkpt>
      <trkpt lat="41.844501" lon="0.489692">
        <ele>323.271</ele>
        <time>2020-08-23T07:56:03Z</time>
      </trkpt>
      <trkpt lat="41.844513" lon="0.489611">
        <ele>323.027</ele>
        <time>2020-08-23T07:56:04Z</time>
      </trkpt>
      <trkpt lat="41.844520" lon="0.489536">
        <ele>322.846</ele>
        <time>2020-08-23T07:56:05Z</time>
      </trkpt>
      <trkpt lat="41.844522" lon="0.489456">
        <ele>322.536</ele>
        <time>2020-08-23T07:56:06Z</time>
      </trkpt>
      <trkpt lat="41.844530" lon="0.489371">
        <ele>322.217</ele>
        <time>2020-08-23T07:56:07Z</time>
      </trkpt>
      <trkpt lat="41.844537" lon="0.489283">
        <ele>322.018</ele>
        <time>2020-08-23T07:56:08Z</time>
      </trkpt>
      <trkpt lat="41.844549" lon="0.489191">
        <ele>321.508</ele>
        <time>2020-08-23T07:56:09Z</time>
      </trkpt>
      <trkpt lat="41.844556" lon="0.489101">
        <ele>321.228</ele>
        <time>2020-08-23T07:56:10Z</time>
      </trkpt>
      <trkpt lat="41.844559" lon="0.489012">
        <ele>321.098</ele>
        <time>2020-08-23T07:56:11Z</time>
      </trkpt>
      <trkpt lat="41.844555" lon="0.488921">
        <ele>320.796</ele>
        <time>2020-08-23T07:56:12Z</time>
      </trkpt>
      <trkpt lat="41.844558" lon="0.488824">
        <ele>320.548</ele>
        <time>2020-08-23T07:56:13Z</time>
      </trkpt>
      <trkpt lat="41.844565" lon="0.488726">
        <ele>320.349</ele>
        <time>2020-08-23T07:56:14Z</time>
      </trkpt>
      <trkpt lat="41.844575" lon="0.488628">
        <ele>320.120</ele>
        <time>2020-08-23T07:56:15Z</time>
      </trkpt>
      <trkpt lat="41.844585" lon="0.488530">
        <ele>319.876</ele>
        <time>2020-08-23T07:56:16Z</time>
      </trkpt>
      <trkpt lat="41.844594" lon="0.488429">
        <ele>319.485</ele>
        <time>2020-08-23T07:56:17Z</time>
      </trkpt>
      <trkpt lat="41.844602" lon="0.488318">
        <ele>319.059</ele>
        <time>2020-08-23T07:56:18Z</time>
      </trkpt>
      <trkpt lat="41.844616" lon="0.488212">
        <ele>318.603</ele>
        <time>2020-08-23T07:56:19Z</time>
      </trkpt>
      <trkpt lat="41.844632" lon="0.488106">
        <ele>318.323</ele>
        <time>2020-08-23T07:56:20Z</time>
      </trkpt>
      <trkpt lat="41.844643" lon="0.487998">
        <ele>318.008</ele>
        <time>2020-08-23T07:56:21Z</time>
      </trkpt>
      <trkpt lat="41.844658" lon="0.487892">
        <ele>317.760</ele>
        <time>2020-08-23T07:56:22Z</time>
      </trkpt>
      <trkpt lat="41.844665" lon="0.487783">
        <ele>317.410</ele>
        <time>2020-08-23T07:56:23Z</time>
      </trkpt>
      <trkpt lat="41.844674" lon="0.487672">
        <ele>317.268</ele>
        <time>2020-08-23T07:56:24Z</time>
      </trkpt>
      <trkpt lat="41.844679" lon="0.487566">
        <ele>316.960</ele>
        <time>2020-08-23T07:56:25Z</time>
      </trkpt>
      <trkpt lat="41.844692" lon="0.487462">
        <ele>316.481</ele>
        <time>2020-08-23T07:56:26Z</time>
      </trkpt>
      <trkpt lat="41.844699" lon="0.487359">
        <ele>316.262</ele>
        <time>2020-08-23T07:56:27Z</time>
      </trkpt>
      <trkpt lat="41.844706" lon="0.487256">
        <ele>316.078</ele>
        <time>2020-08-23T07:56:28Z</time>
      </trkpt>
      <trkpt lat="41.844711" lon="0.487154">
        <ele>315.897</ele>
        <time>2020-08-23T07:56:29Z</time>
      </trkpt>
      <trkpt lat="41.844714" lon="0.487051">
        <ele>315.598</ele>
        <time>2020-08-23T07:56:30Z</time>
      </trkpt>
      <trkpt lat="41.844718" lon="0.486952">
        <ele>315.315</ele>
        <time>2020-08-23T07:56:31Z</time>
      </trkpt>
      <trkpt lat="41.844721" lon="0.486852">
        <ele>315.126</ele>
        <time>2020-08-23T07:56:32Z</time>
      </trkpt>
      <trkpt lat="41.844722" lon="0.486760">
        <ele>314.808</ele>
        <time>2020-08-23T07:56:33Z</time>
      </trkpt>
      <trkpt lat="41.844718" lon="0.486659">
        <ele>314.514</ele>
        <time>2020-08-23T07:56:34Z</time>
      </trkpt>
      <trkpt lat="41.844720" lon="0.486564">
        <ele>314.354</ele>
        <time>2020-08-23T07:56:35Z</time>
      </trkpt>
      <trkpt lat="41.844719" lon="0.486461">
        <ele>314.062</ele>
        <time>2020-08-23T07:56:36Z</time>
      </trkpt>
      <trkpt lat="41.844719" lon="0.486356">
        <ele>313.764</ele>
        <time>2020-08-23T07:56:37Z</time>
      </trkpt>
      <trkpt lat="41.844714" lon="0.486273">
        <ele>313.465</ele>
        <time>2020-08-23T07:56:38Z</time>
      </trkpt>
      <trkpt lat="41.844723" lon="0.486186">
        <ele>313.126</ele>
        <time>2020-08-23T07:56:39Z</time>
      </trkpt>
      <trkpt lat="41.844721" lon="0.486087">
        <ele>312.782</ele>
        <time>2020-08-23T07:56:40Z</time>
      </trkpt>
      <trkpt lat="41.844712" lon="0.485992">
        <ele>312.271</ele>
        <time>2020-08-23T07:56:41Z</time>
      </trkpt>
      <trkpt lat="41.844704" lon="0.485896">
        <ele>311.777</ele>
        <time>2020-08-23T07:56:42Z</time>
      </trkpt>
      <trkpt lat="41.844700" lon="0.485807">
        <ele>311.261</ele>
        <time>2020-08-23T07:56:43Z</time>
      </trkpt>
      <trkpt lat="41.844693" lon="0.485728">
        <ele>310.227</ele>
        <time>2020-08-23T07:56:44Z</time>
      </trkpt>
      <trkpt lat="41.844695" lon="0.485652">
        <ele>309.808</ele>
        <time>2020-08-23T07:56:45Z</time>
      </trkpt>
      <trkpt lat="41.844698" lon="0.485580">
        <ele>309.452</ele>
        <time>2020-08-23T07:56:46Z</time>
      </trkpt>
      <trkpt lat="41.844698" lon="0.485500">
        <ele>309.142</ele>
        <time>2020-08-23T07:56:47Z</time>
      </trkpt>
      <trkpt lat="41.844699" lon="0.485419">
        <ele>308.960</ele>
        <time>2020-08-23T07:56:48Z</time>
      </trkpt>
      <trkpt lat="41.844699" lon="0.485335">
        <ele>308.682</ele>
        <time>2020-08-23T07:56:49Z</time>
      </trkpt>
      <trkpt lat="41.844695" lon="0.485251">
        <ele>308.413</ele>
        <time>2020-08-23T07:56:50Z</time>
      </trkpt>
      <trkpt lat="41.844698" lon="0.485164">
        <ele>308.284</ele>
        <time>2020-08-23T07:56:51Z</time>
      </trkpt>
      <trkpt lat="41.844701" lon="0.485074">
        <ele>307.970</ele>
        <time>2020-08-23T07:56:52Z</time>
      </trkpt>
      <trkpt lat="41.844704" lon="0.484987">
        <ele>307.659</ele>
        <time>2020-08-23T07:56:53Z</time>
      </trkpt>
      <trkpt lat="41.844699" lon="0.484891">
        <ele>307.342</ele>
        <time>2020-08-23T07:56:54Z</time>
      </trkpt>
      <trkpt lat="41.844685" lon="0.484795">
        <ele>307.022</ele>
        <time>2020-08-23T07:56:55Z</time>
      </trkpt>
      <trkpt lat="41.844677" lon="0.484700">
        <ele>306.814</ele>
        <time>2020-08-23T07:56:56Z</time>
      </trkpt>
      <trkpt lat="41.844670" lon="0.484619">
        <ele>306.608</ele>
        <time>2020-08-23T07:56:57Z</time>
      </trkpt>
      <trkpt lat="41.844669" lon="0.484536">
        <ele>306.569</ele>
        <time>2020-08-23T07:56:58Z</time>
      </trkpt>
      <trkpt lat="41.844676" lon="0.484453">
        <ele>306.319</ele>
        <time>2020-08-23T07:56:59Z</time>
      </trkpt>
      <trkpt lat="41.844682" lon="0.484387">
        <ele>306.287</ele>
        <time>2020-08-23T07:57:00Z</time>
      </trkpt>
      <trkpt lat="41.844692" lon="0.484314">
        <ele>306.079</ele>
        <time>2020-08-23T07:57:01Z</time>
      </trkpt>
      <trkpt lat="41.844700" lon="0.484232">
        <ele>305.690</ele>
        <time>2020-08-23T07:57:02Z</time>
      </trkpt>
      <trkpt lat="41.844698" lon="0.484149">
        <ele>305.541</ele>
        <time>2020-08-23T07:57:03Z</time>
      </trkpt>
      <trkpt lat="41.844700" lon="0.484066">
        <ele>305.497</ele>
        <time>2020-08-23T07:57:04Z</time>
      </trkpt>
      <trkpt lat="41.844702" lon="0.483992">
        <ele>305.376</ele>
        <time>2020-08-23T07:57:05Z</time>
      </trkpt>
      <trkpt lat="41.844702" lon="0.483919">
        <ele>305.234</ele>
        <time>2020-08-23T07:57:06Z</time>
      </trkpt>
      <trkpt lat="41.844706" lon="0.483848">
        <ele>305.155</ele>
        <time>2020-08-23T07:57:07Z</time>
      </trkpt>
      <trkpt lat="41.844708" lon="0.483773">
        <ele>305.010</ele>
        <time>2020-08-23T07:57:08Z</time>
      </trkpt>
      <trkpt lat="41.844709" lon="0.483704">
        <ele>304.908</ele>
        <time>2020-08-23T07:57:09Z</time>
      </trkpt>
      <trkpt lat="41.844708" lon="0.483640">
        <ele>304.878</ele>
        <time>2020-08-23T07:57:10Z</time>
      </trkpt>
      <trkpt lat="41.844704" lon="0.483575">
        <ele>304.818</ele>
        <time>2020-08-23T07:57:11Z</time>
      </trkpt>
      <trkpt lat="41.844701" lon="0.483493">
        <ele>304.876</ele>
        <time>2020-08-23T07:57:12Z</time>
      </trkpt>
      <trkpt lat="41.844698" lon="0.483402">
        <ele>304.878</ele>
        <time>2020-08-23T07:57:13Z</time>
      </trkpt>
      <trkpt lat="41.844694" lon="0.483314">
        <ele>304.839</ele>
        <time>2020-08-23T07:57:14Z</time>
      </trkpt>
      <trkpt lat="41.844690" lon="0.483229">
        <ele>304.850</ele>
        <time>2020-08-23T07:57:15Z</time>
      </trkpt>
      <trkpt lat="41.844691" lon="0.483148">
        <ele>304.856</ele>
        <time>2020-08-23T07:57:16Z</time>
      </trkpt>
      <trkpt lat="41.844693" lon="0.483066">
        <ele>304.895</ele>
        <time>2020-08-23T07:57:17Z</time>
      </trkpt>
      <trkpt lat="41.844687" lon="0.482979">
        <ele>304.826</ele>
        <time>2020-08-23T07:57:18Z</time>
      </trkpt>
      <trkpt lat="41.844680" lon="0.482901">
        <ele>304.847</ele>
        <time>2020-08-23T07:57:19Z</time>
      </trkpt>
      <trkpt lat="41.844679" lon="0.482823">
        <ele>304.711</ele>
        <time>2020-08-23T07:57:20Z</time>
      </trkpt>
      <trkpt lat="41.844673" lon="0.482753">
        <ele>304.708</ele>
        <time>2020-08-23T07:57:21Z</time>
      </trkpt>
      <trkpt lat="41.844669" lon="0.482678">
        <ele>304.787</ele>
        <time>2020-08-23T07:57:22Z</time>
      </trkpt>
      <trkpt lat="41.844654" lon="0.482601">
        <ele>304.647</ele>
        <time>2020-08-23T07:57:23Z</time>
      </trkpt>
      <trkpt lat="41.844642" lon="0.482528">
        <ele>304.565</ele>
        <time>2020-08-23T07:57:24Z</time>
      </trkpt>
      <trkpt lat="41.844630" lon="0.482457">
        <ele>304.557</ele>
        <time>2020-08-23T07:57:25Z</time>
      </trkpt>
      <trkpt lat="41.844623" lon="0.482391">
        <ele>304.518</ele>
        <time>2020-08-23T07:57:26Z</time>
      </trkpt>
      <trkpt lat="41.844613" lon="0.482325">
        <ele>304.569</ele>
        <time>2020-08-23T07:57:27Z</time>
      </trkpt>
      <trkpt lat="41.844604" lon="0.482256">
        <ele>304.555</ele>
        <time>2020-08-23T07:57:28Z</time>
      </trkpt>
      <trkpt lat="41.844592" lon="0.482189">
        <ele>304.514</ele>
        <time>2020-08-23T07:57:29Z</time>
      </trkpt>
      <trkpt lat="41.844579" lon="0.482119">
        <ele>304.538</ele>
        <time>2020-08-23T07:57:30Z</time>
      </trkpt>
      <trkpt lat="41.844569" lon="0.482047">
        <ele>304.670</ele>
        <time>2020-08-23T07:57:31Z</time>
      </trkpt>
      <trkpt lat="41.844558" lon="0.481983">
        <ele>304.617</ele>
        <time>2020-08-23T07:57:32Z</time>
      </trkpt>
      <trkpt lat="41.844548" lon="0.481867">
        <ele>304.708</ele>
        <time>2020-08-23T07:57:34Z</time>
      </trkpt>
      <trkpt lat="41.844545" lon="0.481766">
        <ele>304.968</ele>
        <time>2020-08-23T07:57:36Z</time>
      </trkpt>
      <trkpt lat="41.844544" lon="0.481675">
        <ele>305.528</ele>
        <time>2020-08-23T07:57:38Z</time>
      </trkpt>
      <trkpt lat="41.844534" lon="0.481599">
        <ele>306.016</ele>
        <time>2020-08-23T07:57:40Z</time>
      </trkpt>
      <trkpt lat="41.844523" lon="0.481527">
        <ele>306.568</ele>
        <time>2020-08-23T07:57:42Z</time>
      </trkpt>
      <trkpt lat="41.844507" lon="0.481430">
        <ele>306.899</ele>
        <time>2020-08-23T07:57:44Z</time>
      </trkpt>
      <trkpt lat="41.844488" lon="0.481337">
        <ele>306.970</ele>
        <time>2020-08-23T07:57:46Z</time>
      </trkpt>
      <trkpt lat="41.844479" lon="0.481240">
        <ele>307.086</ele>
        <time>2020-08-23T07:57:48Z</time>
      </trkpt>
      <trkpt lat="41.844469" lon="0.481158">
        <ele>307.125</ele>
        <time>2020-08-23T07:57:50Z</time>
      </trkpt>
      <trkpt lat="41.844452" lon="0.481055">
        <ele>307.223</ele>
        <time>2020-08-23T07:57:52Z</time>
      </trkpt>
      <trkpt lat="41.844427" lon="0.480952">
        <ele>307.383</ele>
        <time>2020-08-23T07:57:54Z</time>
      </trkpt>
      <trkpt lat="41.844412" lon="0.480854">
        <ele>307.711</ele>
        <time>2020-08-23T07:57:56Z</time>
      </trkpt>
      <trkpt lat="41.844411" lon="0.480767">
        <ele>308.108</ele>
        <time>2020-08-23T07:57:58Z</time>
      </trkpt>
      <trkpt lat="41.844414" lon="0.480689">
        <ele>308.657</ele>
        <time>2020-08-23T07:58:00Z</time>
      </trkpt>
      <trkpt lat="41.844423" lon="0.480614">
        <ele>309.027</ele>
        <time>2020-08-23T07:58:02Z</time>
      </trkpt>
      <trkpt lat="41.844443" lon="0.480536">
        <ele>309.415</ele>
        <time>2020-08-23T07:58:04Z</time>
      </trkpt>
      <trkpt lat="41.844471" lon="0.480465">
        <ele>309.877</ele>
        <time>2020-08-23T07:58:06Z</time>
      </trkpt>
      <trkpt lat="41.844493" lon="0.480384">
        <ele>310.268</ele>
        <time>2020-08-23T07:58:08Z</time>
      </trkpt>
      <trkpt lat="41.844505" lon="0.480303">
        <ele>310.529</ele>
        <time>2020-08-23T07:58:10Z</time>
      </trkpt>
      <trkpt lat="41.844533" lon="0.480224">
        <ele>311.185</ele>
        <time>2020-08-23T07:58:13Z</time>
      </trkpt>
      <trkpt lat="41.844552" lon="0.480159">
        <ele>311.384</ele>
        <time>2020-08-23T07:58:15Z</time>
      </trkpt>
      <trkpt lat="41.844569" lon="0.480065">
        <ele>311.375</ele>
        <time>2020-08-23T07:58:17Z</time>
      </trkpt>
      <trkpt lat="41.844591" lon="0.479951">
        <ele>311.228</ele>
        <time>2020-08-23T07:58:19Z</time>
      </trkpt>
      <trkpt lat="41.844600" lon="0.479883">
        <ele>311.120</ele>
        <time>2020-08-23T07:58:20Z</time>
      </trkpt>
      <trkpt lat="41.844611" lon="0.479822">
        <ele>311.008</ele>
        <time>2020-08-23T07:58:21Z</time>
      </trkpt>
      <trkpt lat="41.844622" lon="0.479763">
        <ele>310.952</ele>
        <time>2020-08-23T07:58:22Z</time>
      </trkpt>
      <trkpt lat="41.844642" lon="0.479702">
        <ele>310.862</ele>
        <time>2020-08-23T07:58:23Z</time>
      </trkpt>
      <trkpt lat="41.844656" lon="0.479645">
        <ele>310.720</ele>
        <time>2020-08-23T07:58:24Z</time>
      </trkpt>
      <trkpt lat="41.844668" lon="0.479582">
        <ele>310.662</ele>
        <time>2020-08-23T07:58:25Z</time>
      </trkpt>
      <trkpt lat="41.844680" lon="0.479517">
        <ele>310.613</ele>
        <time>2020-08-23T07:58:26Z</time>
      </trkpt>
      <trkpt lat="41.844694" lon="0.479394">
        <ele>310.584</ele>
        <time>2020-08-23T07:58:28Z</time>
      </trkpt>
      <trkpt lat="41.844707" lon="0.479332">
        <ele>310.470</ele>
        <time>2020-08-23T07:58:29Z</time>
      </trkpt>
      <trkpt lat="41.844720" lon="0.479220">
        <ele>310.379</ele>
        <time>2020-08-23T07:58:31Z</time>
      </trkpt>
      <trkpt lat="41.844732" lon="0.479103">
        <ele>310.413</ele>
        <time>2020-08-23T07:58:33Z</time>
      </trkpt>
      <trkpt lat="41.844753" lon="0.478987">
        <ele>310.343</ele>
        <time>2020-08-23T07:58:35Z</time>
      </trkpt>
      <trkpt lat="41.844774" lon="0.478884">
        <ele>310.207</ele>
        <time>2020-08-23T07:58:37Z</time>
      </trkpt>
      <trkpt lat="41.844800" lon="0.478783">
        <ele>310.108</ele>
        <time>2020-08-23T07:58:39Z</time>
      </trkpt>
      <trkpt lat="41.844832" lon="0.478684">
        <ele>310.156</ele>
        <time>2020-08-23T07:58:41Z</time>
      </trkpt>
      <trkpt lat="41.844857" lon="0.478599">
        <ele>310.266</ele>
        <time>2020-08-23T07:58:43Z</time>
      </trkpt>
      <trkpt lat="41.844878" lon="0.478514">
        <ele>310.314</ele>
        <time>2020-08-23T07:58:45Z</time>
      </trkpt>
      <trkpt lat="41.844879" lon="0.478410">
        <ele>310.416</ele>
        <time>2020-08-23T07:58:47Z</time>
      </trkpt>
      <trkpt lat="41.844874" lon="0.478305">
        <ele>310.787</ele>
        <time>2020-08-23T07:58:49Z</time>
      </trkpt>
      <trkpt lat="41.844876" lon="0.478214">
        <ele>311.058</ele>
        <time>2020-08-23T07:58:51Z</time>
      </trkpt>
      <trkpt lat="41.844865" lon="0.478123">
        <ele>311.234</ele>
        <time>2020-08-23T07:58:53Z</time>
      </trkpt>
      <trkpt lat="41.844859" lon="0.478060">
        <ele>311.533</ele>
        <time>2020-08-23T07:58:55Z</time>
      </trkpt>
      <trkpt lat="41.844851" lon="0.477957">
        <ele>311.835</ele>
        <time>2020-08-23T07:58:57Z</time>
      </trkpt>
      <trkpt lat="41.844835" lon="0.477853">
        <ele>312.086</ele>
        <time>2020-08-23T07:58:59Z</time>
      </trkpt>
      <trkpt lat="41.844821" lon="0.477755">
        <ele>312.114</ele>
        <time>2020-08-23T07:59:01Z</time>
      </trkpt>
      <trkpt lat="41.844799" lon="0.477662">
        <ele>312.208</ele>
        <time>2020-08-23T07:59:03Z</time>
      </trkpt>
      <trkpt lat="41.844790" lon="0.477573">
        <ele>312.268</ele>
        <time>2020-08-23T07:59:05Z</time>
      </trkpt>
      <trkpt lat="41.844788" lon="0.477481">
        <ele>312.378</ele>
        <time>2020-08-23T07:59:07Z</time>
      </trkpt>
      <trkpt lat="41.844781" lon="0.477388">
        <ele>312.496</ele>
        <time>2020-08-23T07:59:09Z</time>
      </trkpt>
      <trkpt lat="41.844770" lon="0.477299">
        <ele>312.668</ele>
        <time>2020-08-23T07:59:11Z</time>
      </trkpt>
      <trkpt lat="41.844766" lon="0.477215">
        <ele>312.849</ele>
        <time>2020-08-23T07:59:13Z</time>
      </trkpt>
      <trkpt lat="41.844776" lon="0.477134">
        <ele>313.170</ele>
        <time>2020-08-23T07:59:15Z</time>
      </trkpt>
      <trkpt lat="41.844783" lon="0.477045">
        <ele>313.416</ele>
        <time>2020-08-23T07:59:17Z</time>
      </trkpt>
      <trkpt lat="41.844792" lon="0.476950">
        <ele>313.735</ele>
        <time>2020-08-23T07:59:19Z</time>
      </trkpt>
      <trkpt lat="41.844797" lon="0.476869">
        <ele>314.028</ele>
        <time>2020-08-23T07:59:21Z</time>
      </trkpt>
      <trkpt lat="41.844800" lon="0.476794">
        <ele>314.489</ele>
        <time>2020-08-23T07:59:23Z</time>
      </trkpt>
      <trkpt lat="41.844796" lon="0.476711">
        <ele>314.617</ele>
        <time>2020-08-23T07:59:25Z</time>
      </trkpt>
      <trkpt lat="41.844799" lon="0.476638">
        <ele>314.808</ele>
        <time>2020-08-23T07:59:27Z</time>
      </trkpt>
      <trkpt lat="41.844807" lon="0.476552">
        <ele>315.017</ele>
        <time>2020-08-23T07:59:29Z</time>
      </trkpt>
      <trkpt lat="41.844818" lon="0.476468">
        <ele>315.217</ele>
        <time>2020-08-23T07:59:31Z</time>
      </trkpt>
      <trkpt lat="41.844836" lon="0.476405">
        <ele>315.335</ele>
        <time>2020-08-23T07:59:33Z</time>
      </trkpt>
      <trkpt lat="41.844849" lon="0.476319">
        <ele>315.517</ele>
        <time>2020-08-23T07:59:35Z</time>
      </trkpt>
      <trkpt lat="41.844852" lon="0.476233">
        <ele>315.628</ele>
        <time>2020-08-23T07:59:37Z</time>
      </trkpt>
      <trkpt lat="41.844838" lon="0.476136">
        <ele>315.789</ele>
        <time>2020-08-23T07:59:39Z</time>
      </trkpt>
      <trkpt lat="41.844835" lon="0.476054">
        <ele>315.925</ele>
        <time>2020-08-23T07:59:41Z</time>
      </trkpt>
      <trkpt lat="41.844843" lon="0.475992">
        <ele>316.084</ele>
        <time>2020-08-23T07:59:43Z</time>
      </trkpt>
      <trkpt lat="41.844862" lon="0.475908">
        <ele>316.117</ele>
        <time>2020-08-23T07:59:45Z</time>
      </trkpt>
      <trkpt lat="41.844879" lon="0.475818">
        <ele>316.287</ele>
        <time>2020-08-23T07:59:47Z</time>
      </trkpt>
      <trkpt lat="41.844896" lon="0.475720">
        <ele>316.415</ele>
        <time>2020-08-23T07:59:49Z</time>
      </trkpt>
      <trkpt lat="41.844920" lon="0.475639">
        <ele>316.608</ele>
        <time>2020-08-23T07:59:51Z</time>
      </trkpt>
      <trkpt lat="41.844937" lon="0.475578">
        <ele>316.746</ele>
        <time>2020-08-23T07:59:53Z</time>
      </trkpt>
      <trkpt lat="41.844947" lon="0.475508">
        <ele>316.896</ele>
        <time>2020-08-23T07:59:55Z</time>
      </trkpt>
      <trkpt lat="41.844948" lon="0.475440">
        <ele>317.084</ele>
        <time>2020-08-23T07:59:57Z</time>
      </trkpt>
      <trkpt lat="41.844933" lon="0.475358">
        <ele>317.396</ele>
        <time>2020-08-23T07:59:59Z</time>
      </trkpt>
      <trkpt lat="41.844920" lon="0.475285">
        <ele>317.417</ele>
        <time>2020-08-23T08:00:01Z</time>
      </trkpt>
      <trkpt lat="41.844919" lon="0.475201">
        <ele>317.558</ele>
        <time>2020-08-23T08:00:03Z</time>
      </trkpt>
      <trkpt lat="41.844915" lon="0.475097">
        <ele>317.624</ele>
        <time>2020-08-23T08:00:05Z</time>
      </trkpt>
      <trkpt lat="41.844912" lon="0.474996">
        <ele>317.733</ele>
        <time>2020-08-23T08:00:07Z</time>
      </trkpt>
      <trkpt lat="41.844912" lon="0.474895">
        <ele>317.834</ele>
        <time>2020-08-23T08:00:09Z</time>
      </trkpt>
      <trkpt lat="41.844914" lon="0.474811">
        <ele>317.955</ele>
        <time>2020-08-23T08:00:11Z</time>
      </trkpt>
      <trkpt lat="41.844907" lon="0.474720">
        <ele>318.110</ele>
        <time>2020-08-23T08:00:13Z</time>
      </trkpt>
      <trkpt lat="41.844895" lon="0.474609">
        <ele>318.308</ele>
        <time>2020-08-23T08:00:15Z</time>
      </trkpt>
      <trkpt lat="41.844899" lon="0.474484">
        <ele>318.278</ele>
        <time>2020-08-23T08:00:17Z</time>
      </trkpt>
      <trkpt lat="41.844897" lon="0.474398">
        <ele>318.158</ele>
        <time>2020-08-23T08:00:18Z</time>
      </trkpt>
      <trkpt lat="41.844898" lon="0.474321">
        <ele>317.996</ele>
        <time>2020-08-23T08:00:19Z</time>
      </trkpt>
      <trkpt lat="41.844900" lon="0.474248">
        <ele>317.858</ele>
        <time>2020-08-23T08:00:20Z</time>
      </trkpt>
      <trkpt lat="41.844899" lon="0.474170">
        <ele>317.799</ele>
        <time>2020-08-23T08:00:21Z</time>
      </trkpt>
      <trkpt lat="41.844899" lon="0.474096">
        <ele>317.690</ele>
        <time>2020-08-23T08:00:22Z</time>
      </trkpt>
      <trkpt lat="41.844902" lon="0.474031">
        <ele>317.516</ele>
        <time>2020-08-23T08:00:23Z</time>
      </trkpt>
      <trkpt lat="41.844900" lon="0.473954">
        <ele>317.415</ele>
        <time>2020-08-23T08:00:24Z</time>
      </trkpt>
      <trkpt lat="41.844902" lon="0.473883">
        <ele>317.341</ele>
        <time>2020-08-23T08:00:25Z</time>
      </trkpt>
      <trkpt lat="41.844903" lon="0.473809">
        <ele>317.181</ele>
        <time>2020-08-23T08:00:26Z</time>
      </trkpt>
      <trkpt lat="41.844907" lon="0.473744">
        <ele>316.909</ele>
        <time>2020-08-23T08:00:27Z</time>
      </trkpt>
      <trkpt lat="41.844918" lon="0.473659">
        <ele>316.708</ele>
        <time>2020-08-23T08:00:28Z</time>
      </trkpt>
      <trkpt lat="41.844928" lon="0.473585">
        <ele>316.519</ele>
        <time>2020-08-23T08:00:29Z</time>
      </trkpt>
      <trkpt lat="41.844938" lon="0.473511">
        <ele>316.439</ele>
        <time>2020-08-23T08:00:30Z</time>
      </trkpt>
      <trkpt lat="41.844956" lon="0.473437">
        <ele>316.377</ele>
        <time>2020-08-23T08:00:31Z</time>
      </trkpt>
      <trkpt lat="41.844974" lon="0.473363">
        <ele>316.289</ele>
        <time>2020-08-23T08:00:32Z</time>
      </trkpt>
      <trkpt lat="41.844982" lon="0.473277">
        <ele>315.930</ele>
        <time>2020-08-23T08:00:33Z</time>
      </trkpt>
      <trkpt lat="41.844991" lon="0.473198">
        <ele>315.871</ele>
        <time>2020-08-23T08:00:34Z</time>
      </trkpt>
      <trkpt lat="41.845003" lon="0.473117">
        <ele>315.747</ele>
        <time>2020-08-23T08:00:35Z</time>
      </trkpt>
      <trkpt lat="41.845015" lon="0.473037">
        <ele>315.596</ele>
        <time>2020-08-23T08:00:36Z</time>
      </trkpt>
      <trkpt lat="41.845030" lon="0.472964">
        <ele>315.423</ele>
        <time>2020-08-23T08:00:37Z</time>
      </trkpt>
      <trkpt lat="41.845039" lon="0.472882">
        <ele>315.283</ele>
        <time>2020-08-23T08:00:38Z</time>
      </trkpt>
      <trkpt lat="41.845051" lon="0.472805">
        <ele>315.111</ele>
        <time>2020-08-23T08:00:39Z</time>
      </trkpt>
      <trkpt lat="41.845060" lon="0.472724">
        <ele>315.008</ele>
        <time>2020-08-23T08:00:40Z</time>
      </trkpt>
      <trkpt lat="41.845070" lon="0.472644">
        <ele>314.957</ele>
        <time>2020-08-23T08:00:41Z</time>
      </trkpt>
      <trkpt lat="41.845078" lon="0.472568">
        <ele>314.897</ele>
        <time>2020-08-23T08:00:42Z</time>
      </trkpt>
      <trkpt lat="41.845083" lon="0.472475">
        <ele>314.745</ele>
        <time>2020-08-23T08:00:43Z</time>
      </trkpt>
      <trkpt lat="41.845088" lon="0.472391">
        <ele>314.637</ele>
        <time>2020-08-23T08:00:44Z</time>
      </trkpt>
      <trkpt lat="41.845087" lon="0.472299">
        <ele>314.538</ele>
        <time>2020-08-23T08:00:45Z</time>
      </trkpt>
      <trkpt lat="41.845093" lon="0.472215">
        <ele>314.469</ele>
        <time>2020-08-23T08:00:46Z</time>
      </trkpt>
      <trkpt lat="41.845096" lon="0.472123">
        <ele>314.375</ele>
        <time>2020-08-23T08:00:47Z</time>
      </trkpt>
      <trkpt lat="41.845100" lon="0.472025">
        <ele>314.294</ele>
        <time>2020-08-23T08:00:48Z</time>
      </trkpt>
      <trkpt lat="41.845102" lon="0.471935">
        <ele>314.089</ele>
        <time>2020-08-23T08:00:49Z</time>
      </trkpt>
      <trkpt lat="41.845107" lon="0.471840">
        <ele>313.506</ele>
        <time>2020-08-23T08:00:50Z</time>
      </trkpt>
      <trkpt lat="41.845121" lon="0.471745">
        <ele>313.326</ele>
        <time>2020-08-23T08:00:51Z</time>
      </trkpt>
      <trkpt lat="41.845140" lon="0.471650">
        <ele>313.008</ele>
        <time>2020-08-23T08:00:52Z</time>
      </trkpt>
      <trkpt lat="41.845161" lon="0.471566">
        <ele>312.883</ele>
        <time>2020-08-23T08:00:53Z</time>
      </trkpt>
      <trkpt lat="41.845183" lon="0.471477">
        <ele>312.763</ele>
        <time>2020-08-23T08:00:54Z</time>
      </trkpt>
      <trkpt lat="41.845204" lon="0.471397">
        <ele>312.611</ele>
        <time>2020-08-23T08:00:55Z</time>
      </trkpt>
      <trkpt lat="41.845228" lon="0.471311">
        <ele>312.543</ele>
        <time>2020-08-23T08:00:56Z</time>
      </trkpt>
      <trkpt lat="41.845249" lon="0.471221">
        <ele>312.474</ele>
        <time>2020-08-23T08:00:57Z</time>
      </trkpt>
      <trkpt lat="41.845278" lon="0.471149">
        <ele>312.395</ele>
        <time>2020-08-23T08:00:58Z</time>
      </trkpt>
      <trkpt lat="41.845303" lon="0.471069">
        <ele>312.221</ele>
        <time>2020-08-23T08:00:59Z</time>
      </trkpt>
      <trkpt lat="41.845323" lon="0.470987">
        <ele>312.120</ele>
        <time>2020-08-23T08:01:00Z</time>
      </trkpt>
      <trkpt lat="41.845339" lon="0.470902">
        <ele>312.019</ele>
        <time>2020-08-23T08:01:01Z</time>
      </trkpt>
      <trkpt lat="41.845353" lon="0.470819">
        <ele>311.909</ele>
        <time>2020-08-23T08:01:02Z</time>
      </trkpt>
      <trkpt lat="41.845365" lon="0.470740">
        <ele>311.819</ele>
        <time>2020-08-23T08:01:03Z</time>
      </trkpt>
      <trkpt lat="41.845369" lon="0.470659">
        <ele>311.708</ele>
        <time>2020-08-23T08:01:04Z</time>
      </trkpt>
      <trkpt lat="41.845370" lon="0.470576">
        <ele>311.676</ele>
        <time>2020-08-23T08:01:05Z</time>
      </trkpt>
      <trkpt lat="41.845370" lon="0.470492">
        <ele>311.676</ele>
        <time>2020-08-23T08:01:06Z</time>
      </trkpt>
      <trkpt lat="41.845359" lon="0.470407">
        <ele>311.544</ele>
        <time>2020-08-23T08:01:07Z</time>
      </trkpt>
      <trkpt lat="41.845346" lon="0.470325">
        <ele>311.546</ele>
        <time>2020-08-23T08:01:08Z</time>
      </trkpt>
      <trkpt lat="41.845334" lon="0.470244">
        <ele>311.497</ele>
        <time>2020-08-23T08:01:09Z</time>
      </trkpt>
      <trkpt lat="41.845323" lon="0.470162">
        <ele>311.348</ele>
        <time>2020-08-23T08:01:10Z</time>
      </trkpt>
      <trkpt lat="41.845316" lon="0.470083">
        <ele>311.274</ele>
        <time>2020-08-23T08:01:11Z</time>
      </trkpt>
      <trkpt lat="41.845319" lon="0.470012">
        <ele>311.193</ele>
        <time>2020-08-23T08:01:12Z</time>
      </trkpt>
      <trkpt lat="41.845327" lon="0.469939">
        <ele>311.023</ele>
        <time>2020-08-23T08:01:13Z</time>
      </trkpt>
      <trkpt lat="41.845333" lon="0.469865">
        <ele>310.983</ele>
        <time>2020-08-23T08:01:14Z</time>
      </trkpt>
      <trkpt lat="41.845342" lon="0.469795">
        <ele>310.811</ele>
        <time>2020-08-23T08:01:15Z</time>
      </trkpt>
      <trkpt lat="41.845353" lon="0.469723">
        <ele>310.708</ele>
        <time>2020-08-23T08:01:16Z</time>
      </trkpt>
      <trkpt lat="41.845363" lon="0.469651">
        <ele>310.737</ele>
        <time>2020-08-23T08:01:17Z</time>
      </trkpt>
      <trkpt lat="41.845374" lon="0.469582">
        <ele>310.797</ele>
        <time>2020-08-23T08:01:18Z</time>
      </trkpt>
      <trkpt lat="41.845382" lon="0.469512">
        <ele>310.795</ele>
        <time>2020-08-23T08:01:19Z</time>
      </trkpt>
      <trkpt lat="41.845393" lon="0.469441">
        <ele>310.747</ele>
        <time>2020-08-23T08:01:20Z</time>
      </trkpt>
      <trkpt lat="41.845400" lon="0.469374">
        <ele>310.738</ele>
        <time>2020-08-23T08:01:21Z</time>
      </trkpt>
      <trkpt lat="41.845406" lon="0.469306">
        <ele>310.719</ele>
        <time>2020-08-23T08:01:22Z</time>
      </trkpt>
      <trkpt lat="41.845404" lon="0.469237">
        <ele>310.825</ele>
        <time>2020-08-23T08:01:23Z</time>
      </trkpt>
      <trkpt lat="41.845413" lon="0.469170">
        <ele>310.984</ele>
        <time>2020-08-23T08:01:24Z</time>
      </trkpt>
      <trkpt lat="41.845422" lon="0.469101">
        <ele>311.162</ele>
        <time>2020-08-23T08:01:25Z</time>
      </trkpt>
      <trkpt lat="41.845437" lon="0.469033">
        <ele>311.283</ele>
        <time>2020-08-23T08:01:26Z</time>
      </trkpt>
      <trkpt lat="41.845453" lon="0.468966">
        <ele>311.311</ele>
        <time>2020-08-23T08:01:27Z</time>
      </trkpt>
      <trkpt lat="41.845465" lon="0.468894">
        <ele>311.408</ele>
        <time>2020-08-23T08:01:28Z</time>
      </trkpt>
      <trkpt lat="41.845482" lon="0.468834">
        <ele>311.441</ele>
        <time>2020-08-23T08:01:29Z</time>
      </trkpt>
      <trkpt lat="41.845508" lon="0.468735">
        <ele>311.361</ele>
        <time>2020-08-23T08:01:31Z</time>
      </trkpt>
      <trkpt lat="41.845516" lon="0.468674">
        <ele>311.229</ele>
        <time>2020-08-23T08:01:33Z</time>
      </trkpt>
      <trkpt lat="41.845556" lon="0.468631">
        <ele>311.111</ele>
        <time>2020-08-23T08:01:40Z</time>
      </trkpt>
      <trkpt lat="41.845583" lon="0.468581">
        <ele>311.082</ele>
        <time>2020-08-23T08:02:36Z</time>
      </trkpt>
      <trkpt lat="41.845573" lon="0.468511">
        <ele>311.283</ele>
        <time>2020-08-23T08:02:48Z</time>
      </trkpt>
      <trkpt lat="41.845575" lon="0.468446">
        <ele>311.329</ele>
        <time>2020-08-23T08:02:50Z</time>
      </trkpt>
      <trkpt lat="41.845600" lon="0.468369">
        <ele>311.528</ele>
        <time>2020-08-23T08:02:52Z</time>
      </trkpt>
      <trkpt lat="41.845626" lon="0.468279">
        <ele>311.642</ele>
        <time>2020-08-23T08:02:54Z</time>
      </trkpt>
      <trkpt lat="41.845661" lon="0.468182">
        <ele>311.722</ele>
        <time>2020-08-23T08:02:56Z</time>
      </trkpt>
      <trkpt lat="41.845687" lon="0.468074">
        <ele>311.814</ele>
        <time>2020-08-23T08:02:58Z</time>
      </trkpt>
      <trkpt lat="41.845702" lon="0.467967">
        <ele>311.908</ele>
        <time>2020-08-23T08:03:00Z</time>
      </trkpt>
      <trkpt lat="41.845718" lon="0.467853">
        <ele>312.089</ele>
        <time>2020-08-23T08:03:02Z</time>
      </trkpt>
      <trkpt lat="41.845723" lon="0.467792">
        <ele>312.059</ele>
        <time>2020-08-23T08:03:03Z</time>
      </trkpt>
      <trkpt lat="41.845725" lon="0.467731">
        <ele>312.027</ele>
        <time>2020-08-23T08:03:04Z</time>
      </trkpt>
      <trkpt lat="41.845729" lon="0.467610">
        <ele>312.199</ele>
        <time>2020-08-23T08:03:06Z</time>
      </trkpt>
      <trkpt lat="41.845736" lon="0.467498">
        <ele>312.290</ele>
        <time>2020-08-23T08:03:08Z</time>
      </trkpt>
      <trkpt lat="41.845744" lon="0.467438">
        <ele>312.261</ele>
        <time>2020-08-23T08:03:09Z</time>
      </trkpt>
      <trkpt lat="41.845757" lon="0.467321">
        <ele>312.327</ele>
        <time>2020-08-23T08:03:11Z</time>
      </trkpt>
      <trkpt lat="41.845774" lon="0.467206">
        <ele>312.476</ele>
        <time>2020-08-23T08:03:13Z</time>
      </trkpt>
      <trkpt lat="41.845783" lon="0.467142">
        <ele>312.438</ele>
        <time>2020-08-23T08:03:14Z</time>
      </trkpt>
      <trkpt lat="41.845792" lon="0.467082">
        <ele>312.570</ele>
        <time>2020-08-23T08:03:15Z</time>
      </trkpt>
      <trkpt lat="41.845802" lon="0.467021">
        <ele>312.517</ele>
        <time>2020-08-23T08:03:16Z</time>
      </trkpt>
      <trkpt lat="41.845810" lon="0.466958">
        <ele>312.508</ele>
        <time>2020-08-23T08:03:17Z</time>
      </trkpt>
      <trkpt lat="41.845806" lon="0.466835">
        <ele>312.678</ele>
        <time>2020-08-23T08:03:19Z</time>
      </trkpt>
      <trkpt lat="41.845804" lon="0.466768">
        <ele>312.688</ele>
        <time>2020-08-23T08:03:20Z</time>
      </trkpt>
      <trkpt lat="41.845816" lon="0.466652">
        <ele>312.716</ele>
        <time>2020-08-23T08:03:22Z</time>
      </trkpt>
      <trkpt lat="41.845822" lon="0.466589">
        <ele>312.788</ele>
        <time>2020-08-23T08:03:23Z</time>
      </trkpt>
      <trkpt lat="41.845841" lon="0.466477">
        <ele>312.839</ele>
        <time>2020-08-23T08:03:25Z</time>
      </trkpt>
      <trkpt lat="41.845854" lon="0.466416">
        <ele>312.930</ele>
        <time>2020-08-23T08:03:26Z</time>
      </trkpt>
      <trkpt lat="41.845863" lon="0.466307">
        <ele>313.136</ele>
        <time>2020-08-23T08:03:28Z</time>
      </trkpt>
      <trkpt lat="41.845871" lon="0.466187">
        <ele>313.315</ele>
        <time>2020-08-23T08:03:30Z</time>
      </trkpt>
      <trkpt lat="41.845878" lon="0.466126">
        <ele>313.464</ele>
        <time>2020-08-23T08:03:31Z</time>
      </trkpt>
      <trkpt lat="41.845881" lon="0.466066">
        <ele>313.506</ele>
        <time>2020-08-23T08:03:32Z</time>
      </trkpt>
      <trkpt lat="41.845873" lon="0.465992">
        <ele>313.616</ele>
        <time>2020-08-23T08:03:34Z</time>
      </trkpt>
      <trkpt lat="41.845881" lon="0.465893">
        <ele>313.708</ele>
        <time>2020-08-23T08:03:36Z</time>
      </trkpt>
      <trkpt lat="41.845883" lon="0.465782">
        <ele>313.891</ele>
        <time>2020-08-23T08:03:38Z</time>
      </trkpt>
      <trkpt lat="41.845882" lon="0.465666">
        <ele>313.931</ele>
        <time>2020-08-23T08:03:40Z</time>
      </trkpt>
      <trkpt lat="41.845882" lon="0.465605">
        <ele>314.079</ele>
        <time>2020-08-23T08:03:41Z</time>
      </trkpt>
      <trkpt lat="41.845891" lon="0.465486">
        <ele>314.121</ele>
        <time>2020-08-23T08:03:43Z</time>
      </trkpt>
      <trkpt lat="41.845907" lon="0.465370">
        <ele>314.372</ele>
        <time>2020-08-23T08:03:45Z</time>
      </trkpt>
      <trkpt lat="41.845918" lon="0.465252">
        <ele>314.563</ele>
        <time>2020-08-23T08:03:47Z</time>
      </trkpt>
      <trkpt lat="41.845920" lon="0.465133">
        <ele>314.799</ele>
        <time>2020-08-23T08:03:49Z</time>
      </trkpt>
      <trkpt lat="41.845922" lon="0.465071">
        <ele>314.888</ele>
        <time>2020-08-23T08:03:50Z</time>
      </trkpt>
      <trkpt lat="41.845926" lon="0.465010">
        <ele>314.823</ele>
        <time>2020-08-23T08:03:51Z</time>
      </trkpt>
      <trkpt lat="41.845936" lon="0.464897">
        <ele>314.983</ele>
        <time>2020-08-23T08:03:53Z</time>
      </trkpt>
      <trkpt lat="41.845946" lon="0.464834">
        <ele>315.011</ele>
        <time>2020-08-23T08:03:54Z</time>
      </trkpt>
      <trkpt lat="41.845963" lon="0.464725">
        <ele>315.208</ele>
        <time>2020-08-23T08:03:56Z</time>
      </trkpt>
      <trkpt lat="41.845981" lon="0.464617">
        <ele>315.337</ele>
        <time>2020-08-23T08:03:58Z</time>
      </trkpt>
      <trkpt lat="41.846002" lon="0.464509">
        <ele>315.417</ele>
        <time>2020-08-23T08:04:00Z</time>
      </trkpt>
      <trkpt lat="41.846029" lon="0.464399">
        <ele>315.575</ele>
        <time>2020-08-23T08:04:02Z</time>
      </trkpt>
      <trkpt lat="41.846055" lon="0.464292">
        <ele>315.767</ele>
        <time>2020-08-23T08:04:04Z</time>
      </trkpt>
      <trkpt lat="41.846073" lon="0.464236">
        <ele>315.898</ele>
        <time>2020-08-23T08:04:05Z</time>
      </trkpt>
      <trkpt lat="41.846106" lon="0.464121">
        <ele>315.969</ele>
        <time>2020-08-23T08:04:07Z</time>
      </trkpt>
      <trkpt lat="41.846120" lon="0.464061">
        <ele>315.995</ele>
        <time>2020-08-23T08:04:08Z</time>
      </trkpt>
      <trkpt lat="41.846130" lon="0.463999">
        <ele>315.914</ele>
        <time>2020-08-23T08:04:09Z</time>
      </trkpt>
      <trkpt lat="41.846137" lon="0.463932">
        <ele>315.973</ele>
        <time>2020-08-23T08:04:10Z</time>
      </trkpt>
      <trkpt lat="41.846148" lon="0.463862">
        <ele>315.985</ele>
        <time>2020-08-23T08:04:11Z</time>
      </trkpt>
      <trkpt lat="41.846163" lon="0.463792">
        <ele>315.913</ele>
        <time>2020-08-23T08:04:12Z</time>
      </trkpt>
      <trkpt lat="41.846182" lon="0.463726">
        <ele>315.908</ele>
        <time>2020-08-23T08:04:13Z</time>
      </trkpt>
      <trkpt lat="41.846195" lon="0.463655">
        <ele>315.932</ele>
        <time>2020-08-23T08:04:14Z</time>
      </trkpt>
      <trkpt lat="41.846206" lon="0.463584">
        <ele>315.992</ele>
        <time>2020-08-23T08:04:15Z</time>
      </trkpt>
      <trkpt lat="41.846212" lon="0.463519">
        <ele>315.960</ele>
        <time>2020-08-23T08:04:16Z</time>
      </trkpt>
      <trkpt lat="41.846220" lon="0.463450">
        <ele>315.912</ele>
        <time>2020-08-23T08:04:17Z</time>
      </trkpt>
      <trkpt lat="41.846234" lon="0.463389">
        <ele>315.943</ele>
        <time>2020-08-23T08:04:18Z</time>
      </trkpt>
      <trkpt lat="41.846261" lon="0.463269">
        <ele>315.984</ele>
        <time>2020-08-23T08:04:20Z</time>
      </trkpt>
      <trkpt lat="41.846277" lon="0.463209">
        <ele>316.010</ele>
        <time>2020-08-23T08:04:21Z</time>
      </trkpt>
      <trkpt lat="41.846291" lon="0.463151">
        <ele>316.059</ele>
        <time>2020-08-23T08:04:22Z</time>
      </trkpt>
      <trkpt lat="41.846307" lon="0.463093">
        <ele>316.163</ele>
        <time>2020-08-23T08:04:23Z</time>
      </trkpt>
      <trkpt lat="41.846320" lon="0.463030">
        <ele>316.144</ele>
        <time>2020-08-23T08:04:24Z</time>
      </trkpt>
      <trkpt lat="41.846337" lon="0.462971">
        <ele>316.118</ele>
        <time>2020-08-23T08:04:25Z</time>
      </trkpt>
      <trkpt lat="41.846352" lon="0.462913">
        <ele>316.108</ele>
        <time>2020-08-23T08:04:26Z</time>
      </trkpt>
      <trkpt lat="41.846370" lon="0.462854">
        <ele>316.131</ele>
        <time>2020-08-23T08:04:27Z</time>
      </trkpt>
      <trkpt lat="41.846389" lon="0.462786">
        <ele>316.141</ele>
        <time>2020-08-23T08:04:28Z</time>
      </trkpt>
      <trkpt lat="41.846408" lon="0.462717">
        <ele>316.179</ele>
        <time>2020-08-23T08:04:29Z</time>
      </trkpt>
      <trkpt lat="41.846430" lon="0.462648">
        <ele>316.211</ele>
        <time>2020-08-23T08:04:30Z</time>
      </trkpt>
      <trkpt lat="41.846451" lon="0.462585">
        <ele>316.352</ele>
        <time>2020-08-23T08:04:31Z</time>
      </trkpt>
      <trkpt lat="41.846468" lon="0.462519">
        <ele>316.433</ele>
        <time>2020-08-23T08:04:32Z</time>
      </trkpt>
      <trkpt lat="41.846492" lon="0.462456">
        <ele>316.589</ele>
        <time>2020-08-23T08:04:33Z</time>
      </trkpt>
      <trkpt lat="41.846513" lon="0.462390">
        <ele>316.558</ele>
        <time>2020-08-23T08:04:34Z</time>
      </trkpt>
      <trkpt lat="41.846531" lon="0.462325">
        <ele>316.582</ele>
        <time>2020-08-23T08:04:35Z</time>
      </trkpt>
      <trkpt lat="41.846545" lon="0.462263">
        <ele>316.543</ele>
        <time>2020-08-23T08:04:36Z</time>
      </trkpt>
      <trkpt lat="41.846557" lon="0.462201">
        <ele>316.517</ele>
        <time>2020-08-23T08:04:37Z</time>
      </trkpt>
      <trkpt lat="41.846583" lon="0.462100">
        <ele>316.608</ele>
        <time>2020-08-23T08:04:39Z</time>
      </trkpt>
      <trkpt lat="41.846595" lon="0.462039">
        <ele>316.773</ele>
        <time>2020-08-23T08:04:40Z</time>
      </trkpt>
      <trkpt lat="41.846609" lon="0.461979">
        <ele>316.733</ele>
        <time>2020-08-23T08:04:41Z</time>
      </trkpt>
      <trkpt lat="41.846622" lon="0.461921">
        <ele>316.751</ele>
        <time>2020-08-23T08:04:42Z</time>
      </trkpt>
      <trkpt lat="41.846633" lon="0.461861">
        <ele>316.823</ele>
        <time>2020-08-23T08:04:43Z</time>
      </trkpt>
      <trkpt lat="41.846645" lon="0.461802">
        <ele>316.934</ele>
        <time>2020-08-23T08:04:44Z</time>
      </trkpt>
      <trkpt lat="41.846655" lon="0.461740">
        <ele>317.065</ele>
        <time>2020-08-23T08:04:45Z</time>
      </trkpt>
      <trkpt lat="41.846669" lon="0.461672">
        <ele>317.111</ele>
        <time>2020-08-23T08:04:46Z</time>
      </trkpt>
      <trkpt lat="41.846683" lon="0.461611">
        <ele>317.250</ele>
        <time>2020-08-23T08:04:47Z</time>
      </trkpt>
      <trkpt lat="41.846695" lon="0.461546">
        <ele>317.256</ele>
        <time>2020-08-23T08:04:48Z</time>
      </trkpt>
      <trkpt lat="41.846707" lon="0.461474">
        <ele>317.259</ele>
        <time>2020-08-23T08:04:49Z</time>
      </trkpt>
      <trkpt lat="41.846719" lon="0.461411">
        <ele>317.214</ele>
        <time>2020-08-23T08:04:50Z</time>
      </trkpt>
      <trkpt lat="41.846728" lon="0.461351">
        <ele>317.208</ele>
        <time>2020-08-23T08:04:51Z</time>
      </trkpt>
      <trkpt lat="41.846739" lon="0.461279">
        <ele>317.250</ele>
        <time>2020-08-23T08:04:52Z</time>
      </trkpt>
      <trkpt lat="41.846751" lon="0.461198">
        <ele>317.290</ele>
        <time>2020-08-23T08:04:53Z</time>
      </trkpt>
      <trkpt lat="41.846764" lon="0.461115">
        <ele>317.138</ele>
        <time>2020-08-23T08:04:54Z</time>
      </trkpt>
      <trkpt lat="41.846777" lon="0.461039">
        <ele>317.070</ele>
        <time>2020-08-23T08:04:55Z</time>
      </trkpt>
      <trkpt lat="41.846790" lon="0.460958">
        <ele>316.671</ele>
        <time>2020-08-23T08:04:56Z</time>
      </trkpt>
      <trkpt lat="41.846801" lon="0.460876">
        <ele>316.452</ele>
        <time>2020-08-23T08:04:57Z</time>
      </trkpt>
      <trkpt lat="41.846816" lon="0.460798">
        <ele>316.248</ele>
        <time>2020-08-23T08:04:58Z</time>
      </trkpt>
      <trkpt lat="41.846834" lon="0.460715">
        <ele>316.017</ele>
        <time>2020-08-23T08:04:59Z</time>
      </trkpt>
      <trkpt lat="41.846855" lon="0.460628">
        <ele>315.886</ele>
        <time>2020-08-23T08:05:00Z</time>
      </trkpt>
      <trkpt lat="41.846879" lon="0.460543">
        <ele>315.660</ele>
        <time>2020-08-23T08:05:01Z</time>
      </trkpt>
      <trkpt lat="41.846907" lon="0.460457">
        <ele>315.526</ele>
        <time>2020-08-23T08:05:02Z</time>
      </trkpt>
      <trkpt lat="41.846932" lon="0.460368">
        <ele>315.308</ele>
        <time>2020-08-23T08:05:03Z</time>
      </trkpt>
      <trkpt lat="41.846955" lon="0.460280">
        <ele>315.113</ele>
        <time>2020-08-23T08:05:04Z</time>
      </trkpt>
      <trkpt lat="41.846977" lon="0.460187">
        <ele>314.953</ele>
        <time>2020-08-23T08:05:05Z</time>
      </trkpt>
      <trkpt lat="41.847005" lon="0.460099">
        <ele>314.821</ele>
        <time>2020-08-23T08:05:06Z</time>
      </trkpt>
      <trkpt lat="41.847027" lon="0.460012">
        <ele>314.673</ele>
        <time>2020-08-23T08:05:07Z</time>
      </trkpt>
      <trkpt lat="41.847055" lon="0.459924">
        <ele>314.414</ele>
        <time>2020-08-23T08:05:08Z</time>
      </trkpt>
      <trkpt lat="41.847080" lon="0.459841">
        <ele>314.365</ele>
        <time>2020-08-23T08:05:09Z</time>
      </trkpt>
      <trkpt lat="41.847101" lon="0.459756">
        <ele>314.221</ele>
        <time>2020-08-23T08:05:10Z</time>
      </trkpt>
      <trkpt lat="41.847113" lon="0.459675">
        <ele>314.180</ele>
        <time>2020-08-23T08:05:11Z</time>
      </trkpt>
      <trkpt lat="41.847129" lon="0.459594">
        <ele>314.078</ele>
        <time>2020-08-23T08:05:12Z</time>
      </trkpt>
      <trkpt lat="41.847157" lon="0.459513">
        <ele>313.933</ele>
        <time>2020-08-23T08:05:13Z</time>
      </trkpt>
      <trkpt lat="41.847182" lon="0.459432">
        <ele>313.726</ele>
        <time>2020-08-23T08:05:14Z</time>
      </trkpt>
      <trkpt lat="41.847206" lon="0.459351">
        <ele>313.608</ele>
        <time>2020-08-23T08:05:15Z</time>
      </trkpt>
      <trkpt lat="41.847228" lon="0.459270">
        <ele>313.562</ele>
        <time>2020-08-23T08:05:16Z</time>
      </trkpt>
      <trkpt lat="41.847250" lon="0.459190">
        <ele>313.432</ele>
        <time>2020-08-23T08:05:17Z</time>
      </trkpt>
      <trkpt lat="41.847274" lon="0.459111">
        <ele>313.360</ele>
        <time>2020-08-23T08:05:18Z</time>
      </trkpt>
      <trkpt lat="41.847301" lon="0.459023">
        <ele>313.232</ele>
        <time>2020-08-23T08:05:19Z</time>
      </trkpt>
      <trkpt lat="41.847328" lon="0.458941">
        <ele>313.173</ele>
        <time>2020-08-23T08:05:20Z</time>
      </trkpt>
      <trkpt lat="41.847350" lon="0.458858">
        <ele>313.094</ele>
        <time>2020-08-23T08:05:21Z</time>
      </trkpt>
      <trkpt lat="41.847371" lon="0.458777">
        <ele>312.960</ele>
        <time>2020-08-23T08:05:22Z</time>
      </trkpt>
      <trkpt lat="41.847385" lon="0.458704">
        <ele>312.859</ele>
        <time>2020-08-23T08:05:23Z</time>
      </trkpt>
      <trkpt lat="41.847394" lon="0.458636">
        <ele>312.765</ele>
        <time>2020-08-23T08:05:24Z</time>
      </trkpt>
      <trkpt lat="41.847402" lon="0.458569">
        <ele>312.568</ele>
        <time>2020-08-23T08:05:25Z</time>
      </trkpt>
      <trkpt lat="41.847410" lon="0.458505">
        <ele>312.314</ele>
        <time>2020-08-23T08:05:26Z</time>
      </trkpt>
      <trkpt lat="41.847416" lon="0.458437">
        <ele>312.108</ele>
        <time>2020-08-23T08:05:27Z</time>
      </trkpt>
      <trkpt lat="41.847430" lon="0.458366">
        <ele>311.981</ele>
        <time>2020-08-23T08:05:28Z</time>
      </trkpt>
      <trkpt lat="41.847450" lon="0.458301">
        <ele>311.711</ele>
        <time>2020-08-23T08:05:29Z</time>
      </trkpt>
      <trkpt lat="41.847473" lon="0.458234">
        <ele>311.559</ele>
        <time>2020-08-23T08:05:30Z</time>
      </trkpt>
      <trkpt lat="41.847497" lon="0.458159">
        <ele>311.371</ele>
        <time>2020-08-23T08:05:31Z</time>
      </trkpt>
      <trkpt lat="41.847528" lon="0.458075">
        <ele>310.782</ele>
        <time>2020-08-23T08:05:32Z</time>
      </trkpt>
      <trkpt lat="41.847560" lon="0.457989">
        <ele>310.443</ele>
        <time>2020-08-23T08:05:33Z</time>
      </trkpt>
      <trkpt lat="41.847590" lon="0.457904">
        <ele>310.139</ele>
        <time>2020-08-23T08:05:34Z</time>
      </trkpt>
      <trkpt lat="41.847618" lon="0.457813">
        <ele>309.868</ele>
        <time>2020-08-23T08:05:35Z</time>
      </trkpt>
      <trkpt lat="41.847645" lon="0.457710">
        <ele>309.581</ele>
        <time>2020-08-23T08:05:36Z</time>
      </trkpt>
      <trkpt lat="41.847677" lon="0.457603">
        <ele>309.261</ele>
        <time>2020-08-23T08:05:37Z</time>
      </trkpt>
      <trkpt lat="41.847706" lon="0.457496">
        <ele>308.917</ele>
        <time>2020-08-23T08:05:38Z</time>
      </trkpt>
      <trkpt lat="41.847739" lon="0.457390">
        <ele>308.608</ele>
        <time>2020-08-23T08:05:39Z</time>
      </trkpt>
      <trkpt lat="41.847770" lon="0.457279">
        <ele>308.393</ele>
        <time>2020-08-23T08:05:40Z</time>
      </trkpt>
      <trkpt lat="41.847803" lon="0.457181">
        <ele>308.053</ele>
        <time>2020-08-23T08:05:41Z</time>
      </trkpt>
      <trkpt lat="41.847838" lon="0.457083">
        <ele>307.741</ele>
        <time>2020-08-23T08:05:42Z</time>
      </trkpt>
      <trkpt lat="41.847873" lon="0.456980">
        <ele>307.433</ele>
        <time>2020-08-23T08:05:43Z</time>
      </trkpt>
      <trkpt lat="41.847908" lon="0.456878">
        <ele>307.194</ele>
        <time>2020-08-23T08:05:44Z</time>
      </trkpt>
      <trkpt lat="41.847943" lon="0.456773">
        <ele>306.815</ele>
        <time>2020-08-23T08:05:45Z</time>
      </trkpt>
      <trkpt lat="41.847969" lon="0.456658">
        <ele>306.581</ele>
        <time>2020-08-23T08:05:46Z</time>
      </trkpt>
      <trkpt lat="41.847995" lon="0.456555">
        <ele>306.270</ele>
        <time>2020-08-23T08:05:47Z</time>
      </trkpt>
      <trkpt lat="41.848016" lon="0.456452">
        <ele>305.996</ele>
        <time>2020-08-23T08:05:48Z</time>
      </trkpt>
      <trkpt lat="41.848042" lon="0.456342">
        <ele>305.631</ele>
        <time>2020-08-23T08:05:49Z</time>
      </trkpt>
      <trkpt lat="41.848075" lon="0.456235">
        <ele>305.124</ele>
        <time>2020-08-23T08:05:50Z</time>
      </trkpt>
      <trkpt lat="41.848108" lon="0.456129">
        <ele>304.908</ele>
        <time>2020-08-23T08:05:51Z</time>
      </trkpt>
      <trkpt lat="41.848142" lon="0.456028">
        <ele>304.834</ele>
        <time>2020-08-23T08:05:52Z</time>
      </trkpt>
      <trkpt lat="41.848169" lon="0.455929">
        <ele>304.764</ele>
        <time>2020-08-23T08:05:53Z</time>
      </trkpt>
      <trkpt lat="41.848198" lon="0.455818">
        <ele>304.622</ele>
        <time>2020-08-23T08:05:54Z</time>
      </trkpt>
      <trkpt lat="41.848218" lon="0.455703">
        <ele>304.454</ele>
        <time>2020-08-23T08:05:55Z</time>
      </trkpt>
      <trkpt lat="41.848240" lon="0.455596">
        <ele>304.255</ele>
        <time>2020-08-23T08:05:56Z</time>
      </trkpt>
      <trkpt lat="41.848265" lon="0.455493">
        <ele>304.086</ele>
        <time>2020-08-23T08:05:57Z</time>
      </trkpt>
      <trkpt lat="41.848288" lon="0.455389">
        <ele>303.812</ele>
        <time>2020-08-23T08:05:58Z</time>
      </trkpt>
      <trkpt lat="41.848317" lon="0.455282">
        <ele>303.641</ele>
        <time>2020-08-23T08:05:59Z</time>
      </trkpt>
      <trkpt lat="41.848340" lon="0.455181">
        <ele>303.458</ele>
        <time>2020-08-23T08:06:00Z</time>
      </trkpt>
      <trkpt lat="41.848358" lon="0.455084">
        <ele>303.352</ele>
        <time>2020-08-23T08:06:01Z</time>
      </trkpt>
      <trkpt lat="41.848370" lon="0.454990">
        <ele>303.217</ele>
        <time>2020-08-23T08:06:02Z</time>
      </trkpt>
      <trkpt lat="41.848382" lon="0.454904">
        <ele>303.108</ele>
        <time>2020-08-23T08:06:03Z</time>
      </trkpt>
      <trkpt lat="41.848387" lon="0.454821">
        <ele>303.010</ele>
        <time>2020-08-23T08:06:04Z</time>
      </trkpt>
      <trkpt lat="41.848384" lon="0.454740">
        <ele>302.920</ele>
        <time>2020-08-23T08:06:05Z</time>
      </trkpt>
      <trkpt lat="41.848381" lon="0.454672">
        <ele>302.818</ele>
        <time>2020-08-23T08:06:06Z</time>
      </trkpt>
      <trkpt lat="41.848381" lon="0.454605">
        <ele>302.620</ele>
        <time>2020-08-23T08:06:07Z</time>
      </trkpt>
      <trkpt lat="41.848384" lon="0.454536">
        <ele>302.291</ele>
        <time>2020-08-23T08:06:08Z</time>
      </trkpt>
      <trkpt lat="41.848390" lon="0.454459">
        <ele>302.022</ele>
        <time>2020-08-23T08:06:09Z</time>
      </trkpt>
      <trkpt lat="41.848401" lon="0.454381">
        <ele>301.948</ele>
        <time>2020-08-23T08:06:10Z</time>
      </trkpt>
      <trkpt lat="41.848409" lon="0.454305">
        <ele>301.897</ele>
        <time>2020-08-23T08:06:11Z</time>
      </trkpt>
      <trkpt lat="41.848418" lon="0.454228">
        <ele>301.888</ele>
        <time>2020-08-23T08:06:12Z</time>
      </trkpt>
      <trkpt lat="41.848433" lon="0.454152">
        <ele>301.824</ele>
        <time>2020-08-23T08:06:13Z</time>
      </trkpt>
      <trkpt lat="41.848458" lon="0.454082">
        <ele>301.826</ele>
        <time>2020-08-23T08:06:14Z</time>
      </trkpt>
      <trkpt lat="41.848488" lon="0.454019">
        <ele>301.708</ele>
        <time>2020-08-23T08:06:15Z</time>
      </trkpt>
      <trkpt lat="41.848511" lon="0.453947">
        <ele>301.793</ele>
        <time>2020-08-23T08:06:16Z</time>
      </trkpt>
      <trkpt lat="41.848539" lon="0.453879">
        <ele>301.673</ele>
        <time>2020-08-23T08:06:17Z</time>
      </trkpt>
      <trkpt lat="41.848561" lon="0.453802">
        <ele>301.531</ele>
        <time>2020-08-23T08:06:18Z</time>
      </trkpt>
      <trkpt lat="41.848581" lon="0.453732">
        <ele>301.433</ele>
        <time>2020-08-23T08:06:19Z</time>
      </trkpt>
      <trkpt lat="41.848600" lon="0.453668">
        <ele>301.364</ele>
        <time>2020-08-23T08:06:20Z</time>
      </trkpt>
      <trkpt lat="41.848620" lon="0.453608">
        <ele>301.245</ele>
        <time>2020-08-23T08:06:21Z</time>
      </trkpt>
      <trkpt lat="41.848638" lon="0.453551">
        <ele>301.261</ele>
        <time>2020-08-23T08:06:22Z</time>
      </trkpt>
      <trkpt lat="41.848695" lon="0.453462">
        <ele>301.260</ele>
        <time>2020-08-23T08:06:24Z</time>
      </trkpt>
      <trkpt lat="41.848729" lon="0.453419">
        <ele>301.296</ele>
        <time>2020-08-23T08:06:25Z</time>
      </trkpt>
      <trkpt lat="41.848799" lon="0.453337">
        <ele>301.331</ele>
        <time>2020-08-23T08:06:27Z</time>
      </trkpt>
      <trkpt lat="41.848824" lon="0.453281">
        <ele>301.324</ele>
        <time>2020-08-23T08:06:28Z</time>
      </trkpt>
      <trkpt lat="41.848844" lon="0.453217">
        <ele>301.308</ele>
        <time>2020-08-23T08:06:29Z</time>
      </trkpt>
      <trkpt lat="41.848858" lon="0.453154">
        <ele>301.344</ele>
        <time>2020-08-23T08:06:30Z</time>
      </trkpt>
      <trkpt lat="41.848872" lon="0.453034">
        <ele>301.324</ele>
        <time>2020-08-23T08:06:32Z</time>
      </trkpt>
      <trkpt lat="41.848881" lon="0.452972">
        <ele>301.352</ele>
        <time>2020-08-23T08:06:33Z</time>
      </trkpt>
      <trkpt lat="41.848893" lon="0.452912">
        <ele>301.364</ele>
        <time>2020-08-23T08:06:34Z</time>
      </trkpt>
      <trkpt lat="41.848913" lon="0.452812">
        <ele>301.475</ele>
        <time>2020-08-23T08:06:36Z</time>
      </trkpt>
      <trkpt lat="41.848941" lon="0.452720">
        <ele>301.546</ele>
        <time>2020-08-23T08:06:38Z</time>
      </trkpt>
      <trkpt lat="41.848971" lon="0.452617">
        <ele>301.662</ele>
        <time>2020-08-23T08:06:40Z</time>
      </trkpt>
      <trkpt lat="41.848998" lon="0.452506">
        <ele>301.781</ele>
        <time>2020-08-23T08:06:42Z</time>
      </trkpt>
      <trkpt lat="41.849028" lon="0.452395">
        <ele>302.087</ele>
        <time>2020-08-23T08:06:44Z</time>
      </trkpt>
      <trkpt lat="41.849052" lon="0.452286">
        <ele>302.242</ele>
        <time>2020-08-23T08:06:46Z</time>
      </trkpt>
      <trkpt lat="41.849073" lon="0.452171">
        <ele>302.426</ele>
        <time>2020-08-23T08:06:48Z</time>
      </trkpt>
      <trkpt lat="41.849100" lon="0.452064">
        <ele>302.608</ele>
        <time>2020-08-23T08:06:50Z</time>
      </trkpt>
      <trkpt lat="41.849116" lon="0.451971">
        <ele>302.833</ele>
        <time>2020-08-23T08:06:52Z</time>
      </trkpt>
      <trkpt lat="41.849132" lon="0.451890">
        <ele>303.073</ele>
        <time>2020-08-23T08:06:54Z</time>
      </trkpt>
      <trkpt lat="41.849143" lon="0.451788">
        <ele>303.281</ele>
        <time>2020-08-23T08:06:56Z</time>
      </trkpt>
      <trkpt lat="41.849165" lon="0.451696">
        <ele>303.453</ele>
        <time>2020-08-23T08:06:58Z</time>
      </trkpt>
      <trkpt lat="41.849194" lon="0.451598">
        <ele>303.644</ele>
        <time>2020-08-23T08:07:00Z</time>
      </trkpt>
      <trkpt lat="41.849204" lon="0.451505">
        <ele>303.995</ele>
        <time>2020-08-23T08:07:02Z</time>
      </trkpt>
      <trkpt lat="41.849223" lon="0.451423">
        <ele>304.141</ele>
        <time>2020-08-23T08:07:04Z</time>
      </trkpt>
      <trkpt lat="41.849244" lon="0.451330">
        <ele>304.310</ele>
        <time>2020-08-23T08:07:06Z</time>
      </trkpt>
      <trkpt lat="41.849255" lon="0.451241">
        <ele>304.575</ele>
        <time>2020-08-23T08:07:08Z</time>
      </trkpt>
      <trkpt lat="41.849262" lon="0.451170">
        <ele>304.828</ele>
        <time>2020-08-23T08:07:10Z</time>
      </trkpt>
      <trkpt lat="41.849274" lon="0.451084">
        <ele>305.120</ele>
        <time>2020-08-23T08:07:12Z</time>
      </trkpt>
      <trkpt lat="41.849289" lon="0.450999">
        <ele>305.408</ele>
        <time>2020-08-23T08:07:14Z</time>
      </trkpt>
      <trkpt lat="41.849306" lon="0.450915">
        <ele>305.762</ele>
        <time>2020-08-23T08:07:16Z</time>
      </trkpt>
      <trkpt lat="41.849332" lon="0.450839">
        <ele>306.032</ele>
        <time>2020-08-23T08:07:18Z</time>
      </trkpt>
      <trkpt lat="41.849362" lon="0.450765">
        <ele>306.570</ele>
        <time>2020-08-23T08:07:20Z</time>
      </trkpt>
      <trkpt lat="41.849393" lon="0.450699">
        <ele>306.832</ele>
        <time>2020-08-23T08:07:22Z</time>
      </trkpt>
      <trkpt lat="41.849423" lon="0.450644">
        <ele>307.173</ele>
        <time>2020-08-23T08:07:24Z</time>
      </trkpt>
      <trkpt lat="41.849451" lon="0.450576">
        <ele>307.734</ele>
        <time>2020-08-23T08:07:27Z</time>
      </trkpt>
      <trkpt lat="41.849465" lon="0.450515">
        <ele>308.260</ele>
        <time>2020-08-23T08:07:29Z</time>
      </trkpt>
      <trkpt lat="41.849496" lon="0.450455">
        <ele>308.629</ele>
        <time>2020-08-23T08:07:31Z</time>
      </trkpt>
      <trkpt lat="41.849536" lon="0.450391">
        <ele>309.098</ele>
        <time>2020-08-23T08:07:34Z</time>
      </trkpt>
      <trkpt lat="41.849573" lon="0.450332">
        <ele>309.615</ele>
        <time>2020-08-23T08:07:37Z</time>
      </trkpt>
      <trkpt lat="41.849615" lon="0.450272">
        <ele>310.026</ele>
        <time>2020-08-23T08:07:40Z</time>
      </trkpt>
      <trkpt lat="41.849654" lon="0.450203">
        <ele>310.408</ele>
        <time>2020-08-23T08:07:43Z</time>
      </trkpt>
      <trkpt lat="41.849705" lon="0.450154">
        <ele>310.994</ele>
        <time>2020-08-23T08:07:46Z</time>
      </trkpt>
      <trkpt lat="41.849722" lon="0.450098">
        <ele>311.364</ele>
        <time>2020-08-23T08:07:48Z</time>
      </trkpt>
      <trkpt lat="41.849762" lon="0.450034">
        <ele>311.862</ele>
        <time>2020-08-23T08:07:51Z</time>
      </trkpt>
      <trkpt lat="41.849789" lon="0.449946">
        <ele>312.394</ele>
        <time>2020-08-23T08:07:54Z</time>
      </trkpt>
      <trkpt lat="41.849837" lon="0.449936">
        <ele>312.525</ele>
        <time>2020-08-23T08:07:56Z</time>
      </trkpt>
      <trkpt lat="41.849889" lon="0.449886">
        <ele>312.986</ele>
        <time>2020-08-23T08:07:59Z</time>
      </trkpt>
      <trkpt lat="41.849930" lon="0.449815">
        <ele>313.232</ele>
        <time>2020-08-23T08:08:02Z</time>
      </trkpt>
      <trkpt lat="41.849978" lon="0.449769">
        <ele>313.641</ele>
        <time>2020-08-23T08:08:05Z</time>
      </trkpt>
      <trkpt lat="41.850017" lon="0.449713">
        <ele>313.853</ele>
        <time>2020-08-23T08:08:07Z</time>
      </trkpt>
      <trkpt lat="41.850051" lon="0.449669">
        <ele>314.004</ele>
        <time>2020-08-23T08:08:09Z</time>
      </trkpt>
      <trkpt lat="41.850093" lon="0.449627">
        <ele>314.214</ele>
        <time>2020-08-23T08:08:11Z</time>
      </trkpt>
      <trkpt lat="41.850135" lon="0.449588">
        <ele>314.408</ele>
        <time>2020-08-23T08:08:13Z</time>
      </trkpt>
      <trkpt lat="41.850171" lon="0.449537">
        <ele>314.610</ele>
        <time>2020-08-23T08:08:15Z</time>
      </trkpt>
      <trkpt lat="41.850210" lon="0.449496">
        <ele>314.890</ele>
        <time>2020-08-23T08:08:17Z</time>
      </trkpt>
      <trkpt lat="41.850248" lon="0.449427">
        <ele>315.168</ele>
        <time>2020-08-23T08:08:20Z</time>
      </trkpt>
      <trkpt lat="41.850290" lon="0.449351">
        <ele>315.440</ele>
        <time>2020-08-23T08:08:23Z</time>
      </trkpt>
      <trkpt lat="41.850330" lon="0.449282">
        <ele>315.771</ele>
        <time>2020-08-23T08:08:26Z</time>
      </trkpt>
      <trkpt lat="41.850353" lon="0.449210">
        <ele>315.922</ele>
        <time>2020-08-23T08:08:29Z</time>
      </trkpt>
      <trkpt lat="41.850378" lon="0.449145">
        <ele>316.138</ele>
        <time>2020-08-23T08:08:31Z</time>
      </trkpt>
      <trkpt lat="41.850409" lon="0.449093">
        <ele>316.357</ele>
        <time>2020-08-23T08:08:33Z</time>
      </trkpt>
      <trkpt lat="41.850434" lon="0.449029">
        <ele>316.514</ele>
        <time>2020-08-23T08:08:35Z</time>
      </trkpt>
      <trkpt lat="41.850463" lon="0.448976">
        <ele>316.754</ele>
        <time>2020-08-23T08:08:37Z</time>
      </trkpt>
      <trkpt lat="41.850486" lon="0.448892">
        <ele>317.009</ele>
        <time>2020-08-23T08:08:40Z</time>
      </trkpt>
      <trkpt lat="41.850522" lon="0.448825">
        <ele>317.408</ele>
        <time>2020-08-23T08:08:43Z</time>
      </trkpt>
      <trkpt lat="41.850564" lon="0.448763">
        <ele>317.766</ele>
        <time>2020-08-23T08:08:46Z</time>
      </trkpt>
      <trkpt lat="41.850602" lon="0.448707">
        <ele>318.036</ele>
        <time>2020-08-23T08:08:48Z</time>
      </trkpt>
      <trkpt lat="41.850630" lon="0.448638">
        <ele>318.224</ele>
        <time>2020-08-23T08:08:50Z</time>
      </trkpt>
      <trkpt lat="41.850659" lon="0.448582">
        <ele>318.386</ele>
        <time>2020-08-23T08:08:52Z</time>
      </trkpt>
      <trkpt lat="41.850708" lon="0.448540">
        <ele>318.497</ele>
        <time>2020-08-23T08:08:54Z</time>
      </trkpt>
      <trkpt lat="41.850737" lon="0.448472">
        <ele>318.558</ele>
        <time>2020-08-23T08:08:56Z</time>
      </trkpt>
      <trkpt lat="41.850782" lon="0.448414">
        <ele>318.654</ele>
        <time>2020-08-23T08:08:58Z</time>
      </trkpt>
      <trkpt lat="41.850819" lon="0.448362">
        <ele>318.753</ele>
        <time>2020-08-23T08:09:00Z</time>
      </trkpt>
      <trkpt lat="41.850852" lon="0.448296">
        <ele>318.754</ele>
        <time>2020-08-23T08:09:02Z</time>
      </trkpt>
      <trkpt lat="41.850884" lon="0.448227">
        <ele>318.856</ele>
        <time>2020-08-23T08:09:04Z</time>
      </trkpt>
      <trkpt lat="41.850928" lon="0.448162">
        <ele>318.911</ele>
        <time>2020-08-23T08:09:06Z</time>
      </trkpt>
      <trkpt lat="41.850959" lon="0.448098">
        <ele>318.908</ele>
        <time>2020-08-23T08:09:08Z</time>
      </trkpt>
      <trkpt lat="41.850995" lon="0.448044">
        <ele>319.050</ele>
        <time>2020-08-23T08:09:10Z</time>
      </trkpt>
      <trkpt lat="41.851029" lon="0.447980">
        <ele>319.140</ele>
        <time>2020-08-23T08:09:13Z</time>
      </trkpt>
      <trkpt lat="41.851076" lon="0.447942">
        <ele>319.188</ele>
        <time>2020-08-23T08:09:15Z</time>
      </trkpt>
      <trkpt lat="41.851126" lon="0.447910">
        <ele>319.270</ele>
        <time>2020-08-23T08:09:17Z</time>
      </trkpt>
      <trkpt lat="41.851168" lon="0.447863">
        <ele>319.321</ele>
        <time>2020-08-23T08:09:19Z</time>
      </trkpt>
      <trkpt lat="41.851223" lon="0.447794">
        <ele>319.422</ele>
        <time>2020-08-23T08:09:22Z</time>
      </trkpt>
      <trkpt lat="41.851257" lon="0.447730">
        <ele>319.598</ele>
        <time>2020-08-23T08:09:24Z</time>
      </trkpt>
      <trkpt lat="41.851293" lon="0.447667">
        <ele>319.697</ele>
        <time>2020-08-23T08:09:26Z</time>
      </trkpt>
      <trkpt lat="41.851329" lon="0.447582">
        <ele>319.637</ele>
        <time>2020-08-23T08:09:28Z</time>
      </trkpt>
      <trkpt lat="41.851366" lon="0.447499">
        <ele>319.749</ele>
        <time>2020-08-23T08:09:30Z</time>
      </trkpt>
      <trkpt lat="41.851409" lon="0.447412">
        <ele>319.813</ele>
        <time>2020-08-23T08:09:32Z</time>
      </trkpt>
      <trkpt lat="41.851455" lon="0.447315">
        <ele>319.908</ele>
        <time>2020-08-23T08:09:34Z</time>
      </trkpt>
      <trkpt lat="41.851481" lon="0.447261">
        <ele>319.958</ele>
        <time>2020-08-23T08:09:35Z</time>
      </trkpt>
      <trkpt lat="41.851526" lon="0.447179">
        <ele>320.048</ele>
        <time>2020-08-23T08:09:37Z</time>
      </trkpt>
      <trkpt lat="41.851570" lon="0.447092">
        <ele>320.176</ele>
        <time>2020-08-23T08:09:39Z</time>
      </trkpt>
      <trkpt lat="41.851593" lon="0.447033">
        <ele>320.428</ele>
        <time>2020-08-23T08:09:41Z</time>
      </trkpt>
      <trkpt lat="41.851624" lon="0.446976">
        <ele>320.639</ele>
        <time>2020-08-23T08:09:43Z</time>
      </trkpt>
      <trkpt lat="41.851664" lon="0.446907">
        <ele>320.860</ele>
        <time>2020-08-23T08:09:45Z</time>
      </trkpt>
      <trkpt lat="41.851690" lon="0.446828">
        <ele>321.066</ele>
        <time>2020-08-23T08:09:47Z</time>
      </trkpt>
      <trkpt lat="41.851734" lon="0.446736">
        <ele>321.295</ele>
        <time>2020-08-23T08:09:49Z</time>
      </trkpt>
      <trkpt lat="41.851776" lon="0.446628">
        <ele>321.425</ele>
        <time>2020-08-23T08:09:51Z</time>
      </trkpt>
      <trkpt lat="41.851803" lon="0.446516">
        <ele>321.526</ele>
        <time>2020-08-23T08:09:53Z</time>
      </trkpt>
      <trkpt lat="41.851823" lon="0.446457">
        <ele>321.508</ele>
        <time>2020-08-23T08:09:54Z</time>
      </trkpt>
      <trkpt lat="41.851843" lon="0.446403">
        <ele>321.508</ele>
        <time>2020-08-23T08:09:55Z</time>
      </trkpt>
      <trkpt lat="41.851881" lon="0.446298">
        <ele>321.577</ele>
        <time>2020-08-23T08:09:57Z</time>
      </trkpt>
      <trkpt lat="41.851918" lon="0.446204">
        <ele>321.567</ele>
        <time>2020-08-23T08:09:59Z</time>
      </trkpt>
      <trkpt lat="41.851943" lon="0.446104">
        <ele>321.655</ele>
        <time>2020-08-23T08:10:01Z</time>
      </trkpt>
      <trkpt lat="41.851982" lon="0.446014">
        <ele>321.717</ele>
        <time>2020-08-23T08:10:03Z</time>
      </trkpt>
      <trkpt lat="41.852017" lon="0.445930">
        <ele>321.988</ele>
        <time>2020-08-23T08:10:05Z</time>
      </trkpt>
      <trkpt lat="41.852038" lon="0.445855">
        <ele>322.159</ele>
        <time>2020-08-23T08:10:07Z</time>
      </trkpt>
      <trkpt lat="41.852070" lon="0.445775">
        <ele>322.495</ele>
        <time>2020-08-23T08:10:09Z</time>
      </trkpt>
      <trkpt lat="41.852094" lon="0.445689">
        <ele>322.764</ele>
        <time>2020-08-23T08:10:11Z</time>
      </trkpt>
      <trkpt lat="41.852131" lon="0.445608">
        <ele>322.953</ele>
        <time>2020-08-23T08:10:13Z</time>
      </trkpt>
      <trkpt lat="41.852160" lon="0.445535">
        <ele>323.104</ele>
        <time>2020-08-23T08:10:15Z</time>
      </trkpt>
      <trkpt lat="41.852194" lon="0.445460">
        <ele>323.414</ele>
        <time>2020-08-23T08:10:17Z</time>
      </trkpt>
      <trkpt lat="41.852249" lon="0.445409">
        <ele>323.508</ele>
        <time>2020-08-23T08:10:19Z</time>
      </trkpt>
      <trkpt lat="41.852280" lon="0.445322">
        <ele>323.610</ele>
        <time>2020-08-23T08:10:21Z</time>
      </trkpt>
      <trkpt lat="41.852323" lon="0.445258">
        <ele>323.730</ele>
        <time>2020-08-23T08:10:23Z</time>
      </trkpt>
      <trkpt lat="41.852365" lon="0.445181">
        <ele>323.938</ele>
        <time>2020-08-23T08:10:25Z</time>
      </trkpt>
      <trkpt lat="41.852405" lon="0.445100">
        <ele>324.150</ele>
        <time>2020-08-23T08:10:27Z</time>
      </trkpt>
      <trkpt lat="41.852448" lon="0.445023">
        <ele>324.321</ele>
        <time>2020-08-23T08:10:29Z</time>
      </trkpt>
      <trkpt lat="41.852466" lon="0.444949">
        <ele>324.572</ele>
        <time>2020-08-23T08:10:31Z</time>
      </trkpt>
      <trkpt lat="41.852489" lon="0.444867">
        <ele>324.668</ele>
        <time>2020-08-23T08:10:33Z</time>
      </trkpt>
      <trkpt lat="41.852512" lon="0.444796">
        <ele>324.757</ele>
        <time>2020-08-23T08:10:35Z</time>
      </trkpt>
      <trkpt lat="41.852526" lon="0.444717">
        <ele>324.974</ele>
        <time>2020-08-23T08:10:37Z</time>
      </trkpt>
      <trkpt lat="41.852549" lon="0.444641">
        <ele>325.356</ele>
        <time>2020-08-23T08:10:39Z</time>
      </trkpt>
      <trkpt lat="41.852574" lon="0.444570">
        <ele>325.721</ele>
        <time>2020-08-23T08:10:41Z</time>
      </trkpt>
      <trkpt lat="41.852597" lon="0.444489">
        <ele>326.208</ele>
        <time>2020-08-23T08:10:43Z</time>
      </trkpt>
      <trkpt lat="41.852634" lon="0.444426">
        <ele>326.662</ele>
        <time>2020-08-23T08:10:45Z</time>
      </trkpt>
      <trkpt lat="41.852672" lon="0.444376">
        <ele>326.972</ele>
        <time>2020-08-23T08:10:47Z</time>
      </trkpt>
      <trkpt lat="41.852705" lon="0.444334">
        <ele>327.390</ele>
        <time>2020-08-23T08:10:49Z</time>
      </trkpt>
      <trkpt lat="41.852750" lon="0.444292">
        <ele>327.652</ele>
        <time>2020-08-23T08:10:51Z</time>
      </trkpt>
      <trkpt lat="41.852796" lon="0.444241">
        <ele>327.883</ele>
        <time>2020-08-23T08:10:53Z</time>
      </trkpt>
      <trkpt lat="41.852844" lon="0.444193">
        <ele>327.784</ele>
        <time>2020-08-23T08:10:55Z</time>
      </trkpt>
      <trkpt lat="41.852906" lon="0.444146">
        <ele>327.530</ele>
        <time>2020-08-23T08:10:57Z</time>
      </trkpt>
      <trkpt lat="41.852949" lon="0.444119">
        <ele>327.329</ele>
        <time>2020-08-23T08:10:58Z</time>
      </trkpt>
      <trkpt lat="41.852997" lon="0.444097">
        <ele>327.114</ele>
        <time>2020-08-23T08:10:59Z</time>
      </trkpt>
      <trkpt lat="41.853053" lon="0.444080">
        <ele>326.854</ele>
        <time>2020-08-23T08:11:00Z</time>
      </trkpt>
      <trkpt lat="41.853113" lon="0.444064">
        <ele>326.409</ele>
        <time>2020-08-23T08:11:01Z</time>
      </trkpt>
      <trkpt lat="41.853175" lon="0.444036">
        <ele>326.008</ele>
        <time>2020-08-23T08:11:02Z</time>
      </trkpt>
      <trkpt lat="41.853236" lon="0.444004">
        <ele>325.526</ele>
        <time>2020-08-23T08:11:03Z</time>
      </trkpt>
      <trkpt lat="41.853295" lon="0.443960">
        <ele>325.056</ele>
        <time>2020-08-23T08:11:04Z</time>
      </trkpt>
      <trkpt lat="41.853355" lon="0.443908">
        <ele>324.674</ele>
        <time>2020-08-23T08:11:05Z</time>
      </trkpt>
      <trkpt lat="41.853416" lon="0.443856">
        <ele>324.246</ele>
        <time>2020-08-23T08:11:06Z</time>
      </trkpt>
      <trkpt lat="41.853478" lon="0.443813">
        <ele>323.987</ele>
        <time>2020-08-23T08:11:07Z</time>
      </trkpt>
      <trkpt lat="41.853539" lon="0.443781">
        <ele>323.788</ele>
        <time>2020-08-23T08:11:08Z</time>
      </trkpt>
      <trkpt lat="41.853601" lon="0.443753">
        <ele>323.564</ele>
        <time>2020-08-23T08:11:09Z</time>
      </trkpt>
      <trkpt lat="41.853666" lon="0.443721">
        <ele>323.483</ele>
        <time>2020-08-23T08:11:10Z</time>
      </trkpt>
      <trkpt lat="41.853729" lon="0.443693">
        <ele>323.318</ele>
        <time>2020-08-23T08:11:11Z</time>
      </trkpt>
      <trkpt lat="41.853780" lon="0.443660">
        <ele>323.398</ele>
        <time>2020-08-23T08:11:12Z</time>
      </trkpt>
      <trkpt lat="41.853825" lon="0.443627">
        <ele>323.217</ele>
        <time>2020-08-23T08:11:13Z</time>
      </trkpt>
      <trkpt lat="41.853867" lon="0.443591">
        <ele>323.208</ele>
        <time>2020-08-23T08:11:14Z</time>
      </trkpt>
      <trkpt lat="41.853929" lon="0.443528">
        <ele>323.196</ele>
        <time>2020-08-23T08:11:16Z</time>
      </trkpt>
      <trkpt lat="41.853977" lon="0.443461">
        <ele>323.046</ele>
        <time>2020-08-23T08:11:18Z</time>
      </trkpt>
      <trkpt lat="41.854015" lon="0.443394">
        <ele>322.954</ele>
        <time>2020-08-23T08:11:20Z</time>
      </trkpt>
      <trkpt lat="41.854051" lon="0.443324">
        <ele>322.956</ele>
        <time>2020-08-23T08:11:22Z</time>
      </trkpt>
      <trkpt lat="41.854086" lon="0.443241">
        <ele>322.967</ele>
        <time>2020-08-23T08:11:24Z</time>
      </trkpt>
      <trkpt lat="41.854107" lon="0.443154">
        <ele>322.948</ele>
        <time>2020-08-23T08:11:26Z</time>
      </trkpt>
      <trkpt lat="41.854122" lon="0.443065">
        <ele>322.944</ele>
        <time>2020-08-23T08:11:28Z</time>
      </trkpt>
      <trkpt lat="41.854140" lon="0.442982">
        <ele>322.913</ele>
        <time>2020-08-23T08:11:30Z</time>
      </trkpt>
      <trkpt lat="41.854150" lon="0.442904">
        <ele>322.917</ele>
        <time>2020-08-23T08:11:32Z</time>
      </trkpt>
      <trkpt lat="41.854162" lon="0.442818">
        <ele>323.087</ele>
        <time>2020-08-23T08:11:34Z</time>
      </trkpt>
      <trkpt lat="41.854181" lon="0.442735">
        <ele>323.215</ele>
        <time>2020-08-23T08:11:36Z</time>
      </trkpt>
      <trkpt lat="41.854207" lon="0.442661">
        <ele>323.408</ele>
        <time>2020-08-23T08:11:38Z</time>
      </trkpt>
      <trkpt lat="41.854247" lon="0.442597">
        <ele>323.646</ele>
        <time>2020-08-23T08:11:40Z</time>
      </trkpt>
      <trkpt lat="41.854304" lon="0.442552">
        <ele>323.966</ele>
        <time>2020-08-23T08:11:42Z</time>
      </trkpt>
      <trkpt lat="41.854352" lon="0.442494">
        <ele>324.164</ele>
        <time>2020-08-23T08:11:44Z</time>
      </trkpt>
      <trkpt lat="41.854386" lon="0.442422">
        <ele>324.386</ele>
        <time>2020-08-23T08:11:46Z</time>
      </trkpt>
      <trkpt lat="41.854433" lon="0.442357">
        <ele>324.567</ele>
        <time>2020-08-23T08:11:48Z</time>
      </trkpt>
      <trkpt lat="41.854479" lon="0.442276">
        <ele>324.658</ele>
        <time>2020-08-23T08:11:50Z</time>
      </trkpt>
      <trkpt lat="41.854515" lon="0.442209">
        <ele>324.674</ele>
        <time>2020-08-23T08:11:52Z</time>
      </trkpt>
      <trkpt lat="41.854557" lon="0.442142">
        <ele>324.613</ele>
        <time>2020-08-23T08:11:54Z</time>
      </trkpt>
      <trkpt lat="41.854603" lon="0.442076">
        <ele>324.685</ele>
        <time>2020-08-23T08:11:56Z</time>
      </trkpt>
      <trkpt lat="41.854636" lon="0.442002">
        <ele>324.789</ele>
        <time>2020-08-23T08:11:58Z</time>
      </trkpt>
      <trkpt lat="41.854663" lon="0.441936">
        <ele>324.817</ele>
        <time>2020-08-23T08:12:00Z</time>
      </trkpt>
      <trkpt lat="41.854689" lon="0.441861">
        <ele>324.908</ele>
        <time>2020-08-23T08:12:02Z</time>
      </trkpt>
      <trkpt lat="41.854710" lon="0.441791">
        <ele>325.053</ele>
        <time>2020-08-23T08:12:04Z</time>
      </trkpt>
      <trkpt lat="41.854727" lon="0.441716">
        <ele>325.113</ele>
        <time>2020-08-23T08:12:06Z</time>
      </trkpt>
      <trkpt lat="41.854747" lon="0.441642">
        <ele>325.281</ele>
        <time>2020-08-23T08:12:08Z</time>
      </trkpt>
      <trkpt lat="41.854786" lon="0.441581">
        <ele>325.313</ele>
        <time>2020-08-23T08:12:10Z</time>
      </trkpt>
      <trkpt lat="41.854813" lon="0.441509">
        <ele>325.464</ele>
        <time>2020-08-23T08:12:12Z</time>
      </trkpt>
      <trkpt lat="41.854833" lon="0.441431">
        <ele>325.665</ele>
        <time>2020-08-23T08:12:14Z</time>
      </trkpt>
      <trkpt lat="41.854856" lon="0.441350">
        <ele>325.871</ele>
        <time>2020-08-23T08:12:16Z</time>
      </trkpt>
      <trkpt lat="41.854873" lon="0.441264">
        <ele>326.060</ele>
        <time>2020-08-23T08:12:18Z</time>
      </trkpt>
      <trkpt lat="41.854889" lon="0.441184">
        <ele>326.259</ele>
        <time>2020-08-23T08:12:20Z</time>
      </trkpt>
      <trkpt lat="41.854904" lon="0.441099">
        <ele>326.403</ele>
        <time>2020-08-23T08:12:22Z</time>
      </trkpt>
      <trkpt lat="41.854918" lon="0.441008">
        <ele>326.623</ele>
        <time>2020-08-23T08:12:24Z</time>
      </trkpt>
      <trkpt lat="41.854930" lon="0.440923">
        <ele>326.808</ele>
        <time>2020-08-23T08:12:26Z</time>
      </trkpt>
      <trkpt lat="41.854949" lon="0.440842">
        <ele>327.050</ele>
        <time>2020-08-23T08:12:28Z</time>
      </trkpt>
      <trkpt lat="41.854970" lon="0.440761">
        <ele>327.210</ele>
        <time>2020-08-23T08:12:30Z</time>
      </trkpt>
      <trkpt lat="41.854998" lon="0.440687">
        <ele>327.448</ele>
        <time>2020-08-23T08:12:32Z</time>
      </trkpt>
      <trkpt lat="41.855019" lon="0.440605">
        <ele>327.620</ele>
        <time>2020-08-23T08:12:34Z</time>
      </trkpt>
      <trkpt lat="41.855043" lon="0.440535">
        <ele>327.891</ele>
        <time>2020-08-23T08:12:36Z</time>
      </trkpt>
      <trkpt lat="41.855061" lon="0.440464">
        <ele>328.122</ele>
        <time>2020-08-23T08:12:38Z</time>
      </trkpt>
      <trkpt lat="41.855087" lon="0.440391">
        <ele>328.558</ele>
        <time>2020-08-23T08:12:40Z</time>
      </trkpt>
      <trkpt lat="41.855119" lon="0.440329">
        <ele>328.847</ele>
        <time>2020-08-23T08:12:42Z</time>
      </trkpt>
      <trkpt lat="41.855140" lon="0.440255">
        <ele>329.088</ele>
        <time>2020-08-23T08:12:44Z</time>
      </trkpt>
      <trkpt lat="41.855171" lon="0.440200">
        <ele>329.224</ele>
        <time>2020-08-23T08:12:46Z</time>
      </trkpt>
      <trkpt lat="41.855203" lon="0.440143">
        <ele>329.426</ele>
        <time>2020-08-23T08:12:48Z</time>
      </trkpt>
      <trkpt lat="41.855232" lon="0.440087">
        <ele>329.608</ele>
        <time>2020-08-23T08:12:50Z</time>
      </trkpt>
      <trkpt lat="41.855260" lon="0.440026">
        <ele>329.843</ele>
        <time>2020-08-23T08:12:52Z</time>
      </trkpt>
      <trkpt lat="41.855285" lon="0.439957">
        <ele>330.093</ele>
        <time>2020-08-23T08:12:54Z</time>
      </trkpt>
      <trkpt lat="41.855302" lon="0.439883">
        <ele>330.281</ele>
        <time>2020-08-23T08:12:56Z</time>
      </trkpt>
      <trkpt lat="41.855328" lon="0.439803">
        <ele>330.543</ele>
        <time>2020-08-23T08:12:58Z</time>
      </trkpt>
      <trkpt lat="41.855350" lon="0.439733">
        <ele>330.834</ele>
        <time>2020-08-23T08:13:00Z</time>
      </trkpt>
      <trkpt lat="41.855378" lon="0.439664">
        <ele>331.135</ele>
        <time>2020-08-23T08:13:02Z</time>
      </trkpt>
      <trkpt lat="41.855421" lon="0.439604">
        <ele>331.551</ele>
        <time>2020-08-23T08:13:05Z</time>
      </trkpt>
      <trkpt lat="41.855458" lon="0.439565">
        <ele>331.810</ele>
        <time>2020-08-23T08:13:07Z</time>
      </trkpt>
      <trkpt lat="41.855488" lon="0.439514">
        <ele>332.043</ele>
        <time>2020-08-23T08:13:09Z</time>
      </trkpt>
      <trkpt lat="41.855514" lon="0.439457">
        <ele>332.264</ele>
        <time>2020-08-23T08:13:11Z</time>
      </trkpt>
      <trkpt lat="41.855540" lon="0.439397">
        <ele>332.410</ele>
        <time>2020-08-23T08:13:13Z</time>
      </trkpt>
      <trkpt lat="41.855569" lon="0.439314">
        <ele>333.008</ele>
        <time>2020-08-23T08:13:16Z</time>
      </trkpt>
      <trkpt lat="41.855594" lon="0.439263">
        <ele>333.319</ele>
        <time>2020-08-23T08:13:18Z</time>
      </trkpt>
      <trkpt lat="41.855611" lon="0.439185">
        <ele>333.699</ele>
        <time>2020-08-23T08:13:21Z</time>
      </trkpt>
      <trkpt lat="41.855618" lon="0.439113">
        <ele>333.797</ele>
        <time>2020-08-23T08:13:23Z</time>
      </trkpt>
      <trkpt lat="41.855633" lon="0.439031">
        <ele>333.879</ele>
        <time>2020-08-23T08:13:25Z</time>
      </trkpt>
      <trkpt lat="41.855653" lon="0.438951">
        <ele>333.860</ele>
        <time>2020-08-23T08:13:27Z</time>
      </trkpt>
      <trkpt lat="41.855673" lon="0.438871">
        <ele>333.851</ele>
        <time>2020-08-23T08:13:29Z</time>
      </trkpt>
      <trkpt lat="41.855705" lon="0.438785">
        <ele>333.817</ele>
        <time>2020-08-23T08:13:31Z</time>
      </trkpt>
      <trkpt lat="41.855737" lon="0.438681">
        <ele>333.846</ele>
        <time>2020-08-23T08:13:33Z</time>
      </trkpt>
      <trkpt lat="41.855772" lon="0.438575">
        <ele>333.867</ele>
        <time>2020-08-23T08:13:35Z</time>
      </trkpt>
      <trkpt lat="41.855788" lon="0.438514">
        <ele>333.881</ele>
        <time>2020-08-23T08:13:36Z</time>
      </trkpt>
      <trkpt lat="41.855836" lon="0.438419">
        <ele>333.819</ele>
        <time>2020-08-23T08:13:38Z</time>
      </trkpt>
      <trkpt lat="41.855864" lon="0.438363">
        <ele>333.808</ele>
        <time>2020-08-23T08:13:39Z</time>
      </trkpt>
      <trkpt lat="41.855885" lon="0.438310">
        <ele>333.811</ele>
        <time>2020-08-23T08:13:40Z</time>
      </trkpt>
      <trkpt lat="41.855903" lon="0.438255">
        <ele>333.861</ele>
        <time>2020-08-23T08:13:41Z</time>
      </trkpt>
      <trkpt lat="41.855941" lon="0.438153">
        <ele>333.839</ele>
        <time>2020-08-23T08:13:43Z</time>
      </trkpt>
      <trkpt lat="41.855973" lon="0.438055">
        <ele>333.931</ele>
        <time>2020-08-23T08:13:45Z</time>
      </trkpt>
      <trkpt lat="41.856011" lon="0.437960">
        <ele>334.042</ele>
        <time>2020-08-23T08:13:47Z</time>
      </trkpt>
      <trkpt lat="41.856041" lon="0.437868">
        <ele>334.253</ele>
        <time>2020-08-23T08:13:49Z</time>
      </trkpt>
      <trkpt lat="41.856072" lon="0.437781">
        <ele>334.459</ele>
        <time>2020-08-23T08:13:51Z</time>
      </trkpt>
      <trkpt lat="41.856102" lon="0.437684">
        <ele>334.638</ele>
        <time>2020-08-23T08:13:53Z</time>
      </trkpt>
      <trkpt lat="41.856134" lon="0.437580">
        <ele>334.736</ele>
        <time>2020-08-23T08:13:55Z</time>
      </trkpt>
      <trkpt lat="41.856166" lon="0.437485">
        <ele>334.717</ele>
        <time>2020-08-23T08:13:57Z</time>
      </trkpt>
      <trkpt lat="41.856202" lon="0.437379">
        <ele>334.618</ele>
        <time>2020-08-23T08:13:59Z</time>
      </trkpt>
      <trkpt lat="41.856242" lon="0.437270">
        <ele>334.608</ele>
        <time>2020-08-23T08:14:01Z</time>
      </trkpt>
      <trkpt lat="41.856280" lon="0.437173">
        <ele>334.668</ele>
        <time>2020-08-23T08:14:03Z</time>
      </trkpt>
      <trkpt lat="41.856312" lon="0.437079">
        <ele>334.618</ele>
        <time>2020-08-23T08:14:05Z</time>
      </trkpt>
      <trkpt lat="41.856338" lon="0.436978">
        <ele>334.556</ele>
        <time>2020-08-23T08:14:07Z</time>
      </trkpt>
      <trkpt lat="41.856364" lon="0.436890">
        <ele>334.578</ele>
        <time>2020-08-23T08:14:09Z</time>
      </trkpt>
      <trkpt lat="41.856383" lon="0.436795">
        <ele>334.429</ele>
        <time>2020-08-23T08:14:11Z</time>
      </trkpt>
      <trkpt lat="41.856407" lon="0.436695">
        <ele>334.350</ele>
        <time>2020-08-23T08:14:13Z</time>
      </trkpt>
      <trkpt lat="41.856439" lon="0.436578">
        <ele>334.256</ele>
        <time>2020-08-23T08:14:15Z</time>
      </trkpt>
      <trkpt lat="41.856469" lon="0.436508">
        <ele>334.115</ele>
        <time>2020-08-23T08:14:16Z</time>
      </trkpt>
      <trkpt lat="41.856508" lon="0.436441">
        <ele>333.927</ele>
        <time>2020-08-23T08:14:17Z</time>
      </trkpt>
      <trkpt lat="41.856547" lon="0.436370">
        <ele>333.668</ele>
        <time>2020-08-23T08:14:18Z</time>
      </trkpt>
      <trkpt lat="41.856588" lon="0.436294">
        <ele>333.214</ele>
        <time>2020-08-23T08:14:19Z</time>
      </trkpt>
      <trkpt lat="41.856628" lon="0.436213">
        <ele>332.808</ele>
        <time>2020-08-23T08:14:20Z</time>
      </trkpt>
      <trkpt lat="41.856670" lon="0.436134">
        <ele>332.337</ele>
        <time>2020-08-23T08:14:21Z</time>
      </trkpt>
      <trkpt lat="41.856718" lon="0.436032">
        <ele>331.817</ele>
        <time>2020-08-23T08:14:22Z</time>
      </trkpt>
      <trkpt lat="41.856766" lon="0.435933">
        <ele>331.295</ele>
        <time>2020-08-23T08:14:23Z</time>
      </trkpt>
      <trkpt lat="41.856813" lon="0.435837">
        <ele>330.627</ele>
        <time>2020-08-23T08:14:24Z</time>
      </trkpt>
      <trkpt lat="41.856869" lon="0.435751">
        <ele>330.078</ele>
        <time>2020-08-23T08:14:25Z</time>
      </trkpt>
      <trkpt lat="41.856925" lon="0.435664">
        <ele>329.419</ele>
        <time>2020-08-23T08:14:26Z</time>
      </trkpt>
      <trkpt lat="41.856980" lon="0.435575">
        <ele>328.835</ele>
        <time>2020-08-23T08:14:27Z</time>
      </trkpt>
      <trkpt lat="41.857035" lon="0.435488">
        <ele>327.654</ele>
        <time>2020-08-23T08:14:28Z</time>
      </trkpt>
      <trkpt lat="41.857084" lon="0.435399">
        <ele>327.028</ele>
        <time>2020-08-23T08:14:29Z</time>
      </trkpt>
      <trkpt lat="41.857125" lon="0.435303">
        <ele>326.589</ele>
        <time>2020-08-23T08:14:30Z</time>
      </trkpt>
      <trkpt lat="41.857162" lon="0.435214">
        <ele>326.017</ele>
        <time>2020-08-23T08:14:31Z</time>
      </trkpt>
      <trkpt lat="41.857206" lon="0.435131">
        <ele>325.708</ele>
        <time>2020-08-23T08:14:32Z</time>
      </trkpt>
      <trkpt lat="41.857255" lon="0.435048">
        <ele>325.427</ele>
        <time>2020-08-23T08:14:33Z</time>
      </trkpt>
      <trkpt lat="41.857302" lon="0.434969">
        <ele>325.267</ele>
        <time>2020-08-23T08:14:34Z</time>
      </trkpt>
      <trkpt lat="41.857351" lon="0.434899">
        <ele>325.025</ele>
        <time>2020-08-23T08:14:35Z</time>
      </trkpt>
      <trkpt lat="41.857398" lon="0.434821">
        <ele>324.857</ele>
        <time>2020-08-23T08:14:36Z</time>
      </trkpt>
      <trkpt lat="41.857441" lon="0.434750">
        <ele>324.648</ele>
        <time>2020-08-23T08:14:37Z</time>
      </trkpt>
      <trkpt lat="41.857484" lon="0.434682">
        <ele>324.539</ele>
        <time>2020-08-23T08:14:38Z</time>
      </trkpt>
      <trkpt lat="41.857519" lon="0.434612">
        <ele>324.485</ele>
        <time>2020-08-23T08:14:39Z</time>
      </trkpt>
      <trkpt lat="41.857548" lon="0.434543">
        <ele>324.394</ele>
        <time>2020-08-23T08:14:40Z</time>
      </trkpt>
      <trkpt lat="41.857582" lon="0.434482">
        <ele>324.313</ele>
        <time>2020-08-23T08:14:41Z</time>
      </trkpt>
      <trkpt lat="41.857612" lon="0.434422">
        <ele>324.343</ele>
        <time>2020-08-23T08:14:42Z</time>
      </trkpt>
      <trkpt lat="41.857634" lon="0.434352">
        <ele>324.307</ele>
        <time>2020-08-23T08:14:43Z</time>
      </trkpt>
      <trkpt lat="41.857652" lon="0.434278">
        <ele>324.308</ele>
        <time>2020-08-23T08:14:44Z</time>
      </trkpt>
      <trkpt lat="41.857672" lon="0.434207">
        <ele>324.366</ele>
        <time>2020-08-23T08:14:45Z</time>
      </trkpt>
      <trkpt lat="41.857695" lon="0.434137">
        <ele>324.356</ele>
        <time>2020-08-23T08:14:46Z</time>
      </trkpt>
      <trkpt lat="41.857713" lon="0.434068">
        <ele>324.344</ele>
        <time>2020-08-23T08:14:47Z</time>
      </trkpt>
      <trkpt lat="41.857734" lon="0.434001">
        <ele>324.336</ele>
        <time>2020-08-23T08:14:48Z</time>
      </trkpt>
      <trkpt lat="41.857755" lon="0.433930">
        <ele>324.397</ele>
        <time>2020-08-23T08:14:49Z</time>
      </trkpt>
      <trkpt lat="41.857780" lon="0.433863">
        <ele>324.378</ele>
        <time>2020-08-23T08:14:50Z</time>
      </trkpt>
      <trkpt lat="41.857800" lon="0.433796">
        <ele>324.254</ele>
        <time>2020-08-23T08:14:51Z</time>
      </trkpt>
      <trkpt lat="41.857823" lon="0.433719">
        <ele>324.113</ele>
        <time>2020-08-23T08:14:52Z</time>
      </trkpt>
      <trkpt lat="41.857843" lon="0.433645">
        <ele>324.097</ele>
        <time>2020-08-23T08:14:53Z</time>
      </trkpt>
      <trkpt lat="41.857866" lon="0.433578">
        <ele>323.923</ele>
        <time>2020-08-23T08:14:54Z</time>
      </trkpt>
      <trkpt lat="41.857890" lon="0.433511">
        <ele>323.825</ele>
        <time>2020-08-23T08:14:55Z</time>
      </trkpt>
      <trkpt lat="41.857908" lon="0.433443">
        <ele>323.708</ele>
        <time>2020-08-23T08:14:56Z</time>
      </trkpt>
      <trkpt lat="41.857924" lon="0.433375">
        <ele>323.794</ele>
        <time>2020-08-23T08:14:57Z</time>
      </trkpt>
      <trkpt lat="41.857940" lon="0.433307">
        <ele>323.724</ele>
        <time>2020-08-23T08:14:58Z</time>
      </trkpt>
      <trkpt lat="41.857950" lon="0.433238">
        <ele>323.762</ele>
        <time>2020-08-23T08:14:59Z</time>
      </trkpt>
      <trkpt lat="41.857960" lon="0.433170">
        <ele>323.624</ele>
        <time>2020-08-23T08:15:00Z</time>
      </trkpt>
      <trkpt lat="41.857976" lon="0.433110">
        <ele>323.595</ele>
        <time>2020-08-23T08:15:01Z</time>
      </trkpt>
      <trkpt lat="41.858013" lon="0.432997">
        <ele>323.476</ele>
        <time>2020-08-23T08:15:03Z</time>
      </trkpt>
      <trkpt lat="41.858037" lon="0.432933">
        <ele>323.412</ele>
        <time>2020-08-23T08:15:04Z</time>
      </trkpt>
      <trkpt lat="41.858062" lon="0.432874">
        <ele>323.461</ele>
        <time>2020-08-23T08:15:05Z</time>
      </trkpt>
      <trkpt lat="41.858074" lon="0.432804">
        <ele>323.486</ele>
        <time>2020-08-23T08:15:06Z</time>
      </trkpt>
      <trkpt lat="41.858088" lon="0.432737">
        <ele>323.460</ele>
        <time>2020-08-23T08:15:07Z</time>
      </trkpt>
      <trkpt lat="41.858107" lon="0.432676">
        <ele>323.426</ele>
        <time>2020-08-23T08:15:08Z</time>
      </trkpt>
      <trkpt lat="41.858131" lon="0.432614">
        <ele>323.408</ele>
        <time>2020-08-23T08:15:09Z</time>
      </trkpt>
      <trkpt lat="41.858153" lon="0.432551">
        <ele>323.413</ele>
        <time>2020-08-23T08:15:10Z</time>
      </trkpt>
      <trkpt lat="41.858175" lon="0.432484">
        <ele>323.493</ele>
        <time>2020-08-23T08:15:11Z</time>
      </trkpt>
      <trkpt lat="41.858192" lon="0.432417">
        <ele>323.471</ele>
        <time>2020-08-23T08:15:12Z</time>
      </trkpt>
      <trkpt lat="41.858211" lon="0.432356">
        <ele>323.453</ele>
        <time>2020-08-23T08:15:13Z</time>
      </trkpt>
      <trkpt lat="41.858231" lon="0.432293">
        <ele>323.594</ele>
        <time>2020-08-23T08:15:14Z</time>
      </trkpt>
      <trkpt lat="41.858249" lon="0.432231">
        <ele>323.615</ele>
        <time>2020-08-23T08:15:15Z</time>
      </trkpt>
      <trkpt lat="41.858265" lon="0.432171">
        <ele>323.761</ele>
        <time>2020-08-23T08:15:16Z</time>
      </trkpt>
      <trkpt lat="41.858279" lon="0.432110">
        <ele>323.810</ele>
        <time>2020-08-23T08:15:17Z</time>
      </trkpt>
      <trkpt lat="41.858294" lon="0.432048">
        <ele>323.962</ele>
        <time>2020-08-23T08:15:18Z</time>
      </trkpt>
      <trkpt lat="41.858311" lon="0.431990">
        <ele>324.083</ele>
        <time>2020-08-23T08:15:19Z</time>
      </trkpt>
      <trkpt lat="41.858350" lon="0.431887">
        <ele>324.211</ele>
        <time>2020-08-23T08:15:21Z</time>
      </trkpt>
      <trkpt lat="41.858377" lon="0.431793">
        <ele>324.608</ele>
        <time>2020-08-23T08:15:23Z</time>
      </trkpt>
      <trkpt lat="41.858401" lon="0.431711">
        <ele>324.911</ele>
        <time>2020-08-23T08:15:25Z</time>
      </trkpt>
      <trkpt lat="41.858426" lon="0.431634">
        <ele>325.291</ele>
        <time>2020-08-23T08:15:27Z</time>
      </trkpt>
      <trkpt lat="41.858467" lon="0.431578">
        <ele>325.569</ele>
        <time>2020-08-23T08:15:29Z</time>
      </trkpt>
      <trkpt lat="41.858517" lon="0.431516">
        <ele>325.951</ele>
        <time>2020-08-23T08:15:31Z</time>
      </trkpt>
      <trkpt lat="41.858562" lon="0.431455">
        <ele>326.362</ele>
        <time>2020-08-23T08:15:33Z</time>
      </trkpt>
      <trkpt lat="41.858600" lon="0.431411">
        <ele>326.763</ele>
        <time>2020-08-23T08:15:35Z</time>
      </trkpt>
      <trkpt lat="41.858631" lon="0.431358">
        <ele>327.139</ele>
        <time>2020-08-23T08:15:37Z</time>
      </trkpt>
      <trkpt lat="41.858680" lon="0.431326">
        <ele>327.528</ele>
        <time>2020-08-23T08:15:39Z</time>
      </trkpt>
      <trkpt lat="41.858739" lon="0.431334">
        <ele>328.112</ele>
        <time>2020-08-23T08:15:41Z</time>
      </trkpt>
      <trkpt lat="41.858795" lon="0.431327">
        <ele>328.532</ele>
        <time>2020-08-23T08:15:43Z</time>
      </trkpt>
      <trkpt lat="41.858850" lon="0.431302">
        <ele>329.105</ele>
        <time>2020-08-23T08:15:46Z</time>
      </trkpt>
      <trkpt lat="41.858907" lon="0.431250">
        <ele>329.608</ele>
        <time>2020-08-23T08:15:49Z</time>
      </trkpt>
      <trkpt lat="41.858952" lon="0.431203">
        <ele>330.076</ele>
        <time>2020-08-23T08:15:51Z</time>
      </trkpt>
      <trkpt lat="41.859011" lon="0.431167">
        <ele>330.486</ele>
        <time>2020-08-23T08:15:53Z</time>
      </trkpt>
      <trkpt lat="41.859057" lon="0.431150">
        <ele>330.844</ele>
        <time>2020-08-23T08:15:55Z</time>
      </trkpt>
      <trkpt lat="41.859095" lon="0.431113">
        <ele>331.236</ele>
        <time>2020-08-23T08:15:57Z</time>
      </trkpt>
      <trkpt lat="41.859138" lon="0.431082">
        <ele>331.877</ele>
        <time>2020-08-23T08:15:59Z</time>
      </trkpt>
      <trkpt lat="41.859184" lon="0.431025">
        <ele>332.148</ele>
        <time>2020-08-23T08:16:01Z</time>
      </trkpt>
      <trkpt lat="41.859229" lon="0.430963">
        <ele>332.484</ele>
        <time>2020-08-23T08:16:03Z</time>
      </trkpt>
      <trkpt lat="41.859274" lon="0.430903">
        <ele>332.683</ele>
        <time>2020-08-23T08:16:05Z</time>
      </trkpt>
      <trkpt lat="41.859337" lon="0.430857">
        <ele>332.779</ele>
        <time>2020-08-23T08:16:07Z</time>
      </trkpt>
      <trkpt lat="41.859387" lon="0.430825">
        <ele>332.805</ele>
        <time>2020-08-23T08:16:09Z</time>
      </trkpt>
      <trkpt lat="41.859435" lon="0.430775">
        <ele>332.925</ele>
        <time>2020-08-23T08:16:11Z</time>
      </trkpt>
      <trkpt lat="41.859480" lon="0.430723">
        <ele>333.008</ele>
        <time>2020-08-23T08:16:13Z</time>
      </trkpt>
      <trkpt lat="41.859536" lon="0.430668">
        <ele>333.132</ele>
        <time>2020-08-23T08:16:15Z</time>
      </trkpt>
      <trkpt lat="41.859587" lon="0.430614">
        <ele>333.292</ele>
        <time>2020-08-23T08:16:17Z</time>
      </trkpt>
      <trkpt lat="41.859646" lon="0.430520">
        <ele>333.320</ele>
        <time>2020-08-23T08:16:19Z</time>
      </trkpt>
      <trkpt lat="41.859715" lon="0.430422">
        <ele>333.412</ele>
        <time>2020-08-23T08:16:21Z</time>
      </trkpt>
      <trkpt lat="41.859756" lon="0.430372">
        <ele>333.433</ele>
        <time>2020-08-23T08:16:22Z</time>
      </trkpt>
      <trkpt lat="41.859788" lon="0.430327">
        <ele>333.414</ele>
        <time>2020-08-23T08:16:23Z</time>
      </trkpt>
      <trkpt lat="41.859828" lon="0.430290">
        <ele>333.410</ele>
        <time>2020-08-23T08:16:24Z</time>
      </trkpt>
      <trkpt lat="41.859866" lon="0.430244">
        <ele>333.429</ele>
        <time>2020-08-23T08:16:25Z</time>
      </trkpt>
      <trkpt lat="41.859908" lon="0.430204">
        <ele>333.428</ele>
        <time>2020-08-23T08:16:26Z</time>
      </trkpt>
      <trkpt lat="41.859954" lon="0.430175">
        <ele>333.489</ele>
        <time>2020-08-23T08:16:27Z</time>
      </trkpt>
      <trkpt lat="41.860001" lon="0.430150">
        <ele>333.517</ele>
        <time>2020-08-23T08:16:28Z</time>
      </trkpt>
      <trkpt lat="41.860058" lon="0.430136">
        <ele>333.608</ele>
        <time>2020-08-23T08:16:29Z</time>
      </trkpt>
      <trkpt lat="41.860117" lon="0.430129">
        <ele>333.687</ele>
        <time>2020-08-23T08:16:30Z</time>
      </trkpt>
      <trkpt lat="41.860169" lon="0.430118">
        <ele>333.637</ele>
        <time>2020-08-23T08:16:31Z</time>
      </trkpt>
      <trkpt lat="41.860254" lon="0.430082">
        <ele>333.735</ele>
        <time>2020-08-23T08:16:33Z</time>
      </trkpt>
      <trkpt lat="41.860332" lon="0.430054">
        <ele>333.827</ele>
        <time>2020-08-23T08:16:35Z</time>
      </trkpt>
      <trkpt lat="41.860379" lon="0.430040">
        <ele>333.968</ele>
        <time>2020-08-23T08:16:36Z</time>
      </trkpt>
      <trkpt lat="41.860431" lon="0.430024">
        <ele>333.959</ele>
        <time>2020-08-23T08:16:37Z</time>
      </trkpt>
      <trkpt lat="41.860484" lon="0.430005">
        <ele>333.955</ele>
        <time>2020-08-23T08:16:38Z</time>
      </trkpt>
      <trkpt lat="41.860557" lon="0.429960">
        <ele>333.944</ele>
        <time>2020-08-23T08:16:40Z</time>
      </trkpt>
      <trkpt lat="41.860637" lon="0.429903">
        <ele>333.971</ele>
        <time>2020-08-23T08:16:42Z</time>
      </trkpt>
      <trkpt lat="41.860684" lon="0.429877">
        <ele>333.941</ele>
        <time>2020-08-23T08:16:43Z</time>
      </trkpt>
      <trkpt lat="41.860726" lon="0.429851">
        <ele>333.915</ele>
        <time>2020-08-23T08:16:44Z</time>
      </trkpt>
      <trkpt lat="41.860809" lon="0.429783">
        <ele>333.908</ele>
        <time>2020-08-23T08:16:46Z</time>
      </trkpt>
      <trkpt lat="41.860851" lon="0.429756">
        <ele>333.942</ele>
        <time>2020-08-23T08:16:47Z</time>
      </trkpt>
      <trkpt lat="41.860925" lon="0.429690">
        <ele>333.942</ele>
        <time>2020-08-23T08:16:49Z</time>
      </trkpt>
      <trkpt lat="41.860962" lon="0.429646">
        <ele>333.920</ele>
        <time>2020-08-23T08:16:50Z</time>
      </trkpt>
      <trkpt lat="41.860999" lon="0.429602">
        <ele>333.982</ele>
        <time>2020-08-23T08:16:51Z</time>
      </trkpt>
      <trkpt lat="41.861037" lon="0.429565">
        <ele>333.983</ele>
        <time>2020-08-23T08:16:52Z</time>
      </trkpt>
      <trkpt lat="41.861079" lon="0.429521">
        <ele>334.054</ele>
        <time>2020-08-23T08:16:53Z</time>
      </trkpt>
      <trkpt lat="41.861123" lon="0.429470">
        <ele>334.110</ele>
        <time>2020-08-23T08:16:54Z</time>
      </trkpt>
      <trkpt lat="41.861166" lon="0.429419">
        <ele>334.139</ele>
        <time>2020-08-23T08:16:55Z</time>
      </trkpt>
      <trkpt lat="41.861235" lon="0.429347">
        <ele>334.117</ele>
        <time>2020-08-23T08:16:57Z</time>
      </trkpt>
      <trkpt lat="41.861302" lon="0.429268">
        <ele>334.187</ele>
        <time>2020-08-23T08:16:59Z</time>
      </trkpt>
      <trkpt lat="41.861357" lon="0.429202">
        <ele>334.115</ele>
        <time>2020-08-23T08:17:01Z</time>
      </trkpt>
      <trkpt lat="41.861420" lon="0.429125">
        <ele>334.208</ele>
        <time>2020-08-23T08:17:03Z</time>
      </trkpt>
      <trkpt lat="41.861471" lon="0.429062">
        <ele>334.366</ele>
        <time>2020-08-23T08:17:05Z</time>
      </trkpt>
      <trkpt lat="41.861530" lon="0.428991">
        <ele>334.376</ele>
        <time>2020-08-23T08:17:07Z</time>
      </trkpt>
      <trkpt lat="41.861583" lon="0.428923">
        <ele>334.364</ele>
        <time>2020-08-23T08:17:09Z</time>
      </trkpt>
      <trkpt lat="41.861615" lon="0.428880">
        <ele>334.366</ele>
        <time>2020-08-23T08:17:10Z</time>
      </trkpt>
      <trkpt lat="41.861673" lon="0.428833">
        <ele>334.297</ele>
        <time>2020-08-23T08:17:12Z</time>
      </trkpt>
      <trkpt lat="41.861712" lon="0.428800">
        <ele>334.288</ele>
        <time>2020-08-23T08:17:13Z</time>
      </trkpt>
      <trkpt lat="41.861771" lon="0.428744">
        <ele>334.244</ele>
        <time>2020-08-23T08:17:15Z</time>
      </trkpt>
      <trkpt lat="41.861844" lon="0.428665">
        <ele>334.333</ele>
        <time>2020-08-23T08:17:17Z</time>
      </trkpt>
      <trkpt lat="41.861885" lon="0.428612">
        <ele>334.325</ele>
        <time>2020-08-23T08:17:18Z</time>
      </trkpt>
      <trkpt lat="41.861931" lon="0.428557">
        <ele>334.326</ele>
        <time>2020-08-23T08:17:19Z</time>
      </trkpt>
      <trkpt lat="41.861975" lon="0.428512">
        <ele>334.308</ele>
        <time>2020-08-23T08:17:20Z</time>
      </trkpt>
      <trkpt lat="41.862017" lon="0.428472">
        <ele>334.308</ele>
        <time>2020-08-23T08:17:21Z</time>
      </trkpt>
      <trkpt lat="41.862063" lon="0.428421">
        <ele>334.387</ele>
        <time>2020-08-23T08:17:22Z</time>
      </trkpt>
      <trkpt lat="41.862109" lon="0.428370">
        <ele>334.387</ele>
        <time>2020-08-23T08:17:23Z</time>
      </trkpt>
      <trkpt lat="41.862161" lon="0.428317">
        <ele>334.365</ele>
        <time>2020-08-23T08:17:24Z</time>
      </trkpt>
      <trkpt lat="41.862198" lon="0.428269">
        <ele>334.477</ele>
        <time>2020-08-23T08:17:25Z</time>
      </trkpt>
      <trkpt lat="41.862242" lon="0.428220">
        <ele>334.438</ele>
        <time>2020-08-23T08:17:26Z</time>
      </trkpt>
      <trkpt lat="41.862284" lon="0.428175">
        <ele>334.449</ele>
        <time>2020-08-23T08:17:27Z</time>
      </trkpt>
      <trkpt lat="41.862321" lon="0.428135">
        <ele>334.525</ele>
        <time>2020-08-23T08:17:28Z</time>
      </trkpt>
      <trkpt lat="41.862366" lon="0.428100">
        <ele>334.584</ele>
        <time>2020-08-23T08:17:29Z</time>
      </trkpt>
      <trkpt lat="41.862412" lon="0.428050">
        <ele>334.556</ele>
        <time>2020-08-23T08:17:30Z</time>
      </trkpt>
      <trkpt lat="41.862445" lon="0.428005">
        <ele>334.559</ele>
        <time>2020-08-23T08:17:31Z</time>
      </trkpt>
      <trkpt lat="41.862478" lon="0.427958">
        <ele>334.514</ele>
        <time>2020-08-23T08:17:32Z</time>
      </trkpt>
      <trkpt lat="41.862508" lon="0.427910">
        <ele>334.508</ele>
        <time>2020-08-23T08:17:33Z</time>
      </trkpt>
      <trkpt lat="41.862541" lon="0.427854">
        <ele>334.670</ele>
        <time>2020-08-23T08:17:34Z</time>
      </trkpt>
      <trkpt lat="41.862578" lon="0.427788">
        <ele>334.730</ele>
        <time>2020-08-23T08:17:35Z</time>
      </trkpt>
      <trkpt lat="41.862636" lon="0.427699">
        <ele>334.928</ele>
        <time>2020-08-23T08:17:37Z</time>
      </trkpt>
      <trkpt lat="41.862693" lon="0.427615">
        <ele>335.150</ele>
        <time>2020-08-23T08:17:39Z</time>
      </trkpt>
      <trkpt lat="41.862732" lon="0.427560">
        <ele>335.241</ele>
        <time>2020-08-23T08:17:40Z</time>
      </trkpt>
      <trkpt lat="41.862771" lon="0.427514">
        <ele>335.322</ele>
        <time>2020-08-23T08:17:41Z</time>
      </trkpt>
      <trkpt lat="41.862814" lon="0.427468">
        <ele>335.458</ele>
        <time>2020-08-23T08:17:42Z</time>
      </trkpt>
      <trkpt lat="41.862855" lon="0.427437">
        <ele>335.477</ele>
        <time>2020-08-23T08:17:43Z</time>
      </trkpt>
      <trkpt lat="41.862919" lon="0.427369">
        <ele>335.444</ele>
        <time>2020-08-23T08:17:45Z</time>
      </trkpt>
      <trkpt lat="41.862987" lon="0.427308">
        <ele>335.505</ele>
        <time>2020-08-23T08:17:47Z</time>
      </trkpt>
      <trkpt lat="41.863047" lon="0.427244">
        <ele>335.815</ele>
        <time>2020-08-23T08:17:49Z</time>
      </trkpt>
      <trkpt lat="41.863111" lon="0.427187">
        <ele>336.008</ele>
        <time>2020-08-23T08:17:51Z</time>
      </trkpt>
      <trkpt lat="41.863174" lon="0.427128">
        <ele>336.489</ele>
        <time>2020-08-23T08:17:53Z</time>
      </trkpt>
      <trkpt lat="41.863237" lon="0.427079">
        <ele>336.769</ele>
        <time>2020-08-23T08:17:55Z</time>
      </trkpt>
      <trkpt lat="41.863306" lon="0.427018">
        <ele>336.957</ele>
        <time>2020-08-23T08:17:57Z</time>
      </trkpt>
      <trkpt lat="41.863383" lon="0.426968">
        <ele>337.069</ele>
        <time>2020-08-23T08:17:59Z</time>
      </trkpt>
      <trkpt lat="41.863458" lon="0.426932">
        <ele>337.210</ele>
        <time>2020-08-23T08:18:01Z</time>
      </trkpt>
      <trkpt lat="41.863536" lon="0.426890">
        <ele>337.461</ele>
        <time>2020-08-23T08:18:03Z</time>
      </trkpt>
      <trkpt lat="41.863604" lon="0.426849">
        <ele>337.687</ele>
        <time>2020-08-23T08:18:05Z</time>
      </trkpt>
      <trkpt lat="41.863651" lon="0.426812">
        <ele>337.996</ele>
        <time>2020-08-23T08:18:07Z</time>
      </trkpt>
      <trkpt lat="41.863707" lon="0.426788">
        <ele>338.123</ele>
        <time>2020-08-23T08:18:09Z</time>
      </trkpt>
      <trkpt lat="41.863764" lon="0.426761">
        <ele>338.383</ele>
        <time>2020-08-23T08:18:11Z</time>
      </trkpt>
      <trkpt lat="41.863837" lon="0.426723">
        <ele>338.511</ele>
        <time>2020-08-23T08:18:13Z</time>
      </trkpt>
      <trkpt lat="41.863911" lon="0.426695">
        <ele>338.708</ele>
        <time>2020-08-23T08:18:15Z</time>
      </trkpt>
      <trkpt lat="41.863978" lon="0.426649">
        <ele>339.057</ele>
        <time>2020-08-23T08:18:17Z</time>
      </trkpt>
      <trkpt lat="41.864042" lon="0.426610">
        <ele>339.387</ele>
        <time>2020-08-23T08:18:19Z</time>
      </trkpt>
      <trkpt lat="41.864121" lon="0.426599">
        <ele>339.555</ele>
        <time>2020-08-23T08:18:21Z</time>
      </trkpt>
      <trkpt lat="41.864195" lon="0.426590">
        <ele>339.647</ele>
        <time>2020-08-23T08:18:23Z</time>
      </trkpt>
      <trkpt lat="41.864249" lon="0.426572">
        <ele>339.718</ele>
        <time>2020-08-23T08:18:25Z</time>
      </trkpt>
      <trkpt lat="41.864300" lon="0.426555">
        <ele>339.869</ele>
        <time>2020-08-23T08:18:27Z</time>
      </trkpt>
      <trkpt lat="41.864361" lon="0.426510">
        <ele>340.255</ele>
        <time>2020-08-23T08:18:30Z</time>
      </trkpt>
      <trkpt lat="41.864422" lon="0.426470">
        <ele>340.424</ele>
        <time>2020-08-23T08:18:32Z</time>
      </trkpt>
      <trkpt lat="41.864466" lon="0.426394">
        <ele>340.795</ele>
        <time>2020-08-23T08:18:35Z</time>
      </trkpt>
      <trkpt lat="41.864512" lon="0.426330">
        <ele>340.949</ele>
        <time>2020-08-23T08:18:37Z</time>
      </trkpt>
      <trkpt lat="41.864579" lon="0.426257">
        <ele>341.123</ele>
        <time>2020-08-23T08:18:39Z</time>
      </trkpt>
      <trkpt lat="41.864629" lon="0.426179">
        <ele>341.308</ele>
        <time>2020-08-23T08:18:41Z</time>
      </trkpt>
      <trkpt lat="41.864663" lon="0.426117">
        <ele>341.654</ele>
        <time>2020-08-23T08:18:43Z</time>
      </trkpt>
      <trkpt lat="41.864703" lon="0.426059">
        <ele>341.894</ele>
        <time>2020-08-23T08:18:45Z</time>
      </trkpt>
      <trkpt lat="41.864744" lon="0.425996">
        <ele>342.082</ele>
        <time>2020-08-23T08:18:47Z</time>
      </trkpt>
      <trkpt lat="41.864779" lon="0.425925">
        <ele>342.234</ele>
        <time>2020-08-23T08:18:49Z</time>
      </trkpt>
      <trkpt lat="41.864822" lon="0.425836">
        <ele>342.445</ele>
        <time>2020-08-23T08:18:51Z</time>
      </trkpt>
      <trkpt lat="41.864867" lon="0.425746">
        <ele>342.586</ele>
        <time>2020-08-23T08:18:53Z</time>
      </trkpt>
      <trkpt lat="41.864888" lon="0.425688">
        <ele>342.642</ele>
        <time>2020-08-23T08:18:54Z</time>
      </trkpt>
      <trkpt lat="41.864930" lon="0.425585">
        <ele>342.761</ele>
        <time>2020-08-23T08:18:56Z</time>
      </trkpt>
      <trkpt lat="41.864954" lon="0.425532">
        <ele>342.718</ele>
        <time>2020-08-23T08:18:57Z</time>
      </trkpt>
      <trkpt lat="41.865004" lon="0.425435">
        <ele>342.798</ele>
        <time>2020-08-23T08:18:59Z</time>
      </trkpt>
      <trkpt lat="41.865042" lon="0.425366">
        <ele>342.817</ele>
        <time>2020-08-23T08:19:01Z</time>
      </trkpt>
      <trkpt lat="41.865089" lon="0.425300">
        <ele>342.908</ele>
        <time>2020-08-23T08:19:03Z</time>
      </trkpt>
      <trkpt lat="41.865138" lon="0.425203">
        <ele>343.026</ele>
        <time>2020-08-23T08:19:05Z</time>
      </trkpt>
      <trkpt lat="41.865182" lon="0.425129">
        <ele>343.076</ele>
        <time>2020-08-23T08:19:07Z</time>
      </trkpt>
      <trkpt lat="41.865221" lon="0.425043">
        <ele>343.124</ele>
        <time>2020-08-23T08:19:09Z</time>
      </trkpt>
      <trkpt lat="41.865253" lon="0.424948">
        <ele>343.266</ele>
        <time>2020-08-23T08:19:11Z</time>
      </trkpt>
      <trkpt lat="41.865277" lon="0.424869">
        <ele>343.347</ele>
        <time>2020-08-23T08:19:13Z</time>
      </trkpt>
      <trkpt lat="41.865289" lon="0.424788">
        <ele>343.528</ele>
        <time>2020-08-23T08:19:15Z</time>
      </trkpt>
      <trkpt lat="41.865312" lon="0.424709">
        <ele>343.754</ele>
        <time>2020-08-23T08:19:17Z</time>
      </trkpt>
      <trkpt lat="41.865333" lon="0.424631">
        <ele>344.043</ele>
        <time>2020-08-23T08:19:19Z</time>
      </trkpt>
      <trkpt lat="41.865361" lon="0.424550">
        <ele>344.393</ele>
        <time>2020-08-23T08:19:21Z</time>
      </trkpt>
      <trkpt lat="41.865386" lon="0.424491">
        <ele>344.665</ele>
        <time>2020-08-23T08:19:23Z</time>
      </trkpt>
      <trkpt lat="41.865408" lon="0.424433">
        <ele>345.021</ele>
        <time>2020-08-23T08:19:25Z</time>
      </trkpt>
      <trkpt lat="41.865429" lon="0.424357">
        <ele>345.308</ele>
        <time>2020-08-23T08:19:27Z</time>
      </trkpt>
      <trkpt lat="41.865469" lon="0.424281">
        <ele>345.764</ele>
        <time>2020-08-23T08:19:29Z</time>
      </trkpt>
      <trkpt lat="41.865506" lon="0.424232">
        <ele>346.084</ele>
        <time>2020-08-23T08:19:31Z</time>
      </trkpt>
      <trkpt lat="41.865540" lon="0.424154">
        <ele>346.472</ele>
        <time>2020-08-23T08:19:34Z</time>
      </trkpt>
      <trkpt lat="41.865564" lon="0.424081">
        <ele>346.624</ele>
        <time>2020-08-23T08:19:37Z</time>
      </trkpt>
      <trkpt lat="41.865606" lon="0.424006">
        <ele>346.755</ele>
        <time>2020-08-23T08:19:39Z</time>
      </trkpt>
      <trkpt lat="41.865685" lon="0.423981">
        <ele>346.866</ele>
        <time>2020-08-23T08:19:41Z</time>
      </trkpt>
      <trkpt lat="41.865732" lon="0.423986">
        <ele>346.832</ele>
        <time>2020-08-23T08:19:42Z</time>
      </trkpt>
      <trkpt lat="41.865789" lon="0.424023">
        <ele>346.981</ele>
        <time>2020-08-23T08:19:44Z</time>
      </trkpt>
      <trkpt lat="41.865845" lon="0.424077">
        <ele>346.989</ele>
        <time>2020-08-23T08:19:46Z</time>
      </trkpt>
      <trkpt lat="41.865892" lon="0.424127">
        <ele>346.906</ele>
        <time>2020-08-23T08:19:47Z</time>
      </trkpt>
      <trkpt lat="41.865951" lon="0.424186">
        <ele>346.926</ele>
        <time>2020-08-23T08:19:49Z</time>
      </trkpt>
      <trkpt lat="41.866010" lon="0.424248">
        <ele>346.908</ele>
        <time>2020-08-23T08:19:51Z</time>
      </trkpt>
      <trkpt lat="41.866078" lon="0.424323">
        <ele>346.953</ele>
        <time>2020-08-23T08:19:53Z</time>
      </trkpt>
      <trkpt lat="41.866139" lon="0.424399">
        <ele>346.943</ele>
        <time>2020-08-23T08:19:55Z</time>
      </trkpt>
      <trkpt lat="41.866169" lon="0.424451">
        <ele>346.981</ele>
        <time>2020-08-23T08:19:56Z</time>
      </trkpt>
      <trkpt lat="41.866209" lon="0.424535">
        <ele>346.923</ele>
        <time>2020-08-23T08:19:58Z</time>
      </trkpt>
      <trkpt lat="41.866242" lon="0.424617">
        <ele>346.994</ele>
        <time>2020-08-23T08:20:00Z</time>
      </trkpt>
      <trkpt lat="41.866275" lon="0.424697">
        <ele>347.045</ele>
        <time>2020-08-23T08:20:02Z</time>
      </trkpt>
      <trkpt lat="41.866333" lon="0.424749">
        <ele>347.271</ele>
        <time>2020-08-23T08:20:04Z</time>
      </trkpt>
      <trkpt lat="41.866406" lon="0.424747">
        <ele>347.580</ele>
        <time>2020-08-23T08:20:06Z</time>
      </trkpt>
      <trkpt lat="41.866475" lon="0.424695">
        <ele>347.842</ele>
        <time>2020-08-23T08:20:08Z</time>
      </trkpt>
      <trkpt lat="41.866518" lon="0.424606">
        <ele>348.022</ele>
        <time>2020-08-23T08:20:10Z</time>
      </trkpt>
      <trkpt lat="41.866539" lon="0.424552">
        <ele>348.014</ele>
        <time>2020-08-23T08:20:11Z</time>
      </trkpt>
      <trkpt lat="41.866561" lon="0.424499">
        <ele>347.908</ele>
        <time>2020-08-23T08:20:12Z</time>
      </trkpt>
      <trkpt lat="41.866614" lon="0.424397">
        <ele>347.639</ele>
        <time>2020-08-23T08:20:14Z</time>
      </trkpt>
      <trkpt lat="41.866645" lon="0.424329">
        <ele>347.579</ele>
        <time>2020-08-23T08:20:15Z</time>
      </trkpt>
      <trkpt lat="41.866671" lon="0.424254">
        <ele>347.467</ele>
        <time>2020-08-23T08:20:16Z</time>
      </trkpt>
      <trkpt lat="41.866700" lon="0.424179">
        <ele>347.329</ele>
        <time>2020-08-23T08:20:17Z</time>
      </trkpt>
      <trkpt lat="41.866730" lon="0.424114">
        <ele>347.260</ele>
        <time>2020-08-23T08:20:18Z</time>
      </trkpt>
      <trkpt lat="41.866760" lon="0.424043">
        <ele>347.161</ele>
        <time>2020-08-23T08:20:19Z</time>
      </trkpt>
      <trkpt lat="41.866787" lon="0.423972">
        <ele>347.027</ele>
        <time>2020-08-23T08:20:20Z</time>
      </trkpt>
      <trkpt lat="41.866821" lon="0.423906">
        <ele>346.936</ele>
        <time>2020-08-23T08:20:21Z</time>
      </trkpt>
      <trkpt lat="41.866848" lon="0.423835">
        <ele>346.828</ele>
        <time>2020-08-23T08:20:22Z</time>
      </trkpt>
      <trkpt lat="41.866866" lon="0.423756">
        <ele>346.789</ele>
        <time>2020-08-23T08:20:23Z</time>
      </trkpt>
      <trkpt lat="41.866886" lon="0.423688">
        <ele>346.617</ele>
        <time>2020-08-23T08:20:24Z</time>
      </trkpt>
      <trkpt lat="41.866904" lon="0.423618">
        <ele>346.408</ele>
        <time>2020-08-23T08:20:25Z</time>
      </trkpt>
      <trkpt lat="41.866936" lon="0.423552">
        <ele>346.337</ele>
        <time>2020-08-23T08:20:26Z</time>
      </trkpt>
      <trkpt lat="41.866989" lon="0.423505">
        <ele>346.297</ele>
        <time>2020-08-23T08:20:27Z</time>
      </trkpt>
      <trkpt lat="41.867039" lon="0.423457">
        <ele>346.285</ele>
        <time>2020-08-23T08:20:28Z</time>
      </trkpt>
      <trkpt lat="41.867089" lon="0.423404">
        <ele>346.237</ele>
        <time>2020-08-23T08:20:29Z</time>
      </trkpt>
      <trkpt lat="41.867146" lon="0.423359">
        <ele>346.298</ele>
        <time>2020-08-23T08:20:30Z</time>
      </trkpt>
      <trkpt lat="41.867195" lon="0.423317">
        <ele>346.239</ele>
        <time>2020-08-23T08:20:31Z</time>
      </trkpt>
      <trkpt lat="41.867242" lon="0.423286">
        <ele>346.295</ele>
        <time>2020-08-23T08:20:32Z</time>
      </trkpt>
      <trkpt lat="41.867304" lon="0.423203">
        <ele>346.254</ele>
        <time>2020-08-23T08:20:34Z</time>
      </trkpt>
      <trkpt lat="41.867338" lon="0.423148">
        <ele>346.169</ele>
        <time>2020-08-23T08:20:35Z</time>
      </trkpt>
      <trkpt lat="41.867372" lon="0.423090">
        <ele>346.104</ele>
        <time>2020-08-23T08:20:36Z</time>
      </trkpt>
      <trkpt lat="41.867408" lon="0.423034">
        <ele>346.124</ele>
        <time>2020-08-23T08:20:37Z</time>
      </trkpt>
      <trkpt lat="41.867446" lon="0.422986">
        <ele>346.108</ele>
        <time>2020-08-23T08:20:38Z</time>
      </trkpt>
      <trkpt lat="41.867484" lon="0.422930">
        <ele>346.141</ele>
        <time>2020-08-23T08:20:39Z</time>
      </trkpt>
      <trkpt lat="41.867536" lon="0.422884">
        <ele>346.171</ele>
        <time>2020-08-23T08:20:40Z</time>
      </trkpt>
      <trkpt lat="41.867606" lon="0.422798">
        <ele>346.139</ele>
        <time>2020-08-23T08:20:42Z</time>
      </trkpt>
      <trkpt lat="41.867639" lon="0.422741">
        <ele>346.251</ele>
        <time>2020-08-23T08:20:43Z</time>
      </trkpt>
      <trkpt lat="41.867668" lon="0.422675">
        <ele>346.352</ele>
        <time>2020-08-23T08:20:44Z</time>
      </trkpt>
      <trkpt lat="41.867695" lon="0.422616">
        <ele>346.433</ele>
        <time>2020-08-23T08:20:45Z</time>
      </trkpt>
      <trkpt lat="41.867741" lon="0.422542">
        <ele>346.559</ele>
        <time>2020-08-23T08:20:46Z</time>
      </trkpt>
      <trkpt lat="41.867770" lon="0.422486">
        <ele>346.588</ele>
        <time>2020-08-23T08:20:47Z</time>
      </trkpt>
      <trkpt lat="41.867805" lon="0.422420">
        <ele>346.589</ele>
        <time>2020-08-23T08:20:48Z</time>
      </trkpt>
      <trkpt lat="41.867833" lon="0.422371">
        <ele>346.406</ele>
        <time>2020-08-23T08:20:49Z</time>
      </trkpt>
      <trkpt lat="41.867865" lon="0.422319">
        <ele>346.326</ele>
        <time>2020-08-23T08:20:50Z</time>
      </trkpt>
      <trkpt lat="41.867917" lon="0.422225">
        <ele>346.308</ele>
        <time>2020-08-23T08:20:52Z</time>
      </trkpt>
      <trkpt lat="41.867950" lon="0.422181">
        <ele>346.343</ele>
        <time>2020-08-23T08:20:53Z</time>
      </trkpt>
      <trkpt lat="41.867985" lon="0.422140">
        <ele>346.363</ele>
        <time>2020-08-23T08:20:54Z</time>
      </trkpt>
      <trkpt lat="41.868050" lon="0.422046">
        <ele>346.351</ele>
        <time>2020-08-23T08:20:56Z</time>
      </trkpt>
      <trkpt lat="41.868079" lon="0.421999">
        <ele>346.473</ele>
        <time>2020-08-23T08:20:57Z</time>
      </trkpt>
      <trkpt lat="41.868141" lon="0.421908">
        <ele>346.584</ele>
        <time>2020-08-23T08:20:59Z</time>
      </trkpt>
      <trkpt lat="41.868175" lon="0.421860">
        <ele>346.655</ele>
        <time>2020-08-23T08:21:00Z</time>
      </trkpt>
      <trkpt lat="41.868244" lon="0.421795">
        <ele>346.741</ele>
        <time>2020-08-23T08:21:02Z</time>
      </trkpt>
      <trkpt lat="41.868333" lon="0.421746">
        <ele>346.770</ele>
        <time>2020-08-23T08:21:04Z</time>
      </trkpt>
      <trkpt lat="41.868403" lon="0.421682">
        <ele>346.646</ele>
        <time>2020-08-23T08:21:06Z</time>
      </trkpt>
      <trkpt lat="41.868448" lon="0.421647">
        <ele>346.688</ele>
        <time>2020-08-23T08:21:07Z</time>
      </trkpt>
      <trkpt lat="41.868495" lon="0.421600">
        <ele>346.716</ele>
        <time>2020-08-23T08:21:08Z</time>
      </trkpt>
      <trkpt lat="41.868535" lon="0.421549">
        <ele>346.808</ele>
        <time>2020-08-23T08:21:09Z</time>
      </trkpt>
      <trkpt lat="41.868595" lon="0.421478">
        <ele>346.839</ele>
        <time>2020-08-23T08:21:11Z</time>
      </trkpt>
      <trkpt lat="41.868630" lon="0.421438">
        <ele>346.889</ele>
        <time>2020-08-23T08:21:12Z</time>
      </trkpt>
      <trkpt lat="41.868667" lon="0.421401">
        <ele>346.817</ele>
        <time>2020-08-23T08:21:13Z</time>
      </trkpt>
      <trkpt lat="41.868734" lon="0.421360">
        <ele>346.959</ele>
        <time>2020-08-23T08:21:15Z</time>
      </trkpt>
      <trkpt lat="41.868786" lon="0.421328">
        <ele>347.010</ele>
        <time>2020-08-23T08:21:17Z</time>
      </trkpt>
      <trkpt lat="41.868832" lon="0.421298">
        <ele>347.051</ele>
        <time>2020-08-23T08:21:22Z</time>
      </trkpt>
      <trkpt lat="41.868875" lon="0.421274">
        <ele>347.177</ele>
        <time>2020-08-23T08:21:27Z</time>
      </trkpt>
      <trkpt lat="41.868903" lon="0.421214">
        <ele>347.146</ele>
        <time>2020-08-23T08:21:35Z</time>
      </trkpt>
      <trkpt lat="41.869062" lon="0.421280">
        <ele>344.993</ele>
        <time>2020-08-23T08:35:42Z</time>
      </trkpt>
      <trkpt lat="41.868998" lon="0.421293">
        <ele>345.065</ele>
        <time>2020-08-23T08:35:45Z</time>
      </trkpt>
      <trkpt lat="41.868947" lon="0.421298">
        <ele>345.021</ele>
        <time>2020-08-23T08:35:48Z</time>
      </trkpt>
      <trkpt lat="41.868901" lon="0.421312">
        <ele>345.008</ele>
        <time>2020-08-23T08:35:51Z</time>
      </trkpt>
      <trkpt lat="41.868916" lon="0.421231">
        <ele>345.164</ele>
        <time>2020-08-23T08:36:11Z</time>
      </trkpt>
      <trkpt lat="41.868917" lon="0.421150">
        <ele>345.314</ele>
        <time>2020-08-23T08:36:14Z</time>
      </trkpt>
      <trkpt lat="41.868883" lon="0.421099">
        <ele>345.442</ele>
        <time>2020-08-23T08:36:16Z</time>
      </trkpt>
      <trkpt lat="41.868839" lon="0.421053">
        <ele>345.514</ele>
        <time>2020-08-23T08:36:18Z</time>
      </trkpt>
      <trkpt lat="41.868784" lon="0.421013">
        <ele>345.785</ele>
        <time>2020-08-23T08:36:21Z</time>
      </trkpt>
      <trkpt lat="41.868734" lon="0.420980">
        <ele>345.986</ele>
        <time>2020-08-23T08:36:24Z</time>
      </trkpt>
      <trkpt lat="41.868687" lon="0.420966">
        <ele>346.022</ele>
        <time>2020-08-23T08:36:27Z</time>
      </trkpt>
      <trkpt lat="41.868628" lon="0.420950">
        <ele>346.171</ele>
        <time>2020-08-23T08:36:30Z</time>
      </trkpt>
      <trkpt lat="41.868568" lon="0.420934">
        <ele>346.341</ele>
        <time>2020-08-23T08:36:33Z</time>
      </trkpt>
      <trkpt lat="41.868516" lon="0.420912">
        <ele>346.681</ele>
        <time>2020-08-23T08:36:36Z</time>
      </trkpt>
      <trkpt lat="41.868472" lon="0.420893">
        <ele>346.809</ele>
        <time>2020-08-23T08:36:39Z</time>
      </trkpt>
      <trkpt lat="41.868429" lon="0.420875">
        <ele>347.208</ele>
        <time>2020-08-23T08:36:43Z</time>
      </trkpt>
      <trkpt lat="41.868377" lon="0.420852">
        <ele>347.639</ele>
        <time>2020-08-23T08:36:46Z</time>
      </trkpt>
      <trkpt lat="41.868339" lon="0.420799">
        <ele>348.299</ele>
        <time>2020-08-23T08:36:50Z</time>
      </trkpt>
      <trkpt lat="41.868301" lon="0.420755">
        <ele>348.617</ele>
        <time>2020-08-23T08:36:53Z</time>
      </trkpt>
      <trkpt lat="41.868248" lon="0.420731">
        <ele>349.189</ele>
        <time>2020-08-23T08:36:56Z</time>
      </trkpt>
      <trkpt lat="41.868197" lon="0.420747">
        <ele>349.530</ele>
        <time>2020-08-23T08:36:59Z</time>
      </trkpt>
      <trkpt lat="41.868151" lon="0.420746">
        <ele>349.621</ele>
        <time>2020-08-23T08:37:11Z</time>
      </trkpt>
      <trkpt lat="41.868094" lon="0.420739">
        <ele>349.787</ele>
        <time>2020-08-23T08:37:15Z</time>
      </trkpt>
      <trkpt lat="41.868072" lon="0.420813">
        <ele>349.796</ele>
        <time>2020-08-23T08:37:18Z</time>
      </trkpt>
      <trkpt lat="41.868118" lon="0.420807">
        <ele>349.567</ele>
        <time>2020-08-23T08:37:30Z</time>
      </trkpt>
      <trkpt lat="41.868128" lon="0.420872">
        <ele>349.781</ele>
        <time>2020-08-23T08:37:35Z</time>
      </trkpt>
      <trkpt lat="41.868083" lon="0.420897">
        <ele>349.419</ele>
        <time>2020-08-23T08:37:47Z</time>
      </trkpt>
      <trkpt lat="41.868058" lon="0.420839">
        <ele>349.408</ele>
        <time>2020-08-23T08:38:01Z</time>
      </trkpt>
      <trkpt lat="41.868081" lon="0.420778">
        <ele>349.541</ele>
        <time>2020-08-23T08:38:40Z</time>
      </trkpt>
      <trkpt lat="41.868053" lon="0.420731">
        <ele>349.491</ele>
        <time>2020-08-23T08:38:50Z</time>
      </trkpt>
      <trkpt lat="41.868096" lon="0.420697">
        <ele>349.339</ele>
        <time>2020-08-23T08:39:03Z</time>
      </trkpt>
      <trkpt lat="41.868071" lon="0.420641">
        <ele>349.971</ele>
        <time>2020-08-23T08:39:09Z</time>
      </trkpt>
      <trkpt lat="41.868024" lon="0.420612">
        <ele>350.632</ele>
        <time>2020-08-23T08:39:13Z</time>
      </trkpt>
      <trkpt lat="41.867975" lon="0.420627">
        <ele>351.043</ele>
        <time>2020-08-23T08:39:23Z</time>
      </trkpt>
      <trkpt lat="41.867932" lon="0.420654">
        <ele>352.359</ele>
        <time>2020-08-23T08:39:28Z</time>
      </trkpt>
      <trkpt lat="41.867889" lon="0.420701">
        <ele>354.598</ele>
        <time>2020-08-23T08:39:35Z</time>
      </trkpt>
      <trkpt lat="41.867867" lon="0.420765">
        <ele>355.682</ele>
        <time>2020-08-23T08:39:39Z</time>
      </trkpt>
      <trkpt lat="41.867828" lon="0.420811">
        <ele>356.643</ele>
        <time>2020-08-23T08:39:43Z</time>
      </trkpt>
      <trkpt lat="41.867777" lon="0.420859">
        <ele>357.117</ele>
        <time>2020-08-23T08:39:45Z</time>
      </trkpt>
      <trkpt lat="41.867727" lon="0.420948">
        <ele>357.908</ele>
        <time>2020-08-23T08:39:47Z</time>
      </trkpt>
      <trkpt lat="41.867693" lon="0.421021">
        <ele>358.423</ele>
        <time>2020-08-23T08:39:49Z</time>
      </trkpt>
      <trkpt lat="41.867669" lon="0.421073">
        <ele>359.373</ele>
        <time>2020-08-23T08:39:52Z</time>
      </trkpt>
      <trkpt lat="41.867639" lon="0.421123">
        <ele>360.351</ele>
        <time>2020-08-23T08:39:56Z</time>
      </trkpt>
      <trkpt lat="41.867588" lon="0.421110">
        <ele>361.543</ele>
        <time>2020-08-23T08:40:01Z</time>
      </trkpt>
      <trkpt lat="41.867545" lon="0.421086">
        <ele>362.224</ele>
        <time>2020-08-23T08:40:05Z</time>
      </trkpt>
      <trkpt lat="41.867486" lon="0.421085">
        <ele>362.615</ele>
        <time>2020-08-23T08:40:09Z</time>
      </trkpt>
      <trkpt lat="41.867429" lon="0.421096">
        <ele>363.061</ele>
        <time>2020-08-23T08:40:12Z</time>
      </trkpt>
      <trkpt lat="41.867384" lon="0.421101">
        <ele>363.380</ele>
        <time>2020-08-23T08:40:14Z</time>
      </trkpt>
      <trkpt lat="41.867321" lon="0.421108">
        <ele>363.762</ele>
        <time>2020-08-23T08:40:17Z</time>
      </trkpt>
      <trkpt lat="41.867258" lon="0.421130">
        <ele>364.083</ele>
        <time>2020-08-23T08:40:19Z</time>
      </trkpt>
      <trkpt lat="41.867184" lon="0.421144">
        <ele>364.311</ele>
        <time>2020-08-23T08:40:21Z</time>
      </trkpt>
      <trkpt lat="41.867122" lon="0.421155">
        <ele>364.608</ele>
        <time>2020-08-23T08:40:23Z</time>
      </trkpt>
      <trkpt lat="41.867075" lon="0.421166">
        <ele>365.241</ele>
        <time>2020-08-23T08:40:26Z</time>
      </trkpt>
      <trkpt lat="41.867010" lon="0.421166">
        <ele>365.621</ele>
        <time>2020-08-23T08:40:29Z</time>
      </trkpt>
      <trkpt lat="41.866951" lon="0.421178">
        <ele>366.199</ele>
        <time>2020-08-23T08:40:32Z</time>
      </trkpt>
      <trkpt lat="41.866892" lon="0.421179">
        <ele>366.711</ele>
        <time>2020-08-23T08:40:35Z</time>
      </trkpt>
      <trkpt lat="41.866844" lon="0.421186">
        <ele>367.142</ele>
        <time>2020-08-23T08:40:37Z</time>
      </trkpt>
      <trkpt lat="41.866796" lon="0.421186">
        <ele>367.853</ele>
        <time>2020-08-23T08:40:41Z</time>
      </trkpt>
      <trkpt lat="41.866775" lon="0.421130">
        <ele>368.549</ele>
        <time>2020-08-23T08:40:45Z</time>
      </trkpt>
      <trkpt lat="41.866777" lon="0.421058">
        <ele>368.958</ele>
        <time>2020-08-23T08:40:48Z</time>
      </trkpt>
      <trkpt lat="41.866825" lon="0.421041">
        <ele>369.146</ele>
        <time>2020-08-23T08:40:51Z</time>
      </trkpt>
      <trkpt lat="41.866876" lon="0.421023">
        <ele>369.188</ele>
        <time>2020-08-23T08:40:54Z</time>
      </trkpt>
      <trkpt lat="41.866916" lon="0.420954">
        <ele>369.216</ele>
        <time>2020-08-23T08:40:57Z</time>
      </trkpt>
      <trkpt lat="41.866921" lon="0.420891">
        <ele>369.308</ele>
        <time>2020-08-23T08:40:59Z</time>
      </trkpt>
      <trkpt lat="41.866909" lon="0.420806">
        <ele>369.629</ele>
        <time>2020-08-23T08:41:02Z</time>
      </trkpt>
      <trkpt lat="41.866896" lon="0.420742">
        <ele>370.429</ele>
        <time>2020-08-23T08:41:06Z</time>
      </trkpt>
      <trkpt lat="41.866884" lon="0.420680">
        <ele>370.767</ele>
        <time>2020-08-23T08:41:08Z</time>
      </trkpt>
      <trkpt lat="41.866871" lon="0.420616">
        <ele>371.089</ele>
        <time>2020-08-23T08:41:10Z</time>
      </trkpt>
      <trkpt lat="41.866865" lon="0.420525">
        <ele>371.460</ele>
        <time>2020-08-23T08:41:13Z</time>
      </trkpt>
      <trkpt lat="41.866861" lon="0.420453">
        <ele>371.811</ele>
        <time>2020-08-23T08:41:16Z</time>
      </trkpt>
      <trkpt lat="41.866855" lon="0.420375">
        <ele>372.137</ele>
        <time>2020-08-23T08:41:19Z</time>
      </trkpt>
      <trkpt lat="41.866866" lon="0.420311">
        <ele>372.366</ele>
        <time>2020-08-23T08:41:21Z</time>
      </trkpt>
      <trkpt lat="41.866876" lon="0.420248">
        <ele>372.671</ele>
        <time>2020-08-23T08:41:23Z</time>
      </trkpt>
      <trkpt lat="41.866897" lon="0.420161">
        <ele>372.841</ele>
        <time>2020-08-23T08:41:26Z</time>
      </trkpt>
      <trkpt lat="41.866919" lon="0.420094">
        <ele>372.915</ele>
        <time>2020-08-23T08:41:28Z</time>
      </trkpt>
      <trkpt lat="41.866938" lon="0.420030">
        <ele>373.008</ele>
        <time>2020-08-23T08:41:30Z</time>
      </trkpt>
      <trkpt lat="41.866965" lon="0.419968">
        <ele>373.232</ele>
        <time>2020-08-23T08:41:32Z</time>
      </trkpt>
      <trkpt lat="41.866995" lon="0.419909">
        <ele>373.492</ele>
        <time>2020-08-23T08:41:34Z</time>
      </trkpt>
      <trkpt lat="41.867025" lon="0.419849">
        <ele>373.510</ele>
        <time>2020-08-23T08:41:36Z</time>
      </trkpt>
      <trkpt lat="41.867048" lon="0.419760">
        <ele>373.642</ele>
        <time>2020-08-23T08:41:39Z</time>
      </trkpt>
      <trkpt lat="41.867074" lon="0.419669">
        <ele>373.733</ele>
        <time>2020-08-23T08:41:41Z</time>
      </trkpt>
      <trkpt lat="41.867101" lon="0.419574">
        <ele>373.714</ele>
        <time>2020-08-23T08:41:43Z</time>
      </trkpt>
      <trkpt lat="41.867129" lon="0.419473">
        <ele>373.650</ele>
        <time>2020-08-23T08:41:45Z</time>
      </trkpt>
      <trkpt lat="41.867157" lon="0.419364">
        <ele>373.449</ele>
        <time>2020-08-23T08:41:47Z</time>
      </trkpt>
      <trkpt lat="41.867173" lon="0.419308">
        <ele>373.311</ele>
        <time>2020-08-23T08:41:48Z</time>
      </trkpt>
      <trkpt lat="41.867189" lon="0.419247">
        <ele>373.321</ele>
        <time>2020-08-23T08:41:49Z</time>
      </trkpt>
      <trkpt lat="41.867205" lon="0.419182">
        <ele>373.203</ele>
        <time>2020-08-23T08:41:50Z</time>
      </trkpt>
      <trkpt lat="41.867221" lon="0.419123">
        <ele>373.108</ele>
        <time>2020-08-23T08:41:51Z</time>
      </trkpt>
      <trkpt lat="41.867256" lon="0.419017">
        <ele>372.946</ele>
        <time>2020-08-23T08:41:53Z</time>
      </trkpt>
      <trkpt lat="41.867277" lon="0.418951">
        <ele>372.826</ele>
        <time>2020-08-23T08:41:54Z</time>
      </trkpt>
      <trkpt lat="41.867303" lon="0.418864">
        <ele>372.684</ele>
        <time>2020-08-23T08:41:55Z</time>
      </trkpt>
      <trkpt lat="41.867328" lon="0.418783">
        <ele>372.456</ele>
        <time>2020-08-23T08:41:56Z</time>
      </trkpt>
      <trkpt lat="41.867351" lon="0.418715">
        <ele>372.167</ele>
        <time>2020-08-23T08:41:57Z</time>
      </trkpt>
      <trkpt lat="41.867375" lon="0.418646">
        <ele>371.838</ele>
        <time>2020-08-23T08:41:58Z</time>
      </trkpt>
      <trkpt lat="41.867397" lon="0.418571">
        <ele>371.534</ele>
        <time>2020-08-23T08:41:59Z</time>
      </trkpt>
      <trkpt lat="41.867421" lon="0.418485">
        <ele>371.213</ele>
        <time>2020-08-23T08:42:00Z</time>
      </trkpt>
      <trkpt lat="41.867444" lon="0.418391">
        <ele>371.016</ele>
        <time>2020-08-23T08:42:01Z</time>
      </trkpt>
      <trkpt lat="41.867466" lon="0.418297">
        <ele>370.576</ele>
        <time>2020-08-23T08:42:02Z</time>
      </trkpt>
      <trkpt lat="41.867490" lon="0.418194">
        <ele>370.213</ele>
        <time>2020-08-23T08:42:03Z</time>
      </trkpt>
      <trkpt lat="41.867512" lon="0.418076">
        <ele>369.808</ele>
        <time>2020-08-23T08:42:04Z</time>
      </trkpt>
      <trkpt lat="41.867533" lon="0.417954">
        <ele>369.486</ele>
        <time>2020-08-23T08:42:05Z</time>
      </trkpt>
      <trkpt lat="41.867553" lon="0.417838">
        <ele>368.956</ele>
        <time>2020-08-23T08:42:06Z</time>
      </trkpt>
      <trkpt lat="41.867564" lon="0.417730">
        <ele>368.484</ele>
        <time>2020-08-23T08:42:07Z</time>
      </trkpt>
      <trkpt lat="41.867573" lon="0.417600">
        <ele>367.876</ele>
        <time>2020-08-23T08:42:08Z</time>
      </trkpt>
      <trkpt lat="41.867589" lon="0.417474">
        <ele>367.277</ele>
        <time>2020-08-23T08:42:09Z</time>
      </trkpt>
      <trkpt lat="41.867603" lon="0.417351">
        <ele>366.748</ele>
        <time>2020-08-23T08:42:10Z</time>
      </trkpt>
      <trkpt lat="41.867613" lon="0.417226">
        <ele>366.294</ele>
        <time>2020-08-23T08:42:11Z</time>
      </trkpt>
      <trkpt lat="41.867608" lon="0.417090">
        <ele>365.623</ele>
        <time>2020-08-23T08:42:12Z</time>
      </trkpt>
      <trkpt lat="41.867601" lon="0.416954">
        <ele>365.018</ele>
        <time>2020-08-23T08:42:13Z</time>
      </trkpt>
      <trkpt lat="41.867599" lon="0.416815">
        <ele>364.498</ele>
        <time>2020-08-23T08:42:14Z</time>
      </trkpt>
      <trkpt lat="41.867592" lon="0.416676">
        <ele>363.817</ele>
        <time>2020-08-23T08:42:15Z</time>
      </trkpt>
      <trkpt lat="41.867587" lon="0.416535">
        <ele>363.108</ele>
        <time>2020-08-23T08:42:16Z</time>
      </trkpt>
      <trkpt lat="41.867570" lon="0.416392">
        <ele>362.426</ele>
        <time>2020-08-23T08:42:17Z</time>
      </trkpt>
      <trkpt lat="41.867551" lon="0.416243">
        <ele>361.746</ele>
        <time>2020-08-23T08:42:18Z</time>
      </trkpt>
      <trkpt lat="41.867523" lon="0.416092">
        <ele>361.094</ele>
        <time>2020-08-23T08:42:19Z</time>
      </trkpt>
      <trkpt lat="41.867494" lon="0.415936">
        <ele>360.266</ele>
        <time>2020-08-23T08:42:20Z</time>
      </trkpt>
      <trkpt lat="41.867467" lon="0.415776">
        <ele>359.417</ele>
        <time>2020-08-23T08:42:21Z</time>
      </trkpt>
      <trkpt lat="41.867443" lon="0.415618">
        <ele>357.928</ele>
        <time>2020-08-23T08:42:22Z</time>
      </trkpt>
      <trkpt lat="41.867419" lon="0.415458">
        <ele>357.184</ele>
        <time>2020-08-23T08:42:23Z</time>
      </trkpt>
      <trkpt lat="41.867403" lon="0.415305">
        <ele>356.613</ele>
        <time>2020-08-23T08:42:24Z</time>
      </trkpt>
      <trkpt lat="41.867400" lon="0.415152">
        <ele>356.118</ele>
        <time>2020-08-23T08:42:25Z</time>
      </trkpt>
      <trkpt lat="41.867398" lon="0.415007">
        <ele>355.698</ele>
        <time>2020-08-23T08:42:26Z</time>
      </trkpt>
      <trkpt lat="41.867398" lon="0.414867">
        <ele>355.217</ele>
        <time>2020-08-23T08:42:27Z</time>
      </trkpt>
      <trkpt lat="41.867392" lon="0.414732">
        <ele>354.808</ele>
        <time>2020-08-23T08:42:28Z</time>
      </trkpt>
      <trkpt lat="41.867387" lon="0.414602">
        <ele>354.476</ele>
        <time>2020-08-23T08:42:29Z</time>
      </trkpt>
      <trkpt lat="41.867383" lon="0.414483">
        <ele>354.196</ele>
        <time>2020-08-23T08:42:30Z</time>
      </trkpt>
      <trkpt lat="41.867376" lon="0.414370">
        <ele>353.844</ele>
        <time>2020-08-23T08:42:31Z</time>
      </trkpt>
      <trkpt lat="41.867372" lon="0.414265">
        <ele>353.586</ele>
        <time>2020-08-23T08:42:32Z</time>
      </trkpt>
      <trkpt lat="41.867373" lon="0.414165">
        <ele>353.247</ele>
        <time>2020-08-23T08:42:33Z</time>
      </trkpt>
      <trkpt lat="41.867379" lon="0.414071">
        <ele>352.978</ele>
        <time>2020-08-23T08:42:34Z</time>
      </trkpt>
      <trkpt lat="41.867382" lon="0.413980">
        <ele>352.694</ele>
        <time>2020-08-23T08:42:35Z</time>
      </trkpt>
      <trkpt lat="41.867388" lon="0.413897">
        <ele>352.353</ele>
        <time>2020-08-23T08:42:36Z</time>
      </trkpt>
      <trkpt lat="41.867402" lon="0.413818">
        <ele>352.133</ele>
        <time>2020-08-23T08:42:37Z</time>
      </trkpt>
      <trkpt lat="41.867423" lon="0.413742">
        <ele>351.923</ele>
        <time>2020-08-23T08:42:38Z</time>
      </trkpt>
      <trkpt lat="41.867459" lon="0.413681">
        <ele>351.715</ele>
        <time>2020-08-23T08:42:39Z</time>
      </trkpt>
      <trkpt lat="41.867491" lon="0.413626">
        <ele>351.608</ele>
        <time>2020-08-23T08:42:40Z</time>
      </trkpt>
      <trkpt lat="41.867516" lon="0.413576">
        <ele>351.288</ele>
        <time>2020-08-23T08:42:41Z</time>
      </trkpt>
      <trkpt lat="41.867519" lon="0.413514">
        <ele>351.178</ele>
        <time>2020-08-23T08:42:42Z</time>
      </trkpt>
      <trkpt lat="41.867513" lon="0.413400">
        <ele>350.976</ele>
        <time>2020-08-23T08:42:44Z</time>
      </trkpt>
      <trkpt lat="41.867471" lon="0.413310">
        <ele>350.718</ele>
        <time>2020-08-23T08:42:46Z</time>
      </trkpt>
      <trkpt lat="41.867445" lon="0.413258">
        <ele>350.699</ele>
        <time>2020-08-23T08:42:47Z</time>
      </trkpt>
      <trkpt lat="41.867426" lon="0.413195">
        <ele>350.560</ele>
        <time>2020-08-23T08:42:48Z</time>
      </trkpt>
      <trkpt lat="41.867416" lon="0.413125">
        <ele>350.496</ele>
        <time>2020-08-23T08:42:49Z</time>
      </trkpt>
      <trkpt lat="41.867407" lon="0.413055">
        <ele>350.375</ele>
        <time>2020-08-23T08:42:50Z</time>
      </trkpt>
      <trkpt lat="41.867408" lon="0.412979">
        <ele>350.282</ele>
        <time>2020-08-23T08:42:51Z</time>
      </trkpt>
      <trkpt lat="41.867411" lon="0.412906">
        <ele>350.143</ele>
        <time>2020-08-23T08:42:52Z</time>
      </trkpt>
      <trkpt lat="41.867416" lon="0.412831">
        <ele>349.917</ele>
        <time>2020-08-23T08:42:53Z</time>
      </trkpt>
      <trkpt lat="41.867422" lon="0.412754">
        <ele>349.808</ele>
        <time>2020-08-23T08:42:54Z</time>
      </trkpt>
      <trkpt lat="41.867427" lon="0.412677">
        <ele>349.733</ele>
        <time>2020-08-23T08:42:55Z</time>
      </trkpt>
      <trkpt lat="41.867429" lon="0.412597">
        <ele>349.683</ele>
        <time>2020-08-23T08:42:56Z</time>
      </trkpt>
      <trkpt lat="41.867435" lon="0.412519">
        <ele>349.541</ele>
        <time>2020-08-23T08:42:57Z</time>
      </trkpt>
      <trkpt lat="41.867438" lon="0.412441">
        <ele>349.453</ele>
        <time>2020-08-23T08:42:58Z</time>
      </trkpt>
      <trkpt lat="41.867437" lon="0.412361">
        <ele>349.334</ele>
        <time>2020-08-23T08:42:59Z</time>
      </trkpt>
      <trkpt lat="41.867440" lon="0.412278">
        <ele>349.255</ele>
        <time>2020-08-23T08:43:00Z</time>
      </trkpt>
      <trkpt lat="41.867443" lon="0.412198">
        <ele>349.011</ele>
        <time>2020-08-23T08:43:01Z</time>
      </trkpt>
      <trkpt lat="41.867444" lon="0.412115">
        <ele>348.970</ele>
        <time>2020-08-23T08:43:02Z</time>
      </trkpt>
      <trkpt lat="41.867448" lon="0.412031">
        <ele>348.872</ele>
        <time>2020-08-23T08:43:03Z</time>
      </trkpt>
      <trkpt lat="41.867451" lon="0.411949">
        <ele>348.713</ele>
        <time>2020-08-23T08:43:04Z</time>
      </trkpt>
      <trkpt lat="41.867453" lon="0.411867">
        <ele>348.614</ele>
        <time>2020-08-23T08:43:05Z</time>
      </trkpt>
      <trkpt lat="41.867452" lon="0.411785">
        <ele>348.508</ele>
        <time>2020-08-23T08:43:06Z</time>
      </trkpt>
      <trkpt lat="41.867456" lon="0.411708">
        <ele>348.592</ele>
        <time>2020-08-23T08:43:07Z</time>
      </trkpt>
      <trkpt lat="41.867457" lon="0.411629">
        <ele>348.592</ele>
        <time>2020-08-23T08:43:08Z</time>
      </trkpt>
      <trkpt lat="41.867468" lon="0.411550">
        <ele>348.420</ele>
        <time>2020-08-23T08:43:09Z</time>
      </trkpt>
      <trkpt lat="41.867478" lon="0.411470">
        <ele>348.382</ele>
        <time>2020-08-23T08:43:10Z</time>
      </trkpt>
      <trkpt lat="41.867482" lon="0.411389">
        <ele>348.213</ele>
        <time>2020-08-23T08:43:11Z</time>
      </trkpt>
      <trkpt lat="41.867485" lon="0.411307">
        <ele>348.184</ele>
        <time>2020-08-23T08:43:12Z</time>
      </trkpt>
      <trkpt lat="41.867491" lon="0.411227">
        <ele>348.070</ele>
        <time>2020-08-23T08:43:13Z</time>
      </trkpt>
      <trkpt lat="41.867495" lon="0.411149">
        <ele>348.079</ele>
        <time>2020-08-23T08:43:14Z</time>
      </trkpt>
      <trkpt lat="41.867505" lon="0.411070">
        <ele>348.062</ele>
        <time>2020-08-23T08:43:15Z</time>
      </trkpt>
      <trkpt lat="41.867520" lon="0.410986">
        <ele>348.083</ele>
        <time>2020-08-23T08:43:16Z</time>
      </trkpt>
      <trkpt lat="41.867533" lon="0.410903">
        <ele>348.011</ele>
        <time>2020-08-23T08:43:17Z</time>
      </trkpt>
      <trkpt lat="41.867558" lon="0.410827">
        <ele>348.008</ele>
        <time>2020-08-23T08:43:18Z</time>
      </trkpt>
      <trkpt lat="41.867590" lon="0.410757">
        <ele>348.081</ele>
        <time>2020-08-23T08:43:19Z</time>
      </trkpt>
      <trkpt lat="41.867628" lon="0.410693">
        <ele>347.981</ele>
        <time>2020-08-23T08:43:20Z</time>
      </trkpt>
      <trkpt lat="41.867660" lon="0.410624">
        <ele>347.789</ele>
        <time>2020-08-23T08:43:21Z</time>
      </trkpt>
      <trkpt lat="41.867679" lon="0.410541">
        <ele>347.691</ele>
        <time>2020-08-23T08:43:22Z</time>
      </trkpt>
      <trkpt lat="41.867678" lon="0.410459">
        <ele>347.542</ele>
        <time>2020-08-23T08:43:23Z</time>
      </trkpt>
      <trkpt lat="41.867666" lon="0.410390">
        <ele>347.473</ele>
        <time>2020-08-23T08:43:24Z</time>
      </trkpt>
      <trkpt lat="41.867641" lon="0.410321">
        <ele>347.449</ele>
        <time>2020-08-23T08:43:25Z</time>
      </trkpt>
      <trkpt lat="41.867605" lon="0.410256">
        <ele>347.418</ele>
        <time>2020-08-23T08:43:26Z</time>
      </trkpt>
      <trkpt lat="41.867583" lon="0.410184">
        <ele>347.412</ele>
        <time>2020-08-23T08:43:27Z</time>
      </trkpt>
      <trkpt lat="41.867558" lon="0.410111">
        <ele>347.432</ele>
        <time>2020-08-23T08:43:28Z</time>
      </trkpt>
      <trkpt lat="41.867526" lon="0.410036">
        <ele>347.405</ele>
        <time>2020-08-23T08:43:29Z</time>
      </trkpt>
      <trkpt lat="41.867499" lon="0.409959">
        <ele>347.408</ele>
        <time>2020-08-23T08:43:30Z</time>
      </trkpt>
      <trkpt lat="41.867468" lon="0.409887">
        <ele>347.466</ele>
        <time>2020-08-23T08:43:31Z</time>
      </trkpt>
      <trkpt lat="41.867442" lon="0.409820">
        <ele>347.456</ele>
        <time>2020-08-23T08:43:32Z</time>
      </trkpt>
      <trkpt lat="41.867417" lon="0.409752">
        <ele>347.564</ele>
        <time>2020-08-23T08:43:33Z</time>
      </trkpt>
      <trkpt lat="41.867396" lon="0.409683">
        <ele>347.686</ele>
        <time>2020-08-23T08:43:34Z</time>
      </trkpt>
      <trkpt lat="41.867375" lon="0.409618">
        <ele>347.737</ele>
        <time>2020-08-23T08:43:35Z</time>
      </trkpt>
      <trkpt lat="41.867354" lon="0.409553">
        <ele>347.818</ele>
        <time>2020-08-23T08:43:36Z</time>
      </trkpt>
      <trkpt lat="41.867334" lon="0.409485">
        <ele>347.944</ele>
        <time>2020-08-23T08:43:37Z</time>
      </trkpt>
      <trkpt lat="41.867317" lon="0.409422">
        <ele>348.093</ele>
        <time>2020-08-23T08:43:38Z</time>
      </trkpt>
      <trkpt lat="41.867302" lon="0.409364">
        <ele>348.111</ele>
        <time>2020-08-23T08:43:39Z</time>
      </trkpt>
      <trkpt lat="41.867280" lon="0.409306">
        <ele>348.221</ele>
        <time>2020-08-23T08:43:40Z</time>
      </trkpt>
      <trkpt lat="41.867258" lon="0.409250">
        <ele>348.503</ele>
        <time>2020-08-23T08:43:41Z</time>
      </trkpt>
      <trkpt lat="41.867241" lon="0.409194">
        <ele>348.708</ele>
        <time>2020-08-23T08:43:42Z</time>
      </trkpt>
      <trkpt lat="41.867225" lon="0.409137">
        <ele>348.846</ele>
        <time>2020-08-23T08:43:43Z</time>
      </trkpt>
      <trkpt lat="41.867208" lon="0.409074">
        <ele>349.036</ele>
        <time>2020-08-23T08:43:44Z</time>
      </trkpt>
      <trkpt lat="41.867189" lon="0.409014">
        <ele>349.254</ele>
        <time>2020-08-23T08:43:45Z</time>
      </trkpt>
      <trkpt lat="41.867155" lon="0.408909">
        <ele>349.586</ele>
        <time>2020-08-23T08:43:47Z</time>
      </trkpt>
      <trkpt lat="41.867117" lon="0.408812">
        <ele>349.717</ele>
        <time>2020-08-23T08:43:49Z</time>
      </trkpt>
      <trkpt lat="41.867078" lon="0.408715">
        <ele>349.928</ele>
        <time>2020-08-23T08:43:51Z</time>
      </trkpt>
      <trkpt lat="41.867040" lon="0.408609">
        <ele>350.124</ele>
        <time>2020-08-23T08:43:53Z</time>
      </trkpt>
      <trkpt lat="41.867004" lon="0.408508">
        <ele>350.373</ele>
        <time>2020-08-23T08:43:55Z</time>
      </trkpt>
      <trkpt lat="41.866974" lon="0.408409">
        <ele>350.472</ele>
        <time>2020-08-23T08:43:57Z</time>
      </trkpt>
      <trkpt lat="41.866942" lon="0.408300">
        <ele>350.513</ele>
        <time>2020-08-23T08:43:59Z</time>
      </trkpt>
      <trkpt lat="41.866917" lon="0.408197">
        <ele>350.614</ele>
        <time>2020-08-23T08:44:01Z</time>
      </trkpt>
      <trkpt lat="41.866881" lon="0.408099">
        <ele>350.708</ele>
        <time>2020-08-23T08:44:03Z</time>
      </trkpt>
      <trkpt lat="41.866849" lon="0.407993">
        <ele>350.862</ele>
        <time>2020-08-23T08:44:05Z</time>
      </trkpt>
      <trkpt lat="41.866819" lon="0.407899">
        <ele>350.882</ele>
        <time>2020-08-23T08:44:07Z</time>
      </trkpt>
      <trkpt lat="41.866820" lon="0.407792">
        <ele>350.980</ele>
        <time>2020-08-23T08:44:09Z</time>
      </trkpt>
      <trkpt lat="41.866852" lon="0.407716">
        <ele>351.062</ele>
        <time>2020-08-23T08:44:11Z</time>
      </trkpt>
      <trkpt lat="41.866919" lon="0.407660">
        <ele>351.013</ele>
        <time>2020-08-23T08:44:13Z</time>
      </trkpt>
      <trkpt lat="41.866991" lon="0.407612">
        <ele>350.834</ele>
        <time>2020-08-23T08:44:15Z</time>
      </trkpt>
      <trkpt lat="41.867056" lon="0.407538">
        <ele>350.690</ele>
        <time>2020-08-23T08:44:17Z</time>
      </trkpt>
      <trkpt lat="41.867080" lon="0.407476">
        <ele>350.449</ele>
        <time>2020-08-23T08:44:18Z</time>
      </trkpt>
      <trkpt lat="41.867098" lon="0.407401">
        <ele>350.264</ele>
        <time>2020-08-23T08:44:19Z</time>
      </trkpt>
      <trkpt lat="41.867094" lon="0.407328">
        <ele>349.806</ele>
        <time>2020-08-23T08:44:20Z</time>
      </trkpt>
      <trkpt lat="41.867074" lon="0.407257">
        <ele>349.516</ele>
        <time>2020-08-23T08:44:21Z</time>
      </trkpt>
      <trkpt lat="41.867049" lon="0.407183">
        <ele>349.208</ele>
        <time>2020-08-23T08:44:22Z</time>
      </trkpt>
      <trkpt lat="41.867022" lon="0.407112">
        <ele>348.991</ele>
        <time>2020-08-23T08:44:23Z</time>
      </trkpt>
      <trkpt lat="41.866998" lon="0.407038">
        <ele>348.691</ele>
        <time>2020-08-23T08:44:24Z</time>
      </trkpt>
      <trkpt lat="41.866970" lon="0.406962">
        <ele>348.389</ele>
        <time>2020-08-23T08:44:25Z</time>
      </trkpt>
      <trkpt lat="41.866946" lon="0.406878">
        <ele>348.071</ele>
        <time>2020-08-23T08:44:26Z</time>
      </trkpt>
      <trkpt lat="41.866926" lon="0.406796">
        <ele>347.872</ele>
        <time>2020-08-23T08:44:27Z</time>
      </trkpt>
      <trkpt lat="41.866904" lon="0.406717">
        <ele>347.693</ele>
        <time>2020-08-23T08:44:28Z</time>
      </trkpt>
      <trkpt lat="41.866882" lon="0.406640">
        <ele>347.599</ele>
        <time>2020-08-23T08:44:29Z</time>
      </trkpt>
      <trkpt lat="41.866856" lon="0.406560">
        <ele>347.398</ele>
        <time>2020-08-23T08:44:30Z</time>
      </trkpt>
      <trkpt lat="41.866831" lon="0.406482">
        <ele>347.261</ele>
        <time>2020-08-23T08:44:31Z</time>
      </trkpt>
      <trkpt lat="41.866811" lon="0.406402">
        <ele>347.121</ele>
        <time>2020-08-23T08:44:32Z</time>
      </trkpt>
      <trkpt lat="41.866791" lon="0.406323">
        <ele>347.013</ele>
        <time>2020-08-23T08:44:33Z</time>
      </trkpt>
      <trkpt lat="41.866766" lon="0.406247">
        <ele>346.908</ele>
        <time>2020-08-23T08:44:34Z</time>
      </trkpt>
      <trkpt lat="41.866741" lon="0.406171">
        <ele>346.841</ele>
        <time>2020-08-23T08:44:35Z</time>
      </trkpt>
      <trkpt lat="41.866716" lon="0.406097">
        <ele>346.761</ele>
        <time>2020-08-23T08:44:36Z</time>
      </trkpt>
      <trkpt lat="41.866692" lon="0.406021">
        <ele>346.699</ele>
        <time>2020-08-23T08:44:37Z</time>
      </trkpt>
      <trkpt lat="41.866668" lon="0.405941">
        <ele>346.571</ele>
        <time>2020-08-23T08:44:38Z</time>
      </trkpt>
      <trkpt lat="41.866649" lon="0.405857">
        <ele>346.412</ele>
        <time>2020-08-23T08:44:39Z</time>
      </trkpt>
      <trkpt lat="41.866631" lon="0.405773">
        <ele>346.383</ele>
        <time>2020-08-23T08:44:40Z</time>
      </trkpt>
      <trkpt lat="41.866628" lon="0.405692">
        <ele>346.299</ele>
        <time>2020-08-23T08:44:41Z</time>
      </trkpt>
      <trkpt lat="41.866632" lon="0.405610">
        <ele>346.138</ele>
        <time>2020-08-23T08:44:42Z</time>
      </trkpt>
      <trkpt lat="41.866633" lon="0.405529">
        <ele>346.025</ele>
        <time>2020-08-23T08:44:43Z</time>
      </trkpt>
      <trkpt lat="41.866616" lon="0.405457">
        <ele>345.826</ele>
        <time>2020-08-23T08:44:44Z</time>
      </trkpt>
      <trkpt lat="41.866596" lon="0.405392">
        <ele>345.708</ele>
        <time>2020-08-23T08:44:45Z</time>
      </trkpt>
      <trkpt lat="41.866580" lon="0.405334">
        <ele>345.608</ele>
        <time>2020-08-23T08:44:46Z</time>
      </trkpt>
      <trkpt lat="41.866579" lon="0.405249">
        <ele>345.487</ele>
        <time>2020-08-23T08:44:48Z</time>
      </trkpt>
      <trkpt lat="41.866599" lon="0.405172">
        <ele>345.127</ele>
        <time>2020-08-23T08:44:51Z</time>
      </trkpt>
      <trkpt lat="41.866633" lon="0.405067">
        <ele>344.855</ele>
        <time>2020-08-23T08:44:53Z</time>
      </trkpt>
      <trkpt lat="41.866650" lon="0.404996">
        <ele>344.617</ele>
        <time>2020-08-23T08:44:54Z</time>
      </trkpt>
      <trkpt lat="41.866660" lon="0.404916">
        <ele>344.358</ele>
        <time>2020-08-23T08:44:55Z</time>
      </trkpt>
      <trkpt lat="41.866667" lon="0.404832">
        <ele>344.059</ele>
        <time>2020-08-23T08:44:56Z</time>
      </trkpt>
      <trkpt lat="41.866672" lon="0.404749">
        <ele>343.615</ele>
        <time>2020-08-23T08:44:57Z</time>
      </trkpt>
      <trkpt lat="41.866679" lon="0.404667">
        <ele>343.214</ele>
        <time>2020-08-23T08:44:58Z</time>
      </trkpt>
      <trkpt lat="41.866688" lon="0.404589">
        <ele>342.812</ele>
        <time>2020-08-23T08:44:59Z</time>
      </trkpt>
      <trkpt lat="41.866696" lon="0.404519">
        <ele>342.332</ele>
        <time>2020-08-23T08:45:00Z</time>
      </trkpt>
      <trkpt lat="41.866709" lon="0.404455">
        <ele>341.305</ele>
        <time>2020-08-23T08:45:01Z</time>
      </trkpt>
      <trkpt lat="41.866737" lon="0.404397">
        <ele>340.808</ele>
        <time>2020-08-23T08:45:02Z</time>
      </trkpt>
      <trkpt lat="41.866778" lon="0.404340">
        <ele>340.316</ele>
        <time>2020-08-23T08:45:03Z</time>
      </trkpt>
      <trkpt lat="41.866822" lon="0.404294">
        <ele>339.836</ele>
        <time>2020-08-23T08:45:04Z</time>
      </trkpt>
      <trkpt lat="41.866870" lon="0.404252">
        <ele>339.294</ele>
        <time>2020-08-23T08:45:05Z</time>
      </trkpt>
      <trkpt lat="41.866913" lon="0.404192">
        <ele>338.696</ele>
        <time>2020-08-23T08:45:06Z</time>
      </trkpt>
      <trkpt lat="41.866945" lon="0.404117">
        <ele>338.097</ele>
        <time>2020-08-23T08:45:07Z</time>
      </trkpt>
      <trkpt lat="41.866971" lon="0.404036">
        <ele>337.438</ele>
        <time>2020-08-23T08:45:08Z</time>
      </trkpt>
      <trkpt lat="41.866998" lon="0.403955">
        <ele>337.094</ele>
        <time>2020-08-23T08:45:09Z</time>
      </trkpt>
      <trkpt lat="41.867023" lon="0.403876">
        <ele>336.733</ele>
        <time>2020-08-23T08:45:10Z</time>
      </trkpt>
      <trkpt lat="41.867041" lon="0.403797">
        <ele>336.555</ele>
        <time>2020-08-23T08:45:11Z</time>
      </trkpt>
      <trkpt lat="41.867054" lon="0.403723">
        <ele>336.307</ele>
        <time>2020-08-23T08:45:12Z</time>
      </trkpt>
      <trkpt lat="41.867055" lon="0.403644">
        <ele>336.117</ele>
        <time>2020-08-23T08:45:13Z</time>
      </trkpt>
      <trkpt lat="41.867047" lon="0.403564">
        <ele>335.908</ele>
        <time>2020-08-23T08:45:14Z</time>
      </trkpt>
      <trkpt lat="41.867040" lon="0.403489">
        <ele>335.770</ele>
        <time>2020-08-23T08:45:15Z</time>
      </trkpt>
      <trkpt lat="41.867033" lon="0.403415">
        <ele>335.650</ele>
        <time>2020-08-23T08:45:16Z</time>
      </trkpt>
      <trkpt lat="41.867026" lon="0.403338">
        <ele>335.578</ele>
        <time>2020-08-23T08:45:17Z</time>
      </trkpt>
      <trkpt lat="41.867012" lon="0.403266">
        <ele>335.450</ele>
        <time>2020-08-23T08:45:18Z</time>
      </trkpt>
      <trkpt lat="41.866996" lon="0.403199">
        <ele>335.411</ele>
        <time>2020-08-23T08:45:19Z</time>
      </trkpt>
      <trkpt lat="41.866979" lon="0.403131">
        <ele>335.432</ele>
        <time>2020-08-23T08:45:20Z</time>
      </trkpt>
      <trkpt lat="41.866966" lon="0.403056">
        <ele>335.468</ele>
        <time>2020-08-23T08:45:21Z</time>
      </trkpt>
      <trkpt lat="41.866951" lon="0.402982">
        <ele>335.447</ele>
        <time>2020-08-23T08:45:22Z</time>
      </trkpt>
      <trkpt lat="41.866933" lon="0.402913">
        <ele>335.445</ele>
        <time>2020-08-23T08:45:23Z</time>
      </trkpt>
      <trkpt lat="41.866917" lon="0.402848">
        <ele>335.447</ele>
        <time>2020-08-23T08:45:24Z</time>
      </trkpt>
      <trkpt lat="41.866900" lon="0.402780">
        <ele>335.411</ele>
        <time>2020-08-23T08:45:25Z</time>
      </trkpt>
      <trkpt lat="41.866884" lon="0.402711">
        <ele>335.408</ele>
        <time>2020-08-23T08:45:26Z</time>
      </trkpt>
      <trkpt lat="41.866870" lon="0.402645">
        <ele>335.459</ele>
        <time>2020-08-23T08:45:27Z</time>
      </trkpt>
      <trkpt lat="41.866864" lon="0.402578">
        <ele>335.439</ele>
        <time>2020-08-23T08:45:28Z</time>
      </trkpt>
      <trkpt lat="41.866849" lon="0.402515">
        <ele>335.417</ele>
        <time>2020-08-23T08:45:29Z</time>
      </trkpt>
      <trkpt lat="41.866837" lon="0.402450">
        <ele>335.419</ele>
        <time>2020-08-23T08:45:30Z</time>
      </trkpt>
      <trkpt lat="41.866822" lon="0.402388">
        <ele>335.490</ele>
        <time>2020-08-23T08:45:31Z</time>
      </trkpt>
      <trkpt lat="41.866810" lon="0.402324">
        <ele>335.411</ele>
        <time>2020-08-23T08:45:32Z</time>
      </trkpt>
      <trkpt lat="41.866791" lon="0.402264">
        <ele>335.567</ele>
        <time>2020-08-23T08:45:33Z</time>
      </trkpt>
      <trkpt lat="41.866773" lon="0.402206">
        <ele>335.636</ele>
        <time>2020-08-23T08:45:34Z</time>
      </trkpt>
      <trkpt lat="41.866742" lon="0.402090">
        <ele>335.832</ele>
        <time>2020-08-23T08:45:36Z</time>
      </trkpt>
      <trkpt lat="41.866723" lon="0.402028">
        <ele>335.992</ele>
        <time>2020-08-23T08:45:37Z</time>
      </trkpt>
      <trkpt lat="41.866707" lon="0.401968">
        <ele>336.011</ele>
        <time>2020-08-23T08:45:38Z</time>
      </trkpt>
      <trkpt lat="41.866690" lon="0.401909">
        <ele>336.008</ele>
        <time>2020-08-23T08:45:39Z</time>
      </trkpt>
      <trkpt lat="41.866674" lon="0.401844">
        <ele>336.098</ele>
        <time>2020-08-23T08:45:40Z</time>
      </trkpt>
      <trkpt lat="41.866661" lon="0.401770">
        <ele>336.088</ele>
        <time>2020-08-23T08:45:41Z</time>
      </trkpt>
      <trkpt lat="41.866653" lon="0.401701">
        <ele>336.086</ele>
        <time>2020-08-23T08:45:42Z</time>
      </trkpt>
      <trkpt lat="41.866646" lon="0.401635">
        <ele>336.148</ele>
        <time>2020-08-23T08:45:43Z</time>
      </trkpt>
      <trkpt lat="41.866643" lon="0.401570">
        <ele>336.169</ele>
        <time>2020-08-23T08:45:44Z</time>
      </trkpt>
      <trkpt lat="41.866641" lon="0.401506">
        <ele>336.130</ele>
        <time>2020-08-23T08:45:45Z</time>
      </trkpt>
      <trkpt lat="41.866636" lon="0.401442">
        <ele>336.246</ele>
        <time>2020-08-23T08:45:46Z</time>
      </trkpt>
      <trkpt lat="41.866636" lon="0.401325">
        <ele>336.455</ele>
        <time>2020-08-23T08:45:48Z</time>
      </trkpt>
      <trkpt lat="41.866637" lon="0.401264">
        <ele>336.539</ele>
        <time>2020-08-23T08:45:49Z</time>
      </trkpt>
      <trkpt lat="41.866645" lon="0.401202">
        <ele>336.701</ele>
        <time>2020-08-23T08:45:50Z</time>
      </trkpt>
      <trkpt lat="41.866644" lon="0.401087">
        <ele>336.921</ele>
        <time>2020-08-23T08:45:52Z</time>
      </trkpt>
      <trkpt lat="41.866661" lon="0.400973">
        <ele>337.108</ele>
        <time>2020-08-23T08:45:54Z</time>
      </trkpt>
      <trkpt lat="41.866667" lon="0.400856">
        <ele>337.298</ele>
        <time>2020-08-23T08:45:56Z</time>
      </trkpt>
      <trkpt lat="41.866675" lon="0.400796">
        <ele>337.228</ele>
        <time>2020-08-23T08:45:57Z</time>
      </trkpt>
      <trkpt lat="41.866696" lon="0.400736">
        <ele>337.216</ele>
        <time>2020-08-23T08:45:58Z</time>
      </trkpt>
      <trkpt lat="41.866730" lon="0.400631">
        <ele>337.358</ele>
        <time>2020-08-23T08:46:00Z</time>
      </trkpt>
      <trkpt lat="41.866748" lon="0.400575">
        <ele>337.469</ele>
        <time>2020-08-23T08:46:01Z</time>
      </trkpt>
      <trkpt lat="41.866769" lon="0.400519">
        <ele>337.540</ele>
        <time>2020-08-23T08:46:02Z</time>
      </trkpt>
      <trkpt lat="41.866781" lon="0.400453">
        <ele>337.516</ele>
        <time>2020-08-23T08:46:03Z</time>
      </trkpt>
      <trkpt lat="41.866783" lon="0.400380">
        <ele>337.565</ele>
        <time>2020-08-23T08:46:04Z</time>
      </trkpt>
      <trkpt lat="41.866816" lon="0.400268">
        <ele>337.465</ele>
        <time>2020-08-23T08:46:06Z</time>
      </trkpt>
      <trkpt lat="41.866832" lon="0.400209">
        <ele>337.368</ele>
        <time>2020-08-23T08:46:07Z</time>
      </trkpt>
      <trkpt lat="41.866853" lon="0.400152">
        <ele>337.214</ele>
        <time>2020-08-23T08:46:08Z</time>
      </trkpt>
      <trkpt lat="41.866872" lon="0.400088">
        <ele>337.108</ele>
        <time>2020-08-23T08:46:09Z</time>
      </trkpt>
      <trkpt lat="41.866888" lon="0.400021">
        <ele>337.171</ele>
        <time>2020-08-23T08:46:10Z</time>
      </trkpt>
      <trkpt lat="41.866903" lon="0.399954">
        <ele>337.111</ele>
        <time>2020-08-23T08:46:11Z</time>
      </trkpt>
      <trkpt lat="41.866917" lon="0.399894">
        <ele>337.119</ele>
        <time>2020-08-23T08:46:12Z</time>
      </trkpt>
      <trkpt lat="41.866931" lon="0.399832">
        <ele>337.161</ele>
        <time>2020-08-23T08:46:13Z</time>
      </trkpt>
      <trkpt lat="41.866940" lon="0.399766">
        <ele>337.122</ele>
        <time>2020-08-23T08:46:14Z</time>
      </trkpt>
      <trkpt lat="41.866940" lon="0.399699">
        <ele>337.193</ele>
        <time>2020-08-23T08:46:15Z</time>
      </trkpt>
      <trkpt lat="41.866940" lon="0.399633">
        <ele>337.179</ele>
        <time>2020-08-23T08:46:16Z</time>
      </trkpt>
      <trkpt lat="41.866951" lon="0.399566">
        <ele>337.178</ele>
        <time>2020-08-23T08:46:17Z</time>
      </trkpt>
      <trkpt lat="41.866960" lon="0.399501">
        <ele>337.182</ele>
        <time>2020-08-23T08:46:18Z</time>
      </trkpt>
      <trkpt lat="41.866965" lon="0.399440">
        <ele>337.143</ele>
        <time>2020-08-23T08:46:19Z</time>
      </trkpt>
      <trkpt lat="41.866989" lon="0.399322">
        <ele>337.117</ele>
        <time>2020-08-23T08:46:21Z</time>
      </trkpt>
      <trkpt lat="41.866994" lon="0.399260">
        <ele>337.108</ele>
        <time>2020-08-23T08:46:22Z</time>
      </trkpt>
      <trkpt lat="41.867001" lon="0.399197">
        <ele>337.193</ele>
        <time>2020-08-23T08:46:23Z</time>
      </trkpt>
      <trkpt lat="41.867006" lon="0.399134">
        <ele>337.193</ele>
        <time>2020-08-23T08:46:24Z</time>
      </trkpt>
      <trkpt lat="41.867001" lon="0.399070">
        <ele>337.161</ele>
        <time>2020-08-23T08:46:25Z</time>
      </trkpt>
      <trkpt lat="41.866991" lon="0.398958">
        <ele>337.163</ele>
        <time>2020-08-23T08:46:27Z</time>
      </trkpt>
      <trkpt lat="41.866983" lon="0.398842">
        <ele>337.254</ele>
        <time>2020-08-23T08:46:29Z</time>
      </trkpt>
      <trkpt lat="41.866969" lon="0.398782">
        <ele>337.335</ele>
        <time>2020-08-23T08:46:30Z</time>
      </trkpt>
      <trkpt lat="41.866962" lon="0.398721">
        <ele>337.411</ele>
        <time>2020-08-23T08:46:31Z</time>
      </trkpt>
      <trkpt lat="41.866935" lon="0.398613">
        <ele>337.650</ele>
        <time>2020-08-23T08:46:33Z</time>
      </trkpt>
      <trkpt lat="41.866923" lon="0.398553">
        <ele>337.798</ele>
        <time>2020-08-23T08:46:34Z</time>
      </trkpt>
      <trkpt lat="41.866910" lon="0.398492">
        <ele>337.815</ele>
        <time>2020-08-23T08:46:35Z</time>
      </trkpt>
      <trkpt lat="41.866882" lon="0.398390">
        <ele>338.026</ele>
        <time>2020-08-23T08:46:37Z</time>
      </trkpt>
      <trkpt lat="41.866855" lon="0.398304">
        <ele>338.208</ele>
        <time>2020-08-23T08:46:39Z</time>
      </trkpt>
      <trkpt lat="41.866846" lon="0.398224">
        <ele>338.454</ele>
        <time>2020-08-23T08:46:41Z</time>
      </trkpt>
      <trkpt lat="41.866837" lon="0.398136">
        <ele>338.744</ele>
        <time>2020-08-23T08:46:43Z</time>
      </trkpt>
      <trkpt lat="41.866832" lon="0.398052">
        <ele>339.012</ele>
        <time>2020-08-23T08:46:45Z</time>
      </trkpt>
      <trkpt lat="41.866820" lon="0.397973">
        <ele>339.484</ele>
        <time>2020-08-23T08:46:47Z</time>
      </trkpt>
      <trkpt lat="41.866821" lon="0.397898">
        <ele>339.715</ele>
        <time>2020-08-23T08:46:49Z</time>
      </trkpt>
      <trkpt lat="41.866828" lon="0.397832">
        <ele>340.016</ele>
        <time>2020-08-23T08:46:51Z</time>
      </trkpt>
      <trkpt lat="41.866828" lon="0.397763">
        <ele>340.382</ele>
        <time>2020-08-23T08:46:53Z</time>
      </trkpt>
      <trkpt lat="41.866829" lon="0.397694">
        <ele>340.721</ele>
        <time>2020-08-23T08:46:55Z</time>
      </trkpt>
      <trkpt lat="41.866849" lon="0.397610">
        <ele>341.376</ele>
        <time>2020-08-23T08:46:58Z</time>
      </trkpt>
      <trkpt lat="41.866871" lon="0.397555">
        <ele>341.790</ele>
        <time>2020-08-23T08:47:00Z</time>
      </trkpt>
      <trkpt lat="41.866894" lon="0.397494">
        <ele>342.019</ele>
        <time>2020-08-23T08:47:02Z</time>
      </trkpt>
      <trkpt lat="41.866915" lon="0.397432">
        <ele>342.308</ele>
        <time>2020-08-23T08:47:04Z</time>
      </trkpt>
      <trkpt lat="41.866944" lon="0.397356">
        <ele>342.972</ele>
        <time>2020-08-23T08:47:07Z</time>
      </trkpt>
      <trkpt lat="41.866974" lon="0.397296">
        <ele>343.462</ele>
        <time>2020-08-23T08:47:10Z</time>
      </trkpt>
      <trkpt lat="41.866964" lon="0.397232">
        <ele>344.120</ele>
        <time>2020-08-23T08:47:13Z</time>
      </trkpt>
      <trkpt lat="41.866943" lon="0.397178">
        <ele>344.692</ele>
        <time>2020-08-23T08:47:16Z</time>
      </trkpt>
      <trkpt lat="41.866903" lon="0.397142">
        <ele>344.973</ele>
        <time>2020-08-23T08:47:19Z</time>
      </trkpt>
      <trkpt lat="41.866863" lon="0.397092">
        <ele>345.014</ele>
        <time>2020-08-23T08:47:21Z</time>
      </trkpt>
      <trkpt lat="41.866825" lon="0.397005">
        <ele>344.910</ele>
        <time>2020-08-23T08:47:23Z</time>
      </trkpt>
      <trkpt lat="41.866820" lon="0.396944">
        <ele>344.849</ele>
        <time>2020-08-23T08:47:24Z</time>
      </trkpt>
      <trkpt lat="41.866820" lon="0.396875">
        <ele>344.614</ele>
        <time>2020-08-23T08:47:25Z</time>
      </trkpt>
      <trkpt lat="41.866828" lon="0.396803">
        <ele>344.454</ele>
        <time>2020-08-23T08:47:26Z</time>
      </trkpt>
      <trkpt lat="41.866845" lon="0.396735">
        <ele>344.109</ele>
        <time>2020-08-23T08:47:27Z</time>
      </trkpt>
      <trkpt lat="41.866855" lon="0.396670">
        <ele>343.608</ele>
        <time>2020-08-23T08:47:28Z</time>
      </trkpt>
      <trkpt lat="41.866855" lon="0.396609">
        <ele>343.436</ele>
        <time>2020-08-23T08:47:29Z</time>
      </trkpt>
      <trkpt lat="41.866853" lon="0.396494">
        <ele>343.236</ele>
        <time>2020-08-23T08:47:31Z</time>
      </trkpt>
      <trkpt lat="41.866842" lon="0.396385">
        <ele>343.214</ele>
        <time>2020-08-23T08:47:33Z</time>
      </trkpt>
      <trkpt lat="41.866841" lon="0.396272">
        <ele>343.236</ele>
        <time>2020-08-23T08:47:35Z</time>
      </trkpt>
      <trkpt lat="41.866838" lon="0.396211">
        <ele>343.217</ele>
        <time>2020-08-23T08:47:36Z</time>
      </trkpt>
      <trkpt lat="41.866837" lon="0.396098">
        <ele>343.398</ele>
        <time>2020-08-23T08:47:38Z</time>
      </trkpt>
      <trkpt lat="41.866840" lon="0.395987">
        <ele>343.534</ele>
        <time>2020-08-23T08:47:40Z</time>
      </trkpt>
      <trkpt lat="41.866841" lon="0.395877">
        <ele>343.733</ele>
        <time>2020-08-23T08:47:42Z</time>
      </trkpt>
      <trkpt lat="41.866852" lon="0.395818">
        <ele>343.831</ele>
        <time>2020-08-23T08:47:43Z</time>
      </trkpt>
      <trkpt lat="41.866869" lon="0.395711">
        <ele>344.061</ele>
        <time>2020-08-23T08:47:45Z</time>
      </trkpt>
      <trkpt lat="41.866874" lon="0.395613">
        <ele>344.107</ele>
        <time>2020-08-23T08:47:47Z</time>
      </trkpt>
      <trkpt lat="41.866895" lon="0.395515">
        <ele>344.308</ele>
        <time>2020-08-23T08:47:49Z</time>
      </trkpt>
      <trkpt lat="41.866917" lon="0.395433">
        <ele>344.518</ele>
        <time>2020-08-23T08:47:51Z</time>
      </trkpt>
      <trkpt lat="41.866939" lon="0.395343">
        <ele>344.798</ele>
        <time>2020-08-23T08:47:53Z</time>
      </trkpt>
      <trkpt lat="41.866953" lon="0.395254">
        <ele>344.946</ele>
        <time>2020-08-23T08:47:55Z</time>
      </trkpt>
      <trkpt lat="41.866971" lon="0.395181">
        <ele>345.058</ele>
        <time>2020-08-23T08:47:57Z</time>
      </trkpt>
      <trkpt lat="41.866981" lon="0.395109">
        <ele>345.219</ele>
        <time>2020-08-23T08:47:59Z</time>
      </trkpt>
      <trkpt lat="41.866985" lon="0.395045">
        <ele>345.480</ele>
        <time>2020-08-23T08:48:01Z</time>
      </trkpt>
      <trkpt lat="41.866986" lon="0.394970">
        <ele>345.746</ele>
        <time>2020-08-23T08:48:03Z</time>
      </trkpt>
      <trkpt lat="41.866986" lon="0.394893">
        <ele>346.075</ele>
        <time>2020-08-23T08:48:05Z</time>
      </trkpt>
      <trkpt lat="41.866982" lon="0.394822">
        <ele>346.318</ele>
        <time>2020-08-23T08:48:07Z</time>
      </trkpt>
      <trkpt lat="41.866969" lon="0.394752">
        <ele>346.698</ele>
        <time>2020-08-23T08:48:09Z</time>
      </trkpt>
      <trkpt lat="41.866961" lon="0.394688">
        <ele>347.217</ele>
        <time>2020-08-23T08:48:11Z</time>
      </trkpt>
      <trkpt lat="41.866945" lon="0.394620">
        <ele>347.608</ele>
        <time>2020-08-23T08:48:13Z</time>
      </trkpt>
      <trkpt lat="41.866927" lon="0.394557">
        <ele>348.096</ele>
        <time>2020-08-23T08:48:15Z</time>
      </trkpt>
      <trkpt lat="41.866896" lon="0.394497">
        <ele>348.376</ele>
        <time>2020-08-23T08:48:17Z</time>
      </trkpt>
      <trkpt lat="41.866859" lon="0.394440">
        <ele>348.624</ele>
        <time>2020-08-23T08:48:19Z</time>
      </trkpt>
      <trkpt lat="41.866823" lon="0.394383">
        <ele>348.926</ele>
        <time>2020-08-23T08:48:21Z</time>
      </trkpt>
      <trkpt lat="41.866792" lon="0.394332">
        <ele>349.237</ele>
        <time>2020-08-23T08:48:23Z</time>
      </trkpt>
      <trkpt lat="41.866754" lon="0.394271">
        <ele>349.598</ele>
        <time>2020-08-23T08:48:25Z</time>
      </trkpt>
      <trkpt lat="41.866718" lon="0.394213">
        <ele>349.884</ele>
        <time>2020-08-23T08:48:27Z</time>
      </trkpt>
      <trkpt lat="41.866681" lon="0.394168">
        <ele>350.173</ele>
        <time>2020-08-23T08:48:29Z</time>
      </trkpt>
      <trkpt lat="41.866653" lon="0.394113">
        <ele>350.441</ele>
        <time>2020-08-23T08:48:31Z</time>
      </trkpt>
      <trkpt lat="41.866619" lon="0.394028">
        <ele>351.081</ele>
        <time>2020-08-23T08:48:34Z</time>
      </trkpt>
      <trkpt lat="41.866599" lon="0.393968">
        <ele>351.309</ele>
        <time>2020-08-23T08:48:36Z</time>
      </trkpt>
      <trkpt lat="41.866591" lon="0.393900">
        <ele>351.608</ele>
        <time>2020-08-23T08:48:38Z</time>
      </trkpt>
      <trkpt lat="41.866567" lon="0.393822">
        <ele>352.029</ele>
        <time>2020-08-23T08:48:41Z</time>
      </trkpt>
      <trkpt lat="41.866544" lon="0.393737">
        <ele>352.339</ele>
        <time>2020-08-23T08:48:44Z</time>
      </trkpt>
      <trkpt lat="41.866519" lon="0.393684">
        <ele>352.427</ele>
        <time>2020-08-23T08:48:46Z</time>
      </trkpt>
      <trkpt lat="41.866487" lon="0.393619">
        <ele>352.679</ele>
        <time>2020-08-23T08:48:48Z</time>
      </trkpt>
      <trkpt lat="41.866461" lon="0.393533">
        <ele>352.960</ele>
        <time>2020-08-23T08:48:51Z</time>
      </trkpt>
      <trkpt lat="41.866441" lon="0.393473">
        <ele>353.141</ele>
        <time>2020-08-23T08:48:53Z</time>
      </trkpt>
      <trkpt lat="41.866425" lon="0.393416">
        <ele>353.577</ele>
        <time>2020-08-23T08:48:55Z</time>
      </trkpt>
      <trkpt lat="41.866404" lon="0.393356">
        <ele>353.876</ele>
        <time>2020-08-23T08:48:57Z</time>
      </trkpt>
      <trkpt lat="41.866383" lon="0.393294">
        <ele>354.054</ele>
        <time>2020-08-23T08:48:59Z</time>
      </trkpt>
      <trkpt lat="41.866364" lon="0.393228">
        <ele>354.256</ele>
        <time>2020-08-23T08:49:01Z</time>
      </trkpt>
      <trkpt lat="41.866350" lon="0.393133">
        <ele>354.411</ele>
        <time>2020-08-23T08:49:03Z</time>
      </trkpt>
      <trkpt lat="41.866339" lon="0.393040">
        <ele>354.508</ele>
        <time>2020-08-23T08:49:05Z</time>
      </trkpt>
      <trkpt lat="41.866330" lon="0.392948">
        <ele>354.690</ele>
        <time>2020-08-23T08:49:07Z</time>
      </trkpt>
      <trkpt lat="41.866310" lon="0.392856">
        <ele>354.670</ele>
        <time>2020-08-23T08:49:09Z</time>
      </trkpt>
      <trkpt lat="41.866282" lon="0.392757">
        <ele>354.728</ele>
        <time>2020-08-23T08:49:11Z</time>
      </trkpt>
      <trkpt lat="41.866252" lon="0.392638">
        <ele>354.760</ele>
        <time>2020-08-23T08:49:13Z</time>
      </trkpt>
      <trkpt lat="41.866237" lon="0.392577">
        <ele>354.761</ele>
        <time>2020-08-23T08:49:14Z</time>
      </trkpt>
      <trkpt lat="41.866212" lon="0.392458">
        <ele>354.522</ele>
        <time>2020-08-23T08:49:16Z</time>
      </trkpt>
      <trkpt lat="41.866199" lon="0.392397">
        <ele>354.458</ele>
        <time>2020-08-23T08:49:17Z</time>
      </trkpt>
      <trkpt lat="41.866186" lon="0.392329">
        <ele>354.327</ele>
        <time>2020-08-23T08:49:18Z</time>
      </trkpt>
      <trkpt lat="41.866174" lon="0.392251">
        <ele>354.217</ele>
        <time>2020-08-23T08:49:19Z</time>
      </trkpt>
      <trkpt lat="41.866162" lon="0.392175">
        <ele>354.187</ele>
        <time>2020-08-23T08:49:20Z</time>
      </trkpt>
      <trkpt lat="41.866149" lon="0.392101">
        <ele>354.015</ele>
        <time>2020-08-23T08:49:21Z</time>
      </trkpt>
      <trkpt lat="41.866128" lon="0.392024">
        <ele>353.908</ele>
        <time>2020-08-23T08:49:22Z</time>
      </trkpt>
      <trkpt lat="41.866101" lon="0.391945">
        <ele>353.836</ele>
        <time>2020-08-23T08:49:23Z</time>
      </trkpt>
      <trkpt lat="41.866079" lon="0.391864">
        <ele>353.786</ele>
        <time>2020-08-23T08:49:24Z</time>
      </trkpt>
      <trkpt lat="41.866060" lon="0.391790">
        <ele>353.654</ele>
        <time>2020-08-23T08:49:25Z</time>
      </trkpt>
      <trkpt lat="41.866037" lon="0.391715">
        <ele>353.646</ele>
        <time>2020-08-23T08:49:26Z</time>
      </trkpt>
      <trkpt lat="41.866017" lon="0.391637">
        <ele>353.527</ele>
        <time>2020-08-23T08:49:27Z</time>
      </trkpt>
      <trkpt lat="41.866002" lon="0.391563">
        <ele>353.488</ele>
        <time>2020-08-23T08:49:28Z</time>
      </trkpt>
      <trkpt lat="41.865988" lon="0.391489">
        <ele>353.334</ele>
        <time>2020-08-23T08:49:29Z</time>
      </trkpt>
      <trkpt lat="41.865974" lon="0.391414">
        <ele>353.293</ele>
        <time>2020-08-23T08:49:30Z</time>
      </trkpt>
      <trkpt lat="41.865963" lon="0.391338">
        <ele>353.091</ele>
        <time>2020-08-23T08:49:31Z</time>
      </trkpt>
      <trkpt lat="41.865958" lon="0.391266">
        <ele>352.881</ele>
        <time>2020-08-23T08:49:32Z</time>
      </trkpt>
      <trkpt lat="41.865954" lon="0.391195">
        <ele>352.719</ele>
        <time>2020-08-23T08:49:33Z</time>
      </trkpt>
      <trkpt lat="41.865946" lon="0.391124">
        <ele>352.608</ele>
        <time>2020-08-23T08:49:34Z</time>
      </trkpt>
      <trkpt lat="41.865939" lon="0.391052">
        <ele>352.574</ele>
        <time>2020-08-23T08:49:35Z</time>
      </trkpt>
      <trkpt lat="41.865941" lon="0.390976">
        <ele>352.484</ele>
        <time>2020-08-23T08:49:36Z</time>
      </trkpt>
      <trkpt lat="41.865940" lon="0.390894">
        <ele>352.332</ele>
        <time>2020-08-23T08:49:37Z</time>
      </trkpt>
      <trkpt lat="41.865944" lon="0.390807">
        <ele>352.254</ele>
        <time>2020-08-23T08:49:38Z</time>
      </trkpt>
      <trkpt lat="41.865941" lon="0.390722">
        <ele>352.275</ele>
        <time>2020-08-23T08:49:39Z</time>
      </trkpt>
      <trkpt lat="41.865942" lon="0.390643">
        <ele>352.116</ele>
        <time>2020-08-23T08:49:40Z</time>
      </trkpt>
      <trkpt lat="41.865940" lon="0.390560">
        <ele>352.082</ele>
        <time>2020-08-23T08:49:41Z</time>
      </trkpt>
      <trkpt lat="41.865940" lon="0.390477">
        <ele>351.941</ele>
        <time>2020-08-23T08:49:42Z</time>
      </trkpt>
      <trkpt lat="41.865937" lon="0.390392">
        <ele>351.777</ele>
        <time>2020-08-23T08:49:43Z</time>
      </trkpt>
      <trkpt lat="41.865938" lon="0.390308">
        <ele>351.561</ele>
        <time>2020-08-23T08:49:44Z</time>
      </trkpt>
      <trkpt lat="41.865937" lon="0.390222">
        <ele>351.427</ele>
        <time>2020-08-23T08:49:45Z</time>
      </trkpt>
      <trkpt lat="41.865939" lon="0.390139">
        <ele>351.208</ele>
        <time>2020-08-23T08:49:46Z</time>
      </trkpt>
      <trkpt lat="41.865947" lon="0.390060">
        <ele>351.192</ele>
        <time>2020-08-23T08:49:47Z</time>
      </trkpt>
      <trkpt lat="41.865957" lon="0.389982">
        <ele>351.022</ele>
        <time>2020-08-23T08:49:48Z</time>
      </trkpt>
      <trkpt lat="41.865963" lon="0.389901">
        <ele>350.930</ele>
        <time>2020-08-23T08:49:49Z</time>
      </trkpt>
      <trkpt lat="41.865971" lon="0.389824">
        <ele>350.832</ele>
        <time>2020-08-23T08:49:50Z</time>
      </trkpt>
      <trkpt lat="41.865976" lon="0.389749">
        <ele>350.743</ele>
        <time>2020-08-23T08:49:51Z</time>
      </trkpt>
      <trkpt lat="41.865981" lon="0.389678">
        <ele>350.654</ele>
        <time>2020-08-23T08:49:52Z</time>
      </trkpt>
      <trkpt lat="41.865986" lon="0.389613">
        <ele>350.550</ele>
        <time>2020-08-23T08:49:53Z</time>
      </trkpt>
      <trkpt lat="41.865991" lon="0.389547">
        <ele>350.449</ele>
        <time>2020-08-23T08:49:54Z</time>
      </trkpt>
      <trkpt lat="41.865992" lon="0.389472">
        <ele>350.392</ele>
        <time>2020-08-23T08:49:55Z</time>
      </trkpt>
      <trkpt lat="41.865994" lon="0.389389">
        <ele>350.273</ele>
        <time>2020-08-23T08:49:56Z</time>
      </trkpt>
      <trkpt lat="41.865999" lon="0.389303">
        <ele>350.020</ele>
        <time>2020-08-23T08:49:57Z</time>
      </trkpt>
      <trkpt lat="41.866000" lon="0.389218">
        <ele>349.808</ele>
        <time>2020-08-23T08:49:58Z</time>
      </trkpt>
      <trkpt lat="41.866010" lon="0.389126">
        <ele>349.264</ele>
        <time>2020-08-23T08:49:59Z</time>
      </trkpt>
      <trkpt lat="41.866012" lon="0.389032">
        <ele>348.964</ele>
        <time>2020-08-23T08:50:00Z</time>
      </trkpt>
      <trkpt lat="41.866015" lon="0.388938">
        <ele>348.632</ele>
        <time>2020-08-23T08:50:01Z</time>
      </trkpt>
      <trkpt lat="41.866019" lon="0.388845">
        <ele>348.364</ele>
        <time>2020-08-23T08:50:02Z</time>
      </trkpt>
      <trkpt lat="41.866022" lon="0.388753">
        <ele>348.055</ele>
        <time>2020-08-23T08:50:03Z</time>
      </trkpt>
      <trkpt lat="41.866022" lon="0.388660">
        <ele>347.766</ele>
        <time>2020-08-23T08:50:04Z</time>
      </trkpt>
      <trkpt lat="41.866020" lon="0.388564">
        <ele>347.522</ele>
        <time>2020-08-23T08:50:05Z</time>
      </trkpt>
      <trkpt lat="41.866019" lon="0.388468">
        <ele>347.341</ele>
        <time>2020-08-23T08:50:06Z</time>
      </trkpt>
      <trkpt lat="41.866023" lon="0.388377">
        <ele>347.164</ele>
        <time>2020-08-23T08:50:07Z</time>
      </trkpt>
      <trkpt lat="41.866031" lon="0.388291">
        <ele>346.906</ele>
        <time>2020-08-23T08:50:08Z</time>
      </trkpt>
      <trkpt lat="41.866045" lon="0.388208">
        <ele>346.816</ele>
        <time>2020-08-23T08:50:09Z</time>
      </trkpt>
      <trkpt lat="41.866053" lon="0.388129">
        <ele>346.708</ele>
        <time>2020-08-23T08:50:10Z</time>
      </trkpt>
      <trkpt lat="41.866065" lon="0.388057">
        <ele>346.591</ele>
        <time>2020-08-23T08:50:11Z</time>
      </trkpt>
      <trkpt lat="41.866078" lon="0.387990">
        <ele>346.331</ele>
        <time>2020-08-23T08:50:12Z</time>
      </trkpt>
      <trkpt lat="41.866096" lon="0.387928">
        <ele>346.239</ele>
        <time>2020-08-23T08:50:13Z</time>
      </trkpt>
      <trkpt lat="41.866101" lon="0.387867">
        <ele>346.041</ele>
        <time>2020-08-23T08:50:14Z</time>
      </trkpt>
      <trkpt lat="41.866111" lon="0.387770">
        <ele>345.612</ele>
        <time>2020-08-23T08:50:16Z</time>
      </trkpt>
      <trkpt lat="41.866086" lon="0.387703">
        <ele>345.363</ele>
        <time>2020-08-23T08:50:18Z</time>
      </trkpt>
      <trkpt lat="41.866045" lon="0.387643">
        <ele>345.189</ele>
        <time>2020-08-23T08:50:20Z</time>
      </trkpt>
      <trkpt lat="41.866003" lon="0.387589">
        <ele>345.048</ele>
        <time>2020-08-23T08:50:22Z</time>
      </trkpt>
      <trkpt lat="41.865984" lon="0.387507">
        <ele>344.782</ele>
        <time>2020-08-23T08:50:25Z</time>
      </trkpt>
      <trkpt lat="41.866020" lon="0.387450">
        <ele>344.543</ele>
        <time>2020-08-23T08:50:27Z</time>
      </trkpt>
      <trkpt lat="41.866060" lon="0.387409">
        <ele>344.417</ele>
        <time>2020-08-23T08:50:29Z</time>
      </trkpt>
      <trkpt lat="41.866105" lon="0.387363">
        <ele>344.308</ele>
        <time>2020-08-23T08:50:31Z</time>
      </trkpt>
      <trkpt lat="41.866147" lon="0.387314">
        <ele>344.263</ele>
        <time>2020-08-23T08:50:33Z</time>
      </trkpt>
      <trkpt lat="41.866167" lon="0.387235">
        <ele>344.163</ele>
        <time>2020-08-23T08:50:35Z</time>
      </trkpt>
      <trkpt lat="41.866190" lon="0.387163">
        <ele>344.151</ele>
        <time>2020-08-23T08:50:37Z</time>
      </trkpt>
      <trkpt lat="41.866208" lon="0.387081">
        <ele>344.083</ele>
        <time>2020-08-23T08:50:39Z</time>
      </trkpt>
      <trkpt lat="41.866227" lon="0.386987">
        <ele>344.094</ele>
        <time>2020-08-23T08:50:41Z</time>
      </trkpt>
      <trkpt lat="41.866239" lon="0.386891">
        <ele>343.945</ele>
        <time>2020-08-23T08:50:43Z</time>
      </trkpt>
      <trkpt lat="41.866236" lon="0.386804">
        <ele>343.941</ele>
        <time>2020-08-23T08:50:45Z</time>
      </trkpt>
      <trkpt lat="41.866215" lon="0.386720">
        <ele>344.060</ele>
        <time>2020-08-23T08:50:47Z</time>
      </trkpt>
      <trkpt lat="41.866177" lon="0.386624">
        <ele>344.266</ele>
        <time>2020-08-23T08:50:49Z</time>
      </trkpt>
      <trkpt lat="41.866141" lon="0.386526">
        <ele>344.429</ele>
        <time>2020-08-23T08:50:51Z</time>
      </trkpt>
      <trkpt lat="41.866115" lon="0.386417">
        <ele>344.421</ele>
        <time>2020-08-23T08:50:53Z</time>
      </trkpt>
      <trkpt lat="41.866080" lon="0.386304">
        <ele>344.508</ele>
        <time>2020-08-23T08:50:55Z</time>
      </trkpt>
      <trkpt lat="41.866064" lon="0.386247">
        <ele>344.621</ele>
        <time>2020-08-23T08:50:56Z</time>
      </trkpt>
      <trkpt lat="41.866025" lon="0.386149">
        <ele>344.751</ele>
        <time>2020-08-23T08:50:58Z</time>
      </trkpt>
      <trkpt lat="41.865981" lon="0.386055">
        <ele>344.729</ele>
        <time>2020-08-23T08:51:00Z</time>
      </trkpt>
      <trkpt lat="41.865941" lon="0.385961">
        <ele>344.731</ele>
        <time>2020-08-23T08:51:02Z</time>
      </trkpt>
      <trkpt lat="41.865907" lon="0.385858">
        <ele>344.892</ele>
        <time>2020-08-23T08:51:04Z</time>
      </trkpt>
      <trkpt lat="41.865888" lon="0.385795">
        <ele>344.823</ele>
        <time>2020-08-23T08:51:05Z</time>
      </trkpt>
      <trkpt lat="41.865870" lon="0.385730">
        <ele>344.829</ele>
        <time>2020-08-23T08:51:06Z</time>
      </trkpt>
      <trkpt lat="41.865855" lon="0.385666">
        <ele>344.868</ele>
        <time>2020-08-23T08:51:07Z</time>
      </trkpt>
      <trkpt lat="41.865837" lon="0.385604">
        <ele>344.828</ele>
        <time>2020-08-23T08:51:08Z</time>
      </trkpt>
      <trkpt lat="41.865823" lon="0.385536">
        <ele>344.889</ele>
        <time>2020-08-23T08:51:09Z</time>
      </trkpt>
      <trkpt lat="41.865806" lon="0.385468">
        <ele>344.817</ele>
        <time>2020-08-23T08:51:10Z</time>
      </trkpt>
      <trkpt lat="41.865782" lon="0.385395">
        <ele>344.808</ele>
        <time>2020-08-23T08:51:11Z</time>
      </trkpt>
      <trkpt lat="41.865768" lon="0.385329">
        <ele>344.847</ele>
        <time>2020-08-23T08:51:12Z</time>
      </trkpt>
      <trkpt lat="41.865759" lon="0.385263">
        <ele>344.817</ele>
        <time>2020-08-23T08:51:13Z</time>
      </trkpt>
      <trkpt lat="41.865754" lon="0.385194">
        <ele>344.825</ele>
        <time>2020-08-23T08:51:14Z</time>
      </trkpt>
      <trkpt lat="41.865744" lon="0.385121">
        <ele>344.897</ele>
        <time>2020-08-23T08:51:15Z</time>
      </trkpt>
      <trkpt lat="41.865732" lon="0.385045">
        <ele>344.818</ele>
        <time>2020-08-23T08:51:16Z</time>
      </trkpt>
      <trkpt lat="41.865725" lon="0.384975">
        <ele>344.859</ele>
        <time>2020-08-23T08:51:17Z</time>
      </trkpt>
      <trkpt lat="41.865721" lon="0.384914">
        <ele>344.825</ele>
        <time>2020-08-23T08:51:18Z</time>
      </trkpt>
      <trkpt lat="41.865719" lon="0.384853">
        <ele>344.844</ele>
        <time>2020-08-23T08:51:19Z</time>
      </trkpt>
      <trkpt lat="41.865714" lon="0.384732">
        <ele>344.825</ele>
        <time>2020-08-23T08:51:21Z</time>
      </trkpt>
      <trkpt lat="41.865708" lon="0.384667">
        <ele>344.826</ele>
        <time>2020-08-23T08:51:22Z</time>
      </trkpt>
      <trkpt lat="41.865701" lon="0.384595">
        <ele>344.808</ele>
        <time>2020-08-23T08:51:23Z</time>
      </trkpt>
      <trkpt lat="41.865697" lon="0.384521">
        <ele>344.808</ele>
        <time>2020-08-23T08:51:24Z</time>
      </trkpt>
      <trkpt lat="41.865698" lon="0.384447">
        <ele>344.747</ele>
        <time>2020-08-23T08:51:25Z</time>
      </trkpt>
      <trkpt lat="41.865693" lon="0.384374">
        <ele>344.687</ele>
        <time>2020-08-23T08:51:26Z</time>
      </trkpt>
      <trkpt lat="41.865698" lon="0.384304">
        <ele>344.575</ele>
        <time>2020-08-23T08:51:27Z</time>
      </trkpt>
      <trkpt lat="41.865701" lon="0.384235">
        <ele>344.417</ele>
        <time>2020-08-23T08:51:28Z</time>
      </trkpt>
      <trkpt lat="41.865701" lon="0.384161">
        <ele>344.478</ele>
        <time>2020-08-23T08:51:29Z</time>
      </trkpt>
      <trkpt lat="41.865700" lon="0.384085">
        <ele>344.479</ele>
        <time>2020-08-23T08:51:30Z</time>
      </trkpt>
      <trkpt lat="41.865697" lon="0.384010">
        <ele>344.425</ele>
        <time>2020-08-23T08:51:31Z</time>
      </trkpt>
      <trkpt lat="41.865709" lon="0.383944">
        <ele>344.484</ele>
        <time>2020-08-23T08:51:32Z</time>
      </trkpt>
      <trkpt lat="41.865711" lon="0.383874">
        <ele>344.467</ele>
        <time>2020-08-23T08:51:33Z</time>
      </trkpt>
      <trkpt lat="41.865719" lon="0.383803">
        <ele>344.481</ele>
        <time>2020-08-23T08:51:34Z</time>
      </trkpt>
      <trkpt lat="41.865728" lon="0.383733">
        <ele>344.419</ele>
        <time>2020-08-23T08:51:35Z</time>
      </trkpt>
      <trkpt lat="41.865739" lon="0.383660">
        <ele>344.508</ele>
        <time>2020-08-23T08:51:36Z</time>
      </trkpt>
      <trkpt lat="41.865748" lon="0.383587">
        <ele>344.561</ele>
        <time>2020-08-23T08:51:37Z</time>
      </trkpt>
      <trkpt lat="41.865749" lon="0.383516">
        <ele>344.551</ele>
        <time>2020-08-23T08:51:38Z</time>
      </trkpt>
      <trkpt lat="41.865750" lon="0.383444">
        <ele>344.529</ele>
        <time>2020-08-23T08:51:39Z</time>
      </trkpt>
      <trkpt lat="41.865754" lon="0.383371">
        <ele>344.571</ele>
        <time>2020-08-23T08:51:40Z</time>
      </trkpt>
      <trkpt lat="41.865753" lon="0.383303">
        <ele>344.572</ele>
        <time>2020-08-23T08:51:41Z</time>
      </trkpt>
      <trkpt lat="41.865758" lon="0.383234">
        <ele>344.423</ele>
        <time>2020-08-23T08:51:42Z</time>
      </trkpt>
      <trkpt lat="41.865767" lon="0.383164">
        <ele>344.329</ele>
        <time>2020-08-23T08:51:43Z</time>
      </trkpt>
      <trkpt lat="41.865777" lon="0.383093">
        <ele>344.398</ele>
        <time>2020-08-23T08:51:44Z</time>
      </trkpt>
      <trkpt lat="41.865778" lon="0.383022">
        <ele>344.346</ele>
        <time>2020-08-23T08:51:45Z</time>
      </trkpt>
      <trkpt lat="41.865795" lon="0.382957">
        <ele>344.388</ele>
        <time>2020-08-23T08:51:46Z</time>
      </trkpt>
      <trkpt lat="41.865807" lon="0.382891">
        <ele>344.316</ele>
        <time>2020-08-23T08:51:47Z</time>
      </trkpt>
      <trkpt lat="41.865816" lon="0.382820">
        <ele>344.308</ele>
        <time>2020-08-23T08:51:48Z</time>
      </trkpt>
      <trkpt lat="41.865822" lon="0.382748">
        <ele>344.319</ele>
        <time>2020-08-23T08:51:49Z</time>
      </trkpt>
      <trkpt lat="41.865832" lon="0.382675">
        <ele>344.349</ele>
        <time>2020-08-23T08:51:50Z</time>
      </trkpt>
      <trkpt lat="41.865845" lon="0.382601">
        <ele>344.287</ele>
        <time>2020-08-23T08:51:51Z</time>
      </trkpt>
      <trkpt lat="41.865857" lon="0.382526">
        <ele>344.199</ele>
        <time>2020-08-23T08:51:52Z</time>
      </trkpt>
      <trkpt lat="41.865870" lon="0.382454">
        <ele>344.110</ele>
        <time>2020-08-23T08:51:53Z</time>
      </trkpt>
      <trkpt lat="41.865886" lon="0.382385">
        <ele>344.111</ele>
        <time>2020-08-23T08:51:54Z</time>
      </trkpt>
      <trkpt lat="41.865904" lon="0.382311">
        <ele>344.187</ele>
        <time>2020-08-23T08:51:55Z</time>
      </trkpt>
      <trkpt lat="41.865924" lon="0.382238">
        <ele>344.256</ele>
        <time>2020-08-23T08:51:56Z</time>
      </trkpt>
      <trkpt lat="41.865947" lon="0.382166">
        <ele>344.344</ele>
        <time>2020-08-23T08:51:57Z</time>
      </trkpt>
      <trkpt lat="41.865963" lon="0.382092">
        <ele>344.405</ele>
        <time>2020-08-23T08:51:58Z</time>
      </trkpt>
      <trkpt lat="41.865983" lon="0.382020">
        <ele>344.415</ele>
        <time>2020-08-23T08:51:59Z</time>
      </trkpt>
      <trkpt lat="41.866001" lon="0.381951">
        <ele>344.408</ele>
        <time>2020-08-23T08:52:00Z</time>
      </trkpt>
      <trkpt lat="41.866020" lon="0.381884">
        <ele>344.469</ele>
        <time>2020-08-23T08:52:01Z</time>
      </trkpt>
      <trkpt lat="41.866033" lon="0.381816">
        <ele>344.499</ele>
        <time>2020-08-23T08:52:02Z</time>
      </trkpt>
      <trkpt lat="41.866050" lon="0.381747">
        <ele>344.497</ele>
        <time>2020-08-23T08:52:03Z</time>
      </trkpt>
      <trkpt lat="41.866067" lon="0.381677">
        <ele>344.459</ele>
        <time>2020-08-23T08:52:04Z</time>
      </trkpt>
      <trkpt lat="41.866086" lon="0.381609">
        <ele>344.450</ele>
        <time>2020-08-23T08:52:05Z</time>
      </trkpt>
      <trkpt lat="41.866110" lon="0.381546">
        <ele>344.411</ele>
        <time>2020-08-23T08:52:06Z</time>
      </trkpt>
      <trkpt lat="41.866138" lon="0.381485">
        <ele>344.447</ele>
        <time>2020-08-23T08:52:07Z</time>
      </trkpt>
      <trkpt lat="41.866169" lon="0.381425">
        <ele>344.496</ele>
        <time>2020-08-23T08:52:08Z</time>
      </trkpt>
      <trkpt lat="41.866196" lon="0.381360">
        <ele>344.495</ele>
        <time>2020-08-23T08:52:09Z</time>
      </trkpt>
      <trkpt lat="41.866223" lon="0.381299">
        <ele>344.449</ele>
        <time>2020-08-23T08:52:10Z</time>
      </trkpt>
      <trkpt lat="41.866253" lon="0.381241">
        <ele>344.423</ele>
        <time>2020-08-23T08:52:11Z</time>
      </trkpt>
      <trkpt lat="41.866285" lon="0.381184">
        <ele>344.408</ele>
        <time>2020-08-23T08:52:12Z</time>
      </trkpt>
      <trkpt lat="41.866315" lon="0.381130">
        <ele>344.334</ele>
        <time>2020-08-23T08:52:13Z</time>
      </trkpt>
      <trkpt lat="41.866341" lon="0.381071">
        <ele>344.374</ele>
        <time>2020-08-23T08:52:14Z</time>
      </trkpt>
      <trkpt lat="41.866367" lon="0.381016">
        <ele>344.342</ele>
        <time>2020-08-23T08:52:15Z</time>
      </trkpt>
      <trkpt lat="41.866390" lon="0.380958">
        <ele>344.314</ele>
        <time>2020-08-23T08:52:16Z</time>
      </trkpt>
      <trkpt lat="41.866408" lon="0.380897">
        <ele>344.355</ele>
        <time>2020-08-23T08:52:17Z</time>
      </trkpt>
      <trkpt lat="41.866427" lon="0.380836">
        <ele>344.366</ele>
        <time>2020-08-23T08:52:18Z</time>
      </trkpt>
      <trkpt lat="41.866449" lon="0.380775">
        <ele>344.412</ele>
        <time>2020-08-23T08:52:19Z</time>
      </trkpt>
      <trkpt lat="41.866472" lon="0.380714">
        <ele>344.451</ele>
        <time>2020-08-23T08:52:20Z</time>
      </trkpt>
      <trkpt lat="41.866493" lon="0.380650">
        <ele>344.415</ele>
        <time>2020-08-23T08:52:21Z</time>
      </trkpt>
      <trkpt lat="41.866512" lon="0.380585">
        <ele>344.465</ele>
        <time>2020-08-23T08:52:22Z</time>
      </trkpt>
      <trkpt lat="41.866531" lon="0.380527">
        <ele>344.411</ele>
        <time>2020-08-23T08:52:23Z</time>
      </trkpt>
      <trkpt lat="41.866559" lon="0.380476">
        <ele>344.408</ele>
        <time>2020-08-23T08:52:24Z</time>
      </trkpt>
      <trkpt lat="41.866589" lon="0.380429">
        <ele>344.496</ele>
        <time>2020-08-23T08:52:25Z</time>
      </trkpt>
      <trkpt lat="41.866613" lon="0.380375">
        <ele>344.416</ele>
        <time>2020-08-23T08:52:26Z</time>
      </trkpt>
      <trkpt lat="41.866653" lon="0.380286">
        <ele>344.464</ele>
        <time>2020-08-23T08:52:28Z</time>
      </trkpt>
      <trkpt lat="41.866695" lon="0.380197">
        <ele>344.526</ele>
        <time>2020-08-23T08:52:30Z</time>
      </trkpt>
      <trkpt lat="41.866740" lon="0.380099">
        <ele>344.697</ele>
        <time>2020-08-23T08:52:32Z</time>
      </trkpt>
      <trkpt lat="41.866768" lon="0.380051">
        <ele>344.698</ele>
        <time>2020-08-23T08:52:33Z</time>
      </trkpt>
      <trkpt lat="41.866790" lon="0.379995">
        <ele>344.584</ele>
        <time>2020-08-23T08:52:34Z</time>
      </trkpt>
      <trkpt lat="41.866811" lon="0.379934">
        <ele>344.463</ele>
        <time>2020-08-23T08:52:35Z</time>
      </trkpt>
      <trkpt lat="41.866832" lon="0.379873">
        <ele>344.324</ele>
        <time>2020-08-23T08:52:36Z</time>
      </trkpt>
      <trkpt lat="41.866852" lon="0.379813">
        <ele>344.204</ele>
        <time>2020-08-23T08:52:37Z</time>
      </trkpt>
      <trkpt lat="41.866878" lon="0.379757">
        <ele>344.214</ele>
        <time>2020-08-23T08:52:38Z</time>
      </trkpt>
      <trkpt lat="41.866903" lon="0.379697">
        <ele>344.208</ele>
        <time>2020-08-23T08:52:39Z</time>
      </trkpt>
      <trkpt lat="41.866927" lon="0.379637">
        <ele>344.217</ele>
        <time>2020-08-23T08:52:40Z</time>
      </trkpt>
      <trkpt lat="41.866953" lon="0.379579">
        <ele>344.227</ele>
        <time>2020-08-23T08:52:41Z</time>
      </trkpt>
      <trkpt lat="41.866981" lon="0.379521">
        <ele>344.285</ele>
        <time>2020-08-23T08:52:42Z</time>
      </trkpt>
      <trkpt lat="41.867006" lon="0.379460">
        <ele>344.297</ele>
        <time>2020-08-23T08:52:43Z</time>
      </trkpt>
      <trkpt lat="41.867029" lon="0.379397">
        <ele>344.258</ele>
        <time>2020-08-23T08:52:44Z</time>
      </trkpt>
      <trkpt lat="41.867050" lon="0.379333">
        <ele>344.279</ele>
        <time>2020-08-23T08:52:45Z</time>
      </trkpt>
      <trkpt lat="41.867077" lon="0.379273">
        <ele>344.235</ele>
        <time>2020-08-23T08:52:46Z</time>
      </trkpt>
      <trkpt lat="41.867101" lon="0.379210">
        <ele>344.234</ele>
        <time>2020-08-23T08:52:47Z</time>
      </trkpt>
      <trkpt lat="41.867131" lon="0.379151">
        <ele>344.234</ele>
        <time>2020-08-23T08:52:48Z</time>
      </trkpt>
      <trkpt lat="41.867162" lon="0.379093">
        <ele>344.255</ele>
        <time>2020-08-23T08:52:49Z</time>
      </trkpt>
      <trkpt lat="41.867194" lon="0.379035">
        <ele>344.210</ele>
        <time>2020-08-23T08:52:50Z</time>
      </trkpt>
      <trkpt lat="41.867233" lon="0.378982">
        <ele>344.208</ele>
        <time>2020-08-23T08:52:51Z</time>
      </trkpt>
      <trkpt lat="41.867265" lon="0.378925">
        <ele>344.268</ele>
        <time>2020-08-23T08:52:52Z</time>
      </trkpt>
      <trkpt lat="41.867290" lon="0.378865">
        <ele>344.238</ele>
        <time>2020-08-23T08:52:53Z</time>
      </trkpt>
      <trkpt lat="41.867316" lon="0.378807">
        <ele>344.226</ele>
        <time>2020-08-23T08:52:54Z</time>
      </trkpt>
      <trkpt lat="41.867343" lon="0.378749">
        <ele>344.298</ele>
        <time>2020-08-23T08:52:55Z</time>
      </trkpt>
      <trkpt lat="41.867372" lon="0.378692">
        <ele>344.219</ele>
        <time>2020-08-23T08:52:56Z</time>
      </trkpt>
      <trkpt lat="41.867399" lon="0.378631">
        <ele>344.240</ele>
        <time>2020-08-23T08:52:57Z</time>
      </trkpt>
      <trkpt lat="41.867427" lon="0.378568">
        <ele>344.276</ele>
        <time>2020-08-23T08:52:58Z</time>
      </trkpt>
      <trkpt lat="41.867451" lon="0.378504">
        <ele>344.245</ele>
        <time>2020-08-23T08:52:59Z</time>
      </trkpt>
      <trkpt lat="41.867476" lon="0.378441">
        <ele>344.247</ele>
        <time>2020-08-23T08:53:00Z</time>
      </trkpt>
      <trkpt lat="41.867502" lon="0.378377">
        <ele>344.229</ele>
        <time>2020-08-23T08:53:01Z</time>
      </trkpt>
      <trkpt lat="41.867526" lon="0.378311">
        <ele>344.221</ele>
        <time>2020-08-23T08:53:02Z</time>
      </trkpt>
      <trkpt lat="41.867548" lon="0.378245">
        <ele>344.208</ele>
        <time>2020-08-23T08:53:03Z</time>
      </trkpt>
      <trkpt lat="41.867559" lon="0.378173">
        <ele>344.299</ele>
        <time>2020-08-23T08:53:04Z</time>
      </trkpt>
      <trkpt lat="41.867571" lon="0.378104">
        <ele>344.249</ele>
        <time>2020-08-23T08:53:05Z</time>
      </trkpt>
      <trkpt lat="41.867585" lon="0.378040">
        <ele>344.397</ele>
        <time>2020-08-23T08:53:06Z</time>
      </trkpt>
      <trkpt lat="41.867597" lon="0.377975">
        <ele>344.469</ele>
        <time>2020-08-23T08:53:07Z</time>
      </trkpt>
      <trkpt lat="41.867603" lon="0.377909">
        <ele>344.480</ele>
        <time>2020-08-23T08:53:08Z</time>
      </trkpt>
      <trkpt lat="41.867607" lon="0.377839">
        <ele>344.471</ele>
        <time>2020-08-23T08:53:09Z</time>
      </trkpt>
      <trkpt lat="41.867608" lon="0.377765">
        <ele>344.427</ele>
        <time>2020-08-23T08:53:10Z</time>
      </trkpt>
      <trkpt lat="41.867621" lon="0.377694">
        <ele>344.496</ele>
        <time>2020-08-23T08:53:11Z</time>
      </trkpt>
      <trkpt lat="41.867632" lon="0.377626">
        <ele>344.449</ele>
        <time>2020-08-23T08:53:12Z</time>
      </trkpt>
      <trkpt lat="41.867640" lon="0.377556">
        <ele>344.402</ele>
        <time>2020-08-23T08:53:13Z</time>
      </trkpt>
      <trkpt lat="41.867639" lon="0.377482">
        <ele>344.422</ele>
        <time>2020-08-23T08:53:14Z</time>
      </trkpt>
      <trkpt lat="41.867632" lon="0.377405">
        <ele>344.408</ele>
        <time>2020-08-23T08:53:15Z</time>
      </trkpt>
      <trkpt lat="41.867617" lon="0.377335">
        <ele>344.499</ele>
        <time>2020-08-23T08:53:16Z</time>
      </trkpt>
      <trkpt lat="41.867606" lon="0.377265">
        <ele>344.439</ele>
        <time>2020-08-23T08:53:17Z</time>
      </trkpt>
      <trkpt lat="41.867598" lon="0.377194">
        <ele>344.437</ele>
        <time>2020-08-23T08:53:18Z</time>
      </trkpt>
      <trkpt lat="41.867593" lon="0.377121">
        <ele>344.499</ele>
        <time>2020-08-23T08:53:19Z</time>
      </trkpt>
      <trkpt lat="41.867593" lon="0.377052">
        <ele>344.490</ele>
        <time>2020-08-23T08:53:20Z</time>
      </trkpt>
      <trkpt lat="41.867593" lon="0.376985">
        <ele>344.431</ele>
        <time>2020-08-23T08:53:21Z</time>
      </trkpt>
      <trkpt lat="41.867591" lon="0.376915">
        <ele>344.457</ele>
        <time>2020-08-23T08:53:22Z</time>
      </trkpt>
      <trkpt lat="41.867580" lon="0.376840">
        <ele>344.426</ele>
        <time>2020-08-23T08:53:23Z</time>
      </trkpt>
      <trkpt lat="41.867570" lon="0.376764">
        <ele>344.399</ele>
        <time>2020-08-23T08:53:24Z</time>
      </trkpt>
      <trkpt lat="41.867561" lon="0.376687">
        <ele>344.307</ele>
        <time>2020-08-23T08:53:25Z</time>
      </trkpt>
      <trkpt lat="41.867551" lon="0.376609">
        <ele>344.327</ele>
        <time>2020-08-23T08:53:26Z</time>
      </trkpt>
      <trkpt lat="41.867541" lon="0.376537">
        <ele>344.308</ele>
        <time>2020-08-23T08:53:27Z</time>
      </trkpt>
      <trkpt lat="41.867539" lon="0.376465">
        <ele>344.314</ele>
        <time>2020-08-23T08:53:28Z</time>
      </trkpt>
      <trkpt lat="41.867537" lon="0.376391">
        <ele>344.384</ele>
        <time>2020-08-23T08:53:29Z</time>
      </trkpt>
      <trkpt lat="41.867537" lon="0.376319">
        <ele>344.312</ele>
        <time>2020-08-23T08:53:30Z</time>
      </trkpt>
      <trkpt lat="41.867531" lon="0.376244">
        <ele>344.364</ele>
        <time>2020-08-23T08:53:31Z</time>
      </trkpt>
      <trkpt lat="41.867519" lon="0.376169">
        <ele>344.355</ele>
        <time>2020-08-23T08:53:32Z</time>
      </trkpt>
      <trkpt lat="41.867505" lon="0.376096">
        <ele>344.356</ele>
        <time>2020-08-23T08:53:33Z</time>
      </trkpt>
      <trkpt lat="41.867496" lon="0.376023">
        <ele>344.342</ele>
        <time>2020-08-23T08:53:34Z</time>
      </trkpt>
      <trkpt lat="41.867487" lon="0.375949">
        <ele>344.391</ele>
        <time>2020-08-23T08:53:35Z</time>
      </trkpt>
      <trkpt lat="41.867485" lon="0.375871">
        <ele>344.352</ele>
        <time>2020-08-23T08:53:36Z</time>
      </trkpt>
      <trkpt lat="41.867481" lon="0.375792">
        <ele>344.353</ele>
        <time>2020-08-23T08:53:37Z</time>
      </trkpt>
      <trkpt lat="41.867478" lon="0.375717">
        <ele>344.308</ele>
        <time>2020-08-23T08:53:38Z</time>
      </trkpt>
      <trkpt lat="41.867477" lon="0.375643">
        <ele>344.308</ele>
        <time>2020-08-23T08:53:39Z</time>
      </trkpt>
      <trkpt lat="41.867474" lon="0.375572">
        <ele>344.330</ele>
        <time>2020-08-23T08:53:40Z</time>
      </trkpt>
      <trkpt lat="41.867472" lon="0.375498">
        <ele>344.320</ele>
        <time>2020-08-23T08:53:41Z</time>
      </trkpt>
      <trkpt lat="41.867472" lon="0.375421">
        <ele>344.378</ele>
        <time>2020-08-23T08:53:42Z</time>
      </trkpt>
      <trkpt lat="41.867468" lon="0.375347">
        <ele>344.330</ele>
        <time>2020-08-23T08:53:43Z</time>
      </trkpt>
      <trkpt lat="41.867471" lon="0.375275">
        <ele>344.321</ele>
        <time>2020-08-23T08:53:44Z</time>
      </trkpt>
      <trkpt lat="41.867476" lon="0.375201">
        <ele>344.312</ele>
        <time>2020-08-23T08:53:45Z</time>
      </trkpt>
      <trkpt lat="41.867477" lon="0.375129">
        <ele>344.368</ele>
        <time>2020-08-23T08:53:46Z</time>
      </trkpt>
      <trkpt lat="41.867480" lon="0.375058">
        <ele>344.387</ele>
        <time>2020-08-23T08:53:47Z</time>
      </trkpt>
      <trkpt lat="41.867477" lon="0.374982">
        <ele>344.379</ele>
        <time>2020-08-23T08:53:48Z</time>
      </trkpt>
      <trkpt lat="41.867472" lon="0.374907">
        <ele>344.305</ele>
        <time>2020-08-23T08:53:49Z</time>
      </trkpt>
      <trkpt lat="41.867470" lon="0.374830">
        <ele>344.325</ele>
        <time>2020-08-23T08:53:50Z</time>
      </trkpt>
      <trkpt lat="41.867464" lon="0.374754">
        <ele>344.308</ele>
        <time>2020-08-23T08:53:51Z</time>
      </trkpt>
      <trkpt lat="41.867467" lon="0.374679">
        <ele>344.322</ele>
        <time>2020-08-23T08:53:52Z</time>
      </trkpt>
      <trkpt lat="41.867471" lon="0.374606">
        <ele>344.222</ele>
        <time>2020-08-23T08:53:53Z</time>
      </trkpt>
      <trkpt lat="41.867464" lon="0.374534">
        <ele>344.270</ele>
        <time>2020-08-23T08:53:54Z</time>
      </trkpt>
      <trkpt lat="41.867464" lon="0.374467">
        <ele>344.232</ele>
        <time>2020-08-23T08:53:55Z</time>
      </trkpt>
      <trkpt lat="41.867463" lon="0.374395">
        <ele>344.223</ele>
        <time>2020-08-23T08:53:56Z</time>
      </trkpt>
      <trkpt lat="41.867459" lon="0.374322">
        <ele>344.244</ele>
        <time>2020-08-23T08:53:57Z</time>
      </trkpt>
      <trkpt lat="41.867455" lon="0.374246">
        <ele>344.210</ele>
        <time>2020-08-23T08:53:58Z</time>
      </trkpt>
      <trkpt lat="41.867445" lon="0.374172">
        <ele>344.239</ele>
        <time>2020-08-23T08:53:59Z</time>
      </trkpt>
      <trkpt lat="41.867430" lon="0.374100">
        <ele>344.285</ele>
        <time>2020-08-23T08:54:00Z</time>
      </trkpt>
      <trkpt lat="41.867420" lon="0.374033">
        <ele>344.389</ele>
        <time>2020-08-23T08:54:01Z</time>
      </trkpt>
      <trkpt lat="41.867419" lon="0.373967">
        <ele>344.317</ele>
        <time>2020-08-23T08:54:02Z</time>
      </trkpt>
      <trkpt lat="41.867418" lon="0.373901">
        <ele>344.308</ele>
        <time>2020-08-23T08:54:03Z</time>
      </trkpt>
      <trkpt lat="41.867420" lon="0.373832">
        <ele>344.423</ele>
        <time>2020-08-23T08:54:04Z</time>
      </trkpt>
      <trkpt lat="41.867424" lon="0.373762">
        <ele>344.413</ele>
        <time>2020-08-23T08:54:05Z</time>
      </trkpt>
      <trkpt lat="41.867425" lon="0.373689">
        <ele>344.481</ele>
        <time>2020-08-23T08:54:06Z</time>
      </trkpt>
      <trkpt lat="41.867425" lon="0.373617">
        <ele>344.413</ele>
        <time>2020-08-23T08:54:07Z</time>
      </trkpt>
      <trkpt lat="41.867426" lon="0.373544">
        <ele>344.424</ele>
        <time>2020-08-23T08:54:08Z</time>
      </trkpt>
      <trkpt lat="41.867429" lon="0.373471">
        <ele>344.315</ele>
        <time>2020-08-23T08:54:09Z</time>
      </trkpt>
      <trkpt lat="41.867428" lon="0.373402">
        <ele>344.371</ele>
        <time>2020-08-23T08:54:10Z</time>
      </trkpt>
      <trkpt lat="41.867429" lon="0.373332">
        <ele>344.290</ele>
        <time>2020-08-23T08:54:11Z</time>
      </trkpt>
      <trkpt lat="41.867432" lon="0.373259">
        <ele>344.216</ele>
        <time>2020-08-23T08:54:12Z</time>
      </trkpt>
      <trkpt lat="41.867432" lon="0.373184">
        <ele>344.276</ele>
        <time>2020-08-23T08:54:13Z</time>
      </trkpt>
      <trkpt lat="41.867432" lon="0.373113">
        <ele>344.213</ele>
        <time>2020-08-23T08:54:14Z</time>
      </trkpt>
      <trkpt lat="41.867429" lon="0.373044">
        <ele>344.208</ele>
        <time>2020-08-23T08:54:15Z</time>
      </trkpt>
      <trkpt lat="41.867421" lon="0.372975">
        <ele>344.276</ele>
        <time>2020-08-23T08:54:16Z</time>
      </trkpt>
      <trkpt lat="41.867416" lon="0.372908">
        <ele>344.266</ele>
        <time>2020-08-23T08:54:17Z</time>
      </trkpt>
      <trkpt lat="41.867409" lon="0.372840">
        <ele>344.264</ele>
        <time>2020-08-23T08:54:18Z</time>
      </trkpt>
      <trkpt lat="41.867404" lon="0.372765">
        <ele>344.286</ele>
        <time>2020-08-23T08:54:19Z</time>
      </trkpt>
      <trkpt lat="41.867400" lon="0.372691">
        <ele>344.227</ele>
        <time>2020-08-23T08:54:20Z</time>
      </trkpt>
      <trkpt lat="41.867394" lon="0.372619">
        <ele>344.288</ele>
        <time>2020-08-23T08:54:21Z</time>
      </trkpt>
      <trkpt lat="41.867385" lon="0.372548">
        <ele>344.264</ele>
        <time>2020-08-23T08:54:22Z</time>
      </trkpt>
      <trkpt lat="41.867381" lon="0.372477">
        <ele>344.263</ele>
        <time>2020-08-23T08:54:23Z</time>
      </trkpt>
      <trkpt lat="41.867378" lon="0.372409">
        <ele>344.275</ele>
        <time>2020-08-23T08:54:24Z</time>
      </trkpt>
      <trkpt lat="41.867377" lon="0.372344">
        <ele>344.228</ele>
        <time>2020-08-23T08:54:25Z</time>
      </trkpt>
      <trkpt lat="41.867375" lon="0.372276">
        <ele>344.220</ele>
        <time>2020-08-23T08:54:26Z</time>
      </trkpt>
      <trkpt lat="41.867372" lon="0.372206">
        <ele>344.208</ele>
        <time>2020-08-23T08:54:27Z</time>
      </trkpt>
      <trkpt lat="41.867375" lon="0.372136">
        <ele>344.282</ele>
        <time>2020-08-23T08:54:28Z</time>
      </trkpt>
      <trkpt lat="41.867375" lon="0.372068">
        <ele>344.232</ele>
        <time>2020-08-23T08:54:29Z</time>
      </trkpt>
      <trkpt lat="41.867371" lon="0.372004">
        <ele>344.290</ele>
        <time>2020-08-23T08:54:30Z</time>
      </trkpt>
      <trkpt lat="41.867367" lon="0.371938">
        <ele>344.262</ele>
        <time>2020-08-23T08:54:31Z</time>
      </trkpt>
      <trkpt lat="41.867363" lon="0.371869">
        <ele>344.283</ele>
        <time>2020-08-23T08:54:32Z</time>
      </trkpt>
      <trkpt lat="41.867360" lon="0.371801">
        <ele>344.274</ele>
        <time>2020-08-23T08:54:33Z</time>
      </trkpt>
      <trkpt lat="41.867359" lon="0.371731">
        <ele>344.260</ele>
        <time>2020-08-23T08:54:34Z</time>
      </trkpt>
      <trkpt lat="41.867353" lon="0.371664">
        <ele>344.229</ele>
        <time>2020-08-23T08:54:35Z</time>
      </trkpt>
      <trkpt lat="41.867344" lon="0.371596">
        <ele>344.288</ele>
        <time>2020-08-23T08:54:36Z</time>
      </trkpt>
      <trkpt lat="41.867338" lon="0.371528">
        <ele>344.224</ele>
        <time>2020-08-23T08:54:37Z</time>
      </trkpt>
      <trkpt lat="41.867333" lon="0.371458">
        <ele>344.226</ele>
        <time>2020-08-23T08:54:38Z</time>
      </trkpt>
      <trkpt lat="41.867325" lon="0.371388">
        <ele>344.208</ele>
        <time>2020-08-23T08:54:39Z</time>
      </trkpt>
      <trkpt lat="41.867318" lon="0.371317">
        <ele>344.123</ele>
        <time>2020-08-23T08:54:40Z</time>
      </trkpt>
      <trkpt lat="41.867307" lon="0.371244">
        <ele>344.083</ele>
        <time>2020-08-23T08:54:41Z</time>
      </trkpt>
      <trkpt lat="41.867300" lon="0.371171">
        <ele>344.031</ele>
        <time>2020-08-23T08:54:42Z</time>
      </trkpt>
      <trkpt lat="41.867297" lon="0.371098">
        <ele>344.013</ele>
        <time>2020-08-23T08:54:43Z</time>
      </trkpt>
      <trkpt lat="41.867286" lon="0.371027">
        <ele>343.944</ele>
        <time>2020-08-23T08:54:44Z</time>
      </trkpt>
      <trkpt lat="41.867284" lon="0.370953">
        <ele>343.935</ele>
        <time>2020-08-23T08:54:45Z</time>
      </trkpt>
      <trkpt lat="41.867282" lon="0.370880">
        <ele>343.971</ele>
        <time>2020-08-23T08:54:46Z</time>
      </trkpt>
      <trkpt lat="41.867278" lon="0.370807">
        <ele>343.980</ele>
        <time>2020-08-23T08:54:47Z</time>
      </trkpt>
      <trkpt lat="41.867271" lon="0.370737">
        <ele>343.954</ele>
        <time>2020-08-23T08:54:48Z</time>
      </trkpt>
      <trkpt lat="41.867269" lon="0.370666">
        <ele>343.956</ele>
        <time>2020-08-23T08:54:49Z</time>
      </trkpt>
      <trkpt lat="41.867266" lon="0.370595">
        <ele>343.911</ele>
        <time>2020-08-23T08:54:50Z</time>
      </trkpt>
      <trkpt lat="41.867264" lon="0.370521">
        <ele>343.908</ele>
        <time>2020-08-23T08:54:51Z</time>
      </trkpt>
      <trkpt lat="41.867257" lon="0.370451">
        <ele>343.970</ele>
        <time>2020-08-23T08:54:52Z</time>
      </trkpt>
      <trkpt lat="41.867252" lon="0.370380">
        <ele>343.910</ele>
        <time>2020-08-23T08:54:53Z</time>
      </trkpt>
      <trkpt lat="41.867250" lon="0.370306">
        <ele>343.948</ele>
        <time>2020-08-23T08:54:54Z</time>
      </trkpt>
      <trkpt lat="41.867249" lon="0.370233">
        <ele>343.980</ele>
        <time>2020-08-23T08:54:55Z</time>
      </trkpt>
      <trkpt lat="41.867246" lon="0.370160">
        <ele>343.951</ele>
        <time>2020-08-23T08:54:56Z</time>
      </trkpt>
      <trkpt lat="41.867242" lon="0.370087">
        <ele>343.952</ele>
        <time>2020-08-23T08:54:57Z</time>
      </trkpt>
      <trkpt lat="41.867236" lon="0.370016">
        <ele>343.958</ele>
        <time>2020-08-23T08:54:58Z</time>
      </trkpt>
      <trkpt lat="41.867232" lon="0.369946">
        <ele>343.877</ele>
        <time>2020-08-23T08:54:59Z</time>
      </trkpt>
      <trkpt lat="41.867233" lon="0.369879">
        <ele>343.881</ele>
        <time>2020-08-23T08:55:00Z</time>
      </trkpt>
      <trkpt lat="41.867232" lon="0.369809">
        <ele>343.861</ele>
        <time>2020-08-23T08:55:01Z</time>
      </trkpt>
      <trkpt lat="41.867233" lon="0.369737">
        <ele>343.717</ele>
        <time>2020-08-23T08:55:02Z</time>
      </trkpt>
      <trkpt lat="41.867233" lon="0.369666">
        <ele>343.708</ele>
        <time>2020-08-23T08:55:03Z</time>
      </trkpt>
      <trkpt lat="41.867231" lon="0.369597">
        <ele>343.783</ele>
        <time>2020-08-23T08:55:04Z</time>
      </trkpt>
      <trkpt lat="41.867227" lon="0.369529">
        <ele>343.793</ele>
        <time>2020-08-23T08:55:05Z</time>
      </trkpt>
      <trkpt lat="41.867228" lon="0.369460">
        <ele>343.711</ele>
        <time>2020-08-23T08:55:06Z</time>
      </trkpt>
      <trkpt lat="41.867234" lon="0.369389">
        <ele>343.723</ele>
        <time>2020-08-23T08:55:07Z</time>
      </trkpt>
      <trkpt lat="41.867239" lon="0.369317">
        <ele>343.794</ele>
        <time>2020-08-23T08:55:08Z</time>
      </trkpt>
      <trkpt lat="41.867248" lon="0.369248">
        <ele>343.765</ele>
        <time>2020-08-23T08:55:09Z</time>
      </trkpt>
      <trkpt lat="41.867258" lon="0.369181">
        <ele>343.721</ele>
        <time>2020-08-23T08:55:10Z</time>
      </trkpt>
      <trkpt lat="41.867272" lon="0.369111">
        <ele>343.720</ele>
        <time>2020-08-23T08:55:11Z</time>
      </trkpt>
      <trkpt lat="41.867284" lon="0.369038">
        <ele>343.792</ele>
        <time>2020-08-23T08:55:12Z</time>
      </trkpt>
      <trkpt lat="41.867296" lon="0.368967">
        <ele>343.773</ele>
        <time>2020-08-23T08:55:13Z</time>
      </trkpt>
      <trkpt lat="41.867312" lon="0.368895">
        <ele>343.720</ele>
        <time>2020-08-23T08:55:14Z</time>
      </trkpt>
      <trkpt lat="41.867329" lon="0.368828">
        <ele>343.808</ele>
        <time>2020-08-23T08:55:15Z</time>
      </trkpt>
      <trkpt lat="41.867350" lon="0.368765">
        <ele>343.914</ele>
        <time>2020-08-23T08:55:16Z</time>
      </trkpt>
      <trkpt lat="41.867374" lon="0.368704">
        <ele>344.034</ele>
        <time>2020-08-23T08:55:17Z</time>
      </trkpt>
      <trkpt lat="41.867402" lon="0.368646">
        <ele>344.022</ele>
        <time>2020-08-23T08:55:18Z</time>
      </trkpt>
      <trkpt lat="41.867433" lon="0.368586">
        <ele>343.914</ele>
        <time>2020-08-23T08:55:19Z</time>
      </trkpt>
      <trkpt lat="41.867468" lon="0.368530">
        <ele>343.865</ele>
        <time>2020-08-23T08:55:20Z</time>
      </trkpt>
      <trkpt lat="41.867499" lon="0.368469">
        <ele>343.826</ele>
        <time>2020-08-23T08:55:21Z</time>
      </trkpt>
      <trkpt lat="41.867530" lon="0.368411">
        <ele>343.752</ele>
        <time>2020-08-23T08:55:22Z</time>
      </trkpt>
      <trkpt lat="41.867562" lon="0.368354">
        <ele>343.721</ele>
        <time>2020-08-23T08:55:23Z</time>
      </trkpt>
      <trkpt lat="41.867605" lon="0.368311">
        <ele>343.687</ele>
        <time>2020-08-23T08:55:24Z</time>
      </trkpt>
      <trkpt lat="41.867648" lon="0.368266">
        <ele>343.642</ele>
        <time>2020-08-23T08:55:25Z</time>
      </trkpt>
      <trkpt lat="41.867695" lon="0.368225">
        <ele>343.626</ele>
        <time>2020-08-23T08:55:26Z</time>
      </trkpt>
      <trkpt lat="41.867746" lon="0.368194">
        <ele>343.608</ele>
        <time>2020-08-23T08:55:27Z</time>
      </trkpt>
      <trkpt lat="41.867798" lon="0.368166">
        <ele>343.673</ele>
        <time>2020-08-23T08:55:28Z</time>
      </trkpt>
      <trkpt lat="41.867847" lon="0.368140">
        <ele>343.693</ele>
        <time>2020-08-23T08:55:29Z</time>
      </trkpt>
      <trkpt lat="41.867898" lon="0.368118">
        <ele>343.721</ele>
        <time>2020-08-23T08:55:30Z</time>
      </trkpt>
      <trkpt lat="41.867947" lon="0.368088">
        <ele>343.733</ele>
        <time>2020-08-23T08:55:31Z</time>
      </trkpt>
      <trkpt lat="41.867998" lon="0.368066">
        <ele>343.774</ele>
        <time>2020-08-23T08:55:32Z</time>
      </trkpt>
      <trkpt lat="41.868045" lon="0.368043">
        <ele>343.795</ele>
        <time>2020-08-23T08:55:33Z</time>
      </trkpt>
      <trkpt lat="41.868089" lon="0.368018">
        <ele>343.711</ele>
        <time>2020-08-23T08:55:34Z</time>
      </trkpt>
      <trkpt lat="41.868133" lon="0.367988">
        <ele>343.770</ele>
        <time>2020-08-23T08:55:35Z</time>
      </trkpt>
      <trkpt lat="41.868178" lon="0.367959">
        <ele>343.715</ele>
        <time>2020-08-23T08:55:36Z</time>
      </trkpt>
      <trkpt lat="41.868226" lon="0.367930">
        <ele>343.765</ele>
        <time>2020-08-23T08:55:37Z</time>
      </trkpt>
      <trkpt lat="41.868275" lon="0.367910">
        <ele>343.711</ele>
        <time>2020-08-23T08:55:38Z</time>
      </trkpt>
      <trkpt lat="41.868323" lon="0.367889">
        <ele>343.708</ele>
        <time>2020-08-23T08:55:39Z</time>
      </trkpt>
      <trkpt lat="41.868373" lon="0.367865">
        <ele>343.766</ele>
        <time>2020-08-23T08:55:40Z</time>
      </trkpt>
      <trkpt lat="41.868424" lon="0.367845">
        <ele>343.756</ele>
        <time>2020-08-23T08:55:41Z</time>
      </trkpt>
      <trkpt lat="41.868473" lon="0.367828">
        <ele>343.754</ele>
        <time>2020-08-23T08:55:42Z</time>
      </trkpt>
      <trkpt lat="41.868524" lon="0.367814">
        <ele>343.756</ele>
        <time>2020-08-23T08:55:43Z</time>
      </trkpt>
      <trkpt lat="41.868575" lon="0.367789">
        <ele>343.727</ele>
        <time>2020-08-23T08:55:44Z</time>
      </trkpt>
      <trkpt lat="41.868626" lon="0.367765">
        <ele>343.768</ele>
        <time>2020-08-23T08:55:45Z</time>
      </trkpt>
      <trkpt lat="41.868669" lon="0.367732">
        <ele>343.784</ele>
        <time>2020-08-23T08:55:46Z</time>
      </trkpt>
      <trkpt lat="41.868707" lon="0.367696">
        <ele>343.793</ele>
        <time>2020-08-23T08:55:47Z</time>
      </trkpt>
      <trkpt lat="41.868788" lon="0.367659">
        <ele>343.819</ele>
        <time>2020-08-23T08:55:49Z</time>
      </trkpt>
      <trkpt lat="41.868875" lon="0.367636">
        <ele>343.809</ele>
        <time>2020-08-23T08:55:51Z</time>
      </trkpt>
      <trkpt lat="41.868922" lon="0.367625">
        <ele>343.719</ele>
        <time>2020-08-23T08:55:52Z</time>
      </trkpt>
      <trkpt lat="41.868969" lon="0.367613">
        <ele>343.608</ele>
        <time>2020-08-23T08:55:53Z</time>
      </trkpt>
      <trkpt lat="41.869054" lon="0.367568">
        <ele>343.526</ele>
        <time>2020-08-23T08:55:55Z</time>
      </trkpt>
      <trkpt lat="41.869096" lon="0.367538">
        <ele>343.556</ele>
        <time>2020-08-23T08:55:56Z</time>
      </trkpt>
      <trkpt lat="41.869137" lon="0.367508">
        <ele>343.554</ele>
        <time>2020-08-23T08:55:57Z</time>
      </trkpt>
      <trkpt lat="41.869176" lon="0.367473">
        <ele>343.576</ele>
        <time>2020-08-23T08:55:58Z</time>
      </trkpt>
      <trkpt lat="41.869222" lon="0.367441">
        <ele>343.547</ele>
        <time>2020-08-23T08:55:59Z</time>
      </trkpt>
      <trkpt lat="41.869270" lon="0.367416">
        <ele>343.528</ele>
        <time>2020-08-23T08:56:00Z</time>
      </trkpt>
      <trkpt lat="41.869319" lon="0.367391">
        <ele>343.634</ele>
        <time>2020-08-23T08:56:01Z</time>
      </trkpt>
      <trkpt lat="41.869363" lon="0.367360">
        <ele>343.673</ele>
        <time>2020-08-23T08:56:02Z</time>
      </trkpt>
      <trkpt lat="41.869410" lon="0.367337">
        <ele>343.612</ele>
        <time>2020-08-23T08:56:03Z</time>
      </trkpt>
      <trkpt lat="41.869456" lon="0.367314">
        <ele>343.632</ele>
        <time>2020-08-23T08:56:04Z</time>
      </trkpt>
      <trkpt lat="41.869503" lon="0.367288">
        <ele>343.605</ele>
        <time>2020-08-23T08:56:05Z</time>
      </trkpt>
      <trkpt lat="41.869552" lon="0.367266">
        <ele>343.608</ele>
        <time>2020-08-23T08:56:06Z</time>
      </trkpt>
      <trkpt lat="41.869603" lon="0.367243">
        <ele>343.756</ele>
        <time>2020-08-23T08:56:07Z</time>
      </trkpt>
      <trkpt lat="41.869651" lon="0.367229">
        <ele>343.746</ele>
        <time>2020-08-23T08:56:08Z</time>
      </trkpt>
      <trkpt lat="41.869700" lon="0.367218">
        <ele>343.714</ele>
        <time>2020-08-23T08:56:09Z</time>
      </trkpt>
      <trkpt lat="41.869749" lon="0.367200">
        <ele>343.796</ele>
        <time>2020-08-23T08:56:10Z</time>
      </trkpt>
      <trkpt lat="41.869795" lon="0.367183">
        <ele>343.767</ele>
        <time>2020-08-23T08:56:11Z</time>
      </trkpt>
      <trkpt lat="41.869841" lon="0.367157">
        <ele>343.788</ele>
        <time>2020-08-23T08:56:12Z</time>
      </trkpt>
      <trkpt lat="41.869888" lon="0.367141">
        <ele>343.774</ele>
        <time>2020-08-23T08:56:13Z</time>
      </trkpt>
      <trkpt lat="41.869935" lon="0.367126">
        <ele>343.793</ele>
        <time>2020-08-23T08:56:14Z</time>
      </trkpt>
      <trkpt lat="41.870006" lon="0.367106">
        <ele>343.675</ele>
        <time>2020-08-23T08:56:16Z</time>
      </trkpt>
      <trkpt lat="41.869943" lon="0.367145">
        <ele>343.628</ele>
        <time>2020-08-23T08:56:39Z</time>
      </trkpt>
      <trkpt lat="41.869880" lon="0.367198">
        <ele>343.820</ele>
        <time>2020-08-23T08:56:41Z</time>
      </trkpt>
      <trkpt lat="41.869805" lon="0.367252">
        <ele>343.908</ele>
        <time>2020-08-23T08:56:43Z</time>
      </trkpt>
      <trkpt lat="41.869727" lon="0.367310">
        <ele>344.092</ele>
        <time>2020-08-23T08:56:45Z</time>
      </trkpt>
      <trkpt lat="41.869685" lon="0.367348">
        <ele>344.062</ele>
        <time>2020-08-23T08:56:46Z</time>
      </trkpt>
      <trkpt lat="41.869643" lon="0.367374">
        <ele>344.010</ele>
        <time>2020-08-23T08:56:47Z</time>
      </trkpt>
      <trkpt lat="41.869562" lon="0.367420">
        <ele>344.172</ele>
        <time>2020-08-23T08:56:49Z</time>
      </trkpt>
      <trkpt lat="41.869516" lon="0.367448">
        <ele>344.183</ele>
        <time>2020-08-23T08:56:50Z</time>
      </trkpt>
      <trkpt lat="41.869466" lon="0.367467">
        <ele>344.244</ele>
        <time>2020-08-23T08:56:51Z</time>
      </trkpt>
      <trkpt lat="41.869419" lon="0.367484">
        <ele>344.330</ele>
        <time>2020-08-23T08:56:52Z</time>
      </trkpt>
      <trkpt lat="41.869373" lon="0.367504">
        <ele>344.389</ele>
        <time>2020-08-23T08:56:53Z</time>
      </trkpt>
      <trkpt lat="41.869324" lon="0.367521">
        <ele>344.368</ele>
        <time>2020-08-23T08:56:54Z</time>
      </trkpt>
      <trkpt lat="41.869278" lon="0.367535">
        <ele>344.342</ele>
        <time>2020-08-23T08:56:55Z</time>
      </trkpt>
      <trkpt lat="41.869193" lon="0.367569">
        <ele>344.426</ele>
        <time>2020-08-23T08:56:57Z</time>
      </trkpt>
      <trkpt lat="41.869122" lon="0.367603">
        <ele>344.408</ele>
        <time>2020-08-23T08:56:59Z</time>
      </trkpt>
      <trkpt lat="41.869044" lon="0.367635">
        <ele>344.361</ele>
        <time>2020-08-23T08:57:01Z</time>
      </trkpt>
      <trkpt lat="41.868965" lon="0.367686">
        <ele>344.241</ele>
        <time>2020-08-23T08:57:03Z</time>
      </trkpt>
      <trkpt lat="41.868906" lon="0.367720">
        <ele>344.239</ele>
        <time>2020-08-23T08:57:05Z</time>
      </trkpt>
      <trkpt lat="41.868868" lon="0.367661">
        <ele>344.121</ele>
        <time>2020-08-23T08:57:09Z</time>
      </trkpt>
      <trkpt lat="41.868915" lon="0.367590">
        <ele>343.892</ele>
        <time>2020-08-23T08:57:11Z</time>
      </trkpt>
      <trkpt lat="41.868996" lon="0.367542">
        <ele>343.353</ele>
        <time>2020-08-23T08:57:13Z</time>
      </trkpt>
      <trkpt lat="41.869047" lon="0.367511">
        <ele>343.079</ele>
        <time>2020-08-23T08:57:14Z</time>
      </trkpt>
      <trkpt lat="41.869097" lon="0.367478">
        <ele>342.768</ele>
        <time>2020-08-23T08:57:15Z</time>
      </trkpt>
      <trkpt lat="41.869144" lon="0.367448">
        <ele>342.442</ele>
        <time>2020-08-23T08:57:16Z</time>
      </trkpt>
      <trkpt lat="41.869194" lon="0.367420">
        <ele>342.222</ele>
        <time>2020-08-23T08:57:17Z</time>
      </trkpt>
      <trkpt lat="41.869246" lon="0.367392">
        <ele>341.914</ele>
        <time>2020-08-23T08:57:18Z</time>
      </trkpt>
      <trkpt lat="41.869299" lon="0.367362">
        <ele>341.708</ele>
        <time>2020-08-23T08:57:19Z</time>
      </trkpt>
      <trkpt lat="41.869358" lon="0.367333">
        <ele>341.369</ele>
        <time>2020-08-23T08:57:20Z</time>
      </trkpt>
      <trkpt lat="41.869419" lon="0.367306">
        <ele>341.119</ele>
        <time>2020-08-23T08:57:21Z</time>
      </trkpt>
      <trkpt lat="41.869476" lon="0.367279">
        <ele>340.967</ele>
        <time>2020-08-23T08:57:22Z</time>
      </trkpt>
      <trkpt lat="41.869542" lon="0.367267">
        <ele>340.789</ele>
        <time>2020-08-23T08:57:23Z</time>
      </trkpt>
      <trkpt lat="41.869599" lon="0.367236">
        <ele>340.580</ele>
        <time>2020-08-23T08:57:24Z</time>
      </trkpt>
      <trkpt lat="41.869649" lon="0.367193">
        <ele>340.391</ele>
        <time>2020-08-23T08:57:25Z</time>
      </trkpt>
      <trkpt lat="41.869676" lon="0.367123">
        <ele>340.097</ele>
        <time>2020-08-23T08:57:26Z</time>
      </trkpt>
      <trkpt lat="41.869699" lon="0.367052">
        <ele>339.796</ele>
        <time>2020-08-23T08:57:27Z</time>
      </trkpt>
      <trkpt lat="41.869716" lon="0.366979">
        <ele>339.483</ele>
        <time>2020-08-23T08:57:28Z</time>
      </trkpt>
      <trkpt lat="41.869731" lon="0.366899">
        <ele>339.225</ele>
        <time>2020-08-23T08:57:29Z</time>
      </trkpt>
      <trkpt lat="41.869739" lon="0.366819">
        <ele>338.917</ele>
        <time>2020-08-23T08:57:30Z</time>
      </trkpt>
      <trkpt lat="41.869735" lon="0.366734">
        <ele>338.708</ele>
        <time>2020-08-23T08:57:31Z</time>
      </trkpt>
      <trkpt lat="41.869738" lon="0.366647">
        <ele>338.543</ele>
        <time>2020-08-23T08:57:32Z</time>
      </trkpt>
      <trkpt lat="41.869745" lon="0.366558">
        <ele>338.263</ele>
        <time>2020-08-23T08:57:33Z</time>
      </trkpt>
      <trkpt lat="41.869750" lon="0.366465">
        <ele>337.961</ele>
        <time>2020-08-23T08:57:34Z</time>
      </trkpt>
      <trkpt lat="41.869758" lon="0.366367">
        <ele>337.673</ele>
        <time>2020-08-23T08:57:35Z</time>
      </trkpt>
      <trkpt lat="41.869766" lon="0.366270">
        <ele>337.354</ele>
        <time>2020-08-23T08:57:36Z</time>
      </trkpt>
      <trkpt lat="41.869778" lon="0.366176">
        <ele>337.015</ele>
        <time>2020-08-23T08:57:37Z</time>
      </trkpt>
      <trkpt lat="41.869789" lon="0.366079">
        <ele>336.761</ele>
        <time>2020-08-23T08:57:38Z</time>
      </trkpt>
      <trkpt lat="41.869800" lon="0.365972">
        <ele>336.490</ele>
        <time>2020-08-23T08:57:39Z</time>
      </trkpt>
      <trkpt lat="41.869815" lon="0.365865">
        <ele>336.146</ele>
        <time>2020-08-23T08:57:40Z</time>
      </trkpt>
      <trkpt lat="41.869832" lon="0.365763">
        <ele>335.888</ele>
        <time>2020-08-23T08:57:41Z</time>
      </trkpt>
      <trkpt lat="41.869848" lon="0.365665">
        <ele>335.516</ele>
        <time>2020-08-23T08:57:42Z</time>
      </trkpt>
      <trkpt lat="41.869861" lon="0.365559">
        <ele>335.308</ele>
        <time>2020-08-23T08:57:43Z</time>
      </trkpt>
      <trkpt lat="41.869871" lon="0.365457">
        <ele>335.159</ele>
        <time>2020-08-23T08:57:44Z</time>
      </trkpt>
      <trkpt lat="41.869886" lon="0.365360">
        <ele>334.999</ele>
        <time>2020-08-23T08:57:45Z</time>
      </trkpt>
      <trkpt lat="41.869897" lon="0.365268">
        <ele>334.787</ele>
        <time>2020-08-23T08:57:46Z</time>
      </trkpt>
      <trkpt lat="41.869911" lon="0.365180">
        <ele>334.539</ele>
        <time>2020-08-23T08:57:47Z</time>
      </trkpt>
      <trkpt lat="41.869914" lon="0.365092">
        <ele>334.460</ele>
        <time>2020-08-23T08:57:48Z</time>
      </trkpt>
      <trkpt lat="41.869908" lon="0.365006">
        <ele>334.251</ele>
        <time>2020-08-23T08:57:49Z</time>
      </trkpt>
      <trkpt lat="41.869915" lon="0.364928">
        <ele>334.197</ele>
        <time>2020-08-23T08:57:50Z</time>
      </trkpt>
      <trkpt lat="41.869934" lon="0.364854">
        <ele>334.046</ele>
        <time>2020-08-23T08:57:51Z</time>
      </trkpt>
      <trkpt lat="41.869951" lon="0.364771">
        <ele>333.873</ele>
        <time>2020-08-23T08:57:52Z</time>
      </trkpt>
      <trkpt lat="41.869962" lon="0.364682">
        <ele>333.685</ele>
        <time>2020-08-23T08:57:53Z</time>
      </trkpt>
      <trkpt lat="41.869968" lon="0.364587">
        <ele>333.413</ele>
        <time>2020-08-23T08:57:54Z</time>
      </trkpt>
      <trkpt lat="41.869974" lon="0.364486">
        <ele>333.008</ele>
        <time>2020-08-23T08:57:55Z</time>
      </trkpt>
      <trkpt lat="41.869980" lon="0.364383">
        <ele>332.512</ele>
        <time>2020-08-23T08:57:56Z</time>
      </trkpt>
      <trkpt lat="41.869985" lon="0.364280">
        <ele>332.172</ele>
        <time>2020-08-23T08:57:57Z</time>
      </trkpt>
      <trkpt lat="41.869981" lon="0.364175">
        <ele>331.780</ele>
        <time>2020-08-23T08:57:58Z</time>
      </trkpt>
      <trkpt lat="41.869971" lon="0.364069">
        <ele>331.242</ele>
        <time>2020-08-23T08:57:59Z</time>
      </trkpt>
      <trkpt lat="41.869969" lon="0.363963">
        <ele>330.773</ele>
        <time>2020-08-23T08:58:00Z</time>
      </trkpt>
      <trkpt lat="41.869962" lon="0.363851">
        <ele>330.334</ele>
        <time>2020-08-23T08:58:01Z</time>
      </trkpt>
      <trkpt lat="41.869949" lon="0.363738">
        <ele>329.530</ele>
        <time>2020-08-23T08:58:02Z</time>
      </trkpt>
      <trkpt lat="41.869939" lon="0.363629">
        <ele>329.289</ele>
        <time>2020-08-23T08:58:03Z</time>
      </trkpt>
      <trkpt lat="41.869930" lon="0.363523">
        <ele>328.941</ele>
        <time>2020-08-23T08:58:04Z</time>
      </trkpt>
      <trkpt lat="41.869926" lon="0.363419">
        <ele>328.681</ele>
        <time>2020-08-23T08:58:05Z</time>
      </trkpt>
      <trkpt lat="41.869916" lon="0.363316">
        <ele>328.409</ele>
        <time>2020-08-23T08:58:06Z</time>
      </trkpt>
      <trkpt lat="41.869905" lon="0.363219">
        <ele>328.208</ele>
        <time>2020-08-23T08:58:07Z</time>
      </trkpt>
      <trkpt lat="41.869895" lon="0.363129">
        <ele>328.049</ele>
        <time>2020-08-23T08:58:08Z</time>
      </trkpt>
      <trkpt lat="41.869879" lon="0.363040">
        <ele>327.979</ele>
        <time>2020-08-23T08:58:09Z</time>
      </trkpt>
      <trkpt lat="41.869863" lon="0.362949">
        <ele>327.897</ele>
        <time>2020-08-23T08:58:10Z</time>
      </trkpt>
      <trkpt lat="41.869847" lon="0.362858">
        <ele>327.689</ele>
        <time>2020-08-23T08:58:11Z</time>
      </trkpt>
      <trkpt lat="41.869832" lon="0.362766">
        <ele>327.530</ele>
        <time>2020-08-23T08:58:12Z</time>
      </trkpt>
      <trkpt lat="41.869820" lon="0.362673">
        <ele>327.421</ele>
        <time>2020-08-23T08:58:13Z</time>
      </trkpt>
      <trkpt lat="41.869815" lon="0.362578">
        <ele>327.347</ele>
        <time>2020-08-23T08:58:14Z</time>
      </trkpt>
      <trkpt lat="41.869811" lon="0.362485">
        <ele>327.166</ele>
        <time>2020-08-23T08:58:15Z</time>
      </trkpt>
      <trkpt lat="41.869809" lon="0.362392">
        <ele>327.049</ele>
        <time>2020-08-23T08:58:16Z</time>
      </trkpt>
      <trkpt lat="41.869802" lon="0.362301">
        <ele>326.902</ele>
        <time>2020-08-23T08:58:17Z</time>
      </trkpt>
      <trkpt lat="41.869797" lon="0.362213">
        <ele>326.922</ele>
        <time>2020-08-23T08:58:18Z</time>
      </trkpt>
      <trkpt lat="41.869788" lon="0.362126">
        <ele>326.908</ele>
        <time>2020-08-23T08:58:19Z</time>
      </trkpt>
      <trkpt lat="41.869777" lon="0.362042">
        <ele>326.969</ele>
        <time>2020-08-23T08:58:20Z</time>
      </trkpt>
      <trkpt lat="41.869769" lon="0.361960">
        <ele>326.979</ele>
        <time>2020-08-23T08:58:21Z</time>
      </trkpt>
      <trkpt lat="41.869768" lon="0.361880">
        <ele>326.897</ele>
        <time>2020-08-23T08:58:22Z</time>
      </trkpt>
      <trkpt lat="41.869762" lon="0.361798">
        <ele>326.779</ele>
        <time>2020-08-23T08:58:23Z</time>
      </trkpt>
      <trkpt lat="41.869740" lon="0.361722">
        <ele>326.760</ele>
        <time>2020-08-23T08:58:24Z</time>
      </trkpt>
      <trkpt lat="41.869711" lon="0.361652">
        <ele>326.641</ele>
        <time>2020-08-23T08:58:25Z</time>
      </trkpt>
      <trkpt lat="41.869687" lon="0.361577">
        <ele>326.617</ele>
        <time>2020-08-23T08:58:26Z</time>
      </trkpt>
      <trkpt lat="41.869665" lon="0.361502">
        <ele>326.516</ele>
        <time>2020-08-23T08:58:27Z</time>
      </trkpt>
      <trkpt lat="41.869650" lon="0.361426">
        <ele>326.576</ele>
        <time>2020-08-23T08:58:28Z</time>
      </trkpt>
      <trkpt lat="41.869637" lon="0.361353">
        <ele>326.490</ele>
        <time>2020-08-23T08:58:29Z</time>
      </trkpt>
      <trkpt lat="41.869625" lon="0.361278">
        <ele>326.419</ele>
        <time>2020-08-23T08:58:30Z</time>
      </trkpt>
      <trkpt lat="41.869614" lon="0.361198">
        <ele>326.408</ele>
        <time>2020-08-23T08:58:31Z</time>
      </trkpt>
      <trkpt lat="41.869603" lon="0.361120">
        <ele>326.472</ele>
        <time>2020-08-23T08:58:32Z</time>
      </trkpt>
      <trkpt lat="41.869595" lon="0.361038">
        <ele>326.422</ele>
        <time>2020-08-23T08:58:33Z</time>
      </trkpt>
      <trkpt lat="41.869586" lon="0.360955">
        <ele>326.450</ele>
        <time>2020-08-23T08:58:34Z</time>
      </trkpt>
      <trkpt lat="41.869574" lon="0.360878">
        <ele>326.452</ele>
        <time>2020-08-23T08:58:35Z</time>
      </trkpt>
      <trkpt lat="41.869564" lon="0.360802">
        <ele>326.483</ele>
        <time>2020-08-23T08:58:36Z</time>
      </trkpt>
      <trkpt lat="41.869551" lon="0.360729">
        <ele>326.444</ele>
        <time>2020-08-23T08:58:37Z</time>
      </trkpt>
      <trkpt lat="41.869535" lon="0.360657">
        <ele>326.450</ele>
        <time>2020-08-23T08:58:38Z</time>
      </trkpt>
      <trkpt lat="41.869508" lon="0.360589">
        <ele>326.429</ele>
        <time>2020-08-23T08:58:39Z</time>
      </trkpt>
      <trkpt lat="41.869479" lon="0.360516">
        <ele>326.418</ele>
        <time>2020-08-23T08:58:40Z</time>
      </trkpt>
      <trkpt lat="41.869446" lon="0.360441">
        <ele>326.398</ele>
        <time>2020-08-23T08:58:41Z</time>
      </trkpt>
      <trkpt lat="41.869413" lon="0.360371">
        <ele>326.017</ele>
        <time>2020-08-23T08:58:42Z</time>
      </trkpt>
      <trkpt lat="41.869390" lon="0.360303">
        <ele>325.908</ele>
        <time>2020-08-23T08:58:43Z</time>
      </trkpt>
      <trkpt lat="41.869374" lon="0.360234">
        <ele>325.866</ele>
        <time>2020-08-23T08:58:44Z</time>
      </trkpt>
      <trkpt lat="41.869355" lon="0.360164">
        <ele>325.736</ele>
        <time>2020-08-23T08:58:45Z</time>
      </trkpt>
      <trkpt lat="41.869339" lon="0.360088">
        <ele>325.724</ele>
        <time>2020-08-23T08:58:46Z</time>
      </trkpt>
      <trkpt lat="41.869326" lon="0.360006">
        <ele>325.736</ele>
        <time>2020-08-23T08:58:47Z</time>
      </trkpt>
      <trkpt lat="41.869312" lon="0.359927">
        <ele>325.777</ele>
        <time>2020-08-23T08:58:48Z</time>
      </trkpt>
      <trkpt lat="41.869304" lon="0.359848">
        <ele>325.658</ele>
        <time>2020-08-23T08:58:49Z</time>
      </trkpt>
      <trkpt lat="41.869291" lon="0.359773">
        <ele>325.694</ele>
        <time>2020-08-23T08:58:50Z</time>
      </trkpt>
      <trkpt lat="41.869282" lon="0.359697">
        <ele>325.633</ele>
        <time>2020-08-23T08:58:51Z</time>
      </trkpt>
      <trkpt lat="41.869264" lon="0.359625">
        <ele>325.646</ele>
        <time>2020-08-23T08:58:52Z</time>
      </trkpt>
      <trkpt lat="41.869248" lon="0.359554">
        <ele>325.688</ele>
        <time>2020-08-23T08:58:53Z</time>
      </trkpt>
      <trkpt lat="41.869233" lon="0.359478">
        <ele>325.616</ele>
        <time>2020-08-23T08:58:54Z</time>
      </trkpt>
      <trkpt lat="41.869212" lon="0.359402">
        <ele>325.608</ele>
        <time>2020-08-23T08:58:55Z</time>
      </trkpt>
      <trkpt lat="41.869191" lon="0.359327">
        <ele>325.679</ele>
        <time>2020-08-23T08:58:56Z</time>
      </trkpt>
      <trkpt lat="41.869168" lon="0.359257">
        <ele>325.619</ele>
        <time>2020-08-23T08:58:57Z</time>
      </trkpt>
      <trkpt lat="41.869150" lon="0.359187">
        <ele>325.697</ele>
        <time>2020-08-23T08:58:58Z</time>
      </trkpt>
      <trkpt lat="41.869129" lon="0.359117">
        <ele>325.689</ele>
        <time>2020-08-23T08:58:59Z</time>
      </trkpt>
      <trkpt lat="41.869109" lon="0.359047">
        <ele>325.650</ele>
        <time>2020-08-23T08:59:00Z</time>
      </trkpt>
      <trkpt lat="41.869092" lon="0.358977">
        <ele>325.631</ele>
        <time>2020-08-23T08:59:01Z</time>
      </trkpt>
      <trkpt lat="41.869074" lon="0.358909">
        <ele>325.697</ele>
        <time>2020-08-23T08:59:02Z</time>
      </trkpt>
      <trkpt lat="41.869052" lon="0.358846">
        <ele>325.686</ele>
        <time>2020-08-23T08:59:03Z</time>
      </trkpt>
      <trkpt lat="41.869036" lon="0.358778">
        <ele>325.626</ele>
        <time>2020-08-23T08:59:04Z</time>
      </trkpt>
      <trkpt lat="41.869012" lon="0.358710">
        <ele>325.647</ele>
        <time>2020-08-23T08:59:05Z</time>
      </trkpt>
      <trkpt lat="41.868988" lon="0.358647">
        <ele>325.611</ele>
        <time>2020-08-23T08:59:06Z</time>
      </trkpt>
      <trkpt lat="41.868970" lon="0.358589">
        <ele>325.608</ele>
        <time>2020-08-23T08:59:07Z</time>
      </trkpt>
      <trkpt lat="41.868938" lon="0.358486">
        <ele>325.647</ele>
        <time>2020-08-23T08:59:09Z</time>
      </trkpt>
      <trkpt lat="41.868901" lon="0.358423">
        <ele>325.697</ele>
        <time>2020-08-23T08:59:11Z</time>
      </trkpt>
      <trkpt lat="41.868856" lon="0.358375">
        <ele>325.665</ele>
        <time>2020-08-23T08:59:14Z</time>
      </trkpt>
      <trkpt lat="41.868810" lon="0.358354">
        <ele>325.727</ele>
        <time>2020-08-23T08:59:16Z</time>
      </trkpt>
      <trkpt lat="41.868743" lon="0.358310">
        <ele>325.848</ele>
        <time>2020-08-23T08:59:18Z</time>
      </trkpt>
      <trkpt lat="41.868677" lon="0.358258">
        <ele>326.049</ele>
        <time>2020-08-23T08:59:20Z</time>
      </trkpt>
      <trkpt lat="41.868608" lon="0.358187">
        <ele>326.135</ele>
        <time>2020-08-23T08:59:22Z</time>
      </trkpt>
      <trkpt lat="41.868539" lon="0.358112">
        <ele>326.144</ele>
        <time>2020-08-23T08:59:24Z</time>
      </trkpt>
      <trkpt lat="41.868503" lon="0.358067">
        <ele>326.034</ele>
        <time>2020-08-23T08:59:26Z</time>
      </trkpt>
      <trkpt lat="41.868506" lon="0.358135">
        <ele>325.755</ele>
        <time>2020-08-23T08:59:39Z</time>
      </trkpt>
      <trkpt lat="41.868548" lon="0.358181">
        <ele>325.810</ele>
        <time>2020-08-23T08:59:41Z</time>
      </trkpt>
      <trkpt lat="41.868605" lon="0.358235">
        <ele>325.808</ele>
        <time>2020-08-23T08:59:43Z</time>
      </trkpt>
      <trkpt lat="41.868677" lon="0.358276">
        <ele>325.838</ele>
        <time>2020-08-23T08:59:45Z</time>
      </trkpt>
      <trkpt lat="41.868753" lon="0.358325">
        <ele>325.868</ele>
        <time>2020-08-23T08:59:47Z</time>
      </trkpt>
      <trkpt lat="41.868821" lon="0.358362">
        <ele>325.846</ele>
        <time>2020-08-23T08:59:49Z</time>
      </trkpt>
      <trkpt lat="41.868869" lon="0.358316">
        <ele>325.868</ele>
        <time>2020-08-23T08:59:51Z</time>
      </trkpt>
      <trkpt lat="41.868889" lon="0.358234">
        <ele>325.819</ele>
        <time>2020-08-23T08:59:53Z</time>
      </trkpt>
      <trkpt lat="41.868881" lon="0.358138">
        <ele>325.950</ele>
        <time>2020-08-23T08:59:55Z</time>
      </trkpt>
      <trkpt lat="41.868876" lon="0.358041">
        <ele>326.196</ele>
        <time>2020-08-23T08:59:57Z</time>
      </trkpt>
      <trkpt lat="41.868874" lon="0.357935">
        <ele>326.355</ele>
        <time>2020-08-23T08:59:59Z</time>
      </trkpt>
      <trkpt lat="41.868877" lon="0.357828">
        <ele>326.447</ele>
        <time>2020-08-23T09:00:01Z</time>
      </trkpt>
      <trkpt lat="41.868880" lon="0.357708">
        <ele>326.429</ele>
        <time>2020-08-23T09:00:03Z</time>
      </trkpt>
      <trkpt lat="41.868878" lon="0.357646">
        <ele>326.421</ele>
        <time>2020-08-23T09:00:04Z</time>
      </trkpt>
      <trkpt lat="41.868876" lon="0.357523">
        <ele>326.308</ele>
        <time>2020-08-23T09:00:06Z</time>
      </trkpt>
      <trkpt lat="41.868878" lon="0.357457">
        <ele>326.319</ele>
        <time>2020-08-23T09:00:07Z</time>
      </trkpt>
      <trkpt lat="41.868884" lon="0.357392">
        <ele>326.399</ele>
        <time>2020-08-23T09:00:08Z</time>
      </trkpt>
      <trkpt lat="41.868886" lon="0.357326">
        <ele>326.317</ele>
        <time>2020-08-23T09:00:09Z</time>
      </trkpt>
      <trkpt lat="41.868878" lon="0.357260">
        <ele>326.339</ele>
        <time>2020-08-23T09:00:10Z</time>
      </trkpt>
      <trkpt lat="41.868870" lon="0.357194">
        <ele>326.410</ele>
        <time>2020-08-23T09:00:11Z</time>
      </trkpt>
      <trkpt lat="41.868871" lon="0.357128">
        <ele>326.431</ele>
        <time>2020-08-23T09:00:12Z</time>
      </trkpt>
      <trkpt lat="41.868870" lon="0.357062">
        <ele>326.597</ele>
        <time>2020-08-23T09:00:13Z</time>
      </trkpt>
      <trkpt lat="41.868867" lon="0.356991">
        <ele>326.696</ele>
        <time>2020-08-23T09:00:14Z</time>
      </trkpt>
      <trkpt lat="41.868857" lon="0.356920">
        <ele>326.668</ele>
        <time>2020-08-23T09:00:15Z</time>
      </trkpt>
      <trkpt lat="41.868847" lon="0.356852">
        <ele>326.642</ele>
        <time>2020-08-23T09:00:16Z</time>
      </trkpt>
      <trkpt lat="41.868844" lon="0.356783">
        <ele>326.626</ele>
        <time>2020-08-23T09:00:17Z</time>
      </trkpt>
      <trkpt lat="41.868839" lon="0.356710">
        <ele>326.608</ele>
        <time>2020-08-23T09:00:18Z</time>
      </trkpt>
      <trkpt lat="41.868829" lon="0.356641">
        <ele>326.651</ele>
        <time>2020-08-23T09:00:19Z</time>
      </trkpt>
      <trkpt lat="41.868823" lon="0.356571">
        <ele>326.681</ele>
        <time>2020-08-23T09:00:20Z</time>
      </trkpt>
      <trkpt lat="41.868822" lon="0.356496">
        <ele>326.769</ele>
        <time>2020-08-23T09:00:21Z</time>
      </trkpt>
      <trkpt lat="41.868821" lon="0.356428">
        <ele>326.711</ele>
        <time>2020-08-23T09:00:22Z</time>
      </trkpt>
      <trkpt lat="41.868820" lon="0.356361">
        <ele>326.762</ele>
        <time>2020-08-23T09:00:23Z</time>
      </trkpt>
      <trkpt lat="41.868823" lon="0.356295">
        <ele>326.783</ele>
        <time>2020-08-23T09:00:24Z</time>
      </trkpt>
      <trkpt lat="41.868825" lon="0.356230">
        <ele>326.799</ele>
        <time>2020-08-23T09:00:25Z</time>
      </trkpt>
      <trkpt lat="41.868826" lon="0.356165">
        <ele>326.748</ele>
        <time>2020-08-23T09:00:26Z</time>
      </trkpt>
      <trkpt lat="41.868824" lon="0.356097">
        <ele>326.729</ele>
        <time>2020-08-23T09:00:27Z</time>
      </trkpt>
      <trkpt lat="41.868826" lon="0.356025">
        <ele>326.800</ele>
        <time>2020-08-23T09:00:28Z</time>
      </trkpt>
      <trkpt lat="41.868836" lon="0.355959">
        <ele>326.820</ele>
        <time>2020-08-23T09:00:29Z</time>
      </trkpt>
      <trkpt lat="41.868841" lon="0.355894">
        <ele>326.808</ele>
        <time>2020-08-23T09:00:30Z</time>
      </trkpt>
      <trkpt lat="41.868845" lon="0.355831">
        <ele>326.887</ele>
        <time>2020-08-23T09:00:31Z</time>
      </trkpt>
      <trkpt lat="41.868850" lon="0.355765">
        <ele>326.957</ele>
        <time>2020-08-23T09:00:32Z</time>
      </trkpt>
      <trkpt lat="41.868849" lon="0.355699">
        <ele>326.975</ele>
        <time>2020-08-23T09:00:33Z</time>
      </trkpt>
      <trkpt lat="41.868855" lon="0.355639">
        <ele>327.037</ele>
        <time>2020-08-23T09:00:34Z</time>
      </trkpt>
      <trkpt lat="41.868882" lon="0.355531">
        <ele>327.298</ele>
        <time>2020-08-23T09:00:36Z</time>
      </trkpt>
      <trkpt lat="41.868892" lon="0.355437">
        <ele>327.459</ele>
        <time>2020-08-23T09:00:38Z</time>
      </trkpt>
      <trkpt lat="41.868898" lon="0.355341">
        <ele>327.885</ele>
        <time>2020-08-23T09:00:40Z</time>
      </trkpt>
      <trkpt lat="41.868907" lon="0.355247">
        <ele>328.344</ele>
        <time>2020-08-23T09:00:42Z</time>
      </trkpt>
      <trkpt lat="41.868918" lon="0.355159">
        <ele>328.797</ele>
        <time>2020-08-23T09:00:44Z</time>
      </trkpt>
      <trkpt lat="41.868931" lon="0.355070">
        <ele>329.023</ele>
        <time>2020-08-23T09:00:46Z</time>
      </trkpt>
      <trkpt lat="41.868945" lon="0.354988">
        <ele>329.225</ele>
        <time>2020-08-23T09:00:48Z</time>
      </trkpt>
      <trkpt lat="41.868944" lon="0.354907">
        <ele>329.408</ele>
        <time>2020-08-23T09:00:50Z</time>
      </trkpt>
      <trkpt lat="41.868926" lon="0.354830">
        <ele>329.764</ele>
        <time>2020-08-23T09:00:52Z</time>
      </trkpt>
      <trkpt lat="41.868905" lon="0.354755">
        <ele>329.994</ele>
        <time>2020-08-23T09:00:54Z</time>
      </trkpt>
      <trkpt lat="41.868890" lon="0.354678">
        <ele>330.242</ele>
        <time>2020-08-23T09:00:56Z</time>
      </trkpt>
      <trkpt lat="41.868879" lon="0.354610">
        <ele>330.544</ele>
        <time>2020-08-23T09:00:58Z</time>
      </trkpt>
      <trkpt lat="41.868881" lon="0.354533">
        <ele>330.965</ele>
        <time>2020-08-23T09:01:00Z</time>
      </trkpt>
      <trkpt lat="41.868869" lon="0.354451">
        <ele>331.466</ele>
        <time>2020-08-23T09:01:03Z</time>
      </trkpt>
      <trkpt lat="41.868864" lon="0.354390">
        <ele>331.762</ele>
        <time>2020-08-23T09:01:05Z</time>
      </trkpt>
      <trkpt lat="41.868850" lon="0.354332">
        <ele>332.151</ele>
        <time>2020-08-23T09:01:07Z</time>
      </trkpt>
      <trkpt lat="41.868839" lon="0.354253">
        <ele>332.883</ele>
        <time>2020-08-23T09:01:10Z</time>
      </trkpt>
      <trkpt lat="41.868832" lon="0.354192">
        <ele>333.225</ele>
        <time>2020-08-23T09:01:12Z</time>
      </trkpt>
      <trkpt lat="41.868823" lon="0.354132">
        <ele>333.817</ele>
        <time>2020-08-23T09:01:14Z</time>
      </trkpt>
      <trkpt lat="41.868826" lon="0.354043">
        <ele>334.508</ele>
        <time>2020-08-23T09:01:17Z</time>
      </trkpt>
      <trkpt lat="41.868811" lon="0.353959">
        <ele>335.283</ele>
        <time>2020-08-23T09:01:20Z</time>
      </trkpt>
      <trkpt lat="41.868800" lon="0.353874">
        <ele>335.983</ele>
        <time>2020-08-23T09:01:23Z</time>
      </trkpt>
      <trkpt lat="41.868796" lon="0.353788">
        <ele>336.511</ele>
        <time>2020-08-23T09:01:26Z</time>
      </trkpt>
      <trkpt lat="41.868794" lon="0.353702">
        <ele>337.013</ele>
        <time>2020-08-23T09:01:29Z</time>
      </trkpt>
      <trkpt lat="41.868810" lon="0.353642">
        <ele>337.514</ele>
        <time>2020-08-23T09:01:31Z</time>
      </trkpt>
      <trkpt lat="41.868821" lon="0.353582">
        <ele>338.055</ele>
        <time>2020-08-23T09:01:33Z</time>
      </trkpt>
      <trkpt lat="41.868825" lon="0.353521">
        <ele>338.561</ele>
        <time>2020-08-23T09:01:35Z</time>
      </trkpt>
      <trkpt lat="41.868808" lon="0.353455">
        <ele>339.010</ele>
        <time>2020-08-23T09:01:37Z</time>
      </trkpt>
      <trkpt lat="41.868794" lon="0.353398">
        <ele>339.437</ele>
        <time>2020-08-23T09:01:39Z</time>
      </trkpt>
      <trkpt lat="41.868771" lon="0.353324">
        <ele>340.149</ele>
        <time>2020-08-23T09:01:42Z</time>
      </trkpt>
      <trkpt lat="41.868763" lon="0.353262">
        <ele>340.613</ele>
        <time>2020-08-23T09:01:45Z</time>
      </trkpt>
      <trkpt lat="41.868770" lon="0.353181">
        <ele>341.208</ele>
        <time>2020-08-23T09:01:49Z</time>
      </trkpt>
      <trkpt lat="41.868769" lon="0.353116">
        <ele>341.758</ele>
        <time>2020-08-23T09:01:52Z</time>
      </trkpt>
      <trkpt lat="41.868745" lon="0.353058">
        <ele>342.268</ele>
        <time>2020-08-23T09:01:55Z</time>
      </trkpt>
      <trkpt lat="41.868726" lon="0.352999">
        <ele>342.966</ele>
        <time>2020-08-23T09:01:58Z</time>
      </trkpt>
      <trkpt lat="41.868713" lon="0.352929">
        <ele>343.658</ele>
        <time>2020-08-23T09:02:01Z</time>
      </trkpt>
      <trkpt lat="41.868711" lon="0.352855">
        <ele>344.249</ele>
        <time>2020-08-23T09:02:04Z</time>
      </trkpt>
      <trkpt lat="41.868725" lon="0.352787">
        <ele>344.920</ele>
        <time>2020-08-23T09:02:07Z</time>
      </trkpt>
      <trkpt lat="41.868745" lon="0.352710">
        <ele>345.876</ele>
        <time>2020-08-23T09:02:11Z</time>
      </trkpt>
      <trkpt lat="41.868775" lon="0.352661">
        <ele>346.335</ele>
        <time>2020-08-23T09:02:14Z</time>
      </trkpt>
      <trkpt lat="41.868810" lon="0.352613">
        <ele>346.828</ele>
        <time>2020-08-23T09:02:17Z</time>
      </trkpt>
      <trkpt lat="41.868831" lon="0.352543">
        <ele>347.689</ele>
        <time>2020-08-23T09:02:21Z</time>
      </trkpt>
      <trkpt lat="41.868840" lon="0.352484">
        <ele>348.417</ele>
        <time>2020-08-23T09:02:24Z</time>
      </trkpt>
      <trkpt lat="41.868842" lon="0.352407">
        <ele>349.108</ele>
        <time>2020-08-23T09:02:27Z</time>
      </trkpt>
      <trkpt lat="41.868847" lon="0.352332">
        <ele>350.257</ele>
        <time>2020-08-23T09:02:30Z</time>
      </trkpt>
      <trkpt lat="41.868875" lon="0.352273">
        <ele>350.927</ele>
        <time>2020-08-23T09:02:33Z</time>
      </trkpt>
      <trkpt lat="41.868888" lon="0.352213">
        <ele>351.445</ele>
        <time>2020-08-23T09:02:36Z</time>
      </trkpt>
      <trkpt lat="41.868890" lon="0.352147">
        <ele>352.417</ele>
        <time>2020-08-23T09:02:39Z</time>
      </trkpt>
      <trkpt lat="41.868900" lon="0.352070">
        <ele>353.558</ele>
        <time>2020-08-23T09:02:42Z</time>
      </trkpt>
      <trkpt lat="41.868908" lon="0.352002">
        <ele>354.489</ele>
        <time>2020-08-23T09:02:45Z</time>
      </trkpt>
      <trkpt lat="41.868929" lon="0.351943">
        <ele>355.785</ele>
        <time>2020-08-23T09:02:48Z</time>
      </trkpt>
      <trkpt lat="41.868956" lon="0.351888">
        <ele>356.424</ele>
        <time>2020-08-23T09:02:50Z</time>
      </trkpt>
      <trkpt lat="41.868973" lon="0.351829">
        <ele>357.423</ele>
        <time>2020-08-23T09:02:53Z</time>
      </trkpt>
      <trkpt lat="41.868978" lon="0.351755">
        <ele>358.183</ele>
        <time>2020-08-23T09:02:56Z</time>
      </trkpt>
      <trkpt lat="41.868979" lon="0.351686">
        <ele>358.711</ele>
        <time>2020-08-23T09:02:59Z</time>
      </trkpt>
      <trkpt lat="41.868982" lon="0.351623">
        <ele>359.508</ele>
        <time>2020-08-23T09:03:02Z</time>
      </trkpt>
      <trkpt lat="41.868949" lon="0.351573">
        <ele>360.397</ele>
        <time>2020-08-23T09:03:06Z</time>
      </trkpt>
      <trkpt lat="41.868905" lon="0.351554">
        <ele>360.577</ele>
        <time>2020-08-23T09:03:09Z</time>
      </trkpt>
      <trkpt lat="41.868858" lon="0.351552">
        <ele>360.625</ele>
        <time>2020-08-23T09:03:13Z</time>
      </trkpt>
      <trkpt lat="41.868817" lon="0.351523">
        <ele>360.787</ele>
        <time>2020-08-23T09:03:47Z</time>
      </trkpt>
      <trkpt lat="41.868846" lon="0.351577">
        <ele>361.078</ele>
        <time>2020-08-23T09:04:02Z</time>
      </trkpt>
      <trkpt lat="41.868890" lon="0.351621">
        <ele>361.339</ele>
        <time>2020-08-23T09:06:04Z</time>
      </trkpt>
      <trkpt lat="41.868937" lon="0.351627">
        <ele>361.315</ele>
        <time>2020-08-23T09:06:06Z</time>
      </trkpt>
      <trkpt lat="41.868982" lon="0.351624">
        <ele>361.414</ele>
        <time>2020-08-23T09:06:08Z</time>
      </trkpt>
      <trkpt lat="41.869035" lon="0.351627">
        <ele>361.639</ele>
        <time>2020-08-23T09:06:11Z</time>
      </trkpt>
      <trkpt lat="41.869081" lon="0.351634">
        <ele>361.901</ele>
        <time>2020-08-23T09:06:14Z</time>
      </trkpt>
      <trkpt lat="41.869120" lon="0.351665">
        <ele>362.321</ele>
        <time>2020-08-23T09:06:17Z</time>
      </trkpt>
      <trkpt lat="41.869090" lon="0.351617">
        <ele>362.408</ele>
        <time>2020-08-23T09:06:30Z</time>
      </trkpt>
      <trkpt lat="41.869058" lon="0.351546">
        <ele>361.818</ele>
        <time>2020-08-23T09:06:33Z</time>
      </trkpt>
      <trkpt lat="41.869049" lon="0.351476">
        <ele>361.028</ele>
        <time>2020-08-23T09:06:35Z</time>
      </trkpt>
      <trkpt lat="41.869034" lon="0.351406">
        <ele>359.856</ele>
        <time>2020-08-23T09:06:37Z</time>
      </trkpt>
      <trkpt lat="41.869010" lon="0.351332">
        <ele>358.318</ele>
        <time>2020-08-23T09:06:39Z</time>
      </trkpt>
      <trkpt lat="41.868977" lon="0.351252">
        <ele>357.019</ele>
        <time>2020-08-23T09:06:41Z</time>
      </trkpt>
      <trkpt lat="41.868949" lon="0.351179">
        <ele>355.940</ele>
        <time>2020-08-23T09:06:43Z</time>
      </trkpt>
      <trkpt lat="41.868929" lon="0.351113">
        <ele>355.046</ele>
        <time>2020-08-23T09:06:45Z</time>
      </trkpt>
      <trkpt lat="41.868924" lon="0.351026">
        <ele>354.385</ele>
        <time>2020-08-23T09:06:47Z</time>
      </trkpt>
      <trkpt lat="41.868904" lon="0.350929">
        <ele>353.688</ele>
        <time>2020-08-23T09:06:49Z</time>
      </trkpt>
      <trkpt lat="41.868895" lon="0.350848">
        <ele>353.124</ele>
        <time>2020-08-23T09:06:51Z</time>
      </trkpt>
      <trkpt lat="41.868873" lon="0.350757">
        <ele>352.626</ele>
        <time>2020-08-23T09:06:53Z</time>
      </trkpt>
      <trkpt lat="41.868855" lon="0.350660">
        <ele>352.008</ele>
        <time>2020-08-23T09:06:55Z</time>
      </trkpt>
      <trkpt lat="41.868842" lon="0.350580">
        <ele>351.043</ele>
        <time>2020-08-23T09:06:57Z</time>
      </trkpt>
      <trkpt lat="41.868850" lon="0.350492">
        <ele>350.623</ele>
        <time>2020-08-23T09:06:59Z</time>
      </trkpt>
      <trkpt lat="41.868861" lon="0.350402">
        <ele>350.261</ele>
        <time>2020-08-23T09:07:01Z</time>
      </trkpt>
      <trkpt lat="41.868881" lon="0.350319">
        <ele>349.993</ele>
        <time>2020-08-23T09:07:03Z</time>
      </trkpt>
      <trkpt lat="41.868883" lon="0.350244">
        <ele>349.524</ele>
        <time>2020-08-23T09:07:05Z</time>
      </trkpt>
      <trkpt lat="41.868884" lon="0.350178">
        <ele>349.025</ele>
        <time>2020-08-23T09:07:07Z</time>
      </trkpt>
      <trkpt lat="41.868887" lon="0.350100">
        <ele>348.351</ele>
        <time>2020-08-23T09:07:10Z</time>
      </trkpt>
      <trkpt lat="41.868900" lon="0.350039">
        <ele>347.940</ele>
        <time>2020-08-23T09:07:12Z</time>
      </trkpt>
      <trkpt lat="41.868917" lon="0.349978">
        <ele>347.436</ele>
        <time>2020-08-23T09:07:14Z</time>
      </trkpt>
      <trkpt lat="41.868937" lon="0.349911">
        <ele>346.917</ele>
        <time>2020-08-23T09:07:16Z</time>
      </trkpt>
      <trkpt lat="41.868960" lon="0.349844">
        <ele>346.518</ele>
        <time>2020-08-23T09:07:18Z</time>
      </trkpt>
      <trkpt lat="41.868986" lon="0.349789">
        <ele>346.208</ele>
        <time>2020-08-23T09:07:20Z</time>
      </trkpt>
      <trkpt lat="41.869016" lon="0.349711">
        <ele>345.668</ele>
        <time>2020-08-23T09:07:22Z</time>
      </trkpt>
      <trkpt lat="41.869038" lon="0.349630">
        <ele>345.278</ele>
        <time>2020-08-23T09:07:24Z</time>
      </trkpt>
      <trkpt lat="41.869060" lon="0.349533">
        <ele>344.876</ele>
        <time>2020-08-23T09:07:26Z</time>
      </trkpt>
      <trkpt lat="41.869075" lon="0.349460">
        <ele>344.578</ele>
        <time>2020-08-23T09:07:28Z</time>
      </trkpt>
      <trkpt lat="41.869100" lon="0.349385">
        <ele>344.359</ele>
        <time>2020-08-23T09:07:30Z</time>
      </trkpt>
      <trkpt lat="41.869118" lon="0.349313">
        <ele>344.070</ele>
        <time>2020-08-23T09:07:32Z</time>
      </trkpt>
      <trkpt lat="41.869134" lon="0.349233">
        <ele>343.556</ele>
        <time>2020-08-23T09:07:35Z</time>
      </trkpt>
      <trkpt lat="41.869152" lon="0.349171">
        <ele>343.235</ele>
        <time>2020-08-23T09:07:37Z</time>
      </trkpt>
      <trkpt lat="41.869173" lon="0.349099">
        <ele>342.956</ele>
        <time>2020-08-23T09:07:39Z</time>
      </trkpt>
      <trkpt lat="41.869194" lon="0.349035">
        <ele>342.659</ele>
        <time>2020-08-23T09:07:41Z</time>
      </trkpt>
      <trkpt lat="41.869221" lon="0.348969">
        <ele>342.314</ele>
        <time>2020-08-23T09:07:43Z</time>
      </trkpt>
      <trkpt lat="41.869246" lon="0.348886">
        <ele>342.008</ele>
        <time>2020-08-23T09:07:45Z</time>
      </trkpt>
      <trkpt lat="41.869269" lon="0.348803">
        <ele>341.590</ele>
        <time>2020-08-23T09:07:47Z</time>
      </trkpt>
      <trkpt lat="41.869304" lon="0.348711">
        <ele>341.240</ele>
        <time>2020-08-23T09:07:49Z</time>
      </trkpt>
      <trkpt lat="41.869335" lon="0.348618">
        <ele>340.928</ele>
        <time>2020-08-23T09:07:51Z</time>
      </trkpt>
      <trkpt lat="41.869358" lon="0.348547">
        <ele>340.610</ele>
        <time>2020-08-23T09:07:53Z</time>
      </trkpt>
      <trkpt lat="41.869374" lon="0.348479">
        <ele>340.381</ele>
        <time>2020-08-23T09:07:55Z</time>
      </trkpt>
      <trkpt lat="41.869392" lon="0.348414">
        <ele>340.082</ele>
        <time>2020-08-23T09:07:57Z</time>
      </trkpt>
      <trkpt lat="41.869420" lon="0.348338">
        <ele>339.718</ele>
        <time>2020-08-23T09:07:59Z</time>
      </trkpt>
      <trkpt lat="41.869450" lon="0.348233">
        <ele>339.257</ele>
        <time>2020-08-23T09:08:01Z</time>
      </trkpt>
      <trkpt lat="41.869464" lon="0.348169">
        <ele>338.969</ele>
        <time>2020-08-23T09:08:02Z</time>
      </trkpt>
      <trkpt lat="41.869477" lon="0.348068">
        <ele>338.304</ele>
        <time>2020-08-23T09:08:04Z</time>
      </trkpt>
      <trkpt lat="41.869493" lon="0.347997">
        <ele>337.824</ele>
        <time>2020-08-23T09:08:06Z</time>
      </trkpt>
      <trkpt lat="41.869508" lon="0.347932">
        <ele>337.408</ele>
        <time>2020-08-23T09:08:08Z</time>
      </trkpt>
      <trkpt lat="41.869521" lon="0.347868">
        <ele>337.061</ele>
        <time>2020-08-23T09:08:10Z</time>
      </trkpt>
      <trkpt lat="41.869543" lon="0.347797">
        <ele>336.681</ele>
        <time>2020-08-23T09:08:12Z</time>
      </trkpt>
      <trkpt lat="41.869573" lon="0.347710">
        <ele>336.159</ele>
        <time>2020-08-23T09:08:14Z</time>
      </trkpt>
      <trkpt lat="41.869586" lon="0.347649">
        <ele>335.821</ele>
        <time>2020-08-23T09:08:16Z</time>
      </trkpt>
      <trkpt lat="41.869609" lon="0.347572">
        <ele>335.382</ele>
        <time>2020-08-23T09:08:19Z</time>
      </trkpt>
      <trkpt lat="41.869633" lon="0.347516">
        <ele>335.043</ele>
        <time>2020-08-23T09:08:21Z</time>
      </trkpt>
      <trkpt lat="41.869665" lon="0.347436">
        <ele>334.749</ele>
        <time>2020-08-23T09:08:24Z</time>
      </trkpt>
      <trkpt lat="41.869693" lon="0.347365">
        <ele>334.568</ele>
        <time>2020-08-23T09:08:26Z</time>
      </trkpt>
      <trkpt lat="41.869729" lon="0.347295">
        <ele>334.291</ele>
        <time>2020-08-23T09:08:29Z</time>
      </trkpt>
      <trkpt lat="41.869744" lon="0.347235">
        <ele>334.081</ele>
        <time>2020-08-23T09:08:31Z</time>
      </trkpt>
      <trkpt lat="41.869766" lon="0.347177">
        <ele>333.819</ele>
        <time>2020-08-23T09:08:33Z</time>
      </trkpt>
      <trkpt lat="41.869786" lon="0.347096">
        <ele>333.708</ele>
        <time>2020-08-23T09:08:35Z</time>
      </trkpt>
      <trkpt lat="41.869805" lon="0.347013">
        <ele>333.424</ele>
        <time>2020-08-23T09:08:37Z</time>
      </trkpt>
      <trkpt lat="41.869828" lon="0.346936">
        <ele>333.174</ele>
        <time>2020-08-23T09:08:39Z</time>
      </trkpt>
      <trkpt lat="41.869844" lon="0.346867">
        <ele>332.972</ele>
        <time>2020-08-23T09:08:41Z</time>
      </trkpt>
      <trkpt lat="41.869865" lon="0.346806">
        <ele>332.784</ele>
        <time>2020-08-23T09:08:43Z</time>
      </trkpt>
      <trkpt lat="41.869890" lon="0.346733">
        <ele>332.595</ele>
        <time>2020-08-23T09:08:45Z</time>
      </trkpt>
      <trkpt lat="41.869916" lon="0.346647">
        <ele>332.376</ele>
        <time>2020-08-23T09:08:47Z</time>
      </trkpt>
      <trkpt lat="41.869940" lon="0.346548">
        <ele>332.242</ele>
        <time>2020-08-23T09:08:49Z</time>
      </trkpt>
      <trkpt lat="41.869965" lon="0.346455">
        <ele>332.151</ele>
        <time>2020-08-23T09:08:51Z</time>
      </trkpt>
      <trkpt lat="41.869983" lon="0.346370">
        <ele>332.011</ele>
        <time>2020-08-23T09:08:53Z</time>
      </trkpt>
      <trkpt lat="41.870004" lon="0.346294">
        <ele>331.921</ele>
        <time>2020-08-23T09:08:55Z</time>
      </trkpt>
      <trkpt lat="41.870029" lon="0.346216">
        <ele>331.703</ele>
        <time>2020-08-23T09:08:57Z</time>
      </trkpt>
      <trkpt lat="41.870058" lon="0.346129">
        <ele>331.508</ele>
        <time>2020-08-23T09:08:59Z</time>
      </trkpt>
      <trkpt lat="41.870093" lon="0.346049">
        <ele>331.316</ele>
        <time>2020-08-23T09:09:01Z</time>
      </trkpt>
      <trkpt lat="41.870122" lon="0.345986">
        <ele>331.256</ele>
        <time>2020-08-23T09:09:03Z</time>
      </trkpt>
      <trkpt lat="41.870139" lon="0.345917">
        <ele>331.114</ele>
        <time>2020-08-23T09:09:05Z</time>
      </trkpt>
      <trkpt lat="41.870159" lon="0.345834">
        <ele>330.926</ele>
        <time>2020-08-23T09:09:07Z</time>
      </trkpt>
      <trkpt lat="41.870183" lon="0.345754">
        <ele>330.737</ele>
        <time>2020-08-23T09:09:09Z</time>
      </trkpt>
      <trkpt lat="41.870197" lon="0.345676">
        <ele>330.678</ele>
        <time>2020-08-23T09:09:11Z</time>
      </trkpt>
      <trkpt lat="41.870221" lon="0.345588">
        <ele>330.564</ele>
        <time>2020-08-23T09:09:13Z</time>
      </trkpt>
      <trkpt lat="41.870256" lon="0.345497">
        <ele>330.483</ele>
        <time>2020-08-23T09:09:15Z</time>
      </trkpt>
      <trkpt lat="41.870294" lon="0.345392">
        <ele>330.386</ele>
        <time>2020-08-23T09:09:17Z</time>
      </trkpt>
      <trkpt lat="41.870327" lon="0.345283">
        <ele>330.260</ele>
        <time>2020-08-23T09:09:19Z</time>
      </trkpt>
      <trkpt lat="41.870343" lon="0.345222">
        <ele>330.126</ele>
        <time>2020-08-23T09:09:20Z</time>
      </trkpt>
      <trkpt lat="41.870358" lon="0.345164">
        <ele>330.008</ele>
        <time>2020-08-23T09:09:21Z</time>
      </trkpt>
      <trkpt lat="41.870377" lon="0.345105">
        <ele>329.973</ele>
        <time>2020-08-23T09:09:22Z</time>
      </trkpt>
      <trkpt lat="41.870400" lon="0.345042">
        <ele>329.883</ele>
        <time>2020-08-23T09:09:23Z</time>
      </trkpt>
      <trkpt lat="41.870417" lon="0.344978">
        <ele>329.781</ele>
        <time>2020-08-23T09:09:24Z</time>
      </trkpt>
      <trkpt lat="41.870438" lon="0.344917">
        <ele>329.443</ele>
        <time>2020-08-23T09:09:25Z</time>
      </trkpt>
      <trkpt lat="41.870455" lon="0.344849">
        <ele>329.244</ele>
        <time>2020-08-23T09:09:26Z</time>
      </trkpt>
      <trkpt lat="41.870472" lon="0.344780">
        <ele>329.125</ele>
        <time>2020-08-23T09:09:27Z</time>
      </trkpt>
      <trkpt lat="41.870489" lon="0.344718">
        <ele>329.061</ele>
        <time>2020-08-23T09:09:28Z</time>
      </trkpt>
      <trkpt lat="41.870506" lon="0.344656">
        <ele>328.910</ele>
        <time>2020-08-23T09:09:29Z</time>
      </trkpt>
      <trkpt lat="41.870527" lon="0.344589">
        <ele>328.894</ele>
        <time>2020-08-23T09:09:30Z</time>
      </trkpt>
      <trkpt lat="41.870543" lon="0.344517">
        <ele>328.757</ele>
        <time>2020-08-23T09:09:31Z</time>
      </trkpt>
      <trkpt lat="41.870558" lon="0.344444">
        <ele>328.622</ele>
        <time>2020-08-23T09:09:32Z</time>
      </trkpt>
      <trkpt lat="41.870576" lon="0.344375">
        <ele>328.508</ele>
        <time>2020-08-23T09:09:33Z</time>
      </trkpt>
      <trkpt lat="41.870595" lon="0.344299">
        <ele>328.434</ele>
        <time>2020-08-23T09:09:34Z</time>
      </trkpt>
      <trkpt lat="41.870615" lon="0.344226">
        <ele>328.344</ele>
        <time>2020-08-23T09:09:35Z</time>
      </trkpt>
      <trkpt lat="41.870635" lon="0.344158">
        <ele>328.242</ele>
        <time>2020-08-23T09:09:36Z</time>
      </trkpt>
      <trkpt lat="41.870654" lon="0.344088">
        <ele>328.184</ele>
        <time>2020-08-23T09:09:37Z</time>
      </trkpt>
      <trkpt lat="41.870671" lon="0.344021">
        <ele>327.985</ele>
        <time>2020-08-23T09:09:38Z</time>
      </trkpt>
      <trkpt lat="41.870688" lon="0.343949">
        <ele>327.856</ele>
        <time>2020-08-23T09:09:39Z</time>
      </trkpt>
      <trkpt lat="41.870708" lon="0.343880">
        <ele>327.662</ele>
        <time>2020-08-23T09:09:40Z</time>
      </trkpt>
      <trkpt lat="41.870726" lon="0.343813">
        <ele>327.591</ele>
        <time>2020-08-23T09:09:41Z</time>
      </trkpt>
      <trkpt lat="41.870746" lon="0.343746">
        <ele>327.429</ele>
        <time>2020-08-23T09:09:42Z</time>
      </trkpt>
      <trkpt lat="41.870760" lon="0.343678">
        <ele>327.300</ele>
        <time>2020-08-23T09:09:43Z</time>
      </trkpt>
      <trkpt lat="41.870776" lon="0.343615">
        <ele>327.220</ele>
        <time>2020-08-23T09:09:44Z</time>
      </trkpt>
      <trkpt lat="41.870792" lon="0.343554">
        <ele>327.208</ele>
        <time>2020-08-23T09:09:45Z</time>
      </trkpt>
      <trkpt lat="41.870809" lon="0.343498">
        <ele>327.177</ele>
        <time>2020-08-23T09:09:46Z</time>
      </trkpt>
      <trkpt lat="41.870835" lon="0.343388">
        <ele>327.047</ele>
        <time>2020-08-23T09:09:48Z</time>
      </trkpt>
      <trkpt lat="41.870851" lon="0.343261">
        <ele>326.815</ele>
        <time>2020-08-23T09:09:50Z</time>
      </trkpt>
      <trkpt lat="41.870861" lon="0.343191">
        <ele>326.797</ele>
        <time>2020-08-23T09:09:51Z</time>
      </trkpt>
      <trkpt lat="41.870871" lon="0.343126">
        <ele>326.638</ele>
        <time>2020-08-23T09:09:52Z</time>
      </trkpt>
      <trkpt lat="41.870878" lon="0.343058">
        <ele>326.559</ele>
        <time>2020-08-23T09:09:53Z</time>
      </trkpt>
      <trkpt lat="41.870889" lon="0.342982">
        <ele>326.435</ele>
        <time>2020-08-23T09:09:54Z</time>
      </trkpt>
      <trkpt lat="41.870895" lon="0.342910">
        <ele>326.254</ele>
        <time>2020-08-23T09:09:55Z</time>
      </trkpt>
      <trkpt lat="41.870902" lon="0.342839">
        <ele>326.017</ele>
        <time>2020-08-23T09:09:56Z</time>
      </trkpt>
      <trkpt lat="41.870912" lon="0.342774">
        <ele>325.887</ele>
        <time>2020-08-23T09:09:57Z</time>
      </trkpt>
      <trkpt lat="41.870924" lon="0.342704">
        <ele>325.715</ele>
        <time>2020-08-23T09:09:58Z</time>
      </trkpt>
      <trkpt lat="41.870935" lon="0.342630">
        <ele>325.608</ele>
        <time>2020-08-23T09:09:59Z</time>
      </trkpt>
      <trkpt lat="41.870948" lon="0.342561">
        <ele>325.486</ele>
        <time>2020-08-23T09:10:00Z</time>
      </trkpt>
      <trkpt lat="41.870959" lon="0.342487">
        <ele>325.286</ele>
        <time>2020-08-23T09:10:01Z</time>
      </trkpt>
      <trkpt lat="41.870970" lon="0.342420">
        <ele>325.194</ele>
        <time>2020-08-23T09:10:02Z</time>
      </trkpt>
      <trkpt lat="41.870980" lon="0.342351">
        <ele>324.946</ele>
        <time>2020-08-23T09:10:03Z</time>
      </trkpt>
      <trkpt lat="41.870994" lon="0.342282">
        <ele>324.867</ele>
        <time>2020-08-23T09:10:04Z</time>
      </trkpt>
      <trkpt lat="41.871011" lon="0.342209">
        <ele>324.718</ele>
        <time>2020-08-23T09:10:05Z</time>
      </trkpt>
      <trkpt lat="41.871026" lon="0.342131">
        <ele>324.574</ele>
        <time>2020-08-23T09:10:06Z</time>
      </trkpt>
      <trkpt lat="41.871038" lon="0.342049">
        <ele>324.273</ele>
        <time>2020-08-23T09:10:07Z</time>
      </trkpt>
      <trkpt lat="41.871055" lon="0.341970">
        <ele>323.912</ele>
        <time>2020-08-23T09:10:08Z</time>
      </trkpt>
      <trkpt lat="41.871067" lon="0.341899">
        <ele>323.632</ele>
        <time>2020-08-23T09:10:09Z</time>
      </trkpt>
      <trkpt lat="41.871076" lon="0.341831">
        <ele>323.305</ele>
        <time>2020-08-23T09:10:10Z</time>
      </trkpt>
      <trkpt lat="41.871084" lon="0.341758">
        <ele>323.108</ele>
        <time>2020-08-23T09:10:11Z</time>
      </trkpt>
      <trkpt lat="41.871088" lon="0.341689">
        <ele>322.986</ele>
        <time>2020-08-23T09:10:12Z</time>
      </trkpt>
      <trkpt lat="41.871091" lon="0.341621">
        <ele>322.326</ele>
        <time>2020-08-23T09:10:13Z</time>
      </trkpt>
      <trkpt lat="41.871087" lon="0.341550">
        <ele>322.024</ele>
        <time>2020-08-23T09:10:14Z</time>
      </trkpt>
      <trkpt lat="41.871083" lon="0.341476">
        <ele>321.766</ele>
        <time>2020-08-23T09:10:15Z</time>
      </trkpt>
      <trkpt lat="41.871078" lon="0.341407">
        <ele>321.477</ele>
        <time>2020-08-23T09:10:16Z</time>
      </trkpt>
      <trkpt lat="41.871075" lon="0.341343">
        <ele>321.148</ele>
        <time>2020-08-23T09:10:17Z</time>
      </trkpt>
      <trkpt lat="41.871062" lon="0.341283">
        <ele>320.964</ele>
        <time>2020-08-23T09:10:18Z</time>
      </trkpt>
      <trkpt lat="41.871059" lon="0.341210">
        <ele>320.773</ele>
        <time>2020-08-23T09:10:19Z</time>
      </trkpt>
      <trkpt lat="41.871060" lon="0.341135">
        <ele>320.472</ele>
        <time>2020-08-23T09:10:20Z</time>
      </trkpt>
      <trkpt lat="41.871060" lon="0.341051">
        <ele>320.113</ele>
        <time>2020-08-23T09:10:21Z</time>
      </trkpt>
      <trkpt lat="41.871062" lon="0.340978">
        <ele>319.814</ele>
        <time>2020-08-23T09:10:22Z</time>
      </trkpt>
      <trkpt lat="41.871069" lon="0.340895">
        <ele>319.508</ele>
        <time>2020-08-23T09:10:23Z</time>
      </trkpt>
      <trkpt lat="41.871079" lon="0.340808">
        <ele>319.162</ele>
        <time>2020-08-23T09:10:24Z</time>
      </trkpt>
      <trkpt lat="41.871085" lon="0.340720">
        <ele>318.812</ele>
        <time>2020-08-23T09:10:25Z</time>
      </trkpt>
      <trkpt lat="41.871094" lon="0.340638">
        <ele>318.510</ele>
        <time>2020-08-23T09:10:26Z</time>
      </trkpt>
      <trkpt lat="41.871099" lon="0.340558">
        <ele>318.292</ele>
        <time>2020-08-23T09:10:27Z</time>
      </trkpt>
      <trkpt lat="41.871104" lon="0.340476">
        <ele>317.943</ele>
        <time>2020-08-23T09:10:28Z</time>
      </trkpt>
      <trkpt lat="41.871112" lon="0.340391">
        <ele>317.754</ele>
        <time>2020-08-23T09:10:29Z</time>
      </trkpt>
      <trkpt lat="41.871118" lon="0.340314">
        <ele>317.530</ele>
        <time>2020-08-23T09:10:30Z</time>
      </trkpt>
      <trkpt lat="41.871120" lon="0.340227">
        <ele>317.359</ele>
        <time>2020-08-23T09:10:31Z</time>
      </trkpt>
      <trkpt lat="41.871123" lon="0.340142">
        <ele>317.159</ele>
        <time>2020-08-23T09:10:32Z</time>
      </trkpt>
      <trkpt lat="41.871129" lon="0.340059">
        <ele>316.903</ele>
        <time>2020-08-23T09:10:33Z</time>
      </trkpt>
      <trkpt lat="41.871135" lon="0.339971">
        <ele>316.623</ele>
        <time>2020-08-23T09:10:34Z</time>
      </trkpt>
      <trkpt lat="41.871142" lon="0.339883">
        <ele>316.408</ele>
        <time>2020-08-23T09:10:35Z</time>
      </trkpt>
      <trkpt lat="41.871149" lon="0.339796">
        <ele>315.910</ele>
        <time>2020-08-23T09:10:36Z</time>
      </trkpt>
      <trkpt lat="41.871157" lon="0.339704">
        <ele>315.860</ele>
        <time>2020-08-23T09:10:37Z</time>
      </trkpt>
      <trkpt lat="41.871168" lon="0.339614">
        <ele>315.788</ele>
        <time>2020-08-23T09:10:38Z</time>
      </trkpt>
      <trkpt lat="41.871179" lon="0.339526">
        <ele>315.540</ele>
        <time>2020-08-23T09:10:39Z</time>
      </trkpt>
      <trkpt lat="41.871190" lon="0.339442">
        <ele>315.341</ele>
        <time>2020-08-23T09:10:40Z</time>
      </trkpt>
      <trkpt lat="41.871196" lon="0.339343">
        <ele>315.282</ele>
        <time>2020-08-23T09:10:41Z</time>
      </trkpt>
      <trkpt lat="41.871202" lon="0.339256">
        <ele>315.098</ele>
        <time>2020-08-23T09:10:42Z</time>
      </trkpt>
      <trkpt lat="41.871211" lon="0.339174">
        <ele>314.947</ele>
        <time>2020-08-23T09:10:43Z</time>
      </trkpt>
      <trkpt lat="41.871216" lon="0.339094">
        <ele>314.872</ele>
        <time>2020-08-23T09:10:44Z</time>
      </trkpt>
      <trkpt lat="41.871222" lon="0.339016">
        <ele>314.713</ele>
        <time>2020-08-23T09:10:45Z</time>
      </trkpt>
      <trkpt lat="41.871229" lon="0.338934">
        <ele>314.614</ele>
        <time>2020-08-23T09:10:46Z</time>
      </trkpt>
      <trkpt lat="41.871237" lon="0.338860">
        <ele>314.508</ele>
        <time>2020-08-23T09:10:47Z</time>
      </trkpt>
      <trkpt lat="41.871246" lon="0.338790">
        <ele>314.442</ele>
        <time>2020-08-23T09:10:48Z</time>
      </trkpt>
      <trkpt lat="41.871257" lon="0.338719">
        <ele>314.392</ele>
        <time>2020-08-23T09:10:49Z</time>
      </trkpt>
      <trkpt lat="41.871270" lon="0.338650">
        <ele>314.250</ele>
        <time>2020-08-23T09:10:50Z</time>
      </trkpt>
      <trkpt lat="41.871288" lon="0.338543">
        <ele>314.012</ele>
        <time>2020-08-23T09:10:52Z</time>
      </trkpt>
      <trkpt lat="41.871300" lon="0.338481">
        <ele>313.953</ele>
        <time>2020-08-23T09:10:53Z</time>
      </trkpt>
      <trkpt lat="41.871313" lon="0.338422">
        <ele>313.884</ele>
        <time>2020-08-23T09:10:54Z</time>
      </trkpt>
      <trkpt lat="41.871341" lon="0.338323">
        <ele>313.880</ele>
        <time>2020-08-23T09:10:56Z</time>
      </trkpt>
      <trkpt lat="41.871358" lon="0.338259">
        <ele>313.869</ele>
        <time>2020-08-23T09:10:57Z</time>
      </trkpt>
      <trkpt lat="41.871375" lon="0.338189">
        <ele>313.856</ele>
        <time>2020-08-23T09:10:58Z</time>
      </trkpt>
      <trkpt lat="41.871393" lon="0.338129">
        <ele>313.859</ele>
        <time>2020-08-23T09:10:59Z</time>
      </trkpt>
      <trkpt lat="41.871410" lon="0.338071">
        <ele>313.814</ele>
        <time>2020-08-23T09:11:00Z</time>
      </trkpt>
      <trkpt lat="41.871426" lon="0.338008">
        <ele>313.708</ele>
        <time>2020-08-23T09:11:01Z</time>
      </trkpt>
      <trkpt lat="41.871443" lon="0.337935">
        <ele>313.730</ele>
        <time>2020-08-23T09:11:02Z</time>
      </trkpt>
      <trkpt lat="41.871457" lon="0.337874">
        <ele>313.780</ele>
        <time>2020-08-23T09:11:03Z</time>
      </trkpt>
      <trkpt lat="41.871490" lon="0.337759">
        <ele>313.648</ele>
        <time>2020-08-23T09:11:05Z</time>
      </trkpt>
      <trkpt lat="41.871504" lon="0.337697">
        <ele>313.640</ele>
        <time>2020-08-23T09:11:06Z</time>
      </trkpt>
      <trkpt lat="41.871514" lon="0.337637">
        <ele>313.591</ele>
        <time>2020-08-23T09:11:07Z</time>
      </trkpt>
      <trkpt lat="41.871525" lon="0.337575">
        <ele>313.462</ele>
        <time>2020-08-23T09:11:08Z</time>
      </trkpt>
      <trkpt lat="41.871537" lon="0.337511">
        <ele>313.338</ele>
        <time>2020-08-23T09:11:09Z</time>
      </trkpt>
      <trkpt lat="41.871545" lon="0.337449">
        <ele>313.247</ele>
        <time>2020-08-23T09:11:10Z</time>
      </trkpt>
      <trkpt lat="41.871556" lon="0.337386">
        <ele>313.257</ele>
        <time>2020-08-23T09:11:11Z</time>
      </trkpt>
      <trkpt lat="41.871568" lon="0.337324">
        <ele>313.100</ele>
        <time>2020-08-23T09:11:12Z</time>
      </trkpt>
      <trkpt lat="41.871581" lon="0.337259">
        <ele>313.120</ele>
        <time>2020-08-23T09:11:13Z</time>
      </trkpt>
      <trkpt lat="41.871593" lon="0.337190">
        <ele>313.108</ele>
        <time>2020-08-23T09:11:14Z</time>
      </trkpt>
      <trkpt lat="41.871606" lon="0.337131">
        <ele>313.120</ele>
        <time>2020-08-23T09:11:15Z</time>
      </trkpt>
      <trkpt lat="41.871628" lon="0.337026">
        <ele>313.130</ele>
        <time>2020-08-23T09:11:17Z</time>
      </trkpt>
      <trkpt lat="41.871635" lon="0.336964">
        <ele>313.138</ele>
        <time>2020-08-23T09:11:18Z</time>
      </trkpt>
      <trkpt lat="41.871642" lon="0.336897">
        <ele>313.150</ele>
        <time>2020-08-23T09:11:19Z</time>
      </trkpt>
      <trkpt lat="41.871653" lon="0.336830">
        <ele>313.071</ele>
        <time>2020-08-23T09:11:20Z</time>
      </trkpt>
      <trkpt lat="41.871660" lon="0.336765">
        <ele>313.012</ele>
        <time>2020-08-23T09:11:21Z</time>
      </trkpt>
      <trkpt lat="41.871667" lon="0.336696">
        <ele>313.038</ele>
        <time>2020-08-23T09:11:22Z</time>
      </trkpt>
      <trkpt lat="41.871684" lon="0.336583">
        <ele>313.037</ele>
        <time>2020-08-23T09:11:24Z</time>
      </trkpt>
      <trkpt lat="41.871697" lon="0.336459">
        <ele>313.172</ele>
        <time>2020-08-23T09:11:26Z</time>
      </trkpt>
      <trkpt lat="41.871698" lon="0.336398">
        <ele>313.113</ele>
        <time>2020-08-23T09:11:27Z</time>
      </trkpt>
      <trkpt lat="41.871703" lon="0.336329">
        <ele>313.114</ele>
        <time>2020-08-23T09:11:28Z</time>
      </trkpt>
      <trkpt lat="41.871712" lon="0.336196">
        <ele>313.108</ele>
        <time>2020-08-23T09:11:30Z</time>
      </trkpt>
      <trkpt lat="41.871719" lon="0.336127">
        <ele>313.092</ele>
        <time>2020-08-23T09:11:31Z</time>
      </trkpt>
      <trkpt lat="41.871721" lon="0.336061">
        <ele>313.042</ele>
        <time>2020-08-23T09:11:32Z</time>
      </trkpt>
      <trkpt lat="41.871722" lon="0.335980">
        <ele>313.060</ele>
        <time>2020-08-23T09:11:33Z</time>
      </trkpt>
      <trkpt lat="41.871724" lon="0.335917">
        <ele>313.082</ele>
        <time>2020-08-23T09:11:34Z</time>
      </trkpt>
      <trkpt lat="41.871725" lon="0.335852">
        <ele>313.063</ele>
        <time>2020-08-23T09:11:35Z</time>
      </trkpt>
      <trkpt lat="41.871723" lon="0.335781">
        <ele>313.084</ele>
        <time>2020-08-23T09:11:36Z</time>
      </trkpt>
      <trkpt lat="41.871723" lon="0.335701">
        <ele>313.090</ele>
        <time>2020-08-23T09:11:37Z</time>
      </trkpt>
      <trkpt lat="41.871715" lon="0.335626">
        <ele>313.089</ele>
        <time>2020-08-23T09:11:38Z</time>
      </trkpt>
      <trkpt lat="41.871708" lon="0.335558">
        <ele>313.067</ele>
        <time>2020-08-23T09:11:39Z</time>
      </trkpt>
      <trkpt lat="41.871700" lon="0.335490">
        <ele>313.081</ele>
        <time>2020-08-23T09:11:40Z</time>
      </trkpt>
      <trkpt lat="41.871694" lon="0.335430">
        <ele>313.019</ele>
        <time>2020-08-23T09:11:41Z</time>
      </trkpt>
      <trkpt lat="41.871684" lon="0.335314">
        <ele>313.008</ele>
        <time>2020-08-23T09:11:43Z</time>
      </trkpt>
      <trkpt lat="41.871681" lon="0.335202">
        <ele>313.011</ele>
        <time>2020-08-23T09:11:45Z</time>
      </trkpt>
      <trkpt lat="41.871671" lon="0.335080">
        <ele>313.081</ele>
        <time>2020-08-23T09:11:47Z</time>
      </trkpt>
      <trkpt lat="41.871667" lon="0.334970">
        <ele>313.089</ele>
        <time>2020-08-23T09:11:49Z</time>
      </trkpt>
      <trkpt lat="41.871665" lon="0.334851">
        <ele>313.081</ele>
        <time>2020-08-23T09:11:51Z</time>
      </trkpt>
      <trkpt lat="41.871679" lon="0.334749">
        <ele>313.192</ele>
        <time>2020-08-23T09:11:53Z</time>
      </trkpt>
      <trkpt lat="41.871677" lon="0.334629">
        <ele>313.223</ele>
        <time>2020-08-23T09:11:55Z</time>
      </trkpt>
      <trkpt lat="41.871674" lon="0.334513">
        <ele>313.289</ele>
        <time>2020-08-23T09:11:57Z</time>
      </trkpt>
      <trkpt lat="41.871671" lon="0.334450">
        <ele>313.298</ele>
        <time>2020-08-23T09:11:58Z</time>
      </trkpt>
      <trkpt lat="41.871670" lon="0.334385">
        <ele>313.215</ele>
        <time>2020-08-23T09:11:59Z</time>
      </trkpt>
      <trkpt lat="41.871667" lon="0.334316">
        <ele>313.265</ele>
        <time>2020-08-23T09:12:00Z</time>
      </trkpt>
      <trkpt lat="41.871663" lon="0.334199">
        <ele>313.211</ele>
        <time>2020-08-23T09:12:02Z</time>
      </trkpt>
      <trkpt lat="41.871666" lon="0.334083">
        <ele>313.308</ele>
        <time>2020-08-23T09:12:04Z</time>
      </trkpt>
      <trkpt lat="41.871668" lon="0.333964">
        <ele>313.446</ele>
        <time>2020-08-23T09:12:06Z</time>
      </trkpt>
      <trkpt lat="41.871683" lon="0.333843">
        <ele>313.736</ele>
        <time>2020-08-23T09:12:08Z</time>
      </trkpt>
      <trkpt lat="41.871698" lon="0.333777">
        <ele>313.784</ele>
        <time>2020-08-23T09:12:09Z</time>
      </trkpt>
      <trkpt lat="41.871711" lon="0.333712">
        <ele>313.766</ele>
        <time>2020-08-23T09:12:10Z</time>
      </trkpt>
      <trkpt lat="41.871723" lon="0.333649">
        <ele>313.717</ele>
        <time>2020-08-23T09:12:11Z</time>
      </trkpt>
      <trkpt lat="41.871728" lon="0.333582">
        <ele>313.668</ele>
        <time>2020-08-23T09:12:12Z</time>
      </trkpt>
      <trkpt lat="41.871735" lon="0.333521">
        <ele>313.534</ele>
        <time>2020-08-23T09:12:13Z</time>
      </trkpt>
      <trkpt lat="41.871757" lon="0.333406">
        <ele>313.483</ele>
        <time>2020-08-23T09:12:15Z</time>
      </trkpt>
      <trkpt lat="41.871770" lon="0.333344">
        <ele>313.351</ele>
        <time>2020-08-23T09:12:16Z</time>
      </trkpt>
      <trkpt lat="41.871782" lon="0.333285">
        <ele>313.301</ele>
        <time>2020-08-23T09:12:17Z</time>
      </trkpt>
      <trkpt lat="41.871803" lon="0.333190">
        <ele>313.211</ele>
        <time>2020-08-23T09:12:19Z</time>
      </trkpt>
      <trkpt lat="41.871812" lon="0.333125">
        <ele>313.108</ele>
        <time>2020-08-23T09:12:20Z</time>
      </trkpt>
      <trkpt lat="41.871817" lon="0.333058">
        <ele>313.130</ele>
        <time>2020-08-23T09:12:21Z</time>
      </trkpt>
      <trkpt lat="41.871844" lon="0.332929">
        <ele>312.960</ele>
        <time>2020-08-23T09:12:23Z</time>
      </trkpt>
      <trkpt lat="41.871872" lon="0.332824">
        <ele>312.838</ele>
        <time>2020-08-23T09:12:24Z</time>
      </trkpt>
      <trkpt lat="41.871898" lon="0.332740">
        <ele>312.770</ele>
        <time>2020-08-23T09:12:25Z</time>
      </trkpt>
      <trkpt lat="41.871926" lon="0.332668">
        <ele>312.631</ele>
        <time>2020-08-23T09:12:26Z</time>
      </trkpt>
      <trkpt lat="41.871951" lon="0.332589">
        <ele>312.552</ele>
        <time>2020-08-23T09:12:27Z</time>
      </trkpt>
      <trkpt lat="41.871973" lon="0.332526">
        <ele>312.448</ele>
        <time>2020-08-23T09:12:28Z</time>
      </trkpt>
      <trkpt lat="41.871998" lon="0.332465">
        <ele>312.437</ele>
        <time>2020-08-23T09:12:29Z</time>
      </trkpt>
      <trkpt lat="41.872018" lon="0.332359">
        <ele>312.479</ele>
        <time>2020-08-23T09:12:31Z</time>
      </trkpt>
      <trkpt lat="41.872034" lon="0.332294">
        <ele>312.405</ele>
        <time>2020-08-23T09:12:32Z</time>
      </trkpt>
      <trkpt lat="41.872055" lon="0.332229">
        <ele>312.425</ele>
        <time>2020-08-23T09:12:33Z</time>
      </trkpt>
      <trkpt lat="41.872074" lon="0.332160">
        <ele>312.308</ele>
        <time>2020-08-23T09:12:34Z</time>
      </trkpt>
      <trkpt lat="41.872096" lon="0.332089">
        <ele>312.252</ele>
        <time>2020-08-23T09:12:35Z</time>
      </trkpt>
      <trkpt lat="41.872121" lon="0.332025">
        <ele>312.182</ele>
        <time>2020-08-23T09:12:36Z</time>
      </trkpt>
      <trkpt lat="41.872147" lon="0.331953">
        <ele>312.050</ele>
        <time>2020-08-23T09:12:37Z</time>
      </trkpt>
      <trkpt lat="41.872177" lon="0.331892">
        <ele>311.982</ele>
        <time>2020-08-23T09:12:38Z</time>
      </trkpt>
      <trkpt lat="41.872206" lon="0.331833">
        <ele>311.993</ele>
        <time>2020-08-23T09:12:39Z</time>
      </trkpt>
      <trkpt lat="41.872232" lon="0.331773">
        <ele>311.914</ele>
        <time>2020-08-23T09:12:40Z</time>
      </trkpt>
      <trkpt lat="41.872259" lon="0.331712">
        <ele>311.940</ele>
        <time>2020-08-23T09:12:41Z</time>
      </trkpt>
      <trkpt lat="41.872283" lon="0.331643">
        <ele>311.969</ele>
        <time>2020-08-23T09:12:42Z</time>
      </trkpt>
      <trkpt lat="41.872319" lon="0.331569">
        <ele>311.944</ele>
        <time>2020-08-23T09:12:43Z</time>
      </trkpt>
      <trkpt lat="41.872358" lon="0.331491">
        <ele>311.905</ele>
        <time>2020-08-23T09:12:44Z</time>
      </trkpt>
      <trkpt lat="41.872395" lon="0.331429">
        <ele>311.915</ele>
        <time>2020-08-23T09:12:45Z</time>
      </trkpt>
      <trkpt lat="41.872422" lon="0.331380">
        <ele>311.908</ele>
        <time>2020-08-23T09:12:46Z</time>
      </trkpt>
      <trkpt lat="41.872454" lon="0.331320">
        <ele>311.879</ele>
        <time>2020-08-23T09:12:47Z</time>
      </trkpt>
      <trkpt lat="41.872487" lon="0.331267">
        <ele>311.859</ele>
        <time>2020-08-23T09:12:48Z</time>
      </trkpt>
      <trkpt lat="41.872515" lon="0.331211">
        <ele>311.857</ele>
        <time>2020-08-23T09:12:49Z</time>
      </trkpt>
      <trkpt lat="41.872540" lon="0.331158">
        <ele>311.869</ele>
        <time>2020-08-23T09:12:50Z</time>
      </trkpt>
      <trkpt lat="41.872567" lon="0.331102">
        <ele>311.810</ele>
        <time>2020-08-23T09:12:51Z</time>
      </trkpt>
      <trkpt lat="41.872598" lon="0.331042">
        <ele>311.881</ele>
        <time>2020-08-23T09:12:52Z</time>
      </trkpt>
      <trkpt lat="41.872644" lon="0.330934">
        <ele>311.797</ele>
        <time>2020-08-23T09:12:54Z</time>
      </trkpt>
      <trkpt lat="41.872674" lon="0.330873">
        <ele>311.776</ele>
        <time>2020-08-23T09:12:55Z</time>
      </trkpt>
      <trkpt lat="41.872701" lon="0.330807">
        <ele>311.721</ele>
        <time>2020-08-23T09:12:56Z</time>
      </trkpt>
      <trkpt lat="41.872725" lon="0.330746">
        <ele>311.641</ele>
        <time>2020-08-23T09:12:57Z</time>
      </trkpt>
      <trkpt lat="41.872769" lon="0.330639">
        <ele>311.505</ele>
        <time>2020-08-23T09:12:59Z</time>
      </trkpt>
      <trkpt lat="41.872794" lon="0.330585">
        <ele>311.408</ele>
        <time>2020-08-23T09:13:00Z</time>
      </trkpt>
      <trkpt lat="41.872820" lon="0.330519">
        <ele>311.437</ele>
        <time>2020-08-23T09:13:01Z</time>
      </trkpt>
      <trkpt lat="41.872850" lon="0.330454">
        <ele>311.427</ele>
        <time>2020-08-23T09:13:02Z</time>
      </trkpt>
      <trkpt lat="41.872871" lon="0.330381">
        <ele>311.415</ele>
        <time>2020-08-23T09:13:03Z</time>
      </trkpt>
      <trkpt lat="41.872895" lon="0.330307">
        <ele>311.467</ele>
        <time>2020-08-23T09:13:04Z</time>
      </trkpt>
      <trkpt lat="41.872918" lon="0.330237">
        <ele>311.448</ele>
        <time>2020-08-23T09:13:05Z</time>
      </trkpt>
      <trkpt lat="41.872943" lon="0.330170">
        <ele>311.339</ele>
        <time>2020-08-23T09:13:06Z</time>
      </trkpt>
      <trkpt lat="41.872962" lon="0.330106">
        <ele>311.265</ele>
        <time>2020-08-23T09:13:07Z</time>
      </trkpt>
      <trkpt lat="41.872982" lon="0.330038">
        <ele>311.254</ele>
        <time>2020-08-23T09:13:08Z</time>
      </trkpt>
      <trkpt lat="41.873003" lon="0.329973">
        <ele>311.295</ele>
        <time>2020-08-23T09:13:09Z</time>
      </trkpt>
      <trkpt lat="41.873027" lon="0.329908">
        <ele>311.249</ele>
        <time>2020-08-23T09:13:10Z</time>
      </trkpt>
      <trkpt lat="41.873047" lon="0.329832">
        <ele>311.223</ele>
        <time>2020-08-23T09:13:11Z</time>
      </trkpt>
      <trkpt lat="41.873067" lon="0.329765">
        <ele>311.208</ele>
        <time>2020-08-23T09:13:12Z</time>
      </trkpt>
      <trkpt lat="41.873084" lon="0.329706">
        <ele>311.284</ele>
        <time>2020-08-23T09:13:13Z</time>
      </trkpt>
      <trkpt lat="41.873104" lon="0.329645">
        <ele>311.284</ele>
        <time>2020-08-23T09:13:14Z</time>
      </trkpt>
      <trkpt lat="41.873126" lon="0.329586">
        <ele>311.262</ele>
        <time>2020-08-23T09:13:15Z</time>
      </trkpt>
      <trkpt lat="41.873147" lon="0.329527">
        <ele>311.214</ele>
        <time>2020-08-23T09:13:16Z</time>
      </trkpt>
      <trkpt lat="41.873170" lon="0.329463">
        <ele>311.275</ele>
        <time>2020-08-23T09:13:17Z</time>
      </trkpt>
      <trkpt lat="41.873191" lon="0.329401">
        <ele>311.216</ele>
        <time>2020-08-23T09:13:18Z</time>
      </trkpt>
      <trkpt lat="41.873213" lon="0.329336">
        <ele>311.252</ele>
        <time>2020-08-23T09:13:19Z</time>
      </trkpt>
      <trkpt lat="41.873234" lon="0.329274">
        <ele>311.281</ele>
        <time>2020-08-23T09:13:20Z</time>
      </trkpt>
      <trkpt lat="41.873257" lon="0.329201">
        <ele>311.273</ele>
        <time>2020-08-23T09:13:21Z</time>
      </trkpt>
      <trkpt lat="41.873282" lon="0.329143">
        <ele>311.285</ele>
        <time>2020-08-23T09:13:22Z</time>
      </trkpt>
      <trkpt lat="41.873306" lon="0.329081">
        <ele>311.213</ele>
        <time>2020-08-23T09:13:23Z</time>
      </trkpt>
      <trkpt lat="41.873330" lon="0.329019">
        <ele>311.208</ele>
        <time>2020-08-23T09:13:24Z</time>
      </trkpt>
      <trkpt lat="41.873351" lon="0.328958">
        <ele>311.212</ele>
        <time>2020-08-23T09:13:25Z</time>
      </trkpt>
      <trkpt lat="41.873392" lon="0.328841">
        <ele>311.132</ele>
        <time>2020-08-23T09:13:27Z</time>
      </trkpt>
      <trkpt lat="41.873414" lon="0.328781">
        <ele>311.150</ele>
        <time>2020-08-23T09:13:28Z</time>
      </trkpt>
      <trkpt lat="41.873436" lon="0.328723">
        <ele>311.182</ele>
        <time>2020-08-23T09:13:29Z</time>
      </trkpt>
      <trkpt lat="41.873454" lon="0.328662">
        <ele>311.183</ele>
        <time>2020-08-23T09:13:30Z</time>
      </trkpt>
      <trkpt lat="41.873474" lon="0.328597">
        <ele>311.174</ele>
        <time>2020-08-23T09:13:31Z</time>
      </trkpt>
      <trkpt lat="41.873490" lon="0.328530">
        <ele>311.120</ele>
        <time>2020-08-23T09:13:32Z</time>
      </trkpt>
      <trkpt lat="41.873508" lon="0.328461">
        <ele>311.139</ele>
        <time>2020-08-23T09:13:33Z</time>
      </trkpt>
      <trkpt lat="41.873526" lon="0.328397">
        <ele>311.114</ele>
        <time>2020-08-23T09:13:34Z</time>
      </trkpt>
      <trkpt lat="41.873541" lon="0.328318">
        <ele>311.154</ele>
        <time>2020-08-23T09:13:35Z</time>
      </trkpt>
      <trkpt lat="41.873559" lon="0.328249">
        <ele>311.109</ele>
        <time>2020-08-23T09:13:36Z</time>
      </trkpt>
      <trkpt lat="41.873577" lon="0.328171">
        <ele>311.108</ele>
        <time>2020-08-23T09:13:37Z</time>
      </trkpt>
      <trkpt lat="41.873595" lon="0.328102">
        <ele>311.176</ele>
        <time>2020-08-23T09:13:38Z</time>
      </trkpt>
      <trkpt lat="41.873620" lon="0.328030">
        <ele>311.146</ele>
        <time>2020-08-23T09:13:39Z</time>
      </trkpt>
      <trkpt lat="41.873641" lon="0.327966">
        <ele>311.114</ele>
        <time>2020-08-23T09:13:40Z</time>
      </trkpt>
      <trkpt lat="41.873664" lon="0.327903">
        <ele>311.066</ele>
        <time>2020-08-23T09:13:41Z</time>
      </trkpt>
      <trkpt lat="41.873686" lon="0.327841">
        <ele>310.917</ele>
        <time>2020-08-23T09:13:42Z</time>
      </trkpt>
      <trkpt lat="41.873702" lon="0.327778">
        <ele>310.878</ele>
        <time>2020-08-23T09:13:43Z</time>
      </trkpt>
      <trkpt lat="41.873715" lon="0.327711">
        <ele>310.884</ele>
        <time>2020-08-23T09:13:44Z</time>
      </trkpt>
      <trkpt lat="41.873729" lon="0.327647">
        <ele>310.893</ele>
        <time>2020-08-23T09:13:45Z</time>
      </trkpt>
      <trkpt lat="41.873748" lon="0.327572">
        <ele>310.823</ele>
        <time>2020-08-23T09:13:46Z</time>
      </trkpt>
      <trkpt lat="41.873761" lon="0.327502">
        <ele>310.883</ele>
        <time>2020-08-23T09:13:47Z</time>
      </trkpt>
      <trkpt lat="41.873771" lon="0.327431">
        <ele>310.811</ele>
        <time>2020-08-23T09:13:48Z</time>
      </trkpt>
      <trkpt lat="41.873789" lon="0.327368">
        <ele>310.808</ele>
        <time>2020-08-23T09:13:49Z</time>
      </trkpt>
      <trkpt lat="41.873810" lon="0.327306">
        <ele>310.887</ele>
        <time>2020-08-23T09:13:50Z</time>
      </trkpt>
      <trkpt lat="41.873830" lon="0.327241">
        <ele>310.877</ele>
        <time>2020-08-23T09:13:51Z</time>
      </trkpt>
      <trkpt lat="41.873856" lon="0.327178">
        <ele>310.835</ele>
        <time>2020-08-23T09:13:52Z</time>
      </trkpt>
      <trkpt lat="41.873880" lon="0.327114">
        <ele>310.897</ele>
        <time>2020-08-23T09:13:53Z</time>
      </trkpt>
      <trkpt lat="41.873903" lon="0.327052">
        <ele>310.998</ele>
        <time>2020-08-23T09:13:54Z</time>
      </trkpt>
      <trkpt lat="41.873921" lon="0.326993">
        <ele>310.949</ele>
        <time>2020-08-23T09:13:55Z</time>
      </trkpt>
      <trkpt lat="41.873949" lon="0.326908">
        <ele>310.955</ele>
        <time>2020-08-23T09:13:57Z</time>
      </trkpt>
      <trkpt lat="41.873967" lon="0.326848">
        <ele>310.954</ele>
        <time>2020-08-23T09:13:58Z</time>
      </trkpt>
      <trkpt lat="41.873985" lon="0.326786">
        <ele>310.939</ele>
        <time>2020-08-23T09:13:59Z</time>
      </trkpt>
      <trkpt lat="41.874009" lon="0.326670">
        <ele>310.901</ele>
        <time>2020-08-23T09:14:01Z</time>
      </trkpt>
      <trkpt lat="41.874029" lon="0.326564">
        <ele>311.021</ele>
        <time>2020-08-23T09:14:03Z</time>
      </trkpt>
      <trkpt lat="41.874039" lon="0.326495">
        <ele>311.108</ele>
        <time>2020-08-23T09:14:04Z</time>
      </trkpt>
      <trkpt lat="41.874042" lon="0.326420">
        <ele>311.128</ele>
        <time>2020-08-23T09:14:05Z</time>
      </trkpt>
      <trkpt lat="41.874046" lon="0.326357">
        <ele>311.158</ele>
        <time>2020-08-23T09:14:06Z</time>
      </trkpt>
      <trkpt lat="41.874053" lon="0.326294">
        <ele>311.196</ele>
        <time>2020-08-23T09:14:07Z</time>
      </trkpt>
      <trkpt lat="41.874067" lon="0.326192">
        <ele>311.188</ele>
        <time>2020-08-23T09:14:09Z</time>
      </trkpt>
      <trkpt lat="41.874088" lon="0.326075">
        <ele>311.199</ele>
        <time>2020-08-23T09:14:11Z</time>
      </trkpt>
      <trkpt lat="41.874102" lon="0.326017">
        <ele>311.210</ele>
        <time>2020-08-23T09:14:12Z</time>
      </trkpt>
      <trkpt lat="41.874121" lon="0.325961">
        <ele>311.386</ele>
        <time>2020-08-23T09:14:13Z</time>
      </trkpt>
      <trkpt lat="41.874144" lon="0.325895">
        <ele>311.415</ele>
        <time>2020-08-23T09:14:14Z</time>
      </trkpt>
      <trkpt lat="41.874166" lon="0.325836">
        <ele>311.579</ele>
        <time>2020-08-23T09:14:15Z</time>
      </trkpt>
      <trkpt lat="41.874186" lon="0.325780">
        <ele>311.605</ele>
        <time>2020-08-23T09:14:16Z</time>
      </trkpt>
      <trkpt lat="41.874212" lon="0.325725">
        <ele>311.625</ele>
        <time>2020-08-23T09:14:17Z</time>
      </trkpt>
      <trkpt lat="41.874236" lon="0.325667">
        <ele>311.708</ele>
        <time>2020-08-23T09:14:18Z</time>
      </trkpt>
      <trkpt lat="41.874257" lon="0.325612">
        <ele>311.732</ele>
        <time>2020-08-23T09:14:19Z</time>
      </trkpt>
      <trkpt lat="41.874276" lon="0.325556">
        <ele>311.732</ele>
        <time>2020-08-23T09:14:20Z</time>
      </trkpt>
      <trkpt lat="41.874309" lon="0.325446">
        <ele>311.740</ele>
        <time>2020-08-23T09:14:22Z</time>
      </trkpt>
      <trkpt lat="41.874329" lon="0.325388">
        <ele>311.782</ele>
        <time>2020-08-23T09:14:23Z</time>
      </trkpt>
      <trkpt lat="41.874348" lon="0.325333">
        <ele>311.733</ele>
        <time>2020-08-23T09:14:24Z</time>
      </trkpt>
      <trkpt lat="41.874366" lon="0.325276">
        <ele>311.724</ele>
        <time>2020-08-23T09:14:25Z</time>
      </trkpt>
      <trkpt lat="41.874398" lon="0.325160">
        <ele>311.890</ele>
        <time>2020-08-23T09:14:27Z</time>
      </trkpt>
      <trkpt lat="41.874412" lon="0.325103">
        <ele>311.839</ele>
        <time>2020-08-23T09:14:28Z</time>
      </trkpt>
      <trkpt lat="41.874433" lon="0.325041">
        <ele>311.874</ele>
        <time>2020-08-23T09:14:29Z</time>
      </trkpt>
      <trkpt lat="41.874475" lon="0.324929">
        <ele>311.956</ele>
        <time>2020-08-23T09:14:31Z</time>
      </trkpt>
      <trkpt lat="41.874504" lon="0.324866">
        <ele>311.921</ele>
        <time>2020-08-23T09:14:32Z</time>
      </trkpt>
      <trkpt lat="41.874545" lon="0.324768">
        <ele>312.008</ele>
        <time>2020-08-23T09:14:34Z</time>
      </trkpt>
      <trkpt lat="41.874586" lon="0.324684">
        <ele>312.142</ele>
        <time>2020-08-23T09:14:36Z</time>
      </trkpt>
      <trkpt lat="41.874613" lon="0.324634">
        <ele>312.192</ele>
        <time>2020-08-23T09:14:37Z</time>
      </trkpt>
      <trkpt lat="41.874642" lon="0.324583">
        <ele>312.160</ele>
        <time>2020-08-23T09:14:38Z</time>
      </trkpt>
      <trkpt lat="41.874672" lon="0.324530">
        <ele>312.172</ele>
        <time>2020-08-23T09:14:39Z</time>
      </trkpt>
      <trkpt lat="41.874722" lon="0.324435">
        <ele>312.263</ele>
        <time>2020-08-23T09:14:41Z</time>
      </trkpt>
      <trkpt lat="41.874770" lon="0.324346">
        <ele>312.494</ele>
        <time>2020-08-23T09:14:43Z</time>
      </trkpt>
      <trkpt lat="41.874810" lon="0.324266">
        <ele>312.510</ele>
        <time>2020-08-23T09:14:45Z</time>
      </trkpt>
      <trkpt lat="41.874859" lon="0.324180">
        <ele>312.659</ele>
        <time>2020-08-23T09:14:47Z</time>
      </trkpt>
      <trkpt lat="41.874917" lon="0.324090">
        <ele>312.785</ele>
        <time>2020-08-23T09:14:49Z</time>
      </trkpt>
      <trkpt lat="41.874950" lon="0.324039">
        <ele>312.889</ele>
        <time>2020-08-23T09:14:50Z</time>
      </trkpt>
      <trkpt lat="41.875015" lon="0.323957">
        <ele>313.017</ele>
        <time>2020-08-23T09:14:52Z</time>
      </trkpt>
      <trkpt lat="41.875049" lon="0.323909">
        <ele>313.108</ele>
        <time>2020-08-23T09:14:53Z</time>
      </trkpt>
      <trkpt lat="41.875100" lon="0.323844">
        <ele>313.383</ele>
        <time>2020-08-23T09:14:55Z</time>
      </trkpt>
      <trkpt lat="41.875141" lon="0.323780">
        <ele>313.513</ele>
        <time>2020-08-23T09:14:57Z</time>
      </trkpt>
      <trkpt lat="41.875210" lon="0.323706">
        <ele>313.741</ele>
        <time>2020-08-23T09:14:59Z</time>
      </trkpt>
      <trkpt lat="41.875245" lon="0.323653">
        <ele>314.083</ele>
        <time>2020-08-23T09:15:01Z</time>
      </trkpt>
      <trkpt lat="41.875287" lon="0.323575">
        <ele>314.284</ele>
        <time>2020-08-23T09:15:03Z</time>
      </trkpt>
      <trkpt lat="41.875325" lon="0.323486">
        <ele>314.495</ele>
        <time>2020-08-23T09:15:05Z</time>
      </trkpt>
      <trkpt lat="41.875343" lon="0.323422">
        <ele>314.531</ele>
        <time>2020-08-23T09:15:06Z</time>
      </trkpt>
      <trkpt lat="41.875367" lon="0.323329">
        <ele>314.710</ele>
        <time>2020-08-23T09:15:08Z</time>
      </trkpt>
      <trkpt lat="41.875402" lon="0.323244">
        <ele>314.969</ele>
        <time>2020-08-23T09:15:10Z</time>
      </trkpt>
      <trkpt lat="41.875425" lon="0.323174">
        <ele>315.004</ele>
        <time>2020-08-23T09:15:12Z</time>
      </trkpt>
      <trkpt lat="41.875458" lon="0.323085">
        <ele>315.124</ele>
        <time>2020-08-23T09:15:14Z</time>
      </trkpt>
      <trkpt lat="41.875492" lon="0.322992">
        <ele>315.408</ele>
        <time>2020-08-23T09:15:16Z</time>
      </trkpt>
      <trkpt lat="41.875535" lon="0.322912">
        <ele>315.691</ele>
        <time>2020-08-23T09:15:18Z</time>
      </trkpt>
      <trkpt lat="41.875583" lon="0.322827">
        <ele>315.591</ele>
        <time>2020-08-23T09:15:20Z</time>
      </trkpt>
      <trkpt lat="41.875615" lon="0.322772">
        <ele>315.449</ele>
        <time>2020-08-23T09:15:21Z</time>
      </trkpt>
      <trkpt lat="41.875652" lon="0.322685">
        <ele>315.341</ele>
        <time>2020-08-23T09:15:22Z</time>
      </trkpt>
      <trkpt lat="41.875682" lon="0.322615">
        <ele>315.232</ele>
        <time>2020-08-23T09:15:23Z</time>
      </trkpt>
      <trkpt lat="41.875715" lon="0.322538">
        <ele>315.073</ele>
        <time>2020-08-23T09:15:24Z</time>
      </trkpt>
      <trkpt lat="41.875745" lon="0.322470">
        <ele>314.819</ele>
        <time>2020-08-23T09:15:25Z</time>
      </trkpt>
      <trkpt lat="41.875779" lon="0.322404">
        <ele>314.658</ele>
        <time>2020-08-23T09:15:26Z</time>
      </trkpt>
      <trkpt lat="41.875810" lon="0.322339">
        <ele>314.415</ele>
        <time>2020-08-23T09:15:27Z</time>
      </trkpt>
      <trkpt lat="41.875840" lon="0.322264">
        <ele>314.265</ele>
        <time>2020-08-23T09:15:28Z</time>
      </trkpt>
      <trkpt lat="41.875858" lon="0.322189">
        <ele>314.011</ele>
        <time>2020-08-23T09:15:29Z</time>
      </trkpt>
      <trkpt lat="41.875873" lon="0.322114">
        <ele>313.908</ele>
        <time>2020-08-23T09:15:30Z</time>
      </trkpt>
      <trkpt lat="41.875893" lon="0.322046">
        <ele>313.856</ele>
        <time>2020-08-23T09:15:31Z</time>
      </trkpt>
      <trkpt lat="41.875908" lon="0.321973">
        <ele>313.796</ele>
        <time>2020-08-23T09:15:32Z</time>
      </trkpt>
      <trkpt lat="41.875925" lon="0.321913">
        <ele>313.624</ele>
        <time>2020-08-23T09:15:33Z</time>
      </trkpt>
      <trkpt lat="41.875939" lon="0.321850">
        <ele>313.526</ele>
        <time>2020-08-23T09:15:34Z</time>
      </trkpt>
      <trkpt lat="41.875949" lon="0.321784">
        <ele>313.467</ele>
        <time>2020-08-23T09:15:35Z</time>
      </trkpt>
      <trkpt lat="41.875963" lon="0.321719">
        <ele>313.498</ele>
        <time>2020-08-23T09:15:36Z</time>
      </trkpt>
      <trkpt lat="41.875971" lon="0.321642">
        <ele>313.354</ele>
        <time>2020-08-23T09:15:37Z</time>
      </trkpt>
      <trkpt lat="41.875982" lon="0.321564">
        <ele>313.263</ele>
        <time>2020-08-23T09:15:38Z</time>
      </trkpt>
      <trkpt lat="41.875995" lon="0.321505">
        <ele>313.023</ele>
        <time>2020-08-23T09:15:39Z</time>
      </trkpt>
      <trkpt lat="41.876008" lon="0.321446">
        <ele>312.883</ele>
        <time>2020-08-23T09:15:40Z</time>
      </trkpt>
      <trkpt lat="41.876020" lon="0.321317">
        <ele>312.411</ele>
        <time>2020-08-23T09:15:42Z</time>
      </trkpt>
      <trkpt lat="41.876030" lon="0.321244">
        <ele>312.308</ele>
        <time>2020-08-23T09:15:43Z</time>
      </trkpt>
      <trkpt lat="41.876040" lon="0.321167">
        <ele>312.247</ele>
        <time>2020-08-23T09:15:44Z</time>
      </trkpt>
      <trkpt lat="41.876048" lon="0.321102">
        <ele>312.097</ele>
        <time>2020-08-23T09:15:45Z</time>
      </trkpt>
      <trkpt lat="41.876060" lon="0.321023">
        <ele>311.865</ele>
        <time>2020-08-23T09:15:46Z</time>
      </trkpt>
      <trkpt lat="41.876070" lon="0.320944">
        <ele>311.577</ele>
        <time>2020-08-23T09:15:47Z</time>
      </trkpt>
      <trkpt lat="41.876087" lon="0.320866">
        <ele>311.278</ele>
        <time>2020-08-23T09:15:48Z</time>
      </trkpt>
      <trkpt lat="41.876101" lon="0.320780">
        <ele>310.929</ele>
        <time>2020-08-23T09:15:49Z</time>
      </trkpt>
      <trkpt lat="41.876115" lon="0.320694">
        <ele>310.645</ele>
        <time>2020-08-23T09:15:50Z</time>
      </trkpt>
      <trkpt lat="41.876129" lon="0.320610">
        <ele>310.444</ele>
        <time>2020-08-23T09:15:51Z</time>
      </trkpt>
      <trkpt lat="41.876140" lon="0.320527">
        <ele>310.264</ele>
        <time>2020-08-23T09:15:52Z</time>
      </trkpt>
      <trkpt lat="41.876148" lon="0.320464">
        <ele>310.006</ele>
        <time>2020-08-23T09:15:53Z</time>
      </trkpt>
      <trkpt lat="41.876171" lon="0.320402">
        <ele>309.616</ele>
        <time>2020-08-23T09:15:54Z</time>
      </trkpt>
      <trkpt lat="41.876205" lon="0.320350">
        <ele>309.408</ele>
        <time>2020-08-23T09:15:55Z</time>
      </trkpt>
      <trkpt lat="41.876248" lon="0.320306">
        <ele>309.221</ele>
        <time>2020-08-23T09:15:56Z</time>
      </trkpt>
      <trkpt lat="41.876293" lon="0.320265">
        <ele>309.051</ele>
        <time>2020-08-23T09:15:57Z</time>
      </trkpt>
      <trkpt lat="41.876339" lon="0.320224">
        <ele>308.869</ele>
        <time>2020-08-23T09:15:58Z</time>
      </trkpt>
      <trkpt lat="41.876383" lon="0.320174">
        <ele>308.781</ele>
        <time>2020-08-23T09:15:59Z</time>
      </trkpt>
      <trkpt lat="41.876422" lon="0.320134">
        <ele>308.682</ele>
        <time>2020-08-23T09:16:00Z</time>
      </trkpt>
      <trkpt lat="41.876498" lon="0.320050">
        <ele>308.573</ele>
        <time>2020-08-23T09:16:02Z</time>
      </trkpt>
      <trkpt lat="41.876547" lon="0.319968">
        <ele>308.589</ele>
        <time>2020-08-23T09:16:04Z</time>
      </trkpt>
      <trkpt lat="41.876582" lon="0.319916">
        <ele>308.498</ele>
        <time>2020-08-23T09:16:05Z</time>
      </trkpt>
      <trkpt lat="41.876628" lon="0.319858">
        <ele>308.372</ele>
        <time>2020-08-23T09:16:06Z</time>
      </trkpt>
      <trkpt lat="41.876668" lon="0.319805">
        <ele>308.213</ele>
        <time>2020-08-23T09:16:07Z</time>
      </trkpt>
      <trkpt lat="41.876703" lon="0.319759">
        <ele>308.214</ele>
        <time>2020-08-23T09:16:08Z</time>
      </trkpt>
      <trkpt lat="41.876742" lon="0.319706">
        <ele>308.108</ele>
        <time>2020-08-23T09:16:09Z</time>
      </trkpt>
      <trkpt lat="41.876787" lon="0.319659">
        <ele>308.162</ele>
        <time>2020-08-23T09:16:10Z</time>
      </trkpt>
      <trkpt lat="41.876824" lon="0.319616">
        <ele>308.112</ele>
        <time>2020-08-23T09:16:11Z</time>
      </trkpt>
      <trkpt lat="41.876865" lon="0.319562">
        <ele>308.140</ele>
        <time>2020-08-23T09:16:12Z</time>
      </trkpt>
      <trkpt lat="41.876899" lon="0.319515">
        <ele>308.182</ele>
        <time>2020-08-23T09:16:13Z</time>
      </trkpt>
      <trkpt lat="41.876931" lon="0.319462">
        <ele>308.153</ele>
        <time>2020-08-23T09:16:14Z</time>
      </trkpt>
      <trkpt lat="41.876964" lon="0.319404">
        <ele>308.144</ele>
        <time>2020-08-23T09:16:15Z</time>
      </trkpt>
      <trkpt lat="41.877001" lon="0.319347">
        <ele>308.160</ele>
        <time>2020-08-23T09:16:16Z</time>
      </trkpt>
      <trkpt lat="41.877027" lon="0.319297">
        <ele>308.149</ele>
        <time>2020-08-23T09:16:17Z</time>
      </trkpt>
      <trkpt lat="41.877054" lon="0.319239">
        <ele>308.196</ele>
        <time>2020-08-23T09:16:18Z</time>
      </trkpt>
      <trkpt lat="41.877083" lon="0.319180">
        <ele>308.131</ele>
        <time>2020-08-23T09:16:19Z</time>
      </trkpt>
      <trkpt lat="41.877117" lon="0.319121">
        <ele>308.124</ele>
        <time>2020-08-23T09:16:20Z</time>
      </trkpt>
      <trkpt lat="41.877169" lon="0.319013">
        <ele>308.108</ele>
        <time>2020-08-23T09:16:22Z</time>
      </trkpt>
      <trkpt lat="41.877199" lon="0.318954">
        <ele>308.274</ele>
        <time>2020-08-23T09:16:23Z</time>
      </trkpt>
      <trkpt lat="41.877223" lon="0.318896">
        <ele>308.234</ele>
        <time>2020-08-23T09:16:24Z</time>
      </trkpt>
      <trkpt lat="41.877251" lon="0.318839">
        <ele>308.292</ele>
        <time>2020-08-23T09:16:25Z</time>
      </trkpt>
      <trkpt lat="41.877297" lon="0.318735">
        <ele>308.264</ele>
        <time>2020-08-23T09:16:27Z</time>
      </trkpt>
      <trkpt lat="41.877326" lon="0.318673">
        <ele>308.225</ele>
        <time>2020-08-23T09:16:28Z</time>
      </trkpt>
      <trkpt lat="41.877349" lon="0.318617">
        <ele>308.256</ele>
        <time>2020-08-23T09:16:29Z</time>
      </trkpt>
      <trkpt lat="41.877378" lon="0.318564">
        <ele>308.392</ele>
        <time>2020-08-23T09:16:30Z</time>
      </trkpt>
      <trkpt lat="41.877424" lon="0.318459">
        <ele>308.481</ele>
        <time>2020-08-23T09:16:32Z</time>
      </trkpt>
      <trkpt lat="41.877451" lon="0.318405">
        <ele>308.596</ele>
        <time>2020-08-23T09:16:33Z</time>
      </trkpt>
      <trkpt lat="41.877483" lon="0.318351">
        <ele>308.531</ele>
        <time>2020-08-23T09:16:34Z</time>
      </trkpt>
      <trkpt lat="41.877511" lon="0.318295">
        <ele>308.624</ele>
        <time>2020-08-23T09:16:35Z</time>
      </trkpt>
      <trkpt lat="41.877539" lon="0.318245">
        <ele>308.708</ele>
        <time>2020-08-23T09:16:36Z</time>
      </trkpt>
      <trkpt lat="41.877583" lon="0.318158">
        <ele>308.894</ele>
        <time>2020-08-23T09:16:38Z</time>
      </trkpt>
      <trkpt lat="41.877627" lon="0.318060">
        <ele>309.074</ele>
        <time>2020-08-23T09:16:40Z</time>
      </trkpt>
      <trkpt lat="41.877653" lon="0.318011">
        <ele>309.192</ele>
        <time>2020-08-23T09:16:41Z</time>
      </trkpt>
      <trkpt lat="41.877695" lon="0.317921">
        <ele>309.314</ele>
        <time>2020-08-23T09:16:43Z</time>
      </trkpt>
      <trkpt lat="41.877736" lon="0.317818">
        <ele>309.535</ele>
        <time>2020-08-23T09:16:45Z</time>
      </trkpt>
      <trkpt lat="41.877776" lon="0.317714">
        <ele>309.746</ele>
        <time>2020-08-23T09:16:47Z</time>
      </trkpt>
      <trkpt lat="41.877797" lon="0.317657">
        <ele>309.832</ele>
        <time>2020-08-23T09:16:48Z</time>
      </trkpt>
      <trkpt lat="41.877818" lon="0.317604">
        <ele>309.951</ele>
        <time>2020-08-23T09:16:49Z</time>
      </trkpt>
      <trkpt lat="41.877854" lon="0.317510">
        <ele>310.311</ele>
        <time>2020-08-23T09:16:51Z</time>
      </trkpt>
      <trkpt lat="41.877877" lon="0.317423">
        <ele>310.621</ele>
        <time>2020-08-23T09:16:53Z</time>
      </trkpt>
      <trkpt lat="41.877907" lon="0.317323">
        <ele>310.803</ele>
        <time>2020-08-23T09:16:55Z</time>
      </trkpt>
      <trkpt lat="41.877931" lon="0.317216">
        <ele>310.908</ele>
        <time>2020-08-23T09:16:57Z</time>
      </trkpt>
      <trkpt lat="41.877954" lon="0.317162">
        <ele>311.096</ele>
        <time>2020-08-23T09:16:58Z</time>
      </trkpt>
      <trkpt lat="41.877989" lon="0.317061">
        <ele>311.146</ele>
        <time>2020-08-23T09:17:00Z</time>
      </trkpt>
      <trkpt lat="41.878020" lon="0.316977">
        <ele>311.484</ele>
        <time>2020-08-23T09:17:02Z</time>
      </trkpt>
      <trkpt lat="41.878057" lon="0.316877">
        <ele>311.656</ele>
        <time>2020-08-23T09:17:04Z</time>
      </trkpt>
      <trkpt lat="41.878103" lon="0.316770">
        <ele>311.927</ele>
        <time>2020-08-23T09:17:06Z</time>
      </trkpt>
      <trkpt lat="41.878150" lon="0.316668">
        <ele>312.118</ele>
        <time>2020-08-23T09:17:08Z</time>
      </trkpt>
      <trkpt lat="41.878177" lon="0.316580">
        <ele>312.214</ele>
        <time>2020-08-23T09:17:10Z</time>
      </trkpt>
      <trkpt lat="41.878214" lon="0.316486">
        <ele>312.453</ele>
        <time>2020-08-23T09:17:12Z</time>
      </trkpt>
      <trkpt lat="41.878254" lon="0.316402">
        <ele>312.774</ele>
        <time>2020-08-23T09:17:14Z</time>
      </trkpt>
      <trkpt lat="41.878297" lon="0.316318">
        <ele>312.956</ele>
        <time>2020-08-23T09:17:16Z</time>
      </trkpt>
      <trkpt lat="41.878343" lon="0.316238">
        <ele>313.121</ele>
        <time>2020-08-23T09:17:18Z</time>
      </trkpt>
      <trkpt lat="41.878372" lon="0.316167">
        <ele>313.308</ele>
        <time>2020-08-23T09:17:20Z</time>
      </trkpt>
      <trkpt lat="41.878422" lon="0.316092">
        <ele>313.552</ele>
        <time>2020-08-23T09:17:22Z</time>
      </trkpt>
      <trkpt lat="41.878478" lon="0.316009">
        <ele>313.852</ele>
        <time>2020-08-23T09:17:24Z</time>
      </trkpt>
      <trkpt lat="41.878529" lon="0.315942">
        <ele>313.940</ele>
        <time>2020-08-23T09:17:26Z</time>
      </trkpt>
      <trkpt lat="41.878577" lon="0.315886">
        <ele>314.072</ele>
        <time>2020-08-23T09:17:28Z</time>
      </trkpt>
      <trkpt lat="41.878619" lon="0.315841">
        <ele>314.133</ele>
        <time>2020-08-23T09:17:30Z</time>
      </trkpt>
      <trkpt lat="41.878658" lon="0.315795">
        <ele>314.384</ele>
        <time>2020-08-23T09:17:32Z</time>
      </trkpt>
      <trkpt lat="41.878695" lon="0.315753">
        <ele>314.510</ele>
        <time>2020-08-23T09:17:34Z</time>
      </trkpt>
      <trkpt lat="41.878759" lon="0.315702">
        <ele>314.659</ele>
        <time>2020-08-23T09:17:37Z</time>
      </trkpt>
      <trkpt lat="41.878794" lon="0.315664">
        <ele>314.685</ele>
        <time>2020-08-23T09:17:38Z</time>
      </trkpt>
      <trkpt lat="41.878833" lon="0.315619">
        <ele>314.689</ele>
        <time>2020-08-23T09:17:39Z</time>
      </trkpt>
      <trkpt lat="41.878868" lon="0.315574">
        <ele>314.617</ele>
        <time>2020-08-23T09:17:40Z</time>
      </trkpt>
      <trkpt lat="41.878935" lon="0.315494">
        <ele>314.508</ele>
        <time>2020-08-23T09:17:42Z</time>
      </trkpt>
      <trkpt lat="41.878976" lon="0.315440">
        <ele>314.583</ele>
        <time>2020-08-23T09:17:43Z</time>
      </trkpt>
      <trkpt lat="41.879016" lon="0.315382">
        <ele>314.433</ele>
        <time>2020-08-23T09:17:44Z</time>
      </trkpt>
      <trkpt lat="41.879058" lon="0.315321">
        <ele>314.231</ele>
        <time>2020-08-23T09:17:45Z</time>
      </trkpt>
      <trkpt lat="41.879095" lon="0.315270">
        <ele>314.193</ele>
        <time>2020-08-23T09:17:46Z</time>
      </trkpt>
      <trkpt lat="41.879136" lon="0.315214">
        <ele>314.084</ele>
        <time>2020-08-23T09:17:47Z</time>
      </trkpt>
      <trkpt lat="41.879171" lon="0.315157">
        <ele>313.915</ele>
        <time>2020-08-23T09:17:48Z</time>
      </trkpt>
      <trkpt lat="41.879207" lon="0.315099">
        <ele>313.711</ele>
        <time>2020-08-23T09:17:49Z</time>
      </trkpt>
      <trkpt lat="41.879245" lon="0.315039">
        <ele>313.680</ele>
        <time>2020-08-23T09:17:50Z</time>
      </trkpt>
      <trkpt lat="41.879285" lon="0.314980">
        <ele>313.537</ele>
        <time>2020-08-23T09:17:51Z</time>
      </trkpt>
      <trkpt lat="41.879330" lon="0.314926">
        <ele>313.349</ele>
        <time>2020-08-23T09:17:52Z</time>
      </trkpt>
      <trkpt lat="41.879379" lon="0.314870">
        <ele>313.113</ele>
        <time>2020-08-23T09:17:53Z</time>
      </trkpt>
      <trkpt lat="41.879429" lon="0.314813">
        <ele>312.908</ele>
        <time>2020-08-23T09:17:54Z</time>
      </trkpt>
      <trkpt lat="41.879484" lon="0.314754">
        <ele>312.738</ele>
        <time>2020-08-23T09:17:55Z</time>
      </trkpt>
      <trkpt lat="41.879538" lon="0.314689">
        <ele>312.488</ele>
        <time>2020-08-23T09:17:56Z</time>
      </trkpt>
      <trkpt lat="41.879592" lon="0.314625">
        <ele>312.186</ele>
        <time>2020-08-23T09:17:57Z</time>
      </trkpt>
      <trkpt lat="41.879644" lon="0.314565">
        <ele>311.858</ele>
        <time>2020-08-23T09:17:58Z</time>
      </trkpt>
      <trkpt lat="41.879697" lon="0.314502">
        <ele>311.569</ele>
        <time>2020-08-23T09:17:59Z</time>
      </trkpt>
      <trkpt lat="41.879746" lon="0.314454">
        <ele>311.210</ele>
        <time>2020-08-23T09:18:00Z</time>
      </trkpt>
      <trkpt lat="41.879796" lon="0.314393">
        <ele>310.986</ele>
        <time>2020-08-23T09:18:01Z</time>
      </trkpt>
      <trkpt lat="41.879849" lon="0.314332">
        <ele>310.785</ele>
        <time>2020-08-23T09:18:02Z</time>
      </trkpt>
      <trkpt lat="41.879899" lon="0.314260">
        <ele>310.525</ele>
        <time>2020-08-23T09:18:03Z</time>
      </trkpt>
      <trkpt lat="41.879943" lon="0.314182">
        <ele>310.326</ele>
        <time>2020-08-23T09:18:04Z</time>
      </trkpt>
      <trkpt lat="41.879981" lon="0.314104">
        <ele>310.108</ele>
        <time>2020-08-23T09:18:05Z</time>
      </trkpt>
      <trkpt lat="41.880010" lon="0.314029">
        <ele>309.908</ele>
        <time>2020-08-23T09:18:06Z</time>
      </trkpt>
      <trkpt lat="41.880036" lon="0.313951">
        <ele>309.667</ele>
        <time>2020-08-23T09:18:07Z</time>
      </trkpt>
      <trkpt lat="41.880055" lon="0.313868">
        <ele>309.447</ele>
        <time>2020-08-23T09:18:08Z</time>
      </trkpt>
      <trkpt lat="41.880075" lon="0.313782">
        <ele>309.275</ele>
        <time>2020-08-23T09:18:09Z</time>
      </trkpt>
      <trkpt lat="41.880089" lon="0.313693">
        <ele>309.157</ele>
        <time>2020-08-23T09:18:10Z</time>
      </trkpt>
      <trkpt lat="41.880103" lon="0.313607">
        <ele>308.928</ele>
        <time>2020-08-23T09:18:11Z</time>
      </trkpt>
      <trkpt lat="41.880112" lon="0.313523">
        <ele>308.859</ele>
        <time>2020-08-23T09:18:12Z</time>
      </trkpt>
      <trkpt lat="41.880126" lon="0.313440">
        <ele>308.775</ele>
        <time>2020-08-23T09:18:13Z</time>
      </trkpt>
      <trkpt lat="41.880139" lon="0.313351">
        <ele>308.664</ele>
        <time>2020-08-23T09:18:14Z</time>
      </trkpt>
      <trkpt lat="41.880156" lon="0.313259">
        <ele>308.537</ele>
        <time>2020-08-23T09:18:15Z</time>
      </trkpt>
      <trkpt lat="41.880178" lon="0.313170">
        <ele>308.449</ele>
        <time>2020-08-23T09:18:16Z</time>
      </trkpt>
      <trkpt lat="41.880195" lon="0.313081">
        <ele>308.313</ele>
        <time>2020-08-23T09:18:17Z</time>
      </trkpt>
      <trkpt lat="41.880214" lon="0.312991">
        <ele>308.208</ele>
        <time>2020-08-23T09:18:18Z</time>
      </trkpt>
      <trkpt lat="41.880236" lon="0.312904">
        <ele>308.168</ele>
        <time>2020-08-23T09:18:19Z</time>
      </trkpt>
      <trkpt lat="41.880258" lon="0.312817">
        <ele>308.098</ele>
        <time>2020-08-23T09:18:20Z</time>
      </trkpt>
      <trkpt lat="41.880273" lon="0.312728">
        <ele>307.926</ele>
        <time>2020-08-23T09:18:21Z</time>
      </trkpt>
      <trkpt lat="41.880282" lon="0.312636">
        <ele>307.988</ele>
        <time>2020-08-23T09:18:22Z</time>
      </trkpt>
      <trkpt lat="41.880298" lon="0.312544">
        <ele>307.939</ele>
        <time>2020-08-23T09:18:23Z</time>
      </trkpt>
      <trkpt lat="41.880313" lon="0.312452">
        <ele>307.960</ele>
        <time>2020-08-23T09:18:24Z</time>
      </trkpt>
      <trkpt lat="41.880326" lon="0.312365">
        <ele>307.996</ele>
        <time>2020-08-23T09:18:25Z</time>
      </trkpt>
      <trkpt lat="41.880339" lon="0.312278">
        <ele>307.855</ele>
        <time>2020-08-23T09:18:26Z</time>
      </trkpt>
      <trkpt lat="41.880353" lon="0.312186">
        <ele>307.723</ele>
        <time>2020-08-23T09:18:27Z</time>
      </trkpt>
      <trkpt lat="41.880370" lon="0.312099">
        <ele>307.683</ele>
        <time>2020-08-23T09:18:28Z</time>
      </trkpt>
      <trkpt lat="41.880379" lon="0.312009">
        <ele>307.511</ele>
        <time>2020-08-23T09:18:29Z</time>
      </trkpt>
      <trkpt lat="41.880386" lon="0.311922">
        <ele>307.308</ele>
        <time>2020-08-23T09:18:30Z</time>
      </trkpt>
      <trkpt lat="41.880395" lon="0.311835">
        <ele>307.267</ele>
        <time>2020-08-23T09:18:31Z</time>
      </trkpt>
      <trkpt lat="41.880410" lon="0.311748">
        <ele>307.127</ele>
        <time>2020-08-23T09:18:32Z</time>
      </trkpt>
      <trkpt lat="41.880417" lon="0.311664">
        <ele>307.095</ele>
        <time>2020-08-23T09:18:33Z</time>
      </trkpt>
      <trkpt lat="41.880429" lon="0.311575">
        <ele>306.957</ele>
        <time>2020-08-23T09:18:34Z</time>
      </trkpt>
      <trkpt lat="41.880439" lon="0.311485">
        <ele>306.838</ele>
        <time>2020-08-23T09:18:35Z</time>
      </trkpt>
      <trkpt lat="41.880453" lon="0.311396">
        <ele>306.649</ele>
        <time>2020-08-23T09:18:36Z</time>
      </trkpt>
      <trkpt lat="41.880473" lon="0.311307">
        <ele>306.485</ele>
        <time>2020-08-23T09:18:37Z</time>
      </trkpt>
      <trkpt lat="41.880495" lon="0.311219">
        <ele>306.294</ele>
        <time>2020-08-23T09:18:38Z</time>
      </trkpt>
      <trkpt lat="41.880521" lon="0.311130">
        <ele>306.039</ele>
        <time>2020-08-23T09:18:39Z</time>
      </trkpt>
      <trkpt lat="41.880549" lon="0.311041">
        <ele>305.801</ele>
        <time>2020-08-23T09:18:40Z</time>
      </trkpt>
      <trkpt lat="41.880580" lon="0.310955">
        <ele>305.721</ele>
        <time>2020-08-23T09:18:41Z</time>
      </trkpt>
      <trkpt lat="41.880610" lon="0.310868">
        <ele>305.608</ele>
        <time>2020-08-23T09:18:42Z</time>
      </trkpt>
      <trkpt lat="41.880644" lon="0.310784">
        <ele>305.588</ele>
        <time>2020-08-23T09:18:43Z</time>
      </trkpt>
      <trkpt lat="41.880677" lon="0.310697">
        <ele>305.438</ele>
        <time>2020-08-23T09:18:44Z</time>
      </trkpt>
      <trkpt lat="41.880712" lon="0.310612">
        <ele>305.336</ele>
        <time>2020-08-23T09:18:45Z</time>
      </trkpt>
      <trkpt lat="41.880748" lon="0.310523">
        <ele>305.228</ele>
        <time>2020-08-23T09:18:46Z</time>
      </trkpt>
      <trkpt lat="41.880787" lon="0.310435">
        <ele>305.159</ele>
        <time>2020-08-23T09:18:47Z</time>
      </trkpt>
      <trkpt lat="41.880821" lon="0.310346">
        <ele>305.050</ele>
        <time>2020-08-23T09:18:48Z</time>
      </trkpt>
      <trkpt lat="41.880860" lon="0.310261">
        <ele>304.986</ele>
        <time>2020-08-23T09:18:49Z</time>
      </trkpt>
      <trkpt lat="41.880901" lon="0.310176">
        <ele>304.825</ele>
        <time>2020-08-23T09:18:50Z</time>
      </trkpt>
      <trkpt lat="41.880943" lon="0.310092">
        <ele>304.798</ele>
        <time>2020-08-23T09:18:51Z</time>
      </trkpt>
      <trkpt lat="41.880986" lon="0.310009">
        <ele>304.415</ele>
        <time>2020-08-23T09:18:52Z</time>
      </trkpt>
      <trkpt lat="41.881028" lon="0.309924">
        <ele>304.226</ele>
        <time>2020-08-23T09:18:53Z</time>
      </trkpt>
      <trkpt lat="41.881069" lon="0.309839">
        <ele>304.108</ele>
        <time>2020-08-23T09:18:54Z</time>
      </trkpt>
      <trkpt lat="41.881110" lon="0.309754">
        <ele>304.034</ele>
        <time>2020-08-23T09:18:55Z</time>
      </trkpt>
      <trkpt lat="41.881152" lon="0.309668">
        <ele>303.964</ele>
        <time>2020-08-23T09:18:56Z</time>
      </trkpt>
      <trkpt lat="41.881196" lon="0.309582">
        <ele>303.822</ele>
        <time>2020-08-23T09:18:57Z</time>
      </trkpt>
      <trkpt lat="41.881236" lon="0.309494">
        <ele>303.794</ele>
        <time>2020-08-23T09:18:58Z</time>
      </trkpt>
      <trkpt lat="41.881275" lon="0.309409">
        <ele>303.695</ele>
        <time>2020-08-23T09:18:59Z</time>
      </trkpt>
      <trkpt lat="41.881320" lon="0.309329">
        <ele>303.526</ele>
        <time>2020-08-23T09:19:00Z</time>
      </trkpt>
      <trkpt lat="41.881368" lon="0.309250">
        <ele>303.432</ele>
        <time>2020-08-23T09:19:01Z</time>
      </trkpt>
      <trkpt lat="41.881416" lon="0.309171">
        <ele>303.391</ele>
        <time>2020-08-23T09:19:02Z</time>
      </trkpt>
      <trkpt lat="41.881464" lon="0.309093">
        <ele>303.271</ele>
        <time>2020-08-23T09:19:03Z</time>
      </trkpt>
      <trkpt lat="41.881512" lon="0.309016">
        <ele>303.141</ele>
        <time>2020-08-23T09:19:04Z</time>
      </trkpt>
      <trkpt lat="41.881559" lon="0.308941">
        <ele>303.015</ele>
        <time>2020-08-23T09:19:05Z</time>
      </trkpt>
      <trkpt lat="41.881602" lon="0.308867">
        <ele>303.008</ele>
        <time>2020-08-23T09:19:06Z</time>
      </trkpt>
      <trkpt lat="41.881646" lon="0.308796">
        <ele>302.952</ele>
        <time>2020-08-23T09:19:07Z</time>
      </trkpt>
      <trkpt lat="41.881689" lon="0.308727">
        <ele>302.922</ele>
        <time>2020-08-23T09:19:08Z</time>
      </trkpt>
      <trkpt lat="41.881727" lon="0.308656">
        <ele>302.960</ele>
        <time>2020-08-23T09:19:09Z</time>
      </trkpt>
      <trkpt lat="41.881765" lon="0.308586">
        <ele>302.912</ele>
        <time>2020-08-23T09:19:10Z</time>
      </trkpt>
      <trkpt lat="41.881803" lon="0.308519">
        <ele>302.843</ele>
        <time>2020-08-23T09:19:11Z</time>
      </trkpt>
      <trkpt lat="41.881837" lon="0.308452">
        <ele>302.874</ele>
        <time>2020-08-23T09:19:12Z</time>
      </trkpt>
      <trkpt lat="41.881868" lon="0.308386">
        <ele>302.820</ele>
        <time>2020-08-23T09:19:13Z</time>
      </trkpt>
      <trkpt lat="41.881898" lon="0.308326">
        <ele>302.789</ele>
        <time>2020-08-23T09:19:14Z</time>
      </trkpt>
      <trkpt lat="41.881925" lon="0.308274">
        <ele>302.678</ele>
        <time>2020-08-23T09:19:15Z</time>
      </trkpt>
      <trkpt lat="41.881956" lon="0.308171">
        <ele>302.533</ele>
        <time>2020-08-23T09:19:17Z</time>
      </trkpt>
      <trkpt lat="41.881979" lon="0.308082">
        <ele>302.426</ele>
        <time>2020-08-23T09:19:19Z</time>
      </trkpt>
      <trkpt lat="41.881999" lon="0.308005">
        <ele>302.508</ele>
        <time>2020-08-23T09:19:21Z</time>
      </trkpt>
      <trkpt lat="41.882015" lon="0.307916">
        <ele>302.672</ele>
        <time>2020-08-23T09:19:23Z</time>
      </trkpt>
      <trkpt lat="41.882069" lon="0.307806">
        <ele>302.532</ele>
        <time>2020-08-23T09:19:25Z</time>
      </trkpt>
      <trkpt lat="41.882117" lon="0.307747">
        <ele>302.220</ele>
        <time>2020-08-23T09:19:26Z</time>
      </trkpt>
      <trkpt lat="41.882160" lon="0.307668">
        <ele>301.812</ele>
        <time>2020-08-23T09:19:27Z</time>
      </trkpt>
      <trkpt lat="41.882200" lon="0.307583">
        <ele>301.363</ele>
        <time>2020-08-23T09:19:28Z</time>
      </trkpt>
      <trkpt lat="41.882237" lon="0.307493">
        <ele>300.884</ele>
        <time>2020-08-23T09:19:29Z</time>
      </trkpt>
      <trkpt lat="41.882267" lon="0.307397">
        <ele>300.330</ele>
        <time>2020-08-23T09:19:30Z</time>
      </trkpt>
      <trkpt lat="41.882283" lon="0.307298">
        <ele>300.089</ele>
        <time>2020-08-23T09:19:31Z</time>
      </trkpt>
      <trkpt lat="41.882293" lon="0.307193">
        <ele>299.817</ele>
        <time>2020-08-23T09:19:32Z</time>
      </trkpt>
      <trkpt lat="41.882300" lon="0.307089">
        <ele>299.687</ele>
        <time>2020-08-23T09:19:33Z</time>
      </trkpt>
      <trkpt lat="41.882308" lon="0.306989">
        <ele>299.515</ele>
        <time>2020-08-23T09:19:34Z</time>
      </trkpt>
      <trkpt lat="41.882317" lon="0.306889">
        <ele>299.408</ele>
        <time>2020-08-23T09:19:35Z</time>
      </trkpt>
      <trkpt lat="41.882332" lon="0.306789">
        <ele>299.396</ele>
        <time>2020-08-23T09:19:36Z</time>
      </trkpt>
      <trkpt lat="41.882348" lon="0.306689">
        <ele>299.146</ele>
        <time>2020-08-23T09:19:37Z</time>
      </trkpt>
      <trkpt lat="41.882364" lon="0.306590">
        <ele>299.154</ele>
        <time>2020-08-23T09:19:38Z</time>
      </trkpt>
      <trkpt lat="41.882380" lon="0.306499">
        <ele>299.196</ele>
        <time>2020-08-23T09:19:39Z</time>
      </trkpt>
      <trkpt lat="41.882401" lon="0.306414">
        <ele>299.117</ele>
        <time>2020-08-23T09:19:40Z</time>
      </trkpt>
      <trkpt lat="41.882429" lon="0.306335">
        <ele>299.118</ele>
        <time>2020-08-23T09:19:41Z</time>
      </trkpt>
      <trkpt lat="41.882456" lon="0.306257">
        <ele>299.184</ele>
        <time>2020-08-23T09:19:42Z</time>
      </trkpt>
      <trkpt lat="41.882481" lon="0.306179">
        <ele>299.143</ele>
        <time>2020-08-23T09:19:43Z</time>
      </trkpt>
      <trkpt lat="41.882506" lon="0.306102">
        <ele>299.123</ele>
        <time>2020-08-23T09:19:44Z</time>
      </trkpt>
      <trkpt lat="41.882529" lon="0.306023">
        <ele>299.183</ele>
        <time>2020-08-23T09:19:45Z</time>
      </trkpt>
      <trkpt lat="41.882549" lon="0.305944">
        <ele>299.111</ele>
        <time>2020-08-23T09:19:46Z</time>
      </trkpt>
      <trkpt lat="41.882564" lon="0.305865">
        <ele>299.208</ele>
        <time>2020-08-23T09:19:47Z</time>
      </trkpt>
      <trkpt lat="41.882577" lon="0.305789">
        <ele>299.487</ele>
        <time>2020-08-23T09:19:48Z</time>
      </trkpt>
      <trkpt lat="41.882575" lon="0.305719">
        <ele>299.647</ele>
        <time>2020-08-23T09:19:49Z</time>
      </trkpt>
      <trkpt lat="41.882573" lon="0.305653">
        <ele>299.895</ele>
        <time>2020-08-23T09:19:50Z</time>
      </trkpt>
      <trkpt lat="41.882570" lon="0.305587">
        <ele>300.077</ele>
        <time>2020-08-23T09:19:51Z</time>
      </trkpt>
      <trkpt lat="41.882575" lon="0.305522">
        <ele>300.288</ele>
        <time>2020-08-23T09:19:52Z</time>
      </trkpt>
      <trkpt lat="41.882578" lon="0.305461">
        <ele>300.469</ele>
        <time>2020-08-23T09:19:53Z</time>
      </trkpt>
      <trkpt lat="41.882573" lon="0.305355">
        <ele>300.775</ele>
        <time>2020-08-23T09:19:55Z</time>
      </trkpt>
      <trkpt lat="41.882573" lon="0.305270">
        <ele>301.164</ele>
        <time>2020-08-23T09:19:57Z</time>
      </trkpt>
      <trkpt lat="41.882579" lon="0.305187">
        <ele>301.778</ele>
        <time>2020-08-23T09:19:59Z</time>
      </trkpt>
      <trkpt lat="41.882594" lon="0.305117">
        <ele>302.133</ele>
        <time>2020-08-23T09:20:01Z</time>
      </trkpt>
      <trkpt lat="41.882610" lon="0.305039">
        <ele>302.626</ele>
        <time>2020-08-23T09:20:03Z</time>
      </trkpt>
      <trkpt lat="41.882626" lon="0.304958">
        <ele>303.108</ele>
        <time>2020-08-23T09:20:05Z</time>
      </trkpt>
      <trkpt lat="41.882642" lon="0.304882">
        <ele>303.642</ele>
        <time>2020-08-23T09:20:07Z</time>
      </trkpt>
      <trkpt lat="41.882661" lon="0.304799">
        <ele>303.932</ele>
        <time>2020-08-23T09:20:09Z</time>
      </trkpt>
      <trkpt lat="41.882677" lon="0.304712">
        <ele>304.140</ele>
        <time>2020-08-23T09:20:11Z</time>
      </trkpt>
      <trkpt lat="41.882702" lon="0.304619">
        <ele>304.162</ele>
        <time>2020-08-23T09:20:13Z</time>
      </trkpt>
      <trkpt lat="41.882724" lon="0.304514">
        <ele>304.023</ele>
        <time>2020-08-23T09:20:15Z</time>
      </trkpt>
      <trkpt lat="41.882746" lon="0.304406">
        <ele>303.994</ele>
        <time>2020-08-23T09:20:17Z</time>
      </trkpt>
      <trkpt lat="41.882754" lon="0.304306">
        <ele>303.790</ele>
        <time>2020-08-23T09:20:19Z</time>
      </trkpt>
      <trkpt lat="41.882783" lon="0.304209">
        <ele>303.459</ele>
        <time>2020-08-23T09:20:21Z</time>
      </trkpt>
      <trkpt lat="41.882805" lon="0.304123">
        <ele>303.334</ele>
        <time>2020-08-23T09:20:23Z</time>
      </trkpt>
      <trkpt lat="41.882816" lon="0.304060">
        <ele>302.855</ele>
        <time>2020-08-23T09:20:29Z</time>
      </trkpt>
      <trkpt lat="41.882836" lon="0.304004">
        <ele>302.610</ele>
        <time>2020-08-23T09:22:08Z</time>
      </trkpt>
      <trkpt lat="41.882844" lon="0.303925">
        <ele>302.708</ele>
        <time>2020-08-23T09:23:48Z</time>
      </trkpt>
      <trkpt lat="41.882838" lon="0.303854">
        <ele>302.728</ele>
        <time>2020-08-23T09:23:50Z</time>
      </trkpt>
      <trkpt lat="41.882846" lon="0.303761">
        <ele>302.798</ele>
        <time>2020-08-23T09:23:52Z</time>
      </trkpt>
      <trkpt lat="41.882855" lon="0.303667">
        <ele>302.786</ele>
        <time>2020-08-23T09:23:54Z</time>
      </trkpt>
      <trkpt lat="41.882841" lon="0.303566">
        <ele>302.648</ele>
        <time>2020-08-23T09:23:56Z</time>
      </trkpt>
      <trkpt lat="41.882823" lon="0.303455">
        <ele>302.499</ele>
        <time>2020-08-23T09:23:58Z</time>
      </trkpt>
      <trkpt lat="41.882801" lon="0.303342">
        <ele>302.240</ele>
        <time>2020-08-23T09:24:00Z</time>
      </trkpt>
      <trkpt lat="41.882787" lon="0.303283">
        <ele>302.156</ele>
        <time>2020-08-23T09:24:01Z</time>
      </trkpt>
      <trkpt lat="41.882774" lon="0.303222">
        <ele>302.025</ele>
        <time>2020-08-23T09:24:02Z</time>
      </trkpt>
      <trkpt lat="41.882759" lon="0.303163">
        <ele>302.085</ele>
        <time>2020-08-23T09:24:03Z</time>
      </trkpt>
      <trkpt lat="41.882746" lon="0.303103">
        <ele>302.089</ele>
        <time>2020-08-23T09:24:04Z</time>
      </trkpt>
      <trkpt lat="41.882740" lon="0.303041">
        <ele>302.017</ele>
        <time>2020-08-23T09:24:05Z</time>
      </trkpt>
      <trkpt lat="41.882732" lon="0.302977">
        <ele>301.908</ele>
        <time>2020-08-23T09:24:06Z</time>
      </trkpt>
      <trkpt lat="41.882727" lon="0.302911">
        <ele>301.843</ele>
        <time>2020-08-23T09:24:07Z</time>
      </trkpt>
      <trkpt lat="41.882726" lon="0.302845">
        <ele>301.663</ele>
        <time>2020-08-23T09:24:08Z</time>
      </trkpt>
      <trkpt lat="41.882727" lon="0.302777">
        <ele>301.491</ele>
        <time>2020-08-23T09:24:09Z</time>
      </trkpt>
      <trkpt lat="41.882730" lon="0.302706">
        <ele>301.213</ele>
        <time>2020-08-23T09:24:10Z</time>
      </trkpt>
      <trkpt lat="41.882736" lon="0.302635">
        <ele>301.114</ele>
        <time>2020-08-23T09:24:11Z</time>
      </trkpt>
      <trkpt lat="41.882744" lon="0.302565">
        <ele>301.115</ele>
        <time>2020-08-23T09:24:12Z</time>
      </trkpt>
      <trkpt lat="41.882752" lon="0.302499">
        <ele>301.161</ele>
        <time>2020-08-23T09:24:13Z</time>
      </trkpt>
      <trkpt lat="41.882761" lon="0.302436">
        <ele>301.120</ele>
        <time>2020-08-23T09:24:14Z</time>
      </trkpt>
      <trkpt lat="41.882767" lon="0.302372">
        <ele>301.192</ele>
        <time>2020-08-23T09:24:15Z</time>
      </trkpt>
      <trkpt lat="41.882772" lon="0.302304">
        <ele>301.173</ele>
        <time>2020-08-23T09:24:16Z</time>
      </trkpt>
      <trkpt lat="41.882778" lon="0.302234">
        <ele>301.120</ele>
        <time>2020-08-23T09:24:17Z</time>
      </trkpt>
      <trkpt lat="41.882792" lon="0.302170">
        <ele>301.108</ele>
        <time>2020-08-23T09:24:18Z</time>
      </trkpt>
      <trkpt lat="41.882803" lon="0.302106">
        <ele>301.174</ele>
        <time>2020-08-23T09:24:19Z</time>
      </trkpt>
      <trkpt lat="41.882812" lon="0.302038">
        <ele>301.124</ele>
        <time>2020-08-23T09:24:20Z</time>
      </trkpt>
      <trkpt lat="41.882820" lon="0.301969">
        <ele>301.132</ele>
        <time>2020-08-23T09:24:21Z</time>
      </trkpt>
      <trkpt lat="41.882828" lon="0.301902">
        <ele>301.164</ele>
        <time>2020-08-23T09:24:22Z</time>
      </trkpt>
      <trkpt lat="41.882832" lon="0.301832">
        <ele>301.135</ele>
        <time>2020-08-23T09:24:23Z</time>
      </trkpt>
      <trkpt lat="41.882840" lon="0.301768">
        <ele>301.176</ele>
        <time>2020-08-23T09:24:24Z</time>
      </trkpt>
      <trkpt lat="41.882848" lon="0.301702">
        <ele>301.122</ele>
        <time>2020-08-23T09:24:25Z</time>
      </trkpt>
      <trkpt lat="41.882854" lon="0.301636">
        <ele>301.141</ele>
        <time>2020-08-23T09:24:26Z</time>
      </trkpt>
      <trkpt lat="41.882860" lon="0.301576">
        <ele>301.177</ele>
        <time>2020-08-23T09:24:27Z</time>
      </trkpt>
      <trkpt lat="41.882869" lon="0.301457">
        <ele>301.061</ele>
        <time>2020-08-23T09:24:29Z</time>
      </trkpt>
      <trkpt lat="41.882874" lon="0.301395">
        <ele>301.027</ele>
        <time>2020-08-23T09:24:30Z</time>
      </trkpt>
      <trkpt lat="41.882887" lon="0.301283">
        <ele>301.108</ele>
        <time>2020-08-23T09:24:32Z</time>
      </trkpt>
      <trkpt lat="41.882890" lon="0.301166">
        <ele>301.342</ele>
        <time>2020-08-23T09:24:34Z</time>
      </trkpt>
      <trkpt lat="41.882893" lon="0.301103">
        <ele>301.362</ele>
        <time>2020-08-23T09:24:35Z</time>
      </trkpt>
      <trkpt lat="41.882905" lon="0.301042">
        <ele>301.380</ele>
        <time>2020-08-23T09:24:36Z</time>
      </trkpt>
      <trkpt lat="41.882919" lon="0.300982">
        <ele>301.312</ele>
        <time>2020-08-23T09:24:37Z</time>
      </trkpt>
      <trkpt lat="41.882935" lon="0.300923">
        <ele>301.363</ele>
        <time>2020-08-23T09:24:38Z</time>
      </trkpt>
      <trkpt lat="41.882951" lon="0.300864">
        <ele>301.474</ele>
        <time>2020-08-23T09:24:39Z</time>
      </trkpt>
      <trkpt lat="41.882981" lon="0.300751">
        <ele>301.570</ele>
        <time>2020-08-23T09:24:41Z</time>
      </trkpt>
      <trkpt lat="41.883000" lon="0.300638">
        <ele>301.699</ele>
        <time>2020-08-23T09:24:43Z</time>
      </trkpt>
      <trkpt lat="41.883024" lon="0.300527">
        <ele>301.775</ele>
        <time>2020-08-23T09:24:45Z</time>
      </trkpt>
      <trkpt lat="41.883050" lon="0.300424">
        <ele>302.028</ele>
        <time>2020-08-23T09:24:47Z</time>
      </trkpt>
      <trkpt lat="41.883075" lon="0.300317">
        <ele>302.320</ele>
        <time>2020-08-23T09:24:49Z</time>
      </trkpt>
      <trkpt lat="41.883096" lon="0.300224">
        <ele>302.708</ele>
        <time>2020-08-23T09:24:51Z</time>
      </trkpt>
      <trkpt lat="41.883121" lon="0.300132">
        <ele>302.952</ele>
        <time>2020-08-23T09:24:53Z</time>
      </trkpt>
      <trkpt lat="41.883139" lon="0.300033">
        <ele>303.182</ele>
        <time>2020-08-23T09:24:55Z</time>
      </trkpt>
      <trkpt lat="41.883153" lon="0.299937">
        <ele>303.360</ele>
        <time>2020-08-23T09:24:57Z</time>
      </trkpt>
      <trkpt lat="41.883173" lon="0.299843">
        <ele>303.512</ele>
        <time>2020-08-23T09:24:59Z</time>
      </trkpt>
      <trkpt lat="41.883197" lon="0.299752">
        <ele>303.723</ele>
        <time>2020-08-23T09:25:01Z</time>
      </trkpt>
      <trkpt lat="41.883219" lon="0.299668">
        <ele>303.954</ele>
        <time>2020-08-23T09:25:03Z</time>
      </trkpt>
      <trkpt lat="41.883245" lon="0.299584">
        <ele>304.160</ele>
        <time>2020-08-23T09:25:05Z</time>
      </trkpt>
      <trkpt lat="41.883274" lon="0.299507">
        <ele>304.419</ele>
        <time>2020-08-23T09:25:07Z</time>
      </trkpt>
      <trkpt lat="41.883308" lon="0.299427">
        <ele>304.675</ele>
        <time>2020-08-23T09:25:09Z</time>
      </trkpt>
      <trkpt lat="41.883349" lon="0.299354">
        <ele>304.828</ele>
        <time>2020-08-23T09:25:11Z</time>
      </trkpt>
      <trkpt lat="41.883397" lon="0.299286">
        <ele>305.120</ele>
        <time>2020-08-23T09:25:13Z</time>
      </trkpt>
      <trkpt lat="41.883446" lon="0.299219">
        <ele>305.308</ele>
        <time>2020-08-23T09:25:15Z</time>
      </trkpt>
      <trkpt lat="41.883492" lon="0.299153">
        <ele>305.522</ele>
        <time>2020-08-23T09:25:17Z</time>
      </trkpt>
      <trkpt lat="41.883536" lon="0.299079">
        <ele>305.722</ele>
        <time>2020-08-23T09:25:19Z</time>
      </trkpt>
      <trkpt lat="41.883571" lon="0.299003">
        <ele>305.920</ele>
        <time>2020-08-23T09:25:21Z</time>
      </trkpt>
      <trkpt lat="41.883611" lon="0.298921">
        <ele>306.152</ele>
        <time>2020-08-23T09:25:23Z</time>
      </trkpt>
      <trkpt lat="41.883655" lon="0.298833">
        <ele>306.373</ele>
        <time>2020-08-23T09:25:25Z</time>
      </trkpt>
      <trkpt lat="41.883696" lon="0.298747">
        <ele>306.544</ele>
        <time>2020-08-23T09:25:27Z</time>
      </trkpt>
      <trkpt lat="41.883721" lon="0.298646">
        <ele>306.670</ele>
        <time>2020-08-23T09:25:29Z</time>
      </trkpt>
      <trkpt lat="41.883753" lon="0.298550">
        <ele>306.729</ele>
        <time>2020-08-23T09:25:31Z</time>
      </trkpt>
      <trkpt lat="41.883777" lon="0.298458">
        <ele>306.955</ele>
        <time>2020-08-23T09:25:33Z</time>
      </trkpt>
      <trkpt lat="41.883786" lon="0.298367">
        <ele>307.107</ele>
        <time>2020-08-23T09:25:35Z</time>
      </trkpt>
      <trkpt lat="41.883800" lon="0.298280">
        <ele>307.417</ele>
        <time>2020-08-23T09:25:37Z</time>
      </trkpt>
      <trkpt lat="41.883816" lon="0.298181">
        <ele>307.608</ele>
        <time>2020-08-23T09:25:39Z</time>
      </trkpt>
      <trkpt lat="41.883831" lon="0.298088">
        <ele>307.860</ele>
        <time>2020-08-23T09:25:41Z</time>
      </trkpt>
      <trkpt lat="41.883849" lon="0.297995">
        <ele>308.070</ele>
        <time>2020-08-23T09:25:43Z</time>
      </trkpt>
      <trkpt lat="41.883864" lon="0.297908">
        <ele>308.228</ele>
        <time>2020-08-23T09:25:45Z</time>
      </trkpt>
      <trkpt lat="41.883878" lon="0.297824">
        <ele>308.530</ele>
        <time>2020-08-23T09:25:47Z</time>
      </trkpt>
      <trkpt lat="41.883886" lon="0.297732">
        <ele>308.711</ele>
        <time>2020-08-23T09:25:49Z</time>
      </trkpt>
      <trkpt lat="41.883899" lon="0.297637">
        <ele>308.982</ele>
        <time>2020-08-23T09:25:51Z</time>
      </trkpt>
      <trkpt lat="41.883908" lon="0.297542">
        <ele>309.068</ele>
        <time>2020-08-23T09:25:53Z</time>
      </trkpt>
      <trkpt lat="41.883916" lon="0.297447">
        <ele>309.277</ele>
        <time>2020-08-23T09:25:55Z</time>
      </trkpt>
      <trkpt lat="41.883924" lon="0.297338">
        <ele>309.371</ele>
        <time>2020-08-23T09:25:57Z</time>
      </trkpt>
      <trkpt lat="41.883933" lon="0.297235">
        <ele>309.441</ele>
        <time>2020-08-23T09:25:59Z</time>
      </trkpt>
      <trkpt lat="41.883938" lon="0.297130">
        <ele>309.515</ele>
        <time>2020-08-23T09:26:01Z</time>
      </trkpt>
      <trkpt lat="41.883940" lon="0.297022">
        <ele>309.608</ele>
        <time>2020-08-23T09:26:03Z</time>
      </trkpt>
      <trkpt lat="41.883939" lon="0.296925">
        <ele>309.762</ele>
        <time>2020-08-23T09:26:05Z</time>
      </trkpt>
      <trkpt lat="41.883931" lon="0.296828">
        <ele>309.872</ele>
        <time>2020-08-23T09:26:07Z</time>
      </trkpt>
      <trkpt lat="41.883921" lon="0.296732">
        <ele>310.020</ele>
        <time>2020-08-23T09:26:09Z</time>
      </trkpt>
      <trkpt lat="41.883905" lon="0.296642">
        <ele>310.382</ele>
        <time>2020-08-23T09:26:11Z</time>
      </trkpt>
      <trkpt lat="41.883893" lon="0.296552">
        <ele>310.633</ele>
        <time>2020-08-23T09:26:13Z</time>
      </trkpt>
      <trkpt lat="41.883888" lon="0.296452">
        <ele>310.974</ele>
        <time>2020-08-23T09:26:15Z</time>
      </trkpt>
      <trkpt lat="41.883888" lon="0.296353">
        <ele>311.290</ele>
        <time>2020-08-23T09:26:17Z</time>
      </trkpt>
      <trkpt lat="41.883903" lon="0.296263">
        <ele>311.559</ele>
        <time>2020-08-23T09:26:19Z</time>
      </trkpt>
      <trkpt lat="41.883926" lon="0.296179">
        <ele>311.762</ele>
        <time>2020-08-23T09:26:21Z</time>
      </trkpt>
      <trkpt lat="41.883951" lon="0.296098">
        <ele>311.983</ele>
        <time>2020-08-23T09:26:23Z</time>
      </trkpt>
      <trkpt lat="41.883977" lon="0.296014">
        <ele>312.211</ele>
        <time>2020-08-23T09:26:25Z</time>
      </trkpt>
      <trkpt lat="41.883999" lon="0.295921">
        <ele>312.508</ele>
        <time>2020-08-23T09:26:27Z</time>
      </trkpt>
      <trkpt lat="41.884026" lon="0.295826">
        <ele>312.891</ele>
        <time>2020-08-23T09:26:29Z</time>
      </trkpt>
      <trkpt lat="41.884051" lon="0.295731">
        <ele>313.091</ele>
        <time>2020-08-23T09:26:31Z</time>
      </trkpt>
      <trkpt lat="41.884069" lon="0.295634">
        <ele>313.129</ele>
        <time>2020-08-23T09:26:33Z</time>
      </trkpt>
      <trkpt lat="41.884082" lon="0.295536">
        <ele>313.281</ele>
        <time>2020-08-23T09:26:35Z</time>
      </trkpt>
      <trkpt lat="41.884093" lon="0.295440">
        <ele>313.382</ele>
        <time>2020-08-23T09:26:37Z</time>
      </trkpt>
      <trkpt lat="41.884100" lon="0.295333">
        <ele>313.473</ele>
        <time>2020-08-23T09:26:39Z</time>
      </trkpt>
      <trkpt lat="41.884109" lon="0.295229">
        <ele>313.469</ele>
        <time>2020-08-23T09:26:41Z</time>
      </trkpt>
      <trkpt lat="41.884122" lon="0.295128">
        <ele>313.428</ele>
        <time>2020-08-23T09:26:43Z</time>
      </trkpt>
      <trkpt lat="41.884130" lon="0.295022">
        <ele>313.424</ele>
        <time>2020-08-23T09:26:45Z</time>
      </trkpt>
      <trkpt lat="41.884137" lon="0.294915">
        <ele>313.404</ele>
        <time>2020-08-23T09:26:47Z</time>
      </trkpt>
      <trkpt lat="41.884142" lon="0.294810">
        <ele>313.614</ele>
        <time>2020-08-23T09:26:49Z</time>
      </trkpt>
      <trkpt lat="41.884149" lon="0.294705">
        <ele>313.808</ele>
        <time>2020-08-23T09:26:51Z</time>
      </trkpt>
      <trkpt lat="41.884157" lon="0.294595">
        <ele>314.077</ele>
        <time>2020-08-23T09:26:53Z</time>
      </trkpt>
      <trkpt lat="41.884169" lon="0.294483">
        <ele>314.337</ele>
        <time>2020-08-23T09:26:55Z</time>
      </trkpt>
      <trkpt lat="41.884172" lon="0.294376">
        <ele>314.645</ele>
        <time>2020-08-23T09:26:57Z</time>
      </trkpt>
      <trkpt lat="41.884182" lon="0.294280">
        <ele>314.867</ele>
        <time>2020-08-23T09:26:59Z</time>
      </trkpt>
      <trkpt lat="41.884188" lon="0.294169">
        <ele>314.988</ele>
        <time>2020-08-23T09:27:01Z</time>
      </trkpt>
      <trkpt lat="41.884187" lon="0.294066">
        <ele>315.039</ele>
        <time>2020-08-23T09:27:03Z</time>
      </trkpt>
      <trkpt lat="41.884180" lon="0.293970">
        <ele>315.165</ele>
        <time>2020-08-23T09:27:05Z</time>
      </trkpt>
      <trkpt lat="41.884173" lon="0.293866">
        <ele>315.284</ele>
        <time>2020-08-23T09:27:07Z</time>
      </trkpt>
      <trkpt lat="41.884167" lon="0.293755">
        <ele>315.222</ele>
        <time>2020-08-23T09:27:09Z</time>
      </trkpt>
      <trkpt lat="41.884155" lon="0.293655">
        <ele>315.362</ele>
        <time>2020-08-23T09:27:11Z</time>
      </trkpt>
      <trkpt lat="41.884141" lon="0.293548">
        <ele>315.508</ele>
        <time>2020-08-23T09:27:13Z</time>
      </trkpt>
      <trkpt lat="41.884128" lon="0.293441">
        <ele>315.608</ele>
        <time>2020-08-23T09:27:15Z</time>
      </trkpt>
      <trkpt lat="41.884117" lon="0.293337">
        <ele>315.837</ele>
        <time>2020-08-23T09:27:17Z</time>
      </trkpt>
      <trkpt lat="41.884103" lon="0.293228">
        <ele>315.947</ele>
        <time>2020-08-23T09:27:19Z</time>
      </trkpt>
      <trkpt lat="41.884082" lon="0.293118">
        <ele>316.025</ele>
        <time>2020-08-23T09:27:21Z</time>
      </trkpt>
      <trkpt lat="41.884053" lon="0.293019">
        <ele>316.127</ele>
        <time>2020-08-23T09:27:23Z</time>
      </trkpt>
      <trkpt lat="41.884019" lon="0.292919">
        <ele>316.218</ele>
        <time>2020-08-23T09:27:25Z</time>
      </trkpt>
      <trkpt lat="41.883981" lon="0.292819">
        <ele>316.379</ele>
        <time>2020-08-23T09:27:27Z</time>
      </trkpt>
      <trkpt lat="41.883944" lon="0.292725">
        <ele>316.485</ele>
        <time>2020-08-23T09:27:29Z</time>
      </trkpt>
      <trkpt lat="41.883907" lon="0.292628">
        <ele>316.574</ele>
        <time>2020-08-23T09:27:31Z</time>
      </trkpt>
      <trkpt lat="41.883867" lon="0.292539">
        <ele>316.618</ele>
        <time>2020-08-23T09:27:33Z</time>
      </trkpt>
      <trkpt lat="41.883832" lon="0.292446">
        <ele>316.898</ele>
        <time>2020-08-23T09:27:35Z</time>
      </trkpt>
      <trkpt lat="41.883791" lon="0.292357">
        <ele>316.917</ele>
        <time>2020-08-23T09:27:37Z</time>
      </trkpt>
      <trkpt lat="41.883747" lon="0.292271">
        <ele>317.108</ele>
        <time>2020-08-23T09:27:39Z</time>
      </trkpt>
      <trkpt lat="41.883706" lon="0.292181">
        <ele>317.346</ele>
        <time>2020-08-23T09:27:41Z</time>
      </trkpt>
      <trkpt lat="41.883661" lon="0.292104">
        <ele>317.526</ele>
        <time>2020-08-23T09:27:43Z</time>
      </trkpt>
      <trkpt lat="41.883620" lon="0.292027">
        <ele>317.614</ele>
        <time>2020-08-23T09:27:45Z</time>
      </trkpt>
      <trkpt lat="41.883570" lon="0.291943">
        <ele>317.786</ele>
        <time>2020-08-23T09:27:47Z</time>
      </trkpt>
      <trkpt lat="41.883518" lon="0.291865">
        <ele>317.927</ele>
        <time>2020-08-23T09:27:49Z</time>
      </trkpt>
      <trkpt lat="41.883468" lon="0.291794">
        <ele>318.138</ele>
        <time>2020-08-23T09:27:51Z</time>
      </trkpt>
      <trkpt lat="41.883426" lon="0.291706">
        <ele>318.384</ele>
        <time>2020-08-23T09:27:53Z</time>
      </trkpt>
      <trkpt lat="41.883387" lon="0.291613">
        <ele>318.553</ele>
        <time>2020-08-23T09:27:55Z</time>
      </trkpt>
      <trkpt lat="41.883344" lon="0.291539">
        <ele>318.615</ele>
        <time>2020-08-23T09:27:57Z</time>
      </trkpt>
      <trkpt lat="41.883305" lon="0.291449">
        <ele>318.765</ele>
        <time>2020-08-23T09:27:59Z</time>
      </trkpt>
      <trkpt lat="41.883291" lon="0.291347">
        <ele>318.811</ele>
        <time>2020-08-23T09:28:01Z</time>
      </trkpt>
      <trkpt lat="41.883278" lon="0.291249">
        <ele>318.908</ele>
        <time>2020-08-23T09:28:03Z</time>
      </trkpt>
      <trkpt lat="41.883261" lon="0.291148">
        <ele>318.926</ele>
        <time>2020-08-23T09:28:05Z</time>
      </trkpt>
      <trkpt lat="41.883240" lon="0.291043">
        <ele>318.986</ele>
        <time>2020-08-23T09:28:07Z</time>
      </trkpt>
      <trkpt lat="41.883224" lon="0.290924">
        <ele>318.914</ele>
        <time>2020-08-23T09:28:09Z</time>
      </trkpt>
      <trkpt lat="41.883219" lon="0.290807">
        <ele>318.956</ele>
        <time>2020-08-23T09:28:11Z</time>
      </trkpt>
      <trkpt lat="41.883206" lon="0.290689">
        <ele>318.917</ele>
        <time>2020-08-23T09:28:13Z</time>
      </trkpt>
      <trkpt lat="41.883195" lon="0.290575">
        <ele>318.958</ele>
        <time>2020-08-23T09:28:15Z</time>
      </trkpt>
      <trkpt lat="41.883189" lon="0.290464">
        <ele>318.984</ele>
        <time>2020-08-23T09:28:17Z</time>
      </trkpt>
      <trkpt lat="41.883188" lon="0.290360">
        <ele>318.933</ele>
        <time>2020-08-23T09:28:19Z</time>
      </trkpt>
      <trkpt lat="41.883177" lon="0.290250">
        <ele>319.072</ele>
        <time>2020-08-23T09:28:21Z</time>
      </trkpt>
      <trkpt lat="41.883176" lon="0.290138">
        <ele>319.113</ele>
        <time>2020-08-23T09:28:23Z</time>
      </trkpt>
      <trkpt lat="41.883171" lon="0.290025">
        <ele>319.214</ele>
        <time>2020-08-23T09:28:25Z</time>
      </trkpt>
      <trkpt lat="41.883167" lon="0.289915">
        <ele>319.308</ele>
        <time>2020-08-23T09:28:27Z</time>
      </trkpt>
      <trkpt lat="41.883151" lon="0.289805">
        <ele>319.342</ele>
        <time>2020-08-23T09:28:29Z</time>
      </trkpt>
      <trkpt lat="41.883144" lon="0.289744">
        <ele>319.382</ele>
        <time>2020-08-23T09:28:30Z</time>
      </trkpt>
      <trkpt lat="41.883130" lon="0.289631">
        <ele>319.370</ele>
        <time>2020-08-23T09:28:32Z</time>
      </trkpt>
      <trkpt lat="41.883120" lon="0.289511">
        <ele>319.362</ele>
        <time>2020-08-23T09:28:34Z</time>
      </trkpt>
      <trkpt lat="41.883125" lon="0.289396">
        <ele>319.393</ele>
        <time>2020-08-23T09:28:36Z</time>
      </trkpt>
      <trkpt lat="41.883128" lon="0.289284">
        <ele>319.314</ele>
        <time>2020-08-23T09:28:38Z</time>
      </trkpt>
      <trkpt lat="41.883135" lon="0.289164">
        <ele>319.310</ele>
        <time>2020-08-23T09:28:40Z</time>
      </trkpt>
      <trkpt lat="41.883139" lon="0.289098">
        <ele>319.319</ele>
        <time>2020-08-23T09:28:41Z</time>
      </trkpt>
      <trkpt lat="41.883137" lon="0.289031">
        <ele>319.323</ele>
        <time>2020-08-23T09:28:42Z</time>
      </trkpt>
      <trkpt lat="41.883133" lon="0.288970">
        <ele>319.483</ele>
        <time>2020-08-23T09:28:43Z</time>
      </trkpt>
      <trkpt lat="41.883129" lon="0.288853">
        <ele>319.511</ele>
        <time>2020-08-23T09:28:45Z</time>
      </trkpt>
      <trkpt lat="41.883130" lon="0.288793">
        <ele>319.508</ele>
        <time>2020-08-23T09:28:46Z</time>
      </trkpt>
      <trkpt lat="41.883131" lon="0.288678">
        <ele>319.557</ele>
        <time>2020-08-23T09:28:48Z</time>
      </trkpt>
      <trkpt lat="41.883126" lon="0.288615">
        <ele>319.577</ele>
        <time>2020-08-23T09:28:49Z</time>
      </trkpt>
      <trkpt lat="41.883115" lon="0.288552">
        <ele>319.515</ele>
        <time>2020-08-23T09:28:50Z</time>
      </trkpt>
      <trkpt lat="41.883106" lon="0.288491">
        <ele>319.587</ele>
        <time>2020-08-23T09:28:51Z</time>
      </trkpt>
      <trkpt lat="41.883077" lon="0.288375">
        <ele>319.528</ele>
        <time>2020-08-23T09:28:53Z</time>
      </trkpt>
      <trkpt lat="41.883059" lon="0.288314">
        <ele>319.599</ele>
        <time>2020-08-23T09:28:54Z</time>
      </trkpt>
      <trkpt lat="41.883040" lon="0.288255">
        <ele>319.555</ele>
        <time>2020-08-23T09:28:55Z</time>
      </trkpt>
      <trkpt lat="41.883022" lon="0.288198">
        <ele>319.554</ele>
        <time>2020-08-23T09:28:56Z</time>
      </trkpt>
      <trkpt lat="41.883000" lon="0.288139">
        <ele>319.582</ele>
        <time>2020-08-23T09:28:57Z</time>
      </trkpt>
      <trkpt lat="41.882977" lon="0.288081">
        <ele>319.543</ele>
        <time>2020-08-23T09:28:58Z</time>
      </trkpt>
      <trkpt lat="41.882954" lon="0.288029">
        <ele>319.617</ele>
        <time>2020-08-23T09:28:59Z</time>
      </trkpt>
      <trkpt lat="41.882930" lon="0.287920">
        <ele>319.708</ele>
        <time>2020-08-23T09:29:01Z</time>
      </trkpt>
      <trkpt lat="41.882916" lon="0.287810">
        <ele>319.833</ele>
        <time>2020-08-23T09:29:03Z</time>
      </trkpt>
      <trkpt lat="41.882909" lon="0.287699">
        <ele>319.993</ele>
        <time>2020-08-23T09:29:05Z</time>
      </trkpt>
      <trkpt lat="41.882916" lon="0.287595">
        <ele>320.011</ele>
        <time>2020-08-23T09:29:07Z</time>
      </trkpt>
      <trkpt lat="41.882932" lon="0.287502">
        <ele>320.113</ele>
        <time>2020-08-23T09:29:09Z</time>
      </trkpt>
      <trkpt lat="41.882939" lon="0.287391">
        <ele>320.224</ele>
        <time>2020-08-23T09:29:11Z</time>
      </trkpt>
      <trkpt lat="41.882946" lon="0.287283">
        <ele>320.445</ele>
        <time>2020-08-23T09:29:13Z</time>
      </trkpt>
      <trkpt lat="41.882941" lon="0.287174">
        <ele>320.541</ele>
        <time>2020-08-23T09:29:15Z</time>
      </trkpt>
      <trkpt lat="41.882943" lon="0.287062">
        <ele>320.640</ele>
        <time>2020-08-23T09:29:17Z</time>
      </trkpt>
      <trkpt lat="41.882930" lon="0.286954">
        <ele>320.827</ele>
        <time>2020-08-23T09:29:19Z</time>
      </trkpt>
      <trkpt lat="41.882923" lon="0.286893">
        <ele>320.968</ele>
        <time>2020-08-23T09:29:20Z</time>
      </trkpt>
      <trkpt lat="41.882912" lon="0.286791">
        <ele>321.014</ele>
        <time>2020-08-23T09:29:22Z</time>
      </trkpt>
      <trkpt lat="41.882914" lon="0.286683">
        <ele>321.108</ele>
        <time>2020-08-23T09:29:24Z</time>
      </trkpt>
      <trkpt lat="41.882918" lon="0.286592">
        <ele>321.257</ele>
        <time>2020-08-23T09:29:26Z</time>
      </trkpt>
      <trkpt lat="41.882916" lon="0.286497">
        <ele>321.397</ele>
        <time>2020-08-23T09:29:28Z</time>
      </trkpt>
      <trkpt lat="41.882911" lon="0.286405">
        <ele>321.495</ele>
        <time>2020-08-23T09:29:30Z</time>
      </trkpt>
      <trkpt lat="41.882915" lon="0.286313">
        <ele>321.557</ele>
        <time>2020-08-23T09:29:32Z</time>
      </trkpt>
      <trkpt lat="41.882918" lon="0.286221">
        <ele>321.638</ele>
        <time>2020-08-23T09:29:34Z</time>
      </trkpt>
      <trkpt lat="41.882917" lon="0.286130">
        <ele>321.759</ele>
        <time>2020-08-23T09:29:36Z</time>
      </trkpt>
      <trkpt lat="41.882920" lon="0.286043">
        <ele>321.915</ele>
        <time>2020-08-23T09:29:38Z</time>
      </trkpt>
      <trkpt lat="41.882932" lon="0.285938">
        <ele>322.074</ele>
        <time>2020-08-23T09:29:40Z</time>
      </trkpt>
      <trkpt lat="41.882928" lon="0.285838">
        <ele>322.131</ele>
        <time>2020-08-23T09:29:42Z</time>
      </trkpt>
      <trkpt lat="41.882929" lon="0.285748">
        <ele>322.261</ele>
        <time>2020-08-23T09:29:44Z</time>
      </trkpt>
      <trkpt lat="41.882919" lon="0.285651">
        <ele>322.307</ele>
        <time>2020-08-23T09:29:46Z</time>
      </trkpt>
      <trkpt lat="41.882904" lon="0.285563">
        <ele>322.608</ele>
        <time>2020-08-23T09:29:48Z</time>
      </trkpt>
      <trkpt lat="41.882888" lon="0.285488">
        <ele>322.968</ele>
        <time>2020-08-23T09:29:50Z</time>
      </trkpt>
      <trkpt lat="41.882880" lon="0.285411">
        <ele>323.298</ele>
        <time>2020-08-23T09:29:52Z</time>
      </trkpt>
      <trkpt lat="41.882877" lon="0.285328">
        <ele>323.546</ele>
        <time>2020-08-23T09:29:54Z</time>
      </trkpt>
      <trkpt lat="41.882878" lon="0.285238">
        <ele>323.818</ele>
        <time>2020-08-23T09:29:56Z</time>
      </trkpt>
      <trkpt lat="41.882882" lon="0.285132">
        <ele>323.939</ele>
        <time>2020-08-23T09:29:58Z</time>
      </trkpt>
      <trkpt lat="41.882888" lon="0.285026">
        <ele>323.970</ele>
        <time>2020-08-23T09:30:00Z</time>
      </trkpt>
      <trkpt lat="41.882904" lon="0.284933">
        <ele>323.946</ele>
        <time>2020-08-23T09:30:02Z</time>
      </trkpt>
      <trkpt lat="41.882919" lon="0.284845">
        <ele>324.065</ele>
        <time>2020-08-23T09:30:04Z</time>
      </trkpt>
      <trkpt lat="41.882940" lon="0.284758">
        <ele>324.118</ele>
        <time>2020-08-23T09:30:06Z</time>
      </trkpt>
      <trkpt lat="41.882963" lon="0.284678">
        <ele>324.298</ele>
        <time>2020-08-23T09:30:08Z</time>
      </trkpt>
      <trkpt lat="41.883006" lon="0.284598">
        <ele>324.317</ele>
        <time>2020-08-23T09:30:10Z</time>
      </trkpt>
      <trkpt lat="41.883035" lon="0.284516">
        <ele>324.408</ele>
        <time>2020-08-23T09:30:12Z</time>
      </trkpt>
      <trkpt lat="41.883071" lon="0.284430">
        <ele>324.416</ele>
        <time>2020-08-23T09:30:14Z</time>
      </trkpt>
      <trkpt lat="41.883113" lon="0.284337">
        <ele>324.426</ele>
        <time>2020-08-23T09:30:16Z</time>
      </trkpt>
      <trkpt lat="41.883156" lon="0.284244">
        <ele>324.434</ele>
        <time>2020-08-23T09:30:18Z</time>
      </trkpt>
      <trkpt lat="41.883200" lon="0.284148">
        <ele>324.456</ele>
        <time>2020-08-23T09:30:20Z</time>
      </trkpt>
      <trkpt lat="41.883237" lon="0.284054">
        <ele>324.487</ele>
        <time>2020-08-23T09:30:22Z</time>
      </trkpt>
      <trkpt lat="41.883275" lon="0.283953">
        <ele>324.448</ele>
        <time>2020-08-23T09:30:24Z</time>
      </trkpt>
      <trkpt lat="41.883305" lon="0.283849">
        <ele>324.424</ele>
        <time>2020-08-23T09:30:26Z</time>
      </trkpt>
      <trkpt lat="41.883342" lon="0.283746">
        <ele>324.453</ele>
        <time>2020-08-23T09:30:28Z</time>
      </trkpt>
      <trkpt lat="41.883376" lon="0.283643">
        <ele>324.434</ele>
        <time>2020-08-23T09:30:30Z</time>
      </trkpt>
      <trkpt lat="41.883403" lon="0.283542">
        <ele>324.455</ele>
        <time>2020-08-23T09:30:32Z</time>
      </trkpt>
      <trkpt lat="41.883428" lon="0.283425">
        <ele>324.410</ele>
        <time>2020-08-23T09:30:34Z</time>
      </trkpt>
      <trkpt lat="41.883443" lon="0.283365">
        <ele>324.408</ele>
        <time>2020-08-23T09:30:35Z</time>
      </trkpt>
      <trkpt lat="41.883458" lon="0.283306">
        <ele>324.428</ele>
        <time>2020-08-23T09:30:36Z</time>
      </trkpt>
      <trkpt lat="41.883470" lon="0.283248">
        <ele>324.468</ele>
        <time>2020-08-23T09:30:37Z</time>
      </trkpt>
      <trkpt lat="41.883498" lon="0.283135">
        <ele>324.416</ele>
        <time>2020-08-23T09:30:39Z</time>
      </trkpt>
      <trkpt lat="41.883513" lon="0.283075">
        <ele>324.418</ele>
        <time>2020-08-23T09:30:40Z</time>
      </trkpt>
      <trkpt lat="41.883525" lon="0.283011">
        <ele>324.489</ele>
        <time>2020-08-23T09:30:41Z</time>
      </trkpt>
      <trkpt lat="41.883536" lon="0.282947">
        <ele>324.410</ele>
        <time>2020-08-23T09:30:42Z</time>
      </trkpt>
      <trkpt lat="41.883551" lon="0.282884">
        <ele>324.346</ele>
        <time>2020-08-23T09:30:43Z</time>
      </trkpt>
      <trkpt lat="41.883557" lon="0.282817">
        <ele>324.315</ele>
        <time>2020-08-23T09:30:44Z</time>
      </trkpt>
      <trkpt lat="41.883563" lon="0.282752">
        <ele>324.393</ele>
        <time>2020-08-23T09:30:45Z</time>
      </trkpt>
      <trkpt lat="41.883573" lon="0.282689">
        <ele>324.365</ele>
        <time>2020-08-23T09:30:46Z</time>
      </trkpt>
      <trkpt lat="41.883588" lon="0.282629">
        <ele>324.321</ele>
        <time>2020-08-23T09:30:47Z</time>
      </trkpt>
      <trkpt lat="41.883595" lon="0.282564">
        <ele>324.308</ele>
        <time>2020-08-23T09:30:48Z</time>
      </trkpt>
      <trkpt lat="41.883604" lon="0.282495">
        <ele>324.334</ele>
        <time>2020-08-23T09:30:49Z</time>
      </trkpt>
      <trkpt lat="41.883615" lon="0.282431">
        <ele>324.324</ele>
        <time>2020-08-23T09:30:50Z</time>
      </trkpt>
      <trkpt lat="41.883633" lon="0.282307">
        <ele>324.342</ele>
        <time>2020-08-23T09:30:52Z</time>
      </trkpt>
      <trkpt lat="41.883638" lon="0.282240">
        <ele>324.374</ele>
        <time>2020-08-23T09:30:53Z</time>
      </trkpt>
      <trkpt lat="41.883643" lon="0.282170">
        <ele>324.325</ele>
        <time>2020-08-23T09:30:54Z</time>
      </trkpt>
      <trkpt lat="41.883651" lon="0.282104">
        <ele>324.376</ele>
        <time>2020-08-23T09:30:55Z</time>
      </trkpt>
      <trkpt lat="41.883663" lon="0.282042">
        <ele>324.382</ele>
        <time>2020-08-23T09:30:56Z</time>
      </trkpt>
      <trkpt lat="41.883676" lon="0.281983">
        <ele>324.421</ele>
        <time>2020-08-23T09:30:57Z</time>
      </trkpt>
      <trkpt lat="41.883689" lon="0.281925">
        <ele>324.462</ele>
        <time>2020-08-23T09:30:58Z</time>
      </trkpt>
      <trkpt lat="41.883699" lon="0.281866">
        <ele>324.483</ele>
        <time>2020-08-23T09:30:59Z</time>
      </trkpt>
      <trkpt lat="41.883718" lon="0.281752">
        <ele>324.511</ele>
        <time>2020-08-23T09:31:01Z</time>
      </trkpt>
      <trkpt lat="41.883741" lon="0.281638">
        <ele>324.608</ele>
        <time>2020-08-23T09:31:03Z</time>
      </trkpt>
      <trkpt lat="41.883756" lon="0.281578">
        <ele>324.611</ele>
        <time>2020-08-23T09:31:04Z</time>
      </trkpt>
      <trkpt lat="41.883768" lon="0.281514">
        <ele>324.621</ele>
        <time>2020-08-23T09:31:05Z</time>
      </trkpt>
      <trkpt lat="41.883784" lon="0.281454">
        <ele>324.629</ele>
        <time>2020-08-23T09:31:06Z</time>
      </trkpt>
      <trkpt lat="41.883806" lon="0.281340">
        <ele>324.691</ele>
        <time>2020-08-23T09:31:08Z</time>
      </trkpt>
      <trkpt lat="41.883809" lon="0.281277">
        <ele>324.622</ele>
        <time>2020-08-23T09:31:09Z</time>
      </trkpt>
      <trkpt lat="41.883822" lon="0.281219">
        <ele>324.683</ele>
        <time>2020-08-23T09:31:10Z</time>
      </trkpt>
      <trkpt lat="41.883831" lon="0.281157">
        <ele>324.679</ele>
        <time>2020-08-23T09:31:11Z</time>
      </trkpt>
      <trkpt lat="41.883857" lon="0.281046">
        <ele>324.668</ele>
        <time>2020-08-23T09:31:13Z</time>
      </trkpt>
      <trkpt lat="41.883883" lon="0.280929">
        <ele>324.777</ele>
        <time>2020-08-23T09:31:15Z</time>
      </trkpt>
      <trkpt lat="41.883892" lon="0.280865">
        <ele>324.761</ele>
        <time>2020-08-23T09:31:16Z</time>
      </trkpt>
      <trkpt lat="41.883907" lon="0.280805">
        <ele>324.827</ele>
        <time>2020-08-23T09:31:17Z</time>
      </trkpt>
      <trkpt lat="41.883934" lon="0.280694">
        <ele>324.908</ele>
        <time>2020-08-23T09:31:19Z</time>
      </trkpt>
      <trkpt lat="41.883947" lon="0.280635">
        <ele>324.992</ele>
        <time>2020-08-23T09:31:20Z</time>
      </trkpt>
      <trkpt lat="41.883968" lon="0.280518">
        <ele>325.012</ele>
        <time>2020-08-23T09:31:22Z</time>
      </trkpt>
      <trkpt lat="41.883986" lon="0.280403">
        <ele>325.120</ele>
        <time>2020-08-23T09:31:24Z</time>
      </trkpt>
      <trkpt lat="41.883996" lon="0.280281">
        <ele>325.292</ele>
        <time>2020-08-23T09:31:26Z</time>
      </trkpt>
      <trkpt lat="41.884004" lon="0.280220">
        <ele>325.273</ele>
        <time>2020-08-23T09:31:27Z</time>
      </trkpt>
      <trkpt lat="41.884013" lon="0.280160">
        <ele>325.214</ele>
        <time>2020-08-23T09:31:28Z</time>
      </trkpt>
      <trkpt lat="41.884017" lon="0.280098">
        <ele>325.280</ele>
        <time>2020-08-23T09:31:29Z</time>
      </trkpt>
      <trkpt lat="41.884024" lon="0.280037">
        <ele>325.279</ele>
        <time>2020-08-23T09:31:30Z</time>
      </trkpt>
      <trkpt lat="41.884035" lon="0.279913">
        <ele>325.277</ele>
        <time>2020-08-23T09:31:32Z</time>
      </trkpt>
      <trkpt lat="41.884040" lon="0.279850">
        <ele>325.261</ele>
        <time>2020-08-23T09:31:33Z</time>
      </trkpt>
      <trkpt lat="41.884044" lon="0.279786">
        <ele>325.227</ele>
        <time>2020-08-23T09:31:34Z</time>
      </trkpt>
      <trkpt lat="41.884054" lon="0.279723">
        <ele>325.208</ele>
        <time>2020-08-23T09:31:35Z</time>
      </trkpt>
      <trkpt lat="41.884066" lon="0.279662">
        <ele>325.252</ele>
        <time>2020-08-23T09:31:36Z</time>
      </trkpt>
      <trkpt lat="41.884074" lon="0.279599">
        <ele>325.272</ele>
        <time>2020-08-23T09:31:37Z</time>
      </trkpt>
      <trkpt lat="41.884076" lon="0.279488">
        <ele>325.390</ele>
        <time>2020-08-23T09:31:39Z</time>
      </trkpt>
      <trkpt lat="41.884096" lon="0.279377">
        <ele>325.422</ele>
        <time>2020-08-23T09:31:41Z</time>
      </trkpt>
      <trkpt lat="41.884110" lon="0.279273">
        <ele>325.773</ele>
        <time>2020-08-23T09:31:43Z</time>
      </trkpt>
      <trkpt lat="41.884115" lon="0.279169">
        <ele>325.824</ele>
        <time>2020-08-23T09:31:45Z</time>
      </trkpt>
      <trkpt lat="41.884119" lon="0.279055">
        <ele>325.910</ele>
        <time>2020-08-23T09:31:47Z</time>
      </trkpt>
      <trkpt lat="41.884133" lon="0.278951">
        <ele>326.079</ele>
        <time>2020-08-23T09:31:49Z</time>
      </trkpt>
      <trkpt lat="41.884151" lon="0.278843">
        <ele>326.184</ele>
        <time>2020-08-23T09:31:51Z</time>
      </trkpt>
      <trkpt lat="41.884164" lon="0.278727">
        <ele>326.207</ele>
        <time>2020-08-23T09:31:53Z</time>
      </trkpt>
      <trkpt lat="41.884162" lon="0.278607">
        <ele>326.317</ele>
        <time>2020-08-23T09:31:55Z</time>
      </trkpt>
      <trkpt lat="41.884169" lon="0.278492">
        <ele>326.308</ele>
        <time>2020-08-23T09:31:57Z</time>
      </trkpt>
      <trkpt lat="41.884191" lon="0.278400">
        <ele>326.423</ele>
        <time>2020-08-23T09:31:59Z</time>
      </trkpt>
      <trkpt lat="41.884217" lon="0.278297">
        <ele>326.533</ele>
        <time>2020-08-23T09:32:01Z</time>
      </trkpt>
      <trkpt lat="41.884238" lon="0.278197">
        <ele>326.761</ele>
        <time>2020-08-23T09:32:03Z</time>
      </trkpt>
      <trkpt lat="41.884242" lon="0.278088">
        <ele>326.873</ele>
        <time>2020-08-23T09:32:05Z</time>
      </trkpt>
      <trkpt lat="41.884262" lon="0.277989">
        <ele>326.934</ele>
        <time>2020-08-23T09:32:07Z</time>
      </trkpt>
      <trkpt lat="41.884288" lon="0.277883">
        <ele>327.075</ele>
        <time>2020-08-23T09:32:09Z</time>
      </trkpt>
      <trkpt lat="41.884307" lon="0.277787">
        <ele>327.131</ele>
        <time>2020-08-23T09:32:11Z</time>
      </trkpt>
      <trkpt lat="41.884330" lon="0.277692">
        <ele>327.390</ele>
        <time>2020-08-23T09:32:13Z</time>
      </trkpt>
      <trkpt lat="41.884365" lon="0.277602">
        <ele>327.556</ele>
        <time>2020-08-23T09:32:15Z</time>
      </trkpt>
      <trkpt lat="41.884424" lon="0.277535">
        <ele>327.659</ele>
        <time>2020-08-23T09:32:17Z</time>
      </trkpt>
      <trkpt lat="41.884493" lon="0.277472">
        <ele>327.714</ele>
        <time>2020-08-23T09:32:19Z</time>
      </trkpt>
      <trkpt lat="41.884550" lon="0.277397">
        <ele>327.808</ele>
        <time>2020-08-23T09:32:21Z</time>
      </trkpt>
      <trkpt lat="41.884597" lon="0.277311">
        <ele>328.020</ele>
        <time>2020-08-23T09:32:23Z</time>
      </trkpt>
      <trkpt lat="41.884634" lon="0.277213">
        <ele>328.250</ele>
        <time>2020-08-23T09:32:25Z</time>
      </trkpt>
      <trkpt lat="41.884663" lon="0.277112">
        <ele>328.338</ele>
        <time>2020-08-23T09:32:27Z</time>
      </trkpt>
      <trkpt lat="41.884691" lon="0.277019">
        <ele>328.410</ele>
        <time>2020-08-23T09:32:29Z</time>
      </trkpt>
      <trkpt lat="41.884718" lon="0.276941">
        <ele>328.551</ele>
        <time>2020-08-23T09:32:31Z</time>
      </trkpt>
      <trkpt lat="41.884745" lon="0.276868">
        <ele>328.862</ele>
        <time>2020-08-23T09:32:33Z</time>
      </trkpt>
      <trkpt lat="41.884768" lon="0.276785">
        <ele>329.048</ele>
        <time>2020-08-23T09:32:35Z</time>
      </trkpt>
      <trkpt lat="41.884782" lon="0.276697">
        <ele>329.377</ele>
        <time>2020-08-23T09:32:37Z</time>
      </trkpt>
      <trkpt lat="41.884800" lon="0.276614">
        <ele>329.632</ele>
        <time>2020-08-23T09:32:39Z</time>
      </trkpt>
      <trkpt lat="41.884806" lon="0.276525">
        <ele>329.992</ele>
        <time>2020-08-23T09:32:41Z</time>
      </trkpt>
      <trkpt lat="41.884808" lon="0.276432">
        <ele>330.111</ele>
        <time>2020-08-23T09:32:43Z</time>
      </trkpt>
      <trkpt lat="41.884808" lon="0.276331">
        <ele>330.308</ele>
        <time>2020-08-23T09:32:45Z</time>
      </trkpt>
      <trkpt lat="41.884801" lon="0.276238">
        <ele>330.688</ele>
        <time>2020-08-23T09:32:47Z</time>
      </trkpt>
      <trkpt lat="41.884801" lon="0.276144">
        <ele>330.978</ele>
        <time>2020-08-23T09:32:49Z</time>
      </trkpt>
      <trkpt lat="41.884803" lon="0.276056">
        <ele>331.276</ele>
        <time>2020-08-23T09:32:51Z</time>
      </trkpt>
      <trkpt lat="41.884801" lon="0.275980">
        <ele>331.598</ele>
        <time>2020-08-23T09:32:53Z</time>
      </trkpt>
      <trkpt lat="41.884813" lon="0.275898">
        <ele>331.889</ele>
        <time>2020-08-23T09:32:55Z</time>
      </trkpt>
      <trkpt lat="41.884811" lon="0.275813">
        <ele>332.110</ele>
        <time>2020-08-23T09:32:57Z</time>
      </trkpt>
      <trkpt lat="41.884824" lon="0.275732">
        <ele>332.346</ele>
        <time>2020-08-23T09:32:59Z</time>
      </trkpt>
      <trkpt lat="41.884837" lon="0.275650">
        <ele>332.465</ele>
        <time>2020-08-23T09:33:01Z</time>
      </trkpt>
      <trkpt lat="41.884851" lon="0.275576">
        <ele>332.733</ele>
        <time>2020-08-23T09:33:03Z</time>
      </trkpt>
      <trkpt lat="41.884867" lon="0.275496">
        <ele>333.023</ele>
        <time>2020-08-23T09:33:05Z</time>
      </trkpt>
      <trkpt lat="41.884903" lon="0.275442">
        <ele>333.215</ele>
        <time>2020-08-23T09:33:07Z</time>
      </trkpt>
      <trkpt lat="41.884936" lon="0.275381">
        <ele>333.308</ele>
        <time>2020-08-23T09:33:09Z</time>
      </trkpt>
      <trkpt lat="41.884971" lon="0.275313">
        <ele>333.458</ele>
        <time>2020-08-23T09:33:11Z</time>
      </trkpt>
      <trkpt lat="41.884989" lon="0.275234">
        <ele>333.538</ele>
        <time>2020-08-23T09:33:13Z</time>
      </trkpt>
      <trkpt lat="41.884990" lon="0.275145">
        <ele>333.696</ele>
        <time>2020-08-23T09:33:15Z</time>
      </trkpt>
      <trkpt lat="41.884996" lon="0.275050">
        <ele>333.618</ele>
        <time>2020-08-23T09:33:17Z</time>
      </trkpt>
      <trkpt lat="41.885020" lon="0.274959">
        <ele>333.619</ele>
        <time>2020-08-23T09:33:19Z</time>
      </trkpt>
      <trkpt lat="41.885041" lon="0.274862">
        <ele>333.790</ele>
        <time>2020-08-23T09:33:21Z</time>
      </trkpt>
      <trkpt lat="41.885060" lon="0.274775">
        <ele>333.716</ele>
        <time>2020-08-23T09:33:23Z</time>
      </trkpt>
      <trkpt lat="41.885085" lon="0.274688">
        <ele>333.945</ele>
        <time>2020-08-23T09:33:25Z</time>
      </trkpt>
      <trkpt lat="41.885108" lon="0.274597">
        <ele>334.184</ele>
        <time>2020-08-23T09:33:27Z</time>
      </trkpt>
      <trkpt lat="41.885135" lon="0.274508">
        <ele>334.207</ele>
        <time>2020-08-23T09:33:29Z</time>
      </trkpt>
      <trkpt lat="41.885157" lon="0.274416">
        <ele>334.317</ele>
        <time>2020-08-23T09:33:31Z</time>
      </trkpt>
      <trkpt lat="41.885184" lon="0.274330">
        <ele>334.408</ele>
        <time>2020-08-23T09:33:33Z</time>
      </trkpt>
      <trkpt lat="41.885204" lon="0.274252">
        <ele>334.523</ele>
        <time>2020-08-23T09:33:35Z</time>
      </trkpt>
      <trkpt lat="41.885231" lon="0.274168">
        <ele>334.733</ele>
        <time>2020-08-23T09:33:37Z</time>
      </trkpt>
      <trkpt lat="41.885255" lon="0.274088">
        <ele>334.971</ele>
        <time>2020-08-23T09:33:39Z</time>
      </trkpt>
      <trkpt lat="41.885279" lon="0.273994">
        <ele>335.183</ele>
        <time>2020-08-23T09:33:41Z</time>
      </trkpt>
      <trkpt lat="41.885307" lon="0.273911">
        <ele>335.354</ele>
        <time>2020-08-23T09:33:43Z</time>
      </trkpt>
      <trkpt lat="41.885341" lon="0.273833">
        <ele>335.585</ele>
        <time>2020-08-23T09:33:45Z</time>
      </trkpt>
      <trkpt lat="41.885382" lon="0.273755">
        <ele>335.741</ele>
        <time>2020-08-23T09:33:47Z</time>
      </trkpt>
      <trkpt lat="41.885419" lon="0.273668">
        <ele>336.160</ele>
        <time>2020-08-23T09:33:49Z</time>
      </trkpt>
      <trkpt lat="41.885448" lon="0.273584">
        <ele>336.489</ele>
        <time>2020-08-23T09:33:51Z</time>
      </trkpt>
      <trkpt lat="41.885486" lon="0.273503">
        <ele>336.606</ele>
        <time>2020-08-23T09:33:53Z</time>
      </trkpt>
      <trkpt lat="41.885516" lon="0.273430">
        <ele>336.826</ele>
        <time>2020-08-23T09:33:55Z</time>
      </trkpt>
      <trkpt lat="41.885556" lon="0.273351">
        <ele>337.108</ele>
        <time>2020-08-23T09:33:57Z</time>
      </trkpt>
      <trkpt lat="41.885589" lon="0.273266">
        <ele>337.483</ele>
        <time>2020-08-23T09:33:59Z</time>
      </trkpt>
      <trkpt lat="41.885626" lon="0.273188">
        <ele>337.673</ele>
        <time>2020-08-23T09:34:01Z</time>
      </trkpt>
      <trkpt lat="41.885659" lon="0.273115">
        <ele>337.831</ele>
        <time>2020-08-23T09:34:03Z</time>
      </trkpt>
      <trkpt lat="41.885694" lon="0.273034">
        <ele>338.053</ele>
        <time>2020-08-23T09:34:05Z</time>
      </trkpt>
      <trkpt lat="41.885726" lon="0.272955">
        <ele>338.264</ele>
        <time>2020-08-23T09:34:07Z</time>
      </trkpt>
      <trkpt lat="41.885754" lon="0.272866">
        <ele>338.375</ele>
        <time>2020-08-23T09:34:09Z</time>
      </trkpt>
      <trkpt lat="41.885788" lon="0.272782">
        <ele>338.451</ele>
        <time>2020-08-23T09:34:11Z</time>
      </trkpt>
      <trkpt lat="41.885818" lon="0.272696">
        <ele>338.850</ele>
        <time>2020-08-23T09:34:13Z</time>
      </trkpt>
      <trkpt lat="41.885846" lon="0.272601">
        <ele>339.153</ele>
        <time>2020-08-23T09:34:15Z</time>
      </trkpt>
      <trkpt lat="41.885875" lon="0.272512">
        <ele>339.304</ele>
        <time>2020-08-23T09:34:17Z</time>
      </trkpt>
      <trkpt lat="41.885906" lon="0.272423">
        <ele>339.514</ele>
        <time>2020-08-23T09:34:19Z</time>
      </trkpt>
      <trkpt lat="41.885941" lon="0.272331">
        <ele>339.608</ele>
        <time>2020-08-23T09:34:21Z</time>
      </trkpt>
      <trkpt lat="41.885990" lon="0.272238">
        <ele>339.650</ele>
        <time>2020-08-23T09:34:23Z</time>
      </trkpt>
      <trkpt lat="41.886042" lon="0.272151">
        <ele>339.680</ele>
        <time>2020-08-23T09:34:25Z</time>
      </trkpt>
      <trkpt lat="41.886092" lon="0.272054">
        <ele>339.598</ele>
        <time>2020-08-23T09:34:27Z</time>
      </trkpt>
      <trkpt lat="41.886118" lon="0.271999">
        <ele>339.580</ele>
        <time>2020-08-23T09:34:28Z</time>
      </trkpt>
      <trkpt lat="41.886142" lon="0.271946">
        <ele>339.511</ele>
        <time>2020-08-23T09:34:29Z</time>
      </trkpt>
      <trkpt lat="41.886189" lon="0.271847">
        <ele>339.422</ele>
        <time>2020-08-23T09:34:31Z</time>
      </trkpt>
      <trkpt lat="41.886212" lon="0.271791">
        <ele>339.478</ele>
        <time>2020-08-23T09:34:32Z</time>
      </trkpt>
      <trkpt lat="41.886240" lon="0.271738">
        <ele>339.347</ele>
        <time>2020-08-23T09:34:33Z</time>
      </trkpt>
      <trkpt lat="41.886269" lon="0.271686">
        <ele>339.398</ele>
        <time>2020-08-23T09:34:34Z</time>
      </trkpt>
      <trkpt lat="41.886299" lon="0.271637">
        <ele>339.315</ele>
        <time>2020-08-23T09:34:35Z</time>
      </trkpt>
      <trkpt lat="41.886329" lon="0.271585">
        <ele>339.226</ele>
        <time>2020-08-23T09:34:36Z</time>
      </trkpt>
      <trkpt lat="41.886360" lon="0.271527">
        <ele>339.108</ele>
        <time>2020-08-23T09:34:37Z</time>
      </trkpt>
      <trkpt lat="41.886389" lon="0.271469">
        <ele>339.014</ele>
        <time>2020-08-23T09:34:38Z</time>
      </trkpt>
      <trkpt lat="41.886415" lon="0.271414">
        <ele>339.074</ele>
        <time>2020-08-23T09:34:39Z</time>
      </trkpt>
      <trkpt lat="41.886444" lon="0.271359">
        <ele>339.082</ele>
        <time>2020-08-23T09:34:40Z</time>
      </trkpt>
      <trkpt lat="41.886472" lon="0.271306">
        <ele>339.094</ele>
        <time>2020-08-23T09:34:41Z</time>
      </trkpt>
      <trkpt lat="41.886500" lon="0.271252">
        <ele>339.165</ele>
        <time>2020-08-23T09:34:42Z</time>
      </trkpt>
      <trkpt lat="41.886526" lon="0.271199">
        <ele>339.236</ele>
        <time>2020-08-23T09:34:43Z</time>
      </trkpt>
      <trkpt lat="41.886552" lon="0.271149">
        <ele>339.242</ele>
        <time>2020-08-23T09:34:44Z</time>
      </trkpt>
      <trkpt lat="41.886575" lon="0.271096">
        <ele>339.291</ele>
        <time>2020-08-23T09:34:45Z</time>
      </trkpt>
      <trkpt lat="41.886599" lon="0.271043">
        <ele>339.296</ele>
        <time>2020-08-23T09:34:46Z</time>
      </trkpt>
      <trkpt lat="41.886625" lon="0.270991">
        <ele>339.231</ele>
        <time>2020-08-23T09:34:47Z</time>
      </trkpt>
      <trkpt lat="41.886654" lon="0.270936">
        <ele>339.124</ele>
        <time>2020-08-23T09:34:48Z</time>
      </trkpt>
      <trkpt lat="41.886683" lon="0.270882">
        <ele>339.008</ele>
        <time>2020-08-23T09:34:49Z</time>
      </trkpt>
      <trkpt lat="41.886709" lon="0.270830">
        <ele>339.044</ele>
        <time>2020-08-23T09:34:50Z</time>
      </trkpt>
      <trkpt lat="41.886733" lon="0.270776">
        <ele>339.064</ele>
        <time>2020-08-23T09:34:51Z</time>
      </trkpt>
      <trkpt lat="41.886762" lon="0.270723">
        <ele>339.012</ele>
        <time>2020-08-23T09:34:52Z</time>
      </trkpt>
      <trkpt lat="41.886784" lon="0.270666">
        <ele>339.054</ele>
        <time>2020-08-23T09:34:53Z</time>
      </trkpt>
      <trkpt lat="41.886799" lon="0.270608">
        <ele>339.055</ele>
        <time>2020-08-23T09:34:54Z</time>
      </trkpt>
      <trkpt lat="41.886813" lon="0.270550">
        <ele>339.026</ele>
        <time>2020-08-23T09:34:55Z</time>
      </trkpt>
      <trkpt lat="41.886826" lon="0.270489">
        <ele>339.052</ele>
        <time>2020-08-23T09:34:56Z</time>
      </trkpt>
      <trkpt lat="41.886840" lon="0.270424">
        <ele>339.181</ele>
        <time>2020-08-23T09:34:57Z</time>
      </trkpt>
      <trkpt lat="41.886859" lon="0.270362">
        <ele>339.122</ele>
        <time>2020-08-23T09:34:58Z</time>
      </trkpt>
      <trkpt lat="41.886879" lon="0.270301">
        <ele>339.162</ele>
        <time>2020-08-23T09:34:59Z</time>
      </trkpt>
      <trkpt lat="41.886896" lon="0.270238">
        <ele>339.208</ele>
        <time>2020-08-23T09:35:00Z</time>
      </trkpt>
      <trkpt lat="41.886912" lon="0.270175">
        <ele>339.208</ele>
        <time>2020-08-23T09:35:01Z</time>
      </trkpt>
      <trkpt lat="41.886929" lon="0.270115">
        <ele>339.257</ele>
        <time>2020-08-23T09:35:02Z</time>
      </trkpt>
      <trkpt lat="41.886949" lon="0.270054">
        <ele>339.287</ele>
        <time>2020-08-23T09:35:03Z</time>
      </trkpt>
      <trkpt lat="41.886971" lon="0.269996">
        <ele>339.235</ele>
        <time>2020-08-23T09:35:04Z</time>
      </trkpt>
      <trkpt lat="41.886994" lon="0.269942">
        <ele>339.297</ele>
        <time>2020-08-23T09:35:05Z</time>
      </trkpt>
      <trkpt lat="41.887033" lon="0.269836">
        <ele>339.348</ele>
        <time>2020-08-23T09:35:07Z</time>
      </trkpt>
      <trkpt lat="41.887053" lon="0.269777">
        <ele>339.359</ele>
        <time>2020-08-23T09:35:08Z</time>
      </trkpt>
      <trkpt lat="41.887079" lon="0.269718">
        <ele>339.375</ele>
        <time>2020-08-23T09:35:09Z</time>
      </trkpt>
      <trkpt lat="41.887102" lon="0.269653">
        <ele>339.344</ele>
        <time>2020-08-23T09:35:10Z</time>
      </trkpt>
      <trkpt lat="41.887119" lon="0.269585">
        <ele>339.398</ele>
        <time>2020-08-23T09:35:11Z</time>
      </trkpt>
      <trkpt lat="41.887132" lon="0.269513">
        <ele>339.315</ele>
        <time>2020-08-23T09:35:12Z</time>
      </trkpt>
      <trkpt lat="41.887144" lon="0.269441">
        <ele>339.326</ele>
        <time>2020-08-23T09:35:13Z</time>
      </trkpt>
      <trkpt lat="41.887159" lon="0.269374">
        <ele>339.308</ele>
        <time>2020-08-23T09:35:14Z</time>
      </trkpt>
      <trkpt lat="41.887180" lon="0.269311">
        <ele>339.394</ele>
        <time>2020-08-23T09:35:15Z</time>
      </trkpt>
      <trkpt lat="41.887200" lon="0.269250">
        <ele>339.474</ele>
        <time>2020-08-23T09:35:16Z</time>
      </trkpt>
      <trkpt lat="41.887223" lon="0.269193">
        <ele>339.542</ele>
        <time>2020-08-23T09:35:17Z</time>
      </trkpt>
      <trkpt lat="41.887239" lon="0.269134">
        <ele>339.514</ele>
        <time>2020-08-23T09:35:18Z</time>
      </trkpt>
      <trkpt lat="41.887257" lon="0.269071">
        <ele>339.625</ele>
        <time>2020-08-23T09:35:19Z</time>
      </trkpt>
      <trkpt lat="41.887278" lon="0.269012">
        <ele>339.736</ele>
        <time>2020-08-23T09:35:20Z</time>
      </trkpt>
      <trkpt lat="41.887301" lon="0.268958">
        <ele>339.732</ele>
        <time>2020-08-23T09:35:21Z</time>
      </trkpt>
      <trkpt lat="41.887324" lon="0.268902">
        <ele>339.741</ele>
        <time>2020-08-23T09:35:22Z</time>
      </trkpt>
      <trkpt lat="41.887345" lon="0.268842">
        <ele>339.722</ele>
        <time>2020-08-23T09:35:23Z</time>
      </trkpt>
      <trkpt lat="41.887370" lon="0.268785">
        <ele>339.762</ele>
        <time>2020-08-23T09:35:24Z</time>
      </trkpt>
      <trkpt lat="41.887396" lon="0.268731">
        <ele>339.708</ele>
        <time>2020-08-23T09:35:25Z</time>
      </trkpt>
      <trkpt lat="41.887423" lon="0.268675">
        <ele>339.708</ele>
        <time>2020-08-23T09:35:26Z</time>
      </trkpt>
      <trkpt lat="41.887450" lon="0.268621">
        <ele>339.897</ele>
        <time>2020-08-23T09:35:27Z</time>
      </trkpt>
      <trkpt lat="41.887474" lon="0.268567">
        <ele>339.857</ele>
        <time>2020-08-23T09:35:28Z</time>
      </trkpt>
      <trkpt lat="41.887498" lon="0.268512">
        <ele>339.845</ele>
        <time>2020-08-23T09:35:29Z</time>
      </trkpt>
      <trkpt lat="41.887526" lon="0.268461">
        <ele>339.867</ele>
        <time>2020-08-23T09:35:30Z</time>
      </trkpt>
      <trkpt lat="41.887557" lon="0.268411">
        <ele>339.878</ele>
        <time>2020-08-23T09:35:31Z</time>
      </trkpt>
      <trkpt lat="41.887584" lon="0.268360">
        <ele>339.869</ele>
        <time>2020-08-23T09:35:32Z</time>
      </trkpt>
      <trkpt lat="41.887608" lon="0.268308">
        <ele>339.955</ele>
        <time>2020-08-23T09:35:33Z</time>
      </trkpt>
      <trkpt lat="41.887635" lon="0.268257">
        <ele>340.094</ele>
        <time>2020-08-23T09:35:34Z</time>
      </trkpt>
      <trkpt lat="41.887659" lon="0.268201">
        <ele>340.147</ele>
        <time>2020-08-23T09:35:35Z</time>
      </trkpt>
      <trkpt lat="41.887681" lon="0.268142">
        <ele>340.229</ele>
        <time>2020-08-23T09:35:36Z</time>
      </trkpt>
      <trkpt lat="41.887710" lon="0.268090">
        <ele>340.321</ele>
        <time>2020-08-23T09:35:37Z</time>
      </trkpt>
      <trkpt lat="41.887739" lon="0.268042">
        <ele>340.308</ele>
        <time>2020-08-23T09:35:38Z</time>
      </trkpt>
      <trkpt lat="41.887767" lon="0.267992">
        <ele>340.399</ele>
        <time>2020-08-23T09:35:39Z</time>
      </trkpt>
      <trkpt lat="41.887796" lon="0.267940">
        <ele>340.329</ele>
        <time>2020-08-23T09:35:40Z</time>
      </trkpt>
      <trkpt lat="41.887832" lon="0.267893">
        <ele>340.317</ele>
        <time>2020-08-23T09:35:41Z</time>
      </trkpt>
      <trkpt lat="41.887866" lon="0.267843">
        <ele>340.359</ele>
        <time>2020-08-23T09:35:42Z</time>
      </trkpt>
      <trkpt lat="41.887901" lon="0.267795">
        <ele>340.310</ele>
        <time>2020-08-23T09:35:43Z</time>
      </trkpt>
      <trkpt lat="41.887934" lon="0.267745">
        <ele>340.481</ele>
        <time>2020-08-23T09:35:44Z</time>
      </trkpt>
      <trkpt lat="41.887972" lon="0.267704">
        <ele>340.527</ele>
        <time>2020-08-23T09:35:45Z</time>
      </trkpt>
      <trkpt lat="41.888008" lon="0.267663">
        <ele>340.576</ele>
        <time>2020-08-23T09:35:46Z</time>
      </trkpt>
      <trkpt lat="41.888044" lon="0.267625">
        <ele>340.558</ele>
        <time>2020-08-23T09:35:47Z</time>
      </trkpt>
      <trkpt lat="41.888076" lon="0.267577">
        <ele>340.552</ele>
        <time>2020-08-23T09:35:48Z</time>
      </trkpt>
      <trkpt lat="41.888111" lon="0.267525">
        <ele>340.517</ele>
        <time>2020-08-23T09:35:49Z</time>
      </trkpt>
      <trkpt lat="41.888145" lon="0.267473">
        <ele>340.508</ele>
        <time>2020-08-23T09:35:50Z</time>
      </trkpt>
      <trkpt lat="41.888179" lon="0.267424">
        <ele>340.650</ele>
        <time>2020-08-23T09:35:51Z</time>
      </trkpt>
      <trkpt lat="41.888210" lon="0.267376">
        <ele>340.690</ele>
        <time>2020-08-23T09:35:52Z</time>
      </trkpt>
      <trkpt lat="41.888243" lon="0.267329">
        <ele>340.638</ele>
        <time>2020-08-23T09:35:53Z</time>
      </trkpt>
      <trkpt lat="41.888277" lon="0.267278">
        <ele>340.660</ele>
        <time>2020-08-23T09:35:54Z</time>
      </trkpt>
      <trkpt lat="41.888314" lon="0.267236">
        <ele>340.641</ele>
        <time>2020-08-23T09:35:55Z</time>
      </trkpt>
      <trkpt lat="41.888350" lon="0.267194">
        <ele>340.642</ele>
        <time>2020-08-23T09:35:56Z</time>
      </trkpt>
      <trkpt lat="41.888386" lon="0.267149">
        <ele>340.658</ele>
        <time>2020-08-23T09:35:57Z</time>
      </trkpt>
      <trkpt lat="41.888421" lon="0.267107">
        <ele>340.627</ele>
        <time>2020-08-23T09:35:58Z</time>
      </trkpt>
      <trkpt lat="41.888455" lon="0.267067">
        <ele>340.627</ele>
        <time>2020-08-23T09:35:59Z</time>
      </trkpt>
      <trkpt lat="41.888529" lon="0.267008">
        <ele>340.768</ele>
        <time>2020-08-23T09:36:01Z</time>
      </trkpt>
      <trkpt lat="41.888561" lon="0.266965">
        <ele>340.814</ele>
        <time>2020-08-23T09:36:02Z</time>
      </trkpt>
      <trkpt lat="41.888599" lon="0.266932">
        <ele>340.908</ele>
        <time>2020-08-23T09:36:03Z</time>
      </trkpt>
      <trkpt lat="41.888636" lon="0.266896">
        <ele>341.057</ele>
        <time>2020-08-23T09:36:04Z</time>
      </trkpt>
      <trkpt lat="41.888701" lon="0.266828">
        <ele>341.267</ele>
        <time>2020-08-23T09:36:06Z</time>
      </trkpt>
      <trkpt lat="41.888767" lon="0.266756">
        <ele>341.385</ele>
        <time>2020-08-23T09:36:08Z</time>
      </trkpt>
      <trkpt lat="41.888801" lon="0.266711">
        <ele>341.427</ele>
        <time>2020-08-23T09:36:09Z</time>
      </trkpt>
      <trkpt lat="41.888834" lon="0.266669">
        <ele>341.578</ele>
        <time>2020-08-23T09:36:10Z</time>
      </trkpt>
      <trkpt lat="41.888872" lon="0.266633">
        <ele>341.629</ele>
        <time>2020-08-23T09:36:11Z</time>
      </trkpt>
      <trkpt lat="41.888908" lon="0.266596">
        <ele>341.795</ele>
        <time>2020-08-23T09:36:12Z</time>
      </trkpt>
      <trkpt lat="41.888945" lon="0.266562">
        <ele>341.794</ele>
        <time>2020-08-23T09:36:13Z</time>
      </trkpt>
      <trkpt lat="41.888983" lon="0.266525">
        <ele>341.777</ele>
        <time>2020-08-23T09:36:14Z</time>
      </trkpt>
      <trkpt lat="41.889050" lon="0.266450">
        <ele>341.761</ele>
        <time>2020-08-23T09:36:16Z</time>
      </trkpt>
      <trkpt lat="41.889084" lon="0.266409">
        <ele>341.727</ele>
        <time>2020-08-23T09:36:17Z</time>
      </trkpt>
      <trkpt lat="41.889118" lon="0.266363">
        <ele>341.808</ele>
        <time>2020-08-23T09:36:18Z</time>
      </trkpt>
      <trkpt lat="41.889171" lon="0.266282">
        <ele>342.042</ele>
        <time>2020-08-23T09:36:20Z</time>
      </trkpt>
      <trkpt lat="41.889236" lon="0.266213">
        <ele>342.142</ele>
        <time>2020-08-23T09:36:22Z</time>
      </trkpt>
      <trkpt lat="41.889272" lon="0.266173">
        <ele>342.210</ele>
        <time>2020-08-23T09:36:23Z</time>
      </trkpt>
      <trkpt lat="41.889331" lon="0.266092">
        <ele>342.362</ele>
        <time>2020-08-23T09:36:25Z</time>
      </trkpt>
      <trkpt lat="41.889396" lon="0.266031">
        <ele>342.583</ele>
        <time>2020-08-23T09:36:27Z</time>
      </trkpt>
      <trkpt lat="41.889461" lon="0.265967">
        <ele>342.774</ele>
        <time>2020-08-23T09:36:29Z</time>
      </trkpt>
      <trkpt lat="41.889524" lon="0.265913">
        <ele>342.810</ele>
        <time>2020-08-23T09:36:31Z</time>
      </trkpt>
      <trkpt lat="41.889583" lon="0.265848">
        <ele>343.059</ele>
        <time>2020-08-23T09:36:33Z</time>
      </trkpt>
      <trkpt lat="41.889643" lon="0.265773">
        <ele>343.284</ele>
        <time>2020-08-23T09:36:35Z</time>
      </trkpt>
      <trkpt lat="41.889695" lon="0.265704">
        <ele>343.507</ele>
        <time>2020-08-23T09:36:37Z</time>
      </trkpt>
      <trkpt lat="41.889729" lon="0.265638">
        <ele>343.917</ele>
        <time>2020-08-23T09:36:39Z</time>
      </trkpt>
      <trkpt lat="41.889750" lon="0.265556">
        <ele>344.108</ele>
        <time>2020-08-23T09:36:41Z</time>
      </trkpt>
      <trkpt lat="41.889766" lon="0.265473">
        <ele>344.323</ele>
        <time>2020-08-23T09:36:43Z</time>
      </trkpt>
      <trkpt lat="41.889784" lon="0.265385">
        <ele>344.543</ele>
        <time>2020-08-23T09:36:45Z</time>
      </trkpt>
      <trkpt lat="41.889802" lon="0.265302">
        <ele>344.751</ele>
        <time>2020-08-23T09:36:47Z</time>
      </trkpt>
      <trkpt lat="41.889833" lon="0.265226">
        <ele>344.963</ele>
        <time>2020-08-23T09:36:49Z</time>
      </trkpt>
      <trkpt lat="41.889859" lon="0.265156">
        <ele>345.164</ele>
        <time>2020-08-23T09:36:51Z</time>
      </trkpt>
      <trkpt lat="41.889878" lon="0.265085">
        <ele>345.415</ele>
        <time>2020-08-23T09:36:53Z</time>
      </trkpt>
      <trkpt lat="41.889889" lon="0.265024">
        <ele>345.851</ele>
        <time>2020-08-23T09:36:55Z</time>
      </trkpt>
      <trkpt lat="41.889897" lon="0.264957">
        <ele>346.360</ele>
        <time>2020-08-23T09:36:57Z</time>
      </trkpt>
      <trkpt lat="41.889888" lon="0.264892">
        <ele>346.829</ele>
        <time>2020-08-23T09:36:59Z</time>
      </trkpt>
      <trkpt lat="41.889861" lon="0.264825">
        <ele>347.100</ele>
        <time>2020-08-23T09:37:01Z</time>
      </trkpt>
      <trkpt lat="41.889828" lon="0.264755">
        <ele>347.320</ele>
        <time>2020-08-23T09:37:03Z</time>
      </trkpt>
      <trkpt lat="41.889807" lon="0.264676">
        <ele>347.508</ele>
        <time>2020-08-23T09:37:05Z</time>
      </trkpt>
      <trkpt lat="41.889778" lon="0.264603">
        <ele>347.697</ele>
        <time>2020-08-23T09:37:07Z</time>
      </trkpt>
      <trkpt lat="41.889750" lon="0.264516">
        <ele>347.747</ele>
        <time>2020-08-23T09:37:09Z</time>
      </trkpt>
      <trkpt lat="41.889714" lon="0.264420">
        <ele>347.715</ele>
        <time>2020-08-23T09:37:11Z</time>
      </trkpt>
      <trkpt lat="41.889675" lon="0.264329">
        <ele>347.677</ele>
        <time>2020-08-23T09:37:13Z</time>
      </trkpt>
      <trkpt lat="41.889632" lon="0.264237">
        <ele>347.698</ele>
        <time>2020-08-23T09:37:15Z</time>
      </trkpt>
      <trkpt lat="41.889608" lon="0.264185">
        <ele>347.629</ele>
        <time>2020-08-23T09:37:16Z</time>
      </trkpt>
      <trkpt lat="41.889584" lon="0.264131">
        <ele>347.625</ele>
        <time>2020-08-23T09:37:17Z</time>
      </trkpt>
      <trkpt lat="41.889535" lon="0.264031">
        <ele>347.714</ele>
        <time>2020-08-23T09:37:19Z</time>
      </trkpt>
      <trkpt lat="41.889487" lon="0.263941">
        <ele>347.895</ele>
        <time>2020-08-23T09:37:21Z</time>
      </trkpt>
      <trkpt lat="41.889453" lon="0.263845">
        <ele>347.949</ele>
        <time>2020-08-23T09:37:23Z</time>
      </trkpt>
      <trkpt lat="41.889419" lon="0.263746">
        <ele>347.923</ele>
        <time>2020-08-23T09:37:25Z</time>
      </trkpt>
      <trkpt lat="41.889390" lon="0.263644">
        <ele>347.908</ele>
        <time>2020-08-23T09:37:27Z</time>
      </trkpt>
      <trkpt lat="41.889355" lon="0.263544">
        <ele>347.814</ele>
        <time>2020-08-23T09:37:29Z</time>
      </trkpt>
      <trkpt lat="41.889308" lon="0.263439">
        <ele>347.814</ele>
        <time>2020-08-23T09:37:31Z</time>
      </trkpt>
      <trkpt lat="41.889287" lon="0.263384">
        <ele>347.812</ele>
        <time>2020-08-23T09:37:32Z</time>
      </trkpt>
      <trkpt lat="41.889266" lon="0.263330">
        <ele>347.884</ele>
        <time>2020-08-23T09:37:33Z</time>
      </trkpt>
      <trkpt lat="41.889239" lon="0.263280">
        <ele>347.845</ele>
        <time>2020-08-23T09:37:34Z</time>
      </trkpt>
      <trkpt lat="41.889208" lon="0.263235">
        <ele>347.836</ele>
        <time>2020-08-23T09:37:35Z</time>
      </trkpt>
      <trkpt lat="41.889174" lon="0.263187">
        <ele>347.822</ele>
        <time>2020-08-23T09:37:36Z</time>
      </trkpt>
      <trkpt lat="41.889145" lon="0.263135">
        <ele>347.811</ele>
        <time>2020-08-23T09:37:37Z</time>
      </trkpt>
      <trkpt lat="41.889118" lon="0.263080">
        <ele>347.819</ele>
        <time>2020-08-23T09:37:38Z</time>
      </trkpt>
      <trkpt lat="41.889087" lon="0.263030">
        <ele>347.809</ele>
        <time>2020-08-23T09:37:39Z</time>
      </trkpt>
      <trkpt lat="41.889063" lon="0.262975">
        <ele>347.819</ele>
        <time>2020-08-23T09:37:40Z</time>
      </trkpt>
      <trkpt lat="41.889037" lon="0.262920">
        <ele>347.808</ele>
        <time>2020-08-23T09:37:41Z</time>
      </trkpt>
      <trkpt lat="41.889006" lon="0.262867">
        <ele>347.876</ele>
        <time>2020-08-23T09:37:42Z</time>
      </trkpt>
      <trkpt lat="41.888972" lon="0.262815">
        <ele>347.826</ele>
        <time>2020-08-23T09:37:43Z</time>
      </trkpt>
      <trkpt lat="41.888941" lon="0.262760">
        <ele>347.874</ele>
        <time>2020-08-23T09:37:44Z</time>
      </trkpt>
      <trkpt lat="41.888909" lon="0.262711">
        <ele>347.836</ele>
        <time>2020-08-23T09:37:45Z</time>
      </trkpt>
      <trkpt lat="41.888874" lon="0.262668">
        <ele>347.857</ele>
        <time>2020-08-23T09:37:46Z</time>
      </trkpt>
      <trkpt lat="41.888838" lon="0.262622">
        <ele>347.848</ele>
        <time>2020-08-23T09:37:47Z</time>
      </trkpt>
      <trkpt lat="41.888800" lon="0.262573">
        <ele>347.824</ele>
        <time>2020-08-23T09:37:48Z</time>
      </trkpt>
      <trkpt lat="41.888761" lon="0.262521">
        <ele>347.873</ele>
        <time>2020-08-23T09:37:49Z</time>
      </trkpt>
      <trkpt lat="41.888725" lon="0.262471">
        <ele>347.871</ele>
        <time>2020-08-23T09:37:50Z</time>
      </trkpt>
      <trkpt lat="41.888691" lon="0.262420">
        <ele>347.841</ele>
        <time>2020-08-23T09:37:51Z</time>
      </trkpt>
      <trkpt lat="41.888654" lon="0.262368">
        <ele>347.815</ele>
        <time>2020-08-23T09:37:52Z</time>
      </trkpt>
      <trkpt lat="41.888614" lon="0.262319">
        <ele>347.808</ele>
        <time>2020-08-23T09:37:53Z</time>
      </trkpt>
      <trkpt lat="41.888576" lon="0.262275">
        <ele>347.852</ele>
        <time>2020-08-23T09:37:54Z</time>
      </trkpt>
      <trkpt lat="41.888540" lon="0.262232">
        <ele>347.872</ele>
        <time>2020-08-23T09:37:55Z</time>
      </trkpt>
      <trkpt lat="41.888504" lon="0.262191">
        <ele>347.810</ele>
        <time>2020-08-23T09:37:56Z</time>
      </trkpt>
      <trkpt lat="41.888469" lon="0.262144">
        <ele>347.812</ele>
        <time>2020-08-23T09:37:57Z</time>
      </trkpt>
      <trkpt lat="41.888435" lon="0.262097">
        <ele>347.843</ele>
        <time>2020-08-23T09:37:58Z</time>
      </trkpt>
      <trkpt lat="41.888397" lon="0.262054">
        <ele>347.854</ele>
        <time>2020-08-23T09:37:59Z</time>
      </trkpt>
      <trkpt lat="41.888360" lon="0.262009">
        <ele>347.860</ele>
        <time>2020-08-23T09:38:00Z</time>
      </trkpt>
      <trkpt lat="41.888328" lon="0.261959">
        <ele>347.829</ele>
        <time>2020-08-23T09:38:01Z</time>
      </trkpt>
      <trkpt lat="41.888295" lon="0.261914">
        <ele>347.811</ele>
        <time>2020-08-23T09:38:02Z</time>
      </trkpt>
      <trkpt lat="41.888266" lon="0.261866">
        <ele>347.721</ele>
        <time>2020-08-23T09:38:03Z</time>
      </trkpt>
      <trkpt lat="41.888221" lon="0.261779">
        <ele>347.703</ele>
        <time>2020-08-23T09:38:05Z</time>
      </trkpt>
      <trkpt lat="41.888196" lon="0.261677">
        <ele>347.708</ele>
        <time>2020-08-23T09:38:07Z</time>
      </trkpt>
      <trkpt lat="41.888211" lon="0.261599">
        <ele>347.726</ele>
        <time>2020-08-23T09:38:09Z</time>
      </trkpt>
      <trkpt lat="41.888266" lon="0.261551">
        <ele>347.666</ele>
        <time>2020-08-23T09:38:11Z</time>
      </trkpt>
      <trkpt lat="41.888327" lon="0.261509">
        <ele>347.524</ele>
        <time>2020-08-23T09:38:13Z</time>
      </trkpt>
      <trkpt lat="41.888392" lon="0.261499">
        <ele>347.346</ele>
        <time>2020-08-23T09:38:15Z</time>
      </trkpt>
      <trkpt lat="41.888454" lon="0.261525">
        <ele>347.387</ele>
        <time>2020-08-23T09:38:17Z</time>
      </trkpt>
      <trkpt lat="41.888512" lon="0.261572">
        <ele>347.548</ele>
        <time>2020-08-23T09:38:19Z</time>
      </trkpt>
      <trkpt lat="41.888569" lon="0.261626">
        <ele>347.774</ele>
        <time>2020-08-23T09:38:21Z</time>
      </trkpt>
      <trkpt lat="41.888629" lon="0.261653">
        <ele>347.983</ele>
        <time>2020-08-23T09:38:23Z</time>
      </trkpt>
      <trkpt lat="41.888690" lon="0.261644">
        <ele>348.048</ele>
        <time>2020-08-23T09:38:25Z</time>
      </trkpt>
      <trkpt lat="41.888745" lon="0.261612">
        <ele>348.161</ele>
        <time>2020-08-23T09:38:27Z</time>
      </trkpt>
      <trkpt lat="41.888801" lon="0.261575">
        <ele>348.217</ele>
        <time>2020-08-23T09:38:29Z</time>
      </trkpt>
      <trkpt lat="41.888861" lon="0.261517">
        <ele>348.408</ele>
        <time>2020-08-23T09:38:31Z</time>
      </trkpt>
      <trkpt lat="41.888916" lon="0.261453">
        <ele>348.469</ele>
        <time>2020-08-23T09:38:33Z</time>
      </trkpt>
      <trkpt lat="41.888986" lon="0.261400">
        <ele>348.539</ele>
        <time>2020-08-23T09:38:35Z</time>
      </trkpt>
      <trkpt lat="41.889068" lon="0.261364">
        <ele>348.527</ele>
        <time>2020-08-23T09:38:37Z</time>
      </trkpt>
      <trkpt lat="41.889138" lon="0.261311">
        <ele>348.599</ele>
        <time>2020-08-23T09:38:39Z</time>
      </trkpt>
      <trkpt lat="41.889207" lon="0.261254">
        <ele>348.510</ele>
        <time>2020-08-23T09:38:41Z</time>
      </trkpt>
      <trkpt lat="41.889279" lon="0.261203">
        <ele>348.651</ele>
        <time>2020-08-23T09:38:43Z</time>
      </trkpt>
      <trkpt lat="41.889348" lon="0.261139">
        <ele>348.737</ele>
        <time>2020-08-23T09:38:45Z</time>
      </trkpt>
      <trkpt lat="41.889422" lon="0.261072">
        <ele>348.896</ele>
        <time>2020-08-23T09:38:47Z</time>
      </trkpt>
      <trkpt lat="41.889465" lon="0.261046">
        <ele>348.834</ele>
        <time>2020-08-23T09:38:48Z</time>
      </trkpt>
      <trkpt lat="41.889507" lon="0.261018">
        <ele>348.855</ele>
        <time>2020-08-23T09:38:49Z</time>
      </trkpt>
      <trkpt lat="41.889550" lon="0.260995">
        <ele>348.810</ele>
        <time>2020-08-23T09:38:50Z</time>
      </trkpt>
      <trkpt lat="41.889596" lon="0.260974">
        <ele>348.808</ele>
        <time>2020-08-23T09:38:51Z</time>
      </trkpt>
      <trkpt lat="41.889640" lon="0.260952">
        <ele>348.828</ele>
        <time>2020-08-23T09:38:52Z</time>
      </trkpt>
      <trkpt lat="41.889684" lon="0.260934">
        <ele>348.828</ele>
        <time>2020-08-23T09:38:53Z</time>
      </trkpt>
      <trkpt lat="41.889729" lon="0.260920">
        <ele>348.866</ele>
        <time>2020-08-23T09:38:54Z</time>
      </trkpt>
      <trkpt lat="41.889775" lon="0.260902">
        <ele>348.818</ele>
        <time>2020-08-23T09:38:55Z</time>
      </trkpt>
      <trkpt lat="41.889820" lon="0.260887">
        <ele>348.869</ele>
        <time>2020-08-23T09:38:56Z</time>
      </trkpt>
      <trkpt lat="41.889907" lon="0.260869">
        <ele>348.850</ele>
        <time>2020-08-23T09:38:58Z</time>
      </trkpt>
      <trkpt lat="41.889996" lon="0.260848">
        <ele>348.876</ele>
        <time>2020-08-23T09:39:00Z</time>
      </trkpt>
      <trkpt lat="41.890043" lon="0.260840">
        <ele>348.835</ele>
        <time>2020-08-23T09:39:01Z</time>
      </trkpt>
      <trkpt lat="41.890128" lon="0.260833">
        <ele>348.919</ele>
        <time>2020-08-23T09:39:03Z</time>
      </trkpt>
      <trkpt lat="41.890215" lon="0.260829">
        <ele>349.209</ele>
        <time>2020-08-23T09:39:05Z</time>
      </trkpt>
      <trkpt lat="41.890295" lon="0.260826">
        <ele>349.319</ele>
        <time>2020-08-23T09:39:07Z</time>
      </trkpt>
      <trkpt lat="41.890379" lon="0.260814">
        <ele>349.408</ele>
        <time>2020-08-23T09:39:09Z</time>
      </trkpt>
      <trkpt lat="41.890464" lon="0.260813">
        <ele>349.456</ele>
        <time>2020-08-23T09:39:11Z</time>
      </trkpt>
      <trkpt lat="41.890510" lon="0.260811">
        <ele>349.416</ele>
        <time>2020-08-23T09:39:12Z</time>
      </trkpt>
      <trkpt lat="41.890559" lon="0.260812">
        <ele>349.454</ele>
        <time>2020-08-23T09:39:13Z</time>
      </trkpt>
      <trkpt lat="41.890607" lon="0.260803">
        <ele>349.456</ele>
        <time>2020-08-23T09:39:14Z</time>
      </trkpt>
      <trkpt lat="41.890657" lon="0.260793">
        <ele>349.417</ele>
        <time>2020-08-23T09:39:15Z</time>
      </trkpt>
      <trkpt lat="41.890707" lon="0.260786">
        <ele>349.498</ele>
        <time>2020-08-23T09:39:16Z</time>
      </trkpt>
      <trkpt lat="41.890755" lon="0.260775">
        <ele>349.484</ele>
        <time>2020-08-23T09:39:17Z</time>
      </trkpt>
      <trkpt lat="41.890804" lon="0.260770">
        <ele>349.493</ele>
        <time>2020-08-23T09:39:18Z</time>
      </trkpt>
      <trkpt lat="41.890855" lon="0.260762">
        <ele>349.495</ele>
        <time>2020-08-23T09:39:19Z</time>
      </trkpt>
      <trkpt lat="41.890907" lon="0.260747">
        <ele>349.449</ele>
        <time>2020-08-23T09:39:20Z</time>
      </trkpt>
      <trkpt lat="41.890958" lon="0.260739">
        <ele>349.423</ele>
        <time>2020-08-23T09:39:21Z</time>
      </trkpt>
      <trkpt lat="41.891010" lon="0.260731">
        <ele>349.408</ele>
        <time>2020-08-23T09:39:22Z</time>
      </trkpt>
      <trkpt lat="41.891058" lon="0.260713">
        <ele>349.484</ele>
        <time>2020-08-23T09:39:23Z</time>
      </trkpt>
      <trkpt lat="41.891103" lon="0.260692">
        <ele>349.434</ele>
        <time>2020-08-23T09:39:24Z</time>
      </trkpt>
      <trkpt lat="41.891142" lon="0.260656">
        <ele>349.492</ele>
        <time>2020-08-23T09:39:25Z</time>
      </trkpt>
      <trkpt lat="41.891183" lon="0.260619">
        <ele>349.424</ele>
        <time>2020-08-23T09:39:26Z</time>
      </trkpt>
      <trkpt lat="41.891222" lon="0.260585">
        <ele>349.475</ele>
        <time>2020-08-23T09:39:27Z</time>
      </trkpt>
      <trkpt lat="41.891258" lon="0.260548">
        <ele>349.426</ele>
        <time>2020-08-23T09:39:28Z</time>
      </trkpt>
      <trkpt lat="41.891297" lon="0.260511">
        <ele>349.432</ele>
        <time>2020-08-23T09:39:29Z</time>
      </trkpt>
      <trkpt lat="41.891335" lon="0.260466">
        <ele>349.361</ele>
        <time>2020-08-23T09:39:30Z</time>
      </trkpt>
      <trkpt lat="41.891373" lon="0.260419">
        <ele>349.273</ele>
        <time>2020-08-23T09:39:31Z</time>
      </trkpt>
      <trkpt lat="41.891409" lon="0.260368">
        <ele>349.185</ele>
        <time>2020-08-23T09:39:32Z</time>
      </trkpt>
      <trkpt lat="41.891448" lon="0.260328">
        <ele>349.013</ele>
        <time>2020-08-23T09:39:33Z</time>
      </trkpt>
      <trkpt lat="41.891492" lon="0.260290">
        <ele>348.908</ele>
        <time>2020-08-23T09:39:34Z</time>
      </trkpt>
      <trkpt lat="41.891540" lon="0.260250">
        <ele>348.852</ele>
        <time>2020-08-23T09:39:35Z</time>
      </trkpt>
      <trkpt lat="41.891592" lon="0.260214">
        <ele>348.762</ele>
        <time>2020-08-23T09:39:36Z</time>
      </trkpt>
      <trkpt lat="41.891641" lon="0.260172">
        <ele>348.510</ele>
        <time>2020-08-23T09:39:37Z</time>
      </trkpt>
      <trkpt lat="41.891689" lon="0.260119">
        <ele>348.482</ele>
        <time>2020-08-23T09:39:38Z</time>
      </trkpt>
      <trkpt lat="41.891737" lon="0.260061">
        <ele>348.353</ele>
        <time>2020-08-23T09:39:39Z</time>
      </trkpt>
      <trkpt lat="41.891782" lon="0.260002">
        <ele>348.244</ele>
        <time>2020-08-23T09:39:40Z</time>
      </trkpt>
      <trkpt lat="41.891824" lon="0.259948">
        <ele>348.170</ele>
        <time>2020-08-23T09:39:41Z</time>
      </trkpt>
      <trkpt lat="41.891869" lon="0.259894">
        <ele>348.069</ele>
        <time>2020-08-23T09:39:42Z</time>
      </trkpt>
      <trkpt lat="41.891918" lon="0.259841">
        <ele>347.962</ele>
        <time>2020-08-23T09:39:43Z</time>
      </trkpt>
      <trkpt lat="41.891968" lon="0.259794">
        <ele>347.883</ele>
        <time>2020-08-23T09:39:44Z</time>
      </trkpt>
      <trkpt lat="41.892012" lon="0.259744">
        <ele>347.711</ele>
        <time>2020-08-23T09:39:45Z</time>
      </trkpt>
      <trkpt lat="41.892056" lon="0.259691">
        <ele>347.408</ele>
        <time>2020-08-23T09:39:46Z</time>
      </trkpt>
      <trkpt lat="41.892103" lon="0.259630">
        <ele>347.211</ele>
        <time>2020-08-23T09:39:47Z</time>
      </trkpt>
      <trkpt lat="41.892152" lon="0.259570">
        <ele>347.041</ele>
        <time>2020-08-23T09:39:48Z</time>
      </trkpt>
      <trkpt lat="41.892205" lon="0.259515">
        <ele>346.869</ele>
        <time>2020-08-23T09:39:49Z</time>
      </trkpt>
      <trkpt lat="41.892266" lon="0.259474">
        <ele>346.591</ele>
        <time>2020-08-23T09:39:50Z</time>
      </trkpt>
      <trkpt lat="41.892330" lon="0.259432">
        <ele>346.412</ele>
        <time>2020-08-23T09:39:51Z</time>
      </trkpt>
      <trkpt lat="41.892397" lon="0.259394">
        <ele>346.273</ele>
        <time>2020-08-23T09:39:52Z</time>
      </trkpt>
      <trkpt lat="41.892458" lon="0.259347">
        <ele>345.619</ele>
        <time>2020-08-23T09:39:53Z</time>
      </trkpt>
      <trkpt lat="41.892519" lon="0.259297">
        <ele>345.398</ele>
        <time>2020-08-23T09:39:54Z</time>
      </trkpt>
      <trkpt lat="41.892576" lon="0.259239">
        <ele>344.973</ele>
        <time>2020-08-23T09:39:55Z</time>
      </trkpt>
      <trkpt lat="41.892626" lon="0.259180">
        <ele>344.585</ele>
        <time>2020-08-23T09:39:56Z</time>
      </trkpt>
      <trkpt lat="41.892670" lon="0.259122">
        <ele>344.213</ele>
        <time>2020-08-23T09:39:57Z</time>
      </trkpt>
      <trkpt lat="41.892719" lon="0.259073">
        <ele>343.908</ele>
        <time>2020-08-23T09:39:58Z</time>
      </trkpt>
      <trkpt lat="41.892772" lon="0.259022">
        <ele>343.612</ele>
        <time>2020-08-23T09:39:59Z</time>
      </trkpt>
      <trkpt lat="41.892824" lon="0.258968">
        <ele>343.372</ele>
        <time>2020-08-23T09:40:00Z</time>
      </trkpt>
      <trkpt lat="41.892878" lon="0.258917">
        <ele>343.010</ele>
        <time>2020-08-23T09:40:01Z</time>
      </trkpt>
      <trkpt lat="41.892924" lon="0.258852">
        <ele>342.752</ele>
        <time>2020-08-23T09:40:02Z</time>
      </trkpt>
      <trkpt lat="41.892970" lon="0.258777">
        <ele>342.523</ele>
        <time>2020-08-23T09:40:03Z</time>
      </trkpt>
      <trkpt lat="41.893005" lon="0.258691">
        <ele>342.264</ele>
        <time>2020-08-23T09:40:04Z</time>
      </trkpt>
      <trkpt lat="41.893040" lon="0.258604">
        <ele>341.980</ele>
        <time>2020-08-23T09:40:05Z</time>
      </trkpt>
      <trkpt lat="41.893075" lon="0.258521">
        <ele>341.789</ele>
        <time>2020-08-23T09:40:06Z</time>
      </trkpt>
      <trkpt lat="41.893114" lon="0.258437">
        <ele>341.469</ele>
        <time>2020-08-23T09:40:07Z</time>
      </trkpt>
      <trkpt lat="41.893154" lon="0.258351">
        <ele>341.104</ele>
        <time>2020-08-23T09:40:08Z</time>
      </trkpt>
      <trkpt lat="41.893196" lon="0.258262">
        <ele>340.824</ele>
        <time>2020-08-23T09:40:09Z</time>
      </trkpt>
      <trkpt lat="41.893238" lon="0.258170">
        <ele>340.508</ele>
        <time>2020-08-23T09:40:10Z</time>
      </trkpt>
      <trkpt lat="41.893282" lon="0.258077">
        <ele>340.161</ele>
        <time>2020-08-23T09:40:11Z</time>
      </trkpt>
      <trkpt lat="41.893331" lon="0.257986">
        <ele>339.631</ele>
        <time>2020-08-23T09:40:12Z</time>
      </trkpt>
      <trkpt lat="41.893378" lon="0.257888">
        <ele>339.079</ele>
        <time>2020-08-23T09:40:13Z</time>
      </trkpt>
      <trkpt lat="41.893426" lon="0.257792">
        <ele>338.451</ele>
        <time>2020-08-23T09:40:14Z</time>
      </trkpt>
      <trkpt lat="41.893468" lon="0.257691">
        <ele>337.932</ele>
        <time>2020-08-23T09:40:15Z</time>
      </trkpt>
      <trkpt lat="41.893511" lon="0.257589">
        <ele>337.433</ele>
        <time>2020-08-23T09:40:16Z</time>
      </trkpt>
      <trkpt lat="41.893550" lon="0.257489">
        <ele>337.089</ele>
        <time>2020-08-23T09:40:17Z</time>
      </trkpt>
      <trkpt lat="41.893591" lon="0.257393">
        <ele>336.418</ele>
        <time>2020-08-23T09:40:18Z</time>
      </trkpt>
      <trkpt lat="41.893626" lon="0.257297">
        <ele>336.195</ele>
        <time>2020-08-23T09:40:19Z</time>
      </trkpt>
      <trkpt lat="41.893661" lon="0.257203">
        <ele>336.149</ele>
        <time>2020-08-23T09:40:20Z</time>
      </trkpt>
      <trkpt lat="41.893695" lon="0.257110">
        <ele>335.823</ele>
        <time>2020-08-23T09:40:21Z</time>
      </trkpt>
      <trkpt lat="41.893727" lon="0.257018">
        <ele>335.608</ele>
        <time>2020-08-23T09:40:22Z</time>
      </trkpt>
      <trkpt lat="41.893758" lon="0.256927">
        <ele>335.424</ele>
        <time>2020-08-23T09:40:23Z</time>
      </trkpt>
      <trkpt lat="41.893785" lon="0.256835">
        <ele>335.254</ele>
        <time>2020-08-23T09:40:24Z</time>
      </trkpt>
      <trkpt lat="41.893809" lon="0.256743">
        <ele>334.942</ele>
        <time>2020-08-23T09:40:25Z</time>
      </trkpt>
      <trkpt lat="41.893834" lon="0.256656">
        <ele>334.644</ele>
        <time>2020-08-23T09:40:26Z</time>
      </trkpt>
      <trkpt lat="41.893864" lon="0.256574">
        <ele>334.465</ele>
        <time>2020-08-23T09:40:27Z</time>
      </trkpt>
      <trkpt lat="41.893889" lon="0.256494">
        <ele>334.166</ele>
        <time>2020-08-23T09:40:28Z</time>
      </trkpt>
      <trkpt lat="41.893910" lon="0.256413">
        <ele>334.012</ele>
        <time>2020-08-23T09:40:29Z</time>
      </trkpt>
      <trkpt lat="41.893923" lon="0.256330">
        <ele>333.961</ele>
        <time>2020-08-23T09:40:30Z</time>
      </trkpt>
      <trkpt lat="41.893939" lon="0.256248">
        <ele>333.835</ele>
        <time>2020-08-23T09:40:31Z</time>
      </trkpt>
      <trkpt lat="41.893959" lon="0.256171">
        <ele>333.786</ele>
        <time>2020-08-23T09:40:32Z</time>
      </trkpt>
      <trkpt lat="41.893975" lon="0.256091">
        <ele>333.714</ele>
        <time>2020-08-23T09:40:33Z</time>
      </trkpt>
      <trkpt lat="41.893999" lon="0.256018">
        <ele>333.708</ele>
        <time>2020-08-23T09:40:34Z</time>
      </trkpt>
      <trkpt lat="41.894008" lon="0.255938">
        <ele>333.668</ele>
        <time>2020-08-23T09:40:35Z</time>
      </trkpt>
      <trkpt lat="41.894026" lon="0.255861">
        <ele>333.518</ele>
        <time>2020-08-23T09:40:36Z</time>
      </trkpt>
      <trkpt lat="41.894051" lon="0.255785">
        <ele>333.586</ele>
        <time>2020-08-23T09:40:37Z</time>
      </trkpt>
      <trkpt lat="41.894075" lon="0.255711">
        <ele>333.468</ele>
        <time>2020-08-23T09:40:38Z</time>
      </trkpt>
      <trkpt lat="41.894095" lon="0.255639">
        <ele>333.399</ele>
        <time>2020-08-23T09:40:39Z</time>
      </trkpt>
      <trkpt lat="41.894117" lon="0.255569">
        <ele>333.310</ele>
        <time>2020-08-23T09:40:40Z</time>
      </trkpt>
      <trkpt lat="41.894136" lon="0.255496">
        <ele>333.356</ele>
        <time>2020-08-23T09:40:41Z</time>
      </trkpt>
      <trkpt lat="41.894152" lon="0.255419">
        <ele>333.285</ele>
        <time>2020-08-23T09:40:42Z</time>
      </trkpt>
      <trkpt lat="41.894170" lon="0.255346">
        <ele>333.181</ele>
        <time>2020-08-23T09:40:43Z</time>
      </trkpt>
      <trkpt lat="41.894186" lon="0.255277">
        <ele>333.061</ele>
        <time>2020-08-23T09:40:44Z</time>
      </trkpt>
      <trkpt lat="41.894203" lon="0.255205">
        <ele>333.017</ele>
        <time>2020-08-23T09:40:45Z</time>
      </trkpt>
      <trkpt lat="41.894221" lon="0.255134">
        <ele>332.908</ele>
        <time>2020-08-23T09:40:46Z</time>
      </trkpt>
      <trkpt lat="41.894234" lon="0.255061">
        <ele>332.863</ele>
        <time>2020-08-23T09:40:47Z</time>
      </trkpt>
      <trkpt lat="41.894246" lon="0.254988">
        <ele>332.783</ele>
        <time>2020-08-23T09:40:48Z</time>
      </trkpt>
      <trkpt lat="41.894260" lon="0.254915">
        <ele>332.711</ele>
        <time>2020-08-23T09:40:49Z</time>
      </trkpt>
      <trkpt lat="41.894278" lon="0.254842">
        <ele>332.673</ele>
        <time>2020-08-23T09:40:50Z</time>
      </trkpt>
      <trkpt lat="41.894296" lon="0.254766">
        <ele>332.554</ele>
        <time>2020-08-23T09:40:51Z</time>
      </trkpt>
      <trkpt lat="41.894308" lon="0.254690">
        <ele>332.565</ele>
        <time>2020-08-23T09:40:52Z</time>
      </trkpt>
      <trkpt lat="41.894316" lon="0.254616">
        <ele>332.581</ele>
        <time>2020-08-23T09:40:53Z</time>
      </trkpt>
      <trkpt lat="41.894326" lon="0.254540">
        <ele>332.510</ele>
        <time>2020-08-23T09:40:54Z</time>
      </trkpt>
      <trkpt lat="41.894338" lon="0.254464">
        <ele>332.557</ele>
        <time>2020-08-23T09:40:55Z</time>
      </trkpt>
      <trkpt lat="41.894355" lon="0.254388">
        <ele>332.500</ele>
        <time>2020-08-23T09:40:56Z</time>
      </trkpt>
      <trkpt lat="41.894374" lon="0.254311">
        <ele>332.420</ele>
        <time>2020-08-23T09:40:57Z</time>
      </trkpt>
      <trkpt lat="41.894394" lon="0.254239">
        <ele>332.408</ele>
        <time>2020-08-23T09:40:58Z</time>
      </trkpt>
      <trkpt lat="41.894413" lon="0.254172">
        <ele>332.330</ele>
        <time>2020-08-23T09:40:59Z</time>
      </trkpt>
      <trkpt lat="41.894433" lon="0.254107">
        <ele>332.230</ele>
        <time>2020-08-23T09:41:00Z</time>
      </trkpt>
      <trkpt lat="41.894454" lon="0.254042">
        <ele>332.198</ele>
        <time>2020-08-23T09:41:01Z</time>
      </trkpt>
      <trkpt lat="41.894472" lon="0.253977">
        <ele>332.020</ele>
        <time>2020-08-23T09:41:02Z</time>
      </trkpt>
      <trkpt lat="41.894494" lon="0.253907">
        <ele>331.941</ele>
        <time>2020-08-23T09:41:03Z</time>
      </trkpt>
      <trkpt lat="41.894513" lon="0.253831">
        <ele>331.882</ele>
        <time>2020-08-23T09:41:04Z</time>
      </trkpt>
      <trkpt lat="41.894531" lon="0.253757">
        <ele>331.718</ele>
        <time>2020-08-23T09:41:05Z</time>
      </trkpt>
      <trkpt lat="41.894548" lon="0.253685">
        <ele>331.677</ele>
        <time>2020-08-23T09:41:06Z</time>
      </trkpt>
      <trkpt lat="41.894561" lon="0.253612">
        <ele>331.554</ele>
        <time>2020-08-23T09:41:07Z</time>
      </trkpt>
      <trkpt lat="41.894580" lon="0.253533">
        <ele>331.256</ele>
        <time>2020-08-23T09:41:08Z</time>
      </trkpt>
      <trkpt lat="41.894602" lon="0.253457">
        <ele>331.111</ele>
        <time>2020-08-23T09:41:09Z</time>
      </trkpt>
      <trkpt lat="41.894630" lon="0.253386">
        <ele>331.108</ele>
        <time>2020-08-23T09:41:10Z</time>
      </trkpt>
      <trkpt lat="41.894657" lon="0.253314">
        <ele>331.080</ele>
        <time>2020-08-23T09:41:11Z</time>
      </trkpt>
      <trkpt lat="41.894680" lon="0.253241">
        <ele>330.960</ele>
        <time>2020-08-23T09:41:12Z</time>
      </trkpt>
      <trkpt lat="41.894701" lon="0.253169">
        <ele>330.828</ele>
        <time>2020-08-23T09:41:13Z</time>
      </trkpt>
      <trkpt lat="41.894721" lon="0.253100">
        <ele>330.770</ele>
        <time>2020-08-23T09:41:14Z</time>
      </trkpt>
      <trkpt lat="41.894739" lon="0.253027">
        <ele>330.591</ele>
        <time>2020-08-23T09:41:15Z</time>
      </trkpt>
      <trkpt lat="41.894763" lon="0.252949">
        <ele>330.312</ele>
        <time>2020-08-23T09:41:16Z</time>
      </trkpt>
      <trkpt lat="41.894790" lon="0.252872">
        <ele>330.158</ele>
        <time>2020-08-23T09:41:17Z</time>
      </trkpt>
      <trkpt lat="41.894815" lon="0.252798">
        <ele>330.017</ele>
        <time>2020-08-23T09:41:18Z</time>
      </trkpt>
      <trkpt lat="41.894838" lon="0.252729">
        <ele>329.924</ele>
        <time>2020-08-23T09:41:19Z</time>
      </trkpt>
      <trkpt lat="41.894863" lon="0.252660">
        <ele>329.804</ele>
        <time>2020-08-23T09:41:20Z</time>
      </trkpt>
      <trkpt lat="41.894885" lon="0.252586">
        <ele>329.714</ele>
        <time>2020-08-23T09:41:21Z</time>
      </trkpt>
      <trkpt lat="41.894906" lon="0.252512">
        <ele>329.708</ele>
        <time>2020-08-23T09:41:22Z</time>
      </trkpt>
      <trkpt lat="41.894925" lon="0.252438">
        <ele>329.697</ele>
        <time>2020-08-23T09:41:23Z</time>
      </trkpt>
      <trkpt lat="41.894940" lon="0.252359">
        <ele>329.567</ele>
        <time>2020-08-23T09:41:24Z</time>
      </trkpt>
      <trkpt lat="41.894957" lon="0.252279">
        <ele>329.455</ele>
        <time>2020-08-23T09:41:25Z</time>
      </trkpt>
      <trkpt lat="41.894976" lon="0.252199">
        <ele>329.317</ele>
        <time>2020-08-23T09:41:26Z</time>
      </trkpt>
      <trkpt lat="41.894988" lon="0.252116">
        <ele>329.248</ele>
        <time>2020-08-23T09:41:27Z</time>
      </trkpt>
      <trkpt lat="41.895001" lon="0.252034">
        <ele>329.149</ele>
        <time>2020-08-23T09:41:28Z</time>
      </trkpt>
      <trkpt lat="41.895012" lon="0.251952">
        <ele>328.975</ele>
        <time>2020-08-23T09:41:29Z</time>
      </trkpt>
      <trkpt lat="41.895026" lon="0.251869">
        <ele>328.764</ele>
        <time>2020-08-23T09:41:30Z</time>
      </trkpt>
      <trkpt lat="41.895039" lon="0.251785">
        <ele>328.552</ele>
        <time>2020-08-23T09:41:31Z</time>
      </trkpt>
      <trkpt lat="41.895051" lon="0.251701">
        <ele>328.353</ele>
        <time>2020-08-23T09:41:32Z</time>
      </trkpt>
      <trkpt lat="41.895069" lon="0.251619">
        <ele>327.808</ele>
        <time>2020-08-23T09:41:33Z</time>
      </trkpt>
      <trkpt lat="41.895082" lon="0.251539">
        <ele>327.708</ele>
        <time>2020-08-23T09:41:34Z</time>
      </trkpt>
      <trkpt lat="41.895095" lon="0.251459">
        <ele>327.630</ele>
        <time>2020-08-23T09:41:35Z</time>
      </trkpt>
      <trkpt lat="41.895106" lon="0.251379">
        <ele>327.530</ele>
        <time>2020-08-23T09:41:36Z</time>
      </trkpt>
      <trkpt lat="41.895121" lon="0.251299">
        <ele>327.448</ele>
        <time>2020-08-23T09:41:37Z</time>
      </trkpt>
      <trkpt lat="41.895133" lon="0.251216">
        <ele>327.320</ele>
        <time>2020-08-23T09:41:38Z</time>
      </trkpt>
      <trkpt lat="41.895149" lon="0.251131">
        <ele>327.291</ele>
        <time>2020-08-23T09:41:39Z</time>
      </trkpt>
      <trkpt lat="41.895162" lon="0.251045">
        <ele>327.162</ele>
        <time>2020-08-23T09:41:40Z</time>
      </trkpt>
      <trkpt lat="41.895180" lon="0.250958">
        <ele>327.078</ele>
        <time>2020-08-23T09:41:41Z</time>
      </trkpt>
      <trkpt lat="41.895198" lon="0.250870">
        <ele>326.997</ele>
        <time>2020-08-23T09:41:42Z</time>
      </trkpt>
      <trkpt lat="41.895212" lon="0.250782">
        <ele>326.889</ele>
        <time>2020-08-23T09:41:43Z</time>
      </trkpt>
      <trkpt lat="41.895220" lon="0.250693">
        <ele>326.706</ele>
        <time>2020-08-23T09:41:44Z</time>
      </trkpt>
      <trkpt lat="41.895233" lon="0.250606">
        <ele>326.626</ele>
        <time>2020-08-23T09:41:45Z</time>
      </trkpt>
      <trkpt lat="41.895249" lon="0.250518">
        <ele>326.508</ele>
        <time>2020-08-23T09:41:46Z</time>
      </trkpt>
      <trkpt lat="41.895272" lon="0.250432">
        <ele>326.453</ele>
        <time>2020-08-23T09:41:47Z</time>
      </trkpt>
      <trkpt lat="41.895296" lon="0.250346">
        <ele>326.343</ele>
        <time>2020-08-23T09:41:48Z</time>
      </trkpt>
      <trkpt lat="41.895320" lon="0.250260">
        <ele>326.051</ele>
        <time>2020-08-23T09:41:49Z</time>
      </trkpt>
      <trkpt lat="41.895348" lon="0.250177">
        <ele>325.893</ele>
        <time>2020-08-23T09:41:50Z</time>
      </trkpt>
      <trkpt lat="41.895370" lon="0.250093">
        <ele>325.624</ele>
        <time>2020-08-23T09:41:51Z</time>
      </trkpt>
      <trkpt lat="41.895392" lon="0.250004">
        <ele>325.545</ele>
        <time>2020-08-23T09:41:52Z</time>
      </trkpt>
      <trkpt lat="41.895418" lon="0.249916">
        <ele>325.331</ele>
        <time>2020-08-23T09:41:53Z</time>
      </trkpt>
      <trkpt lat="41.895445" lon="0.249824">
        <ele>325.230</ele>
        <time>2020-08-23T09:41:54Z</time>
      </trkpt>
      <trkpt lat="41.895474" lon="0.249732">
        <ele>325.118</ele>
        <time>2020-08-23T09:41:55Z</time>
      </trkpt>
      <trkpt lat="41.895504" lon="0.249642">
        <ele>324.998</ele>
        <time>2020-08-23T09:41:56Z</time>
      </trkpt>
      <trkpt lat="41.895522" lon="0.249550">
        <ele>324.717</ele>
        <time>2020-08-23T09:41:57Z</time>
      </trkpt>
      <trkpt lat="41.895539" lon="0.249458">
        <ele>324.508</ele>
        <time>2020-08-23T09:41:58Z</time>
      </trkpt>
      <trkpt lat="41.895561" lon="0.249370">
        <ele>324.386</ele>
        <time>2020-08-23T09:41:59Z</time>
      </trkpt>
      <trkpt lat="41.895587" lon="0.249281">
        <ele>324.246</ele>
        <time>2020-08-23T09:42:00Z</time>
      </trkpt>
      <trkpt lat="41.895617" lon="0.249196">
        <ele>324.084</ele>
        <time>2020-08-23T09:42:01Z</time>
      </trkpt>
      <trkpt lat="41.895647" lon="0.249114">
        <ele>323.896</ele>
        <time>2020-08-23T09:42:02Z</time>
      </trkpt>
      <trkpt lat="41.895678" lon="0.249034">
        <ele>323.777</ele>
        <time>2020-08-23T09:42:03Z</time>
      </trkpt>
      <trkpt lat="41.895708" lon="0.248951">
        <ele>323.678</ele>
        <time>2020-08-23T09:42:04Z</time>
      </trkpt>
      <trkpt lat="41.895736" lon="0.248866">
        <ele>323.514</ele>
        <time>2020-08-23T09:42:05Z</time>
      </trkpt>
      <trkpt lat="41.895763" lon="0.248785">
        <ele>323.473</ele>
        <time>2020-08-23T09:42:06Z</time>
      </trkpt>
      <trkpt lat="41.895786" lon="0.248701">
        <ele>323.345</ele>
        <time>2020-08-23T09:42:07Z</time>
      </trkpt>
      <trkpt lat="41.895811" lon="0.248618">
        <ele>323.247</ele>
        <time>2020-08-23T09:42:08Z</time>
      </trkpt>
      <trkpt lat="41.895837" lon="0.248536">
        <ele>323.111</ele>
        <time>2020-08-23T09:42:09Z</time>
      </trkpt>
      <trkpt lat="41.895858" lon="0.248451">
        <ele>323.008</ele>
        <time>2020-08-23T09:42:10Z</time>
      </trkpt>
      <trkpt lat="41.895880" lon="0.248369">
        <ele>322.939</ele>
        <time>2020-08-23T09:42:11Z</time>
      </trkpt>
      <trkpt lat="41.895905" lon="0.248288">
        <ele>322.819</ele>
        <time>2020-08-23T09:42:12Z</time>
      </trkpt>
      <trkpt lat="41.895927" lon="0.248207">
        <ele>322.887</ele>
        <time>2020-08-23T09:42:13Z</time>
      </trkpt>
      <trkpt lat="41.895951" lon="0.248128">
        <ele>322.749</ele>
        <time>2020-08-23T09:42:14Z</time>
      </trkpt>
      <trkpt lat="41.895972" lon="0.248048">
        <ele>322.640</ele>
        <time>2020-08-23T09:42:15Z</time>
      </trkpt>
      <trkpt lat="41.895995" lon="0.247966">
        <ele>322.691</ele>
        <time>2020-08-23T09:42:16Z</time>
      </trkpt>
      <trkpt lat="41.896022" lon="0.247888">
        <ele>322.467</ele>
        <time>2020-08-23T09:42:17Z</time>
      </trkpt>
      <trkpt lat="41.896045" lon="0.247808">
        <ele>322.356</ele>
        <time>2020-08-23T09:42:18Z</time>
      </trkpt>
      <trkpt lat="41.896068" lon="0.247729">
        <ele>322.383</ele>
        <time>2020-08-23T09:42:19Z</time>
      </trkpt>
      <trkpt lat="41.896093" lon="0.247652">
        <ele>322.325</ele>
        <time>2020-08-23T09:42:20Z</time>
      </trkpt>
      <trkpt lat="41.896110" lon="0.247574">
        <ele>322.217</ele>
        <time>2020-08-23T09:42:21Z</time>
      </trkpt>
      <trkpt lat="41.896126" lon="0.247498">
        <ele>322.208</ele>
        <time>2020-08-23T09:42:22Z</time>
      </trkpt>
      <trkpt lat="41.896137" lon="0.247418">
        <ele>322.333</ele>
        <time>2020-08-23T09:42:23Z</time>
      </trkpt>
      <trkpt lat="41.896152" lon="0.247339">
        <ele>322.413</ele>
        <time>2020-08-23T09:42:24Z</time>
      </trkpt>
      <trkpt lat="41.896168" lon="0.247259">
        <ele>322.591</ele>
        <time>2020-08-23T09:42:25Z</time>
      </trkpt>
      <trkpt lat="41.896184" lon="0.247178">
        <ele>322.543</ele>
        <time>2020-08-23T09:42:26Z</time>
      </trkpt>
      <trkpt lat="41.896204" lon="0.247100">
        <ele>322.524</ele>
        <time>2020-08-23T09:42:27Z</time>
      </trkpt>
      <trkpt lat="41.896225" lon="0.247021">
        <ele>322.515</ele>
        <time>2020-08-23T09:42:28Z</time>
      </trkpt>
      <trkpt lat="41.896244" lon="0.246940">
        <ele>322.521</ele>
        <time>2020-08-23T09:42:29Z</time>
      </trkpt>
      <trkpt lat="41.896265" lon="0.246860">
        <ele>322.460</ele>
        <time>2020-08-23T09:42:30Z</time>
      </trkpt>
      <trkpt lat="41.896282" lon="0.246776">
        <ele>322.366</ele>
        <time>2020-08-23T09:42:31Z</time>
      </trkpt>
      <trkpt lat="41.896300" lon="0.246693">
        <ele>322.229</ele>
        <time>2020-08-23T09:42:32Z</time>
      </trkpt>
      <trkpt lat="41.896322" lon="0.246614">
        <ele>322.121</ele>
        <time>2020-08-23T09:42:33Z</time>
      </trkpt>
      <trkpt lat="41.896340" lon="0.246532">
        <ele>322.008</ele>
        <time>2020-08-23T09:42:34Z</time>
      </trkpt>
      <trkpt lat="41.896356" lon="0.246450">
        <ele>321.971</ele>
        <time>2020-08-23T09:42:35Z</time>
      </trkpt>
      <trkpt lat="41.896375" lon="0.246369">
        <ele>321.831</ele>
        <time>2020-08-23T09:42:36Z</time>
      </trkpt>
      <trkpt lat="41.896388" lon="0.246285">
        <ele>321.789</ele>
        <time>2020-08-23T09:42:37Z</time>
      </trkpt>
      <trkpt lat="41.896408" lon="0.246205">
        <ele>321.691</ele>
        <time>2020-08-23T09:42:38Z</time>
      </trkpt>
      <trkpt lat="41.896428" lon="0.246124">
        <ele>321.542</ele>
        <time>2020-08-23T09:42:39Z</time>
      </trkpt>
      <trkpt lat="41.896447" lon="0.246040">
        <ele>321.433</ele>
        <time>2020-08-23T09:42:40Z</time>
      </trkpt>
      <trkpt lat="41.896468" lon="0.245957">
        <ele>321.369</ele>
        <time>2020-08-23T09:42:41Z</time>
      </trkpt>
      <trkpt lat="41.896492" lon="0.245874">
        <ele>321.398</ele>
        <time>2020-08-23T09:42:42Z</time>
      </trkpt>
      <trkpt lat="41.896514" lon="0.245791">
        <ele>321.311</ele>
        <time>2020-08-23T09:42:43Z</time>
      </trkpt>
      <trkpt lat="41.896533" lon="0.245708">
        <ele>321.321</ele>
        <time>2020-08-23T09:42:44Z</time>
      </trkpt>
      <trkpt lat="41.896548" lon="0.245622">
        <ele>321.303</ele>
        <time>2020-08-23T09:42:45Z</time>
      </trkpt>
      <trkpt lat="41.896567" lon="0.245537">
        <ele>321.308</ele>
        <time>2020-08-23T09:42:46Z</time>
      </trkpt>
      <trkpt lat="41.896588" lon="0.245455">
        <ele>321.256</ele>
        <time>2020-08-23T09:42:47Z</time>
      </trkpt>
      <trkpt lat="41.896607" lon="0.245372">
        <ele>321.216</ele>
        <time>2020-08-23T09:42:48Z</time>
      </trkpt>
      <trkpt lat="41.896627" lon="0.245290">
        <ele>321.234</ele>
        <time>2020-08-23T09:42:49Z</time>
      </trkpt>
      <trkpt lat="41.896643" lon="0.245206">
        <ele>321.256</ele>
        <time>2020-08-23T09:42:50Z</time>
      </trkpt>
      <trkpt lat="41.896654" lon="0.245120">
        <ele>321.257</ele>
        <time>2020-08-23T09:42:51Z</time>
      </trkpt>
      <trkpt lat="41.896669" lon="0.245037">
        <ele>321.268</ele>
        <time>2020-08-23T09:42:52Z</time>
      </trkpt>
      <trkpt lat="41.896688" lon="0.244957">
        <ele>321.224</ele>
        <time>2020-08-23T09:42:53Z</time>
      </trkpt>
      <trkpt lat="41.896701" lon="0.244872">
        <ele>321.293</ele>
        <time>2020-08-23T09:42:54Z</time>
      </trkpt>
      <trkpt lat="41.896716" lon="0.244789">
        <ele>321.283</ele>
        <time>2020-08-23T09:42:55Z</time>
      </trkpt>
      <trkpt lat="41.896735" lon="0.244707">
        <ele>321.125</ele>
        <time>2020-08-23T09:42:56Z</time>
      </trkpt>
      <trkpt lat="41.896749" lon="0.244621">
        <ele>321.017</ele>
        <time>2020-08-23T09:42:57Z</time>
      </trkpt>
      <trkpt lat="41.896765" lon="0.244535">
        <ele>320.908</ele>
        <time>2020-08-23T09:42:58Z</time>
      </trkpt>
      <trkpt lat="41.896783" lon="0.244453">
        <ele>320.813</ele>
        <time>2020-08-23T09:42:59Z</time>
      </trkpt>
      <trkpt lat="41.896807" lon="0.244376">
        <ele>320.793</ele>
        <time>2020-08-23T09:43:00Z</time>
      </trkpt>
      <trkpt lat="41.896825" lon="0.244294">
        <ele>320.661</ele>
        <time>2020-08-23T09:43:01Z</time>
      </trkpt>
      <trkpt lat="41.896841" lon="0.244209">
        <ele>320.653</ele>
        <time>2020-08-23T09:43:02Z</time>
      </trkpt>
      <trkpt lat="41.896854" lon="0.244125">
        <ele>320.624</ele>
        <time>2020-08-23T09:43:03Z</time>
      </trkpt>
      <trkpt lat="41.896870" lon="0.244041">
        <ele>320.685</ele>
        <time>2020-08-23T09:43:04Z</time>
      </trkpt>
      <trkpt lat="41.896886" lon="0.243956">
        <ele>320.621</ele>
        <time>2020-08-23T09:43:05Z</time>
      </trkpt>
      <trkpt lat="41.896900" lon="0.243871">
        <ele>320.650</ele>
        <time>2020-08-23T09:43:06Z</time>
      </trkpt>
      <trkpt lat="41.896916" lon="0.243786">
        <ele>320.599</ele>
        <time>2020-08-23T09:43:07Z</time>
      </trkpt>
      <trkpt lat="41.896932" lon="0.243697">
        <ele>320.407</ele>
        <time>2020-08-23T09:43:08Z</time>
      </trkpt>
      <trkpt lat="41.896952" lon="0.243605">
        <ele>320.327</ele>
        <time>2020-08-23T09:43:09Z</time>
      </trkpt>
      <trkpt lat="41.896969" lon="0.243512">
        <ele>320.208</ele>
        <time>2020-08-23T09:43:10Z</time>
      </trkpt>
      <trkpt lat="41.896984" lon="0.243423">
        <ele>320.054</ele>
        <time>2020-08-23T09:43:11Z</time>
      </trkpt>
      <trkpt lat="41.897003" lon="0.243336">
        <ele>319.764</ele>
        <time>2020-08-23T09:43:12Z</time>
      </trkpt>
      <trkpt lat="41.897020" lon="0.243244">
        <ele>319.642</ele>
        <time>2020-08-23T09:43:13Z</time>
      </trkpt>
      <trkpt lat="41.897041" lon="0.243150">
        <ele>319.564</ele>
        <time>2020-08-23T09:43:14Z</time>
      </trkpt>
      <trkpt lat="41.897063" lon="0.243059">
        <ele>319.495</ele>
        <time>2020-08-23T09:43:15Z</time>
      </trkpt>
      <trkpt lat="41.897085" lon="0.242969">
        <ele>319.396</ele>
        <time>2020-08-23T09:43:16Z</time>
      </trkpt>
      <trkpt lat="41.897104" lon="0.242876">
        <ele>319.272</ele>
        <time>2020-08-23T09:43:17Z</time>
      </trkpt>
      <trkpt lat="41.897124" lon="0.242782">
        <ele>319.261</ele>
        <time>2020-08-23T09:43:18Z</time>
      </trkpt>
      <trkpt lat="41.897130" lon="0.242687">
        <ele>319.263</ele>
        <time>2020-08-23T09:43:19Z</time>
      </trkpt>
      <trkpt lat="41.897135" lon="0.242594">
        <ele>319.244</ele>
        <time>2020-08-23T09:43:20Z</time>
      </trkpt>
      <trkpt lat="41.897141" lon="0.242499">
        <ele>319.218</ele>
        <time>2020-08-23T09:43:21Z</time>
      </trkpt>
      <trkpt lat="41.897156" lon="0.242405">
        <ele>319.208</ele>
        <time>2020-08-23T09:43:22Z</time>
      </trkpt>
      <trkpt lat="41.897168" lon="0.242308">
        <ele>319.241</ele>
        <time>2020-08-23T09:43:23Z</time>
      </trkpt>
      <trkpt lat="41.897181" lon="0.242210">
        <ele>319.231</ele>
        <time>2020-08-23T09:43:24Z</time>
      </trkpt>
      <trkpt lat="41.897197" lon="0.242115">
        <ele>319.259</ele>
        <time>2020-08-23T09:43:25Z</time>
      </trkpt>
      <trkpt lat="41.897214" lon="0.242021">
        <ele>319.191</ele>
        <time>2020-08-23T09:43:26Z</time>
      </trkpt>
      <trkpt lat="41.897231" lon="0.241925">
        <ele>319.072</ele>
        <time>2020-08-23T09:43:27Z</time>
      </trkpt>
      <trkpt lat="41.897248" lon="0.241831">
        <ele>318.843</ele>
        <time>2020-08-23T09:43:28Z</time>
      </trkpt>
      <trkpt lat="41.897260" lon="0.241737">
        <ele>318.749</ele>
        <time>2020-08-23T09:43:29Z</time>
      </trkpt>
      <trkpt lat="41.897274" lon="0.241642">
        <ele>318.648</ele>
        <time>2020-08-23T09:43:30Z</time>
      </trkpt>
      <trkpt lat="41.897291" lon="0.241548">
        <ele>318.572</ele>
        <time>2020-08-23T09:43:31Z</time>
      </trkpt>
      <trkpt lat="41.897310" lon="0.241452">
        <ele>318.313</ele>
        <time>2020-08-23T09:43:32Z</time>
      </trkpt>
      <trkpt lat="41.897332" lon="0.241358">
        <ele>318.114</ele>
        <time>2020-08-23T09:43:33Z</time>
      </trkpt>
      <trkpt lat="41.897355" lon="0.241264">
        <ele>317.908</ele>
        <time>2020-08-23T09:43:34Z</time>
      </trkpt>
      <trkpt lat="41.897386" lon="0.241164">
        <ele>317.682</ele>
        <time>2020-08-23T09:43:35Z</time>
      </trkpt>
      <trkpt lat="41.897415" lon="0.241056">
        <ele>317.052</ele>
        <time>2020-08-23T09:43:36Z</time>
      </trkpt>
      <trkpt lat="41.897457" lon="0.240959">
        <ele>316.730</ele>
        <time>2020-08-23T09:43:37Z</time>
      </trkpt>
      <trkpt lat="41.897504" lon="0.240867">
        <ele>316.322</ele>
        <time>2020-08-23T09:43:38Z</time>
      </trkpt>
      <trkpt lat="41.897543" lon="0.240765">
        <ele>316.013</ele>
        <time>2020-08-23T09:43:39Z</time>
      </trkpt>
      <trkpt lat="41.897577" lon="0.240657">
        <ele>315.764</ele>
        <time>2020-08-23T09:43:40Z</time>
      </trkpt>
      <trkpt lat="41.897614" lon="0.240555">
        <ele>315.670</ele>
        <time>2020-08-23T09:43:41Z</time>
      </trkpt>
      <trkpt lat="41.897651" lon="0.240452">
        <ele>315.529</ele>
        <time>2020-08-23T09:43:42Z</time>
      </trkpt>
      <trkpt lat="41.897682" lon="0.240347">
        <ele>315.551</ele>
        <time>2020-08-23T09:43:43Z</time>
      </trkpt>
      <trkpt lat="41.897715" lon="0.240243">
        <ele>315.501</ele>
        <time>2020-08-23T09:43:44Z</time>
      </trkpt>
      <trkpt lat="41.897747" lon="0.240137">
        <ele>315.411</ele>
        <time>2020-08-23T09:43:45Z</time>
      </trkpt>
      <trkpt lat="41.897783" lon="0.240036">
        <ele>315.308</ele>
        <time>2020-08-23T09:43:46Z</time>
      </trkpt>
      <trkpt lat="41.897814" lon="0.239933">
        <ele>315.220</ele>
        <time>2020-08-23T09:43:47Z</time>
      </trkpt>
      <trkpt lat="41.897846" lon="0.239830">
        <ele>315.070</ele>
        <time>2020-08-23T09:43:48Z</time>
      </trkpt>
      <trkpt lat="41.897884" lon="0.239729">
        <ele>314.968</ele>
        <time>2020-08-23T09:43:49Z</time>
      </trkpt>
      <trkpt lat="41.897919" lon="0.239621">
        <ele>314.830</ele>
        <time>2020-08-23T09:43:50Z</time>
      </trkpt>
      <trkpt lat="41.897957" lon="0.239517">
        <ele>314.671</ele>
        <time>2020-08-23T09:43:51Z</time>
      </trkpt>
      <trkpt lat="41.897996" lon="0.239413">
        <ele>314.482</ele>
        <time>2020-08-23T09:43:52Z</time>
      </trkpt>
      <trkpt lat="41.898030" lon="0.239305">
        <ele>314.238</ele>
        <time>2020-08-23T09:43:53Z</time>
      </trkpt>
      <trkpt lat="41.898062" lon="0.239194">
        <ele>314.037</ele>
        <time>2020-08-23T09:43:54Z</time>
      </trkpt>
      <trkpt lat="41.898089" lon="0.239082">
        <ele>313.843</ele>
        <time>2020-08-23T09:43:55Z</time>
      </trkpt>
      <trkpt lat="41.898122" lon="0.238975">
        <ele>313.764</ele>
        <time>2020-08-23T09:43:56Z</time>
      </trkpt>
      <trkpt lat="41.898148" lon="0.238871">
        <ele>313.610</ele>
        <time>2020-08-23T09:43:57Z</time>
      </trkpt>
      <trkpt lat="41.898176" lon="0.238771">
        <ele>313.608</ele>
        <time>2020-08-23T09:43:58Z</time>
      </trkpt>
      <trkpt lat="41.898197" lon="0.238670">
        <ele>313.639</ele>
        <time>2020-08-23T09:43:59Z</time>
      </trkpt>
      <trkpt lat="41.898202" lon="0.238567">
        <ele>313.839</ele>
        <time>2020-08-23T09:44:00Z</time>
      </trkpt>
      <trkpt lat="41.898199" lon="0.238464">
        <ele>313.957</ele>
        <time>2020-08-23T09:44:01Z</time>
      </trkpt>
      <trkpt lat="41.898199" lon="0.238361">
        <ele>314.039</ele>
        <time>2020-08-23T09:44:02Z</time>
      </trkpt>
      <trkpt lat="41.898195" lon="0.238257">
        <ele>314.180</ele>
        <time>2020-08-23T09:44:03Z</time>
      </trkpt>
      <trkpt lat="41.898189" lon="0.238153">
        <ele>314.131</ele>
        <time>2020-08-23T09:44:04Z</time>
      </trkpt>
      <trkpt lat="41.898181" lon="0.238050">
        <ele>314.157</ele>
        <time>2020-08-23T09:44:05Z</time>
      </trkpt>
      <trkpt lat="41.898166" lon="0.237950">
        <ele>314.016</ele>
        <time>2020-08-23T09:44:06Z</time>
      </trkpt>
      <trkpt lat="41.898152" lon="0.237852">
        <ele>314.042</ele>
        <time>2020-08-23T09:44:07Z</time>
      </trkpt>
      <trkpt lat="41.898140" lon="0.237754">
        <ele>314.022</ele>
        <time>2020-08-23T09:44:08Z</time>
      </trkpt>
      <trkpt lat="41.898136" lon="0.237657">
        <ele>314.014</ele>
        <time>2020-08-23T09:44:09Z</time>
      </trkpt>
      <trkpt lat="41.898128" lon="0.237562">
        <ele>314.008</ele>
        <time>2020-08-23T09:44:10Z</time>
      </trkpt>
      <trkpt lat="41.898119" lon="0.237470">
        <ele>314.049</ele>
        <time>2020-08-23T09:44:11Z</time>
      </trkpt>
      <trkpt lat="41.898115" lon="0.237375">
        <ele>314.079</ele>
        <time>2020-08-23T09:44:12Z</time>
      </trkpt>
      <trkpt lat="41.898114" lon="0.237283">
        <ele>314.037</ele>
        <time>2020-08-23T09:44:13Z</time>
      </trkpt>
      <trkpt lat="41.898109" lon="0.237196">
        <ele>314.079</ele>
        <time>2020-08-23T09:44:14Z</time>
      </trkpt>
      <trkpt lat="41.898109" lon="0.237111">
        <ele>314.010</ele>
        <time>2020-08-23T09:44:15Z</time>
      </trkpt>
      <trkpt lat="41.898111" lon="0.237023">
        <ele>314.021</ele>
        <time>2020-08-23T09:44:16Z</time>
      </trkpt>
      <trkpt lat="41.898113" lon="0.236936">
        <ele>314.067</ele>
        <time>2020-08-23T09:44:17Z</time>
      </trkpt>
      <trkpt lat="41.898123" lon="0.236854">
        <ele>314.066</ele>
        <time>2020-08-23T09:44:18Z</time>
      </trkpt>
      <trkpt lat="41.898139" lon="0.236774">
        <ele>314.154</ele>
        <time>2020-08-23T09:44:19Z</time>
      </trkpt>
      <trkpt lat="41.898158" lon="0.236693">
        <ele>314.256</ele>
        <time>2020-08-23T09:44:20Z</time>
      </trkpt>
      <trkpt lat="41.898173" lon="0.236615">
        <ele>314.311</ele>
        <time>2020-08-23T09:44:21Z</time>
      </trkpt>
      <trkpt lat="41.898190" lon="0.236537">
        <ele>314.408</ele>
        <time>2020-08-23T09:44:22Z</time>
      </trkpt>
      <trkpt lat="41.898207" lon="0.236456">
        <ele>314.540</ele>
        <time>2020-08-23T09:44:23Z</time>
      </trkpt>
      <trkpt lat="41.898231" lon="0.236379">
        <ele>314.680</ele>
        <time>2020-08-23T09:44:24Z</time>
      </trkpt>
      <trkpt lat="41.898257" lon="0.236305">
        <ele>314.728</ele>
        <time>2020-08-23T09:44:25Z</time>
      </trkpt>
      <trkpt lat="41.898280" lon="0.236233">
        <ele>314.890</ele>
        <time>2020-08-23T09:44:26Z</time>
      </trkpt>
      <trkpt lat="41.898304" lon="0.236164">
        <ele>314.951</ele>
        <time>2020-08-23T09:44:27Z</time>
      </trkpt>
      <trkpt lat="41.898325" lon="0.236092">
        <ele>315.052</ele>
        <time>2020-08-23T09:44:28Z</time>
      </trkpt>
      <trkpt lat="41.898344" lon="0.236021">
        <ele>315.038</ele>
        <time>2020-08-23T09:44:29Z</time>
      </trkpt>
      <trkpt lat="41.898364" lon="0.235952">
        <ele>315.097</ele>
        <time>2020-08-23T09:44:30Z</time>
      </trkpt>
      <trkpt lat="41.898390" lon="0.235888">
        <ele>315.049</ele>
        <time>2020-08-23T09:44:31Z</time>
      </trkpt>
      <trkpt lat="41.898413" lon="0.235819">
        <ele>315.002</ele>
        <time>2020-08-23T09:44:32Z</time>
      </trkpt>
      <trkpt lat="41.898438" lon="0.235750">
        <ele>315.022</ele>
        <time>2020-08-23T09:44:33Z</time>
      </trkpt>
      <trkpt lat="41.898453" lon="0.235685">
        <ele>315.008</ele>
        <time>2020-08-23T09:44:34Z</time>
      </trkpt>
      <trkpt lat="41.898477" lon="0.235626">
        <ele>315.099</ele>
        <time>2020-08-23T09:44:35Z</time>
      </trkpt>
      <trkpt lat="41.898503" lon="0.235565">
        <ele>315.089</ele>
        <time>2020-08-23T09:44:36Z</time>
      </trkpt>
      <trkpt lat="41.898529" lon="0.235496">
        <ele>315.077</ele>
        <time>2020-08-23T09:44:37Z</time>
      </trkpt>
      <trkpt lat="41.898544" lon="0.235418">
        <ele>315.079</ele>
        <time>2020-08-23T09:44:38Z</time>
      </trkpt>
      <trkpt lat="41.898559" lon="0.235342">
        <ele>315.090</ele>
        <time>2020-08-23T09:44:39Z</time>
      </trkpt>
      <trkpt lat="41.898569" lon="0.235268">
        <ele>315.011</ele>
        <time>2020-08-23T09:44:40Z</time>
      </trkpt>
      <trkpt lat="41.898580" lon="0.235193">
        <ele>315.077</ele>
        <time>2020-08-23T09:44:41Z</time>
      </trkpt>
      <trkpt lat="41.898580" lon="0.235113">
        <ele>315.016</ele>
        <time>2020-08-23T09:44:42Z</time>
      </trkpt>
      <trkpt lat="41.898579" lon="0.235031">
        <ele>315.043</ele>
        <time>2020-08-23T09:44:43Z</time>
      </trkpt>
      <trkpt lat="41.898584" lon="0.234954">
        <ele>315.064</ele>
        <time>2020-08-23T09:44:44Z</time>
      </trkpt>
      <trkpt lat="41.898592" lon="0.234878">
        <ele>315.010</ele>
        <time>2020-08-23T09:44:45Z</time>
      </trkpt>
      <trkpt lat="41.898596" lon="0.234807">
        <ele>315.008</ele>
        <time>2020-08-23T09:44:46Z</time>
      </trkpt>
      <trkpt lat="41.898599" lon="0.234735">
        <ele>315.059</ele>
        <time>2020-08-23T09:44:47Z</time>
      </trkpt>
      <trkpt lat="41.898602" lon="0.234662">
        <ele>315.099</ele>
        <time>2020-08-23T09:44:48Z</time>
      </trkpt>
      <trkpt lat="41.898601" lon="0.234585">
        <ele>315.277</ele>
        <time>2020-08-23T09:44:49Z</time>
      </trkpt>
      <trkpt lat="41.898586" lon="0.234510">
        <ele>315.349</ele>
        <time>2020-08-23T09:44:50Z</time>
      </trkpt>
      <trkpt lat="41.898573" lon="0.234433">
        <ele>315.440</ele>
        <time>2020-08-23T09:44:51Z</time>
      </trkpt>
      <trkpt lat="41.898558" lon="0.234359">
        <ele>315.471</ele>
        <time>2020-08-23T09:44:52Z</time>
      </trkpt>
      <trkpt lat="41.898537" lon="0.234287">
        <ele>315.477</ele>
        <time>2020-08-23T09:44:53Z</time>
      </trkpt>
      <trkpt lat="41.898513" lon="0.234217">
        <ele>315.396</ele>
        <time>2020-08-23T09:44:54Z</time>
      </trkpt>
      <trkpt lat="41.898491" lon="0.234148">
        <ele>315.297</ele>
        <time>2020-08-23T09:44:55Z</time>
      </trkpt>
      <trkpt lat="41.898468" lon="0.234069">
        <ele>315.023</ele>
        <time>2020-08-23T09:44:56Z</time>
      </trkpt>
      <trkpt lat="41.898447" lon="0.233980">
        <ele>314.825</ele>
        <time>2020-08-23T09:44:57Z</time>
      </trkpt>
      <trkpt lat="41.898421" lon="0.233885">
        <ele>314.608</ele>
        <time>2020-08-23T09:44:58Z</time>
      </trkpt>
      <trkpt lat="41.898401" lon="0.233788">
        <ele>314.334</ele>
        <time>2020-08-23T09:44:59Z</time>
      </trkpt>
      <trkpt lat="41.898386" lon="0.233694">
        <ele>313.934</ele>
        <time>2020-08-23T09:45:00Z</time>
      </trkpt>
      <trkpt lat="41.898376" lon="0.233598">
        <ele>313.512</ele>
        <time>2020-08-23T09:45:01Z</time>
      </trkpt>
      <trkpt lat="41.898374" lon="0.233495">
        <ele>313.144</ele>
        <time>2020-08-23T09:45:02Z</time>
      </trkpt>
      <trkpt lat="41.898376" lon="0.233386">
        <ele>312.635</ele>
        <time>2020-08-23T09:45:03Z</time>
      </trkpt>
      <trkpt lat="41.898378" lon="0.233273">
        <ele>312.156</ele>
        <time>2020-08-23T09:45:04Z</time>
      </trkpt>
      <trkpt lat="41.898384" lon="0.233156">
        <ele>311.732</ele>
        <time>2020-08-23T09:45:05Z</time>
      </trkpt>
      <trkpt lat="41.898391" lon="0.233037">
        <ele>311.341</ele>
        <time>2020-08-23T09:45:06Z</time>
      </trkpt>
      <trkpt lat="41.898408" lon="0.232921">
        <ele>310.821</ele>
        <time>2020-08-23T09:45:07Z</time>
      </trkpt>
      <trkpt lat="41.898423" lon="0.232807">
        <ele>310.441</ele>
        <time>2020-08-23T09:45:08Z</time>
      </trkpt>
      <trkpt lat="41.898434" lon="0.232693">
        <ele>310.005</ele>
        <time>2020-08-23T09:45:09Z</time>
      </trkpt>
      <trkpt lat="41.898441" lon="0.232578">
        <ele>309.508</ele>
        <time>2020-08-23T09:45:10Z</time>
      </trkpt>
      <trkpt lat="41.898438" lon="0.232459">
        <ele>309.017</ele>
        <time>2020-08-23T09:45:11Z</time>
      </trkpt>
      <trkpt lat="41.898438" lon="0.232340">
        <ele>308.627</ele>
        <time>2020-08-23T09:45:12Z</time>
      </trkpt>
      <trkpt lat="41.898435" lon="0.232218">
        <ele>308.175</ele>
        <time>2020-08-23T09:45:13Z</time>
      </trkpt>
      <trkpt lat="41.898434" lon="0.232095">
        <ele>307.357</ele>
        <time>2020-08-23T09:45:14Z</time>
      </trkpt>
      <trkpt lat="41.898431" lon="0.231971">
        <ele>306.978</ele>
        <time>2020-08-23T09:45:15Z</time>
      </trkpt>
      <trkpt lat="41.898424" lon="0.231845">
        <ele>306.629</ele>
        <time>2020-08-23T09:45:16Z</time>
      </trkpt>
      <trkpt lat="41.898422" lon="0.231725">
        <ele>306.395</ele>
        <time>2020-08-23T09:45:17Z</time>
      </trkpt>
      <trkpt lat="41.898424" lon="0.231610">
        <ele>306.144</ele>
        <time>2020-08-23T09:45:18Z</time>
      </trkpt>
      <trkpt lat="41.898439" lon="0.231493">
        <ele>305.914</ele>
        <time>2020-08-23T09:45:19Z</time>
      </trkpt>
      <trkpt lat="41.898457" lon="0.231377">
        <ele>305.754</ele>
        <time>2020-08-23T09:45:20Z</time>
      </trkpt>
      <trkpt lat="41.898476" lon="0.231262">
        <ele>305.509</ele>
        <time>2020-08-23T09:45:21Z</time>
      </trkpt>
      <trkpt lat="41.898492" lon="0.231147">
        <ele>305.308</ele>
        <time>2020-08-23T09:45:22Z</time>
      </trkpt>
      <trkpt lat="41.898514" lon="0.231039">
        <ele>305.176</ele>
        <time>2020-08-23T09:45:23Z</time>
      </trkpt>
      <trkpt lat="41.898530" lon="0.230929">
        <ele>304.816</ele>
        <time>2020-08-23T09:45:24Z</time>
      </trkpt>
      <trkpt lat="41.898547" lon="0.230819">
        <ele>304.644</ele>
        <time>2020-08-23T09:45:25Z</time>
      </trkpt>
      <trkpt lat="41.898567" lon="0.230716">
        <ele>304.466</ele>
        <time>2020-08-23T09:45:26Z</time>
      </trkpt>
      <trkpt lat="41.898592" lon="0.230620">
        <ele>304.377</ele>
        <time>2020-08-23T09:45:27Z</time>
      </trkpt>
      <trkpt lat="41.898622" lon="0.230526">
        <ele>304.248</ele>
        <time>2020-08-23T09:45:28Z</time>
      </trkpt>
      <trkpt lat="41.898654" lon="0.230434">
        <ele>304.174</ele>
        <time>2020-08-23T09:45:29Z</time>
      </trkpt>
      <trkpt lat="41.898683" lon="0.230344">
        <ele>304.063</ele>
        <time>2020-08-23T09:45:30Z</time>
      </trkpt>
      <trkpt lat="41.898716" lon="0.230258">
        <ele>303.846</ele>
        <time>2020-08-23T09:45:31Z</time>
      </trkpt>
      <trkpt lat="41.898751" lon="0.230171">
        <ele>303.688</ele>
        <time>2020-08-23T09:45:32Z</time>
      </trkpt>
      <trkpt lat="41.898789" lon="0.230080">
        <ele>303.416</ele>
        <time>2020-08-23T09:45:33Z</time>
      </trkpt>
      <trkpt lat="41.898830" lon="0.229987">
        <ele>303.208</ele>
        <time>2020-08-23T09:45:34Z</time>
      </trkpt>
      <trkpt lat="41.898873" lon="0.229900">
        <ele>303.099</ele>
        <time>2020-08-23T09:45:35Z</time>
      </trkpt>
      <trkpt lat="41.898916" lon="0.229816">
        <ele>302.989</ele>
        <time>2020-08-23T09:45:36Z</time>
      </trkpt>
      <trkpt lat="41.898956" lon="0.229728">
        <ele>302.717</ele>
        <time>2020-08-23T09:45:37Z</time>
      </trkpt>
      <trkpt lat="41.898994" lon="0.229641">
        <ele>302.429</ele>
        <time>2020-08-23T09:45:38Z</time>
      </trkpt>
      <trkpt lat="41.899029" lon="0.229549">
        <ele>302.330</ele>
        <time>2020-08-23T09:45:39Z</time>
      </trkpt>
      <trkpt lat="41.899068" lon="0.229461">
        <ele>302.261</ele>
        <time>2020-08-23T09:45:40Z</time>
      </trkpt>
      <trkpt lat="41.899103" lon="0.229375">
        <ele>302.167</ele>
        <time>2020-08-23T09:45:41Z</time>
      </trkpt>
      <trkpt lat="41.899131" lon="0.229282">
        <ele>302.076</ele>
        <time>2020-08-23T09:45:42Z</time>
      </trkpt>
      <trkpt lat="41.899164" lon="0.229194">
        <ele>301.926</ele>
        <time>2020-08-23T09:45:43Z</time>
      </trkpt>
      <trkpt lat="41.899190" lon="0.229101">
        <ele>301.847</ele>
        <time>2020-08-23T09:45:44Z</time>
      </trkpt>
      <trkpt lat="41.899221" lon="0.229009">
        <ele>301.711</ele>
        <time>2020-08-23T09:45:45Z</time>
      </trkpt>
      <trkpt lat="41.899239" lon="0.228908">
        <ele>301.608</ele>
        <time>2020-08-23T09:45:46Z</time>
      </trkpt>
      <trkpt lat="41.899262" lon="0.228810">
        <ele>301.567</ele>
        <time>2020-08-23T09:45:47Z</time>
      </trkpt>
      <trkpt lat="41.899281" lon="0.228706">
        <ele>301.517</ele>
        <time>2020-08-23T09:45:48Z</time>
      </trkpt>
      <trkpt lat="41.899303" lon="0.228608">
        <ele>301.575</ele>
        <time>2020-08-23T09:45:49Z</time>
      </trkpt>
      <trkpt lat="41.899328" lon="0.228511">
        <ele>301.587</ele>
        <time>2020-08-23T09:45:50Z</time>
      </trkpt>
      <trkpt lat="41.899351" lon="0.228411">
        <ele>301.548</ele>
        <time>2020-08-23T09:45:51Z</time>
      </trkpt>
      <trkpt lat="41.899373" lon="0.228312">
        <ele>301.599</ele>
        <time>2020-08-23T09:45:52Z</time>
      </trkpt>
      <trkpt lat="41.899396" lon="0.228214">
        <ele>301.495</ele>
        <time>2020-08-23T09:45:53Z</time>
      </trkpt>
      <trkpt lat="41.899420" lon="0.228118">
        <ele>301.344</ele>
        <time>2020-08-23T09:45:54Z</time>
      </trkpt>
      <trkpt lat="41.899448" lon="0.228028">
        <ele>301.232</ele>
        <time>2020-08-23T09:45:55Z</time>
      </trkpt>
      <trkpt lat="41.899479" lon="0.227940">
        <ele>301.292</ele>
        <time>2020-08-23T09:45:56Z</time>
      </trkpt>
      <trkpt lat="41.899509" lon="0.227852">
        <ele>301.211</ele>
        <time>2020-08-23T09:45:57Z</time>
      </trkpt>
      <trkpt lat="41.899535" lon="0.227762">
        <ele>301.208</ele>
        <time>2020-08-23T09:45:58Z</time>
      </trkpt>
      <trkpt lat="41.899563" lon="0.227673">
        <ele>301.218</ele>
        <time>2020-08-23T09:45:59Z</time>
      </trkpt>
      <trkpt lat="41.899592" lon="0.227583">
        <ele>301.288</ele>
        <time>2020-08-23T09:46:00Z</time>
      </trkpt>
      <trkpt lat="41.899619" lon="0.227491">
        <ele>301.186</ele>
        <time>2020-08-23T09:46:01Z</time>
      </trkpt>
      <trkpt lat="41.899646" lon="0.227397">
        <ele>301.038</ele>
        <time>2020-08-23T09:46:02Z</time>
      </trkpt>
      <trkpt lat="41.899670" lon="0.227303">
        <ele>300.819</ele>
        <time>2020-08-23T09:46:03Z</time>
      </trkpt>
      <trkpt lat="41.899697" lon="0.227211">
        <ele>300.760</ele>
        <time>2020-08-23T09:46:04Z</time>
      </trkpt>
      <trkpt lat="41.899723" lon="0.227120">
        <ele>300.636</ele>
        <time>2020-08-23T09:46:05Z</time>
      </trkpt>
      <trkpt lat="41.899748" lon="0.227032">
        <ele>300.595</ele>
        <time>2020-08-23T09:46:06Z</time>
      </trkpt>
      <trkpt lat="41.899771" lon="0.226945">
        <ele>300.475</ele>
        <time>2020-08-23T09:46:07Z</time>
      </trkpt>
      <trkpt lat="41.899794" lon="0.226859">
        <ele>300.428</ele>
        <time>2020-08-23T09:46:08Z</time>
      </trkpt>
      <trkpt lat="41.899820" lon="0.226776">
        <ele>300.420</ele>
        <time>2020-08-23T09:46:09Z</time>
      </trkpt>
      <trkpt lat="41.899848" lon="0.226694">
        <ele>300.308</ele>
        <time>2020-08-23T09:46:10Z</time>
      </trkpt>
      <trkpt lat="41.899869" lon="0.226604">
        <ele>300.372</ele>
        <time>2020-08-23T09:46:11Z</time>
      </trkpt>
      <trkpt lat="41.899894" lon="0.226518">
        <ele>300.222</ele>
        <time>2020-08-23T09:46:12Z</time>
      </trkpt>
      <trkpt lat="41.899920" lon="0.226435">
        <ele>300.110</ele>
        <time>2020-08-23T09:46:13Z</time>
      </trkpt>
      <trkpt lat="41.899947" lon="0.226354">
        <ele>300.072</ele>
        <time>2020-08-23T09:46:14Z</time>
      </trkpt>
      <trkpt lat="41.899974" lon="0.226281">
        <ele>299.963</ele>
        <time>2020-08-23T09:46:15Z</time>
      </trkpt>
      <trkpt lat="41.900000" lon="0.226212">
        <ele>299.824</ele>
        <time>2020-08-23T09:46:16Z</time>
      </trkpt>
      <trkpt lat="41.900029" lon="0.226156">
        <ele>299.720</ele>
        <time>2020-08-23T09:46:17Z</time>
      </trkpt>
      <trkpt lat="41.900054" lon="0.226104">
        <ele>299.669</ele>
        <time>2020-08-23T09:46:18Z</time>
      </trkpt>
      <trkpt lat="41.900077" lon="0.226048">
        <ele>299.635</ele>
        <time>2020-08-23T09:46:19Z</time>
      </trkpt>
      <trkpt lat="41.900095" lon="0.225991">
        <ele>299.686</ele>
        <time>2020-08-23T09:46:20Z</time>
      </trkpt>
      <trkpt lat="41.900111" lon="0.225930">
        <ele>299.614</ele>
        <time>2020-08-23T09:46:21Z</time>
      </trkpt>
      <trkpt lat="41.900131" lon="0.225865">
        <ele>299.708</ele>
        <time>2020-08-23T09:46:22Z</time>
      </trkpt>
      <trkpt lat="41.900147" lon="0.225800">
        <ele>299.868</ele>
        <time>2020-08-23T09:46:23Z</time>
      </trkpt>
      <trkpt lat="41.900162" lon="0.225735">
        <ele>299.938</ele>
        <time>2020-08-23T09:46:24Z</time>
      </trkpt>
      <trkpt lat="41.900182" lon="0.225671">
        <ele>300.086</ele>
        <time>2020-08-23T09:46:25Z</time>
      </trkpt>
      <trkpt lat="41.900202" lon="0.225603">
        <ele>300.068</ele>
        <time>2020-08-23T09:46:26Z</time>
      </trkpt>
      <trkpt lat="41.900222" lon="0.225533">
        <ele>299.959</ele>
        <time>2020-08-23T09:46:27Z</time>
      </trkpt>
      <trkpt lat="41.900244" lon="0.225461">
        <ele>299.890</ele>
        <time>2020-08-23T09:46:28Z</time>
      </trkpt>
      <trkpt lat="41.900268" lon="0.225385">
        <ele>299.876</ele>
        <time>2020-08-23T09:46:29Z</time>
      </trkpt>
      <trkpt lat="41.900292" lon="0.225307">
        <ele>299.865</ele>
        <time>2020-08-23T09:46:30Z</time>
      </trkpt>
      <trkpt lat="41.900312" lon="0.225228">
        <ele>299.782</ele>
        <time>2020-08-23T09:46:31Z</time>
      </trkpt>
      <trkpt lat="41.900334" lon="0.225143">
        <ele>299.643</ele>
        <time>2020-08-23T09:46:32Z</time>
      </trkpt>
      <trkpt lat="41.900356" lon="0.225057">
        <ele>299.517</ele>
        <time>2020-08-23T09:46:33Z</time>
      </trkpt>
      <trkpt lat="41.900379" lon="0.224968">
        <ele>299.408</ele>
        <time>2020-08-23T09:46:34Z</time>
      </trkpt>
      <trkpt lat="41.900396" lon="0.224879">
        <ele>299.333</ele>
        <time>2020-08-23T09:46:35Z</time>
      </trkpt>
      <trkpt lat="41.900422" lon="0.224797">
        <ele>299.273</ele>
        <time>2020-08-23T09:46:36Z</time>
      </trkpt>
      <trkpt lat="41.900447" lon="0.224712">
        <ele>299.121</ele>
        <time>2020-08-23T09:46:37Z</time>
      </trkpt>
      <trkpt lat="41.900462" lon="0.224621">
        <ele>299.113</ele>
        <time>2020-08-23T09:46:38Z</time>
      </trkpt>
      <trkpt lat="41.900475" lon="0.224530">
        <ele>299.144</ele>
        <time>2020-08-23T09:46:39Z</time>
      </trkpt>
      <trkpt lat="41.900491" lon="0.224442">
        <ele>299.155</ele>
        <time>2020-08-23T09:46:40Z</time>
      </trkpt>
      <trkpt lat="41.900511" lon="0.224363">
        <ele>299.011</ele>
        <time>2020-08-23T09:46:41Z</time>
      </trkpt>
      <trkpt lat="41.900530" lon="0.224285">
        <ele>299.050</ele>
        <time>2020-08-23T09:46:42Z</time>
      </trkpt>
      <trkpt lat="41.900551" lon="0.224206">
        <ele>299.022</ele>
        <time>2020-08-23T09:46:43Z</time>
      </trkpt>
      <trkpt lat="41.900573" lon="0.224124">
        <ele>298.962</ele>
        <time>2020-08-23T09:46:44Z</time>
      </trkpt>
      <trkpt lat="41.900590" lon="0.224039">
        <ele>298.808</ele>
        <time>2020-08-23T09:46:45Z</time>
      </trkpt>
      <trkpt lat="41.900611" lon="0.223958">
        <ele>298.808</ele>
        <time>2020-08-23T09:46:46Z</time>
      </trkpt>
      <trkpt lat="41.900630" lon="0.223879">
        <ele>298.837</ele>
        <time>2020-08-23T09:46:47Z</time>
      </trkpt>
      <trkpt lat="41.900653" lon="0.223802">
        <ele>298.777</ele>
        <time>2020-08-23T09:46:48Z</time>
      </trkpt>
      <trkpt lat="41.900670" lon="0.223721">
        <ele>298.745</ele>
        <time>2020-08-23T09:46:49Z</time>
      </trkpt>
      <trkpt lat="41.900688" lon="0.223636">
        <ele>298.777</ele>
        <time>2020-08-23T09:46:50Z</time>
      </trkpt>
      <trkpt lat="41.900711" lon="0.223552">
        <ele>298.688</ele>
        <time>2020-08-23T09:46:51Z</time>
      </trkpt>
      <trkpt lat="41.900731" lon="0.223468">
        <ele>298.579</ele>
        <time>2020-08-23T09:46:52Z</time>
      </trkpt>
      <trkpt lat="41.900754" lon="0.223387">
        <ele>298.435</ele>
        <time>2020-08-23T09:46:53Z</time>
      </trkpt>
      <trkpt lat="41.900776" lon="0.223305">
        <ele>298.374</ele>
        <time>2020-08-23T09:46:54Z</time>
      </trkpt>
      <trkpt lat="41.900799" lon="0.223225">
        <ele>298.346</ele>
        <time>2020-08-23T09:46:55Z</time>
      </trkpt>
      <trkpt lat="41.900818" lon="0.223142">
        <ele>298.388</ele>
        <time>2020-08-23T09:46:56Z</time>
      </trkpt>
      <trkpt lat="41.900840" lon="0.223061">
        <ele>298.316</ele>
        <time>2020-08-23T09:46:57Z</time>
      </trkpt>
      <trkpt lat="41.900863" lon="0.222980">
        <ele>298.308</ele>
        <time>2020-08-23T09:46:58Z</time>
      </trkpt>
      <trkpt lat="41.900887" lon="0.222900">
        <ele>298.379</ele>
        <time>2020-08-23T09:46:59Z</time>
      </trkpt>
      <trkpt lat="41.900909" lon="0.222818">
        <ele>298.249</ele>
        <time>2020-08-23T09:47:00Z</time>
      </trkpt>
      <trkpt lat="41.900929" lon="0.222737">
        <ele>298.167</ele>
        <time>2020-08-23T09:47:01Z</time>
      </trkpt>
      <trkpt lat="41.900951" lon="0.222656">
        <ele>298.099</ele>
        <time>2020-08-23T09:47:02Z</time>
      </trkpt>
      <trkpt lat="41.900977" lon="0.222575">
        <ele>297.980</ele>
        <time>2020-08-23T09:47:03Z</time>
      </trkpt>
      <trkpt lat="41.901001" lon="0.222493">
        <ele>297.931</ele>
        <time>2020-08-23T09:47:04Z</time>
      </trkpt>
      <trkpt lat="41.901022" lon="0.222410">
        <ele>297.917</ele>
        <time>2020-08-23T09:47:05Z</time>
      </trkpt>
      <trkpt lat="41.901045" lon="0.222327">
        <ele>297.986</ele>
        <time>2020-08-23T09:47:06Z</time>
      </trkpt>
      <trkpt lat="41.901063" lon="0.222240">
        <ele>297.929</ele>
        <time>2020-08-23T09:47:07Z</time>
      </trkpt>
      <trkpt lat="41.901075" lon="0.222149">
        <ele>297.900</ele>
        <time>2020-08-23T09:47:08Z</time>
      </trkpt>
      <trkpt lat="41.901095" lon="0.222063">
        <ele>297.920</ele>
        <time>2020-08-23T09:47:09Z</time>
      </trkpt>
      <trkpt lat="41.901113" lon="0.221977">
        <ele>297.908</ele>
        <time>2020-08-23T09:47:10Z</time>
      </trkpt>
      <trkpt lat="41.901136" lon="0.221893">
        <ele>297.957</ele>
        <time>2020-08-23T09:47:11Z</time>
      </trkpt>
      <trkpt lat="41.901156" lon="0.221810">
        <ele>297.937</ele>
        <time>2020-08-23T09:47:12Z</time>
      </trkpt>
      <trkpt lat="41.901174" lon="0.221726">
        <ele>297.945</ele>
        <time>2020-08-23T09:47:13Z</time>
      </trkpt>
      <trkpt lat="41.901194" lon="0.221642">
        <ele>297.947</ele>
        <time>2020-08-23T09:47:14Z</time>
      </trkpt>
      <trkpt lat="41.901208" lon="0.221553">
        <ele>297.978</ele>
        <time>2020-08-23T09:47:15Z</time>
      </trkpt>
      <trkpt lat="41.901225" lon="0.221463">
        <ele>297.869</ele>
        <time>2020-08-23T09:47:16Z</time>
      </trkpt>
      <trkpt lat="41.901243" lon="0.221375">
        <ele>297.755</ele>
        <time>2020-08-23T09:47:17Z</time>
      </trkpt>
      <trkpt lat="41.901258" lon="0.221290">
        <ele>297.724</ele>
        <time>2020-08-23T09:47:18Z</time>
      </trkpt>
      <trkpt lat="41.901276" lon="0.221204">
        <ele>297.666</ele>
        <time>2020-08-23T09:47:19Z</time>
      </trkpt>
      <trkpt lat="41.901295" lon="0.221119">
        <ele>297.529</ele>
        <time>2020-08-23T09:47:20Z</time>
      </trkpt>
      <trkpt lat="41.901308" lon="0.221035">
        <ele>297.421</ele>
        <time>2020-08-23T09:47:21Z</time>
      </trkpt>
      <trkpt lat="41.901324" lon="0.220955">
        <ele>297.308</ele>
        <time>2020-08-23T09:47:22Z</time>
      </trkpt>
      <trkpt lat="41.901343" lon="0.220874">
        <ele>297.371</ele>
        <time>2020-08-23T09:47:23Z</time>
      </trkpt>
      <trkpt lat="41.901362" lon="0.220791">
        <ele>297.381</ele>
        <time>2020-08-23T09:47:24Z</time>
      </trkpt>
      <trkpt lat="41.901381" lon="0.220706">
        <ele>297.319</ele>
        <time>2020-08-23T09:47:25Z</time>
      </trkpt>
      <trkpt lat="41.901398" lon="0.220621">
        <ele>297.331</ele>
        <time>2020-08-23T09:47:26Z</time>
      </trkpt>
      <trkpt lat="41.901414" lon="0.220533">
        <ele>297.362</ele>
        <time>2020-08-23T09:47:27Z</time>
      </trkpt>
      <trkpt lat="41.901431" lon="0.220447">
        <ele>297.333</ele>
        <time>2020-08-23T09:47:28Z</time>
      </trkpt>
      <trkpt lat="41.901450" lon="0.220362">
        <ele>297.269</ele>
        <time>2020-08-23T09:47:29Z</time>
      </trkpt>
      <trkpt lat="41.901469" lon="0.220276">
        <ele>297.138</ele>
        <time>2020-08-23T09:47:30Z</time>
      </trkpt>
      <trkpt lat="41.901485" lon="0.220191">
        <ele>297.057</ele>
        <time>2020-08-23T09:47:31Z</time>
      </trkpt>
      <trkpt lat="41.901506" lon="0.220111">
        <ele>297.000</ele>
        <time>2020-08-23T09:47:32Z</time>
      </trkpt>
      <trkpt lat="41.901530" lon="0.220032">
        <ele>297.020</ele>
        <time>2020-08-23T09:47:33Z</time>
      </trkpt>
      <trkpt lat="41.901558" lon="0.219954">
        <ele>297.008</ele>
        <time>2020-08-23T09:47:34Z</time>
      </trkpt>
      <trkpt lat="41.901587" lon="0.219875">
        <ele>297.010</ele>
        <time>2020-08-23T09:47:35Z</time>
      </trkpt>
      <trkpt lat="41.901613" lon="0.219794">
        <ele>297.060</ele>
        <time>2020-08-23T09:47:36Z</time>
      </trkpt>
      <trkpt lat="41.901639" lon="0.219717">
        <ele>297.018</ele>
        <time>2020-08-23T09:47:37Z</time>
      </trkpt>
      <trkpt lat="41.901663" lon="0.219639">
        <ele>297.080</ele>
        <time>2020-08-23T09:47:38Z</time>
      </trkpt>
      <trkpt lat="41.901687" lon="0.219561">
        <ele>297.091</ele>
        <time>2020-08-23T09:47:39Z</time>
      </trkpt>
      <trkpt lat="41.901704" lon="0.219479">
        <ele>297.082</ele>
        <time>2020-08-23T09:47:40Z</time>
      </trkpt>
      <trkpt lat="41.901716" lon="0.219395">
        <ele>297.098</ele>
        <time>2020-08-23T09:47:41Z</time>
      </trkpt>
      <trkpt lat="41.901735" lon="0.219311">
        <ele>297.047</ele>
        <time>2020-08-23T09:47:42Z</time>
      </trkpt>
      <trkpt lat="41.901752" lon="0.219227">
        <ele>297.081</ele>
        <time>2020-08-23T09:47:43Z</time>
      </trkpt>
      <trkpt lat="41.901772" lon="0.219146">
        <ele>297.161</ele>
        <time>2020-08-23T09:47:44Z</time>
      </trkpt>
      <trkpt lat="41.901795" lon="0.219069">
        <ele>297.117</ele>
        <time>2020-08-23T09:47:45Z</time>
      </trkpt>
      <trkpt lat="41.901822" lon="0.218993">
        <ele>297.108</ele>
        <time>2020-08-23T09:47:46Z</time>
      </trkpt>
      <trkpt lat="41.901847" lon="0.218914">
        <ele>297.193</ele>
        <time>2020-08-23T09:47:47Z</time>
      </trkpt>
      <trkpt lat="41.901877" lon="0.218838">
        <ele>297.113</ele>
        <time>2020-08-23T09:47:48Z</time>
      </trkpt>
      <trkpt lat="41.901905" lon="0.218761">
        <ele>297.151</ele>
        <time>2020-08-23T09:47:49Z</time>
      </trkpt>
      <trkpt lat="41.901936" lon="0.218688">
        <ele>297.123</ele>
        <time>2020-08-23T09:47:50Z</time>
      </trkpt>
      <trkpt lat="41.901965" lon="0.218612">
        <ele>297.194</ele>
        <time>2020-08-23T09:47:51Z</time>
      </trkpt>
      <trkpt lat="41.901995" lon="0.218539">
        <ele>297.155</ele>
        <time>2020-08-23T09:47:52Z</time>
      </trkpt>
      <trkpt lat="41.902023" lon="0.218464">
        <ele>297.151</ele>
        <time>2020-08-23T09:47:53Z</time>
      </trkpt>
      <trkpt lat="41.902054" lon="0.218395">
        <ele>297.250</ele>
        <time>2020-08-23T09:47:54Z</time>
      </trkpt>
      <trkpt lat="41.902083" lon="0.218324">
        <ele>297.235</ele>
        <time>2020-08-23T09:47:55Z</time>
      </trkpt>
      <trkpt lat="41.902110" lon="0.218253">
        <ele>297.286</ele>
        <time>2020-08-23T09:47:56Z</time>
      </trkpt>
      <trkpt lat="41.902136" lon="0.218180">
        <ele>297.214</ele>
        <time>2020-08-23T09:47:57Z</time>
      </trkpt>
      <trkpt lat="41.902165" lon="0.218111">
        <ele>297.308</ele>
        <time>2020-08-23T09:47:58Z</time>
      </trkpt>
      <trkpt lat="41.902190" lon="0.218040">
        <ele>297.348</ele>
        <time>2020-08-23T09:47:59Z</time>
      </trkpt>
      <trkpt lat="41.902213" lon="0.217971">
        <ele>297.348</ele>
        <time>2020-08-23T09:48:00Z</time>
      </trkpt>
      <trkpt lat="41.902236" lon="0.217900">
        <ele>297.346</ele>
        <time>2020-08-23T09:48:01Z</time>
      </trkpt>
      <trkpt lat="41.902257" lon="0.217826">
        <ele>297.338</ele>
        <time>2020-08-23T09:48:02Z</time>
      </trkpt>
      <trkpt lat="41.902282" lon="0.217756">
        <ele>297.359</ele>
        <time>2020-08-23T09:48:03Z</time>
      </trkpt>
      <trkpt lat="41.902311" lon="0.217689">
        <ele>297.380</ele>
        <time>2020-08-23T09:48:04Z</time>
      </trkpt>
      <trkpt lat="41.902333" lon="0.217619">
        <ele>297.436</ele>
        <time>2020-08-23T09:48:05Z</time>
      </trkpt>
      <trkpt lat="41.902360" lon="0.217554">
        <ele>297.585</ele>
        <time>2020-08-23T09:48:06Z</time>
      </trkpt>
      <trkpt lat="41.902383" lon="0.217489">
        <ele>297.653</ele>
        <time>2020-08-23T09:48:07Z</time>
      </trkpt>
      <trkpt lat="41.902400" lon="0.217420">
        <ele>297.704</ele>
        <time>2020-08-23T09:48:08Z</time>
      </trkpt>
      <trkpt lat="41.902421" lon="0.217345">
        <ele>297.714</ele>
        <time>2020-08-23T09:48:09Z</time>
      </trkpt>
      <trkpt lat="41.902444" lon="0.217266">
        <ele>297.708</ele>
        <time>2020-08-23T09:48:10Z</time>
      </trkpt>
      <trkpt lat="41.902462" lon="0.217187">
        <ele>297.650</ele>
        <time>2020-08-23T09:48:11Z</time>
      </trkpt>
      <trkpt lat="41.902482" lon="0.217110">
        <ele>297.650</ele>
        <time>2020-08-23T09:48:12Z</time>
      </trkpt>
      <trkpt lat="41.902499" lon="0.217030">
        <ele>297.658</ele>
        <time>2020-08-23T09:48:13Z</time>
      </trkpt>
      <trkpt lat="41.902524" lon="0.216954">
        <ele>297.610</ele>
        <time>2020-08-23T09:48:14Z</time>
      </trkpt>
      <trkpt lat="41.902544" lon="0.216874">
        <ele>297.611</ele>
        <time>2020-08-23T09:48:15Z</time>
      </trkpt>
      <trkpt lat="41.902568" lon="0.216795">
        <ele>297.622</ele>
        <time>2020-08-23T09:48:16Z</time>
      </trkpt>
      <trkpt lat="41.902586" lon="0.216712">
        <ele>297.628</ele>
        <time>2020-08-23T09:48:17Z</time>
      </trkpt>
      <trkpt lat="41.902600" lon="0.216627">
        <ele>297.687</ele>
        <time>2020-08-23T09:48:18Z</time>
      </trkpt>
      <trkpt lat="41.902611" lon="0.216541">
        <ele>297.667</ele>
        <time>2020-08-23T09:48:19Z</time>
      </trkpt>
      <trkpt lat="41.902630" lon="0.216456">
        <ele>297.581</ele>
        <time>2020-08-23T09:48:20Z</time>
      </trkpt>
      <trkpt lat="41.902650" lon="0.216367">
        <ele>297.419</ele>
        <time>2020-08-23T09:48:21Z</time>
      </trkpt>
      <trkpt lat="41.902675" lon="0.216280">
        <ele>297.408</ele>
        <time>2020-08-23T09:48:22Z</time>
      </trkpt>
      <trkpt lat="41.902706" lon="0.216198">
        <ele>297.461</ele>
        <time>2020-08-23T09:48:23Z</time>
      </trkpt>
      <trkpt lat="41.902740" lon="0.216122">
        <ele>297.441</ele>
        <time>2020-08-23T09:48:24Z</time>
      </trkpt>
      <trkpt lat="41.902775" lon="0.216050">
        <ele>297.439</ele>
        <time>2020-08-23T09:48:25Z</time>
      </trkpt>
      <trkpt lat="41.902815" lon="0.215983">
        <ele>297.431</ele>
        <time>2020-08-23T09:48:26Z</time>
      </trkpt>
      <trkpt lat="41.902859" lon="0.215919">
        <ele>297.442</ele>
        <time>2020-08-23T09:48:27Z</time>
      </trkpt>
      <trkpt lat="41.902903" lon="0.215857">
        <ele>297.383</ele>
        <time>2020-08-23T09:48:28Z</time>
      </trkpt>
      <trkpt lat="41.902948" lon="0.215798">
        <ele>297.319</ele>
        <time>2020-08-23T09:48:29Z</time>
      </trkpt>
      <trkpt lat="41.902985" lon="0.215745">
        <ele>297.348</ele>
        <time>2020-08-23T09:48:30Z</time>
      </trkpt>
      <trkpt lat="41.903019" lon="0.215702">
        <ele>297.292</ele>
        <time>2020-08-23T09:48:31Z</time>
      </trkpt>
      <trkpt lat="41.903065" lon="0.215618">
        <ele>297.173</ele>
        <time>2020-08-23T09:48:33Z</time>
      </trkpt>
      <trkpt lat="41.903052" lon="0.215525">
        <ele>297.020</ele>
        <time>2020-08-23T09:48:35Z</time>
      </trkpt>
      <trkpt lat="41.902985" lon="0.215465">
        <ele>297.008</ele>
        <time>2020-08-23T09:48:37Z</time>
      </trkpt>
      <trkpt lat="41.902947" lon="0.215430">
        <ele>297.024</ele>
        <time>2020-08-23T09:48:38Z</time>
      </trkpt>
      <trkpt lat="41.902891" lon="0.215348">
        <ele>297.154</ele>
        <time>2020-08-23T09:48:40Z</time>
      </trkpt>
      <trkpt lat="41.902890" lon="0.215276">
        <ele>297.192</ele>
        <time>2020-08-23T09:48:41Z</time>
      </trkpt>
      <trkpt lat="41.902904" lon="0.215207">
        <ele>297.134</ele>
        <time>2020-08-23T09:48:42Z</time>
      </trkpt>
      <trkpt lat="41.902926" lon="0.215138">
        <ele>297.155</ele>
        <time>2020-08-23T09:48:43Z</time>
      </trkpt>
      <trkpt lat="41.902956" lon="0.215075">
        <ele>297.016</ele>
        <time>2020-08-23T09:48:44Z</time>
      </trkpt>
      <trkpt lat="41.902990" lon="0.215009">
        <ele>296.962</ele>
        <time>2020-08-23T09:48:45Z</time>
      </trkpt>
      <trkpt lat="41.903021" lon="0.214939">
        <ele>296.841</ele>
        <time>2020-08-23T09:48:46Z</time>
      </trkpt>
      <trkpt lat="41.903045" lon="0.214867">
        <ele>296.753</ele>
        <time>2020-08-23T09:48:47Z</time>
      </trkpt>
      <trkpt lat="41.903069" lon="0.214791">
        <ele>296.604</ele>
        <time>2020-08-23T09:48:48Z</time>
      </trkpt>
      <trkpt lat="41.903088" lon="0.214711">
        <ele>296.514</ele>
        <time>2020-08-23T09:48:49Z</time>
      </trkpt>
      <trkpt lat="41.903109" lon="0.214629">
        <ele>296.408</ele>
        <time>2020-08-23T09:48:50Z</time>
      </trkpt>
      <trkpt lat="41.903135" lon="0.214546">
        <ele>296.350</ele>
        <time>2020-08-23T09:48:51Z</time>
      </trkpt>
      <trkpt lat="41.903156" lon="0.214462">
        <ele>296.140</ele>
        <time>2020-08-23T09:48:52Z</time>
      </trkpt>
      <trkpt lat="41.903178" lon="0.214379">
        <ele>296.078</ele>
        <time>2020-08-23T09:48:53Z</time>
      </trkpt>
      <trkpt lat="41.903199" lon="0.214294">
        <ele>295.990</ele>
        <time>2020-08-23T09:48:54Z</time>
      </trkpt>
      <trkpt lat="41.903219" lon="0.214207">
        <ele>295.851</ele>
        <time>2020-08-23T09:48:55Z</time>
      </trkpt>
      <trkpt lat="41.903236" lon="0.214118">
        <ele>295.762</ele>
        <time>2020-08-23T09:48:56Z</time>
      </trkpt>
      <trkpt lat="41.903253" lon="0.214028">
        <ele>295.638</ele>
        <time>2020-08-23T09:48:57Z</time>
      </trkpt>
      <trkpt lat="41.903272" lon="0.213934">
        <ele>295.517</ele>
        <time>2020-08-23T09:48:58Z</time>
      </trkpt>
      <trkpt lat="41.903290" lon="0.213837">
        <ele>295.438</ele>
        <time>2020-08-23T09:48:59Z</time>
      </trkpt>
      <trkpt lat="41.903311" lon="0.213741">
        <ele>295.270</ele>
        <time>2020-08-23T09:49:00Z</time>
      </trkpt>
      <trkpt lat="41.903337" lon="0.213643">
        <ele>295.017</ele>
        <time>2020-08-23T09:49:01Z</time>
      </trkpt>
      <trkpt lat="41.903366" lon="0.213542">
        <ele>294.808</ele>
        <time>2020-08-23T09:49:02Z</time>
      </trkpt>
      <trkpt lat="41.903393" lon="0.213438">
        <ele>294.518</ele>
        <time>2020-08-23T09:49:03Z</time>
      </trkpt>
      <trkpt lat="41.903420" lon="0.213327">
        <ele>294.238</ele>
        <time>2020-08-23T09:49:04Z</time>
      </trkpt>
      <trkpt lat="41.903459" lon="0.213221">
        <ele>293.936</ele>
        <time>2020-08-23T09:49:05Z</time>
      </trkpt>
      <trkpt lat="41.903504" lon="0.213118">
        <ele>293.588</ele>
        <time>2020-08-23T09:49:06Z</time>
      </trkpt>
      <trkpt lat="41.903560" lon="0.213022">
        <ele>293.119</ele>
        <time>2020-08-23T09:49:07Z</time>
      </trkpt>
      <trkpt lat="41.903629" lon="0.212934">
        <ele>292.760</ele>
        <time>2020-08-23T09:49:08Z</time>
      </trkpt>
      <trkpt lat="41.903702" lon="0.212848">
        <ele>292.396</ele>
        <time>2020-08-23T09:49:09Z</time>
      </trkpt>
      <trkpt lat="41.903772" lon="0.212757">
        <ele>291.965</ele>
        <time>2020-08-23T09:49:10Z</time>
      </trkpt>
      <trkpt lat="41.903840" lon="0.212662">
        <ele>291.533</ele>
        <time>2020-08-23T09:49:11Z</time>
      </trkpt>
      <trkpt lat="41.903906" lon="0.212568">
        <ele>291.223</ele>
        <time>2020-08-23T09:49:12Z</time>
      </trkpt>
      <trkpt lat="41.903969" lon="0.212465">
        <ele>290.815</ele>
        <time>2020-08-23T09:49:13Z</time>
      </trkpt>
      <trkpt lat="41.904027" lon="0.212352">
        <ele>290.408</ele>
        <time>2020-08-23T09:49:14Z</time>
      </trkpt>
      <trkpt lat="41.904078" lon="0.212232">
        <ele>290.038</ele>
        <time>2020-08-23T09:49:15Z</time>
      </trkpt>
      <trkpt lat="41.904143" lon="0.212122">
        <ele>289.118</ele>
        <time>2020-08-23T09:49:16Z</time>
      </trkpt>
      <trkpt lat="41.904195" lon="0.212002">
        <ele>288.626</ele>
        <time>2020-08-23T09:49:17Z</time>
      </trkpt>
      <trkpt lat="41.904247" lon="0.211886">
        <ele>288.238</ele>
        <time>2020-08-23T09:49:18Z</time>
      </trkpt>
      <trkpt lat="41.904299" lon="0.211775">
        <ele>287.919</ele>
        <time>2020-08-23T09:49:19Z</time>
      </trkpt>
      <trkpt lat="41.904350" lon="0.211660">
        <ele>287.650</ele>
        <time>2020-08-23T09:49:20Z</time>
      </trkpt>
      <trkpt lat="41.904396" lon="0.211541">
        <ele>287.496</ele>
        <time>2020-08-23T09:49:21Z</time>
      </trkpt>
      <trkpt lat="41.904437" lon="0.211425">
        <ele>287.235</ele>
        <time>2020-08-23T09:49:22Z</time>
      </trkpt>
      <trkpt lat="41.904473" lon="0.211308">
        <ele>286.917</ele>
        <time>2020-08-23T09:49:23Z</time>
      </trkpt>
      <trkpt lat="41.904505" lon="0.211190">
        <ele>286.687</ele>
        <time>2020-08-23T09:49:24Z</time>
      </trkpt>
      <trkpt lat="41.904534" lon="0.211070">
        <ele>286.315</ele>
        <time>2020-08-23T09:49:25Z</time>
      </trkpt>
      <trkpt lat="41.904564" lon="0.210953">
        <ele>286.108</ele>
        <time>2020-08-23T09:49:26Z</time>
      </trkpt>
      <trkpt lat="41.904589" lon="0.210834">
        <ele>285.896</ele>
        <time>2020-08-23T09:49:27Z</time>
      </trkpt>
      <trkpt lat="41.904609" lon="0.210710">
        <ele>285.676</ele>
        <time>2020-08-23T09:49:28Z</time>
      </trkpt>
      <trkpt lat="41.904622" lon="0.210584">
        <ele>285.474</ele>
        <time>2020-08-23T09:49:29Z</time>
      </trkpt>
      <trkpt lat="41.904633" lon="0.210462">
        <ele>285.266</ele>
        <time>2020-08-23T09:49:30Z</time>
      </trkpt>
      <trkpt lat="41.904637" lon="0.210341">
        <ele>285.087</ele>
        <time>2020-08-23T09:49:31Z</time>
      </trkpt>
      <trkpt lat="41.904643" lon="0.210223">
        <ele>284.998</ele>
        <time>2020-08-23T09:49:32Z</time>
      </trkpt>
      <trkpt lat="41.904648" lon="0.210107">
        <ele>284.844</ele>
        <time>2020-08-23T09:49:33Z</time>
      </trkpt>
      <trkpt lat="41.904658" lon="0.209991">
        <ele>284.673</ele>
        <time>2020-08-23T09:49:34Z</time>
      </trkpt>
      <trkpt lat="41.904670" lon="0.209874">
        <ele>284.529</ele>
        <time>2020-08-23T09:49:35Z</time>
      </trkpt>
      <trkpt lat="41.904685" lon="0.209757">
        <ele>284.300</ele>
        <time>2020-08-23T09:49:36Z</time>
      </trkpt>
      <trkpt lat="41.904705" lon="0.209644">
        <ele>284.120</ele>
        <time>2020-08-23T09:49:37Z</time>
      </trkpt>
      <trkpt lat="41.904721" lon="0.209524">
        <ele>283.908</ele>
        <time>2020-08-23T09:49:38Z</time>
      </trkpt>
      <trkpt lat="41.904737" lon="0.209402">
        <ele>283.497</ele>
        <time>2020-08-23T09:49:39Z</time>
      </trkpt>
      <trkpt lat="41.904755" lon="0.209283">
        <ele>283.157</ele>
        <time>2020-08-23T09:49:40Z</time>
      </trkpt>
      <trkpt lat="41.904774" lon="0.209164">
        <ele>282.875</ele>
        <time>2020-08-23T09:49:41Z</time>
      </trkpt>
      <trkpt lat="41.904793" lon="0.209043">
        <ele>282.597</ele>
        <time>2020-08-23T09:49:42Z</time>
      </trkpt>
      <trkpt lat="41.904815" lon="0.208921">
        <ele>282.248</ele>
        <time>2020-08-23T09:49:43Z</time>
      </trkpt>
      <trkpt lat="41.904838" lon="0.208806">
        <ele>281.919</ele>
        <time>2020-08-23T09:49:44Z</time>
      </trkpt>
      <trkpt lat="41.904860" lon="0.208693">
        <ele>281.675</ele>
        <time>2020-08-23T09:49:45Z</time>
      </trkpt>
      <trkpt lat="41.904882" lon="0.208576">
        <ele>281.424</ele>
        <time>2020-08-23T09:49:46Z</time>
      </trkpt>
      <trkpt lat="41.904903" lon="0.208456">
        <ele>281.296</ele>
        <time>2020-08-23T09:49:47Z</time>
      </trkpt>
      <trkpt lat="41.904923" lon="0.208336">
        <ele>281.031</ele>
        <time>2020-08-23T09:49:48Z</time>
      </trkpt>
      <trkpt lat="41.904946" lon="0.208218">
        <ele>280.824</ele>
        <time>2020-08-23T09:49:49Z</time>
      </trkpt>
      <trkpt lat="41.904974" lon="0.208101">
        <ele>280.608</ele>
        <time>2020-08-23T09:49:50Z</time>
      </trkpt>
      <trkpt lat="41.904997" lon="0.207984">
        <ele>280.464</ele>
        <time>2020-08-23T09:49:51Z</time>
      </trkpt>
      <trkpt lat="41.905023" lon="0.207871">
        <ele>280.264</ele>
        <time>2020-08-23T09:49:52Z</time>
      </trkpt>
      <trkpt lat="41.905043" lon="0.207758">
        <ele>280.082</ele>
        <time>2020-08-23T09:49:53Z</time>
      </trkpt>
      <trkpt lat="41.905062" lon="0.207645">
        <ele>279.844</ele>
        <time>2020-08-23T09:49:54Z</time>
      </trkpt>
      <trkpt lat="41.905083" lon="0.207535">
        <ele>279.655</ele>
        <time>2020-08-23T09:49:55Z</time>
      </trkpt>
      <trkpt lat="41.905096" lon="0.207424">
        <ele>279.446</ele>
        <time>2020-08-23T09:49:56Z</time>
      </trkpt>
      <trkpt lat="41.905111" lon="0.207314">
        <ele>279.212</ele>
        <time>2020-08-23T09:49:57Z</time>
      </trkpt>
      <trkpt lat="41.905123" lon="0.207203">
        <ele>279.031</ele>
        <time>2020-08-23T09:49:58Z</time>
      </trkpt>
      <trkpt lat="41.905130" lon="0.207090">
        <ele>278.943</ele>
        <time>2020-08-23T09:49:59Z</time>
      </trkpt>
      <trkpt lat="41.905138" lon="0.206976">
        <ele>278.864</ele>
        <time>2020-08-23T09:50:00Z</time>
      </trkpt>
      <trkpt lat="41.905143" lon="0.206860">
        <ele>278.610</ele>
        <time>2020-08-23T09:50:01Z</time>
      </trkpt>
      <trkpt lat="41.905144" lon="0.206743">
        <ele>278.508</ele>
        <time>2020-08-23T09:50:02Z</time>
      </trkpt>
      <trkpt lat="41.905148" lon="0.206629">
        <ele>278.259</ele>
        <time>2020-08-23T09:50:03Z</time>
      </trkpt>
      <trkpt lat="41.905144" lon="0.206513">
        <ele>278.169</ele>
        <time>2020-08-23T09:50:04Z</time>
      </trkpt>
      <trkpt lat="41.905137" lon="0.206398">
        <ele>278.087</ele>
        <time>2020-08-23T09:50:05Z</time>
      </trkpt>
      <trkpt lat="41.905128" lon="0.206281">
        <ele>277.919</ele>
        <time>2020-08-23T09:50:06Z</time>
      </trkpt>
      <trkpt lat="41.905123" lon="0.206160">
        <ele>277.840</ele>
        <time>2020-08-23T09:50:07Z</time>
      </trkpt>
      <trkpt lat="41.905125" lon="0.206039">
        <ele>277.761</ele>
        <time>2020-08-23T09:50:08Z</time>
      </trkpt>
      <trkpt lat="41.905133" lon="0.205915">
        <ele>277.637</ele>
        <time>2020-08-23T09:50:09Z</time>
      </trkpt>
      <trkpt lat="41.905152" lon="0.205795">
        <ele>277.576</ele>
        <time>2020-08-23T09:50:10Z</time>
      </trkpt>
      <trkpt lat="41.905171" lon="0.205677">
        <ele>277.412</ele>
        <time>2020-08-23T09:50:11Z</time>
      </trkpt>
      <trkpt lat="41.905194" lon="0.205562">
        <ele>277.332</ele>
        <time>2020-08-23T09:50:12Z</time>
      </trkpt>
      <trkpt lat="41.905230" lon="0.205455">
        <ele>277.205</ele>
        <time>2020-08-23T09:50:13Z</time>
      </trkpt>
      <trkpt lat="41.905277" lon="0.205357">
        <ele>277.108</ele>
        <time>2020-08-23T09:50:14Z</time>
      </trkpt>
      <trkpt lat="41.905330" lon="0.205266">
        <ele>277.046</ele>
        <time>2020-08-23T09:50:15Z</time>
      </trkpt>
      <trkpt lat="41.905389" lon="0.205192">
        <ele>277.036</ele>
        <time>2020-08-23T09:50:16Z</time>
      </trkpt>
      <trkpt lat="41.905449" lon="0.205116">
        <ele>276.944</ele>
        <time>2020-08-23T09:50:17Z</time>
      </trkpt>
      <trkpt lat="41.905510" lon="0.205038">
        <ele>276.856</ele>
        <time>2020-08-23T09:50:18Z</time>
      </trkpt>
      <trkpt lat="41.905568" lon="0.204962">
        <ele>276.717</ele>
        <time>2020-08-23T09:50:19Z</time>
      </trkpt>
      <trkpt lat="41.905632" lon="0.204893">
        <ele>276.668</ele>
        <time>2020-08-23T09:50:20Z</time>
      </trkpt>
      <trkpt lat="41.905698" lon="0.204833">
        <ele>276.464</ele>
        <time>2020-08-23T09:50:21Z</time>
      </trkpt>
      <trkpt lat="41.905757" lon="0.204765">
        <ele>276.293</ele>
        <time>2020-08-23T09:50:22Z</time>
      </trkpt>
      <trkpt lat="41.905813" lon="0.204689">
        <ele>276.163</ele>
        <time>2020-08-23T09:50:23Z</time>
      </trkpt>
      <trkpt lat="41.905866" lon="0.204605">
        <ele>276.044</ele>
        <time>2020-08-23T09:50:24Z</time>
      </trkpt>
      <trkpt lat="41.905915" lon="0.204518">
        <ele>275.918</ele>
        <time>2020-08-23T09:50:25Z</time>
      </trkpt>
      <trkpt lat="41.905964" lon="0.204430">
        <ele>275.808</ele>
        <time>2020-08-23T09:50:26Z</time>
      </trkpt>
      <trkpt lat="41.906011" lon="0.204337">
        <ele>275.561</ele>
        <time>2020-08-23T09:50:27Z</time>
      </trkpt>
      <trkpt lat="41.906059" lon="0.204247">
        <ele>275.311</ele>
        <time>2020-08-23T09:50:28Z</time>
      </trkpt>
      <trkpt lat="41.906109" lon="0.204157">
        <ele>275.139</ele>
        <time>2020-08-23T09:50:29Z</time>
      </trkpt>
      <trkpt lat="41.906160" lon="0.204067">
        <ele>274.951</ele>
        <time>2020-08-23T09:50:30Z</time>
      </trkpt>
      <trkpt lat="41.906216" lon="0.203975">
        <ele>274.762</ele>
        <time>2020-08-23T09:50:31Z</time>
      </trkpt>
      <trkpt lat="41.906271" lon="0.203881">
        <ele>274.573</ele>
        <time>2020-08-23T09:50:32Z</time>
      </trkpt>
      <trkpt lat="41.906327" lon="0.203789">
        <ele>274.349</ele>
        <time>2020-08-23T09:50:33Z</time>
      </trkpt>
      <trkpt lat="41.906381" lon="0.203693">
        <ele>274.178</ele>
        <time>2020-08-23T09:50:34Z</time>
      </trkpt>
      <trkpt lat="41.906435" lon="0.203600">
        <ele>273.956</ele>
        <time>2020-08-23T09:50:35Z</time>
      </trkpt>
      <trkpt lat="41.906486" lon="0.203505">
        <ele>273.859</ele>
        <time>2020-08-23T09:50:36Z</time>
      </trkpt>
      <trkpt lat="41.906526" lon="0.203403">
        <ele>273.714</ele>
        <time>2020-08-23T09:50:37Z</time>
      </trkpt>
      <trkpt lat="41.906568" lon="0.203304">
        <ele>273.608</ele>
        <time>2020-08-23T09:50:38Z</time>
      </trkpt>
      <trkpt lat="41.906604" lon="0.203204">
        <ele>273.590</ele>
        <time>2020-08-23T09:50:39Z</time>
      </trkpt>
      <trkpt lat="41.906643" lon="0.203109">
        <ele>273.430</ele>
        <time>2020-08-23T09:50:40Z</time>
      </trkpt>
      <trkpt lat="41.906686" lon="0.203017">
        <ele>273.338</ele>
        <time>2020-08-23T09:50:41Z</time>
      </trkpt>
      <trkpt lat="41.906729" lon="0.202926">
        <ele>273.290</ele>
        <time>2020-08-23T09:50:42Z</time>
      </trkpt>
      <trkpt lat="41.906770" lon="0.202834">
        <ele>273.121</ele>
        <time>2020-08-23T09:50:43Z</time>
      </trkpt>
      <trkpt lat="41.906816" lon="0.202745">
        <ele>273.072</ele>
        <time>2020-08-23T09:50:44Z</time>
      </trkpt>
      <trkpt lat="41.906864" lon="0.202661">
        <ele>272.938</ele>
        <time>2020-08-23T09:50:45Z</time>
      </trkpt>
      <trkpt lat="41.906916" lon="0.202580">
        <ele>272.897</ele>
        <time>2020-08-23T09:50:46Z</time>
      </trkpt>
      <trkpt lat="41.906971" lon="0.202503">
        <ele>272.811</ele>
        <time>2020-08-23T09:50:47Z</time>
      </trkpt>
      <trkpt lat="41.907030" lon="0.202426">
        <ele>272.721</ele>
        <time>2020-08-23T09:50:48Z</time>
      </trkpt>
      <trkpt lat="41.907089" lon="0.202349">
        <ele>272.603</ele>
        <time>2020-08-23T09:50:49Z</time>
      </trkpt>
      <trkpt lat="41.907149" lon="0.202279">
        <ele>272.408</ele>
        <time>2020-08-23T09:50:50Z</time>
      </trkpt>
      <trkpt lat="41.907208" lon="0.202209">
        <ele>272.226</ele>
        <time>2020-08-23T09:50:51Z</time>
      </trkpt>
      <trkpt lat="41.907269" lon="0.202142">
        <ele>272.116</ele>
        <time>2020-08-23T09:50:52Z</time>
      </trkpt>
      <trkpt lat="41.907330" lon="0.202074">
        <ele>272.064</ele>
        <time>2020-08-23T09:50:53Z</time>
      </trkpt>
      <trkpt lat="41.907388" lon="0.202008">
        <ele>271.916</ele>
        <time>2020-08-23T09:50:54Z</time>
      </trkpt>
      <trkpt lat="41.907444" lon="0.201943">
        <ele>271.847</ele>
        <time>2020-08-23T09:50:55Z</time>
      </trkpt>
      <trkpt lat="41.907498" lon="0.201874">
        <ele>271.718</ele>
        <time>2020-08-23T09:50:56Z</time>
      </trkpt>
      <trkpt lat="41.907555" lon="0.201804">
        <ele>271.634</ele>
        <time>2020-08-23T09:50:57Z</time>
      </trkpt>
      <trkpt lat="41.907610" lon="0.201733">
        <ele>271.553</ele>
        <time>2020-08-23T09:50:58Z</time>
      </trkpt>
      <trkpt lat="41.907662" lon="0.201662">
        <ele>271.418</ele>
        <time>2020-08-23T09:50:59Z</time>
      </trkpt>
      <trkpt lat="41.907713" lon="0.201591">
        <ele>271.398</ele>
        <time>2020-08-23T09:51:00Z</time>
      </trkpt>
      <trkpt lat="41.907765" lon="0.201519">
        <ele>271.217</ele>
        <time>2020-08-23T09:51:01Z</time>
      </trkpt>
      <trkpt lat="41.907815" lon="0.201447">
        <ele>271.108</ele>
        <time>2020-08-23T09:51:02Z</time>
      </trkpt>
      <trkpt lat="41.907865" lon="0.201375">
        <ele>271.066</ele>
        <time>2020-08-23T09:51:03Z</time>
      </trkpt>
      <trkpt lat="41.907911" lon="0.201301">
        <ele>271.016</ele>
        <time>2020-08-23T09:51:04Z</time>
      </trkpt>
      <trkpt lat="41.907955" lon="0.201223">
        <ele>271.054</ele>
        <time>2020-08-23T09:51:05Z</time>
      </trkpt>
      <trkpt lat="41.907998" lon="0.201145">
        <ele>271.096</ele>
        <time>2020-08-23T09:51:06Z</time>
      </trkpt>
      <trkpt lat="41.908038" lon="0.201066">
        <ele>271.047</ele>
        <time>2020-08-23T09:51:07Z</time>
      </trkpt>
      <trkpt lat="41.908077" lon="0.200987">
        <ele>271.068</ele>
        <time>2020-08-23T09:51:08Z</time>
      </trkpt>
      <trkpt lat="41.908113" lon="0.200908">
        <ele>271.034</ele>
        <time>2020-08-23T09:51:09Z</time>
      </trkpt>
      <trkpt lat="41.908146" lon="0.200826">
        <ele>271.073</ele>
        <time>2020-08-23T09:51:10Z</time>
      </trkpt>
      <trkpt lat="41.908177" lon="0.200745">
        <ele>271.039</ele>
        <time>2020-08-23T09:51:11Z</time>
      </trkpt>
      <trkpt lat="41.908203" lon="0.200664">
        <ele>271.001</ele>
        <time>2020-08-23T09:51:12Z</time>
      </trkpt>
      <trkpt lat="41.908228" lon="0.200584">
        <ele>271.021</ele>
        <time>2020-08-23T09:51:13Z</time>
      </trkpt>
      <trkpt lat="41.908256" lon="0.200506">
        <ele>271.008</ele>
        <time>2020-08-23T09:51:14Z</time>
      </trkpt>
      <trkpt lat="41.908290" lon="0.200434">
        <ele>271.168</ele>
        <time>2020-08-23T09:51:15Z</time>
      </trkpt>
      <trkpt lat="41.908325" lon="0.200366">
        <ele>271.248</ele>
        <time>2020-08-23T09:51:16Z</time>
      </trkpt>
      <trkpt lat="41.908361" lon="0.200301">
        <ele>271.316</ele>
        <time>2020-08-23T09:51:17Z</time>
      </trkpt>
      <trkpt lat="41.908397" lon="0.200233">
        <ele>271.438</ele>
        <time>2020-08-23T09:51:18Z</time>
      </trkpt>
      <trkpt lat="41.908432" lon="0.200167">
        <ele>271.529</ele>
        <time>2020-08-23T09:51:19Z</time>
      </trkpt>
      <trkpt lat="41.908465" lon="0.200099">
        <ele>271.650</ele>
        <time>2020-08-23T09:51:20Z</time>
      </trkpt>
      <trkpt lat="41.908500" lon="0.200031">
        <ele>271.726</ele>
        <time>2020-08-23T09:51:21Z</time>
      </trkpt>
      <trkpt lat="41.908531" lon="0.199960">
        <ele>271.795</ele>
        <time>2020-08-23T09:51:22Z</time>
      </trkpt>
      <trkpt lat="41.908563" lon="0.199890">
        <ele>271.834</ele>
        <time>2020-08-23T09:51:23Z</time>
      </trkpt>
      <trkpt lat="41.908601" lon="0.199826">
        <ele>271.955</ele>
        <time>2020-08-23T09:51:24Z</time>
      </trkpt>
      <trkpt lat="41.908637" lon="0.199764">
        <ele>272.010</ele>
        <time>2020-08-23T09:51:25Z</time>
      </trkpt>
      <trkpt lat="41.908667" lon="0.199696">
        <ele>272.108</ele>
        <time>2020-08-23T09:51:26Z</time>
      </trkpt>
      <trkpt lat="41.908699" lon="0.199629">
        <ele>272.278</ele>
        <time>2020-08-23T09:51:27Z</time>
      </trkpt>
      <trkpt lat="41.908727" lon="0.199560">
        <ele>272.218</ele>
        <time>2020-08-23T09:51:28Z</time>
      </trkpt>
      <trkpt lat="41.908754" lon="0.199492">
        <ele>272.216</ele>
        <time>2020-08-23T09:51:29Z</time>
      </trkpt>
      <trkpt lat="41.908789" lon="0.199424">
        <ele>272.118</ele>
        <time>2020-08-23T09:51:30Z</time>
      </trkpt>
      <trkpt lat="41.908820" lon="0.199350">
        <ele>272.029</ele>
        <time>2020-08-23T09:51:31Z</time>
      </trkpt>
      <trkpt lat="41.908854" lon="0.199279">
        <ele>271.970</ele>
        <time>2020-08-23T09:51:32Z</time>
      </trkpt>
      <trkpt lat="41.908889" lon="0.199207">
        <ele>271.856</ele>
        <time>2020-08-23T09:51:33Z</time>
      </trkpt>
      <trkpt lat="41.908923" lon="0.199135">
        <ele>271.785</ele>
        <time>2020-08-23T09:51:34Z</time>
      </trkpt>
      <trkpt lat="41.908960" lon="0.199064">
        <ele>271.631</ele>
        <time>2020-08-23T09:51:35Z</time>
      </trkpt>
      <trkpt lat="41.908993" lon="0.198984">
        <ele>271.561</ele>
        <time>2020-08-23T09:51:36Z</time>
      </trkpt>
      <trkpt lat="41.909026" lon="0.198905">
        <ele>271.407</ele>
        <time>2020-08-23T09:51:37Z</time>
      </trkpt>
      <trkpt lat="41.909054" lon="0.198825">
        <ele>271.208</ele>
        <time>2020-08-23T09:51:38Z</time>
      </trkpt>
      <trkpt lat="41.909071" lon="0.198745">
        <ele>270.878</ele>
        <time>2020-08-23T09:51:39Z</time>
      </trkpt>
      <trkpt lat="41.909088" lon="0.198670">
        <ele>270.678</ele>
        <time>2020-08-23T09:51:40Z</time>
      </trkpt>
      <trkpt lat="41.909108" lon="0.198595">
        <ele>270.556</ele>
        <time>2020-08-23T09:51:41Z</time>
      </trkpt>
      <trkpt lat="41.909132" lon="0.198519">
        <ele>270.418</ele>
        <time>2020-08-23T09:51:42Z</time>
      </trkpt>
      <trkpt lat="41.909154" lon="0.198443">
        <ele>270.339</ele>
        <time>2020-08-23T09:51:43Z</time>
      </trkpt>
      <trkpt lat="41.909176" lon="0.198372">
        <ele>270.320</ele>
        <time>2020-08-23T09:51:44Z</time>
      </trkpt>
      <trkpt lat="41.909196" lon="0.198310">
        <ele>270.366</ele>
        <time>2020-08-23T09:51:45Z</time>
      </trkpt>
      <trkpt lat="41.909215" lon="0.198253">
        <ele>270.375</ele>
        <time>2020-08-23T09:51:46Z</time>
      </trkpt>
      <trkpt lat="41.909234" lon="0.198197">
        <ele>270.338</ele>
        <time>2020-08-23T09:51:47Z</time>
      </trkpt>
      <trkpt lat="41.909295" lon="0.198123">
        <ele>270.270</ele>
        <time>2020-08-23T09:51:49Z</time>
      </trkpt>
      <trkpt lat="41.909333" lon="0.198088">
        <ele>270.117</ele>
        <time>2020-08-23T09:51:50Z</time>
      </trkpt>
      <trkpt lat="41.909378" lon="0.198063">
        <ele>270.008</ele>
        <time>2020-08-23T09:51:51Z</time>
      </trkpt>
      <trkpt lat="41.909425" lon="0.198035">
        <ele>269.938</ele>
        <time>2020-08-23T09:51:52Z</time>
      </trkpt>
      <trkpt lat="41.909470" lon="0.198002">
        <ele>269.798</ele>
        <time>2020-08-23T09:51:53Z</time>
      </trkpt>
      <trkpt lat="41.909523" lon="0.197931">
        <ele>269.316</ele>
        <time>2020-08-23T09:51:55Z</time>
      </trkpt>
      <trkpt lat="41.909479" lon="0.197879">
        <ele>269.058</ele>
        <time>2020-08-23T09:51:57Z</time>
      </trkpt>
      <trkpt lat="41.909425" lon="0.197820">
        <ele>268.919</ele>
        <time>2020-08-23T09:51:59Z</time>
      </trkpt>
      <trkpt lat="41.909371" lon="0.197761">
        <ele>268.930</ele>
        <time>2020-08-23T09:52:01Z</time>
      </trkpt>
      <trkpt lat="41.909330" lon="0.197734">
        <ele>269.036</ele>
        <time>2020-08-23T09:52:03Z</time>
      </trkpt>
      <trkpt lat="41.909295" lon="0.197693">
        <ele>268.775</ele>
        <time>2020-08-23T09:53:06Z</time>
      </trkpt>
      <trkpt lat="41.909291" lon="0.197777">
        <ele>269.187</ele>
        <time>2020-08-23T09:53:14Z</time>
      </trkpt>
      <trkpt lat="41.909306" lon="0.197855">
        <ele>269.442</ele>
        <time>2020-08-23T09:53:16Z</time>
      </trkpt>
      <trkpt lat="41.909329" lon="0.197939">
        <ele>269.626</ele>
        <time>2020-08-23T09:53:18Z</time>
      </trkpt>
      <trkpt lat="41.909379" lon="0.198008">
        <ele>269.708</ele>
        <time>2020-08-23T09:53:20Z</time>
      </trkpt>
      <trkpt lat="41.909463" lon="0.197986">
        <ele>269.623</ele>
        <time>2020-08-23T09:53:22Z</time>
      </trkpt>
      <trkpt lat="41.909503" lon="0.197945">
        <ele>269.483</ele>
        <time>2020-08-23T09:53:23Z</time>
      </trkpt>
      <trkpt lat="41.909532" lon="0.197891">
        <ele>269.281</ele>
        <time>2020-08-23T09:53:24Z</time>
      </trkpt>
      <trkpt lat="41.909563" lon="0.197834">
        <ele>269.043</ele>
        <time>2020-08-23T09:53:25Z</time>
      </trkpt>
      <trkpt lat="41.909599" lon="0.197778">
        <ele>268.984</ele>
        <time>2020-08-23T09:53:26Z</time>
      </trkpt>
      <trkpt lat="41.909640" lon="0.197727">
        <ele>268.855</ele>
        <time>2020-08-23T09:53:27Z</time>
      </trkpt>
      <trkpt lat="41.909690" lon="0.197679">
        <ele>268.721</ele>
        <time>2020-08-23T09:53:28Z</time>
      </trkpt>
      <trkpt lat="41.909742" lon="0.197632">
        <ele>268.630</ele>
        <time>2020-08-23T09:53:29Z</time>
      </trkpt>
      <trkpt lat="41.909798" lon="0.197587">
        <ele>268.488</ele>
        <time>2020-08-23T09:53:30Z</time>
      </trkpt>
      <trkpt lat="41.909857" lon="0.197543">
        <ele>268.224</ele>
        <time>2020-08-23T09:53:31Z</time>
      </trkpt>
      <trkpt lat="41.909914" lon="0.197504">
        <ele>268.026</ele>
        <time>2020-08-23T09:53:32Z</time>
      </trkpt>
      <trkpt lat="41.909970" lon="0.197459">
        <ele>267.708</ele>
        <time>2020-08-23T09:53:33Z</time>
      </trkpt>
      <trkpt lat="41.910029" lon="0.197407">
        <ele>267.333</ele>
        <time>2020-08-23T09:53:34Z</time>
      </trkpt>
      <trkpt lat="41.910087" lon="0.197345">
        <ele>266.983</ele>
        <time>2020-08-23T09:53:35Z</time>
      </trkpt>
      <trkpt lat="41.910149" lon="0.197287">
        <ele>266.691</ele>
        <time>2020-08-23T09:53:36Z</time>
      </trkpt>
      <trkpt lat="41.910213" lon="0.197229">
        <ele>266.243</ele>
        <time>2020-08-23T09:53:37Z</time>
      </trkpt>
      <trkpt lat="41.910277" lon="0.197171">
        <ele>265.944</ele>
        <time>2020-08-23T09:53:38Z</time>
      </trkpt>
      <trkpt lat="41.910340" lon="0.197112">
        <ele>265.355</ele>
        <time>2020-08-23T09:53:39Z</time>
      </trkpt>
      <trkpt lat="41.910400" lon="0.197051">
        <ele>265.021</ele>
        <time>2020-08-23T09:53:40Z</time>
      </trkpt>
      <trkpt lat="41.910462" lon="0.196983">
        <ele>264.830</ele>
        <time>2020-08-23T09:53:41Z</time>
      </trkpt>
      <trkpt lat="41.910529" lon="0.196920">
        <ele>264.637</ele>
        <time>2020-08-23T09:53:42Z</time>
      </trkpt>
      <trkpt lat="41.910597" lon="0.196859">
        <ele>264.449</ele>
        <time>2020-08-23T09:53:43Z</time>
      </trkpt>
      <trkpt lat="41.910668" lon="0.196794">
        <ele>264.213</ele>
        <time>2020-08-23T09:53:44Z</time>
      </trkpt>
      <trkpt lat="41.910742" lon="0.196730">
        <ele>264.008</ele>
        <time>2020-08-23T09:53:45Z</time>
      </trkpt>
      <trkpt lat="41.910813" lon="0.196669">
        <ele>263.798</ele>
        <time>2020-08-23T09:53:46Z</time>
      </trkpt>
      <trkpt lat="41.910886" lon="0.196609">
        <ele>263.478</ele>
        <time>2020-08-23T09:53:47Z</time>
      </trkpt>
      <trkpt lat="41.910956" lon="0.196551">
        <ele>263.296</ele>
        <time>2020-08-23T09:53:48Z</time>
      </trkpt>
      <trkpt lat="41.911019" lon="0.196485">
        <ele>263.068</ele>
        <time>2020-08-23T09:53:49Z</time>
      </trkpt>
      <trkpt lat="41.911085" lon="0.196427">
        <ele>262.839</ele>
        <time>2020-08-23T09:53:50Z</time>
      </trkpt>
      <trkpt lat="41.911151" lon="0.196376">
        <ele>262.610</ele>
        <time>2020-08-23T09:53:51Z</time>
      </trkpt>
      <trkpt lat="41.911214" lon="0.196326">
        <ele>262.576</ele>
        <time>2020-08-23T09:53:52Z</time>
      </trkpt>
      <trkpt lat="41.911277" lon="0.196278">
        <ele>262.585</ele>
        <time>2020-08-23T09:53:53Z</time>
      </trkpt>
      <trkpt lat="41.911340" lon="0.196230">
        <ele>262.571</ele>
        <time>2020-08-23T09:53:54Z</time>
      </trkpt>
      <trkpt lat="41.911401" lon="0.196187">
        <ele>262.441</ele>
        <time>2020-08-23T09:53:55Z</time>
      </trkpt>
      <trkpt lat="41.911458" lon="0.196142">
        <ele>262.415</ele>
        <time>2020-08-23T09:53:56Z</time>
      </trkpt>
      <trkpt lat="41.911518" lon="0.196096">
        <ele>262.308</ele>
        <time>2020-08-23T09:53:57Z</time>
      </trkpt>
      <trkpt lat="41.911579" lon="0.196048">
        <ele>262.192</ele>
        <time>2020-08-23T09:53:58Z</time>
      </trkpt>
      <trkpt lat="41.911638" lon="0.196003">
        <ele>261.992</ele>
        <time>2020-08-23T09:53:59Z</time>
      </trkpt>
      <trkpt lat="41.911698" lon="0.195960">
        <ele>261.850</ele>
        <time>2020-08-23T09:54:00Z</time>
      </trkpt>
      <trkpt lat="41.911757" lon="0.195911">
        <ele>261.712</ele>
        <time>2020-08-23T09:54:01Z</time>
      </trkpt>
      <trkpt lat="41.911818" lon="0.195862">
        <ele>261.713</ele>
        <time>2020-08-23T09:54:02Z</time>
      </trkpt>
      <trkpt lat="41.911879" lon="0.195814">
        <ele>261.794</ele>
        <time>2020-08-23T09:54:03Z</time>
      </trkpt>
      <trkpt lat="41.911944" lon="0.195768">
        <ele>261.660</ele>
        <time>2020-08-23T09:54:04Z</time>
      </trkpt>
      <trkpt lat="41.912009" lon="0.195719">
        <ele>261.679</ele>
        <time>2020-08-23T09:54:05Z</time>
      </trkpt>
      <trkpt lat="41.912073" lon="0.195665">
        <ele>261.573</ele>
        <time>2020-08-23T09:54:06Z</time>
      </trkpt>
      <trkpt lat="41.912133" lon="0.195610">
        <ele>261.485</ele>
        <time>2020-08-23T09:54:07Z</time>
      </trkpt>
      <trkpt lat="41.912191" lon="0.195563">
        <ele>261.413</ele>
        <time>2020-08-23T09:54:08Z</time>
      </trkpt>
      <trkpt lat="41.912249" lon="0.195529">
        <ele>261.408</ele>
        <time>2020-08-23T09:54:09Z</time>
      </trkpt>
      <trkpt lat="41.912314" lon="0.195520">
        <ele>261.422</ele>
        <time>2020-08-23T09:54:10Z</time>
      </trkpt>
      <trkpt lat="41.912374" lon="0.195511">
        <ele>261.472</ele>
        <time>2020-08-23T09:54:11Z</time>
      </trkpt>
      <trkpt lat="41.912420" lon="0.195469">
        <ele>261.360</ele>
        <time>2020-08-23T09:54:12Z</time>
      </trkpt>
      <trkpt lat="41.912445" lon="0.195397">
        <ele>261.242</ele>
        <time>2020-08-23T09:54:13Z</time>
      </trkpt>
      <trkpt lat="41.912454" lon="0.195312">
        <ele>261.183</ele>
        <time>2020-08-23T09:54:14Z</time>
      </trkpt>
      <trkpt lat="41.912415" lon="0.195229">
        <ele>261.044</ele>
        <time>2020-08-23T09:54:15Z</time>
      </trkpt>
      <trkpt lat="41.912405" lon="0.195151">
        <ele>260.960</ele>
        <time>2020-08-23T09:54:16Z</time>
      </trkpt>
      <trkpt lat="41.912400" lon="0.195073">
        <ele>260.999</ele>
        <time>2020-08-23T09:54:17Z</time>
      </trkpt>
      <trkpt lat="41.912412" lon="0.194987">
        <ele>260.926</ele>
        <time>2020-08-23T09:54:18Z</time>
      </trkpt>
      <trkpt lat="41.912427" lon="0.194898">
        <ele>260.947</ele>
        <time>2020-08-23T09:54:19Z</time>
      </trkpt>
      <trkpt lat="41.912452" lon="0.194814">
        <ele>260.911</ele>
        <time>2020-08-23T09:54:20Z</time>
      </trkpt>
      <trkpt lat="41.912480" lon="0.194735">
        <ele>260.908</ele>
        <time>2020-08-23T09:54:21Z</time>
      </trkpt>
      <trkpt lat="41.912505" lon="0.194655">
        <ele>260.817</ele>
        <time>2020-08-23T09:54:22Z</time>
      </trkpt>
      <trkpt lat="41.912520" lon="0.194572">
        <ele>260.767</ele>
        <time>2020-08-23T09:54:23Z</time>
      </trkpt>
      <trkpt lat="41.912538" lon="0.194494">
        <ele>260.795</ele>
        <time>2020-08-23T09:54:24Z</time>
      </trkpt>
      <trkpt lat="41.912555" lon="0.194412">
        <ele>260.737</ele>
        <time>2020-08-23T09:54:25Z</time>
      </trkpt>
      <trkpt lat="41.912572" lon="0.194332">
        <ele>260.638</ele>
        <time>2020-08-23T09:54:26Z</time>
      </trkpt>
      <trkpt lat="41.912588" lon="0.194253">
        <ele>260.579</ele>
        <time>2020-08-23T09:54:27Z</time>
      </trkpt>
      <trkpt lat="41.912605" lon="0.194175">
        <ele>260.475</ele>
        <time>2020-08-23T09:54:28Z</time>
      </trkpt>
      <trkpt lat="41.912608" lon="0.194090">
        <ele>260.314</ele>
        <time>2020-08-23T09:54:29Z</time>
      </trkpt>
      <trkpt lat="41.912621" lon="0.194006">
        <ele>260.269</ele>
        <time>2020-08-23T09:54:30Z</time>
      </trkpt>
      <trkpt lat="41.912638" lon="0.193925">
        <ele>260.104</ele>
        <time>2020-08-23T09:54:31Z</time>
      </trkpt>
      <trkpt lat="41.912655" lon="0.193845">
        <ele>260.024</ele>
        <time>2020-08-23T09:54:32Z</time>
      </trkpt>
      <trkpt lat="41.912671" lon="0.193765">
        <ele>259.908</ele>
        <time>2020-08-23T09:54:33Z</time>
      </trkpt>
      <trkpt lat="41.912687" lon="0.193686">
        <ele>259.841</ele>
        <time>2020-08-23T09:54:34Z</time>
      </trkpt>
      <trkpt lat="41.912704" lon="0.193605">
        <ele>259.791</ele>
        <time>2020-08-23T09:54:35Z</time>
      </trkpt>
      <trkpt lat="41.912725" lon="0.193524">
        <ele>259.629</ele>
        <time>2020-08-23T09:54:36Z</time>
      </trkpt>
      <trkpt lat="41.912739" lon="0.193443">
        <ele>259.661</ele>
        <time>2020-08-23T09:54:37Z</time>
      </trkpt>
      <trkpt lat="41.912752" lon="0.193367">
        <ele>259.662</ele>
        <time>2020-08-23T09:54:38Z</time>
      </trkpt>
      <trkpt lat="41.912766" lon="0.193293">
        <ele>259.593</ele>
        <time>2020-08-23T09:54:39Z</time>
      </trkpt>
      <trkpt lat="41.912779" lon="0.193218">
        <ele>259.469</ele>
        <time>2020-08-23T09:54:40Z</time>
      </trkpt>
      <trkpt lat="41.912792" lon="0.193142">
        <ele>259.378</ele>
        <time>2020-08-23T09:54:41Z</time>
      </trkpt>
      <trkpt lat="41.912808" lon="0.193068">
        <ele>259.279</ele>
        <time>2020-08-23T09:54:42Z</time>
      </trkpt>
      <trkpt lat="41.912817" lon="0.192990">
        <ele>259.105</ele>
        <time>2020-08-23T09:54:43Z</time>
      </trkpt>
      <trkpt lat="41.912831" lon="0.192914">
        <ele>259.025</ele>
        <time>2020-08-23T09:54:44Z</time>
      </trkpt>
      <trkpt lat="41.912844" lon="0.192840">
        <ele>258.908</ele>
        <time>2020-08-23T09:54:45Z</time>
      </trkpt>
      <trkpt lat="41.912857" lon="0.192768">
        <ele>258.882</ele>
        <time>2020-08-23T09:54:46Z</time>
      </trkpt>
      <trkpt lat="41.912873" lon="0.192687">
        <ele>258.752</ele>
        <time>2020-08-23T09:54:47Z</time>
      </trkpt>
      <trkpt lat="41.912888" lon="0.192608">
        <ele>258.710</ele>
        <time>2020-08-23T09:54:48Z</time>
      </trkpt>
      <trkpt lat="41.912901" lon="0.192529">
        <ele>258.672</ele>
        <time>2020-08-23T09:54:49Z</time>
      </trkpt>
      <trkpt lat="41.912917" lon="0.192448">
        <ele>258.583</ele>
        <time>2020-08-23T09:54:50Z</time>
      </trkpt>
      <trkpt lat="41.912935" lon="0.192372">
        <ele>258.524</ele>
        <time>2020-08-23T09:54:51Z</time>
      </trkpt>
      <trkpt lat="41.912951" lon="0.192293">
        <ele>258.580</ele>
        <time>2020-08-23T09:54:52Z</time>
      </trkpt>
      <trkpt lat="41.912969" lon="0.192212">
        <ele>258.549</ele>
        <time>2020-08-23T09:54:53Z</time>
      </trkpt>
      <trkpt lat="41.912983" lon="0.192135">
        <ele>258.517</ele>
        <time>2020-08-23T09:54:54Z</time>
      </trkpt>
      <trkpt lat="41.912992" lon="0.192059">
        <ele>258.587</ele>
        <time>2020-08-23T09:54:55Z</time>
      </trkpt>
      <trkpt lat="41.913001" lon="0.191982">
        <ele>258.515</ele>
        <time>2020-08-23T09:54:56Z</time>
      </trkpt>
      <trkpt lat="41.913016" lon="0.191906">
        <ele>258.608</ele>
        <time>2020-08-23T09:54:57Z</time>
      </trkpt>
      <trkpt lat="41.913032" lon="0.191831">
        <ele>258.756</ele>
        <time>2020-08-23T09:54:58Z</time>
      </trkpt>
      <trkpt lat="41.913048" lon="0.191759">
        <ele>258.776</ele>
        <time>2020-08-23T09:54:59Z</time>
      </trkpt>
      <trkpt lat="41.913068" lon="0.191690">
        <ele>258.864</ele>
        <time>2020-08-23T09:55:00Z</time>
      </trkpt>
      <trkpt lat="41.913093" lon="0.191625">
        <ele>258.966</ele>
        <time>2020-08-23T09:55:01Z</time>
      </trkpt>
      <trkpt lat="41.913114" lon="0.191554">
        <ele>258.937</ele>
        <time>2020-08-23T09:55:02Z</time>
      </trkpt>
      <trkpt lat="41.913142" lon="0.191488">
        <ele>258.928</ele>
        <time>2020-08-23T09:55:03Z</time>
      </trkpt>
      <trkpt lat="41.913166" lon="0.191420">
        <ele>258.964</ele>
        <time>2020-08-23T09:55:04Z</time>
      </trkpt>
      <trkpt lat="41.913173" lon="0.191348">
        <ele>258.933</ele>
        <time>2020-08-23T09:55:05Z</time>
      </trkpt>
      <trkpt lat="41.913169" lon="0.191274">
        <ele>258.943</ele>
        <time>2020-08-23T09:55:06Z</time>
      </trkpt>
      <trkpt lat="41.913138" lon="0.191217">
        <ele>258.964</ele>
        <time>2020-08-23T09:55:07Z</time>
      </trkpt>
      <trkpt lat="41.913085" lon="0.191202">
        <ele>259.010</ele>
        <time>2020-08-23T09:55:08Z</time>
      </trkpt>
      <trkpt lat="41.913026" lon="0.191201">
        <ele>259.008</ele>
        <time>2020-08-23T09:55:09Z</time>
      </trkpt>
      <trkpt lat="41.912972" lon="0.191229">
        <ele>259.069</ele>
        <time>2020-08-23T09:55:10Z</time>
      </trkpt>
      <trkpt lat="41.912928" lon="0.191266">
        <ele>258.949</ele>
        <time>2020-08-23T09:55:11Z</time>
      </trkpt>
      <trkpt lat="41.912889" lon="0.191364">
        <ele>258.677</ele>
        <time>2020-08-23T09:55:13Z</time>
      </trkpt>
      <trkpt lat="41.912893" lon="0.191472">
        <ele>258.569</ele>
        <time>2020-08-23T09:55:15Z</time>
      </trkpt>
      <trkpt lat="41.912928" lon="0.191581">
        <ele>258.590</ele>
        <time>2020-08-23T09:55:17Z</time>
      </trkpt>
      <trkpt lat="41.912965" lon="0.191691">
        <ele>258.691</ele>
        <time>2020-08-23T09:55:19Z</time>
      </trkpt>
      <trkpt lat="41.912974" lon="0.191752">
        <ele>258.737</ele>
        <time>2020-08-23T09:55:20Z</time>
      </trkpt>
      <trkpt lat="41.912961" lon="0.191816">
        <ele>258.856</ele>
        <time>2020-08-23T09:55:21Z</time>
      </trkpt>
      <trkpt lat="41.912939" lon="0.191880">
        <ele>258.872</ele>
        <time>2020-08-23T09:55:22Z</time>
      </trkpt>
      <trkpt lat="41.912918" lon="0.191942">
        <ele>258.813</ele>
        <time>2020-08-23T09:55:23Z</time>
      </trkpt>
      <trkpt lat="41.916595" lon="0.186163">
        <ele>254.114</ele>
        <time>2020-08-23T10:01:29Z</time>
      </trkpt>
      <trkpt lat="41.916624" lon="0.186099">
        <ele>254.008</ele>
        <time>2020-08-23T10:01:46Z</time>
      </trkpt>
      <trkpt lat="41.916660" lon="0.186026">
        <ele>254.122</ele>
        <time>2020-08-23T10:01:49Z</time>
      </trkpt>
      <trkpt lat="41.916690" lon="0.185976">
        <ele>254.232</ele>
        <time>2020-08-23T10:01:51Z</time>
      </trkpt>
      <trkpt lat="41.916726" lon="0.185931">
        <ele>254.270</ele>
        <time>2020-08-23T10:01:53Z</time>
      </trkpt>
      <trkpt lat="41.916763" lon="0.185880">
        <ele>254.272</ele>
        <time>2020-08-23T10:01:55Z</time>
      </trkpt>
      <trkpt lat="41.916815" lon="0.185796">
        <ele>254.263</ele>
        <time>2020-08-23T10:01:57Z</time>
      </trkpt>
      <trkpt lat="41.916846" lon="0.185751">
        <ele>254.234</ele>
        <time>2020-08-23T10:01:58Z</time>
      </trkpt>
      <trkpt lat="41.916877" lon="0.185700">
        <ele>254.240</ele>
        <time>2020-08-23T10:01:59Z</time>
      </trkpt>
      <trkpt lat="41.916916" lon="0.185657">
        <ele>254.299</ele>
        <time>2020-08-23T10:02:00Z</time>
      </trkpt>
      <trkpt lat="41.916944" lon="0.185607">
        <ele>254.213</ele>
        <time>2020-08-23T10:02:01Z</time>
      </trkpt>
      <trkpt lat="41.916978" lon="0.185557">
        <ele>254.143</ele>
        <time>2020-08-23T10:02:02Z</time>
      </trkpt>
      <trkpt lat="41.917009" lon="0.185509">
        <ele>254.007</ele>
        <time>2020-08-23T10:02:03Z</time>
      </trkpt>
      <trkpt lat="41.917038" lon="0.185460">
        <ele>253.908</ele>
        <time>2020-08-23T10:02:04Z</time>
      </trkpt>
      <trkpt lat="41.917069" lon="0.185414">
        <ele>253.986</ele>
        <time>2020-08-23T10:02:05Z</time>
      </trkpt>
      <trkpt lat="41.917100" lon="0.185369">
        <ele>253.916</ele>
        <time>2020-08-23T10:02:06Z</time>
      </trkpt>
      <trkpt lat="41.917136" lon="0.185329">
        <ele>254.094</ele>
        <time>2020-08-23T10:02:07Z</time>
      </trkpt>
      <trkpt lat="41.917188" lon="0.185233">
        <ele>254.036</ele>
        <time>2020-08-23T10:02:09Z</time>
      </trkpt>
      <trkpt lat="41.917217" lon="0.185178">
        <ele>253.837</ele>
        <time>2020-08-23T10:02:10Z</time>
      </trkpt>
      <trkpt lat="41.917247" lon="0.185119">
        <ele>253.668</ele>
        <time>2020-08-23T10:02:11Z</time>
      </trkpt>
      <trkpt lat="41.917272" lon="0.185066">
        <ele>253.554</ele>
        <time>2020-08-23T10:02:12Z</time>
      </trkpt>
      <trkpt lat="41.917294" lon="0.185011">
        <ele>253.583</ele>
        <time>2020-08-23T10:02:13Z</time>
      </trkpt>
      <trkpt lat="41.917318" lon="0.184954">
        <ele>253.598</ele>
        <time>2020-08-23T10:02:14Z</time>
      </trkpt>
      <trkpt lat="41.917342" lon="0.184889">
        <ele>253.615</ele>
        <time>2020-08-23T10:02:15Z</time>
      </trkpt>
      <trkpt lat="41.917363" lon="0.184824">
        <ele>253.626</ele>
        <time>2020-08-23T10:02:16Z</time>
      </trkpt>
      <trkpt lat="41.917381" lon="0.184759">
        <ele>253.508</ele>
        <time>2020-08-23T10:02:17Z</time>
      </trkpt>
      <trkpt lat="41.917403" lon="0.184693">
        <ele>253.434</ele>
        <time>2020-08-23T10:02:18Z</time>
      </trkpt>
      <trkpt lat="41.917422" lon="0.184623">
        <ele>253.344</ele>
        <time>2020-08-23T10:02:19Z</time>
      </trkpt>
      <trkpt lat="41.917422" lon="0.184548">
        <ele>253.232</ele>
        <time>2020-08-23T10:02:20Z</time>
      </trkpt>
      <trkpt lat="41.917436" lon="0.184477">
        <ele>253.154</ele>
        <time>2020-08-23T10:02:21Z</time>
      </trkpt>
      <trkpt lat="41.917456" lon="0.184394">
        <ele>253.145</ele>
        <time>2020-08-23T10:02:22Z</time>
      </trkpt>
      <trkpt lat="41.917473" lon="0.184319">
        <ele>253.166</ele>
        <time>2020-08-23T10:02:23Z</time>
      </trkpt>
      <trkpt lat="41.917492" lon="0.184245">
        <ele>253.172</ele>
        <time>2020-08-23T10:02:24Z</time>
      </trkpt>
      <trkpt lat="41.917513" lon="0.184169">
        <ele>253.171</ele>
        <time>2020-08-23T10:02:25Z</time>
      </trkpt>
      <trkpt lat="41.917522" lon="0.184084">
        <ele>253.187</ele>
        <time>2020-08-23T10:02:26Z</time>
      </trkpt>
      <trkpt lat="41.917542" lon="0.184005">
        <ele>253.042</ele>
        <time>2020-08-23T10:02:27Z</time>
      </trkpt>
      <trkpt lat="41.917561" lon="0.183920">
        <ele>253.026</ele>
        <time>2020-08-23T10:02:28Z</time>
      </trkpt>
      <trkpt lat="41.917579" lon="0.183842">
        <ele>252.908</ele>
        <time>2020-08-23T10:02:29Z</time>
      </trkpt>
      <trkpt lat="41.917599" lon="0.183763">
        <ele>252.863</ele>
        <time>2020-08-23T10:02:30Z</time>
      </trkpt>
      <trkpt lat="41.917619" lon="0.183683">
        <ele>252.773</ele>
        <time>2020-08-23T10:02:31Z</time>
      </trkpt>
      <trkpt lat="41.917638" lon="0.183600">
        <ele>252.761</ele>
        <time>2020-08-23T10:02:32Z</time>
      </trkpt>
      <trkpt lat="41.917642" lon="0.183509">
        <ele>252.773</ele>
        <time>2020-08-23T10:02:33Z</time>
      </trkpt>
      <trkpt lat="41.917660" lon="0.183426">
        <ele>252.794</ele>
        <time>2020-08-23T10:02:34Z</time>
      </trkpt>
      <trkpt lat="41.917676" lon="0.183344">
        <ele>252.795</ele>
        <time>2020-08-23T10:02:35Z</time>
      </trkpt>
      <trkpt lat="41.917692" lon="0.183259">
        <ele>252.791</ele>
        <time>2020-08-23T10:02:36Z</time>
      </trkpt>
      <trkpt lat="41.917707" lon="0.183175">
        <ele>252.760</ele>
        <time>2020-08-23T10:02:37Z</time>
      </trkpt>
      <trkpt lat="41.917724" lon="0.183095">
        <ele>252.777</ele>
        <time>2020-08-23T10:02:38Z</time>
      </trkpt>
      <trkpt lat="41.917735" lon="0.183012">
        <ele>252.761</ele>
        <time>2020-08-23T10:02:39Z</time>
      </trkpt>
      <trkpt lat="41.917753" lon="0.182934">
        <ele>252.727</ele>
        <time>2020-08-23T10:02:40Z</time>
      </trkpt>
      <trkpt lat="41.917772" lon="0.182855">
        <ele>252.608</ele>
        <time>2020-08-23T10:02:41Z</time>
      </trkpt>
      <trkpt lat="41.917790" lon="0.182775">
        <ele>252.622</ele>
        <time>2020-08-23T10:02:42Z</time>
      </trkpt>
      <trkpt lat="41.917807" lon="0.182692">
        <ele>252.652</ele>
        <time>2020-08-23T10:02:43Z</time>
      </trkpt>
      <trkpt lat="41.917823" lon="0.182613">
        <ele>252.620</ele>
        <time>2020-08-23T10:02:44Z</time>
      </trkpt>
      <trkpt lat="41.917832" lon="0.182534">
        <ele>252.682</ele>
        <time>2020-08-23T10:02:45Z</time>
      </trkpt>
      <trkpt lat="41.917851" lon="0.182459">
        <ele>252.753</ele>
        <time>2020-08-23T10:02:46Z</time>
      </trkpt>
      <trkpt lat="41.917871" lon="0.182388">
        <ele>252.784</ele>
        <time>2020-08-23T10:02:47Z</time>
      </trkpt>
      <trkpt lat="41.917890" lon="0.182318">
        <ele>252.710</ele>
        <time>2020-08-23T10:02:48Z</time>
      </trkpt>
      <trkpt lat="41.917904" lon="0.182247">
        <ele>252.619</ele>
        <time>2020-08-23T10:02:49Z</time>
      </trkpt>
      <trkpt lat="41.917919" lon="0.182176">
        <ele>252.532</ele>
        <time>2020-08-23T10:02:50Z</time>
      </trkpt>
      <trkpt lat="41.917911" lon="0.182089">
        <ele>252.492</ele>
        <time>2020-08-23T10:02:51Z</time>
      </trkpt>
      <trkpt lat="41.917929" lon="0.182009">
        <ele>252.311</ele>
        <time>2020-08-23T10:02:52Z</time>
      </trkpt>
      <trkpt lat="41.917946" lon="0.181930">
        <ele>252.208</ele>
        <time>2020-08-23T10:02:53Z</time>
      </trkpt>
      <trkpt lat="41.917968" lon="0.181849">
        <ele>252.168</ele>
        <time>2020-08-23T10:02:54Z</time>
      </trkpt>
      <trkpt lat="41.917993" lon="0.181771">
        <ele>252.118</ele>
        <time>2020-08-23T10:02:55Z</time>
      </trkpt>
      <trkpt lat="41.918015" lon="0.181688">
        <ele>252.086</ele>
        <time>2020-08-23T10:02:56Z</time>
      </trkpt>
      <trkpt lat="41.918036" lon="0.181613">
        <ele>251.968</ele>
        <time>2020-08-23T10:02:57Z</time>
      </trkpt>
      <trkpt lat="41.918059" lon="0.181528">
        <ele>251.879</ele>
        <time>2020-08-23T10:02:58Z</time>
      </trkpt>
      <trkpt lat="41.918081" lon="0.181442">
        <ele>251.780</ele>
        <time>2020-08-23T10:02:59Z</time>
      </trkpt>
      <trkpt lat="41.918103" lon="0.181362">
        <ele>251.696</ele>
        <time>2020-08-23T10:03:00Z</time>
      </trkpt>
      <trkpt lat="41.918118" lon="0.181292">
        <ele>251.635</ele>
        <time>2020-08-23T10:03:01Z</time>
      </trkpt>
      <trkpt lat="41.918136" lon="0.181224">
        <ele>251.631</ele>
        <time>2020-08-23T10:03:02Z</time>
      </trkpt>
      <trkpt lat="41.918157" lon="0.181157">
        <ele>251.661</ele>
        <time>2020-08-23T10:03:03Z</time>
      </trkpt>
      <trkpt lat="41.918183" lon="0.181092">
        <ele>251.607</ele>
        <time>2020-08-23T10:03:04Z</time>
      </trkpt>
      <trkpt lat="41.918204" lon="0.181020">
        <ele>251.608</ele>
        <time>2020-08-23T10:03:05Z</time>
      </trkpt>
      <trkpt lat="41.918224" lon="0.180945">
        <ele>251.698</ele>
        <time>2020-08-23T10:03:06Z</time>
      </trkpt>
      <trkpt lat="41.918237" lon="0.180868">
        <ele>251.548</ele>
        <time>2020-08-23T10:03:07Z</time>
      </trkpt>
      <trkpt lat="41.918253" lon="0.180794">
        <ele>251.546</ele>
        <time>2020-08-23T10:03:08Z</time>
      </trkpt>
      <trkpt lat="41.918271" lon="0.180725">
        <ele>251.578</ele>
        <time>2020-08-23T10:03:09Z</time>
      </trkpt>
      <trkpt lat="41.918284" lon="0.180659">
        <ele>251.439</ele>
        <time>2020-08-23T10:03:10Z</time>
      </trkpt>
      <trkpt lat="41.918293" lon="0.180594">
        <ele>251.330</ele>
        <time>2020-08-23T10:03:11Z</time>
      </trkpt>
      <trkpt lat="41.918305" lon="0.180527">
        <ele>251.256</ele>
        <time>2020-08-23T10:03:12Z</time>
      </trkpt>
      <trkpt lat="41.918315" lon="0.180454">
        <ele>251.165</ele>
        <time>2020-08-23T10:03:13Z</time>
      </trkpt>
      <trkpt lat="41.918332" lon="0.180378">
        <ele>251.093</ele>
        <time>2020-08-23T10:03:14Z</time>
      </trkpt>
      <trkpt lat="41.918350" lon="0.180310">
        <ele>250.965</ele>
        <time>2020-08-23T10:03:15Z</time>
      </trkpt>
      <trkpt lat="41.918369" lon="0.180245">
        <ele>250.721</ele>
        <time>2020-08-23T10:03:16Z</time>
      </trkpt>
      <trkpt lat="41.918384" lon="0.180178">
        <ele>250.608</ele>
        <time>2020-08-23T10:03:17Z</time>
      </trkpt>
      <trkpt lat="41.918404" lon="0.180105">
        <ele>250.544</ele>
        <time>2020-08-23T10:03:18Z</time>
      </trkpt>
      <trkpt lat="41.918418" lon="0.180029">
        <ele>250.464</ele>
        <time>2020-08-23T10:03:19Z</time>
      </trkpt>
      <trkpt lat="41.918426" lon="0.179948">
        <ele>250.362</ele>
        <time>2020-08-23T10:03:20Z</time>
      </trkpt>
      <trkpt lat="41.918437" lon="0.179868">
        <ele>250.284</ele>
        <time>2020-08-23T10:03:21Z</time>
      </trkpt>
      <trkpt lat="41.918452" lon="0.179788">
        <ele>250.065</ele>
        <time>2020-08-23T10:03:22Z</time>
      </trkpt>
      <trkpt lat="41.918463" lon="0.179707">
        <ele>249.946</ele>
        <time>2020-08-23T10:03:23Z</time>
      </trkpt>
      <trkpt lat="41.918474" lon="0.179626">
        <ele>249.932</ele>
        <time>2020-08-23T10:03:24Z</time>
      </trkpt>
      <trkpt lat="41.918483" lon="0.179546">
        <ele>249.961</ele>
        <time>2020-08-23T10:03:25Z</time>
      </trkpt>
      <trkpt lat="41.918493" lon="0.179470">
        <ele>249.969</ele>
        <time>2020-08-23T10:03:26Z</time>
      </trkpt>
      <trkpt lat="41.918511" lon="0.179394">
        <ele>249.904</ele>
        <time>2020-08-23T10:03:27Z</time>
      </trkpt>
      <trkpt lat="41.918519" lon="0.179323">
        <ele>249.924</ele>
        <time>2020-08-23T10:03:28Z</time>
      </trkpt>
      <trkpt lat="41.918520" lon="0.179249">
        <ele>249.908</ele>
        <time>2020-08-23T10:03:29Z</time>
      </trkpt>
      <trkpt lat="41.918525" lon="0.179165">
        <ele>249.831</ele>
        <time>2020-08-23T10:03:30Z</time>
      </trkpt>
      <trkpt lat="41.918530" lon="0.179083">
        <ele>249.821</ele>
        <time>2020-08-23T10:03:31Z</time>
      </trkpt>
      <trkpt lat="41.918531" lon="0.179006">
        <ele>249.869</ele>
        <time>2020-08-23T10:03:32Z</time>
      </trkpt>
      <trkpt lat="41.918533" lon="0.178926">
        <ele>249.871</ele>
        <time>2020-08-23T10:03:33Z</time>
      </trkpt>
      <trkpt lat="41.918534" lon="0.178846">
        <ele>249.882</ele>
        <time>2020-08-23T10:03:34Z</time>
      </trkpt>
      <trkpt lat="41.918531" lon="0.178769">
        <ele>249.853</ele>
        <time>2020-08-23T10:03:35Z</time>
      </trkpt>
      <trkpt lat="41.918533" lon="0.178690">
        <ele>249.859</ele>
        <time>2020-08-23T10:03:36Z</time>
      </trkpt>
      <trkpt lat="41.918529" lon="0.178606">
        <ele>249.898</ele>
        <time>2020-08-23T10:03:37Z</time>
      </trkpt>
      <trkpt lat="41.918522" lon="0.178520">
        <ele>249.883</ele>
        <time>2020-08-23T10:03:38Z</time>
      </trkpt>
      <trkpt lat="41.918513" lon="0.178441">
        <ele>249.825</ele>
        <time>2020-08-23T10:03:39Z</time>
      </trkpt>
      <trkpt lat="41.918508" lon="0.178362">
        <ele>249.817</ele>
        <time>2020-08-23T10:03:40Z</time>
      </trkpt>
      <trkpt lat="41.918505" lon="0.178282">
        <ele>249.808</ele>
        <time>2020-08-23T10:03:41Z</time>
      </trkpt>
      <trkpt lat="41.918498" lon="0.178201">
        <ele>249.843</ele>
        <time>2020-08-23T10:03:42Z</time>
      </trkpt>
      <trkpt lat="41.918492" lon="0.178122">
        <ele>249.843</ele>
        <time>2020-08-23T10:03:43Z</time>
      </trkpt>
      <trkpt lat="41.918488" lon="0.178041">
        <ele>249.881</ele>
        <time>2020-08-23T10:03:44Z</time>
      </trkpt>
      <trkpt lat="41.918484" lon="0.177957">
        <ele>249.883</ele>
        <time>2020-08-23T10:03:45Z</time>
      </trkpt>
      <trkpt lat="41.918479" lon="0.177872">
        <ele>249.854</ele>
        <time>2020-08-23T10:03:46Z</time>
      </trkpt>
      <trkpt lat="41.918474" lon="0.177790">
        <ele>249.715</ele>
        <time>2020-08-23T10:03:47Z</time>
      </trkpt>
      <trkpt lat="41.918472" lon="0.177708">
        <ele>249.631</ele>
        <time>2020-08-23T10:03:48Z</time>
      </trkpt>
      <trkpt lat="41.918467" lon="0.177621">
        <ele>249.610</ele>
        <time>2020-08-23T10:03:49Z</time>
      </trkpt>
      <trkpt lat="41.918463" lon="0.177533">
        <ele>249.694</ele>
        <time>2020-08-23T10:03:50Z</time>
      </trkpt>
      <trkpt lat="41.918460" lon="0.177447">
        <ele>249.657</ele>
        <time>2020-08-23T10:03:51Z</time>
      </trkpt>
      <trkpt lat="41.918458" lon="0.177363">
        <ele>249.622</ele>
        <time>2020-08-23T10:03:52Z</time>
      </trkpt>
      <trkpt lat="41.918457" lon="0.177280">
        <ele>249.608</ele>
        <time>2020-08-23T10:03:53Z</time>
      </trkpt>
      <trkpt lat="41.918454" lon="0.177194">
        <ele>249.684</ele>
        <time>2020-08-23T10:03:54Z</time>
      </trkpt>
      <trkpt lat="41.918450" lon="0.177112">
        <ele>249.634</ele>
        <time>2020-08-23T10:03:55Z</time>
      </trkpt>
      <trkpt lat="41.918446" lon="0.177028">
        <ele>249.662</ele>
        <time>2020-08-23T10:03:56Z</time>
      </trkpt>
      <trkpt lat="41.918442" lon="0.176939">
        <ele>249.684</ele>
        <time>2020-08-23T10:03:57Z</time>
      </trkpt>
      <trkpt lat="41.918439" lon="0.176852">
        <ele>249.595</ele>
        <time>2020-08-23T10:03:58Z</time>
      </trkpt>
      <trkpt lat="41.918434" lon="0.176767">
        <ele>249.556</ele>
        <time>2020-08-23T10:03:59Z</time>
      </trkpt>
      <trkpt lat="41.918430" lon="0.176682">
        <ele>249.582</ele>
        <time>2020-08-23T10:04:00Z</time>
      </trkpt>
      <trkpt lat="41.918427" lon="0.176598">
        <ele>249.521</ele>
        <time>2020-08-23T10:04:01Z</time>
      </trkpt>
      <trkpt lat="41.918424" lon="0.176515">
        <ele>249.555</ele>
        <time>2020-08-23T10:04:02Z</time>
      </trkpt>
      <trkpt lat="41.918422" lon="0.176432">
        <ele>249.507</ele>
        <time>2020-08-23T10:04:03Z</time>
      </trkpt>
      <trkpt lat="41.918420" lon="0.176347">
        <ele>249.517</ele>
        <time>2020-08-23T10:04:04Z</time>
      </trkpt>
      <trkpt lat="41.918415" lon="0.176262">
        <ele>249.508</ele>
        <time>2020-08-23T10:04:05Z</time>
      </trkpt>
      <trkpt lat="41.918412" lon="0.176181">
        <ele>249.530</ele>
        <time>2020-08-23T10:04:06Z</time>
      </trkpt>
      <trkpt lat="41.918410" lon="0.176099">
        <ele>249.570</ele>
        <time>2020-08-23T10:04:07Z</time>
      </trkpt>
      <trkpt lat="41.918404" lon="0.176015">
        <ele>249.558</ele>
        <time>2020-08-23T10:04:08Z</time>
      </trkpt>
      <trkpt lat="41.918401" lon="0.175932">
        <ele>249.510</ele>
        <time>2020-08-23T10:04:09Z</time>
      </trkpt>
      <trkpt lat="41.918397" lon="0.175851">
        <ele>249.581</ele>
        <time>2020-08-23T10:04:10Z</time>
      </trkpt>
      <trkpt lat="41.918397" lon="0.175767">
        <ele>249.562</ele>
        <time>2020-08-23T10:04:11Z</time>
      </trkpt>
      <trkpt lat="41.918399" lon="0.175683">
        <ele>249.568</ele>
        <time>2020-08-23T10:04:12Z</time>
      </trkpt>
      <trkpt lat="41.918398" lon="0.175599">
        <ele>249.597</ele>
        <time>2020-08-23T10:04:13Z</time>
      </trkpt>
      <trkpt lat="41.918396" lon="0.175514">
        <ele>249.559</ele>
        <time>2020-08-23T10:04:14Z</time>
      </trkpt>
      <trkpt lat="41.918395" lon="0.175429">
        <ele>249.503</ele>
        <time>2020-08-23T10:04:15Z</time>
      </trkpt>
      <trkpt lat="41.918393" lon="0.175346">
        <ele>249.523</ele>
        <time>2020-08-23T10:04:16Z</time>
      </trkpt>
      <trkpt lat="41.918391" lon="0.175263">
        <ele>249.508</ele>
        <time>2020-08-23T10:04:17Z</time>
      </trkpt>
      <trkpt lat="41.918390" lon="0.175181">
        <ele>249.570</ele>
        <time>2020-08-23T10:04:18Z</time>
      </trkpt>
      <trkpt lat="41.918390" lon="0.175097">
        <ele>249.540</ele>
        <time>2020-08-23T10:04:19Z</time>
      </trkpt>
      <trkpt lat="41.918389" lon="0.175014">
        <ele>249.598</ele>
        <time>2020-08-23T10:04:20Z</time>
      </trkpt>
      <trkpt lat="41.918386" lon="0.174931">
        <ele>249.570</ele>
        <time>2020-08-23T10:04:21Z</time>
      </trkpt>
      <trkpt lat="41.918382" lon="0.174846">
        <ele>249.511</ele>
        <time>2020-08-23T10:04:22Z</time>
      </trkpt>
      <trkpt lat="41.918380" lon="0.174760">
        <ele>249.552</ele>
        <time>2020-08-23T10:04:23Z</time>
      </trkpt>
      <trkpt lat="41.918378" lon="0.174676">
        <ele>249.558</ele>
        <time>2020-08-23T10:04:24Z</time>
      </trkpt>
      <trkpt lat="41.918377" lon="0.174593">
        <ele>249.547</ele>
        <time>2020-08-23T10:04:25Z</time>
      </trkpt>
      <trkpt lat="41.918374" lon="0.174509">
        <ele>249.554</ele>
        <time>2020-08-23T10:04:26Z</time>
      </trkpt>
      <trkpt lat="41.918371" lon="0.174423">
        <ele>249.556</ele>
        <time>2020-08-23T10:04:27Z</time>
      </trkpt>
      <trkpt lat="41.918370" lon="0.174339">
        <ele>249.511</ele>
        <time>2020-08-23T10:04:28Z</time>
      </trkpt>
      <trkpt lat="41.918371" lon="0.174254">
        <ele>249.508</ele>
        <time>2020-08-23T10:04:29Z</time>
      </trkpt>
      <trkpt lat="41.918371" lon="0.174165">
        <ele>249.560</ele>
        <time>2020-08-23T10:04:30Z</time>
      </trkpt>
      <trkpt lat="41.918366" lon="0.174073">
        <ele>249.540</ele>
        <time>2020-08-23T10:04:31Z</time>
      </trkpt>
      <trkpt lat="41.918361" lon="0.173984">
        <ele>249.578</ele>
        <time>2020-08-23T10:04:32Z</time>
      </trkpt>
      <trkpt lat="41.918360" lon="0.173893">
        <ele>249.470</ele>
        <time>2020-08-23T10:04:33Z</time>
      </trkpt>
      <trkpt lat="41.918360" lon="0.173803">
        <ele>249.331</ele>
        <time>2020-08-23T10:04:34Z</time>
      </trkpt>
      <trkpt lat="41.918358" lon="0.173711">
        <ele>249.252</ele>
        <time>2020-08-23T10:04:35Z</time>
      </trkpt>
      <trkpt lat="41.918356" lon="0.173615">
        <ele>249.148</ele>
        <time>2020-08-23T10:04:36Z</time>
      </trkpt>
      <trkpt lat="41.918356" lon="0.173520">
        <ele>249.047</ele>
        <time>2020-08-23T10:04:37Z</time>
      </trkpt>
      <trkpt lat="41.918359" lon="0.173425">
        <ele>248.939</ele>
        <time>2020-08-23T10:04:38Z</time>
      </trkpt>
      <trkpt lat="41.918362" lon="0.173326">
        <ele>248.701</ele>
        <time>2020-08-23T10:04:39Z</time>
      </trkpt>
      <trkpt lat="41.918367" lon="0.173225">
        <ele>248.421</ele>
        <time>2020-08-23T10:04:40Z</time>
      </trkpt>
      <trkpt lat="41.918375" lon="0.173118">
        <ele>248.108</ele>
        <time>2020-08-23T10:04:41Z</time>
      </trkpt>
      <trkpt lat="41.918385" lon="0.173012">
        <ele>247.848</ele>
        <time>2020-08-23T10:04:42Z</time>
      </trkpt>
      <trkpt lat="41.918394" lon="0.172906">
        <ele>247.538</ele>
        <time>2020-08-23T10:04:43Z</time>
      </trkpt>
      <trkpt lat="41.918407" lon="0.172797">
        <ele>247.286</ele>
        <time>2020-08-23T10:04:44Z</time>
      </trkpt>
      <trkpt lat="41.918421" lon="0.172689">
        <ele>246.998</ele>
        <time>2020-08-23T10:04:45Z</time>
      </trkpt>
      <trkpt lat="41.918434" lon="0.172582">
        <ele>246.689</ele>
        <time>2020-08-23T10:04:46Z</time>
      </trkpt>
      <trkpt lat="41.918444" lon="0.172480">
        <ele>246.280</ele>
        <time>2020-08-23T10:04:47Z</time>
      </trkpt>
      <trkpt lat="41.918455" lon="0.172377">
        <ele>245.476</ele>
        <time>2020-08-23T10:04:48Z</time>
      </trkpt>
      <trkpt lat="41.918472" lon="0.172278">
        <ele>245.075</ele>
        <time>2020-08-23T10:04:49Z</time>
      </trkpt>
      <trkpt lat="41.918487" lon="0.172177">
        <ele>244.755</ele>
        <time>2020-08-23T10:04:50Z</time>
      </trkpt>
      <trkpt lat="41.918507" lon="0.172079">
        <ele>244.407</ele>
        <time>2020-08-23T10:04:51Z</time>
      </trkpt>
      <trkpt lat="41.918528" lon="0.171986">
        <ele>244.217</ele>
        <time>2020-08-23T10:04:52Z</time>
      </trkpt>
      <trkpt lat="41.918546" lon="0.171900">
        <ele>244.008</ele>
        <time>2020-08-23T10:04:53Z</time>
      </trkpt>
      <trkpt lat="41.918552" lon="0.171812">
        <ele>243.890</ele>
        <time>2020-08-23T10:04:54Z</time>
      </trkpt>
      <trkpt lat="41.918543" lon="0.171727">
        <ele>243.690</ele>
        <time>2020-08-23T10:04:55Z</time>
      </trkpt>
      <trkpt lat="41.918527" lon="0.171653">
        <ele>243.518</ele>
        <time>2020-08-23T10:04:56Z</time>
      </trkpt>
      <trkpt lat="41.918500" lon="0.171590">
        <ele>243.420</ele>
        <time>2020-08-23T10:04:57Z</time>
      </trkpt>
      <trkpt lat="41.918464" lon="0.171535">
        <ele>243.461</ele>
        <time>2020-08-23T10:04:58Z</time>
      </trkpt>
      <trkpt lat="41.918424" lon="0.171476">
        <ele>243.562</ele>
        <time>2020-08-23T10:04:59Z</time>
      </trkpt>
      <trkpt lat="41.918386" lon="0.171417">
        <ele>243.738</ele>
        <time>2020-08-23T10:05:00Z</time>
      </trkpt>
      <trkpt lat="41.918358" lon="0.171353">
        <ele>243.977</ele>
        <time>2020-08-23T10:05:01Z</time>
      </trkpt>
      <trkpt lat="41.918338" lon="0.171283">
        <ele>244.187</ele>
        <time>2020-08-23T10:05:02Z</time>
      </trkpt>
      <trkpt lat="41.918321" lon="0.171215">
        <ele>244.342</ele>
        <time>2020-08-23T10:05:03Z</time>
      </trkpt>
      <trkpt lat="41.918314" lon="0.171148">
        <ele>244.526</ele>
        <time>2020-08-23T10:05:04Z</time>
      </trkpt>
      <trkpt lat="41.918307" lon="0.171076">
        <ele>244.608</ele>
        <time>2020-08-23T10:05:05Z</time>
      </trkpt>
      <trkpt lat="41.918299" lon="0.171001">
        <ele>244.793</ele>
        <time>2020-08-23T10:05:06Z</time>
      </trkpt>
      <trkpt lat="41.918293" lon="0.170933">
        <ele>244.753</ele>
        <time>2020-08-23T10:05:07Z</time>
      </trkpt>
      <trkpt lat="41.918284" lon="0.170868">
        <ele>244.731</ele>
        <time>2020-08-23T10:05:08Z</time>
      </trkpt>
      <trkpt lat="41.918275" lon="0.170808">
        <ele>244.773</ele>
        <time>2020-08-23T10:05:09Z</time>
      </trkpt>
      <trkpt lat="41.918274" lon="0.170712">
        <ele>244.534</ele>
        <time>2020-08-23T10:05:11Z</time>
      </trkpt>
      <trkpt lat="41.918297" lon="0.170659">
        <ele>244.275</ele>
        <time>2020-08-23T10:05:13Z</time>
      </trkpt>
      <trkpt lat="41.918349" lon="0.170614">
        <ele>243.821</ele>
        <time>2020-08-23T10:05:15Z</time>
      </trkpt>
      <trkpt lat="41.918418" lon="0.170573">
        <ele>243.510</ele>
        <time>2020-08-23T10:05:17Z</time>
      </trkpt>
      <trkpt lat="41.918482" lon="0.170528">
        <ele>243.371</ele>
        <time>2020-08-23T10:05:19Z</time>
      </trkpt>
      <trkpt lat="41.918535" lon="0.170492">
        <ele>243.241</ele>
        <time>2020-08-23T10:05:21Z</time>
      </trkpt>
      <trkpt lat="41.918584" lon="0.170453">
        <ele>243.215</ele>
        <time>2020-08-23T10:05:23Z</time>
      </trkpt>
      <trkpt lat="41.918641" lon="0.170426">
        <ele>243.208</ele>
        <time>2020-08-23T10:05:25Z</time>
      </trkpt>
      <trkpt lat="41.918724" lon="0.170413">
        <ele>243.342</ele>
        <time>2020-08-23T10:05:27Z</time>
      </trkpt>
      <trkpt lat="41.918807" lon="0.170389">
        <ele>243.472</ele>
        <time>2020-08-23T10:05:29Z</time>
      </trkpt>
      <trkpt lat="41.918883" lon="0.170321">
        <ele>243.570</ele>
        <time>2020-08-23T10:05:31Z</time>
      </trkpt>
      <trkpt lat="41.918955" lon="0.170273">
        <ele>243.652</ele>
        <time>2020-08-23T10:05:33Z</time>
      </trkpt>
      <trkpt lat="41.919026" lon="0.170234">
        <ele>243.763</ele>
        <time>2020-08-23T10:05:35Z</time>
      </trkpt>
      <trkpt lat="41.919086" lon="0.170194">
        <ele>243.814</ele>
        <time>2020-08-23T10:05:37Z</time>
      </trkpt>
      <trkpt lat="41.919147" lon="0.170153">
        <ele>244.010</ele>
        <time>2020-08-23T10:05:39Z</time>
      </trkpt>
      <trkpt lat="41.919217" lon="0.170118">
        <ele>244.159</ele>
        <time>2020-08-23T10:05:41Z</time>
      </trkpt>
      <trkpt lat="41.919289" lon="0.170110">
        <ele>244.282</ele>
        <time>2020-08-23T10:05:43Z</time>
      </trkpt>
      <trkpt lat="41.919348" lon="0.170082">
        <ele>244.243</ele>
        <time>2020-08-23T10:05:45Z</time>
      </trkpt>
      <trkpt lat="41.919394" lon="0.170021">
        <ele>244.217</ele>
        <time>2020-08-23T10:05:47Z</time>
      </trkpt>
      <trkpt lat="41.919431" lon="0.169942">
        <ele>244.408</ele>
        <time>2020-08-23T10:05:49Z</time>
      </trkpt>
      <trkpt lat="41.919466" lon="0.169875">
        <ele>244.733</ele>
        <time>2020-08-23T10:05:51Z</time>
      </trkpt>
      <trkpt lat="41.919479" lon="0.169806">
        <ele>244.943</ele>
        <time>2020-08-23T10:05:53Z</time>
      </trkpt>
      <trkpt lat="41.919468" lon="0.169712">
        <ele>244.961</ele>
        <time>2020-08-23T10:05:56Z</time>
      </trkpt>
      <trkpt lat="41.919435" lon="0.169655">
        <ele>245.083</ele>
        <time>2020-08-23T10:05:58Z</time>
      </trkpt>
      <trkpt lat="41.919411" lon="0.169590">
        <ele>245.244</ele>
        <time>2020-08-23T10:06:00Z</time>
      </trkpt>
      <trkpt lat="41.919386" lon="0.169515">
        <ele>245.535</ele>
        <time>2020-08-23T10:06:02Z</time>
      </trkpt>
      <trkpt lat="41.919365" lon="0.169456">
        <ele>245.711</ele>
        <time>2020-08-23T10:06:04Z</time>
      </trkpt>
      <trkpt lat="41.919346" lon="0.169396">
        <ele>245.870</ele>
        <time>2020-08-23T10:06:06Z</time>
      </trkpt>
      <trkpt lat="41.919316" lon="0.169324">
        <ele>246.013</ele>
        <time>2020-08-23T10:06:08Z</time>
      </trkpt>
      <trkpt lat="41.919276" lon="0.169256">
        <ele>246.343</ele>
        <time>2020-08-23T10:06:10Z</time>
      </trkpt>
      <trkpt lat="41.919239" lon="0.169192">
        <ele>246.607</ele>
        <time>2020-08-23T10:06:12Z</time>
      </trkpt>
      <trkpt lat="41.919203" lon="0.169128">
        <ele>246.908</ele>
        <time>2020-08-23T10:06:14Z</time>
      </trkpt>
      <trkpt lat="41.919171" lon="0.169068">
        <ele>247.216</ele>
        <time>2020-08-23T10:06:16Z</time>
      </trkpt>
      <trkpt lat="41.919136" lon="0.168999">
        <ele>247.436</ele>
        <time>2020-08-23T10:06:18Z</time>
      </trkpt>
      <trkpt lat="41.919107" lon="0.168917">
        <ele>247.624</ele>
        <time>2020-08-23T10:06:20Z</time>
      </trkpt>
      <trkpt lat="41.919071" lon="0.168827">
        <ele>248.086</ele>
        <time>2020-08-23T10:06:22Z</time>
      </trkpt>
      <trkpt lat="41.919036" lon="0.168727">
        <ele>248.427</ele>
        <time>2020-08-23T10:06:24Z</time>
      </trkpt>
      <trkpt lat="41.919031" lon="0.168641">
        <ele>248.718</ele>
        <time>2020-08-23T10:06:26Z</time>
      </trkpt>
      <trkpt lat="41.919037" lon="0.168576">
        <ele>249.214</ele>
        <time>2020-08-23T10:06:28Z</time>
      </trkpt>
      <trkpt lat="41.919044" lon="0.168510">
        <ele>249.753</ele>
        <time>2020-08-23T10:06:30Z</time>
      </trkpt>
      <trkpt lat="41.919074" lon="0.168464">
        <ele>250.255</ele>
        <time>2020-08-23T10:06:32Z</time>
      </trkpt>
      <trkpt lat="41.919106" lon="0.168406">
        <ele>250.807</ele>
        <time>2020-08-23T10:06:35Z</time>
      </trkpt>
      <trkpt lat="41.919135" lon="0.168346">
        <ele>251.317</ele>
        <time>2020-08-23T10:06:38Z</time>
      </trkpt>
      <trkpt lat="41.919170" lon="0.168292">
        <ele>251.708</ele>
        <time>2020-08-23T10:06:41Z</time>
      </trkpt>
      <trkpt lat="41.919223" lon="0.168243">
        <ele>252.210</ele>
        <time>2020-08-23T10:06:44Z</time>
      </trkpt>
      <trkpt lat="41.919273" lon="0.168231">
        <ele>252.810</ele>
        <time>2020-08-23T10:06:46Z</time>
      </trkpt>
      <trkpt lat="41.919318" lon="0.168199">
        <ele>253.218</ele>
        <time>2020-08-23T10:06:48Z</time>
      </trkpt>
      <trkpt lat="41.919358" lon="0.168161">
        <ele>253.550</ele>
        <time>2020-08-23T10:06:50Z</time>
      </trkpt>
      <trkpt lat="41.919405" lon="0.168106">
        <ele>254.251</ele>
        <time>2020-08-23T10:06:53Z</time>
      </trkpt>
      <trkpt lat="41.919440" lon="0.168064">
        <ele>254.782</ele>
        <time>2020-08-23T10:06:55Z</time>
      </trkpt>
      <trkpt lat="41.919476" lon="0.167993">
        <ele>255.368</ele>
        <time>2020-08-23T10:06:58Z</time>
      </trkpt>
      <trkpt lat="41.919490" lon="0.167935">
        <ele>255.697</ele>
        <time>2020-08-23T10:07:00Z</time>
      </trkpt>
      <trkpt lat="41.919519" lon="0.167862">
        <ele>255.919</ele>
        <time>2020-08-23T10:07:03Z</time>
      </trkpt>
      <trkpt lat="41.919561" lon="0.167802">
        <ele>256.209</ele>
        <time>2020-08-23T10:07:06Z</time>
      </trkpt>
      <trkpt lat="41.919595" lon="0.167735">
        <ele>256.619</ele>
        <time>2020-08-23T10:07:09Z</time>
      </trkpt>
      <trkpt lat="41.919627" lon="0.167681">
        <ele>257.008</ele>
        <time>2020-08-23T10:07:12Z</time>
      </trkpt>
      <trkpt lat="41.919655" lon="0.167618">
        <ele>257.476</ele>
        <time>2020-08-23T10:07:15Z</time>
      </trkpt>
      <trkpt lat="41.919673" lon="0.167551">
        <ele>257.936</ele>
        <time>2020-08-23T10:07:18Z</time>
      </trkpt>
      <trkpt lat="41.919702" lon="0.167496">
        <ele>258.424</ele>
        <time>2020-08-23T10:07:21Z</time>
      </trkpt>
      <trkpt lat="41.919754" lon="0.167439">
        <ele>258.966</ele>
        <time>2020-08-23T10:07:24Z</time>
      </trkpt>
      <trkpt lat="41.919798" lon="0.167386">
        <ele>259.467</ele>
        <time>2020-08-23T10:07:27Z</time>
      </trkpt>
      <trkpt lat="41.919833" lon="0.167336">
        <ele>259.898</ele>
        <time>2020-08-23T10:07:30Z</time>
      </trkpt>
      <trkpt lat="41.919862" lon="0.167284">
        <ele>260.634</ele>
        <time>2020-08-23T10:07:33Z</time>
      </trkpt>
      <trkpt lat="41.919896" lon="0.167230">
        <ele>261.123</ele>
        <time>2020-08-23T10:07:36Z</time>
      </trkpt>
      <trkpt lat="41.919936" lon="0.167187">
        <ele>261.644</ele>
        <time>2020-08-23T10:07:39Z</time>
      </trkpt>
      <trkpt lat="41.919989" lon="0.167127">
        <ele>261.905</ele>
        <time>2020-08-23T10:07:42Z</time>
      </trkpt>
      <trkpt lat="41.920038" lon="0.167070">
        <ele>262.115</ele>
        <time>2020-08-23T10:07:45Z</time>
      </trkpt>
      <trkpt lat="41.920068" lon="0.167006">
        <ele>262.408</ele>
        <time>2020-08-23T10:07:48Z</time>
      </trkpt>
      <trkpt lat="41.920110" lon="0.166943">
        <ele>262.779</ele>
        <time>2020-08-23T10:07:51Z</time>
      </trkpt>
      <trkpt lat="41.920140" lon="0.166884">
        <ele>263.089</ele>
        <time>2020-08-23T10:07:54Z</time>
      </trkpt>
      <trkpt lat="41.920175" lon="0.166818">
        <ele>263.577</ele>
        <time>2020-08-23T10:07:57Z</time>
      </trkpt>
      <trkpt lat="41.920210" lon="0.166746">
        <ele>264.019</ele>
        <time>2020-08-23T10:08:00Z</time>
      </trkpt>
      <trkpt lat="41.920244" lon="0.166677">
        <ele>264.510</ele>
        <time>2020-08-23T10:08:03Z</time>
      </trkpt>
      <trkpt lat="41.920275" lon="0.166632">
        <ele>264.811</ele>
        <time>2020-08-23T10:08:05Z</time>
      </trkpt>
      <trkpt lat="41.920298" lon="0.166577">
        <ele>265.017</ele>
        <time>2020-08-23T10:08:07Z</time>
      </trkpt>
      <trkpt lat="41.920335" lon="0.166510">
        <ele>265.336</ele>
        <time>2020-08-23T10:08:10Z</time>
      </trkpt>
      <trkpt lat="41.920357" lon="0.166447">
        <ele>265.679</ele>
        <time>2020-08-23T10:08:13Z</time>
      </trkpt>
      <trkpt lat="41.920378" lon="0.166380">
        <ele>266.005</ele>
        <time>2020-08-23T10:08:16Z</time>
      </trkpt>
      <trkpt lat="41.920396" lon="0.166307">
        <ele>266.325</ele>
        <time>2020-08-23T10:08:19Z</time>
      </trkpt>
      <trkpt lat="41.920406" lon="0.166245">
        <ele>266.608</ele>
        <time>2020-08-23T10:08:21Z</time>
      </trkpt>
      <trkpt lat="41.920420" lon="0.166172">
        <ele>267.112</ele>
        <time>2020-08-23T10:08:24Z</time>
      </trkpt>
      <trkpt lat="41.920420" lon="0.166085">
        <ele>267.722</ele>
        <time>2020-08-23T10:08:27Z</time>
      </trkpt>
      <trkpt lat="41.920422" lon="0.166000">
        <ele>268.330</ele>
        <time>2020-08-23T10:08:30Z</time>
      </trkpt>
      <trkpt lat="41.920435" lon="0.165929">
        <ele>268.862</ele>
        <time>2020-08-23T10:08:33Z</time>
      </trkpt>
      <trkpt lat="41.920467" lon="0.165865">
        <ele>269.573</ele>
        <time>2020-08-23T10:08:37Z</time>
      </trkpt>
      <trkpt lat="41.920490" lon="0.165804">
        <ele>269.964</ele>
        <time>2020-08-23T10:08:40Z</time>
      </trkpt>
      <trkpt lat="41.920496" lon="0.165729">
        <ele>270.570</ele>
        <time>2020-08-23T10:08:43Z</time>
      </trkpt>
      <trkpt lat="41.920498" lon="0.165652">
        <ele>271.019</ele>
        <time>2020-08-23T10:08:46Z</time>
      </trkpt>
      <trkpt lat="41.920493" lon="0.165586">
        <ele>271.433</ele>
        <time>2020-08-23T10:08:49Z</time>
      </trkpt>
      <trkpt lat="41.920496" lon="0.165524">
        <ele>271.923</ele>
        <time>2020-08-23T10:08:52Z</time>
      </trkpt>
      <trkpt lat="41.920495" lon="0.165435">
        <ele>272.415</ele>
        <time>2020-08-23T10:08:55Z</time>
      </trkpt>
      <trkpt lat="41.920500" lon="0.165367">
        <ele>272.808</ele>
        <time>2020-08-23T10:08:58Z</time>
      </trkpt>
      <trkpt lat="41.920505" lon="0.165304">
        <ele>273.238</ele>
        <time>2020-08-23T10:09:01Z</time>
      </trkpt>
      <trkpt lat="41.920498" lon="0.165228">
        <ele>273.658</ele>
        <time>2020-08-23T10:09:04Z</time>
      </trkpt>
      <trkpt lat="41.920489" lon="0.165159">
        <ele>274.186</ele>
        <time>2020-08-23T10:09:07Z</time>
      </trkpt>
      <trkpt lat="41.920487" lon="0.165084">
        <ele>274.798</ele>
        <time>2020-08-23T10:09:11Z</time>
      </trkpt>
      <trkpt lat="41.920480" lon="0.165023">
        <ele>275.159</ele>
        <time>2020-08-23T10:09:14Z</time>
      </trkpt>
      <trkpt lat="41.920473" lon="0.164940">
        <ele>275.550</ele>
        <time>2020-08-23T10:09:17Z</time>
      </trkpt>
      <trkpt lat="41.920471" lon="0.164866">
        <ele>275.886</ele>
        <time>2020-08-23T10:09:21Z</time>
      </trkpt>
      <trkpt lat="41.920463" lon="0.164800">
        <ele>276.035</ele>
        <time>2020-08-23T10:09:23Z</time>
      </trkpt>
      <trkpt lat="41.920441" lon="0.164732">
        <ele>276.243</ele>
        <time>2020-08-23T10:09:25Z</time>
      </trkpt>
      <trkpt lat="41.920421" lon="0.164667">
        <ele>276.464</ele>
        <time>2020-08-23T10:09:27Z</time>
      </trkpt>
      <trkpt lat="41.920415" lon="0.164601">
        <ele>276.710</ele>
        <time>2020-08-23T10:09:29Z</time>
      </trkpt>
      <trkpt lat="41.920415" lon="0.164516">
        <ele>277.008</ele>
        <time>2020-08-23T10:09:32Z</time>
      </trkpt>
      <trkpt lat="41.920420" lon="0.164444">
        <ele>277.269</ele>
        <time>2020-08-23T10:09:34Z</time>
      </trkpt>
      <trkpt lat="41.920422" lon="0.164354">
        <ele>277.559</ele>
        <time>2020-08-23T10:09:37Z</time>
      </trkpt>
      <trkpt lat="41.920425" lon="0.164291">
        <ele>277.767</ele>
        <time>2020-08-23T10:09:39Z</time>
      </trkpt>
      <trkpt lat="41.920437" lon="0.164207">
        <ele>278.199</ele>
        <time>2020-08-23T10:09:42Z</time>
      </trkpt>
      <trkpt lat="41.920460" lon="0.164136">
        <ele>278.470</ele>
        <time>2020-08-23T10:09:45Z</time>
      </trkpt>
      <trkpt lat="41.920473" lon="0.164056">
        <ele>278.641</ele>
        <time>2020-08-23T10:09:48Z</time>
      </trkpt>
      <trkpt lat="41.920474" lon="0.163972">
        <ele>278.817</ele>
        <time>2020-08-23T10:09:51Z</time>
      </trkpt>
      <trkpt lat="41.920463" lon="0.163892">
        <ele>279.246</ele>
        <time>2020-08-23T10:09:54Z</time>
      </trkpt>
      <trkpt lat="41.920441" lon="0.163809">
        <ele>279.665</ele>
        <time>2020-08-23T10:09:57Z</time>
      </trkpt>
      <trkpt lat="41.920410" lon="0.163757">
        <ele>280.068</ele>
        <time>2020-08-23T10:09:59Z</time>
      </trkpt>
      <trkpt lat="41.920369" lon="0.163696">
        <ele>280.614</ele>
        <time>2020-08-23T10:10:02Z</time>
      </trkpt>
      <trkpt lat="41.920341" lon="0.163624">
        <ele>281.008</ele>
        <time>2020-08-23T10:10:05Z</time>
      </trkpt>
      <trkpt lat="41.920327" lon="0.163547">
        <ele>281.411</ele>
        <time>2020-08-23T10:10:08Z</time>
      </trkpt>
      <trkpt lat="41.920323" lon="0.163462">
        <ele>281.921</ele>
        <time>2020-08-23T10:10:11Z</time>
      </trkpt>
      <trkpt lat="41.920326" lon="0.163383">
        <ele>282.239</ele>
        <time>2020-08-23T10:10:14Z</time>
      </trkpt>
      <trkpt lat="41.920331" lon="0.163318">
        <ele>282.351</ele>
        <time>2020-08-23T10:10:16Z</time>
      </trkpt>
      <trkpt lat="41.920350" lon="0.163247">
        <ele>282.582</ele>
        <time>2020-08-23T10:10:19Z</time>
      </trkpt>
      <trkpt lat="41.920358" lon="0.163185">
        <ele>282.563</ele>
        <time>2020-08-23T10:10:23Z</time>
      </trkpt>
      <trkpt lat="41.920356" lon="0.163123">
        <ele>282.149</ele>
        <time>2020-08-23T10:11:41Z</time>
      </trkpt>
      <trkpt lat="41.920364" lon="0.163057">
        <ele>282.168</ele>
        <time>2020-08-23T10:11:43Z</time>
      </trkpt>
      <trkpt lat="41.920363" lon="0.162968">
        <ele>282.111</ele>
        <time>2020-08-23T10:11:46Z</time>
      </trkpt>
      <trkpt lat="41.920365" lon="0.162902">
        <ele>282.121</ele>
        <time>2020-08-23T10:11:48Z</time>
      </trkpt>
      <trkpt lat="41.920386" lon="0.162830">
        <ele>282.503</ele>
        <time>2020-08-23T10:11:51Z</time>
      </trkpt>
      <trkpt lat="41.920408" lon="0.162774">
        <ele>282.708</ele>
        <time>2020-08-23T10:11:53Z</time>
      </trkpt>
      <trkpt lat="41.920436" lon="0.162706">
        <ele>282.716</ele>
        <time>2020-08-23T10:11:55Z</time>
      </trkpt>
      <trkpt lat="41.920453" lon="0.162630">
        <ele>282.576</ele>
        <time>2020-08-23T10:11:57Z</time>
      </trkpt>
      <trkpt lat="41.920459" lon="0.162542">
        <ele>282.234</ele>
        <time>2020-08-23T10:11:59Z</time>
      </trkpt>
      <trkpt lat="41.920452" lon="0.162442">
        <ele>282.016</ele>
        <time>2020-08-23T10:12:01Z</time>
      </trkpt>
      <trkpt lat="41.920446" lon="0.162331">
        <ele>281.917</ele>
        <time>2020-08-23T10:12:03Z</time>
      </trkpt>
      <trkpt lat="41.920442" lon="0.162221">
        <ele>281.868</ele>
        <time>2020-08-23T10:12:05Z</time>
      </trkpt>
      <trkpt lat="41.920436" lon="0.162159">
        <ele>281.724</ele>
        <time>2020-08-23T10:12:06Z</time>
      </trkpt>
      <trkpt lat="41.920433" lon="0.162068">
        <ele>281.673</ele>
        <time>2020-08-23T10:12:08Z</time>
      </trkpt>
      <trkpt lat="41.920438" lon="0.161966">
        <ele>281.565</ele>
        <time>2020-08-23T10:12:10Z</time>
      </trkpt>
      <trkpt lat="41.920441" lon="0.161850">
        <ele>281.668</ele>
        <time>2020-08-23T10:12:12Z</time>
      </trkpt>
      <trkpt lat="41.920439" lon="0.161788">
        <ele>281.614</ele>
        <time>2020-08-23T10:12:13Z</time>
      </trkpt>
      <trkpt lat="41.920437" lon="0.161727">
        <ele>281.708</ele>
        <time>2020-08-23T10:12:14Z</time>
      </trkpt>
      <trkpt lat="41.920450" lon="0.161620">
        <ele>281.991</ele>
        <time>2020-08-23T10:12:16Z</time>
      </trkpt>
      <trkpt lat="41.920461" lon="0.161512">
        <ele>282.091</ele>
        <time>2020-08-23T10:12:18Z</time>
      </trkpt>
      <trkpt lat="41.920473" lon="0.161409">
        <ele>282.199</ele>
        <time>2020-08-23T10:12:20Z</time>
      </trkpt>
      <trkpt lat="41.920481" lon="0.161305">
        <ele>282.151</ele>
        <time>2020-08-23T10:12:22Z</time>
      </trkpt>
      <trkpt lat="41.920489" lon="0.161211">
        <ele>282.062</ele>
        <time>2020-08-23T10:12:24Z</time>
      </trkpt>
      <trkpt lat="41.920494" lon="0.161097">
        <ele>282.033</ele>
        <time>2020-08-23T10:12:26Z</time>
      </trkpt>
      <trkpt lat="41.920496" lon="0.160985">
        <ele>282.199</ele>
        <time>2020-08-23T10:12:28Z</time>
      </trkpt>
      <trkpt lat="41.920491" lon="0.160883">
        <ele>282.338</ele>
        <time>2020-08-23T10:12:30Z</time>
      </trkpt>
      <trkpt lat="41.920496" lon="0.160778">
        <ele>282.545</ele>
        <time>2020-08-23T10:12:32Z</time>
      </trkpt>
      <trkpt lat="41.920500" lon="0.160717">
        <ele>282.647</ele>
        <time>2020-08-23T10:12:33Z</time>
      </trkpt>
      <trkpt lat="41.920524" lon="0.160615">
        <ele>282.711</ele>
        <time>2020-08-23T10:12:35Z</time>
      </trkpt>
      <trkpt lat="41.920569" lon="0.160507">
        <ele>282.708</ele>
        <time>2020-08-23T10:12:37Z</time>
      </trkpt>
      <trkpt lat="41.920615" lon="0.160408">
        <ele>282.779</ele>
        <time>2020-08-23T10:12:39Z</time>
      </trkpt>
      <trkpt lat="41.920646" lon="0.160364">
        <ele>282.719</ele>
        <time>2020-08-23T10:12:40Z</time>
      </trkpt>
      <trkpt lat="41.920698" lon="0.160273">
        <ele>282.847</ele>
        <time>2020-08-23T10:12:42Z</time>
      </trkpt>
      <trkpt lat="41.920751" lon="0.160181">
        <ele>282.919</ele>
        <time>2020-08-23T10:12:44Z</time>
      </trkpt>
      <trkpt lat="41.920805" lon="0.160095">
        <ele>282.980</ele>
        <time>2020-08-23T10:12:46Z</time>
      </trkpt>
      <trkpt lat="41.920847" lon="0.160006">
        <ele>283.021</ele>
        <time>2020-08-23T10:12:48Z</time>
      </trkpt>
      <trkpt lat="41.920897" lon="0.159922">
        <ele>283.157</ele>
        <time>2020-08-23T10:12:50Z</time>
      </trkpt>
      <trkpt lat="41.920955" lon="0.159831">
        <ele>283.216</ele>
        <time>2020-08-23T10:12:52Z</time>
      </trkpt>
      <trkpt lat="41.920982" lon="0.159782">
        <ele>283.315</ele>
        <time>2020-08-23T10:12:53Z</time>
      </trkpt>
      <trkpt lat="41.921014" lon="0.159730">
        <ele>283.365</ele>
        <time>2020-08-23T10:12:54Z</time>
      </trkpt>
      <trkpt lat="41.921067" lon="0.159629">
        <ele>283.311</ele>
        <time>2020-08-23T10:12:56Z</time>
      </trkpt>
      <trkpt lat="41.921099" lon="0.159574">
        <ele>283.208</ele>
        <time>2020-08-23T10:12:57Z</time>
      </trkpt>
      <trkpt lat="41.921132" lon="0.159525">
        <ele>283.136</ele>
        <time>2020-08-23T10:12:58Z</time>
      </trkpt>
      <trkpt lat="41.921165" lon="0.159481">
        <ele>282.976</ele>
        <time>2020-08-23T10:12:59Z</time>
      </trkpt>
      <trkpt lat="41.921198" lon="0.159434">
        <ele>282.754</ele>
        <time>2020-08-23T10:13:00Z</time>
      </trkpt>
      <trkpt lat="41.921244" lon="0.159350">
        <ele>282.536</ele>
        <time>2020-08-23T10:13:02Z</time>
      </trkpt>
      <trkpt lat="41.921289" lon="0.159254">
        <ele>282.557</ele>
        <time>2020-08-23T10:13:04Z</time>
      </trkpt>
      <trkpt lat="41.921342" lon="0.159159">
        <ele>282.758</ele>
        <time>2020-08-23T10:13:06Z</time>
      </trkpt>
      <trkpt lat="41.921383" lon="0.159082">
        <ele>282.834</ele>
        <time>2020-08-23T10:13:08Z</time>
      </trkpt>
      <trkpt lat="41.921420" lon="0.159000">
        <ele>282.813</ele>
        <time>2020-08-23T10:13:10Z</time>
      </trkpt>
      <trkpt lat="41.921467" lon="0.158904">
        <ele>282.849</ele>
        <time>2020-08-23T10:13:12Z</time>
      </trkpt>
      <trkpt lat="41.921485" lon="0.158848">
        <ele>282.802</ele>
        <time>2020-08-23T10:13:13Z</time>
      </trkpt>
      <trkpt lat="41.921507" lon="0.158795">
        <ele>282.822</ele>
        <time>2020-08-23T10:13:14Z</time>
      </trkpt>
      <trkpt lat="41.921528" lon="0.158738">
        <ele>282.808</ele>
        <time>2020-08-23T10:13:15Z</time>
      </trkpt>
      <trkpt lat="41.921548" lon="0.158682">
        <ele>282.949</ele>
        <time>2020-08-23T10:13:16Z</time>
      </trkpt>
      <trkpt lat="41.921567" lon="0.158625">
        <ele>282.999</ele>
        <time>2020-08-23T10:13:17Z</time>
      </trkpt>
      <trkpt lat="41.921584" lon="0.158567">
        <ele>282.937</ele>
        <time>2020-08-23T10:13:18Z</time>
      </trkpt>
      <trkpt lat="41.921609" lon="0.158471">
        <ele>282.939</ele>
        <time>2020-08-23T10:13:20Z</time>
      </trkpt>
      <trkpt lat="41.921628" lon="0.158365">
        <ele>282.950</ele>
        <time>2020-08-23T10:13:22Z</time>
      </trkpt>
      <trkpt lat="41.921638" lon="0.158251">
        <ele>282.851</ele>
        <time>2020-08-23T10:13:24Z</time>
      </trkpt>
      <trkpt lat="41.921645" lon="0.158191">
        <ele>282.857</ele>
        <time>2020-08-23T10:13:25Z</time>
      </trkpt>
      <trkpt lat="41.921664" lon="0.158128">
        <ele>282.736</ele>
        <time>2020-08-23T10:13:26Z</time>
      </trkpt>
      <trkpt lat="41.921676" lon="0.158064">
        <ele>282.646</ele>
        <time>2020-08-23T10:13:27Z</time>
      </trkpt>
      <trkpt lat="41.921676" lon="0.158002">
        <ele>282.588</ele>
        <time>2020-08-23T10:13:28Z</time>
      </trkpt>
      <trkpt lat="41.921673" lon="0.157940">
        <ele>282.416</ele>
        <time>2020-08-23T10:13:29Z</time>
      </trkpt>
      <trkpt lat="41.921678" lon="0.157819">
        <ele>282.308</ele>
        <time>2020-08-23T10:13:31Z</time>
      </trkpt>
      <trkpt lat="41.921673" lon="0.157757">
        <ele>282.579</ele>
        <time>2020-08-23T10:13:32Z</time>
      </trkpt>
      <trkpt lat="41.921676" lon="0.157648">
        <ele>282.739</ele>
        <time>2020-08-23T10:13:34Z</time>
      </trkpt>
      <trkpt lat="41.921679" lon="0.157546">
        <ele>282.897</ele>
        <time>2020-08-23T10:13:36Z</time>
      </trkpt>
      <trkpt lat="41.921689" lon="0.157438">
        <ele>282.849</ele>
        <time>2020-08-23T10:13:38Z</time>
      </trkpt>
      <trkpt lat="41.921710" lon="0.157329">
        <ele>282.760</ele>
        <time>2020-08-23T10:13:40Z</time>
      </trkpt>
      <trkpt lat="41.921735" lon="0.157219">
        <ele>282.521</ele>
        <time>2020-08-23T10:13:42Z</time>
      </trkpt>
      <trkpt lat="41.921763" lon="0.157110">
        <ele>282.317</ele>
        <time>2020-08-23T10:13:44Z</time>
      </trkpt>
      <trkpt lat="41.921775" lon="0.157002">
        <ele>282.086</ele>
        <time>2020-08-23T10:13:46Z</time>
      </trkpt>
      <trkpt lat="41.921790" lon="0.156895">
        <ele>281.784</ele>
        <time>2020-08-23T10:13:48Z</time>
      </trkpt>
      <trkpt lat="41.921806" lon="0.156805">
        <ele>281.407</ele>
        <time>2020-08-23T10:13:50Z</time>
      </trkpt>
      <trkpt lat="41.921860" lon="0.156760">
        <ele>281.317</ele>
        <time>2020-08-23T10:13:52Z</time>
      </trkpt>
      <trkpt lat="41.921925" lon="0.156717">
        <ele>281.408</ele>
        <time>2020-08-23T10:13:54Z</time>
      </trkpt>
      <trkpt lat="41.921983" lon="0.156680">
        <ele>281.693</ele>
        <time>2020-08-23T10:13:56Z</time>
      </trkpt>
      <trkpt lat="41.922043" lon="0.156674">
        <ele>282.053</ele>
        <time>2020-08-23T10:13:59Z</time>
      </trkpt>
      <trkpt lat="41.922095" lon="0.156686">
        <ele>282.241</ele>
        <time>2020-08-23T10:14:02Z</time>
      </trkpt>
      <trkpt lat="41.922144" lon="0.156705">
        <ele>282.373</ele>
        <time>2020-08-23T10:14:11Z</time>
      </trkpt>
      <trkpt lat="41.922210" lon="0.156744">
        <ele>282.414</ele>
        <time>2020-08-23T10:14:14Z</time>
      </trkpt>
      <trkpt lat="41.922258" lon="0.156768">
        <ele>282.575</ele>
        <time>2020-08-23T10:14:16Z</time>
      </trkpt>
      <trkpt lat="41.922303" lon="0.156798">
        <ele>282.641</ele>
        <time>2020-08-23T10:14:18Z</time>
      </trkpt>
      <trkpt lat="41.922363" lon="0.156845">
        <ele>282.970</ele>
        <time>2020-08-23T10:14:21Z</time>
      </trkpt>
      <trkpt lat="41.922420" lon="0.156873">
        <ele>283.026</ele>
        <time>2020-08-23T10:14:23Z</time>
      </trkpt>
      <trkpt lat="41.922475" lon="0.156914">
        <ele>283.247</ele>
        <time>2020-08-23T10:14:25Z</time>
      </trkpt>
      <trkpt lat="41.922525" lon="0.156927">
        <ele>283.311</ele>
        <time>2020-08-23T10:14:27Z</time>
      </trkpt>
      <trkpt lat="41.922582" lon="0.156926">
        <ele>283.308</ele>
        <time>2020-08-23T10:14:30Z</time>
      </trkpt>
      <trkpt lat="41.922537" lon="0.156953">
        <ele>283.567</ele>
        <time>2020-08-23T10:15:03Z</time>
      </trkpt>
      <trkpt lat="41.922545" lon="0.156882">
        <ele>283.367</ele>
        <time>2020-08-23T10:15:37Z</time>
      </trkpt>
      <trkpt lat="41.922532" lon="0.156822">
        <ele>283.395</ele>
        <time>2020-08-23T10:15:39Z</time>
      </trkpt>
      <trkpt lat="41.922503" lon="0.156773">
        <ele>283.387</ele>
        <time>2020-08-23T10:15:41Z</time>
      </trkpt>
      <trkpt lat="41.922458" lon="0.156747">
        <ele>283.258</ele>
        <time>2020-08-23T10:15:43Z</time>
      </trkpt>
      <trkpt lat="41.922399" lon="0.156718">
        <ele>283.179</ele>
        <time>2020-08-23T10:15:45Z</time>
      </trkpt>
      <trkpt lat="41.922336" lon="0.156680">
        <ele>283.035</ele>
        <time>2020-08-23T10:15:47Z</time>
      </trkpt>
      <trkpt lat="41.922267" lon="0.156634">
        <ele>282.954</ele>
        <time>2020-08-23T10:15:49Z</time>
      </trkpt>
      <trkpt lat="41.922198" lon="0.156594">
        <ele>282.932</ele>
        <time>2020-08-23T10:15:51Z</time>
      </trkpt>
      <trkpt lat="41.922141" lon="0.156548">
        <ele>283.092</ele>
        <time>2020-08-23T10:15:53Z</time>
      </trkpt>
      <trkpt lat="41.922088" lon="0.156517">
        <ele>283.011</ele>
        <time>2020-08-23T10:15:55Z</time>
      </trkpt>
      <trkpt lat="41.922034" lon="0.156490">
        <ele>283.008</ele>
        <time>2020-08-23T10:15:57Z</time>
      </trkpt>
      <trkpt lat="41.921975" lon="0.156459">
        <ele>282.998</ele>
        <time>2020-08-23T10:15:59Z</time>
      </trkpt>
      <trkpt lat="41.921913" lon="0.156437">
        <ele>282.788</ele>
        <time>2020-08-23T10:16:02Z</time>
      </trkpt>
      <trkpt lat="41.921862" lon="0.156419">
        <ele>282.456</ele>
        <time>2020-08-23T10:16:04Z</time>
      </trkpt>
      <trkpt lat="41.921792" lon="0.156374">
        <ele>281.978</ele>
        <time>2020-08-23T10:16:06Z</time>
      </trkpt>
      <trkpt lat="41.921709" lon="0.156337">
        <ele>281.459</ele>
        <time>2020-08-23T10:16:08Z</time>
      </trkpt>
      <trkpt lat="41.921636" lon="0.156299">
        <ele>281.130</ele>
        <time>2020-08-23T10:16:10Z</time>
      </trkpt>
      <trkpt lat="41.921567" lon="0.156255">
        <ele>280.916</ele>
        <time>2020-08-23T10:16:12Z</time>
      </trkpt>
      <trkpt lat="41.921505" lon="0.156203">
        <ele>280.835</ele>
        <time>2020-08-23T10:16:14Z</time>
      </trkpt>
      <trkpt lat="41.921435" lon="0.156170">
        <ele>280.622</ele>
        <time>2020-08-23T10:16:16Z</time>
      </trkpt>
      <trkpt lat="41.921365" lon="0.156169">
        <ele>280.562</ele>
        <time>2020-08-23T10:16:18Z</time>
      </trkpt>
      <trkpt lat="41.921282" lon="0.156152">
        <ele>280.508</ele>
        <time>2020-08-23T10:16:20Z</time>
      </trkpt>
      <trkpt lat="41.921211" lon="0.156137">
        <ele>280.708</ele>
        <time>2020-08-23T10:16:22Z</time>
      </trkpt>
      <trkpt lat="41.921151" lon="0.156123">
        <ele>281.077</ele>
        <time>2020-08-23T10:16:24Z</time>
      </trkpt>
      <trkpt lat="41.921080" lon="0.156087">
        <ele>281.317</ele>
        <time>2020-08-23T10:16:26Z</time>
      </trkpt>
      <trkpt lat="41.921018" lon="0.156068">
        <ele>281.665</ele>
        <time>2020-08-23T10:16:28Z</time>
      </trkpt>
      <trkpt lat="41.920952" lon="0.156040">
        <ele>281.987</ele>
        <time>2020-08-23T10:16:30Z</time>
      </trkpt>
      <trkpt lat="41.920889" lon="0.156021">
        <ele>282.228</ele>
        <time>2020-08-23T10:16:32Z</time>
      </trkpt>
      <trkpt lat="41.920835" lon="0.155998">
        <ele>282.489</ele>
        <time>2020-08-23T10:16:34Z</time>
      </trkpt>
      <trkpt lat="41.920781" lon="0.155976">
        <ele>282.685</ele>
        <time>2020-08-23T10:16:36Z</time>
      </trkpt>
      <trkpt lat="41.920732" lon="0.155968">
        <ele>282.894</ele>
        <time>2020-08-23T10:16:38Z</time>
      </trkpt>
      <trkpt lat="41.920690" lon="0.155940">
        <ele>283.035</ele>
        <time>2020-08-23T10:16:40Z</time>
      </trkpt>
      <trkpt lat="41.920644" lon="0.155916">
        <ele>283.186</ele>
        <time>2020-08-23T10:16:42Z</time>
      </trkpt>
      <trkpt lat="41.920592" lon="0.155865">
        <ele>283.314</ele>
        <time>2020-08-23T10:16:45Z</time>
      </trkpt>
      <trkpt lat="41.920548" lon="0.155845">
        <ele>283.308</ele>
        <time>2020-08-23T10:16:47Z</time>
      </trkpt>
      <trkpt lat="41.920510" lon="0.155785">
        <ele>283.118</ele>
        <time>2020-08-23T10:16:49Z</time>
      </trkpt>
      <trkpt lat="41.920498" lon="0.155699">
        <ele>282.988</ele>
        <time>2020-08-23T10:16:51Z</time>
      </trkpt>
      <trkpt lat="41.920522" lon="0.155622">
        <ele>282.996</ele>
        <time>2020-08-23T10:16:53Z</time>
      </trkpt>
      <trkpt lat="41.920549" lon="0.155538">
        <ele>282.968</ele>
        <time>2020-08-23T10:16:55Z</time>
      </trkpt>
      <trkpt lat="41.920574" lon="0.155453">
        <ele>282.959</ele>
        <time>2020-08-23T10:16:57Z</time>
      </trkpt>
      <trkpt lat="41.920600" lon="0.155379">
        <ele>283.030</ele>
        <time>2020-08-23T10:16:59Z</time>
      </trkpt>
      <trkpt lat="41.920627" lon="0.155270">
        <ele>283.066</ele>
        <time>2020-08-23T10:17:01Z</time>
      </trkpt>
      <trkpt lat="41.920653" lon="0.155160">
        <ele>283.095</ele>
        <time>2020-08-23T10:17:03Z</time>
      </trkpt>
      <trkpt lat="41.920678" lon="0.155062">
        <ele>282.915</ele>
        <time>2020-08-23T10:17:05Z</time>
      </trkpt>
      <trkpt lat="41.920712" lon="0.154964">
        <ele>282.965</ele>
        <time>2020-08-23T10:17:07Z</time>
      </trkpt>
      <trkpt lat="41.920732" lon="0.154870">
        <ele>283.011</ele>
        <time>2020-08-23T10:17:09Z</time>
      </trkpt>
      <trkpt lat="41.920752" lon="0.154761">
        <ele>283.008</ele>
        <time>2020-08-23T10:17:11Z</time>
      </trkpt>
      <trkpt lat="41.920764" lon="0.154653">
        <ele>282.936</ele>
        <time>2020-08-23T10:17:13Z</time>
      </trkpt>
      <trkpt lat="41.920774" lon="0.154535">
        <ele>282.916</ele>
        <time>2020-08-23T10:17:15Z</time>
      </trkpt>
      <trkpt lat="41.920783" lon="0.154475">
        <ele>283.054</ele>
        <time>2020-08-23T10:17:16Z</time>
      </trkpt>
      <trkpt lat="41.920803" lon="0.154362">
        <ele>283.376</ele>
        <time>2020-08-23T10:17:18Z</time>
      </trkpt>
      <trkpt lat="41.920815" lon="0.154301">
        <ele>283.477</ele>
        <time>2020-08-23T10:17:19Z</time>
      </trkpt>
      <trkpt lat="41.920826" lon="0.154240">
        <ele>283.488</ele>
        <time>2020-08-23T10:17:20Z</time>
      </trkpt>
      <trkpt lat="41.920844" lon="0.154133">
        <ele>283.314</ele>
        <time>2020-08-23T10:17:22Z</time>
      </trkpt>
      <trkpt lat="41.920858" lon="0.154025">
        <ele>283.173</ele>
        <time>2020-08-23T10:17:24Z</time>
      </trkpt>
      <trkpt lat="41.920867" lon="0.153920">
        <ele>283.159</ele>
        <time>2020-08-23T10:17:26Z</time>
      </trkpt>
      <trkpt lat="41.920874" lon="0.153860">
        <ele>283.103</ele>
        <time>2020-08-23T10:17:27Z</time>
      </trkpt>
      <trkpt lat="41.920883" lon="0.153755">
        <ele>283.123</ele>
        <time>2020-08-23T10:17:29Z</time>
      </trkpt>
      <trkpt lat="41.920897" lon="0.153645">
        <ele>283.108</ele>
        <time>2020-08-23T10:17:31Z</time>
      </trkpt>
      <trkpt lat="41.920903" lon="0.153583">
        <ele>283.160</ele>
        <time>2020-08-23T10:17:32Z</time>
      </trkpt>
      <trkpt lat="41.920907" lon="0.153521">
        <ele>283.120</ele>
        <time>2020-08-23T10:17:33Z</time>
      </trkpt>
      <trkpt lat="41.920917" lon="0.153461">
        <ele>283.138</ele>
        <time>2020-08-23T10:17:34Z</time>
      </trkpt>
      <trkpt lat="41.920928" lon="0.153400">
        <ele>283.110</ele>
        <time>2020-08-23T10:17:35Z</time>
      </trkpt>
      <trkpt lat="41.920942" lon="0.153286">
        <ele>283.141</ele>
        <time>2020-08-23T10:17:37Z</time>
      </trkpt>
      <trkpt lat="41.920962" lon="0.153164">
        <ele>282.862</ele>
        <time>2020-08-23T10:17:39Z</time>
      </trkpt>
      <trkpt lat="41.920972" lon="0.153103">
        <ele>282.788</ele>
        <time>2020-08-23T10:17:40Z</time>
      </trkpt>
      <trkpt lat="41.920986" lon="0.152981">
        <ele>282.687</ele>
        <time>2020-08-23T10:17:42Z</time>
      </trkpt>
      <trkpt lat="41.921006" lon="0.152863">
        <ele>282.719</ele>
        <time>2020-08-23T10:17:44Z</time>
      </trkpt>
      <trkpt lat="41.921024" lon="0.152750">
        <ele>282.709</ele>
        <time>2020-08-23T10:17:46Z</time>
      </trkpt>
      <trkpt lat="41.921041" lon="0.152646">
        <ele>282.719</ele>
        <time>2020-08-23T10:17:48Z</time>
      </trkpt>
      <trkpt lat="41.921053" lon="0.152585">
        <ele>282.608</ele>
        <time>2020-08-23T10:17:49Z</time>
      </trkpt>
      <trkpt lat="41.921085" lon="0.152468">
        <ele>282.656</ele>
        <time>2020-08-23T10:17:51Z</time>
      </trkpt>
      <trkpt lat="41.921112" lon="0.152411">
        <ele>282.616</ele>
        <time>2020-08-23T10:17:52Z</time>
      </trkpt>
      <trkpt lat="41.921134" lon="0.152347">
        <ele>282.674</ele>
        <time>2020-08-23T10:17:53Z</time>
      </trkpt>
      <trkpt lat="41.921161" lon="0.152289">
        <ele>282.646</ele>
        <time>2020-08-23T10:17:54Z</time>
      </trkpt>
      <trkpt lat="41.921184" lon="0.152231">
        <ele>282.647</ele>
        <time>2020-08-23T10:17:55Z</time>
      </trkpt>
      <trkpt lat="41.921210" lon="0.152173">
        <ele>282.618</ele>
        <time>2020-08-23T10:17:56Z</time>
      </trkpt>
      <trkpt lat="41.921233" lon="0.152107">
        <ele>282.514</ele>
        <time>2020-08-23T10:17:57Z</time>
      </trkpt>
      <trkpt lat="41.921256" lon="0.152050">
        <ele>282.483</ele>
        <time>2020-08-23T10:17:58Z</time>
      </trkpt>
      <trkpt lat="41.921269" lon="0.151988">
        <ele>282.474</ele>
        <time>2020-08-23T10:17:59Z</time>
      </trkpt>
      <trkpt lat="41.921286" lon="0.151928">
        <ele>282.456</ele>
        <time>2020-08-23T10:18:00Z</time>
      </trkpt>
      <trkpt lat="41.921297" lon="0.151810">
        <ele>282.421</ele>
        <time>2020-08-23T10:18:02Z</time>
      </trkpt>
      <trkpt lat="41.921295" lon="0.151745">
        <ele>282.408</ele>
        <time>2020-08-23T10:18:03Z</time>
      </trkpt>
      <trkpt lat="41.921294" lon="0.151623">
        <ele>282.372</ele>
        <time>2020-08-23T10:18:05Z</time>
      </trkpt>
      <trkpt lat="41.921295" lon="0.151556">
        <ele>282.312</ele>
        <time>2020-08-23T10:18:06Z</time>
      </trkpt>
      <trkpt lat="41.921296" lon="0.151429">
        <ele>282.480</ele>
        <time>2020-08-23T10:18:08Z</time>
      </trkpt>
      <trkpt lat="41.921291" lon="0.151360">
        <ele>282.622</ele>
        <time>2020-08-23T10:18:09Z</time>
      </trkpt>
      <trkpt lat="41.921294" lon="0.151289">
        <ele>282.763</ele>
        <time>2020-08-23T10:18:10Z</time>
      </trkpt>
      <trkpt lat="41.921300" lon="0.151228">
        <ele>282.874</ele>
        <time>2020-08-23T10:18:11Z</time>
      </trkpt>
      <trkpt lat="41.921300" lon="0.151104">
        <ele>282.980</ele>
        <time>2020-08-23T10:18:13Z</time>
      </trkpt>
      <trkpt lat="41.921310" lon="0.151039">
        <ele>282.959</ele>
        <time>2020-08-23T10:18:14Z</time>
      </trkpt>
      <trkpt lat="41.921324" lon="0.150976">
        <ele>282.995</ele>
        <time>2020-08-23T10:18:15Z</time>
      </trkpt>
      <trkpt lat="41.921346" lon="0.150864">
        <ele>282.949</ele>
        <time>2020-08-23T10:18:17Z</time>
      </trkpt>
      <trkpt lat="41.921357" lon="0.150804">
        <ele>282.923</ele>
        <time>2020-08-23T10:18:18Z</time>
      </trkpt>
      <trkpt lat="41.921381" lon="0.150698">
        <ele>282.808</ele>
        <time>2020-08-23T10:18:20Z</time>
      </trkpt>
      <trkpt lat="41.921399" lon="0.150585">
        <ele>282.744</ele>
        <time>2020-08-23T10:18:22Z</time>
      </trkpt>
      <trkpt lat="41.921420" lon="0.150476">
        <ele>282.764</ele>
        <time>2020-08-23T10:18:24Z</time>
      </trkpt>
      <trkpt lat="41.921441" lon="0.150359">
        <ele>282.812</ele>
        <time>2020-08-23T10:18:26Z</time>
      </trkpt>
      <trkpt lat="41.921466" lon="0.150242">
        <ele>283.014</ele>
        <time>2020-08-23T10:18:28Z</time>
      </trkpt>
      <trkpt lat="41.921491" lon="0.150122">
        <ele>283.055</ele>
        <time>2020-08-23T10:18:30Z</time>
      </trkpt>
      <trkpt lat="41.921502" lon="0.150063">
        <ele>283.066</ele>
        <time>2020-08-23T10:18:31Z</time>
      </trkpt>
      <trkpt lat="41.921515" lon="0.149995">
        <ele>282.962</ele>
        <time>2020-08-23T10:18:32Z</time>
      </trkpt>
      <trkpt lat="41.921533" lon="0.149931">
        <ele>282.931</ele>
        <time>2020-08-23T10:18:33Z</time>
      </trkpt>
      <trkpt lat="41.921548" lon="0.149864">
        <ele>282.865</ele>
        <time>2020-08-23T10:18:34Z</time>
      </trkpt>
      <trkpt lat="41.921563" lon="0.149797">
        <ele>282.768</ele>
        <time>2020-08-23T10:18:35Z</time>
      </trkpt>
      <trkpt lat="41.921576" lon="0.149737">
        <ele>282.714</ele>
        <time>2020-08-23T10:18:36Z</time>
      </trkpt>
      <trkpt lat="41.921586" lon="0.149676">
        <ele>282.708</ele>
        <time>2020-08-23T10:18:37Z</time>
      </trkpt>
      <trkpt lat="41.921595" lon="0.149612">
        <ele>282.781</ele>
        <time>2020-08-23T10:18:38Z</time>
      </trkpt>
      <trkpt lat="41.921605" lon="0.149545">
        <ele>282.751</ele>
        <time>2020-08-23T10:18:39Z</time>
      </trkpt>
      <trkpt lat="41.921611" lon="0.149479">
        <ele>282.759</ele>
        <time>2020-08-23T10:18:40Z</time>
      </trkpt>
      <trkpt lat="41.921618" lon="0.149415">
        <ele>282.761</ele>
        <time>2020-08-23T10:18:41Z</time>
      </trkpt>
      <trkpt lat="41.921624" lon="0.149350">
        <ele>282.762</ele>
        <time>2020-08-23T10:18:42Z</time>
      </trkpt>
      <trkpt lat="41.921634" lon="0.149282">
        <ele>282.713</ele>
        <time>2020-08-23T10:18:43Z</time>
      </trkpt>
      <trkpt lat="41.921647" lon="0.149223">
        <ele>282.839</ele>
        <time>2020-08-23T10:18:44Z</time>
      </trkpt>
      <trkpt lat="41.921672" lon="0.149109">
        <ele>282.958</ele>
        <time>2020-08-23T10:18:46Z</time>
      </trkpt>
      <trkpt lat="41.921687" lon="0.149047">
        <ele>282.967</ele>
        <time>2020-08-23T10:18:47Z</time>
      </trkpt>
      <trkpt lat="41.921707" lon="0.148992">
        <ele>282.981</ele>
        <time>2020-08-23T10:18:48Z</time>
      </trkpt>
      <trkpt lat="41.921738" lon="0.148885">
        <ele>282.919</ele>
        <time>2020-08-23T10:18:50Z</time>
      </trkpt>
      <trkpt lat="41.921752" lon="0.148827">
        <ele>282.908</ele>
        <time>2020-08-23T10:18:51Z</time>
      </trkpt>
      <trkpt lat="41.921764" lon="0.148762">
        <ele>282.911</ele>
        <time>2020-08-23T10:18:52Z</time>
      </trkpt>
      <trkpt lat="41.921775" lon="0.148691">
        <ele>282.961</ele>
        <time>2020-08-23T10:18:53Z</time>
      </trkpt>
      <trkpt lat="41.921782" lon="0.148628">
        <ele>282.919</ele>
        <time>2020-08-23T10:18:54Z</time>
      </trkpt>
      <trkpt lat="41.921787" lon="0.148562">
        <ele>282.941</ele>
        <time>2020-08-23T10:18:55Z</time>
      </trkpt>
      <trkpt lat="41.921793" lon="0.148496">
        <ele>282.922</ele>
        <time>2020-08-23T10:18:56Z</time>
      </trkpt>
      <trkpt lat="41.921804" lon="0.148430">
        <ele>282.953</ele>
        <time>2020-08-23T10:18:57Z</time>
      </trkpt>
      <trkpt lat="41.921824" lon="0.148363">
        <ele>282.929</ele>
        <time>2020-08-23T10:18:58Z</time>
      </trkpt>
      <trkpt lat="41.921839" lon="0.148298">
        <ele>282.928</ele>
        <time>2020-08-23T10:18:59Z</time>
      </trkpt>
      <trkpt lat="41.921856" lon="0.148231">
        <ele>282.922</ele>
        <time>2020-08-23T10:19:00Z</time>
      </trkpt>
      <trkpt lat="41.921876" lon="0.148177">
        <ele>282.962</ele>
        <time>2020-08-23T10:19:01Z</time>
      </trkpt>
      <trkpt lat="41.921896" lon="0.148121">
        <ele>282.808</ele>
        <time>2020-08-23T10:19:02Z</time>
      </trkpt>
      <trkpt lat="41.921912" lon="0.148060">
        <ele>282.808</ele>
        <time>2020-08-23T10:19:03Z</time>
      </trkpt>
      <trkpt lat="41.921924" lon="0.147999">
        <ele>282.617</ele>
        <time>2020-08-23T10:19:04Z</time>
      </trkpt>
      <trkpt lat="41.921933" lon="0.147928">
        <ele>282.557</ele>
        <time>2020-08-23T10:19:05Z</time>
      </trkpt>
      <trkpt lat="41.921944" lon="0.147854">
        <ele>282.455</ele>
        <time>2020-08-23T10:19:06Z</time>
      </trkpt>
      <trkpt lat="41.921963" lon="0.147792">
        <ele>282.447</ele>
        <time>2020-08-23T10:19:07Z</time>
      </trkpt>
      <trkpt lat="41.921977" lon="0.147732">
        <ele>282.488</ele>
        <time>2020-08-23T10:19:08Z</time>
      </trkpt>
      <trkpt lat="41.922016" lon="0.147622">
        <ele>282.479</ele>
        <time>2020-08-23T10:19:10Z</time>
      </trkpt>
      <trkpt lat="41.922038" lon="0.147568">
        <ele>282.435</ele>
        <time>2020-08-23T10:19:11Z</time>
      </trkpt>
      <trkpt lat="41.922057" lon="0.147506">
        <ele>282.414</ele>
        <time>2020-08-23T10:19:12Z</time>
      </trkpt>
      <trkpt lat="41.922074" lon="0.147443">
        <ele>282.454</ele>
        <time>2020-08-23T10:19:13Z</time>
      </trkpt>
      <trkpt lat="41.922094" lon="0.147383">
        <ele>282.356</ele>
        <time>2020-08-23T10:19:14Z</time>
      </trkpt>
      <trkpt lat="41.922116" lon="0.147328">
        <ele>282.311</ele>
        <time>2020-08-23T10:19:15Z</time>
      </trkpt>
      <trkpt lat="41.922159" lon="0.147213">
        <ele>282.208</ele>
        <time>2020-08-23T10:19:17Z</time>
      </trkpt>
      <trkpt lat="41.922185" lon="0.147161">
        <ele>282.270</ele>
        <time>2020-08-23T10:19:18Z</time>
      </trkpt>
      <trkpt lat="41.922212" lon="0.147103">
        <ele>282.250</ele>
        <time>2020-08-23T10:19:19Z</time>
      </trkpt>
      <trkpt lat="41.922232" lon="0.147040">
        <ele>282.278</ele>
        <time>2020-08-23T10:19:20Z</time>
      </trkpt>
      <trkpt lat="41.922249" lon="0.146977">
        <ele>282.370</ele>
        <time>2020-08-23T10:19:21Z</time>
      </trkpt>
      <trkpt lat="41.922266" lon="0.146907">
        <ele>282.481</ele>
        <time>2020-08-23T10:19:22Z</time>
      </trkpt>
      <trkpt lat="41.922282" lon="0.146842">
        <ele>282.472</ele>
        <time>2020-08-23T10:19:23Z</time>
      </trkpt>
      <trkpt lat="41.922320" lon="0.146728">
        <ele>282.628</ele>
        <time>2020-08-23T10:19:25Z</time>
      </trkpt>
      <trkpt lat="41.922336" lon="0.146666">
        <ele>282.637</ele>
        <time>2020-08-23T10:19:26Z</time>
      </trkpt>
      <trkpt lat="41.922356" lon="0.146589">
        <ele>282.647</ele>
        <time>2020-08-23T10:19:27Z</time>
      </trkpt>
      <trkpt lat="41.922374" lon="0.146521">
        <ele>282.729</ele>
        <time>2020-08-23T10:19:28Z</time>
      </trkpt>
      <trkpt lat="41.922394" lon="0.146450">
        <ele>282.721</ele>
        <time>2020-08-23T10:19:29Z</time>
      </trkpt>
      <trkpt lat="41.922416" lon="0.146394">
        <ele>282.708</ele>
        <time>2020-08-23T10:19:30Z</time>
      </trkpt>
      <trkpt lat="41.922441" lon="0.146334">
        <ele>282.799</ele>
        <time>2020-08-23T10:19:31Z</time>
      </trkpt>
      <trkpt lat="41.922475" lon="0.146230">
        <ele>282.649</ele>
        <time>2020-08-23T10:19:33Z</time>
      </trkpt>
      <trkpt lat="41.922482" lon="0.146166">
        <ele>282.697</ele>
        <time>2020-08-23T10:19:34Z</time>
      </trkpt>
      <trkpt lat="41.922502" lon="0.146043">
        <ele>282.679</ele>
        <time>2020-08-23T10:19:36Z</time>
      </trkpt>
      <trkpt lat="41.922509" lon="0.145980">
        <ele>282.640</ele>
        <time>2020-08-23T10:19:37Z</time>
      </trkpt>
      <trkpt lat="41.922522" lon="0.145921">
        <ele>282.561</ele>
        <time>2020-08-23T10:19:38Z</time>
      </trkpt>
      <trkpt lat="41.922539" lon="0.145821">
        <ele>282.437</ele>
        <time>2020-08-23T10:19:40Z</time>
      </trkpt>
      <trkpt lat="41.922553" lon="0.145737">
        <ele>282.346</ele>
        <time>2020-08-23T10:19:42Z</time>
      </trkpt>
      <trkpt lat="41.922569" lon="0.145665">
        <ele>282.395</ele>
        <time>2020-08-23T10:19:44Z</time>
      </trkpt>
      <trkpt lat="41.922586" lon="0.145602">
        <ele>282.349</ele>
        <time>2020-08-23T10:19:46Z</time>
      </trkpt>
      <trkpt lat="41.922617" lon="0.145528">
        <ele>282.323</ele>
        <time>2020-08-23T10:19:48Z</time>
      </trkpt>
      <trkpt lat="41.922663" lon="0.145445">
        <ele>282.308</ele>
        <time>2020-08-23T10:19:50Z</time>
      </trkpt>
      <trkpt lat="41.922686" lon="0.145361">
        <ele>282.344</ele>
        <time>2020-08-23T10:19:52Z</time>
      </trkpt>
      <trkpt lat="41.922706" lon="0.145275">
        <ele>282.484</ele>
        <time>2020-08-23T10:19:54Z</time>
      </trkpt>
      <trkpt lat="41.922730" lon="0.145187">
        <ele>282.662</ele>
        <time>2020-08-23T10:19:56Z</time>
      </trkpt>
      <trkpt lat="41.922761" lon="0.145108">
        <ele>282.664</ele>
        <time>2020-08-23T10:19:58Z</time>
      </trkpt>
      <trkpt lat="41.922773" lon="0.145010">
        <ele>282.625</ele>
        <time>2020-08-23T10:20:00Z</time>
      </trkpt>
      <trkpt lat="41.922777" lon="0.144905">
        <ele>282.696</ele>
        <time>2020-08-23T10:20:02Z</time>
      </trkpt>
      <trkpt lat="41.922789" lon="0.144804">
        <ele>282.582</ele>
        <time>2020-08-23T10:20:04Z</time>
      </trkpt>
      <trkpt lat="41.922799" lon="0.144745">
        <ele>282.451</ele>
        <time>2020-08-23T10:20:05Z</time>
      </trkpt>
      <trkpt lat="41.922807" lon="0.144685">
        <ele>282.211</ele>
        <time>2020-08-23T10:20:06Z</time>
      </trkpt>
      <trkpt lat="41.922816" lon="0.144625">
        <ele>282.121</ele>
        <time>2020-08-23T10:20:07Z</time>
      </trkpt>
      <trkpt lat="41.922840" lon="0.144510">
        <ele>281.803</ele>
        <time>2020-08-23T10:20:09Z</time>
      </trkpt>
      <trkpt lat="41.922856" lon="0.144410">
        <ele>281.608</ele>
        <time>2020-08-23T10:20:11Z</time>
      </trkpt>
      <trkpt lat="41.922863" lon="0.144347">
        <ele>281.516</ele>
        <time>2020-08-23T10:20:12Z</time>
      </trkpt>
      <trkpt lat="41.922874" lon="0.144249">
        <ele>281.416</ele>
        <time>2020-08-23T10:20:14Z</time>
      </trkpt>
      <trkpt lat="41.922880" lon="0.144171">
        <ele>281.324</ele>
        <time>2020-08-23T10:20:16Z</time>
      </trkpt>
      <trkpt lat="41.922892" lon="0.144092">
        <ele>281.136</ele>
        <time>2020-08-23T10:20:18Z</time>
      </trkpt>
      <trkpt lat="41.922910" lon="0.144009">
        <ele>281.017</ele>
        <time>2020-08-23T10:20:20Z</time>
      </trkpt>
      <trkpt lat="41.922939" lon="0.143913">
        <ele>281.088</ele>
        <time>2020-08-23T10:20:22Z</time>
      </trkpt>
      <trkpt lat="41.922958" lon="0.143822">
        <ele>281.174</ele>
        <time>2020-08-23T10:20:24Z</time>
      </trkpt>
      <trkpt lat="41.922969" lon="0.143729">
        <ele>281.293</ele>
        <time>2020-08-23T10:20:26Z</time>
      </trkpt>
      <trkpt lat="41.922999" lon="0.143635">
        <ele>281.221</ele>
        <time>2020-08-23T10:20:28Z</time>
      </trkpt>
      <trkpt lat="41.923028" lon="0.143558">
        <ele>281.241</ele>
        <time>2020-08-23T10:20:30Z</time>
      </trkpt>
      <trkpt lat="41.923056" lon="0.143466">
        <ele>281.105</ele>
        <time>2020-08-23T10:20:32Z</time>
      </trkpt>
      <trkpt lat="41.923084" lon="0.143376">
        <ele>281.108</ele>
        <time>2020-08-23T10:20:34Z</time>
      </trkpt>
      <trkpt lat="41.923098" lon="0.143309">
        <ele>281.167</ele>
        <time>2020-08-23T10:20:36Z</time>
      </trkpt>
      <trkpt lat="41.923112" lon="0.143229">
        <ele>281.187</ele>
        <time>2020-08-23T10:20:38Z</time>
      </trkpt>
      <trkpt lat="41.923132" lon="0.143144">
        <ele>281.185</ele>
        <time>2020-08-23T10:20:40Z</time>
      </trkpt>
      <trkpt lat="41.923152" lon="0.143052">
        <ele>281.187</ele>
        <time>2020-08-23T10:20:42Z</time>
      </trkpt>
      <trkpt lat="41.923174" lon="0.142975">
        <ele>281.168</ele>
        <time>2020-08-23T10:20:44Z</time>
      </trkpt>
      <trkpt lat="41.923193" lon="0.142889">
        <ele>281.069</ele>
        <time>2020-08-23T10:20:46Z</time>
      </trkpt>
      <trkpt lat="41.923214" lon="0.142805">
        <ele>281.075</ele>
        <time>2020-08-23T10:20:48Z</time>
      </trkpt>
      <trkpt lat="41.923231" lon="0.142723">
        <ele>281.074</ele>
        <time>2020-08-23T10:20:51Z</time>
      </trkpt>
      <trkpt lat="41.923256" lon="0.142653">
        <ele>281.025</ele>
        <time>2020-08-23T10:20:53Z</time>
      </trkpt>
      <trkpt lat="41.923273" lon="0.142557">
        <ele>281.126</ele>
        <time>2020-08-23T10:20:55Z</time>
      </trkpt>
      <trkpt lat="41.923290" lon="0.142465">
        <ele>281.108</ele>
        <time>2020-08-23T10:20:57Z</time>
      </trkpt>
      <trkpt lat="41.923319" lon="0.142377">
        <ele>281.108</ele>
        <time>2020-08-23T10:20:59Z</time>
      </trkpt>
      <trkpt lat="41.923351" lon="0.142274">
        <ele>281.087</ele>
        <time>2020-08-23T10:21:01Z</time>
      </trkpt>
      <trkpt lat="41.923384" lon="0.142179">
        <ele>281.097</ele>
        <time>2020-08-23T10:21:03Z</time>
      </trkpt>
      <trkpt lat="41.923401" lon="0.142104">
        <ele>281.065</ele>
        <time>2020-08-23T10:21:05Z</time>
      </trkpt>
      <trkpt lat="41.923416" lon="0.142032">
        <ele>281.177</ele>
        <time>2020-08-23T10:21:07Z</time>
      </trkpt>
      <trkpt lat="41.923421" lon="0.141955">
        <ele>281.178</ele>
        <time>2020-08-23T10:21:09Z</time>
      </trkpt>
      <trkpt lat="41.923428" lon="0.141873">
        <ele>281.199</ele>
        <time>2020-08-23T10:21:11Z</time>
      </trkpt>
      <trkpt lat="41.923445" lon="0.141793">
        <ele>281.145</ele>
        <time>2020-08-23T10:21:13Z</time>
      </trkpt>
      <trkpt lat="41.923460" lon="0.141724">
        <ele>281.244</ele>
        <time>2020-08-23T10:21:15Z</time>
      </trkpt>
      <trkpt lat="41.923488" lon="0.141647">
        <ele>281.332</ele>
        <time>2020-08-23T10:21:17Z</time>
      </trkpt>
      <trkpt lat="41.923511" lon="0.141563">
        <ele>281.492</ele>
        <time>2020-08-23T10:21:19Z</time>
      </trkpt>
      <trkpt lat="41.923532" lon="0.141482">
        <ele>281.411</ele>
        <time>2020-08-23T10:21:21Z</time>
      </trkpt>
      <trkpt lat="41.923552" lon="0.141380">
        <ele>281.508</ele>
        <time>2020-08-23T10:21:23Z</time>
      </trkpt>
      <trkpt lat="41.923577" lon="0.141281">
        <ele>281.638</ele>
        <time>2020-08-23T10:21:25Z</time>
      </trkpt>
      <trkpt lat="41.923603" lon="0.141184">
        <ele>281.688</ele>
        <time>2020-08-23T10:21:27Z</time>
      </trkpt>
      <trkpt lat="41.923624" lon="0.141073">
        <ele>281.796</ele>
        <time>2020-08-23T10:21:29Z</time>
      </trkpt>
      <trkpt lat="41.923655" lon="0.140991">
        <ele>281.978</ele>
        <time>2020-08-23T10:21:31Z</time>
      </trkpt>
      <trkpt lat="41.923684" lon="0.140889">
        <ele>282.159</ele>
        <time>2020-08-23T10:21:33Z</time>
      </trkpt>
      <trkpt lat="41.923703" lon="0.140796">
        <ele>282.320</ele>
        <time>2020-08-23T10:21:35Z</time>
      </trkpt>
      <trkpt lat="41.923722" lon="0.140702">
        <ele>282.436</ele>
        <time>2020-08-23T10:21:37Z</time>
      </trkpt>
      <trkpt lat="41.923749" lon="0.140603">
        <ele>282.675</ele>
        <time>2020-08-23T10:21:39Z</time>
      </trkpt>
      <trkpt lat="41.923782" lon="0.140505">
        <ele>282.984</ele>
        <time>2020-08-23T10:21:41Z</time>
      </trkpt>
      <trkpt lat="41.923809" lon="0.140430">
        <ele>283.207</ele>
        <time>2020-08-23T10:21:43Z</time>
      </trkpt>
      <trkpt lat="41.923832" lon="0.140343">
        <ele>283.517</ele>
        <time>2020-08-23T10:21:45Z</time>
      </trkpt>
      <trkpt lat="41.923894" lon="0.140281">
        <ele>283.508</ele>
        <time>2020-08-23T10:21:47Z</time>
      </trkpt>
      <trkpt lat="41.923956" lon="0.140233">
        <ele>283.433</ele>
        <time>2020-08-23T10:21:49Z</time>
      </trkpt>
      <trkpt lat="41.924005" lon="0.140177">
        <ele>283.313</ele>
        <time>2020-08-23T10:21:51Z</time>
      </trkpt>
      <trkpt lat="41.924039" lon="0.140098">
        <ele>283.281</ele>
        <time>2020-08-23T10:21:53Z</time>
      </trkpt>
      <trkpt lat="41.924056" lon="0.139991">
        <ele>283.263</ele>
        <time>2020-08-23T10:21:55Z</time>
      </trkpt>
      <trkpt lat="41.924074" lon="0.139885">
        <ele>283.254</ele>
        <time>2020-08-23T10:21:57Z</time>
      </trkpt>
      <trkpt lat="41.924103" lon="0.139774">
        <ele>283.265</ele>
        <time>2020-08-23T10:21:59Z</time>
      </trkpt>
      <trkpt lat="41.924117" lon="0.139713">
        <ele>283.261</ele>
        <time>2020-08-23T10:22:00Z</time>
      </trkpt>
      <trkpt lat="41.924127" lon="0.139647">
        <ele>283.210</ele>
        <time>2020-08-23T10:22:01Z</time>
      </trkpt>
      <trkpt lat="41.924147" lon="0.139531">
        <ele>283.262</ele>
        <time>2020-08-23T10:22:03Z</time>
      </trkpt>
      <trkpt lat="41.924165" lon="0.139469">
        <ele>283.283</ele>
        <time>2020-08-23T10:22:04Z</time>
      </trkpt>
      <trkpt lat="41.924175" lon="0.139406">
        <ele>283.211</ele>
        <time>2020-08-23T10:22:05Z</time>
      </trkpt>
      <trkpt lat="41.924187" lon="0.139341">
        <ele>283.208</ele>
        <time>2020-08-23T10:22:06Z</time>
      </trkpt>
      <trkpt lat="41.924223" lon="0.139232">
        <ele>283.221</ele>
        <time>2020-08-23T10:22:08Z</time>
      </trkpt>
      <trkpt lat="41.924251" lon="0.139124">
        <ele>283.291</ele>
        <time>2020-08-23T10:22:10Z</time>
      </trkpt>
      <trkpt lat="41.924262" lon="0.139060">
        <ele>283.269</ele>
        <time>2020-08-23T10:22:11Z</time>
      </trkpt>
      <trkpt lat="41.924275" lon="0.138991">
        <ele>283.261</ele>
        <time>2020-08-23T10:22:12Z</time>
      </trkpt>
      <trkpt lat="41.924291" lon="0.138920">
        <ele>283.252</ele>
        <time>2020-08-23T10:22:13Z</time>
      </trkpt>
      <trkpt lat="41.924309" lon="0.138852">
        <ele>283.253</ele>
        <time>2020-08-23T10:22:14Z</time>
      </trkpt>
      <trkpt lat="41.924328" lon="0.138795">
        <ele>283.299</ele>
        <time>2020-08-23T10:22:15Z</time>
      </trkpt>
      <trkpt lat="41.924365" lon="0.138676">
        <ele>283.178</ele>
        <time>2020-08-23T10:22:17Z</time>
      </trkpt>
      <trkpt lat="41.924379" lon="0.138604">
        <ele>283.087</ele>
        <time>2020-08-23T10:22:18Z</time>
      </trkpt>
      <trkpt lat="41.924397" lon="0.138533">
        <ele>283.042</ele>
        <time>2020-08-23T10:22:19Z</time>
      </trkpt>
      <trkpt lat="41.924410" lon="0.138469">
        <ele>282.926</ele>
        <time>2020-08-23T10:22:20Z</time>
      </trkpt>
      <trkpt lat="41.924424" lon="0.138407">
        <ele>282.808</ele>
        <time>2020-08-23T10:22:21Z</time>
      </trkpt>
      <trkpt lat="41.924437" lon="0.138346">
        <ele>282.893</ele>
        <time>2020-08-23T10:22:22Z</time>
      </trkpt>
      <trkpt lat="41.924453" lon="0.138283">
        <ele>282.863</ele>
        <time>2020-08-23T10:22:23Z</time>
      </trkpt>
      <trkpt lat="41.924472" lon="0.138218">
        <ele>282.741</ele>
        <time>2020-08-23T10:22:24Z</time>
      </trkpt>
      <trkpt lat="41.924489" lon="0.138148">
        <ele>282.713</ele>
        <time>2020-08-23T10:22:25Z</time>
      </trkpt>
      <trkpt lat="41.924500" lon="0.138083">
        <ele>282.744</ele>
        <time>2020-08-23T10:22:26Z</time>
      </trkpt>
      <trkpt lat="41.924516" lon="0.138014">
        <ele>282.625</ele>
        <time>2020-08-23T10:22:27Z</time>
      </trkpt>
      <trkpt lat="41.924535" lon="0.137943">
        <ele>282.621</ele>
        <time>2020-08-23T10:22:28Z</time>
      </trkpt>
      <trkpt lat="41.924558" lon="0.137875">
        <ele>282.540</ele>
        <time>2020-08-23T10:22:29Z</time>
      </trkpt>
      <trkpt lat="41.924573" lon="0.137808">
        <ele>282.443</ele>
        <time>2020-08-23T10:22:30Z</time>
      </trkpt>
      <trkpt lat="41.924584" lon="0.137738">
        <ele>282.364</ele>
        <time>2020-08-23T10:22:31Z</time>
      </trkpt>
      <trkpt lat="41.924596" lon="0.137676">
        <ele>282.310</ele>
        <time>2020-08-23T10:22:32Z</time>
      </trkpt>
      <trkpt lat="41.924606" lon="0.137616">
        <ele>282.308</ele>
        <time>2020-08-23T10:22:33Z</time>
      </trkpt>
      <trkpt lat="41.924614" lon="0.137551">
        <ele>282.289</ele>
        <time>2020-08-23T10:22:34Z</time>
      </trkpt>
      <trkpt lat="41.924616" lon="0.137489">
        <ele>282.229</ele>
        <time>2020-08-23T10:22:35Z</time>
      </trkpt>
      <trkpt lat="41.924617" lon="0.137423">
        <ele>282.277</ele>
        <time>2020-08-23T10:22:36Z</time>
      </trkpt>
      <trkpt lat="41.924614" lon="0.137351">
        <ele>282.169</ele>
        <time>2020-08-23T10:22:37Z</time>
      </trkpt>
      <trkpt lat="41.924612" lon="0.137286">
        <ele>282.010</ele>
        <time>2020-08-23T10:22:38Z</time>
      </trkpt>
      <trkpt lat="41.924608" lon="0.137215">
        <ele>282.041</ele>
        <time>2020-08-23T10:22:39Z</time>
      </trkpt>
      <trkpt lat="41.924608" lon="0.137145">
        <ele>282.017</ele>
        <time>2020-08-23T10:22:40Z</time>
      </trkpt>
      <trkpt lat="41.924605" lon="0.137071">
        <ele>282.016</ele>
        <time>2020-08-23T10:22:41Z</time>
      </trkpt>
      <trkpt lat="41.924597" lon="0.136998">
        <ele>282.043</ele>
        <time>2020-08-23T10:22:42Z</time>
      </trkpt>
      <trkpt lat="41.924584" lon="0.136925">
        <ele>282.064</ele>
        <time>2020-08-23T10:22:43Z</time>
      </trkpt>
      <trkpt lat="41.924575" lon="0.136855">
        <ele>282.010</ele>
        <time>2020-08-23T10:22:44Z</time>
      </trkpt>
      <trkpt lat="41.924567" lon="0.136783">
        <ele>282.008</ele>
        <time>2020-08-23T10:22:45Z</time>
      </trkpt>
      <trkpt lat="41.924563" lon="0.136716">
        <ele>282.079</ele>
        <time>2020-08-23T10:22:46Z</time>
      </trkpt>
      <trkpt lat="41.924559" lon="0.136644">
        <ele>282.079</ele>
        <time>2020-08-23T10:22:47Z</time>
      </trkpt>
      <trkpt lat="41.924554" lon="0.136570">
        <ele>282.097</ele>
        <time>2020-08-23T10:22:48Z</time>
      </trkpt>
      <trkpt lat="41.924550" lon="0.136497">
        <ele>281.959</ele>
        <time>2020-08-23T10:22:49Z</time>
      </trkpt>
      <trkpt lat="41.924548" lon="0.136434">
        <ele>281.850</ele>
        <time>2020-08-23T10:22:50Z</time>
      </trkpt>
      <trkpt lat="41.924549" lon="0.136363">
        <ele>281.811</ele>
        <time>2020-08-23T10:22:51Z</time>
      </trkpt>
      <trkpt lat="41.924549" lon="0.136283">
        <ele>281.747</ele>
        <time>2020-08-23T10:22:52Z</time>
      </trkpt>
      <trkpt lat="41.924545" lon="0.136214">
        <ele>281.636</ele>
        <time>2020-08-23T10:22:53Z</time>
      </trkpt>
      <trkpt lat="41.924548" lon="0.136090">
        <ele>281.482</ele>
        <time>2020-08-23T10:22:55Z</time>
      </trkpt>
      <trkpt lat="41.924551" lon="0.136025">
        <ele>281.343</ele>
        <time>2020-08-23T10:22:56Z</time>
      </trkpt>
      <trkpt lat="41.924552" lon="0.135954">
        <ele>281.217</ele>
        <time>2020-08-23T10:22:57Z</time>
      </trkpt>
      <trkpt lat="41.924552" lon="0.135886">
        <ele>281.208</ele>
        <time>2020-08-23T10:22:58Z</time>
      </trkpt>
      <trkpt lat="41.924552" lon="0.135821">
        <ele>281.233</ele>
        <time>2020-08-23T10:22:59Z</time>
      </trkpt>
      <trkpt lat="41.924552" lon="0.135759">
        <ele>281.173</ele>
        <time>2020-08-23T10:23:00Z</time>
      </trkpt>
      <trkpt lat="41.924557" lon="0.135691">
        <ele>281.191</ele>
        <time>2020-08-23T10:23:01Z</time>
      </trkpt>
      <trkpt lat="41.924553" lon="0.135620">
        <ele>281.073</ele>
        <time>2020-08-23T10:23:02Z</time>
      </trkpt>
      <trkpt lat="41.924549" lon="0.135545">
        <ele>280.924</ele>
        <time>2020-08-23T10:23:03Z</time>
      </trkpt>
      <trkpt lat="41.924550" lon="0.135478">
        <ele>280.755</ele>
        <time>2020-08-23T10:23:04Z</time>
      </trkpt>
      <trkpt lat="41.924547" lon="0.135413">
        <ele>280.721</ele>
        <time>2020-08-23T10:23:05Z</time>
      </trkpt>
      <trkpt lat="41.924545" lon="0.135348">
        <ele>280.710</ele>
        <time>2020-08-23T10:23:06Z</time>
      </trkpt>
      <trkpt lat="41.924548" lon="0.135276">
        <ele>280.752</ele>
        <time>2020-08-23T10:23:07Z</time>
      </trkpt>
      <trkpt lat="41.924551" lon="0.135210">
        <ele>280.853</ele>
        <time>2020-08-23T10:23:08Z</time>
      </trkpt>
      <trkpt lat="41.924550" lon="0.135149">
        <ele>280.808</ele>
        <time>2020-08-23T10:23:09Z</time>
      </trkpt>
      <trkpt lat="41.924553" lon="0.135085">
        <ele>280.808</ele>
        <time>2020-08-23T10:23:10Z</time>
      </trkpt>
      <trkpt lat="41.924564" lon="0.135016">
        <ele>280.850</ele>
        <time>2020-08-23T10:23:11Z</time>
      </trkpt>
      <trkpt lat="41.924569" lon="0.134935">
        <ele>280.850</ele>
        <time>2020-08-23T10:23:12Z</time>
      </trkpt>
      <trkpt lat="41.924583" lon="0.134866">
        <ele>280.828</ele>
        <time>2020-08-23T10:23:13Z</time>
      </trkpt>
      <trkpt lat="41.924602" lon="0.134809">
        <ele>280.850</ele>
        <time>2020-08-23T10:23:14Z</time>
      </trkpt>
      <trkpt lat="41.924629" lon="0.134753">
        <ele>280.891</ele>
        <time>2020-08-23T10:23:15Z</time>
      </trkpt>
      <trkpt lat="41.924658" lon="0.134701">
        <ele>280.782</ele>
        <time>2020-08-23T10:23:16Z</time>
      </trkpt>
      <trkpt lat="41.924688" lon="0.134652">
        <ele>280.658</ele>
        <time>2020-08-23T10:23:17Z</time>
      </trkpt>
      <trkpt lat="41.924718" lon="0.134600">
        <ele>280.617</ele>
        <time>2020-08-23T10:23:18Z</time>
      </trkpt>
      <trkpt lat="41.924746" lon="0.134552">
        <ele>280.519</ele>
        <time>2020-08-23T10:23:19Z</time>
      </trkpt>
      <trkpt lat="41.924782" lon="0.134510">
        <ele>280.509</ele>
        <time>2020-08-23T10:23:20Z</time>
      </trkpt>
      <trkpt lat="41.924814" lon="0.134464">
        <ele>280.519</ele>
        <time>2020-08-23T10:23:21Z</time>
      </trkpt>
      <trkpt lat="41.924848" lon="0.134415">
        <ele>280.508</ele>
        <time>2020-08-23T10:23:22Z</time>
      </trkpt>
      <trkpt lat="41.924878" lon="0.134364">
        <ele>280.516</ele>
        <time>2020-08-23T10:23:23Z</time>
      </trkpt>
      <trkpt lat="41.924906" lon="0.134309">
        <ele>280.596</ele>
        <time>2020-08-23T10:23:24Z</time>
      </trkpt>
      <trkpt lat="41.924932" lon="0.134251">
        <ele>280.564</ele>
        <time>2020-08-23T10:23:25Z</time>
      </trkpt>
      <trkpt lat="41.924955" lon="0.134184">
        <ele>280.556</ele>
        <time>2020-08-23T10:23:26Z</time>
      </trkpt>
      <trkpt lat="41.924982" lon="0.134126">
        <ele>280.547</ele>
        <time>2020-08-23T10:23:27Z</time>
      </trkpt>
      <trkpt lat="41.925016" lon="0.134077">
        <ele>280.648</ele>
        <time>2020-08-23T10:23:28Z</time>
      </trkpt>
      <trkpt lat="41.925048" lon="0.134028">
        <ele>280.684</ele>
        <time>2020-08-23T10:23:29Z</time>
      </trkpt>
      <trkpt lat="41.925079" lon="0.133975">
        <ele>280.653</ele>
        <time>2020-08-23T10:23:30Z</time>
      </trkpt>
      <trkpt lat="41.925113" lon="0.133931">
        <ele>280.677</ele>
        <time>2020-08-23T10:23:31Z</time>
      </trkpt>
      <trkpt lat="41.925149" lon="0.133877">
        <ele>280.661</ele>
        <time>2020-08-23T10:23:32Z</time>
      </trkpt>
      <trkpt lat="41.925182" lon="0.133820">
        <ele>280.627</ele>
        <time>2020-08-23T10:23:33Z</time>
      </trkpt>
      <trkpt lat="41.925219" lon="0.133763">
        <ele>280.608</ele>
        <time>2020-08-23T10:23:34Z</time>
      </trkpt>
      <trkpt lat="41.925260" lon="0.133704">
        <ele>280.682</ele>
        <time>2020-08-23T10:23:35Z</time>
      </trkpt>
      <trkpt lat="41.925297" lon="0.133644">
        <ele>280.612</ele>
        <time>2020-08-23T10:23:36Z</time>
      </trkpt>
      <trkpt lat="41.925332" lon="0.133585">
        <ele>280.510</ele>
        <time>2020-08-23T10:23:37Z</time>
      </trkpt>
      <trkpt lat="41.925363" lon="0.133512">
        <ele>280.572</ele>
        <time>2020-08-23T10:23:38Z</time>
      </trkpt>
      <trkpt lat="41.925382" lon="0.133437">
        <ele>280.493</ele>
        <time>2020-08-23T10:23:39Z</time>
      </trkpt>
      <trkpt lat="41.925403" lon="0.133370">
        <ele>280.424</ele>
        <time>2020-08-23T10:23:40Z</time>
      </trkpt>
      <trkpt lat="41.925426" lon="0.133307">
        <ele>280.410</ele>
        <time>2020-08-23T10:23:41Z</time>
      </trkpt>
      <trkpt lat="41.925444" lon="0.133250">
        <ele>280.469</ele>
        <time>2020-08-23T10:23:42Z</time>
      </trkpt>
      <trkpt lat="41.925460" lon="0.133180">
        <ele>280.424</ele>
        <time>2020-08-23T10:23:43Z</time>
      </trkpt>
      <trkpt lat="41.925477" lon="0.133101">
        <ele>280.404</ele>
        <time>2020-08-23T10:23:44Z</time>
      </trkpt>
      <trkpt lat="41.925503" lon="0.133032">
        <ele>280.414</ele>
        <time>2020-08-23T10:23:45Z</time>
      </trkpt>
      <trkpt lat="41.925524" lon="0.132962">
        <ele>280.408</ele>
        <time>2020-08-23T10:23:46Z</time>
      </trkpt>
      <trkpt lat="41.925547" lon="0.132889">
        <ele>280.427</ele>
        <time>2020-08-23T10:23:47Z</time>
      </trkpt>
      <trkpt lat="41.925567" lon="0.132819">
        <ele>280.487</ele>
        <time>2020-08-23T10:23:48Z</time>
      </trkpt>
      <trkpt lat="41.925583" lon="0.132752">
        <ele>280.465</ele>
        <time>2020-08-23T10:23:49Z</time>
      </trkpt>
      <trkpt lat="41.925600" lon="0.132678">
        <ele>280.417</ele>
        <time>2020-08-23T10:23:50Z</time>
      </trkpt>
      <trkpt lat="41.925618" lon="0.132600">
        <ele>280.418</ele>
        <time>2020-08-23T10:23:51Z</time>
      </trkpt>
      <trkpt lat="41.925639" lon="0.132520">
        <ele>280.469</ele>
        <time>2020-08-23T10:23:52Z</time>
      </trkpt>
      <trkpt lat="41.925656" lon="0.132452">
        <ele>280.355</ele>
        <time>2020-08-23T10:23:53Z</time>
      </trkpt>
      <trkpt lat="41.925675" lon="0.132382">
        <ele>280.224</ele>
        <time>2020-08-23T10:23:54Z</time>
      </trkpt>
      <trkpt lat="41.925694" lon="0.132305">
        <ele>280.194</ele>
        <time>2020-08-23T10:23:55Z</time>
      </trkpt>
      <trkpt lat="41.925715" lon="0.132229">
        <ele>280.057</ele>
        <time>2020-08-23T10:23:56Z</time>
      </trkpt>
      <trkpt lat="41.925731" lon="0.132170">
        <ele>280.022</ele>
        <time>2020-08-23T10:23:57Z</time>
      </trkpt>
      <trkpt lat="41.925751" lon="0.132101">
        <ele>280.008</ele>
        <time>2020-08-23T10:23:58Z</time>
      </trkpt>
      <trkpt lat="41.925771" lon="0.132026">
        <ele>280.044</ele>
        <time>2020-08-23T10:23:59Z</time>
      </trkpt>
      <trkpt lat="41.925795" lon="0.131953">
        <ele>280.014</ele>
        <time>2020-08-23T10:24:00Z</time>
      </trkpt>
      <trkpt lat="41.925813" lon="0.131883">
        <ele>279.932</ele>
        <time>2020-08-23T10:24:01Z</time>
      </trkpt>
      <trkpt lat="41.925832" lon="0.131810">
        <ele>279.924</ele>
        <time>2020-08-23T10:24:02Z</time>
      </trkpt>
      <trkpt lat="41.925851" lon="0.131736">
        <ele>279.985</ele>
        <time>2020-08-23T10:24:03Z</time>
      </trkpt>
      <trkpt lat="41.925868" lon="0.131658">
        <ele>279.976</ele>
        <time>2020-08-23T10:24:04Z</time>
      </trkpt>
      <trkpt lat="41.925888" lon="0.131579">
        <ele>279.992</ele>
        <time>2020-08-23T10:24:05Z</time>
      </trkpt>
      <trkpt lat="41.925910" lon="0.131507">
        <ele>280.011</ele>
        <time>2020-08-23T10:24:06Z</time>
      </trkpt>
      <trkpt lat="41.925936" lon="0.131434">
        <ele>280.015</ele>
        <time>2020-08-23T10:24:07Z</time>
      </trkpt>
      <trkpt lat="41.925961" lon="0.131363">
        <ele>280.065</ele>
        <time>2020-08-23T10:24:08Z</time>
      </trkpt>
      <trkpt lat="41.925980" lon="0.131292">
        <ele>280.011</ele>
        <time>2020-08-23T10:24:09Z</time>
      </trkpt>
      <trkpt lat="41.926002" lon="0.131222">
        <ele>280.008</ele>
        <time>2020-08-23T10:24:10Z</time>
      </trkpt>
      <trkpt lat="41.926023" lon="0.131150">
        <ele>280.026</ele>
        <time>2020-08-23T10:24:11Z</time>
      </trkpt>
      <trkpt lat="41.926040" lon="0.131085">
        <ele>280.086</ele>
        <time>2020-08-23T10:24:12Z</time>
      </trkpt>
      <trkpt lat="41.926056" lon="0.131026">
        <ele>280.154</ele>
        <time>2020-08-23T10:24:13Z</time>
      </trkpt>
      <trkpt lat="41.926067" lon="0.130958">
        <ele>280.156</ele>
        <time>2020-08-23T10:24:14Z</time>
      </trkpt>
      <trkpt lat="41.926085" lon="0.130895">
        <ele>280.157</ele>
        <time>2020-08-23T10:24:15Z</time>
      </trkpt>
      <trkpt lat="41.926107" lon="0.130827">
        <ele>280.118</ele>
        <time>2020-08-23T10:24:16Z</time>
      </trkpt>
      <trkpt lat="41.926124" lon="0.130756">
        <ele>280.124</ele>
        <time>2020-08-23T10:24:17Z</time>
      </trkpt>
      <trkpt lat="41.926138" lon="0.130674">
        <ele>280.133</ele>
        <time>2020-08-23T10:24:18Z</time>
      </trkpt>
      <trkpt lat="41.926152" lon="0.130596">
        <ele>280.174</ele>
        <time>2020-08-23T10:24:19Z</time>
      </trkpt>
      <trkpt lat="41.926168" lon="0.130532">
        <ele>280.156</ele>
        <time>2020-08-23T10:24:20Z</time>
      </trkpt>
      <trkpt lat="41.926185" lon="0.130463">
        <ele>280.021</ele>
        <time>2020-08-23T10:24:21Z</time>
      </trkpt>
      <trkpt lat="41.926200" lon="0.130397">
        <ele>280.008</ele>
        <time>2020-08-23T10:24:22Z</time>
      </trkpt>
      <trkpt lat="41.926219" lon="0.130334">
        <ele>280.052</ele>
        <time>2020-08-23T10:24:23Z</time>
      </trkpt>
      <trkpt lat="41.926246" lon="0.130273">
        <ele>280.042</ele>
        <time>2020-08-23T10:24:24Z</time>
      </trkpt>
      <trkpt lat="41.926269" lon="0.130213">
        <ele>280.050</ele>
        <time>2020-08-23T10:24:25Z</time>
      </trkpt>
      <trkpt lat="41.926294" lon="0.130141">
        <ele>280.012</ele>
        <time>2020-08-23T10:24:26Z</time>
      </trkpt>
      <trkpt lat="41.926318" lon="0.130071">
        <ele>279.923</ele>
        <time>2020-08-23T10:24:27Z</time>
      </trkpt>
      <trkpt lat="41.926343" lon="0.130003">
        <ele>279.974</ele>
        <time>2020-08-23T10:24:28Z</time>
      </trkpt>
      <trkpt lat="41.926366" lon="0.129938">
        <ele>279.930</ele>
        <time>2020-08-23T10:24:29Z</time>
      </trkpt>
      <trkpt lat="41.926391" lon="0.129875">
        <ele>279.919</ele>
        <time>2020-08-23T10:24:30Z</time>
      </trkpt>
      <trkpt lat="41.926415" lon="0.129812">
        <ele>279.972</ele>
        <time>2020-08-23T10:24:31Z</time>
      </trkpt>
      <trkpt lat="41.926440" lon="0.129743">
        <ele>279.913</ele>
        <time>2020-08-23T10:24:32Z</time>
      </trkpt>
      <trkpt lat="41.926461" lon="0.129679">
        <ele>279.814</ele>
        <time>2020-08-23T10:24:33Z</time>
      </trkpt>
      <trkpt lat="41.926485" lon="0.129613">
        <ele>279.708</ele>
        <time>2020-08-23T10:24:34Z</time>
      </trkpt>
      <trkpt lat="41.926511" lon="0.129550">
        <ele>279.662</ele>
        <time>2020-08-23T10:24:35Z</time>
      </trkpt>
      <trkpt lat="41.926537" lon="0.129488">
        <ele>279.642</ele>
        <time>2020-08-23T10:24:36Z</time>
      </trkpt>
      <trkpt lat="41.926561" lon="0.129426">
        <ele>279.650</ele>
        <time>2020-08-23T10:24:37Z</time>
      </trkpt>
      <trkpt lat="41.926584" lon="0.129365">
        <ele>279.632</ele>
        <time>2020-08-23T10:24:38Z</time>
      </trkpt>
      <trkpt lat="41.926608" lon="0.129300">
        <ele>279.623</ele>
        <time>2020-08-23T10:24:39Z</time>
      </trkpt>
      <trkpt lat="41.926626" lon="0.129239">
        <ele>279.654</ele>
        <time>2020-08-23T10:24:40Z</time>
      </trkpt>
      <trkpt lat="41.926650" lon="0.129172">
        <ele>279.640</ele>
        <time>2020-08-23T10:24:41Z</time>
      </trkpt>
      <trkpt lat="41.926673" lon="0.129108">
        <ele>279.659</ele>
        <time>2020-08-23T10:24:42Z</time>
      </trkpt>
      <trkpt lat="41.926698" lon="0.129046">
        <ele>279.565</ele>
        <time>2020-08-23T10:24:43Z</time>
      </trkpt>
      <trkpt lat="41.926721" lon="0.128980">
        <ele>279.568</ele>
        <time>2020-08-23T10:24:44Z</time>
      </trkpt>
      <trkpt lat="41.926747" lon="0.128914">
        <ele>279.514</ele>
        <time>2020-08-23T10:24:45Z</time>
      </trkpt>
      <trkpt lat="41.926772" lon="0.128849">
        <ele>279.408</ele>
        <time>2020-08-23T10:24:46Z</time>
      </trkpt>
      <trkpt lat="41.926799" lon="0.128783">
        <ele>279.371</ele>
        <time>2020-08-23T10:24:47Z</time>
      </trkpt>
      <trkpt lat="41.926828" lon="0.128716">
        <ele>279.381</ele>
        <time>2020-08-23T10:24:48Z</time>
      </trkpt>
      <trkpt lat="41.926863" lon="0.128651">
        <ele>279.279</ele>
        <time>2020-08-23T10:24:49Z</time>
      </trkpt>
      <trkpt lat="41.926894" lon="0.128590">
        <ele>279.131</ele>
        <time>2020-08-23T10:24:50Z</time>
      </trkpt>
      <trkpt lat="41.926923" lon="0.128528">
        <ele>279.132</ele>
        <time>2020-08-23T10:24:51Z</time>
      </trkpt>
      <trkpt lat="41.926949" lon="0.128473">
        <ele>279.113</ele>
        <time>2020-08-23T10:24:52Z</time>
      </trkpt>
      <trkpt lat="41.926978" lon="0.128416">
        <ele>279.169</ele>
        <time>2020-08-23T10:24:53Z</time>
      </trkpt>
      <trkpt lat="41.927001" lon="0.128351">
        <ele>279.128</ele>
        <time>2020-08-23T10:24:54Z</time>
      </trkpt>
      <trkpt lat="41.927025" lon="0.128286">
        <ele>279.151</ele>
        <time>2020-08-23T10:24:55Z</time>
      </trkpt>
      <trkpt lat="41.927048" lon="0.128225">
        <ele>279.101</ele>
        <time>2020-08-23T10:24:56Z</time>
      </trkpt>
      <trkpt lat="41.927068" lon="0.128160">
        <ele>279.111</ele>
        <time>2020-08-23T10:24:57Z</time>
      </trkpt>
      <trkpt lat="41.927098" lon="0.128099">
        <ele>279.108</ele>
        <time>2020-08-23T10:24:58Z</time>
      </trkpt>
      <trkpt lat="41.927125" lon="0.128033">
        <ele>279.190</ele>
        <time>2020-08-23T10:24:59Z</time>
      </trkpt>
      <trkpt lat="41.927156" lon="0.127961">
        <ele>279.110</ele>
        <time>2020-08-23T10:25:00Z</time>
      </trkpt>
      <trkpt lat="41.927187" lon="0.127894">
        <ele>279.148</ele>
        <time>2020-08-23T10:25:01Z</time>
      </trkpt>
      <trkpt lat="41.927210" lon="0.127835">
        <ele>279.180</ele>
        <time>2020-08-23T10:25:02Z</time>
      </trkpt>
      <trkpt lat="41.927238" lon="0.127774">
        <ele>279.111</ele>
        <time>2020-08-23T10:25:03Z</time>
      </trkpt>
      <trkpt lat="41.927258" lon="0.127718">
        <ele>279.112</ele>
        <time>2020-08-23T10:25:04Z</time>
      </trkpt>
      <trkpt lat="41.927283" lon="0.127652">
        <ele>279.128</ele>
        <time>2020-08-23T10:25:05Z</time>
      </trkpt>
      <trkpt lat="41.927312" lon="0.127586">
        <ele>279.177</ele>
        <time>2020-08-23T10:25:06Z</time>
      </trkpt>
      <trkpt lat="41.927348" lon="0.127524">
        <ele>279.117</ele>
        <time>2020-08-23T10:25:07Z</time>
      </trkpt>
      <trkpt lat="41.927375" lon="0.127471">
        <ele>279.087</ele>
        <time>2020-08-23T10:25:08Z</time>
      </trkpt>
      <trkpt lat="41.927403" lon="0.127407">
        <ele>279.015</ele>
        <time>2020-08-23T10:25:09Z</time>
      </trkpt>
      <trkpt lat="41.927442" lon="0.127291">
        <ele>279.008</ele>
        <time>2020-08-23T10:25:11Z</time>
      </trkpt>
      <trkpt lat="41.927460" lon="0.127229">
        <ele>279.036</ele>
        <time>2020-08-23T10:25:12Z</time>
      </trkpt>
      <trkpt lat="41.927482" lon="0.127173">
        <ele>279.046</ele>
        <time>2020-08-23T10:25:13Z</time>
      </trkpt>
      <trkpt lat="41.927499" lon="0.127117">
        <ele>279.094</ele>
        <time>2020-08-23T10:25:14Z</time>
      </trkpt>
      <trkpt lat="41.927524" lon="0.127063">
        <ele>279.056</ele>
        <time>2020-08-23T10:25:15Z</time>
      </trkpt>
      <trkpt lat="41.927545" lon="0.127003">
        <ele>279.087</ele>
        <time>2020-08-23T10:25:16Z</time>
      </trkpt>
      <trkpt lat="41.927570" lon="0.126945">
        <ele>279.058</ele>
        <time>2020-08-23T10:25:17Z</time>
      </trkpt>
      <trkpt lat="41.927594" lon="0.126892">
        <ele>279.044</ele>
        <time>2020-08-23T10:25:18Z</time>
      </trkpt>
      <trkpt lat="41.927616" lon="0.126831">
        <ele>279.063</ele>
        <time>2020-08-23T10:25:19Z</time>
      </trkpt>
      <trkpt lat="41.927636" lon="0.126771">
        <ele>279.075</ele>
        <time>2020-08-23T10:25:20Z</time>
      </trkpt>
      <trkpt lat="41.927655" lon="0.126713">
        <ele>279.028</ele>
        <time>2020-08-23T10:25:21Z</time>
      </trkpt>
      <trkpt lat="41.927684" lon="0.126645">
        <ele>279.020</ele>
        <time>2020-08-23T10:25:22Z</time>
      </trkpt>
      <trkpt lat="41.927712" lon="0.126580">
        <ele>279.008</ele>
        <time>2020-08-23T10:25:23Z</time>
      </trkpt>
      <trkpt lat="41.927743" lon="0.126527">
        <ele>279.082</ele>
        <time>2020-08-23T10:25:24Z</time>
      </trkpt>
      <trkpt lat="41.927777" lon="0.126473">
        <ele>279.072</ele>
        <time>2020-08-23T10:25:25Z</time>
      </trkpt>
      <trkpt lat="41.927806" lon="0.126415">
        <ele>279.030</ele>
        <time>2020-08-23T10:25:26Z</time>
      </trkpt>
      <trkpt lat="41.927834" lon="0.126360">
        <ele>278.932</ele>
        <time>2020-08-23T10:25:27Z</time>
      </trkpt>
      <trkpt lat="41.927891" lon="0.126258">
        <ele>278.993</ele>
        <time>2020-08-23T10:25:29Z</time>
      </trkpt>
      <trkpt lat="41.927923" lon="0.126214">
        <ele>278.934</ele>
        <time>2020-08-23T10:25:30Z</time>
      </trkpt>
      <trkpt lat="41.927955" lon="0.126167">
        <ele>278.930</ele>
        <time>2020-08-23T10:25:31Z</time>
      </trkpt>
      <trkpt lat="41.928007" lon="0.126074">
        <ele>279.139</ele>
        <time>2020-08-23T10:25:33Z</time>
      </trkpt>
      <trkpt lat="41.928070" lon="0.125989">
        <ele>279.253</ele>
        <time>2020-08-23T10:25:35Z</time>
      </trkpt>
      <trkpt lat="41.928105" lon="0.125943">
        <ele>279.204</ele>
        <time>2020-08-23T10:25:36Z</time>
      </trkpt>
      <trkpt lat="41.928143" lon="0.125899">
        <ele>279.114</ele>
        <time>2020-08-23T10:25:37Z</time>
      </trkpt>
      <trkpt lat="41.928184" lon="0.125856">
        <ele>279.108</ele>
        <time>2020-08-23T10:25:38Z</time>
      </trkpt>
      <trkpt lat="41.928229" lon="0.125816">
        <ele>279.160</ele>
        <time>2020-08-23T10:25:39Z</time>
      </trkpt>
      <trkpt lat="41.928270" lon="0.125781">
        <ele>279.180</ele>
        <time>2020-08-23T10:25:40Z</time>
      </trkpt>
      <trkpt lat="41.928313" lon="0.125743">
        <ele>279.288</ele>
        <time>2020-08-23T10:25:41Z</time>
      </trkpt>
      <trkpt lat="41.928349" lon="0.125704">
        <ele>279.350</ele>
        <time>2020-08-23T10:25:42Z</time>
      </trkpt>
      <trkpt lat="41.928420" lon="0.125632">
        <ele>279.451</ele>
        <time>2020-08-23T10:25:44Z</time>
      </trkpt>
      <trkpt lat="41.928465" lon="0.125595">
        <ele>279.412</ele>
        <time>2020-08-23T10:25:45Z</time>
      </trkpt>
      <trkpt lat="41.928505" lon="0.125556">
        <ele>279.428</ele>
        <time>2020-08-23T10:25:46Z</time>
      </trkpt>
      <trkpt lat="41.928567" lon="0.125470">
        <ele>279.557</ele>
        <time>2020-08-23T10:25:48Z</time>
      </trkpt>
      <trkpt lat="41.928622" lon="0.125385">
        <ele>279.584</ele>
        <time>2020-08-23T10:25:50Z</time>
      </trkpt>
      <trkpt lat="41.928651" lon="0.125338">
        <ele>279.507</ele>
        <time>2020-08-23T10:25:51Z</time>
      </trkpt>
      <trkpt lat="41.928678" lon="0.125288">
        <ele>279.517</ele>
        <time>2020-08-23T10:25:52Z</time>
      </trkpt>
      <trkpt lat="41.928705" lon="0.125237">
        <ele>279.508</ele>
        <time>2020-08-23T10:25:53Z</time>
      </trkpt>
      <trkpt lat="41.928755" lon="0.125139">
        <ele>279.693</ele>
        <time>2020-08-23T10:25:55Z</time>
      </trkpt>
      <trkpt lat="41.928794" lon="0.125040">
        <ele>279.793</ele>
        <time>2020-08-23T10:25:57Z</time>
      </trkpt>
      <trkpt lat="41.928833" lon="0.124945">
        <ele>279.861</ele>
        <time>2020-08-23T10:25:59Z</time>
      </trkpt>
      <trkpt lat="41.928871" lon="0.124851">
        <ele>279.963</ele>
        <time>2020-08-23T10:26:01Z</time>
      </trkpt>
      <trkpt lat="41.928911" lon="0.124753">
        <ele>280.084</ele>
        <time>2020-08-23T10:26:03Z</time>
      </trkpt>
      <trkpt lat="41.928933" lon="0.124698">
        <ele>280.015</ele>
        <time>2020-08-23T10:26:04Z</time>
      </trkpt>
      <trkpt lat="41.928957" lon="0.124641">
        <ele>280.031</ele>
        <time>2020-08-23T10:26:05Z</time>
      </trkpt>
      <trkpt lat="41.929001" lon="0.124528">
        <ele>280.140</ele>
        <time>2020-08-23T10:26:07Z</time>
      </trkpt>
      <trkpt lat="41.929016" lon="0.124464">
        <ele>280.183</ele>
        <time>2020-08-23T10:26:08Z</time>
      </trkpt>
      <trkpt lat="41.929038" lon="0.124402">
        <ele>280.225</ele>
        <time>2020-08-23T10:26:09Z</time>
      </trkpt>
      <trkpt lat="41.929080" lon="0.124305">
        <ele>280.217</ele>
        <time>2020-08-23T10:26:11Z</time>
      </trkpt>
      <trkpt lat="41.929114" lon="0.124205">
        <ele>280.308</ele>
        <time>2020-08-23T10:26:13Z</time>
      </trkpt>
      <trkpt lat="41.929152" lon="0.124095">
        <ele>280.413</ele>
        <time>2020-08-23T10:26:15Z</time>
      </trkpt>
      <trkpt lat="41.929170" lon="0.124037">
        <ele>280.443</ele>
        <time>2020-08-23T10:26:16Z</time>
      </trkpt>
      <trkpt lat="41.929194" lon="0.123979">
        <ele>280.561</ele>
        <time>2020-08-23T10:26:17Z</time>
      </trkpt>
      <trkpt lat="41.929243" lon="0.123865">
        <ele>280.523</ele>
        <time>2020-08-23T10:26:19Z</time>
      </trkpt>
      <trkpt lat="41.929265" lon="0.123807">
        <ele>280.594</ele>
        <time>2020-08-23T10:26:20Z</time>
      </trkpt>
      <trkpt lat="41.929286" lon="0.123751">
        <ele>280.575</ele>
        <time>2020-08-23T10:26:21Z</time>
      </trkpt>
      <trkpt lat="41.929322" lon="0.123642">
        <ele>280.651</ele>
        <time>2020-08-23T10:26:23Z</time>
      </trkpt>
      <trkpt lat="41.929353" lon="0.123536">
        <ele>280.790</ele>
        <time>2020-08-23T10:26:25Z</time>
      </trkpt>
      <trkpt lat="41.929354" lon="0.123439">
        <ele>280.828</ele>
        <time>2020-08-23T10:26:27Z</time>
      </trkpt>
      <trkpt lat="41.929340" lon="0.123350">
        <ele>281.089</ele>
        <time>2020-08-23T10:26:29Z</time>
      </trkpt>
      <trkpt lat="41.929315" lon="0.123289">
        <ele>281.217</ele>
        <time>2020-08-23T10:26:31Z</time>
      </trkpt>
      <trkpt lat="41.929289" lon="0.123231">
        <ele>281.308</ele>
        <time>2020-08-23T10:26:33Z</time>
      </trkpt>
      <trkpt lat="41.929263" lon="0.123142">
        <ele>281.417</ele>
        <time>2020-08-23T10:26:35Z</time>
      </trkpt>
      <trkpt lat="41.929233" lon="0.123054">
        <ele>281.617</ele>
        <time>2020-08-23T10:26:37Z</time>
      </trkpt>
      <trkpt lat="41.929202" lon="0.122961">
        <ele>281.855</ele>
        <time>2020-08-23T10:26:39Z</time>
      </trkpt>
      <trkpt lat="41.929173" lon="0.122875">
        <ele>282.267</ele>
        <time>2020-08-23T10:26:41Z</time>
      </trkpt>
      <trkpt lat="41.929160" lon="0.122800">
        <ele>282.618</ele>
        <time>2020-08-23T10:26:43Z</time>
      </trkpt>
      <trkpt lat="41.929144" lon="0.122733">
        <ele>282.729</ele>
        <time>2020-08-23T10:26:45Z</time>
      </trkpt>
      <trkpt lat="41.929131" lon="0.122650">
        <ele>282.885</ele>
        <time>2020-08-23T10:26:47Z</time>
      </trkpt>
      <trkpt lat="41.929108" lon="0.122575">
        <ele>283.154</ele>
        <time>2020-08-23T10:26:49Z</time>
      </trkpt>
      <trkpt lat="41.929088" lon="0.122491">
        <ele>283.336</ele>
        <time>2020-08-23T10:26:51Z</time>
      </trkpt>
      <trkpt lat="41.929083" lon="0.122403">
        <ele>283.517</ele>
        <time>2020-08-23T10:26:53Z</time>
      </trkpt>
      <trkpt lat="41.929066" lon="0.122298">
        <ele>283.618</ele>
        <time>2020-08-23T10:26:55Z</time>
      </trkpt>
      <trkpt lat="41.929035" lon="0.122195">
        <ele>283.708</ele>
        <time>2020-08-23T10:26:57Z</time>
      </trkpt>
      <trkpt lat="41.929004" lon="0.122095">
        <ele>283.798</ele>
        <time>2020-08-23T10:26:59Z</time>
      </trkpt>
      <trkpt lat="41.928989" lon="0.121987">
        <ele>283.728</ele>
        <time>2020-08-23T10:27:01Z</time>
      </trkpt>
      <trkpt lat="41.928979" lon="0.121876">
        <ele>283.616</ele>
        <time>2020-08-23T10:27:03Z</time>
      </trkpt>
      <trkpt lat="41.928979" lon="0.121801">
        <ele>283.568</ele>
        <time>2020-08-23T10:27:04Z</time>
      </trkpt>
      <trkpt lat="41.928978" lon="0.121691">
        <ele>283.319</ele>
        <time>2020-08-23T10:27:06Z</time>
      </trkpt>
      <trkpt lat="41.928976" lon="0.121576">
        <ele>283.230</ele>
        <time>2020-08-23T10:27:08Z</time>
      </trkpt>
      <trkpt lat="41.928971" lon="0.121461">
        <ele>283.066</ele>
        <time>2020-08-23T10:27:10Z</time>
      </trkpt>
      <trkpt lat="41.928970" lon="0.121397">
        <ele>282.925</ele>
        <time>2020-08-23T10:27:11Z</time>
      </trkpt>
      <trkpt lat="41.928967" lon="0.121333">
        <ele>282.799</ele>
        <time>2020-08-23T10:27:12Z</time>
      </trkpt>
      <trkpt lat="41.928960" lon="0.121258">
        <ele>282.607</ele>
        <time>2020-08-23T10:27:13Z</time>
      </trkpt>
      <trkpt lat="41.928951" lon="0.121192">
        <ele>282.527</ele>
        <time>2020-08-23T10:27:14Z</time>
      </trkpt>
      <trkpt lat="41.928947" lon="0.121124">
        <ele>282.408</ele>
        <time>2020-08-23T10:27:15Z</time>
      </trkpt>
      <trkpt lat="41.928950" lon="0.121052">
        <ele>282.314</ele>
        <time>2020-08-23T10:27:16Z</time>
      </trkpt>
      <trkpt lat="41.928947" lon="0.120980">
        <ele>282.244</ele>
        <time>2020-08-23T10:27:17Z</time>
      </trkpt>
      <trkpt lat="41.928944" lon="0.120908">
        <ele>282.172</ele>
        <time>2020-08-23T10:27:18Z</time>
      </trkpt>
      <trkpt lat="41.928940" lon="0.120834">
        <ele>282.014</ele>
        <time>2020-08-23T10:27:19Z</time>
      </trkpt>
      <trkpt lat="41.928938" lon="0.120755">
        <ele>281.945</ele>
        <time>2020-08-23T10:27:20Z</time>
      </trkpt>
      <trkpt lat="41.928936" lon="0.120666">
        <ele>281.746</ele>
        <time>2020-08-23T10:27:21Z</time>
      </trkpt>
      <trkpt lat="41.928933" lon="0.120578">
        <ele>281.512</ele>
        <time>2020-08-23T10:27:22Z</time>
      </trkpt>
      <trkpt lat="41.928930" lon="0.120497">
        <ele>281.371</ele>
        <time>2020-08-23T10:27:23Z</time>
      </trkpt>
      <trkpt lat="41.928932" lon="0.120428">
        <ele>281.134</ele>
        <time>2020-08-23T10:27:24Z</time>
      </trkpt>
      <trkpt lat="41.928934" lon="0.120355">
        <ele>280.955</ele>
        <time>2020-08-23T10:27:25Z</time>
      </trkpt>
      <trkpt lat="41.928935" lon="0.120280">
        <ele>280.710</ele>
        <time>2020-08-23T10:27:26Z</time>
      </trkpt>
      <trkpt lat="41.928933" lon="0.120196">
        <ele>280.508</ele>
        <time>2020-08-23T10:27:27Z</time>
      </trkpt>
      <trkpt lat="41.928927" lon="0.120116">
        <ele>280.498</ele>
        <time>2020-08-23T10:27:28Z</time>
      </trkpt>
      <trkpt lat="41.928925" lon="0.120033">
        <ele>280.358</ele>
        <time>2020-08-23T10:27:29Z</time>
      </trkpt>
      <trkpt lat="41.928923" lon="0.119954">
        <ele>280.376</ele>
        <time>2020-08-23T10:27:30Z</time>
      </trkpt>
      <trkpt lat="41.928926" lon="0.119881">
        <ele>280.228</ele>
        <time>2020-08-23T10:27:31Z</time>
      </trkpt>
      <trkpt lat="41.928928" lon="0.119814">
        <ele>280.289</ele>
        <time>2020-08-23T10:27:32Z</time>
      </trkpt>
      <trkpt lat="41.928933" lon="0.119751">
        <ele>280.280</ele>
        <time>2020-08-23T10:27:33Z</time>
      </trkpt>
      <trkpt lat="41.928940" lon="0.119691">
        <ele>280.166</ele>
        <time>2020-08-23T10:27:34Z</time>
      </trkpt>
      <trkpt lat="41.928945" lon="0.119599">
        <ele>280.025</ele>
        <time>2020-08-23T10:27:36Z</time>
      </trkpt>
      <trkpt lat="41.928955" lon="0.119525">
        <ele>280.015</ele>
        <time>2020-08-23T10:27:40Z</time>
      </trkpt>
      <trkpt lat="41.928930" lon="0.119471">
        <ele>280.765</ele>
        <time>2020-08-23T10:28:10Z</time>
      </trkpt>
      <trkpt lat="41.928882" lon="0.119465">
        <ele>281.011</ele>
        <time>2020-08-23T10:28:14Z</time>
      </trkpt>
      <trkpt lat="41.928837" lon="0.119441">
        <ele>281.308</ele>
        <time>2020-08-23T10:28:23Z</time>
      </trkpt>
      <trkpt lat="41.928795" lon="0.119401">
        <ele>280.946</ele>
        <time>2020-08-23T10:29:18Z</time>
      </trkpt>
      <trkpt lat="41.928757" lon="0.119438">
        <ele>281.356</ele>
        <time>2020-08-23T10:31:39Z</time>
      </trkpt>
      <trkpt lat="41.928732" lon="0.119376">
        <ele>281.434</ele>
        <time>2020-08-23T10:40:09Z</time>
      </trkpt>
      <trkpt lat="41.928769" lon="0.119412">
        <ele>281.556</ele>
        <time>2020-08-23T10:40:22Z</time>
      </trkpt>
      <trkpt lat="41.928809" lon="0.119456">
        <ele>281.787</ele>
        <time>2020-08-23T10:40:41Z</time>
      </trkpt>
      <trkpt lat="41.928860" lon="0.119489">
        <ele>281.418</ele>
        <time>2020-08-23T10:40:44Z</time>
      </trkpt>
      <trkpt lat="41.928848" lon="0.119566">
        <ele>281.084</ele>
        <time>2020-08-23T10:40:47Z</time>
      </trkpt>
      <trkpt lat="41.928797" lon="0.119533">
        <ele>280.663</ele>
        <time>2020-08-23T10:40:50Z</time>
      </trkpt>
      <trkpt lat="41.928759" lon="0.119482">
        <ele>280.361</ele>
        <time>2020-08-23T10:40:52Z</time>
      </trkpt>
      <trkpt lat="41.928696" lon="0.119450">
        <ele>280.021</ele>
        <time>2020-08-23T10:40:54Z</time>
      </trkpt>
      <trkpt lat="41.928624" lon="0.119400">
        <ele>279.813</ele>
        <time>2020-08-23T10:40:56Z</time>
      </trkpt>
      <trkpt lat="41.928582" lon="0.119372">
        <ele>279.708</ele>
        <time>2020-08-23T10:40:57Z</time>
      </trkpt>
      <trkpt lat="41.928533" lon="0.119347">
        <ele>279.651</ele>
        <time>2020-08-23T10:40:58Z</time>
      </trkpt>
      <trkpt lat="41.928482" lon="0.119324">
        <ele>279.511</ele>
        <time>2020-08-23T10:40:59Z</time>
      </trkpt>
      <trkpt lat="41.928439" lon="0.119301">
        <ele>279.379</ele>
        <time>2020-08-23T10:41:00Z</time>
      </trkpt>
      <trkpt lat="41.928371" lon="0.119261">
        <ele>278.851</ele>
        <time>2020-08-23T10:41:02Z</time>
      </trkpt>
      <trkpt lat="41.928286" lon="0.119213">
        <ele>278.282</ele>
        <time>2020-08-23T10:41:04Z</time>
      </trkpt>
      <trkpt lat="41.928238" lon="0.119186">
        <ele>278.043</ele>
        <time>2020-08-23T10:41:05Z</time>
      </trkpt>
      <trkpt lat="41.928190" lon="0.119157">
        <ele>277.839</ele>
        <time>2020-08-23T10:41:06Z</time>
      </trkpt>
      <trkpt lat="41.928139" lon="0.119122">
        <ele>277.668</ele>
        <time>2020-08-23T10:41:07Z</time>
      </trkpt>
      <trkpt lat="41.928083" lon="0.119091">
        <ele>277.443</ele>
        <time>2020-08-23T10:41:08Z</time>
      </trkpt>
      <trkpt lat="41.928027" lon="0.119058">
        <ele>277.164</ele>
        <time>2020-08-23T10:41:09Z</time>
      </trkpt>
      <trkpt lat="41.927970" lon="0.119026">
        <ele>276.810</ele>
        <time>2020-08-23T10:41:10Z</time>
      </trkpt>
      <trkpt lat="41.927911" lon="0.118992">
        <ele>276.508</ele>
        <time>2020-08-23T10:41:11Z</time>
      </trkpt>
      <trkpt lat="41.927855" lon="0.118951">
        <ele>276.349</ele>
        <time>2020-08-23T10:41:12Z</time>
      </trkpt>
      <trkpt lat="41.927799" lon="0.118908">
        <ele>276.179</ele>
        <time>2020-08-23T10:41:13Z</time>
      </trkpt>
      <trkpt lat="41.927741" lon="0.118871">
        <ele>275.967</ele>
        <time>2020-08-23T10:41:14Z</time>
      </trkpt>
      <trkpt lat="41.927686" lon="0.118835">
        <ele>275.719</ele>
        <time>2020-08-23T10:41:15Z</time>
      </trkpt>
      <trkpt lat="41.927637" lon="0.118801">
        <ele>275.570</ele>
        <time>2020-08-23T10:41:16Z</time>
      </trkpt>
      <trkpt lat="41.927598" lon="0.118764">
        <ele>275.371</ele>
        <time>2020-08-23T10:41:17Z</time>
      </trkpt>
      <trkpt lat="41.927547" lon="0.118681">
        <ele>274.937</ele>
        <time>2020-08-23T10:41:19Z</time>
      </trkpt>
      <trkpt lat="41.927554" lon="0.118564">
        <ele>274.576</ele>
        <time>2020-08-23T10:41:21Z</time>
      </trkpt>
      <trkpt lat="41.927589" lon="0.118515">
        <ele>274.494</ele>
        <time>2020-08-23T10:41:22Z</time>
      </trkpt>
      <trkpt lat="41.927623" lon="0.118471">
        <ele>274.357</ele>
        <time>2020-08-23T10:41:23Z</time>
      </trkpt>
      <trkpt lat="41.927684" lon="0.118379">
        <ele>274.422</ele>
        <time>2020-08-23T10:41:25Z</time>
      </trkpt>
      <trkpt lat="41.927720" lon="0.118328">
        <ele>274.508</ele>
        <time>2020-08-23T10:41:26Z</time>
      </trkpt>
      <trkpt lat="41.927753" lon="0.118277">
        <ele>274.534</ele>
        <time>2020-08-23T10:41:27Z</time>
      </trkpt>
      <trkpt lat="41.927784" lon="0.118228">
        <ele>274.524</ele>
        <time>2020-08-23T10:41:28Z</time>
      </trkpt>
      <trkpt lat="41.927816" lon="0.118177">
        <ele>274.512</ele>
        <time>2020-08-23T10:41:29Z</time>
      </trkpt>
      <trkpt lat="41.927850" lon="0.118130">
        <ele>274.564</ele>
        <time>2020-08-23T10:41:30Z</time>
      </trkpt>
      <trkpt lat="41.927881" lon="0.118079">
        <ele>274.575</ele>
        <time>2020-08-23T10:41:31Z</time>
      </trkpt>
      <trkpt lat="41.927911" lon="0.118028">
        <ele>274.656</ele>
        <time>2020-08-23T10:41:32Z</time>
      </trkpt>
      <trkpt lat="41.927940" lon="0.117977">
        <ele>274.652</ele>
        <time>2020-08-23T10:41:33Z</time>
      </trkpt>
      <trkpt lat="41.927966" lon="0.117919">
        <ele>274.751</ele>
        <time>2020-08-23T10:41:34Z</time>
      </trkpt>
      <trkpt lat="41.927995" lon="0.117859">
        <ele>274.811</ele>
        <time>2020-08-23T10:41:35Z</time>
      </trkpt>
      <trkpt lat="41.928029" lon="0.117798">
        <ele>274.821</ele>
        <time>2020-08-23T10:41:36Z</time>
      </trkpt>
      <trkpt lat="41.928064" lon="0.117747">
        <ele>274.803</ele>
        <time>2020-08-23T10:41:37Z</time>
      </trkpt>
      <trkpt lat="41.928098" lon="0.117697">
        <ele>274.808</ele>
        <time>2020-08-23T10:41:38Z</time>
      </trkpt>
      <trkpt lat="41.928134" lon="0.117644">
        <ele>274.866</ele>
        <time>2020-08-23T10:41:39Z</time>
      </trkpt>
      <trkpt lat="41.928173" lon="0.117589">
        <ele>274.866</ele>
        <time>2020-08-23T10:41:40Z</time>
      </trkpt>
      <trkpt lat="41.928207" lon="0.117539">
        <ele>274.814</ele>
        <time>2020-08-23T10:41:41Z</time>
      </trkpt>
      <trkpt lat="41.928239" lon="0.117494">
        <ele>274.856</ele>
        <time>2020-08-23T10:41:42Z</time>
      </trkpt>
      <trkpt lat="41.928272" lon="0.117449">
        <ele>274.967</ele>
        <time>2020-08-23T10:41:43Z</time>
      </trkpt>
      <trkpt lat="41.928304" lon="0.117400">
        <ele>275.098</ele>
        <time>2020-08-23T10:41:44Z</time>
      </trkpt>
      <trkpt lat="41.928338" lon="0.117351">
        <ele>275.174</ele>
        <time>2020-08-23T10:41:45Z</time>
      </trkpt>
      <trkpt lat="41.928371" lon="0.117297">
        <ele>275.273</ele>
        <time>2020-08-23T10:41:46Z</time>
      </trkpt>
      <trkpt lat="41.928404" lon="0.117243">
        <ele>275.339</ele>
        <time>2020-08-23T10:41:47Z</time>
      </trkpt>
      <trkpt lat="41.928435" lon="0.117191">
        <ele>275.401</ele>
        <time>2020-08-23T10:41:48Z</time>
      </trkpt>
      <trkpt lat="41.928466" lon="0.117140">
        <ele>275.521</ele>
        <time>2020-08-23T10:41:49Z</time>
      </trkpt>
      <trkpt lat="41.928498" lon="0.117088">
        <ele>275.708</ele>
        <time>2020-08-23T10:41:50Z</time>
      </trkpt>
      <trkpt lat="41.928532" lon="0.117043">
        <ele>275.998</ele>
        <time>2020-08-23T10:41:51Z</time>
      </trkpt>
      <trkpt lat="41.928566" lon="0.116999">
        <ele>276.198</ele>
        <time>2020-08-23T10:41:52Z</time>
      </trkpt>
      <trkpt lat="41.928597" lon="0.116951">
        <ele>276.386</ele>
        <time>2020-08-23T10:41:53Z</time>
      </trkpt>
      <trkpt lat="41.928630" lon="0.116900">
        <ele>276.478</ele>
        <time>2020-08-23T10:41:54Z</time>
      </trkpt>
      <trkpt lat="41.928664" lon="0.116847">
        <ele>276.569</ele>
        <time>2020-08-23T10:41:55Z</time>
      </trkpt>
      <trkpt lat="41.928695" lon="0.116793">
        <ele>276.530</ele>
        <time>2020-08-23T10:41:56Z</time>
      </trkpt>
      <trkpt lat="41.928726" lon="0.116741">
        <ele>276.526</ele>
        <time>2020-08-23T10:41:57Z</time>
      </trkpt>
      <trkpt lat="41.928760" lon="0.116691">
        <ele>276.435</ele>
        <time>2020-08-23T10:41:58Z</time>
      </trkpt>
      <trkpt lat="41.928792" lon="0.116638">
        <ele>276.344</ele>
        <time>2020-08-23T10:41:59Z</time>
      </trkpt>
      <trkpt lat="41.928822" lon="0.116585">
        <ele>276.205</ele>
        <time>2020-08-23T10:42:00Z</time>
      </trkpt>
      <trkpt lat="41.928854" lon="0.116533">
        <ele>276.215</ele>
        <time>2020-08-23T10:42:01Z</time>
      </trkpt>
      <trkpt lat="41.928886" lon="0.116479">
        <ele>276.208</ele>
        <time>2020-08-23T10:42:02Z</time>
      </trkpt>
      <trkpt lat="41.928922" lon="0.116425">
        <ele>276.269</ele>
        <time>2020-08-23T10:42:03Z</time>
      </trkpt>
      <trkpt lat="41.928959" lon="0.116371">
        <ele>276.229</ele>
        <time>2020-08-23T10:42:04Z</time>
      </trkpt>
      <trkpt lat="41.928997" lon="0.116313">
        <ele>276.227</ele>
        <time>2020-08-23T10:42:05Z</time>
      </trkpt>
      <trkpt lat="41.929035" lon="0.116254">
        <ele>276.279</ele>
        <time>2020-08-23T10:42:06Z</time>
      </trkpt>
      <trkpt lat="41.929075" lon="0.116195">
        <ele>276.250</ele>
        <time>2020-08-23T10:42:07Z</time>
      </trkpt>
      <trkpt lat="41.929116" lon="0.116133">
        <ele>276.191</ele>
        <time>2020-08-23T10:42:08Z</time>
      </trkpt>
      <trkpt lat="41.929155" lon="0.116068">
        <ele>276.037</ele>
        <time>2020-08-23T10:42:09Z</time>
      </trkpt>
      <trkpt lat="41.929196" lon="0.116008">
        <ele>275.946</ele>
        <time>2020-08-23T10:42:10Z</time>
      </trkpt>
      <trkpt lat="41.929237" lon="0.115948">
        <ele>275.893</ele>
        <time>2020-08-23T10:42:11Z</time>
      </trkpt>
      <trkpt lat="41.929277" lon="0.115885">
        <ele>275.765</ele>
        <time>2020-08-23T10:42:12Z</time>
      </trkpt>
      <trkpt lat="41.929317" lon="0.115818">
        <ele>275.621</ele>
        <time>2020-08-23T10:42:13Z</time>
      </trkpt>
      <trkpt lat="41.929362" lon="0.115750">
        <ele>275.508</ele>
        <time>2020-08-23T10:42:14Z</time>
      </trkpt>
      <trkpt lat="41.929409" lon="0.115683">
        <ele>275.464</ele>
        <time>2020-08-23T10:42:15Z</time>
      </trkpt>
      <trkpt lat="41.929455" lon="0.115615">
        <ele>275.344</ele>
        <time>2020-08-23T10:42:16Z</time>
      </trkpt>
      <trkpt lat="41.929499" lon="0.115549">
        <ele>275.232</ele>
        <time>2020-08-23T10:42:17Z</time>
      </trkpt>
      <trkpt lat="41.929545" lon="0.115486">
        <ele>275.184</ele>
        <time>2020-08-23T10:42:18Z</time>
      </trkpt>
      <trkpt lat="41.929593" lon="0.115424">
        <ele>275.185</ele>
        <time>2020-08-23T10:42:19Z</time>
      </trkpt>
      <trkpt lat="41.929640" lon="0.115358">
        <ele>275.186</ele>
        <time>2020-08-23T10:42:20Z</time>
      </trkpt>
      <trkpt lat="41.929687" lon="0.115295">
        <ele>275.142</ele>
        <time>2020-08-23T10:42:21Z</time>
      </trkpt>
      <trkpt lat="41.929735" lon="0.115233">
        <ele>275.121</ele>
        <time>2020-08-23T10:42:22Z</time>
      </trkpt>
      <trkpt lat="41.929783" lon="0.115169">
        <ele>275.166</ele>
        <time>2020-08-23T10:42:23Z</time>
      </trkpt>
      <trkpt lat="41.929828" lon="0.115102">
        <ele>275.129</ele>
        <time>2020-08-23T10:42:24Z</time>
      </trkpt>
      <trkpt lat="41.929873" lon="0.115039">
        <ele>275.121</ele>
        <time>2020-08-23T10:42:25Z</time>
      </trkpt>
      <trkpt lat="41.929918" lon="0.114976">
        <ele>275.108</ele>
        <time>2020-08-23T10:42:26Z</time>
      </trkpt>
      <trkpt lat="41.929961" lon="0.114913">
        <ele>275.121</ele>
        <time>2020-08-23T10:42:27Z</time>
      </trkpt>
      <trkpt lat="41.930005" lon="0.114850">
        <ele>275.151</ele>
        <time>2020-08-23T10:42:28Z</time>
      </trkpt>
      <trkpt lat="41.930049" lon="0.114788">
        <ele>275.159</ele>
        <time>2020-08-23T10:42:29Z</time>
      </trkpt>
      <trkpt lat="41.930092" lon="0.114727">
        <ele>275.191</ele>
        <time>2020-08-23T10:42:30Z</time>
      </trkpt>
      <trkpt lat="41.930135" lon="0.114665">
        <ele>275.252</ele>
        <time>2020-08-23T10:42:31Z</time>
      </trkpt>
      <trkpt lat="41.930177" lon="0.114602">
        <ele>275.343</ele>
        <time>2020-08-23T10:42:32Z</time>
      </trkpt>
      <trkpt lat="41.930215" lon="0.114542">
        <ele>275.439</ele>
        <time>2020-08-23T10:42:33Z</time>
      </trkpt>
      <trkpt lat="41.930254" lon="0.114484">
        <ele>275.578</ele>
        <time>2020-08-23T10:42:34Z</time>
      </trkpt>
      <trkpt lat="41.930295" lon="0.114424">
        <ele>275.538</ele>
        <time>2020-08-23T10:42:35Z</time>
      </trkpt>
      <trkpt lat="41.930335" lon="0.114366">
        <ele>275.570</ele>
        <time>2020-08-23T10:42:36Z</time>
      </trkpt>
      <trkpt lat="41.930373" lon="0.114306">
        <ele>275.517</ele>
        <time>2020-08-23T10:42:37Z</time>
      </trkpt>
      <trkpt lat="41.930412" lon="0.114248">
        <ele>275.608</ele>
        <time>2020-08-23T10:42:38Z</time>
      </trkpt>
      <trkpt lat="41.930450" lon="0.114188">
        <ele>275.628</ele>
        <time>2020-08-23T10:42:39Z</time>
      </trkpt>
      <trkpt lat="41.930489" lon="0.114129">
        <ele>275.698</ele>
        <time>2020-08-23T10:42:40Z</time>
      </trkpt>
      <trkpt lat="41.930529" lon="0.114071">
        <ele>275.676</ele>
        <time>2020-08-23T10:42:41Z</time>
      </trkpt>
      <trkpt lat="41.930570" lon="0.114012">
        <ele>275.698</ele>
        <time>2020-08-23T10:42:42Z</time>
      </trkpt>
      <trkpt lat="41.930610" lon="0.113949">
        <ele>275.739</ele>
        <time>2020-08-23T10:42:43Z</time>
      </trkpt>
      <trkpt lat="41.930650" lon="0.113890">
        <ele>275.780</ele>
        <time>2020-08-23T10:42:44Z</time>
      </trkpt>
      <trkpt lat="41.930691" lon="0.113832">
        <ele>275.896</ele>
        <time>2020-08-23T10:42:45Z</time>
      </trkpt>
      <trkpt lat="41.930730" lon="0.113772">
        <ele>275.995</ele>
        <time>2020-08-23T10:42:46Z</time>
      </trkpt>
      <trkpt lat="41.930768" lon="0.113711">
        <ele>276.055</ele>
        <time>2020-08-23T10:42:47Z</time>
      </trkpt>
      <trkpt lat="41.930805" lon="0.113648">
        <ele>276.107</ele>
        <time>2020-08-23T10:42:48Z</time>
      </trkpt>
      <trkpt lat="41.930843" lon="0.113585">
        <ele>276.217</ele>
        <time>2020-08-23T10:42:49Z</time>
      </trkpt>
      <trkpt lat="41.930884" lon="0.113522">
        <ele>276.308</ele>
        <time>2020-08-23T10:42:50Z</time>
      </trkpt>
      <trkpt lat="41.930924" lon="0.113458">
        <ele>276.320</ele>
        <time>2020-08-23T10:42:51Z</time>
      </trkpt>
      <trkpt lat="41.930966" lon="0.113393">
        <ele>276.330</ele>
        <time>2020-08-23T10:42:52Z</time>
      </trkpt>
      <trkpt lat="41.931012" lon="0.113332">
        <ele>276.348</ele>
        <time>2020-08-23T10:42:53Z</time>
      </trkpt>
      <trkpt lat="41.931057" lon="0.113270">
        <ele>276.390</ele>
        <time>2020-08-23T10:42:54Z</time>
      </trkpt>
      <trkpt lat="41.931100" lon="0.113206">
        <ele>276.221</ele>
        <time>2020-08-23T10:42:55Z</time>
      </trkpt>
      <trkpt lat="41.931144" lon="0.113139">
        <ele>276.142</ele>
        <time>2020-08-23T10:42:56Z</time>
      </trkpt>
      <trkpt lat="41.931191" lon="0.113072">
        <ele>276.018</ele>
        <time>2020-08-23T10:42:57Z</time>
      </trkpt>
      <trkpt lat="41.931236" lon="0.113005">
        <ele>275.997</ele>
        <time>2020-08-23T10:42:58Z</time>
      </trkpt>
      <trkpt lat="41.931283" lon="0.112937">
        <ele>275.828</ele>
        <time>2020-08-23T10:42:59Z</time>
      </trkpt>
      <trkpt lat="41.931330" lon="0.112867">
        <ele>275.789</ele>
        <time>2020-08-23T10:43:00Z</time>
      </trkpt>
      <trkpt lat="41.931375" lon="0.112798">
        <ele>275.617</ele>
        <time>2020-08-23T10:43:01Z</time>
      </trkpt>
      <trkpt lat="41.931422" lon="0.112730">
        <ele>275.508</ele>
        <time>2020-08-23T10:43:02Z</time>
      </trkpt>
      <trkpt lat="41.931469" lon="0.112660">
        <ele>275.457</ele>
        <time>2020-08-23T10:43:03Z</time>
      </trkpt>
      <trkpt lat="41.931515" lon="0.112587">
        <ele>275.337</ele>
        <time>2020-08-23T10:43:04Z</time>
      </trkpt>
      <trkpt lat="41.931560" lon="0.112511">
        <ele>275.275</ele>
        <time>2020-08-23T10:43:05Z</time>
      </trkpt>
      <trkpt lat="41.931606" lon="0.112435">
        <ele>275.177</ele>
        <time>2020-08-23T10:43:06Z</time>
      </trkpt>
      <trkpt lat="41.931655" lon="0.112358">
        <ele>275.028</ele>
        <time>2020-08-23T10:43:07Z</time>
      </trkpt>
      <trkpt lat="41.931702" lon="0.112283">
        <ele>274.989</ele>
        <time>2020-08-23T10:43:08Z</time>
      </trkpt>
      <trkpt lat="41.931746" lon="0.112213">
        <ele>274.885</ele>
        <time>2020-08-23T10:43:09Z</time>
      </trkpt>
      <trkpt lat="41.931790" lon="0.112144">
        <ele>274.774</ele>
        <time>2020-08-23T10:43:10Z</time>
      </trkpt>
      <trkpt lat="41.931837" lon="0.112076">
        <ele>274.649</ele>
        <time>2020-08-23T10:43:11Z</time>
      </trkpt>
      <trkpt lat="41.931884" lon="0.112009">
        <ele>274.502</ele>
        <time>2020-08-23T10:43:12Z</time>
      </trkpt>
      <trkpt lat="41.931932" lon="0.111943">
        <ele>274.522</ele>
        <time>2020-08-23T10:43:13Z</time>
      </trkpt>
      <trkpt lat="41.931980" lon="0.111876">
        <ele>274.508</ele>
        <time>2020-08-23T10:43:14Z</time>
      </trkpt>
      <trkpt lat="41.932029" lon="0.111809">
        <ele>274.529</ele>
        <time>2020-08-23T10:43:15Z</time>
      </trkpt>
      <trkpt lat="41.932075" lon="0.111744">
        <ele>274.579</ele>
        <time>2020-08-23T10:43:16Z</time>
      </trkpt>
      <trkpt lat="41.932118" lon="0.111682">
        <ele>274.647</ele>
        <time>2020-08-23T10:43:17Z</time>
      </trkpt>
      <trkpt lat="41.932161" lon="0.111621">
        <ele>274.759</ele>
        <time>2020-08-23T10:43:18Z</time>
      </trkpt>
      <trkpt lat="41.932203" lon="0.111556">
        <ele>274.890</ele>
        <time>2020-08-23T10:43:19Z</time>
      </trkpt>
      <trkpt lat="41.932244" lon="0.111490">
        <ele>274.961</ele>
        <time>2020-08-23T10:43:20Z</time>
      </trkpt>
      <trkpt lat="41.932285" lon="0.111426">
        <ele>275.027</ele>
        <time>2020-08-23T10:43:21Z</time>
      </trkpt>
      <trkpt lat="41.932328" lon="0.111363">
        <ele>275.156</ele>
        <time>2020-08-23T10:43:22Z</time>
      </trkpt>
      <trkpt lat="41.932369" lon="0.111297">
        <ele>275.143</ele>
        <time>2020-08-23T10:43:23Z</time>
      </trkpt>
      <trkpt lat="41.932408" lon="0.111234">
        <ele>275.264</ele>
        <time>2020-08-23T10:43:24Z</time>
      </trkpt>
      <trkpt lat="41.932446" lon="0.111172">
        <ele>275.210</ele>
        <time>2020-08-23T10:43:25Z</time>
      </trkpt>
      <trkpt lat="41.932484" lon="0.111110">
        <ele>275.208</ele>
        <time>2020-08-23T10:43:26Z</time>
      </trkpt>
      <trkpt lat="41.932525" lon="0.111046">
        <ele>275.279</ele>
        <time>2020-08-23T10:43:27Z</time>
      </trkpt>
      <trkpt lat="41.932570" lon="0.110982">
        <ele>275.299</ele>
        <time>2020-08-23T10:43:28Z</time>
      </trkpt>
      <trkpt lat="41.932613" lon="0.110918">
        <ele>275.227</ele>
        <time>2020-08-23T10:43:29Z</time>
      </trkpt>
      <trkpt lat="41.932654" lon="0.110852">
        <ele>275.189</ele>
        <time>2020-08-23T10:43:30Z</time>
      </trkpt>
      <trkpt lat="41.932693" lon="0.110788">
        <ele>275.030</ele>
        <time>2020-08-23T10:43:31Z</time>
      </trkpt>
      <trkpt lat="41.932731" lon="0.110725">
        <ele>274.941</ele>
        <time>2020-08-23T10:43:32Z</time>
      </trkpt>
      <trkpt lat="41.932770" lon="0.110665">
        <ele>274.877</ele>
        <time>2020-08-23T10:43:33Z</time>
      </trkpt>
      <trkpt lat="41.932809" lon="0.110607">
        <ele>274.716</ele>
        <time>2020-08-23T10:43:34Z</time>
      </trkpt>
      <trkpt lat="41.932845" lon="0.110549">
        <ele>274.761</ele>
        <time>2020-08-23T10:43:35Z</time>
      </trkpt>
      <trkpt lat="41.932879" lon="0.110492">
        <ele>274.721</ele>
        <time>2020-08-23T10:43:36Z</time>
      </trkpt>
      <trkpt lat="41.932912" lon="0.110434">
        <ele>274.613</ele>
        <time>2020-08-23T10:43:37Z</time>
      </trkpt>
      <trkpt lat="41.932940" lon="0.110373">
        <ele>274.608</ele>
        <time>2020-08-23T10:43:38Z</time>
      </trkpt>
      <trkpt lat="41.932961" lon="0.110309">
        <ele>274.591</ele>
        <time>2020-08-23T10:43:39Z</time>
      </trkpt>
      <trkpt lat="41.932978" lon="0.110251">
        <ele>274.481</ele>
        <time>2020-08-23T10:43:40Z</time>
      </trkpt>
      <trkpt lat="41.932991" lon="0.110146">
        <ele>274.279</ele>
        <time>2020-08-23T10:43:42Z</time>
      </trkpt>
      <trkpt lat="41.932993" lon="0.110023">
        <ele>273.921</ele>
        <time>2020-08-23T10:43:44Z</time>
      </trkpt>
      <trkpt lat="41.932995" lon="0.109903">
        <ele>273.512</ele>
        <time>2020-08-23T10:43:46Z</time>
      </trkpt>
      <trkpt lat="41.933004" lon="0.109842">
        <ele>273.293</ele>
        <time>2020-08-23T10:43:47Z</time>
      </trkpt>
      <trkpt lat="41.933019" lon="0.109735">
        <ele>272.829</ele>
        <time>2020-08-23T10:43:49Z</time>
      </trkpt>
      <trkpt lat="41.933047" lon="0.109639">
        <ele>272.578</ele>
        <time>2020-08-23T10:43:51Z</time>
      </trkpt>
      <trkpt lat="41.933092" lon="0.109548">
        <ele>272.371</ele>
        <time>2020-08-23T10:43:53Z</time>
      </trkpt>
      <trkpt lat="41.933143" lon="0.109455">
        <ele>272.241</ele>
        <time>2020-08-23T10:43:55Z</time>
      </trkpt>
      <trkpt lat="41.933200" lon="0.109365">
        <ele>272.015</ele>
        <time>2020-08-23T10:43:57Z</time>
      </trkpt>
      <trkpt lat="41.933238" lon="0.109326">
        <ele>272.008</ele>
        <time>2020-08-23T10:43:58Z</time>
      </trkpt>
      <trkpt lat="41.933278" lon="0.109287">
        <ele>272.072</ele>
        <time>2020-08-23T10:43:59Z</time>
      </trkpt>
      <trkpt lat="41.933316" lon="0.109245">
        <ele>271.942</ele>
        <time>2020-08-23T10:44:00Z</time>
      </trkpt>
      <trkpt lat="41.933352" lon="0.109200">
        <ele>271.970</ele>
        <time>2020-08-23T10:44:01Z</time>
      </trkpt>
      <trkpt lat="41.933385" lon="0.109151">
        <ele>271.842</ele>
        <time>2020-08-23T10:44:02Z</time>
      </trkpt>
      <trkpt lat="41.933417" lon="0.109097">
        <ele>271.713</ele>
        <time>2020-08-23T10:44:03Z</time>
      </trkpt>
      <trkpt lat="41.933447" lon="0.109042">
        <ele>271.794</ele>
        <time>2020-08-23T10:44:04Z</time>
      </trkpt>
      <trkpt lat="41.933473" lon="0.108991">
        <ele>271.770</ele>
        <time>2020-08-23T10:44:05Z</time>
      </trkpt>
      <trkpt lat="41.933498" lon="0.108936">
        <ele>271.729</ele>
        <time>2020-08-23T10:44:06Z</time>
      </trkpt>
      <trkpt lat="41.933515" lon="0.108875">
        <ele>271.799</ele>
        <time>2020-08-23T10:44:07Z</time>
      </trkpt>
      <trkpt lat="41.933527" lon="0.108809">
        <ele>271.607</ele>
        <time>2020-08-23T10:44:08Z</time>
      </trkpt>
      <trkpt lat="41.933539" lon="0.108737">
        <ele>271.527</ele>
        <time>2020-08-23T10:44:09Z</time>
      </trkpt>
      <trkpt lat="41.933548" lon="0.108665">
        <ele>271.408</ele>
        <time>2020-08-23T10:44:10Z</time>
      </trkpt>
      <trkpt lat="41.933559" lon="0.108593">
        <ele>271.344</ele>
        <time>2020-08-23T10:44:11Z</time>
      </trkpt>
      <trkpt lat="41.933575" lon="0.108522">
        <ele>271.134</ele>
        <time>2020-08-23T10:44:12Z</time>
      </trkpt>
      <trkpt lat="41.933587" lon="0.108446">
        <ele>271.052</ele>
        <time>2020-08-23T10:44:13Z</time>
      </trkpt>
      <trkpt lat="41.933600" lon="0.108371">
        <ele>270.884</ele>
        <time>2020-08-23T10:44:14Z</time>
      </trkpt>
      <trkpt lat="41.933610" lon="0.108298">
        <ele>270.645</ele>
        <time>2020-08-23T10:44:15Z</time>
      </trkpt>
      <trkpt lat="41.933623" lon="0.108228">
        <ele>270.476</ele>
        <time>2020-08-23T10:44:16Z</time>
      </trkpt>
      <trkpt lat="41.933631" lon="0.108149">
        <ele>270.112</ele>
        <time>2020-08-23T10:44:17Z</time>
      </trkpt>
      <trkpt lat="41.933638" lon="0.108069">
        <ele>269.871</ele>
        <time>2020-08-23T10:44:18Z</time>
      </trkpt>
      <trkpt lat="41.933630" lon="0.107992">
        <ele>269.775</ele>
        <time>2020-08-23T10:44:19Z</time>
      </trkpt>
      <trkpt lat="41.933624" lon="0.107913">
        <ele>269.528</ele>
        <time>2020-08-23T10:44:20Z</time>
      </trkpt>
      <trkpt lat="41.933618" lon="0.107832">
        <ele>269.320</ele>
        <time>2020-08-23T10:44:21Z</time>
      </trkpt>
      <trkpt lat="41.933619" lon="0.107754">
        <ele>269.208</ele>
        <time>2020-08-23T10:44:22Z</time>
      </trkpt>
      <trkpt lat="41.933619" lon="0.107676">
        <ele>269.012</ele>
        <time>2020-08-23T10:44:23Z</time>
      </trkpt>
      <trkpt lat="41.933611" lon="0.107596">
        <ele>268.852</ele>
        <time>2020-08-23T10:44:24Z</time>
      </trkpt>
      <trkpt lat="41.933608" lon="0.107514">
        <ele>268.730</ele>
        <time>2020-08-23T10:44:25Z</time>
      </trkpt>
      <trkpt lat="41.933601" lon="0.107432">
        <ele>268.552</ele>
        <time>2020-08-23T10:44:26Z</time>
      </trkpt>
      <trkpt lat="41.933595" lon="0.107355">
        <ele>268.393</ele>
        <time>2020-08-23T10:44:27Z</time>
      </trkpt>
      <trkpt lat="41.933593" lon="0.107278">
        <ele>268.274</ele>
        <time>2020-08-23T10:44:28Z</time>
      </trkpt>
      <trkpt lat="41.933588" lon="0.107202">
        <ele>268.180</ele>
        <time>2020-08-23T10:44:29Z</time>
      </trkpt>
      <trkpt lat="41.933587" lon="0.107125">
        <ele>268.099</ele>
        <time>2020-08-23T10:44:30Z</time>
      </trkpt>
      <trkpt lat="41.933585" lon="0.107044">
        <ele>267.997</ele>
        <time>2020-08-23T10:44:31Z</time>
      </trkpt>
      <trkpt lat="41.933591" lon="0.106965">
        <ele>267.823</ele>
        <time>2020-08-23T10:44:32Z</time>
      </trkpt>
      <trkpt lat="41.933596" lon="0.106887">
        <ele>267.725</ele>
        <time>2020-08-23T10:44:33Z</time>
      </trkpt>
      <trkpt lat="41.933603" lon="0.106808">
        <ele>267.608</ele>
        <time>2020-08-23T10:44:34Z</time>
      </trkpt>
      <trkpt lat="41.933612" lon="0.106723">
        <ele>267.614</ele>
        <time>2020-08-23T10:44:35Z</time>
      </trkpt>
      <trkpt lat="41.933620" lon="0.106641">
        <ele>267.644</ele>
        <time>2020-08-23T10:44:36Z</time>
      </trkpt>
      <trkpt lat="41.933627" lon="0.106566">
        <ele>267.662</ele>
        <time>2020-08-23T10:44:37Z</time>
      </trkpt>
      <trkpt lat="41.933627" lon="0.106493">
        <ele>267.674</ele>
        <time>2020-08-23T10:44:38Z</time>
      </trkpt>
      <trkpt lat="41.933634" lon="0.106414">
        <ele>267.575</ele>
        <time>2020-08-23T10:44:39Z</time>
      </trkpt>
      <trkpt lat="41.933635" lon="0.106334">
        <ele>267.476</ele>
        <time>2020-08-23T10:44:40Z</time>
      </trkpt>
      <trkpt lat="41.933634" lon="0.106253">
        <ele>267.392</ele>
        <time>2020-08-23T10:44:41Z</time>
      </trkpt>
      <trkpt lat="41.933634" lon="0.106169">
        <ele>267.161</ele>
        <time>2020-08-23T10:44:42Z</time>
      </trkpt>
      <trkpt lat="41.933631" lon="0.106082">
        <ele>266.941</ele>
        <time>2020-08-23T10:44:43Z</time>
      </trkpt>
      <trkpt lat="41.933625" lon="0.106002">
        <ele>266.681</ele>
        <time>2020-08-23T10:44:44Z</time>
      </trkpt>
      <trkpt lat="41.933625" lon="0.105922">
        <ele>266.109</ele>
        <time>2020-08-23T10:44:45Z</time>
      </trkpt>
      <trkpt lat="41.933629" lon="0.105840">
        <ele>265.908</ele>
        <time>2020-08-23T10:44:46Z</time>
      </trkpt>
      <trkpt lat="41.933632" lon="0.105756">
        <ele>265.799</ele>
        <time>2020-08-23T10:44:47Z</time>
      </trkpt>
      <trkpt lat="41.933628" lon="0.105677">
        <ele>265.699</ele>
        <time>2020-08-23T10:44:48Z</time>
      </trkpt>
      <trkpt lat="41.933624" lon="0.105595">
        <ele>265.697</ele>
        <time>2020-08-23T10:44:49Z</time>
      </trkpt>
      <trkpt lat="41.933642" lon="0.105518">
        <ele>265.699</ele>
        <time>2020-08-23T10:44:50Z</time>
      </trkpt>
      <trkpt lat="41.933653" lon="0.105441">
        <ele>265.670</ele>
        <time>2020-08-23T10:44:51Z</time>
      </trkpt>
      <trkpt lat="41.933668" lon="0.105367">
        <ele>265.621</ele>
        <time>2020-08-23T10:44:52Z</time>
      </trkpt>
      <trkpt lat="41.933678" lon="0.105296">
        <ele>265.627</ele>
        <time>2020-08-23T10:44:53Z</time>
      </trkpt>
      <trkpt lat="41.933690" lon="0.105227">
        <ele>265.646</ele>
        <time>2020-08-23T10:44:54Z</time>
      </trkpt>
      <trkpt lat="41.933709" lon="0.105167">
        <ele>265.655</ele>
        <time>2020-08-23T10:44:55Z</time>
      </trkpt>
      <trkpt lat="41.933725" lon="0.105107">
        <ele>265.707</ele>
        <time>2020-08-23T10:44:56Z</time>
      </trkpt>
      <trkpt lat="41.933739" lon="0.105042">
        <ele>265.817</ele>
        <time>2020-08-23T10:44:57Z</time>
      </trkpt>
      <trkpt lat="41.933756" lon="0.104978">
        <ele>265.908</ele>
        <time>2020-08-23T10:44:58Z</time>
      </trkpt>
      <trkpt lat="41.933780" lon="0.104915">
        <ele>265.940</ele>
        <time>2020-08-23T10:44:59Z</time>
      </trkpt>
      <trkpt lat="41.933797" lon="0.104851">
        <ele>265.980</ele>
        <time>2020-08-23T10:45:00Z</time>
      </trkpt>
      <trkpt lat="41.933814" lon="0.104793">
        <ele>265.978</ele>
        <time>2020-08-23T10:45:01Z</time>
      </trkpt>
      <trkpt lat="41.933830" lon="0.104735">
        <ele>265.860</ele>
        <time>2020-08-23T10:45:02Z</time>
      </trkpt>
      <trkpt lat="41.933860" lon="0.104640">
        <ele>265.861</ele>
        <time>2020-08-23T10:45:04Z</time>
      </trkpt>
      <trkpt lat="41.933859" lon="0.104567">
        <ele>265.782</ele>
        <time>2020-08-23T10:45:07Z</time>
      </trkpt>
      <trkpt lat="41.933840" lon="0.104500">
        <ele>265.858</ele>
        <time>2020-08-23T10:45:11Z</time>
      </trkpt>
      <trkpt lat="41.933795" lon="0.104502">
        <ele>265.737</ele>
        <time>2020-08-23T10:45:14Z</time>
      </trkpt>
      <trkpt lat="41.933803" lon="0.104563">
        <ele>265.797</ele>
        <time>2020-08-23T10:45:19Z</time>
      </trkpt>
      <trkpt lat="41.933858" lon="0.104570">
        <ele>265.823</ele>
        <time>2020-08-23T10:45:22Z</time>
      </trkpt>
      <trkpt lat="41.933909" lon="0.104583">
        <ele>265.925</ele>
        <time>2020-08-23T10:45:24Z</time>
      </trkpt>
      <trkpt lat="41.933955" lon="0.104604">
        <ele>265.908</ele>
        <time>2020-08-23T10:45:27Z</time>
      </trkpt>
      <trkpt lat="41.934001" lon="0.104583">
        <ele>265.744</ele>
        <time>2020-08-23T10:45:47Z</time>
      </trkpt>
      <trkpt lat="41.934065" lon="0.104613">
        <ele>265.824</ele>
        <time>2020-08-23T10:45:53Z</time>
      </trkpt>
      <trkpt lat="41.934111" lon="0.104632">
        <ele>265.882</ele>
        <time>2020-08-23T10:45:55Z</time>
      </trkpt>
      <trkpt lat="41.934167" lon="0.104649">
        <ele>265.714</ele>
        <time>2020-08-23T10:45:57Z</time>
      </trkpt>
      <trkpt lat="41.934226" lon="0.104645">
        <ele>265.665</ele>
        <time>2020-08-23T10:45:59Z</time>
      </trkpt>
      <trkpt lat="41.934282" lon="0.104629">
        <ele>265.676</ele>
        <time>2020-08-23T10:46:01Z</time>
      </trkpt>
      <trkpt lat="41.934349" lon="0.104629">
        <ele>265.692</ele>
        <time>2020-08-23T10:46:03Z</time>
      </trkpt>
      <trkpt lat="41.934418" lon="0.104629">
        <ele>265.761</ele>
        <time>2020-08-23T10:46:05Z</time>
      </trkpt>
      <trkpt lat="41.934483" lon="0.104641">
        <ele>265.877</ele>
        <time>2020-08-23T10:46:07Z</time>
      </trkpt>
      <trkpt lat="41.934530" lon="0.104650">
        <ele>265.961</ele>
        <time>2020-08-23T10:46:09Z</time>
      </trkpt>
      <trkpt lat="41.934582" lon="0.104659">
        <ele>265.727</ele>
        <time>2020-08-23T10:46:11Z</time>
      </trkpt>
      <trkpt lat="41.934643" lon="0.104668">
        <ele>266.108</ele>
        <time>2020-08-23T10:46:13Z</time>
      </trkpt>
      <trkpt lat="41.934708" lon="0.104664">
        <ele>266.272</ele>
        <time>2020-08-23T10:46:15Z</time>
      </trkpt>
      <trkpt lat="41.934764" lon="0.104677">
        <ele>266.442</ele>
        <time>2020-08-23T10:46:17Z</time>
      </trkpt>
      <trkpt lat="41.934822" lon="0.104686">
        <ele>266.410</ele>
        <time>2020-08-23T10:46:19Z</time>
      </trkpt>
      <trkpt lat="41.934875" lon="0.104702">
        <ele>266.582</ele>
        <time>2020-08-23T10:46:21Z</time>
      </trkpt>
      <trkpt lat="41.934931" lon="0.104711">
        <ele>266.563</ele>
        <time>2020-08-23T10:46:23Z</time>
      </trkpt>
      <trkpt lat="41.934984" lon="0.104718">
        <ele>266.644</ele>
        <time>2020-08-23T10:46:25Z</time>
      </trkpt>
      <trkpt lat="41.935040" lon="0.104725">
        <ele>266.780</ele>
        <time>2020-08-23T10:46:27Z</time>
      </trkpt>
      <trkpt lat="41.935096" lon="0.104744">
        <ele>266.819</ele>
        <time>2020-08-23T10:46:29Z</time>
      </trkpt>
      <trkpt lat="41.935140" lon="0.104760">
        <ele>267.047</ele>
        <time>2020-08-23T10:46:36Z</time>
      </trkpt>
      <trkpt lat="41.935185" lon="0.104761">
        <ele>267.129</ele>
        <time>2020-08-23T10:46:47Z</time>
      </trkpt>
      <trkpt lat="41.935239" lon="0.104767">
        <ele>267.021</ele>
        <time>2020-08-23T10:46:54Z</time>
      </trkpt>
      <trkpt lat="41.935289" lon="0.104764">
        <ele>267.008</ele>
        <time>2020-08-23T10:46:56Z</time>
      </trkpt>
      <trkpt lat="41.935349" lon="0.104762">
        <ele>267.139</ele>
        <time>2020-08-23T10:46:58Z</time>
      </trkpt>
      <trkpt lat="41.935413" lon="0.104760">
        <ele>267.279</ele>
        <time>2020-08-23T10:47:00Z</time>
      </trkpt>
      <trkpt lat="41.935468" lon="0.104772">
        <ele>267.477</ele>
        <time>2020-08-23T10:47:02Z</time>
      </trkpt>
      <trkpt lat="41.935528" lon="0.104793">
        <ele>267.529</ele>
        <time>2020-08-23T10:47:04Z</time>
      </trkpt>
      <trkpt lat="41.935601" lon="0.104809">
        <ele>267.690</ele>
        <time>2020-08-23T10:47:06Z</time>
      </trkpt>
      <trkpt lat="41.935671" lon="0.104807">
        <ele>267.721</ele>
        <time>2020-08-23T10:47:08Z</time>
      </trkpt>
      <trkpt lat="41.935749" lon="0.104797">
        <ele>267.757</ele>
        <time>2020-08-23T10:47:10Z</time>
      </trkpt>
      <trkpt lat="41.935821" lon="0.104798">
        <ele>267.766</ele>
        <time>2020-08-23T10:47:12Z</time>
      </trkpt>
      <trkpt lat="41.935894" lon="0.104812">
        <ele>267.759</ele>
        <time>2020-08-23T10:47:14Z</time>
      </trkpt>
      <trkpt lat="41.935966" lon="0.104818">
        <ele>267.803</ele>
        <time>2020-08-23T10:47:16Z</time>
      </trkpt>
      <trkpt lat="41.936036" lon="0.104811">
        <ele>268.023</ele>
        <time>2020-08-23T10:47:18Z</time>
      </trkpt>
      <trkpt lat="41.936088" lon="0.104805">
        <ele>268.208</ele>
        <time>2020-08-23T10:47:20Z</time>
      </trkpt>
      <trkpt lat="41.936138" lon="0.104796">
        <ele>268.210</ele>
        <time>2020-08-23T10:47:22Z</time>
      </trkpt>
      <trkpt lat="41.936171" lon="0.104750">
        <ele>268.350</ele>
        <time>2020-08-23T10:47:24Z</time>
      </trkpt>
      <trkpt lat="41.936146" lon="0.104655">
        <ele>268.598</ele>
        <time>2020-08-23T10:47:26Z</time>
      </trkpt>
      <trkpt lat="41.936109" lon="0.104551">
        <ele>268.620</ele>
        <time>2020-08-23T10:47:28Z</time>
      </trkpt>
      <trkpt lat="41.936074" lon="0.104434">
        <ele>268.581</ele>
        <time>2020-08-23T10:47:30Z</time>
      </trkpt>
      <trkpt lat="41.936054" lon="0.104368">
        <ele>268.422</ele>
        <time>2020-08-23T10:47:31Z</time>
      </trkpt>
      <trkpt lat="41.936035" lon="0.104302">
        <ele>268.358</ele>
        <time>2020-08-23T10:47:32Z</time>
      </trkpt>
      <trkpt lat="41.936017" lon="0.104243">
        <ele>268.257</ele>
        <time>2020-08-23T10:47:33Z</time>
      </trkpt>
      <trkpt lat="41.935995" lon="0.104186">
        <ele>268.113</ele>
        <time>2020-08-23T10:47:34Z</time>
      </trkpt>
      <trkpt lat="41.935972" lon="0.104126">
        <ele>268.043</ele>
        <time>2020-08-23T10:47:35Z</time>
      </trkpt>
      <trkpt lat="41.935946" lon="0.104065">
        <ele>267.807</ele>
        <time>2020-08-23T10:47:36Z</time>
      </trkpt>
      <trkpt lat="41.935926" lon="0.103999">
        <ele>267.608</ele>
        <time>2020-08-23T10:47:37Z</time>
      </trkpt>
      <trkpt lat="41.935903" lon="0.103929">
        <ele>267.446</ele>
        <time>2020-08-23T10:47:38Z</time>
      </trkpt>
      <trkpt lat="41.935881" lon="0.103856">
        <ele>267.346</ele>
        <time>2020-08-23T10:47:39Z</time>
      </trkpt>
      <trkpt lat="41.935854" lon="0.103786">
        <ele>267.284</ele>
        <time>2020-08-23T10:47:40Z</time>
      </trkpt>
      <trkpt lat="41.935827" lon="0.103715">
        <ele>267.226</ele>
        <time>2020-08-23T10:47:41Z</time>
      </trkpt>
      <trkpt lat="41.935798" lon="0.103645">
        <ele>267.177</ele>
        <time>2020-08-23T10:47:42Z</time>
      </trkpt>
      <trkpt lat="41.935762" lon="0.103572">
        <ele>267.178</ele>
        <time>2020-08-23T10:47:43Z</time>
      </trkpt>
      <trkpt lat="41.935737" lon="0.103494">
        <ele>267.034</ele>
        <time>2020-08-23T10:47:44Z</time>
      </trkpt>
      <trkpt lat="41.935713" lon="0.103417">
        <ele>266.983</ele>
        <time>2020-08-23T10:47:45Z</time>
      </trkpt>
      <trkpt lat="41.935681" lon="0.103345">
        <ele>266.825</ele>
        <time>2020-08-23T10:47:46Z</time>
      </trkpt>
      <trkpt lat="41.935653" lon="0.103268">
        <ele>266.726</ele>
        <time>2020-08-23T10:47:47Z</time>
      </trkpt>
      <trkpt lat="41.935618" lon="0.103193">
        <ele>266.708</ele>
        <time>2020-08-23T10:47:48Z</time>
      </trkpt>
      <trkpt lat="41.935586" lon="0.103120">
        <ele>266.708</ele>
        <time>2020-08-23T10:47:49Z</time>
      </trkpt>
      <trkpt lat="41.935553" lon="0.103048">
        <ele>266.627</ele>
        <time>2020-08-23T10:47:50Z</time>
      </trkpt>
      <trkpt lat="41.935514" lon="0.102981">
        <ele>266.677</ele>
        <time>2020-08-23T10:47:51Z</time>
      </trkpt>
      <trkpt lat="41.935476" lon="0.102913">
        <ele>266.615</ele>
        <time>2020-08-23T10:47:52Z</time>
      </trkpt>
      <trkpt lat="41.935447" lon="0.102836">
        <ele>266.657</ele>
        <time>2020-08-23T10:47:53Z</time>
      </trkpt>
      <trkpt lat="41.935416" lon="0.102762">
        <ele>266.678</ele>
        <time>2020-08-23T10:47:54Z</time>
      </trkpt>
      <trkpt lat="41.935392" lon="0.102684">
        <ele>266.649</ele>
        <time>2020-08-23T10:47:55Z</time>
      </trkpt>
      <trkpt lat="41.935365" lon="0.102609">
        <ele>266.685</ele>
        <time>2020-08-23T10:47:56Z</time>
      </trkpt>
      <trkpt lat="41.935334" lon="0.102536">
        <ele>266.634</ele>
        <time>2020-08-23T10:47:57Z</time>
      </trkpt>
      <trkpt lat="41.935300" lon="0.102459">
        <ele>266.664</ele>
        <time>2020-08-23T10:47:58Z</time>
      </trkpt>
      <trkpt lat="41.935267" lon="0.102381">
        <ele>266.506</ele>
        <time>2020-08-23T10:47:59Z</time>
      </trkpt>
      <trkpt lat="41.935238" lon="0.102302">
        <ele>266.416</ele>
        <time>2020-08-23T10:48:00Z</time>
      </trkpt>
      <trkpt lat="41.935203" lon="0.102224">
        <ele>266.308</ele>
        <time>2020-08-23T10:48:01Z</time>
      </trkpt>
      <trkpt lat="41.935167" lon="0.102144">
        <ele>266.341</ele>
        <time>2020-08-23T10:48:02Z</time>
      </trkpt>
      <trkpt lat="41.935130" lon="0.102069">
        <ele>266.351</ele>
        <time>2020-08-23T10:48:03Z</time>
      </trkpt>
      <trkpt lat="41.935097" lon="0.101996">
        <ele>266.319</ele>
        <time>2020-08-23T10:48:04Z</time>
      </trkpt>
      <trkpt lat="41.935070" lon="0.101918">
        <ele>266.311</ele>
        <time>2020-08-23T10:48:05Z</time>
      </trkpt>
      <trkpt lat="41.935042" lon="0.101843">
        <ele>266.362</ele>
        <time>2020-08-23T10:48:06Z</time>
      </trkpt>
      <trkpt lat="41.935015" lon="0.101766">
        <ele>266.353</ele>
        <time>2020-08-23T10:48:07Z</time>
      </trkpt>
      <trkpt lat="41.934984" lon="0.101691">
        <ele>266.319</ele>
        <time>2020-08-23T10:48:08Z</time>
      </trkpt>
      <trkpt lat="41.934952" lon="0.101615">
        <ele>266.358</ele>
        <time>2020-08-23T10:48:09Z</time>
      </trkpt>
      <trkpt lat="41.934918" lon="0.101536">
        <ele>266.352</ele>
        <time>2020-08-23T10:48:10Z</time>
      </trkpt>
      <trkpt lat="41.934886" lon="0.101458">
        <ele>266.353</ele>
        <time>2020-08-23T10:48:11Z</time>
      </trkpt>
      <trkpt lat="41.934854" lon="0.101379">
        <ele>266.308</ele>
        <time>2020-08-23T10:48:12Z</time>
      </trkpt>
      <trkpt lat="41.934824" lon="0.101300">
        <ele>266.208</ele>
        <time>2020-08-23T10:48:13Z</time>
      </trkpt>
      <trkpt lat="41.934796" lon="0.101225">
        <ele>266.150</ele>
        <time>2020-08-23T10:48:14Z</time>
      </trkpt>
      <trkpt lat="41.934766" lon="0.101151">
        <ele>266.040</ele>
        <time>2020-08-23T10:48:15Z</time>
      </trkpt>
      <trkpt lat="41.934735" lon="0.101072">
        <ele>265.978</ele>
        <time>2020-08-23T10:48:16Z</time>
      </trkpt>
      <trkpt lat="41.934704" lon="0.100995">
        <ele>265.990</ele>
        <time>2020-08-23T10:48:17Z</time>
      </trkpt>
      <trkpt lat="41.934671" lon="0.100920">
        <ele>265.931</ele>
        <time>2020-08-23T10:48:18Z</time>
      </trkpt>
      <trkpt lat="41.934635" lon="0.100846">
        <ele>265.972</ele>
        <time>2020-08-23T10:48:19Z</time>
      </trkpt>
      <trkpt lat="41.934603" lon="0.100772">
        <ele>265.958</ele>
        <time>2020-08-23T10:48:20Z</time>
      </trkpt>
      <trkpt lat="41.934564" lon="0.100702">
        <ele>265.997</ele>
        <time>2020-08-23T10:48:21Z</time>
      </trkpt>
      <trkpt lat="41.934524" lon="0.100633">
        <ele>265.831</ele>
        <time>2020-08-23T10:48:22Z</time>
      </trkpt>
      <trkpt lat="41.934489" lon="0.100565">
        <ele>265.761</ele>
        <time>2020-08-23T10:48:23Z</time>
      </trkpt>
      <trkpt lat="41.934457" lon="0.100496">
        <ele>265.607</ele>
        <time>2020-08-23T10:48:24Z</time>
      </trkpt>
      <trkpt lat="41.934423" lon="0.100426">
        <ele>265.508</ele>
        <time>2020-08-23T10:48:25Z</time>
      </trkpt>
      <trkpt lat="41.934388" lon="0.100361">
        <ele>265.428</ele>
        <time>2020-08-23T10:48:26Z</time>
      </trkpt>
      <trkpt lat="41.934353" lon="0.100296">
        <ele>265.358</ele>
        <time>2020-08-23T10:48:27Z</time>
      </trkpt>
      <trkpt lat="41.934324" lon="0.100227">
        <ele>265.376</ele>
        <time>2020-08-23T10:48:28Z</time>
      </trkpt>
      <trkpt lat="41.934292" lon="0.100158">
        <ele>265.398</ele>
        <time>2020-08-23T10:48:29Z</time>
      </trkpt>
      <trkpt lat="41.934255" lon="0.100094">
        <ele>265.389</ele>
        <time>2020-08-23T10:48:30Z</time>
      </trkpt>
      <trkpt lat="41.934219" lon="0.100033">
        <ele>265.470</ele>
        <time>2020-08-23T10:48:31Z</time>
      </trkpt>
      <trkpt lat="41.934183" lon="0.099974">
        <ele>265.596</ele>
        <time>2020-08-23T10:48:32Z</time>
      </trkpt>
      <trkpt lat="41.934142" lon="0.099913">
        <ele>265.545</ele>
        <time>2020-08-23T10:48:33Z</time>
      </trkpt>
      <trkpt lat="41.934105" lon="0.099848">
        <ele>265.522</ele>
        <time>2020-08-23T10:48:34Z</time>
      </trkpt>
      <trkpt lat="41.934063" lon="0.099786">
        <ele>265.562</ele>
        <time>2020-08-23T10:48:35Z</time>
      </trkpt>
      <trkpt lat="41.934023" lon="0.099728">
        <ele>265.408</ele>
        <time>2020-08-23T10:48:36Z</time>
      </trkpt>
      <trkpt lat="41.933981" lon="0.099670">
        <ele>265.308</ele>
        <time>2020-08-23T10:48:37Z</time>
      </trkpt>
      <trkpt lat="41.933934" lon="0.099614">
        <ele>265.237</ele>
        <time>2020-08-23T10:48:38Z</time>
      </trkpt>
      <trkpt lat="41.933887" lon="0.099555">
        <ele>265.177</ele>
        <time>2020-08-23T10:48:39Z</time>
      </trkpt>
      <trkpt lat="41.933844" lon="0.099496">
        <ele>265.045</ele>
        <time>2020-08-23T10:48:40Z</time>
      </trkpt>
      <trkpt lat="41.933803" lon="0.099437">
        <ele>265.087</ele>
        <time>2020-08-23T10:48:41Z</time>
      </trkpt>
      <trkpt lat="41.933760" lon="0.099381">
        <ele>265.058</ele>
        <time>2020-08-23T10:48:42Z</time>
      </trkpt>
      <trkpt lat="41.933716" lon="0.099328">
        <ele>264.969</ele>
        <time>2020-08-23T10:48:43Z</time>
      </trkpt>
      <trkpt lat="41.933673" lon="0.099275">
        <ele>264.865</ele>
        <time>2020-08-23T10:48:44Z</time>
      </trkpt>
      <trkpt lat="41.933630" lon="0.099218">
        <ele>264.814</ele>
        <time>2020-08-23T10:48:45Z</time>
      </trkpt>
      <trkpt lat="41.933582" lon="0.099162">
        <ele>264.832</ele>
        <time>2020-08-23T10:48:46Z</time>
      </trkpt>
      <trkpt lat="41.933539" lon="0.099099">
        <ele>264.892</ele>
        <time>2020-08-23T10:48:47Z</time>
      </trkpt>
      <trkpt lat="41.933495" lon="0.099035">
        <ele>264.811</ele>
        <time>2020-08-23T10:48:48Z</time>
      </trkpt>
      <trkpt lat="41.933459" lon="0.098970">
        <ele>264.808</ele>
        <time>2020-08-23T10:48:49Z</time>
      </trkpt>
      <trkpt lat="41.933428" lon="0.098896">
        <ele>264.828</ele>
        <time>2020-08-23T10:48:50Z</time>
      </trkpt>
      <trkpt lat="41.933396" lon="0.098822">
        <ele>264.748</ele>
        <time>2020-08-23T10:48:51Z</time>
      </trkpt>
      <trkpt lat="41.933364" lon="0.098749">
        <ele>264.676</ele>
        <time>2020-08-23T10:48:52Z</time>
      </trkpt>
      <trkpt lat="41.933331" lon="0.098676">
        <ele>264.518</ele>
        <time>2020-08-23T10:48:53Z</time>
      </trkpt>
      <trkpt lat="41.933297" lon="0.098605">
        <ele>264.379</ele>
        <time>2020-08-23T10:48:54Z</time>
      </trkpt>
      <trkpt lat="41.933261" lon="0.098540">
        <ele>264.290</ele>
        <time>2020-08-23T10:48:55Z</time>
      </trkpt>
      <trkpt lat="41.933226" lon="0.098480">
        <ele>264.116</ele>
        <time>2020-08-23T10:48:56Z</time>
      </trkpt>
      <trkpt lat="41.933192" lon="0.098421">
        <ele>264.015</ele>
        <time>2020-08-23T10:48:57Z</time>
      </trkpt>
      <trkpt lat="41.933159" lon="0.098351">
        <ele>264.086</ele>
        <time>2020-08-23T10:48:58Z</time>
      </trkpt>
      <trkpt lat="41.933129" lon="0.098283">
        <ele>264.060</ele>
        <time>2020-08-23T10:48:59Z</time>
      </trkpt>
      <trkpt lat="41.933099" lon="0.098222">
        <ele>264.026</ele>
        <time>2020-08-23T10:49:00Z</time>
      </trkpt>
      <trkpt lat="41.933067" lon="0.098168">
        <ele>264.008</ele>
        <time>2020-08-23T10:49:01Z</time>
      </trkpt>
      <trkpt lat="41.933037" lon="0.098112">
        <ele>264.063</ele>
        <time>2020-08-23T10:49:02Z</time>
      </trkpt>
      <trkpt lat="41.933016" lon="0.098053">
        <ele>264.093</ele>
        <time>2020-08-23T10:49:03Z</time>
      </trkpt>
      <trkpt lat="41.932975" lon="0.097956">
        <ele>264.091</ele>
        <time>2020-08-23T10:49:05Z</time>
      </trkpt>
      <trkpt lat="41.932931" lon="0.097847">
        <ele>264.073</ele>
        <time>2020-08-23T10:49:07Z</time>
      </trkpt>
      <trkpt lat="41.932887" lon="0.097754">
        <ele>263.974</ele>
        <time>2020-08-23T10:49:09Z</time>
      </trkpt>
      <trkpt lat="41.932875" lon="0.097689">
        <ele>263.835</ele>
        <time>2020-08-23T10:49:11Z</time>
      </trkpt>
      <trkpt lat="41.932921" lon="0.097656">
        <ele>263.811</ele>
        <time>2020-08-23T10:49:13Z</time>
      </trkpt>
      <trkpt lat="41.932994" lon="0.097654">
        <ele>263.910</ele>
        <time>2020-08-23T10:49:15Z</time>
      </trkpt>
      <trkpt lat="41.933078" lon="0.097662">
        <ele>263.975</ele>
        <time>2020-08-23T10:49:17Z</time>
      </trkpt>
      <trkpt lat="41.933123" lon="0.097673">
        <ele>263.928</ele>
        <time>2020-08-23T10:49:18Z</time>
      </trkpt>
      <trkpt lat="41.933167" lon="0.097690">
        <ele>263.920</ele>
        <time>2020-08-23T10:49:19Z</time>
      </trkpt>
      <trkpt lat="41.933210" lon="0.097711">
        <ele>263.908</ele>
        <time>2020-08-23T10:49:20Z</time>
      </trkpt>
      <trkpt lat="41.933253" lon="0.097735">
        <ele>263.942</ele>
        <time>2020-08-23T10:49:21Z</time>
      </trkpt>
      <trkpt lat="41.933297" lon="0.097757">
        <ele>263.982</ele>
        <time>2020-08-23T10:49:22Z</time>
      </trkpt>
      <trkpt lat="41.933341" lon="0.097774">
        <ele>263.920</ele>
        <time>2020-08-23T10:49:23Z</time>
      </trkpt>
      <trkpt lat="41.933425" lon="0.097799">
        <ele>264.182</ele>
        <time>2020-08-23T10:49:25Z</time>
      </trkpt>
      <trkpt lat="41.933472" lon="0.097812">
        <ele>264.293</ele>
        <time>2020-08-23T10:49:26Z</time>
      </trkpt>
      <trkpt lat="41.933520" lon="0.097827">
        <ele>264.234</ele>
        <time>2020-08-23T10:49:27Z</time>
      </trkpt>
      <trkpt lat="41.933563" lon="0.097847">
        <ele>264.250</ele>
        <time>2020-08-23T10:49:28Z</time>
      </trkpt>
      <trkpt lat="41.933646" lon="0.097865">
        <ele>264.139</ele>
        <time>2020-08-23T10:49:30Z</time>
      </trkpt>
      <trkpt lat="41.933732" lon="0.097873">
        <ele>264.168</ele>
        <time>2020-08-23T10:49:32Z</time>
      </trkpt>
      <trkpt lat="41.933823" lon="0.097876">
        <ele>264.242</ele>
        <time>2020-08-23T10:49:34Z</time>
      </trkpt>
      <trkpt lat="41.933870" lon="0.097878">
        <ele>264.326</ele>
        <time>2020-08-23T10:49:35Z</time>
      </trkpt>
      <trkpt lat="41.933917" lon="0.097882">
        <ele>264.408</ele>
        <time>2020-08-23T10:49:36Z</time>
      </trkpt>
      <trkpt lat="41.933966" lon="0.097881">
        <ele>264.581</ele>
        <time>2020-08-23T10:49:37Z</time>
      </trkpt>
      <trkpt lat="41.934014" lon="0.097881">
        <ele>264.581</ele>
        <time>2020-08-23T10:49:38Z</time>
      </trkpt>
      <trkpt lat="41.934103" lon="0.097875">
        <ele>264.539</ele>
        <time>2020-08-23T10:49:40Z</time>
      </trkpt>
      <trkpt lat="41.934149" lon="0.097872">
        <ele>264.551</ele>
        <time>2020-08-23T10:49:41Z</time>
      </trkpt>
      <trkpt lat="41.934195" lon="0.097880">
        <ele>264.522</ele>
        <time>2020-08-23T10:49:42Z</time>
      </trkpt>
      <trkpt lat="41.934244" lon="0.097888">
        <ele>264.523</ele>
        <time>2020-08-23T10:49:43Z</time>
      </trkpt>
      <trkpt lat="41.934295" lon="0.097898">
        <ele>264.569</ele>
        <time>2020-08-23T10:49:44Z</time>
      </trkpt>
      <trkpt lat="41.934348" lon="0.097906">
        <ele>264.528</ele>
        <time>2020-08-23T10:49:45Z</time>
      </trkpt>
      <trkpt lat="41.934399" lon="0.097914">
        <ele>264.549</ele>
        <time>2020-08-23T10:49:46Z</time>
      </trkpt>
      <trkpt lat="41.934449" lon="0.097918">
        <ele>264.502</ele>
        <time>2020-08-23T10:49:47Z</time>
      </trkpt>
      <trkpt lat="41.934501" lon="0.097926">
        <ele>264.522</ele>
        <time>2020-08-23T10:49:48Z</time>
      </trkpt>
      <trkpt lat="41.934555" lon="0.097933">
        <ele>264.508</ele>
        <time>2020-08-23T10:49:49Z</time>
      </trkpt>
      <trkpt lat="41.934610" lon="0.097936">
        <ele>264.539</ele>
        <time>2020-08-23T10:49:50Z</time>
      </trkpt>
      <trkpt lat="41.934663" lon="0.097935">
        <ele>264.529</ele>
        <time>2020-08-23T10:49:51Z</time>
      </trkpt>
      <trkpt lat="41.934716" lon="0.097937">
        <ele>264.517</ele>
        <time>2020-08-23T10:49:52Z</time>
      </trkpt>
      <trkpt lat="41.934772" lon="0.097932">
        <ele>264.599</ele>
        <time>2020-08-23T10:49:53Z</time>
      </trkpt>
      <trkpt lat="41.934829" lon="0.097934">
        <ele>264.520</ele>
        <time>2020-08-23T10:49:54Z</time>
      </trkpt>
      <trkpt lat="41.934884" lon="0.097931">
        <ele>264.551</ele>
        <time>2020-08-23T10:49:55Z</time>
      </trkpt>
      <trkpt lat="41.934934" lon="0.097944">
        <ele>264.577</ele>
        <time>2020-08-23T10:49:56Z</time>
      </trkpt>
      <trkpt lat="41.934983" lon="0.097939">
        <ele>264.776</ele>
        <time>2020-08-23T10:49:57Z</time>
      </trkpt>
      <trkpt lat="41.935032" lon="0.097934">
        <ele>264.765</ele>
        <time>2020-08-23T10:49:58Z</time>
      </trkpt>
      <trkpt lat="41.935081" lon="0.097931">
        <ele>264.868</ele>
        <time>2020-08-23T10:49:59Z</time>
      </trkpt>
      <trkpt lat="41.935130" lon="0.097935">
        <ele>264.814</ele>
        <time>2020-08-23T10:50:00Z</time>
      </trkpt>
      <trkpt lat="41.935182" lon="0.097940">
        <ele>264.908</ele>
        <time>2020-08-23T10:50:01Z</time>
      </trkpt>
      <trkpt lat="41.935233" lon="0.097939">
        <ele>264.951</ele>
        <time>2020-08-23T10:50:02Z</time>
      </trkpt>
      <trkpt lat="41.935283" lon="0.097939">
        <ele>265.061</ele>
        <time>2020-08-23T10:50:03Z</time>
      </trkpt>
      <trkpt lat="41.935332" lon="0.097945">
        <ele>265.159</ele>
        <time>2020-08-23T10:50:04Z</time>
      </trkpt>
      <trkpt lat="41.935382" lon="0.097947">
        <ele>265.221</ele>
        <time>2020-08-23T10:50:05Z</time>
      </trkpt>
      <trkpt lat="41.935435" lon="0.097952">
        <ele>265.392</ele>
        <time>2020-08-23T10:50:06Z</time>
      </trkpt>
      <trkpt lat="41.935487" lon="0.097953">
        <ele>265.413</ele>
        <time>2020-08-23T10:50:07Z</time>
      </trkpt>
      <trkpt lat="41.935538" lon="0.097952">
        <ele>265.579</ele>
        <time>2020-08-23T10:50:08Z</time>
      </trkpt>
      <trkpt lat="41.935590" lon="0.097945">
        <ele>265.598</ele>
        <time>2020-08-23T10:50:09Z</time>
      </trkpt>
      <trkpt lat="41.935640" lon="0.097944">
        <ele>265.544</ele>
        <time>2020-08-23T10:50:10Z</time>
      </trkpt>
      <trkpt lat="41.935690" lon="0.097942">
        <ele>265.505</ele>
        <time>2020-08-23T10:50:11Z</time>
      </trkpt>
      <trkpt lat="41.935740" lon="0.097934">
        <ele>265.515</ele>
        <time>2020-08-23T10:50:12Z</time>
      </trkpt>
      <trkpt lat="41.935790" lon="0.097922">
        <ele>265.508</ele>
        <time>2020-08-23T10:50:13Z</time>
      </trkpt>
      <trkpt lat="41.935838" lon="0.097918">
        <ele>265.539</ele>
        <time>2020-08-23T10:50:14Z</time>
      </trkpt>
      <trkpt lat="41.935886" lon="0.097906">
        <ele>265.519</ele>
        <time>2020-08-23T10:50:15Z</time>
      </trkpt>
      <trkpt lat="41.935935" lon="0.097894">
        <ele>265.577</ele>
        <time>2020-08-23T10:50:16Z</time>
      </trkpt>
      <trkpt lat="41.935985" lon="0.097881">
        <ele>265.589</ele>
        <time>2020-08-23T10:50:17Z</time>
      </trkpt>
      <trkpt lat="41.936032" lon="0.097869">
        <ele>265.550</ele>
        <time>2020-08-23T10:50:18Z</time>
      </trkpt>
      <trkpt lat="41.936077" lon="0.097863">
        <ele>265.591</ele>
        <time>2020-08-23T10:50:19Z</time>
      </trkpt>
      <trkpt lat="41.936162" lon="0.097847">
        <ele>265.697</ele>
        <time>2020-08-23T10:50:21Z</time>
      </trkpt>
      <trkpt lat="41.936209" lon="0.097832">
        <ele>265.626</ele>
        <time>2020-08-23T10:50:22Z</time>
      </trkpt>
      <trkpt lat="41.936258" lon="0.097814">
        <ele>265.659</ele>
        <time>2020-08-23T10:50:23Z</time>
      </trkpt>
      <trkpt lat="41.936304" lon="0.097803">
        <ele>265.603</ele>
        <time>2020-08-23T10:50:24Z</time>
      </trkpt>
      <trkpt lat="41.936352" lon="0.097800">
        <ele>265.623</ele>
        <time>2020-08-23T10:50:25Z</time>
      </trkpt>
      <trkpt lat="41.936400" lon="0.097795">
        <ele>265.608</ele>
        <time>2020-08-23T10:50:26Z</time>
      </trkpt>
      <trkpt lat="41.936449" lon="0.097784">
        <ele>265.690</ele>
        <time>2020-08-23T10:50:27Z</time>
      </trkpt>
      <trkpt lat="41.936496" lon="0.097776">
        <ele>265.680</ele>
        <time>2020-08-23T10:50:28Z</time>
      </trkpt>
      <trkpt lat="41.936542" lon="0.097757">
        <ele>265.788</ele>
        <time>2020-08-23T10:50:29Z</time>
      </trkpt>
      <trkpt lat="41.936589" lon="0.097737">
        <ele>265.780</ele>
        <time>2020-08-23T10:50:30Z</time>
      </trkpt>
      <trkpt lat="41.936635" lon="0.097717">
        <ele>265.781</ele>
        <time>2020-08-23T10:50:31Z</time>
      </trkpt>
      <trkpt lat="41.936682" lon="0.097705">
        <ele>265.782</ele>
        <time>2020-08-23T10:50:32Z</time>
      </trkpt>
      <trkpt lat="41.936732" lon="0.097695">
        <ele>265.788</ele>
        <time>2020-08-23T10:50:33Z</time>
      </trkpt>
      <trkpt lat="41.936782" lon="0.097677">
        <ele>265.617</ele>
        <time>2020-08-23T10:50:34Z</time>
      </trkpt>
      <trkpt lat="41.936832" lon="0.097657">
        <ele>265.696</ele>
        <time>2020-08-23T10:50:35Z</time>
      </trkpt>
      <trkpt lat="41.936882" lon="0.097644">
        <ele>265.631</ele>
        <time>2020-08-23T10:50:36Z</time>
      </trkpt>
      <trkpt lat="41.936929" lon="0.097630">
        <ele>265.624</ele>
        <time>2020-08-23T10:50:37Z</time>
      </trkpt>
      <trkpt lat="41.936975" lon="0.097604">
        <ele>265.608</ele>
        <time>2020-08-23T10:50:38Z</time>
      </trkpt>
      <trkpt lat="41.937023" lon="0.097582">
        <ele>265.684</ele>
        <time>2020-08-23T10:50:39Z</time>
      </trkpt>
      <trkpt lat="41.937070" lon="0.097568">
        <ele>265.614</ele>
        <time>2020-08-23T10:50:40Z</time>
      </trkpt>
      <trkpt lat="41.937115" lon="0.097555">
        <ele>265.682</ele>
        <time>2020-08-23T10:50:41Z</time>
      </trkpt>
      <trkpt lat="41.937161" lon="0.097553">
        <ele>265.744</ele>
        <time>2020-08-23T10:50:42Z</time>
      </trkpt>
      <trkpt lat="41.937246" lon="0.097544">
        <ele>265.995</ele>
        <time>2020-08-23T10:50:44Z</time>
      </trkpt>
      <trkpt lat="41.937322" lon="0.097531">
        <ele>266.316</ele>
        <time>2020-08-23T10:50:46Z</time>
      </trkpt>
      <trkpt lat="41.937392" lon="0.097533">
        <ele>266.842</ele>
        <time>2020-08-23T10:50:48Z</time>
      </trkpt>
      <trkpt lat="41.937461" lon="0.097518">
        <ele>267.261</ele>
        <time>2020-08-23T10:50:50Z</time>
      </trkpt>
      <trkpt lat="41.937545" lon="0.097504">
        <ele>267.556</ele>
        <time>2020-08-23T10:50:52Z</time>
      </trkpt>
      <trkpt lat="41.937619" lon="0.097488">
        <ele>267.559</ele>
        <time>2020-08-23T10:50:54Z</time>
      </trkpt>
      <trkpt lat="41.937693" lon="0.097469">
        <ele>267.614</ele>
        <time>2020-08-23T10:50:56Z</time>
      </trkpt>
      <trkpt lat="41.937774" lon="0.097449">
        <ele>267.708</ele>
        <time>2020-08-23T10:50:58Z</time>
      </trkpt>
      <trkpt lat="41.937856" lon="0.097422">
        <ele>267.870</ele>
        <time>2020-08-23T10:51:00Z</time>
      </trkpt>
      <trkpt lat="41.937941" lon="0.097406">
        <ele>267.970</ele>
        <time>2020-08-23T10:51:02Z</time>
      </trkpt>
      <trkpt lat="41.938024" lon="0.097383">
        <ele>267.938</ele>
        <time>2020-08-23T10:51:04Z</time>
      </trkpt>
      <trkpt lat="41.938109" lon="0.097362">
        <ele>267.950</ele>
        <time>2020-08-23T10:51:06Z</time>
      </trkpt>
      <trkpt lat="41.938156" lon="0.097350">
        <ele>267.911</ele>
        <time>2020-08-23T10:51:07Z</time>
      </trkpt>
      <trkpt lat="41.938201" lon="0.097343">
        <ele>267.942</ele>
        <time>2020-08-23T10:51:08Z</time>
      </trkpt>
      <trkpt lat="41.938246" lon="0.097333">
        <ele>267.998</ele>
        <time>2020-08-23T10:51:09Z</time>
      </trkpt>
      <trkpt lat="41.938329" lon="0.097303">
        <ele>267.967</ele>
        <time>2020-08-23T10:51:11Z</time>
      </trkpt>
      <trkpt lat="41.938403" lon="0.097272">
        <ele>268.026</ele>
        <time>2020-08-23T10:51:13Z</time>
      </trkpt>
      <trkpt lat="41.938473" lon="0.097233">
        <ele>268.147</ele>
        <time>2020-08-23T10:51:15Z</time>
      </trkpt>
      <trkpt lat="41.938541" lon="0.097204">
        <ele>268.211</ele>
        <time>2020-08-23T10:51:17Z</time>
      </trkpt>
      <trkpt lat="41.938597" lon="0.097183">
        <ele>268.308</ele>
        <time>2020-08-23T10:51:19Z</time>
      </trkpt>
      <trkpt lat="41.938652" lon="0.097167">
        <ele>268.547</ele>
        <time>2020-08-23T10:51:21Z</time>
      </trkpt>
      <trkpt lat="41.938687" lon="0.097205">
        <ele>269.167</ele>
        <time>2020-08-23T10:51:32Z</time>
      </trkpt>
      <trkpt lat="41.938640" lon="0.097287">
        <ele>269.265</ele>
        <time>2020-08-23T10:51:35Z</time>
      </trkpt>
      <trkpt lat="41.938602" lon="0.097373">
        <ele>269.357</ele>
        <time>2020-08-23T10:51:37Z</time>
      </trkpt>
      <trkpt lat="41.938567" lon="0.097467">
        <ele>269.328</ele>
        <time>2020-08-23T10:51:39Z</time>
      </trkpt>
      <trkpt lat="41.938546" lon="0.097553">
        <ele>269.059</ele>
        <time>2020-08-23T10:51:41Z</time>
      </trkpt>
      <trkpt lat="41.938551" lon="0.097633">
        <ele>268.725</ele>
        <time>2020-08-23T10:51:44Z</time>
      </trkpt>
      <trkpt lat="41.938591" lon="0.097666">
        <ele>268.694</ele>
        <time>2020-08-23T10:51:46Z</time>
      </trkpt>
      <trkpt lat="41.938642" lon="0.097660">
        <ele>268.639</ele>
        <time>2020-08-23T10:51:48Z</time>
      </trkpt>
      <trkpt lat="41.938680" lon="0.097591">
        <ele>268.701</ele>
        <time>2020-08-23T10:51:50Z</time>
      </trkpt>
      <trkpt lat="41.938720" lon="0.097514">
        <ele>268.821</ele>
        <time>2020-08-23T10:51:52Z</time>
      </trkpt>
      <trkpt lat="41.938761" lon="0.097432">
        <ele>268.908</ele>
        <time>2020-08-23T10:51:54Z</time>
      </trkpt>
      <trkpt lat="41.938817" lon="0.097354">
        <ele>268.978</ele>
        <time>2020-08-23T10:51:56Z</time>
      </trkpt>
      <trkpt lat="41.938871" lon="0.097280">
        <ele>269.018</ele>
        <time>2020-08-23T10:51:58Z</time>
      </trkpt>
      <trkpt lat="41.938923" lon="0.097201">
        <ele>269.156</ele>
        <time>2020-08-23T10:52:00Z</time>
      </trkpt>
      <trkpt lat="41.938977" lon="0.097130">
        <ele>269.238</ele>
        <time>2020-08-23T10:52:02Z</time>
      </trkpt>
      <trkpt lat="41.939031" lon="0.097061">
        <ele>269.389</ele>
        <time>2020-08-23T10:52:04Z</time>
      </trkpt>
      <trkpt lat="41.939089" lon="0.096976">
        <ele>269.370</ele>
        <time>2020-08-23T10:52:06Z</time>
      </trkpt>
      <trkpt lat="41.939147" lon="0.096895">
        <ele>269.236</ele>
        <time>2020-08-23T10:52:08Z</time>
      </trkpt>
      <trkpt lat="41.939210" lon="0.096809">
        <ele>269.275</ele>
        <time>2020-08-23T10:52:10Z</time>
      </trkpt>
      <trkpt lat="41.939267" lon="0.096716">
        <ele>269.292</ele>
        <time>2020-08-23T10:52:12Z</time>
      </trkpt>
      <trkpt lat="41.939311" lon="0.096618">
        <ele>269.273</ele>
        <time>2020-08-23T10:52:14Z</time>
      </trkpt>
      <trkpt lat="41.939340" lon="0.096571">
        <ele>269.220</ele>
        <time>2020-08-23T10:52:15Z</time>
      </trkpt>
      <trkpt lat="41.939371" lon="0.096523">
        <ele>269.208</ele>
        <time>2020-08-23T10:52:16Z</time>
      </trkpt>
      <trkpt lat="41.939397" lon="0.096473">
        <ele>269.294</ele>
        <time>2020-08-23T10:52:17Z</time>
      </trkpt>
      <trkpt lat="41.939443" lon="0.096372">
        <ele>269.334</ele>
        <time>2020-08-23T10:52:19Z</time>
      </trkpt>
      <trkpt lat="41.939492" lon="0.096269">
        <ele>269.432</ele>
        <time>2020-08-23T10:52:21Z</time>
      </trkpt>
      <trkpt lat="41.939542" lon="0.096170">
        <ele>269.624</ele>
        <time>2020-08-23T10:52:23Z</time>
      </trkpt>
      <trkpt lat="41.939594" lon="0.096073">
        <ele>269.755</ele>
        <time>2020-08-23T10:52:25Z</time>
      </trkpt>
      <trkpt lat="41.939652" lon="0.095984">
        <ele>269.756</ele>
        <time>2020-08-23T10:52:27Z</time>
      </trkpt>
      <trkpt lat="41.939706" lon="0.095891">
        <ele>269.732</ele>
        <time>2020-08-23T10:52:29Z</time>
      </trkpt>
      <trkpt lat="41.939757" lon="0.095793">
        <ele>269.841</ele>
        <time>2020-08-23T10:52:31Z</time>
      </trkpt>
      <trkpt lat="41.939807" lon="0.095692">
        <ele>269.932</ele>
        <time>2020-08-23T10:52:33Z</time>
      </trkpt>
      <trkpt lat="41.939829" lon="0.095638">
        <ele>270.092</ele>
        <time>2020-08-23T10:52:34Z</time>
      </trkpt>
      <trkpt lat="41.939877" lon="0.095543">
        <ele>270.111</ele>
        <time>2020-08-23T10:52:36Z</time>
      </trkpt>
      <trkpt lat="41.939932" lon="0.095455">
        <ele>270.108</ele>
        <time>2020-08-23T10:52:38Z</time>
      </trkpt>
      <trkpt lat="41.939975" lon="0.095358">
        <ele>270.278</ele>
        <time>2020-08-23T10:52:40Z</time>
      </trkpt>
      <trkpt lat="41.940033" lon="0.095266">
        <ele>270.358</ele>
        <time>2020-08-23T10:52:42Z</time>
      </trkpt>
      <trkpt lat="41.940061" lon="0.095217">
        <ele>270.356</ele>
        <time>2020-08-23T10:52:43Z</time>
      </trkpt>
      <trkpt lat="41.940091" lon="0.095168">
        <ele>270.358</ele>
        <time>2020-08-23T10:52:44Z</time>
      </trkpt>
      <trkpt lat="41.940119" lon="0.095120">
        <ele>270.229</ele>
        <time>2020-08-23T10:52:45Z</time>
      </trkpt>
      <trkpt lat="41.940143" lon="0.095069">
        <ele>270.250</ele>
        <time>2020-08-23T10:52:46Z</time>
      </trkpt>
      <trkpt lat="41.940191" lon="0.094968">
        <ele>270.276</ele>
        <time>2020-08-23T10:52:48Z</time>
      </trkpt>
      <trkpt lat="41.940214" lon="0.094916">
        <ele>270.285</ele>
        <time>2020-08-23T10:52:49Z</time>
      </trkpt>
      <trkpt lat="41.940244" lon="0.094868">
        <ele>270.355</ele>
        <time>2020-08-23T10:52:50Z</time>
      </trkpt>
      <trkpt lat="41.940270" lon="0.094818">
        <ele>270.307</ele>
        <time>2020-08-23T10:52:51Z</time>
      </trkpt>
      <trkpt lat="41.940294" lon="0.094767">
        <ele>270.317</ele>
        <time>2020-08-23T10:52:52Z</time>
      </trkpt>
      <trkpt lat="41.940338" lon="0.094665">
        <ele>270.408</ele>
        <time>2020-08-23T10:52:54Z</time>
      </trkpt>
      <trkpt lat="41.940385" lon="0.094562">
        <ele>270.520</ele>
        <time>2020-08-23T10:52:56Z</time>
      </trkpt>
      <trkpt lat="41.940412" lon="0.094511">
        <ele>270.640</ele>
        <time>2020-08-23T10:52:57Z</time>
      </trkpt>
      <trkpt lat="41.940442" lon="0.094461">
        <ele>270.738</ele>
        <time>2020-08-23T10:52:58Z</time>
      </trkpt>
      <trkpt lat="41.940468" lon="0.094411">
        <ele>270.860</ele>
        <time>2020-08-23T10:52:59Z</time>
      </trkpt>
      <trkpt lat="41.940500" lon="0.094308">
        <ele>270.881</ele>
        <time>2020-08-23T10:53:01Z</time>
      </trkpt>
      <trkpt lat="41.940530" lon="0.094209">
        <ele>270.912</ele>
        <time>2020-08-23T10:53:03Z</time>
      </trkpt>
      <trkpt lat="41.940561" lon="0.094102">
        <ele>271.068</ele>
        <time>2020-08-23T10:53:05Z</time>
      </trkpt>
      <trkpt lat="41.940588" lon="0.094050">
        <ele>271.067</ele>
        <time>2020-08-23T10:53:06Z</time>
      </trkpt>
      <trkpt lat="41.940613" lon="0.093997">
        <ele>271.033</ele>
        <time>2020-08-23T10:53:07Z</time>
      </trkpt>
      <trkpt lat="41.940638" lon="0.093888">
        <ele>271.123</ele>
        <time>2020-08-23T10:53:09Z</time>
      </trkpt>
      <trkpt lat="41.940659" lon="0.093774">
        <ele>271.215</ele>
        <time>2020-08-23T10:53:11Z</time>
      </trkpt>
      <trkpt lat="41.940684" lon="0.093657">
        <ele>271.308</ele>
        <time>2020-08-23T10:53:13Z</time>
      </trkpt>
      <trkpt lat="41.940692" lon="0.093594">
        <ele>271.398</ele>
        <time>2020-08-23T10:53:14Z</time>
      </trkpt>
      <trkpt lat="41.940701" lon="0.093534">
        <ele>271.368</ele>
        <time>2020-08-23T10:53:15Z</time>
      </trkpt>
      <trkpt lat="41.940725" lon="0.093418">
        <ele>271.376</ele>
        <time>2020-08-23T10:53:17Z</time>
      </trkpt>
      <trkpt lat="41.940737" lon="0.093353">
        <ele>271.368</ele>
        <time>2020-08-23T10:53:18Z</time>
      </trkpt>
      <trkpt lat="41.940753" lon="0.093287">
        <ele>271.369</ele>
        <time>2020-08-23T10:53:19Z</time>
      </trkpt>
      <trkpt lat="41.940780" lon="0.093228">
        <ele>271.370</ele>
        <time>2020-08-23T10:53:20Z</time>
      </trkpt>
      <trkpt lat="41.940800" lon="0.093167">
        <ele>271.346</ele>
        <time>2020-08-23T10:53:21Z</time>
      </trkpt>
      <trkpt lat="41.940817" lon="0.093105">
        <ele>271.315</ele>
        <time>2020-08-23T10:53:22Z</time>
      </trkpt>
      <trkpt lat="41.940835" lon="0.093048">
        <ele>271.457</ele>
        <time>2020-08-23T10:53:23Z</time>
      </trkpt>
      <trkpt lat="41.940853" lon="0.092988">
        <ele>271.400</ele>
        <time>2020-08-23T10:53:24Z</time>
      </trkpt>
      <trkpt lat="41.940870" lon="0.092923">
        <ele>271.420</ele>
        <time>2020-08-23T10:53:25Z</time>
      </trkpt>
      <trkpt lat="41.940885" lon="0.092862">
        <ele>271.408</ele>
        <time>2020-08-23T10:53:26Z</time>
      </trkpt>
      <trkpt lat="41.940898" lon="0.092800">
        <ele>271.450</ele>
        <time>2020-08-23T10:53:27Z</time>
      </trkpt>
      <trkpt lat="41.940911" lon="0.092736">
        <ele>271.490</ele>
        <time>2020-08-23T10:53:28Z</time>
      </trkpt>
      <trkpt lat="41.940924" lon="0.092670">
        <ele>271.418</ele>
        <time>2020-08-23T10:53:29Z</time>
      </trkpt>
      <trkpt lat="41.940936" lon="0.092605">
        <ele>271.480</ele>
        <time>2020-08-23T10:53:30Z</time>
      </trkpt>
      <trkpt lat="41.940950" lon="0.092538">
        <ele>271.421</ele>
        <time>2020-08-23T10:53:31Z</time>
      </trkpt>
      <trkpt lat="41.940964" lon="0.092470">
        <ele>271.422</ele>
        <time>2020-08-23T10:53:32Z</time>
      </trkpt>
      <trkpt lat="41.940975" lon="0.092399">
        <ele>271.438</ele>
        <time>2020-08-23T10:53:33Z</time>
      </trkpt>
      <trkpt lat="41.940991" lon="0.092327">
        <ele>271.477</ele>
        <time>2020-08-23T10:53:34Z</time>
      </trkpt>
      <trkpt lat="41.941011" lon="0.092258">
        <ele>271.443</ele>
        <time>2020-08-23T10:53:35Z</time>
      </trkpt>
      <trkpt lat="41.941025" lon="0.092185">
        <ele>271.464</ele>
        <time>2020-08-23T10:53:36Z</time>
      </trkpt>
      <trkpt lat="41.941043" lon="0.092112">
        <ele>271.410</ele>
        <time>2020-08-23T10:53:37Z</time>
      </trkpt>
      <trkpt lat="41.941058" lon="0.092040">
        <ele>271.408</ele>
        <time>2020-08-23T10:53:38Z</time>
      </trkpt>
      <trkpt lat="41.941071" lon="0.091968">
        <ele>271.449</ele>
        <time>2020-08-23T10:53:39Z</time>
      </trkpt>
      <trkpt lat="41.941083" lon="0.091898">
        <ele>271.419</ele>
        <time>2020-08-23T10:53:40Z</time>
      </trkpt>
      <trkpt lat="41.941095" lon="0.091832">
        <ele>271.447</ele>
        <time>2020-08-23T10:53:41Z</time>
      </trkpt>
      <trkpt lat="41.941108" lon="0.091760">
        <ele>271.439</ele>
        <time>2020-08-23T10:53:42Z</time>
      </trkpt>
      <trkpt lat="41.941120" lon="0.091689">
        <ele>271.430</ele>
        <time>2020-08-23T10:53:43Z</time>
      </trkpt>
      <trkpt lat="41.941137" lon="0.091626">
        <ele>271.571</ele>
        <time>2020-08-23T10:53:44Z</time>
      </trkpt>
      <trkpt lat="41.941154" lon="0.091565">
        <ele>271.687</ele>
        <time>2020-08-23T10:53:45Z</time>
      </trkpt>
      <trkpt lat="41.941167" lon="0.091500">
        <ele>271.676</ele>
        <time>2020-08-23T10:53:46Z</time>
      </trkpt>
      <trkpt lat="41.941178" lon="0.091430">
        <ele>271.628</ele>
        <time>2020-08-23T10:53:47Z</time>
      </trkpt>
      <trkpt lat="41.941190" lon="0.091368">
        <ele>271.689</ele>
        <time>2020-08-23T10:53:48Z</time>
      </trkpt>
      <trkpt lat="41.941206" lon="0.091308">
        <ele>271.617</ele>
        <time>2020-08-23T10:53:49Z</time>
      </trkpt>
      <trkpt lat="41.941226" lon="0.091244">
        <ele>271.608</ele>
        <time>2020-08-23T10:53:50Z</time>
      </trkpt>
      <trkpt lat="41.941242" lon="0.091179">
        <ele>271.637</ele>
        <time>2020-08-23T10:53:51Z</time>
      </trkpt>
      <trkpt lat="41.941255" lon="0.091114">
        <ele>271.657</ele>
        <time>2020-08-23T10:53:52Z</time>
      </trkpt>
      <trkpt lat="41.941268" lon="0.091045">
        <ele>271.645</ele>
        <time>2020-08-23T10:53:53Z</time>
      </trkpt>
      <trkpt lat="41.941286" lon="0.090980">
        <ele>271.637</ele>
        <time>2020-08-23T10:53:55Z</time>
      </trkpt>
      <trkpt lat="41.941302" lon="0.090913">
        <ele>271.668</ele>
        <time>2020-08-23T10:53:56Z</time>
      </trkpt>
      <trkpt lat="41.941319" lon="0.090849">
        <ele>271.789</ele>
        <time>2020-08-23T10:53:57Z</time>
      </trkpt>
      <trkpt lat="41.941335" lon="0.090787">
        <ele>271.825</ele>
        <time>2020-08-23T10:53:58Z</time>
      </trkpt>
      <trkpt lat="41.941351" lon="0.090721">
        <ele>271.934</ele>
        <time>2020-08-23T10:53:59Z</time>
      </trkpt>
      <trkpt lat="41.941369" lon="0.090657">
        <ele>272.039</ele>
        <time>2020-08-23T10:54:00Z</time>
      </trkpt>
      <trkpt lat="41.941389" lon="0.090594">
        <ele>272.101</ele>
        <time>2020-08-23T10:54:01Z</time>
      </trkpt>
      <trkpt lat="41.941410" lon="0.090535">
        <ele>272.221</ele>
        <time>2020-08-23T10:54:02Z</time>
      </trkpt>
      <trkpt lat="41.941431" lon="0.090475">
        <ele>272.308</ele>
        <time>2020-08-23T10:54:03Z</time>
      </trkpt>
      <trkpt lat="41.941448" lon="0.090414">
        <ele>272.438</ele>
        <time>2020-08-23T10:54:04Z</time>
      </trkpt>
      <trkpt lat="41.941466" lon="0.090352">
        <ele>272.528</ele>
        <time>2020-08-23T10:54:05Z</time>
      </trkpt>
      <trkpt lat="41.941486" lon="0.090293">
        <ele>272.686</ele>
        <time>2020-08-23T10:54:06Z</time>
      </trkpt>
      <trkpt lat="41.941501" lon="0.090231">
        <ele>272.718</ele>
        <time>2020-08-23T10:54:07Z</time>
      </trkpt>
      <trkpt lat="41.941519" lon="0.090169">
        <ele>272.789</ele>
        <time>2020-08-23T10:54:08Z</time>
      </trkpt>
      <trkpt lat="41.941539" lon="0.090110">
        <ele>272.790</ele>
        <time>2020-08-23T10:54:09Z</time>
      </trkpt>
      <trkpt lat="41.941566" lon="0.090056">
        <ele>272.736</ele>
        <time>2020-08-23T10:54:10Z</time>
      </trkpt>
      <trkpt lat="41.941598" lon="0.090003">
        <ele>272.715</ele>
        <time>2020-08-23T10:54:11Z</time>
      </trkpt>
      <trkpt lat="41.941641" lon="0.089952">
        <ele>272.786</ele>
        <time>2020-08-23T10:54:12Z</time>
      </trkpt>
      <trkpt lat="41.941682" lon="0.089901">
        <ele>272.760</ele>
        <time>2020-08-23T10:54:13Z</time>
      </trkpt>
      <trkpt lat="41.941724" lon="0.089855">
        <ele>272.726</ele>
        <time>2020-08-23T10:54:14Z</time>
      </trkpt>
      <trkpt lat="41.941763" lon="0.089810">
        <ele>272.708</ele>
        <time>2020-08-23T10:54:15Z</time>
      </trkpt>
      <trkpt lat="41.941801" lon="0.089770">
        <ele>272.853</ele>
        <time>2020-08-23T10:54:16Z</time>
      </trkpt>
      <trkpt lat="41.941837" lon="0.089731">
        <ele>272.913</ele>
        <time>2020-08-23T10:54:17Z</time>
      </trkpt>
      <trkpt lat="41.941877" lon="0.089693">
        <ele>273.061</ele>
        <time>2020-08-23T10:54:18Z</time>
      </trkpt>
      <trkpt lat="41.941917" lon="0.089654">
        <ele>273.133</ele>
        <time>2020-08-23T10:54:19Z</time>
      </trkpt>
      <trkpt lat="41.941961" lon="0.089621">
        <ele>273.294</ele>
        <time>2020-08-23T10:54:20Z</time>
      </trkpt>
      <trkpt lat="41.942005" lon="0.089585">
        <ele>273.265</ele>
        <time>2020-08-23T10:54:21Z</time>
      </trkpt>
      <trkpt lat="41.942048" lon="0.089552">
        <ele>273.341</ele>
        <time>2020-08-23T10:54:22Z</time>
      </trkpt>
      <trkpt lat="41.942089" lon="0.089522">
        <ele>273.460</ele>
        <time>2020-08-23T10:54:23Z</time>
      </trkpt>
      <trkpt lat="41.942131" lon="0.089489">
        <ele>273.584</ele>
        <time>2020-08-23T10:54:24Z</time>
      </trkpt>
      <trkpt lat="41.942173" lon="0.089456">
        <ele>273.607</ele>
        <time>2020-08-23T10:54:25Z</time>
      </trkpt>
      <trkpt lat="41.942217" lon="0.089423">
        <ele>273.717</ele>
        <time>2020-08-23T10:54:26Z</time>
      </trkpt>
      <trkpt lat="41.942257" lon="0.089388">
        <ele>273.808</ele>
        <time>2020-08-23T10:54:27Z</time>
      </trkpt>
      <trkpt lat="41.942300" lon="0.089357">
        <ele>273.923</ele>
        <time>2020-08-23T10:54:28Z</time>
      </trkpt>
      <trkpt lat="41.942339" lon="0.089320">
        <ele>274.053</ele>
        <time>2020-08-23T10:54:29Z</time>
      </trkpt>
      <trkpt lat="41.942379" lon="0.089283">
        <ele>274.171</ele>
        <time>2020-08-23T10:54:30Z</time>
      </trkpt>
      <trkpt lat="41.942417" lon="0.089241">
        <ele>274.233</ele>
        <time>2020-08-23T10:54:31Z</time>
      </trkpt>
      <trkpt lat="41.942452" lon="0.089195">
        <ele>274.394</ele>
        <time>2020-08-23T10:54:32Z</time>
      </trkpt>
      <trkpt lat="41.942487" lon="0.089151">
        <ele>274.415</ele>
        <time>2020-08-23T10:54:33Z</time>
      </trkpt>
      <trkpt lat="41.942522" lon="0.089108">
        <ele>274.571</ele>
        <time>2020-08-23T10:54:34Z</time>
      </trkpt>
      <trkpt lat="41.942559" lon="0.089063">
        <ele>274.670</ele>
        <time>2020-08-23T10:54:35Z</time>
      </trkpt>
      <trkpt lat="41.942596" lon="0.089019">
        <ele>274.798</ele>
        <time>2020-08-23T10:54:36Z</time>
      </trkpt>
      <trkpt lat="41.942635" lon="0.088979">
        <ele>274.715</ele>
        <time>2020-08-23T10:54:37Z</time>
      </trkpt>
      <trkpt lat="41.942673" lon="0.088940">
        <ele>274.826</ele>
        <time>2020-08-23T10:54:38Z</time>
      </trkpt>
      <trkpt lat="41.942712" lon="0.088900">
        <ele>274.808</ele>
        <time>2020-08-23T10:54:39Z</time>
      </trkpt>
      <trkpt lat="41.942754" lon="0.088861">
        <ele>274.894</ele>
        <time>2020-08-23T10:54:40Z</time>
      </trkpt>
      <trkpt lat="41.942796" lon="0.088821">
        <ele>274.894</ele>
        <time>2020-08-23T10:54:41Z</time>
      </trkpt>
      <trkpt lat="41.942838" lon="0.088785">
        <ele>274.822</ele>
        <time>2020-08-23T10:54:42Z</time>
      </trkpt>
      <trkpt lat="41.942878" lon="0.088749">
        <ele>274.844</ele>
        <time>2020-08-23T10:54:43Z</time>
      </trkpt>
      <trkpt lat="41.942919" lon="0.088710">
        <ele>274.825</ele>
        <time>2020-08-23T10:54:44Z</time>
      </trkpt>
      <trkpt lat="41.942962" lon="0.088674">
        <ele>274.816</ele>
        <time>2020-08-23T10:54:45Z</time>
      </trkpt>
      <trkpt lat="41.943005" lon="0.088636">
        <ele>274.892</ele>
        <time>2020-08-23T10:54:46Z</time>
      </trkpt>
      <trkpt lat="41.943044" lon="0.088594">
        <ele>274.831</ele>
        <time>2020-08-23T10:54:47Z</time>
      </trkpt>
      <trkpt lat="41.943083" lon="0.088555">
        <ele>274.856</ele>
        <time>2020-08-23T10:54:48Z</time>
      </trkpt>
      <trkpt lat="41.943123" lon="0.088513">
        <ele>274.859</ele>
        <time>2020-08-23T10:54:49Z</time>
      </trkpt>
      <trkpt lat="41.943162" lon="0.088471">
        <ele>274.814</ele>
        <time>2020-08-23T10:54:50Z</time>
      </trkpt>
      <trkpt lat="41.943198" lon="0.088430">
        <ele>274.808</ele>
        <time>2020-08-23T10:54:51Z</time>
      </trkpt>
      <trkpt lat="41.943235" lon="0.088391">
        <ele>274.970</ele>
        <time>2020-08-23T10:54:52Z</time>
      </trkpt>
      <trkpt lat="41.943275" lon="0.088352">
        <ele>275.010</ele>
        <time>2020-08-23T10:54:53Z</time>
      </trkpt>
      <trkpt lat="41.943319" lon="0.088317">
        <ele>275.188</ele>
        <time>2020-08-23T10:54:54Z</time>
      </trkpt>
      <trkpt lat="41.943363" lon="0.088283">
        <ele>275.250</ele>
        <time>2020-08-23T10:54:55Z</time>
      </trkpt>
      <trkpt lat="41.943404" lon="0.088245">
        <ele>275.391</ele>
        <time>2020-08-23T10:54:56Z</time>
      </trkpt>
      <trkpt lat="41.943444" lon="0.088205">
        <ele>275.332</ele>
        <time>2020-08-23T10:54:57Z</time>
      </trkpt>
      <trkpt lat="41.943484" lon="0.088161">
        <ele>275.338</ele>
        <time>2020-08-23T10:54:58Z</time>
      </trkpt>
      <trkpt lat="41.943527" lon="0.088122">
        <ele>275.387</ele>
        <time>2020-08-23T10:54:59Z</time>
      </trkpt>
      <trkpt lat="41.943562" lon="0.088073">
        <ele>275.398</ele>
        <time>2020-08-23T10:55:00Z</time>
      </trkpt>
      <trkpt lat="41.943601" lon="0.088033">
        <ele>275.415</ele>
        <time>2020-08-23T10:55:01Z</time>
      </trkpt>
      <trkpt lat="41.943639" lon="0.087993">
        <ele>275.526</ele>
        <time>2020-08-23T10:55:02Z</time>
      </trkpt>
      <trkpt lat="41.943676" lon="0.087947">
        <ele>275.608</ele>
        <time>2020-08-23T10:55:03Z</time>
      </trkpt>
      <trkpt lat="41.943718" lon="0.087904">
        <ele>275.744</ele>
        <time>2020-08-23T10:55:04Z</time>
      </trkpt>
      <trkpt lat="41.943756" lon="0.087857">
        <ele>275.814</ele>
        <time>2020-08-23T10:55:05Z</time>
      </trkpt>
      <trkpt lat="41.943786" lon="0.087803">
        <ele>275.932</ele>
        <time>2020-08-23T10:55:06Z</time>
      </trkpt>
      <trkpt lat="41.943815" lon="0.087753">
        <ele>276.024</ele>
        <time>2020-08-23T10:55:07Z</time>
      </trkpt>
      <trkpt lat="41.943845" lon="0.087702">
        <ele>276.125</ele>
        <time>2020-08-23T10:55:08Z</time>
      </trkpt>
      <trkpt lat="41.943872" lon="0.087649">
        <ele>276.136</ele>
        <time>2020-08-23T10:55:09Z</time>
      </trkpt>
      <trkpt lat="41.943902" lon="0.087600">
        <ele>276.162</ele>
        <time>2020-08-23T10:55:10Z</time>
      </trkpt>
      <trkpt lat="41.943928" lon="0.087545">
        <ele>276.141</ele>
        <time>2020-08-23T10:55:11Z</time>
      </trkpt>
      <trkpt lat="41.943959" lon="0.087497">
        <ele>276.143</ele>
        <time>2020-08-23T10:55:12Z</time>
      </trkpt>
      <trkpt lat="41.943994" lon="0.087451">
        <ele>276.164</ele>
        <time>2020-08-23T10:55:13Z</time>
      </trkpt>
      <trkpt lat="41.944027" lon="0.087401">
        <ele>276.210</ele>
        <time>2020-08-23T10:55:14Z</time>
      </trkpt>
      <trkpt lat="41.944062" lon="0.087353">
        <ele>276.308</ele>
        <time>2020-08-23T10:55:15Z</time>
      </trkpt>
      <trkpt lat="41.944097" lon="0.087304">
        <ele>276.379</ele>
        <time>2020-08-23T10:55:16Z</time>
      </trkpt>
      <trkpt lat="41.944129" lon="0.087254">
        <ele>276.349</ele>
        <time>2020-08-23T10:55:17Z</time>
      </trkpt>
      <trkpt lat="41.944162" lon="0.087208">
        <ele>276.347</ele>
        <time>2020-08-23T10:55:18Z</time>
      </trkpt>
      <trkpt lat="41.944191" lon="0.087160">
        <ele>276.389</ele>
        <time>2020-08-23T10:55:19Z</time>
      </trkpt>
      <trkpt lat="41.944221" lon="0.087111">
        <ele>276.360</ele>
        <time>2020-08-23T10:55:20Z</time>
      </trkpt>
      <trkpt lat="41.944253" lon="0.087064">
        <ele>276.371</ele>
        <time>2020-08-23T10:55:21Z</time>
      </trkpt>
      <trkpt lat="41.944283" lon="0.087015">
        <ele>276.397</ele>
        <time>2020-08-23T10:55:22Z</time>
      </trkpt>
      <trkpt lat="41.944310" lon="0.086965">
        <ele>276.446</ele>
        <time>2020-08-23T10:55:23Z</time>
      </trkpt>
      <trkpt lat="41.944339" lon="0.086914">
        <ele>276.467</ele>
        <time>2020-08-23T10:55:24Z</time>
      </trkpt>
      <trkpt lat="41.944366" lon="0.086861">
        <ele>276.481</ele>
        <time>2020-08-23T10:55:25Z</time>
      </trkpt>
      <trkpt lat="41.944396" lon="0.086806">
        <ele>276.419</ele>
        <time>2020-08-23T10:55:26Z</time>
      </trkpt>
      <trkpt lat="41.944429" lon="0.086754">
        <ele>276.408</ele>
        <time>2020-08-23T10:55:27Z</time>
      </trkpt>
      <trkpt lat="41.944457" lon="0.086701">
        <ele>276.491</ele>
        <time>2020-08-23T10:55:28Z</time>
      </trkpt>
      <trkpt lat="41.944487" lon="0.086647">
        <ele>276.571</ele>
        <time>2020-08-23T10:55:29Z</time>
      </trkpt>
      <trkpt lat="41.944520" lon="0.086595">
        <ele>276.549</ele>
        <time>2020-08-23T10:55:30Z</time>
      </trkpt>
      <trkpt lat="41.944550" lon="0.086540">
        <ele>276.511</ele>
        <time>2020-08-23T10:55:31Z</time>
      </trkpt>
      <trkpt lat="41.944579" lon="0.086488">
        <ele>276.572</ele>
        <time>2020-08-23T10:55:32Z</time>
      </trkpt>
      <trkpt lat="41.944614" lon="0.086442">
        <ele>276.583</ele>
        <time>2020-08-23T10:55:33Z</time>
      </trkpt>
      <trkpt lat="41.944645" lon="0.086394">
        <ele>276.539</ele>
        <time>2020-08-23T10:55:34Z</time>
      </trkpt>
      <trkpt lat="41.944676" lon="0.086344">
        <ele>276.638</ele>
        <time>2020-08-23T10:55:35Z</time>
      </trkpt>
      <trkpt lat="41.944706" lon="0.086295">
        <ele>276.718</ele>
        <time>2020-08-23T10:55:36Z</time>
      </trkpt>
      <trkpt lat="41.944734" lon="0.086241">
        <ele>276.898</ele>
        <time>2020-08-23T10:55:37Z</time>
      </trkpt>
      <trkpt lat="41.944765" lon="0.086190">
        <ele>276.917</ele>
        <time>2020-08-23T10:55:38Z</time>
      </trkpt>
      <trkpt lat="41.944795" lon="0.086144">
        <ele>277.008</ele>
        <time>2020-08-23T10:55:39Z</time>
      </trkpt>
      <trkpt lat="41.944827" lon="0.086096">
        <ele>277.186</ele>
        <time>2020-08-23T10:55:40Z</time>
      </trkpt>
      <trkpt lat="41.944864" lon="0.086049">
        <ele>277.236</ele>
        <time>2020-08-23T10:55:41Z</time>
      </trkpt>
      <trkpt lat="41.944898" lon="0.085996">
        <ele>277.274</ele>
        <time>2020-08-23T10:55:42Z</time>
      </trkpt>
      <trkpt lat="41.944932" lon="0.085946">
        <ele>277.296</ele>
        <time>2020-08-23T10:55:43Z</time>
      </trkpt>
      <trkpt lat="41.944964" lon="0.085901">
        <ele>277.267</ele>
        <time>2020-08-23T10:55:44Z</time>
      </trkpt>
      <trkpt lat="41.944997" lon="0.085851">
        <ele>277.228</ele>
        <time>2020-08-23T10:55:45Z</time>
      </trkpt>
      <trkpt lat="41.945029" lon="0.085802">
        <ele>277.254</ele>
        <time>2020-08-23T10:55:46Z</time>
      </trkpt>
      <trkpt lat="41.945060" lon="0.085751">
        <ele>277.383</ele>
        <time>2020-08-23T10:55:47Z</time>
      </trkpt>
      <trkpt lat="41.945088" lon="0.085701">
        <ele>277.425</ele>
        <time>2020-08-23T10:55:48Z</time>
      </trkpt>
      <trkpt lat="41.945114" lon="0.085650">
        <ele>277.426</ele>
        <time>2020-08-23T10:55:49Z</time>
      </trkpt>
      <trkpt lat="41.945146" lon="0.085601">
        <ele>277.408</ele>
        <time>2020-08-23T10:55:50Z</time>
      </trkpt>
      <trkpt lat="41.945180" lon="0.085548">
        <ele>277.408</ele>
        <time>2020-08-23T10:55:51Z</time>
      </trkpt>
      <trkpt lat="41.945219" lon="0.085501">
        <ele>277.497</ele>
        <time>2020-08-23T10:55:52Z</time>
      </trkpt>
      <trkpt lat="41.945255" lon="0.085454">
        <ele>277.457</ele>
        <time>2020-08-23T10:55:53Z</time>
      </trkpt>
      <trkpt lat="41.945288" lon="0.085405">
        <ele>277.465</ele>
        <time>2020-08-23T10:55:54Z</time>
      </trkpt>
      <trkpt lat="41.945319" lon="0.085356">
        <ele>277.467</ele>
        <time>2020-08-23T10:55:55Z</time>
      </trkpt>
      <trkpt lat="41.945349" lon="0.085307">
        <ele>277.498</ele>
        <time>2020-08-23T10:55:56Z</time>
      </trkpt>
      <trkpt lat="41.945376" lon="0.085257">
        <ele>277.489</ele>
        <time>2020-08-23T10:55:57Z</time>
      </trkpt>
      <trkpt lat="41.945406" lon="0.085206">
        <ele>277.435</ele>
        <time>2020-08-23T10:55:58Z</time>
      </trkpt>
      <trkpt lat="41.945440" lon="0.085156">
        <ele>277.444</ele>
        <time>2020-08-23T10:55:59Z</time>
      </trkpt>
      <trkpt lat="41.945473" lon="0.085103">
        <ele>277.547</ele>
        <time>2020-08-23T10:56:00Z</time>
      </trkpt>
      <trkpt lat="41.945504" lon="0.085053">
        <ele>277.529</ele>
        <time>2020-08-23T10:56:01Z</time>
      </trkpt>
      <trkpt lat="41.945536" lon="0.085005">
        <ele>277.521</ele>
        <time>2020-08-23T10:56:02Z</time>
      </trkpt>
      <trkpt lat="41.945568" lon="0.084958">
        <ele>277.508</ele>
        <time>2020-08-23T10:56:03Z</time>
      </trkpt>
      <trkpt lat="41.945602" lon="0.084911">
        <ele>277.719</ele>
        <time>2020-08-23T10:56:04Z</time>
      </trkpt>
      <trkpt lat="41.945641" lon="0.084868">
        <ele>277.859</ele>
        <time>2020-08-23T10:56:05Z</time>
      </trkpt>
      <trkpt lat="41.945677" lon="0.084824">
        <ele>277.937</ele>
        <time>2020-08-23T10:56:06Z</time>
      </trkpt>
      <trkpt lat="41.945710" lon="0.084775">
        <ele>278.079</ele>
        <time>2020-08-23T10:56:07Z</time>
      </trkpt>
      <trkpt lat="41.945745" lon="0.084728">
        <ele>278.150</ele>
        <time>2020-08-23T10:56:08Z</time>
      </trkpt>
      <trkpt lat="41.945781" lon="0.084686">
        <ele>278.291</ele>
        <time>2020-08-23T10:56:09Z</time>
      </trkpt>
      <trkpt lat="41.945850" lon="0.084605">
        <ele>278.497</ele>
        <time>2020-08-23T10:56:11Z</time>
      </trkpt>
      <trkpt lat="41.945886" lon="0.084563">
        <ele>278.586</ele>
        <time>2020-08-23T10:56:12Z</time>
      </trkpt>
      <trkpt lat="41.945952" lon="0.084485">
        <ele>278.684</ele>
        <time>2020-08-23T10:56:14Z</time>
      </trkpt>
      <trkpt lat="41.945990" lon="0.084444">
        <ele>278.607</ele>
        <time>2020-08-23T10:56:15Z</time>
      </trkpt>
      <trkpt lat="41.946030" lon="0.084399">
        <ele>278.617</ele>
        <time>2020-08-23T10:56:16Z</time>
      </trkpt>
      <trkpt lat="41.946068" lon="0.084354">
        <ele>278.608</ele>
        <time>2020-08-23T10:56:17Z</time>
      </trkpt>
      <trkpt lat="41.946105" lon="0.084316">
        <ele>278.673</ele>
        <time>2020-08-23T10:56:18Z</time>
      </trkpt>
      <trkpt lat="41.946144" lon="0.084273">
        <ele>278.683</ele>
        <time>2020-08-23T10:56:19Z</time>
      </trkpt>
      <trkpt lat="41.946183" lon="0.084230">
        <ele>278.621</ele>
        <time>2020-08-23T10:56:20Z</time>
      </trkpt>
      <trkpt lat="41.946222" lon="0.084188">
        <ele>278.683</ele>
        <time>2020-08-23T10:56:21Z</time>
      </trkpt>
      <trkpt lat="41.946262" lon="0.084149">
        <ele>278.694</ele>
        <time>2020-08-23T10:56:22Z</time>
      </trkpt>
      <trkpt lat="41.946300" lon="0.084110">
        <ele>278.625</ele>
        <time>2020-08-23T10:56:23Z</time>
      </trkpt>
      <trkpt lat="41.946340" lon="0.084071">
        <ele>278.661</ele>
        <time>2020-08-23T10:56:24Z</time>
      </trkpt>
      <trkpt lat="41.946382" lon="0.084031">
        <ele>278.690</ele>
        <time>2020-08-23T10:56:25Z</time>
      </trkpt>
      <trkpt lat="41.946421" lon="0.083992">
        <ele>278.633</ele>
        <time>2020-08-23T10:56:26Z</time>
      </trkpt>
      <trkpt lat="41.946459" lon="0.083955">
        <ele>278.623</ele>
        <time>2020-08-23T10:56:27Z</time>
      </trkpt>
      <trkpt lat="41.946497" lon="0.083914">
        <ele>278.615</ele>
        <time>2020-08-23T10:56:28Z</time>
      </trkpt>
      <trkpt lat="41.946537" lon="0.083873">
        <ele>278.608</ele>
        <time>2020-08-23T10:56:29Z</time>
      </trkpt>
      <trkpt lat="41.946577" lon="0.083834">
        <ele>278.688</ele>
        <time>2020-08-23T10:56:30Z</time>
      </trkpt>
      <trkpt lat="41.946620" lon="0.083801">
        <ele>278.618</ele>
        <time>2020-08-23T10:56:31Z</time>
      </trkpt>
      <trkpt lat="41.946664" lon="0.083768">
        <ele>278.646</ele>
        <time>2020-08-23T10:56:32Z</time>
      </trkpt>
      <trkpt lat="41.946706" lon="0.083730">
        <ele>278.618</ele>
        <time>2020-08-23T10:56:33Z</time>
      </trkpt>
      <trkpt lat="41.946746" lon="0.083692">
        <ele>278.769</ele>
        <time>2020-08-23T10:56:34Z</time>
      </trkpt>
      <trkpt lat="41.946784" lon="0.083649">
        <ele>278.740</ele>
        <time>2020-08-23T10:56:35Z</time>
      </trkpt>
      <trkpt lat="41.946826" lon="0.083611">
        <ele>278.756</ele>
        <time>2020-08-23T10:56:36Z</time>
      </trkpt>
      <trkpt lat="41.946868" lon="0.083575">
        <ele>278.785</ele>
        <time>2020-08-23T10:56:37Z</time>
      </trkpt>
      <trkpt lat="41.946906" lon="0.083529">
        <ele>278.759</ele>
        <time>2020-08-23T10:56:38Z</time>
      </trkpt>
      <trkpt lat="41.946944" lon="0.083481">
        <ele>278.703</ele>
        <time>2020-08-23T10:56:39Z</time>
      </trkpt>
      <trkpt lat="41.946984" lon="0.083440">
        <ele>278.723</ele>
        <time>2020-08-23T10:56:40Z</time>
      </trkpt>
      <trkpt lat="41.947021" lon="0.083396">
        <ele>278.708</ele>
        <time>2020-08-23T10:56:41Z</time>
      </trkpt>
      <trkpt lat="41.947060" lon="0.083357">
        <ele>278.730</ele>
        <time>2020-08-23T10:56:42Z</time>
      </trkpt>
      <trkpt lat="41.947100" lon="0.083322">
        <ele>278.770</ele>
        <time>2020-08-23T10:56:43Z</time>
      </trkpt>
      <trkpt lat="41.947138" lon="0.083282">
        <ele>278.768</ele>
        <time>2020-08-23T10:56:44Z</time>
      </trkpt>
      <trkpt lat="41.947176" lon="0.083242">
        <ele>278.720</ele>
        <time>2020-08-23T10:56:45Z</time>
      </trkpt>
      <trkpt lat="41.947218" lon="0.083199">
        <ele>278.771</ele>
        <time>2020-08-23T10:56:46Z</time>
      </trkpt>
      <trkpt lat="41.947258" lon="0.083153">
        <ele>278.762</ele>
        <time>2020-08-23T10:56:47Z</time>
      </trkpt>
      <trkpt lat="41.947299" lon="0.083107">
        <ele>278.758</ele>
        <time>2020-08-23T10:56:48Z</time>
      </trkpt>
      <trkpt lat="41.947337" lon="0.083061">
        <ele>278.737</ele>
        <time>2020-08-23T10:56:49Z</time>
      </trkpt>
      <trkpt lat="41.947367" lon="0.083008">
        <ele>278.734</ele>
        <time>2020-08-23T10:56:50Z</time>
      </trkpt>
      <trkpt lat="41.947392" lon="0.082949">
        <ele>278.755</ele>
        <time>2020-08-23T10:56:51Z</time>
      </trkpt>
      <trkpt lat="41.947418" lon="0.082889">
        <ele>278.710</ele>
        <time>2020-08-23T10:56:52Z</time>
      </trkpt>
      <trkpt lat="41.947437" lon="0.082829">
        <ele>278.708</ele>
        <time>2020-08-23T10:56:53Z</time>
      </trkpt>
      <trkpt lat="41.947457" lon="0.082770">
        <ele>278.758</ele>
        <time>2020-08-23T10:56:54Z</time>
      </trkpt>
      <trkpt lat="41.947479" lon="0.082711">
        <ele>278.768</ele>
        <time>2020-08-23T10:56:55Z</time>
      </trkpt>
      <trkpt lat="41.947505" lon="0.082652">
        <ele>278.746</ele>
        <time>2020-08-23T10:56:56Z</time>
      </trkpt>
      <trkpt lat="41.947531" lon="0.082593">
        <ele>278.728</ele>
        <time>2020-08-23T10:56:57Z</time>
      </trkpt>
      <trkpt lat="41.947553" lon="0.082532">
        <ele>278.769</ele>
        <time>2020-08-23T10:56:58Z</time>
      </trkpt>
      <trkpt lat="41.947576" lon="0.082476">
        <ele>278.730</ele>
        <time>2020-08-23T10:56:59Z</time>
      </trkpt>
      <trkpt lat="41.947600" lon="0.082418">
        <ele>278.776</ele>
        <time>2020-08-23T10:57:00Z</time>
      </trkpt>
      <trkpt lat="41.947622" lon="0.082358">
        <ele>278.785</ele>
        <time>2020-08-23T10:57:01Z</time>
      </trkpt>
      <trkpt lat="41.947644" lon="0.082304">
        <ele>278.751</ele>
        <time>2020-08-23T10:57:02Z</time>
      </trkpt>
      <trkpt lat="41.947699" lon="0.082221">
        <ele>278.901</ele>
        <time>2020-08-23T10:57:04Z</time>
      </trkpt>
      <trkpt lat="41.947747" lon="0.082130">
        <ele>279.211</ele>
        <time>2020-08-23T10:57:06Z</time>
      </trkpt>
      <trkpt lat="41.947789" lon="0.082026">
        <ele>279.508</ele>
        <time>2020-08-23T10:57:08Z</time>
      </trkpt>
      <trkpt lat="41.947828" lon="0.081930">
        <ele>279.830</ele>
        <time>2020-08-23T10:57:10Z</time>
      </trkpt>
      <trkpt lat="41.947864" lon="0.081847">
        <ele>280.180</ele>
        <time>2020-08-23T10:57:12Z</time>
      </trkpt>
      <trkpt lat="41.947859" lon="0.081744">
        <ele>280.368</ele>
        <time>2020-08-23T10:57:14Z</time>
      </trkpt>
      <trkpt lat="41.947846" lon="0.081636">
        <ele>280.380</ele>
        <time>2020-08-23T10:57:16Z</time>
      </trkpt>
      <trkpt lat="41.947848" lon="0.081547">
        <ele>280.261</ele>
        <time>2020-08-23T10:57:18Z</time>
      </trkpt>
      <trkpt lat="41.947852" lon="0.081453">
        <ele>280.172</ele>
        <time>2020-08-23T10:57:20Z</time>
      </trkpt>
      <trkpt lat="41.947870" lon="0.081349">
        <ele>279.968</ele>
        <time>2020-08-23T10:57:22Z</time>
      </trkpt>
      <trkpt lat="41.947888" lon="0.081239">
        <ele>279.827</ele>
        <time>2020-08-23T10:57:24Z</time>
      </trkpt>
      <trkpt lat="41.947897" lon="0.081121">
        <ele>279.799</ele>
        <time>2020-08-23T10:57:26Z</time>
      </trkpt>
      <trkpt lat="41.947913" lon="0.081064">
        <ele>279.707</ele>
        <time>2020-08-23T10:57:27Z</time>
      </trkpt>
      <trkpt lat="41.947936" lon="0.081011">
        <ele>279.727</ele>
        <time>2020-08-23T10:57:28Z</time>
      </trkpt>
      <trkpt lat="41.947977" lon="0.080908">
        <ele>279.708</ele>
        <time>2020-08-23T10:57:30Z</time>
      </trkpt>
      <trkpt lat="41.948003" lon="0.080853">
        <ele>279.774</ele>
        <time>2020-08-23T10:57:31Z</time>
      </trkpt>
      <trkpt lat="41.948025" lon="0.080797">
        <ele>279.784</ele>
        <time>2020-08-23T10:57:32Z</time>
      </trkpt>
      <trkpt lat="41.948047" lon="0.080739">
        <ele>279.772</ele>
        <time>2020-08-23T10:57:33Z</time>
      </trkpt>
      <trkpt lat="41.948063" lon="0.080681">
        <ele>279.724</ele>
        <time>2020-08-23T10:57:34Z</time>
      </trkpt>
      <trkpt lat="41.948087" lon="0.080574">
        <ele>279.845</ele>
        <time>2020-08-23T10:57:36Z</time>
      </trkpt>
      <trkpt lat="41.948121" lon="0.080477">
        <ele>280.146</ele>
        <time>2020-08-23T10:57:38Z</time>
      </trkpt>
      <trkpt lat="41.948162" lon="0.080371">
        <ele>280.492</ele>
        <time>2020-08-23T10:57:40Z</time>
      </trkpt>
      <trkpt lat="41.948180" lon="0.080310">
        <ele>280.521</ele>
        <time>2020-08-23T10:57:41Z</time>
      </trkpt>
      <trkpt lat="41.948198" lon="0.080249">
        <ele>280.646</ele>
        <time>2020-08-23T10:57:42Z</time>
      </trkpt>
      <trkpt lat="41.948219" lon="0.080191">
        <ele>280.688</ele>
        <time>2020-08-23T10:57:43Z</time>
      </trkpt>
      <trkpt lat="41.948239" lon="0.080128">
        <ele>280.716</ele>
        <time>2020-08-23T10:57:44Z</time>
      </trkpt>
      <trkpt lat="41.948265" lon="0.080072">
        <ele>280.708</ele>
        <time>2020-08-23T10:57:45Z</time>
      </trkpt>
      <trkpt lat="41.948287" lon="0.080014">
        <ele>280.769</ele>
        <time>2020-08-23T10:57:46Z</time>
      </trkpt>
      <trkpt lat="41.948314" lon="0.079959">
        <ele>280.799</ele>
        <time>2020-08-23T10:57:47Z</time>
      </trkpt>
      <trkpt lat="41.948338" lon="0.079897">
        <ele>280.747</ele>
        <time>2020-08-23T10:57:48Z</time>
      </trkpt>
      <trkpt lat="41.948359" lon="0.079832">
        <ele>280.729</ele>
        <time>2020-08-23T10:57:49Z</time>
      </trkpt>
      <trkpt lat="41.948380" lon="0.079767">
        <ele>280.880</ele>
        <time>2020-08-23T10:57:50Z</time>
      </trkpt>
      <trkpt lat="41.948403" lon="0.079704">
        <ele>280.951</ele>
        <time>2020-08-23T10:57:51Z</time>
      </trkpt>
      <trkpt lat="41.948424" lon="0.079638">
        <ele>280.997</ele>
        <time>2020-08-23T10:57:52Z</time>
      </trkpt>
      <trkpt lat="41.948440" lon="0.079572">
        <ele>280.976</ele>
        <time>2020-08-23T10:57:53Z</time>
      </trkpt>
      <trkpt lat="41.948460" lon="0.079507">
        <ele>280.925</ele>
        <time>2020-08-23T10:57:54Z</time>
      </trkpt>
      <trkpt lat="41.948482" lon="0.079445">
        <ele>280.926</ele>
        <time>2020-08-23T10:57:55Z</time>
      </trkpt>
      <trkpt lat="41.948505" lon="0.079384">
        <ele>280.908</ele>
        <time>2020-08-23T10:57:56Z</time>
      </trkpt>
      <trkpt lat="41.948534" lon="0.079325">
        <ele>280.908</ele>
        <time>2020-08-23T10:57:57Z</time>
      </trkpt>
      <trkpt lat="41.948560" lon="0.079265">
        <ele>280.977</ele>
        <time>2020-08-23T10:57:58Z</time>
      </trkpt>
      <trkpt lat="41.948568" lon="0.079200">
        <ele>281.087</ele>
        <time>2020-08-23T10:57:59Z</time>
      </trkpt>
      <trkpt lat="41.948591" lon="0.079075">
        <ele>281.495</ele>
        <time>2020-08-23T10:58:01Z</time>
      </trkpt>
      <trkpt lat="41.948612" lon="0.079011">
        <ele>281.517</ele>
        <time>2020-08-23T10:58:02Z</time>
      </trkpt>
      <trkpt lat="41.948631" lon="0.078951">
        <ele>281.528</ele>
        <time>2020-08-23T10:58:03Z</time>
      </trkpt>
      <trkpt lat="41.948656" lon="0.078889">
        <ele>281.529</ele>
        <time>2020-08-23T10:58:04Z</time>
      </trkpt>
      <trkpt lat="41.948683" lon="0.078831">
        <ele>281.475</ele>
        <time>2020-08-23T10:58:05Z</time>
      </trkpt>
      <trkpt lat="41.948710" lon="0.078768">
        <ele>281.424</ele>
        <time>2020-08-23T10:58:06Z</time>
      </trkpt>
      <trkpt lat="41.948733" lon="0.078699">
        <ele>281.416</ele>
        <time>2020-08-23T10:58:07Z</time>
      </trkpt>
      <trkpt lat="41.948756" lon="0.078634">
        <ele>281.476</ele>
        <time>2020-08-23T10:58:08Z</time>
      </trkpt>
      <trkpt lat="41.948775" lon="0.078567">
        <ele>281.513</ele>
        <time>2020-08-23T10:58:09Z</time>
      </trkpt>
      <trkpt lat="41.948793" lon="0.078502">
        <ele>281.608</ele>
        <time>2020-08-23T10:58:10Z</time>
      </trkpt>
      <trkpt lat="41.948813" lon="0.078444">
        <ele>281.796</ele>
        <time>2020-08-23T10:58:11Z</time>
      </trkpt>
      <trkpt lat="41.948835" lon="0.078389">
        <ele>281.956</ele>
        <time>2020-08-23T10:58:12Z</time>
      </trkpt>
      <trkpt lat="41.948853" lon="0.078330">
        <ele>282.114</ele>
        <time>2020-08-23T10:58:13Z</time>
      </trkpt>
      <trkpt lat="41.948868" lon="0.078270">
        <ele>282.246</ele>
        <time>2020-08-23T10:58:14Z</time>
      </trkpt>
      <trkpt lat="41.948884" lon="0.078205">
        <ele>282.277</ele>
        <time>2020-08-23T10:58:15Z</time>
      </trkpt>
      <trkpt lat="41.948898" lon="0.078144">
        <ele>282.228</ele>
        <time>2020-08-23T10:58:16Z</time>
      </trkpt>
      <trkpt lat="41.948922" lon="0.078035">
        <ele>282.134</ele>
        <time>2020-08-23T10:58:18Z</time>
      </trkpt>
      <trkpt lat="41.948940" lon="0.077978">
        <ele>282.183</ele>
        <time>2020-08-23T10:58:19Z</time>
      </trkpt>
      <trkpt lat="41.948970" lon="0.077877">
        <ele>282.251</ele>
        <time>2020-08-23T10:58:21Z</time>
      </trkpt>
      <trkpt lat="41.949006" lon="0.077777">
        <ele>282.301</ele>
        <time>2020-08-23T10:58:23Z</time>
      </trkpt>
      <trkpt lat="41.949040" lon="0.077670">
        <ele>282.211</ele>
        <time>2020-08-23T10:58:25Z</time>
      </trkpt>
      <trkpt lat="41.949057" lon="0.077560">
        <ele>282.108</ele>
        <time>2020-08-23T10:58:27Z</time>
      </trkpt>
      <trkpt lat="41.949074" lon="0.077450">
        <ele>282.050</ele>
        <time>2020-08-23T10:58:29Z</time>
      </trkpt>
      <trkpt lat="41.949087" lon="0.077345">
        <ele>282.070</ele>
        <time>2020-08-23T10:58:31Z</time>
      </trkpt>
      <trkpt lat="41.949111" lon="0.077239">
        <ele>282.068</ele>
        <time>2020-08-23T10:58:33Z</time>
      </trkpt>
      <trkpt lat="41.949131" lon="0.077129">
        <ele>282.110</ele>
        <time>2020-08-23T10:58:35Z</time>
      </trkpt>
      <trkpt lat="41.949157" lon="0.077022">
        <ele>282.241</ele>
        <time>2020-08-23T10:58:37Z</time>
      </trkpt>
      <trkpt lat="41.949167" lon="0.076921">
        <ele>282.312</ele>
        <time>2020-08-23T10:58:39Z</time>
      </trkpt>
      <trkpt lat="41.949175" lon="0.076822">
        <ele>282.398</ele>
        <time>2020-08-23T10:58:41Z</time>
      </trkpt>
      <trkpt lat="41.949186" lon="0.076739">
        <ele>282.347</ele>
        <time>2020-08-23T10:58:43Z</time>
      </trkpt>
      <trkpt lat="41.949187" lon="0.076653">
        <ele>282.419</ele>
        <time>2020-08-23T10:58:46Z</time>
      </trkpt>
      <trkpt lat="41.949191" lon="0.076580">
        <ele>282.509</ele>
        <time>2020-08-23T10:58:48Z</time>
      </trkpt>
      <trkpt lat="41.949188" lon="0.076510">
        <ele>282.619</ele>
        <time>2020-08-23T10:58:50Z</time>
      </trkpt>
      <trkpt lat="41.949186" lon="0.076414">
        <ele>282.708</ele>
        <time>2020-08-23T10:58:52Z</time>
      </trkpt>
      <trkpt lat="41.949192" lon="0.076316">
        <ele>282.886</ele>
        <time>2020-08-23T10:58:54Z</time>
      </trkpt>
      <trkpt lat="41.949212" lon="0.076214">
        <ele>282.926</ele>
        <time>2020-08-23T10:58:56Z</time>
      </trkpt>
      <trkpt lat="41.949229" lon="0.076125">
        <ele>282.994</ele>
        <time>2020-08-23T10:58:58Z</time>
      </trkpt>
      <trkpt lat="41.949225" lon="0.076020">
        <ele>282.816</ele>
        <time>2020-08-23T10:59:00Z</time>
      </trkpt>
      <trkpt lat="41.949222" lon="0.075913">
        <ele>282.767</ele>
        <time>2020-08-23T10:59:02Z</time>
      </trkpt>
      <trkpt lat="41.949241" lon="0.075825">
        <ele>282.778</ele>
        <time>2020-08-23T10:59:04Z</time>
      </trkpt>
      <trkpt lat="41.949255" lon="0.075725">
        <ele>282.724</ele>
        <time>2020-08-23T10:59:06Z</time>
      </trkpt>
      <trkpt lat="41.949260" lon="0.075635">
        <ele>282.633</ele>
        <time>2020-08-23T10:59:08Z</time>
      </trkpt>
      <trkpt lat="41.949256" lon="0.075543">
        <ele>282.535</ele>
        <time>2020-08-23T10:59:10Z</time>
      </trkpt>
      <trkpt lat="41.949279" lon="0.075464">
        <ele>282.586</ele>
        <time>2020-08-23T10:59:12Z</time>
      </trkpt>
      <trkpt lat="41.949283" lon="0.075381">
        <ele>282.514</ele>
        <time>2020-08-23T10:59:14Z</time>
      </trkpt>
      <trkpt lat="41.949287" lon="0.075298">
        <ele>282.608</ele>
        <time>2020-08-23T10:59:16Z</time>
      </trkpt>
      <trkpt lat="41.949301" lon="0.075204">
        <ele>282.838</ele>
        <time>2020-08-23T10:59:18Z</time>
      </trkpt>
      <trkpt lat="41.949311" lon="0.075104">
        <ele>283.038</ele>
        <time>2020-08-23T10:59:20Z</time>
      </trkpt>
      <trkpt lat="41.949322" lon="0.075005">
        <ele>283.086</ele>
        <time>2020-08-23T10:59:22Z</time>
      </trkpt>
      <trkpt lat="41.949317" lon="0.074910">
        <ele>283.038</ele>
        <time>2020-08-23T10:59:24Z</time>
      </trkpt>
      <trkpt lat="41.949326" lon="0.074826">
        <ele>282.929</ele>
        <time>2020-08-23T10:59:26Z</time>
      </trkpt>
      <trkpt lat="41.949319" lon="0.074742">
        <ele>283.080</ele>
        <time>2020-08-23T10:59:28Z</time>
      </trkpt>
      <trkpt lat="41.949324" lon="0.074657">
        <ele>283.226</ele>
        <time>2020-08-23T10:59:30Z</time>
      </trkpt>
      <trkpt lat="41.949339" lon="0.074555">
        <ele>283.495</ele>
        <time>2020-08-23T10:59:32Z</time>
      </trkpt>
      <trkpt lat="41.949348" lon="0.074459">
        <ele>283.667</ele>
        <time>2020-08-23T10:59:34Z</time>
      </trkpt>
      <trkpt lat="41.949359" lon="0.074367">
        <ele>283.781</ele>
        <time>2020-08-23T10:59:36Z</time>
      </trkpt>
      <trkpt lat="41.949374" lon="0.074264">
        <ele>283.719</ele>
        <time>2020-08-23T10:59:38Z</time>
      </trkpt>
      <trkpt lat="41.949392" lon="0.074165">
        <ele>283.708</ele>
        <time>2020-08-23T10:59:40Z</time>
      </trkpt>
      <trkpt lat="41.949404" lon="0.074103">
        <ele>283.721</ele>
        <time>2020-08-23T10:59:41Z</time>
      </trkpt>
      <trkpt lat="41.949411" lon="0.074039">
        <ele>283.731</ele>
        <time>2020-08-23T10:59:42Z</time>
      </trkpt>
      <trkpt lat="41.949415" lon="0.073938">
        <ele>283.739</ele>
        <time>2020-08-23T10:59:44Z</time>
      </trkpt>
      <trkpt lat="41.949427" lon="0.073845">
        <ele>283.781</ele>
        <time>2020-08-23T10:59:46Z</time>
      </trkpt>
      <trkpt lat="41.949441" lon="0.073755">
        <ele>283.712</ele>
        <time>2020-08-23T10:59:48Z</time>
      </trkpt>
      <trkpt lat="41.949446" lon="0.073645">
        <ele>283.743</ele>
        <time>2020-08-23T10:59:50Z</time>
      </trkpt>
      <trkpt lat="41.949456" lon="0.073540">
        <ele>283.779</ele>
        <time>2020-08-23T10:59:52Z</time>
      </trkpt>
      <trkpt lat="41.949465" lon="0.073444">
        <ele>283.738</ele>
        <time>2020-08-23T10:59:54Z</time>
      </trkpt>
      <trkpt lat="41.949469" lon="0.073333">
        <ele>283.842</ele>
        <time>2020-08-23T10:59:56Z</time>
      </trkpt>
      <trkpt lat="41.949469" lon="0.073272">
        <ele>283.822</ele>
        <time>2020-08-23T10:59:57Z</time>
      </trkpt>
      <trkpt lat="41.949466" lon="0.073164">
        <ele>283.814</ele>
        <time>2020-08-23T10:59:59Z</time>
      </trkpt>
      <trkpt lat="41.949466" lon="0.073066">
        <ele>283.808</ele>
        <time>2020-08-23T11:00:01Z</time>
      </trkpt>
      <trkpt lat="41.949458" lon="0.072952">
        <ele>283.869</ele>
        <time>2020-08-23T11:00:03Z</time>
      </trkpt>
      <trkpt lat="41.949444" lon="0.072841">
        <ele>283.929</ele>
        <time>2020-08-23T11:00:05Z</time>
      </trkpt>
      <trkpt lat="41.949427" lon="0.072737">
        <ele>284.047</ele>
        <time>2020-08-23T11:00:07Z</time>
      </trkpt>
      <trkpt lat="41.949411" lon="0.072629">
        <ele>284.169</ele>
        <time>2020-08-23T11:00:09Z</time>
      </trkpt>
      <trkpt lat="41.949395" lon="0.072522">
        <ele>284.230</ele>
        <time>2020-08-23T11:00:11Z</time>
      </trkpt>
      <trkpt lat="41.949375" lon="0.072422">
        <ele>284.311</ele>
        <time>2020-08-23T11:00:13Z</time>
      </trkpt>
      <trkpt lat="41.949352" lon="0.072321">
        <ele>284.417</ele>
        <time>2020-08-23T11:00:15Z</time>
      </trkpt>
      <trkpt lat="41.949340" lon="0.072207">
        <ele>284.486</ele>
        <time>2020-08-23T11:00:17Z</time>
      </trkpt>
      <trkpt lat="41.949346" lon="0.072093">
        <ele>284.491</ele>
        <time>2020-08-23T11:00:19Z</time>
      </trkpt>
      <trkpt lat="41.949336" lon="0.072033">
        <ele>284.481</ele>
        <time>2020-08-23T11:00:20Z</time>
      </trkpt>
      <trkpt lat="41.949336" lon="0.071922">
        <ele>284.619</ele>
        <time>2020-08-23T11:00:22Z</time>
      </trkpt>
      <trkpt lat="41.949347" lon="0.071808">
        <ele>284.808</ele>
        <time>2020-08-23T11:00:24Z</time>
      </trkpt>
      <trkpt lat="41.949355" lon="0.071691">
        <ele>284.944</ele>
        <time>2020-08-23T11:00:26Z</time>
      </trkpt>
      <trkpt lat="41.949363" lon="0.071629">
        <ele>284.924</ele>
        <time>2020-08-23T11:00:27Z</time>
      </trkpt>
      <trkpt lat="41.949369" lon="0.071567">
        <ele>284.972</ele>
        <time>2020-08-23T11:00:28Z</time>
      </trkpt>
      <trkpt lat="41.949375" lon="0.071501">
        <ele>284.944</ele>
        <time>2020-08-23T11:00:29Z</time>
      </trkpt>
      <trkpt lat="41.949383" lon="0.071435">
        <ele>284.865</ele>
        <time>2020-08-23T11:00:30Z</time>
      </trkpt>
      <trkpt lat="41.949392" lon="0.071373">
        <ele>284.846</ele>
        <time>2020-08-23T11:00:31Z</time>
      </trkpt>
      <trkpt lat="41.949405" lon="0.071257">
        <ele>284.872</ele>
        <time>2020-08-23T11:00:33Z</time>
      </trkpt>
      <trkpt lat="41.949419" lon="0.071193">
        <ele>284.811</ele>
        <time>2020-08-23T11:00:34Z</time>
      </trkpt>
      <trkpt lat="41.949428" lon="0.071129">
        <ele>284.814</ele>
        <time>2020-08-23T11:00:35Z</time>
      </trkpt>
      <trkpt lat="41.949446" lon="0.071011">
        <ele>284.854</ele>
        <time>2020-08-23T11:00:37Z</time>
      </trkpt>
      <trkpt lat="41.949454" lon="0.070950">
        <ele>284.809</ele>
        <time>2020-08-23T11:00:38Z</time>
      </trkpt>
      <trkpt lat="41.949460" lon="0.070890">
        <ele>284.808</ele>
        <time>2020-08-23T11:00:39Z</time>
      </trkpt>
      <trkpt lat="41.949471" lon="0.070765">
        <ele>284.956</ele>
        <time>2020-08-23T11:00:41Z</time>
      </trkpt>
      <trkpt lat="41.949482" lon="0.070702">
        <ele>285.036</ele>
        <time>2020-08-23T11:00:42Z</time>
      </trkpt>
      <trkpt lat="41.949499" lon="0.070593">
        <ele>285.374</ele>
        <time>2020-08-23T11:00:44Z</time>
      </trkpt>
      <trkpt lat="41.949521" lon="0.070479">
        <ele>285.556</ele>
        <time>2020-08-23T11:00:46Z</time>
      </trkpt>
      <trkpt lat="41.949541" lon="0.070359">
        <ele>285.647</ele>
        <time>2020-08-23T11:00:48Z</time>
      </trkpt>
      <trkpt lat="41.949533" lon="0.070295">
        <ele>285.618</ele>
        <time>2020-08-23T11:00:49Z</time>
      </trkpt>
      <trkpt lat="41.949537" lon="0.070178">
        <ele>285.724</ele>
        <time>2020-08-23T11:00:51Z</time>
      </trkpt>
      <trkpt lat="41.949517" lon="0.070114">
        <ele>285.883</ele>
        <time>2020-08-23T11:00:52Z</time>
      </trkpt>
      <trkpt lat="41.949519" lon="0.070044">
        <ele>285.861</ele>
        <time>2020-08-23T11:00:53Z</time>
      </trkpt>
      <trkpt lat="41.949521" lon="0.069979">
        <ele>285.821</ele>
        <time>2020-08-23T11:00:54Z</time>
      </trkpt>
      <trkpt lat="41.949521" lon="0.069912">
        <ele>285.813</ele>
        <time>2020-08-23T11:00:55Z</time>
      </trkpt>
      <trkpt lat="41.949526" lon="0.069843">
        <ele>285.808</ele>
        <time>2020-08-23T11:00:56Z</time>
      </trkpt>
      <trkpt lat="41.949530" lon="0.069781">
        <ele>285.861</ele>
        <time>2020-08-23T11:00:57Z</time>
      </trkpt>
      <trkpt lat="41.949534" lon="0.069720">
        <ele>285.891</ele>
        <time>2020-08-23T11:00:58Z</time>
      </trkpt>
      <trkpt lat="41.949535" lon="0.069655">
        <ele>285.829</ele>
        <time>2020-08-23T11:00:59Z</time>
      </trkpt>
      <trkpt lat="41.949535" lon="0.069592">
        <ele>285.891</ele>
        <time>2020-08-23T11:01:00Z</time>
      </trkpt>
      <trkpt lat="41.949535" lon="0.069529">
        <ele>285.852</ele>
        <time>2020-08-23T11:01:01Z</time>
      </trkpt>
      <trkpt lat="41.949537" lon="0.069413">
        <ele>285.883</ele>
        <time>2020-08-23T11:01:03Z</time>
      </trkpt>
      <trkpt lat="41.949536" lon="0.069353">
        <ele>285.849</ele>
        <time>2020-08-23T11:01:04Z</time>
      </trkpt>
      <trkpt lat="41.949539" lon="0.069289">
        <ele>285.868</ele>
        <time>2020-08-23T11:01:05Z</time>
      </trkpt>
      <trkpt lat="41.949540" lon="0.069225">
        <ele>285.829</ele>
        <time>2020-08-23T11:01:06Z</time>
      </trkpt>
      <trkpt lat="41.949543" lon="0.069161">
        <ele>285.800</ele>
        <time>2020-08-23T11:01:07Z</time>
      </trkpt>
      <trkpt lat="41.949543" lon="0.069099">
        <ele>285.820</ele>
        <time>2020-08-23T11:01:08Z</time>
      </trkpt>
      <trkpt lat="41.949537" lon="0.069038">
        <ele>285.808</ele>
        <time>2020-08-23T11:01:09Z</time>
      </trkpt>
      <trkpt lat="41.949533" lon="0.068977">
        <ele>285.867</ele>
        <time>2020-08-23T11:01:10Z</time>
      </trkpt>
      <trkpt lat="41.949533" lon="0.068916">
        <ele>285.847</ele>
        <time>2020-08-23T11:01:11Z</time>
      </trkpt>
      <trkpt lat="41.949528" lon="0.068849">
        <ele>285.825</ele>
        <time>2020-08-23T11:01:12Z</time>
      </trkpt>
      <trkpt lat="41.949532" lon="0.068780">
        <ele>285.817</ele>
        <time>2020-08-23T11:01:13Z</time>
      </trkpt>
      <trkpt lat="41.949542" lon="0.068706">
        <ele>285.818</ele>
        <time>2020-08-23T11:01:14Z</time>
      </trkpt>
      <trkpt lat="41.949543" lon="0.068633">
        <ele>285.879</ele>
        <time>2020-08-23T11:01:15Z</time>
      </trkpt>
      <trkpt lat="41.949546" lon="0.068561">
        <ele>285.715</ele>
        <time>2020-08-23T11:01:16Z</time>
      </trkpt>
      <trkpt lat="41.949547" lon="0.068492">
        <ele>285.774</ele>
        <time>2020-08-23T11:01:17Z</time>
      </trkpt>
      <trkpt lat="41.949550" lon="0.068422">
        <ele>285.723</ele>
        <time>2020-08-23T11:01:18Z</time>
      </trkpt>
      <trkpt lat="41.949564" lon="0.068352">
        <ele>285.783</ele>
        <time>2020-08-23T11:01:19Z</time>
      </trkpt>
      <trkpt lat="41.949578" lon="0.068285">
        <ele>285.711</ele>
        <time>2020-08-23T11:01:20Z</time>
      </trkpt>
      <trkpt lat="41.949588" lon="0.068216">
        <ele>285.708</ele>
        <time>2020-08-23T11:01:21Z</time>
      </trkpt>
      <trkpt lat="41.949591" lon="0.068138">
        <ele>285.777</ele>
        <time>2020-08-23T11:01:22Z</time>
      </trkpt>
      <trkpt lat="41.949597" lon="0.068057">
        <ele>285.767</ele>
        <time>2020-08-23T11:01:23Z</time>
      </trkpt>
      <trkpt lat="41.949604" lon="0.067978">
        <ele>285.735</ele>
        <time>2020-08-23T11:01:24Z</time>
      </trkpt>
      <trkpt lat="41.949605" lon="0.067900">
        <ele>285.847</ele>
        <time>2020-08-23T11:01:25Z</time>
      </trkpt>
      <trkpt lat="41.949612" lon="0.067832">
        <ele>285.988</ele>
        <time>2020-08-23T11:01:26Z</time>
      </trkpt>
      <trkpt lat="41.949617" lon="0.067768">
        <ele>286.059</ele>
        <time>2020-08-23T11:01:27Z</time>
      </trkpt>
      <trkpt lat="41.949606" lon="0.067642">
        <ele>286.225</ele>
        <time>2020-08-23T11:01:29Z</time>
      </trkpt>
      <trkpt lat="41.949598" lon="0.067581">
        <ele>286.374</ele>
        <time>2020-08-23T11:01:30Z</time>
      </trkpt>
      <trkpt lat="41.949596" lon="0.067515">
        <ele>286.494</ele>
        <time>2020-08-23T11:01:31Z</time>
      </trkpt>
      <trkpt lat="41.949612" lon="0.067456">
        <ele>286.657</ele>
        <time>2020-08-23T11:01:32Z</time>
      </trkpt>
      <trkpt lat="41.949616" lon="0.067378">
        <ele>286.722</ele>
        <time>2020-08-23T11:01:33Z</time>
      </trkpt>
      <trkpt lat="41.949613" lon="0.067313">
        <ele>286.708</ele>
        <time>2020-08-23T11:01:34Z</time>
      </trkpt>
      <trkpt lat="41.949611" lon="0.067249">
        <ele>286.764</ele>
        <time>2020-08-23T11:01:35Z</time>
      </trkpt>
      <trkpt lat="41.949612" lon="0.067116">
        <ele>286.894</ele>
        <time>2020-08-23T11:01:37Z</time>
      </trkpt>
      <trkpt lat="41.949617" lon="0.067040">
        <ele>286.952</ele>
        <time>2020-08-23T11:01:38Z</time>
      </trkpt>
      <trkpt lat="41.949628" lon="0.066975">
        <ele>287.094</ele>
        <time>2020-08-23T11:01:39Z</time>
      </trkpt>
      <trkpt lat="41.949644" lon="0.066896">
        <ele>287.195</ele>
        <time>2020-08-23T11:01:40Z</time>
      </trkpt>
      <trkpt lat="41.949658" lon="0.066833">
        <ele>287.286</ele>
        <time>2020-08-23T11:01:41Z</time>
      </trkpt>
      <trkpt lat="41.949670" lon="0.066773">
        <ele>287.342</ele>
        <time>2020-08-23T11:01:42Z</time>
      </trkpt>
      <trkpt lat="41.949674" lon="0.066707">
        <ele>287.471</ele>
        <time>2020-08-23T11:01:43Z</time>
      </trkpt>
      <trkpt lat="41.949682" lon="0.066642">
        <ele>287.555</ele>
        <time>2020-08-23T11:01:44Z</time>
      </trkpt>
      <trkpt lat="41.949693" lon="0.066583">
        <ele>287.607</ele>
        <time>2020-08-23T11:01:45Z</time>
      </trkpt>
      <trkpt lat="41.949700" lon="0.066520">
        <ele>287.717</ele>
        <time>2020-08-23T11:01:46Z</time>
      </trkpt>
      <trkpt lat="41.949723" lon="0.066425">
        <ele>287.908</ele>
        <time>2020-08-23T11:01:48Z</time>
      </trkpt>
      <trkpt lat="41.949745" lon="0.066308">
        <ele>288.130</ele>
        <time>2020-08-23T11:01:50Z</time>
      </trkpt>
      <trkpt lat="41.949755" lon="0.066246">
        <ele>288.290</ele>
        <time>2020-08-23T11:01:51Z</time>
      </trkpt>
      <trkpt lat="41.949772" lon="0.066125">
        <ele>288.458</ele>
        <time>2020-08-23T11:01:53Z</time>
      </trkpt>
      <trkpt lat="41.949784" lon="0.066046">
        <ele>288.590</ele>
        <time>2020-08-23T11:01:54Z</time>
      </trkpt>
      <trkpt lat="41.949799" lon="0.065979">
        <ele>288.661</ele>
        <time>2020-08-23T11:01:55Z</time>
      </trkpt>
      <trkpt lat="41.949813" lon="0.065915">
        <ele>288.632</ele>
        <time>2020-08-23T11:01:56Z</time>
      </trkpt>
      <trkpt lat="41.949829" lon="0.065854">
        <ele>288.768</ele>
        <time>2020-08-23T11:01:57Z</time>
      </trkpt>
      <trkpt lat="41.949858" lon="0.065794">
        <ele>288.827</ele>
        <time>2020-08-23T11:01:58Z</time>
      </trkpt>
      <trkpt lat="41.949884" lon="0.065734">
        <ele>288.969</ele>
        <time>2020-08-23T11:01:59Z</time>
      </trkpt>
      <trkpt lat="41.949910" lon="0.065678">
        <ele>289.004</ele>
        <time>2020-08-23T11:02:00Z</time>
      </trkpt>
      <trkpt lat="41.949934" lon="0.065624">
        <ele>289.124</ele>
        <time>2020-08-23T11:02:01Z</time>
      </trkpt>
      <trkpt lat="41.949978" lon="0.065588">
        <ele>289.208</ele>
        <time>2020-08-23T11:02:02Z</time>
      </trkpt>
      <trkpt lat="41.950018" lon="0.065551">
        <ele>289.321</ele>
        <time>2020-08-23T11:02:03Z</time>
      </trkpt>
      <trkpt lat="41.950052" lon="0.065505">
        <ele>289.381</ele>
        <time>2020-08-23T11:02:04Z</time>
      </trkpt>
      <trkpt lat="41.950084" lon="0.065450">
        <ele>289.329</ele>
        <time>2020-08-23T11:02:05Z</time>
      </trkpt>
      <trkpt lat="41.950115" lon="0.065401">
        <ele>289.311</ele>
        <time>2020-08-23T11:02:06Z</time>
      </trkpt>
      <trkpt lat="41.950156" lon="0.065302">
        <ele>289.482</ele>
        <time>2020-08-23T11:02:08Z</time>
      </trkpt>
      <trkpt lat="41.950184" lon="0.065186">
        <ele>289.533</ele>
        <time>2020-08-23T11:02:10Z</time>
      </trkpt>
      <trkpt lat="41.950204" lon="0.065122">
        <ele>289.589</ele>
        <time>2020-08-23T11:02:11Z</time>
      </trkpt>
      <trkpt lat="41.950220" lon="0.065055">
        <ele>289.598</ele>
        <time>2020-08-23T11:02:12Z</time>
      </trkpt>
      <trkpt lat="41.950240" lon="0.064987">
        <ele>289.525</ele>
        <time>2020-08-23T11:02:13Z</time>
      </trkpt>
      <trkpt lat="41.950258" lon="0.064919">
        <ele>289.426</ele>
        <time>2020-08-23T11:02:14Z</time>
      </trkpt>
      <trkpt lat="41.950276" lon="0.064846">
        <ele>289.308</ele>
        <time>2020-08-23T11:02:15Z</time>
      </trkpt>
      <trkpt lat="41.950293" lon="0.064770">
        <ele>289.208</ele>
        <time>2020-08-23T11:02:16Z</time>
      </trkpt>
      <trkpt lat="41.950306" lon="0.064695">
        <ele>289.267</ele>
        <time>2020-08-23T11:02:17Z</time>
      </trkpt>
      <trkpt lat="41.950325" lon="0.064615">
        <ele>289.257</ele>
        <time>2020-08-23T11:02:18Z</time>
      </trkpt>
      <trkpt lat="41.950345" lon="0.064544">
        <ele>289.275</ele>
        <time>2020-08-23T11:02:19Z</time>
      </trkpt>
      <trkpt lat="41.950364" lon="0.064477">
        <ele>289.267</ele>
        <time>2020-08-23T11:02:20Z</time>
      </trkpt>
      <trkpt lat="41.950382" lon="0.064406">
        <ele>289.248</ele>
        <time>2020-08-23T11:02:21Z</time>
      </trkpt>
      <trkpt lat="41.950403" lon="0.064338">
        <ele>289.229</ele>
        <time>2020-08-23T11:02:22Z</time>
      </trkpt>
      <trkpt lat="41.950421" lon="0.064268">
        <ele>289.385</ele>
        <time>2020-08-23T11:02:23Z</time>
      </trkpt>
      <trkpt lat="41.950443" lon="0.064207">
        <ele>289.474</ele>
        <time>2020-08-23T11:02:24Z</time>
      </trkpt>
      <trkpt lat="41.950457" lon="0.064146">
        <ele>289.586</ele>
        <time>2020-08-23T11:02:25Z</time>
      </trkpt>
      <trkpt lat="41.950468" lon="0.064081">
        <ele>289.660</ele>
        <time>2020-08-23T11:02:26Z</time>
      </trkpt>
      <trkpt lat="41.950482" lon="0.064017">
        <ele>289.726</ele>
        <time>2020-08-23T11:02:27Z</time>
      </trkpt>
      <trkpt lat="41.950496" lon="0.063951">
        <ele>289.808</ele>
        <time>2020-08-23T11:02:28Z</time>
      </trkpt>
      <trkpt lat="41.950512" lon="0.063838">
        <ele>290.033</ele>
        <time>2020-08-23T11:02:30Z</time>
      </trkpt>
      <trkpt lat="41.950536" lon="0.063732">
        <ele>290.213</ele>
        <time>2020-08-23T11:02:32Z</time>
      </trkpt>
      <trkpt lat="41.950556" lon="0.063630">
        <ele>290.551</ele>
        <time>2020-08-23T11:02:34Z</time>
      </trkpt>
      <trkpt lat="41.950571" lon="0.063527">
        <ele>290.773</ele>
        <time>2020-08-23T11:02:36Z</time>
      </trkpt>
      <trkpt lat="41.950609" lon="0.063428">
        <ele>290.854</ele>
        <time>2020-08-23T11:02:38Z</time>
      </trkpt>
      <trkpt lat="41.950633" lon="0.063322">
        <ele>290.955</ele>
        <time>2020-08-23T11:02:40Z</time>
      </trkpt>
      <trkpt lat="41.950642" lon="0.063206">
        <ele>291.051</ele>
        <time>2020-08-23T11:02:42Z</time>
      </trkpt>
      <trkpt lat="41.950664" lon="0.063095">
        <ele>291.060</ele>
        <time>2020-08-23T11:02:44Z</time>
      </trkpt>
      <trkpt lat="41.950680" lon="0.062986">
        <ele>291.141</ele>
        <time>2020-08-23T11:02:46Z</time>
      </trkpt>
      <trkpt lat="41.950710" lon="0.062876">
        <ele>291.281</ele>
        <time>2020-08-23T11:02:48Z</time>
      </trkpt>
      <trkpt lat="41.950728" lon="0.062819">
        <ele>291.209</ele>
        <time>2020-08-23T11:02:49Z</time>
      </trkpt>
      <trkpt lat="41.950752" lon="0.062705">
        <ele>291.208</ele>
        <time>2020-08-23T11:02:51Z</time>
      </trkpt>
      <trkpt lat="41.950780" lon="0.062594">
        <ele>291.229</ele>
        <time>2020-08-23T11:02:53Z</time>
      </trkpt>
      <trkpt lat="41.950805" lon="0.062498">
        <ele>291.369</ele>
        <time>2020-08-23T11:02:55Z</time>
      </trkpt>
      <trkpt lat="41.950823" lon="0.062426">
        <ele>292.067</ele>
        <time>2020-08-23T11:02:58Z</time>
      </trkpt>
      <trkpt lat="41.950831" lon="0.062357">
        <ele>292.449</ele>
        <time>2020-08-23T11:03:04Z</time>
      </trkpt>
      <trkpt lat="41.950846" lon="0.062265">
        <ele>292.150</ele>
        <time>2020-08-23T11:03:06Z</time>
      </trkpt>
      <trkpt lat="41.950869" lon="0.062165">
        <ele>291.731</ele>
        <time>2020-08-23T11:03:08Z</time>
      </trkpt>
      <trkpt lat="41.950897" lon="0.062070">
        <ele>291.517</ele>
        <time>2020-08-23T11:03:10Z</time>
      </trkpt>
      <trkpt lat="41.950959" lon="0.061988">
        <ele>291.696</ele>
        <time>2020-08-23T11:03:12Z</time>
      </trkpt>
      <trkpt lat="41.950994" lon="0.061946">
        <ele>291.722</ele>
        <time>2020-08-23T11:03:13Z</time>
      </trkpt>
      <trkpt lat="41.951057" lon="0.061864">
        <ele>291.962</ele>
        <time>2020-08-23T11:03:15Z</time>
      </trkpt>
      <trkpt lat="41.951118" lon="0.061781">
        <ele>292.008</ele>
        <time>2020-08-23T11:03:17Z</time>
      </trkpt>
      <trkpt lat="41.951155" lon="0.061739">
        <ele>292.108</ele>
        <time>2020-08-23T11:03:18Z</time>
      </trkpt>
      <trkpt lat="41.951177" lon="0.061681">
        <ele>292.117</ele>
        <time>2020-08-23T11:03:19Z</time>
      </trkpt>
      <trkpt lat="41.951192" lon="0.061613">
        <ele>292.167</ele>
        <time>2020-08-23T11:03:20Z</time>
      </trkpt>
      <trkpt lat="41.951208" lon="0.061547">
        <ele>292.155</ele>
        <time>2020-08-23T11:03:21Z</time>
      </trkpt>
      <trkpt lat="41.951217" lon="0.061486">
        <ele>292.137</ele>
        <time>2020-08-23T11:03:22Z</time>
      </trkpt>
      <trkpt lat="41.951218" lon="0.061371">
        <ele>292.118</ele>
        <time>2020-08-23T11:03:24Z</time>
      </trkpt>
      <trkpt lat="41.951217" lon="0.061252">
        <ele>292.159</ele>
        <time>2020-08-23T11:03:26Z</time>
      </trkpt>
      <trkpt lat="41.951236" lon="0.061143">
        <ele>292.275</ele>
        <time>2020-08-23T11:03:28Z</time>
      </trkpt>
      <trkpt lat="41.951311" lon="0.061100">
        <ele>292.274</ele>
        <time>2020-08-23T11:03:30Z</time>
      </trkpt>
      <trkpt lat="41.951394" lon="0.061118">
        <ele>292.243</ele>
        <time>2020-08-23T11:03:32Z</time>
      </trkpt>
      <trkpt lat="41.951473" lon="0.061130">
        <ele>292.264</ele>
        <time>2020-08-23T11:03:34Z</time>
      </trkpt>
      <trkpt lat="41.951556" lon="0.061148">
        <ele>292.210</ele>
        <time>2020-08-23T11:03:36Z</time>
      </trkpt>
      <trkpt lat="41.951646" lon="0.061159">
        <ele>292.108</ele>
        <time>2020-08-23T11:03:38Z</time>
      </trkpt>
      <trkpt lat="41.951732" lon="0.061182">
        <ele>292.139</ele>
        <time>2020-08-23T11:03:40Z</time>
      </trkpt>
      <trkpt lat="41.951821" lon="0.061184">
        <ele>292.129</ele>
        <time>2020-08-23T11:03:42Z</time>
      </trkpt>
      <trkpt lat="41.951908" lon="0.061161">
        <ele>292.127</ele>
        <time>2020-08-23T11:03:44Z</time>
      </trkpt>
      <trkpt lat="41.951986" lon="0.061134">
        <ele>292.219</ele>
        <time>2020-08-23T11:03:46Z</time>
      </trkpt>
      <trkpt lat="41.952044" lon="0.061057">
        <ele>292.530</ele>
        <time>2020-08-23T11:03:48Z</time>
      </trkpt>
      <trkpt lat="41.952111" lon="0.060979">
        <ele>292.821</ele>
        <time>2020-08-23T11:03:50Z</time>
      </trkpt>
      <trkpt lat="41.952179" lon="0.060924">
        <ele>293.177</ele>
        <time>2020-08-23T11:03:52Z</time>
      </trkpt>
      <trkpt lat="41.952258" lon="0.060903">
        <ele>293.326</ele>
        <time>2020-08-23T11:03:54Z</time>
      </trkpt>
      <trkpt lat="41.952346" lon="0.060901">
        <ele>293.468</ele>
        <time>2020-08-23T11:03:56Z</time>
      </trkpt>
      <trkpt lat="41.952430" lon="0.060887">
        <ele>293.442</ele>
        <time>2020-08-23T11:03:58Z</time>
      </trkpt>
      <trkpt lat="41.952505" lon="0.060853">
        <ele>293.426</ele>
        <time>2020-08-23T11:04:00Z</time>
      </trkpt>
      <trkpt lat="41.952570" lon="0.060791">
        <ele>293.508</ele>
        <time>2020-08-23T11:04:02Z</time>
      </trkpt>
      <trkpt lat="41.952617" lon="0.060701">
        <ele>293.541</ele>
        <time>2020-08-23T11:04:04Z</time>
      </trkpt>
      <trkpt lat="41.952658" lon="0.060611">
        <ele>293.651</ele>
        <time>2020-08-23T11:04:06Z</time>
      </trkpt>
      <trkpt lat="41.952703" lon="0.060509">
        <ele>293.719</ele>
        <time>2020-08-23T11:04:08Z</time>
      </trkpt>
      <trkpt lat="41.952727" lon="0.060454">
        <ele>293.711</ele>
        <time>2020-08-23T11:04:09Z</time>
      </trkpt>
      <trkpt lat="41.952745" lon="0.060397">
        <ele>293.832</ele>
        <time>2020-08-23T11:04:10Z</time>
      </trkpt>
      <trkpt lat="41.952767" lon="0.060342">
        <ele>293.893</ele>
        <time>2020-08-23T11:04:11Z</time>
      </trkpt>
      <trkpt lat="41.952791" lon="0.060285">
        <ele>293.899</ele>
        <time>2020-08-23T11:04:12Z</time>
      </trkpt>
      <trkpt lat="41.952820" lon="0.060235">
        <ele>293.928</ele>
        <time>2020-08-23T11:04:13Z</time>
      </trkpt>
      <trkpt lat="41.952870" lon="0.060140">
        <ele>294.041</ele>
        <time>2020-08-23T11:04:15Z</time>
      </trkpt>
      <trkpt lat="41.952920" lon="0.060057">
        <ele>294.281</ele>
        <time>2020-08-23T11:04:17Z</time>
      </trkpt>
      <trkpt lat="41.952976" lon="0.059989">
        <ele>294.309</ele>
        <time>2020-08-23T11:04:19Z</time>
      </trkpt>
      <trkpt lat="41.953039" lon="0.059911">
        <ele>294.408</ele>
        <time>2020-08-23T11:04:21Z</time>
      </trkpt>
      <trkpt lat="41.953097" lon="0.059836">
        <ele>294.549</ele>
        <time>2020-08-23T11:04:23Z</time>
      </trkpt>
      <trkpt lat="41.953144" lon="0.059752">
        <ele>294.699</ele>
        <time>2020-08-23T11:04:25Z</time>
      </trkpt>
      <trkpt lat="41.953186" lon="0.059657">
        <ele>294.797</ele>
        <time>2020-08-23T11:04:27Z</time>
      </trkpt>
      <trkpt lat="41.953217" lon="0.059558">
        <ele>294.979</ele>
        <time>2020-08-23T11:04:29Z</time>
      </trkpt>
      <trkpt lat="41.953250" lon="0.059455">
        <ele>295.140</ele>
        <time>2020-08-23T11:04:31Z</time>
      </trkpt>
      <trkpt lat="41.953285" lon="0.059366">
        <ele>295.321</ele>
        <time>2020-08-23T11:04:33Z</time>
      </trkpt>
      <trkpt lat="41.953314" lon="0.059269">
        <ele>295.537</ele>
        <time>2020-08-23T11:04:35Z</time>
      </trkpt>
      <trkpt lat="41.953358" lon="0.059174">
        <ele>295.666</ele>
        <time>2020-08-23T11:04:37Z</time>
      </trkpt>
      <trkpt lat="41.953394" lon="0.059081">
        <ele>295.798</ele>
        <time>2020-08-23T11:04:39Z</time>
      </trkpt>
      <trkpt lat="41.953428" lon="0.058981">
        <ele>295.815</ele>
        <time>2020-08-23T11:04:41Z</time>
      </trkpt>
      <trkpt lat="41.953460" lon="0.058882">
        <ele>295.926</ele>
        <time>2020-08-23T11:04:43Z</time>
      </trkpt>
      <trkpt lat="41.953501" lon="0.058796">
        <ele>296.008</ele>
        <time>2020-08-23T11:04:45Z</time>
      </trkpt>
      <trkpt lat="41.953549" lon="0.058711">
        <ele>296.194</ele>
        <time>2020-08-23T11:04:47Z</time>
      </trkpt>
      <trkpt lat="41.953594" lon="0.058624">
        <ele>296.334</ele>
        <time>2020-08-23T11:04:49Z</time>
      </trkpt>
      <trkpt lat="41.953635" lon="0.058548">
        <ele>296.522</ele>
        <time>2020-08-23T11:04:51Z</time>
      </trkpt>
      <trkpt lat="41.953668" lon="0.058474">
        <ele>296.674</ele>
        <time>2020-08-23T11:04:53Z</time>
      </trkpt>
      <trkpt lat="41.953700" lon="0.058385">
        <ele>296.855</ele>
        <time>2020-08-23T11:04:55Z</time>
      </trkpt>
      <trkpt lat="41.953726" lon="0.058297">
        <ele>296.946</ele>
        <time>2020-08-23T11:04:57Z</time>
      </trkpt>
      <trkpt lat="41.953748" lon="0.058211">
        <ele>297.012</ele>
        <time>2020-08-23T11:04:59Z</time>
      </trkpt>
      <trkpt lat="41.953765" lon="0.058112">
        <ele>297.291</ele>
        <time>2020-08-23T11:05:01Z</time>
      </trkpt>
      <trkpt lat="41.953778" lon="0.058017">
        <ele>297.615</ele>
        <time>2020-08-23T11:05:03Z</time>
      </trkpt>
      <trkpt lat="41.953788" lon="0.057925">
        <ele>297.865</ele>
        <time>2020-08-23T11:05:05Z</time>
      </trkpt>
      <trkpt lat="41.953796" lon="0.057837">
        <ele>298.011</ele>
        <time>2020-08-23T11:05:07Z</time>
      </trkpt>
      <trkpt lat="41.953793" lon="0.057754">
        <ele>298.208</ele>
        <time>2020-08-23T11:05:09Z</time>
      </trkpt>
      <trkpt lat="41.953794" lon="0.057665">
        <ele>298.336</ele>
        <time>2020-08-23T11:05:11Z</time>
      </trkpt>
      <trkpt lat="41.953790" lon="0.057578">
        <ele>298.486</ele>
        <time>2020-08-23T11:05:13Z</time>
      </trkpt>
      <trkpt lat="41.953795" lon="0.057485">
        <ele>298.484</ele>
        <time>2020-08-23T11:05:15Z</time>
      </trkpt>
      <trkpt lat="41.953806" lon="0.057388">
        <ele>298.466</ele>
        <time>2020-08-23T11:05:17Z</time>
      </trkpt>
      <trkpt lat="41.953837" lon="0.057288">
        <ele>298.527</ele>
        <time>2020-08-23T11:05:19Z</time>
      </trkpt>
      <trkpt lat="41.953868" lon="0.057200">
        <ele>298.688</ele>
        <time>2020-08-23T11:05:21Z</time>
      </trkpt>
      <trkpt lat="41.953880" lon="0.057103">
        <ele>298.644</ele>
        <time>2020-08-23T11:05:23Z</time>
      </trkpt>
      <trkpt lat="41.953866" lon="0.057003">
        <ele>298.733</ele>
        <time>2020-08-23T11:05:25Z</time>
      </trkpt>
      <trkpt lat="41.953861" lon="0.056890">
        <ele>298.856</ele>
        <time>2020-08-23T11:05:27Z</time>
      </trkpt>
      <trkpt lat="41.953872" lon="0.056782">
        <ele>298.959</ele>
        <time>2020-08-23T11:05:29Z</time>
      </trkpt>
      <trkpt lat="41.953880" lon="0.056672">
        <ele>299.114</ele>
        <time>2020-08-23T11:05:31Z</time>
      </trkpt>
      <trkpt lat="41.953879" lon="0.056558">
        <ele>299.308</ele>
        <time>2020-08-23T11:05:33Z</time>
      </trkpt>
      <trkpt lat="41.953893" lon="0.056451">
        <ele>299.510</ele>
        <time>2020-08-23T11:05:35Z</time>
      </trkpt>
      <trkpt lat="41.953907" lon="0.056344">
        <ele>299.730</ele>
        <time>2020-08-23T11:05:37Z</time>
      </trkpt>
      <trkpt lat="41.953904" lon="0.056228">
        <ele>299.938</ele>
        <time>2020-08-23T11:05:39Z</time>
      </trkpt>
      <trkpt lat="41.953909" lon="0.056168">
        <ele>300.010</ele>
        <time>2020-08-23T11:05:40Z</time>
      </trkpt>
      <trkpt lat="41.953907" lon="0.056105">
        <ele>300.051</ele>
        <time>2020-08-23T11:05:41Z</time>
      </trkpt>
      <trkpt lat="41.953903" lon="0.056045">
        <ele>300.062</ele>
        <time>2020-08-23T11:05:42Z</time>
      </trkpt>
      <trkpt lat="41.953927" lon="0.055935">
        <ele>300.058</ele>
        <time>2020-08-23T11:05:44Z</time>
      </trkpt>
      <trkpt lat="41.953921" lon="0.055843">
        <ele>300.357</ele>
        <time>2020-08-23T11:05:46Z</time>
      </trkpt>
      <trkpt lat="41.953931" lon="0.055752">
        <ele>300.671</ele>
        <time>2020-08-23T11:05:48Z</time>
      </trkpt>
      <trkpt lat="41.953936" lon="0.055665">
        <ele>300.841</ele>
        <time>2020-08-23T11:05:50Z</time>
      </trkpt>
      <trkpt lat="41.953934" lon="0.055557">
        <ele>300.815</ele>
        <time>2020-08-23T11:05:52Z</time>
      </trkpt>
      <trkpt lat="41.953920" lon="0.055465">
        <ele>300.808</ele>
        <time>2020-08-23T11:05:54Z</time>
      </trkpt>
      <trkpt lat="41.953904" lon="0.055373">
        <ele>300.932</ele>
        <time>2020-08-23T11:05:56Z</time>
      </trkpt>
      <trkpt lat="41.953887" lon="0.055279">
        <ele>301.142</ele>
        <time>2020-08-23T11:05:58Z</time>
      </trkpt>
      <trkpt lat="41.953860" lon="0.055196">
        <ele>301.130</ele>
        <time>2020-08-23T11:06:00Z</time>
      </trkpt>
      <trkpt lat="41.953823" lon="0.055111">
        <ele>301.122</ele>
        <time>2020-08-23T11:06:02Z</time>
      </trkpt>
      <trkpt lat="41.953769" lon="0.055022">
        <ele>301.143</ele>
        <time>2020-08-23T11:06:04Z</time>
      </trkpt>
      <trkpt lat="41.953727" lon="0.054928">
        <ele>301.224</ele>
        <time>2020-08-23T11:06:06Z</time>
      </trkpt>
      <trkpt lat="41.953688" lon="0.054825">
        <ele>301.360</ele>
        <time>2020-08-23T11:06:08Z</time>
      </trkpt>
      <trkpt lat="41.953665" lon="0.054726">
        <ele>301.429</ele>
        <time>2020-08-23T11:06:10Z</time>
      </trkpt>
      <trkpt lat="41.953629" lon="0.054634">
        <ele>301.597</ele>
        <time>2020-08-23T11:06:12Z</time>
      </trkpt>
      <trkpt lat="41.953592" lon="0.054540">
        <ele>301.623</ele>
        <time>2020-08-23T11:06:14Z</time>
      </trkpt>
      <trkpt lat="41.953571" lon="0.054444">
        <ele>301.825</ele>
        <time>2020-08-23T11:06:16Z</time>
      </trkpt>
      <trkpt lat="41.953561" lon="0.054337">
        <ele>302.008</ele>
        <time>2020-08-23T11:06:18Z</time>
      </trkpt>
      <trkpt lat="41.953558" lon="0.054222">
        <ele>302.184</ele>
        <time>2020-08-23T11:06:20Z</time>
      </trkpt>
      <trkpt lat="41.953557" lon="0.054114">
        <ele>302.214</ele>
        <time>2020-08-23T11:06:22Z</time>
      </trkpt>
      <trkpt lat="41.953548" lon="0.054017">
        <ele>302.222</ele>
        <time>2020-08-23T11:06:24Z</time>
      </trkpt>
      <trkpt lat="41.953532" lon="0.053908">
        <ele>302.234</ele>
        <time>2020-08-23T11:06:26Z</time>
      </trkpt>
      <trkpt lat="41.953520" lon="0.053806">
        <ele>302.125</ele>
        <time>2020-08-23T11:06:28Z</time>
      </trkpt>
      <trkpt lat="41.953504" lon="0.053696">
        <ele>302.176</ele>
        <time>2020-08-23T11:06:30Z</time>
      </trkpt>
      <trkpt lat="41.953486" lon="0.053588">
        <ele>302.232</ele>
        <time>2020-08-23T11:06:32Z</time>
      </trkpt>
      <trkpt lat="41.953458" lon="0.053495">
        <ele>302.381</ele>
        <time>2020-08-23T11:06:34Z</time>
      </trkpt>
      <trkpt lat="41.953445" lon="0.053390">
        <ele>302.475</ele>
        <time>2020-08-23T11:06:36Z</time>
      </trkpt>
      <trkpt lat="41.953437" lon="0.053293">
        <ele>302.528</ele>
        <time>2020-08-23T11:06:38Z</time>
      </trkpt>
      <trkpt lat="41.953440" lon="0.053197">
        <ele>302.720</ele>
        <time>2020-08-23T11:06:40Z</time>
      </trkpt>
      <trkpt lat="41.953452" lon="0.053095">
        <ele>303.008</ele>
        <time>2020-08-23T11:06:42Z</time>
      </trkpt>
      <trkpt lat="41.953476" lon="0.053013">
        <ele>303.312</ele>
        <time>2020-08-23T11:06:44Z</time>
      </trkpt>
      <trkpt lat="41.953507" lon="0.052930">
        <ele>303.532</ele>
        <time>2020-08-23T11:06:46Z</time>
      </trkpt>
      <trkpt lat="41.953553" lon="0.052871">
        <ele>303.770</ele>
        <time>2020-08-23T11:06:48Z</time>
      </trkpt>
      <trkpt lat="41.953602" lon="0.052814">
        <ele>303.932</ele>
        <time>2020-08-23T11:06:50Z</time>
      </trkpt>
      <trkpt lat="41.953662" lon="0.052749">
        <ele>304.113</ele>
        <time>2020-08-23T11:06:52Z</time>
      </trkpt>
      <trkpt lat="41.953710" lon="0.052682">
        <ele>304.314</ele>
        <time>2020-08-23T11:06:54Z</time>
      </trkpt>
      <trkpt lat="41.953763" lon="0.052609">
        <ele>304.460</ele>
        <time>2020-08-23T11:06:56Z</time>
      </trkpt>
      <trkpt lat="41.953819" lon="0.052548">
        <ele>304.539</ele>
        <time>2020-08-23T11:06:58Z</time>
      </trkpt>
      <trkpt lat="41.953873" lon="0.052481">
        <ele>304.674</ele>
        <time>2020-08-23T11:07:00Z</time>
      </trkpt>
      <trkpt lat="41.953933" lon="0.052430">
        <ele>304.756</ele>
        <time>2020-08-23T11:07:02Z</time>
      </trkpt>
      <trkpt lat="41.953987" lon="0.052373">
        <ele>304.921</ele>
        <time>2020-08-23T11:07:04Z</time>
      </trkpt>
      <trkpt lat="41.954050" lon="0.052336">
        <ele>305.108</ele>
        <time>2020-08-23T11:07:06Z</time>
      </trkpt>
      <trkpt lat="41.954094" lon="0.052316">
        <ele>305.332</ele>
        <time>2020-08-23T11:07:09Z</time>
      </trkpt>
      <trkpt lat="41.954143" lon="0.052274">
        <ele>305.182</ele>
        <time>2020-08-23T11:07:28Z</time>
      </trkpt>
      <trkpt lat="41.954171" lon="0.052224">
        <ele>304.930</ele>
        <time>2020-08-23T11:07:41Z</time>
      </trkpt>
      <trkpt lat="41.954195" lon="0.052139">
        <ele>304.882</ele>
        <time>2020-08-23T11:07:44Z</time>
      </trkpt>
      <trkpt lat="41.954217" lon="0.052065">
        <ele>304.723</ele>
        <time>2020-08-23T11:07:46Z</time>
      </trkpt>
      <trkpt lat="41.954251" lon="0.051976">
        <ele>304.684</ele>
        <time>2020-08-23T11:07:48Z</time>
      </trkpt>
      <trkpt lat="41.954284" lon="0.051882">
        <ele>304.580</ele>
        <time>2020-08-23T11:07:50Z</time>
      </trkpt>
      <trkpt lat="41.954310" lon="0.051773">
        <ele>304.549</ele>
        <time>2020-08-23T11:07:52Z</time>
      </trkpt>
      <trkpt lat="41.954330" lon="0.051718">
        <ele>304.634</ele>
        <time>2020-08-23T11:07:53Z</time>
      </trkpt>
      <trkpt lat="41.954358" lon="0.051619">
        <ele>304.655</ele>
        <time>2020-08-23T11:07:55Z</time>
      </trkpt>
      <trkpt lat="41.954373" lon="0.051522">
        <ele>304.610</ele>
        <time>2020-08-23T11:07:57Z</time>
      </trkpt>
      <trkpt lat="41.954391" lon="0.051419">
        <ele>304.608</ele>
        <time>2020-08-23T11:07:59Z</time>
      </trkpt>
      <trkpt lat="41.954414" lon="0.051310">
        <ele>304.628</ele>
        <time>2020-08-23T11:08:01Z</time>
      </trkpt>
      <trkpt lat="41.954420" lon="0.051250">
        <ele>304.698</ele>
        <time>2020-08-23T11:08:02Z</time>
      </trkpt>
      <trkpt lat="41.954431" lon="0.051190">
        <ele>304.666</ele>
        <time>2020-08-23T11:08:03Z</time>
      </trkpt>
      <trkpt lat="41.954450" lon="0.051088">
        <ele>304.778</ele>
        <time>2020-08-23T11:08:05Z</time>
      </trkpt>
      <trkpt lat="41.954462" lon="0.050982">
        <ele>304.949</ele>
        <time>2020-08-23T11:08:07Z</time>
      </trkpt>
      <trkpt lat="41.954484" lon="0.050876">
        <ele>305.020</ele>
        <time>2020-08-23T11:08:09Z</time>
      </trkpt>
      <trkpt lat="41.954490" lon="0.050815">
        <ele>305.136</ele>
        <time>2020-08-23T11:08:10Z</time>
      </trkpt>
      <trkpt lat="41.954498" lon="0.050748">
        <ele>305.165</ele>
        <time>2020-08-23T11:08:11Z</time>
      </trkpt>
      <trkpt lat="41.954507" lon="0.050682">
        <ele>305.148</ele>
        <time>2020-08-23T11:08:12Z</time>
      </trkpt>
      <trkpt lat="41.954522" lon="0.050619">
        <ele>305.161</ele>
        <time>2020-08-23T11:08:13Z</time>
      </trkpt>
      <trkpt lat="41.954542" lon="0.050557">
        <ele>305.117</ele>
        <time>2020-08-23T11:08:14Z</time>
      </trkpt>
      <trkpt lat="41.954565" lon="0.050495">
        <ele>305.108</ele>
        <time>2020-08-23T11:08:15Z</time>
      </trkpt>
      <trkpt lat="41.954586" lon="0.050435">
        <ele>305.169</ele>
        <time>2020-08-23T11:08:16Z</time>
      </trkpt>
      <trkpt lat="41.954607" lon="0.050374">
        <ele>305.179</ele>
        <time>2020-08-23T11:08:17Z</time>
      </trkpt>
      <trkpt lat="41.954635" lon="0.050321">
        <ele>305.167</ele>
        <time>2020-08-23T11:08:18Z</time>
      </trkpt>
      <trkpt lat="41.954665" lon="0.050268">
        <ele>305.219</ele>
        <time>2020-08-23T11:08:19Z</time>
      </trkpt>
      <trkpt lat="41.954695" lon="0.050210">
        <ele>305.210</ele>
        <time>2020-08-23T11:08:20Z</time>
      </trkpt>
      <trkpt lat="41.954728" lon="0.050162">
        <ele>305.321</ele>
        <time>2020-08-23T11:08:21Z</time>
      </trkpt>
      <trkpt lat="41.954750" lon="0.050105">
        <ele>305.447</ele>
        <time>2020-08-23T11:08:22Z</time>
      </trkpt>
      <trkpt lat="41.954778" lon="0.050050">
        <ele>305.576</ele>
        <time>2020-08-23T11:08:23Z</time>
      </trkpt>
      <trkpt lat="41.954804" lon="0.049993">
        <ele>305.673</ele>
        <time>2020-08-23T11:08:24Z</time>
      </trkpt>
      <trkpt lat="41.954829" lon="0.049938">
        <ele>305.785</ele>
        <time>2020-08-23T11:08:25Z</time>
      </trkpt>
      <trkpt lat="41.954854" lon="0.049887">
        <ele>305.813</ele>
        <time>2020-08-23T11:08:26Z</time>
      </trkpt>
      <trkpt lat="41.954879" lon="0.049836">
        <ele>305.908</ele>
        <time>2020-08-23T11:08:27Z</time>
      </trkpt>
      <trkpt lat="41.954922" lon="0.049737">
        <ele>306.142</ele>
        <time>2020-08-23T11:08:29Z</time>
      </trkpt>
      <trkpt lat="41.954971" lon="0.049636">
        <ele>306.432</ele>
        <time>2020-08-23T11:08:31Z</time>
      </trkpt>
      <trkpt lat="41.955004" lon="0.049593">
        <ele>306.580</ele>
        <time>2020-08-23T11:08:32Z</time>
      </trkpt>
      <trkpt lat="41.955035" lon="0.049548">
        <ele>306.662</ele>
        <time>2020-08-23T11:08:33Z</time>
      </trkpt>
      <trkpt lat="41.955066" lon="0.049504">
        <ele>306.753</ele>
        <time>2020-08-23T11:08:34Z</time>
      </trkpt>
      <trkpt lat="41.955110" lon="0.049403">
        <ele>306.864</ele>
        <time>2020-08-23T11:08:36Z</time>
      </trkpt>
      <trkpt lat="41.955161" lon="0.049318">
        <ele>307.020</ele>
        <time>2020-08-23T11:08:38Z</time>
      </trkpt>
      <trkpt lat="41.955212" lon="0.049229">
        <ele>307.279</ele>
        <time>2020-08-23T11:08:40Z</time>
      </trkpt>
      <trkpt lat="41.955258" lon="0.049138">
        <ele>307.422</ele>
        <time>2020-08-23T11:08:42Z</time>
      </trkpt>
      <trkpt lat="41.955308" lon="0.049048">
        <ele>307.662</ele>
        <time>2020-08-23T11:08:44Z</time>
      </trkpt>
      <trkpt lat="41.955349" lon="0.048959">
        <ele>307.808</ele>
        <time>2020-08-23T11:08:46Z</time>
      </trkpt>
      <trkpt lat="41.955393" lon="0.048863">
        <ele>308.008</ele>
        <time>2020-08-23T11:08:48Z</time>
      </trkpt>
      <trkpt lat="41.955426" lon="0.048759">
        <ele>308.237</ele>
        <time>2020-08-23T11:08:50Z</time>
      </trkpt>
      <trkpt lat="41.955449" lon="0.048652">
        <ele>308.497</ele>
        <time>2020-08-23T11:08:52Z</time>
      </trkpt>
      <trkpt lat="41.955445" lon="0.048543">
        <ele>308.555</ele>
        <time>2020-08-23T11:08:54Z</time>
      </trkpt>
      <trkpt lat="41.955439" lon="0.048437">
        <ele>308.657</ele>
        <time>2020-08-23T11:08:56Z</time>
      </trkpt>
      <trkpt lat="41.955426" lon="0.048332">
        <ele>308.848</ele>
        <time>2020-08-23T11:08:58Z</time>
      </trkpt>
      <trkpt lat="41.955407" lon="0.048226">
        <ele>309.089</ele>
        <time>2020-08-23T11:09:00Z</time>
      </trkpt>
      <trkpt lat="41.955399" lon="0.048125">
        <ele>309.345</ele>
        <time>2020-08-23T11:09:02Z</time>
      </trkpt>
      <trkpt lat="41.955377" lon="0.048035">
        <ele>309.514</ele>
        <time>2020-08-23T11:09:04Z</time>
      </trkpt>
      <trkpt lat="41.955370" lon="0.047922">
        <ele>309.699</ele>
        <time>2020-08-23T11:09:06Z</time>
      </trkpt>
      <trkpt lat="41.955362" lon="0.047813">
        <ele>309.707</ele>
        <time>2020-08-23T11:09:08Z</time>
      </trkpt>
      <trkpt lat="41.955362" lon="0.047697">
        <ele>309.827</ele>
        <time>2020-08-23T11:09:10Z</time>
      </trkpt>
      <trkpt lat="41.955373" lon="0.047587">
        <ele>309.808</ele>
        <time>2020-08-23T11:09:12Z</time>
      </trkpt>
      <trkpt lat="41.955390" lon="0.047489">
        <ele>309.914</ele>
        <time>2020-08-23T11:09:14Z</time>
      </trkpt>
      <trkpt lat="41.955404" lon="0.047395">
        <ele>310.154</ele>
        <time>2020-08-23T11:09:16Z</time>
      </trkpt>
      <trkpt lat="41.955449" lon="0.047300">
        <ele>310.382</ele>
        <time>2020-08-23T11:09:18Z</time>
      </trkpt>
      <trkpt lat="41.955496" lon="0.047211">
        <ele>310.444</ele>
        <time>2020-08-23T11:09:20Z</time>
      </trkpt>
      <trkpt lat="41.955523" lon="0.047162">
        <ele>310.545</ele>
        <time>2020-08-23T11:09:21Z</time>
      </trkpt>
      <trkpt lat="41.955581" lon="0.047087">
        <ele>310.776</ele>
        <time>2020-08-23T11:09:23Z</time>
      </trkpt>
      <trkpt lat="41.955639" lon="0.047018">
        <ele>310.932</ele>
        <time>2020-08-23T11:09:25Z</time>
      </trkpt>
      <trkpt lat="41.955688" lon="0.046931">
        <ele>311.221</ele>
        <time>2020-08-23T11:09:27Z</time>
      </trkpt>
      <trkpt lat="41.955747" lon="0.046847">
        <ele>311.445</ele>
        <time>2020-08-23T11:09:29Z</time>
      </trkpt>
      <trkpt lat="41.955801" lon="0.046756">
        <ele>311.447</ele>
        <time>2020-08-23T11:09:31Z</time>
      </trkpt>
      <trkpt lat="41.955848" lon="0.046666">
        <ele>311.411</ele>
        <time>2020-08-23T11:09:33Z</time>
      </trkpt>
      <trkpt lat="41.955908" lon="0.046583">
        <ele>311.508</ele>
        <time>2020-08-23T11:09:35Z</time>
      </trkpt>
      <trkpt lat="41.955959" lon="0.046507">
        <ele>311.679</ele>
        <time>2020-08-23T11:09:37Z</time>
      </trkpt>
      <trkpt lat="41.956009" lon="0.046431">
        <ele>311.739</ele>
        <time>2020-08-23T11:09:39Z</time>
      </trkpt>
      <trkpt lat="41.956059" lon="0.046346">
        <ele>311.927</ele>
        <time>2020-08-23T11:09:41Z</time>
      </trkpt>
      <trkpt lat="41.956107" lon="0.046264">
        <ele>312.169</ele>
        <time>2020-08-23T11:09:43Z</time>
      </trkpt>
      <trkpt lat="41.956155" lon="0.046178">
        <ele>312.290</ele>
        <time>2020-08-23T11:09:45Z</time>
      </trkpt>
      <trkpt lat="41.956200" lon="0.046101">
        <ele>312.331</ele>
        <time>2020-08-23T11:09:47Z</time>
      </trkpt>
      <trkpt lat="41.956246" lon="0.046030">
        <ele>312.567</ele>
        <time>2020-08-23T11:09:49Z</time>
      </trkpt>
      <trkpt lat="41.956272" lon="0.045946">
        <ele>312.826</ele>
        <time>2020-08-23T11:09:51Z</time>
      </trkpt>
      <trkpt lat="41.956297" lon="0.045871">
        <ele>313.242</ele>
        <time>2020-08-23T11:09:53Z</time>
      </trkpt>
      <trkpt lat="41.956310" lon="0.045795">
        <ele>313.622</ele>
        <time>2020-08-23T11:09:55Z</time>
      </trkpt>
      <trkpt lat="41.956326" lon="0.045710">
        <ele>313.914</ele>
        <time>2020-08-23T11:09:57Z</time>
      </trkpt>
      <trkpt lat="41.956345" lon="0.045629">
        <ele>314.108</ele>
        <time>2020-08-23T11:09:59Z</time>
      </trkpt>
      <trkpt lat="41.956366" lon="0.045553">
        <ele>314.259</ele>
        <time>2020-08-23T11:10:01Z</time>
      </trkpt>
      <trkpt lat="41.956379" lon="0.045479">
        <ele>314.419</ele>
        <time>2020-08-23T11:10:03Z</time>
      </trkpt>
      <trkpt lat="41.956406" lon="0.045414">
        <ele>314.617</ele>
        <time>2020-08-23T11:10:05Z</time>
      </trkpt>
      <trkpt lat="41.956434" lon="0.045336">
        <ele>315.099</ele>
        <time>2020-08-23T11:10:07Z</time>
      </trkpt>
      <trkpt lat="41.956473" lon="0.045269">
        <ele>315.670</ele>
        <time>2020-08-23T11:10:09Z</time>
      </trkpt>
      <trkpt lat="41.956522" lon="0.045209">
        <ele>315.951</ele>
        <time>2020-08-23T11:10:11Z</time>
      </trkpt>
      <trkpt lat="41.956574" lon="0.045159">
        <ele>316.187</ele>
        <time>2020-08-23T11:10:13Z</time>
      </trkpt>
      <trkpt lat="41.956630" lon="0.045108">
        <ele>316.276</ele>
        <time>2020-08-23T11:10:15Z</time>
      </trkpt>
      <trkpt lat="41.956684" lon="0.045054">
        <ele>316.395</ele>
        <time>2020-08-23T11:10:17Z</time>
      </trkpt>
      <trkpt lat="41.956745" lon="0.045008">
        <ele>316.549</ele>
        <time>2020-08-23T11:10:19Z</time>
      </trkpt>
      <trkpt lat="41.956806" lon="0.044946">
        <ele>316.723</ele>
        <time>2020-08-23T11:10:21Z</time>
      </trkpt>
      <trkpt lat="41.956862" lon="0.044871">
        <ele>316.808</ele>
        <time>2020-08-23T11:10:23Z</time>
      </trkpt>
      <trkpt lat="41.956905" lon="0.044795">
        <ele>316.944</ele>
        <time>2020-08-23T11:10:25Z</time>
      </trkpt>
      <trkpt lat="41.956947" lon="0.044717">
        <ele>317.084</ele>
        <time>2020-08-23T11:10:27Z</time>
      </trkpt>
      <trkpt lat="41.956985" lon="0.044631">
        <ele>317.152</ele>
        <time>2020-08-23T11:10:29Z</time>
      </trkpt>
      <trkpt lat="41.957000" lon="0.044540">
        <ele>317.194</ele>
        <time>2020-08-23T11:10:31Z</time>
      </trkpt>
      <trkpt lat="41.957023" lon="0.044441">
        <ele>317.235</ele>
        <time>2020-08-23T11:10:33Z</time>
      </trkpt>
      <trkpt lat="41.957037" lon="0.044347">
        <ele>317.356</ele>
        <time>2020-08-23T11:10:35Z</time>
      </trkpt>
      <trkpt lat="41.957042" lon="0.044251">
        <ele>317.552</ele>
        <time>2020-08-23T11:10:37Z</time>
      </trkpt>
      <trkpt lat="41.957056" lon="0.044167">
        <ele>317.791</ele>
        <time>2020-08-23T11:10:39Z</time>
      </trkpt>
      <trkpt lat="41.957066" lon="0.044087">
        <ele>318.046</ele>
        <time>2020-08-23T11:10:41Z</time>
      </trkpt>
      <trkpt lat="41.957076" lon="0.043999">
        <ele>318.288</ele>
        <time>2020-08-23T11:10:43Z</time>
      </trkpt>
      <trkpt lat="41.957084" lon="0.043911">
        <ele>318.516</ele>
        <time>2020-08-23T11:10:45Z</time>
      </trkpt>
      <trkpt lat="41.957104" lon="0.043811">
        <ele>318.708</ele>
        <time>2020-08-23T11:10:47Z</time>
      </trkpt>
      <trkpt lat="41.957126" lon="0.043723">
        <ele>318.949</ele>
        <time>2020-08-23T11:10:49Z</time>
      </trkpt>
      <trkpt lat="41.957137" lon="0.043632">
        <ele>319.039</ele>
        <time>2020-08-23T11:10:51Z</time>
      </trkpt>
      <trkpt lat="41.957151" lon="0.043543">
        <ele>319.217</ele>
        <time>2020-08-23T11:10:53Z</time>
      </trkpt>
      <trkpt lat="41.957162" lon="0.043457">
        <ele>319.489</ele>
        <time>2020-08-23T11:10:55Z</time>
      </trkpt>
      <trkpt lat="41.957196" lon="0.043376">
        <ele>319.690</ele>
        <time>2020-08-23T11:10:57Z</time>
      </trkpt>
      <trkpt lat="41.957233" lon="0.043288">
        <ele>319.851</ele>
        <time>2020-08-23T11:10:59Z</time>
      </trkpt>
      <trkpt lat="41.957283" lon="0.043211">
        <ele>320.057</ele>
        <time>2020-08-23T11:11:01Z</time>
      </trkpt>
      <trkpt lat="41.957322" lon="0.043145">
        <ele>320.296</ele>
        <time>2020-08-23T11:11:03Z</time>
      </trkpt>
      <trkpt lat="41.957352" lon="0.043078">
        <ele>320.519</ele>
        <time>2020-08-23T11:11:05Z</time>
      </trkpt>
      <trkpt lat="41.957370" lon="0.042993">
        <ele>320.809</ele>
        <time>2020-08-23T11:11:07Z</time>
      </trkpt>
      <trkpt lat="41.957368" lon="0.042899">
        <ele>321.019</ele>
        <time>2020-08-23T11:11:09Z</time>
      </trkpt>
      <trkpt lat="41.957380" lon="0.042808">
        <ele>321.108</ele>
        <time>2020-08-23T11:11:11Z</time>
      </trkpt>
      <trkpt lat="41.957365" lon="0.042717">
        <ele>321.166</ele>
        <time>2020-08-23T11:11:13Z</time>
      </trkpt>
      <trkpt lat="41.957359" lon="0.042623">
        <ele>321.236</ele>
        <time>2020-08-23T11:11:15Z</time>
      </trkpt>
      <trkpt lat="41.957356" lon="0.042514">
        <ele>321.314</ele>
        <time>2020-08-23T11:11:17Z</time>
      </trkpt>
      <trkpt lat="41.957358" lon="0.042414">
        <ele>321.446</ele>
        <time>2020-08-23T11:11:19Z</time>
      </trkpt>
      <trkpt lat="41.957369" lon="0.042312">
        <ele>321.517</ele>
        <time>2020-08-23T11:11:21Z</time>
      </trkpt>
      <trkpt lat="41.957372" lon="0.042222">
        <ele>321.798</ele>
        <time>2020-08-23T11:11:23Z</time>
      </trkpt>
      <trkpt lat="41.957360" lon="0.042122">
        <ele>321.834</ele>
        <time>2020-08-23T11:11:25Z</time>
      </trkpt>
      <trkpt lat="41.957337" lon="0.042026">
        <ele>322.033</ele>
        <time>2020-08-23T11:11:27Z</time>
      </trkpt>
      <trkpt lat="41.957317" lon="0.041948">
        <ele>322.215</ele>
        <time>2020-08-23T11:11:29Z</time>
      </trkpt>
      <trkpt lat="41.957303" lon="0.041882">
        <ele>322.465</ele>
        <time>2020-08-23T11:11:31Z</time>
      </trkpt>
      <trkpt lat="41.957299" lon="0.041802">
        <ele>322.611</ele>
        <time>2020-08-23T11:11:33Z</time>
      </trkpt>
      <trkpt lat="41.957279" lon="0.041702">
        <ele>322.808</ele>
        <time>2020-08-23T11:11:35Z</time>
      </trkpt>
      <trkpt lat="41.957264" lon="0.041611">
        <ele>323.176</ele>
        <time>2020-08-23T11:11:37Z</time>
      </trkpt>
      <trkpt lat="41.957258" lon="0.041503">
        <ele>323.256</ele>
        <time>2020-08-23T11:11:39Z</time>
      </trkpt>
      <trkpt lat="41.957235" lon="0.041406">
        <ele>323.224</ele>
        <time>2020-08-23T11:11:41Z</time>
      </trkpt>
      <trkpt lat="41.957242" lon="0.041300">
        <ele>323.356</ele>
        <time>2020-08-23T11:11:43Z</time>
      </trkpt>
      <trkpt lat="41.957257" lon="0.041214">
        <ele>323.487</ele>
        <time>2020-08-23T11:11:45Z</time>
      </trkpt>
      <trkpt lat="41.957285" lon="0.041119">
        <ele>323.718</ele>
        <time>2020-08-23T11:11:47Z</time>
      </trkpt>
      <trkpt lat="41.957300" lon="0.041033">
        <ele>324.044</ele>
        <time>2020-08-23T11:11:49Z</time>
      </trkpt>
      <trkpt lat="41.957320" lon="0.040939">
        <ele>324.373</ele>
        <time>2020-08-23T11:11:51Z</time>
      </trkpt>
      <trkpt lat="41.957349" lon="0.040862">
        <ele>324.573</ele>
        <time>2020-08-23T11:11:53Z</time>
      </trkpt>
      <trkpt lat="41.957369" lon="0.040775">
        <ele>324.785</ele>
        <time>2020-08-23T11:11:55Z</time>
      </trkpt>
      <trkpt lat="41.957391" lon="0.040686">
        <ele>324.813</ele>
        <time>2020-08-23T11:11:57Z</time>
      </trkpt>
      <trkpt lat="41.957423" lon="0.040593">
        <ele>325.008</ele>
        <time>2020-08-23T11:11:59Z</time>
      </trkpt>
      <trkpt lat="41.957436" lon="0.040502">
        <ele>325.112</ele>
        <time>2020-08-23T11:12:01Z</time>
      </trkpt>
      <trkpt lat="41.957455" lon="0.040414">
        <ele>325.142</ele>
        <time>2020-08-23T11:12:03Z</time>
      </trkpt>
      <trkpt lat="41.957474" lon="0.040309">
        <ele>325.160</ele>
        <time>2020-08-23T11:12:05Z</time>
      </trkpt>
      <trkpt lat="41.957480" lon="0.040200">
        <ele>325.362</ele>
        <time>2020-08-23T11:12:07Z</time>
      </trkpt>
      <trkpt lat="41.957494" lon="0.040092">
        <ele>325.543</ele>
        <time>2020-08-23T11:12:09Z</time>
      </trkpt>
      <trkpt lat="41.957507" lon="0.040034">
        <ele>325.634</ele>
        <time>2020-08-23T11:12:10Z</time>
      </trkpt>
      <trkpt lat="41.957524" lon="0.039932">
        <ele>325.720</ele>
        <time>2020-08-23T11:12:12Z</time>
      </trkpt>
      <trkpt lat="41.957533" lon="0.039835">
        <ele>325.869</ele>
        <time>2020-08-23T11:12:14Z</time>
      </trkpt>
      <trkpt lat="41.957547" lon="0.039729">
        <ele>325.938</ele>
        <time>2020-08-23T11:12:16Z</time>
      </trkpt>
      <trkpt lat="41.957562" lon="0.039631">
        <ele>326.070</ele>
        <time>2020-08-23T11:12:18Z</time>
      </trkpt>
      <trkpt lat="41.957572" lon="0.039525">
        <ele>326.117</ele>
        <time>2020-08-23T11:12:20Z</time>
      </trkpt>
      <trkpt lat="41.957575" lon="0.039427">
        <ele>326.208</ele>
        <time>2020-08-23T11:12:22Z</time>
      </trkpt>
      <trkpt lat="41.957583" lon="0.039334">
        <ele>326.288</ele>
        <time>2020-08-23T11:12:24Z</time>
      </trkpt>
      <trkpt lat="41.957611" lon="0.039241">
        <ele>326.328</ele>
        <time>2020-08-23T11:12:26Z</time>
      </trkpt>
      <trkpt lat="41.957628" lon="0.039149">
        <ele>326.466</ele>
        <time>2020-08-23T11:12:28Z</time>
      </trkpt>
      <trkpt lat="41.957653" lon="0.039049">
        <ele>326.578</ele>
        <time>2020-08-23T11:12:30Z</time>
      </trkpt>
      <trkpt lat="41.957666" lon="0.038943">
        <ele>326.619</ele>
        <time>2020-08-23T11:12:32Z</time>
      </trkpt>
      <trkpt lat="41.957688" lon="0.038845">
        <ele>326.620</ele>
        <time>2020-08-23T11:12:34Z</time>
      </trkpt>
      <trkpt lat="41.957699" lon="0.038739">
        <ele>326.646</ele>
        <time>2020-08-23T11:12:36Z</time>
      </trkpt>
      <trkpt lat="41.957712" lon="0.038643">
        <ele>326.695</ele>
        <time>2020-08-23T11:12:38Z</time>
      </trkpt>
      <trkpt lat="41.957732" lon="0.038541">
        <ele>326.619</ele>
        <time>2020-08-23T11:12:40Z</time>
      </trkpt>
      <trkpt lat="41.957754" lon="0.038435">
        <ele>326.709</ele>
        <time>2020-08-23T11:12:42Z</time>
      </trkpt>
      <trkpt lat="41.957769" lon="0.038334">
        <ele>326.919</ele>
        <time>2020-08-23T11:12:44Z</time>
      </trkpt>
      <trkpt lat="41.957780" lon="0.038243">
        <ele>327.108</ele>
        <time>2020-08-23T11:12:46Z</time>
      </trkpt>
      <trkpt lat="41.957794" lon="0.038149">
        <ele>327.346</ele>
        <time>2020-08-23T11:12:48Z</time>
      </trkpt>
      <trkpt lat="41.957805" lon="0.038059">
        <ele>327.516</ele>
        <time>2020-08-23T11:12:50Z</time>
      </trkpt>
      <trkpt lat="41.957823" lon="0.037967">
        <ele>327.634</ele>
        <time>2020-08-23T11:12:52Z</time>
      </trkpt>
      <trkpt lat="41.957828" lon="0.037878">
        <ele>327.626</ele>
        <time>2020-08-23T11:12:54Z</time>
      </trkpt>
      <trkpt lat="41.957837" lon="0.037781">
        <ele>327.637</ele>
        <time>2020-08-23T11:12:56Z</time>
      </trkpt>
      <trkpt lat="41.957845" lon="0.037688">
        <ele>327.788</ele>
        <time>2020-08-23T11:12:58Z</time>
      </trkpt>
      <trkpt lat="41.957858" lon="0.037596">
        <ele>327.884</ele>
        <time>2020-08-23T11:13:00Z</time>
      </trkpt>
      <trkpt lat="41.957892" lon="0.037505">
        <ele>327.943</ele>
        <time>2020-08-23T11:13:02Z</time>
      </trkpt>
      <trkpt lat="41.957909" lon="0.037410">
        <ele>328.078</ele>
        <time>2020-08-23T11:13:04Z</time>
      </trkpt>
      <trkpt lat="41.957922" lon="0.037314">
        <ele>328.233</ele>
        <time>2020-08-23T11:13:06Z</time>
      </trkpt>
      <trkpt lat="41.957942" lon="0.037216">
        <ele>328.526</ele>
        <time>2020-08-23T11:13:08Z</time>
      </trkpt>
      <trkpt lat="41.957968" lon="0.037114">
        <ele>328.608</ele>
        <time>2020-08-23T11:13:10Z</time>
      </trkpt>
      <trkpt lat="41.957985" lon="0.037024">
        <ele>328.612</ele>
        <time>2020-08-23T11:13:12Z</time>
      </trkpt>
      <trkpt lat="41.958000" lon="0.036921">
        <ele>328.722</ele>
        <time>2020-08-23T11:13:14Z</time>
      </trkpt>
      <trkpt lat="41.958014" lon="0.036830">
        <ele>328.820</ele>
        <time>2020-08-23T11:13:16Z</time>
      </trkpt>
      <trkpt lat="41.958027" lon="0.036737">
        <ele>329.042</ele>
        <time>2020-08-23T11:13:18Z</time>
      </trkpt>
      <trkpt lat="41.958042" lon="0.036645">
        <ele>329.233</ele>
        <time>2020-08-23T11:13:20Z</time>
      </trkpt>
      <trkpt lat="41.958058" lon="0.036550">
        <ele>329.534</ele>
        <time>2020-08-23T11:13:22Z</time>
      </trkpt>
      <trkpt lat="41.958079" lon="0.036451">
        <ele>329.840</ele>
        <time>2020-08-23T11:13:24Z</time>
      </trkpt>
      <trkpt lat="41.958098" lon="0.036347">
        <ele>330.089</ele>
        <time>2020-08-23T11:13:26Z</time>
      </trkpt>
      <trkpt lat="41.958109" lon="0.036256">
        <ele>330.193</ele>
        <time>2020-08-23T11:13:28Z</time>
      </trkpt>
      <trkpt lat="41.958124" lon="0.036168">
        <ele>330.265</ele>
        <time>2020-08-23T11:13:30Z</time>
      </trkpt>
      <trkpt lat="41.958140" lon="0.036089">
        <ele>330.421</ele>
        <time>2020-08-23T11:13:32Z</time>
      </trkpt>
      <trkpt lat="41.958153" lon="0.036020">
        <ele>330.608</ele>
        <time>2020-08-23T11:13:34Z</time>
      </trkpt>
      <trkpt lat="41.958131" lon="0.035928">
        <ele>330.864</ele>
        <time>2020-08-23T11:13:36Z</time>
      </trkpt>
      <trkpt lat="41.958098" lon="0.035853">
        <ele>331.074</ele>
        <time>2020-08-23T11:13:38Z</time>
      </trkpt>
      <trkpt lat="41.958078" lon="0.035763">
        <ele>331.272</ele>
        <time>2020-08-23T11:13:40Z</time>
      </trkpt>
      <trkpt lat="41.958040" lon="0.035681">
        <ele>331.314</ele>
        <time>2020-08-23T11:13:42Z</time>
      </trkpt>
      <trkpt lat="41.957995" lon="0.035609">
        <ele>331.355</ele>
        <time>2020-08-23T11:13:44Z</time>
      </trkpt>
      <trkpt lat="41.957950" lon="0.035523">
        <ele>331.376</ele>
        <time>2020-08-23T11:13:46Z</time>
      </trkpt>
      <trkpt lat="41.957917" lon="0.035436">
        <ele>331.472</ele>
        <time>2020-08-23T11:13:48Z</time>
      </trkpt>
      <trkpt lat="41.957876" lon="0.035344">
        <ele>331.591</ele>
        <time>2020-08-23T11:13:50Z</time>
      </trkpt>
      <trkpt lat="41.957823" lon="0.035253">
        <ele>331.658</ele>
        <time>2020-08-23T11:13:52Z</time>
      </trkpt>
      <trkpt lat="41.957783" lon="0.035157">
        <ele>331.852</ele>
        <time>2020-08-23T11:13:54Z</time>
      </trkpt>
      <trkpt lat="41.957727" lon="0.035086">
        <ele>331.917</ele>
        <time>2020-08-23T11:13:56Z</time>
      </trkpt>
      <trkpt lat="41.957668" lon="0.035013">
        <ele>331.808</ele>
        <time>2020-08-23T11:13:58Z</time>
      </trkpt>
      <trkpt lat="41.957620" lon="0.034934">
        <ele>331.690</ele>
        <time>2020-08-23T11:14:00Z</time>
      </trkpt>
      <trkpt lat="41.957575" lon="0.034849">
        <ele>331.630</ele>
        <time>2020-08-23T11:14:02Z</time>
      </trkpt>
      <trkpt lat="41.957530" lon="0.034775">
        <ele>331.788</ele>
        <time>2020-08-23T11:14:04Z</time>
      </trkpt>
      <trkpt lat="41.957474" lon="0.034700">
        <ele>331.850</ele>
        <time>2020-08-23T11:14:06Z</time>
      </trkpt>
      <trkpt lat="41.957414" lon="0.034620">
        <ele>331.911</ele>
        <time>2020-08-23T11:14:08Z</time>
      </trkpt>
      <trkpt lat="41.957355" lon="0.034538">
        <ele>332.022</ele>
        <time>2020-08-23T11:14:10Z</time>
      </trkpt>
      <trkpt lat="41.957299" lon="0.034463">
        <ele>332.128</ele>
        <time>2020-08-23T11:14:12Z</time>
      </trkpt>
      <trkpt lat="41.957246" lon="0.034397">
        <ele>332.397</ele>
        <time>2020-08-23T11:14:14Z</time>
      </trkpt>
      <trkpt lat="41.957203" lon="0.034331">
        <ele>332.463</ele>
        <time>2020-08-23T11:14:16Z</time>
      </trkpt>
      <trkpt lat="41.957173" lon="0.034249">
        <ele>332.544</ele>
        <time>2020-08-23T11:14:18Z</time>
      </trkpt>
      <trkpt lat="41.957133" lon="0.034171">
        <ele>332.718</ele>
        <time>2020-08-23T11:14:20Z</time>
      </trkpt>
      <trkpt lat="41.957094" lon="0.034091">
        <ele>333.008</ele>
        <time>2020-08-23T11:14:22Z</time>
      </trkpt>
      <trkpt lat="41.957055" lon="0.034005">
        <ele>333.281</ele>
        <time>2020-08-23T11:14:24Z</time>
      </trkpt>
      <trkpt lat="41.957012" lon="0.033925">
        <ele>333.431</ele>
        <time>2020-08-23T11:14:26Z</time>
      </trkpt>
      <trkpt lat="41.956969" lon="0.033843">
        <ele>333.579</ele>
        <time>2020-08-23T11:14:28Z</time>
      </trkpt>
      <trkpt lat="41.956917" lon="0.033770">
        <ele>333.641</ele>
        <time>2020-08-23T11:14:30Z</time>
      </trkpt>
      <trkpt lat="41.956878" lon="0.033699">
        <ele>333.782</ele>
        <time>2020-08-23T11:14:32Z</time>
      </trkpt>
      <trkpt lat="41.956835" lon="0.033625">
        <ele>333.853</ele>
        <time>2020-08-23T11:14:34Z</time>
      </trkpt>
      <trkpt lat="41.956798" lon="0.033552">
        <ele>333.939</ele>
        <time>2020-08-23T11:14:36Z</time>
      </trkpt>
      <trkpt lat="41.956769" lon="0.033481">
        <ele>334.078</ele>
        <time>2020-08-23T11:14:38Z</time>
      </trkpt>
      <trkpt lat="41.956735" lon="0.033403">
        <ele>334.255</ele>
        <time>2020-08-23T11:14:40Z</time>
      </trkpt>
      <trkpt lat="41.956696" lon="0.033331">
        <ele>334.307</ele>
        <time>2020-08-23T11:14:42Z</time>
      </trkpt>
      <trkpt lat="41.956646" lon="0.033272">
        <ele>334.417</ele>
        <time>2020-08-23T11:14:44Z</time>
      </trkpt>
      <trkpt lat="41.956607" lon="0.033209">
        <ele>334.508</ele>
        <time>2020-08-23T11:14:46Z</time>
      </trkpt>
      <trkpt lat="41.956583" lon="0.033151">
        <ele>334.560</ele>
        <time>2020-08-23T11:14:48Z</time>
      </trkpt>
      <trkpt lat="41.956566" lon="0.033091">
        <ele>334.630</ele>
        <time>2020-08-23T11:14:54Z</time>
      </trkpt>
      <trkpt lat="41.956634" lon="0.033083">
        <ele>334.668</ele>
        <time>2020-08-23T11:15:24Z</time>
      </trkpt>
      <trkpt lat="41.956698" lon="0.033063">
        <ele>334.520</ele>
        <time>2020-08-23T11:15:27Z</time>
      </trkpt>
      <trkpt lat="41.956748" lon="0.033067">
        <ele>334.561</ele>
        <time>2020-08-23T11:15:29Z</time>
      </trkpt>
      <trkpt lat="41.956795" lon="0.033075">
        <ele>334.672</ele>
        <time>2020-08-23T11:15:31Z</time>
      </trkpt>
      <trkpt lat="41.956861" lon="0.033088">
        <ele>334.818</ele>
        <time>2020-08-23T11:15:33Z</time>
      </trkpt>
      <trkpt lat="41.956937" lon="0.033089">
        <ele>335.077</ele>
        <time>2020-08-23T11:15:35Z</time>
      </trkpt>
      <trkpt lat="41.957001" lon="0.033094">
        <ele>335.223</ele>
        <time>2020-08-23T11:15:37Z</time>
      </trkpt>
      <trkpt lat="41.957058" lon="0.033095">
        <ele>335.483</ele>
        <time>2020-08-23T11:15:39Z</time>
      </trkpt>
      <trkpt lat="41.957122" lon="0.033097">
        <ele>335.511</ele>
        <time>2020-08-23T11:15:41Z</time>
      </trkpt>
      <trkpt lat="41.957191" lon="0.033113">
        <ele>335.608</ele>
        <time>2020-08-23T11:15:43Z</time>
      </trkpt>
      <trkpt lat="41.957275" lon="0.033121">
        <ele>335.817</ele>
        <time>2020-08-23T11:15:45Z</time>
      </trkpt>
      <trkpt lat="41.957353" lon="0.033121">
        <ele>336.187</ele>
        <time>2020-08-23T11:15:47Z</time>
      </trkpt>
      <trkpt lat="41.957432" lon="0.033131">
        <ele>336.415</ele>
        <time>2020-08-23T11:15:49Z</time>
      </trkpt>
      <trkpt lat="41.957500" lon="0.033114">
        <ele>336.787</ele>
        <time>2020-08-23T11:15:51Z</time>
      </trkpt>
      <trkpt lat="41.957543" lon="0.033060">
        <ele>337.068</ele>
        <time>2020-08-23T11:15:53Z</time>
      </trkpt>
      <trkpt lat="41.957580" lon="0.033023">
        <ele>337.299</ele>
        <time>2020-08-23T11:15:55Z</time>
      </trkpt>
      <trkpt lat="41.957603" lon="0.032965">
        <ele>337.765</ele>
        <time>2020-08-23T11:15:57Z</time>
      </trkpt>
      <trkpt lat="41.957610" lon="0.032898">
        <ele>338.154</ele>
        <time>2020-08-23T11:15:59Z</time>
      </trkpt>
      <trkpt lat="41.957602" lon="0.032828">
        <ele>338.499</ele>
        <time>2020-08-23T11:16:01Z</time>
      </trkpt>
      <trkpt lat="41.957609" lon="0.032735">
        <ele>339.007</ele>
        <time>2020-08-23T11:16:04Z</time>
      </trkpt>
      <trkpt lat="41.957585" lon="0.032660">
        <ele>339.327</ele>
        <time>2020-08-23T11:16:06Z</time>
      </trkpt>
      <trkpt lat="41.957557" lon="0.032603">
        <ele>339.508</ele>
        <time>2020-08-23T11:16:08Z</time>
      </trkpt>
      <trkpt lat="41.957548" lon="0.032528">
        <ele>339.944</ele>
        <time>2020-08-23T11:16:11Z</time>
      </trkpt>
      <trkpt lat="41.957538" lon="0.032464">
        <ele>340.464</ele>
        <time>2020-08-23T11:16:14Z</time>
      </trkpt>
      <trkpt lat="41.957521" lon="0.032404">
        <ele>340.932</ele>
        <time>2020-08-23T11:16:17Z</time>
      </trkpt>
      <trkpt lat="41.957491" lon="0.032341">
        <ele>341.324</ele>
        <time>2020-08-23T11:16:20Z</time>
      </trkpt>
      <trkpt lat="41.957448" lon="0.032281">
        <ele>341.545</ele>
        <time>2020-08-23T11:16:23Z</time>
      </trkpt>
      <trkpt lat="41.957435" lon="0.032197">
        <ele>341.616</ele>
        <time>2020-08-23T11:16:26Z</time>
      </trkpt>
      <trkpt lat="41.957455" lon="0.032112">
        <ele>341.822</ele>
        <time>2020-08-23T11:16:29Z</time>
      </trkpt>
      <trkpt lat="41.957466" lon="0.032043">
        <ele>342.041</ele>
        <time>2020-08-23T11:16:32Z</time>
      </trkpt>
      <trkpt lat="41.957473" lon="0.031976">
        <ele>342.183</ele>
        <time>2020-08-23T11:16:34Z</time>
      </trkpt>
      <trkpt lat="41.957479" lon="0.031883">
        <ele>342.325</ele>
        <time>2020-08-23T11:16:37Z</time>
      </trkpt>
      <trkpt lat="41.957473" lon="0.031812">
        <ele>342.417</ele>
        <time>2020-08-23T11:16:39Z</time>
      </trkpt>
      <trkpt lat="41.957478" lon="0.031749">
        <ele>342.608</ele>
        <time>2020-08-23T11:16:41Z</time>
      </trkpt>
      <trkpt lat="41.957491" lon="0.031656">
        <ele>343.183</ele>
        <time>2020-08-23T11:16:44Z</time>
      </trkpt>
      <trkpt lat="41.957502" lon="0.031579">
        <ele>343.373</ele>
        <time>2020-08-23T11:16:46Z</time>
      </trkpt>
      <trkpt lat="41.957516" lon="0.031510">
        <ele>343.571</ele>
        <time>2020-08-23T11:16:48Z</time>
      </trkpt>
      <trkpt lat="41.957526" lon="0.031443">
        <ele>343.633</ele>
        <time>2020-08-23T11:16:50Z</time>
      </trkpt>
      <trkpt lat="41.957530" lon="0.031375">
        <ele>343.774</ele>
        <time>2020-08-23T11:16:52Z</time>
      </trkpt>
      <trkpt lat="41.957545" lon="0.031288">
        <ele>344.075</ele>
        <time>2020-08-23T11:16:55Z</time>
      </trkpt>
      <trkpt lat="41.957560" lon="0.031223">
        <ele>344.251</ele>
        <time>2020-08-23T11:16:57Z</time>
      </trkpt>
      <trkpt lat="41.957577" lon="0.031159">
        <ele>344.440</ele>
        <time>2020-08-23T11:16:59Z</time>
      </trkpt>
      <trkpt lat="41.957601" lon="0.031096">
        <ele>344.552</ele>
        <time>2020-08-23T11:17:01Z</time>
      </trkpt>
      <trkpt lat="41.957601" lon="0.031029">
        <ele>344.653</ele>
        <time>2020-08-23T11:17:03Z</time>
      </trkpt>
      <trkpt lat="41.957616" lon="0.030954">
        <ele>344.708</ele>
        <time>2020-08-23T11:17:05Z</time>
      </trkpt>
      <trkpt lat="41.957633" lon="0.030878">
        <ele>344.808</ele>
        <time>2020-08-23T11:17:07Z</time>
      </trkpt>
      <trkpt lat="41.957639" lon="0.030811">
        <ele>344.930</ele>
        <time>2020-08-23T11:17:09Z</time>
      </trkpt>
      <trkpt lat="41.957648" lon="0.030742">
        <ele>345.120</ele>
        <time>2020-08-23T11:17:11Z</time>
      </trkpt>
      <trkpt lat="41.957648" lon="0.030676">
        <ele>345.348</ele>
        <time>2020-08-23T11:17:13Z</time>
      </trkpt>
      <trkpt lat="41.957657" lon="0.030598">
        <ele>345.520</ele>
        <time>2020-08-23T11:17:15Z</time>
      </trkpt>
      <trkpt lat="41.957655" lon="0.030525">
        <ele>345.611</ele>
        <time>2020-08-23T11:17:17Z</time>
      </trkpt>
      <trkpt lat="41.957659" lon="0.030448">
        <ele>345.752</ele>
        <time>2020-08-23T11:17:19Z</time>
      </trkpt>
      <trkpt lat="41.957649" lon="0.030378">
        <ele>345.918</ele>
        <time>2020-08-23T11:17:21Z</time>
      </trkpt>
      <trkpt lat="41.957657" lon="0.030291">
        <ele>346.267</ele>
        <time>2020-08-23T11:17:24Z</time>
      </trkpt>
      <trkpt lat="41.957661" lon="0.030215">
        <ele>346.587</ele>
        <time>2020-08-23T11:17:27Z</time>
      </trkpt>
      <trkpt lat="41.957647" lon="0.030142">
        <ele>347.042</ele>
        <time>2020-08-23T11:17:30Z</time>
      </trkpt>
      <trkpt lat="41.957647" lon="0.030077">
        <ele>347.626</ele>
        <time>2020-08-23T11:17:32Z</time>
      </trkpt>
      <trkpt lat="41.957652" lon="0.030014">
        <ele>348.008</ele>
        <time>2020-08-23T11:17:34Z</time>
      </trkpt>
      <trkpt lat="41.957647" lon="0.029950">
        <ele>348.363</ele>
        <time>2020-08-23T11:17:36Z</time>
      </trkpt>
      <trkpt lat="41.957659" lon="0.029862">
        <ele>348.693</ele>
        <time>2020-08-23T11:17:39Z</time>
      </trkpt>
      <trkpt lat="41.957661" lon="0.029789">
        <ele>348.841</ele>
        <time>2020-08-23T11:17:42Z</time>
      </trkpt>
      <trkpt lat="41.957651" lon="0.029714">
        <ele>349.083</ele>
        <time>2020-08-23T11:17:45Z</time>
      </trkpt>
      <trkpt lat="41.957657" lon="0.029651">
        <ele>349.154</ele>
        <time>2020-08-23T11:17:47Z</time>
      </trkpt>
      <trkpt lat="41.957653" lon="0.029576">
        <ele>349.395</ele>
        <time>2020-08-23T11:17:50Z</time>
      </trkpt>
      <trkpt lat="41.957648" lon="0.029507">
        <ele>349.711</ele>
        <time>2020-08-23T11:17:53Z</time>
      </trkpt>
      <trkpt lat="41.957653" lon="0.029441">
        <ele>350.360</ele>
        <time>2020-08-23T11:17:56Z</time>
      </trkpt>
      <trkpt lat="41.957675" lon="0.029357">
        <ele>350.787</ele>
        <time>2020-08-23T11:17:59Z</time>
      </trkpt>
      <trkpt lat="41.957690" lon="0.029299">
        <ele>350.942</ele>
        <time>2020-08-23T11:18:01Z</time>
      </trkpt>
      <trkpt lat="41.957711" lon="0.029245">
        <ele>351.126</ele>
        <time>2020-08-23T11:18:03Z</time>
      </trkpt>
      <trkpt lat="41.957734" lon="0.029179">
        <ele>351.308</ele>
        <time>2020-08-23T11:18:06Z</time>
      </trkpt>
      <trkpt lat="41.957761" lon="0.029113">
        <ele>351.683</ele>
        <time>2020-08-23T11:18:09Z</time>
      </trkpt>
      <trkpt lat="41.957792" lon="0.029053">
        <ele>352.193</ele>
        <time>2020-08-23T11:18:12Z</time>
      </trkpt>
      <trkpt lat="41.957827" lon="0.029014">
        <ele>352.451</ele>
        <time>2020-08-23T11:18:14Z</time>
      </trkpt>
      <trkpt lat="41.957877" lon="0.028965">
        <ele>352.723</ele>
        <time>2020-08-23T11:18:17Z</time>
      </trkpt>
      <trkpt lat="41.957909" lon="0.028916">
        <ele>353.144</ele>
        <time>2020-08-23T11:18:20Z</time>
      </trkpt>
      <trkpt lat="41.957935" lon="0.028855">
        <ele>353.945</ele>
        <time>2020-08-23T11:18:23Z</time>
      </trkpt>
      <trkpt lat="41.957970" lon="0.028788">
        <ele>354.651</ele>
        <time>2020-08-23T11:18:26Z</time>
      </trkpt>
      <trkpt lat="41.958001" lon="0.028715">
        <ele>355.260</ele>
        <time>2020-08-23T11:18:29Z</time>
      </trkpt>
      <trkpt lat="41.958024" lon="0.028654">
        <ele>355.746</ele>
        <time>2020-08-23T11:18:32Z</time>
      </trkpt>
      <trkpt lat="41.958049" lon="0.028593">
        <ele>356.188</ele>
        <time>2020-08-23T11:18:35Z</time>
      </trkpt>
      <trkpt lat="41.958078" lon="0.028536">
        <ele>356.616</ele>
        <time>2020-08-23T11:18:38Z</time>
      </trkpt>
      <trkpt lat="41.958112" lon="0.028493">
        <ele>357.408</ele>
        <time>2020-08-23T11:18:41Z</time>
      </trkpt>
      <trkpt lat="41.958152" lon="0.028442">
        <ele>358.149</ele>
        <time>2020-08-23T11:18:44Z</time>
      </trkpt>
      <trkpt lat="41.958195" lon="0.028403">
        <ele>358.479</ele>
        <time>2020-08-23T11:18:47Z</time>
      </trkpt>
      <trkpt lat="41.958242" lon="0.028353">
        <ele>358.627</ele>
        <time>2020-08-23T11:18:50Z</time>
      </trkpt>
      <trkpt lat="41.958281" lon="0.028314">
        <ele>359.039</ele>
        <time>2020-08-23T11:18:53Z</time>
      </trkpt>
      <trkpt lat="41.958335" lon="0.028267">
        <ele>359.360</ele>
        <time>2020-08-23T11:18:56Z</time>
      </trkpt>
      <trkpt lat="41.958384" lon="0.028226">
        <ele>359.851</ele>
        <time>2020-08-23T11:19:00Z</time>
      </trkpt>
      <trkpt lat="41.958425" lon="0.028185">
        <ele>360.167</ele>
        <time>2020-08-23T11:19:03Z</time>
      </trkpt>
      <trkpt lat="41.958456" lon="0.028140">
        <ele>360.246</ele>
        <time>2020-08-23T11:19:05Z</time>
      </trkpt>
      <trkpt lat="41.958490" lon="0.028097">
        <ele>360.315</ele>
        <time>2020-08-23T11:19:07Z</time>
      </trkpt>
      <trkpt lat="41.958535" lon="0.028029">
        <ele>360.565</ele>
        <time>2020-08-23T11:19:10Z</time>
      </trkpt>
      <trkpt lat="41.958562" lon="0.027975">
        <ele>360.611</ele>
        <time>2020-08-23T11:19:12Z</time>
      </trkpt>
      <trkpt lat="41.958603" lon="0.027901">
        <ele>360.808</ele>
        <time>2020-08-23T11:19:15Z</time>
      </trkpt>
      <trkpt lat="41.958641" lon="0.027842">
        <ele>361.046</ele>
        <time>2020-08-23T11:19:18Z</time>
      </trkpt>
      <trkpt lat="41.958667" lon="0.027781">
        <ele>361.336</ele>
        <time>2020-08-23T11:19:21Z</time>
      </trkpt>
      <trkpt lat="41.958677" lon="0.027716">
        <ele>361.594</ele>
        <time>2020-08-23T11:19:23Z</time>
      </trkpt>
      <trkpt lat="41.958687" lon="0.027652">
        <ele>361.826</ele>
        <time>2020-08-23T11:19:26Z</time>
      </trkpt>
      <trkpt lat="41.958689" lon="0.027572">
        <ele>362.137</ele>
        <time>2020-08-23T11:19:29Z</time>
      </trkpt>
      <trkpt lat="41.958691" lon="0.027508">
        <ele>362.458</ele>
        <time>2020-08-23T11:19:31Z</time>
      </trkpt>
      <trkpt lat="41.958691" lon="0.027440">
        <ele>362.814</ele>
        <time>2020-08-23T11:19:34Z</time>
      </trkpt>
      <trkpt lat="41.958704" lon="0.027365">
        <ele>363.183</ele>
        <time>2020-08-23T11:19:37Z</time>
      </trkpt>
      <trkpt lat="41.958713" lon="0.027296">
        <ele>363.265</ele>
        <time>2020-08-23T11:19:39Z</time>
      </trkpt>
      <trkpt lat="41.958725" lon="0.027227">
        <ele>363.368</ele>
        <time>2020-08-23T11:19:41Z</time>
      </trkpt>
      <trkpt lat="41.958738" lon="0.027161">
        <ele>363.514</ele>
        <time>2020-08-23T11:19:43Z</time>
      </trkpt>
      <trkpt lat="41.958752" lon="0.027067">
        <ele>363.608</ele>
        <time>2020-08-23T11:19:46Z</time>
      </trkpt>
      <trkpt lat="41.958770" lon="0.026977">
        <ele>363.681</ele>
        <time>2020-08-23T11:19:49Z</time>
      </trkpt>
      <trkpt lat="41.958772" lon="0.026888">
        <ele>363.851</ele>
        <time>2020-08-23T11:19:52Z</time>
      </trkpt>
      <trkpt lat="41.958773" lon="0.026824">
        <ele>364.079</ele>
        <time>2020-08-23T11:19:54Z</time>
      </trkpt>
      <trkpt lat="41.958767" lon="0.026759">
        <ele>364.291</ele>
        <time>2020-08-23T11:19:56Z</time>
      </trkpt>
      <trkpt lat="41.958760" lon="0.026683">
        <ele>364.692</ele>
        <time>2020-08-23T11:19:59Z</time>
      </trkpt>
      <trkpt lat="41.958761" lon="0.026610">
        <ele>365.133</ele>
        <time>2020-08-23T11:20:02Z</time>
      </trkpt>
      <trkpt lat="41.958734" lon="0.026531">
        <ele>365.219</ele>
        <time>2020-08-23T11:20:05Z</time>
      </trkpt>
      <trkpt lat="41.958695" lon="0.026456">
        <ele>365.158</ele>
        <time>2020-08-23T11:20:07Z</time>
      </trkpt>
      <trkpt lat="41.958666" lon="0.026385">
        <ele>364.937</ele>
        <time>2020-08-23T11:20:09Z</time>
      </trkpt>
      <trkpt lat="41.958653" lon="0.026306">
        <ele>364.549</ele>
        <time>2020-08-23T11:20:11Z</time>
      </trkpt>
      <trkpt lat="41.958641" lon="0.026236">
        <ele>364.213</ele>
        <time>2020-08-23T11:20:13Z</time>
      </trkpt>
      <trkpt lat="41.958641" lon="0.026167">
        <ele>363.908</ele>
        <time>2020-08-23T11:20:22Z</time>
      </trkpt>
      <trkpt lat="41.958642" lon="0.026078">
        <ele>364.028</ele>
        <time>2020-08-23T11:20:25Z</time>
      </trkpt>
      <trkpt lat="41.958638" lon="0.026004">
        <ele>364.178</ele>
        <time>2020-08-23T11:20:27Z</time>
      </trkpt>
      <trkpt lat="41.958639" lon="0.025927">
        <ele>364.236</ele>
        <time>2020-08-23T11:20:29Z</time>
      </trkpt>
      <trkpt lat="41.958634" lon="0.025843">
        <ele>364.328</ele>
        <time>2020-08-23T11:20:31Z</time>
      </trkpt>
      <trkpt lat="41.958627" lon="0.025766">
        <ele>364.369</ele>
        <time>2020-08-23T11:20:33Z</time>
      </trkpt>
      <trkpt lat="41.958623" lon="0.025685">
        <ele>364.270</ele>
        <time>2020-08-23T11:20:35Z</time>
      </trkpt>
      <trkpt lat="41.958629" lon="0.025605">
        <ele>364.276</ele>
        <time>2020-08-23T11:20:37Z</time>
      </trkpt>
      <trkpt lat="41.958615" lon="0.025543">
        <ele>364.235</ele>
        <time>2020-08-23T11:20:39Z</time>
      </trkpt>
      <trkpt lat="41.958597" lon="0.025486">
        <ele>364.188</ele>
        <time>2020-08-23T11:20:41Z</time>
      </trkpt>
      <trkpt lat="41.958602" lon="0.025408">
        <ele>363.724</ele>
        <time>2020-08-23T11:20:44Z</time>
      </trkpt>
      <trkpt lat="41.958542" lon="0.025398">
        <ele>363.026</ele>
        <time>2020-08-23T11:20:55Z</time>
      </trkpt>
      <trkpt lat="41.958495" lon="0.025367">
        <ele>362.908</ele>
        <time>2020-08-23T11:20:57Z</time>
      </trkpt>
      <trkpt lat="41.958449" lon="0.025315">
        <ele>362.523</ele>
        <time>2020-08-23T11:21:00Z</time>
      </trkpt>
      <trkpt lat="41.958432" lon="0.025227">
        <ele>362.123</ele>
        <time>2020-08-23T11:21:02Z</time>
      </trkpt>
      <trkpt lat="41.958425" lon="0.025144">
        <ele>361.821</ele>
        <time>2020-08-23T11:21:04Z</time>
      </trkpt>
      <trkpt lat="41.958405" lon="0.025057">
        <ele>361.513</ele>
        <time>2020-08-23T11:21:06Z</time>
      </trkpt>
      <trkpt lat="41.958381" lon="0.024951">
        <ele>361.374</ele>
        <time>2020-08-23T11:21:08Z</time>
      </trkpt>
      <trkpt lat="41.958368" lon="0.024849">
        <ele>361.145</ele>
        <time>2020-08-23T11:21:10Z</time>
      </trkpt>
      <trkpt lat="41.958349" lon="0.024750">
        <ele>361.131</ele>
        <time>2020-08-23T11:21:12Z</time>
      </trkpt>
      <trkpt lat="41.958335" lon="0.024668">
        <ele>361.120</ele>
        <time>2020-08-23T11:21:14Z</time>
      </trkpt>
      <trkpt lat="41.958316" lon="0.024590">
        <ele>361.128</ele>
        <time>2020-08-23T11:21:16Z</time>
      </trkpt>
      <trkpt lat="41.958306" lon="0.024505">
        <ele>361.289</ele>
        <time>2020-08-23T11:21:18Z</time>
      </trkpt>
      <trkpt lat="41.958282" lon="0.024427">
        <ele>361.317</ele>
        <time>2020-08-23T11:21:20Z</time>
      </trkpt>
      <trkpt lat="41.958270" lon="0.024352">
        <ele>361.408</ele>
        <time>2020-08-23T11:21:22Z</time>
      </trkpt>
      <trkpt lat="41.958251" lon="0.024289">
        <ele>361.757</ele>
        <time>2020-08-23T11:21:24Z</time>
      </trkpt>
      <trkpt lat="41.958226" lon="0.024230">
        <ele>362.327</ele>
        <time>2020-08-23T11:21:27Z</time>
      </trkpt>
      <trkpt lat="41.958214" lon="0.024153">
        <ele>362.815</ele>
        <time>2020-08-23T11:21:30Z</time>
      </trkpt>
      <trkpt lat="41.958190" lon="0.024091">
        <ele>362.927</ele>
        <time>2020-08-23T11:21:31Z</time>
      </trkpt>
      <trkpt lat="41.958172" lon="0.024008">
        <ele>363.068</ele>
        <time>2020-08-23T11:21:33Z</time>
      </trkpt>
      <trkpt lat="41.958162" lon="0.023919">
        <ele>363.169</ele>
        <time>2020-08-23T11:21:35Z</time>
      </trkpt>
      <trkpt lat="41.958151" lon="0.023843">
        <ele>363.245</ele>
        <time>2020-08-23T11:21:37Z</time>
      </trkpt>
      <trkpt lat="41.958151" lon="0.023756">
        <ele>363.344</ele>
        <time>2020-08-23T11:21:39Z</time>
      </trkpt>
      <trkpt lat="41.958153" lon="0.023694">
        <ele>363.332</ele>
        <time>2020-08-23T11:21:41Z</time>
      </trkpt>
      <trkpt lat="41.958163" lon="0.023609">
        <ele>363.392</ele>
        <time>2020-08-23T11:21:43Z</time>
      </trkpt>
      <trkpt lat="41.958172" lon="0.023536">
        <ele>363.311</ele>
        <time>2020-08-23T11:21:45Z</time>
      </trkpt>
      <trkpt lat="41.958187" lon="0.023445">
        <ele>363.508</ele>
        <time>2020-08-23T11:21:47Z</time>
      </trkpt>
      <trkpt lat="41.958206" lon="0.023354">
        <ele>363.748</ele>
        <time>2020-08-23T11:21:49Z</time>
      </trkpt>
      <trkpt lat="41.958232" lon="0.023274">
        <ele>363.968</ele>
        <time>2020-08-23T11:21:51Z</time>
      </trkpt>
      <trkpt lat="41.958249" lon="0.023202">
        <ele>364.246</ele>
        <time>2020-08-23T11:21:53Z</time>
      </trkpt>
      <trkpt lat="41.958260" lon="0.023125">
        <ele>364.488</ele>
        <time>2020-08-23T11:21:55Z</time>
      </trkpt>
      <trkpt lat="41.958263" lon="0.023047">
        <ele>364.629</ele>
        <time>2020-08-23T11:21:57Z</time>
      </trkpt>
      <trkpt lat="41.958253" lon="0.022974">
        <ele>364.810</ele>
        <time>2020-08-23T11:21:59Z</time>
      </trkpt>
      <trkpt lat="41.958248" lon="0.022901">
        <ele>365.026</ele>
        <time>2020-08-23T11:22:01Z</time>
      </trkpt>
      <trkpt lat="41.958248" lon="0.022808">
        <ele>365.275</ele>
        <time>2020-08-23T11:22:04Z</time>
      </trkpt>
      <trkpt lat="41.958238" lon="0.022748">
        <ele>365.345</ele>
        <time>2020-08-23T11:22:06Z</time>
      </trkpt>
      <trkpt lat="41.958234" lon="0.022659">
        <ele>365.347</ele>
        <time>2020-08-23T11:22:09Z</time>
      </trkpt>
      <trkpt lat="41.958233" lon="0.022593">
        <ele>365.311</ele>
        <time>2020-08-23T11:22:11Z</time>
      </trkpt>
      <trkpt lat="41.958238" lon="0.022515">
        <ele>365.408</ele>
        <time>2020-08-23T11:22:13Z</time>
      </trkpt>
      <trkpt lat="41.958240" lon="0.022418">
        <ele>365.559</ele>
        <time>2020-08-23T11:22:15Z</time>
      </trkpt>
      <trkpt lat="41.958226" lon="0.022325">
        <ele>365.759</ele>
        <time>2020-08-23T11:22:17Z</time>
      </trkpt>
      <trkpt lat="41.958245" lon="0.022235">
        <ele>365.887</ele>
        <time>2020-08-23T11:22:19Z</time>
      </trkpt>
      <trkpt lat="41.958260" lon="0.022134">
        <ele>365.999</ele>
        <time>2020-08-23T11:22:21Z</time>
      </trkpt>
      <trkpt lat="41.958270" lon="0.022054">
        <ele>366.140</ele>
        <time>2020-08-23T11:22:23Z</time>
      </trkpt>
      <trkpt lat="41.958288" lon="0.021988">
        <ele>366.411</ele>
        <time>2020-08-23T11:22:25Z</time>
      </trkpt>
      <trkpt lat="41.958311" lon="0.021924">
        <ele>366.867</ele>
        <time>2020-08-23T11:22:27Z</time>
      </trkpt>
      <trkpt lat="41.958330" lon="0.021856">
        <ele>367.166</ele>
        <time>2020-08-23T11:22:29Z</time>
      </trkpt>
      <trkpt lat="41.958351" lon="0.021785">
        <ele>367.688</ele>
        <time>2020-08-23T11:22:32Z</time>
      </trkpt>
      <trkpt lat="41.958372" lon="0.021723">
        <ele>368.024</ele>
        <time>2020-08-23T11:22:34Z</time>
      </trkpt>
      <trkpt lat="41.958392" lon="0.021655">
        <ele>368.426</ele>
        <time>2020-08-23T11:22:36Z</time>
      </trkpt>
      <trkpt lat="41.958421" lon="0.021600">
        <ele>368.708</ele>
        <time>2020-08-23T11:22:38Z</time>
      </trkpt>
      <trkpt lat="41.958455" lon="0.021554">
        <ele>368.933</ele>
        <time>2020-08-23T11:22:40Z</time>
      </trkpt>
      <trkpt lat="41.958483" lon="0.021497">
        <ele>369.223</ele>
        <time>2020-08-23T11:22:43Z</time>
      </trkpt>
      <trkpt lat="41.958514" lon="0.021414">
        <ele>369.621</ele>
        <time>2020-08-23T11:22:46Z</time>
      </trkpt>
      <trkpt lat="41.958538" lon="0.021328">
        <ele>370.013</ele>
        <time>2020-08-23T11:22:49Z</time>
      </trkpt>
      <trkpt lat="41.958563" lon="0.021266">
        <ele>370.284</ele>
        <time>2020-08-23T11:22:51Z</time>
      </trkpt>
      <trkpt lat="41.958590" lon="0.021214">
        <ele>370.465</ele>
        <time>2020-08-23T11:22:53Z</time>
      </trkpt>
      <trkpt lat="41.958615" lon="0.021131">
        <ele>370.731</ele>
        <time>2020-08-23T11:22:56Z</time>
      </trkpt>
      <trkpt lat="41.958625" lon="0.021061">
        <ele>370.910</ele>
        <time>2020-08-23T11:22:58Z</time>
      </trkpt>
      <trkpt lat="41.958632" lon="0.020967">
        <ele>371.522</ele>
        <time>2020-08-23T11:23:01Z</time>
      </trkpt>
      <trkpt lat="41.958649" lon="0.020904">
        <ele>371.762</ele>
        <time>2020-08-23T11:23:03Z</time>
      </trkpt>
      <trkpt lat="41.958659" lon="0.020838">
        <ele>371.808</ele>
        <time>2020-08-23T11:23:05Z</time>
      </trkpt>
      <trkpt lat="41.958673" lon="0.020774">
        <ele>371.908</ele>
        <time>2020-08-23T11:23:07Z</time>
      </trkpt>
      <trkpt lat="41.958669" lon="0.020701">
        <ele>372.037</ele>
        <time>2020-08-23T11:23:09Z</time>
      </trkpt>
      <trkpt lat="41.958672" lon="0.020640">
        <ele>372.137</ele>
        <time>2020-08-23T11:23:11Z</time>
      </trkpt>
      <trkpt lat="41.958682" lon="0.020581">
        <ele>372.245</ele>
        <time>2020-08-23T11:23:13Z</time>
      </trkpt>
      <trkpt lat="41.958695" lon="0.020522">
        <ele>372.347</ele>
        <time>2020-08-23T11:23:15Z</time>
      </trkpt>
      <trkpt lat="41.958700" lon="0.020458">
        <ele>372.438</ele>
        <time>2020-08-23T11:23:17Z</time>
      </trkpt>
      <trkpt lat="41.958723" lon="0.020368">
        <ele>372.669</ele>
        <time>2020-08-23T11:23:20Z</time>
      </trkpt>
      <trkpt lat="41.958732" lon="0.020307">
        <ele>372.885</ele>
        <time>2020-08-23T11:23:22Z</time>
      </trkpt>
      <trkpt lat="41.958739" lon="0.020230">
        <ele>373.074</ele>
        <time>2020-08-23T11:23:24Z</time>
      </trkpt>
      <trkpt lat="41.958739" lon="0.020143">
        <ele>373.317</ele>
        <time>2020-08-23T11:23:27Z</time>
      </trkpt>
      <trkpt lat="41.958747" lon="0.020073">
        <ele>373.587</ele>
        <time>2020-08-23T11:23:29Z</time>
      </trkpt>
      <trkpt lat="41.958749" lon="0.020006">
        <ele>373.715</ele>
        <time>2020-08-23T11:23:31Z</time>
      </trkpt>
      <trkpt lat="41.958761" lon="0.019921">
        <ele>373.908</ele>
        <time>2020-08-23T11:23:34Z</time>
      </trkpt>
      <trkpt lat="41.958767" lon="0.019827">
        <ele>374.216</ele>
        <time>2020-08-23T11:23:37Z</time>
      </trkpt>
      <trkpt lat="41.958762" lon="0.019752">
        <ele>374.576</ele>
        <time>2020-08-23T11:23:40Z</time>
      </trkpt>
      <trkpt lat="41.958746" lon="0.019666">
        <ele>374.834</ele>
        <time>2020-08-23T11:23:43Z</time>
      </trkpt>
      <trkpt lat="41.958734" lon="0.019581">
        <ele>375.316</ele>
        <time>2020-08-23T11:23:46Z</time>
      </trkpt>
      <trkpt lat="41.958739" lon="0.019490">
        <ele>375.637</ele>
        <time>2020-08-23T11:23:49Z</time>
      </trkpt>
      <trkpt lat="41.958740" lon="0.019428">
        <ele>375.728</ele>
        <time>2020-08-23T11:23:51Z</time>
      </trkpt>
      <trkpt lat="41.958740" lon="0.019360">
        <ele>375.844</ele>
        <time>2020-08-23T11:23:53Z</time>
      </trkpt>
      <trkpt lat="41.958721" lon="0.019292">
        <ele>375.953</ele>
        <time>2020-08-23T11:23:55Z</time>
      </trkpt>
      <trkpt lat="41.958700" lon="0.019231">
        <ele>376.066</ele>
        <time>2020-08-23T11:23:57Z</time>
      </trkpt>
      <trkpt lat="41.958674" lon="0.019169">
        <ele>376.129</ele>
        <time>2020-08-23T11:23:59Z</time>
      </trkpt>
      <trkpt lat="41.958649" lon="0.019116">
        <ele>376.221</ele>
        <time>2020-08-23T11:24:01Z</time>
      </trkpt>
      <trkpt lat="41.958609" lon="0.019057">
        <ele>376.408</ele>
        <time>2020-08-23T11:24:04Z</time>
      </trkpt>
      <trkpt lat="41.958572" lon="0.018987">
        <ele>376.681</ele>
        <time>2020-08-23T11:24:07Z</time>
      </trkpt>
      <trkpt lat="41.958536" lon="0.018939">
        <ele>376.871</ele>
        <time>2020-08-23T11:24:09Z</time>
      </trkpt>
      <trkpt lat="41.958498" lon="0.018892">
        <ele>377.069</ele>
        <time>2020-08-23T11:24:11Z</time>
      </trkpt>
      <trkpt lat="41.958453" lon="0.018853">
        <ele>377.131</ele>
        <time>2020-08-23T11:24:13Z</time>
      </trkpt>
      <trkpt lat="41.958414" lon="0.018810">
        <ele>377.222</ele>
        <time>2020-08-23T11:24:15Z</time>
      </trkpt>
      <trkpt lat="41.958378" lon="0.018762">
        <ele>377.363</ele>
        <time>2020-08-23T11:24:17Z</time>
      </trkpt>
      <trkpt lat="41.958331" lon="0.018710">
        <ele>377.629</ele>
        <time>2020-08-23T11:24:20Z</time>
      </trkpt>
      <trkpt lat="41.958294" lon="0.018673">
        <ele>377.868</ele>
        <time>2020-08-23T11:24:22Z</time>
      </trkpt>
      <trkpt lat="41.958251" lon="0.018635">
        <ele>378.099</ele>
        <time>2020-08-23T11:24:24Z</time>
      </trkpt>
      <trkpt lat="41.958194" lon="0.018591">
        <ele>378.507</ele>
        <time>2020-08-23T11:24:27Z</time>
      </trkpt>
      <trkpt lat="41.958129" lon="0.018559">
        <ele>378.927</ele>
        <time>2020-08-23T11:24:30Z</time>
      </trkpt>
      <trkpt lat="41.958074" lon="0.018530">
        <ele>379.208</ele>
        <time>2020-08-23T11:24:32Z</time>
      </trkpt>
      <trkpt lat="41.958036" lon="0.018489">
        <ele>379.524</ele>
        <time>2020-08-23T11:24:34Z</time>
      </trkpt>
      <trkpt lat="41.957998" lon="0.018449">
        <ele>379.864</ele>
        <time>2020-08-23T11:24:36Z</time>
      </trkpt>
      <trkpt lat="41.957954" lon="0.018404">
        <ele>380.332</ele>
        <time>2020-08-23T11:24:39Z</time>
      </trkpt>
      <trkpt lat="41.957904" lon="0.018352">
        <ele>380.954</ele>
        <time>2020-08-23T11:24:42Z</time>
      </trkpt>
      <trkpt lat="41.957863" lon="0.018305">
        <ele>381.215</ele>
        <time>2020-08-23T11:24:44Z</time>
      </trkpt>
      <trkpt lat="41.957819" lon="0.018248">
        <ele>381.786</ele>
        <time>2020-08-23T11:24:47Z</time>
      </trkpt>
      <trkpt lat="41.957786" lon="0.018170">
        <ele>382.282</ele>
        <time>2020-08-23T11:24:50Z</time>
      </trkpt>
      <trkpt lat="41.957784" lon="0.018102">
        <ele>382.521</ele>
        <time>2020-08-23T11:24:52Z</time>
      </trkpt>
      <trkpt lat="41.957801" lon="0.018040">
        <ele>382.793</ele>
        <time>2020-08-23T11:24:54Z</time>
      </trkpt>
      <trkpt lat="41.957816" lon="0.017976">
        <ele>382.865</ele>
        <time>2020-08-23T11:24:56Z</time>
      </trkpt>
      <trkpt lat="41.957851" lon="0.017915">
        <ele>382.821</ele>
        <time>2020-08-23T11:24:58Z</time>
      </trkpt>
      <trkpt lat="41.957879" lon="0.017851">
        <ele>382.908</ele>
        <time>2020-08-23T11:25:00Z</time>
      </trkpt>
      <trkpt lat="41.957912" lon="0.017794">
        <ele>383.114</ele>
        <time>2020-08-23T11:25:02Z</time>
      </trkpt>
      <trkpt lat="41.957946" lon="0.017713">
        <ele>383.424</ele>
        <time>2020-08-23T11:25:05Z</time>
      </trkpt>
      <trkpt lat="41.957971" lon="0.017642">
        <ele>383.792</ele>
        <time>2020-08-23T11:25:08Z</time>
      </trkpt>
      <trkpt lat="41.957997" lon="0.017562">
        <ele>384.264</ele>
        <time>2020-08-23T11:25:11Z</time>
      </trkpt>
      <trkpt lat="41.958030" lon="0.017499">
        <ele>384.825</ele>
        <time>2020-08-23T11:25:14Z</time>
      </trkpt>
      <trkpt lat="41.958049" lon="0.017430">
        <ele>385.556</ele>
        <time>2020-08-23T11:25:17Z</time>
      </trkpt>
      <trkpt lat="41.958094" lon="0.017371">
        <ele>385.922</ele>
        <time>2020-08-23T11:25:20Z</time>
      </trkpt>
      <trkpt lat="41.958139" lon="0.017313">
        <ele>386.321</ele>
        <time>2020-08-23T11:25:23Z</time>
      </trkpt>
      <trkpt lat="41.958171" lon="0.017250">
        <ele>386.766</ele>
        <time>2020-08-23T11:25:26Z</time>
      </trkpt>
      <trkpt lat="41.958187" lon="0.017192">
        <ele>387.229</ele>
        <time>2020-08-23T11:25:29Z</time>
      </trkpt>
      <trkpt lat="41.958216" lon="0.017133">
        <ele>387.721</ele>
        <time>2020-08-23T11:25:32Z</time>
      </trkpt>
      <trkpt lat="41.958258" lon="0.017075">
        <ele>388.108</ele>
        <time>2020-08-23T11:25:35Z</time>
      </trkpt>
      <trkpt lat="41.958314" lon="0.017034">
        <ele>388.311</ele>
        <time>2020-08-23T11:25:38Z</time>
      </trkpt>
      <trkpt lat="41.958357" lon="0.017007">
        <ele>388.411</ele>
        <time>2020-08-23T11:25:40Z</time>
      </trkpt>
      <trkpt lat="41.958406" lon="0.016983">
        <ele>388.569</ele>
        <time>2020-08-23T11:25:42Z</time>
      </trkpt>
      <trkpt lat="41.958458" lon="0.016965">
        <ele>388.661</ele>
        <time>2020-08-23T11:25:44Z</time>
      </trkpt>
      <trkpt lat="41.958508" lon="0.016950">
        <ele>388.752</ele>
        <time>2020-08-23T11:25:46Z</time>
      </trkpt>
      <trkpt lat="41.958558" lon="0.016941">
        <ele>388.813</ele>
        <time>2020-08-23T11:25:48Z</time>
      </trkpt>
      <trkpt lat="41.958605" lon="0.016934">
        <ele>388.849</ele>
        <time>2020-08-23T11:25:50Z</time>
      </trkpt>
      <trkpt lat="41.958640" lon="0.016885">
        <ele>388.878</ele>
        <time>2020-08-23T11:25:53Z</time>
      </trkpt>
      <trkpt lat="41.958627" lon="0.016820">
        <ele>389.147</ele>
        <time>2020-08-23T11:25:56Z</time>
      </trkpt>
      <trkpt lat="41.958625" lon="0.016741">
        <ele>389.629</ele>
        <time>2020-08-23T11:25:59Z</time>
      </trkpt>
      <trkpt lat="41.958636" lon="0.016662">
        <ele>390.021</ele>
        <time>2020-08-23T11:26:02Z</time>
      </trkpt>
      <trkpt lat="41.958652" lon="0.016599">
        <ele>390.308</ele>
        <time>2020-08-23T11:26:04Z</time>
      </trkpt>
      <trkpt lat="41.958679" lon="0.016544">
        <ele>390.519</ele>
        <time>2020-08-23T11:26:06Z</time>
      </trkpt>
      <trkpt lat="41.958725" lon="0.016508">
        <ele>390.899</ele>
        <time>2020-08-23T11:26:09Z</time>
      </trkpt>
      <trkpt lat="41.958783" lon="0.016484">
        <ele>391.227</ele>
        <time>2020-08-23T11:26:12Z</time>
      </trkpt>
      <trkpt lat="41.958836" lon="0.016462">
        <ele>391.569</ele>
        <time>2020-08-23T11:26:15Z</time>
      </trkpt>
      <trkpt lat="41.958875" lon="0.016428">
        <ele>391.780</ele>
        <time>2020-08-23T11:26:18Z</time>
      </trkpt>
      <trkpt lat="41.958914" lon="0.016363">
        <ele>392.251</ele>
        <time>2020-08-23T11:26:21Z</time>
      </trkpt>
      <trkpt lat="41.958942" lon="0.016295">
        <ele>392.717</ele>
        <time>2020-08-23T11:26:24Z</time>
      </trkpt>
      <trkpt lat="41.958970" lon="0.016221">
        <ele>392.926</ele>
        <time>2020-08-23T11:26:27Z</time>
      </trkpt>
      <trkpt lat="41.958989" lon="0.016147">
        <ele>392.978</ele>
        <time>2020-08-23T11:26:30Z</time>
      </trkpt>
      <trkpt lat="41.959001" lon="0.016070">
        <ele>393.033</ele>
        <time>2020-08-23T11:26:33Z</time>
      </trkpt>
      <trkpt lat="41.959010" lon="0.015985">
        <ele>393.226</ele>
        <time>2020-08-23T11:26:36Z</time>
      </trkpt>
      <trkpt lat="41.959006" lon="0.015896">
        <ele>394.008</ele>
        <time>2020-08-23T11:26:40Z</time>
      </trkpt>
      <trkpt lat="41.959019" lon="0.015837">
        <ele>394.672</ele>
        <time>2020-08-23T11:26:42Z</time>
      </trkpt>
      <trkpt lat="41.959024" lon="0.015774">
        <ele>395.842</ele>
        <time>2020-08-23T11:26:45Z</time>
      </trkpt>
      <trkpt lat="41.959031" lon="0.015704">
        <ele>396.650</ele>
        <time>2020-08-23T11:26:48Z</time>
      </trkpt>
      <trkpt lat="41.959032" lon="0.015629">
        <ele>397.272</ele>
        <time>2020-08-23T11:26:51Z</time>
      </trkpt>
      <trkpt lat="41.959025" lon="0.015557">
        <ele>397.613</ele>
        <time>2020-08-23T11:26:54Z</time>
      </trkpt>
      <trkpt lat="41.959040" lon="0.015467">
        <ele>397.824</ele>
        <time>2020-08-23T11:26:57Z</time>
      </trkpt>
      <trkpt lat="41.959055" lon="0.015397">
        <ele>397.930</ele>
        <time>2020-08-23T11:27:00Z</time>
      </trkpt>
      <trkpt lat="41.959079" lon="0.015344">
        <ele>398.059</ele>
        <time>2020-08-23T11:27:02Z</time>
      </trkpt>
      <trkpt lat="41.959101" lon="0.015270">
        <ele>398.139</ele>
        <time>2020-08-23T11:27:04Z</time>
      </trkpt>
      <trkpt lat="41.959125" lon="0.015184">
        <ele>398.201</ele>
        <time>2020-08-23T11:27:06Z</time>
      </trkpt>
      <trkpt lat="41.959147" lon="0.015101">
        <ele>398.321</ele>
        <time>2020-08-23T11:27:08Z</time>
      </trkpt>
      <trkpt lat="41.959170" lon="0.015028">
        <ele>398.408</ele>
        <time>2020-08-23T11:27:10Z</time>
      </trkpt>
      <trkpt lat="41.959186" lon="0.014946">
        <ele>398.468</ele>
        <time>2020-08-23T11:27:12Z</time>
      </trkpt>
      <trkpt lat="41.959207" lon="0.014867">
        <ele>398.598</ele>
        <time>2020-08-23T11:27:14Z</time>
      </trkpt>
      <trkpt lat="41.959236" lon="0.014775">
        <ele>398.696</ele>
        <time>2020-08-23T11:27:16Z</time>
      </trkpt>
      <trkpt lat="41.959262" lon="0.014693">
        <ele>398.698</ele>
        <time>2020-08-23T11:27:18Z</time>
      </trkpt>
      <trkpt lat="41.959283" lon="0.014613">
        <ele>398.699</ele>
        <time>2020-08-23T11:27:20Z</time>
      </trkpt>
      <trkpt lat="41.959311" lon="0.014520">
        <ele>398.770</ele>
        <time>2020-08-23T11:27:22Z</time>
      </trkpt>
      <trkpt lat="41.959349" lon="0.014444">
        <ele>398.816</ele>
        <time>2020-08-23T11:27:24Z</time>
      </trkpt>
      <trkpt lat="41.959390" lon="0.014357">
        <ele>398.915</ele>
        <time>2020-08-23T11:27:26Z</time>
      </trkpt>
      <trkpt lat="41.959423" lon="0.014269">
        <ele>399.061</ele>
        <time>2020-08-23T11:27:28Z</time>
      </trkpt>
      <trkpt lat="41.959454" lon="0.014198">
        <ele>399.321</ele>
        <time>2020-08-23T11:27:30Z</time>
      </trkpt>
      <trkpt lat="41.959482" lon="0.014133">
        <ele>399.313</ele>
        <time>2020-08-23T11:27:32Z</time>
      </trkpt>
      <trkpt lat="41.959514" lon="0.014047">
        <ele>399.308</ele>
        <time>2020-08-23T11:27:34Z</time>
      </trkpt>
      <trkpt lat="41.959549" lon="0.013962">
        <ele>399.311</ele>
        <time>2020-08-23T11:27:36Z</time>
      </trkpt>
      <trkpt lat="41.959575" lon="0.013873">
        <ele>399.351</ele>
        <time>2020-08-23T11:27:38Z</time>
      </trkpt>
      <trkpt lat="41.959596" lon="0.013776">
        <ele>399.359</ele>
        <time>2020-08-23T11:27:40Z</time>
      </trkpt>
      <trkpt lat="41.959618" lon="0.013678">
        <ele>399.341</ele>
        <time>2020-08-23T11:27:42Z</time>
      </trkpt>
      <trkpt lat="41.959652" lon="0.013587">
        <ele>399.362</ele>
        <time>2020-08-23T11:27:44Z</time>
      </trkpt>
      <trkpt lat="41.959683" lon="0.013492">
        <ele>399.373</ele>
        <time>2020-08-23T11:27:46Z</time>
      </trkpt>
      <trkpt lat="41.959717" lon="0.013397">
        <ele>399.379</ele>
        <time>2020-08-23T11:27:48Z</time>
      </trkpt>
      <trkpt lat="41.959746" lon="0.013314">
        <ele>399.498</ele>
        <time>2020-08-23T11:27:50Z</time>
      </trkpt>
      <trkpt lat="41.959772" lon="0.013240">
        <ele>399.513</ele>
        <time>2020-08-23T11:27:52Z</time>
      </trkpt>
      <trkpt lat="41.959813" lon="0.013153">
        <ele>399.643</ele>
        <time>2020-08-23T11:27:54Z</time>
      </trkpt>
      <trkpt lat="41.959847" lon="0.013081">
        <ele>399.707</ele>
        <time>2020-08-23T11:27:56Z</time>
      </trkpt>
      <trkpt lat="41.959876" lon="0.013009">
        <ele>399.908</ele>
        <time>2020-08-23T11:27:58Z</time>
      </trkpt>
      <trkpt lat="41.959908" lon="0.012926">
        <ele>400.046</ele>
        <time>2020-08-23T11:28:00Z</time>
      </trkpt>
      <trkpt lat="41.959942" lon="0.012845">
        <ele>400.126</ele>
        <time>2020-08-23T11:28:02Z</time>
      </trkpt>
      <trkpt lat="41.959977" lon="0.012763">
        <ele>400.274</ele>
        <time>2020-08-23T11:28:04Z</time>
      </trkpt>
      <trkpt lat="41.960018" lon="0.012683">
        <ele>400.426</ele>
        <time>2020-08-23T11:28:06Z</time>
      </trkpt>
      <trkpt lat="41.960050" lon="0.012599">
        <ele>400.597</ele>
        <time>2020-08-23T11:28:08Z</time>
      </trkpt>
      <trkpt lat="41.960081" lon="0.012521">
        <ele>400.678</ele>
        <time>2020-08-23T11:28:10Z</time>
      </trkpt>
      <trkpt lat="41.960107" lon="0.012444">
        <ele>400.764</ele>
        <time>2020-08-23T11:28:12Z</time>
      </trkpt>
      <trkpt lat="41.960147" lon="0.012367">
        <ele>400.973</ele>
        <time>2020-08-23T11:28:14Z</time>
      </trkpt>
      <trkpt lat="41.960181" lon="0.012290">
        <ele>401.125</ele>
        <time>2020-08-23T11:28:16Z</time>
      </trkpt>
      <trkpt lat="41.960199" lon="0.012219">
        <ele>401.326</ele>
        <time>2020-08-23T11:28:18Z</time>
      </trkpt>
      <trkpt lat="41.960215" lon="0.012151">
        <ele>401.508</ele>
        <time>2020-08-23T11:28:20Z</time>
      </trkpt>
      <trkpt lat="41.960232" lon="0.012074">
        <ele>401.608</ele>
        <time>2020-08-23T11:28:22Z</time>
      </trkpt>
      <trkpt lat="41.960250" lon="0.011999">
        <ele>401.737</ele>
        <time>2020-08-23T11:28:24Z</time>
      </trkpt>
      <trkpt lat="41.960273" lon="0.011926">
        <ele>401.867</ele>
        <time>2020-08-23T11:28:26Z</time>
      </trkpt>
      <trkpt lat="41.960292" lon="0.011850">
        <ele>402.125</ele>
        <time>2020-08-23T11:28:28Z</time>
      </trkpt>
      <trkpt lat="41.960311" lon="0.011754">
        <ele>402.417</ele>
        <time>2020-08-23T11:28:30Z</time>
      </trkpt>
      <trkpt lat="41.960321" lon="0.011672">
        <ele>402.698</ele>
        <time>2020-08-23T11:28:32Z</time>
      </trkpt>
      <trkpt lat="41.960323" lon="0.011592">
        <ele>402.739</ele>
        <time>2020-08-23T11:28:34Z</time>
      </trkpt>
      <trkpt lat="41.960321" lon="0.011521">
        <ele>402.965</ele>
        <time>2020-08-23T11:28:36Z</time>
      </trkpt>
      <trkpt lat="41.960313" lon="0.011460">
        <ele>403.294</ele>
        <time>2020-08-23T11:28:38Z</time>
      </trkpt>
      <trkpt lat="41.960302" lon="0.011391">
        <ele>403.577</ele>
        <time>2020-08-23T11:28:40Z</time>
      </trkpt>
      <trkpt lat="41.960284" lon="0.011324">
        <ele>403.861</ele>
        <time>2020-08-23T11:28:42Z</time>
      </trkpt>
      <trkpt lat="41.960263" lon="0.011236">
        <ele>404.127</ele>
        <time>2020-08-23T11:28:44Z</time>
      </trkpt>
      <trkpt lat="41.960254" lon="0.011155">
        <ele>404.408</ele>
        <time>2020-08-23T11:28:46Z</time>
      </trkpt>
      <trkpt lat="41.960249" lon="0.011092">
        <ele>404.862</ele>
        <time>2020-08-23T11:28:48Z</time>
      </trkpt>
      <trkpt lat="41.960258" lon="0.011027">
        <ele>405.112</ele>
        <time>2020-08-23T11:28:50Z</time>
      </trkpt>
      <trkpt lat="41.960251" lon="0.010940">
        <ele>405.640</ele>
        <time>2020-08-23T11:28:53Z</time>
      </trkpt>
      <trkpt lat="41.960238" lon="0.010876">
        <ele>406.172</ele>
        <time>2020-08-23T11:28:56Z</time>
      </trkpt>
      <trkpt lat="41.960223" lon="0.010808">
        <ele>406.623</ele>
        <time>2020-08-23T11:28:59Z</time>
      </trkpt>
      <trkpt lat="41.960197" lon="0.010730">
        <ele>406.824</ele>
        <time>2020-08-23T11:29:02Z</time>
      </trkpt>
      <trkpt lat="41.960175" lon="0.010657">
        <ele>407.020</ele>
        <time>2020-08-23T11:29:04Z</time>
      </trkpt>
      <trkpt lat="41.960160" lon="0.010587">
        <ele>407.369</ele>
        <time>2020-08-23T11:29:07Z</time>
      </trkpt>
      <trkpt lat="41.960154" lon="0.010526">
        <ele>407.523</ele>
        <time>2020-08-23T11:29:09Z</time>
      </trkpt>
      <trkpt lat="41.960150" lon="0.010463">
        <ele>407.783</ele>
        <time>2020-08-23T11:29:11Z</time>
      </trkpt>
      <trkpt lat="41.960153" lon="0.010377">
        <ele>408.011</ele>
        <time>2020-08-23T11:29:14Z</time>
      </trkpt>
      <trkpt lat="41.960154" lon="0.010309">
        <ele>408.108</ele>
        <time>2020-08-23T11:29:16Z</time>
      </trkpt>
      <trkpt lat="41.960152" lon="0.010221">
        <ele>408.227</ele>
        <time>2020-08-23T11:29:19Z</time>
      </trkpt>
      <trkpt lat="41.960110" lon="0.010153">
        <ele>408.557</ele>
        <time>2020-08-23T11:29:22Z</time>
      </trkpt>
      <trkpt lat="41.960094" lon="0.010077">
        <ele>408.695</ele>
        <time>2020-08-23T11:29:25Z</time>
      </trkpt>
      <trkpt lat="41.960096" lon="0.010008">
        <ele>408.717</ele>
        <time>2020-08-23T11:29:33Z</time>
      </trkpt>
      <trkpt lat="41.960107" lon="0.009927">
        <ele>408.968</ele>
        <time>2020-08-23T11:32:38Z</time>
      </trkpt>
      <trkpt lat="41.960105" lon="0.009843">
        <ele>409.049</ele>
        <time>2020-08-23T11:32:41Z</time>
      </trkpt>
      <trkpt lat="41.960098" lon="0.009763">
        <ele>409.175</ele>
        <time>2020-08-23T11:32:43Z</time>
      </trkpt>
      <trkpt lat="41.960095" lon="0.009699">
        <ele>409.214</ele>
        <time>2020-08-23T11:32:45Z</time>
      </trkpt>
      <trkpt lat="41.960098" lon="0.009631">
        <ele>409.394</ele>
        <time>2020-08-23T11:32:47Z</time>
      </trkpt>
      <trkpt lat="41.960094" lon="0.009561">
        <ele>409.457</ele>
        <time>2020-08-23T11:32:49Z</time>
      </trkpt>
      <trkpt lat="41.960099" lon="0.009498">
        <ele>409.522</ele>
        <time>2020-08-23T11:32:51Z</time>
      </trkpt>
      <trkpt lat="41.960093" lon="0.009421">
        <ele>409.608</ele>
        <time>2020-08-23T11:32:53Z</time>
      </trkpt>
      <trkpt lat="41.960089" lon="0.009341">
        <ele>409.784</ele>
        <time>2020-08-23T11:32:55Z</time>
      </trkpt>
      <trkpt lat="41.960087" lon="0.009270">
        <ele>409.714</ele>
        <time>2020-08-23T11:32:57Z</time>
      </trkpt>
      <trkpt lat="41.960098" lon="0.009201">
        <ele>409.812</ele>
        <time>2020-08-23T11:32:59Z</time>
      </trkpt>
      <trkpt lat="41.960105" lon="0.009136">
        <ele>409.954</ele>
        <time>2020-08-23T11:33:01Z</time>
      </trkpt>
      <trkpt lat="41.960118" lon="0.009074">
        <ele>410.085</ele>
        <time>2020-08-23T11:33:03Z</time>
      </trkpt>
      <trkpt lat="41.960130" lon="0.009002">
        <ele>410.236</ele>
        <time>2020-08-23T11:33:05Z</time>
      </trkpt>
      <trkpt lat="41.960146" lon="0.008922">
        <ele>410.332</ele>
        <time>2020-08-23T11:33:07Z</time>
      </trkpt>
      <trkpt lat="41.960163" lon="0.008866">
        <ele>410.581</ele>
        <time>2020-08-23T11:33:09Z</time>
      </trkpt>
      <trkpt lat="41.960183" lon="0.008790">
        <ele>410.654</ele>
        <time>2020-08-23T11:33:12Z</time>
      </trkpt>
      <trkpt lat="41.960198" lon="0.008731">
        <ele>410.756</ele>
        <time>2020-08-23T11:33:14Z</time>
      </trkpt>
      <trkpt lat="41.960210" lon="0.008670">
        <ele>410.811</ele>
        <time>2020-08-23T11:33:16Z</time>
      </trkpt>
      <trkpt lat="41.960222" lon="0.008606">
        <ele>411.008</ele>
        <time>2020-08-23T11:33:18Z</time>
      </trkpt>
      <trkpt lat="41.960239" lon="0.008535">
        <ele>411.230</ele>
        <time>2020-08-23T11:33:20Z</time>
      </trkpt>
      <trkpt lat="41.960257" lon="0.008462">
        <ele>411.370</ele>
        <time>2020-08-23T11:33:22Z</time>
      </trkpt>
      <trkpt lat="41.960272" lon="0.008397">
        <ele>411.598</ele>
        <time>2020-08-23T11:33:24Z</time>
      </trkpt>
      <trkpt lat="41.960290" lon="0.008327">
        <ele>411.780</ele>
        <time>2020-08-23T11:33:26Z</time>
      </trkpt>
      <trkpt lat="41.960301" lon="0.008267">
        <ele>412.071</ele>
        <time>2020-08-23T11:33:28Z</time>
      </trkpt>
      <trkpt lat="41.960334" lon="0.008190">
        <ele>412.452</ele>
        <time>2020-08-23T11:33:31Z</time>
      </trkpt>
      <trkpt lat="41.960374" lon="0.008127">
        <ele>413.068</ele>
        <time>2020-08-23T11:33:34Z</time>
      </trkpt>
      <trkpt lat="41.960401" lon="0.008068">
        <ele>413.557</ele>
        <time>2020-08-23T11:33:37Z</time>
      </trkpt>
      <trkpt lat="41.960423" lon="0.007992">
        <ele>414.014</ele>
        <time>2020-08-23T11:33:40Z</time>
      </trkpt>
      <trkpt lat="41.960438" lon="0.007913">
        <ele>414.454</ele>
        <time>2020-08-23T11:33:43Z</time>
      </trkpt>
      <trkpt lat="41.960448" lon="0.007853">
        <ele>414.609</ele>
        <time>2020-08-23T11:33:45Z</time>
      </trkpt>
      <trkpt lat="41.960455" lon="0.007785">
        <ele>414.808</ele>
        <time>2020-08-23T11:33:47Z</time>
      </trkpt>
      <trkpt lat="41.960458" lon="0.007694">
        <ele>415.166</ele>
        <time>2020-08-23T11:33:50Z</time>
      </trkpt>
      <trkpt lat="41.960462" lon="0.007607">
        <ele>415.346</ele>
        <time>2020-08-23T11:33:53Z</time>
      </trkpt>
      <trkpt lat="41.960457" lon="0.007527">
        <ele>415.694</ele>
        <time>2020-08-23T11:33:56Z</time>
      </trkpt>
      <trkpt lat="41.960447" lon="0.007455">
        <ele>415.826</ele>
        <time>2020-08-23T11:33:59Z</time>
      </trkpt>
      <trkpt lat="41.960458" lon="0.007380">
        <ele>416.017</ele>
        <time>2020-08-23T11:34:02Z</time>
      </trkpt>
      <trkpt lat="41.960449" lon="0.007296">
        <ele>416.358</ele>
        <time>2020-08-23T11:34:05Z</time>
      </trkpt>
      <trkpt lat="41.960442" lon="0.007226">
        <ele>416.844</ele>
        <time>2020-08-23T11:34:08Z</time>
      </trkpt>
      <trkpt lat="41.960422" lon="0.007152">
        <ele>417.263</ele>
        <time>2020-08-23T11:34:11Z</time>
      </trkpt>
      <trkpt lat="41.960403" lon="0.007082">
        <ele>417.697</ele>
        <time>2020-08-23T11:34:14Z</time>
      </trkpt>
      <trkpt lat="41.960387" lon="0.007010">
        <ele>417.923</ele>
        <time>2020-08-23T11:34:17Z</time>
      </trkpt>
      <trkpt lat="41.960391" lon="0.006932">
        <ele>418.525</ele>
        <time>2020-08-23T11:34:21Z</time>
      </trkpt>
      <trkpt lat="41.960390" lon="0.006862">
        <ele>419.308</ele>
        <time>2020-08-23T11:34:25Z</time>
      </trkpt>
      <trkpt lat="41.960377" lon="0.006794">
        <ele>419.874</ele>
        <time>2020-08-23T11:34:28Z</time>
      </trkpt>
      <trkpt lat="41.960354" lon="0.006733">
        <ele>420.384</ele>
        <time>2020-08-23T11:34:31Z</time>
      </trkpt>
      <trkpt lat="41.960336" lon="0.006674">
        <ele>420.962</ele>
        <time>2020-08-23T11:34:34Z</time>
      </trkpt>
      <trkpt lat="41.960327" lon="0.006613">
        <ele>421.524</ele>
        <time>2020-08-23T11:34:37Z</time>
      </trkpt>
      <trkpt lat="41.960297" lon="0.006547">
        <ele>422.055</ele>
        <time>2020-08-23T11:34:40Z</time>
      </trkpt>
      <trkpt lat="41.960281" lon="0.006464">
        <ele>422.766</ele>
        <time>2020-08-23T11:34:43Z</time>
      </trkpt>
      <trkpt lat="41.960275" lon="0.006393">
        <ele>423.092</ele>
        <time>2020-08-23T11:34:45Z</time>
      </trkpt>
      <trkpt lat="41.960261" lon="0.006310">
        <ele>423.591</ele>
        <time>2020-08-23T11:34:49Z</time>
      </trkpt>
      <trkpt lat="41.960264" lon="0.006242">
        <ele>424.116</ele>
        <time>2020-08-23T11:34:52Z</time>
      </trkpt>
      <trkpt lat="41.960260" lon="0.006174">
        <ele>424.676</ele>
        <time>2020-08-23T11:34:54Z</time>
      </trkpt>
      <trkpt lat="41.960270" lon="0.006102">
        <ele>425.113</ele>
        <time>2020-08-23T11:34:57Z</time>
      </trkpt>
      <trkpt lat="41.960280" lon="0.006033">
        <ele>425.708</ele>
        <time>2020-08-23T11:35:00Z</time>
      </trkpt>
      <trkpt lat="41.960294" lon="0.005956">
        <ele>426.276</ele>
        <time>2020-08-23T11:35:03Z</time>
      </trkpt>
      <trkpt lat="41.960314" lon="0.005899">
        <ele>426.676</ele>
        <time>2020-08-23T11:35:06Z</time>
      </trkpt>
      <trkpt lat="41.960330" lon="0.005833">
        <ele>427.064</ele>
        <time>2020-08-23T11:35:09Z</time>
      </trkpt>
      <trkpt lat="41.960337" lon="0.005773">
        <ele>427.446</ele>
        <time>2020-08-23T11:35:12Z</time>
      </trkpt>
      <trkpt lat="41.960356" lon="0.005714">
        <ele>427.887</ele>
        <time>2020-08-23T11:35:15Z</time>
      </trkpt>
      <trkpt lat="41.960348" lon="0.005651">
        <ele>428.278</ele>
        <time>2020-08-23T11:35:18Z</time>
      </trkpt>
      <trkpt lat="41.960339" lon="0.005586">
        <ele>428.774</ele>
        <time>2020-08-23T11:35:22Z</time>
      </trkpt>
      <trkpt lat="41.960339" lon="0.005512">
        <ele>429.383</ele>
        <time>2020-08-23T11:35:26Z</time>
      </trkpt>
      <trkpt lat="41.960338" lon="0.005449">
        <ele>429.861</ele>
        <time>2020-08-23T11:35:29Z</time>
      </trkpt>
      <trkpt lat="41.960329" lon="0.005386">
        <ele>430.021</ele>
        <time>2020-08-23T11:35:32Z</time>
      </trkpt>
      <trkpt lat="41.960314" lon="0.005322">
        <ele>430.413</ele>
        <time>2020-08-23T11:35:36Z</time>
      </trkpt>
      <trkpt lat="41.960312" lon="0.005255">
        <ele>430.508</ele>
        <time>2020-08-23T11:35:39Z</time>
      </trkpt>
      <trkpt lat="41.960315" lon="0.005179">
        <ele>430.551</ele>
        <time>2020-08-23T11:35:41Z</time>
      </trkpt>
      <trkpt lat="41.960307" lon="0.005090">
        <ele>430.521</ele>
        <time>2020-08-23T11:35:43Z</time>
      </trkpt>
      <trkpt lat="41.960309" lon="0.004990">
        <ele>430.699</ele>
        <time>2020-08-23T11:35:45Z</time>
      </trkpt>
      <trkpt lat="41.960324" lon="0.004905">
        <ele>430.561</ele>
        <time>2020-08-23T11:35:47Z</time>
      </trkpt>
      <trkpt lat="41.960327" lon="0.004785">
        <ele>430.432</ele>
        <time>2020-08-23T11:35:49Z</time>
      </trkpt>
      <trkpt lat="41.960340" lon="0.004665">
        <ele>430.253</ele>
        <time>2020-08-23T11:35:51Z</time>
      </trkpt>
      <trkpt lat="41.960342" lon="0.004601">
        <ele>430.299</ele>
        <time>2020-08-23T11:35:52Z</time>
      </trkpt>
      <trkpt lat="41.960340" lon="0.004483">
        <ele>430.118</ele>
        <time>2020-08-23T11:35:54Z</time>
      </trkpt>
      <trkpt lat="41.960338" lon="0.004420">
        <ele>430.069</ele>
        <time>2020-08-23T11:35:55Z</time>
      </trkpt>
      <trkpt lat="41.960332" lon="0.004354">
        <ele>429.904</ele>
        <time>2020-08-23T11:35:56Z</time>
      </trkpt>
      <trkpt lat="41.960303" lon="0.004255">
        <ele>429.724</ele>
        <time>2020-08-23T11:35:58Z</time>
      </trkpt>
      <trkpt lat="41.960278" lon="0.004151">
        <ele>429.508</ele>
        <time>2020-08-23T11:36:00Z</time>
      </trkpt>
      <trkpt lat="41.960247" lon="0.004059">
        <ele>429.431</ele>
        <time>2020-08-23T11:36:02Z</time>
      </trkpt>
      <trkpt lat="41.960225" lon="0.003960">
        <ele>429.411</ele>
        <time>2020-08-23T11:36:04Z</time>
      </trkpt>
      <trkpt lat="41.960213" lon="0.003861">
        <ele>429.319</ele>
        <time>2020-08-23T11:36:06Z</time>
      </trkpt>
      <trkpt lat="41.960214" lon="0.003789">
        <ele>429.211</ele>
        <time>2020-08-23T11:36:08Z</time>
      </trkpt>
      <trkpt lat="41.960211" lon="0.003701">
        <ele>429.382</ele>
        <time>2020-08-23T11:36:11Z</time>
      </trkpt>
      <trkpt lat="41.960206" lon="0.003628">
        <ele>429.583</ele>
        <time>2020-08-23T11:36:14Z</time>
      </trkpt>
      <trkpt lat="41.960208" lon="0.003562">
        <ele>429.399</ele>
        <time>2020-08-23T11:36:43Z</time>
      </trkpt>
      <trkpt lat="41.960223" lon="0.003474">
        <ele>429.338</ele>
        <time>2020-08-23T11:36:46Z</time>
      </trkpt>
      <trkpt lat="41.960235" lon="0.003378">
        <ele>429.134</ele>
        <time>2020-08-23T11:36:48Z</time>
      </trkpt>
      <trkpt lat="41.960262" lon="0.003294">
        <ele>428.855</ele>
        <time>2020-08-23T11:36:50Z</time>
      </trkpt>
      <trkpt lat="41.960295" lon="0.003187">
        <ele>428.610</ele>
        <time>2020-08-23T11:36:52Z</time>
      </trkpt>
      <trkpt lat="41.960311" lon="0.003089">
        <ele>428.508</ele>
        <time>2020-08-23T11:36:54Z</time>
      </trkpt>
      <trkpt lat="41.960336" lon="0.002985">
        <ele>428.518</ele>
        <time>2020-08-23T11:36:56Z</time>
      </trkpt>
      <trkpt lat="41.960362" lon="0.002889">
        <ele>428.448</ele>
        <time>2020-08-23T11:36:58Z</time>
      </trkpt>
      <trkpt lat="41.960394" lon="0.002783">
        <ele>428.366</ele>
        <time>2020-08-23T11:37:00Z</time>
      </trkpt>
      <trkpt lat="41.960427" lon="0.002688">
        <ele>428.268</ele>
        <time>2020-08-23T11:37:02Z</time>
      </trkpt>
      <trkpt lat="41.960456" lon="0.002592">
        <ele>428.049</ele>
        <time>2020-08-23T11:37:04Z</time>
      </trkpt>
      <trkpt lat="41.960496" lon="0.002504">
        <ele>428.080</ele>
        <time>2020-08-23T11:37:06Z</time>
      </trkpt>
      <trkpt lat="41.960529" lon="0.002406">
        <ele>428.166</ele>
        <time>2020-08-23T11:37:08Z</time>
      </trkpt>
      <trkpt lat="41.960559" lon="0.002315">
        <ele>428.365</ele>
        <time>2020-08-23T11:37:10Z</time>
      </trkpt>
      <trkpt lat="41.960581" lon="0.002232">
        <ele>428.539</ele>
        <time>2020-08-23T11:37:12Z</time>
      </trkpt>
      <trkpt lat="41.960616" lon="0.002168">
        <ele>428.801</ele>
        <time>2020-08-23T11:37:14Z</time>
      </trkpt>
      <trkpt lat="41.960641" lon="0.002102">
        <ele>429.121</ele>
        <time>2020-08-23T11:37:16Z</time>
      </trkpt>
      <trkpt lat="41.960661" lon="0.002024">
        <ele>429.508</ele>
        <time>2020-08-23T11:37:18Z</time>
      </trkpt>
      <trkpt lat="41.960681" lon="0.001963">
        <ele>429.938</ele>
        <time>2020-08-23T11:37:20Z</time>
      </trkpt>
      <trkpt lat="41.960709" lon="0.001890">
        <ele>430.568</ele>
        <time>2020-08-23T11:37:23Z</time>
      </trkpt>
      <trkpt lat="41.960729" lon="0.001823">
        <ele>431.026</ele>
        <time>2020-08-23T11:37:26Z</time>
      </trkpt>
      <trkpt lat="41.960746" lon="0.001756">
        <ele>431.598</ele>
        <time>2020-08-23T11:37:29Z</time>
      </trkpt>
      <trkpt lat="41.960772" lon="0.001700">
        <ele>432.089</ele>
        <time>2020-08-23T11:37:32Z</time>
      </trkpt>
      <trkpt lat="41.960782" lon="0.001632">
        <ele>432.570</ele>
        <time>2020-08-23T11:37:35Z</time>
      </trkpt>
      <trkpt lat="41.960792" lon="0.001546">
        <ele>433.116</ele>
        <time>2020-08-23T11:37:38Z</time>
      </trkpt>
      <trkpt lat="41.960794" lon="0.001458">
        <ele>433.865</ele>
        <time>2020-08-23T11:37:41Z</time>
      </trkpt>
      <trkpt lat="41.960794" lon="0.001388">
        <ele>434.318</ele>
        <time>2020-08-23T11:37:43Z</time>
      </trkpt>
      <trkpt lat="41.960802" lon="0.001322">
        <ele>435.298</ele>
        <time>2020-08-23T11:37:46Z</time>
      </trkpt>
      <trkpt lat="41.960813" lon="0.001235">
        <ele>435.917</ele>
        <time>2020-08-23T11:37:49Z</time>
      </trkpt>
      <trkpt lat="41.960827" lon="0.001169">
        <ele>436.508</ele>
        <time>2020-08-23T11:37:52Z</time>
      </trkpt>
      <trkpt lat="41.960847" lon="0.001103">
        <ele>437.156</ele>
        <time>2020-08-23T11:37:55Z</time>
      </trkpt>
      <trkpt lat="41.960859" lon="0.001030">
        <ele>437.866</ele>
        <time>2020-08-23T11:37:58Z</time>
      </trkpt>
      <trkpt lat="41.960883" lon="0.000976">
        <ele>438.294</ele>
        <time>2020-08-23T11:38:00Z</time>
      </trkpt>
      <trkpt lat="41.960921" lon="0.000902">
        <ele>439.156</ele>
        <time>2020-08-23T11:38:04Z</time>
      </trkpt>
      <trkpt lat="41.960946" lon="0.000827">
        <ele>439.817</ele>
        <time>2020-08-23T11:38:07Z</time>
      </trkpt>
      <trkpt lat="41.960960" lon="0.000762">
        <ele>440.458</ele>
        <time>2020-08-23T11:38:10Z</time>
      </trkpt>
      <trkpt lat="41.960998" lon="0.000710">
        <ele>441.314</ele>
        <time>2020-08-23T11:38:14Z</time>
      </trkpt>
      <trkpt lat="41.961041" lon="0.000667">
        <ele>442.063</ele>
        <time>2020-08-23T11:38:17Z</time>
      </trkpt>
      <trkpt lat="41.961070" lon="0.000611">
        <ele>442.784</ele>
        <time>2020-08-23T11:38:20Z</time>
      </trkpt>
      <trkpt lat="41.961096" lon="0.000553">
        <ele>443.507</ele>
        <time>2020-08-23T11:38:24Z</time>
      </trkpt>
      <trkpt lat="41.961117" lon="0.000481">
        <ele>444.517</ele>
        <time>2020-08-23T11:38:28Z</time>
      </trkpt>
      <trkpt lat="41.961126" lon="0.000421">
        <ele>445.208</ele>
        <time>2020-08-23T11:38:31Z</time>
      </trkpt>
      <trkpt lat="41.961123" lon="0.000354">
        <ele>446.833</ele>
        <time>2020-08-23T11:38:36Z</time>
      </trkpt>
      <trkpt lat="41.961100" lon="0.000292">
        <ele>448.533</ele>
        <time>2020-08-23T11:38:42Z</time>
      </trkpt>
      <trkpt lat="41.961069" lon="0.000239">
        <ele>449.471</ele>
        <time>2020-08-23T11:38:46Z</time>
      </trkpt>
      <trkpt lat="41.961036" lon="0.000177">
        <ele>450.023</ele>
        <time>2020-08-23T11:38:49Z</time>
      </trkpt>
      <trkpt lat="41.960993" lon="0.000124">
        <ele>450.594</ele>
        <time>2020-08-23T11:38:52Z</time>
      </trkpt>
      <trkpt lat="41.960946" lon="0.000084">
        <ele>451.025</ele>
        <time>2020-08-23T11:38:55Z</time>
      </trkpt>
      <trkpt lat="41.960905" lon="0.000040">
        <ele>451.511</ele>
        <time>2020-08-23T11:38:58Z</time>
      </trkpt>
      <trkpt lat="41.960867" lon="-0.000008">
        <ele>452.290</ele>
        <time>2020-08-23T11:39:02Z</time>
      </trkpt>
      <trkpt lat="41.960833" lon="-0.000059">
        <ele>452.667</ele>
        <time>2020-08-23T11:39:05Z</time>
      </trkpt>
      <trkpt lat="41.960808" lon="-0.000111">
        <ele>453.081</ele>
        <time>2020-08-23T11:39:07Z</time>
      </trkpt>
      <trkpt lat="41.960788" lon="-0.000185">
        <ele>453.919</ele>
        <time>2020-08-23T11:39:11Z</time>
      </trkpt>
      <trkpt lat="41.960766" lon="-0.000249">
        <ele>454.808</ele>
        <time>2020-08-23T11:39:15Z</time>
      </trkpt>
      <trkpt lat="41.960734" lon="-0.000307">
        <ele>455.551</ele>
        <time>2020-08-23T11:39:19Z</time>
      </trkpt>
      <trkpt lat="41.960692" lon="-0.000358">
        <ele>456.181</ele>
        <time>2020-08-23T11:39:23Z</time>
      </trkpt>
      <trkpt lat="41.960665" lon="-0.000411">
        <ele>456.669</ele>
        <time>2020-08-23T11:39:26Z</time>
      </trkpt>
      <trkpt lat="41.960640" lon="-0.000462">
        <ele>457.351</ele>
        <time>2020-08-23T11:39:29Z</time>
      </trkpt>
      <trkpt lat="41.960615" lon="-0.000515">
        <ele>458.062</ele>
        <time>2020-08-23T11:39:32Z</time>
      </trkpt>
      <trkpt lat="41.960596" lon="-0.000587">
        <ele>458.513</ele>
        <time>2020-08-23T11:39:35Z</time>
      </trkpt>
      <trkpt lat="41.960583" lon="-0.000645">
        <ele>459.239</ele>
        <time>2020-08-23T11:39:39Z</time>
      </trkpt>
      <trkpt lat="41.960549" lon="-0.000706">
        <ele>459.838</ele>
        <time>2020-08-23T11:39:43Z</time>
      </trkpt>
      <trkpt lat="41.960521" lon="-0.000767">
        <ele>460.447</ele>
        <time>2020-08-23T11:39:47Z</time>
      </trkpt>
      <trkpt lat="41.960497" lon="-0.000818">
        <ele>460.829</ele>
        <time>2020-08-23T11:39:50Z</time>
      </trkpt>
      <trkpt lat="41.960458" lon="-0.000861">
        <ele>461.621</ele>
        <time>2020-08-23T11:39:55Z</time>
      </trkpt>
      <trkpt lat="41.960417" lon="-0.000907">
        <ele>462.108</ele>
        <time>2020-08-23T11:39:58Z</time>
      </trkpt>
      <trkpt lat="41.960381" lon="-0.000950">
        <ele>462.919</ele>
        <time>2020-08-23T11:40:01Z</time>
      </trkpt>
      <trkpt lat="41.960356" lon="-0.001016">
        <ele>463.519</ele>
        <time>2020-08-23T11:40:04Z</time>
      </trkpt>
      <trkpt lat="41.960356" lon="-0.001090">
        <ele>464.317</ele>
        <time>2020-08-23T11:40:08Z</time>
      </trkpt>
      <trkpt lat="41.960326" lon="-0.001137">
        <ele>465.359</ele>
        <time>2020-08-23T11:40:12Z</time>
      </trkpt>
      <trkpt lat="41.960283" lon="-0.001189">
        <ele>466.680</ele>
        <time>2020-08-23T11:40:18Z</time>
      </trkpt>
      <trkpt lat="41.960233" lon="-0.001231">
        <ele>467.311</ele>
        <time>2020-08-23T11:40:21Z</time>
      </trkpt>
      <trkpt lat="41.960192" lon="-0.001295">
        <ele>468.077</ele>
        <time>2020-08-23T11:40:24Z</time>
      </trkpt>
      <trkpt lat="41.960150" lon="-0.001331">
        <ele>468.636</ele>
        <time>2020-08-23T11:40:27Z</time>
      </trkpt>
      <trkpt lat="41.960105" lon="-0.001369">
        <ele>469.274</ele>
        <time>2020-08-23T11:40:30Z</time>
      </trkpt>
      <trkpt lat="41.960054" lon="-0.001402">
        <ele>469.956</ele>
        <time>2020-08-23T11:40:34Z</time>
      </trkpt>
      <trkpt lat="41.959994" lon="-0.001413">
        <ele>470.421</ele>
        <time>2020-08-23T11:40:38Z</time>
      </trkpt>
      <trkpt lat="41.959946" lon="-0.001409">
        <ele>470.608</ele>
        <time>2020-08-23T11:40:40Z</time>
      </trkpt>
      <trkpt lat="41.959887" lon="-0.001401">
        <ele>471.042</ele>
        <time>2020-08-23T11:40:43Z</time>
      </trkpt>
      <trkpt lat="41.959822" lon="-0.001388">
        <ele>471.512</ele>
        <time>2020-08-23T11:40:46Z</time>
      </trkpt>
      <trkpt lat="41.959777" lon="-0.001393">
        <ele>471.760</ele>
        <time>2020-08-23T11:40:48Z</time>
      </trkpt>
      <trkpt lat="41.959714" lon="-0.001382">
        <ele>472.032</ele>
        <time>2020-08-23T11:40:51Z</time>
      </trkpt>
      <trkpt lat="41.959668" lon="-0.001369">
        <ele>472.243</ele>
        <time>2020-08-23T11:40:53Z</time>
      </trkpt>
      <trkpt lat="41.959609" lon="-0.001350">
        <ele>472.594</ele>
        <time>2020-08-23T11:40:56Z</time>
      </trkpt>
      <trkpt lat="41.959563" lon="-0.001338">
        <ele>472.780</ele>
        <time>2020-08-23T11:40:59Z</time>
      </trkpt>
      <trkpt lat="41.959516" lon="-0.001341">
        <ele>473.089</ele>
        <time>2020-08-23T11:41:02Z</time>
      </trkpt>
      <trkpt lat="41.959471" lon="-0.001350">
        <ele>473.116</ele>
        <time>2020-08-23T11:41:04Z</time>
      </trkpt>
      <trkpt lat="41.959415" lon="-0.001372">
        <ele>473.076</ele>
        <time>2020-08-23T11:41:06Z</time>
      </trkpt>
      <trkpt lat="41.959348" lon="-0.001400">
        <ele>472.813</ele>
        <time>2020-08-23T11:41:08Z</time>
      </trkpt>
      <trkpt lat="41.959273" lon="-0.001466">
        <ele>472.808</ele>
        <time>2020-08-23T11:41:10Z</time>
      </trkpt>
      <trkpt lat="41.959232" lon="-0.001511">
        <ele>472.896</ele>
        <time>2020-08-23T11:41:11Z</time>
      </trkpt>
      <trkpt lat="41.959191" lon="-0.001561">
        <ele>472.526</ele>
        <time>2020-08-23T11:41:12Z</time>
      </trkpt>
      <trkpt lat="41.959150" lon="-0.001606">
        <ele>472.144</ele>
        <time>2020-08-23T11:41:13Z</time>
      </trkpt>
      <trkpt lat="41.959097" lon="-0.001690">
        <ele>471.176</ele>
        <time>2020-08-23T11:41:15Z</time>
      </trkpt>
      <trkpt lat="41.959060" lon="-0.001776">
        <ele>470.817</ele>
        <time>2020-08-23T11:41:17Z</time>
      </trkpt>
      <trkpt lat="41.959031" lon="-0.001843">
        <ele>471.338</ele>
        <time>2020-08-23T11:41:19Z</time>
      </trkpt>
      <trkpt lat="41.959008" lon="-0.001916">
        <ele>471.924</ele>
        <time>2020-08-23T11:41:22Z</time>
      </trkpt>
      <trkpt lat="41.959002" lon="-0.001982">
        <ele>472.583</ele>
        <time>2020-08-23T11:41:25Z</time>
      </trkpt>
      <trkpt lat="41.959013" lon="-0.002049">
        <ele>473.369</ele>
        <time>2020-08-23T11:41:28Z</time>
      </trkpt>
      <trkpt lat="41.959040" lon="-0.002149">
        <ele>474.204</ele>
        <time>2020-08-23T11:41:31Z</time>
      </trkpt>
      <trkpt lat="41.959076" lon="-0.002220">
        <ele>474.824</ele>
        <time>2020-08-23T11:41:34Z</time>
      </trkpt>
      <trkpt lat="41.959129" lon="-0.002237">
        <ele>476.108</ele>
        <time>2020-08-23T11:41:38Z</time>
      </trkpt>
      <trkpt lat="41.959165" lon="-0.002282">
        <ele>477.581</ele>
        <time>2020-08-23T11:41:43Z</time>
      </trkpt>
      <trkpt lat="41.959218" lon="-0.002289">
        <ele>478.131</ele>
        <time>2020-08-23T11:41:56Z</time>
      </trkpt>
      <trkpt lat="41.959246" lon="-0.002343">
        <ele>477.839</ele>
        <time>2020-08-23T11:42:06Z</time>
      </trkpt>
      <trkpt lat="41.959239" lon="-0.002432">
        <ele>477.761</ele>
        <time>2020-08-23T11:42:08Z</time>
      </trkpt>
      <trkpt lat="41.959239" lon="-0.002544">
        <ele>477.462</ele>
        <time>2020-08-23T11:42:10Z</time>
      </trkpt>
      <trkpt lat="41.959245" lon="-0.002611">
        <ele>477.263</ele>
        <time>2020-08-23T11:42:11Z</time>
      </trkpt>
      <trkpt lat="41.959249" lon="-0.002682">
        <ele>477.059</ele>
        <time>2020-08-23T11:42:12Z</time>
      </trkpt>
      <trkpt lat="41.959241" lon="-0.002751">
        <ele>476.728</ele>
        <time>2020-08-23T11:42:13Z</time>
      </trkpt>
      <trkpt lat="41.959217" lon="-0.002813">
        <ele>476.553</ele>
        <time>2020-08-23T11:42:14Z</time>
      </trkpt>
      <trkpt lat="41.959183" lon="-0.002869">
        <ele>476.204</ele>
        <time>2020-08-23T11:42:15Z</time>
      </trkpt>
      <trkpt lat="41.959138" lon="-0.002923">
        <ele>476.014</ele>
        <time>2020-08-23T11:42:16Z</time>
      </trkpt>
      <trkpt lat="41.959082" lon="-0.002972">
        <ele>475.808</ele>
        <time>2020-08-23T11:42:17Z</time>
      </trkpt>
      <trkpt lat="41.959024" lon="-0.003035">
        <ele>475.450</ele>
        <time>2020-08-23T11:42:18Z</time>
      </trkpt>
      <trkpt lat="41.958966" lon="-0.003095">
        <ele>474.980</ele>
        <time>2020-08-23T11:42:19Z</time>
      </trkpt>
      <trkpt lat="41.958900" lon="-0.003165">
        <ele>474.348</ele>
        <time>2020-08-23T11:42:20Z</time>
      </trkpt>
      <trkpt lat="41.958835" lon="-0.003233">
        <ele>473.640</ele>
        <time>2020-08-23T11:42:21Z</time>
      </trkpt>
      <trkpt lat="41.958771" lon="-0.003307">
        <ele>472.851</ele>
        <time>2020-08-23T11:42:22Z</time>
      </trkpt>
      <trkpt lat="41.958716" lon="-0.003390">
        <ele>472.172</ele>
        <time>2020-08-23T11:42:23Z</time>
      </trkpt>
      <trkpt lat="41.958670" lon="-0.003470">
        <ele>471.518</ele>
        <time>2020-08-23T11:42:24Z</time>
      </trkpt>
      <trkpt lat="41.958630" lon="-0.003536">
        <ele>470.927</ele>
        <time>2020-08-23T11:42:25Z</time>
      </trkpt>
      <trkpt lat="41.958605" lon="-0.003588">
        <ele>470.295</ele>
        <time>2020-08-23T11:42:26Z</time>
      </trkpt>
      <trkpt lat="41.958550" lon="-0.003689">
        <ele>467.949</ele>
        <time>2020-08-23T11:42:28Z</time>
      </trkpt>
      <trkpt lat="41.958517" lon="-0.003747">
        <ele>467.223</ele>
        <time>2020-08-23T11:42:29Z</time>
      </trkpt>
      <trkpt lat="41.958492" lon="-0.003798">
        <ele>466.708</ele>
        <time>2020-08-23T11:42:30Z</time>
      </trkpt>
      <trkpt lat="41.958455" lon="-0.003899">
        <ele>465.994</ele>
        <time>2020-08-23T11:42:32Z</time>
      </trkpt>
      <trkpt lat="41.958431" lon="-0.003966">
        <ele>465.214</ele>
        <time>2020-08-23T11:42:34Z</time>
      </trkpt>
      <trkpt lat="41.958425" lon="-0.004047">
        <ele>464.622</ele>
        <time>2020-08-23T11:42:36Z</time>
      </trkpt>
      <trkpt lat="41.958433" lon="-0.004114">
        <ele>464.444</ele>
        <time>2020-08-23T11:42:38Z</time>
      </trkpt>
      <trkpt lat="41.958446" lon="-0.004187">
        <ele>464.445</ele>
        <time>2020-08-23T11:42:40Z</time>
      </trkpt>
      <trkpt lat="41.958444" lon="-0.004261">
        <ele>464.566</ele>
        <time>2020-08-23T11:42:42Z</time>
      </trkpt>
      <trkpt lat="41.958465" lon="-0.004319">
        <ele>464.612</ele>
        <time>2020-08-23T11:42:44Z</time>
      </trkpt>
      <trkpt lat="41.958474" lon="-0.004380">
        <ele>464.741</ele>
        <time>2020-08-23T11:42:46Z</time>
      </trkpt>
      <trkpt lat="41.958503" lon="-0.004432">
        <ele>464.837</ele>
        <time>2020-08-23T11:42:48Z</time>
      </trkpt>
      <trkpt lat="41.958544" lon="-0.004472">
        <ele>465.249</ele>
        <time>2020-08-23T11:42:50Z</time>
      </trkpt>
      <trkpt lat="41.958582" lon="-0.004514">
        <ele>465.613</ele>
        <time>2020-08-23T11:42:52Z</time>
      </trkpt>
      <trkpt lat="41.958627" lon="-0.004579">
        <ele>466.008</ele>
        <time>2020-08-23T11:42:55Z</time>
      </trkpt>
      <trkpt lat="41.958680" lon="-0.004633">
        <ele>466.478</ele>
        <time>2020-08-23T11:42:58Z</time>
      </trkpt>
      <trkpt lat="41.958723" lon="-0.004662">
        <ele>466.558</ele>
        <time>2020-08-23T11:43:00Z</time>
      </trkpt>
      <trkpt lat="41.958772" lon="-0.004673">
        <ele>466.776</ele>
        <time>2020-08-23T11:43:02Z</time>
      </trkpt>
      <trkpt lat="41.958837" lon="-0.004695">
        <ele>466.848</ele>
        <time>2020-08-23T11:43:05Z</time>
      </trkpt>
      <trkpt lat="41.958886" lon="-0.004706">
        <ele>466.849</ele>
        <time>2020-08-23T11:43:07Z</time>
      </trkpt>
      <trkpt lat="41.958948" lon="-0.004718">
        <ele>467.120</ele>
        <time>2020-08-23T11:43:10Z</time>
      </trkpt>
      <trkpt lat="41.959016" lon="-0.004722">
        <ele>467.526</ele>
        <time>2020-08-23T11:43:13Z</time>
      </trkpt>
      <trkpt lat="41.959074" lon="-0.004743">
        <ele>468.155</ele>
        <time>2020-08-23T11:43:16Z</time>
      </trkpt>
      <trkpt lat="41.959135" lon="-0.004757">
        <ele>468.412</ele>
        <time>2020-08-23T11:43:19Z</time>
      </trkpt>
      <trkpt lat="41.959200" lon="-0.004773">
        <ele>468.832</ele>
        <time>2020-08-23T11:43:22Z</time>
      </trkpt>
      <trkpt lat="41.959243" lon="-0.004803">
        <ele>469.005</ele>
        <time>2020-08-23T11:43:24Z</time>
      </trkpt>
      <trkpt lat="41.959309" lon="-0.004845">
        <ele>469.308</ele>
        <time>2020-08-23T11:43:27Z</time>
      </trkpt>
      <trkpt lat="41.959356" lon="-0.004880">
        <ele>469.446</ele>
        <time>2020-08-23T11:43:29Z</time>
      </trkpt>
      <trkpt lat="41.959402" lon="-0.004894">
        <ele>469.656</ele>
        <time>2020-08-23T11:43:31Z</time>
      </trkpt>
      <trkpt lat="41.959449" lon="-0.004899">
        <ele>469.974</ele>
        <time>2020-08-23T11:43:33Z</time>
      </trkpt>
      <trkpt lat="41.959493" lon="-0.004912">
        <ele>470.256</ele>
        <time>2020-08-23T11:43:35Z</time>
      </trkpt>
      <trkpt lat="41.959546" lon="-0.004943">
        <ele>470.617</ele>
        <time>2020-08-23T11:43:38Z</time>
      </trkpt>
      <trkpt lat="41.959602" lon="-0.004991">
        <ele>470.978</ele>
        <time>2020-08-23T11:43:41Z</time>
      </trkpt>
      <trkpt lat="41.959649" lon="-0.005010">
        <ele>471.094</ele>
        <time>2020-08-23T11:43:43Z</time>
      </trkpt>
      <trkpt lat="41.959712" lon="-0.005028">
        <ele>471.323</ele>
        <time>2020-08-23T11:43:46Z</time>
      </trkpt>
      <trkpt lat="41.959767" lon="-0.005054">
        <ele>471.745</ele>
        <time>2020-08-23T11:43:49Z</time>
      </trkpt>
      <trkpt lat="41.959814" lon="-0.005082">
        <ele>472.147</ele>
        <time>2020-08-23T11:43:52Z</time>
      </trkpt>
      <trkpt lat="41.959869" lon="-0.005053">
        <ele>472.411</ele>
        <time>2020-08-23T11:43:54Z</time>
      </trkpt>
      <trkpt lat="41.959916" lon="-0.005050">
        <ele>472.608</ele>
        <time>2020-08-23T11:43:56Z</time>
      </trkpt>
      <trkpt lat="41.959983" lon="-0.005053">
        <ele>473.039</ele>
        <time>2020-08-23T11:43:59Z</time>
      </trkpt>
      <trkpt lat="41.960030" lon="-0.005089">
        <ele>473.239</ele>
        <time>2020-08-23T11:44:01Z</time>
      </trkpt>
      <trkpt lat="41.960070" lon="-0.005125">
        <ele>473.587</ele>
        <time>2020-08-23T11:44:03Z</time>
      </trkpt>
      <trkpt lat="41.960109" lon="-0.005168">
        <ele>473.889</ele>
        <time>2020-08-23T11:44:05Z</time>
      </trkpt>
      <trkpt lat="41.960145" lon="-0.005206">
        <ele>474.010</ele>
        <time>2020-08-23T11:44:07Z</time>
      </trkpt>
      <trkpt lat="41.960197" lon="-0.005265">
        <ele>474.371</ele>
        <time>2020-08-23T11:44:10Z</time>
      </trkpt>
      <trkpt lat="41.960241" lon="-0.005305">
        <ele>474.357</ele>
        <time>2020-08-23T11:44:12Z</time>
      </trkpt>
      <trkpt lat="41.960315" lon="-0.005343">
        <ele>474.216</ele>
        <time>2020-08-23T11:44:14Z</time>
      </trkpt>
      <trkpt lat="41.960392" lon="-0.005368">
        <ele>474.059</ele>
        <time>2020-08-23T11:44:16Z</time>
      </trkpt>
      <trkpt lat="41.960464" lon="-0.005380">
        <ele>473.803</ele>
        <time>2020-08-23T11:44:18Z</time>
      </trkpt>
      <trkpt lat="41.960533" lon="-0.005395">
        <ele>473.523</ele>
        <time>2020-08-23T11:44:20Z</time>
      </trkpt>
      <trkpt lat="41.960597" lon="-0.005396">
        <ele>473.308</ele>
        <time>2020-08-23T11:44:22Z</time>
      </trkpt>
      <trkpt lat="41.960683" lon="-0.005394">
        <ele>473.270</ele>
        <time>2020-08-23T11:44:24Z</time>
      </trkpt>
      <trkpt lat="41.960732" lon="-0.005386">
        <ele>473.280</ele>
        <time>2020-08-23T11:44:25Z</time>
      </trkpt>
      <trkpt lat="41.960781" lon="-0.005369">
        <ele>473.258</ele>
        <time>2020-08-23T11:44:26Z</time>
      </trkpt>
      <trkpt lat="41.960826" lon="-0.005375">
        <ele>473.220</ele>
        <time>2020-08-23T11:44:28Z</time>
      </trkpt>
      <trkpt lat="41.960891" lon="-0.005387">
        <ele>473.281</ele>
        <time>2020-08-23T11:44:30Z</time>
      </trkpt>
      <trkpt lat="41.960962" lon="-0.005419">
        <ele>473.292</ele>
        <time>2020-08-23T11:44:32Z</time>
      </trkpt>
      <trkpt lat="41.961025" lon="-0.005459">
        <ele>473.188</ele>
        <time>2020-08-23T11:44:34Z</time>
      </trkpt>
      <trkpt lat="41.961083" lon="-0.005503">
        <ele>472.877</ele>
        <time>2020-08-23T11:44:36Z</time>
      </trkpt>
      <trkpt lat="41.961112" lon="-0.005568">
        <ele>472.397</ele>
        <time>2020-08-23T11:44:38Z</time>
      </trkpt>
      <trkpt lat="41.961131" lon="-0.005628">
        <ele>471.823</ele>
        <time>2020-08-23T11:44:40Z</time>
      </trkpt>
      <trkpt lat="41.961150" lon="-0.005724">
        <ele>471.225</ele>
        <time>2020-08-23T11:44:42Z</time>
      </trkpt>
      <trkpt lat="41.961163" lon="-0.005786">
        <ele>470.908</ele>
        <time>2020-08-23T11:44:43Z</time>
      </trkpt>
      <trkpt lat="41.961175" lon="-0.005850">
        <ele>470.634</ele>
        <time>2020-08-23T11:44:44Z</time>
      </trkpt>
      <trkpt lat="41.961183" lon="-0.005912">
        <ele>470.464</ele>
        <time>2020-08-23T11:44:45Z</time>
      </trkpt>
      <trkpt lat="41.961185" lon="-0.005990">
        <ele>470.032</ele>
        <time>2020-08-23T11:44:47Z</time>
      </trkpt>
      <trkpt lat="41.961174" lon="-0.006051">
        <ele>468.434</ele>
        <time>2020-08-23T11:44:52Z</time>
      </trkpt>
      <trkpt lat="41.961210" lon="-0.006095">
        <ele>468.475</ele>
        <time>2020-08-23T11:45:07Z</time>
      </trkpt>
      <trkpt lat="41.961229" lon="-0.006162">
        <ele>468.066</ele>
        <time>2020-08-23T11:45:09Z</time>
      </trkpt>
      <trkpt lat="41.961217" lon="-0.006232">
        <ele>467.572</ele>
        <time>2020-08-23T11:45:11Z</time>
      </trkpt>
      <trkpt lat="41.961219" lon="-0.006315">
        <ele>466.841</ele>
        <time>2020-08-23T11:45:13Z</time>
      </trkpt>
      <trkpt lat="41.961225" lon="-0.006404">
        <ele>466.068</ele>
        <time>2020-08-23T11:45:15Z</time>
      </trkpt>
      <trkpt lat="41.961234" lon="-0.006514">
        <ele>465.342</ele>
        <time>2020-08-23T11:45:17Z</time>
      </trkpt>
      <trkpt lat="41.961249" lon="-0.006595">
        <ele>464.826</ele>
        <time>2020-08-23T11:45:19Z</time>
      </trkpt>
      <trkpt lat="41.961248" lon="-0.006675">
        <ele>464.308</ele>
        <time>2020-08-23T11:45:21Z</time>
      </trkpt>
      <trkpt lat="41.961274" lon="-0.006773">
        <ele>463.971</ele>
        <time>2020-08-23T11:45:23Z</time>
      </trkpt>
      <trkpt lat="41.961307" lon="-0.006887">
        <ele>463.261</ele>
        <time>2020-08-23T11:45:25Z</time>
      </trkpt>
      <trkpt lat="41.961323" lon="-0.006992">
        <ele>462.639</ele>
        <time>2020-08-23T11:45:27Z</time>
      </trkpt>
      <trkpt lat="41.961334" lon="-0.007065">
        <ele>462.021</ele>
        <time>2020-08-23T11:45:29Z</time>
      </trkpt>
      <trkpt lat="41.961356" lon="-0.007150">
        <ele>461.542</ele>
        <time>2020-08-23T11:45:31Z</time>
      </trkpt>
      <trkpt lat="41.961369" lon="-0.007248">
        <ele>461.193</ele>
        <time>2020-08-23T11:45:33Z</time>
      </trkpt>
      <trkpt lat="41.961376" lon="-0.007353">
        <ele>460.669</ele>
        <time>2020-08-23T11:45:35Z</time>
      </trkpt>
      <trkpt lat="41.961374" lon="-0.007465">
        <ele>460.248</ele>
        <time>2020-08-23T11:45:37Z</time>
      </trkpt>
      <trkpt lat="41.961371" lon="-0.007527">
        <ele>459.938</ele>
        <time>2020-08-23T11:45:38Z</time>
      </trkpt>
      <trkpt lat="41.961371" lon="-0.007589">
        <ele>459.770</ele>
        <time>2020-08-23T11:45:39Z</time>
      </trkpt>
      <trkpt lat="41.961372" lon="-0.007699">
        <ele>459.217</ele>
        <time>2020-08-23T11:45:41Z</time>
      </trkpt>
      <trkpt lat="41.961366" lon="-0.007801">
        <ele>458.708</ele>
        <time>2020-08-23T11:45:43Z</time>
      </trkpt>
      <trkpt lat="41.961363" lon="-0.007911">
        <ele>458.218</ele>
        <time>2020-08-23T11:45:45Z</time>
      </trkpt>
      <trkpt lat="41.961376" lon="-0.008020">
        <ele>457.748</ele>
        <time>2020-08-23T11:45:47Z</time>
      </trkpt>
      <trkpt lat="41.961384" lon="-0.008143">
        <ele>457.396</ele>
        <time>2020-08-23T11:45:49Z</time>
      </trkpt>
      <trkpt lat="41.961386" lon="-0.008208">
        <ele>457.088</ele>
        <time>2020-08-23T11:45:50Z</time>
      </trkpt>
      <trkpt lat="41.961390" lon="-0.008276">
        <ele>456.869</ele>
        <time>2020-08-23T11:45:51Z</time>
      </trkpt>
      <trkpt lat="41.961397" lon="-0.008341">
        <ele>456.560</ele>
        <time>2020-08-23T11:45:52Z</time>
      </trkpt>
      <trkpt lat="41.961408" lon="-0.008406">
        <ele>456.246</ele>
        <time>2020-08-23T11:45:53Z</time>
      </trkpt>
      <trkpt lat="41.961415" lon="-0.008472">
        <ele>455.915</ele>
        <time>2020-08-23T11:45:54Z</time>
      </trkpt>
      <trkpt lat="41.961424" lon="-0.008537">
        <ele>455.727</ele>
        <time>2020-08-23T11:45:55Z</time>
      </trkpt>
      <trkpt lat="41.961439" lon="-0.008602">
        <ele>455.568</ele>
        <time>2020-08-23T11:45:56Z</time>
      </trkpt>
      <trkpt lat="41.961455" lon="-0.008673">
        <ele>455.314</ele>
        <time>2020-08-23T11:45:57Z</time>
      </trkpt>
      <trkpt lat="41.961477" lon="-0.008740">
        <ele>455.008</ele>
        <time>2020-08-23T11:45:58Z</time>
      </trkpt>
      <trkpt lat="41.961499" lon="-0.008802">
        <ele>454.917</ele>
        <time>2020-08-23T11:45:59Z</time>
      </trkpt>
      <trkpt lat="41.961521" lon="-0.008863">
        <ele>454.767</ele>
        <time>2020-08-23T11:46:00Z</time>
      </trkpt>
      <trkpt lat="41.961532" lon="-0.008928">
        <ele>454.475</ele>
        <time>2020-08-23T11:46:01Z</time>
      </trkpt>
      <trkpt lat="41.961546" lon="-0.008992">
        <ele>454.247</ele>
        <time>2020-08-23T11:46:02Z</time>
      </trkpt>
      <trkpt lat="41.961565" lon="-0.009058">
        <ele>453.948</ele>
        <time>2020-08-23T11:46:03Z</time>
      </trkpt>
      <trkpt lat="41.961584" lon="-0.009122">
        <ele>453.589</ele>
        <time>2020-08-23T11:46:04Z</time>
      </trkpt>
      <trkpt lat="41.961596" lon="-0.009182">
        <ele>453.225</ele>
        <time>2020-08-23T11:46:05Z</time>
      </trkpt>
      <trkpt lat="41.961616" lon="-0.009293">
        <ele>452.464</ele>
        <time>2020-08-23T11:46:07Z</time>
      </trkpt>
      <trkpt lat="41.961633" lon="-0.009405">
        <ele>451.961</ele>
        <time>2020-08-23T11:46:09Z</time>
      </trkpt>
      <trkpt lat="41.961647" lon="-0.009466">
        <ele>451.721</ele>
        <time>2020-08-23T11:46:10Z</time>
      </trkpt>
      <trkpt lat="41.961656" lon="-0.009531">
        <ele>451.513</ele>
        <time>2020-08-23T11:46:11Z</time>
      </trkpt>
      <trkpt lat="41.961665" lon="-0.009596">
        <ele>451.408</ele>
        <time>2020-08-23T11:46:12Z</time>
      </trkpt>
      <trkpt lat="41.961672" lon="-0.009663">
        <ele>451.291</ele>
        <time>2020-08-23T11:46:13Z</time>
      </trkpt>
      <trkpt lat="41.961685" lon="-0.009734">
        <ele>451.051</ele>
        <time>2020-08-23T11:46:14Z</time>
      </trkpt>
      <trkpt lat="41.961702" lon="-0.009808">
        <ele>450.829</ele>
        <time>2020-08-23T11:46:15Z</time>
      </trkpt>
      <trkpt lat="41.961714" lon="-0.009878">
        <ele>450.611</ele>
        <time>2020-08-23T11:46:16Z</time>
      </trkpt>
      <trkpt lat="41.961729" lon="-0.009944">
        <ele>450.422</ele>
        <time>2020-08-23T11:46:17Z</time>
      </trkpt>
      <trkpt lat="41.961743" lon="-0.010013">
        <ele>450.253</ele>
        <time>2020-08-23T11:46:18Z</time>
      </trkpt>
      <trkpt lat="41.961762" lon="-0.010084">
        <ele>450.039</ele>
        <time>2020-08-23T11:46:19Z</time>
      </trkpt>
      <trkpt lat="41.961777" lon="-0.010157">
        <ele>449.838</ele>
        <time>2020-08-23T11:46:20Z</time>
      </trkpt>
      <trkpt lat="41.961793" lon="-0.010225">
        <ele>449.663</ele>
        <time>2020-08-23T11:46:21Z</time>
      </trkpt>
      <trkpt lat="41.961815" lon="-0.010287">
        <ele>449.444</ele>
        <time>2020-08-23T11:46:22Z</time>
      </trkpt>
      <trkpt lat="41.961837" lon="-0.010346">
        <ele>449.118</ele>
        <time>2020-08-23T11:46:23Z</time>
      </trkpt>
      <trkpt lat="41.961859" lon="-0.010406">
        <ele>448.908</ele>
        <time>2020-08-23T11:46:24Z</time>
      </trkpt>
      <trkpt lat="41.961885" lon="-0.010463">
        <ele>448.711</ele>
        <time>2020-08-23T11:46:25Z</time>
      </trkpt>
      <trkpt lat="41.961899" lon="-0.010525">
        <ele>448.471</ele>
        <time>2020-08-23T11:46:26Z</time>
      </trkpt>
      <trkpt lat="41.961920" lon="-0.010581">
        <ele>448.139</ele>
        <time>2020-08-23T11:46:27Z</time>
      </trkpt>
      <trkpt lat="41.961942" lon="-0.010639">
        <ele>447.811</ele>
        <time>2020-08-23T11:46:28Z</time>
      </trkpt>
      <trkpt lat="41.961960" lon="-0.010700">
        <ele>447.642</ele>
        <time>2020-08-23T11:46:29Z</time>
      </trkpt>
      <trkpt lat="41.961970" lon="-0.010763">
        <ele>447.383</ele>
        <time>2020-08-23T11:46:30Z</time>
      </trkpt>
      <trkpt lat="41.961982" lon="-0.010824">
        <ele>447.199</ele>
        <time>2020-08-23T11:46:31Z</time>
      </trkpt>
      <trkpt lat="41.961997" lon="-0.010887">
        <ele>446.848</ele>
        <time>2020-08-23T11:46:32Z</time>
      </trkpt>
      <trkpt lat="41.962009" lon="-0.010949">
        <ele>446.524</ele>
        <time>2020-08-23T11:46:33Z</time>
      </trkpt>
      <trkpt lat="41.962018" lon="-0.011010">
        <ele>446.204</ele>
        <time>2020-08-23T11:46:34Z</time>
      </trkpt>
      <trkpt lat="41.962056" lon="-0.011117">
        <ele>445.814</ele>
        <time>2020-08-23T11:46:36Z</time>
      </trkpt>
      <trkpt lat="41.962063" lon="-0.011178">
        <ele>445.608</ele>
        <time>2020-08-23T11:46:37Z</time>
      </trkpt>
      <trkpt lat="41.962070" lon="-0.011242">
        <ele>445.457</ele>
        <time>2020-08-23T11:46:38Z</time>
      </trkpt>
      <trkpt lat="41.962072" lon="-0.011307">
        <ele>445.297</ele>
        <time>2020-08-23T11:46:39Z</time>
      </trkpt>
      <trkpt lat="41.962074" lon="-0.011372">
        <ele>445.075</ele>
        <time>2020-08-23T11:46:40Z</time>
      </trkpt>
      <trkpt lat="41.962072" lon="-0.011437">
        <ele>444.877</ele>
        <time>2020-08-23T11:46:41Z</time>
      </trkpt>
      <trkpt lat="41.962073" lon="-0.011505">
        <ele>444.738</ele>
        <time>2020-08-23T11:46:42Z</time>
      </trkpt>
      <trkpt lat="41.962073" lon="-0.011571">
        <ele>444.629</ele>
        <time>2020-08-23T11:46:43Z</time>
      </trkpt>
      <trkpt lat="41.962076" lon="-0.011636">
        <ele>444.555</ele>
        <time>2020-08-23T11:46:44Z</time>
      </trkpt>
      <trkpt lat="41.962084" lon="-0.011700">
        <ele>444.324</ele>
        <time>2020-08-23T11:46:45Z</time>
      </trkpt>
      <trkpt lat="41.962093" lon="-0.011766">
        <ele>444.122</ele>
        <time>2020-08-23T11:46:46Z</time>
      </trkpt>
      <trkpt lat="41.962104" lon="-0.011833">
        <ele>443.962</ele>
        <time>2020-08-23T11:46:47Z</time>
      </trkpt>
      <trkpt lat="41.962113" lon="-0.011897">
        <ele>443.708</ele>
        <time>2020-08-23T11:46:48Z</time>
      </trkpt>
      <trkpt lat="41.962120" lon="-0.011960">
        <ele>443.208</ele>
        <time>2020-08-23T11:46:49Z</time>
      </trkpt>
      <trkpt lat="41.962130" lon="-0.012024">
        <ele>443.097</ele>
        <time>2020-08-23T11:46:50Z</time>
      </trkpt>
      <trkpt lat="41.962144" lon="-0.012085">
        <ele>442.857</ele>
        <time>2020-08-23T11:46:51Z</time>
      </trkpt>
      <trkpt lat="41.962161" lon="-0.012202">
        <ele>442.435</ele>
        <time>2020-08-23T11:46:53Z</time>
      </trkpt>
      <trkpt lat="41.962172" lon="-0.012264">
        <ele>442.277</ele>
        <time>2020-08-23T11:46:54Z</time>
      </trkpt>
      <trkpt lat="41.962182" lon="-0.012324">
        <ele>442.088</ele>
        <time>2020-08-23T11:46:55Z</time>
      </trkpt>
      <trkpt lat="41.962192" lon="-0.012444">
        <ele>441.769</ele>
        <time>2020-08-23T11:46:57Z</time>
      </trkpt>
      <trkpt lat="41.962202" lon="-0.012506">
        <ele>441.535</ele>
        <time>2020-08-23T11:46:58Z</time>
      </trkpt>
      <trkpt lat="41.962219" lon="-0.012569">
        <ele>441.354</ele>
        <time>2020-08-23T11:46:59Z</time>
      </trkpt>
      <trkpt lat="41.962253" lon="-0.012676">
        <ele>440.967</ele>
        <time>2020-08-23T11:47:01Z</time>
      </trkpt>
      <trkpt lat="41.962263" lon="-0.012736">
        <ele>440.881</ele>
        <time>2020-08-23T11:47:02Z</time>
      </trkpt>
      <trkpt lat="41.962270" lon="-0.012798">
        <ele>440.719</ele>
        <time>2020-08-23T11:47:03Z</time>
      </trkpt>
      <trkpt lat="41.962275" lon="-0.012859">
        <ele>440.608</ele>
        <time>2020-08-23T11:47:04Z</time>
      </trkpt>
      <trkpt lat="41.962282" lon="-0.012921">
        <ele>440.491</ele>
        <time>2020-08-23T11:47:05Z</time>
      </trkpt>
      <trkpt lat="41.962288" lon="-0.012983">
        <ele>440.331</ele>
        <time>2020-08-23T11:47:06Z</time>
      </trkpt>
      <trkpt lat="41.962297" lon="-0.013044">
        <ele>440.089</ele>
        <time>2020-08-23T11:47:07Z</time>
      </trkpt>
      <trkpt lat="41.962311" lon="-0.013160">
        <ele>439.491</ele>
        <time>2020-08-23T11:47:09Z</time>
      </trkpt>
      <trkpt lat="41.962332" lon="-0.013275">
        <ele>438.932</ele>
        <time>2020-08-23T11:47:11Z</time>
      </trkpt>
      <trkpt lat="41.962337" lon="-0.013336">
        <ele>438.733</ele>
        <time>2020-08-23T11:47:12Z</time>
      </trkpt>
      <trkpt lat="41.962352" lon="-0.013393">
        <ele>438.559</ele>
        <time>2020-08-23T11:47:13Z</time>
      </trkpt>
      <trkpt lat="41.962364" lon="-0.013458">
        <ele>438.358</ele>
        <time>2020-08-23T11:47:14Z</time>
      </trkpt>
      <trkpt lat="41.962369" lon="-0.013525">
        <ele>438.164</ele>
        <time>2020-08-23T11:47:15Z</time>
      </trkpt>
      <trkpt lat="41.962369" lon="-0.013593">
        <ele>437.906</ele>
        <time>2020-08-23T11:47:16Z</time>
      </trkpt>
      <trkpt lat="41.962381" lon="-0.013658">
        <ele>437.816</ele>
        <time>2020-08-23T11:47:17Z</time>
      </trkpt>
      <trkpt lat="41.962390" lon="-0.013723">
        <ele>437.608</ele>
        <time>2020-08-23T11:47:18Z</time>
      </trkpt>
      <trkpt lat="41.962398" lon="-0.013789">
        <ele>437.511</ele>
        <time>2020-08-23T11:47:19Z</time>
      </trkpt>
      <trkpt lat="41.962403" lon="-0.013856">
        <ele>437.451</ele>
        <time>2020-08-23T11:47:20Z</time>
      </trkpt>
      <trkpt lat="41.962407" lon="-0.013924">
        <ele>437.349</ele>
        <time>2020-08-23T11:47:21Z</time>
      </trkpt>
      <trkpt lat="41.962412" lon="-0.013994">
        <ele>437.211</ele>
        <time>2020-08-23T11:47:22Z</time>
      </trkpt>
      <trkpt lat="41.962416" lon="-0.014064">
        <ele>437.162</ele>
        <time>2020-08-23T11:47:23Z</time>
      </trkpt>
      <trkpt lat="41.962422" lon="-0.014134">
        <ele>437.093</ele>
        <time>2020-08-23T11:47:24Z</time>
      </trkpt>
      <trkpt lat="41.962431" lon="-0.014201">
        <ele>436.819</ele>
        <time>2020-08-23T11:47:25Z</time>
      </trkpt>
      <trkpt lat="41.962440" lon="-0.014268">
        <ele>436.628</ele>
        <time>2020-08-23T11:47:26Z</time>
      </trkpt>
      <trkpt lat="41.962456" lon="-0.014337">
        <ele>436.589</ele>
        <time>2020-08-23T11:47:27Z</time>
      </trkpt>
      <trkpt lat="41.962476" lon="-0.014406">
        <ele>436.306</ele>
        <time>2020-08-23T11:47:28Z</time>
      </trkpt>
      <trkpt lat="41.962498" lon="-0.014479">
        <ele>436.126</ele>
        <time>2020-08-23T11:47:29Z</time>
      </trkpt>
      <trkpt lat="41.962514" lon="-0.014553">
        <ele>435.908</ele>
        <time>2020-08-23T11:47:30Z</time>
      </trkpt>
      <trkpt lat="41.962523" lon="-0.014629">
        <ele>435.653</ele>
        <time>2020-08-23T11:47:31Z</time>
      </trkpt>
      <trkpt lat="41.962540" lon="-0.014705">
        <ele>435.453</ele>
        <time>2020-08-23T11:47:32Z</time>
      </trkpt>
      <trkpt lat="41.962559" lon="-0.014781">
        <ele>435.251</ele>
        <time>2020-08-23T11:47:33Z</time>
      </trkpt>
      <trkpt lat="41.962580" lon="-0.014854">
        <ele>435.143</ele>
        <time>2020-08-23T11:47:34Z</time>
      </trkpt>
      <trkpt lat="41.962591" lon="-0.014926">
        <ele>435.054</ele>
        <time>2020-08-23T11:47:35Z</time>
      </trkpt>
      <trkpt lat="41.962596" lon="-0.015002">
        <ele>434.835</ele>
        <time>2020-08-23T11:47:36Z</time>
      </trkpt>
      <trkpt lat="41.962594" lon="-0.015081">
        <ele>434.681</ele>
        <time>2020-08-23T11:47:37Z</time>
      </trkpt>
      <trkpt lat="41.962589" lon="-0.015159">
        <ele>434.490</ele>
        <time>2020-08-23T11:47:38Z</time>
      </trkpt>
      <trkpt lat="41.962584" lon="-0.015236">
        <ele>434.216</ele>
        <time>2020-08-23T11:47:39Z</time>
      </trkpt>
      <trkpt lat="41.962583" lon="-0.015315">
        <ele>434.076</ele>
        <time>2020-08-23T11:47:40Z</time>
      </trkpt>
      <trkpt lat="41.962572" lon="-0.015396">
        <ele>433.813</ele>
        <time>2020-08-23T11:47:41Z</time>
      </trkpt>
      <trkpt lat="41.962566" lon="-0.015477">
        <ele>433.608</ele>
        <time>2020-08-23T11:47:42Z</time>
      </trkpt>
      <trkpt lat="41.962564" lon="-0.015556">
        <ele>433.436</ele>
        <time>2020-08-23T11:47:43Z</time>
      </trkpt>
      <trkpt lat="41.962560" lon="-0.015633">
        <ele>433.256</ele>
        <time>2020-08-23T11:47:44Z</time>
      </trkpt>
      <trkpt lat="41.962555" lon="-0.015710">
        <ele>433.064</ele>
        <time>2020-08-23T11:47:45Z</time>
      </trkpt>
      <trkpt lat="41.962549" lon="-0.015786">
        <ele>432.996</ele>
        <time>2020-08-23T11:47:46Z</time>
      </trkpt>
      <trkpt lat="41.962544" lon="-0.015863">
        <ele>432.767</ele>
        <time>2020-08-23T11:47:47Z</time>
      </trkpt>
      <trkpt lat="41.962541" lon="-0.015944">
        <ele>432.678</ele>
        <time>2020-08-23T11:47:48Z</time>
      </trkpt>
      <trkpt lat="41.962537" lon="-0.016025">
        <ele>432.584</ele>
        <time>2020-08-23T11:47:49Z</time>
      </trkpt>
      <trkpt lat="41.962531" lon="-0.016102">
        <ele>432.383</ele>
        <time>2020-08-23T11:47:50Z</time>
      </trkpt>
      <trkpt lat="41.962523" lon="-0.016178">
        <ele>432.161</ele>
        <time>2020-08-23T11:47:51Z</time>
      </trkpt>
      <trkpt lat="41.962522" lon="-0.016257">
        <ele>431.921</ele>
        <time>2020-08-23T11:47:52Z</time>
      </trkpt>
      <trkpt lat="41.962514" lon="-0.016336">
        <ele>431.713</ele>
        <time>2020-08-23T11:47:53Z</time>
      </trkpt>
      <trkpt lat="41.962507" lon="-0.016415">
        <ele>431.508</ele>
        <time>2020-08-23T11:47:54Z</time>
      </trkpt>
      <trkpt lat="41.962504" lon="-0.016496">
        <ele>431.461</ele>
        <time>2020-08-23T11:47:55Z</time>
      </trkpt>
      <trkpt lat="41.962500" lon="-0.016575">
        <ele>431.331</ele>
        <time>2020-08-23T11:47:56Z</time>
      </trkpt>
      <trkpt lat="41.962488" lon="-0.016652">
        <ele>431.299</ele>
        <time>2020-08-23T11:47:57Z</time>
      </trkpt>
      <trkpt lat="41.962483" lon="-0.016726">
        <ele>431.141</ele>
        <time>2020-08-23T11:47:58Z</time>
      </trkpt>
      <trkpt lat="41.962479" lon="-0.016798">
        <ele>431.092</ele>
        <time>2020-08-23T11:47:59Z</time>
      </trkpt>
      <trkpt lat="41.962476" lon="-0.016870">
        <ele>430.833</ele>
        <time>2020-08-23T11:48:00Z</time>
      </trkpt>
      <trkpt lat="41.962482" lon="-0.016945">
        <ele>430.749</ele>
        <time>2020-08-23T11:48:01Z</time>
      </trkpt>
      <trkpt lat="41.962482" lon="-0.017018">
        <ele>430.538</ele>
        <time>2020-08-23T11:48:02Z</time>
      </trkpt>
      <trkpt lat="41.962479" lon="-0.017093">
        <ele>430.421</ele>
        <time>2020-08-23T11:48:03Z</time>
      </trkpt>
      <trkpt lat="41.962476" lon="-0.017170">
        <ele>430.241</ele>
        <time>2020-08-23T11:48:04Z</time>
      </trkpt>
      <trkpt lat="41.962474" lon="-0.017247">
        <ele>430.005</ele>
        <time>2020-08-23T11:48:05Z</time>
      </trkpt>
      <trkpt lat="41.962476" lon="-0.017324">
        <ele>429.808</ele>
        <time>2020-08-23T11:48:06Z</time>
      </trkpt>
      <trkpt lat="41.962477" lon="-0.017402">
        <ele>429.737</ele>
        <time>2020-08-23T11:48:07Z</time>
      </trkpt>
      <trkpt lat="41.962485" lon="-0.017479">
        <ele>429.637</ele>
        <time>2020-08-23T11:48:08Z</time>
      </trkpt>
      <trkpt lat="41.962493" lon="-0.017556">
        <ele>429.595</ele>
        <time>2020-08-23T11:48:09Z</time>
      </trkpt>
      <trkpt lat="41.962497" lon="-0.017635">
        <ele>429.327</ele>
        <time>2020-08-23T11:48:10Z</time>
      </trkpt>
      <trkpt lat="41.962501" lon="-0.017714">
        <ele>429.228</ele>
        <time>2020-08-23T11:48:11Z</time>
      </trkpt>
      <trkpt lat="41.962501" lon="-0.017791">
        <ele>429.179</ele>
        <time>2020-08-23T11:48:12Z</time>
      </trkpt>
      <trkpt lat="41.962508" lon="-0.017870">
        <ele>428.735</ele>
        <time>2020-08-23T11:48:13Z</time>
      </trkpt>
      <trkpt lat="41.962516" lon="-0.017946">
        <ele>428.694</ele>
        <time>2020-08-23T11:48:14Z</time>
      </trkpt>
      <trkpt lat="41.962527" lon="-0.018019">
        <ele>428.537</ele>
        <time>2020-08-23T11:48:15Z</time>
      </trkpt>
      <trkpt lat="41.962537" lon="-0.018091">
        <ele>428.449</ele>
        <time>2020-08-23T11:48:16Z</time>
      </trkpt>
      <trkpt lat="41.962549" lon="-0.018163">
        <ele>428.413</ele>
        <time>2020-08-23T11:48:17Z</time>
      </trkpt>
      <trkpt lat="41.962561" lon="-0.018232">
        <ele>428.308</ele>
        <time>2020-08-23T11:48:18Z</time>
      </trkpt>
      <trkpt lat="41.962579" lon="-0.018300">
        <ele>428.178</ele>
        <time>2020-08-23T11:48:19Z</time>
      </trkpt>
      <trkpt lat="41.962596" lon="-0.018370">
        <ele>427.988</ele>
        <time>2020-08-23T11:48:20Z</time>
      </trkpt>
      <trkpt lat="41.962599" lon="-0.018443">
        <ele>427.776</ele>
        <time>2020-08-23T11:48:21Z</time>
      </trkpt>
      <trkpt lat="41.962608" lon="-0.018512">
        <ele>427.578</ele>
        <time>2020-08-23T11:48:22Z</time>
      </trkpt>
      <trkpt lat="41.962620" lon="-0.018581">
        <ele>427.389</ele>
        <time>2020-08-23T11:48:23Z</time>
      </trkpt>
      <trkpt lat="41.962635" lon="-0.018652">
        <ele>427.260</ele>
        <time>2020-08-23T11:48:24Z</time>
      </trkpt>
      <trkpt lat="41.962647" lon="-0.018725">
        <ele>427.026</ele>
        <time>2020-08-23T11:48:25Z</time>
      </trkpt>
      <trkpt lat="41.962666" lon="-0.018796">
        <ele>426.975</ele>
        <time>2020-08-23T11:48:26Z</time>
      </trkpt>
      <trkpt lat="41.962687" lon="-0.018865">
        <ele>426.714</ele>
        <time>2020-08-23T11:48:27Z</time>
      </trkpt>
      <trkpt lat="41.962700" lon="-0.018940">
        <ele>426.454</ele>
        <time>2020-08-23T11:48:28Z</time>
      </trkpt>
      <trkpt lat="41.962713" lon="-0.019018">
        <ele>426.209</ele>
        <time>2020-08-23T11:48:29Z</time>
      </trkpt>
      <trkpt lat="41.962725" lon="-0.019092">
        <ele>426.108</ele>
        <time>2020-08-23T11:48:30Z</time>
      </trkpt>
      <trkpt lat="41.962735" lon="-0.019166">
        <ele>425.956</ele>
        <time>2020-08-23T11:48:31Z</time>
      </trkpt>
      <trkpt lat="41.962742" lon="-0.019242">
        <ele>425.726</ele>
        <time>2020-08-23T11:48:32Z</time>
      </trkpt>
      <trkpt lat="41.962747" lon="-0.019320">
        <ele>425.694</ele>
        <time>2020-08-23T11:48:33Z</time>
      </trkpt>
      <trkpt lat="41.962748" lon="-0.019392">
        <ele>425.466</ele>
        <time>2020-08-23T11:48:34Z</time>
      </trkpt>
      <trkpt lat="41.962751" lon="-0.019464">
        <ele>425.287</ele>
        <time>2020-08-23T11:48:35Z</time>
      </trkpt>
      <trkpt lat="41.962761" lon="-0.019535">
        <ele>425.088</ele>
        <time>2020-08-23T11:48:36Z</time>
      </trkpt>
      <trkpt lat="41.962765" lon="-0.019610">
        <ele>424.874</ele>
        <time>2020-08-23T11:48:37Z</time>
      </trkpt>
      <trkpt lat="41.962765" lon="-0.019682">
        <ele>424.523</ele>
        <time>2020-08-23T11:48:38Z</time>
      </trkpt>
      <trkpt lat="41.962764" lon="-0.019755">
        <ele>424.332</ele>
        <time>2020-08-23T11:48:39Z</time>
      </trkpt>
      <trkpt lat="41.962774" lon="-0.019822">
        <ele>424.292</ele>
        <time>2020-08-23T11:48:40Z</time>
      </trkpt>
      <trkpt lat="41.962780" lon="-0.019890">
        <ele>424.111</ele>
        <time>2020-08-23T11:48:41Z</time>
      </trkpt>
      <trkpt lat="41.962786" lon="-0.019959">
        <ele>423.808</ele>
        <time>2020-08-23T11:48:42Z</time>
      </trkpt>
      <trkpt lat="41.962790" lon="-0.020027">
        <ele>423.628</ele>
        <time>2020-08-23T11:48:43Z</time>
      </trkpt>
      <trkpt lat="41.962791" lon="-0.020095">
        <ele>423.588</ele>
        <time>2020-08-23T11:48:44Z</time>
      </trkpt>
      <trkpt lat="41.962794" lon="-0.020164">
        <ele>423.346</ele>
        <time>2020-08-23T11:48:45Z</time>
      </trkpt>
      <trkpt lat="41.962793" lon="-0.020237">
        <ele>423.148</ele>
        <time>2020-08-23T11:48:46Z</time>
      </trkpt>
      <trkpt lat="41.962795" lon="-0.020314">
        <ele>423.029</ele>
        <time>2020-08-23T11:48:47Z</time>
      </trkpt>
      <trkpt lat="41.962798" lon="-0.020389">
        <ele>422.930</ele>
        <time>2020-08-23T11:48:48Z</time>
      </trkpt>
      <trkpt lat="41.962796" lon="-0.020460">
        <ele>422.716</ele>
        <time>2020-08-23T11:48:49Z</time>
      </trkpt>
      <trkpt lat="41.962787" lon="-0.020534">
        <ele>422.635</ele>
        <time>2020-08-23T11:48:50Z</time>
      </trkpt>
      <trkpt lat="41.962782" lon="-0.020611">
        <ele>422.598</ele>
        <time>2020-08-23T11:48:51Z</time>
      </trkpt>
      <trkpt lat="41.962777" lon="-0.020689">
        <ele>422.415</ele>
        <time>2020-08-23T11:48:52Z</time>
      </trkpt>
      <trkpt lat="41.962767" lon="-0.020765">
        <ele>422.326</ele>
        <time>2020-08-23T11:48:53Z</time>
      </trkpt>
      <trkpt lat="41.962764" lon="-0.020841">
        <ele>422.208</ele>
        <time>2020-08-23T11:48:54Z</time>
      </trkpt>
      <trkpt lat="41.962762" lon="-0.020915">
        <ele>421.914</ele>
        <time>2020-08-23T11:48:55Z</time>
      </trkpt>
      <trkpt lat="41.962761" lon="-0.020990">
        <ele>421.924</ele>
        <time>2020-08-23T11:48:56Z</time>
      </trkpt>
      <trkpt lat="41.962761" lon="-0.021063">
        <ele>421.832</ele>
        <time>2020-08-23T11:48:57Z</time>
      </trkpt>
      <trkpt lat="41.962759" lon="-0.021134">
        <ele>421.874</ele>
        <time>2020-08-23T11:48:58Z</time>
      </trkpt>
      <trkpt lat="41.962756" lon="-0.021202">
        <ele>421.755</ele>
        <time>2020-08-23T11:48:59Z</time>
      </trkpt>
      <trkpt lat="41.962746" lon="-0.021272">
        <ele>421.616</ele>
        <time>2020-08-23T11:49:00Z</time>
      </trkpt>
      <trkpt lat="41.962734" lon="-0.021343">
        <ele>421.572</ele>
        <time>2020-08-23T11:49:01Z</time>
      </trkpt>
      <trkpt lat="41.962742" lon="-0.021416">
        <ele>421.441</ele>
        <time>2020-08-23T11:49:02Z</time>
      </trkpt>
      <trkpt lat="41.962745" lon="-0.021488">
        <ele>421.381</ele>
        <time>2020-08-23T11:49:03Z</time>
      </trkpt>
      <trkpt lat="41.962739" lon="-0.021559">
        <ele>421.361</ele>
        <time>2020-08-23T11:49:04Z</time>
      </trkpt>
      <trkpt lat="41.962739" lon="-0.021629">
        <ele>421.217</ele>
        <time>2020-08-23T11:49:05Z</time>
      </trkpt>
      <trkpt lat="41.962734" lon="-0.021696">
        <ele>421.208</ele>
        <time>2020-08-23T11:49:06Z</time>
      </trkpt>
      <trkpt lat="41.962736" lon="-0.021759">
        <ele>421.213</ele>
        <time>2020-08-23T11:49:07Z</time>
      </trkpt>
      <trkpt lat="41.962742" lon="-0.021823">
        <ele>421.253</ele>
        <time>2020-08-23T11:49:08Z</time>
      </trkpt>
      <trkpt lat="41.962746" lon="-0.021885">
        <ele>421.061</ele>
        <time>2020-08-23T11:49:09Z</time>
      </trkpt>
      <trkpt lat="41.962751" lon="-0.021946">
        <ele>420.893</ele>
        <time>2020-08-23T11:49:10Z</time>
      </trkpt>
      <trkpt lat="41.962749" lon="-0.022060">
        <ele>420.244</ele>
        <time>2020-08-23T11:49:12Z</time>
      </trkpt>
      <trkpt lat="41.962764" lon="-0.022155">
        <ele>419.825</ele>
        <time>2020-08-23T11:49:14Z</time>
      </trkpt>
      <trkpt lat="41.962775" lon="-0.022239">
        <ele>419.581</ele>
        <time>2020-08-23T11:49:16Z</time>
      </trkpt>
      <trkpt lat="41.962789" lon="-0.022298">
        <ele>418.880</ele>
        <time>2020-08-23T11:49:26Z</time>
      </trkpt>
      <trkpt lat="41.962809" lon="-0.022353">
        <ele>418.982</ele>
        <time>2020-08-23T11:49:28Z</time>
      </trkpt>
      <trkpt lat="41.962820" lon="-0.022438">
        <ele>419.143</ele>
        <time>2020-08-23T11:49:30Z</time>
      </trkpt>
      <trkpt lat="41.962828" lon="-0.022520">
        <ele>419.117</ele>
        <time>2020-08-23T11:49:32Z</time>
      </trkpt>
      <trkpt lat="41.962833" lon="-0.022611">
        <ele>419.008</ele>
        <time>2020-08-23T11:49:34Z</time>
      </trkpt>
      <trkpt lat="41.962839" lon="-0.022704">
        <ele>419.123</ele>
        <time>2020-08-23T11:49:36Z</time>
      </trkpt>
      <trkpt lat="41.962841" lon="-0.022800">
        <ele>419.283</ele>
        <time>2020-08-23T11:49:38Z</time>
      </trkpt>
      <trkpt lat="41.962853" lon="-0.022891">
        <ele>419.311</ele>
        <time>2020-08-23T11:49:40Z</time>
      </trkpt>
      <trkpt lat="41.962864" lon="-0.022987">
        <ele>419.413</ele>
        <time>2020-08-23T11:49:42Z</time>
      </trkpt>
      <trkpt lat="41.962874" lon="-0.023073">
        <ele>419.534</ele>
        <time>2020-08-23T11:49:44Z</time>
      </trkpt>
      <trkpt lat="41.962894" lon="-0.023162">
        <ele>419.615</ele>
        <time>2020-08-23T11:49:46Z</time>
      </trkpt>
      <trkpt lat="41.962906" lon="-0.023256">
        <ele>419.711</ele>
        <time>2020-08-23T11:49:48Z</time>
      </trkpt>
      <trkpt lat="41.962930" lon="-0.023343">
        <ele>419.850</ele>
        <time>2020-08-23T11:49:50Z</time>
      </trkpt>
      <trkpt lat="41.962942" lon="-0.023435">
        <ele>419.946</ele>
        <time>2020-08-23T11:49:52Z</time>
      </trkpt>
      <trkpt lat="41.962954" lon="-0.023521">
        <ele>420.088</ele>
        <time>2020-08-23T11:49:54Z</time>
      </trkpt>
      <trkpt lat="41.962974" lon="-0.023605">
        <ele>420.116</ele>
        <time>2020-08-23T11:49:56Z</time>
      </trkpt>
      <trkpt lat="41.962975" lon="-0.023694">
        <ele>420.308</ele>
        <time>2020-08-23T11:49:58Z</time>
      </trkpt>
      <trkpt lat="41.962992" lon="-0.023774">
        <ele>420.569</ele>
        <time>2020-08-23T11:50:00Z</time>
      </trkpt>
      <trkpt lat="41.963016" lon="-0.023843">
        <ele>420.899</ele>
        <time>2020-08-23T11:50:02Z</time>
      </trkpt>
      <trkpt lat="41.963039" lon="-0.023920">
        <ele>421.177</ele>
        <time>2020-08-23T11:50:04Z</time>
      </trkpt>
      <trkpt lat="41.963053" lon="-0.024003">
        <ele>421.359</ele>
        <time>2020-08-23T11:50:06Z</time>
      </trkpt>
      <trkpt lat="41.963056" lon="-0.024086">
        <ele>421.480</ele>
        <time>2020-08-23T11:50:08Z</time>
      </trkpt>
      <trkpt lat="41.963064" lon="-0.024166">
        <ele>421.651</ele>
        <time>2020-08-23T11:50:10Z</time>
      </trkpt>
      <trkpt lat="41.963068" lon="-0.024241">
        <ele>421.887</ele>
        <time>2020-08-23T11:50:12Z</time>
      </trkpt>
      <trkpt lat="41.963069" lon="-0.024313">
        <ele>422.086</ele>
        <time>2020-08-23T11:50:14Z</time>
      </trkpt>
      <trkpt lat="41.963079" lon="-0.024384">
        <ele>422.268</ele>
        <time>2020-08-23T11:50:16Z</time>
      </trkpt>
      <trkpt lat="41.963096" lon="-0.024455">
        <ele>422.342</ele>
        <time>2020-08-23T11:50:18Z</time>
      </trkpt>
      <trkpt lat="41.963091" lon="-0.024522">
        <ele>422.526</ele>
        <time>2020-08-23T11:50:20Z</time>
      </trkpt>
      <trkpt lat="41.963101" lon="-0.024599">
        <ele>422.708</ele>
        <time>2020-08-23T11:50:22Z</time>
      </trkpt>
      <trkpt lat="41.963103" lon="-0.024674">
        <ele>423.041</ele>
        <time>2020-08-23T11:50:24Z</time>
      </trkpt>
      <trkpt lat="41.963113" lon="-0.024736">
        <ele>423.161</ele>
        <time>2020-08-23T11:50:26Z</time>
      </trkpt>
      <trkpt lat="41.963126" lon="-0.024803">
        <ele>423.359</ele>
        <time>2020-08-23T11:50:28Z</time>
      </trkpt>
      <trkpt lat="41.963146" lon="-0.024874">
        <ele>423.631</ele>
        <time>2020-08-23T11:50:30Z</time>
      </trkpt>
      <trkpt lat="41.963169" lon="-0.024945">
        <ele>423.872</ele>
        <time>2020-08-23T11:50:32Z</time>
      </trkpt>
      <trkpt lat="41.963180" lon="-0.025021">
        <ele>423.993</ele>
        <time>2020-08-23T11:50:34Z</time>
      </trkpt>
      <trkpt lat="41.963194" lon="-0.025102">
        <ele>424.059</ele>
        <time>2020-08-23T11:50:36Z</time>
      </trkpt>
      <trkpt lat="41.963222" lon="-0.025185">
        <ele>424.158</ele>
        <time>2020-08-23T11:50:38Z</time>
      </trkpt>
      <trkpt lat="41.963246" lon="-0.025275">
        <ele>424.197</ele>
        <time>2020-08-23T11:50:40Z</time>
      </trkpt>
      <trkpt lat="41.963268" lon="-0.025364">
        <ele>424.123</ele>
        <time>2020-08-23T11:50:42Z</time>
      </trkpt>
      <trkpt lat="41.963292" lon="-0.025456">
        <ele>424.125</ele>
        <time>2020-08-23T11:50:44Z</time>
      </trkpt>
      <trkpt lat="41.963325" lon="-0.025547">
        <ele>424.108</ele>
        <time>2020-08-23T11:50:46Z</time>
      </trkpt>
      <trkpt lat="41.963354" lon="-0.025632">
        <ele>424.124</ele>
        <time>2020-08-23T11:50:48Z</time>
      </trkpt>
      <trkpt lat="41.963383" lon="-0.025725">
        <ele>424.064</ele>
        <time>2020-08-23T11:50:50Z</time>
      </trkpt>
      <trkpt lat="41.963418" lon="-0.025823">
        <ele>423.942</ele>
        <time>2020-08-23T11:50:52Z</time>
      </trkpt>
      <trkpt lat="41.963457" lon="-0.025920">
        <ele>423.754</ele>
        <time>2020-08-23T11:50:54Z</time>
      </trkpt>
      <trkpt lat="41.963489" lon="-0.026010">
        <ele>423.515</ele>
        <time>2020-08-23T11:50:56Z</time>
      </trkpt>
      <trkpt lat="41.963517" lon="-0.026103">
        <ele>423.456</ele>
        <time>2020-08-23T11:50:58Z</time>
      </trkpt>
      <trkpt lat="41.963541" lon="-0.026210">
        <ele>423.482</ele>
        <time>2020-08-23T11:51:00Z</time>
      </trkpt>
      <trkpt lat="41.963550" lon="-0.026271">
        <ele>423.421</ele>
        <time>2020-08-23T11:51:01Z</time>
      </trkpt>
      <trkpt lat="41.963558" lon="-0.026331">
        <ele>423.418</ele>
        <time>2020-08-23T11:51:02Z</time>
      </trkpt>
      <trkpt lat="41.963568" lon="-0.026392">
        <ele>423.398</ele>
        <time>2020-08-23T11:51:03Z</time>
      </trkpt>
      <trkpt lat="41.963586" lon="-0.026450">
        <ele>423.217</ele>
        <time>2020-08-23T11:51:04Z</time>
      </trkpt>
      <trkpt lat="41.963600" lon="-0.026511">
        <ele>423.108</ele>
        <time>2020-08-23T11:51:05Z</time>
      </trkpt>
      <trkpt lat="41.963608" lon="-0.026574">
        <ele>423.136</ele>
        <time>2020-08-23T11:51:06Z</time>
      </trkpt>
      <trkpt lat="41.963619" lon="-0.026637">
        <ele>423.046</ele>
        <time>2020-08-23T11:51:07Z</time>
      </trkpt>
      <trkpt lat="41.963635" lon="-0.026701">
        <ele>423.064</ele>
        <time>2020-08-23T11:51:08Z</time>
      </trkpt>
      <trkpt lat="41.963653" lon="-0.026762">
        <ele>423.046</ele>
        <time>2020-08-23T11:51:09Z</time>
      </trkpt>
      <trkpt lat="41.963669" lon="-0.026821">
        <ele>423.037</ele>
        <time>2020-08-23T11:51:10Z</time>
      </trkpt>
      <trkpt lat="41.963681" lon="-0.026887">
        <ele>423.018</ele>
        <time>2020-08-23T11:51:11Z</time>
      </trkpt>
      <trkpt lat="41.963695" lon="-0.026953">
        <ele>422.994</ele>
        <time>2020-08-23T11:51:12Z</time>
      </trkpt>
      <trkpt lat="41.963707" lon="-0.027019">
        <ele>422.853</ele>
        <time>2020-08-23T11:51:13Z</time>
      </trkpt>
      <trkpt lat="41.963724" lon="-0.027082">
        <ele>422.777</ele>
        <time>2020-08-23T11:51:14Z</time>
      </trkpt>
      <trkpt lat="41.963740" lon="-0.027149">
        <ele>422.461</ele>
        <time>2020-08-23T11:51:15Z</time>
      </trkpt>
      <trkpt lat="41.963767" lon="-0.027211">
        <ele>422.227</ele>
        <time>2020-08-23T11:51:16Z</time>
      </trkpt>
      <trkpt lat="41.963790" lon="-0.027272">
        <ele>422.008</ele>
        <time>2020-08-23T11:51:17Z</time>
      </trkpt>
      <trkpt lat="41.963809" lon="-0.027340">
        <ele>421.852</ele>
        <time>2020-08-23T11:51:18Z</time>
      </trkpt>
      <trkpt lat="41.963828" lon="-0.027410">
        <ele>421.692</ele>
        <time>2020-08-23T11:51:19Z</time>
      </trkpt>
      <trkpt lat="41.963843" lon="-0.027480">
        <ele>421.460</ele>
        <time>2020-08-23T11:51:20Z</time>
      </trkpt>
      <trkpt lat="41.963862" lon="-0.027547">
        <ele>421.312</ele>
        <time>2020-08-23T11:51:21Z</time>
      </trkpt>
      <trkpt lat="41.963882" lon="-0.027611">
        <ele>421.163</ele>
        <time>2020-08-23T11:51:22Z</time>
      </trkpt>
      <trkpt lat="41.963895" lon="-0.027677">
        <ele>421.044</ele>
        <time>2020-08-23T11:51:23Z</time>
      </trkpt>
      <trkpt lat="41.963910" lon="-0.027744">
        <ele>420.970</ele>
        <time>2020-08-23T11:51:24Z</time>
      </trkpt>
      <trkpt lat="41.963930" lon="-0.027807">
        <ele>420.889</ele>
        <time>2020-08-23T11:51:25Z</time>
      </trkpt>
      <trkpt lat="41.963953" lon="-0.027864">
        <ele>420.736</ele>
        <time>2020-08-23T11:51:26Z</time>
      </trkpt>
      <trkpt lat="41.963977" lon="-0.027918">
        <ele>420.617</ele>
        <time>2020-08-23T11:51:27Z</time>
      </trkpt>
      <trkpt lat="41.964003" lon="-0.027975">
        <ele>420.518</ele>
        <time>2020-08-23T11:51:28Z</time>
      </trkpt>
      <trkpt lat="41.964028" lon="-0.028026">
        <ele>420.308</ele>
        <time>2020-08-23T11:51:29Z</time>
      </trkpt>
      <trkpt lat="41.964070" lon="-0.028119">
        <ele>420.118</ele>
        <time>2020-08-23T11:51:31Z</time>
      </trkpt>
      <trkpt lat="41.964132" lon="-0.028197">
        <ele>420.048</ele>
        <time>2020-08-23T11:51:33Z</time>
      </trkpt>
      <trkpt lat="41.964203" lon="-0.028272">
        <ele>419.986</ele>
        <time>2020-08-23T11:51:35Z</time>
      </trkpt>
      <trkpt lat="41.964269" lon="-0.028339">
        <ele>419.868</ele>
        <time>2020-08-23T11:51:37Z</time>
      </trkpt>
      <trkpt lat="41.964331" lon="-0.028414">
        <ele>419.859</ele>
        <time>2020-08-23T11:51:39Z</time>
      </trkpt>
      <trkpt lat="41.964393" lon="-0.028492">
        <ele>419.860</ele>
        <time>2020-08-23T11:51:41Z</time>
      </trkpt>
      <trkpt lat="41.964444" lon="-0.028572">
        <ele>419.876</ele>
        <time>2020-08-23T11:51:43Z</time>
      </trkpt>
      <trkpt lat="41.964478" lon="-0.028658">
        <ele>419.835</ele>
        <time>2020-08-23T11:51:45Z</time>
      </trkpt>
      <trkpt lat="41.964500" lon="-0.028751">
        <ele>419.862</ele>
        <time>2020-08-23T11:51:47Z</time>
      </trkpt>
      <trkpt lat="41.964522" lon="-0.028841">
        <ele>420.083</ele>
        <time>2020-08-23T11:51:49Z</time>
      </trkpt>
      <trkpt lat="41.964558" lon="-0.028914">
        <ele>420.311</ele>
        <time>2020-08-23T11:51:51Z</time>
      </trkpt>
      <trkpt lat="41.964589" lon="-0.028991">
        <ele>420.608</ele>
        <time>2020-08-23T11:51:53Z</time>
      </trkpt>
      <trkpt lat="41.964614" lon="-0.029062">
        <ele>420.721</ele>
        <time>2020-08-23T11:51:55Z</time>
      </trkpt>
      <trkpt lat="41.964646" lon="-0.029153">
        <ele>420.761</ele>
        <time>2020-08-23T11:51:57Z</time>
      </trkpt>
      <trkpt lat="41.964690" lon="-0.029248">
        <ele>420.659</ele>
        <time>2020-08-23T11:51:59Z</time>
      </trkpt>
      <trkpt lat="41.964707" lon="-0.029366">
        <ele>420.491</ele>
        <time>2020-08-23T11:52:01Z</time>
      </trkpt>
      <trkpt lat="41.964720" lon="-0.029429">
        <ele>420.422</ele>
        <time>2020-08-23T11:52:02Z</time>
      </trkpt>
      <trkpt lat="41.964736" lon="-0.029495">
        <ele>420.343</ele>
        <time>2020-08-23T11:52:03Z</time>
      </trkpt>
      <trkpt lat="41.964755" lon="-0.029558">
        <ele>420.319</ele>
        <time>2020-08-23T11:52:04Z</time>
      </trkpt>
      <trkpt lat="41.964772" lon="-0.029620">
        <ele>420.358</ele>
        <time>2020-08-23T11:52:05Z</time>
      </trkpt>
      <trkpt lat="41.964789" lon="-0.029686">
        <ele>420.254</ele>
        <time>2020-08-23T11:52:06Z</time>
      </trkpt>
      <trkpt lat="41.964808" lon="-0.029756">
        <ele>420.156</ele>
        <time>2020-08-23T11:52:07Z</time>
      </trkpt>
      <trkpt lat="41.964828" lon="-0.029826">
        <ele>420.011</ele>
        <time>2020-08-23T11:52:08Z</time>
      </trkpt>
      <trkpt lat="41.964845" lon="-0.029894">
        <ele>419.908</ele>
        <time>2020-08-23T11:52:09Z</time>
      </trkpt>
      <trkpt lat="41.964860" lon="-0.029964">
        <ele>419.880</ele>
        <time>2020-08-23T11:52:10Z</time>
      </trkpt>
      <trkpt lat="41.964871" lon="-0.030037">
        <ele>419.790</ele>
        <time>2020-08-23T11:52:11Z</time>
      </trkpt>
      <trkpt lat="41.964885" lon="-0.030105">
        <ele>419.528</ele>
        <time>2020-08-23T11:52:12Z</time>
      </trkpt>
      <trkpt lat="41.964899" lon="-0.030172">
        <ele>419.440</ele>
        <time>2020-08-23T11:52:13Z</time>
      </trkpt>
      <trkpt lat="41.964911" lon="-0.030240">
        <ele>419.321</ele>
        <time>2020-08-23T11:52:14Z</time>
      </trkpt>
      <trkpt lat="41.964925" lon="-0.030311">
        <ele>419.222</ele>
        <time>2020-08-23T11:52:15Z</time>
      </trkpt>
      <trkpt lat="41.964937" lon="-0.030380">
        <ele>419.058</ele>
        <time>2020-08-23T11:52:16Z</time>
      </trkpt>
      <trkpt lat="41.964953" lon="-0.030445">
        <ele>418.947</ele>
        <time>2020-08-23T11:52:17Z</time>
      </trkpt>
      <trkpt lat="41.964971" lon="-0.030510">
        <ele>418.775</ele>
        <time>2020-08-23T11:52:18Z</time>
      </trkpt>
      <trkpt lat="41.964982" lon="-0.030573">
        <ele>418.528</ele>
        <time>2020-08-23T11:52:19Z</time>
      </trkpt>
      <trkpt lat="41.964996" lon="-0.030644">
        <ele>418.420</ele>
        <time>2020-08-23T11:52:20Z</time>
      </trkpt>
      <trkpt lat="41.965011" lon="-0.030719">
        <ele>418.408</ele>
        <time>2020-08-23T11:52:21Z</time>
      </trkpt>
      <trkpt lat="41.965028" lon="-0.030789">
        <ele>418.292</ele>
        <time>2020-08-23T11:52:22Z</time>
      </trkpt>
      <trkpt lat="41.965043" lon="-0.030857">
        <ele>418.192</ele>
        <time>2020-08-23T11:52:23Z</time>
      </trkpt>
      <trkpt lat="41.965064" lon="-0.030921">
        <ele>418.130</ele>
        <time>2020-08-23T11:52:24Z</time>
      </trkpt>
      <trkpt lat="41.965091" lon="-0.030980">
        <ele>418.032</ele>
        <time>2020-08-23T11:52:25Z</time>
      </trkpt>
      <trkpt lat="41.965115" lon="-0.031041">
        <ele>417.923</ele>
        <time>2020-08-23T11:52:26Z</time>
      </trkpt>
      <trkpt lat="41.965136" lon="-0.031106">
        <ele>417.834</ele>
        <time>2020-08-23T11:52:27Z</time>
      </trkpt>
      <trkpt lat="41.965155" lon="-0.031169">
        <ele>417.740</ele>
        <time>2020-08-23T11:52:28Z</time>
      </trkpt>
      <trkpt lat="41.965171" lon="-0.031235">
        <ele>417.579</ele>
        <time>2020-08-23T11:52:29Z</time>
      </trkpt>
      <trkpt lat="41.965187" lon="-0.031303">
        <ele>417.465</ele>
        <time>2020-08-23T11:52:30Z</time>
      </trkpt>
      <trkpt lat="41.965203" lon="-0.031370">
        <ele>417.468</ele>
        <time>2020-08-23T11:52:31Z</time>
      </trkpt>
      <trkpt lat="41.965216" lon="-0.031440">
        <ele>417.314</ele>
        <time>2020-08-23T11:52:32Z</time>
      </trkpt>
      <trkpt lat="41.965229" lon="-0.031513">
        <ele>417.208</ele>
        <time>2020-08-23T11:52:33Z</time>
      </trkpt>
      <trkpt lat="41.965242" lon="-0.031587">
        <ele>417.181</ele>
        <time>2020-08-23T11:52:34Z</time>
      </trkpt>
      <trkpt lat="41.965255" lon="-0.031660">
        <ele>417.021</ele>
        <time>2020-08-23T11:52:35Z</time>
      </trkpt>
      <trkpt lat="41.965265" lon="-0.031731">
        <ele>416.739</ele>
        <time>2020-08-23T11:52:36Z</time>
      </trkpt>
      <trkpt lat="41.965276" lon="-0.031800">
        <ele>416.691</ele>
        <time>2020-08-23T11:52:37Z</time>
      </trkpt>
      <trkpt lat="41.965288" lon="-0.031870">
        <ele>416.532</ele>
        <time>2020-08-23T11:52:38Z</time>
      </trkpt>
      <trkpt lat="41.965298" lon="-0.031938">
        <ele>416.453</ele>
        <time>2020-08-23T11:52:39Z</time>
      </trkpt>
      <trkpt lat="41.965301" lon="-0.032009">
        <ele>416.399</ele>
        <time>2020-08-23T11:52:40Z</time>
      </trkpt>
      <trkpt lat="41.965305" lon="-0.032079">
        <ele>416.228</ele>
        <time>2020-08-23T11:52:41Z</time>
      </trkpt>
      <trkpt lat="41.965311" lon="-0.032145">
        <ele>416.127</ele>
        <time>2020-08-23T11:52:42Z</time>
      </trkpt>
      <trkpt lat="41.965320" lon="-0.032210">
        <ele>416.168</ele>
        <time>2020-08-23T11:52:43Z</time>
      </trkpt>
      <trkpt lat="41.965329" lon="-0.032277">
        <ele>416.114</ele>
        <time>2020-08-23T11:52:44Z</time>
      </trkpt>
      <trkpt lat="41.965340" lon="-0.032345">
        <ele>416.008</ele>
        <time>2020-08-23T11:52:45Z</time>
      </trkpt>
      <trkpt lat="41.965357" lon="-0.032409">
        <ele>415.937</ele>
        <time>2020-08-23T11:52:46Z</time>
      </trkpt>
      <trkpt lat="41.965375" lon="-0.032468">
        <ele>415.957</ele>
        <time>2020-08-23T11:52:47Z</time>
      </trkpt>
      <trkpt lat="41.965398" lon="-0.032523">
        <ele>415.845</ele>
        <time>2020-08-23T11:52:48Z</time>
      </trkpt>
      <trkpt lat="41.965419" lon="-0.032579">
        <ele>415.717</ele>
        <time>2020-08-23T11:52:49Z</time>
      </trkpt>
      <trkpt lat="41.965433" lon="-0.032641">
        <ele>415.658</ele>
        <time>2020-08-23T11:52:50Z</time>
      </trkpt>
      <trkpt lat="41.965452" lon="-0.032703">
        <ele>415.689</ele>
        <time>2020-08-23T11:52:51Z</time>
      </trkpt>
      <trkpt lat="41.965469" lon="-0.032763">
        <ele>415.595</ele>
        <time>2020-08-23T11:52:52Z</time>
      </trkpt>
      <trkpt lat="41.965485" lon="-0.032873">
        <ele>415.434</ele>
        <time>2020-08-23T11:52:54Z</time>
      </trkpt>
      <trkpt lat="41.965511" lon="-0.032985">
        <ele>415.455</ele>
        <time>2020-08-23T11:52:56Z</time>
      </trkpt>
      <trkpt lat="41.965536" lon="-0.033091">
        <ele>415.207</ele>
        <time>2020-08-23T11:52:58Z</time>
      </trkpt>
      <trkpt lat="41.965568" lon="-0.033189">
        <ele>414.917</ele>
        <time>2020-08-23T11:53:00Z</time>
      </trkpt>
      <trkpt lat="41.965585" lon="-0.033302">
        <ele>414.808</ele>
        <time>2020-08-23T11:53:02Z</time>
      </trkpt>
      <trkpt lat="41.965603" lon="-0.033359">
        <ele>414.840</ele>
        <time>2020-08-23T11:53:03Z</time>
      </trkpt>
      <trkpt lat="41.965620" lon="-0.033415">
        <ele>414.870</ele>
        <time>2020-08-23T11:53:04Z</time>
      </trkpt>
      <trkpt lat="41.965653" lon="-0.033530">
        <ele>414.728</ele>
        <time>2020-08-23T11:53:06Z</time>
      </trkpt>
      <trkpt lat="41.965673" lon="-0.033589">
        <ele>414.770</ele>
        <time>2020-08-23T11:53:07Z</time>
      </trkpt>
      <trkpt lat="41.965717" lon="-0.033691">
        <ele>414.481</ele>
        <time>2020-08-23T11:53:09Z</time>
      </trkpt>
      <trkpt lat="41.965765" lon="-0.033791">
        <ele>414.242</ele>
        <time>2020-08-23T11:53:11Z</time>
      </trkpt>
      <trkpt lat="41.965806" lon="-0.033899">
        <ele>414.398</ele>
        <time>2020-08-23T11:53:13Z</time>
      </trkpt>
      <trkpt lat="41.965839" lon="-0.034007">
        <ele>414.457</ele>
        <time>2020-08-23T11:53:15Z</time>
      </trkpt>
      <trkpt lat="41.965874" lon="-0.034116">
        <ele>414.311</ele>
        <time>2020-08-23T11:53:17Z</time>
      </trkpt>
      <trkpt lat="41.965906" lon="-0.034222">
        <ele>414.121</ele>
        <time>2020-08-23T11:53:19Z</time>
      </trkpt>
      <trkpt lat="41.965941" lon="-0.034329">
        <ele>414.003</ele>
        <time>2020-08-23T11:53:21Z</time>
      </trkpt>
      <trkpt lat="41.965962" lon="-0.034436">
        <ele>414.108</ele>
        <time>2020-08-23T11:53:23Z</time>
      </trkpt>
      <trkpt lat="41.965954" lon="-0.034541">
        <ele>414.216</ele>
        <time>2020-08-23T11:53:25Z</time>
      </trkpt>
      <trkpt lat="41.965960" lon="-0.034649">
        <ele>414.226</ele>
        <time>2020-08-23T11:53:27Z</time>
      </trkpt>
      <trkpt lat="41.965982" lon="-0.034751">
        <ele>414.184</ele>
        <time>2020-08-23T11:53:29Z</time>
      </trkpt>
      <trkpt lat="41.966009" lon="-0.034847">
        <ele>414.166</ele>
        <time>2020-08-23T11:53:31Z</time>
      </trkpt>
      <trkpt lat="41.966023" lon="-0.034941">
        <ele>414.227</ele>
        <time>2020-08-23T11:53:33Z</time>
      </trkpt>
      <trkpt lat="41.966046" lon="-0.035035">
        <ele>414.358</ele>
        <time>2020-08-23T11:53:35Z</time>
      </trkpt>
      <trkpt lat="41.966070" lon="-0.035123">
        <ele>414.414</ele>
        <time>2020-08-23T11:53:37Z</time>
      </trkpt>
      <trkpt lat="41.966110" lon="-0.035206">
        <ele>414.663</ele>
        <time>2020-08-23T11:53:39Z</time>
      </trkpt>
      <trkpt lat="41.966137" lon="-0.035291">
        <ele>414.783</ele>
        <time>2020-08-23T11:53:41Z</time>
      </trkpt>
      <trkpt lat="41.966162" lon="-0.035380">
        <ele>414.825</ele>
        <time>2020-08-23T11:53:43Z</time>
      </trkpt>
      <trkpt lat="41.966190" lon="-0.035461">
        <ele>414.917</ele>
        <time>2020-08-23T11:53:45Z</time>
      </trkpt>
      <trkpt lat="41.966207" lon="-0.035552">
        <ele>415.008</ele>
        <time>2020-08-23T11:53:47Z</time>
      </trkpt>
      <trkpt lat="41.966224" lon="-0.035642">
        <ele>415.053</ele>
        <time>2020-08-23T11:53:49Z</time>
      </trkpt>
      <trkpt lat="41.966233" lon="-0.035743">
        <ele>415.023</ele>
        <time>2020-08-23T11:53:51Z</time>
      </trkpt>
      <trkpt lat="41.966251" lon="-0.035836">
        <ele>415.041</ele>
        <time>2020-08-23T11:53:53Z</time>
      </trkpt>
      <trkpt lat="41.966289" lon="-0.035930">
        <ele>414.963</ele>
        <time>2020-08-23T11:53:55Z</time>
      </trkpt>
      <trkpt lat="41.966325" lon="-0.036020">
        <ele>414.914</ele>
        <time>2020-08-23T11:53:57Z</time>
      </trkpt>
      <trkpt lat="41.966361" lon="-0.036111">
        <ele>415.015</ele>
        <time>2020-08-23T11:53:59Z</time>
      </trkpt>
      <trkpt lat="41.966396" lon="-0.036198">
        <ele>415.241</ele>
        <time>2020-08-23T11:54:01Z</time>
      </trkpt>
      <trkpt lat="41.966419" lon="-0.036290">
        <ele>415.490</ele>
        <time>2020-08-23T11:54:03Z</time>
      </trkpt>
      <trkpt lat="41.966435" lon="-0.036386">
        <ele>415.449</ele>
        <time>2020-08-23T11:54:05Z</time>
      </trkpt>
      <trkpt lat="41.966454" lon="-0.036483">
        <ele>415.202</ele>
        <time>2020-08-23T11:54:07Z</time>
      </trkpt>
      <trkpt lat="41.966460" lon="-0.036585">
        <ele>415.222</ele>
        <time>2020-08-23T11:54:09Z</time>
      </trkpt>
      <trkpt lat="41.966462" lon="-0.036679">
        <ele>415.308</ele>
        <time>2020-08-23T11:54:11Z</time>
      </trkpt>
      <trkpt lat="41.966479" lon="-0.036776">
        <ele>415.319</ele>
        <time>2020-08-23T11:54:13Z</time>
      </trkpt>
      <trkpt lat="41.966490" lon="-0.036884">
        <ele>415.399</ele>
        <time>2020-08-23T11:54:15Z</time>
      </trkpt>
      <trkpt lat="41.966499" lon="-0.036977">
        <ele>415.397</ele>
        <time>2020-08-23T11:54:17Z</time>
      </trkpt>
      <trkpt lat="41.966518" lon="-0.037069">
        <ele>415.489</ele>
        <time>2020-08-23T11:54:19Z</time>
      </trkpt>
      <trkpt lat="41.966541" lon="-0.037163">
        <ele>415.550</ele>
        <time>2020-08-23T11:54:21Z</time>
      </trkpt>
      <trkpt lat="41.966562" lon="-0.037250">
        <ele>415.771</ele>
        <time>2020-08-23T11:54:23Z</time>
      </trkpt>
      <trkpt lat="41.966587" lon="-0.037339">
        <ele>415.787</ele>
        <time>2020-08-23T11:54:25Z</time>
      </trkpt>
      <trkpt lat="41.966609" lon="-0.037426">
        <ele>415.736</ele>
        <time>2020-08-23T11:54:27Z</time>
      </trkpt>
      <trkpt lat="41.966638" lon="-0.037507">
        <ele>415.843</ele>
        <time>2020-08-23T11:54:29Z</time>
      </trkpt>
      <trkpt lat="41.966655" lon="-0.037590">
        <ele>415.864</ele>
        <time>2020-08-23T11:54:31Z</time>
      </trkpt>
      <trkpt lat="41.966672" lon="-0.037672">
        <ele>415.910</ele>
        <time>2020-08-23T11:54:33Z</time>
      </trkpt>
      <trkpt lat="41.966698" lon="-0.037765">
        <ele>416.008</ele>
        <time>2020-08-23T11:54:35Z</time>
      </trkpt>
      <trkpt lat="41.966725" lon="-0.037851">
        <ele>416.049</ele>
        <time>2020-08-23T11:54:37Z</time>
      </trkpt>
      <trkpt lat="41.966750" lon="-0.037935">
        <ele>416.069</ele>
        <time>2020-08-23T11:54:39Z</time>
      </trkpt>
      <trkpt lat="41.966771" lon="-0.038033">
        <ele>416.067</ele>
        <time>2020-08-23T11:54:41Z</time>
      </trkpt>
      <trkpt lat="41.966789" lon="-0.038119">
        <ele>416.069</ele>
        <time>2020-08-23T11:54:43Z</time>
      </trkpt>
      <trkpt lat="41.966822" lon="-0.038215">
        <ele>416.040</ele>
        <time>2020-08-23T11:54:45Z</time>
      </trkpt>
      <trkpt lat="41.966845" lon="-0.038309">
        <ele>415.961</ele>
        <time>2020-08-23T11:54:47Z</time>
      </trkpt>
      <trkpt lat="41.966872" lon="-0.038394">
        <ele>415.967</ele>
        <time>2020-08-23T11:54:49Z</time>
      </trkpt>
      <trkpt lat="41.966897" lon="-0.038480">
        <ele>415.926</ele>
        <time>2020-08-23T11:54:51Z</time>
      </trkpt>
      <trkpt lat="41.966912" lon="-0.038572">
        <ele>415.999</ele>
        <time>2020-08-23T11:54:53Z</time>
      </trkpt>
      <trkpt lat="41.966931" lon="-0.038659">
        <ele>415.907</ele>
        <time>2020-08-23T11:54:55Z</time>
      </trkpt>
      <trkpt lat="41.966953" lon="-0.038746">
        <ele>416.027</ele>
        <time>2020-08-23T11:54:57Z</time>
      </trkpt>
      <trkpt lat="41.966980" lon="-0.038826">
        <ele>416.108</ele>
        <time>2020-08-23T11:54:59Z</time>
      </trkpt>
      <trkpt lat="41.967007" lon="-0.038898">
        <ele>416.174</ele>
        <time>2020-08-23T11:55:01Z</time>
      </trkpt>
      <trkpt lat="41.967033" lon="-0.038970">
        <ele>416.124</ele>
        <time>2020-08-23T11:55:03Z</time>
      </trkpt>
      <trkpt lat="41.967035" lon="-0.039038">
        <ele>416.032</ele>
        <time>2020-08-23T11:55:05Z</time>
      </trkpt>
      <trkpt lat="41.967027" lon="-0.039098">
        <ele>415.854</ele>
        <time>2020-08-23T11:55:34Z</time>
      </trkpt>
      <trkpt lat="41.967067" lon="-0.039057">
        <ele>415.735</ele>
        <time>2020-08-23T11:55:44Z</time>
      </trkpt>
      <trkpt lat="41.967042" lon="-0.039111">
        <ele>415.396</ele>
        <time>2020-08-23T11:56:13Z</time>
      </trkpt>
      <trkpt lat="41.967068" lon="-0.039061">
        <ele>415.842</ele>
        <time>2020-08-23T11:56:51Z</time>
      </trkpt>
      <trkpt lat="41.967074" lon="-0.039144">
        <ele>415.981</ele>
        <time>2020-08-23T12:00:48Z</time>
      </trkpt>
      <trkpt lat="41.967087" lon="-0.039218">
        <ele>415.955</ele>
        <time>2020-08-23T12:00:50Z</time>
      </trkpt>
      <trkpt lat="41.967095" lon="-0.039304">
        <ele>415.907</ele>
        <time>2020-08-23T12:00:52Z</time>
      </trkpt>
      <trkpt lat="41.967095" lon="-0.039397">
        <ele>415.817</ele>
        <time>2020-08-23T12:00:54Z</time>
      </trkpt>
      <trkpt lat="41.967098" lon="-0.039495">
        <ele>415.708</ele>
        <time>2020-08-23T12:00:56Z</time>
      </trkpt>
      <trkpt lat="41.967118" lon="-0.039594">
        <ele>415.650</ele>
        <time>2020-08-23T12:00:58Z</time>
      </trkpt>
      <trkpt lat="41.967130" lon="-0.039696">
        <ele>415.580</ele>
        <time>2020-08-23T12:01:00Z</time>
      </trkpt>
      <trkpt lat="41.967152" lon="-0.039802">
        <ele>415.338</ele>
        <time>2020-08-23T12:01:02Z</time>
      </trkpt>
      <trkpt lat="41.967172" lon="-0.039905">
        <ele>415.210</ele>
        <time>2020-08-23T12:01:04Z</time>
      </trkpt>
      <trkpt lat="41.967206" lon="-0.040012">
        <ele>415.131</ele>
        <time>2020-08-23T12:01:06Z</time>
      </trkpt>
      <trkpt lat="41.967244" lon="-0.040095">
        <ele>415.182</ele>
        <time>2020-08-23T12:01:08Z</time>
      </trkpt>
      <trkpt lat="41.967291" lon="-0.040174">
        <ele>415.178</ele>
        <time>2020-08-23T12:01:10Z</time>
      </trkpt>
      <trkpt lat="41.967325" lon="-0.040247">
        <ele>415.137</ele>
        <time>2020-08-23T12:01:12Z</time>
      </trkpt>
      <trkpt lat="41.967362" lon="-0.040341">
        <ele>415.177</ele>
        <time>2020-08-23T12:01:14Z</time>
      </trkpt>
      <trkpt lat="41.967400" lon="-0.040436">
        <ele>414.961</ele>
        <time>2020-08-23T12:01:16Z</time>
      </trkpt>
      <trkpt lat="41.967438" lon="-0.040520">
        <ele>414.627</ele>
        <time>2020-08-23T12:01:18Z</time>
      </trkpt>
      <trkpt lat="41.967481" lon="-0.040605">
        <ele>414.508</ele>
        <time>2020-08-23T12:01:20Z</time>
      </trkpt>
      <trkpt lat="41.967525" lon="-0.040707">
        <ele>414.462</ele>
        <time>2020-08-23T12:01:22Z</time>
      </trkpt>
      <trkpt lat="41.967562" lon="-0.040805">
        <ele>414.312</ele>
        <time>2020-08-23T12:01:24Z</time>
      </trkpt>
      <trkpt lat="41.967600" lon="-0.040899">
        <ele>414.220</ele>
        <time>2020-08-23T12:01:26Z</time>
      </trkpt>
      <trkpt lat="41.967638" lon="-0.040995">
        <ele>414.122</ele>
        <time>2020-08-23T12:01:28Z</time>
      </trkpt>
      <trkpt lat="41.967678" lon="-0.041050">
        <ele>414.053</ele>
        <time>2020-08-23T12:01:30Z</time>
      </trkpt>
      <trkpt lat="41.967708" lon="-0.041151">
        <ele>413.964</ele>
        <time>2020-08-23T12:01:32Z</time>
      </trkpt>
      <trkpt lat="41.967722" lon="-0.041210">
        <ele>413.940</ele>
        <time>2020-08-23T12:01:33Z</time>
      </trkpt>
      <trkpt lat="41.967751" lon="-0.041314">
        <ele>413.819</ele>
        <time>2020-08-23T12:01:35Z</time>
      </trkpt>
      <trkpt lat="41.967771" lon="-0.041430">
        <ele>413.889</ele>
        <time>2020-08-23T12:01:37Z</time>
      </trkpt>
      <trkpt lat="41.967791" lon="-0.041543">
        <ele>413.806</ele>
        <time>2020-08-23T12:01:39Z</time>
      </trkpt>
      <trkpt lat="41.967810" lon="-0.041631">
        <ele>413.826</ele>
        <time>2020-08-23T12:01:41Z</time>
      </trkpt>
      <trkpt lat="41.967832" lon="-0.041735">
        <ele>413.708</ele>
        <time>2020-08-23T12:01:43Z</time>
      </trkpt>
      <trkpt lat="41.967848" lon="-0.041844">
        <ele>413.683</ele>
        <time>2020-08-23T12:01:45Z</time>
      </trkpt>
      <trkpt lat="41.967863" lon="-0.041947">
        <ele>413.663</ele>
        <time>2020-08-23T12:01:47Z</time>
      </trkpt>
      <trkpt lat="41.967883" lon="-0.042051">
        <ele>413.691</ele>
        <time>2020-08-23T12:01:49Z</time>
      </trkpt>
      <trkpt lat="41.967890" lon="-0.042116">
        <ele>413.683</ele>
        <time>2020-08-23T12:01:50Z</time>
      </trkpt>
      <trkpt lat="41.967903" lon="-0.042226">
        <ele>413.584</ele>
        <time>2020-08-23T12:01:52Z</time>
      </trkpt>
      <trkpt lat="41.967914" lon="-0.042342">
        <ele>413.585</ele>
        <time>2020-08-23T12:01:54Z</time>
      </trkpt>
      <trkpt lat="41.967922" lon="-0.042402">
        <ele>413.491</ele>
        <time>2020-08-23T12:01:55Z</time>
      </trkpt>
      <trkpt lat="41.967950" lon="-0.042506">
        <ele>413.570</ele>
        <time>2020-08-23T12:01:57Z</time>
      </trkpt>
      <trkpt lat="41.967968" lon="-0.042603">
        <ele>413.633</ele>
        <time>2020-08-23T12:01:59Z</time>
      </trkpt>
      <trkpt lat="41.967971" lon="-0.042698">
        <ele>413.623</ele>
        <time>2020-08-23T12:02:01Z</time>
      </trkpt>
      <trkpt lat="41.967982" lon="-0.042812">
        <ele>413.615</ele>
        <time>2020-08-23T12:02:03Z</time>
      </trkpt>
      <trkpt lat="41.967985" lon="-0.042901">
        <ele>413.708</ele>
        <time>2020-08-23T12:02:05Z</time>
      </trkpt>
      <trkpt lat="41.967983" lon="-0.043000">
        <ele>413.918</ele>
        <time>2020-08-23T12:02:07Z</time>
      </trkpt>
      <trkpt lat="41.967987" lon="-0.043101">
        <ele>414.138</ele>
        <time>2020-08-23T12:02:09Z</time>
      </trkpt>
      <trkpt lat="41.967991" lon="-0.043210">
        <ele>414.166</ele>
        <time>2020-08-23T12:02:11Z</time>
      </trkpt>
      <trkpt lat="41.968004" lon="-0.043307">
        <ele>414.048</ele>
        <time>2020-08-23T12:02:13Z</time>
      </trkpt>
      <trkpt lat="41.968019" lon="-0.043406">
        <ele>414.019</ele>
        <time>2020-08-23T12:02:15Z</time>
      </trkpt>
      <trkpt lat="41.968025" lon="-0.043508">
        <ele>414.120</ele>
        <time>2020-08-23T12:02:17Z</time>
      </trkpt>
      <trkpt lat="41.968039" lon="-0.043618">
        <ele>414.236</ele>
        <time>2020-08-23T12:02:19Z</time>
      </trkpt>
      <trkpt lat="41.968063" lon="-0.043715">
        <ele>414.415</ele>
        <time>2020-08-23T12:02:21Z</time>
      </trkpt>
      <trkpt lat="41.968073" lon="-0.043828">
        <ele>414.572</ele>
        <time>2020-08-23T12:02:23Z</time>
      </trkpt>
      <trkpt lat="41.968069" lon="-0.043942">
        <ele>414.613</ele>
        <time>2020-08-23T12:02:25Z</time>
      </trkpt>
      <trkpt lat="41.968059" lon="-0.044034">
        <ele>414.714</ele>
        <time>2020-08-23T12:02:27Z</time>
      </trkpt>
      <trkpt lat="41.968067" lon="-0.044113">
        <ele>414.908</ele>
        <time>2020-08-23T12:02:29Z</time>
      </trkpt>
      <trkpt lat="41.968079" lon="-0.044190">
        <ele>415.112</ele>
        <time>2020-08-23T12:02:31Z</time>
      </trkpt>
      <trkpt lat="41.968095" lon="-0.044269">
        <ele>415.322</ele>
        <time>2020-08-23T12:02:33Z</time>
      </trkpt>
      <trkpt lat="41.968120" lon="-0.044358">
        <ele>415.410</ele>
        <time>2020-08-23T12:02:35Z</time>
      </trkpt>
      <trkpt lat="41.968138" lon="-0.044446">
        <ele>415.532</ele>
        <time>2020-08-23T12:02:37Z</time>
      </trkpt>
      <trkpt lat="41.968154" lon="-0.044530">
        <ele>415.583</ele>
        <time>2020-08-23T12:02:39Z</time>
      </trkpt>
      <trkpt lat="41.968172" lon="-0.044626">
        <ele>415.534</ele>
        <time>2020-08-23T12:02:41Z</time>
      </trkpt>
      <trkpt lat="41.968187" lon="-0.044694">
        <ele>415.560</ele>
        <time>2020-08-23T12:02:43Z</time>
      </trkpt>
      <trkpt lat="41.968201" lon="-0.044787">
        <ele>415.399</ele>
        <time>2020-08-23T12:02:46Z</time>
      </trkpt>
      <trkpt lat="41.968229" lon="-0.044834">
        <ele>415.178</ele>
        <time>2020-08-23T12:02:48Z</time>
      </trkpt>
      <trkpt lat="41.968265" lon="-0.044893">
        <ele>415.233</ele>
        <time>2020-08-23T12:02:50Z</time>
      </trkpt>
      <trkpt lat="41.968307" lon="-0.044963">
        <ele>415.526</ele>
        <time>2020-08-23T12:02:52Z</time>
      </trkpt>
      <trkpt lat="41.968342" lon="-0.045039">
        <ele>415.608</ele>
        <time>2020-08-23T12:02:54Z</time>
      </trkpt>
      <trkpt lat="41.968372" lon="-0.045122">
        <ele>415.562</ele>
        <time>2020-08-23T12:02:56Z</time>
      </trkpt>
      <trkpt lat="41.968407" lon="-0.045203">
        <ele>415.522</ele>
        <time>2020-08-23T12:02:58Z</time>
      </trkpt>
      <trkpt lat="41.968435" lon="-0.045279">
        <ele>415.680</ele>
        <time>2020-08-23T12:03:00Z</time>
      </trkpt>
      <trkpt lat="41.968459" lon="-0.045360">
        <ele>415.622</ele>
        <time>2020-08-23T12:03:02Z</time>
      </trkpt>
      <trkpt lat="41.968491" lon="-0.045442">
        <ele>415.693</ele>
        <time>2020-08-23T12:03:04Z</time>
      </trkpt>
      <trkpt lat="41.968538" lon="-0.045512">
        <ele>415.514</ele>
        <time>2020-08-23T12:03:06Z</time>
      </trkpt>
      <trkpt lat="41.968591" lon="-0.045585">
        <ele>415.530</ele>
        <time>2020-08-23T12:03:08Z</time>
      </trkpt>
      <trkpt lat="41.968663" lon="-0.045635">
        <ele>415.649</ele>
        <time>2020-08-23T12:03:10Z</time>
      </trkpt>
      <trkpt lat="41.968713" lon="-0.045686">
        <ele>415.817</ele>
        <time>2020-08-23T12:03:12Z</time>
      </trkpt>
      <trkpt lat="41.968765" lon="-0.045747">
        <ele>415.887</ele>
        <time>2020-08-23T12:03:14Z</time>
      </trkpt>
      <trkpt lat="41.968814" lon="-0.045822">
        <ele>415.815</ele>
        <time>2020-08-23T12:03:16Z</time>
      </trkpt>
      <trkpt lat="41.968849" lon="-0.045916">
        <ele>415.908</ele>
        <time>2020-08-23T12:03:18Z</time>
      </trkpt>
      <trkpt lat="41.968881" lon="-0.045990">
        <ele>416.196</ele>
        <time>2020-08-23T12:03:20Z</time>
      </trkpt>
      <trkpt lat="41.968924" lon="-0.046077">
        <ele>416.166</ele>
        <time>2020-08-23T12:03:22Z</time>
      </trkpt>
      <trkpt lat="41.968959" lon="-0.046144">
        <ele>416.164</ele>
        <time>2020-08-23T12:03:24Z</time>
      </trkpt>
      <trkpt lat="41.968981" lon="-0.046217">
        <ele>416.266</ele>
        <time>2020-08-23T12:03:26Z</time>
      </trkpt>
      <trkpt lat="41.969006" lon="-0.046277">
        <ele>416.357</ele>
        <time>2020-08-23T12:03:28Z</time>
      </trkpt>
      <trkpt lat="41.969035" lon="-0.046354">
        <ele>416.428</ele>
        <time>2020-08-23T12:03:30Z</time>
      </trkpt>
      <trkpt lat="41.969060" lon="-0.046437">
        <ele>416.414</ele>
        <time>2020-08-23T12:03:32Z</time>
      </trkpt>
      <trkpt lat="41.969070" lon="-0.046536">
        <ele>416.423</ele>
        <time>2020-08-23T12:03:34Z</time>
      </trkpt>
      <trkpt lat="41.969077" lon="-0.046629">
        <ele>416.417</ele>
        <time>2020-08-23T12:03:36Z</time>
      </trkpt>
      <trkpt lat="41.969084" lon="-0.046722">
        <ele>416.487</ele>
        <time>2020-08-23T12:03:38Z</time>
      </trkpt>
      <trkpt lat="41.969096" lon="-0.046812">
        <ele>416.415</ele>
        <time>2020-08-23T12:03:40Z</time>
      </trkpt>
      <trkpt lat="41.969110" lon="-0.046903">
        <ele>416.608</ele>
        <time>2020-08-23T12:03:42Z</time>
      </trkpt>
      <trkpt lat="41.969120" lon="-0.047002">
        <ele>416.886</ele>
        <time>2020-08-23T12:03:44Z</time>
      </trkpt>
      <trkpt lat="41.969137" lon="-0.047099">
        <ele>416.846</ele>
        <time>2020-08-23T12:03:46Z</time>
      </trkpt>
      <trkpt lat="41.969150" lon="-0.047194">
        <ele>416.854</ele>
        <time>2020-08-23T12:03:48Z</time>
      </trkpt>
      <trkpt lat="41.969156" lon="-0.047288">
        <ele>416.886</ele>
        <time>2020-08-23T12:03:50Z</time>
      </trkpt>
      <trkpt lat="41.969166" lon="-0.047377">
        <ele>416.927</ele>
        <time>2020-08-23T12:03:52Z</time>
      </trkpt>
      <trkpt lat="41.969175" lon="-0.047470">
        <ele>416.998</ele>
        <time>2020-08-23T12:03:54Z</time>
      </trkpt>
      <trkpt lat="41.969181" lon="-0.047569">
        <ele>417.084</ele>
        <time>2020-08-23T12:03:56Z</time>
      </trkpt>
      <trkpt lat="41.969195" lon="-0.047648">
        <ele>417.133</ele>
        <time>2020-08-23T12:03:58Z</time>
      </trkpt>
      <trkpt lat="41.969207" lon="-0.047729">
        <ele>417.154</ele>
        <time>2020-08-23T12:04:00Z</time>
      </trkpt>
      <trkpt lat="41.969217" lon="-0.047817">
        <ele>417.156</ele>
        <time>2020-08-23T12:04:02Z</time>
      </trkpt>
      <trkpt lat="41.969227" lon="-0.047911">
        <ele>417.211</ele>
        <time>2020-08-23T12:04:04Z</time>
      </trkpt>
      <trkpt lat="41.969237" lon="-0.047994">
        <ele>417.208</ele>
        <time>2020-08-23T12:04:06Z</time>
      </trkpt>
      <trkpt lat="41.969244" lon="-0.048080">
        <ele>417.340</ele>
        <time>2020-08-23T12:04:08Z</time>
      </trkpt>
      <trkpt lat="41.969255" lon="-0.048164">
        <ele>417.460</ele>
        <time>2020-08-23T12:04:10Z</time>
      </trkpt>
      <trkpt lat="41.969259" lon="-0.048235">
        <ele>417.418</ele>
        <time>2020-08-23T12:04:12Z</time>
      </trkpt>
      <trkpt lat="41.969271" lon="-0.048324">
        <ele>417.470</ele>
        <time>2020-08-23T12:04:14Z</time>
      </trkpt>
      <trkpt lat="41.969272" lon="-0.048410">
        <ele>417.421</ele>
        <time>2020-08-23T12:04:16Z</time>
      </trkpt>
      <trkpt lat="41.969283" lon="-0.048498">
        <ele>417.412</ele>
        <time>2020-08-23T12:04:18Z</time>
      </trkpt>
      <trkpt lat="41.969304" lon="-0.048575">
        <ele>417.468</ele>
        <time>2020-08-23T12:04:20Z</time>
      </trkpt>
      <trkpt lat="41.969323" lon="-0.048666">
        <ele>417.337</ele>
        <time>2020-08-23T12:04:22Z</time>
      </trkpt>
      <trkpt lat="41.969343" lon="-0.048760">
        <ele>417.321</ele>
        <time>2020-08-23T12:04:24Z</time>
      </trkpt>
      <trkpt lat="41.969360" lon="-0.048821">
        <ele>417.041</ele>
        <time>2020-08-23T12:04:29Z</time>
      </trkpt>
      <trkpt lat="41.969346" lon="-0.048879">
        <ele>416.805</ele>
        <time>2020-08-23T12:04:35Z</time>
      </trkpt>
      <trkpt lat="41.969291" lon="-0.048947">
        <ele>416.708</ele>
        <time>2020-08-23T12:04:37Z</time>
      </trkpt>
      <trkpt lat="41.969258" lon="-0.049027">
        <ele>416.777</ele>
        <time>2020-08-23T12:04:39Z</time>
      </trkpt>
      <trkpt lat="41.969256" lon="-0.049091">
        <ele>417.097</ele>
        <time>2020-08-23T12:04:41Z</time>
      </trkpt>
      <trkpt lat="41.969266" lon="-0.049154">
        <ele>417.265</ele>
        <time>2020-08-23T12:04:43Z</time>
      </trkpt>
      <trkpt lat="41.969268" lon="-0.049235">
        <ele>417.287</ele>
        <time>2020-08-23T12:04:45Z</time>
      </trkpt>
      <trkpt lat="41.969269" lon="-0.049305">
        <ele>417.278</ele>
        <time>2020-08-23T12:04:47Z</time>
      </trkpt>
      <trkpt lat="41.969267" lon="-0.049370">
        <ele>417.279</ele>
        <time>2020-08-23T12:04:49Z</time>
      </trkpt>
      <trkpt lat="41.969280" lon="-0.049441">
        <ele>416.925</ele>
        <time>2020-08-23T12:04:57Z</time>
      </trkpt>
      <trkpt lat="41.969284" lon="-0.049506">
        <ele>417.144</ele>
        <time>2020-08-23T12:04:59Z</time>
      </trkpt>
      <trkpt lat="41.969290" lon="-0.049575">
        <ele>417.343</ele>
        <time>2020-08-23T12:05:01Z</time>
      </trkpt>
      <trkpt lat="41.969293" lon="-0.049651">
        <ele>417.564</ele>
        <time>2020-08-23T12:05:03Z</time>
      </trkpt>
      <trkpt lat="41.969303" lon="-0.049735">
        <ele>417.710</ele>
        <time>2020-08-23T12:05:05Z</time>
      </trkpt>
      <trkpt lat="41.969317" lon="-0.049826">
        <ele>417.808</ele>
        <time>2020-08-23T12:05:07Z</time>
      </trkpt>
      <trkpt lat="41.969332" lon="-0.049931">
        <ele>417.869</ele>
        <time>2020-08-23T12:05:09Z</time>
      </trkpt>
      <trkpt lat="41.969346" lon="-0.050024">
        <ele>417.669</ele>
        <time>2020-08-23T12:05:11Z</time>
      </trkpt>
      <trkpt lat="41.969352" lon="-0.050107">
        <ele>417.687</ele>
        <time>2020-08-23T12:05:13Z</time>
      </trkpt>
      <trkpt lat="41.969356" lon="-0.050191">
        <ele>417.639</ele>
        <time>2020-08-23T12:05:15Z</time>
      </trkpt>
      <trkpt lat="41.969358" lon="-0.050277">
        <ele>417.710</ele>
        <time>2020-08-23T12:05:17Z</time>
      </trkpt>
      <trkpt lat="41.969367" lon="-0.050367">
        <ele>417.881</ele>
        <time>2020-08-23T12:05:19Z</time>
      </trkpt>
      <trkpt lat="41.969385" lon="-0.050451">
        <ele>417.957</ele>
        <time>2020-08-23T12:05:21Z</time>
      </trkpt>
      <trkpt lat="41.969395" lon="-0.050547">
        <ele>418.076</ele>
        <time>2020-08-23T12:05:23Z</time>
      </trkpt>
      <trkpt lat="41.969423" lon="-0.050637">
        <ele>418.012</ele>
        <time>2020-08-23T12:05:25Z</time>
      </trkpt>
      <trkpt lat="41.969434" lon="-0.050728">
        <ele>417.932</ele>
        <time>2020-08-23T12:05:27Z</time>
      </trkpt>
      <trkpt lat="41.969442" lon="-0.050827">
        <ele>417.905</ele>
        <time>2020-08-23T12:05:29Z</time>
      </trkpt>
      <trkpt lat="41.969447" lon="-0.050919">
        <ele>418.008</ele>
        <time>2020-08-23T12:05:31Z</time>
      </trkpt>
      <trkpt lat="41.969450" lon="-0.051009">
        <ele>418.066</ele>
        <time>2020-08-23T12:05:33Z</time>
      </trkpt>
      <trkpt lat="41.969454" lon="-0.051092">
        <ele>418.016</ele>
        <time>2020-08-23T12:05:35Z</time>
      </trkpt>
      <trkpt lat="41.969464" lon="-0.051176">
        <ele>417.914</ele>
        <time>2020-08-23T12:05:37Z</time>
      </trkpt>
      <trkpt lat="41.969472" lon="-0.051266">
        <ele>417.836</ele>
        <time>2020-08-23T12:05:39Z</time>
      </trkpt>
      <trkpt lat="41.969488" lon="-0.051345">
        <ele>417.827</ele>
        <time>2020-08-23T12:05:41Z</time>
      </trkpt>
      <trkpt lat="41.969507" lon="-0.051426">
        <ele>417.888</ele>
        <time>2020-08-23T12:05:43Z</time>
      </trkpt>
      <trkpt lat="41.969530" lon="-0.051515">
        <ele>417.964</ele>
        <time>2020-08-23T12:05:45Z</time>
      </trkpt>
      <trkpt lat="41.969550" lon="-0.051604">
        <ele>418.053</ele>
        <time>2020-08-23T12:05:47Z</time>
      </trkpt>
      <trkpt lat="41.969566" lon="-0.051681">
        <ele>418.017</ele>
        <time>2020-08-23T12:05:49Z</time>
      </trkpt>
      <trkpt lat="41.969584" lon="-0.051741">
        <ele>418.087</ele>
        <time>2020-08-23T12:05:51Z</time>
      </trkpt>
      <trkpt lat="41.969633" lon="-0.051754">
        <ele>417.515</ele>
        <time>2020-08-23T12:06:02Z</time>
      </trkpt>
      <trkpt lat="41.969687" lon="-0.051749">
        <ele>417.708</ele>
        <time>2020-08-23T12:06:07Z</time>
      </trkpt>
      <trkpt lat="41.969729" lon="-0.051815">
        <ele>417.946</ele>
        <time>2020-08-23T12:06:10Z</time>
      </trkpt>
      <trkpt lat="41.969753" lon="-0.051881">
        <ele>417.916</ele>
        <time>2020-08-23T12:06:12Z</time>
      </trkpt>
      <trkpt lat="41.969779" lon="-0.051964">
        <ele>417.924</ele>
        <time>2020-08-23T12:06:14Z</time>
      </trkpt>
      <trkpt lat="41.969804" lon="-0.052054">
        <ele>417.846</ele>
        <time>2020-08-23T12:06:16Z</time>
      </trkpt>
      <trkpt lat="41.969840" lon="-0.052140">
        <ele>417.577</ele>
        <time>2020-08-23T12:06:18Z</time>
      </trkpt>
      <trkpt lat="41.969877" lon="-0.052226">
        <ele>417.258</ele>
        <time>2020-08-23T12:06:20Z</time>
      </trkpt>
      <trkpt lat="41.969909" lon="-0.052306">
        <ele>417.174</ele>
        <time>2020-08-23T12:06:22Z</time>
      </trkpt>
      <trkpt lat="41.969943" lon="-0.052383">
        <ele>417.163</ele>
        <time>2020-08-23T12:06:24Z</time>
      </trkpt>
      <trkpt lat="41.969981" lon="-0.052448">
        <ele>417.093</ele>
        <time>2020-08-23T12:06:26Z</time>
      </trkpt>
      <trkpt lat="41.970017" lon="-0.052528">
        <ele>416.965</ele>
        <time>2020-08-23T12:06:28Z</time>
      </trkpt>
      <trkpt lat="41.970046" lon="-0.052584">
        <ele>416.921</ele>
        <time>2020-08-23T12:06:29Z</time>
      </trkpt>
      <trkpt lat="41.970082" lon="-0.052664">
        <ele>417.008</ele>
        <time>2020-08-23T12:06:31Z</time>
      </trkpt>
      <trkpt lat="41.970120" lon="-0.052749">
        <ele>417.194</ele>
        <time>2020-08-23T12:06:33Z</time>
      </trkpt>
      <trkpt lat="41.970156" lon="-0.052835">
        <ele>417.234</ele>
        <time>2020-08-23T12:06:35Z</time>
      </trkpt>
      <trkpt lat="41.970187" lon="-0.052922">
        <ele>417.392</ele>
        <time>2020-08-23T12:06:37Z</time>
      </trkpt>
      <trkpt lat="41.970215" lon="-0.052986">
        <ele>417.474</ele>
        <time>2020-08-23T12:06:39Z</time>
      </trkpt>
      <trkpt lat="41.970250" lon="-0.053064">
        <ele>417.625</ele>
        <time>2020-08-23T12:06:41Z</time>
      </trkpt>
      <trkpt lat="41.970294" lon="-0.053145">
        <ele>417.816</ele>
        <time>2020-08-23T12:06:43Z</time>
      </trkpt>
      <trkpt lat="41.970306" lon="-0.053226">
        <ele>417.942</ele>
        <time>2020-08-23T12:06:45Z</time>
      </trkpt>
      <trkpt lat="41.970328" lon="-0.053305">
        <ele>418.181</ele>
        <time>2020-08-23T12:06:47Z</time>
      </trkpt>
      <trkpt lat="41.970356" lon="-0.053388">
        <ele>418.369</ele>
        <time>2020-08-23T12:06:49Z</time>
      </trkpt>
      <trkpt lat="41.970378" lon="-0.053474">
        <ele>418.404</ele>
        <time>2020-08-23T12:06:51Z</time>
      </trkpt>
      <trkpt lat="41.970384" lon="-0.053565">
        <ele>418.424</ele>
        <time>2020-08-23T12:06:53Z</time>
      </trkpt>
      <trkpt lat="41.970399" lon="-0.053658">
        <ele>418.408</ele>
        <time>2020-08-23T12:06:55Z</time>
      </trkpt>
      <trkpt lat="41.970417" lon="-0.053756">
        <ele>418.591</ele>
        <time>2020-08-23T12:06:57Z</time>
      </trkpt>
      <trkpt lat="41.970434" lon="-0.053838">
        <ele>418.611</ele>
        <time>2020-08-23T12:06:59Z</time>
      </trkpt>
      <trkpt lat="41.970443" lon="-0.053928">
        <ele>418.729</ele>
        <time>2020-08-23T12:07:01Z</time>
      </trkpt>
      <trkpt lat="41.970448" lon="-0.054011">
        <ele>418.851</ele>
        <time>2020-08-23T12:07:03Z</time>
      </trkpt>
      <trkpt lat="41.970453" lon="-0.054104">
        <ele>418.872</ele>
        <time>2020-08-23T12:07:05Z</time>
      </trkpt>
      <trkpt lat="41.970447" lon="-0.054200">
        <ele>418.963</ele>
        <time>2020-08-23T12:07:07Z</time>
      </trkpt>
      <trkpt lat="41.970449" lon="-0.054293">
        <ele>418.959</ele>
        <time>2020-08-23T12:07:09Z</time>
      </trkpt>
      <trkpt lat="41.970461" lon="-0.054373">
        <ele>419.068</ele>
        <time>2020-08-23T12:07:11Z</time>
      </trkpt>
      <trkpt lat="41.970476" lon="-0.054449">
        <ele>419.249</ele>
        <time>2020-08-23T12:07:13Z</time>
      </trkpt>
      <trkpt lat="41.970488" lon="-0.054537">
        <ele>419.202</ele>
        <time>2020-08-23T12:07:15Z</time>
      </trkpt>
      <trkpt lat="41.970508" lon="-0.054629">
        <ele>419.022</ele>
        <time>2020-08-23T12:07:17Z</time>
      </trkpt>
      <trkpt lat="41.970522" lon="-0.054723">
        <ele>418.908</ele>
        <time>2020-08-23T12:07:19Z</time>
      </trkpt>
      <trkpt lat="41.970539" lon="-0.054807">
        <ele>419.019</ele>
        <time>2020-08-23T12:07:21Z</time>
      </trkpt>
      <trkpt lat="41.970549" lon="-0.054905">
        <ele>419.049</ele>
        <time>2020-08-23T12:07:23Z</time>
      </trkpt>
      <trkpt lat="41.970566" lon="-0.054993">
        <ele>419.067</ele>
        <time>2020-08-23T12:07:25Z</time>
      </trkpt>
      <trkpt lat="41.970580" lon="-0.055086">
        <ele>419.049</ele>
        <time>2020-08-23T12:07:27Z</time>
      </trkpt>
      <trkpt lat="41.970589" lon="-0.055172">
        <ele>419.080</ele>
        <time>2020-08-23T12:07:29Z</time>
      </trkpt>
      <trkpt lat="41.970597" lon="-0.055269">
        <ele>419.111</ele>
        <time>2020-08-23T12:07:31Z</time>
      </trkpt>
      <trkpt lat="41.970608" lon="-0.055368">
        <ele>419.227</ele>
        <time>2020-08-23T12:07:33Z</time>
      </trkpt>
      <trkpt lat="41.970612" lon="-0.055460">
        <ele>419.336</ele>
        <time>2020-08-23T12:07:35Z</time>
      </trkpt>
      <trkpt lat="41.970628" lon="-0.055547">
        <ele>419.335</ele>
        <time>2020-08-23T12:07:37Z</time>
      </trkpt>
      <trkpt lat="41.970638" lon="-0.055624">
        <ele>419.386</ele>
        <time>2020-08-23T12:07:39Z</time>
      </trkpt>
      <trkpt lat="41.970648" lon="-0.055728">
        <ele>419.314</ele>
        <time>2020-08-23T12:07:41Z</time>
      </trkpt>
      <trkpt lat="41.970652" lon="-0.055821">
        <ele>419.308</ele>
        <time>2020-08-23T12:07:43Z</time>
      </trkpt>
      <trkpt lat="41.970670" lon="-0.055925">
        <ele>419.368</ele>
        <time>2020-08-23T12:07:45Z</time>
      </trkpt>
      <trkpt lat="41.970674" lon="-0.056016">
        <ele>419.388</ele>
        <time>2020-08-23T12:07:47Z</time>
      </trkpt>
      <trkpt lat="41.970684" lon="-0.056098">
        <ele>419.326</ele>
        <time>2020-08-23T12:07:49Z</time>
      </trkpt>
      <trkpt lat="41.970693" lon="-0.056196">
        <ele>419.378</ele>
        <time>2020-08-23T12:07:51Z</time>
      </trkpt>
      <trkpt lat="41.970702" lon="-0.056308">
        <ele>419.359</ele>
        <time>2020-08-23T12:07:53Z</time>
      </trkpt>
      <trkpt lat="41.970713" lon="-0.056415">
        <ele>419.330</ele>
        <time>2020-08-23T12:07:55Z</time>
      </trkpt>
      <trkpt lat="41.970729" lon="-0.056508">
        <ele>419.236</ele>
        <time>2020-08-23T12:07:57Z</time>
      </trkpt>
      <trkpt lat="41.970744" lon="-0.056599">
        <ele>419.135</ele>
        <time>2020-08-23T12:07:59Z</time>
      </trkpt>
      <trkpt lat="41.970757" lon="-0.056696">
        <ele>419.098</ele>
        <time>2020-08-23T12:08:01Z</time>
      </trkpt>
      <trkpt lat="41.970770" lon="-0.056794">
        <ele>419.115</ele>
        <time>2020-08-23T12:08:03Z</time>
      </trkpt>
      <trkpt lat="41.970787" lon="-0.056879">
        <ele>419.226</ele>
        <time>2020-08-23T12:08:05Z</time>
      </trkpt>
      <trkpt lat="41.970795" lon="-0.056954">
        <ele>419.208</ele>
        <time>2020-08-23T12:08:07Z</time>
      </trkpt>
      <trkpt lat="41.970799" lon="-0.057033">
        <ele>419.194</ele>
        <time>2020-08-23T12:08:09Z</time>
      </trkpt>
      <trkpt lat="41.970798" lon="-0.057103">
        <ele>419.384</ele>
        <time>2020-08-23T12:08:11Z</time>
      </trkpt>
      <trkpt lat="41.970806" lon="-0.057197">
        <ele>419.432</ele>
        <time>2020-08-23T12:08:13Z</time>
      </trkpt>
      <trkpt lat="41.970816" lon="-0.057286">
        <ele>419.424</ele>
        <time>2020-08-23T12:08:15Z</time>
      </trkpt>
      <trkpt lat="41.970822" lon="-0.057373">
        <ele>419.595</ele>
        <time>2020-08-23T12:08:17Z</time>
      </trkpt>
      <trkpt lat="41.970833" lon="-0.057465">
        <ele>419.536</ele>
        <time>2020-08-23T12:08:19Z</time>
      </trkpt>
      <trkpt lat="41.970847" lon="-0.057555">
        <ele>419.562</ele>
        <time>2020-08-23T12:08:21Z</time>
      </trkpt>
      <trkpt lat="41.970857" lon="-0.057647">
        <ele>419.471</ele>
        <time>2020-08-23T12:08:23Z</time>
      </trkpt>
      <trkpt lat="41.970862" lon="-0.057725">
        <ele>419.454</ele>
        <time>2020-08-23T12:08:25Z</time>
      </trkpt>
      <trkpt lat="41.970871" lon="-0.057819">
        <ele>419.456</ele>
        <time>2020-08-23T12:08:27Z</time>
      </trkpt>
      <trkpt lat="41.970866" lon="-0.057914">
        <ele>419.311</ele>
        <time>2020-08-23T12:08:29Z</time>
      </trkpt>
      <trkpt lat="41.970879" lon="-0.058000">
        <ele>419.208</ele>
        <time>2020-08-23T12:08:31Z</time>
      </trkpt>
      <trkpt lat="41.970889" lon="-0.058079">
        <ele>419.250</ele>
        <time>2020-08-23T12:08:33Z</time>
      </trkpt>
      <trkpt lat="41.970902" lon="-0.058167">
        <ele>419.360</ele>
        <time>2020-08-23T12:08:35Z</time>
      </trkpt>
      <trkpt lat="41.970906" lon="-0.058256">
        <ele>419.428</ele>
        <time>2020-08-23T12:08:37Z</time>
      </trkpt>
      <trkpt lat="41.970907" lon="-0.058342">
        <ele>419.610</ele>
        <time>2020-08-23T12:08:39Z</time>
      </trkpt>
      <trkpt lat="41.970912" lon="-0.058417">
        <ele>419.631</ele>
        <time>2020-08-23T12:08:41Z</time>
      </trkpt>
      <trkpt lat="41.970922" lon="-0.058493">
        <ele>419.722</ele>
        <time>2020-08-23T12:08:43Z</time>
      </trkpt>
      <trkpt lat="41.970912" lon="-0.058565">
        <ele>419.788</ele>
        <time>2020-08-23T12:08:45Z</time>
      </trkpt>
      <trkpt lat="41.970915" lon="-0.058663">
        <ele>419.647</ele>
        <time>2020-08-23T12:08:48Z</time>
      </trkpt>
      <trkpt lat="41.970923" lon="-0.058728">
        <ele>419.516</ele>
        <time>2020-08-23T12:08:50Z</time>
      </trkpt>
      <trkpt lat="41.970917" lon="-0.058792">
        <ele>419.476</ele>
        <time>2020-08-23T12:08:52Z</time>
      </trkpt>
      <trkpt lat="41.970932" lon="-0.058869">
        <ele>419.413</ele>
        <time>2020-08-23T12:08:54Z</time>
      </trkpt>
      <trkpt lat="41.970950" lon="-0.058945">
        <ele>419.508</ele>
        <time>2020-08-23T12:08:56Z</time>
      </trkpt>
      <trkpt lat="41.970969" lon="-0.059018">
        <ele>419.636</ele>
        <time>2020-08-23T12:08:58Z</time>
      </trkpt>
      <trkpt lat="41.970994" lon="-0.059118">
        <ele>419.656</ele>
        <time>2020-08-23T12:09:00Z</time>
      </trkpt>
      <trkpt lat="41.971004" lon="-0.059192">
        <ele>419.564</ele>
        <time>2020-08-23T12:09:02Z</time>
      </trkpt>
      <trkpt lat="41.971024" lon="-0.059272">
        <ele>419.466</ele>
        <time>2020-08-23T12:09:04Z</time>
      </trkpt>
      <trkpt lat="41.971028" lon="-0.059360">
        <ele>419.447</ele>
        <time>2020-08-23T12:09:06Z</time>
      </trkpt>
      <trkpt lat="41.971034" lon="-0.059442">
        <ele>419.448</ele>
        <time>2020-08-23T12:09:08Z</time>
      </trkpt>
      <trkpt lat="41.971052" lon="-0.059516">
        <ele>419.424</ele>
        <time>2020-08-23T12:09:10Z</time>
      </trkpt>
      <trkpt lat="41.971066" lon="-0.059594">
        <ele>419.563</ele>
        <time>2020-08-23T12:09:12Z</time>
      </trkpt>
      <trkpt lat="41.971074" lon="-0.059675">
        <ele>419.673</ele>
        <time>2020-08-23T12:09:14Z</time>
      </trkpt>
      <trkpt lat="41.971082" lon="-0.059762">
        <ele>419.685</ele>
        <time>2020-08-23T12:09:16Z</time>
      </trkpt>
      <trkpt lat="41.971088" lon="-0.059836">
        <ele>419.613</ele>
        <time>2020-08-23T12:09:18Z</time>
      </trkpt>
      <trkpt lat="41.971084" lon="-0.059907">
        <ele>419.708</ele>
        <time>2020-08-23T12:09:20Z</time>
      </trkpt>
      <trkpt lat="41.971068" lon="-0.059972">
        <ele>419.852</ele>
        <time>2020-08-23T12:09:22Z</time>
      </trkpt>
      <trkpt lat="41.971058" lon="-0.060033">
        <ele>419.862</ele>
        <time>2020-08-23T12:09:24Z</time>
      </trkpt>
      <trkpt lat="41.971083" lon="-0.060104">
        <ele>419.610</ele>
        <time>2020-08-23T12:09:36Z</time>
      </trkpt>
      <trkpt lat="41.971117" lon="-0.060154">
        <ele>419.732</ele>
        <time>2020-08-23T12:09:39Z</time>
      </trkpt>
      <trkpt lat="41.971151" lon="-0.060203">
        <ele>419.883</ele>
        <time>2020-08-23T12:09:42Z</time>
      </trkpt>
      <trkpt lat="41.971176" lon="-0.060268">
        <ele>419.914</ele>
        <time>2020-08-23T12:09:45Z</time>
      </trkpt>
      <trkpt lat="41.971196" lon="-0.060337">
        <ele>420.110</ele>
        <time>2020-08-23T12:09:48Z</time>
      </trkpt>
      <trkpt lat="41.971220" lon="-0.060403">
        <ele>420.249</ele>
        <time>2020-08-23T12:09:51Z</time>
      </trkpt>
      <trkpt lat="41.971234" lon="-0.060492">
        <ele>420.224</ele>
        <time>2020-08-23T12:09:54Z</time>
      </trkpt>
      <trkpt lat="41.971237" lon="-0.060571">
        <ele>420.204</ele>
        <time>2020-08-23T12:09:58Z</time>
      </trkpt>
      <trkpt lat="41.971252" lon="-0.060654">
        <ele>420.314</ele>
        <time>2020-08-23T12:10:01Z</time>
      </trkpt>
      <trkpt lat="41.971286" lon="-0.060706">
        <ele>420.408</ele>
        <time>2020-08-23T12:10:03Z</time>
      </trkpt>
      <trkpt lat="41.971310" lon="-0.060762">
        <ele>420.457</ele>
        <time>2020-08-23T12:10:05Z</time>
      </trkpt>
      <trkpt lat="41.971322" lon="-0.060844">
        <ele>420.327</ele>
        <time>2020-08-23T12:10:08Z</time>
      </trkpt>
      <trkpt lat="41.971330" lon="-0.060932">
        <ele>420.475</ele>
        <time>2020-08-23T12:10:11Z</time>
      </trkpt>
      <trkpt lat="41.971331" lon="-0.061019">
        <ele>420.577</ele>
        <time>2020-08-23T12:10:14Z</time>
      </trkpt>
      <trkpt lat="41.971338" lon="-0.061080">
        <ele>420.558</ele>
        <time>2020-08-23T12:10:16Z</time>
      </trkpt>
      <trkpt lat="41.971345" lon="-0.061162">
        <ele>420.569</ele>
        <time>2020-08-23T12:10:18Z</time>
      </trkpt>
      <trkpt lat="41.971351" lon="-0.061229">
        <ele>420.615</ele>
        <time>2020-08-23T12:10:20Z</time>
      </trkpt>
      <trkpt lat="41.971363" lon="-0.061305">
        <ele>420.714</ele>
        <time>2020-08-23T12:10:22Z</time>
      </trkpt>
      <trkpt lat="41.971376" lon="-0.061370">
        <ele>420.634</ele>
        <time>2020-08-23T12:10:24Z</time>
      </trkpt>
      <trkpt lat="41.971379" lon="-0.061433">
        <ele>420.555</ele>
        <time>2020-08-23T12:10:26Z</time>
      </trkpt>
      <trkpt lat="41.971382" lon="-0.061518">
        <ele>420.510</ele>
        <time>2020-08-23T12:10:29Z</time>
      </trkpt>
      <trkpt lat="41.971383" lon="-0.061600">
        <ele>420.608</ele>
        <time>2020-08-23T12:10:32Z</time>
      </trkpt>
      <trkpt lat="41.971393" lon="-0.061665">
        <ele>420.648</ele>
        <time>2020-08-23T12:10:34Z</time>
      </trkpt>
      <trkpt lat="41.971384" lon="-0.061735">
        <ele>420.658</ele>
        <time>2020-08-23T12:10:36Z</time>
      </trkpt>
      <trkpt lat="41.971377" lon="-0.061820">
        <ele>420.586</ele>
        <time>2020-08-23T12:10:39Z</time>
      </trkpt>
      <trkpt lat="41.971382" lon="-0.061894">
        <ele>420.588</ele>
        <time>2020-08-23T12:10:41Z</time>
      </trkpt>
      <trkpt lat="41.971383" lon="-0.061957">
        <ele>420.539</ele>
        <time>2020-08-23T12:10:43Z</time>
      </trkpt>
      <trkpt lat="41.971366" lon="-0.062014">
        <ele>420.740</ele>
        <time>2020-08-23T12:10:47Z</time>
      </trkpt>
      <trkpt lat="41.971353" lon="-0.062075">
        <ele>421.296</ele>
        <time>2020-08-23T12:10:56Z</time>
      </trkpt>
      <trkpt lat="41.971360" lon="-0.062146">
        <ele>421.185</ele>
        <time>2020-08-23T12:10:59Z</time>
      </trkpt>
      <trkpt lat="41.971381" lon="-0.062221">
        <ele>421.048</ele>
        <time>2020-08-23T12:11:02Z</time>
      </trkpt>
      <trkpt lat="41.971381" lon="-0.062299">
        <ele>421.061</ele>
        <time>2020-08-23T12:11:04Z</time>
      </trkpt>
      <trkpt lat="41.971381" lon="-0.062376">
        <ele>421.017</ele>
        <time>2020-08-23T12:11:06Z</time>
      </trkpt>
      <trkpt lat="41.971375" lon="-0.062452">
        <ele>421.108</ele>
        <time>2020-08-23T12:11:08Z</time>
      </trkpt>
      <trkpt lat="41.971361" lon="-0.062527">
        <ele>421.199</ele>
        <time>2020-08-23T12:11:10Z</time>
      </trkpt>
      <trkpt lat="41.971345" lon="-0.062601">
        <ele>421.199</ele>
        <time>2020-08-23T12:11:12Z</time>
      </trkpt>
      <trkpt lat="41.971331" lon="-0.062679">
        <ele>421.287</ele>
        <time>2020-08-23T12:11:14Z</time>
      </trkpt>
      <trkpt lat="41.971319" lon="-0.062768">
        <ele>421.219</ele>
        <time>2020-08-23T12:11:16Z</time>
      </trkpt>
      <trkpt lat="41.971312" lon="-0.062858">
        <ele>421.160</ele>
        <time>2020-08-23T12:11:18Z</time>
      </trkpt>
      <trkpt lat="41.971316" lon="-0.062940">
        <ele>421.111</ele>
        <time>2020-08-23T12:11:20Z</time>
      </trkpt>
      <trkpt lat="41.971315" lon="-0.063037">
        <ele>421.177</ele>
        <time>2020-08-23T12:11:22Z</time>
      </trkpt>
      <trkpt lat="41.971323" lon="-0.063127">
        <ele>421.116</ele>
        <time>2020-08-23T12:11:24Z</time>
      </trkpt>
      <trkpt lat="41.971340" lon="-0.063200">
        <ele>421.278</ele>
        <time>2020-08-23T12:11:26Z</time>
      </trkpt>
      <trkpt lat="41.971360" lon="-0.063277">
        <ele>421.333</ele>
        <time>2020-08-23T12:11:28Z</time>
      </trkpt>
      <trkpt lat="41.971388" lon="-0.063340">
        <ele>421.426</ele>
        <time>2020-08-23T12:11:30Z</time>
      </trkpt>
      <trkpt lat="41.971405" lon="-0.063414">
        <ele>421.408</ele>
        <time>2020-08-23T12:11:32Z</time>
      </trkpt>
      <trkpt lat="41.971438" lon="-0.063485">
        <ele>421.482</ele>
        <time>2020-08-23T12:11:34Z</time>
      </trkpt>
      <trkpt lat="41.971477" lon="-0.063553">
        <ele>421.562</ele>
        <time>2020-08-23T12:11:36Z</time>
      </trkpt>
      <trkpt lat="41.971526" lon="-0.063618">
        <ele>421.640</ele>
        <time>2020-08-23T12:11:38Z</time>
      </trkpt>
      <trkpt lat="41.971568" lon="-0.063680">
        <ele>421.762</ele>
        <time>2020-08-23T12:11:40Z</time>
      </trkpt>
      <trkpt lat="41.971605" lon="-0.063740">
        <ele>421.813</ele>
        <time>2020-08-23T12:11:42Z</time>
      </trkpt>
      <trkpt lat="41.971653" lon="-0.063810">
        <ele>422.044</ele>
        <time>2020-08-23T12:11:44Z</time>
      </trkpt>
      <trkpt lat="41.971691" lon="-0.063867">
        <ele>422.160</ele>
        <time>2020-08-23T12:11:45Z</time>
      </trkpt>
      <trkpt lat="41.971726" lon="-0.063913">
        <ele>422.139</ele>
        <time>2020-08-23T12:11:46Z</time>
      </trkpt>
      <trkpt lat="41.971774" lon="-0.063985">
        <ele>422.232</ele>
        <time>2020-08-23T12:11:48Z</time>
      </trkpt>
      <trkpt lat="41.971807" lon="-0.064056">
        <ele>422.392</ele>
        <time>2020-08-23T12:11:50Z</time>
      </trkpt>
      <trkpt lat="41.971848" lon="-0.064127">
        <ele>422.311</ele>
        <time>2020-08-23T12:11:52Z</time>
      </trkpt>
      <trkpt lat="41.971864" lon="-0.064187">
        <ele>422.208</ele>
        <time>2020-08-23T12:11:54Z</time>
      </trkpt>
      <trkpt lat="41.971887" lon="-0.064249">
        <ele>422.258</ele>
        <time>2020-08-23T12:11:56Z</time>
      </trkpt>
      <trkpt lat="41.971908" lon="-0.064311">
        <ele>422.298</ele>
        <time>2020-08-23T12:11:58Z</time>
      </trkpt>
      <trkpt lat="41.971942" lon="-0.064386">
        <ele>422.116</ele>
        <time>2020-08-23T12:12:00Z</time>
      </trkpt>
      <trkpt lat="41.971971" lon="-0.064432">
        <ele>422.058</ele>
        <time>2020-08-23T12:12:02Z</time>
      </trkpt>
      <trkpt lat="41.972001" lon="-0.064500">
        <ele>422.049</ele>
        <time>2020-08-23T12:12:04Z</time>
      </trkpt>
      <trkpt lat="41.972027" lon="-0.064568">
        <ele>422.060</ele>
        <time>2020-08-23T12:12:06Z</time>
      </trkpt>
      <trkpt lat="41.972059" lon="-0.064644">
        <ele>422.026</ele>
        <time>2020-08-23T12:12:08Z</time>
      </trkpt>
      <trkpt lat="41.972096" lon="-0.064724">
        <ele>421.985</ele>
        <time>2020-08-23T12:12:10Z</time>
      </trkpt>
      <trkpt lat="41.972131" lon="-0.064824">
        <ele>421.928</ele>
        <time>2020-08-23T12:12:12Z</time>
      </trkpt>
      <trkpt lat="41.972175" lon="-0.064902">
        <ele>421.989</ele>
        <time>2020-08-23T12:12:14Z</time>
      </trkpt>
      <trkpt lat="41.972221" lon="-0.064985">
        <ele>422.017</ele>
        <time>2020-08-23T12:12:16Z</time>
      </trkpt>
      <trkpt lat="41.972255" lon="-0.065066">
        <ele>422.108</ele>
        <time>2020-08-23T12:12:18Z</time>
      </trkpt>
      <trkpt lat="41.972291" lon="-0.065147">
        <ele>422.257</ele>
        <time>2020-08-23T12:12:20Z</time>
      </trkpt>
      <trkpt lat="41.972333" lon="-0.065237">
        <ele>422.367</ele>
        <time>2020-08-23T12:12:22Z</time>
      </trkpt>
      <trkpt lat="41.972371" lon="-0.065322">
        <ele>422.475</ele>
        <time>2020-08-23T12:12:24Z</time>
      </trkpt>
      <trkpt lat="41.972408" lon="-0.065401">
        <ele>422.417</ele>
        <time>2020-08-23T12:12:26Z</time>
      </trkpt>
      <trkpt lat="41.972440" lon="-0.065478">
        <ele>422.568</ele>
        <time>2020-08-23T12:12:28Z</time>
      </trkpt>
      <trkpt lat="41.972476" lon="-0.065562">
        <ele>422.679</ele>
        <time>2020-08-23T12:12:30Z</time>
      </trkpt>
      <trkpt lat="41.972513" lon="-0.065644">
        <ele>422.865</ele>
        <time>2020-08-23T12:12:32Z</time>
      </trkpt>
      <trkpt lat="41.972544" lon="-0.065728">
        <ele>422.814</ele>
        <time>2020-08-23T12:12:34Z</time>
      </trkpt>
      <trkpt lat="41.972576" lon="-0.065819">
        <ele>422.837</ele>
        <time>2020-08-23T12:12:36Z</time>
      </trkpt>
      <trkpt lat="41.972607" lon="-0.065890">
        <ele>422.749</ele>
        <time>2020-08-23T12:12:38Z</time>
      </trkpt>
      <trkpt lat="41.972631" lon="-0.065970">
        <ele>422.913</ele>
        <time>2020-08-23T12:12:40Z</time>
      </trkpt>
      <trkpt lat="41.972662" lon="-0.066063">
        <ele>423.008</ele>
        <time>2020-08-23T12:12:42Z</time>
      </trkpt>
      <trkpt lat="41.972693" lon="-0.066164">
        <ele>423.058</ele>
        <time>2020-08-23T12:12:44Z</time>
      </trkpt>
      <trkpt lat="41.972707" lon="-0.066270">
        <ele>423.068</ele>
        <time>2020-08-23T12:12:46Z</time>
      </trkpt>
      <trkpt lat="41.972723" lon="-0.066342">
        <ele>423.036</ele>
        <time>2020-08-23T12:12:48Z</time>
      </trkpt>
      <trkpt lat="41.972729" lon="-0.066417">
        <ele>423.018</ele>
        <time>2020-08-23T12:12:50Z</time>
      </trkpt>
      <trkpt lat="41.972735" lon="-0.066501">
        <ele>423.039</ele>
        <time>2020-08-23T12:12:52Z</time>
      </trkpt>
      <trkpt lat="41.972724" lon="-0.066583">
        <ele>422.950</ele>
        <time>2020-08-23T12:12:54Z</time>
      </trkpt>
      <trkpt lat="41.972708" lon="-0.066684">
        <ele>422.976</ele>
        <time>2020-08-23T12:12:56Z</time>
      </trkpt>
      <trkpt lat="41.972694" lon="-0.066760">
        <ele>422.945</ele>
        <time>2020-08-23T12:12:58Z</time>
      </trkpt>
      <trkpt lat="41.972690" lon="-0.066865">
        <ele>422.965</ele>
        <time>2020-08-23T12:13:00Z</time>
      </trkpt>
      <trkpt lat="41.972675" lon="-0.066949">
        <ele>422.868</ele>
        <time>2020-08-23T12:13:02Z</time>
      </trkpt>
      <trkpt lat="41.972661" lon="-0.067043">
        <ele>422.814</ele>
        <time>2020-08-23T12:13:04Z</time>
      </trkpt>
      <trkpt lat="41.972648" lon="-0.067137">
        <ele>422.808</ele>
        <time>2020-08-23T12:13:06Z</time>
      </trkpt>
      <trkpt lat="41.972638" lon="-0.067236">
        <ele>422.981</ele>
        <time>2020-08-23T12:13:08Z</time>
      </trkpt>
      <trkpt lat="41.972613" lon="-0.067338">
        <ele>422.881</ele>
        <time>2020-08-23T12:13:10Z</time>
      </trkpt>
      <trkpt lat="41.972579" lon="-0.067435">
        <ele>422.699</ele>
        <time>2020-08-23T12:13:12Z</time>
      </trkpt>
      <trkpt lat="41.972547" lon="-0.067521">
        <ele>422.521</ele>
        <time>2020-08-23T12:13:14Z</time>
      </trkpt>
      <trkpt lat="41.972509" lon="-0.067615">
        <ele>422.652</ele>
        <time>2020-08-23T12:13:16Z</time>
      </trkpt>
      <trkpt lat="41.972477" lon="-0.067709">
        <ele>422.793</ele>
        <time>2020-08-23T12:13:18Z</time>
      </trkpt>
      <trkpt lat="41.972449" lon="-0.067803">
        <ele>422.739</ele>
        <time>2020-08-23T12:13:20Z</time>
      </trkpt>
      <trkpt lat="41.972429" lon="-0.067910">
        <ele>422.768</ele>
        <time>2020-08-23T12:13:22Z</time>
      </trkpt>
      <trkpt lat="41.972410" lon="-0.068004">
        <ele>422.792</ele>
        <time>2020-08-23T12:13:24Z</time>
      </trkpt>
      <trkpt lat="41.972390" lon="-0.068095">
        <ele>422.773</ele>
        <time>2020-08-23T12:13:26Z</time>
      </trkpt>
      <trkpt lat="41.972366" lon="-0.068163">
        <ele>422.720</ele>
        <time>2020-08-23T12:13:28Z</time>
      </trkpt>
      <trkpt lat="41.972351" lon="-0.068259">
        <ele>422.708</ele>
        <time>2020-08-23T12:13:30Z</time>
      </trkpt>
      <trkpt lat="41.972339" lon="-0.068356">
        <ele>422.624</ele>
        <time>2020-08-23T12:13:32Z</time>
      </trkpt>
      <trkpt lat="41.972345" lon="-0.068461">
        <ele>422.594</ele>
        <time>2020-08-23T12:13:34Z</time>
      </trkpt>
      <trkpt lat="41.972344" lon="-0.068553">
        <ele>422.492</ele>
        <time>2020-08-23T12:13:36Z</time>
      </trkpt>
      <trkpt lat="41.972345" lon="-0.068632">
        <ele>422.374</ele>
        <time>2020-08-23T12:13:38Z</time>
      </trkpt>
      <trkpt lat="41.972342" lon="-0.068729">
        <ele>422.225</ele>
        <time>2020-08-23T12:13:40Z</time>
      </trkpt>
      <trkpt lat="41.972328" lon="-0.068829">
        <ele>422.296</ele>
        <time>2020-08-23T12:13:42Z</time>
      </trkpt>
      <trkpt lat="41.972326" lon="-0.068926">
        <ele>422.292</ele>
        <time>2020-08-23T12:13:44Z</time>
      </trkpt>
      <trkpt lat="41.972329" lon="-0.069017">
        <ele>422.291</ele>
        <time>2020-08-23T12:13:46Z</time>
      </trkpt>
      <trkpt lat="41.972320" lon="-0.069095">
        <ele>422.217</ele>
        <time>2020-08-23T12:13:48Z</time>
      </trkpt>
      <trkpt lat="41.972311" lon="-0.069169">
        <ele>422.287</ele>
        <time>2020-08-23T12:13:50Z</time>
      </trkpt>
      <trkpt lat="41.972311" lon="-0.069255">
        <ele>422.315</ele>
        <time>2020-08-23T12:13:52Z</time>
      </trkpt>
      <trkpt lat="41.972321" lon="-0.069353">
        <ele>422.308</ele>
        <time>2020-08-23T12:13:54Z</time>
      </trkpt>
      <trkpt lat="41.972339" lon="-0.069441">
        <ele>422.376</ele>
        <time>2020-08-23T12:13:56Z</time>
      </trkpt>
      <trkpt lat="41.972360" lon="-0.069527">
        <ele>422.326</ele>
        <time>2020-08-23T12:13:58Z</time>
      </trkpt>
      <trkpt lat="41.972378" lon="-0.069590">
        <ele>422.344</ele>
        <time>2020-08-23T12:14:00Z</time>
      </trkpt>
      <trkpt lat="41.972393" lon="-0.069681">
        <ele>422.226</ele>
        <time>2020-08-23T12:14:03Z</time>
      </trkpt>
      <trkpt lat="41.972427" lon="-0.069755">
        <ele>422.117</ele>
        <time>2020-08-23T12:14:05Z</time>
      </trkpt>
      <trkpt lat="41.972464" lon="-0.069845">
        <ele>422.128</ele>
        <time>2020-08-23T12:14:07Z</time>
      </trkpt>
      <trkpt lat="41.972497" lon="-0.069942">
        <ele>422.294</ele>
        <time>2020-08-23T12:14:09Z</time>
      </trkpt>
      <trkpt lat="41.972525" lon="-0.070052">
        <ele>422.233</ele>
        <time>2020-08-23T12:14:11Z</time>
      </trkpt>
      <trkpt lat="41.972537" lon="-0.070157">
        <ele>422.276</ele>
        <time>2020-08-23T12:14:13Z</time>
      </trkpt>
      <trkpt lat="41.972543" lon="-0.070239">
        <ele>422.190</ele>
        <time>2020-08-23T12:14:15Z</time>
      </trkpt>
      <trkpt lat="41.972558" lon="-0.070320">
        <ele>422.019</ele>
        <time>2020-08-23T12:14:17Z</time>
      </trkpt>
      <trkpt lat="41.972570" lon="-0.070413">
        <ele>422.008</ele>
        <time>2020-08-23T12:14:19Z</time>
      </trkpt>
      <trkpt lat="41.972580" lon="-0.070507">
        <ele>422.092</ele>
        <time>2020-08-23T12:14:21Z</time>
      </trkpt>
      <trkpt lat="41.972585" lon="-0.070603">
        <ele>422.012</ele>
        <time>2020-08-23T12:14:23Z</time>
      </trkpt>
      <trkpt lat="41.972602" lon="-0.070664">
        <ele>421.470</ele>
        <time>2020-08-23T12:14:26Z</time>
      </trkpt>
      <trkpt lat="41.972627" lon="-0.070730">
        <ele>421.462</ele>
        <time>2020-08-23T12:14:39Z</time>
      </trkpt>
      <trkpt lat="41.972643" lon="-0.070794">
        <ele>421.413</ele>
        <time>2020-08-23T12:14:41Z</time>
      </trkpt>
      <trkpt lat="41.972653" lon="-0.070869">
        <ele>421.384</ele>
        <time>2020-08-23T12:14:43Z</time>
      </trkpt>
      <trkpt lat="41.972651" lon="-0.070946">
        <ele>421.310</ele>
        <time>2020-08-23T12:14:45Z</time>
      </trkpt>
      <trkpt lat="41.972649" lon="-0.071046">
        <ele>421.289</ele>
        <time>2020-08-23T12:14:47Z</time>
      </trkpt>
      <trkpt lat="41.972646" lon="-0.071129">
        <ele>421.242</ele>
        <time>2020-08-23T12:14:49Z</time>
      </trkpt>
      <trkpt lat="41.972646" lon="-0.071206">
        <ele>421.322</ele>
        <time>2020-08-23T12:14:51Z</time>
      </trkpt>
      <trkpt lat="41.972654" lon="-0.071281">
        <ele>421.514</ele>
        <time>2020-08-23T12:14:53Z</time>
      </trkpt>
      <trkpt lat="41.972668" lon="-0.071357">
        <ele>421.708</ele>
        <time>2020-08-23T12:14:55Z</time>
      </trkpt>
      <trkpt lat="41.972683" lon="-0.071419">
        <ele>421.949</ele>
        <time>2020-08-23T12:14:57Z</time>
      </trkpt>
      <trkpt lat="41.972726" lon="-0.071481">
        <ele>421.999</ele>
        <time>2020-08-23T12:15:00Z</time>
      </trkpt>
      <trkpt lat="41.972792" lon="-0.071524">
        <ele>421.967</ele>
        <time>2020-08-23T12:15:03Z</time>
      </trkpt>
      <trkpt lat="41.972856" lon="-0.071526">
        <ele>422.059</ele>
        <time>2020-08-23T12:15:05Z</time>
      </trkpt>
      <trkpt lat="41.972926" lon="-0.071511">
        <ele>422.250</ele>
        <time>2020-08-23T12:15:07Z</time>
      </trkpt>
      <trkpt lat="41.972989" lon="-0.071511">
        <ele>422.351</ele>
        <time>2020-08-23T12:15:09Z</time>
      </trkpt>
      <trkpt lat="41.973060" lon="-0.071518">
        <ele>422.527</ele>
        <time>2020-08-23T12:15:11Z</time>
      </trkpt>
      <trkpt lat="41.973122" lon="-0.071535">
        <ele>422.686</ele>
        <time>2020-08-23T12:15:13Z</time>
      </trkpt>
      <trkpt lat="41.973187" lon="-0.071545">
        <ele>422.757</ele>
        <time>2020-08-23T12:15:15Z</time>
      </trkpt>
      <trkpt lat="41.973247" lon="-0.071551">
        <ele>422.700</ele>
        <time>2020-08-23T12:15:17Z</time>
      </trkpt>
      <trkpt lat="41.973310" lon="-0.071541">
        <ele>422.920</ele>
        <time>2020-08-23T12:15:19Z</time>
      </trkpt>
      <trkpt lat="41.973372" lon="-0.071541">
        <ele>423.008</ele>
        <time>2020-08-23T12:15:21Z</time>
      </trkpt>
      <trkpt lat="41.973431" lon="-0.071546">
        <ele>423.090</ele>
        <time>2020-08-23T12:15:23Z</time>
      </trkpt>
      <trkpt lat="41.973485" lon="-0.071596">
        <ele>423.070</ele>
        <time>2020-08-23T12:15:25Z</time>
      </trkpt>
      <trkpt lat="41.973525" lon="-0.071687">
        <ele>423.218</ele>
        <time>2020-08-23T12:15:27Z</time>
      </trkpt>
      <trkpt lat="41.973547" lon="-0.071759">
        <ele>423.310</ele>
        <time>2020-08-23T12:15:29Z</time>
      </trkpt>
      <trkpt lat="41.973569" lon="-0.071850">
        <ele>423.391</ele>
        <time>2020-08-23T12:15:31Z</time>
      </trkpt>
      <trkpt lat="41.973585" lon="-0.071942">
        <ele>423.382</ele>
        <time>2020-08-23T12:15:33Z</time>
      </trkpt>
      <trkpt lat="41.973590" lon="-0.072038">
        <ele>423.368</ele>
        <time>2020-08-23T12:15:35Z</time>
      </trkpt>
      <trkpt lat="41.973590" lon="-0.072129">
        <ele>423.247</ele>
        <time>2020-08-23T12:15:37Z</time>
      </trkpt>
      <trkpt lat="41.973585" lon="-0.072224">
        <ele>423.178</ele>
        <time>2020-08-23T12:15:39Z</time>
      </trkpt>
      <trkpt lat="41.973585" lon="-0.072334">
        <ele>422.833</ele>
        <time>2020-08-23T12:15:41Z</time>
      </trkpt>
      <trkpt lat="41.973584" lon="-0.072396">
        <ele>422.526</ele>
        <time>2020-08-23T12:15:42Z</time>
      </trkpt>
      <trkpt lat="41.973581" lon="-0.072496">
        <ele>421.608</ele>
        <time>2020-08-23T12:15:44Z</time>
      </trkpt>
      <trkpt lat="41.973592" lon="-0.072595">
        <ele>420.692</ele>
        <time>2020-08-23T12:15:46Z</time>
      </trkpt>
      <trkpt lat="41.973627" lon="-0.072657">
        <ele>419.652</ele>
        <time>2020-08-23T12:15:48Z</time>
      </trkpt>
      <trkpt lat="41.973700" lon="-0.072688">
        <ele>418.730</ele>
        <time>2020-08-23T12:15:50Z</time>
      </trkpt>
      <trkpt lat="41.973753" lon="-0.072711">
        <ele>418.342</ele>
        <time>2020-08-23T12:15:51Z</time>
      </trkpt>
      <trkpt lat="41.973807" lon="-0.072741">
        <ele>417.973</ele>
        <time>2020-08-23T12:15:52Z</time>
      </trkpt>
      <trkpt lat="41.973863" lon="-0.072782">
        <ele>417.514</ele>
        <time>2020-08-23T12:15:53Z</time>
      </trkpt>
      <trkpt lat="41.973916" lon="-0.072840">
        <ele>417.150</ele>
        <time>2020-08-23T12:15:54Z</time>
      </trkpt>
      <trkpt lat="41.973966" lon="-0.072910">
        <ele>416.659</ele>
        <time>2020-08-23T12:15:55Z</time>
      </trkpt>
      <trkpt lat="41.974014" lon="-0.072988">
        <ele>416.166</ele>
        <time>2020-08-23T12:15:56Z</time>
      </trkpt>
      <trkpt lat="41.974059" lon="-0.073065">
        <ele>415.629</ele>
        <time>2020-08-23T12:15:57Z</time>
      </trkpt>
      <trkpt lat="41.974100" lon="-0.073150">
        <ele>415.121</ele>
        <time>2020-08-23T12:15:58Z</time>
      </trkpt>
      <trkpt lat="41.974138" lon="-0.073227">
        <ele>414.808</ele>
        <time>2020-08-23T12:15:59Z</time>
      </trkpt>
      <trkpt lat="41.974181" lon="-0.073318">
        <ele>414.531</ele>
        <time>2020-08-23T12:16:00Z</time>
      </trkpt>
      <trkpt lat="41.974225" lon="-0.073418">
        <ele>414.281</ele>
        <time>2020-08-23T12:16:01Z</time>
      </trkpt>
      <trkpt lat="41.974279" lon="-0.073523">
        <ele>414.089</ele>
        <time>2020-08-23T12:16:02Z</time>
      </trkpt>
      <trkpt lat="41.974327" lon="-0.073626">
        <ele>413.891</ele>
        <time>2020-08-23T12:16:03Z</time>
      </trkpt>
      <trkpt lat="41.974361" lon="-0.073715">
        <ele>413.512</ele>
        <time>2020-08-23T12:16:04Z</time>
      </trkpt>
      <trkpt lat="41.974399" lon="-0.073812">
        <ele>413.223</ele>
        <time>2020-08-23T12:16:05Z</time>
      </trkpt>
      <trkpt lat="41.974436" lon="-0.073922">
        <ele>412.959</ele>
        <time>2020-08-23T12:16:06Z</time>
      </trkpt>
      <trkpt lat="41.974476" lon="-0.074050">
        <ele>412.688</ele>
        <time>2020-08-23T12:16:07Z</time>
      </trkpt>
      <trkpt lat="41.974502" lon="-0.074177">
        <ele>412.258</ele>
        <time>2020-08-23T12:16:08Z</time>
      </trkpt>
      <trkpt lat="41.974511" lon="-0.074288">
        <ele>411.952</ele>
        <time>2020-08-23T12:16:09Z</time>
      </trkpt>
      <trkpt lat="41.974513" lon="-0.074391">
        <ele>411.917</ele>
        <time>2020-08-23T12:16:10Z</time>
      </trkpt>
      <trkpt lat="41.974508" lon="-0.074491">
        <ele>411.308</ele>
        <time>2020-08-23T12:16:11Z</time>
      </trkpt>
      <trkpt lat="41.974507" lon="-0.074599">
        <ele>411.030</ele>
        <time>2020-08-23T12:16:12Z</time>
      </trkpt>
      <trkpt lat="41.974505" lon="-0.074699">
        <ele>410.640</ele>
        <time>2020-08-23T12:16:13Z</time>
      </trkpt>
      <trkpt lat="41.974502" lon="-0.074776">
        <ele>410.228</ele>
        <time>2020-08-23T12:16:14Z</time>
      </trkpt>
      <trkpt lat="41.974503" lon="-0.074866">
        <ele>409.870</ele>
        <time>2020-08-23T12:16:15Z</time>
      </trkpt>
      <trkpt lat="41.974510" lon="-0.074959">
        <ele>409.541</ele>
        <time>2020-08-23T12:16:16Z</time>
      </trkpt>
      <trkpt lat="41.974516" lon="-0.075052">
        <ele>409.192</ele>
        <time>2020-08-23T12:16:17Z</time>
      </trkpt>
      <trkpt lat="41.974519" lon="-0.075148">
        <ele>408.898</ele>
        <time>2020-08-23T12:16:18Z</time>
      </trkpt>
      <trkpt lat="41.974522" lon="-0.075252">
        <ele>408.657</ele>
        <time>2020-08-23T12:16:19Z</time>
      </trkpt>
      <trkpt lat="41.974529" lon="-0.075352">
        <ele>408.425</ele>
        <time>2020-08-23T12:16:20Z</time>
      </trkpt>
      <trkpt lat="41.974527" lon="-0.075447">
        <ele>408.226</ele>
        <time>2020-08-23T12:16:21Z</time>
      </trkpt>
      <trkpt lat="41.974523" lon="-0.075543">
        <ele>408.008</ele>
        <time>2020-08-23T12:16:22Z</time>
      </trkpt>
      <trkpt lat="41.974515" lon="-0.075638">
        <ele>407.808</ele>
        <time>2020-08-23T12:16:23Z</time>
      </trkpt>
      <trkpt lat="41.974510" lon="-0.075730">
        <ele>407.627</ele>
        <time>2020-08-23T12:16:24Z</time>
      </trkpt>
      <trkpt lat="41.974503" lon="-0.075820">
        <ele>407.327</ele>
        <time>2020-08-23T12:16:25Z</time>
      </trkpt>
      <trkpt lat="41.974496" lon="-0.075914">
        <ele>407.155</ele>
        <time>2020-08-23T12:16:26Z</time>
      </trkpt>
      <trkpt lat="41.974497" lon="-0.076005">
        <ele>406.977</ele>
        <time>2020-08-23T12:16:27Z</time>
      </trkpt>
      <trkpt lat="41.974497" lon="-0.076089">
        <ele>406.718</ele>
        <time>2020-08-23T12:16:28Z</time>
      </trkpt>
      <trkpt lat="41.974495" lon="-0.076171">
        <ele>406.549</ele>
        <time>2020-08-23T12:16:29Z</time>
      </trkpt>
      <trkpt lat="41.974491" lon="-0.076254">
        <ele>406.255</ele>
        <time>2020-08-23T12:16:30Z</time>
      </trkpt>
      <trkpt lat="41.974493" lon="-0.076341">
        <ele>405.914</ele>
        <time>2020-08-23T12:16:31Z</time>
      </trkpt>
      <trkpt lat="41.974492" lon="-0.076427">
        <ele>405.523</ele>
        <time>2020-08-23T12:16:32Z</time>
      </trkpt>
      <trkpt lat="41.974491" lon="-0.076511">
        <ele>405.283</ele>
        <time>2020-08-23T12:16:33Z</time>
      </trkpt>
      <trkpt lat="41.974492" lon="-0.076589">
        <ele>404.911</ele>
        <time>2020-08-23T12:16:34Z</time>
      </trkpt>
      <trkpt lat="41.974491" lon="-0.076673">
        <ele>404.608</ele>
        <time>2020-08-23T12:16:35Z</time>
      </trkpt>
      <trkpt lat="41.974491" lon="-0.076762">
        <ele>404.237</ele>
        <time>2020-08-23T12:16:36Z</time>
      </trkpt>
      <trkpt lat="41.974491" lon="-0.076850">
        <ele>403.947</ele>
        <time>2020-08-23T12:16:37Z</time>
      </trkpt>
      <trkpt lat="41.974490" lon="-0.076937">
        <ele>403.665</ele>
        <time>2020-08-23T12:16:38Z</time>
      </trkpt>
      <trkpt lat="41.974486" lon="-0.077027">
        <ele>403.227</ele>
        <time>2020-08-23T12:16:39Z</time>
      </trkpt>
      <trkpt lat="41.974486" lon="-0.077116">
        <ele>402.998</ele>
        <time>2020-08-23T12:16:40Z</time>
      </trkpt>
      <trkpt lat="41.974492" lon="-0.077200">
        <ele>402.679</ele>
        <time>2020-08-23T12:16:41Z</time>
      </trkpt>
      <trkpt lat="41.974493" lon="-0.077285">
        <ele>402.325</ele>
        <time>2020-08-23T12:16:42Z</time>
      </trkpt>
      <trkpt lat="41.974486" lon="-0.077368">
        <ele>402.134</ele>
        <time>2020-08-23T12:16:43Z</time>
      </trkpt>
      <trkpt lat="41.974474" lon="-0.077447">
        <ele>402.094</ele>
        <time>2020-08-23T12:16:44Z</time>
      </trkpt>
      <trkpt lat="41.974467" lon="-0.077522">
        <ele>401.957</ele>
        <time>2020-08-23T12:16:45Z</time>
      </trkpt>
      <trkpt lat="41.974461" lon="-0.077596">
        <ele>401.722</ele>
        <time>2020-08-23T12:16:46Z</time>
      </trkpt>
      <trkpt lat="41.974458" lon="-0.077671">
        <ele>401.508</ele>
        <time>2020-08-23T12:16:47Z</time>
      </trkpt>
      <trkpt lat="41.974449" lon="-0.077748">
        <ele>401.334</ele>
        <time>2020-08-23T12:16:48Z</time>
      </trkpt>
      <trkpt lat="41.974449" lon="-0.077826">
        <ele>401.054</ele>
        <time>2020-08-23T12:16:49Z</time>
      </trkpt>
      <trkpt lat="41.974449" lon="-0.077902">
        <ele>400.822</ele>
        <time>2020-08-23T12:16:50Z</time>
      </trkpt>
      <trkpt lat="41.974449" lon="-0.077977">
        <ele>400.674</ele>
        <time>2020-08-23T12:16:51Z</time>
      </trkpt>
      <trkpt lat="41.974450" lon="-0.078055">
        <ele>400.555</ele>
        <time>2020-08-23T12:16:52Z</time>
      </trkpt>
      <trkpt lat="41.974462" lon="-0.078133">
        <ele>400.596</ele>
        <time>2020-08-23T12:16:53Z</time>
      </trkpt>
      <trkpt lat="41.974476" lon="-0.078208">
        <ele>400.552</ele>
        <time>2020-08-23T12:16:54Z</time>
      </trkpt>
      <trkpt lat="41.974492" lon="-0.078281">
        <ele>400.461</ele>
        <time>2020-08-23T12:16:55Z</time>
      </trkpt>
      <trkpt lat="41.974506" lon="-0.078352">
        <ele>400.324</ele>
        <time>2020-08-23T12:16:56Z</time>
      </trkpt>
      <trkpt lat="41.974526" lon="-0.078421">
        <ele>400.204</ele>
        <time>2020-08-23T12:16:57Z</time>
      </trkpt>
      <trkpt lat="41.974550" lon="-0.078491">
        <ele>400.014</ele>
        <time>2020-08-23T12:16:58Z</time>
      </trkpt>
      <trkpt lat="41.974574" lon="-0.078567">
        <ele>399.908</ele>
        <time>2020-08-23T12:16:59Z</time>
      </trkpt>
      <trkpt lat="41.974601" lon="-0.078636">
        <ele>399.867</ele>
        <time>2020-08-23T12:17:00Z</time>
      </trkpt>
      <trkpt lat="41.974628" lon="-0.078698">
        <ele>399.797</ele>
        <time>2020-08-23T12:17:01Z</time>
      </trkpt>
      <trkpt lat="41.974655" lon="-0.078764">
        <ele>399.655</ele>
        <time>2020-08-23T12:17:02Z</time>
      </trkpt>
      <trkpt lat="41.974687" lon="-0.078833">
        <ele>399.687</ele>
        <time>2020-08-23T12:17:03Z</time>
      </trkpt>
      <trkpt lat="41.974719" lon="-0.078904">
        <ele>399.558</ele>
        <time>2020-08-23T12:17:04Z</time>
      </trkpt>
      <trkpt lat="41.974754" lon="-0.078970">
        <ele>399.369</ele>
        <time>2020-08-23T12:17:05Z</time>
      </trkpt>
      <trkpt lat="41.974797" lon="-0.079026">
        <ele>399.235</ele>
        <time>2020-08-23T12:17:06Z</time>
      </trkpt>
      <trkpt lat="41.974842" lon="-0.079083">
        <ele>399.024</ele>
        <time>2020-08-23T12:17:07Z</time>
      </trkpt>
      <trkpt lat="41.974890" lon="-0.079138">
        <ele>398.929</ele>
        <time>2020-08-23T12:17:08Z</time>
      </trkpt>
      <trkpt lat="41.974942" lon="-0.079190">
        <ele>398.800</ele>
        <time>2020-08-23T12:17:09Z</time>
      </trkpt>
      <trkpt lat="41.974990" lon="-0.079239">
        <ele>398.720</ele>
        <time>2020-08-23T12:17:10Z</time>
      </trkpt>
      <trkpt lat="41.975042" lon="-0.079288">
        <ele>398.608</ele>
        <time>2020-08-23T12:17:11Z</time>
      </trkpt>
      <trkpt lat="41.975090" lon="-0.079342">
        <ele>398.537</ele>
        <time>2020-08-23T12:17:12Z</time>
      </trkpt>
      <trkpt lat="41.975133" lon="-0.079407">
        <ele>398.347</ele>
        <time>2020-08-23T12:17:13Z</time>
      </trkpt>
      <trkpt lat="41.975171" lon="-0.079474">
        <ele>398.165</ele>
        <time>2020-08-23T12:17:14Z</time>
      </trkpt>
      <trkpt lat="41.975213" lon="-0.079537">
        <ele>397.927</ele>
        <time>2020-08-23T12:17:15Z</time>
      </trkpt>
      <trkpt lat="41.975254" lon="-0.079606">
        <ele>397.738</ele>
        <time>2020-08-23T12:17:16Z</time>
      </trkpt>
      <trkpt lat="41.975297" lon="-0.079672">
        <ele>397.589</ele>
        <time>2020-08-23T12:17:17Z</time>
      </trkpt>
      <trkpt lat="41.975344" lon="-0.079738">
        <ele>397.465</ele>
        <time>2020-08-23T12:17:18Z</time>
      </trkpt>
      <trkpt lat="41.975394" lon="-0.079805">
        <ele>397.364</ele>
        <time>2020-08-23T12:17:19Z</time>
      </trkpt>
      <trkpt lat="41.975445" lon="-0.079872">
        <ele>397.332</ele>
        <time>2020-08-23T12:17:20Z</time>
      </trkpt>
      <trkpt lat="41.975488" lon="-0.079939">
        <ele>397.192</ele>
        <time>2020-08-23T12:17:21Z</time>
      </trkpt>
      <trkpt lat="41.975530" lon="-0.080004">
        <ele>397.011</ele>
        <time>2020-08-23T12:17:22Z</time>
      </trkpt>
      <trkpt lat="41.975575" lon="-0.080067">
        <ele>397.008</ele>
        <time>2020-08-23T12:17:23Z</time>
      </trkpt>
      <trkpt lat="41.975620" lon="-0.080126">
        <ele>396.968</ele>
        <time>2020-08-23T12:17:24Z</time>
      </trkpt>
      <trkpt lat="41.975664" lon="-0.080186">
        <ele>396.778</ele>
        <time>2020-08-23T12:17:25Z</time>
      </trkpt>
      <trkpt lat="41.975715" lon="-0.080241">
        <ele>396.636</ele>
        <time>2020-08-23T12:17:26Z</time>
      </trkpt>
      <trkpt lat="41.975762" lon="-0.080303">
        <ele>396.628</ele>
        <time>2020-08-23T12:17:27Z</time>
      </trkpt>
      <trkpt lat="41.975804" lon="-0.080366">
        <ele>396.539</ele>
        <time>2020-08-23T12:17:28Z</time>
      </trkpt>
      <trkpt lat="41.975848" lon="-0.080429">
        <ele>396.480</ele>
        <time>2020-08-23T12:17:29Z</time>
      </trkpt>
      <trkpt lat="41.975891" lon="-0.080489">
        <ele>396.416</ele>
        <time>2020-08-23T12:17:30Z</time>
      </trkpt>
      <trkpt lat="41.975935" lon="-0.080551">
        <ele>396.395</ele>
        <time>2020-08-23T12:17:31Z</time>
      </trkpt>
      <trkpt lat="41.975969" lon="-0.080618">
        <ele>396.231</ele>
        <time>2020-08-23T12:17:32Z</time>
      </trkpt>
      <trkpt lat="41.975995" lon="-0.080691">
        <ele>396.161</ele>
        <time>2020-08-23T12:17:33Z</time>
      </trkpt>
      <trkpt lat="41.976023" lon="-0.080767">
        <ele>396.007</ele>
        <time>2020-08-23T12:17:34Z</time>
      </trkpt>
      <trkpt lat="41.976049" lon="-0.080844">
        <ele>395.908</ele>
        <time>2020-08-23T12:17:35Z</time>
      </trkpt>
      <trkpt lat="41.976071" lon="-0.080928">
        <ele>395.878</ele>
        <time>2020-08-23T12:17:36Z</time>
      </trkpt>
      <trkpt lat="41.976092" lon="-0.081012">
        <ele>395.868</ele>
        <time>2020-08-23T12:17:37Z</time>
      </trkpt>
      <trkpt lat="41.976114" lon="-0.081093">
        <ele>395.786</ele>
        <time>2020-08-23T12:17:38Z</time>
      </trkpt>
      <trkpt lat="41.976149" lon="-0.081164">
        <ele>395.728</ele>
        <time>2020-08-23T12:17:39Z</time>
      </trkpt>
      <trkpt lat="41.976184" lon="-0.081223">
        <ele>395.699</ele>
        <time>2020-08-23T12:17:40Z</time>
      </trkpt>
      <trkpt lat="41.976224" lon="-0.081279">
        <ele>395.510</ele>
        <time>2020-08-23T12:17:41Z</time>
      </trkpt>
      <trkpt lat="41.976261" lon="-0.081339">
        <ele>395.326</ele>
        <time>2020-08-23T12:17:42Z</time>
      </trkpt>
      <trkpt lat="41.976304" lon="-0.081396">
        <ele>395.115</ele>
        <time>2020-08-23T12:17:43Z</time>
      </trkpt>
      <trkpt lat="41.976344" lon="-0.081454">
        <ele>394.956</ele>
        <time>2020-08-23T12:17:44Z</time>
      </trkpt>
      <trkpt lat="41.976384" lon="-0.081509">
        <ele>394.859</ele>
        <time>2020-08-23T12:17:45Z</time>
      </trkpt>
      <trkpt lat="41.976424" lon="-0.081565">
        <ele>394.714</ele>
        <time>2020-08-23T12:17:46Z</time>
      </trkpt>
      <trkpt lat="41.976468" lon="-0.081616">
        <ele>394.608</ele>
        <time>2020-08-23T12:17:47Z</time>
      </trkpt>
      <trkpt lat="41.976510" lon="-0.081670">
        <ele>394.520</ele>
        <time>2020-08-23T12:17:48Z</time>
      </trkpt>
      <trkpt lat="41.976549" lon="-0.081727">
        <ele>394.420</ele>
        <time>2020-08-23T12:17:49Z</time>
      </trkpt>
      <trkpt lat="41.976588" lon="-0.081778">
        <ele>394.368</ele>
        <time>2020-08-23T12:17:50Z</time>
      </trkpt>
      <trkpt lat="41.976628" lon="-0.081822">
        <ele>394.290</ele>
        <time>2020-08-23T12:17:51Z</time>
      </trkpt>
      <trkpt lat="41.976669" lon="-0.081866">
        <ele>394.111</ele>
        <time>2020-08-23T12:17:52Z</time>
      </trkpt>
      <trkpt lat="41.976710" lon="-0.081909">
        <ele>394.062</ele>
        <time>2020-08-23T12:17:53Z</time>
      </trkpt>
      <trkpt lat="41.976749" lon="-0.081958">
        <ele>393.938</ele>
        <time>2020-08-23T12:17:54Z</time>
      </trkpt>
      <trkpt lat="41.976788" lon="-0.082005">
        <ele>393.847</ele>
        <time>2020-08-23T12:17:55Z</time>
      </trkpt>
      <trkpt lat="41.976826" lon="-0.082051">
        <ele>393.848</ele>
        <time>2020-08-23T12:17:56Z</time>
      </trkpt>
      <trkpt lat="41.976856" lon="-0.082101">
        <ele>393.761</ele>
        <time>2020-08-23T12:17:57Z</time>
      </trkpt>
      <trkpt lat="41.976884" lon="-0.082153">
        <ele>393.717</ele>
        <time>2020-08-23T12:17:58Z</time>
      </trkpt>
      <trkpt lat="41.976905" lon="-0.082206">
        <ele>393.708</ele>
        <time>2020-08-23T12:17:59Z</time>
      </trkpt>
      <trkpt lat="41.976923" lon="-0.082290">
        <ele>393.769</ele>
        <time>2020-08-23T12:18:01Z</time>
      </trkpt>
      <trkpt lat="41.976965" lon="-0.082330">
        <ele>393.739</ele>
        <time>2020-08-23T12:18:03Z</time>
      </trkpt>
      <trkpt lat="41.977026" lon="-0.082335">
        <ele>393.727</ele>
        <time>2020-08-23T12:18:05Z</time>
      </trkpt>
      <trkpt lat="41.977079" lon="-0.082345">
        <ele>393.789</ele>
        <time>2020-08-23T12:18:08Z</time>
      </trkpt>
      <trkpt lat="41.977129" lon="-0.082351">
        <ele>393.640</ele>
        <time>2020-08-23T12:18:15Z</time>
      </trkpt>
      <trkpt lat="41.977187" lon="-0.082322">
        <ele>393.641</ele>
        <time>2020-08-23T12:18:18Z</time>
      </trkpt>
      <trkpt lat="41.977240" lon="-0.082294">
        <ele>393.677</ele>
        <time>2020-08-23T12:18:20Z</time>
      </trkpt>
      <trkpt lat="41.977304" lon="-0.082279">
        <ele>393.656</ele>
        <time>2020-08-23T12:18:22Z</time>
      </trkpt>
      <trkpt lat="41.977369" lon="-0.082269">
        <ele>393.714</ele>
        <time>2020-08-23T12:18:24Z</time>
      </trkpt>
      <trkpt lat="41.977449" lon="-0.082250">
        <ele>393.854</ele>
        <time>2020-08-23T12:18:26Z</time>
      </trkpt>
      <trkpt lat="41.977537" lon="-0.082234">
        <ele>393.909</ele>
        <time>2020-08-23T12:18:28Z</time>
      </trkpt>
      <trkpt lat="41.977585" lon="-0.082229">
        <ele>393.908</ele>
        <time>2020-08-23T12:18:29Z</time>
      </trkpt>
      <trkpt lat="41.977670" lon="-0.082234">
        <ele>394.026</ele>
        <time>2020-08-23T12:18:31Z</time>
      </trkpt>
      <trkpt lat="41.977717" lon="-0.082238">
        <ele>394.186</ele>
        <time>2020-08-23T12:18:32Z</time>
      </trkpt>
      <trkpt lat="41.977763" lon="-0.082239">
        <ele>394.194</ele>
        <time>2020-08-23T12:18:33Z</time>
      </trkpt>
      <trkpt lat="41.977810" lon="-0.082238">
        <ele>394.256</ele>
        <time>2020-08-23T12:18:34Z</time>
      </trkpt>
      <trkpt lat="41.977855" lon="-0.082228">
        <ele>394.247</ele>
        <time>2020-08-23T12:18:35Z</time>
      </trkpt>
      <trkpt lat="41.977898" lon="-0.082209">
        <ele>394.298</ele>
        <time>2020-08-23T12:18:36Z</time>
      </trkpt>
      <trkpt lat="41.977948" lon="-0.082196">
        <ele>394.274</ele>
        <time>2020-08-23T12:18:37Z</time>
      </trkpt>
      <trkpt lat="41.978002" lon="-0.082189">
        <ele>394.263</ele>
        <time>2020-08-23T12:18:38Z</time>
      </trkpt>
      <trkpt lat="41.978054" lon="-0.082189">
        <ele>394.214</ele>
        <time>2020-08-23T12:18:39Z</time>
      </trkpt>
      <trkpt lat="41.978099" lon="-0.082176">
        <ele>394.254</ele>
        <time>2020-08-23T12:18:40Z</time>
      </trkpt>
      <trkpt lat="41.978145" lon="-0.082172">
        <ele>394.209</ele>
        <time>2020-08-23T12:18:41Z</time>
      </trkpt>
      <trkpt lat="41.978192" lon="-0.082167">
        <ele>394.208</ele>
        <time>2020-08-23T12:18:42Z</time>
      </trkpt>
      <trkpt lat="41.978243" lon="-0.082158">
        <ele>394.246</ele>
        <time>2020-08-23T12:18:43Z</time>
      </trkpt>
      <trkpt lat="41.978296" lon="-0.082147">
        <ele>394.226</ele>
        <time>2020-08-23T12:18:44Z</time>
      </trkpt>
      <trkpt lat="41.978350" lon="-0.082133">
        <ele>394.224</ele>
        <time>2020-08-23T12:18:45Z</time>
      </trkpt>
      <trkpt lat="41.978403" lon="-0.082127">
        <ele>394.226</ele>
        <time>2020-08-23T12:18:46Z</time>
      </trkpt>
      <trkpt lat="41.978456" lon="-0.082117">
        <ele>394.227</ele>
        <time>2020-08-23T12:18:47Z</time>
      </trkpt>
      <trkpt lat="41.978508" lon="-0.082118">
        <ele>394.288</ele>
        <time>2020-08-23T12:18:48Z</time>
      </trkpt>
      <trkpt lat="41.978556" lon="-0.082126">
        <ele>394.314</ele>
        <time>2020-08-23T12:18:49Z</time>
      </trkpt>
      <trkpt lat="41.978602" lon="-0.082126">
        <ele>394.323</ele>
        <time>2020-08-23T12:18:50Z</time>
      </trkpt>
      <trkpt lat="41.978649" lon="-0.082121">
        <ele>394.432</ele>
        <time>2020-08-23T12:18:51Z</time>
      </trkpt>
      <trkpt lat="41.978697" lon="-0.082110">
        <ele>394.592</ele>
        <time>2020-08-23T12:18:52Z</time>
      </trkpt>
      <trkpt lat="41.978749" lon="-0.082105">
        <ele>394.511</ele>
        <time>2020-08-23T12:18:53Z</time>
      </trkpt>
      <trkpt lat="41.978799" lon="-0.082105">
        <ele>394.408</ele>
        <time>2020-08-23T12:18:54Z</time>
      </trkpt>
      <trkpt lat="41.978848" lon="-0.082092">
        <ele>394.458</ele>
        <time>2020-08-23T12:18:55Z</time>
      </trkpt>
      <trkpt lat="41.978901" lon="-0.082083">
        <ele>394.418</ele>
        <time>2020-08-23T12:18:56Z</time>
      </trkpt>
      <trkpt lat="41.978953" lon="-0.082070">
        <ele>394.316</ele>
        <time>2020-08-23T12:18:57Z</time>
      </trkpt>
      <trkpt lat="41.979002" lon="-0.082062">
        <ele>394.398</ele>
        <time>2020-08-23T12:18:58Z</time>
      </trkpt>
      <trkpt lat="41.979053" lon="-0.082061">
        <ele>394.489</ele>
        <time>2020-08-23T12:18:59Z</time>
      </trkpt>
      <trkpt lat="41.979103" lon="-0.082056">
        <ele>394.470</ele>
        <time>2020-08-23T12:19:00Z</time>
      </trkpt>
      <trkpt lat="41.979154" lon="-0.082057">
        <ele>394.466</ele>
        <time>2020-08-23T12:19:01Z</time>
      </trkpt>
      <trkpt lat="41.979205" lon="-0.082052">
        <ele>394.495</ele>
        <time>2020-08-23T12:19:02Z</time>
      </trkpt>
      <trkpt lat="41.979257" lon="-0.082052">
        <ele>394.385</ele>
        <time>2020-08-23T12:19:03Z</time>
      </trkpt>
      <trkpt lat="41.979310" lon="-0.082047">
        <ele>394.289</ele>
        <time>2020-08-23T12:19:04Z</time>
      </trkpt>
      <trkpt lat="41.979365" lon="-0.082039">
        <ele>394.217</ele>
        <time>2020-08-23T12:19:05Z</time>
      </trkpt>
      <trkpt lat="41.979417" lon="-0.082034">
        <ele>394.208</ele>
        <time>2020-08-23T12:19:06Z</time>
      </trkpt>
      <trkpt lat="41.979466" lon="-0.082029">
        <ele>394.213</ele>
        <time>2020-08-23T12:19:07Z</time>
      </trkpt>
      <trkpt lat="41.979515" lon="-0.082028">
        <ele>394.273</ele>
        <time>2020-08-23T12:19:08Z</time>
      </trkpt>
      <trkpt lat="41.979567" lon="-0.082018">
        <ele>394.211</ele>
        <time>2020-08-23T12:19:09Z</time>
      </trkpt>
      <trkpt lat="41.979619" lon="-0.082006">
        <ele>394.233</ele>
        <time>2020-08-23T12:19:10Z</time>
      </trkpt>
      <trkpt lat="41.979670" lon="-0.082005">
        <ele>394.214</ele>
        <time>2020-08-23T12:19:11Z</time>
      </trkpt>
      <trkpt lat="41.979720" lon="-0.081999">
        <ele>394.285</ele>
        <time>2020-08-23T12:19:12Z</time>
      </trkpt>
      <trkpt lat="41.979768" lon="-0.081993">
        <ele>394.261</ele>
        <time>2020-08-23T12:19:13Z</time>
      </trkpt>
      <trkpt lat="41.979818" lon="-0.081986">
        <ele>394.260</ele>
        <time>2020-08-23T12:19:14Z</time>
      </trkpt>
      <trkpt lat="41.979873" lon="-0.081983">
        <ele>394.294</ele>
        <time>2020-08-23T12:19:15Z</time>
      </trkpt>
      <trkpt lat="41.979927" lon="-0.081980">
        <ele>394.257</ele>
        <time>2020-08-23T12:19:16Z</time>
      </trkpt>
      <trkpt lat="41.979979" lon="-0.081975">
        <ele>394.222</ele>
        <time>2020-08-23T12:19:17Z</time>
      </trkpt>
      <trkpt lat="41.980030" lon="-0.081970">
        <ele>394.208</ele>
        <time>2020-08-23T12:19:18Z</time>
      </trkpt>
      <trkpt lat="41.980083" lon="-0.081956">
        <ele>394.274</ele>
        <time>2020-08-23T12:19:19Z</time>
      </trkpt>
      <trkpt lat="41.980136" lon="-0.081945">
        <ele>394.264</ele>
        <time>2020-08-23T12:19:20Z</time>
      </trkpt>
      <trkpt lat="41.980189" lon="-0.081937">
        <ele>394.252</ele>
        <time>2020-08-23T12:19:21Z</time>
      </trkpt>
      <trkpt lat="41.980243" lon="-0.081923">
        <ele>394.214</ele>
        <time>2020-08-23T12:19:22Z</time>
      </trkpt>
      <trkpt lat="41.980297" lon="-0.081925">
        <ele>394.215</ele>
        <time>2020-08-23T12:19:23Z</time>
      </trkpt>
      <trkpt lat="41.980348" lon="-0.081922">
        <ele>394.286</ele>
        <time>2020-08-23T12:19:24Z</time>
      </trkpt>
      <trkpt lat="41.980404" lon="-0.081919">
        <ele>394.252</ele>
        <time>2020-08-23T12:19:25Z</time>
      </trkpt>
      <trkpt lat="41.980458" lon="-0.081911">
        <ele>394.221</ele>
        <time>2020-08-23T12:19:26Z</time>
      </trkpt>
      <trkpt lat="41.980511" lon="-0.081908">
        <ele>394.117</ele>
        <time>2020-08-23T12:19:27Z</time>
      </trkpt>
      <trkpt lat="41.980564" lon="-0.081899">
        <ele>394.187</ele>
        <time>2020-08-23T12:19:28Z</time>
      </trkpt>
      <trkpt lat="41.980619" lon="-0.081890">
        <ele>394.015</ele>
        <time>2020-08-23T12:19:29Z</time>
      </trkpt>
      <trkpt lat="41.980673" lon="-0.081886">
        <ele>394.008</ele>
        <time>2020-08-23T12:19:30Z</time>
      </trkpt>
      <trkpt lat="41.980728" lon="-0.081881">
        <ele>394.056</ele>
        <time>2020-08-23T12:19:31Z</time>
      </trkpt>
      <trkpt lat="41.980786" lon="-0.081885">
        <ele>394.086</ele>
        <time>2020-08-23T12:19:32Z</time>
      </trkpt>
      <trkpt lat="41.980841" lon="-0.081884">
        <ele>394.024</ele>
        <time>2020-08-23T12:19:33Z</time>
      </trkpt>
      <trkpt lat="41.980894" lon="-0.081866">
        <ele>394.076</ele>
        <time>2020-08-23T12:19:34Z</time>
      </trkpt>
      <trkpt lat="41.980947" lon="-0.081856">
        <ele>394.077</ele>
        <time>2020-08-23T12:19:35Z</time>
      </trkpt>
      <trkpt lat="41.981002" lon="-0.081868">
        <ele>394.038</ele>
        <time>2020-08-23T12:19:36Z</time>
      </trkpt>
      <trkpt lat="41.981056" lon="-0.081881">
        <ele>394.034</ele>
        <time>2020-08-23T12:19:37Z</time>
      </trkpt>
      <trkpt lat="41.981110" lon="-0.081894">
        <ele>394.013</ele>
        <time>2020-08-23T12:19:38Z</time>
      </trkpt>
      <trkpt lat="41.981163" lon="-0.081908">
        <ele>394.088</ele>
        <time>2020-08-23T12:19:39Z</time>
      </trkpt>
      <trkpt lat="41.981216" lon="-0.081935">
        <ele>394.024</ele>
        <time>2020-08-23T12:19:40Z</time>
      </trkpt>
      <trkpt lat="41.981268" lon="-0.081967">
        <ele>394.126</ele>
        <time>2020-08-23T12:19:41Z</time>
      </trkpt>
      <trkpt lat="41.981322" lon="-0.081997">
        <ele>394.208</ele>
        <time>2020-08-23T12:19:42Z</time>
      </trkpt>
      <trkpt lat="41.981372" lon="-0.082035">
        <ele>394.383</ele>
        <time>2020-08-23T12:19:43Z</time>
      </trkpt>
      <trkpt lat="41.981417" lon="-0.082077">
        <ele>394.383</ele>
        <time>2020-08-23T12:19:44Z</time>
      </trkpt>
      <trkpt lat="41.981458" lon="-0.082123">
        <ele>394.391</ele>
        <time>2020-08-23T12:19:45Z</time>
      </trkpt>
      <trkpt lat="41.981501" lon="-0.082170">
        <ele>394.323</ele>
        <time>2020-08-23T12:19:46Z</time>
      </trkpt>
      <trkpt lat="41.981537" lon="-0.082233">
        <ele>394.454</ele>
        <time>2020-08-23T12:19:47Z</time>
      </trkpt>
      <trkpt lat="41.981569" lon="-0.082293">
        <ele>394.535</ele>
        <time>2020-08-23T12:19:48Z</time>
      </trkpt>
      <trkpt lat="41.981601" lon="-0.082350">
        <ele>394.591</ele>
        <time>2020-08-23T12:19:49Z</time>
      </trkpt>
      <trkpt lat="41.981634" lon="-0.082411">
        <ele>394.580</ele>
        <time>2020-08-23T12:19:50Z</time>
      </trkpt>
      <trkpt lat="41.981668" lon="-0.082472">
        <ele>394.443</ele>
        <time>2020-08-23T12:19:51Z</time>
      </trkpt>
      <trkpt lat="41.981701" lon="-0.082526">
        <ele>394.364</ele>
        <time>2020-08-23T12:19:52Z</time>
      </trkpt>
      <trkpt lat="41.981735" lon="-0.082575">
        <ele>394.210</ele>
        <time>2020-08-23T12:19:53Z</time>
      </trkpt>
      <trkpt lat="41.981766" lon="-0.082629">
        <ele>394.208</ele>
        <time>2020-08-23T12:19:54Z</time>
      </trkpt>
      <trkpt lat="41.981796" lon="-0.082683">
        <ele>394.249</ele>
        <time>2020-08-23T12:19:55Z</time>
      </trkpt>
      <trkpt lat="41.981825" lon="-0.082740">
        <ele>394.279</ele>
        <time>2020-08-23T12:19:56Z</time>
      </trkpt>
      <trkpt lat="41.981857" lon="-0.082799">
        <ele>394.347</ele>
        <time>2020-08-23T12:19:57Z</time>
      </trkpt>
      <trkpt lat="41.981884" lon="-0.082859">
        <ele>394.359</ele>
        <time>2020-08-23T12:19:58Z</time>
      </trkpt>
      <trkpt lat="41.981911" lon="-0.082918">
        <ele>394.360</ele>
        <time>2020-08-23T12:19:59Z</time>
      </trkpt>
      <trkpt lat="41.981936" lon="-0.082983">
        <ele>394.431</ele>
        <time>2020-08-23T12:20:00Z</time>
      </trkpt>
      <trkpt lat="41.981967" lon="-0.083042">
        <ele>394.567</ele>
        <time>2020-08-23T12:20:01Z</time>
      </trkpt>
      <trkpt lat="41.981995" lon="-0.083095">
        <ele>394.656</ele>
        <time>2020-08-23T12:20:02Z</time>
      </trkpt>
      <trkpt lat="41.982025" lon="-0.083145">
        <ele>394.679</ele>
        <time>2020-08-23T12:20:03Z</time>
      </trkpt>
      <trkpt lat="41.982058" lon="-0.083197">
        <ele>394.605</ele>
        <time>2020-08-23T12:20:04Z</time>
      </trkpt>
      <trkpt lat="41.982089" lon="-0.083253">
        <ele>394.625</ele>
        <time>2020-08-23T12:20:05Z</time>
      </trkpt>
      <trkpt lat="41.982119" lon="-0.083314">
        <ele>394.608</ele>
        <time>2020-08-23T12:20:06Z</time>
      </trkpt>
      <trkpt lat="41.982158" lon="-0.083363">
        <ele>394.622</ele>
        <time>2020-08-23T12:20:07Z</time>
      </trkpt>
      <trkpt lat="41.982192" lon="-0.083416">
        <ele>394.632</ele>
        <time>2020-08-23T12:20:08Z</time>
      </trkpt>
      <trkpt lat="41.982225" lon="-0.083466">
        <ele>394.630</ele>
        <time>2020-08-23T12:20:09Z</time>
      </trkpt>
      <trkpt lat="41.982253" lon="-0.083527">
        <ele>394.642</ele>
        <time>2020-08-23T12:20:10Z</time>
      </trkpt>
      <trkpt lat="41.982283" lon="-0.083584">
        <ele>394.693</ele>
        <time>2020-08-23T12:20:11Z</time>
      </trkpt>
      <trkpt lat="41.982313" lon="-0.083641">
        <ele>394.654</ele>
        <time>2020-08-23T12:20:12Z</time>
      </trkpt>
      <trkpt lat="41.982344" lon="-0.083702">
        <ele>394.650</ele>
        <time>2020-08-23T12:20:13Z</time>
      </trkpt>
      <trkpt lat="41.982382" lon="-0.083751">
        <ele>394.679</ele>
        <time>2020-08-23T12:20:14Z</time>
      </trkpt>
      <trkpt lat="41.982418" lon="-0.083794">
        <ele>394.666</ele>
        <time>2020-08-23T12:20:15Z</time>
      </trkpt>
      <trkpt lat="41.982448" lon="-0.083848">
        <ele>394.629</ele>
        <time>2020-08-23T12:20:16Z</time>
      </trkpt>
      <trkpt lat="41.982478" lon="-0.083904">
        <ele>394.621</ele>
        <time>2020-08-23T12:20:17Z</time>
      </trkpt>
      <trkpt lat="41.982505" lon="-0.083964">
        <ele>394.508</ele>
        <time>2020-08-23T12:20:18Z</time>
      </trkpt>
      <trkpt lat="41.982533" lon="-0.084025">
        <ele>394.511</ele>
        <time>2020-08-23T12:20:19Z</time>
      </trkpt>
      <trkpt lat="41.982559" lon="-0.084084">
        <ele>394.511</ele>
        <time>2020-08-23T12:20:20Z</time>
      </trkpt>
      <trkpt lat="41.982589" lon="-0.084143">
        <ele>394.599</ele>
        <time>2020-08-23T12:20:21Z</time>
      </trkpt>
      <trkpt lat="41.982629" lon="-0.084195">
        <ele>394.511</ele>
        <time>2020-08-23T12:20:22Z</time>
      </trkpt>
      <trkpt lat="41.982666" lon="-0.084250">
        <ele>394.542</ele>
        <time>2020-08-23T12:20:23Z</time>
      </trkpt>
      <trkpt lat="41.982699" lon="-0.084307">
        <ele>394.523</ele>
        <time>2020-08-23T12:20:24Z</time>
      </trkpt>
      <trkpt lat="41.982731" lon="-0.084365">
        <ele>394.599</ele>
        <time>2020-08-23T12:20:25Z</time>
      </trkpt>
      <trkpt lat="41.982765" lon="-0.084416">
        <ele>394.548</ele>
        <time>2020-08-23T12:20:26Z</time>
      </trkpt>
      <trkpt lat="41.982793" lon="-0.084472">
        <ele>394.521</ele>
        <time>2020-08-23T12:20:27Z</time>
      </trkpt>
      <trkpt lat="41.982825" lon="-0.084526">
        <ele>394.541</ele>
        <time>2020-08-23T12:20:28Z</time>
      </trkpt>
      <trkpt lat="41.982857" lon="-0.084581">
        <ele>394.505</ele>
        <time>2020-08-23T12:20:29Z</time>
      </trkpt>
      <trkpt lat="41.982891" lon="-0.084639">
        <ele>394.508</ele>
        <time>2020-08-23T12:20:30Z</time>
      </trkpt>
      <trkpt lat="41.982929" lon="-0.084693">
        <ele>394.597</ele>
        <time>2020-08-23T12:20:31Z</time>
      </trkpt>
      <trkpt lat="41.982969" lon="-0.084745">
        <ele>394.517</ele>
        <time>2020-08-23T12:20:32Z</time>
      </trkpt>
      <trkpt lat="41.983006" lon="-0.084805">
        <ele>394.565</ele>
        <time>2020-08-23T12:20:33Z</time>
      </trkpt>
      <trkpt lat="41.983044" lon="-0.084867">
        <ele>394.557</ele>
        <time>2020-08-23T12:20:34Z</time>
      </trkpt>
      <trkpt lat="41.983075" lon="-0.084931">
        <ele>394.598</ele>
        <time>2020-08-23T12:20:35Z</time>
      </trkpt>
      <trkpt lat="41.983105" lon="-0.084993">
        <ele>394.589</ele>
        <time>2020-08-23T12:20:36Z</time>
      </trkpt>
      <trkpt lat="41.983140" lon="-0.085048">
        <ele>394.525</ele>
        <time>2020-08-23T12:20:37Z</time>
      </trkpt>
      <trkpt lat="41.983171" lon="-0.085104">
        <ele>394.564</ele>
        <time>2020-08-23T12:20:38Z</time>
      </trkpt>
      <trkpt lat="41.983199" lon="-0.085165">
        <ele>394.574</ele>
        <time>2020-08-23T12:20:39Z</time>
      </trkpt>
      <trkpt lat="41.983240" lon="-0.085220">
        <ele>394.556</ele>
        <time>2020-08-23T12:20:40Z</time>
      </trkpt>
      <trkpt lat="41.983277" lon="-0.085277">
        <ele>394.521</ele>
        <time>2020-08-23T12:20:41Z</time>
      </trkpt>
      <trkpt lat="41.983314" lon="-0.085334">
        <ele>394.508</ele>
        <time>2020-08-23T12:20:42Z</time>
      </trkpt>
      <trkpt lat="41.983347" lon="-0.085397">
        <ele>394.582</ele>
        <time>2020-08-23T12:20:43Z</time>
      </trkpt>
      <trkpt lat="41.983380" lon="-0.085465">
        <ele>394.542</ele>
        <time>2020-08-23T12:20:44Z</time>
      </trkpt>
      <trkpt lat="41.983421" lon="-0.085529">
        <ele>394.530</ele>
        <time>2020-08-23T12:20:45Z</time>
      </trkpt>
      <trkpt lat="41.983462" lon="-0.085586">
        <ele>394.582</ele>
        <time>2020-08-23T12:20:46Z</time>
      </trkpt>
      <trkpt lat="41.983495" lon="-0.085650">
        <ele>394.533</ele>
        <time>2020-08-23T12:20:47Z</time>
      </trkpt>
      <trkpt lat="41.983527" lon="-0.085711">
        <ele>394.594</ele>
        <time>2020-08-23T12:20:48Z</time>
      </trkpt>
      <trkpt lat="41.983560" lon="-0.085768">
        <ele>394.530</ele>
        <time>2020-08-23T12:20:49Z</time>
      </trkpt>
      <trkpt lat="41.983591" lon="-0.085834">
        <ele>394.579</ele>
        <time>2020-08-23T12:20:50Z</time>
      </trkpt>
      <trkpt lat="41.983630" lon="-0.085900">
        <ele>394.583</ele>
        <time>2020-08-23T12:20:51Z</time>
      </trkpt>
      <trkpt lat="41.983668" lon="-0.085968">
        <ele>394.525</ele>
        <time>2020-08-23T12:20:52Z</time>
      </trkpt>
      <trkpt lat="41.983699" lon="-0.086030">
        <ele>394.517</ele>
        <time>2020-08-23T12:20:53Z</time>
      </trkpt>
      <trkpt lat="41.983735" lon="-0.086095">
        <ele>394.508</ele>
        <time>2020-08-23T12:20:54Z</time>
      </trkpt>
      <trkpt lat="41.983764" lon="-0.086162">
        <ele>394.573</ele>
        <time>2020-08-23T12:20:55Z</time>
      </trkpt>
      <trkpt lat="41.983792" lon="-0.086224">
        <ele>394.583</ele>
        <time>2020-08-23T12:20:56Z</time>
      </trkpt>
      <trkpt lat="41.983820" lon="-0.086286">
        <ele>394.521</ele>
        <time>2020-08-23T12:20:57Z</time>
      </trkpt>
      <trkpt lat="41.983855" lon="-0.086349">
        <ele>394.623</ele>
        <time>2020-08-23T12:20:58Z</time>
      </trkpt>
      <trkpt lat="41.983896" lon="-0.086411">
        <ele>394.644</ele>
        <time>2020-08-23T12:20:59Z</time>
      </trkpt>
      <trkpt lat="41.983935" lon="-0.086474">
        <ele>394.675</ele>
        <time>2020-08-23T12:21:00Z</time>
      </trkpt>
      <trkpt lat="41.983975" lon="-0.086535">
        <ele>394.651</ele>
        <time>2020-08-23T12:21:01Z</time>
      </trkpt>
      <trkpt lat="41.984012" lon="-0.086598">
        <ele>394.680</ele>
        <time>2020-08-23T12:21:02Z</time>
      </trkpt>
      <trkpt lat="41.984048" lon="-0.086660">
        <ele>394.689</ele>
        <time>2020-08-23T12:21:03Z</time>
      </trkpt>
      <trkpt lat="41.984089" lon="-0.086717">
        <ele>394.606</ele>
        <time>2020-08-23T12:21:04Z</time>
      </trkpt>
      <trkpt lat="41.984120" lon="-0.086773">
        <ele>394.626</ele>
        <time>2020-08-23T12:21:05Z</time>
      </trkpt>
      <trkpt lat="41.984151" lon="-0.086825">
        <ele>394.608</ele>
        <time>2020-08-23T12:21:06Z</time>
      </trkpt>
      <trkpt lat="41.984185" lon="-0.086880">
        <ele>394.663</ele>
        <time>2020-08-23T12:21:07Z</time>
      </trkpt>
      <trkpt lat="41.984214" lon="-0.086937">
        <ele>394.623</ele>
        <time>2020-08-23T12:21:08Z</time>
      </trkpt>
      <trkpt lat="41.984241" lon="-0.086992">
        <ele>394.661</ele>
        <time>2020-08-23T12:21:09Z</time>
      </trkpt>
      <trkpt lat="41.984279" lon="-0.087047">
        <ele>394.643</ele>
        <time>2020-08-23T12:21:10Z</time>
      </trkpt>
      <trkpt lat="41.984317" lon="-0.087106">
        <ele>394.674</ele>
        <time>2020-08-23T12:21:11Z</time>
      </trkpt>
      <trkpt lat="41.984344" lon="-0.087166">
        <ele>394.625</ele>
        <time>2020-08-23T12:21:12Z</time>
      </trkpt>
      <trkpt lat="41.984384" lon="-0.087218">
        <ele>394.641</ele>
        <time>2020-08-23T12:21:13Z</time>
      </trkpt>
      <trkpt lat="41.984418" lon="-0.087276">
        <ele>394.680</ele>
        <time>2020-08-23T12:21:14Z</time>
      </trkpt>
      <trkpt lat="41.984450" lon="-0.087337">
        <ele>394.692</ele>
        <time>2020-08-23T12:21:15Z</time>
      </trkpt>
      <trkpt lat="41.984484" lon="-0.087398">
        <ele>394.573</ele>
        <time>2020-08-23T12:21:16Z</time>
      </trkpt>
      <trkpt lat="41.984517" lon="-0.087462">
        <ele>394.520</ele>
        <time>2020-08-23T12:21:17Z</time>
      </trkpt>
      <trkpt lat="41.984547" lon="-0.087522">
        <ele>394.508</ele>
        <time>2020-08-23T12:21:18Z</time>
      </trkpt>
      <trkpt lat="41.984576" lon="-0.087577">
        <ele>394.544</ele>
        <time>2020-08-23T12:21:19Z</time>
      </trkpt>
      <trkpt lat="41.984608" lon="-0.087634">
        <ele>394.654</ele>
        <time>2020-08-23T12:21:20Z</time>
      </trkpt>
      <trkpt lat="41.984634" lon="-0.087695">
        <ele>394.722</ele>
        <time>2020-08-23T12:21:21Z</time>
      </trkpt>
      <trkpt lat="41.984662" lon="-0.087751">
        <ele>394.754</ele>
        <time>2020-08-23T12:21:22Z</time>
      </trkpt>
      <trkpt lat="41.984687" lon="-0.087806">
        <ele>394.785</ele>
        <time>2020-08-23T12:21:23Z</time>
      </trkpt>
      <trkpt lat="41.984710" lon="-0.087870">
        <ele>394.726</ele>
        <time>2020-08-23T12:21:24Z</time>
      </trkpt>
      <trkpt lat="41.984742" lon="-0.087936">
        <ele>394.782</ele>
        <time>2020-08-23T12:21:25Z</time>
      </trkpt>
      <trkpt lat="41.984773" lon="-0.087998">
        <ele>394.711</ele>
        <time>2020-08-23T12:21:26Z</time>
      </trkpt>
      <trkpt lat="41.984801" lon="-0.088053">
        <ele>394.747</ele>
        <time>2020-08-23T12:21:27Z</time>
      </trkpt>
      <trkpt lat="41.984828" lon="-0.088107">
        <ele>394.729</ele>
        <time>2020-08-23T12:21:28Z</time>
      </trkpt>
      <trkpt lat="41.984862" lon="-0.088170">
        <ele>394.721</ele>
        <time>2020-08-23T12:21:29Z</time>
      </trkpt>
      <trkpt lat="41.984898" lon="-0.088229">
        <ele>394.708</ele>
        <time>2020-08-23T12:21:30Z</time>
      </trkpt>
      <trkpt lat="41.984931" lon="-0.088286">
        <ele>394.799</ele>
        <time>2020-08-23T12:21:31Z</time>
      </trkpt>
      <trkpt lat="41.984970" lon="-0.088343">
        <ele>394.759</ele>
        <time>2020-08-23T12:21:32Z</time>
      </trkpt>
      <trkpt lat="41.985003" lon="-0.088398">
        <ele>394.747</ele>
        <time>2020-08-23T12:21:33Z</time>
      </trkpt>
      <trkpt lat="41.985047" lon="-0.088498">
        <ele>394.719</ele>
        <time>2020-08-23T12:21:35Z</time>
      </trkpt>
      <trkpt lat="41.985078" lon="-0.088549">
        <ele>394.770</ele>
        <time>2020-08-23T12:21:36Z</time>
      </trkpt>
      <trkpt lat="41.985106" lon="-0.088604">
        <ele>394.791</ele>
        <time>2020-08-23T12:21:37Z</time>
      </trkpt>
      <trkpt lat="41.985137" lon="-0.088663">
        <ele>394.727</ele>
        <time>2020-08-23T12:21:38Z</time>
      </trkpt>
      <trkpt lat="41.985162" lon="-0.088725">
        <ele>394.716</ele>
        <time>2020-08-23T12:21:39Z</time>
      </trkpt>
      <trkpt lat="41.985193" lon="-0.088785">
        <ele>394.714</ele>
        <time>2020-08-23T12:21:40Z</time>
      </trkpt>
      <trkpt lat="41.985222" lon="-0.088847">
        <ele>394.754</ele>
        <time>2020-08-23T12:21:41Z</time>
      </trkpt>
      <trkpt lat="41.985249" lon="-0.088908">
        <ele>394.709</ele>
        <time>2020-08-23T12:21:42Z</time>
      </trkpt>
      <trkpt lat="41.985275" lon="-0.088966">
        <ele>394.708</ele>
        <time>2020-08-23T12:21:43Z</time>
      </trkpt>
      <trkpt lat="41.985295" lon="-0.089033">
        <ele>394.756</ele>
        <time>2020-08-23T12:21:44Z</time>
      </trkpt>
      <trkpt lat="41.985327" lon="-0.089097">
        <ele>394.786</ele>
        <time>2020-08-23T12:21:45Z</time>
      </trkpt>
      <trkpt lat="41.985367" lon="-0.089156">
        <ele>394.784</ele>
        <time>2020-08-23T12:21:46Z</time>
      </trkpt>
      <trkpt lat="41.985398" lon="-0.089219">
        <ele>394.776</ele>
        <time>2020-08-23T12:21:47Z</time>
      </trkpt>
      <trkpt lat="41.985432" lon="-0.089283">
        <ele>394.737</ele>
        <time>2020-08-23T12:21:48Z</time>
      </trkpt>
      <trkpt lat="41.985464" lon="-0.089352">
        <ele>394.888</ele>
        <time>2020-08-23T12:21:49Z</time>
      </trkpt>
      <trkpt lat="41.985497" lon="-0.089415">
        <ele>394.944</ele>
        <time>2020-08-23T12:21:50Z</time>
      </trkpt>
      <trkpt lat="41.985527" lon="-0.089477">
        <ele>395.043</ele>
        <time>2020-08-23T12:21:51Z</time>
      </trkpt>
      <trkpt lat="41.985558" lon="-0.089536">
        <ele>395.114</ele>
        <time>2020-08-23T12:21:52Z</time>
      </trkpt>
      <trkpt lat="41.985591" lon="-0.089596">
        <ele>395.254</ele>
        <time>2020-08-23T12:21:53Z</time>
      </trkpt>
      <trkpt lat="41.985622" lon="-0.089653">
        <ele>395.209</ele>
        <time>2020-08-23T12:21:54Z</time>
      </trkpt>
      <trkpt lat="41.985657" lon="-0.089709">
        <ele>395.208</ele>
        <time>2020-08-23T12:21:55Z</time>
      </trkpt>
      <trkpt lat="41.985689" lon="-0.089763">
        <ele>395.246</ele>
        <time>2020-08-23T12:21:56Z</time>
      </trkpt>
      <trkpt lat="41.985715" lon="-0.089822">
        <ele>395.226</ele>
        <time>2020-08-23T12:21:57Z</time>
      </trkpt>
      <trkpt lat="41.985741" lon="-0.089883">
        <ele>395.244</ele>
        <time>2020-08-23T12:21:58Z</time>
      </trkpt>
      <trkpt lat="41.985772" lon="-0.089943">
        <ele>395.276</ele>
        <time>2020-08-23T12:21:59Z</time>
      </trkpt>
      <trkpt lat="41.985805" lon="-0.089999">
        <ele>395.247</ele>
        <time>2020-08-23T12:22:00Z</time>
      </trkpt>
      <trkpt lat="41.985838" lon="-0.090059">
        <ele>395.238</ele>
        <time>2020-08-23T12:22:01Z</time>
      </trkpt>
      <trkpt lat="41.985871" lon="-0.090122">
        <ele>395.214</ele>
        <time>2020-08-23T12:22:02Z</time>
      </trkpt>
      <trkpt lat="41.985908" lon="-0.090182">
        <ele>395.223</ele>
        <time>2020-08-23T12:22:03Z</time>
      </trkpt>
      <trkpt lat="41.985942" lon="-0.090238">
        <ele>395.214</ele>
        <time>2020-08-23T12:22:04Z</time>
      </trkpt>
      <trkpt lat="41.985974" lon="-0.090295">
        <ele>395.254</ele>
        <time>2020-08-23T12:22:05Z</time>
      </trkpt>
      <trkpt lat="41.986010" lon="-0.090352">
        <ele>395.209</ele>
        <time>2020-08-23T12:22:06Z</time>
      </trkpt>
      <trkpt lat="41.986045" lon="-0.090410">
        <ele>395.208</ele>
        <time>2020-08-23T12:22:07Z</time>
      </trkpt>
      <trkpt lat="41.986083" lon="-0.090464">
        <ele>395.256</ele>
        <time>2020-08-23T12:22:08Z</time>
      </trkpt>
      <trkpt lat="41.986119" lon="-0.090523">
        <ele>395.286</ele>
        <time>2020-08-23T12:22:09Z</time>
      </trkpt>
      <trkpt lat="41.986153" lon="-0.090584">
        <ele>395.274</ele>
        <time>2020-08-23T12:22:10Z</time>
      </trkpt>
      <trkpt lat="41.986189" lon="-0.090646">
        <ele>395.246</ele>
        <time>2020-08-23T12:22:11Z</time>
      </trkpt>
      <trkpt lat="41.986230" lon="-0.090711">
        <ele>395.287</ele>
        <time>2020-08-23T12:22:12Z</time>
      </trkpt>
      <trkpt lat="41.986269" lon="-0.090775">
        <ele>395.258</ele>
        <time>2020-08-23T12:22:13Z</time>
      </trkpt>
      <trkpt lat="41.986314" lon="-0.090830">
        <ele>395.264</ele>
        <time>2020-08-23T12:22:14Z</time>
      </trkpt>
      <trkpt lat="41.986358" lon="-0.090882">
        <ele>395.293</ele>
        <time>2020-08-23T12:22:15Z</time>
      </trkpt>
      <trkpt lat="41.986401" lon="-0.090933">
        <ele>395.267</ele>
        <time>2020-08-23T12:22:16Z</time>
      </trkpt>
      <trkpt lat="41.986440" lon="-0.090978">
        <ele>395.281</ele>
        <time>2020-08-23T12:22:17Z</time>
      </trkpt>
      <trkpt lat="41.986479" lon="-0.091032">
        <ele>395.219</ele>
        <time>2020-08-23T12:22:18Z</time>
      </trkpt>
      <trkpt lat="41.986524" lon="-0.091090">
        <ele>395.208</ele>
        <time>2020-08-23T12:22:19Z</time>
      </trkpt>
      <trkpt lat="41.986567" lon="-0.091145">
        <ele>395.291</ele>
        <time>2020-08-23T12:22:20Z</time>
      </trkpt>
      <trkpt lat="41.986603" lon="-0.091202">
        <ele>395.221</ele>
        <time>2020-08-23T12:22:21Z</time>
      </trkpt>
      <trkpt lat="41.986637" lon="-0.091263">
        <ele>395.249</ele>
        <time>2020-08-23T12:22:22Z</time>
      </trkpt>
      <trkpt lat="41.986668" lon="-0.091330">
        <ele>395.161</ele>
        <time>2020-08-23T12:22:23Z</time>
      </trkpt>
      <trkpt lat="41.986698" lon="-0.091399">
        <ele>395.092</ele>
        <time>2020-08-23T12:22:24Z</time>
      </trkpt>
      <trkpt lat="41.986728" lon="-0.091472">
        <ele>394.973</ele>
        <time>2020-08-23T12:22:25Z</time>
      </trkpt>
      <trkpt lat="41.986758" lon="-0.091537">
        <ele>394.919</ele>
        <time>2020-08-23T12:22:26Z</time>
      </trkpt>
      <trkpt lat="41.986792" lon="-0.091594">
        <ele>394.968</ele>
        <time>2020-08-23T12:22:27Z</time>
      </trkpt>
      <trkpt lat="41.986828" lon="-0.091649">
        <ele>394.993</ele>
        <time>2020-08-23T12:22:28Z</time>
      </trkpt>
      <trkpt lat="41.986861" lon="-0.091697">
        <ele>394.965</ele>
        <time>2020-08-23T12:22:29Z</time>
      </trkpt>
      <trkpt lat="41.986889" lon="-0.091750">
        <ele>394.921</ele>
        <time>2020-08-23T12:22:30Z</time>
      </trkpt>
      <trkpt lat="41.986920" lon="-0.091801">
        <ele>394.908</ele>
        <time>2020-08-23T12:22:31Z</time>
      </trkpt>
      <trkpt lat="41.986948" lon="-0.091856">
        <ele>394.964</ele>
        <time>2020-08-23T12:22:32Z</time>
      </trkpt>
      <trkpt lat="41.986983" lon="-0.091908">
        <ele>394.914</ele>
        <time>2020-08-23T12:22:33Z</time>
      </trkpt>
      <trkpt lat="41.987019" lon="-0.091962">
        <ele>394.812</ele>
        <time>2020-08-23T12:22:34Z</time>
      </trkpt>
      <trkpt lat="41.987052" lon="-0.092015">
        <ele>394.864</ele>
        <time>2020-08-23T12:22:35Z</time>
      </trkpt>
      <trkpt lat="41.987082" lon="-0.092072">
        <ele>394.735</ele>
        <time>2020-08-23T12:22:36Z</time>
      </trkpt>
      <trkpt lat="41.987113" lon="-0.092132">
        <ele>394.776</ele>
        <time>2020-08-23T12:22:37Z</time>
      </trkpt>
      <trkpt lat="41.987144" lon="-0.092190">
        <ele>394.792</ele>
        <time>2020-08-23T12:22:38Z</time>
      </trkpt>
      <trkpt lat="41.987172" lon="-0.092247">
        <ele>394.711</ele>
        <time>2020-08-23T12:22:39Z</time>
      </trkpt>
      <trkpt lat="41.987208" lon="-0.092310">
        <ele>394.746</ele>
        <time>2020-08-23T12:22:40Z</time>
      </trkpt>
      <trkpt lat="41.987251" lon="-0.092377">
        <ele>394.788</ele>
        <time>2020-08-23T12:22:41Z</time>
      </trkpt>
      <trkpt lat="41.987287" lon="-0.092439">
        <ele>394.716</ele>
        <time>2020-08-23T12:22:42Z</time>
      </trkpt>
      <trkpt lat="41.987318" lon="-0.092502">
        <ele>394.708</ele>
        <time>2020-08-23T12:22:43Z</time>
      </trkpt>
      <trkpt lat="41.987353" lon="-0.092565">
        <ele>394.759</ele>
        <time>2020-08-23T12:22:44Z</time>
      </trkpt>
      <trkpt lat="41.987387" lon="-0.092629">
        <ele>394.779</ele>
        <time>2020-08-23T12:22:45Z</time>
      </trkpt>
      <trkpt lat="41.987420" lon="-0.092689">
        <ele>394.767</ele>
        <time>2020-08-23T12:22:46Z</time>
      </trkpt>
      <trkpt lat="41.987456" lon="-0.092746">
        <ele>394.719</ele>
        <time>2020-08-23T12:22:47Z</time>
      </trkpt>
      <trkpt lat="41.987487" lon="-0.092805">
        <ele>394.750</ele>
        <time>2020-08-23T12:22:48Z</time>
      </trkpt>
      <trkpt lat="41.987519" lon="-0.092867">
        <ele>394.721</ele>
        <time>2020-08-23T12:22:49Z</time>
      </trkpt>
      <trkpt lat="41.987546" lon="-0.092926">
        <ele>394.777</ele>
        <time>2020-08-23T12:22:50Z</time>
      </trkpt>
      <trkpt lat="41.987577" lon="-0.092979">
        <ele>394.746</ele>
        <time>2020-08-23T12:22:51Z</time>
      </trkpt>
      <trkpt lat="41.987611" lon="-0.093044">
        <ele>394.715</ele>
        <time>2020-08-23T12:22:52Z</time>
      </trkpt>
      <trkpt lat="41.987642" lon="-0.093102">
        <ele>394.765</ele>
        <time>2020-08-23T12:22:53Z</time>
      </trkpt>
      <trkpt lat="41.987673" lon="-0.093158">
        <ele>394.711</ele>
        <time>2020-08-23T12:22:54Z</time>
      </trkpt>
      <trkpt lat="41.987703" lon="-0.093213">
        <ele>394.708</ele>
        <time>2020-08-23T12:22:55Z</time>
      </trkpt>
      <trkpt lat="41.987738" lon="-0.093267">
        <ele>394.776</ele>
        <time>2020-08-23T12:22:56Z</time>
      </trkpt>
      <trkpt lat="41.987764" lon="-0.093327">
        <ele>394.736</ele>
        <time>2020-08-23T12:22:57Z</time>
      </trkpt>
      <trkpt lat="41.987792" lon="-0.093390">
        <ele>394.764</ele>
        <time>2020-08-23T12:22:58Z</time>
      </trkpt>
      <trkpt lat="41.987819" lon="-0.093451">
        <ele>394.816</ele>
        <time>2020-08-23T12:22:59Z</time>
      </trkpt>
      <trkpt lat="41.987846" lon="-0.093508">
        <ele>394.917</ele>
        <time>2020-08-23T12:23:00Z</time>
      </trkpt>
      <trkpt lat="41.987881" lon="-0.093568">
        <ele>394.988</ele>
        <time>2020-08-23T12:23:01Z</time>
      </trkpt>
      <trkpt lat="41.987912" lon="-0.093625">
        <ele>394.924</ele>
        <time>2020-08-23T12:23:02Z</time>
      </trkpt>
      <trkpt lat="41.987938" lon="-0.093689">
        <ele>394.953</ele>
        <time>2020-08-23T12:23:03Z</time>
      </trkpt>
      <trkpt lat="41.987969" lon="-0.093754">
        <ele>394.919</ele>
        <time>2020-08-23T12:23:04Z</time>
      </trkpt>
      <trkpt lat="41.988007" lon="-0.093817">
        <ele>394.909</ele>
        <time>2020-08-23T12:23:05Z</time>
      </trkpt>
      <trkpt lat="41.988047" lon="-0.093886">
        <ele>394.919</ele>
        <time>2020-08-23T12:23:06Z</time>
      </trkpt>
      <trkpt lat="41.988082" lon="-0.093950">
        <ele>394.908</ele>
        <time>2020-08-23T12:23:07Z</time>
      </trkpt>
      <trkpt lat="41.988122" lon="-0.094011">
        <ele>394.986</ele>
        <time>2020-08-23T12:23:08Z</time>
      </trkpt>
      <trkpt lat="41.988155" lon="-0.094075">
        <ele>394.916</ele>
        <time>2020-08-23T12:23:09Z</time>
      </trkpt>
      <trkpt lat="41.988184" lon="-0.094138">
        <ele>394.914</ele>
        <time>2020-08-23T12:23:10Z</time>
      </trkpt>
      <trkpt lat="41.988217" lon="-0.094195">
        <ele>394.936</ele>
        <time>2020-08-23T12:23:11Z</time>
      </trkpt>
      <trkpt lat="41.988250" lon="-0.094250">
        <ele>394.937</ele>
        <time>2020-08-23T12:23:12Z</time>
      </trkpt>
      <trkpt lat="41.988281" lon="-0.094306">
        <ele>394.928</ele>
        <time>2020-08-23T12:23:13Z</time>
      </trkpt>
      <trkpt lat="41.988314" lon="-0.094358">
        <ele>395.024</ele>
        <time>2020-08-23T12:23:14Z</time>
      </trkpt>
      <trkpt lat="41.988344" lon="-0.094412">
        <ele>395.153</ele>
        <time>2020-08-23T12:23:15Z</time>
      </trkpt>
      <trkpt lat="41.988375" lon="-0.094468">
        <ele>395.114</ele>
        <time>2020-08-23T12:23:16Z</time>
      </trkpt>
      <trkpt lat="41.988413" lon="-0.094519">
        <ele>395.154</ele>
        <time>2020-08-23T12:23:17Z</time>
      </trkpt>
      <trkpt lat="41.988450" lon="-0.094573">
        <ele>395.109</ele>
        <time>2020-08-23T12:23:18Z</time>
      </trkpt>
      <trkpt lat="41.988492" lon="-0.094626">
        <ele>395.108</ele>
        <time>2020-08-23T12:23:19Z</time>
      </trkpt>
      <trkpt lat="41.988531" lon="-0.094680">
        <ele>395.136</ele>
        <time>2020-08-23T12:23:20Z</time>
      </trkpt>
      <trkpt lat="41.988561" lon="-0.094735">
        <ele>395.146</ele>
        <time>2020-08-23T12:23:21Z</time>
      </trkpt>
      <trkpt lat="41.988596" lon="-0.094790">
        <ele>395.134</ele>
        <time>2020-08-23T12:23:22Z</time>
      </trkpt>
      <trkpt lat="41.988627" lon="-0.094847">
        <ele>395.186</ele>
        <time>2020-08-23T12:23:23Z</time>
      </trkpt>
      <trkpt lat="41.988657" lon="-0.094907">
        <ele>395.137</ele>
        <time>2020-08-23T12:23:24Z</time>
      </trkpt>
      <trkpt lat="41.988689" lon="-0.094961">
        <ele>395.128</ele>
        <time>2020-08-23T12:23:25Z</time>
      </trkpt>
      <trkpt lat="41.988720" lon="-0.095021">
        <ele>395.144</ele>
        <time>2020-08-23T12:23:26Z</time>
      </trkpt>
      <trkpt lat="41.988758" lon="-0.095081">
        <ele>395.163</ele>
        <time>2020-08-23T12:23:27Z</time>
      </trkpt>
      <trkpt lat="41.988794" lon="-0.095142">
        <ele>395.225</ele>
        <time>2020-08-23T12:23:28Z</time>
      </trkpt>
      <trkpt lat="41.988832" lon="-0.095198">
        <ele>395.326</ele>
        <time>2020-08-23T12:23:29Z</time>
      </trkpt>
      <trkpt lat="41.988866" lon="-0.095255">
        <ele>395.408</ele>
        <time>2020-08-23T12:23:30Z</time>
      </trkpt>
      <trkpt lat="41.988899" lon="-0.095313">
        <ele>395.408</ele>
        <time>2020-08-23T12:23:31Z</time>
      </trkpt>
      <trkpt lat="41.988928" lon="-0.095375">
        <ele>395.427</ele>
        <time>2020-08-23T12:23:32Z</time>
      </trkpt>
      <trkpt lat="41.988958" lon="-0.095441">
        <ele>395.497</ele>
        <time>2020-08-23T12:23:33Z</time>
      </trkpt>
      <trkpt lat="41.988995" lon="-0.095504">
        <ele>395.445</ele>
        <time>2020-08-23T12:23:34Z</time>
      </trkpt>
      <trkpt lat="41.989028" lon="-0.095566">
        <ele>395.467</ele>
        <time>2020-08-23T12:23:35Z</time>
      </trkpt>
      <trkpt lat="41.989056" lon="-0.095624">
        <ele>395.448</ele>
        <time>2020-08-23T12:23:36Z</time>
      </trkpt>
      <trkpt lat="41.989083" lon="-0.095682">
        <ele>395.569</ele>
        <time>2020-08-23T12:23:37Z</time>
      </trkpt>
      <trkpt lat="41.989116" lon="-0.095737">
        <ele>395.535</ele>
        <time>2020-08-23T12:23:38Z</time>
      </trkpt>
      <trkpt lat="41.989143" lon="-0.095794">
        <ele>395.534</ele>
        <time>2020-08-23T12:23:39Z</time>
      </trkpt>
      <trkpt lat="41.989172" lon="-0.095850">
        <ele>395.555</ele>
        <time>2020-08-23T12:23:40Z</time>
      </trkpt>
      <trkpt lat="41.989209" lon="-0.095904">
        <ele>395.507</ele>
        <time>2020-08-23T12:23:41Z</time>
      </trkpt>
      <trkpt lat="41.989244" lon="-0.095967">
        <ele>395.517</ele>
        <time>2020-08-23T12:23:42Z</time>
      </trkpt>
      <trkpt lat="41.989281" lon="-0.096026">
        <ele>395.508</ele>
        <time>2020-08-23T12:23:43Z</time>
      </trkpt>
      <trkpt lat="41.989311" lon="-0.096081">
        <ele>395.570</ele>
        <time>2020-08-23T12:23:44Z</time>
      </trkpt>
      <trkpt lat="41.989343" lon="-0.096135">
        <ele>395.550</ele>
        <time>2020-08-23T12:23:45Z</time>
      </trkpt>
      <trkpt lat="41.989378" lon="-0.096195">
        <ele>395.558</ele>
        <time>2020-08-23T12:23:46Z</time>
      </trkpt>
      <trkpt lat="41.989407" lon="-0.096257">
        <ele>395.540</ele>
        <time>2020-08-23T12:23:47Z</time>
      </trkpt>
      <trkpt lat="41.989437" lon="-0.096318">
        <ele>395.541</ele>
        <time>2020-08-23T12:23:48Z</time>
      </trkpt>
      <trkpt lat="41.989471" lon="-0.096379">
        <ele>395.552</ele>
        <time>2020-08-23T12:23:49Z</time>
      </trkpt>
      <trkpt lat="41.989511" lon="-0.096437">
        <ele>395.538</ele>
        <time>2020-08-23T12:23:50Z</time>
      </trkpt>
      <trkpt lat="41.989551" lon="-0.096492">
        <ele>395.587</ele>
        <time>2020-08-23T12:23:51Z</time>
      </trkpt>
      <trkpt lat="41.989588" lon="-0.096547">
        <ele>395.571</ele>
        <time>2020-08-23T12:23:52Z</time>
      </trkpt>
      <trkpt lat="41.989619" lon="-0.096612">
        <ele>395.541</ele>
        <time>2020-08-23T12:23:53Z</time>
      </trkpt>
      <trkpt lat="41.989649" lon="-0.096677">
        <ele>395.515</ele>
        <time>2020-08-23T12:23:54Z</time>
      </trkpt>
      <trkpt lat="41.989680" lon="-0.096734">
        <ele>395.508</ele>
        <time>2020-08-23T12:23:55Z</time>
      </trkpt>
      <trkpt lat="41.989709" lon="-0.096796">
        <ele>395.532</ele>
        <time>2020-08-23T12:23:56Z</time>
      </trkpt>
      <trkpt lat="41.989745" lon="-0.096858">
        <ele>395.552</ele>
        <time>2020-08-23T12:23:57Z</time>
      </trkpt>
      <trkpt lat="41.989776" lon="-0.096917">
        <ele>395.530</ele>
        <time>2020-08-23T12:23:58Z</time>
      </trkpt>
      <trkpt lat="41.989808" lon="-0.096973">
        <ele>395.522</ele>
        <time>2020-08-23T12:23:59Z</time>
      </trkpt>
      <trkpt lat="41.989847" lon="-0.097028">
        <ele>395.573</ele>
        <time>2020-08-23T12:24:00Z</time>
      </trkpt>
      <trkpt lat="41.989885" lon="-0.097084">
        <ele>395.574</ele>
        <time>2020-08-23T12:24:01Z</time>
      </trkpt>
      <trkpt lat="41.989920" lon="-0.097145">
        <ele>395.560</ele>
        <time>2020-08-23T12:24:02Z</time>
      </trkpt>
      <trkpt lat="41.989948" lon="-0.097209">
        <ele>395.539</ele>
        <time>2020-08-23T12:24:03Z</time>
      </trkpt>
      <trkpt lat="41.989983" lon="-0.097271">
        <ele>395.544</ele>
        <time>2020-08-23T12:24:04Z</time>
      </trkpt>
      <trkpt lat="41.990020" lon="-0.097327">
        <ele>395.505</ele>
        <time>2020-08-23T12:24:05Z</time>
      </trkpt>
      <trkpt lat="41.990055" lon="-0.097383">
        <ele>395.515</ele>
        <time>2020-08-23T12:24:06Z</time>
      </trkpt>
      <trkpt lat="41.990087" lon="-0.097445">
        <ele>395.508</ele>
        <time>2020-08-23T12:24:07Z</time>
      </trkpt>
      <trkpt lat="41.990116" lon="-0.097512">
        <ele>395.599</ele>
        <time>2020-08-23T12:24:08Z</time>
      </trkpt>
      <trkpt lat="41.990143" lon="-0.097575">
        <ele>395.599</ele>
        <time>2020-08-23T12:24:09Z</time>
      </trkpt>
      <trkpt lat="41.990173" lon="-0.097643">
        <ele>395.527</ele>
        <time>2020-08-23T12:24:10Z</time>
      </trkpt>
      <trkpt lat="41.990210" lon="-0.097702">
        <ele>395.589</ele>
        <time>2020-08-23T12:24:11Z</time>
      </trkpt>
      <trkpt lat="41.990248" lon="-0.097755">
        <ele>395.530</ele>
        <time>2020-08-23T12:24:12Z</time>
      </trkpt>
      <trkpt lat="41.990287" lon="-0.097807">
        <ele>395.571</ele>
        <time>2020-08-23T12:24:13Z</time>
      </trkpt>
      <trkpt lat="41.990316" lon="-0.097868">
        <ele>395.577</ele>
        <time>2020-08-23T12:24:14Z</time>
      </trkpt>
      <trkpt lat="41.990353" lon="-0.097926">
        <ele>395.456</ele>
        <time>2020-08-23T12:24:15Z</time>
      </trkpt>
      <trkpt lat="41.990392" lon="-0.097985">
        <ele>395.338</ele>
        <time>2020-08-23T12:24:16Z</time>
      </trkpt>
      <trkpt lat="41.990431" lon="-0.098037">
        <ele>395.370</ele>
        <time>2020-08-23T12:24:17Z</time>
      </trkpt>
      <trkpt lat="41.990465" lon="-0.098094">
        <ele>395.317</ele>
        <time>2020-08-23T12:24:18Z</time>
      </trkpt>
      <trkpt lat="41.990497" lon="-0.098152">
        <ele>395.308</ele>
        <time>2020-08-23T12:24:19Z</time>
      </trkpt>
      <trkpt lat="41.990524" lon="-0.098215">
        <ele>395.428</ele>
        <time>2020-08-23T12:24:20Z</time>
      </trkpt>
      <trkpt lat="41.990554" lon="-0.098277">
        <ele>395.518</ele>
        <time>2020-08-23T12:24:21Z</time>
      </trkpt>
      <trkpt lat="41.990583" lon="-0.098336">
        <ele>395.556</ele>
        <time>2020-08-23T12:24:22Z</time>
      </trkpt>
      <trkpt lat="41.990620" lon="-0.098397">
        <ele>395.548</ele>
        <time>2020-08-23T12:24:23Z</time>
      </trkpt>
      <trkpt lat="41.990651" lon="-0.098463">
        <ele>395.579</ele>
        <time>2020-08-23T12:24:24Z</time>
      </trkpt>
      <trkpt lat="41.990680" lon="-0.098528">
        <ele>395.550</ele>
        <time>2020-08-23T12:24:25Z</time>
      </trkpt>
      <trkpt lat="41.990712" lon="-0.098589">
        <ele>395.566</ele>
        <time>2020-08-23T12:24:26Z</time>
      </trkpt>
      <trkpt lat="41.990741" lon="-0.098647">
        <ele>395.595</ele>
        <time>2020-08-23T12:24:27Z</time>
      </trkpt>
      <trkpt lat="41.990767" lon="-0.098703">
        <ele>395.518</ele>
        <time>2020-08-23T12:24:28Z</time>
      </trkpt>
      <trkpt lat="41.990801" lon="-0.098759">
        <ele>395.598</ele>
        <time>2020-08-23T12:24:29Z</time>
      </trkpt>
      <trkpt lat="41.990837" lon="-0.098814">
        <ele>395.517</ele>
        <time>2020-08-23T12:24:30Z</time>
      </trkpt>
      <trkpt lat="41.990867" lon="-0.098870">
        <ele>395.508</ele>
        <time>2020-08-23T12:24:31Z</time>
      </trkpt>
      <trkpt lat="41.990899" lon="-0.098922">
        <ele>395.516</ele>
        <time>2020-08-23T12:24:32Z</time>
      </trkpt>
      <trkpt lat="41.990927" lon="-0.098981">
        <ele>395.526</ele>
        <time>2020-08-23T12:24:33Z</time>
      </trkpt>
      <trkpt lat="41.990953" lon="-0.099034">
        <ele>395.634</ele>
        <time>2020-08-23T12:24:34Z</time>
      </trkpt>
      <trkpt lat="41.991007" lon="-0.099125">
        <ele>395.896</ele>
        <time>2020-08-23T12:24:36Z</time>
      </trkpt>
      <trkpt lat="41.991048" lon="-0.099211">
        <ele>396.117</ele>
        <time>2020-08-23T12:24:38Z</time>
      </trkpt>
      <trkpt lat="41.991078" lon="-0.099279">
        <ele>396.578</ele>
        <time>2020-08-23T12:24:40Z</time>
      </trkpt>
      <trkpt lat="41.991102" lon="-0.099341">
        <ele>397.054</ele>
        <time>2020-08-23T12:24:42Z</time>
      </trkpt>
      <trkpt lat="41.991108" lon="-0.099422">
        <ele>397.773</ele>
        <time>2020-08-23T12:24:45Z</time>
      </trkpt>
      <trkpt lat="41.991128" lon="-0.099483">
        <ele>397.992</ele>
        <time>2020-08-23T12:24:47Z</time>
      </trkpt>
      <trkpt lat="41.991137" lon="-0.099565">
        <ele>398.173</ele>
        <time>2020-08-23T12:24:50Z</time>
      </trkpt>
      <trkpt lat="41.991156" lon="-0.099646">
        <ele>398.420</ele>
        <time>2020-08-23T12:24:53Z</time>
      </trkpt>
      <trkpt lat="41.991171" lon="-0.099720">
        <ele>398.908</ele>
        <time>2020-08-23T12:24:56Z</time>
      </trkpt>
      <trkpt lat="41.991182" lon="-0.099782">
        <ele>399.174</ele>
        <time>2020-08-23T12:24:58Z</time>
      </trkpt>
      <trkpt lat="41.991214" lon="-0.099838">
        <ele>399.344</ele>
        <time>2020-08-23T12:25:00Z</time>
      </trkpt>
      <trkpt lat="41.991252" lon="-0.099885">
        <ele>399.392</ele>
        <time>2020-08-23T12:25:03Z</time>
      </trkpt>
      <trkpt lat="41.991296" lon="-0.099926">
        <ele>398.964</ele>
        <time>2020-08-23T12:26:37Z</time>
      </trkpt>
      <trkpt lat="41.991335" lon="-0.099997">
        <ele>399.345</ele>
        <time>2020-08-23T12:26:59Z</time>
      </trkpt>
      <trkpt lat="41.991367" lon="-0.100066">
        <ele>399.466</ele>
        <time>2020-08-23T12:27:01Z</time>
      </trkpt>
      <trkpt lat="41.991390" lon="-0.100141">
        <ele>399.532</ele>
        <time>2020-08-23T12:27:03Z</time>
      </trkpt>
      <trkpt lat="41.991420" lon="-0.100205">
        <ele>399.641</ele>
        <time>2020-08-23T12:27:05Z</time>
      </trkpt>
      <trkpt lat="41.991460" lon="-0.100261">
        <ele>399.769</ele>
        <time>2020-08-23T12:27:07Z</time>
      </trkpt>
      <trkpt lat="41.991503" lon="-0.100328">
        <ele>399.804</ele>
        <time>2020-08-23T12:27:09Z</time>
      </trkpt>
      <trkpt lat="41.991543" lon="-0.100397">
        <ele>400.024</ele>
        <time>2020-08-23T12:27:11Z</time>
      </trkpt>
      <trkpt lat="41.991582" lon="-0.100484">
        <ele>400.308</ele>
        <time>2020-08-23T12:27:13Z</time>
      </trkpt>
      <trkpt lat="41.991631" lon="-0.100566">
        <ele>400.431</ele>
        <time>2020-08-23T12:27:15Z</time>
      </trkpt>
      <trkpt lat="41.991677" lon="-0.100645">
        <ele>400.661</ele>
        <time>2020-08-23T12:27:17Z</time>
      </trkpt>
      <trkpt lat="41.991723" lon="-0.100731">
        <ele>400.739</ele>
        <time>2020-08-23T12:27:19Z</time>
      </trkpt>
      <trkpt lat="41.991762" lon="-0.100813">
        <ele>400.851</ele>
        <time>2020-08-23T12:27:21Z</time>
      </trkpt>
      <trkpt lat="41.991788" lon="-0.100889">
        <ele>400.912</ele>
        <time>2020-08-23T12:27:23Z</time>
      </trkpt>
      <trkpt lat="41.991831" lon="-0.100957">
        <ele>400.933</ele>
        <time>2020-08-23T12:27:25Z</time>
      </trkpt>
      <trkpt lat="41.991872" lon="-0.101030">
        <ele>401.039</ele>
        <time>2020-08-23T12:27:27Z</time>
      </trkpt>
      <trkpt lat="41.991916" lon="-0.101094">
        <ele>401.048</ele>
        <time>2020-08-23T12:27:29Z</time>
      </trkpt>
      <trkpt lat="41.991962" lon="-0.101165">
        <ele>401.038</ele>
        <time>2020-08-23T12:27:31Z</time>
      </trkpt>
      <trkpt lat="41.992003" lon="-0.101240">
        <ele>401.070</ele>
        <time>2020-08-23T12:27:33Z</time>
      </trkpt>
      <trkpt lat="41.992045" lon="-0.101304">
        <ele>401.017</ele>
        <time>2020-08-23T12:27:35Z</time>
      </trkpt>
      <trkpt lat="41.992089" lon="-0.101372">
        <ele>401.008</ele>
        <time>2020-08-23T12:27:37Z</time>
      </trkpt>
      <trkpt lat="41.992135" lon="-0.101446">
        <ele>401.088</ele>
        <time>2020-08-23T12:27:39Z</time>
      </trkpt>
      <trkpt lat="41.992175" lon="-0.101523">
        <ele>401.198</ele>
        <time>2020-08-23T12:27:41Z</time>
      </trkpt>
      <trkpt lat="41.992210" lon="-0.101607">
        <ele>401.386</ele>
        <time>2020-08-23T12:27:43Z</time>
      </trkpt>
      <trkpt lat="41.992248" lon="-0.101685">
        <ele>401.538</ele>
        <time>2020-08-23T12:27:45Z</time>
      </trkpt>
      <trkpt lat="41.992285" lon="-0.101762">
        <ele>401.539</ele>
        <time>2020-08-23T12:27:47Z</time>
      </trkpt>
      <trkpt lat="41.992323" lon="-0.101831">
        <ele>401.670</ele>
        <time>2020-08-23T12:27:49Z</time>
      </trkpt>
      <trkpt lat="41.992363" lon="-0.101907">
        <ele>401.896</ele>
        <time>2020-08-23T12:27:51Z</time>
      </trkpt>
      <trkpt lat="41.992410" lon="-0.101992">
        <ele>402.045</ele>
        <time>2020-08-23T12:27:53Z</time>
      </trkpt>
      <trkpt lat="41.992460" lon="-0.102062">
        <ele>402.127</ele>
        <time>2020-08-23T12:27:55Z</time>
      </trkpt>
      <trkpt lat="41.992500" lon="-0.102141">
        <ele>402.168</ele>
        <time>2020-08-23T12:27:57Z</time>
      </trkpt>
      <trkpt lat="41.992532" lon="-0.102237">
        <ele>402.114</ele>
        <time>2020-08-23T12:27:59Z</time>
      </trkpt>
      <trkpt lat="41.992580" lon="-0.102312">
        <ele>402.208</ele>
        <time>2020-08-23T12:28:01Z</time>
      </trkpt>
      <trkpt lat="41.992637" lon="-0.102373">
        <ele>402.317</ele>
        <time>2020-08-23T12:28:03Z</time>
      </trkpt>
      <trkpt lat="41.992687" lon="-0.102450">
        <ele>402.417</ele>
        <time>2020-08-23T12:28:05Z</time>
      </trkpt>
      <trkpt lat="41.992733" lon="-0.102521">
        <ele>402.665</ele>
        <time>2020-08-23T12:28:07Z</time>
      </trkpt>
      <trkpt lat="41.992779" lon="-0.102599">
        <ele>402.797</ele>
        <time>2020-08-23T12:28:09Z</time>
      </trkpt>
      <trkpt lat="41.992822" lon="-0.102672">
        <ele>402.818</ele>
        <time>2020-08-23T12:28:11Z</time>
      </trkpt>
      <trkpt lat="41.992867" lon="-0.102742">
        <ele>402.929</ele>
        <time>2020-08-23T12:28:13Z</time>
      </trkpt>
      <trkpt lat="41.992911" lon="-0.102812">
        <ele>403.055</ele>
        <time>2020-08-23T12:28:15Z</time>
      </trkpt>
      <trkpt lat="41.992953" lon="-0.102875">
        <ele>403.284</ele>
        <time>2020-08-23T12:28:17Z</time>
      </trkpt>
      <trkpt lat="41.992983" lon="-0.102941">
        <ele>403.453</ele>
        <time>2020-08-23T12:28:19Z</time>
      </trkpt>
      <trkpt lat="41.993037" lon="-0.103009">
        <ele>403.404</ele>
        <time>2020-08-23T12:28:21Z</time>
      </trkpt>
      <trkpt lat="41.993078" lon="-0.103081">
        <ele>403.614</ele>
        <time>2020-08-23T12:28:23Z</time>
      </trkpt>
      <trkpt lat="41.993103" lon="-0.103166">
        <ele>403.808</ele>
        <time>2020-08-23T12:28:25Z</time>
      </trkpt>
      <trkpt lat="41.993152" lon="-0.103254">
        <ele>404.010</ele>
        <time>2020-08-23T12:28:27Z</time>
      </trkpt>
      <trkpt lat="41.993202" lon="-0.103322">
        <ele>404.180</ele>
        <time>2020-08-23T12:28:29Z</time>
      </trkpt>
      <trkpt lat="41.993239" lon="-0.103401">
        <ele>404.358</ele>
        <time>2020-08-23T12:28:31Z</time>
      </trkpt>
      <trkpt lat="41.993278" lon="-0.103482">
        <ele>404.540</ele>
        <time>2020-08-23T12:28:33Z</time>
      </trkpt>
      <trkpt lat="41.993329" lon="-0.103556">
        <ele>404.751</ele>
        <time>2020-08-23T12:28:35Z</time>
      </trkpt>
      <trkpt lat="41.993367" lon="-0.103631">
        <ele>404.922</ele>
        <time>2020-08-23T12:28:37Z</time>
      </trkpt>
      <trkpt lat="41.993406" lon="-0.103709">
        <ele>405.198</ele>
        <time>2020-08-23T12:28:39Z</time>
      </trkpt>
      <trkpt lat="41.993463" lon="-0.103780">
        <ele>405.387</ele>
        <time>2020-08-23T12:28:41Z</time>
      </trkpt>
      <trkpt lat="41.993513" lon="-0.103860">
        <ele>405.491</ele>
        <time>2020-08-23T12:28:43Z</time>
      </trkpt>
      <trkpt lat="41.993552" lon="-0.103934">
        <ele>405.581</ele>
        <time>2020-08-23T12:28:45Z</time>
      </trkpt>
      <trkpt lat="41.993596" lon="-0.104015">
        <ele>405.719</ele>
        <time>2020-08-23T12:28:47Z</time>
      </trkpt>
      <trkpt lat="41.993640" lon="-0.104084">
        <ele>405.808</ele>
        <time>2020-08-23T12:28:49Z</time>
      </trkpt>
      <trkpt lat="41.993677" lon="-0.104153">
        <ele>405.964</ele>
        <time>2020-08-23T12:28:51Z</time>
      </trkpt>
      <trkpt lat="41.993711" lon="-0.104235">
        <ele>406.054</ele>
        <time>2020-08-23T12:28:53Z</time>
      </trkpt>
      <trkpt lat="41.993751" lon="-0.104308">
        <ele>406.182</ele>
        <time>2020-08-23T12:28:55Z</time>
      </trkpt>
      <trkpt lat="41.993797" lon="-0.104378">
        <ele>406.094</ele>
        <time>2020-08-23T12:28:57Z</time>
      </trkpt>
      <trkpt lat="41.993836" lon="-0.104455">
        <ele>406.095</ele>
        <time>2020-08-23T12:28:59Z</time>
      </trkpt>
      <trkpt lat="41.993877" lon="-0.104540">
        <ele>406.066</ele>
        <time>2020-08-23T12:29:01Z</time>
      </trkpt>
      <trkpt lat="41.993914" lon="-0.104638">
        <ele>406.072</ele>
        <time>2020-08-23T12:29:03Z</time>
      </trkpt>
      <trkpt lat="41.993949" lon="-0.104722">
        <ele>406.041</ele>
        <time>2020-08-23T12:29:05Z</time>
      </trkpt>
      <trkpt lat="41.993997" lon="-0.104811">
        <ele>406.064</ele>
        <time>2020-08-23T12:29:07Z</time>
      </trkpt>
      <trkpt lat="41.994050" lon="-0.104886">
        <ele>406.106</ele>
        <time>2020-08-23T12:29:09Z</time>
      </trkpt>
      <trkpt lat="41.994101" lon="-0.104977">
        <ele>406.116</ele>
        <time>2020-08-23T12:29:11Z</time>
      </trkpt>
      <trkpt lat="41.994152" lon="-0.105058">
        <ele>406.208</ele>
        <time>2020-08-23T12:29:13Z</time>
      </trkpt>
      <trkpt lat="41.994186" lon="-0.105130">
        <ele>406.291</ele>
        <time>2020-08-23T12:29:15Z</time>
      </trkpt>
      <trkpt lat="41.994227" lon="-0.105216">
        <ele>406.371</ele>
        <time>2020-08-23T12:29:17Z</time>
      </trkpt>
      <trkpt lat="41.994272" lon="-0.105299">
        <ele>406.329</ele>
        <time>2020-08-23T12:29:19Z</time>
      </trkpt>
      <trkpt lat="41.994323" lon="-0.105391">
        <ele>406.341</ele>
        <time>2020-08-23T12:29:21Z</time>
      </trkpt>
      <trkpt lat="41.994373" lon="-0.105487">
        <ele>406.492</ele>
        <time>2020-08-23T12:29:23Z</time>
      </trkpt>
      <trkpt lat="41.994415" lon="-0.105567">
        <ele>406.493</ele>
        <time>2020-08-23T12:29:25Z</time>
      </trkpt>
      <trkpt lat="41.994459" lon="-0.105647">
        <ele>406.519</ele>
        <time>2020-08-23T12:29:27Z</time>
      </trkpt>
      <trkpt lat="41.994508" lon="-0.105733">
        <ele>406.798</ele>
        <time>2020-08-23T12:29:29Z</time>
      </trkpt>
      <trkpt lat="41.994564" lon="-0.105817">
        <ele>406.873</ele>
        <time>2020-08-23T12:29:31Z</time>
      </trkpt>
      <trkpt lat="41.994617" lon="-0.105911">
        <ele>406.885</ele>
        <time>2020-08-23T12:29:33Z</time>
      </trkpt>
      <trkpt lat="41.994641" lon="-0.105964">
        <ele>406.813</ele>
        <time>2020-08-23T12:29:34Z</time>
      </trkpt>
      <trkpt lat="41.994692" lon="-0.106055">
        <ele>406.808</ele>
        <time>2020-08-23T12:29:36Z</time>
      </trkpt>
      <trkpt lat="41.994744" lon="-0.106159">
        <ele>406.872</ele>
        <time>2020-08-23T12:29:38Z</time>
      </trkpt>
      <trkpt lat="41.994798" lon="-0.106254">
        <ele>406.812</ele>
        <time>2020-08-23T12:29:40Z</time>
      </trkpt>
      <trkpt lat="41.994851" lon="-0.106345">
        <ele>406.870</ele>
        <time>2020-08-23T12:29:42Z</time>
      </trkpt>
      <trkpt lat="41.994903" lon="-0.106441">
        <ele>406.892</ele>
        <time>2020-08-23T12:29:44Z</time>
      </trkpt>
      <trkpt lat="41.994947" lon="-0.106541">
        <ele>406.713</ele>
        <time>2020-08-23T12:29:46Z</time>
      </trkpt>
      <trkpt lat="41.994993" lon="-0.106642">
        <ele>406.664</ele>
        <time>2020-08-23T12:29:48Z</time>
      </trkpt>
      <trkpt lat="41.995036" lon="-0.106750">
        <ele>406.640</ele>
        <time>2020-08-23T12:29:50Z</time>
      </trkpt>
      <trkpt lat="41.995059" lon="-0.106809">
        <ele>406.759</ele>
        <time>2020-08-23T12:29:51Z</time>
      </trkpt>
      <trkpt lat="41.995080" lon="-0.106868">
        <ele>406.753</ele>
        <time>2020-08-23T12:29:52Z</time>
      </trkpt>
      <trkpt lat="41.995102" lon="-0.106925">
        <ele>406.704</ele>
        <time>2020-08-23T12:29:53Z</time>
      </trkpt>
      <trkpt lat="41.995120" lon="-0.106984">
        <ele>406.714</ele>
        <time>2020-08-23T12:29:54Z</time>
      </trkpt>
      <trkpt lat="41.995141" lon="-0.107040">
        <ele>406.708</ele>
        <time>2020-08-23T12:29:55Z</time>
      </trkpt>
      <trkpt lat="41.995155" lon="-0.107099">
        <ele>406.740</ele>
        <time>2020-08-23T12:29:56Z</time>
      </trkpt>
      <trkpt lat="41.995184" lon="-0.107148">
        <ele>406.850</ele>
        <time>2020-08-23T12:29:57Z</time>
      </trkpt>
      <trkpt lat="41.995207" lon="-0.107204">
        <ele>406.828</ele>
        <time>2020-08-23T12:29:58Z</time>
      </trkpt>
      <trkpt lat="41.995232" lon="-0.107261">
        <ele>406.810</ele>
        <time>2020-08-23T12:29:59Z</time>
      </trkpt>
      <trkpt lat="41.995254" lon="-0.107319">
        <ele>406.841</ele>
        <time>2020-08-23T12:30:00Z</time>
      </trkpt>
      <trkpt lat="41.995275" lon="-0.107374">
        <ele>406.832</ele>
        <time>2020-08-23T12:30:01Z</time>
      </trkpt>
      <trkpt lat="41.995294" lon="-0.107433">
        <ele>406.858</ele>
        <time>2020-08-23T12:30:02Z</time>
      </trkpt>
      <trkpt lat="41.995316" lon="-0.107493">
        <ele>406.857</ele>
        <time>2020-08-23T12:30:03Z</time>
      </trkpt>
      <trkpt lat="41.995340" lon="-0.107554">
        <ele>406.842</ele>
        <time>2020-08-23T12:30:04Z</time>
      </trkpt>
      <trkpt lat="41.995364" lon="-0.107613">
        <ele>406.822</ele>
        <time>2020-08-23T12:30:05Z</time>
      </trkpt>
      <trkpt lat="41.995389" lon="-0.107670">
        <ele>406.814</ele>
        <time>2020-08-23T12:30:06Z</time>
      </trkpt>
      <trkpt lat="41.995415" lon="-0.107726">
        <ele>406.808</ele>
        <time>2020-08-23T12:30:07Z</time>
      </trkpt>
      <trkpt lat="41.995445" lon="-0.107783">
        <ele>406.899</ele>
        <time>2020-08-23T12:30:08Z</time>
      </trkpt>
      <trkpt lat="41.995474" lon="-0.107841">
        <ele>406.849</ele>
        <time>2020-08-23T12:30:09Z</time>
      </trkpt>
      <trkpt lat="41.995500" lon="-0.107897">
        <ele>406.837</ele>
        <time>2020-08-23T12:30:10Z</time>
      </trkpt>
      <trkpt lat="41.995525" lon="-0.107950">
        <ele>406.869</ele>
        <time>2020-08-23T12:30:11Z</time>
      </trkpt>
      <trkpt lat="41.995546" lon="-0.108008">
        <ele>406.840</ele>
        <time>2020-08-23T12:30:12Z</time>
      </trkpt>
      <trkpt lat="41.995567" lon="-0.108066">
        <ele>406.871</ele>
        <time>2020-08-23T12:30:13Z</time>
      </trkpt>
      <trkpt lat="41.995588" lon="-0.108121">
        <ele>406.847</ele>
        <time>2020-08-23T12:30:14Z</time>
      </trkpt>
      <trkpt lat="41.995611" lon="-0.108175">
        <ele>406.866</ele>
        <time>2020-08-23T12:30:15Z</time>
      </trkpt>
      <trkpt lat="41.995634" lon="-0.108229">
        <ele>406.847</ele>
        <time>2020-08-23T12:30:16Z</time>
      </trkpt>
      <trkpt lat="41.995655" lon="-0.108284">
        <ele>406.829</ele>
        <time>2020-08-23T12:30:17Z</time>
      </trkpt>
      <trkpt lat="41.995678" lon="-0.108338">
        <ele>406.821</ele>
        <time>2020-08-23T12:30:18Z</time>
      </trkpt>
      <trkpt lat="41.995701" lon="-0.108393">
        <ele>406.808</ele>
        <time>2020-08-23T12:30:19Z</time>
      </trkpt>
      <trkpt lat="41.995723" lon="-0.108448">
        <ele>406.879</ele>
        <time>2020-08-23T12:30:20Z</time>
      </trkpt>
      <trkpt lat="41.995748" lon="-0.108504">
        <ele>406.899</ele>
        <time>2020-08-23T12:30:21Z</time>
      </trkpt>
      <trkpt lat="41.995771" lon="-0.108558">
        <ele>406.977</ele>
        <time>2020-08-23T12:30:22Z</time>
      </trkpt>
      <trkpt lat="41.995792" lon="-0.108613">
        <ele>406.969</ele>
        <time>2020-08-23T12:30:23Z</time>
      </trkpt>
      <trkpt lat="41.995812" lon="-0.108670">
        <ele>406.920</ele>
        <time>2020-08-23T12:30:24Z</time>
      </trkpt>
      <trkpt lat="41.995833" lon="-0.108729">
        <ele>406.941</ele>
        <time>2020-08-23T12:30:25Z</time>
      </trkpt>
      <trkpt lat="41.995855" lon="-0.108783">
        <ele>406.957</ele>
        <time>2020-08-23T12:30:26Z</time>
      </trkpt>
      <trkpt lat="41.995896" lon="-0.108890">
        <ele>407.026</ele>
        <time>2020-08-23T12:30:28Z</time>
      </trkpt>
      <trkpt lat="41.995924" lon="-0.108989">
        <ele>407.048</ele>
        <time>2020-08-23T12:30:30Z</time>
      </trkpt>
      <trkpt lat="41.995970" lon="-0.109090">
        <ele>406.861</ele>
        <time>2020-08-23T12:30:32Z</time>
      </trkpt>
      <trkpt lat="41.996017" lon="-0.109192">
        <ele>406.717</ele>
        <time>2020-08-23T12:30:34Z</time>
      </trkpt>
      <trkpt lat="41.996065" lon="-0.109299">
        <ele>406.808</ele>
        <time>2020-08-23T12:30:36Z</time>
      </trkpt>
      <trkpt lat="41.996098" lon="-0.109354">
        <ele>406.969</ele>
        <time>2020-08-23T12:30:37Z</time>
      </trkpt>
      <trkpt lat="41.996126" lon="-0.109406">
        <ele>406.949</ele>
        <time>2020-08-23T12:30:38Z</time>
      </trkpt>
      <trkpt lat="41.996173" lon="-0.109507">
        <ele>407.027</ele>
        <time>2020-08-23T12:30:40Z</time>
      </trkpt>
      <trkpt lat="41.996194" lon="-0.109563">
        <ele>407.079</ele>
        <time>2020-08-23T12:30:41Z</time>
      </trkpt>
      <trkpt lat="41.996242" lon="-0.109662">
        <ele>407.090</ele>
        <time>2020-08-23T12:30:43Z</time>
      </trkpt>
      <trkpt lat="41.996292" lon="-0.109756">
        <ele>407.041</ele>
        <time>2020-08-23T12:30:45Z</time>
      </trkpt>
      <trkpt lat="41.996340" lon="-0.109854">
        <ele>407.077</ele>
        <time>2020-08-23T12:30:47Z</time>
      </trkpt>
      <trkpt lat="41.996387" lon="-0.109957">
        <ele>407.286</ele>
        <time>2020-08-23T12:30:49Z</time>
      </trkpt>
      <trkpt lat="41.996415" lon="-0.110008">
        <ele>407.364</ele>
        <time>2020-08-23T12:30:50Z</time>
      </trkpt>
      <trkpt lat="41.996446" lon="-0.110057">
        <ele>407.406</ele>
        <time>2020-08-23T12:30:51Z</time>
      </trkpt>
      <trkpt lat="41.996472" lon="-0.110107">
        <ele>407.516</ele>
        <time>2020-08-23T12:30:52Z</time>
      </trkpt>
      <trkpt lat="41.996498" lon="-0.110159">
        <ele>407.508</ele>
        <time>2020-08-23T12:30:53Z</time>
      </trkpt>
      <trkpt lat="41.996525" lon="-0.110213">
        <ele>407.541</ele>
        <time>2020-08-23T12:30:54Z</time>
      </trkpt>
      <trkpt lat="41.996545" lon="-0.110274">
        <ele>407.541</ele>
        <time>2020-08-23T12:30:55Z</time>
      </trkpt>
      <trkpt lat="41.996559" lon="-0.110332">
        <ele>407.519</ele>
        <time>2020-08-23T12:30:56Z</time>
      </trkpt>
      <trkpt lat="41.996580" lon="-0.110446">
        <ele>407.581</ele>
        <time>2020-08-23T12:30:58Z</time>
      </trkpt>
      <trkpt lat="41.996600" lon="-0.110568">
        <ele>407.342</ele>
        <time>2020-08-23T12:31:00Z</time>
      </trkpt>
      <trkpt lat="41.996624" lon="-0.110625">
        <ele>407.263</ele>
        <time>2020-08-23T12:31:01Z</time>
      </trkpt>
      <trkpt lat="41.996648" lon="-0.110684">
        <ele>407.259</ele>
        <time>2020-08-23T12:31:02Z</time>
      </trkpt>
      <trkpt lat="41.996665" lon="-0.110750">
        <ele>407.198</ele>
        <time>2020-08-23T12:31:03Z</time>
      </trkpt>
      <trkpt lat="41.996671" lon="-0.110820">
        <ele>407.073</ele>
        <time>2020-08-23T12:31:04Z</time>
      </trkpt>
      <trkpt lat="41.996661" lon="-0.110888">
        <ele>406.985</ele>
        <time>2020-08-23T12:31:05Z</time>
      </trkpt>
      <trkpt lat="41.996652" lon="-0.110956">
        <ele>406.913</ele>
        <time>2020-08-23T12:31:06Z</time>
      </trkpt>
      <trkpt lat="41.996642" lon="-0.111024">
        <ele>406.808</ele>
        <time>2020-08-23T12:31:07Z</time>
      </trkpt>
      <trkpt lat="41.996624" lon="-0.111092">
        <ele>406.732</ele>
        <time>2020-08-23T12:31:08Z</time>
      </trkpt>
      <trkpt lat="41.996607" lon="-0.111167">
        <ele>406.722</ele>
        <time>2020-08-23T12:31:09Z</time>
      </trkpt>
      <trkpt lat="41.996599" lon="-0.111245">
        <ele>406.550</ele>
        <time>2020-08-23T12:31:10Z</time>
      </trkpt>
      <trkpt lat="41.996588" lon="-0.111318">
        <ele>406.482</ele>
        <time>2020-08-23T12:31:11Z</time>
      </trkpt>
      <trkpt lat="41.996574" lon="-0.111393">
        <ele>406.343</ele>
        <time>2020-08-23T12:31:12Z</time>
      </trkpt>
      <trkpt lat="41.996562" lon="-0.111467">
        <ele>406.274</ele>
        <time>2020-08-23T12:31:13Z</time>
      </trkpt>
      <trkpt lat="41.996558" lon="-0.111545">
        <ele>406.150</ele>
        <time>2020-08-23T12:31:14Z</time>
      </trkpt>
      <trkpt lat="41.996563" lon="-0.111626">
        <ele>406.069</ele>
        <time>2020-08-23T12:31:15Z</time>
      </trkpt>
      <trkpt lat="41.996573" lon="-0.111704">
        <ele>405.999</ele>
        <time>2020-08-23T12:31:16Z</time>
      </trkpt>
      <trkpt lat="41.996586" lon="-0.111779">
        <ele>405.807</ele>
        <time>2020-08-23T12:31:17Z</time>
      </trkpt>
      <trkpt lat="41.996603" lon="-0.111850">
        <ele>405.727</ele>
        <time>2020-08-23T12:31:18Z</time>
      </trkpt>
      <trkpt lat="41.996621" lon="-0.111923">
        <ele>405.608</ele>
        <time>2020-08-23T12:31:19Z</time>
      </trkpt>
      <trkpt lat="41.996645" lon="-0.111994">
        <ele>405.584</ele>
        <time>2020-08-23T12:31:20Z</time>
      </trkpt>
      <trkpt lat="41.996669" lon="-0.112063">
        <ele>405.424</ele>
        <time>2020-08-23T12:31:21Z</time>
      </trkpt>
      <trkpt lat="41.996695" lon="-0.112129">
        <ele>405.272</ele>
        <time>2020-08-23T12:31:22Z</time>
      </trkpt>
      <trkpt lat="41.996728" lon="-0.112184">
        <ele>405.034</ele>
        <time>2020-08-23T12:31:23Z</time>
      </trkpt>
      <trkpt lat="41.996761" lon="-0.112229">
        <ele>404.815</ele>
        <time>2020-08-23T12:31:24Z</time>
      </trkpt>
      <trkpt lat="41.996815" lon="-0.112314">
        <ele>404.376</ele>
        <time>2020-08-23T12:31:26Z</time>
      </trkpt>
      <trkpt lat="41.996869" lon="-0.112371">
        <ele>404.042</ele>
        <time>2020-08-23T12:31:28Z</time>
      </trkpt>
      <trkpt lat="41.996915" lon="-0.112436">
        <ele>403.781</ele>
        <time>2020-08-23T12:31:30Z</time>
      </trkpt>
      <trkpt lat="41.996910" lon="-0.112510">
        <ele>403.555</ele>
        <time>2020-08-23T12:31:32Z</time>
      </trkpt>
      <trkpt lat="41.996866" lon="-0.112574">
        <ele>403.307</ele>
        <time>2020-08-23T12:31:34Z</time>
      </trkpt>
      <trkpt lat="41.996803" lon="-0.112625">
        <ele>403.217</ele>
        <time>2020-08-23T12:31:36Z</time>
      </trkpt>
      <trkpt lat="41.996732" lon="-0.112682">
        <ele>403.008</ele>
        <time>2020-08-23T12:31:38Z</time>
      </trkpt>
      <trkpt lat="41.996648" lon="-0.112728">
        <ele>402.710</ele>
        <time>2020-08-23T12:31:40Z</time>
      </trkpt>
      <trkpt lat="41.996606" lon="-0.112754">
        <ele>402.530</ele>
        <time>2020-08-23T12:31:41Z</time>
      </trkpt>
      <trkpt lat="41.996525" lon="-0.112806">
        <ele>402.258</ele>
        <time>2020-08-23T12:31:43Z</time>
      </trkpt>
      <trkpt lat="41.996439" lon="-0.112841">
        <ele>401.820</ele>
        <time>2020-08-23T12:31:45Z</time>
      </trkpt>
      <trkpt lat="41.996396" lon="-0.112859">
        <ele>401.751</ele>
        <time>2020-08-23T12:31:46Z</time>
      </trkpt>
      <trkpt lat="41.996352" lon="-0.112878">
        <ele>401.782</ele>
        <time>2020-08-23T12:31:47Z</time>
      </trkpt>
      <trkpt lat="41.996307" lon="-0.112886">
        <ele>401.688</ele>
        <time>2020-08-23T12:31:48Z</time>
      </trkpt>
      <trkpt lat="41.996236" lon="-0.112907">
        <ele>401.267</ele>
        <time>2020-08-23T12:31:50Z</time>
      </trkpt>
      <trkpt lat="41.996199" lon="-0.112946">
        <ele>400.454</ele>
        <time>2020-08-23T12:31:52Z</time>
      </trkpt>
      <trkpt lat="41.996167" lon="-0.113015">
        <ele>399.456</ele>
        <time>2020-08-23T12:31:55Z</time>
      </trkpt>
      <trkpt lat="41.996116" lon="-0.113008">
        <ele>398.711</ele>
        <time>2020-08-23T12:32:02Z</time>
      </trkpt>
      <trkpt lat="41.996117" lon="-0.113081">
        <ele>398.908</ele>
        <time>2020-08-23T12:32:11Z</time>
      </trkpt>
      <trkpt lat="41.996178" lon="-0.113135">
        <ele>398.720</ele>
        <time>2020-08-23T12:32:14Z</time>
      </trkpt>
      <trkpt lat="41.996242" lon="-0.113177">
        <ele>398.430</ele>
        <time>2020-08-23T12:32:16Z</time>
      </trkpt>
      <trkpt lat="41.996327" lon="-0.113202">
        <ele>398.088</ele>
        <time>2020-08-23T12:32:18Z</time>
      </trkpt>
      <trkpt lat="41.996375" lon="-0.113209">
        <ele>397.870</ele>
        <time>2020-08-23T12:32:19Z</time>
      </trkpt>
      <trkpt lat="41.996424" lon="-0.113221">
        <ele>397.661</ele>
        <time>2020-08-23T12:32:20Z</time>
      </trkpt>
      <trkpt lat="41.996475" lon="-0.113231">
        <ele>397.372</ele>
        <time>2020-08-23T12:32:21Z</time>
      </trkpt>
      <trkpt lat="41.996531" lon="-0.113252">
        <ele>397.088</ele>
        <time>2020-08-23T12:32:22Z</time>
      </trkpt>
      <trkpt lat="41.996591" lon="-0.113268">
        <ele>396.817</ele>
        <time>2020-08-23T12:32:23Z</time>
      </trkpt>
      <trkpt lat="41.996652" lon="-0.113281">
        <ele>396.581</ele>
        <time>2020-08-23T12:32:24Z</time>
      </trkpt>
      <trkpt lat="41.996714" lon="-0.113285">
        <ele>396.361</ele>
        <time>2020-08-23T12:32:25Z</time>
      </trkpt>
      <trkpt lat="41.996784" lon="-0.113291">
        <ele>396.117</ele>
        <time>2020-08-23T12:32:26Z</time>
      </trkpt>
      <trkpt lat="41.996858" lon="-0.113298">
        <ele>395.908</ele>
        <time>2020-08-23T12:32:27Z</time>
      </trkpt>
      <trkpt lat="41.996929" lon="-0.113312">
        <ele>395.733</ele>
        <time>2020-08-23T12:32:28Z</time>
      </trkpt>
      <trkpt lat="41.997003" lon="-0.113329">
        <ele>395.543</ele>
        <time>2020-08-23T12:32:29Z</time>
      </trkpt>
      <trkpt lat="41.997080" lon="-0.113348">
        <ele>395.261</ele>
        <time>2020-08-23T12:32:30Z</time>
      </trkpt>
      <trkpt lat="41.997152" lon="-0.113386">
        <ele>395.093</ele>
        <time>2020-08-23T12:32:31Z</time>
      </trkpt>
      <trkpt lat="41.997223" lon="-0.113430">
        <ele>394.844</ele>
        <time>2020-08-23T12:32:32Z</time>
      </trkpt>
      <trkpt lat="41.997291" lon="-0.113485">
        <ele>394.595</ele>
        <time>2020-08-23T12:32:33Z</time>
      </trkpt>
      <trkpt lat="41.997358" lon="-0.113549">
        <ele>394.151</ele>
        <time>2020-08-23T12:32:34Z</time>
      </trkpt>
      <trkpt lat="41.997429" lon="-0.113616">
        <ele>393.790</ele>
        <time>2020-08-23T12:32:35Z</time>
      </trkpt>
      <trkpt lat="41.997500" lon="-0.113684">
        <ele>393.257</ele>
        <time>2020-08-23T12:32:36Z</time>
      </trkpt>
      <trkpt lat="41.997571" lon="-0.113753">
        <ele>392.700</ele>
        <time>2020-08-23T12:32:37Z</time>
      </trkpt>
      <trkpt lat="41.997641" lon="-0.113826">
        <ele>392.220</ele>
        <time>2020-08-23T12:32:38Z</time>
      </trkpt>
      <trkpt lat="41.997714" lon="-0.113899">
        <ele>391.808</ele>
        <time>2020-08-23T12:32:39Z</time>
      </trkpt>
      <trkpt lat="41.997787" lon="-0.113971">
        <ele>391.410</ele>
        <time>2020-08-23T12:32:40Z</time>
      </trkpt>
      <trkpt lat="41.997863" lon="-0.114045">
        <ele>391.110</ele>
        <time>2020-08-23T12:32:41Z</time>
      </trkpt>
      <trkpt lat="41.997941" lon="-0.114120">
        <ele>390.818</ele>
        <time>2020-08-23T12:32:42Z</time>
      </trkpt>
      <trkpt lat="41.998019" lon="-0.114197">
        <ele>390.550</ele>
        <time>2020-08-23T12:32:43Z</time>
      </trkpt>
      <trkpt lat="41.998096" lon="-0.114271">
        <ele>390.141</ele>
        <time>2020-08-23T12:32:44Z</time>
      </trkpt>
      <trkpt lat="41.998171" lon="-0.114348">
        <ele>389.652</ele>
        <time>2020-08-23T12:32:45Z</time>
      </trkpt>
      <trkpt lat="41.998245" lon="-0.114424">
        <ele>389.088</ele>
        <time>2020-08-23T12:32:46Z</time>
      </trkpt>
      <trkpt lat="41.998312" lon="-0.114510">
        <ele>388.487</ele>
        <time>2020-08-23T12:32:47Z</time>
      </trkpt>
      <trkpt lat="41.998366" lon="-0.114617">
        <ele>387.731</ele>
        <time>2020-08-23T12:32:48Z</time>
      </trkpt>
      <trkpt lat="41.998413" lon="-0.114731">
        <ele>387.261</ele>
        <time>2020-08-23T12:32:49Z</time>
      </trkpt>
      <trkpt lat="41.998454" lon="-0.114847">
        <ele>386.607</ele>
        <time>2020-08-23T12:32:50Z</time>
      </trkpt>
      <trkpt lat="41.998487" lon="-0.114964">
        <ele>386.608</ele>
        <time>2020-08-23T12:32:51Z</time>
      </trkpt>
      <trkpt lat="41.998523" lon="-0.115072">
        <ele>386.228</ele>
        <time>2020-08-23T12:32:52Z</time>
      </trkpt>
      <trkpt lat="41.998543" lon="-0.115177">
        <ele>386.068</ele>
        <time>2020-08-23T12:32:53Z</time>
      </trkpt>
      <trkpt lat="41.998560" lon="-0.115275">
        <ele>385.986</ele>
        <time>2020-08-23T12:32:54Z</time>
      </trkpt>
      <trkpt lat="41.998564" lon="-0.115376">
        <ele>385.828</ele>
        <time>2020-08-23T12:32:55Z</time>
      </trkpt>
      <trkpt lat="41.998570" lon="-0.115474">
        <ele>385.629</ele>
        <time>2020-08-23T12:32:56Z</time>
      </trkpt>
      <trkpt lat="41.998577" lon="-0.115565">
        <ele>385.540</ele>
        <time>2020-08-23T12:32:57Z</time>
      </trkpt>
      <trkpt lat="41.998579" lon="-0.115653">
        <ele>385.376</ele>
        <time>2020-08-23T12:32:58Z</time>
      </trkpt>
      <trkpt lat="41.998581" lon="-0.115742">
        <ele>385.145</ele>
        <time>2020-08-23T12:32:59Z</time>
      </trkpt>
      <trkpt lat="41.998575" lon="-0.115829">
        <ele>384.917</ele>
        <time>2020-08-23T12:33:00Z</time>
      </trkpt>
      <trkpt lat="41.998567" lon="-0.115911">
        <ele>384.887</ele>
        <time>2020-08-23T12:33:01Z</time>
      </trkpt>
      <trkpt lat="41.998557" lon="-0.115989">
        <ele>384.815</ele>
        <time>2020-08-23T12:33:02Z</time>
      </trkpt>
      <trkpt lat="41.998548" lon="-0.116069">
        <ele>384.908</ele>
        <time>2020-08-23T12:33:03Z</time>
      </trkpt>
      <trkpt lat="41.998539" lon="-0.116144">
        <ele>385.036</ele>
        <time>2020-08-23T12:33:04Z</time>
      </trkpt>
      <trkpt lat="41.998527" lon="-0.116214">
        <ele>385.036</ele>
        <time>2020-08-23T12:33:05Z</time>
      </trkpt>
      <trkpt lat="41.998515" lon="-0.116288">
        <ele>385.094</ele>
        <time>2020-08-23T12:33:06Z</time>
      </trkpt>
      <trkpt lat="41.998502" lon="-0.116363">
        <ele>385.016</ele>
        <time>2020-08-23T12:33:07Z</time>
      </trkpt>
      <trkpt lat="41.998492" lon="-0.116440">
        <ele>385.097</ele>
        <time>2020-08-23T12:33:08Z</time>
      </trkpt>
      <trkpt lat="41.998486" lon="-0.116519">
        <ele>385.068</ele>
        <time>2020-08-23T12:33:09Z</time>
      </trkpt>
      <trkpt lat="41.998484" lon="-0.116593">
        <ele>385.124</ele>
        <time>2020-08-23T12:33:10Z</time>
      </trkpt>
      <trkpt lat="41.998480" lon="-0.116664">
        <ele>385.163</ele>
        <time>2020-08-23T12:33:11Z</time>
      </trkpt>
      <trkpt lat="41.998482" lon="-0.116735">
        <ele>385.188</ele>
        <time>2020-08-23T12:33:12Z</time>
      </trkpt>
      <trkpt lat="41.998489" lon="-0.116804">
        <ele>385.124</ele>
        <time>2020-08-23T12:33:13Z</time>
      </trkpt>
      <trkpt lat="41.998498" lon="-0.116869">
        <ele>385.226</ele>
        <time>2020-08-23T12:33:14Z</time>
      </trkpt>
      <trkpt lat="41.998505" lon="-0.116940">
        <ele>385.208</ele>
        <time>2020-08-23T12:33:15Z</time>
      </trkpt>
      <trkpt lat="41.998516" lon="-0.117010">
        <ele>385.333</ele>
        <time>2020-08-23T12:33:16Z</time>
      </trkpt>
      <trkpt lat="41.998529" lon="-0.117078">
        <ele>385.413</ele>
        <time>2020-08-23T12:33:17Z</time>
      </trkpt>
      <trkpt lat="41.998542" lon="-0.117143">
        <ele>385.551</ele>
        <time>2020-08-23T12:33:18Z</time>
      </trkpt>
      <trkpt lat="41.998558" lon="-0.117209">
        <ele>385.593</ele>
        <time>2020-08-23T12:33:19Z</time>
      </trkpt>
      <trkpt lat="41.998575" lon="-0.117275">
        <ele>385.584</ele>
        <time>2020-08-23T12:33:20Z</time>
      </trkpt>
      <trkpt lat="41.998593" lon="-0.117343">
        <ele>385.525</ele>
        <time>2020-08-23T12:33:21Z</time>
      </trkpt>
      <trkpt lat="41.998608" lon="-0.117410">
        <ele>385.581</ele>
        <time>2020-08-23T12:33:22Z</time>
      </trkpt>
      <trkpt lat="41.998619" lon="-0.117479">
        <ele>385.570</ele>
        <time>2020-08-23T12:33:23Z</time>
      </trkpt>
      <trkpt lat="41.998633" lon="-0.117545">
        <ele>385.461</ele>
        <time>2020-08-23T12:33:24Z</time>
      </trkpt>
      <trkpt lat="41.998643" lon="-0.117608">
        <ele>385.321</ele>
        <time>2020-08-23T12:33:25Z</time>
      </trkpt>
      <trkpt lat="41.998653" lon="-0.117673">
        <ele>385.313</ele>
        <time>2020-08-23T12:33:26Z</time>
      </trkpt>
      <trkpt lat="41.998666" lon="-0.117735">
        <ele>385.208</ele>
        <time>2020-08-23T12:33:27Z</time>
      </trkpt>
      <trkpt lat="41.998681" lon="-0.117798">
        <ele>385.271</ele>
        <time>2020-08-23T12:33:28Z</time>
      </trkpt>
      <trkpt lat="41.998693" lon="-0.117863">
        <ele>385.321</ele>
        <time>2020-08-23T12:33:29Z</time>
      </trkpt>
      <trkpt lat="41.998704" lon="-0.117930">
        <ele>385.449</ele>
        <time>2020-08-23T12:33:30Z</time>
      </trkpt>
      <trkpt lat="41.998715" lon="-0.118000">
        <ele>385.461</ele>
        <time>2020-08-23T12:33:31Z</time>
      </trkpt>
      <trkpt lat="41.998727" lon="-0.118072">
        <ele>385.512</ele>
        <time>2020-08-23T12:33:32Z</time>
      </trkpt>
      <trkpt lat="41.998739" lon="-0.118143">
        <ele>385.633</ele>
        <time>2020-08-23T12:33:33Z</time>
      </trkpt>
      <trkpt lat="41.998752" lon="-0.118213">
        <ele>385.649</ele>
        <time>2020-08-23T12:33:34Z</time>
      </trkpt>
      <trkpt lat="41.998760" lon="-0.118285">
        <ele>385.638</ele>
        <time>2020-08-23T12:33:35Z</time>
      </trkpt>
      <trkpt lat="41.998773" lon="-0.118354">
        <ele>385.643</ele>
        <time>2020-08-23T12:33:36Z</time>
      </trkpt>
      <trkpt lat="41.998788" lon="-0.118423">
        <ele>385.764</ele>
        <time>2020-08-23T12:33:37Z</time>
      </trkpt>
      <trkpt lat="41.998805" lon="-0.118493">
        <ele>385.710</ele>
        <time>2020-08-23T12:33:38Z</time>
      </trkpt>
      <trkpt lat="41.998821" lon="-0.118564">
        <ele>385.708</ele>
        <time>2020-08-23T12:33:39Z</time>
      </trkpt>
      <trkpt lat="41.998840" lon="-0.118633">
        <ele>385.749</ele>
        <time>2020-08-23T12:33:40Z</time>
      </trkpt>
      <trkpt lat="41.998858" lon="-0.118700">
        <ele>385.769</ele>
        <time>2020-08-23T12:33:41Z</time>
      </trkpt>
      <trkpt lat="41.998873" lon="-0.118765">
        <ele>385.697</ele>
        <time>2020-08-23T12:33:42Z</time>
      </trkpt>
      <trkpt lat="41.998888" lon="-0.118833">
        <ele>385.669</ele>
        <time>2020-08-23T12:33:43Z</time>
      </trkpt>
      <trkpt lat="41.998904" lon="-0.118899">
        <ele>385.620</ele>
        <time>2020-08-23T12:33:44Z</time>
      </trkpt>
      <trkpt lat="41.998918" lon="-0.118969">
        <ele>385.761</ele>
        <time>2020-08-23T12:33:45Z</time>
      </trkpt>
      <trkpt lat="41.998936" lon="-0.119035">
        <ele>385.817</ele>
        <time>2020-08-23T12:33:46Z</time>
      </trkpt>
      <trkpt lat="41.998953" lon="-0.119105">
        <ele>385.996</ele>
        <time>2020-08-23T12:33:47Z</time>
      </trkpt>
      <trkpt lat="41.998970" lon="-0.119172">
        <ele>386.038</ele>
        <time>2020-08-23T12:33:48Z</time>
      </trkpt>
      <trkpt lat="41.998984" lon="-0.119234">
        <ele>386.170</ele>
        <time>2020-08-23T12:33:49Z</time>
      </trkpt>
      <trkpt lat="41.999004" lon="-0.119295">
        <ele>386.117</ele>
        <time>2020-08-23T12:33:50Z</time>
      </trkpt>
      <trkpt lat="41.999026" lon="-0.119358">
        <ele>386.008</ele>
        <time>2020-08-23T12:33:51Z</time>
      </trkpt>
      <trkpt lat="41.999056" lon="-0.119417">
        <ele>385.858</ele>
        <time>2020-08-23T12:33:52Z</time>
      </trkpt>
      <trkpt lat="41.999090" lon="-0.119467">
        <ele>385.668</ele>
        <time>2020-08-23T12:33:53Z</time>
      </trkpt>
      <trkpt lat="41.999128" lon="-0.119508">
        <ele>385.396</ele>
        <time>2020-08-23T12:33:54Z</time>
      </trkpt>
      <trkpt lat="41.999172" lon="-0.119538">
        <ele>385.198</ele>
        <time>2020-08-23T12:33:55Z</time>
      </trkpt>
      <trkpt lat="41.999215" lon="-0.119569">
        <ele>385.049</ele>
        <time>2020-08-23T12:33:56Z</time>
      </trkpt>
      <trkpt lat="41.999263" lon="-0.119599">
        <ele>385.060</ele>
        <time>2020-08-23T12:33:57Z</time>
      </trkpt>
      <trkpt lat="41.999310" lon="-0.119623">
        <ele>385.096</ele>
        <time>2020-08-23T12:33:58Z</time>
      </trkpt>
      <trkpt lat="41.999358" lon="-0.119634">
        <ele>385.295</ele>
        <time>2020-08-23T12:33:59Z</time>
      </trkpt>
      <trkpt lat="41.999407" lon="-0.119648">
        <ele>385.325</ele>
        <time>2020-08-23T12:34:00Z</time>
      </trkpt>
      <trkpt lat="41.999457" lon="-0.119663">
        <ele>385.326</ele>
        <time>2020-08-23T12:34:01Z</time>
      </trkpt>
      <trkpt lat="41.999505" lon="-0.119676">
        <ele>385.508</ele>
        <time>2020-08-23T12:34:02Z</time>
      </trkpt>
      <trkpt lat="41.999553" lon="-0.119680">
        <ele>385.908</ele>
        <time>2020-08-23T12:34:03Z</time>
      </trkpt>
      <trkpt lat="41.999603" lon="-0.119683">
        <ele>386.177</ele>
        <time>2020-08-23T12:34:04Z</time>
      </trkpt>
      <trkpt lat="41.999654" lon="-0.119690">
        <ele>386.337</ele>
        <time>2020-08-23T12:34:05Z</time>
      </trkpt>
      <trkpt lat="41.999704" lon="-0.119698">
        <ele>386.565</ele>
        <time>2020-08-23T12:34:06Z</time>
      </trkpt>
      <trkpt lat="41.999753" lon="-0.119710">
        <ele>386.697</ele>
        <time>2020-08-23T12:34:07Z</time>
      </trkpt>
      <trkpt lat="41.999805" lon="-0.119720">
        <ele>386.728</ele>
        <time>2020-08-23T12:34:08Z</time>
      </trkpt>
      <trkpt lat="41.999854" lon="-0.119723">
        <ele>386.819</ele>
        <time>2020-08-23T12:34:09Z</time>
      </trkpt>
      <trkpt lat="41.999903" lon="-0.119728">
        <ele>386.885</ele>
        <time>2020-08-23T12:34:10Z</time>
      </trkpt>
      <trkpt lat="41.999952" lon="-0.119735">
        <ele>386.774</ele>
        <time>2020-08-23T12:34:11Z</time>
      </trkpt>
      <trkpt lat="42.000003" lon="-0.119740">
        <ele>386.728</ele>
        <time>2020-08-23T12:34:12Z</time>
      </trkpt>
      <trkpt lat="42.000055" lon="-0.119745">
        <ele>386.789</ele>
        <time>2020-08-23T12:34:13Z</time>
      </trkpt>
      <trkpt lat="42.000105" lon="-0.119751">
        <ele>386.717</ele>
        <time>2020-08-23T12:34:14Z</time>
      </trkpt>
      <trkpt lat="42.000153" lon="-0.119760">
        <ele>386.708</ele>
        <time>2020-08-23T12:34:15Z</time>
      </trkpt>
      <trkpt lat="42.000200" lon="-0.119765">
        <ele>386.757</ele>
        <time>2020-08-23T12:34:16Z</time>
      </trkpt>
      <trkpt lat="42.000248" lon="-0.119772">
        <ele>386.747</ele>
        <time>2020-08-23T12:34:17Z</time>
      </trkpt>
      <trkpt lat="42.000297" lon="-0.119777">
        <ele>386.795</ele>
        <time>2020-08-23T12:34:18Z</time>
      </trkpt>
      <trkpt lat="42.000348" lon="-0.119783">
        <ele>386.617</ele>
        <time>2020-08-23T12:34:19Z</time>
      </trkpt>
      <trkpt lat="42.000397" lon="-0.119790">
        <ele>386.628</ele>
        <time>2020-08-23T12:34:20Z</time>
      </trkpt>
      <trkpt lat="42.000444" lon="-0.119798">
        <ele>386.689</ele>
        <time>2020-08-23T12:34:21Z</time>
      </trkpt>
      <trkpt lat="42.000491" lon="-0.119805">
        <ele>386.615</ele>
        <time>2020-08-23T12:34:22Z</time>
      </trkpt>
      <trkpt lat="42.000539" lon="-0.119811">
        <ele>386.714</ele>
        <time>2020-08-23T12:34:23Z</time>
      </trkpt>
      <trkpt lat="42.000587" lon="-0.119819">
        <ele>386.857</ele>
        <time>2020-08-23T12:34:24Z</time>
      </trkpt>
      <trkpt lat="42.000635" lon="-0.119833">
        <ele>386.800</ele>
        <time>2020-08-23T12:34:25Z</time>
      </trkpt>
      <trkpt lat="42.000684" lon="-0.119839">
        <ele>386.820</ele>
        <time>2020-08-23T12:34:26Z</time>
      </trkpt>
      <trkpt lat="42.000730" lon="-0.119849">
        <ele>386.908</ele>
        <time>2020-08-23T12:34:27Z</time>
      </trkpt>
      <trkpt lat="42.000816" lon="-0.119876">
        <ele>386.960</ele>
        <time>2020-08-23T12:34:29Z</time>
      </trkpt>
      <trkpt lat="42.000861" lon="-0.119890">
        <ele>386.990</ele>
        <time>2020-08-23T12:34:30Z</time>
      </trkpt>
      <trkpt lat="42.000907" lon="-0.119901">
        <ele>386.968</ele>
        <time>2020-08-23T12:34:31Z</time>
      </trkpt>
      <trkpt lat="42.000952" lon="-0.119918">
        <ele>386.980</ele>
        <time>2020-08-23T12:34:32Z</time>
      </trkpt>
      <trkpt lat="42.000996" lon="-0.119931">
        <ele>386.951</ele>
        <time>2020-08-23T12:34:33Z</time>
      </trkpt>
      <trkpt lat="42.001041" lon="-0.119952">
        <ele>386.982</ele>
        <time>2020-08-23T12:34:34Z</time>
      </trkpt>
      <trkpt lat="42.001084" lon="-0.119981">
        <ele>386.928</ele>
        <time>2020-08-23T12:34:35Z</time>
      </trkpt>
      <trkpt lat="42.001126" lon="-0.120011">
        <ele>386.947</ele>
        <time>2020-08-23T12:34:36Z</time>
      </trkpt>
      <trkpt lat="42.001165" lon="-0.120052">
        <ele>386.921</ele>
        <time>2020-08-23T12:34:37Z</time>
      </trkpt>
      <trkpt lat="42.001201" lon="-0.120098">
        <ele>386.941</ele>
        <time>2020-08-23T12:34:38Z</time>
      </trkpt>
      <trkpt lat="42.001233" lon="-0.120145">
        <ele>386.905</ele>
        <time>2020-08-23T12:34:39Z</time>
      </trkpt>
      <trkpt lat="42.001264" lon="-0.120195">
        <ele>386.908</ele>
        <time>2020-08-23T12:34:40Z</time>
      </trkpt>
      <trkpt lat="42.001293" lon="-0.120248">
        <ele>386.997</ele>
        <time>2020-08-23T12:34:41Z</time>
      </trkpt>
      <trkpt lat="42.001318" lon="-0.120306">
        <ele>386.917</ele>
        <time>2020-08-23T12:34:42Z</time>
      </trkpt>
      <trkpt lat="42.001343" lon="-0.120365">
        <ele>386.835</ele>
        <time>2020-08-23T12:34:43Z</time>
      </trkpt>
      <trkpt lat="42.001370" lon="-0.120424">
        <ele>386.757</ele>
        <time>2020-08-23T12:34:44Z</time>
      </trkpt>
      <trkpt lat="42.001399" lon="-0.120480">
        <ele>386.658</ele>
        <time>2020-08-23T12:34:45Z</time>
      </trkpt>
      <trkpt lat="42.001424" lon="-0.120538">
        <ele>386.539</ele>
        <time>2020-08-23T12:34:46Z</time>
      </trkpt>
      <trkpt lat="42.001446" lon="-0.120596">
        <ele>386.475</ele>
        <time>2020-08-23T12:34:47Z</time>
      </trkpt>
      <trkpt lat="42.001473" lon="-0.120652">
        <ele>386.454</ele>
        <time>2020-08-23T12:34:48Z</time>
      </trkpt>
      <trkpt lat="42.001499" lon="-0.120707">
        <ele>386.482</ele>
        <time>2020-08-23T12:34:49Z</time>
      </trkpt>
      <trkpt lat="42.001524" lon="-0.120763">
        <ele>386.443</ele>
        <time>2020-08-23T12:34:50Z</time>
      </trkpt>
      <trkpt lat="42.001550" lon="-0.120820">
        <ele>386.317</ele>
        <time>2020-08-23T12:34:51Z</time>
      </trkpt>
      <trkpt lat="42.001573" lon="-0.120880">
        <ele>386.308</ele>
        <time>2020-08-23T12:34:52Z</time>
      </trkpt>
      <trkpt lat="42.001595" lon="-0.120935">
        <ele>386.383</ele>
        <time>2020-08-23T12:34:53Z</time>
      </trkpt>
      <trkpt lat="42.001641" lon="-0.121040">
        <ele>386.433</ele>
        <time>2020-08-23T12:34:55Z</time>
      </trkpt>
      <trkpt lat="42.001665" lon="-0.121092">
        <ele>386.581</ele>
        <time>2020-08-23T12:34:56Z</time>
      </trkpt>
      <trkpt lat="42.001703" lon="-0.121202">
        <ele>386.633</ele>
        <time>2020-08-23T12:34:58Z</time>
      </trkpt>
      <trkpt lat="42.001723" lon="-0.121258">
        <ele>386.684</ele>
        <time>2020-08-23T12:34:59Z</time>
      </trkpt>
      <trkpt lat="42.001768" lon="-0.121363">
        <ele>386.755</ele>
        <time>2020-08-23T12:35:01Z</time>
      </trkpt>
      <trkpt lat="42.001795" lon="-0.121416">
        <ele>386.661</ele>
        <time>2020-08-23T12:35:02Z</time>
      </trkpt>
      <trkpt lat="42.001819" lon="-0.121470">
        <ele>386.630</ele>
        <time>2020-08-23T12:35:03Z</time>
      </trkpt>
      <trkpt lat="42.001858" lon="-0.121570">
        <ele>386.659</ele>
        <time>2020-08-23T12:35:05Z</time>
      </trkpt>
      <trkpt lat="42.001876" lon="-0.121625">
        <ele>386.603</ele>
        <time>2020-08-23T12:35:06Z</time>
      </trkpt>
      <trkpt lat="42.001899" lon="-0.121680">
        <ele>386.623</ele>
        <time>2020-08-23T12:35:07Z</time>
      </trkpt>
      <trkpt lat="42.001937" lon="-0.121777">
        <ele>386.708</ele>
        <time>2020-08-23T12:35:09Z</time>
      </trkpt>
      <trkpt lat="42.001970" lon="-0.121863">
        <ele>386.740</ele>
        <time>2020-08-23T12:35:11Z</time>
      </trkpt>
      <trkpt lat="42.001971" lon="-0.121952">
        <ele>386.520</ele>
        <time>2020-08-23T12:35:13Z</time>
      </trkpt>
      <trkpt lat="42.001949" lon="-0.122027">
        <ele>386.268</ele>
        <time>2020-08-23T12:35:15Z</time>
      </trkpt>
      <trkpt lat="42.001941" lon="-0.122136">
        <ele>385.860</ele>
        <time>2020-08-23T12:35:17Z</time>
      </trkpt>
      <trkpt lat="42.001937" lon="-0.122230">
        <ele>385.751</ele>
        <time>2020-08-23T12:35:19Z</time>
      </trkpt>
      <trkpt lat="42.001935" lon="-0.122313">
        <ele>385.522</ele>
        <time>2020-08-23T12:35:21Z</time>
      </trkpt>
      <trkpt lat="42.001940" lon="-0.122403">
        <ele>385.318</ele>
        <time>2020-08-23T12:35:23Z</time>
      </trkpt>
      <trkpt lat="42.001942" lon="-0.122498">
        <ele>385.157</ele>
        <time>2020-08-23T12:35:25Z</time>
      </trkpt>
      <trkpt lat="42.001930" lon="-0.122601">
        <ele>385.085</ele>
        <time>2020-08-23T12:35:27Z</time>
      </trkpt>
      <trkpt lat="42.001942" lon="-0.122695">
        <ele>384.989</ele>
        <time>2020-08-23T12:35:29Z</time>
      </trkpt>
      <trkpt lat="42.001953" lon="-0.122794">
        <ele>384.817</ele>
        <time>2020-08-23T12:35:31Z</time>
      </trkpt>
      <trkpt lat="42.001970" lon="-0.122899">
        <ele>384.708</ele>
        <time>2020-08-23T12:35:33Z</time>
      </trkpt>
      <trkpt lat="42.001965" lon="-0.122996">
        <ele>384.663</ele>
        <time>2020-08-23T12:35:35Z</time>
      </trkpt>
      <trkpt lat="42.001969" lon="-0.123087">
        <ele>384.573</ele>
        <time>2020-08-23T12:35:37Z</time>
      </trkpt>
      <trkpt lat="42.001982" lon="-0.123192">
        <ele>384.371</ele>
        <time>2020-08-23T12:35:39Z</time>
      </trkpt>
      <trkpt lat="42.001991" lon="-0.123291">
        <ele>384.013</ele>
        <time>2020-08-23T12:35:41Z</time>
      </trkpt>
      <trkpt lat="42.002004" lon="-0.123392">
        <ele>383.844</ele>
        <time>2020-08-23T12:35:43Z</time>
      </trkpt>
      <trkpt lat="42.001996" lon="-0.123491">
        <ele>383.695</ele>
        <time>2020-08-23T12:35:45Z</time>
      </trkpt>
      <trkpt lat="42.001988" lon="-0.123591">
        <ele>383.471</ele>
        <time>2020-08-23T12:35:47Z</time>
      </trkpt>
      <trkpt lat="42.001982" lon="-0.123713">
        <ele>383.120</ele>
        <time>2020-08-23T12:35:49Z</time>
      </trkpt>
      <trkpt lat="42.001975" lon="-0.123776">
        <ele>382.965</ele>
        <time>2020-08-23T12:35:50Z</time>
      </trkpt>
      <trkpt lat="42.001975" lon="-0.123891">
        <ele>382.468</ele>
        <time>2020-08-23T12:35:52Z</time>
      </trkpt>
      <trkpt lat="42.001985" lon="-0.124007">
        <ele>381.914</ele>
        <time>2020-08-23T12:35:54Z</time>
      </trkpt>
      <trkpt lat="42.002002" lon="-0.124122">
        <ele>381.508</ele>
        <time>2020-08-23T12:35:56Z</time>
      </trkpt>
      <trkpt lat="42.002007" lon="-0.124233">
        <ele>381.191</ele>
        <time>2020-08-23T12:35:58Z</time>
      </trkpt>
      <trkpt lat="42.002043" lon="-0.124331">
        <ele>380.161</ele>
        <time>2020-08-23T12:36:00Z</time>
      </trkpt>
      <trkpt lat="42.002073" lon="-0.124433">
        <ele>379.429</ele>
        <time>2020-08-23T12:36:02Z</time>
      </trkpt>
      <trkpt lat="42.002098" lon="-0.124527">
        <ele>378.881</ele>
        <time>2020-08-23T12:36:04Z</time>
      </trkpt>
      <trkpt lat="42.002128" lon="-0.124605">
        <ele>378.412</ele>
        <time>2020-08-23T12:36:06Z</time>
      </trkpt>
      <trkpt lat="42.002166" lon="-0.124677">
        <ele>378.283</ele>
        <time>2020-08-23T12:36:08Z</time>
      </trkpt>
      <trkpt lat="42.002193" lon="-0.124758">
        <ele>377.919</ele>
        <time>2020-08-23T12:36:10Z</time>
      </trkpt>
      <trkpt lat="42.002232" lon="-0.124821">
        <ele>377.538</ele>
        <time>2020-08-23T12:36:12Z</time>
      </trkpt>
      <trkpt lat="42.002276" lon="-0.124876">
        <ele>377.177</ele>
        <time>2020-08-23T12:36:14Z</time>
      </trkpt>
      <trkpt lat="42.002306" lon="-0.124928">
        <ele>376.761</ele>
        <time>2020-08-23T12:36:17Z</time>
      </trkpt>
      <trkpt lat="42.002346" lon="-0.124956">
        <ele>376.727</ele>
        <time>2020-08-23T12:36:34Z</time>
      </trkpt>
      <trkpt lat="42.002392" lon="-0.124966">
        <ele>375.708</ele>
        <time>2020-08-23T12:36:50Z</time>
      </trkpt>
      <trkpt lat="42.002439" lon="-0.124974">
        <ele>374.062</ele>
        <time>2020-08-23T12:37:05Z</time>
      </trkpt>
      <trkpt lat="42.002461" lon="-0.125033">
        <ele>372.332</ele>
        <time>2020-08-23T12:37:19Z</time>
      </trkpt>
      <trkpt lat="42.002480" lon="-0.125096">
        <ele>372.030</ele>
        <time>2020-08-23T12:37:23Z</time>
      </trkpt>
      <trkpt lat="42.002480" lon="-0.125160">
        <ele>370.652</ele>
        <time>2020-08-23T12:37:43Z</time>
      </trkpt>
      <trkpt lat="42.002508" lon="-0.125217">
        <ele>369.843</ele>
        <time>2020-08-23T12:37:52Z</time>
      </trkpt>
      <trkpt lat="42.002551" lon="-0.125249">
        <ele>369.474</ele>
        <time>2020-08-23T12:37:58Z</time>
      </trkpt>
      <trkpt lat="42.002600" lon="-0.125275">
        <ele>369.080</ele>
        <time>2020-08-23T12:38:04Z</time>
      </trkpt>
      <trkpt lat="42.002645" lon="-0.125264">
        <ele>368.859</ele>
        <time>2020-08-23T12:38:15Z</time>
      </trkpt>
      <trkpt lat="42.002692" lon="-0.125219">
        <ele>368.793</ele>
        <time>2020-08-23T12:38:33Z</time>
      </trkpt>
      <trkpt lat="42.002735" lon="-0.125181">
        <ele>368.465</ele>
        <time>2020-08-23T12:38:37Z</time>
      </trkpt>
      <trkpt lat="42.002783" lon="-0.125153">
        <ele>368.021</ele>
        <time>2020-08-23T12:38:40Z</time>
      </trkpt>
      <trkpt lat="42.002834" lon="-0.125130">
        <ele>367.808</ele>
        <time>2020-08-23T12:38:43Z</time>
      </trkpt>
      <trkpt lat="42.002887" lon="-0.125102">
        <ele>367.514</ele>
        <time>2020-08-23T12:38:46Z</time>
      </trkpt>
      <trkpt lat="42.002927" lon="-0.125060">
        <ele>367.214</ele>
        <time>2020-08-23T12:38:49Z</time>
      </trkpt>
      <trkpt lat="42.002956" lon="-0.125012">
        <ele>367.172</ele>
        <time>2020-08-23T12:38:54Z</time>
      </trkpt>
      <trkpt lat="42.002985" lon="-0.125069">
        <ele>367.244</ele>
        <time>2020-08-23T12:39:05Z</time>
      </trkpt>
      <trkpt lat="42.003008" lon="-0.125121">
        <ele>368.185</ele>
        <time>2020-08-23T12:39:12Z</time>
      </trkpt>
      <trkpt lat="42.003009" lon="-0.125191">
        <ele>368.546</ele>
        <time>2020-08-23T12:39:19Z</time>
      </trkpt>
      <trkpt lat="42.002967" lon="-0.125217">
        <ele>368.242</ele>
        <time>2020-08-23T12:39:27Z</time>
      </trkpt>
      <trkpt lat="42.002965" lon="-0.125283">
        <ele>368.571</ele>
        <time>2020-08-23T12:39:44Z</time>
      </trkpt>
      <trkpt lat="42.002967" lon="-0.125349">
        <ele>368.659</ele>
        <time>2020-08-23T12:39:50Z</time>
      </trkpt>
      <trkpt lat="42.002973" lon="-0.125416">
        <ele>368.503</ele>
        <time>2020-08-23T12:39:55Z</time>
      </trkpt>
      <trkpt lat="42.003014" lon="-0.125462">
        <ele>368.923</ele>
        <time>2020-08-23T12:40:08Z</time>
      </trkpt>
      <trkpt lat="42.003011" lon="-0.125538">
        <ele>368.908</ele>
        <time>2020-08-23T12:40:13Z</time>
      </trkpt>
      <trkpt lat="42.002979" lon="-0.125607">
        <ele>368.570</ele>
        <time>2020-08-23T12:40:16Z</time>
      </trkpt>
      <trkpt lat="42.002951" lon="-0.125665">
        <ele>368.150</ele>
        <time>2020-08-23T12:40:18Z</time>
      </trkpt>
      <trkpt lat="42.002919" lon="-0.125720">
        <ele>367.898</ele>
        <time>2020-08-23T12:40:20Z</time>
      </trkpt>
      <trkpt lat="42.002887" lon="-0.125774">
        <ele>367.620</ele>
        <time>2020-08-23T12:40:22Z</time>
      </trkpt>
      <trkpt lat="42.002861" lon="-0.125856">
        <ele>367.591</ele>
        <time>2020-08-23T12:40:24Z</time>
      </trkpt>
      <trkpt lat="42.002826" lon="-0.125921">
        <ele>367.582</ele>
        <time>2020-08-23T12:40:26Z</time>
      </trkpt>
      <trkpt lat="42.002791" lon="-0.125988">
        <ele>367.798</ele>
        <time>2020-08-23T12:40:29Z</time>
      </trkpt>
      <trkpt lat="42.002746" lon="-0.125976">
        <ele>368.087</ele>
        <time>2020-08-23T12:41:03Z</time>
      </trkpt>
      <trkpt lat="42.002697" lon="-0.125982">
        <ele>368.418</ele>
        <time>2020-08-23T12:41:48Z</time>
      </trkpt>
      <trkpt lat="42.002715" lon="-0.126044">
        <ele>368.898</ele>
        <time>2020-08-23T12:42:10Z</time>
      </trkpt>
      <trkpt lat="42.002753" lon="-0.126086">
        <ele>368.817</ele>
        <time>2020-08-23T12:42:12Z</time>
      </trkpt>
      <trkpt lat="42.002805" lon="-0.126129">
        <ele>368.908</ele>
        <time>2020-08-23T12:42:15Z</time>
      </trkpt>
      <trkpt lat="42.002844" lon="-0.126173">
        <ele>369.186</ele>
        <time>2020-08-23T12:42:17Z</time>
      </trkpt>
      <trkpt lat="42.002884" lon="-0.126227">
        <ele>369.666</ele>
        <time>2020-08-23T12:42:21Z</time>
      </trkpt>
      <trkpt lat="42.002915" lon="-0.126293">
        <ele>370.284</ele>
        <time>2020-08-23T12:42:25Z</time>
      </trkpt>
      <trkpt lat="42.002943" lon="-0.126343">
        <ele>370.896</ele>
        <time>2020-08-23T12:42:28Z</time>
      </trkpt>
      <trkpt lat="42.002936" lon="-0.126410">
        <ele>371.897</ele>
        <time>2020-08-23T12:42:33Z</time>
      </trkpt>
      <trkpt lat="42.002912" lon="-0.126482">
        <ele>372.348</ele>
        <time>2020-08-23T12:42:37Z</time>
      </trkpt>
      <trkpt lat="42.002863" lon="-0.126483">
        <ele>372.784</ele>
        <time>2020-08-23T12:42:43Z</time>
      </trkpt>
      <trkpt lat="42.002814" lon="-0.126503">
        <ele>372.813</ele>
        <time>2020-08-23T12:42:52Z</time>
      </trkpt>
      <trkpt lat="42.002852" lon="-0.126461">
        <ele>372.718</ele>
        <time>2020-08-23T12:44:05Z</time>
      </trkpt>
      <trkpt lat="42.002888" lon="-0.126424">
        <ele>372.598</ele>
        <time>2020-08-23T12:44:07Z</time>
      </trkpt>
      <trkpt lat="42.002932" lon="-0.126376">
        <ele>372.117</ele>
        <time>2020-08-23T12:44:10Z</time>
      </trkpt>
      <trkpt lat="42.002978" lon="-0.126403">
        <ele>372.108</ele>
        <time>2020-08-23T12:44:19Z</time>
      </trkpt>
      <trkpt lat="42.003023" lon="-0.126419">
        <ele>372.086</ele>
        <time>2020-08-23T12:44:21Z</time>
      </trkpt>
      <trkpt lat="42.003078" lon="-0.126460">
        <ele>371.826</ele>
        <time>2020-08-23T12:44:23Z</time>
      </trkpt>
      <trkpt lat="42.003149" lon="-0.126506">
        <ele>371.514</ele>
        <time>2020-08-23T12:44:25Z</time>
      </trkpt>
      <trkpt lat="42.003225" lon="-0.126527">
        <ele>371.226</ele>
        <time>2020-08-23T12:44:27Z</time>
      </trkpt>
      <trkpt lat="42.003322" lon="-0.126525">
        <ele>371.017</ele>
        <time>2020-08-23T12:44:29Z</time>
      </trkpt>
      <trkpt lat="42.003375" lon="-0.126525">
        <ele>370.968</ele>
        <time>2020-08-23T12:44:30Z</time>
      </trkpt>
      <trkpt lat="42.003430" lon="-0.126518">
        <ele>370.894</ele>
        <time>2020-08-23T12:44:31Z</time>
      </trkpt>
      <trkpt lat="42.003488" lon="-0.126496">
        <ele>370.473</ele>
        <time>2020-08-23T12:44:32Z</time>
      </trkpt>
      <trkpt lat="42.003543" lon="-0.126479">
        <ele>370.149</ele>
        <time>2020-08-23T12:44:33Z</time>
      </trkpt>
      <trkpt lat="42.003600" lon="-0.126462">
        <ele>370.102</ele>
        <time>2020-08-23T12:44:34Z</time>
      </trkpt>
      <trkpt lat="42.003654" lon="-0.126439">
        <ele>369.822</ele>
        <time>2020-08-23T12:44:35Z</time>
      </trkpt>
      <trkpt lat="42.003712" lon="-0.126418">
        <ele>369.608</ele>
        <time>2020-08-23T12:44:36Z</time>
      </trkpt>
      <trkpt lat="42.003772" lon="-0.126397">
        <ele>369.429</ele>
        <time>2020-08-23T12:44:37Z</time>
      </trkpt>
      <trkpt lat="42.003835" lon="-0.126365">
        <ele>369.279</ele>
        <time>2020-08-23T12:44:38Z</time>
      </trkpt>
      <trkpt lat="42.003900" lon="-0.126335">
        <ele>369.047</ele>
        <time>2020-08-23T12:44:39Z</time>
      </trkpt>
      <trkpt lat="42.003963" lon="-0.126302">
        <ele>368.839</ele>
        <time>2020-08-23T12:44:40Z</time>
      </trkpt>
      <trkpt lat="42.004023" lon="-0.126277">
        <ele>368.490</ele>
        <time>2020-08-23T12:44:41Z</time>
      </trkpt>
      <trkpt lat="42.004079" lon="-0.126252">
        <ele>368.471</ele>
        <time>2020-08-23T12:44:42Z</time>
      </trkpt>
      <trkpt lat="42.004142" lon="-0.126229">
        <ele>368.287</ele>
        <time>2020-08-23T12:44:43Z</time>
      </trkpt>
      <trkpt lat="42.004205" lon="-0.126202">
        <ele>367.976</ele>
        <time>2020-08-23T12:44:44Z</time>
      </trkpt>
      <trkpt lat="42.004262" lon="-0.126180">
        <ele>367.757</ele>
        <time>2020-08-23T12:44:45Z</time>
      </trkpt>
      <trkpt lat="42.004323" lon="-0.126151">
        <ele>367.500</ele>
        <time>2020-08-23T12:44:46Z</time>
      </trkpt>
      <trkpt lat="42.004393" lon="-0.126115">
        <ele>367.320</ele>
        <time>2020-08-23T12:44:47Z</time>
      </trkpt>
      <trkpt lat="42.004455" lon="-0.126081">
        <ele>367.008</ele>
        <time>2020-08-23T12:44:48Z</time>
      </trkpt>
      <trkpt lat="42.004516" lon="-0.126051">
        <ele>366.810</ele>
        <time>2020-08-23T12:44:49Z</time>
      </trkpt>
      <trkpt lat="42.004588" lon="-0.126016">
        <ele>366.660</ele>
        <time>2020-08-23T12:44:50Z</time>
      </trkpt>
      <trkpt lat="42.004659" lon="-0.125980">
        <ele>366.498</ele>
        <time>2020-08-23T12:44:51Z</time>
      </trkpt>
      <trkpt lat="42.004726" lon="-0.125954">
        <ele>366.250</ele>
        <time>2020-08-23T12:44:52Z</time>
      </trkpt>
      <trkpt lat="42.004795" lon="-0.125925">
        <ele>366.171</ele>
        <time>2020-08-23T12:44:53Z</time>
      </trkpt>
      <trkpt lat="42.004861" lon="-0.125895">
        <ele>366.012</ele>
        <time>2020-08-23T12:44:54Z</time>
      </trkpt>
      <trkpt lat="42.004929" lon="-0.125869">
        <ele>365.838</ele>
        <time>2020-08-23T12:44:55Z</time>
      </trkpt>
      <trkpt lat="42.004997" lon="-0.125843">
        <ele>365.737</ele>
        <time>2020-08-23T12:44:56Z</time>
      </trkpt>
      <trkpt lat="42.005064" lon="-0.125819">
        <ele>365.611</ele>
        <time>2020-08-23T12:44:57Z</time>
      </trkpt>
      <trkpt lat="42.005127" lon="-0.125798">
        <ele>365.521</ele>
        <time>2020-08-23T12:44:58Z</time>
      </trkpt>
      <trkpt lat="42.005195" lon="-0.125776">
        <ele>365.403</ele>
        <time>2020-08-23T12:44:59Z</time>
      </trkpt>
      <trkpt lat="42.005263" lon="-0.125760">
        <ele>365.308</ele>
        <time>2020-08-23T12:45:00Z</time>
      </trkpt>
      <trkpt lat="42.005330" lon="-0.125742">
        <ele>365.276</ele>
        <time>2020-08-23T12:45:01Z</time>
      </trkpt>
      <trkpt lat="42.005397" lon="-0.125736">
        <ele>365.196</ele>
        <time>2020-08-23T12:45:02Z</time>
      </trkpt>
      <trkpt lat="42.005461" lon="-0.125735">
        <ele>365.094</ele>
        <time>2020-08-23T12:45:03Z</time>
      </trkpt>
      <trkpt lat="42.005517" lon="-0.125740">
        <ele>364.936</ele>
        <time>2020-08-23T12:45:04Z</time>
      </trkpt>
      <trkpt lat="42.005578" lon="-0.125743">
        <ele>364.867</ele>
        <time>2020-08-23T12:45:05Z</time>
      </trkpt>
      <trkpt lat="42.005637" lon="-0.125746">
        <ele>364.748</ele>
        <time>2020-08-23T12:45:06Z</time>
      </trkpt>
      <trkpt lat="42.005702" lon="-0.125746">
        <ele>364.684</ele>
        <time>2020-08-23T12:45:07Z</time>
      </trkpt>
      <trkpt lat="42.005770" lon="-0.125757">
        <ele>364.493</ele>
        <time>2020-08-23T12:45:08Z</time>
      </trkpt>
      <trkpt lat="42.005834" lon="-0.125773">
        <ele>364.321</ele>
        <time>2020-08-23T12:45:09Z</time>
      </trkpt>
      <trkpt lat="42.005891" lon="-0.125800">
        <ele>364.141</ele>
        <time>2020-08-23T12:45:10Z</time>
      </trkpt>
      <trkpt lat="42.005947" lon="-0.125832">
        <ele>363.905</ele>
        <time>2020-08-23T12:45:11Z</time>
      </trkpt>
      <trkpt lat="42.005999" lon="-0.125877">
        <ele>363.708</ele>
        <time>2020-08-23T12:45:12Z</time>
      </trkpt>
      <trkpt lat="42.006046" lon="-0.125924">
        <ele>363.667</ele>
        <time>2020-08-23T12:45:13Z</time>
      </trkpt>
      <trkpt lat="42.006085" lon="-0.125984">
        <ele>363.527</ele>
        <time>2020-08-23T12:45:14Z</time>
      </trkpt>
      <trkpt lat="42.006116" lon="-0.126053">
        <ele>363.485</ele>
        <time>2020-08-23T12:45:15Z</time>
      </trkpt>
      <trkpt lat="42.006142" lon="-0.126122">
        <ele>363.337</ele>
        <time>2020-08-23T12:45:16Z</time>
      </trkpt>
      <trkpt lat="42.006167" lon="-0.126196">
        <ele>363.298</ele>
        <time>2020-08-23T12:45:17Z</time>
      </trkpt>
      <trkpt lat="42.006183" lon="-0.126270">
        <ele>363.169</ele>
        <time>2020-08-23T12:45:18Z</time>
      </trkpt>
      <trkpt lat="42.006186" lon="-0.126338">
        <ele>363.085</ele>
        <time>2020-08-23T12:45:19Z</time>
      </trkpt>
      <trkpt lat="42.006187" lon="-0.126400">
        <ele>362.884</ele>
        <time>2020-08-23T12:45:20Z</time>
      </trkpt>
      <trkpt lat="42.006205" lon="-0.126485">
        <ele>362.578</ele>
        <time>2020-08-23T12:45:22Z</time>
      </trkpt>
      <trkpt lat="42.006217" lon="-0.126564">
        <ele>362.233</ele>
        <time>2020-08-23T12:45:24Z</time>
      </trkpt>
      <trkpt lat="42.006178" lon="-0.126640">
        <ele>361.826</ele>
        <time>2020-08-23T12:45:26Z</time>
      </trkpt>
      <trkpt lat="42.006087" lon="-0.126675">
        <ele>361.608</ele>
        <time>2020-08-23T12:45:28Z</time>
      </trkpt>
      <trkpt lat="42.006038" lon="-0.126682">
        <ele>361.542</ele>
        <time>2020-08-23T12:45:29Z</time>
      </trkpt>
      <trkpt lat="42.005993" lon="-0.126691">
        <ele>361.462</ele>
        <time>2020-08-23T12:45:30Z</time>
      </trkpt>
      <trkpt lat="42.005944" lon="-0.126694">
        <ele>361.330</ele>
        <time>2020-08-23T12:45:31Z</time>
      </trkpt>
      <trkpt lat="42.005891" lon="-0.126679">
        <ele>361.162</ele>
        <time>2020-08-23T12:45:32Z</time>
      </trkpt>
      <trkpt lat="42.005831" lon="-0.126661">
        <ele>360.983</ele>
        <time>2020-08-23T12:45:33Z</time>
      </trkpt>
      <trkpt lat="42.005772" lon="-0.126637">
        <ele>360.744</ele>
        <time>2020-08-23T12:45:34Z</time>
      </trkpt>
      <trkpt lat="42.005709" lon="-0.126613">
        <ele>360.540</ele>
        <time>2020-08-23T12:45:35Z</time>
      </trkpt>
      <trkpt lat="42.005648" lon="-0.126586">
        <ele>360.359</ele>
        <time>2020-08-23T12:45:36Z</time>
      </trkpt>
      <trkpt lat="42.005589" lon="-0.126552">
        <ele>360.021</ele>
        <time>2020-08-23T12:45:37Z</time>
      </trkpt>
      <trkpt lat="42.005529" lon="-0.126518">
        <ele>359.741</ele>
        <time>2020-08-23T12:45:38Z</time>
      </trkpt>
      <trkpt lat="42.005464" lon="-0.126477">
        <ele>359.405</ele>
        <time>2020-08-23T12:45:39Z</time>
      </trkpt>
      <trkpt lat="42.005399" lon="-0.126432">
        <ele>359.108</ele>
        <time>2020-08-23T12:45:40Z</time>
      </trkpt>
      <trkpt lat="42.005332" lon="-0.126390">
        <ele>358.847</ele>
        <time>2020-08-23T12:45:41Z</time>
      </trkpt>
      <trkpt lat="42.005261" lon="-0.126347">
        <ele>358.597</ele>
        <time>2020-08-23T12:45:42Z</time>
      </trkpt>
      <trkpt lat="42.005183" lon="-0.126312">
        <ele>358.235</ele>
        <time>2020-08-23T12:45:43Z</time>
      </trkpt>
      <trkpt lat="42.005102" lon="-0.126304">
        <ele>357.997</ele>
        <time>2020-08-23T12:45:44Z</time>
      </trkpt>
      <trkpt lat="42.005023" lon="-0.126318">
        <ele>357.588</ele>
        <time>2020-08-23T12:45:45Z</time>
      </trkpt>
      <trkpt lat="42.004943" lon="-0.126349">
        <ele>357.289</ele>
        <time>2020-08-23T12:45:46Z</time>
      </trkpt>
      <trkpt lat="42.004860" lon="-0.126379">
        <ele>356.945</ele>
        <time>2020-08-23T12:45:47Z</time>
      </trkpt>
      <trkpt lat="42.004773" lon="-0.126400">
        <ele>356.614</ele>
        <time>2020-08-23T12:45:48Z</time>
      </trkpt>
      <trkpt lat="42.004685" lon="-0.126417">
        <ele>356.286</ele>
        <time>2020-08-23T12:45:49Z</time>
      </trkpt>
      <trkpt lat="42.004597" lon="-0.126441">
        <ele>355.860</ele>
        <time>2020-08-23T12:45:50Z</time>
      </trkpt>
      <trkpt lat="42.004510" lon="-0.126470">
        <ele>355.426</ele>
        <time>2020-08-23T12:45:51Z</time>
      </trkpt>
      <trkpt lat="42.004424" lon="-0.126503">
        <ele>354.908</ele>
        <time>2020-08-23T12:45:52Z</time>
      </trkpt>
      <trkpt lat="42.004345" lon="-0.126553">
        <ele>354.493</ele>
        <time>2020-08-23T12:45:53Z</time>
      </trkpt>
      <trkpt lat="42.004267" lon="-0.126591">
        <ele>353.943</ele>
        <time>2020-08-23T12:45:54Z</time>
      </trkpt>
      <trkpt lat="42.004195" lon="-0.126634">
        <ele>353.451</ele>
        <time>2020-08-23T12:45:55Z</time>
      </trkpt>
      <trkpt lat="42.004127" lon="-0.126686">
        <ele>352.963</ele>
        <time>2020-08-23T12:45:56Z</time>
      </trkpt>
      <trkpt lat="42.004063" lon="-0.126740">
        <ele>352.254</ele>
        <time>2020-08-23T12:45:57Z</time>
      </trkpt>
      <trkpt lat="42.004000" lon="-0.126792">
        <ele>352.085</ele>
        <time>2020-08-23T12:45:58Z</time>
      </trkpt>
      <trkpt lat="42.003942" lon="-0.126865">
        <ele>352.041</ele>
        <time>2020-08-23T12:45:59Z</time>
      </trkpt>
      <trkpt lat="42.003898" lon="-0.126968">
        <ele>351.870</ele>
        <time>2020-08-23T12:46:00Z</time>
      </trkpt>
      <trkpt lat="42.003866" lon="-0.127059">
        <ele>351.547</ele>
        <time>2020-08-23T12:46:01Z</time>
      </trkpt>
      <trkpt lat="42.003862" lon="-0.127150">
        <ele>351.529</ele>
        <time>2020-08-23T12:46:02Z</time>
      </trkpt>
      <trkpt lat="42.003859" lon="-0.127242">
        <ele>351.321</ele>
        <time>2020-08-23T12:46:03Z</time>
      </trkpt>
      <trkpt lat="42.003857" lon="-0.127330">
        <ele>351.308</ele>
        <time>2020-08-23T12:46:04Z</time>
      </trkpt>
      <trkpt lat="42.003860" lon="-0.127418">
        <ele>351.119</ele>
        <time>2020-08-23T12:46:05Z</time>
      </trkpt>
      <trkpt lat="42.003875" lon="-0.127506">
        <ele>351.159</ele>
        <time>2020-08-23T12:46:06Z</time>
      </trkpt>
      <trkpt lat="42.003891" lon="-0.127594">
        <ele>351.177</ele>
        <time>2020-08-23T12:46:07Z</time>
      </trkpt>
      <trkpt lat="42.003898" lon="-0.127677">
        <ele>351.169</ele>
        <time>2020-08-23T12:46:08Z</time>
      </trkpt>
      <trkpt lat="42.003898" lon="-0.127759">
        <ele>351.130</ele>
        <time>2020-08-23T12:46:09Z</time>
      </trkpt>
      <trkpt lat="42.003904" lon="-0.127837">
        <ele>351.191</ele>
        <time>2020-08-23T12:46:10Z</time>
      </trkpt>
      <trkpt lat="42.003913" lon="-0.127915">
        <ele>351.067</ele>
        <time>2020-08-23T12:46:11Z</time>
      </trkpt>
      <trkpt lat="42.003925" lon="-0.127989">
        <ele>350.956</ele>
        <time>2020-08-23T12:46:12Z</time>
      </trkpt>
      <trkpt lat="42.003942" lon="-0.128059">
        <ele>350.886</ele>
        <time>2020-08-23T12:46:13Z</time>
      </trkpt>
      <trkpt lat="42.003952" lon="-0.128133">
        <ele>350.760</ele>
        <time>2020-08-23T12:46:14Z</time>
      </trkpt>
      <trkpt lat="42.003959" lon="-0.128203">
        <ele>350.726</ele>
        <time>2020-08-23T12:46:15Z</time>
      </trkpt>
      <trkpt lat="42.003964" lon="-0.128267">
        <ele>350.808</ele>
        <time>2020-08-23T12:46:16Z</time>
      </trkpt>
      <trkpt lat="42.003960" lon="-0.128327">
        <ele>350.863</ele>
        <time>2020-08-23T12:46:17Z</time>
      </trkpt>
      <trkpt lat="42.003950" lon="-0.128387">
        <ele>350.933</ele>
        <time>2020-08-23T12:46:18Z</time>
      </trkpt>
      <trkpt lat="42.003918" lon="-0.128486">
        <ele>351.151</ele>
        <time>2020-08-23T12:46:20Z</time>
      </trkpt>
      <trkpt lat="42.003880" lon="-0.128572">
        <ele>351.423</ele>
        <time>2020-08-23T12:46:22Z</time>
      </trkpt>
      <trkpt lat="42.003837" lon="-0.128645">
        <ele>351.894</ele>
        <time>2020-08-23T12:46:24Z</time>
      </trkpt>
      <trkpt lat="42.003810" lon="-0.128720">
        <ele>352.275</ele>
        <time>2020-08-23T12:46:26Z</time>
      </trkpt>
      <trkpt lat="42.003772" lon="-0.128767">
        <ele>352.671</ele>
        <time>2020-08-23T12:46:28Z</time>
      </trkpt>
      <trkpt lat="42.003736" lon="-0.128814">
        <ele>353.090</ele>
        <time>2020-08-23T12:46:30Z</time>
      </trkpt>
      <trkpt lat="42.003682" lon="-0.128824">
        <ele>353.379</ele>
        <time>2020-08-23T12:46:32Z</time>
      </trkpt>
      <trkpt lat="42.003625" lon="-0.128819">
        <ele>353.705</ele>
        <time>2020-08-23T12:46:34Z</time>
      </trkpt>
      <trkpt lat="42.003574" lon="-0.128795">
        <ele>354.025</ele>
        <time>2020-08-23T12:46:36Z</time>
      </trkpt>
      <trkpt lat="42.003532" lon="-0.128762">
        <ele>354.408</ele>
        <time>2020-08-23T12:46:38Z</time>
      </trkpt>
      <trkpt lat="42.003495" lon="-0.128693">
        <ele>354.852</ele>
        <time>2020-08-23T12:46:40Z</time>
      </trkpt>
      <trkpt lat="42.003450" lon="-0.128652">
        <ele>355.492</ele>
        <time>2020-08-23T12:46:42Z</time>
      </trkpt>
      <trkpt lat="42.003397" lon="-0.128623">
        <ele>355.610</ele>
        <time>2020-08-23T12:46:44Z</time>
      </trkpt>
      <trkpt lat="42.003342" lon="-0.128615">
        <ele>355.662</ele>
        <time>2020-08-23T12:46:46Z</time>
      </trkpt>
      <trkpt lat="42.003293" lon="-0.128621">
        <ele>355.883</ele>
        <time>2020-08-23T12:46:48Z</time>
      </trkpt>
      <trkpt lat="42.003240" lon="-0.128653">
        <ele>356.224</ele>
        <time>2020-08-23T12:46:50Z</time>
      </trkpt>
      <trkpt lat="42.003196" lon="-0.128698">
        <ele>356.670</ele>
        <time>2020-08-23T12:46:52Z</time>
      </trkpt>
      <trkpt lat="42.003152" lon="-0.128740">
        <ele>356.879</ele>
        <time>2020-08-23T12:46:54Z</time>
      </trkpt>
      <trkpt lat="42.003102" lon="-0.128798">
        <ele>356.897</ele>
        <time>2020-08-23T12:46:56Z</time>
      </trkpt>
      <trkpt lat="42.003068" lon="-0.128858">
        <ele>356.823</ele>
        <time>2020-08-23T12:46:58Z</time>
      </trkpt>
      <trkpt lat="42.003045" lon="-0.128926">
        <ele>356.925</ele>
        <time>2020-08-23T12:47:00Z</time>
      </trkpt>
      <trkpt lat="42.003035" lon="-0.129001">
        <ele>357.008</ele>
        <time>2020-08-23T12:47:02Z</time>
      </trkpt>
      <trkpt lat="42.003023" lon="-0.129070">
        <ele>357.154</ele>
        <time>2020-08-23T12:47:04Z</time>
      </trkpt>
      <trkpt lat="42.003012" lon="-0.129144">
        <ele>357.224</ele>
        <time>2020-08-23T12:47:06Z</time>
      </trkpt>
      <trkpt lat="42.003008" lon="-0.129218">
        <ele>357.452</ele>
        <time>2020-08-23T12:47:08Z</time>
      </trkpt>
      <trkpt lat="42.002997" lon="-0.129287">
        <ele>357.624</ele>
        <time>2020-08-23T12:47:10Z</time>
      </trkpt>
      <trkpt lat="42.002987" lon="-0.129362">
        <ele>357.895</ele>
        <time>2020-08-23T12:47:12Z</time>
      </trkpt>
      <trkpt lat="42.002972" lon="-0.129429">
        <ele>358.046</ele>
        <time>2020-08-23T12:47:14Z</time>
      </trkpt>
      <trkpt lat="42.002962" lon="-0.129503">
        <ele>358.342</ele>
        <time>2020-08-23T12:47:16Z</time>
      </trkpt>
      <trkpt lat="42.002965" lon="-0.129570">
        <ele>358.581</ele>
        <time>2020-08-23T12:47:18Z</time>
      </trkpt>
      <trkpt lat="42.002973" lon="-0.129641">
        <ele>358.795</ele>
        <time>2020-08-23T12:47:20Z</time>
      </trkpt>
      <trkpt lat="42.002985" lon="-0.129715">
        <ele>359.049</ele>
        <time>2020-08-23T12:47:22Z</time>
      </trkpt>
      <trkpt lat="42.003003" lon="-0.129778">
        <ele>359.423</ele>
        <time>2020-08-23T12:47:24Z</time>
      </trkpt>
      <trkpt lat="42.003038" lon="-0.129828">
        <ele>359.908</ele>
        <time>2020-08-23T12:47:26Z</time>
      </trkpt>
      <trkpt lat="42.003073" lon="-0.129875">
        <ele>360.254</ele>
        <time>2020-08-23T12:47:28Z</time>
      </trkpt>
      <trkpt lat="42.003120" lon="-0.129896">
        <ele>360.574</ele>
        <time>2020-08-23T12:47:30Z</time>
      </trkpt>
      <trkpt lat="42.003170" lon="-0.129880">
        <ele>360.882</ele>
        <time>2020-08-23T12:47:32Z</time>
      </trkpt>
      <trkpt lat="42.003215" lon="-0.129851">
        <ele>361.074</ele>
        <time>2020-08-23T12:47:34Z</time>
      </trkpt>
      <trkpt lat="42.003258" lon="-0.129817">
        <ele>361.315</ele>
        <time>2020-08-23T12:47:36Z</time>
      </trkpt>
      <trkpt lat="42.003308" lon="-0.129756">
        <ele>361.776</ele>
        <time>2020-08-23T12:47:39Z</time>
      </trkpt>
      <trkpt lat="42.003340" lon="-0.129702">
        <ele>361.972</ele>
        <time>2020-08-23T12:47:41Z</time>
      </trkpt>
      <trkpt lat="42.003377" lon="-0.129664">
        <ele>362.211</ele>
        <time>2020-08-23T12:47:43Z</time>
      </trkpt>
      <trkpt lat="42.003419" lon="-0.129611">
        <ele>362.547</ele>
        <time>2020-08-23T12:47:45Z</time>
      </trkpt>
      <trkpt lat="42.003449" lon="-0.129558">
        <ele>362.829</ele>
        <time>2020-08-23T12:47:47Z</time>
      </trkpt>
      <trkpt lat="42.003480" lon="-0.129508">
        <ele>363.121</ele>
        <time>2020-08-23T12:47:49Z</time>
      </trkpt>
      <trkpt lat="42.003517" lon="-0.129469">
        <ele>363.408</ele>
        <time>2020-08-23T12:47:51Z</time>
      </trkpt>
      <trkpt lat="42.003561" lon="-0.129459">
        <ele>363.689</ele>
        <time>2020-08-23T12:47:53Z</time>
      </trkpt>
      <trkpt lat="42.003628" lon="-0.129445">
        <ele>363.949</ele>
        <time>2020-08-23T12:47:56Z</time>
      </trkpt>
      <trkpt lat="42.003695" lon="-0.129461">
        <ele>364.227</ele>
        <time>2020-08-23T12:47:59Z</time>
      </trkpt>
      <trkpt lat="42.003740" lon="-0.129482">
        <ele>364.489</ele>
        <time>2020-08-23T12:48:01Z</time>
      </trkpt>
      <trkpt lat="42.003773" lon="-0.129534">
        <ele>364.550</ele>
        <time>2020-08-23T12:48:03Z</time>
      </trkpt>
      <trkpt lat="42.003800" lon="-0.129595">
        <ele>364.631</ele>
        <time>2020-08-23T12:48:05Z</time>
      </trkpt>
      <trkpt lat="42.003820" lon="-0.129655">
        <ele>364.857</ele>
        <time>2020-08-23T12:48:07Z</time>
      </trkpt>
      <trkpt lat="42.003810" lon="-0.129742">
        <ele>365.166</ele>
        <time>2020-08-23T12:48:10Z</time>
      </trkpt>
      <trkpt lat="42.003829" lon="-0.129815">
        <ele>365.392</ele>
        <time>2020-08-23T12:48:13Z</time>
      </trkpt>
      <trkpt lat="42.003843" lon="-0.129884">
        <ele>365.473</ele>
        <time>2020-08-23T12:48:15Z</time>
      </trkpt>
      <trkpt lat="42.003866" lon="-0.129963">
        <ele>365.520</ele>
        <time>2020-08-23T12:48:17Z</time>
      </trkpt>
      <trkpt lat="42.003901" lon="-0.130039">
        <ele>365.708</ele>
        <time>2020-08-23T12:48:19Z</time>
      </trkpt>
      <trkpt lat="42.003931" lon="-0.130103">
        <ele>365.854</ele>
        <time>2020-08-23T12:48:21Z</time>
      </trkpt>
      <trkpt lat="42.003970" lon="-0.130142">
        <ele>366.084</ele>
        <time>2020-08-23T12:48:23Z</time>
      </trkpt>
      <trkpt lat="42.004018" lon="-0.130156">
        <ele>366.262</ele>
        <time>2020-08-23T12:48:25Z</time>
      </trkpt>
      <trkpt lat="42.004082" lon="-0.130175">
        <ele>366.574</ele>
        <time>2020-08-23T12:48:28Z</time>
      </trkpt>
      <trkpt lat="42.004130" lon="-0.130166">
        <ele>366.675</ele>
        <time>2020-08-23T12:48:30Z</time>
      </trkpt>
      <trkpt lat="42.004190" lon="-0.130162">
        <ele>366.826</ele>
        <time>2020-08-23T12:48:32Z</time>
      </trkpt>
      <trkpt lat="42.004242" lon="-0.130137">
        <ele>366.972</ele>
        <time>2020-08-23T12:48:34Z</time>
      </trkpt>
      <trkpt lat="42.004272" lon="-0.130089">
        <ele>367.091</ele>
        <time>2020-08-23T12:48:36Z</time>
      </trkpt>
      <trkpt lat="42.004283" lon="-0.130026">
        <ele>367.168</ele>
        <time>2020-08-23T12:48:38Z</time>
      </trkpt>
      <trkpt lat="42.004280" lon="-0.129954">
        <ele>367.342</ele>
        <time>2020-08-23T12:48:40Z</time>
      </trkpt>
      <trkpt lat="42.004272" lon="-0.129882">
        <ele>367.626</ele>
        <time>2020-08-23T12:48:42Z</time>
      </trkpt>
      <trkpt lat="42.004263" lon="-0.129805">
        <ele>367.808</ele>
        <time>2020-08-23T12:48:44Z</time>
      </trkpt>
      <trkpt lat="42.004257" lon="-0.129725">
        <ele>367.961</ele>
        <time>2020-08-23T12:48:46Z</time>
      </trkpt>
      <trkpt lat="42.004238" lon="-0.129654">
        <ele>368.021</ele>
        <time>2020-08-23T12:48:48Z</time>
      </trkpt>
      <trkpt lat="42.004217" lon="-0.129590">
        <ele>368.269</ele>
        <time>2020-08-23T12:48:50Z</time>
      </trkpt>
      <trkpt lat="42.004202" lon="-0.129525">
        <ele>368.451</ele>
        <time>2020-08-23T12:48:52Z</time>
      </trkpt>
      <trkpt lat="42.004214" lon="-0.129446">
        <ele>368.842</ele>
        <time>2020-08-23T12:48:55Z</time>
      </trkpt>
      <trkpt lat="42.004239" lon="-0.129392">
        <ele>369.073</ele>
        <time>2020-08-23T12:48:57Z</time>
      </trkpt>
      <trkpt lat="42.004275" lon="-0.129344">
        <ele>369.289</ele>
        <time>2020-08-23T12:48:59Z</time>
      </trkpt>
      <trkpt lat="42.004306" lon="-0.129298">
        <ele>369.328</ele>
        <time>2020-08-23T12:49:01Z</time>
      </trkpt>
      <trkpt lat="42.004363" lon="-0.129262">
        <ele>369.428</ele>
        <time>2020-08-23T12:49:04Z</time>
      </trkpt>
      <trkpt lat="42.004425" lon="-0.129232">
        <ele>369.689</ele>
        <time>2020-08-23T12:49:07Z</time>
      </trkpt>
      <trkpt lat="42.004470" lon="-0.129220">
        <ele>369.817</ele>
        <time>2020-08-23T12:49:09Z</time>
      </trkpt>
      <trkpt lat="42.004518" lon="-0.129206">
        <ele>370.008</ele>
        <time>2020-08-23T12:49:11Z</time>
      </trkpt>
      <trkpt lat="42.004580" lon="-0.129210">
        <ele>370.487</ele>
        <time>2020-08-23T12:49:14Z</time>
      </trkpt>
      <trkpt lat="42.004628" lon="-0.129231">
        <ele>370.727</ele>
        <time>2020-08-23T12:49:16Z</time>
      </trkpt>
      <trkpt lat="42.004678" lon="-0.129246">
        <ele>370.925</ele>
        <time>2020-08-23T12:49:18Z</time>
      </trkpt>
      <trkpt lat="42.004717" lon="-0.129290">
        <ele>371.167</ele>
        <time>2020-08-23T12:49:20Z</time>
      </trkpt>
      <trkpt lat="42.004756" lon="-0.129330">
        <ele>371.348</ele>
        <time>2020-08-23T12:49:22Z</time>
      </trkpt>
      <trkpt lat="42.004797" lon="-0.129364">
        <ele>371.579</ele>
        <time>2020-08-23T12:49:24Z</time>
      </trkpt>
      <trkpt lat="42.004837" lon="-0.129407">
        <ele>371.885</ele>
        <time>2020-08-23T12:49:26Z</time>
      </trkpt>
      <trkpt lat="42.004874" lon="-0.129443">
        <ele>372.194</ele>
        <time>2020-08-23T12:49:28Z</time>
      </trkpt>
      <trkpt lat="42.004927" lon="-0.129492">
        <ele>372.561</ele>
        <time>2020-08-23T12:49:31Z</time>
      </trkpt>
      <trkpt lat="42.004980" lon="-0.129548">
        <ele>373.221</ele>
        <time>2020-08-23T12:49:34Z</time>
      </trkpt>
      <trkpt lat="42.005022" lon="-0.129604">
        <ele>373.613</ele>
        <time>2020-08-23T12:49:36Z</time>
      </trkpt>
      <trkpt lat="42.005058" lon="-0.129642">
        <ele>373.908</ele>
        <time>2020-08-23T12:49:38Z</time>
      </trkpt>
      <trkpt lat="42.005109" lon="-0.129699">
        <ele>374.291</ele>
        <time>2020-08-23T12:49:41Z</time>
      </trkpt>
      <trkpt lat="42.005162" lon="-0.129751">
        <ele>374.441</ele>
        <time>2020-08-23T12:49:44Z</time>
      </trkpt>
      <trkpt lat="42.005204" lon="-0.129774">
        <ele>374.619</ele>
        <time>2020-08-23T12:49:46Z</time>
      </trkpt>
      <trkpt lat="42.005239" lon="-0.129820">
        <ele>374.891</ele>
        <time>2020-08-23T12:49:48Z</time>
      </trkpt>
      <trkpt lat="42.005282" lon="-0.129847">
        <ele>375.062</ele>
        <time>2020-08-23T12:49:50Z</time>
      </trkpt>
      <trkpt lat="42.005324" lon="-0.129879">
        <ele>375.253</ele>
        <time>2020-08-23T12:49:52Z</time>
      </trkpt>
      <trkpt lat="42.005375" lon="-0.129928">
        <ele>375.639</ele>
        <time>2020-08-23T12:49:55Z</time>
      </trkpt>
      <trkpt lat="42.005441" lon="-0.129949">
        <ele>376.068</ele>
        <time>2020-08-23T12:49:58Z</time>
      </trkpt>
      <trkpt lat="42.005484" lon="-0.129969">
        <ele>376.336</ele>
        <time>2020-08-23T12:50:00Z</time>
      </trkpt>
      <trkpt lat="42.005539" lon="-0.130011">
        <ele>376.817</ele>
        <time>2020-08-23T12:50:03Z</time>
      </trkpt>
      <trkpt lat="42.005593" lon="-0.130077">
        <ele>377.318</ele>
        <time>2020-08-23T12:50:06Z</time>
      </trkpt>
      <trkpt lat="42.005638" lon="-0.130129">
        <ele>377.608</ele>
        <time>2020-08-23T12:50:08Z</time>
      </trkpt>
      <trkpt lat="42.005681" lon="-0.130177">
        <ele>377.888</ele>
        <time>2020-08-23T12:50:10Z</time>
      </trkpt>
      <trkpt lat="42.005728" lon="-0.130216">
        <ele>378.118</ele>
        <time>2020-08-23T12:50:12Z</time>
      </trkpt>
      <trkpt lat="42.005769" lon="-0.130248">
        <ele>378.376</ele>
        <time>2020-08-23T12:50:14Z</time>
      </trkpt>
      <trkpt lat="42.005804" lon="-0.130291">
        <ele>378.558</ele>
        <time>2020-08-23T12:50:16Z</time>
      </trkpt>
      <trkpt lat="42.005836" lon="-0.130349">
        <ele>378.659</ele>
        <time>2020-08-23T12:50:18Z</time>
      </trkpt>
      <trkpt lat="42.005878" lon="-0.130384">
        <ele>378.750</ele>
        <time>2020-08-23T12:50:20Z</time>
      </trkpt>
      <trkpt lat="42.005933" lon="-0.130419">
        <ele>378.816</ele>
        <time>2020-08-23T12:50:22Z</time>
      </trkpt>
      <trkpt lat="42.005987" lon="-0.130465">
        <ele>378.955</ele>
        <time>2020-08-23T12:50:24Z</time>
      </trkpt>
      <trkpt lat="42.006038" lon="-0.130515">
        <ele>379.091</ele>
        <time>2020-08-23T12:50:26Z</time>
      </trkpt>
      <trkpt lat="42.006084" lon="-0.130560">
        <ele>379.281</ele>
        <time>2020-08-23T12:50:28Z</time>
      </trkpt>
      <trkpt lat="42.006129" lon="-0.130620">
        <ele>379.319</ele>
        <time>2020-08-23T12:50:30Z</time>
      </trkpt>
      <trkpt lat="42.006165" lon="-0.130687">
        <ele>379.508</ele>
        <time>2020-08-23T12:50:32Z</time>
      </trkpt>
      <trkpt lat="42.006205" lon="-0.130751">
        <ele>379.714</ele>
        <time>2020-08-23T12:50:34Z</time>
      </trkpt>
      <trkpt lat="42.006247" lon="-0.130816">
        <ele>379.934</ele>
        <time>2020-08-23T12:50:36Z</time>
      </trkpt>
      <trkpt lat="42.006274" lon="-0.130872">
        <ele>380.132</ele>
        <time>2020-08-23T12:50:38Z</time>
      </trkpt>
      <trkpt lat="42.006314" lon="-0.130931">
        <ele>380.554</ele>
        <time>2020-08-23T12:50:41Z</time>
      </trkpt>
      <trkpt lat="42.006344" lon="-0.130983">
        <ele>380.825</ele>
        <time>2020-08-23T12:50:43Z</time>
      </trkpt>
      <trkpt lat="42.006389" lon="-0.131049">
        <ele>381.046</ele>
        <time>2020-08-23T12:50:45Z</time>
      </trkpt>
      <trkpt lat="42.006431" lon="-0.131117">
        <ele>381.252</ele>
        <time>2020-08-23T12:50:47Z</time>
      </trkpt>
      <trkpt lat="42.006468" lon="-0.131164">
        <ele>381.451</ele>
        <time>2020-08-23T12:50:49Z</time>
      </trkpt>
      <trkpt lat="42.006501" lon="-0.131216">
        <ele>381.634</ele>
        <time>2020-08-23T12:50:51Z</time>
      </trkpt>
      <trkpt lat="42.006544" lon="-0.131283">
        <ele>382.055</ele>
        <time>2020-08-23T12:50:54Z</time>
      </trkpt>
      <trkpt lat="42.006582" lon="-0.131352">
        <ele>382.310</ele>
        <time>2020-08-23T12:50:56Z</time>
      </trkpt>
      <trkpt lat="42.006616" lon="-0.131410">
        <ele>382.508</ele>
        <time>2020-08-23T12:50:58Z</time>
      </trkpt>
      <trkpt lat="42.006644" lon="-0.131459">
        <ele>382.688</ele>
        <time>2020-08-23T12:51:00Z</time>
      </trkpt>
      <trkpt lat="42.006682" lon="-0.131532">
        <ele>382.748</ele>
        <time>2020-08-23T12:51:02Z</time>
      </trkpt>
      <trkpt lat="42.006735" lon="-0.131607">
        <ele>382.966</ele>
        <time>2020-08-23T12:51:04Z</time>
      </trkpt>
      <trkpt lat="42.006777" lon="-0.131655">
        <ele>383.028</ele>
        <time>2020-08-23T12:51:06Z</time>
      </trkpt>
      <trkpt lat="42.006819" lon="-0.131718">
        <ele>383.129</ele>
        <time>2020-08-23T12:51:08Z</time>
      </trkpt>
      <trkpt lat="42.006843" lon="-0.131776">
        <ele>383.240</ele>
        <time>2020-08-23T12:51:10Z</time>
      </trkpt>
      <trkpt lat="42.006880" lon="-0.131839">
        <ele>383.316</ele>
        <time>2020-08-23T12:51:12Z</time>
      </trkpt>
      <trkpt lat="42.006909" lon="-0.131888">
        <ele>383.365</ele>
        <time>2020-08-23T12:51:13Z</time>
      </trkpt>
      <trkpt lat="42.006941" lon="-0.131936">
        <ele>383.374</ele>
        <time>2020-08-23T12:51:14Z</time>
      </trkpt>
      <trkpt lat="42.006981" lon="-0.132002">
        <ele>383.456</ele>
        <time>2020-08-23T12:51:16Z</time>
      </trkpt>
      <trkpt lat="42.007031" lon="-0.132073">
        <ele>383.421</ele>
        <time>2020-08-23T12:51:18Z</time>
      </trkpt>
      <trkpt lat="42.007063" lon="-0.132122">
        <ele>383.408</ele>
        <time>2020-08-23T12:51:19Z</time>
      </trkpt>
      <trkpt lat="42.007105" lon="-0.132178">
        <ele>383.462</ele>
        <time>2020-08-23T12:51:21Z</time>
      </trkpt>
      <trkpt lat="42.007154" lon="-0.132249">
        <ele>383.492</ele>
        <time>2020-08-23T12:51:23Z</time>
      </trkpt>
      <trkpt lat="42.007197" lon="-0.132291">
        <ele>383.510</ele>
        <time>2020-08-23T12:51:25Z</time>
      </trkpt>
      <trkpt lat="42.007245" lon="-0.132343">
        <ele>383.732</ele>
        <time>2020-08-23T12:51:27Z</time>
      </trkpt>
      <trkpt lat="42.007291" lon="-0.132377">
        <ele>384.063</ele>
        <time>2020-08-23T12:51:30Z</time>
      </trkpt>
      <trkpt lat="42.007335" lon="-0.132407">
        <ele>384.184</ele>
        <time>2020-08-23T12:51:32Z</time>
      </trkpt>
      <trkpt lat="42.007387" lon="-0.132437">
        <ele>384.490</ele>
        <time>2020-08-23T12:51:35Z</time>
      </trkpt>
      <trkpt lat="42.007431" lon="-0.132486">
        <ele>384.899</ele>
        <time>2020-08-23T12:51:37Z</time>
      </trkpt>
      <trkpt lat="42.007471" lon="-0.132538">
        <ele>385.327</ele>
        <time>2020-08-23T12:51:39Z</time>
      </trkpt>
      <trkpt lat="42.007516" lon="-0.132594">
        <ele>385.468</ele>
        <time>2020-08-23T12:51:41Z</time>
      </trkpt>
      <trkpt lat="42.007565" lon="-0.132640">
        <ele>385.414</ele>
        <time>2020-08-23T12:51:43Z</time>
      </trkpt>
      <trkpt lat="42.007621" lon="-0.132694">
        <ele>385.508</ele>
        <time>2020-08-23T12:51:46Z</time>
      </trkpt>
      <trkpt lat="42.007677" lon="-0.132749">
        <ele>385.967</ele>
        <time>2020-08-23T12:51:48Z</time>
      </trkpt>
      <trkpt lat="42.007732" lon="-0.132786">
        <ele>386.357</ele>
        <time>2020-08-23T12:51:51Z</time>
      </trkpt>
      <trkpt lat="42.007775" lon="-0.132813">
        <ele>386.555</ele>
        <time>2020-08-23T12:51:53Z</time>
      </trkpt>
      <trkpt lat="42.007821" lon="-0.132853">
        <ele>386.777</ele>
        <time>2020-08-23T12:51:57Z</time>
      </trkpt>
      <trkpt lat="42.007882" lon="-0.132904">
        <ele>387.078</ele>
        <time>2020-08-23T12:52:00Z</time>
      </trkpt>
      <trkpt lat="42.007932" lon="-0.132932">
        <ele>387.389</ele>
        <time>2020-08-23T12:52:03Z</time>
      </trkpt>
      <trkpt lat="42.007984" lon="-0.132960">
        <ele>387.965</ele>
        <time>2020-08-23T12:52:06Z</time>
      </trkpt>
      <trkpt lat="42.008046" lon="-0.132965">
        <ele>388.524</ele>
        <time>2020-08-23T12:52:09Z</time>
      </trkpt>
      <trkpt lat="42.008102" lon="-0.132956">
        <ele>388.894</ele>
        <time>2020-08-23T12:52:12Z</time>
      </trkpt>
      <trkpt lat="42.008151" lon="-0.132957">
        <ele>389.157</ele>
        <time>2020-08-23T12:52:14Z</time>
      </trkpt>
      <trkpt lat="42.008212" lon="-0.132956">
        <ele>389.422</ele>
        <time>2020-08-23T12:52:16Z</time>
      </trkpt>
      <trkpt lat="42.008268" lon="-0.132952">
        <ele>389.908</ele>
        <time>2020-08-23T12:52:20Z</time>
      </trkpt>
      <trkpt lat="42.008339" lon="-0.132958">
        <ele>390.224</ele>
        <time>2020-08-23T12:52:23Z</time>
      </trkpt>
      <trkpt lat="42.008403" lon="-0.132952">
        <ele>390.454</ele>
        <time>2020-08-23T12:52:25Z</time>
      </trkpt>
      <trkpt lat="42.008468" lon="-0.132945">
        <ele>390.612</ele>
        <time>2020-08-23T12:52:27Z</time>
      </trkpt>
      <trkpt lat="42.008520" lon="-0.132938">
        <ele>390.954</ele>
        <time>2020-08-23T12:52:29Z</time>
      </trkpt>
      <trkpt lat="42.008583" lon="-0.132946">
        <ele>391.465</ele>
        <time>2020-08-23T12:52:32Z</time>
      </trkpt>
      <trkpt lat="42.008642" lon="-0.132963">
        <ele>391.946</ele>
        <time>2020-08-23T12:52:35Z</time>
      </trkpt>
      <trkpt lat="42.008692" lon="-0.132968">
        <ele>392.162</ele>
        <time>2020-08-23T12:52:37Z</time>
      </trkpt>
      <trkpt lat="42.008749" lon="-0.132969">
        <ele>392.311</ele>
        <time>2020-08-23T12:52:39Z</time>
      </trkpt>
      <trkpt lat="42.008795" lon="-0.132959">
        <ele>392.615</ele>
        <time>2020-08-23T12:52:41Z</time>
      </trkpt>
      <trkpt lat="42.008854" lon="-0.132973">
        <ele>392.965</ele>
        <time>2020-08-23T12:52:43Z</time>
      </trkpt>
      <trkpt lat="42.008909" lon="-0.132979">
        <ele>393.211</ele>
        <time>2020-08-23T12:52:45Z</time>
      </trkpt>
      <trkpt lat="42.008960" lon="-0.132978">
        <ele>393.508</ele>
        <time>2020-08-23T12:52:47Z</time>
      </trkpt>
      <trkpt lat="42.009017" lon="-0.132966">
        <ele>393.816</ele>
        <time>2020-08-23T12:52:49Z</time>
      </trkpt>
      <trkpt lat="42.009072" lon="-0.132958">
        <ele>394.016</ele>
        <time>2020-08-23T12:52:51Z</time>
      </trkpt>
      <trkpt lat="42.009119" lon="-0.132959">
        <ele>394.294</ele>
        <time>2020-08-23T12:52:53Z</time>
      </trkpt>
      <trkpt lat="42.009169" lon="-0.132959">
        <ele>394.496</ele>
        <time>2020-08-23T12:52:55Z</time>
      </trkpt>
      <trkpt lat="42.009230" lon="-0.132950">
        <ele>394.947</ele>
        <time>2020-08-23T12:52:58Z</time>
      </trkpt>
      <trkpt lat="42.009296" lon="-0.132946">
        <ele>395.398</ele>
        <time>2020-08-23T12:53:01Z</time>
      </trkpt>
      <trkpt lat="42.009359" lon="-0.132962">
        <ele>395.494</ele>
        <time>2020-08-23T12:53:03Z</time>
      </trkpt>
      <trkpt lat="42.009415" lon="-0.132965">
        <ele>395.533</ele>
        <time>2020-08-23T12:53:05Z</time>
      </trkpt>
      <trkpt lat="42.009467" lon="-0.132967">
        <ele>395.627</ele>
        <time>2020-08-23T12:53:07Z</time>
      </trkpt>
      <trkpt lat="42.009525" lon="-0.132977">
        <ele>395.768</ele>
        <time>2020-08-23T12:53:09Z</time>
      </trkpt>
      <trkpt lat="42.009596" lon="-0.132982">
        <ele>395.814</ele>
        <time>2020-08-23T12:53:11Z</time>
      </trkpt>
      <trkpt lat="42.009663" lon="-0.132995">
        <ele>395.908</ele>
        <time>2020-08-23T12:53:13Z</time>
      </trkpt>
      <trkpt lat="42.009723" lon="-0.133024">
        <ele>396.067</ele>
        <time>2020-08-23T12:53:15Z</time>
      </trkpt>
      <trkpt lat="42.009798" lon="-0.133026">
        <ele>396.137</ele>
        <time>2020-08-23T12:53:18Z</time>
      </trkpt>
      <trkpt lat="42.009857" lon="-0.133045">
        <ele>396.315</ele>
        <time>2020-08-23T12:53:20Z</time>
      </trkpt>
      <trkpt lat="42.009916" lon="-0.133069">
        <ele>396.557</ele>
        <time>2020-08-23T12:53:22Z</time>
      </trkpt>
      <trkpt lat="42.009979" lon="-0.133110">
        <ele>396.728</ele>
        <time>2020-08-23T12:53:24Z</time>
      </trkpt>
      <trkpt lat="42.010047" lon="-0.133141">
        <ele>396.889</ele>
        <time>2020-08-23T12:53:26Z</time>
      </trkpt>
      <trkpt lat="42.010106" lon="-0.133175">
        <ele>396.965</ele>
        <time>2020-08-23T12:53:28Z</time>
      </trkpt>
      <trkpt lat="42.010163" lon="-0.133214">
        <ele>397.044</ele>
        <time>2020-08-23T12:53:30Z</time>
      </trkpt>
      <trkpt lat="42.010222" lon="-0.133252">
        <ele>397.133</ele>
        <time>2020-08-23T12:53:32Z</time>
      </trkpt>
      <trkpt lat="42.010275" lon="-0.133275">
        <ele>397.223</ele>
        <time>2020-08-23T12:53:34Z</time>
      </trkpt>
      <trkpt lat="42.010339" lon="-0.133301">
        <ele>397.415</ele>
        <time>2020-08-23T12:53:36Z</time>
      </trkpt>
      <trkpt lat="42.010401" lon="-0.133326">
        <ele>397.708</ele>
        <time>2020-08-23T12:53:39Z</time>
      </trkpt>
      <trkpt lat="42.010455" lon="-0.133350">
        <ele>397.858</ele>
        <time>2020-08-23T12:53:41Z</time>
      </trkpt>
      <trkpt lat="42.010523" lon="-0.133376">
        <ele>397.938</ele>
        <time>2020-08-23T12:53:43Z</time>
      </trkpt>
      <trkpt lat="42.010586" lon="-0.133405">
        <ele>398.186</ele>
        <time>2020-08-23T12:53:45Z</time>
      </trkpt>
      <trkpt lat="42.010632" lon="-0.133430">
        <ele>398.368</ele>
        <time>2020-08-23T12:53:47Z</time>
      </trkpt>
      <trkpt lat="42.010689" lon="-0.133461">
        <ele>398.629</ele>
        <time>2020-08-23T12:53:49Z</time>
      </trkpt>
      <trkpt lat="42.010737" lon="-0.133493">
        <ele>398.950</ele>
        <time>2020-08-23T12:53:51Z</time>
      </trkpt>
      <trkpt lat="42.010791" lon="-0.133528">
        <ele>399.256</ele>
        <time>2020-08-23T12:53:53Z</time>
      </trkpt>
      <trkpt lat="42.010866" lon="-0.133550">
        <ele>399.695</ele>
        <time>2020-08-23T12:53:56Z</time>
      </trkpt>
      <trkpt lat="42.010923" lon="-0.133559">
        <ele>399.928</ele>
        <time>2020-08-23T12:53:58Z</time>
      </trkpt>
      <trkpt lat="42.010968" lon="-0.133562">
        <ele>400.389</ele>
        <time>2020-08-23T12:54:00Z</time>
      </trkpt>
      <trkpt lat="42.011021" lon="-0.133585">
        <ele>400.717</ele>
        <time>2020-08-23T12:54:02Z</time>
      </trkpt>
      <trkpt lat="42.011075" lon="-0.133596">
        <ele>401.108</ele>
        <time>2020-08-23T12:54:04Z</time>
      </trkpt>
      <trkpt lat="42.011122" lon="-0.133610">
        <ele>401.287</ele>
        <time>2020-08-23T12:54:06Z</time>
      </trkpt>
      <trkpt lat="42.011167" lon="-0.133621">
        <ele>401.297</ele>
        <time>2020-08-23T12:54:08Z</time>
      </trkpt>
      <trkpt lat="42.011223" lon="-0.133640">
        <ele>401.335</ele>
        <time>2020-08-23T12:54:10Z</time>
      </trkpt>
      <trkpt lat="42.011270" lon="-0.133670">
        <ele>401.457</ele>
        <time>2020-08-23T12:54:12Z</time>
      </trkpt>
      <trkpt lat="42.011320" lon="-0.133697">
        <ele>401.578</ele>
        <time>2020-08-23T12:54:14Z</time>
      </trkpt>
      <trkpt lat="42.011365" lon="-0.133719">
        <ele>401.689</ele>
        <time>2020-08-23T12:54:16Z</time>
      </trkpt>
      <trkpt lat="42.011421" lon="-0.133756">
        <ele>401.815</ele>
        <time>2020-08-23T12:54:18Z</time>
      </trkpt>
      <trkpt lat="42.011497" lon="-0.133795">
        <ele>402.354</ele>
        <time>2020-08-23T12:54:22Z</time>
      </trkpt>
      <trkpt lat="42.011574" lon="-0.133810">
        <ele>402.656</ele>
        <time>2020-08-23T12:54:24Z</time>
      </trkpt>
      <trkpt lat="42.011630" lon="-0.133830">
        <ele>402.759</ele>
        <time>2020-08-23T12:54:26Z</time>
      </trkpt>
      <trkpt lat="42.011698" lon="-0.133860">
        <ele>402.814</ele>
        <time>2020-08-23T12:54:29Z</time>
      </trkpt>
      <trkpt lat="42.011756" lon="-0.133899">
        <ele>403.008</ele>
        <time>2020-08-23T12:54:32Z</time>
      </trkpt>
      <trkpt lat="42.011806" lon="-0.133928">
        <ele>403.280</ele>
        <time>2020-08-23T12:54:34Z</time>
      </trkpt>
      <trkpt lat="42.011852" lon="-0.133956">
        <ele>403.370</ele>
        <time>2020-08-23T12:54:36Z</time>
      </trkpt>
      <trkpt lat="42.011906" lon="-0.133995">
        <ele>403.618</ele>
        <time>2020-08-23T12:54:38Z</time>
      </trkpt>
      <trkpt lat="42.011964" lon="-0.134021">
        <ele>403.850</ele>
        <time>2020-08-23T12:54:41Z</time>
      </trkpt>
      <trkpt lat="42.012020" lon="-0.134037">
        <ele>404.021</ele>
        <time>2020-08-23T12:54:44Z</time>
      </trkpt>
      <trkpt lat="42.012075" lon="-0.134070">
        <ele>404.272</ele>
        <time>2020-08-23T12:54:47Z</time>
      </trkpt>
      <trkpt lat="42.012120" lon="-0.134090">
        <ele>404.478</ele>
        <time>2020-08-23T12:54:49Z</time>
      </trkpt>
      <trkpt lat="42.012167" lon="-0.134105">
        <ele>404.657</ele>
        <time>2020-08-23T12:54:51Z</time>
      </trkpt>
      <trkpt lat="42.012211" lon="-0.134132">
        <ele>404.839</ele>
        <time>2020-08-23T12:54:53Z</time>
      </trkpt>
      <trkpt lat="42.012254" lon="-0.134163">
        <ele>405.001</ele>
        <time>2020-08-23T12:54:56Z</time>
      </trkpt>
      <trkpt lat="42.012303" lon="-0.134192">
        <ele>405.121</ele>
        <time>2020-08-23T12:54:58Z</time>
      </trkpt>
      <trkpt lat="42.012351" lon="-0.134215">
        <ele>405.208</ele>
        <time>2020-08-23T12:55:00Z</time>
      </trkpt>
      <trkpt lat="42.012398" lon="-0.134232">
        <ele>405.658</ele>
        <time>2020-08-23T12:55:02Z</time>
      </trkpt>
      <trkpt lat="42.012441" lon="-0.134252">
        <ele>406.038</ele>
        <time>2020-08-23T12:55:04Z</time>
      </trkpt>
      <trkpt lat="42.012486" lon="-0.134267">
        <ele>406.266</ele>
        <time>2020-08-23T12:55:06Z</time>
      </trkpt>
      <trkpt lat="42.012537" lon="-0.134287">
        <ele>406.318</ele>
        <time>2020-08-23T12:55:08Z</time>
      </trkpt>
      <trkpt lat="42.012586" lon="-0.134298">
        <ele>406.629</ele>
        <time>2020-08-23T12:55:10Z</time>
      </trkpt>
      <trkpt lat="42.012634" lon="-0.134319">
        <ele>406.710</ele>
        <time>2020-08-23T12:55:12Z</time>
      </trkpt>
      <trkpt lat="42.012680" lon="-0.134344">
        <ele>406.866</ele>
        <time>2020-08-23T12:55:14Z</time>
      </trkpt>
      <trkpt lat="42.012745" lon="-0.134364">
        <ele>407.025</ele>
        <time>2020-08-23T12:55:16Z</time>
      </trkpt>
      <trkpt lat="42.012807" lon="-0.134394">
        <ele>407.313</ele>
        <time>2020-08-23T12:55:19Z</time>
      </trkpt>
      <trkpt lat="42.012858" lon="-0.134415">
        <ele>407.443</ele>
        <time>2020-08-23T12:55:21Z</time>
      </trkpt>
      <trkpt lat="42.012905" lon="-0.134432">
        <ele>407.507</ele>
        <time>2020-08-23T12:55:23Z</time>
      </trkpt>
      <trkpt lat="42.012961" lon="-0.134441">
        <ele>407.608</ele>
        <time>2020-08-23T12:55:25Z</time>
      </trkpt>
      <trkpt lat="42.013012" lon="-0.134459">
        <ele>407.876</ele>
        <time>2020-08-23T12:55:27Z</time>
      </trkpt>
      <trkpt lat="42.013067" lon="-0.134487">
        <ele>408.056</ele>
        <time>2020-08-23T12:55:29Z</time>
      </trkpt>
      <trkpt lat="42.013113" lon="-0.134511">
        <ele>408.434</ele>
        <time>2020-08-23T12:55:31Z</time>
      </trkpt>
      <trkpt lat="42.013172" lon="-0.134541">
        <ele>409.036</ele>
        <time>2020-08-23T12:55:34Z</time>
      </trkpt>
      <trkpt lat="42.013233" lon="-0.134580">
        <ele>409.157</ele>
        <time>2020-08-23T12:55:37Z</time>
      </trkpt>
      <trkpt lat="42.013275" lon="-0.134602">
        <ele>409.238</ele>
        <time>2020-08-23T12:55:39Z</time>
      </trkpt>
      <trkpt lat="42.013327" lon="-0.134625">
        <ele>409.474</ele>
        <time>2020-08-23T12:55:41Z</time>
      </trkpt>
      <trkpt lat="42.013372" lon="-0.134635">
        <ele>409.613</ele>
        <time>2020-08-23T12:55:43Z</time>
      </trkpt>
      <trkpt lat="42.013417" lon="-0.134650">
        <ele>409.729</ele>
        <time>2020-08-23T12:55:45Z</time>
      </trkpt>
      <trkpt lat="42.013467" lon="-0.134671">
        <ele>409.800</ele>
        <time>2020-08-23T12:55:47Z</time>
      </trkpt>
      <trkpt lat="42.013514" lon="-0.134697">
        <ele>409.920</ele>
        <time>2020-08-23T12:55:49Z</time>
      </trkpt>
      <trkpt lat="42.013582" lon="-0.134724">
        <ele>410.108</ele>
        <time>2020-08-23T12:55:52Z</time>
      </trkpt>
      <trkpt lat="42.013628" lon="-0.134754">
        <ele>410.397</ele>
        <time>2020-08-23T12:55:54Z</time>
      </trkpt>
      <trkpt lat="42.013675" lon="-0.134775">
        <ele>410.527</ele>
        <time>2020-08-23T12:55:56Z</time>
      </trkpt>
      <trkpt lat="42.013730" lon="-0.134788">
        <ele>410.795</ele>
        <time>2020-08-23T12:55:58Z</time>
      </trkpt>
      <trkpt lat="42.013778" lon="-0.134814">
        <ele>410.987</ele>
        <time>2020-08-23T12:56:00Z</time>
      </trkpt>
      <trkpt lat="42.013822" lon="-0.134832">
        <ele>411.198</ele>
        <time>2020-08-23T12:56:02Z</time>
      </trkpt>
      <trkpt lat="42.013879" lon="-0.134851">
        <ele>411.249</ele>
        <time>2020-08-23T12:56:04Z</time>
      </trkpt>
      <trkpt lat="42.013932" lon="-0.134863">
        <ele>411.465</ele>
        <time>2020-08-23T12:56:06Z</time>
      </trkpt>
      <trkpt lat="42.013982" lon="-0.134889">
        <ele>411.694</ele>
        <time>2020-08-23T12:56:08Z</time>
      </trkpt>
      <trkpt lat="42.014042" lon="-0.134930">
        <ele>411.938</ele>
        <time>2020-08-23T12:56:11Z</time>
      </trkpt>
      <trkpt lat="42.014088" lon="-0.134955">
        <ele>412.070</ele>
        <time>2020-08-23T12:56:13Z</time>
      </trkpt>
      <trkpt lat="42.014138" lon="-0.134980">
        <ele>412.217</ele>
        <time>2020-08-23T12:56:15Z</time>
      </trkpt>
      <trkpt lat="42.014183" lon="-0.134999">
        <ele>412.408</ele>
        <time>2020-08-23T12:56:17Z</time>
      </trkpt>
      <trkpt lat="42.014238" lon="-0.135034">
        <ele>412.438</ele>
        <time>2020-08-23T12:56:19Z</time>
      </trkpt>
      <trkpt lat="42.014290" lon="-0.135057">
        <ele>412.478</ele>
        <time>2020-08-23T12:56:21Z</time>
      </trkpt>
      <trkpt lat="42.014355" lon="-0.135053">
        <ele>412.666</ele>
        <time>2020-08-23T12:56:24Z</time>
      </trkpt>
      <trkpt lat="42.014418" lon="-0.135053">
        <ele>412.698</ele>
        <time>2020-08-23T12:56:27Z</time>
      </trkpt>
      <trkpt lat="42.014490" lon="-0.135052">
        <ele>413.129</ele>
        <time>2020-08-23T12:56:30Z</time>
      </trkpt>
      <trkpt lat="42.014536" lon="-0.135041">
        <ele>413.460</ele>
        <time>2020-08-23T12:56:32Z</time>
      </trkpt>
      <trkpt lat="42.014585" lon="-0.135026">
        <ele>413.626</ele>
        <time>2020-08-23T12:56:34Z</time>
      </trkpt>
      <trkpt lat="42.014630" lon="-0.135021">
        <ele>413.915</ele>
        <time>2020-08-23T12:56:36Z</time>
      </trkpt>
      <trkpt lat="42.014688" lon="-0.135017">
        <ele>414.241</ele>
        <time>2020-08-23T12:56:38Z</time>
      </trkpt>
      <trkpt lat="42.014748" lon="-0.135015">
        <ele>414.581</ele>
        <time>2020-08-23T12:56:40Z</time>
      </trkpt>
      <trkpt lat="42.014804" lon="-0.135022">
        <ele>414.809</ele>
        <time>2020-08-23T12:56:42Z</time>
      </trkpt>
      <trkpt lat="42.014850" lon="-0.135022">
        <ele>415.108</ele>
        <time>2020-08-23T12:56:44Z</time>
      </trkpt>
      <trkpt lat="42.014900" lon="-0.135027">
        <ele>415.379</ele>
        <time>2020-08-23T12:56:46Z</time>
      </trkpt>
      <trkpt lat="42.014952" lon="-0.135044">
        <ele>415.669</ele>
        <time>2020-08-23T12:56:48Z</time>
      </trkpt>
      <trkpt lat="42.014997" lon="-0.135037">
        <ele>415.867</ele>
        <time>2020-08-23T12:56:50Z</time>
      </trkpt>
      <trkpt lat="42.015049" lon="-0.135033">
        <ele>416.129</ele>
        <time>2020-08-23T12:56:52Z</time>
      </trkpt>
      <trkpt lat="42.015101" lon="-0.135028">
        <ele>416.460</ele>
        <time>2020-08-23T12:56:54Z</time>
      </trkpt>
      <trkpt lat="42.015166" lon="-0.135016">
        <ele>416.971</ele>
        <time>2020-08-23T12:56:57Z</time>
      </trkpt>
      <trkpt lat="42.015214" lon="-0.135017">
        <ele>417.237</ele>
        <time>2020-08-23T12:56:59Z</time>
      </trkpt>
      <trkpt lat="42.015273" lon="-0.135001">
        <ele>417.786</ele>
        <time>2020-08-23T12:57:02Z</time>
      </trkpt>
      <trkpt lat="42.015329" lon="-0.135011">
        <ele>417.925</ele>
        <time>2020-08-23T12:57:04Z</time>
      </trkpt>
      <trkpt lat="42.015399" lon="-0.135012">
        <ele>418.026</ele>
        <time>2020-08-23T12:57:07Z</time>
      </trkpt>
      <trkpt lat="42.015448" lon="-0.135013">
        <ele>418.308</ele>
        <time>2020-08-23T12:57:09Z</time>
      </trkpt>
      <trkpt lat="42.015516" lon="-0.135023">
        <ele>418.808</ele>
        <time>2020-08-23T12:57:12Z</time>
      </trkpt>
      <trkpt lat="42.015567" lon="-0.135040">
        <ele>419.127</ele>
        <time>2020-08-23T12:57:14Z</time>
      </trkpt>
      <trkpt lat="42.015610" lon="-0.135071">
        <ele>419.427</ele>
        <time>2020-08-23T12:57:16Z</time>
      </trkpt>
      <trkpt lat="42.015652" lon="-0.135113">
        <ele>419.715</ele>
        <time>2020-08-23T12:57:18Z</time>
      </trkpt>
      <trkpt lat="42.015693" lon="-0.135156">
        <ele>420.017</ele>
        <time>2020-08-23T12:57:21Z</time>
      </trkpt>
      <trkpt lat="42.015731" lon="-0.135203">
        <ele>420.298</ele>
        <time>2020-08-23T12:57:23Z</time>
      </trkpt>
      <trkpt lat="42.015783" lon="-0.135256">
        <ele>420.529</ele>
        <time>2020-08-23T12:57:26Z</time>
      </trkpt>
      <trkpt lat="42.015823" lon="-0.135299">
        <ele>420.815</ele>
        <time>2020-08-23T12:57:28Z</time>
      </trkpt>
      <trkpt lat="42.015853" lon="-0.135372">
        <ele>421.214</ele>
        <time>2020-08-23T12:57:31Z</time>
      </trkpt>
      <trkpt lat="42.015895" lon="-0.135448">
        <ele>421.679</ele>
        <time>2020-08-23T12:57:34Z</time>
      </trkpt>
      <trkpt lat="42.015921" lon="-0.135504">
        <ele>421.805</ele>
        <time>2020-08-23T12:57:36Z</time>
      </trkpt>
      <trkpt lat="42.015951" lon="-0.135569">
        <ele>421.925</ele>
        <time>2020-08-23T12:57:38Z</time>
      </trkpt>
      <trkpt lat="42.015979" lon="-0.135629">
        <ele>421.908</ele>
        <time>2020-08-23T12:57:40Z</time>
      </trkpt>
      <trkpt lat="42.016007" lon="-0.135692">
        <ele>421.942</ele>
        <time>2020-08-23T12:57:42Z</time>
      </trkpt>
      <trkpt lat="42.016043" lon="-0.135745">
        <ele>421.852</ele>
        <time>2020-08-23T12:57:44Z</time>
      </trkpt>
      <trkpt lat="42.016075" lon="-0.135814">
        <ele>421.720</ele>
        <time>2020-08-23T12:57:46Z</time>
      </trkpt>
      <trkpt lat="42.016109" lon="-0.135882">
        <ele>421.672</ele>
        <time>2020-08-23T12:57:48Z</time>
      </trkpt>
      <trkpt lat="42.016139" lon="-0.135961">
        <ele>421.723</ele>
        <time>2020-08-23T12:57:50Z</time>
      </trkpt>
      <trkpt lat="42.016181" lon="-0.136044">
        <ele>421.744</ele>
        <time>2020-08-23T12:57:52Z</time>
      </trkpt>
      <trkpt lat="42.016206" lon="-0.136097">
        <ele>421.660</ele>
        <time>2020-08-23T12:57:53Z</time>
      </trkpt>
      <trkpt lat="42.016248" lon="-0.136193">
        <ele>421.599</ele>
        <time>2020-08-23T12:57:55Z</time>
      </trkpt>
      <trkpt lat="42.016277" lon="-0.136242">
        <ele>421.587</ele>
        <time>2020-08-23T12:57:56Z</time>
      </trkpt>
      <trkpt lat="42.016325" lon="-0.136329">
        <ele>421.642</ele>
        <time>2020-08-23T12:57:58Z</time>
      </trkpt>
      <trkpt lat="42.016359" lon="-0.136395">
        <ele>421.726</ele>
        <time>2020-08-23T12:58:00Z</time>
      </trkpt>
      <trkpt lat="42.016379" lon="-0.136460">
        <ele>421.508</ele>
        <time>2020-08-23T12:58:20Z</time>
      </trkpt>
      <trkpt lat="42.016369" lon="-0.136400">
        <ele>421.593</ele>
        <time>2020-08-23T12:59:17Z</time>
      </trkpt>
      <trkpt lat="42.016342" lon="-0.136351">
        <ele>421.823</ele>
        <time>2020-08-23T13:00:39Z</time>
      </trkpt>
      <trkpt lat="42.016368" lon="-0.136406">
        <ele>422.021</ele>
        <time>2020-08-23T13:01:44Z</time>
      </trkpt>
      <trkpt lat="42.016393" lon="-0.136459">
        <ele>422.023</ele>
        <time>2020-08-23T13:02:11Z</time>
      </trkpt>
      <trkpt lat="42.016420" lon="-0.136520">
        <ele>422.254</ele>
        <time>2020-08-23T13:02:16Z</time>
      </trkpt>
      <trkpt lat="42.016459" lon="-0.136564">
        <ele>422.215</ele>
        <time>2020-08-23T13:02:18Z</time>
      </trkpt>
      <trkpt lat="42.016496" lon="-0.136626">
        <ele>422.281</ele>
        <time>2020-08-23T13:02:20Z</time>
      </trkpt>
      <trkpt lat="42.016555" lon="-0.136678">
        <ele>422.290</ele>
        <time>2020-08-23T13:02:22Z</time>
      </trkpt>
      <trkpt lat="42.016600" lon="-0.136729">
        <ele>422.634</ele>
        <time>2020-08-23T13:02:24Z</time>
      </trkpt>
      <trkpt lat="42.016634" lon="-0.136794">
        <ele>422.755</ele>
        <time>2020-08-23T13:02:26Z</time>
      </trkpt>
      <trkpt lat="42.016684" lon="-0.136871">
        <ele>422.710</ele>
        <time>2020-08-23T13:02:28Z</time>
      </trkpt>
      <trkpt lat="42.016714" lon="-0.136929">
        <ele>422.708</ele>
        <time>2020-08-23T13:02:30Z</time>
      </trkpt>
      <trkpt lat="42.016753" lon="-0.137038">
        <ele>422.578</ele>
        <time>2020-08-23T13:02:32Z</time>
      </trkpt>
      <trkpt lat="42.016779" lon="-0.137113">
        <ele>422.448</ele>
        <time>2020-08-23T13:02:34Z</time>
      </trkpt>
      <trkpt lat="42.016807" lon="-0.137201">
        <ele>422.416</ele>
        <time>2020-08-23T13:02:36Z</time>
      </trkpt>
      <trkpt lat="42.016828" lon="-0.137277">
        <ele>422.478</ele>
        <time>2020-08-23T13:02:38Z</time>
      </trkpt>
      <trkpt lat="42.016849" lon="-0.137371">
        <ele>422.349</ele>
        <time>2020-08-23T13:02:40Z</time>
      </trkpt>
      <trkpt lat="42.016865" lon="-0.137443">
        <ele>422.270</ele>
        <time>2020-08-23T13:02:42Z</time>
      </trkpt>
      <trkpt lat="42.016881" lon="-0.137547">
        <ele>422.146</ele>
        <time>2020-08-23T13:02:44Z</time>
      </trkpt>
      <trkpt lat="42.016891" lon="-0.137607">
        <ele>422.175</ele>
        <time>2020-08-23T13:02:45Z</time>
      </trkpt>
      <trkpt lat="42.016911" lon="-0.137709">
        <ele>422.135</ele>
        <time>2020-08-23T13:02:47Z</time>
      </trkpt>
      <trkpt lat="42.016932" lon="-0.137813">
        <ele>422.286</ele>
        <time>2020-08-23T13:02:49Z</time>
      </trkpt>
      <trkpt lat="42.016951" lon="-0.137907">
        <ele>422.514</ele>
        <time>2020-08-23T13:02:51Z</time>
      </trkpt>
      <trkpt lat="42.016969" lon="-0.138001">
        <ele>422.708</ele>
        <time>2020-08-23T13:02:53Z</time>
      </trkpt>
      <trkpt lat="42.016991" lon="-0.138087">
        <ele>422.738</ele>
        <time>2020-08-23T13:02:55Z</time>
      </trkpt>
      <trkpt lat="42.017015" lon="-0.138196">
        <ele>422.738</ele>
        <time>2020-08-23T13:02:57Z</time>
      </trkpt>
      <trkpt lat="42.017038" lon="-0.138291">
        <ele>422.776</ele>
        <time>2020-08-23T13:02:59Z</time>
      </trkpt>
      <trkpt lat="42.017061" lon="-0.138376">
        <ele>422.818</ele>
        <time>2020-08-23T13:03:01Z</time>
      </trkpt>
      <trkpt lat="42.017091" lon="-0.138461">
        <ele>422.969</ele>
        <time>2020-08-23T13:03:03Z</time>
      </trkpt>
      <trkpt lat="42.017124" lon="-0.138545">
        <ele>423.050</ele>
        <time>2020-08-23T13:03:05Z</time>
      </trkpt>
      <trkpt lat="42.017157" lon="-0.138620">
        <ele>423.176</ele>
        <time>2020-08-23T13:03:07Z</time>
      </trkpt>
      <trkpt lat="42.017195" lon="-0.138696">
        <ele>423.265</ele>
        <time>2020-08-23T13:03:09Z</time>
      </trkpt>
      <trkpt lat="42.017243" lon="-0.138768">
        <ele>423.327</ele>
        <time>2020-08-23T13:03:11Z</time>
      </trkpt>
      <trkpt lat="42.017292" lon="-0.138840">
        <ele>423.468</ele>
        <time>2020-08-23T13:03:13Z</time>
      </trkpt>
      <trkpt lat="42.017354" lon="-0.138911">
        <ele>423.514</ele>
        <time>2020-08-23T13:03:15Z</time>
      </trkpt>
      <trkpt lat="42.017402" lon="-0.138986">
        <ele>423.508</ele>
        <time>2020-08-23T13:03:17Z</time>
      </trkpt>
      <trkpt lat="42.017444" lon="-0.139059">
        <ele>423.547</ele>
        <time>2020-08-23T13:03:19Z</time>
      </trkpt>
      <trkpt lat="42.017500" lon="-0.139123">
        <ele>423.557</ele>
        <time>2020-08-23T13:03:21Z</time>
      </trkpt>
      <trkpt lat="42.017545" lon="-0.139180">
        <ele>423.595</ele>
        <time>2020-08-23T13:03:23Z</time>
      </trkpt>
      <trkpt lat="42.017597" lon="-0.139234">
        <ele>423.617</ele>
        <time>2020-08-23T13:03:25Z</time>
      </trkpt>
      <trkpt lat="42.017643" lon="-0.139291">
        <ele>423.878</ele>
        <time>2020-08-23T13:03:27Z</time>
      </trkpt>
      <trkpt lat="42.017690" lon="-0.139349">
        <ele>424.059</ele>
        <time>2020-08-23T13:03:29Z</time>
      </trkpt>
      <trkpt lat="42.017735" lon="-0.139412">
        <ele>424.165</ele>
        <time>2020-08-23T13:03:31Z</time>
      </trkpt>
      <trkpt lat="42.017779" lon="-0.139464">
        <ele>424.274</ele>
        <time>2020-08-23T13:03:33Z</time>
      </trkpt>
      <trkpt lat="42.017825" lon="-0.139533">
        <ele>424.313</ele>
        <time>2020-08-23T13:03:35Z</time>
      </trkpt>
      <trkpt lat="42.017862" lon="-0.139587">
        <ele>424.443</ele>
        <time>2020-08-23T13:03:37Z</time>
      </trkpt>
      <trkpt lat="42.017896" lon="-0.139645">
        <ele>424.607</ele>
        <time>2020-08-23T13:03:39Z</time>
      </trkpt>
      <trkpt lat="42.017928" lon="-0.139696">
        <ele>424.708</ele>
        <time>2020-08-23T13:03:41Z</time>
      </trkpt>
      <trkpt lat="42.017965" lon="-0.139756">
        <ele>424.886</ele>
        <time>2020-08-23T13:03:43Z</time>
      </trkpt>
      <trkpt lat="42.018009" lon="-0.139822">
        <ele>424.866</ele>
        <time>2020-08-23T13:03:45Z</time>
      </trkpt>
      <trkpt lat="42.018050" lon="-0.139887">
        <ele>424.974</ele>
        <time>2020-08-23T13:03:47Z</time>
      </trkpt>
      <trkpt lat="42.018092" lon="-0.139942">
        <ele>425.276</ele>
        <time>2020-08-23T13:03:49Z</time>
      </trkpt>
      <trkpt lat="42.018124" lon="-0.139985">
        <ele>425.587</ele>
        <time>2020-08-23T13:03:51Z</time>
      </trkpt>
      <trkpt lat="42.018163" lon="-0.140032">
        <ele>425.848</ele>
        <time>2020-08-23T13:03:53Z</time>
      </trkpt>
      <trkpt lat="42.018195" lon="-0.140074">
        <ele>426.134</ele>
        <time>2020-08-23T13:03:55Z</time>
      </trkpt>
      <trkpt lat="42.018243" lon="-0.140133">
        <ele>426.733</ele>
        <time>2020-08-23T13:03:58Z</time>
      </trkpt>
      <trkpt lat="42.018283" lon="-0.140188">
        <ele>427.252</ele>
        <time>2020-08-23T13:04:01Z</time>
      </trkpt>
      <trkpt lat="42.018313" lon="-0.140241">
        <ele>427.453</ele>
        <time>2020-08-23T13:04:03Z</time>
      </trkpt>
      <trkpt lat="42.018345" lon="-0.140298">
        <ele>427.808</ele>
        <time>2020-08-23T13:04:05Z</time>
      </trkpt>
      <trkpt lat="42.018372" lon="-0.140350">
        <ele>428.308</ele>
        <time>2020-08-23T13:04:07Z</time>
      </trkpt>
      <trkpt lat="42.018414" lon="-0.140420">
        <ele>428.770</ele>
        <time>2020-08-23T13:04:10Z</time>
      </trkpt>
      <trkpt lat="42.018458" lon="-0.140466">
        <ele>428.920</ele>
        <time>2020-08-23T13:04:13Z</time>
      </trkpt>
      <trkpt lat="42.018497" lon="-0.140530">
        <ele>429.358</ele>
        <time>2020-08-23T13:04:16Z</time>
      </trkpt>
      <trkpt lat="42.018524" lon="-0.140603">
        <ele>429.680</ele>
        <time>2020-08-23T13:04:19Z</time>
      </trkpt>
      <trkpt lat="42.018542" lon="-0.140677">
        <ele>429.971</ele>
        <time>2020-08-23T13:04:22Z</time>
      </trkpt>
      <trkpt lat="42.018558" lon="-0.140763">
        <ele>430.322</ele>
        <time>2020-08-23T13:04:25Z</time>
      </trkpt>
      <trkpt lat="42.018567" lon="-0.140825">
        <ele>430.548</ele>
        <time>2020-08-23T13:04:27Z</time>
      </trkpt>
      <trkpt lat="42.018574" lon="-0.140887">
        <ele>430.937</ele>
        <time>2020-08-23T13:04:29Z</time>
      </trkpt>
      <trkpt lat="42.018575" lon="-0.140976">
        <ele>431.479</ele>
        <time>2020-08-23T13:04:32Z</time>
      </trkpt>
      <trkpt lat="42.018570" lon="-0.141062">
        <ele>431.705</ele>
        <time>2020-08-23T13:04:35Z</time>
      </trkpt>
      <trkpt lat="42.018566" lon="-0.141128">
        <ele>431.825</ele>
        <time>2020-08-23T13:04:37Z</time>
      </trkpt>
      <trkpt lat="42.018560" lon="-0.141204">
        <ele>432.008</ele>
        <time>2020-08-23T13:04:39Z</time>
      </trkpt>
      <trkpt lat="42.018565" lon="-0.141282">
        <ele>432.222</ele>
        <time>2020-08-23T13:04:41Z</time>
      </trkpt>
      <trkpt lat="42.018578" lon="-0.141352">
        <ele>432.312</ele>
        <time>2020-08-23T13:04:43Z</time>
      </trkpt>
      <trkpt lat="42.018596" lon="-0.141413">
        <ele>432.420</ele>
        <time>2020-08-23T13:04:45Z</time>
      </trkpt>
      <trkpt lat="42.018616" lon="-0.141496">
        <ele>432.632</ele>
        <time>2020-08-23T13:04:48Z</time>
      </trkpt>
      <trkpt lat="42.018631" lon="-0.141558">
        <ele>432.813</ele>
        <time>2020-08-23T13:04:51Z</time>
      </trkpt>
      <trkpt lat="42.018666" lon="-0.141625">
        <ele>433.084</ele>
        <time>2020-08-23T13:04:53Z</time>
      </trkpt>
      <trkpt lat="42.018699" lon="-0.141686">
        <ele>433.420</ele>
        <time>2020-08-23T13:04:56Z</time>
      </trkpt>
      <trkpt lat="42.018727" lon="-0.141736">
        <ele>433.629</ele>
        <time>2020-08-23T13:04:58Z</time>
      </trkpt>
      <trkpt lat="42.018767" lon="-0.141798">
        <ele>433.739</ele>
        <time>2020-08-23T13:05:01Z</time>
      </trkpt>
      <trkpt lat="42.018800" lon="-0.141850">
        <ele>433.701</ele>
        <time>2020-08-23T13:05:03Z</time>
      </trkpt>
      <trkpt lat="42.018843" lon="-0.141918">
        <ele>433.921</ele>
        <time>2020-08-23T13:05:06Z</time>
      </trkpt>
      <trkpt lat="42.018883" lon="-0.141992">
        <ele>434.108</ele>
        <time>2020-08-23T13:05:09Z</time>
      </trkpt>
      <trkpt lat="42.018908" lon="-0.142050">
        <ele>434.348</ele>
        <time>2020-08-23T13:05:11Z</time>
      </trkpt>
      <trkpt lat="42.018940" lon="-0.142107">
        <ele>434.418</ele>
        <time>2020-08-23T13:05:13Z</time>
      </trkpt>
      <trkpt lat="42.018976" lon="-0.142170">
        <ele>434.686</ele>
        <time>2020-08-23T13:05:15Z</time>
      </trkpt>
      <trkpt lat="42.019006" lon="-0.142219">
        <ele>434.898</ele>
        <time>2020-08-23T13:05:17Z</time>
      </trkpt>
      <trkpt lat="42.019046" lon="-0.142284">
        <ele>435.059</ele>
        <time>2020-08-23T13:05:20Z</time>
      </trkpt>
      <trkpt lat="42.019078" lon="-0.142331">
        <ele>435.220</ele>
        <time>2020-08-23T13:05:22Z</time>
      </trkpt>
      <trkpt lat="42.019123" lon="-0.142384">
        <ele>435.596</ele>
        <time>2020-08-23T13:05:25Z</time>
      </trkpt>
      <trkpt lat="42.019151" lon="-0.142433">
        <ele>435.745</ele>
        <time>2020-08-23T13:05:27Z</time>
      </trkpt>
      <trkpt lat="42.019189" lon="-0.142491">
        <ele>436.064</ele>
        <time>2020-08-23T13:05:30Z</time>
      </trkpt>
      <trkpt lat="42.019230" lon="-0.142537">
        <ele>436.306</ele>
        <time>2020-08-23T13:05:32Z</time>
      </trkpt>
      <trkpt lat="42.019261" lon="-0.142587">
        <ele>436.516</ele>
        <time>2020-08-23T13:05:34Z</time>
      </trkpt>
      <trkpt lat="42.019305" lon="-0.142639">
        <ele>436.708</ele>
        <time>2020-08-23T13:05:37Z</time>
      </trkpt>
      <trkpt lat="42.019340" lon="-0.142689">
        <ele>436.931</ele>
        <time>2020-08-23T13:05:39Z</time>
      </trkpt>
      <trkpt lat="42.019372" lon="-0.142736">
        <ele>437.141</ele>
        <time>2020-08-23T13:05:41Z</time>
      </trkpt>
      <trkpt lat="42.019419" lon="-0.142796">
        <ele>437.449</ele>
        <time>2020-08-23T13:05:44Z</time>
      </trkpt>
      <trkpt lat="42.019466" lon="-0.142852">
        <ele>437.861</ele>
        <time>2020-08-23T13:05:47Z</time>
      </trkpt>
      <trkpt lat="42.019509" lon="-0.142917">
        <ele>438.062</ele>
        <time>2020-08-23T13:05:50Z</time>
      </trkpt>
      <trkpt lat="42.019552" lon="-0.142982">
        <ele>438.263</ele>
        <time>2020-08-23T13:05:53Z</time>
      </trkpt>
      <trkpt lat="42.019581" lon="-0.143035">
        <ele>438.489</ele>
        <time>2020-08-23T13:05:55Z</time>
      </trkpt>
      <trkpt lat="42.019607" lon="-0.143098">
        <ele>438.518</ele>
        <time>2020-08-23T13:05:57Z</time>
      </trkpt>
      <trkpt lat="42.019645" lon="-0.143156">
        <ele>438.625</ele>
        <time>2020-08-23T13:05:59Z</time>
      </trkpt>
      <trkpt lat="42.019673" lon="-0.143207">
        <ele>438.726</ele>
        <time>2020-08-23T13:06:01Z</time>
      </trkpt>
      <trkpt lat="42.019708" lon="-0.143287">
        <ele>438.908</ele>
        <time>2020-08-23T13:06:04Z</time>
      </trkpt>
      <trkpt lat="42.019752" lon="-0.143344">
        <ele>439.208</ele>
        <time>2020-08-23T13:06:07Z</time>
      </trkpt>
      <trkpt lat="42.019792" lon="-0.143406">
        <ele>439.377</ele>
        <time>2020-08-23T13:06:10Z</time>
      </trkpt>
      <trkpt lat="42.019828" lon="-0.143479">
        <ele>439.567</ele>
        <time>2020-08-23T13:06:13Z</time>
      </trkpt>
      <trkpt lat="42.019853" lon="-0.143533">
        <ele>439.755</ele>
        <time>2020-08-23T13:06:15Z</time>
      </trkpt>
      <trkpt lat="42.019881" lon="-0.143584">
        <ele>439.937</ele>
        <time>2020-08-23T13:06:17Z</time>
      </trkpt>
      <trkpt lat="42.019919" lon="-0.143657">
        <ele>440.388</ele>
        <time>2020-08-23T13:06:20Z</time>
      </trkpt>
      <trkpt lat="42.019952" lon="-0.143710">
        <ele>440.489</ele>
        <time>2020-08-23T13:06:22Z</time>
      </trkpt>
      <trkpt lat="42.019989" lon="-0.143767">
        <ele>440.415</ele>
        <time>2020-08-23T13:06:24Z</time>
      </trkpt>
      <trkpt lat="42.020026" lon="-0.143836">
        <ele>440.614</ele>
        <time>2020-08-23T13:06:27Z</time>
      </trkpt>
      <trkpt lat="42.020069" lon="-0.143898">
        <ele>440.862</ele>
        <time>2020-08-23T13:06:30Z</time>
      </trkpt>
      <trkpt lat="42.020105" lon="-0.143954">
        <ele>441.083</ele>
        <time>2020-08-23T13:06:33Z</time>
      </trkpt>
      <trkpt lat="42.020145" lon="-0.144012">
        <ele>441.211</ele>
        <time>2020-08-23T13:06:36Z</time>
      </trkpt>
      <trkpt lat="42.020174" lon="-0.144060">
        <ele>441.308</ele>
        <time>2020-08-23T13:06:38Z</time>
      </trkpt>
      <trkpt lat="42.020215" lon="-0.144115">
        <ele>441.611</ele>
        <time>2020-08-23T13:06:41Z</time>
      </trkpt>
      <trkpt lat="42.020252" lon="-0.144182">
        <ele>441.991</ele>
        <time>2020-08-23T13:06:44Z</time>
      </trkpt>
      <trkpt lat="42.020290" lon="-0.144228">
        <ele>442.169</ele>
        <time>2020-08-23T13:06:46Z</time>
      </trkpt>
      <trkpt lat="42.020334" lon="-0.144279">
        <ele>442.411</ele>
        <time>2020-08-23T13:06:49Z</time>
      </trkpt>
      <trkpt lat="42.020380" lon="-0.144334">
        <ele>442.672</ele>
        <time>2020-08-23T13:06:52Z</time>
      </trkpt>
      <trkpt lat="42.020429" lon="-0.144391">
        <ele>442.893</ele>
        <time>2020-08-23T13:06:55Z</time>
      </trkpt>
      <trkpt lat="42.020487" lon="-0.144449">
        <ele>443.159</ele>
        <time>2020-08-23T13:06:58Z</time>
      </trkpt>
      <trkpt lat="42.020530" lon="-0.144514">
        <ele>443.498</ele>
        <time>2020-08-23T13:07:01Z</time>
      </trkpt>
      <trkpt lat="42.020562" lon="-0.144563">
        <ele>443.666</ele>
        <time>2020-08-23T13:07:03Z</time>
      </trkpt>
      <trkpt lat="42.020612" lon="-0.144627">
        <ele>443.829</ele>
        <time>2020-08-23T13:07:06Z</time>
      </trkpt>
      <trkpt lat="42.020652" lon="-0.144679">
        <ele>443.921</ele>
        <time>2020-08-23T13:07:08Z</time>
      </trkpt>
      <trkpt lat="42.020700" lon="-0.144735">
        <ele>444.108</ele>
        <time>2020-08-23T13:07:10Z</time>
      </trkpt>
      <trkpt lat="42.020753" lon="-0.144795">
        <ele>444.251</ele>
        <time>2020-08-23T13:07:12Z</time>
      </trkpt>
      <trkpt lat="42.020801" lon="-0.144854">
        <ele>444.341</ele>
        <time>2020-08-23T13:07:14Z</time>
      </trkpt>
      <trkpt lat="42.020847" lon="-0.144910">
        <ele>444.359</ele>
        <time>2020-08-23T13:07:16Z</time>
      </trkpt>
      <trkpt lat="42.020900" lon="-0.144973">
        <ele>444.341</ele>
        <time>2020-08-23T13:07:18Z</time>
      </trkpt>
      <trkpt lat="42.020956" lon="-0.145037">
        <ele>444.472</ele>
        <time>2020-08-23T13:07:20Z</time>
      </trkpt>
      <trkpt lat="42.021014" lon="-0.145100">
        <ele>444.483</ele>
        <time>2020-08-23T13:07:22Z</time>
      </trkpt>
      <trkpt lat="42.021080" lon="-0.145172">
        <ele>444.479</ele>
        <time>2020-08-23T13:07:24Z</time>
      </trkpt>
      <trkpt lat="42.021138" lon="-0.145244">
        <ele>444.478</ele>
        <time>2020-08-23T13:07:26Z</time>
      </trkpt>
      <trkpt lat="42.021198" lon="-0.145323">
        <ele>444.457</ele>
        <time>2020-08-23T13:07:28Z</time>
      </trkpt>
      <trkpt lat="42.021259" lon="-0.145385">
        <ele>444.400</ele>
        <time>2020-08-23T13:07:30Z</time>
      </trkpt>
      <trkpt lat="42.021317" lon="-0.145457">
        <ele>444.320</ele>
        <time>2020-08-23T13:07:32Z</time>
      </trkpt>
      <trkpt lat="42.021354" lon="-0.145497">
        <ele>444.308</ele>
        <time>2020-08-23T13:07:33Z</time>
      </trkpt>
      <trkpt lat="42.021393" lon="-0.145542">
        <ele>444.360</ele>
        <time>2020-08-23T13:07:34Z</time>
      </trkpt>
      <trkpt lat="42.021433" lon="-0.145589">
        <ele>444.380</ele>
        <time>2020-08-23T13:07:35Z</time>
      </trkpt>
      <trkpt lat="42.021470" lon="-0.145630">
        <ele>444.358</ele>
        <time>2020-08-23T13:07:36Z</time>
      </trkpt>
      <trkpt lat="42.021508" lon="-0.145675">
        <ele>444.370</ele>
        <time>2020-08-23T13:07:37Z</time>
      </trkpt>
      <trkpt lat="42.021546" lon="-0.145720">
        <ele>444.471</ele>
        <time>2020-08-23T13:07:38Z</time>
      </trkpt>
      <trkpt lat="42.021585" lon="-0.145763">
        <ele>444.462</ele>
        <time>2020-08-23T13:07:39Z</time>
      </trkpt>
      <trkpt lat="42.021632" lon="-0.145809">
        <ele>444.458</ele>
        <time>2020-08-23T13:07:40Z</time>
      </trkpt>
      <trkpt lat="42.021683" lon="-0.145858">
        <ele>444.487</ele>
        <time>2020-08-23T13:07:41Z</time>
      </trkpt>
      <trkpt lat="42.021732" lon="-0.145904">
        <ele>444.427</ele>
        <time>2020-08-23T13:07:42Z</time>
      </trkpt>
      <trkpt lat="42.021768" lon="-0.145945">
        <ele>444.468</ele>
        <time>2020-08-23T13:07:43Z</time>
      </trkpt>
      <trkpt lat="42.021825" lon="-0.146014">
        <ele>444.414</ele>
        <time>2020-08-23T13:07:45Z</time>
      </trkpt>
      <trkpt lat="42.021892" lon="-0.146095">
        <ele>444.508</ele>
        <time>2020-08-23T13:07:47Z</time>
      </trkpt>
      <trkpt lat="42.021961" lon="-0.146176">
        <ele>444.577</ele>
        <time>2020-08-23T13:07:49Z</time>
      </trkpt>
      <trkpt lat="42.022001" lon="-0.146222">
        <ele>444.527</ele>
        <time>2020-08-23T13:07:50Z</time>
      </trkpt>
      <trkpt lat="42.022041" lon="-0.146265">
        <ele>444.465</ele>
        <time>2020-08-23T13:07:51Z</time>
      </trkpt>
      <trkpt lat="42.022081" lon="-0.146308">
        <ele>444.417</ele>
        <time>2020-08-23T13:07:52Z</time>
      </trkpt>
      <trkpt lat="42.022120" lon="-0.146358">
        <ele>444.318</ele>
        <time>2020-08-23T13:07:53Z</time>
      </trkpt>
      <trkpt lat="42.022159" lon="-0.146403">
        <ele>444.239</ele>
        <time>2020-08-23T13:07:54Z</time>
      </trkpt>
      <trkpt lat="42.022199" lon="-0.146450">
        <ele>444.295</ele>
        <time>2020-08-23T13:07:55Z</time>
      </trkpt>
      <trkpt lat="42.022243" lon="-0.146503">
        <ele>444.134</ele>
        <time>2020-08-23T13:07:56Z</time>
      </trkpt>
      <trkpt lat="42.022285" lon="-0.146555">
        <ele>444.127</ele>
        <time>2020-08-23T13:07:57Z</time>
      </trkpt>
      <trkpt lat="42.022326" lon="-0.146602">
        <ele>444.168</ele>
        <time>2020-08-23T13:07:58Z</time>
      </trkpt>
      <trkpt lat="42.022361" lon="-0.146645">
        <ele>444.114</ele>
        <time>2020-08-23T13:07:59Z</time>
      </trkpt>
      <trkpt lat="42.022396" lon="-0.146688">
        <ele>444.108</ele>
        <time>2020-08-23T13:08:00Z</time>
      </trkpt>
      <trkpt lat="42.022432" lon="-0.146730">
        <ele>444.237</ele>
        <time>2020-08-23T13:08:01Z</time>
      </trkpt>
      <trkpt lat="42.022468" lon="-0.146767">
        <ele>444.367</ele>
        <time>2020-08-23T13:08:02Z</time>
      </trkpt>
      <trkpt lat="42.022542" lon="-0.146851">
        <ele>444.315</ele>
        <time>2020-08-23T13:08:04Z</time>
      </trkpt>
      <trkpt lat="42.022608" lon="-0.146936">
        <ele>444.327</ele>
        <time>2020-08-23T13:08:06Z</time>
      </trkpt>
      <trkpt lat="42.022652" lon="-0.146990">
        <ele>444.368</ele>
        <time>2020-08-23T13:08:07Z</time>
      </trkpt>
      <trkpt lat="42.022702" lon="-0.147045">
        <ele>444.439</ele>
        <time>2020-08-23T13:08:08Z</time>
      </trkpt>
      <trkpt lat="42.022749" lon="-0.147094">
        <ele>444.585</ele>
        <time>2020-08-23T13:08:09Z</time>
      </trkpt>
      <trkpt lat="42.022785" lon="-0.147132">
        <ele>444.634</ele>
        <time>2020-08-23T13:08:10Z</time>
      </trkpt>
      <trkpt lat="42.022824" lon="-0.147171">
        <ele>444.716</ele>
        <time>2020-08-23T13:08:11Z</time>
      </trkpt>
      <trkpt lat="42.022863" lon="-0.147213">
        <ele>444.876</ele>
        <time>2020-08-23T13:08:12Z</time>
      </trkpt>
      <trkpt lat="42.022926" lon="-0.147290">
        <ele>444.713</ele>
        <time>2020-08-23T13:08:14Z</time>
      </trkpt>
      <trkpt lat="42.022974" lon="-0.147351">
        <ele>444.508</ele>
        <time>2020-08-23T13:08:16Z</time>
      </trkpt>
      <trkpt lat="42.023017" lon="-0.147400">
        <ele>444.626</ele>
        <time>2020-08-23T13:08:18Z</time>
      </trkpt>
      <trkpt lat="42.023056" lon="-0.147444">
        <ele>444.916</ele>
        <time>2020-08-23T13:08:20Z</time>
      </trkpt>
      <trkpt lat="42.023111" lon="-0.147510">
        <ele>445.324</ele>
        <time>2020-08-23T13:08:22Z</time>
      </trkpt>
      <trkpt lat="42.023168" lon="-0.147579">
        <ele>445.686</ele>
        <time>2020-08-23T13:08:24Z</time>
      </trkpt>
      <trkpt lat="42.023221" lon="-0.147630">
        <ele>445.967</ele>
        <time>2020-08-23T13:08:26Z</time>
      </trkpt>
      <trkpt lat="42.023275" lon="-0.147697">
        <ele>446.158</ele>
        <time>2020-08-23T13:08:28Z</time>
      </trkpt>
      <trkpt lat="42.023334" lon="-0.147772">
        <ele>446.264</ele>
        <time>2020-08-23T13:08:30Z</time>
      </trkpt>
      <trkpt lat="42.023374" lon="-0.147818">
        <ele>446.213</ele>
        <time>2020-08-23T13:08:31Z</time>
      </trkpt>
      <trkpt lat="42.023411" lon="-0.147860">
        <ele>446.391</ele>
        <time>2020-08-23T13:08:32Z</time>
      </trkpt>
      <trkpt lat="42.023463" lon="-0.147922">
        <ele>446.481</ele>
        <time>2020-08-23T13:08:34Z</time>
      </trkpt>
      <trkpt lat="42.023522" lon="-0.147991">
        <ele>446.519</ele>
        <time>2020-08-23T13:08:36Z</time>
      </trkpt>
      <trkpt lat="42.023577" lon="-0.148058">
        <ele>446.508</ele>
        <time>2020-08-23T13:08:38Z</time>
      </trkpt>
      <trkpt lat="42.023618" lon="-0.148109">
        <ele>446.544</ele>
        <time>2020-08-23T13:08:39Z</time>
      </trkpt>
      <trkpt lat="42.023657" lon="-0.148155">
        <ele>446.524</ele>
        <time>2020-08-23T13:08:40Z</time>
      </trkpt>
      <trkpt lat="42.023696" lon="-0.148194">
        <ele>446.592</ele>
        <time>2020-08-23T13:08:41Z</time>
      </trkpt>
      <trkpt lat="42.023765" lon="-0.148264">
        <ele>446.654</ele>
        <time>2020-08-23T13:08:43Z</time>
      </trkpt>
      <trkpt lat="42.023826" lon="-0.148329">
        <ele>446.995</ele>
        <time>2020-08-23T13:08:45Z</time>
      </trkpt>
      <trkpt lat="42.023893" lon="-0.148403">
        <ele>447.046</ele>
        <time>2020-08-23T13:08:47Z</time>
      </trkpt>
      <trkpt lat="42.023955" lon="-0.148463">
        <ele>447.072</ele>
        <time>2020-08-23T13:08:49Z</time>
      </trkpt>
      <trkpt lat="42.024012" lon="-0.148509">
        <ele>447.041</ele>
        <time>2020-08-23T13:08:51Z</time>
      </trkpt>
      <trkpt lat="42.024055" lon="-0.148570">
        <ele>446.993</ele>
        <time>2020-08-23T13:08:53Z</time>
      </trkpt>
      <trkpt lat="42.024099" lon="-0.148623">
        <ele>446.665</ele>
        <time>2020-08-23T13:08:55Z</time>
      </trkpt>
      <trkpt lat="42.024150" lon="-0.148683">
        <ele>446.421</ele>
        <time>2020-08-23T13:08:57Z</time>
      </trkpt>
      <trkpt lat="42.024189" lon="-0.148724">
        <ele>446.408</ele>
        <time>2020-08-23T13:08:58Z</time>
      </trkpt>
      <trkpt lat="42.024229" lon="-0.148770">
        <ele>446.414</ele>
        <time>2020-08-23T13:08:59Z</time>
      </trkpt>
      <trkpt lat="42.024263" lon="-0.148810">
        <ele>446.464</ele>
        <time>2020-08-23T13:09:00Z</time>
      </trkpt>
      <trkpt lat="42.024320" lon="-0.148890">
        <ele>446.552</ele>
        <time>2020-08-23T13:09:02Z</time>
      </trkpt>
      <trkpt lat="42.024384" lon="-0.148975">
        <ele>446.674</ele>
        <time>2020-08-23T13:09:04Z</time>
      </trkpt>
      <trkpt lat="42.024449" lon="-0.149027">
        <ele>446.695</ele>
        <time>2020-08-23T13:09:06Z</time>
      </trkpt>
      <trkpt lat="42.024487" lon="-0.149061">
        <ele>446.676</ele>
        <time>2020-08-23T13:09:07Z</time>
      </trkpt>
      <trkpt lat="42.024541" lon="-0.149110">
        <ele>446.752</ele>
        <time>2020-08-23T13:09:09Z</time>
      </trkpt>
      <trkpt lat="42.024605" lon="-0.149166">
        <ele>446.871</ele>
        <time>2020-08-23T13:09:11Z</time>
      </trkpt>
      <trkpt lat="42.024669" lon="-0.149224">
        <ele>447.041</ele>
        <time>2020-08-23T13:09:13Z</time>
      </trkpt>
      <trkpt lat="42.024715" lon="-0.149272">
        <ele>447.281</ele>
        <time>2020-08-23T13:09:15Z</time>
      </trkpt>
      <trkpt lat="42.024754" lon="-0.149323">
        <ele>447.509</ele>
        <time>2020-08-23T13:09:17Z</time>
      </trkpt>
      <trkpt lat="42.024791" lon="-0.149383">
        <ele>447.808</ele>
        <time>2020-08-23T13:09:19Z</time>
      </trkpt>
      <trkpt lat="42.024845" lon="-0.149458">
        <ele>448.119</ele>
        <time>2020-08-23T13:09:21Z</time>
      </trkpt>
      <trkpt lat="42.024899" lon="-0.149510">
        <ele>448.469</ele>
        <time>2020-08-23T13:09:23Z</time>
      </trkpt>
      <trkpt lat="42.024936" lon="-0.149563">
        <ele>448.667</ele>
        <time>2020-08-23T13:09:25Z</time>
      </trkpt>
      <trkpt lat="42.024982" lon="-0.149627">
        <ele>448.719</ele>
        <time>2020-08-23T13:09:27Z</time>
      </trkpt>
      <trkpt lat="42.025026" lon="-0.149707">
        <ele>448.970</ele>
        <time>2020-08-23T13:09:29Z</time>
      </trkpt>
      <trkpt lat="42.025069" lon="-0.149797">
        <ele>449.151</ele>
        <time>2020-08-23T13:09:31Z</time>
      </trkpt>
      <trkpt lat="42.025113" lon="-0.149880">
        <ele>449.337</ele>
        <time>2020-08-23T13:09:33Z</time>
      </trkpt>
      <trkpt lat="42.025150" lon="-0.149975">
        <ele>449.596</ele>
        <time>2020-08-23T13:09:35Z</time>
      </trkpt>
      <trkpt lat="42.025187" lon="-0.150065">
        <ele>449.871</ele>
        <time>2020-08-23T13:09:37Z</time>
      </trkpt>
      <trkpt lat="42.025232" lon="-0.150164">
        <ele>450.041</ele>
        <time>2020-08-23T13:09:39Z</time>
      </trkpt>
      <trkpt lat="42.025271" lon="-0.150266">
        <ele>450.115</ele>
        <time>2020-08-23T13:09:41Z</time>
      </trkpt>
      <trkpt lat="42.025296" lon="-0.150323">
        <ele>450.108</ele>
        <time>2020-08-23T13:09:42Z</time>
      </trkpt>
      <trkpt lat="42.025324" lon="-0.150379">
        <ele>450.122</ele>
        <time>2020-08-23T13:09:43Z</time>
      </trkpt>
      <trkpt lat="42.025353" lon="-0.150433">
        <ele>450.132</ele>
        <time>2020-08-23T13:09:44Z</time>
      </trkpt>
      <trkpt lat="42.025379" lon="-0.150485">
        <ele>450.110</ele>
        <time>2020-08-23T13:09:45Z</time>
      </trkpt>
      <trkpt lat="42.025402" lon="-0.150542">
        <ele>450.152</ele>
        <time>2020-08-23T13:09:46Z</time>
      </trkpt>
      <trkpt lat="42.025424" lon="-0.150599">
        <ele>450.043</ele>
        <time>2020-08-23T13:09:47Z</time>
      </trkpt>
      <trkpt lat="42.025471" lon="-0.150698">
        <ele>449.894</ele>
        <time>2020-08-23T13:09:49Z</time>
      </trkpt>
      <trkpt lat="42.025498" lon="-0.150756">
        <ele>449.780</ele>
        <time>2020-08-23T13:09:50Z</time>
      </trkpt>
      <trkpt lat="42.025532" lon="-0.150820">
        <ele>449.639</ele>
        <time>2020-08-23T13:09:51Z</time>
      </trkpt>
      <trkpt lat="42.025560" lon="-0.150880">
        <ele>449.653</ele>
        <time>2020-08-23T13:09:52Z</time>
      </trkpt>
      <trkpt lat="42.025589" lon="-0.150941">
        <ele>449.604</ele>
        <time>2020-08-23T13:09:53Z</time>
      </trkpt>
      <trkpt lat="42.025611" lon="-0.150997">
        <ele>449.614</ele>
        <time>2020-08-23T13:09:54Z</time>
      </trkpt>
      <trkpt lat="42.025665" lon="-0.151094">
        <ele>449.608</ele>
        <time>2020-08-23T13:09:56Z</time>
      </trkpt>
      <trkpt lat="42.025700" lon="-0.151187">
        <ele>449.670</ele>
        <time>2020-08-23T13:09:58Z</time>
      </trkpt>
      <trkpt lat="42.025729" lon="-0.151290">
        <ele>449.620</ele>
        <time>2020-08-23T13:10:00Z</time>
      </trkpt>
      <trkpt lat="42.025744" lon="-0.151351">
        <ele>449.528</ele>
        <time>2020-08-23T13:10:01Z</time>
      </trkpt>
      <trkpt lat="42.025771" lon="-0.151451">
        <ele>449.440</ele>
        <time>2020-08-23T13:10:03Z</time>
      </trkpt>
      <trkpt lat="42.025792" lon="-0.151509">
        <ele>449.411</ele>
        <time>2020-08-23T13:10:04Z</time>
      </trkpt>
      <trkpt lat="42.025816" lon="-0.151570">
        <ele>449.452</ele>
        <time>2020-08-23T13:10:05Z</time>
      </trkpt>
      <trkpt lat="42.025841" lon="-0.151631">
        <ele>449.498</ele>
        <time>2020-08-23T13:10:06Z</time>
      </trkpt>
      <trkpt lat="42.025866" lon="-0.151688">
        <ele>449.347</ele>
        <time>2020-08-23T13:10:07Z</time>
      </trkpt>
      <trkpt lat="42.025891" lon="-0.151757">
        <ele>449.374</ele>
        <time>2020-08-23T13:10:08Z</time>
      </trkpt>
      <trkpt lat="42.025914" lon="-0.151817">
        <ele>449.256</ele>
        <time>2020-08-23T13:10:09Z</time>
      </trkpt>
      <trkpt lat="42.025945" lon="-0.151876">
        <ele>449.121</ele>
        <time>2020-08-23T13:10:10Z</time>
      </trkpt>
      <trkpt lat="42.025980" lon="-0.151925">
        <ele>449.008</ele>
        <time>2020-08-23T13:10:11Z</time>
      </trkpt>
      <trkpt lat="42.026053" lon="-0.152003">
        <ele>448.832</ele>
        <time>2020-08-23T13:10:13Z</time>
      </trkpt>
      <trkpt lat="42.026100" lon="-0.152022">
        <ele>448.892</ele>
        <time>2020-08-23T13:10:14Z</time>
      </trkpt>
      <trkpt lat="42.026155" lon="-0.152044">
        <ele>448.840</ele>
        <time>2020-08-23T13:10:15Z</time>
      </trkpt>
      <trkpt lat="42.026208" lon="-0.152066">
        <ele>448.812</ele>
        <time>2020-08-23T13:10:16Z</time>
      </trkpt>
      <trkpt lat="42.026264" lon="-0.152083">
        <ele>448.813</ele>
        <time>2020-08-23T13:10:17Z</time>
      </trkpt>
      <trkpt lat="42.026315" lon="-0.152094">
        <ele>448.884</ele>
        <time>2020-08-23T13:10:18Z</time>
      </trkpt>
      <trkpt lat="42.026370" lon="-0.152097">
        <ele>448.710</ele>
        <time>2020-08-23T13:10:19Z</time>
      </trkpt>
      <trkpt lat="42.026432" lon="-0.152107">
        <ele>448.649</ele>
        <time>2020-08-23T13:10:20Z</time>
      </trkpt>
      <trkpt lat="42.026493" lon="-0.152120">
        <ele>448.445</ele>
        <time>2020-08-23T13:10:21Z</time>
      </trkpt>
      <trkpt lat="42.026553" lon="-0.152135">
        <ele>448.347</ele>
        <time>2020-08-23T13:10:22Z</time>
      </trkpt>
      <trkpt lat="42.026614" lon="-0.152154">
        <ele>448.211</ele>
        <time>2020-08-23T13:10:23Z</time>
      </trkpt>
      <trkpt lat="42.026682" lon="-0.152172">
        <ele>448.108</ele>
        <time>2020-08-23T13:10:24Z</time>
      </trkpt>
      <trkpt lat="42.026742" lon="-0.152188">
        <ele>448.149</ele>
        <time>2020-08-23T13:10:25Z</time>
      </trkpt>
      <trkpt lat="42.026800" lon="-0.152205">
        <ele>448.069</ele>
        <time>2020-08-23T13:10:26Z</time>
      </trkpt>
      <trkpt lat="42.026853" lon="-0.152221">
        <ele>447.917</ele>
        <time>2020-08-23T13:10:27Z</time>
      </trkpt>
      <trkpt lat="42.026908" lon="-0.152233">
        <ele>447.849</ele>
        <time>2020-08-23T13:10:28Z</time>
      </trkpt>
      <trkpt lat="42.027002" lon="-0.152252">
        <ele>447.780</ele>
        <time>2020-08-23T13:10:30Z</time>
      </trkpt>
      <trkpt lat="42.027057" lon="-0.152259">
        <ele>447.691</ele>
        <time>2020-08-23T13:10:31Z</time>
      </trkpt>
      <trkpt lat="42.027108" lon="-0.152263">
        <ele>447.617</ele>
        <time>2020-08-23T13:10:32Z</time>
      </trkpt>
      <trkpt lat="42.027161" lon="-0.152274">
        <ele>447.566</ele>
        <time>2020-08-23T13:10:33Z</time>
      </trkpt>
      <trkpt lat="42.027214" lon="-0.152294">
        <ele>447.455</ele>
        <time>2020-08-23T13:10:34Z</time>
      </trkpt>
      <trkpt lat="42.027265" lon="-0.152319">
        <ele>447.307</ele>
        <time>2020-08-23T13:10:35Z</time>
      </trkpt>
      <trkpt lat="42.027315" lon="-0.152365">
        <ele>447.217</ele>
        <time>2020-08-23T13:10:36Z</time>
      </trkpt>
      <trkpt lat="42.027362" lon="-0.152416">
        <ele>447.008</ele>
        <time>2020-08-23T13:10:37Z</time>
      </trkpt>
      <trkpt lat="42.027406" lon="-0.152468">
        <ele>446.940</ele>
        <time>2020-08-23T13:10:38Z</time>
      </trkpt>
      <trkpt lat="42.027462" lon="-0.152533">
        <ele>446.750</ele>
        <time>2020-08-23T13:10:39Z</time>
      </trkpt>
      <trkpt lat="42.027506" lon="-0.152595">
        <ele>446.568</ele>
        <time>2020-08-23T13:10:40Z</time>
      </trkpt>
      <trkpt lat="42.027540" lon="-0.152652">
        <ele>446.240</ele>
        <time>2020-08-23T13:10:41Z</time>
      </trkpt>
      <trkpt lat="42.027580" lon="-0.152723">
        <ele>446.041</ele>
        <time>2020-08-23T13:10:42Z</time>
      </trkpt>
      <trkpt lat="42.027617" lon="-0.152790">
        <ele>445.722</ele>
        <time>2020-08-23T13:10:43Z</time>
      </trkpt>
      <trkpt lat="42.027649" lon="-0.152861">
        <ele>445.558</ele>
        <time>2020-08-23T13:10:44Z</time>
      </trkpt>
      <trkpt lat="42.027679" lon="-0.152927">
        <ele>445.387</ele>
        <time>2020-08-23T13:10:45Z</time>
      </trkpt>
      <trkpt lat="42.027711" lon="-0.152995">
        <ele>445.184</ele>
        <time>2020-08-23T13:10:46Z</time>
      </trkpt>
      <trkpt lat="42.027752" lon="-0.153056">
        <ele>444.907</ele>
        <time>2020-08-23T13:10:47Z</time>
      </trkpt>
      <trkpt lat="42.027818" lon="-0.153121">
        <ele>444.717</ele>
        <time>2020-08-23T13:10:48Z</time>
      </trkpt>
      <trkpt lat="42.027867" lon="-0.153182">
        <ele>444.408</ele>
        <time>2020-08-23T13:10:49Z</time>
      </trkpt>
      <trkpt lat="42.027920" lon="-0.153215">
        <ele>444.163</ele>
        <time>2020-08-23T13:10:50Z</time>
      </trkpt>
      <trkpt lat="42.027972" lon="-0.153240">
        <ele>443.863</ele>
        <time>2020-08-23T13:10:51Z</time>
      </trkpt>
      <trkpt lat="42.028039" lon="-0.153273">
        <ele>443.521</ele>
        <time>2020-08-23T13:10:52Z</time>
      </trkpt>
      <trkpt lat="42.028102" lon="-0.153299">
        <ele>443.253</ele>
        <time>2020-08-23T13:10:53Z</time>
      </trkpt>
      <trkpt lat="42.028163" lon="-0.153317">
        <ele>443.134</ele>
        <time>2020-08-23T13:10:54Z</time>
      </trkpt>
      <trkpt lat="42.028224" lon="-0.153340">
        <ele>443.045</ele>
        <time>2020-08-23T13:10:55Z</time>
      </trkpt>
      <trkpt lat="42.028292" lon="-0.153368">
        <ele>443.091</ele>
        <time>2020-08-23T13:10:56Z</time>
      </trkpt>
      <trkpt lat="42.028351" lon="-0.153400">
        <ele>443.010</ele>
        <time>2020-08-23T13:10:57Z</time>
      </trkpt>
      <trkpt lat="42.028408" lon="-0.153425">
        <ele>443.182</ele>
        <time>2020-08-23T13:10:58Z</time>
      </trkpt>
      <trkpt lat="42.028457" lon="-0.153443">
        <ele>443.143</ele>
        <time>2020-08-23T13:10:59Z</time>
      </trkpt>
      <trkpt lat="42.028504" lon="-0.153455">
        <ele>443.117</ele>
        <time>2020-08-23T13:11:00Z</time>
      </trkpt>
      <trkpt lat="42.028558" lon="-0.153469">
        <ele>443.108</ele>
        <time>2020-08-23T13:11:01Z</time>
      </trkpt>
      <trkpt lat="42.028627" lon="-0.153497">
        <ele>443.173</ele>
        <time>2020-08-23T13:11:03Z</time>
      </trkpt>
      <trkpt lat="42.028698" lon="-0.153496">
        <ele>443.383</ele>
        <time>2020-08-23T13:11:05Z</time>
      </trkpt>
      <trkpt lat="42.028781" lon="-0.153466">
        <ele>443.711</ele>
        <time>2020-08-23T13:11:07Z</time>
      </trkpt>
      <trkpt lat="42.028835" lon="-0.153445">
        <ele>443.883</ele>
        <time>2020-08-23T13:11:08Z</time>
      </trkpt>
      <trkpt lat="42.028881" lon="-0.153430">
        <ele>444.024</ele>
        <time>2020-08-23T13:11:09Z</time>
      </trkpt>
      <trkpt lat="42.028926" lon="-0.153415">
        <ele>444.295</ele>
        <time>2020-08-23T13:11:10Z</time>
      </trkpt>
      <trkpt lat="42.028970" lon="-0.153402">
        <ele>444.391</ele>
        <time>2020-08-23T13:11:11Z</time>
      </trkpt>
      <trkpt lat="42.029056" lon="-0.153367">
        <ele>444.730</ele>
        <time>2020-08-23T13:11:13Z</time>
      </trkpt>
      <trkpt lat="42.029131" lon="-0.153359">
        <ele>445.194</ele>
        <time>2020-08-23T13:11:15Z</time>
      </trkpt>
      <trkpt lat="42.029180" lon="-0.153337">
        <ele>445.457</ele>
        <time>2020-08-23T13:11:17Z</time>
      </trkpt>
      <trkpt lat="42.029235" lon="-0.153310">
        <ele>445.722</ele>
        <time>2020-08-23T13:11:19Z</time>
      </trkpt>
      <trkpt lat="42.029309" lon="-0.153274">
        <ele>445.908</ele>
        <time>2020-08-23T13:11:21Z</time>
      </trkpt>
      <trkpt lat="42.029380" lon="-0.153248">
        <ele>446.084</ele>
        <time>2020-08-23T13:11:23Z</time>
      </trkpt>
      <trkpt lat="42.029453" lon="-0.153226">
        <ele>446.144</ele>
        <time>2020-08-23T13:11:25Z</time>
      </trkpt>
      <trkpt lat="42.029514" lon="-0.153202">
        <ele>446.232</ele>
        <time>2020-08-23T13:11:27Z</time>
      </trkpt>
      <trkpt lat="42.029568" lon="-0.153187">
        <ele>446.464</ele>
        <time>2020-08-23T13:11:29Z</time>
      </trkpt>
      <trkpt lat="42.029629" lon="-0.153161">
        <ele>446.765</ele>
        <time>2020-08-23T13:11:31Z</time>
      </trkpt>
      <trkpt lat="42.029679" lon="-0.153142">
        <ele>447.146</ele>
        <time>2020-08-23T13:11:33Z</time>
      </trkpt>
      <trkpt lat="42.029740" lon="-0.153121">
        <ele>447.542</ele>
        <time>2020-08-23T13:11:35Z</time>
      </trkpt>
      <trkpt lat="42.029792" lon="-0.153103">
        <ele>447.881</ele>
        <time>2020-08-23T13:11:37Z</time>
      </trkpt>
      <trkpt lat="42.029860" lon="-0.153117">
        <ele>448.168</ele>
        <time>2020-08-23T13:11:39Z</time>
      </trkpt>
      <trkpt lat="42.029926" lon="-0.153128">
        <ele>448.442</ele>
        <time>2020-08-23T13:11:41Z</time>
      </trkpt>
      <trkpt lat="42.029998" lon="-0.153148">
        <ele>448.726</ele>
        <time>2020-08-23T13:11:43Z</time>
      </trkpt>
      <trkpt lat="42.030064" lon="-0.153175">
        <ele>448.908</ele>
        <time>2020-08-23T13:11:45Z</time>
      </trkpt>
      <trkpt lat="42.030107" lon="-0.153209">
        <ele>449.231</ele>
        <time>2020-08-23T13:11:47Z</time>
      </trkpt>
      <trkpt lat="42.030172" lon="-0.153269">
        <ele>449.591</ele>
        <time>2020-08-23T13:11:49Z</time>
      </trkpt>
      <trkpt lat="42.030210" lon="-0.153336">
        <ele>449.779</ele>
        <time>2020-08-23T13:11:51Z</time>
      </trkpt>
      <trkpt lat="42.030235" lon="-0.153398">
        <ele>449.751</ele>
        <time>2020-08-23T13:11:53Z</time>
      </trkpt>
      <trkpt lat="42.030270" lon="-0.153477">
        <ele>449.712</ele>
        <time>2020-08-23T13:11:55Z</time>
      </trkpt>
      <trkpt lat="42.030318" lon="-0.153556">
        <ele>449.753</ele>
        <time>2020-08-23T13:11:57Z</time>
      </trkpt>
      <trkpt lat="42.030366" lon="-0.153639">
        <ele>449.889</ele>
        <time>2020-08-23T13:11:59Z</time>
      </trkpt>
      <trkpt lat="42.030407" lon="-0.153722">
        <ele>449.948</ele>
        <time>2020-08-23T13:12:01Z</time>
      </trkpt>
      <trkpt lat="42.030463" lon="-0.153797">
        <ele>450.074</ele>
        <time>2020-08-23T13:12:03Z</time>
      </trkpt>
      <trkpt lat="42.030492" lon="-0.153854">
        <ele>450.156</ele>
        <time>2020-08-23T13:12:04Z</time>
      </trkpt>
      <trkpt lat="42.030534" lon="-0.153948">
        <ele>450.321</ele>
        <time>2020-08-23T13:12:06Z</time>
      </trkpt>
      <trkpt lat="42.030585" lon="-0.154031">
        <ele>450.408</ele>
        <time>2020-08-23T13:12:08Z</time>
      </trkpt>
      <trkpt lat="42.030616" lon="-0.154085">
        <ele>450.412</ele>
        <time>2020-08-23T13:12:09Z</time>
      </trkpt>
      <trkpt lat="42.030663" lon="-0.154149">
        <ele>450.592</ele>
        <time>2020-08-23T13:12:11Z</time>
      </trkpt>
      <trkpt lat="42.030696" lon="-0.154220">
        <ele>450.630</ele>
        <time>2020-08-23T13:12:13Z</time>
      </trkpt>
      <trkpt lat="42.030709" lon="-0.154302">
        <ele>450.872</ele>
        <time>2020-08-23T13:12:15Z</time>
      </trkpt>
      <trkpt lat="42.030734" lon="-0.154406">
        <ele>450.963</ele>
        <time>2020-08-23T13:12:17Z</time>
      </trkpt>
      <trkpt lat="42.030748" lon="-0.154515">
        <ele>450.984</ele>
        <time>2020-08-23T13:12:19Z</time>
      </trkpt>
      <trkpt lat="42.030764" lon="-0.154624">
        <ele>450.990</ele>
        <time>2020-08-23T13:12:21Z</time>
      </trkpt>
      <trkpt lat="42.030777" lon="-0.154732">
        <ele>450.979</ele>
        <time>2020-08-23T13:12:23Z</time>
      </trkpt>
      <trkpt lat="42.030785" lon="-0.154841">
        <ele>450.968</ele>
        <time>2020-08-23T13:12:25Z</time>
      </trkpt>
      <trkpt lat="42.030785" lon="-0.154953">
        <ele>450.842</ele>
        <time>2020-08-23T13:12:27Z</time>
      </trkpt>
      <trkpt lat="42.030790" lon="-0.155019">
        <ele>450.826</ele>
        <time>2020-08-23T13:12:28Z</time>
      </trkpt>
      <trkpt lat="42.030802" lon="-0.155146">
        <ele>450.808</ele>
        <time>2020-08-23T13:12:30Z</time>
      </trkpt>
      <trkpt lat="42.030799" lon="-0.155213">
        <ele>450.811</ele>
        <time>2020-08-23T13:12:31Z</time>
      </trkpt>
      <trkpt lat="42.030801" lon="-0.155318">
        <ele>451.091</ele>
        <time>2020-08-23T13:12:33Z</time>
      </trkpt>
      <trkpt lat="42.030815" lon="-0.155423">
        <ele>451.219</ele>
        <time>2020-08-23T13:12:35Z</time>
      </trkpt>
      <trkpt lat="42.030844" lon="-0.155510">
        <ele>451.331</ele>
        <time>2020-08-23T13:12:37Z</time>
      </trkpt>
      <trkpt lat="42.030878" lon="-0.155629">
        <ele>451.332</ele>
        <time>2020-08-23T13:12:39Z</time>
      </trkpt>
      <trkpt lat="42.030900" lon="-0.155685">
        <ele>451.323</ele>
        <time>2020-08-23T13:12:40Z</time>
      </trkpt>
      <trkpt lat="42.030931" lon="-0.155742">
        <ele>451.389</ele>
        <time>2020-08-23T13:12:41Z</time>
      </trkpt>
      <trkpt lat="42.030962" lon="-0.155796">
        <ele>451.318</ele>
        <time>2020-08-23T13:12:42Z</time>
      </trkpt>
      <trkpt lat="42.031001" lon="-0.155850">
        <ele>451.381</ele>
        <time>2020-08-23T13:12:43Z</time>
      </trkpt>
      <trkpt lat="42.031034" lon="-0.155894">
        <ele>451.361</ele>
        <time>2020-08-23T13:12:44Z</time>
      </trkpt>
      <trkpt lat="42.031093" lon="-0.155955">
        <ele>451.317</ele>
        <time>2020-08-23T13:12:46Z</time>
      </trkpt>
      <trkpt lat="42.031158" lon="-0.156016">
        <ele>451.408</ele>
        <time>2020-08-23T13:12:48Z</time>
      </trkpt>
      <trkpt lat="42.031217" lon="-0.156098">
        <ele>451.443</ele>
        <time>2020-08-23T13:12:50Z</time>
      </trkpt>
      <trkpt lat="42.031258" lon="-0.156179">
        <ele>451.423</ele>
        <time>2020-08-23T13:12:52Z</time>
      </trkpt>
      <trkpt lat="42.031303" lon="-0.156270">
        <ele>451.371</ele>
        <time>2020-08-23T13:12:54Z</time>
      </trkpt>
      <trkpt lat="42.031343" lon="-0.156325">
        <ele>451.363</ele>
        <time>2020-08-23T13:12:55Z</time>
      </trkpt>
      <trkpt lat="42.031400" lon="-0.156402">
        <ele>451.354</ele>
        <time>2020-08-23T13:12:57Z</time>
      </trkpt>
      <trkpt lat="42.031434" lon="-0.156452">
        <ele>451.335</ele>
        <time>2020-08-23T13:12:58Z</time>
      </trkpt>
      <trkpt lat="42.031467" lon="-0.156494">
        <ele>451.331</ele>
        <time>2020-08-23T13:12:59Z</time>
      </trkpt>
      <trkpt lat="42.031522" lon="-0.156567">
        <ele>451.470</ele>
        <time>2020-08-23T13:13:01Z</time>
      </trkpt>
      <trkpt lat="42.031576" lon="-0.156652">
        <ele>451.684</ele>
        <time>2020-08-23T13:13:03Z</time>
      </trkpt>
      <trkpt lat="42.031626" lon="-0.156738">
        <ele>451.707</ele>
        <time>2020-08-23T13:13:05Z</time>
      </trkpt>
      <trkpt lat="42.031674" lon="-0.156814">
        <ele>451.717</ele>
        <time>2020-08-23T13:13:07Z</time>
      </trkpt>
      <trkpt lat="42.031734" lon="-0.156908">
        <ele>451.608</ele>
        <time>2020-08-23T13:13:09Z</time>
      </trkpt>
      <trkpt lat="42.031758" lon="-0.156959">
        <ele>451.583</ele>
        <time>2020-08-23T13:13:10Z</time>
      </trkpt>
      <trkpt lat="42.031791" lon="-0.157042">
        <ele>451.583</ele>
        <time>2020-08-23T13:13:12Z</time>
      </trkpt>
      <trkpt lat="42.031816" lon="-0.157134">
        <ele>451.651</ele>
        <time>2020-08-23T13:13:14Z</time>
      </trkpt>
      <trkpt lat="42.031857" lon="-0.157238">
        <ele>451.783</ele>
        <time>2020-08-23T13:13:16Z</time>
      </trkpt>
      <trkpt lat="42.031887" lon="-0.157349">
        <ele>451.774</ele>
        <time>2020-08-23T13:13:18Z</time>
      </trkpt>
      <trkpt lat="42.031929" lon="-0.157438">
        <ele>451.845</ele>
        <time>2020-08-23T13:13:20Z</time>
      </trkpt>
      <trkpt lat="42.031977" lon="-0.157519">
        <ele>451.941</ele>
        <time>2020-08-23T13:13:22Z</time>
      </trkpt>
      <trkpt lat="42.032015" lon="-0.157601">
        <ele>451.910</ele>
        <time>2020-08-23T13:13:24Z</time>
      </trkpt>
      <trkpt lat="42.032057" lon="-0.157683">
        <ele>452.071</ele>
        <time>2020-08-23T13:13:26Z</time>
      </trkpt>
      <trkpt lat="42.032089" lon="-0.157774">
        <ele>452.141</ele>
        <time>2020-08-23T13:13:28Z</time>
      </trkpt>
      <trkpt lat="42.032099" lon="-0.157874">
        <ele>452.315</ele>
        <time>2020-08-23T13:13:30Z</time>
      </trkpt>
      <trkpt lat="42.032080" lon="-0.157979">
        <ele>452.508</ele>
        <time>2020-08-23T13:13:32Z</time>
      </trkpt>
      <trkpt lat="42.032034" lon="-0.158073">
        <ele>452.692</ele>
        <time>2020-08-23T13:13:34Z</time>
      </trkpt>
      <trkpt lat="42.032014" lon="-0.158130">
        <ele>452.612</ele>
        <time>2020-08-23T13:13:35Z</time>
      </trkpt>
      <trkpt lat="42.031949" lon="-0.158219">
        <ele>452.680</ele>
        <time>2020-08-23T13:13:37Z</time>
      </trkpt>
      <trkpt lat="42.031915" lon="-0.158263">
        <ele>452.682</ele>
        <time>2020-08-23T13:13:38Z</time>
      </trkpt>
      <trkpt lat="42.031882" lon="-0.158311">
        <ele>452.613</ele>
        <time>2020-08-23T13:13:39Z</time>
      </trkpt>
      <trkpt lat="42.031858" lon="-0.158363">
        <ele>452.674</ele>
        <time>2020-08-23T13:13:40Z</time>
      </trkpt>
      <trkpt lat="42.031808" lon="-0.158471">
        <ele>452.430</ele>
        <time>2020-08-23T13:13:42Z</time>
      </trkpt>
      <trkpt lat="42.031791" lon="-0.158535">
        <ele>452.319</ele>
        <time>2020-08-23T13:13:43Z</time>
      </trkpt>
      <trkpt lat="42.031782" lon="-0.158605">
        <ele>452.232</ele>
        <time>2020-08-23T13:13:44Z</time>
      </trkpt>
      <trkpt lat="42.031786" lon="-0.158672">
        <ele>452.192</ele>
        <time>2020-08-23T13:13:45Z</time>
      </trkpt>
      <trkpt lat="42.031791" lon="-0.158741">
        <ele>452.011</ele>
        <time>2020-08-23T13:13:46Z</time>
      </trkpt>
      <trkpt lat="42.031812" lon="-0.158856">
        <ele>452.008</ele>
        <time>2020-08-23T13:13:48Z</time>
      </trkpt>
      <trkpt lat="42.031825" lon="-0.158914">
        <ele>452.148</ele>
        <time>2020-08-23T13:13:49Z</time>
      </trkpt>
      <trkpt lat="42.031866" lon="-0.159019">
        <ele>452.348</ele>
        <time>2020-08-23T13:13:51Z</time>
      </trkpt>
      <trkpt lat="42.031901" lon="-0.159128">
        <ele>452.556</ele>
        <time>2020-08-23T13:13:53Z</time>
      </trkpt>
      <trkpt lat="42.031922" lon="-0.159220">
        <ele>452.758</ele>
        <time>2020-08-23T13:13:55Z</time>
      </trkpt>
      <trkpt lat="42.031949" lon="-0.159318">
        <ele>452.899</ele>
        <time>2020-08-23T13:13:57Z</time>
      </trkpt>
      <trkpt lat="42.031979" lon="-0.159424">
        <ele>452.950</ele>
        <time>2020-08-23T13:13:59Z</time>
      </trkpt>
      <trkpt lat="42.032009" lon="-0.159526">
        <ele>453.096</ele>
        <time>2020-08-23T13:14:01Z</time>
      </trkpt>
      <trkpt lat="42.032030" lon="-0.159584">
        <ele>453.025</ele>
        <time>2020-08-23T13:14:02Z</time>
      </trkpt>
      <trkpt lat="42.032059" lon="-0.159683">
        <ele>453.058</ele>
        <time>2020-08-23T13:14:04Z</time>
      </trkpt>
      <trkpt lat="42.032075" lon="-0.159740">
        <ele>453.052</ele>
        <time>2020-08-23T13:14:05Z</time>
      </trkpt>
      <trkpt lat="42.032102" lon="-0.159837">
        <ele>453.117</ele>
        <time>2020-08-23T13:14:07Z</time>
      </trkpt>
      <trkpt lat="42.032137" lon="-0.159930">
        <ele>453.108</ele>
        <time>2020-08-23T13:14:09Z</time>
      </trkpt>
      <trkpt lat="42.032164" lon="-0.160034">
        <ele>453.140</ele>
        <time>2020-08-23T13:14:11Z</time>
      </trkpt>
      <trkpt lat="42.032199" lon="-0.160131">
        <ele>453.110</ele>
        <time>2020-08-23T13:14:13Z</time>
      </trkpt>
      <trkpt lat="42.032229" lon="-0.160212">
        <ele>453.278</ele>
        <time>2020-08-23T13:14:15Z</time>
      </trkpt>
      <trkpt lat="42.032283" lon="-0.160298">
        <ele>453.410</ele>
        <time>2020-08-23T13:14:17Z</time>
      </trkpt>
      <trkpt lat="42.032307" lon="-0.160389">
        <ele>453.561</ele>
        <time>2020-08-23T13:14:19Z</time>
      </trkpt>
      <trkpt lat="42.032337" lon="-0.160492">
        <ele>453.492</ele>
        <time>2020-08-23T13:14:21Z</time>
      </trkpt>
      <trkpt lat="42.032359" lon="-0.160577">
        <ele>453.478</ele>
        <time>2020-08-23T13:14:23Z</time>
      </trkpt>
      <trkpt lat="42.032390" lon="-0.160645">
        <ele>453.457</ele>
        <time>2020-08-23T13:14:25Z</time>
      </trkpt>
      <trkpt lat="42.032403" lon="-0.160722">
        <ele>453.455</ele>
        <time>2020-08-23T13:14:27Z</time>
      </trkpt>
      <trkpt lat="42.032429" lon="-0.160811">
        <ele>453.407</ele>
        <time>2020-08-23T13:14:29Z</time>
      </trkpt>
      <trkpt lat="42.032467" lon="-0.160900">
        <ele>453.417</ele>
        <time>2020-08-23T13:14:31Z</time>
      </trkpt>
      <trkpt lat="42.032494" lon="-0.160985">
        <ele>453.508</ele>
        <time>2020-08-23T13:14:33Z</time>
      </trkpt>
      <trkpt lat="42.032522" lon="-0.161066">
        <ele>453.610</ele>
        <time>2020-08-23T13:14:35Z</time>
      </trkpt>
      <trkpt lat="42.032555" lon="-0.161157">
        <ele>453.710</ele>
        <time>2020-08-23T13:14:37Z</time>
      </trkpt>
      <trkpt lat="42.032585" lon="-0.161246">
        <ele>453.918</ele>
        <time>2020-08-23T13:14:39Z</time>
      </trkpt>
      <trkpt lat="42.032608" lon="-0.161337">
        <ele>454.230</ele>
        <time>2020-08-23T13:14:41Z</time>
      </trkpt>
      <trkpt lat="42.032631" lon="-0.161404">
        <ele>454.341</ele>
        <time>2020-08-23T13:14:43Z</time>
      </trkpt>
      <trkpt lat="42.032663" lon="-0.161484">
        <ele>454.442</ele>
        <time>2020-08-23T13:14:45Z</time>
      </trkpt>
      <trkpt lat="42.032712" lon="-0.161549">
        <ele>454.528</ele>
        <time>2020-08-23T13:14:47Z</time>
      </trkpt>
      <trkpt lat="42.032760" lon="-0.161607">
        <ele>454.697</ele>
        <time>2020-08-23T13:14:49Z</time>
      </trkpt>
      <trkpt lat="42.032812" lon="-0.161663">
        <ele>454.774</ele>
        <time>2020-08-23T13:14:51Z</time>
      </trkpt>
      <trkpt lat="42.032861" lon="-0.161725">
        <ele>455.056</ele>
        <time>2020-08-23T13:14:53Z</time>
      </trkpt>
      <trkpt lat="42.032918" lon="-0.161783">
        <ele>455.221</ele>
        <time>2020-08-23T13:14:55Z</time>
      </trkpt>
      <trkpt lat="42.032971" lon="-0.161834">
        <ele>455.408</ele>
        <time>2020-08-23T13:14:57Z</time>
      </trkpt>
      <trkpt lat="42.033014" lon="-0.161877">
        <ele>455.652</ele>
        <time>2020-08-23T13:14:59Z</time>
      </trkpt>
      <trkpt lat="42.033060" lon="-0.161925">
        <ele>455.772</ele>
        <time>2020-08-23T13:15:01Z</time>
      </trkpt>
      <trkpt lat="42.033109" lon="-0.161973">
        <ele>455.860</ele>
        <time>2020-08-23T13:15:03Z</time>
      </trkpt>
      <trkpt lat="42.033154" lon="-0.162018">
        <ele>455.942</ele>
        <time>2020-08-23T13:15:05Z</time>
      </trkpt>
      <trkpt lat="42.033197" lon="-0.162075">
        <ele>456.143</ele>
        <time>2020-08-23T13:15:07Z</time>
      </trkpt>
      <trkpt lat="42.033242" lon="-0.162123">
        <ele>456.334</ele>
        <time>2020-08-23T13:15:09Z</time>
      </trkpt>
      <trkpt lat="42.033287" lon="-0.162170">
        <ele>456.550</ele>
        <time>2020-08-23T13:15:11Z</time>
      </trkpt>
      <trkpt lat="42.033340" lon="-0.162217">
        <ele>456.669</ele>
        <time>2020-08-23T13:15:13Z</time>
      </trkpt>
      <trkpt lat="42.033381" lon="-0.162275">
        <ele>456.774</ele>
        <time>2020-08-23T13:15:15Z</time>
      </trkpt>
      <trkpt lat="42.033419" lon="-0.162326">
        <ele>456.856</ele>
        <time>2020-08-23T13:15:17Z</time>
      </trkpt>
      <trkpt lat="42.033470" lon="-0.162383">
        <ele>457.121</ele>
        <time>2020-08-23T13:15:20Z</time>
      </trkpt>
      <trkpt lat="42.033506" lon="-0.162421">
        <ele>457.408</ele>
        <time>2020-08-23T13:15:22Z</time>
      </trkpt>
      <trkpt lat="42.033539" lon="-0.162469">
        <ele>457.742</ele>
        <time>2020-08-23T13:15:24Z</time>
      </trkpt>
      <trkpt lat="42.033578" lon="-0.162516">
        <ele>458.192</ele>
        <time>2020-08-23T13:15:26Z</time>
      </trkpt>
      <trkpt lat="42.033623" lon="-0.162563">
        <ele>458.560</ele>
        <time>2020-08-23T13:15:28Z</time>
      </trkpt>
      <trkpt lat="42.033671" lon="-0.162610">
        <ele>458.882</ele>
        <time>2020-08-23T13:15:31Z</time>
      </trkpt>
      <trkpt lat="42.033716" lon="-0.162666">
        <ele>459.173</ele>
        <time>2020-08-23T13:15:34Z</time>
      </trkpt>
      <trkpt lat="42.033758" lon="-0.162697">
        <ele>459.384</ele>
        <time>2020-08-23T13:15:36Z</time>
      </trkpt>
      <trkpt lat="42.033805" lon="-0.162743">
        <ele>459.580</ele>
        <time>2020-08-23T13:15:38Z</time>
      </trkpt>
      <trkpt lat="42.033851" lon="-0.162788">
        <ele>459.959</ele>
        <time>2020-08-23T13:15:41Z</time>
      </trkpt>
      <trkpt lat="42.033897" lon="-0.162835">
        <ele>460.349</ele>
        <time>2020-08-23T13:15:44Z</time>
      </trkpt>
      <trkpt lat="42.033947" lon="-0.162848">
        <ele>460.602</ele>
        <time>2020-08-23T13:15:47Z</time>
      </trkpt>
      <trkpt lat="42.033994" lon="-0.162874">
        <ele>460.822</ele>
        <time>2020-08-23T13:15:49Z</time>
      </trkpt>
      <trkpt lat="42.034038" lon="-0.162897">
        <ele>461.108</ele>
        <time>2020-08-23T13:15:51Z</time>
      </trkpt>
      <trkpt lat="42.034085" lon="-0.162904">
        <ele>461.439</ele>
        <time>2020-08-23T13:15:53Z</time>
      </trkpt>
      <trkpt lat="42.034132" lon="-0.162904">
        <ele>461.749</ele>
        <time>2020-08-23T13:15:55Z</time>
      </trkpt>
      <trkpt lat="42.034193" lon="-0.162906">
        <ele>462.177</ele>
        <time>2020-08-23T13:15:58Z</time>
      </trkpt>
      <trkpt lat="42.034245" lon="-0.162884">
        <ele>462.699</ele>
        <time>2020-08-23T13:16:01Z</time>
      </trkpt>
      <trkpt lat="42.034283" lon="-0.162848">
        <ele>462.990</ele>
        <time>2020-08-23T13:16:03Z</time>
      </trkpt>
      <trkpt lat="42.034334" lon="-0.162797">
        <ele>463.491</ele>
        <time>2020-08-23T13:16:06Z</time>
      </trkpt>
      <trkpt lat="42.034385" lon="-0.162760">
        <ele>463.867</ele>
        <time>2020-08-23T13:16:09Z</time>
      </trkpt>
      <trkpt lat="42.034423" lon="-0.162725">
        <ele>464.036</ele>
        <time>2020-08-23T13:16:11Z</time>
      </trkpt>
      <trkpt lat="42.034470" lon="-0.162682">
        <ele>464.391</ele>
        <time>2020-08-23T13:16:13Z</time>
      </trkpt>
      <trkpt lat="42.034512" lon="-0.162639">
        <ele>464.781</ele>
        <time>2020-08-23T13:16:15Z</time>
      </trkpt>
      <trkpt lat="42.034560" lon="-0.162607">
        <ele>465.019</ele>
        <time>2020-08-23T13:16:17Z</time>
      </trkpt>
      <trkpt lat="42.034615" lon="-0.162571">
        <ele>465.108</ele>
        <time>2020-08-23T13:16:19Z</time>
      </trkpt>
      <trkpt lat="42.034660" lon="-0.162553">
        <ele>465.344</ele>
        <time>2020-08-23T13:16:21Z</time>
      </trkpt>
      <trkpt lat="42.034706" lon="-0.162527">
        <ele>465.554</ele>
        <time>2020-08-23T13:16:23Z</time>
      </trkpt>
      <trkpt lat="42.034775" lon="-0.162494">
        <ele>465.772</ele>
        <time>2020-08-23T13:16:26Z</time>
      </trkpt>
      <trkpt lat="42.034828" lon="-0.162474">
        <ele>465.894</ele>
        <time>2020-08-23T13:16:28Z</time>
      </trkpt>
      <trkpt lat="42.034892" lon="-0.162454">
        <ele>466.015</ele>
        <time>2020-08-23T13:16:31Z</time>
      </trkpt>
      <trkpt lat="42.034933" lon="-0.162422">
        <ele>466.286</ele>
        <time>2020-08-23T13:16:33Z</time>
      </trkpt>
      <trkpt lat="42.034980" lon="-0.162368">
        <ele>466.572</ele>
        <time>2020-08-23T13:16:36Z</time>
      </trkpt>
      <trkpt lat="42.035018" lon="-0.162319">
        <ele>466.821</ele>
        <time>2020-08-23T13:16:39Z</time>
      </trkpt>
      <trkpt lat="42.035062" lon="-0.162267">
        <ele>467.352</ele>
        <time>2020-08-23T13:16:43Z</time>
      </trkpt>
      <trkpt lat="42.035127" lon="-0.162288">
        <ele>467.753</ele>
        <time>2020-08-23T13:16:46Z</time>
      </trkpt>
      <trkpt lat="42.035166" lon="-0.162321">
        <ele>467.908</ele>
        <time>2020-08-23T13:16:48Z</time>
      </trkpt>
      <trkpt lat="42.035210" lon="-0.162347">
        <ele>468.108</ele>
        <time>2020-08-23T13:16:50Z</time>
      </trkpt>
      <trkpt lat="42.035266" lon="-0.162371">
        <ele>468.720</ele>
        <time>2020-08-23T13:16:53Z</time>
      </trkpt>
      <trkpt lat="42.035322" lon="-0.162390">
        <ele>469.140</ele>
        <time>2020-08-23T13:16:55Z</time>
      </trkpt>
      <trkpt lat="42.035368" lon="-0.162410">
        <ele>469.458</ele>
        <time>2020-08-23T13:16:57Z</time>
      </trkpt>
      <trkpt lat="42.035415" lon="-0.162432">
        <ele>469.850</ele>
        <time>2020-08-23T13:16:59Z</time>
      </trkpt>
      <trkpt lat="42.035474" lon="-0.162430">
        <ele>470.311</ele>
        <time>2020-08-23T13:17:02Z</time>
      </trkpt>
      <trkpt lat="42.035546" lon="-0.162427">
        <ele>470.632</ele>
        <time>2020-08-23T13:17:05Z</time>
      </trkpt>
      <trkpt lat="42.035602" lon="-0.162422">
        <ele>470.958</ele>
        <time>2020-08-23T13:17:07Z</time>
      </trkpt>
      <trkpt lat="42.035655" lon="-0.162410">
        <ele>471.467</ele>
        <time>2020-08-23T13:17:09Z</time>
      </trkpt>
      <trkpt lat="42.035707" lon="-0.162390">
        <ele>471.762</ele>
        <time>2020-08-23T13:17:11Z</time>
      </trkpt>
      <trkpt lat="42.035754" lon="-0.162371">
        <ele>471.983</ele>
        <time>2020-08-23T13:17:13Z</time>
      </trkpt>
      <trkpt lat="42.035805" lon="-0.162353">
        <ele>472.211</ele>
        <time>2020-08-23T13:17:16Z</time>
      </trkpt>
      <trkpt lat="42.035850" lon="-0.162326">
        <ele>472.608</ele>
        <time>2020-08-23T13:17:19Z</time>
      </trkpt>
      <trkpt lat="42.035903" lon="-0.162292">
        <ele>473.391</ele>
        <time>2020-08-23T13:17:23Z</time>
      </trkpt>
      <trkpt lat="42.035960" lon="-0.162268">
        <ele>473.841</ele>
        <time>2020-08-23T13:17:26Z</time>
      </trkpt>
      <trkpt lat="42.035993" lon="-0.162200">
        <ele>474.129</ele>
        <time>2020-08-23T13:17:29Z</time>
      </trkpt>
      <trkpt lat="42.036023" lon="-0.162140">
        <ele>474.411</ele>
        <time>2020-08-23T13:17:32Z</time>
      </trkpt>
      <trkpt lat="42.036042" lon="-0.162083">
        <ele>474.762</ele>
        <time>2020-08-23T13:17:36Z</time>
      </trkpt>
      <trkpt lat="42.036066" lon="-0.162028">
        <ele>475.093</ele>
        <time>2020-08-23T13:17:47Z</time>
      </trkpt>
      <trkpt lat="42.036108" lon="-0.161998">
        <ele>475.389</ele>
        <time>2020-08-23T13:17:52Z</time>
      </trkpt>
      <trkpt lat="42.036136" lon="-0.161940">
        <ele>475.628</ele>
        <time>2020-08-23T13:17:55Z</time>
      </trkpt>
      <trkpt lat="42.036159" lon="-0.161872">
        <ele>475.783</ele>
        <time>2020-08-23T13:17:58Z</time>
      </trkpt>
      <trkpt lat="42.036191" lon="-0.161821">
        <ele>475.825</ele>
        <time>2020-08-23T13:18:05Z</time>
      </trkpt>
      <trkpt lat="42.036237" lon="-0.161816">
        <ele>475.417</ele>
        <time>2020-08-23T13:19:49Z</time>
      </trkpt>
      <trkpt lat="42.036204" lon="-0.161772">
        <ele>485.408</ele>
        <time>2020-08-23T15:06:15Z</time>
      </trkpt>
      <trkpt lat="42.036230" lon="-0.161823">
        <ele>485.743</ele>
        <time>2020-08-23T15:06:31Z</time>
      </trkpt>
      <trkpt lat="42.036186" lon="-0.161881">
        <ele>485.243</ele>
        <time>2020-08-23T15:06:35Z</time>
      </trkpt>
      <trkpt lat="42.036162" lon="-0.161939">
        <ele>485.061</ele>
        <time>2020-08-23T15:06:37Z</time>
      </trkpt>
      <trkpt lat="42.036129" lon="-0.161986">
        <ele>484.963</ele>
        <time>2020-08-23T15:06:39Z</time>
      </trkpt>
      <trkpt lat="42.036094" lon="-0.162051">
        <ele>484.614</ele>
        <time>2020-08-23T15:06:41Z</time>
      </trkpt>
      <trkpt lat="42.036095" lon="-0.162124">
        <ele>484.445</ele>
        <time>2020-08-23T15:06:44Z</time>
      </trkpt>
      <trkpt lat="42.036135" lon="-0.162153">
        <ele>484.021</ele>
        <time>2020-08-23T15:06:48Z</time>
      </trkpt>
      <trkpt lat="42.036173" lon="-0.162213">
        <ele>484.060</ele>
        <time>2020-08-23T15:06:51Z</time>
      </trkpt>
      <trkpt lat="42.036210" lon="-0.162257">
        <ele>484.091</ele>
        <time>2020-08-23T15:06:53Z</time>
      </trkpt>
      <trkpt lat="42.036246" lon="-0.162308">
        <ele>483.981</ele>
        <time>2020-08-23T15:06:55Z</time>
      </trkpt>
      <trkpt lat="42.036299" lon="-0.162360">
        <ele>483.619</ele>
        <time>2020-08-23T15:06:57Z</time>
      </trkpt>
      <trkpt lat="42.036361" lon="-0.162415">
        <ele>483.508</ele>
        <time>2020-08-23T15:06:59Z</time>
      </trkpt>
      <trkpt lat="42.036427" lon="-0.162484">
        <ele>483.494</ele>
        <time>2020-08-23T15:07:01Z</time>
      </trkpt>
      <trkpt lat="42.036498" lon="-0.162555">
        <ele>483.354</ele>
        <time>2020-08-23T15:07:03Z</time>
      </trkpt>
      <trkpt lat="42.036537" lon="-0.162595">
        <ele>483.232</ele>
        <time>2020-08-23T15:07:04Z</time>
      </trkpt>
      <trkpt lat="42.036575" lon="-0.162636">
        <ele>483.244</ele>
        <time>2020-08-23T15:07:05Z</time>
      </trkpt>
      <trkpt lat="42.036611" lon="-0.162678">
        <ele>483.215</ele>
        <time>2020-08-23T15:07:06Z</time>
      </trkpt>
      <trkpt lat="42.036648" lon="-0.162713">
        <ele>483.216</ele>
        <time>2020-08-23T15:07:07Z</time>
      </trkpt>
      <trkpt lat="42.036717" lon="-0.162781">
        <ele>483.312</ele>
        <time>2020-08-23T15:07:09Z</time>
      </trkpt>
      <trkpt lat="42.036786" lon="-0.162852">
        <ele>483.311</ele>
        <time>2020-08-23T15:07:11Z</time>
      </trkpt>
      <trkpt lat="42.036853" lon="-0.162922">
        <ele>483.274</ele>
        <time>2020-08-23T15:07:13Z</time>
      </trkpt>
      <trkpt lat="42.036917" lon="-0.162990">
        <ele>483.056</ele>
        <time>2020-08-23T15:07:15Z</time>
      </trkpt>
      <trkpt lat="42.036970" lon="-0.163055">
        <ele>482.821</ele>
        <time>2020-08-23T15:07:17Z</time>
      </trkpt>
      <trkpt lat="42.037008" lon="-0.163103">
        <ele>482.608</ele>
        <time>2020-08-23T15:07:20Z</time>
      </trkpt>
      <trkpt lat="42.037048" lon="-0.163149">
        <ele>482.142</ele>
        <time>2020-08-23T15:07:48Z</time>
      </trkpt>
      <trkpt lat="42.037006" lon="-0.163175">
        <ele>482.192</ele>
        <time>2020-08-23T15:07:54Z</time>
      </trkpt>
      <trkpt lat="42.036973" lon="-0.163110">
        <ele>482.130</ele>
        <time>2020-08-23T15:07:56Z</time>
      </trkpt>
      <trkpt lat="42.036946" lon="-0.163056">
        <ele>482.142</ele>
        <time>2020-08-23T15:07:58Z</time>
      </trkpt>
      <trkpt lat="42.036911" lon="-0.162992">
        <ele>482.253</ele>
        <time>2020-08-23T15:08:00Z</time>
      </trkpt>
      <trkpt lat="42.036876" lon="-0.162937">
        <ele>482.354</ele>
        <time>2020-08-23T15:08:02Z</time>
      </trkpt>
      <trkpt lat="42.036843" lon="-0.162886">
        <ele>482.490</ele>
        <time>2020-08-23T15:08:04Z</time>
      </trkpt>
      <trkpt lat="42.036798" lon="-0.162844">
        <ele>482.439</ele>
        <time>2020-08-23T15:08:06Z</time>
      </trkpt>
      <trkpt lat="42.036751" lon="-0.162798">
        <ele>482.541</ele>
        <time>2020-08-23T15:08:08Z</time>
      </trkpt>
      <trkpt lat="42.036710" lon="-0.162751">
        <ele>482.681</ele>
        <time>2020-08-23T15:08:10Z</time>
      </trkpt>
      <trkpt lat="42.036669" lon="-0.162706">
        <ele>482.709</ele>
        <time>2020-08-23T15:08:12Z</time>
      </trkpt>
      <trkpt lat="42.036627" lon="-0.162653">
        <ele>482.708</ele>
        <time>2020-08-23T15:08:14Z</time>
      </trkpt>
      <trkpt lat="42.036591" lon="-0.162615">
        <ele>482.789</ele>
        <time>2020-08-23T15:08:16Z</time>
      </trkpt>
      <trkpt lat="42.036548" lon="-0.162591">
        <ele>482.959</ele>
        <time>2020-08-23T15:08:40Z</time>
      </trkpt>
      <trkpt lat="42.036502" lon="-0.162562">
        <ele>482.887</ele>
        <time>2020-08-23T15:08:42Z</time>
      </trkpt>
      <trkpt lat="42.036453" lon="-0.162509">
        <ele>483.059</ele>
        <time>2020-08-23T15:08:45Z</time>
      </trkpt>
      <trkpt lat="42.036406" lon="-0.162468">
        <ele>483.230</ele>
        <time>2020-08-23T15:08:47Z</time>
      </trkpt>
      <trkpt lat="42.036369" lon="-0.162406">
        <ele>483.471</ele>
        <time>2020-08-23T15:08:49Z</time>
      </trkpt>
      <trkpt lat="42.036330" lon="-0.162366">
        <ele>483.577</ele>
        <time>2020-08-23T15:08:51Z</time>
      </trkpt>
      <trkpt lat="42.036292" lon="-0.162316">
        <ele>483.766</ele>
        <time>2020-08-23T15:08:53Z</time>
      </trkpt>
      <trkpt lat="42.036252" lon="-0.162259">
        <ele>484.239</ele>
        <time>2020-08-23T15:08:56Z</time>
      </trkpt>
      <trkpt lat="42.036212" lon="-0.162223">
        <ele>484.701</ele>
        <time>2020-08-23T15:09:00Z</time>
      </trkpt>
      <trkpt lat="42.036218" lon="-0.162286">
        <ele>485.121</ele>
        <time>2020-08-23T15:09:03Z</time>
      </trkpt>
      <trkpt lat="42.036248" lon="-0.162369">
        <ele>485.608</ele>
        <time>2020-08-23T15:09:06Z</time>
      </trkpt>
      <trkpt lat="42.036276" lon="-0.162427">
        <ele>485.848</ele>
        <time>2020-08-23T15:09:08Z</time>
      </trkpt>
      <trkpt lat="42.036313" lon="-0.162506">
        <ele>485.978</ele>
        <time>2020-08-23T15:09:11Z</time>
      </trkpt>
      <trkpt lat="42.036342" lon="-0.162572">
        <ele>486.066</ele>
        <time>2020-08-23T15:09:13Z</time>
      </trkpt>
      <trkpt lat="42.036372" lon="-0.162623">
        <ele>486.298</ele>
        <time>2020-08-23T15:09:15Z</time>
      </trkpt>
      <trkpt lat="42.036408" lon="-0.162675">
        <ele>486.489</ele>
        <time>2020-08-23T15:09:17Z</time>
      </trkpt>
      <trkpt lat="42.036443" lon="-0.162728">
        <ele>486.560</ele>
        <time>2020-08-23T15:09:19Z</time>
      </trkpt>
      <trkpt lat="42.036489" lon="-0.162786">
        <ele>486.596</ele>
        <time>2020-08-23T15:09:21Z</time>
      </trkpt>
      <trkpt lat="42.036528" lon="-0.162858">
        <ele>486.665</ele>
        <time>2020-08-23T15:09:23Z</time>
      </trkpt>
      <trkpt lat="42.036577" lon="-0.162911">
        <ele>486.975</ele>
        <time>2020-08-23T15:09:25Z</time>
      </trkpt>
      <trkpt lat="42.036627" lon="-0.162978">
        <ele>487.328</ele>
        <time>2020-08-23T15:09:27Z</time>
      </trkpt>
      <trkpt lat="42.036671" lon="-0.163031">
        <ele>487.520</ele>
        <time>2020-08-23T15:09:29Z</time>
      </trkpt>
      <trkpt lat="42.036710" lon="-0.163081">
        <ele>487.808</ele>
        <time>2020-08-23T15:09:32Z</time>
      </trkpt>
      <trkpt lat="42.036759" lon="-0.163107">
        <ele>488.012</ele>
        <time>2020-08-23T15:09:34Z</time>
      </trkpt>
      <trkpt lat="42.036797" lon="-0.163150">
        <ele>488.312</ele>
        <time>2020-08-23T15:09:37Z</time>
      </trkpt>
      <trkpt lat="42.036809" lon="-0.163208">
        <ele>488.670</ele>
        <time>2020-08-23T15:09:39Z</time>
      </trkpt>
      <trkpt lat="42.036826" lon="-0.163267">
        <ele>489.052</ele>
        <time>2020-08-23T15:09:42Z</time>
      </trkpt>
      <trkpt lat="42.036874" lon="-0.163299">
        <ele>489.513</ele>
        <time>2020-08-23T15:09:45Z</time>
      </trkpt>
      <trkpt lat="42.036921" lon="-0.163323">
        <ele>490.554</ele>
        <time>2020-08-23T15:09:49Z</time>
      </trkpt>
      <trkpt lat="42.036957" lon="-0.163360">
        <ele>491.510</ele>
        <time>2020-08-23T15:09:52Z</time>
      </trkpt>
      <trkpt lat="42.036990" lon="-0.163421">
        <ele>492.449</ele>
        <time>2020-08-23T15:09:55Z</time>
      </trkpt>
      <trkpt lat="42.037011" lon="-0.163480">
        <ele>493.098</ele>
        <time>2020-08-23T15:09:57Z</time>
      </trkpt>
      <trkpt lat="42.037028" lon="-0.163548">
        <ele>493.615</ele>
        <time>2020-08-23T15:09:59Z</time>
      </trkpt>
      <trkpt lat="42.037037" lon="-0.163628">
        <ele>494.426</ele>
        <time>2020-08-23T15:10:02Z</time>
      </trkpt>
      <trkpt lat="42.037034" lon="-0.163693">
        <ele>494.808</ele>
        <time>2020-08-23T15:10:04Z</time>
      </trkpt>
      <trkpt lat="42.037038" lon="-0.163763">
        <ele>495.324</ele>
        <time>2020-08-23T15:10:07Z</time>
      </trkpt>
      <trkpt lat="42.037043" lon="-0.163838">
        <ele>495.514</ele>
        <time>2020-08-23T15:10:09Z</time>
      </trkpt>
      <trkpt lat="42.037054" lon="-0.163923">
        <ele>495.882</ele>
        <time>2020-08-23T15:10:12Z</time>
      </trkpt>
      <trkpt lat="42.037048" lon="-0.163991">
        <ele>496.274</ele>
        <time>2020-08-23T15:10:15Z</time>
      </trkpt>
      <trkpt lat="42.037041" lon="-0.164070">
        <ele>497.125</ele>
        <time>2020-08-23T15:10:19Z</time>
      </trkpt>
      <trkpt lat="42.037027" lon="-0.164152">
        <ele>497.926</ele>
        <time>2020-08-23T15:10:23Z</time>
      </trkpt>
      <trkpt lat="42.037040" lon="-0.164214">
        <ele>498.592</ele>
        <time>2020-08-23T15:10:26Z</time>
      </trkpt>
      <trkpt lat="42.037047" lon="-0.164285">
        <ele>499.031</ele>
        <time>2020-08-23T15:10:29Z</time>
      </trkpt>
      <trkpt lat="42.037072" lon="-0.164357">
        <ele>499.774</ele>
        <time>2020-08-23T15:10:33Z</time>
      </trkpt>
      <trkpt lat="42.037101" lon="-0.164426">
        <ele>500.456</ele>
        <time>2020-08-23T15:10:36Z</time>
      </trkpt>
      <trkpt lat="42.037117" lon="-0.164495">
        <ele>500.921</ele>
        <time>2020-08-23T15:10:39Z</time>
      </trkpt>
      <trkpt lat="42.037143" lon="-0.164556">
        <ele>501.208</ele>
        <time>2020-08-23T15:10:41Z</time>
      </trkpt>
      <trkpt lat="42.037162" lon="-0.164622">
        <ele>501.982</ele>
        <time>2020-08-23T15:10:45Z</time>
      </trkpt>
      <trkpt lat="42.037186" lon="-0.164678">
        <ele>502.652</ele>
        <time>2020-08-23T15:10:48Z</time>
      </trkpt>
      <trkpt lat="42.037213" lon="-0.164752">
        <ele>504.180</ele>
        <time>2020-08-23T15:10:53Z</time>
      </trkpt>
      <trkpt lat="42.037227" lon="-0.164810">
        <ele>504.642</ele>
        <time>2020-08-23T15:10:56Z</time>
      </trkpt>
      <trkpt lat="42.037235" lon="-0.164872">
        <ele>505.513</ele>
        <time>2020-08-23T15:11:01Z</time>
      </trkpt>
      <trkpt lat="42.037237" lon="-0.164935">
        <ele>506.054</ele>
        <time>2020-08-23T15:11:04Z</time>
      </trkpt>
      <trkpt lat="42.037210" lon="-0.164987">
        <ele>507.280</ele>
        <time>2020-08-23T15:11:28Z</time>
      </trkpt>
      <trkpt lat="42.037179" lon="-0.165037">
        <ele>507.199</ele>
        <time>2020-08-23T15:12:00Z</time>
      </trkpt>
      <trkpt lat="42.037156" lon="-0.165093">
        <ele>507.013</ele>
        <time>2020-08-23T15:12:02Z</time>
      </trkpt>
      <trkpt lat="42.037138" lon="-0.165160">
        <ele>507.043</ele>
        <time>2020-08-23T15:12:04Z</time>
      </trkpt>
      <trkpt lat="42.037112" lon="-0.165233">
        <ele>507.107</ele>
        <time>2020-08-23T15:12:06Z</time>
      </trkpt>
      <trkpt lat="42.037096" lon="-0.165314">
        <ele>507.208</ele>
        <time>2020-08-23T15:12:08Z</time>
      </trkpt>
      <trkpt lat="42.037075" lon="-0.165386">
        <ele>506.916</ele>
        <time>2020-08-23T15:12:10Z</time>
      </trkpt>
      <trkpt lat="42.037048" lon="-0.165470">
        <ele>506.856</ele>
        <time>2020-08-23T15:12:12Z</time>
      </trkpt>
      <trkpt lat="42.037022" lon="-0.165545">
        <ele>506.744</ele>
        <time>2020-08-23T15:12:14Z</time>
      </trkpt>
      <trkpt lat="42.037000" lon="-0.165632">
        <ele>506.666</ele>
        <time>2020-08-23T15:12:16Z</time>
      </trkpt>
      <trkpt lat="42.036978" lon="-0.165713">
        <ele>506.747</ele>
        <time>2020-08-23T15:12:18Z</time>
      </trkpt>
      <trkpt lat="42.036963" lon="-0.165789">
        <ele>506.878</ele>
        <time>2020-08-23T15:12:20Z</time>
      </trkpt>
      <trkpt lat="42.036942" lon="-0.165893">
        <ele>506.724</ele>
        <time>2020-08-23T15:12:22Z</time>
      </trkpt>
      <trkpt lat="42.036934" lon="-0.165995">
        <ele>506.663</ele>
        <time>2020-08-23T15:12:24Z</time>
      </trkpt>
      <trkpt lat="42.036932" lon="-0.166081">
        <ele>506.648</ele>
        <time>2020-08-23T15:12:26Z</time>
      </trkpt>
      <trkpt lat="42.036928" lon="-0.166189">
        <ele>506.761</ele>
        <time>2020-08-23T15:12:28Z</time>
      </trkpt>
      <trkpt lat="42.036920" lon="-0.166295">
        <ele>506.817</ele>
        <time>2020-08-23T15:12:30Z</time>
      </trkpt>
      <trkpt lat="42.036920" lon="-0.166360">
        <ele>506.808</ele>
        <time>2020-08-23T15:12:32Z</time>
      </trkpt>
      <trkpt lat="42.036922" lon="-0.166433">
        <ele>506.959</ele>
        <time>2020-08-23T15:12:34Z</time>
      </trkpt>
      <trkpt lat="42.036924" lon="-0.166523">
        <ele>507.049</ele>
        <time>2020-08-23T15:12:36Z</time>
      </trkpt>
      <trkpt lat="42.036898" lon="-0.166618">
        <ele>507.267</ele>
        <time>2020-08-23T15:12:38Z</time>
      </trkpt>
      <trkpt lat="42.036889" lon="-0.166707">
        <ele>507.539</ele>
        <time>2020-08-23T15:12:40Z</time>
      </trkpt>
      <trkpt lat="42.036889" lon="-0.166774">
        <ele>507.950</ele>
        <time>2020-08-23T15:12:42Z</time>
      </trkpt>
      <trkpt lat="42.036886" lon="-0.166847">
        <ele>507.911</ele>
        <time>2020-08-23T15:12:44Z</time>
      </trkpt>
      <trkpt lat="42.036880" lon="-0.166942">
        <ele>507.917</ele>
        <time>2020-08-23T15:12:46Z</time>
      </trkpt>
      <trkpt lat="42.036864" lon="-0.167031">
        <ele>508.046</ele>
        <time>2020-08-23T15:12:48Z</time>
      </trkpt>
      <trkpt lat="42.036853" lon="-0.167108">
        <ele>508.254</ele>
        <time>2020-08-23T15:12:50Z</time>
      </trkpt>
      <trkpt lat="42.036833" lon="-0.167195">
        <ele>508.356</ele>
        <time>2020-08-23T15:12:52Z</time>
      </trkpt>
      <trkpt lat="42.036801" lon="-0.167265">
        <ele>508.411</ele>
        <time>2020-08-23T15:12:54Z</time>
      </trkpt>
      <trkpt lat="42.036777" lon="-0.167339">
        <ele>508.508</ele>
        <time>2020-08-23T15:12:56Z</time>
      </trkpt>
      <trkpt lat="42.036758" lon="-0.167416">
        <ele>508.660</ele>
        <time>2020-08-23T15:12:58Z</time>
      </trkpt>
      <trkpt lat="42.036729" lon="-0.167480">
        <ele>508.770</ele>
        <time>2020-08-23T15:13:00Z</time>
      </trkpt>
      <trkpt lat="42.036702" lon="-0.167560">
        <ele>509.098</ele>
        <time>2020-08-23T15:13:02Z</time>
      </trkpt>
      <trkpt lat="42.036678" lon="-0.167637">
        <ele>509.450</ele>
        <time>2020-08-23T15:13:04Z</time>
      </trkpt>
      <trkpt lat="42.036658" lon="-0.167715">
        <ele>510.051</ele>
        <time>2020-08-23T15:13:06Z</time>
      </trkpt>
      <trkpt lat="42.036627" lon="-0.167787">
        <ele>510.242</ele>
        <time>2020-08-23T15:13:08Z</time>
      </trkpt>
      <trkpt lat="42.036600" lon="-0.167844">
        <ele>510.378</ele>
        <time>2020-08-23T15:13:10Z</time>
      </trkpt>
      <trkpt lat="42.036567" lon="-0.167910">
        <ele>510.377</ele>
        <time>2020-08-23T15:13:12Z</time>
      </trkpt>
      <trkpt lat="42.036546" lon="-0.167992">
        <ele>510.996</ele>
        <time>2020-08-23T15:13:15Z</time>
      </trkpt>
      <trkpt lat="42.036548" lon="-0.168063">
        <ele>511.431</ele>
        <time>2020-08-23T15:13:18Z</time>
      </trkpt>
      <trkpt lat="42.036548" lon="-0.168154">
        <ele>512.124</ele>
        <time>2020-08-23T15:13:21Z</time>
      </trkpt>
      <trkpt lat="42.036554" lon="-0.168216">
        <ele>512.508</ele>
        <time>2020-08-23T15:13:23Z</time>
      </trkpt>
      <trkpt lat="42.036570" lon="-0.168286">
        <ele>512.854</ele>
        <time>2020-08-23T15:13:25Z</time>
      </trkpt>
      <trkpt lat="42.036591" lon="-0.168342">
        <ele>512.914</ele>
        <time>2020-08-23T15:13:27Z</time>
      </trkpt>
      <trkpt lat="42.036621" lon="-0.168391">
        <ele>513.082</ele>
        <time>2020-08-23T15:13:29Z</time>
      </trkpt>
      <trkpt lat="42.036657" lon="-0.168453">
        <ele>513.174</ele>
        <time>2020-08-23T15:13:31Z</time>
      </trkpt>
      <trkpt lat="42.036695" lon="-0.168508">
        <ele>513.395</ele>
        <time>2020-08-23T15:13:33Z</time>
      </trkpt>
      <trkpt lat="42.036718" lon="-0.168582">
        <ele>513.556</ele>
        <time>2020-08-23T15:13:36Z</time>
      </trkpt>
      <trkpt lat="42.036744" lon="-0.168649">
        <ele>513.982</ele>
        <time>2020-08-23T15:13:39Z</time>
      </trkpt>
      <trkpt lat="42.036764" lon="-0.168713">
        <ele>514.341</ele>
        <time>2020-08-23T15:13:42Z</time>
      </trkpt>
      <trkpt lat="42.036797" lon="-0.168789">
        <ele>514.679</ele>
        <time>2020-08-23T15:13:45Z</time>
      </trkpt>
      <trkpt lat="42.036817" lon="-0.168850">
        <ele>514.905</ele>
        <time>2020-08-23T15:13:47Z</time>
      </trkpt>
      <trkpt lat="42.036839" lon="-0.168921">
        <ele>515.325</ele>
        <time>2020-08-23T15:13:50Z</time>
      </trkpt>
      <trkpt lat="42.036849" lon="-0.169011">
        <ele>515.708</ele>
        <time>2020-08-23T15:13:53Z</time>
      </trkpt>
      <trkpt lat="42.036844" lon="-0.169075">
        <ele>515.992</ele>
        <time>2020-08-23T15:13:55Z</time>
      </trkpt>
      <trkpt lat="42.036838" lon="-0.169166">
        <ele>516.112</ele>
        <time>2020-08-23T15:13:58Z</time>
      </trkpt>
      <trkpt lat="42.036841" lon="-0.169243">
        <ele>516.210</ele>
        <time>2020-08-23T15:14:00Z</time>
      </trkpt>
      <trkpt lat="42.036854" lon="-0.169305">
        <ele>516.332</ele>
        <time>2020-08-23T15:14:02Z</time>
      </trkpt>
      <trkpt lat="42.036867" lon="-0.169383">
        <ele>516.623</ele>
        <time>2020-08-23T15:14:04Z</time>
      </trkpt>
      <trkpt lat="42.036881" lon="-0.169454">
        <ele>517.014</ele>
        <time>2020-08-23T15:14:06Z</time>
      </trkpt>
      <trkpt lat="42.036905" lon="-0.169510">
        <ele>517.470</ele>
        <time>2020-08-23T15:14:08Z</time>
      </trkpt>
      <trkpt lat="42.036939" lon="-0.169576">
        <ele>518.229</ele>
        <time>2020-08-23T15:14:11Z</time>
      </trkpt>
      <trkpt lat="42.036956" lon="-0.169640">
        <ele>518.819</ele>
        <time>2020-08-23T15:14:13Z</time>
      </trkpt>
      <trkpt lat="42.036969" lon="-0.169711">
        <ele>519.509</ele>
        <time>2020-08-23T15:14:16Z</time>
      </trkpt>
      <trkpt lat="42.036976" lon="-0.169801">
        <ele>520.119</ele>
        <time>2020-08-23T15:14:19Z</time>
      </trkpt>
      <trkpt lat="42.036994" lon="-0.169861">
        <ele>520.508</ele>
        <time>2020-08-23T15:14:21Z</time>
      </trkpt>
      <trkpt lat="42.037006" lon="-0.169945">
        <ele>521.266</ele>
        <time>2020-08-23T15:14:24Z</time>
      </trkpt>
      <trkpt lat="42.037012" lon="-0.170006">
        <ele>521.546</ele>
        <time>2020-08-23T15:14:26Z</time>
      </trkpt>
      <trkpt lat="42.036999" lon="-0.170096">
        <ele>521.524</ele>
        <time>2020-08-23T15:14:29Z</time>
      </trkpt>
      <trkpt lat="42.036995" lon="-0.170159">
        <ele>521.596</ele>
        <time>2020-08-23T15:14:31Z</time>
      </trkpt>
      <trkpt lat="42.036994" lon="-0.170250">
        <ele>521.837</ele>
        <time>2020-08-23T15:14:34Z</time>
      </trkpt>
      <trkpt lat="42.036997" lon="-0.170328">
        <ele>522.148</ele>
        <time>2020-08-23T15:14:36Z</time>
      </trkpt>
      <trkpt lat="42.036998" lon="-0.170401">
        <ele>522.244</ele>
        <time>2020-08-23T15:14:38Z</time>
      </trkpt>
      <trkpt lat="42.037007" lon="-0.170477">
        <ele>522.433</ele>
        <time>2020-08-23T15:14:40Z</time>
      </trkpt>
      <trkpt lat="42.037010" lon="-0.170548">
        <ele>522.588</ele>
        <time>2020-08-23T15:14:42Z</time>
      </trkpt>
      <trkpt lat="42.037014" lon="-0.170631">
        <ele>522.624</ele>
        <time>2020-08-23T15:14:44Z</time>
      </trkpt>
      <trkpt lat="42.037027" lon="-0.170710">
        <ele>522.726</ele>
        <time>2020-08-23T15:14:46Z</time>
      </trkpt>
      <trkpt lat="42.037039" lon="-0.170791">
        <ele>522.608</ele>
        <time>2020-08-23T15:14:48Z</time>
      </trkpt>
      <trkpt lat="42.037050" lon="-0.170873">
        <ele>522.543</ele>
        <time>2020-08-23T15:14:50Z</time>
      </trkpt>
      <trkpt lat="42.037062" lon="-0.170959">
        <ele>522.523</ele>
        <time>2020-08-23T15:14:52Z</time>
      </trkpt>
      <trkpt lat="42.037072" lon="-0.171038">
        <ele>522.551</ele>
        <time>2020-08-23T15:14:54Z</time>
      </trkpt>
      <trkpt lat="42.037088" lon="-0.171113">
        <ele>522.583</ele>
        <time>2020-08-23T15:14:56Z</time>
      </trkpt>
      <trkpt lat="42.037116" lon="-0.171210">
        <ele>522.534</ele>
        <time>2020-08-23T15:14:58Z</time>
      </trkpt>
      <trkpt lat="42.037132" lon="-0.171273">
        <ele>522.635</ele>
        <time>2020-08-23T15:14:59Z</time>
      </trkpt>
      <trkpt lat="42.037159" lon="-0.171377">
        <ele>522.641</ele>
        <time>2020-08-23T15:15:01Z</time>
      </trkpt>
      <trkpt lat="42.037172" lon="-0.171436">
        <ele>522.680</ele>
        <time>2020-08-23T15:15:02Z</time>
      </trkpt>
      <trkpt lat="42.037182" lon="-0.171496">
        <ele>522.622</ele>
        <time>2020-08-23T15:15:03Z</time>
      </trkpt>
      <trkpt lat="42.037204" lon="-0.171594">
        <ele>522.662</ele>
        <time>2020-08-23T15:15:05Z</time>
      </trkpt>
      <trkpt lat="42.037224" lon="-0.171686">
        <ele>522.708</ele>
        <time>2020-08-23T15:15:07Z</time>
      </trkpt>
      <trkpt lat="42.037241" lon="-0.171766">
        <ele>522.808</ele>
        <time>2020-08-23T15:15:09Z</time>
      </trkpt>
      <trkpt lat="42.037271" lon="-0.171827">
        <ele>522.967</ele>
        <time>2020-08-23T15:15:11Z</time>
      </trkpt>
      <trkpt lat="42.037301" lon="-0.171892">
        <ele>523.127</ele>
        <time>2020-08-23T15:15:13Z</time>
      </trkpt>
      <trkpt lat="42.037327" lon="-0.171978">
        <ele>523.365</ele>
        <time>2020-08-23T15:15:15Z</time>
      </trkpt>
      <trkpt lat="42.037357" lon="-0.172062">
        <ele>523.427</ele>
        <time>2020-08-23T15:15:17Z</time>
      </trkpt>
      <trkpt lat="42.037386" lon="-0.172147">
        <ele>523.488</ele>
        <time>2020-08-23T15:15:19Z</time>
      </trkpt>
      <trkpt lat="42.037412" lon="-0.172225">
        <ele>523.589</ele>
        <time>2020-08-23T15:15:21Z</time>
      </trkpt>
      <trkpt lat="42.037442" lon="-0.172312">
        <ele>523.685</ele>
        <time>2020-08-23T15:15:23Z</time>
      </trkpt>
      <trkpt lat="42.037475" lon="-0.172392">
        <ele>523.994</ele>
        <time>2020-08-23T15:15:25Z</time>
      </trkpt>
      <trkpt lat="42.037512" lon="-0.172479">
        <ele>524.025</ele>
        <time>2020-08-23T15:15:27Z</time>
      </trkpt>
      <trkpt lat="42.037540" lon="-0.172572">
        <ele>524.026</ele>
        <time>2020-08-23T15:15:29Z</time>
      </trkpt>
      <trkpt lat="42.037563" lon="-0.172664">
        <ele>524.008</ele>
        <time>2020-08-23T15:15:31Z</time>
      </trkpt>
      <trkpt lat="42.037590" lon="-0.172748">
        <ele>524.008</ele>
        <time>2020-08-23T15:15:33Z</time>
      </trkpt>
      <trkpt lat="42.037619" lon="-0.172835">
        <ele>523.917</ele>
        <time>2020-08-23T15:15:35Z</time>
      </trkpt>
      <trkpt lat="42.037654" lon="-0.172926">
        <ele>523.957</ele>
        <time>2020-08-23T15:15:37Z</time>
      </trkpt>
      <trkpt lat="42.037685" lon="-0.173018">
        <ele>523.965</ele>
        <time>2020-08-23T15:15:39Z</time>
      </trkpt>
      <trkpt lat="42.037713" lon="-0.173110">
        <ele>523.957</ele>
        <time>2020-08-23T15:15:41Z</time>
      </trkpt>
      <trkpt lat="42.037740" lon="-0.173204">
        <ele>523.988</ele>
        <time>2020-08-23T15:15:43Z</time>
      </trkpt>
      <trkpt lat="42.037776" lon="-0.173306">
        <ele>524.089</ele>
        <time>2020-08-23T15:15:45Z</time>
      </trkpt>
      <trkpt lat="42.037819" lon="-0.173398">
        <ele>524.095</ele>
        <time>2020-08-23T15:15:47Z</time>
      </trkpt>
      <trkpt lat="42.037855" lon="-0.173480">
        <ele>524.074</ele>
        <time>2020-08-23T15:15:49Z</time>
      </trkpt>
      <trkpt lat="42.037897" lon="-0.173557">
        <ele>524.082</ele>
        <time>2020-08-23T15:15:51Z</time>
      </trkpt>
      <trkpt lat="42.037946" lon="-0.173644">
        <ele>524.143</ele>
        <time>2020-08-23T15:15:53Z</time>
      </trkpt>
      <trkpt lat="42.037979" lon="-0.173731">
        <ele>524.117</ele>
        <time>2020-08-23T15:15:55Z</time>
      </trkpt>
      <trkpt lat="42.038015" lon="-0.173812">
        <ele>524.208</ele>
        <time>2020-08-23T15:15:57Z</time>
      </trkpt>
      <trkpt lat="42.038058" lon="-0.173900">
        <ele>524.513</ele>
        <time>2020-08-23T15:15:59Z</time>
      </trkpt>
      <trkpt lat="42.038105" lon="-0.173982">
        <ele>524.623</ele>
        <time>2020-08-23T15:16:01Z</time>
      </trkpt>
      <trkpt lat="42.038139" lon="-0.174067">
        <ele>524.611</ele>
        <time>2020-08-23T15:16:03Z</time>
      </trkpt>
      <trkpt lat="42.038185" lon="-0.174151">
        <ele>524.663</ele>
        <time>2020-08-23T15:16:05Z</time>
      </trkpt>
      <trkpt lat="42.038231" lon="-0.174230">
        <ele>524.724</ele>
        <time>2020-08-23T15:16:07Z</time>
      </trkpt>
      <trkpt lat="42.038263" lon="-0.174314">
        <ele>524.795</ele>
        <time>2020-08-23T15:16:09Z</time>
      </trkpt>
      <trkpt lat="42.038299" lon="-0.174393">
        <ele>524.841</ele>
        <time>2020-08-23T15:16:11Z</time>
      </trkpt>
      <trkpt lat="42.038337" lon="-0.174453">
        <ele>524.960</ele>
        <time>2020-08-23T15:16:13Z</time>
      </trkpt>
      <trkpt lat="42.038373" lon="-0.174545">
        <ele>525.047</ele>
        <time>2020-08-23T15:16:15Z</time>
      </trkpt>
      <trkpt lat="42.038406" lon="-0.174642">
        <ele>525.229</ele>
        <time>2020-08-23T15:16:17Z</time>
      </trkpt>
      <trkpt lat="42.038453" lon="-0.174729">
        <ele>525.321</ele>
        <time>2020-08-23T15:16:19Z</time>
      </trkpt>
      <trkpt lat="42.038500" lon="-0.174805">
        <ele>525.308</ele>
        <time>2020-08-23T15:16:21Z</time>
      </trkpt>
      <trkpt lat="42.038541" lon="-0.174862">
        <ele>525.329</ele>
        <time>2020-08-23T15:16:23Z</time>
      </trkpt>
      <trkpt lat="42.038568" lon="-0.174912">
        <ele>525.329</ele>
        <time>2020-08-23T15:16:24Z</time>
      </trkpt>
      <trkpt lat="42.038623" lon="-0.174995">
        <ele>525.427</ele>
        <time>2020-08-23T15:16:26Z</time>
      </trkpt>
      <trkpt lat="42.038677" lon="-0.175057">
        <ele>525.699</ele>
        <time>2020-08-23T15:16:28Z</time>
      </trkpt>
      <trkpt lat="42.038733" lon="-0.175123">
        <ele>525.570</ele>
        <time>2020-08-23T15:16:30Z</time>
      </trkpt>
      <trkpt lat="42.038785" lon="-0.175192">
        <ele>525.371</ele>
        <time>2020-08-23T15:16:32Z</time>
      </trkpt>
      <trkpt lat="42.038834" lon="-0.175258">
        <ele>525.317</ele>
        <time>2020-08-23T15:16:34Z</time>
      </trkpt>
      <trkpt lat="42.038884" lon="-0.175328">
        <ele>525.436</ele>
        <time>2020-08-23T15:16:36Z</time>
      </trkpt>
      <trkpt lat="42.038935" lon="-0.175403">
        <ele>525.411</ele>
        <time>2020-08-23T15:16:38Z</time>
      </trkpt>
      <trkpt lat="42.038981" lon="-0.175466">
        <ele>525.521</ele>
        <time>2020-08-23T15:16:40Z</time>
      </trkpt>
      <trkpt lat="42.039035" lon="-0.175527">
        <ele>525.503</ele>
        <time>2020-08-23T15:16:42Z</time>
      </trkpt>
      <trkpt lat="42.039079" lon="-0.175583">
        <ele>525.508</ele>
        <time>2020-08-23T15:16:44Z</time>
      </trkpt>
      <trkpt lat="42.039133" lon="-0.175636">
        <ele>525.696</ele>
        <time>2020-08-23T15:16:46Z</time>
      </trkpt>
      <trkpt lat="42.039182" lon="-0.175704">
        <ele>525.916</ele>
        <time>2020-08-23T15:16:48Z</time>
      </trkpt>
      <trkpt lat="42.039226" lon="-0.175774">
        <ele>526.064</ele>
        <time>2020-08-23T15:16:50Z</time>
      </trkpt>
      <trkpt lat="42.039291" lon="-0.175853">
        <ele>525.986</ele>
        <time>2020-08-23T15:16:52Z</time>
      </trkpt>
      <trkpt lat="42.039330" lon="-0.175925">
        <ele>525.797</ele>
        <time>2020-08-23T15:16:54Z</time>
      </trkpt>
      <trkpt lat="42.039372" lon="-0.175999">
        <ele>525.628</ele>
        <time>2020-08-23T15:16:56Z</time>
      </trkpt>
      <trkpt lat="42.039398" lon="-0.176049">
        <ele>525.674</ele>
        <time>2020-08-23T15:16:57Z</time>
      </trkpt>
      <trkpt lat="42.039443" lon="-0.176135">
        <ele>525.653</ele>
        <time>2020-08-23T15:16:59Z</time>
      </trkpt>
      <trkpt lat="42.039482" lon="-0.176221">
        <ele>525.626</ele>
        <time>2020-08-23T15:17:01Z</time>
      </trkpt>
      <trkpt lat="42.039505" lon="-0.176305">
        <ele>525.647</ele>
        <time>2020-08-23T15:17:03Z</time>
      </trkpt>
      <trkpt lat="42.039517" lon="-0.176404">
        <ele>525.611</ele>
        <time>2020-08-23T15:17:05Z</time>
      </trkpt>
      <trkpt lat="42.039519" lon="-0.176504">
        <ele>525.608</ele>
        <time>2020-08-23T15:17:07Z</time>
      </trkpt>
      <trkpt lat="42.039514" lon="-0.176616">
        <ele>525.627</ele>
        <time>2020-08-23T15:17:09Z</time>
      </trkpt>
      <trkpt lat="42.039507" lon="-0.176727">
        <ele>525.847</ele>
        <time>2020-08-23T15:17:11Z</time>
      </trkpt>
      <trkpt lat="42.039511" lon="-0.176836">
        <ele>526.045</ele>
        <time>2020-08-23T15:17:13Z</time>
      </trkpt>
      <trkpt lat="42.039513" lon="-0.176943">
        <ele>526.277</ele>
        <time>2020-08-23T15:17:15Z</time>
      </trkpt>
      <trkpt lat="42.039507" lon="-0.177042">
        <ele>526.268</ele>
        <time>2020-08-23T15:17:17Z</time>
      </trkpt>
      <trkpt lat="42.039508" lon="-0.177128">
        <ele>526.299</ele>
        <time>2020-08-23T15:17:19Z</time>
      </trkpt>
      <trkpt lat="42.039501" lon="-0.177206">
        <ele>526.185</ele>
        <time>2020-08-23T15:17:21Z</time>
      </trkpt>
      <trkpt lat="42.039487" lon="-0.177297">
        <ele>526.024</ele>
        <time>2020-08-23T15:17:23Z</time>
      </trkpt>
      <trkpt lat="42.039466" lon="-0.177401">
        <ele>526.046</ele>
        <time>2020-08-23T15:17:25Z</time>
      </trkpt>
      <trkpt lat="42.039449" lon="-0.177500">
        <ele>526.288</ele>
        <time>2020-08-23T15:17:27Z</time>
      </trkpt>
      <trkpt lat="42.039441" lon="-0.177607">
        <ele>526.316</ele>
        <time>2020-08-23T15:17:29Z</time>
      </trkpt>
      <trkpt lat="42.039431" lon="-0.177705">
        <ele>526.408</ele>
        <time>2020-08-23T15:17:31Z</time>
      </trkpt>
      <trkpt lat="42.039441" lon="-0.177794">
        <ele>527.039</ele>
        <time>2020-08-23T15:17:34Z</time>
      </trkpt>
      <trkpt lat="42.039444" lon="-0.177872">
        <ele>527.399</ele>
        <time>2020-08-23T15:17:36Z</time>
      </trkpt>
      <trkpt lat="42.039443" lon="-0.177962">
        <ele>527.497</ele>
        <time>2020-08-23T15:17:38Z</time>
      </trkpt>
      <trkpt lat="42.039443" lon="-0.178058">
        <ele>527.589</ele>
        <time>2020-08-23T15:17:40Z</time>
      </trkpt>
      <trkpt lat="42.039446" lon="-0.178161">
        <ele>527.570</ele>
        <time>2020-08-23T15:17:42Z</time>
      </trkpt>
      <trkpt lat="42.039450" lon="-0.178264">
        <ele>527.421</ele>
        <time>2020-08-23T15:17:44Z</time>
      </trkpt>
      <trkpt lat="42.039446" lon="-0.178377">
        <ele>527.467</ele>
        <time>2020-08-23T15:17:46Z</time>
      </trkpt>
      <trkpt lat="42.039448" lon="-0.178439">
        <ele>527.446</ele>
        <time>2020-08-23T15:17:47Z</time>
      </trkpt>
      <trkpt lat="42.039455" lon="-0.178546">
        <ele>527.432</ele>
        <time>2020-08-23T15:17:49Z</time>
      </trkpt>
      <trkpt lat="42.039477" lon="-0.178646">
        <ele>527.492</ele>
        <time>2020-08-23T15:17:51Z</time>
      </trkpt>
      <trkpt lat="42.039497" lon="-0.178734">
        <ele>527.411</ele>
        <time>2020-08-23T15:17:53Z</time>
      </trkpt>
      <trkpt lat="42.039508" lon="-0.178819">
        <ele>527.408</ele>
        <time>2020-08-23T15:17:55Z</time>
      </trkpt>
      <trkpt lat="42.039510" lon="-0.178919">
        <ele>527.598</ele>
        <time>2020-08-23T15:17:57Z</time>
      </trkpt>
      <trkpt lat="42.039510" lon="-0.179013">
        <ele>527.638</ele>
        <time>2020-08-23T15:17:59Z</time>
      </trkpt>
      <trkpt lat="42.039508" lon="-0.179109">
        <ele>527.686</ele>
        <time>2020-08-23T15:18:01Z</time>
      </trkpt>
      <trkpt lat="42.039503" lon="-0.179200">
        <ele>527.548</ele>
        <time>2020-08-23T15:18:03Z</time>
      </trkpt>
      <trkpt lat="42.039504" lon="-0.179282">
        <ele>527.679</ele>
        <time>2020-08-23T15:18:05Z</time>
      </trkpt>
      <trkpt lat="42.039513" lon="-0.179373">
        <ele>527.850</ele>
        <time>2020-08-23T15:18:07Z</time>
      </trkpt>
      <trkpt lat="42.039512" lon="-0.179458">
        <ele>527.946</ele>
        <time>2020-08-23T15:18:09Z</time>
      </trkpt>
      <trkpt lat="42.039509" lon="-0.179529">
        <ele>527.975</ele>
        <time>2020-08-23T15:18:11Z</time>
      </trkpt>
      <trkpt lat="42.039507" lon="-0.179608">
        <ele>527.962</ele>
        <time>2020-08-23T15:18:13Z</time>
      </trkpt>
      <trkpt lat="42.039493" lon="-0.179690">
        <ele>528.083</ele>
        <time>2020-08-23T15:18:15Z</time>
      </trkpt>
      <trkpt lat="42.039479" lon="-0.179793">
        <ele>528.211</ele>
        <time>2020-08-23T15:18:17Z</time>
      </trkpt>
      <trkpt lat="42.039468" lon="-0.179892">
        <ele>528.308</ele>
        <time>2020-08-23T15:18:19Z</time>
      </trkpt>
      <trkpt lat="42.039465" lon="-0.179955">
        <ele>528.411</ele>
        <time>2020-08-23T15:18:20Z</time>
      </trkpt>
      <trkpt lat="42.039453" lon="-0.180064">
        <ele>528.451</ele>
        <time>2020-08-23T15:18:22Z</time>
      </trkpt>
      <trkpt lat="42.039429" lon="-0.180157">
        <ele>528.469</ele>
        <time>2020-08-23T15:18:24Z</time>
      </trkpt>
      <trkpt lat="42.039395" lon="-0.180261">
        <ele>528.491</ele>
        <time>2020-08-23T15:18:26Z</time>
      </trkpt>
      <trkpt lat="42.039374" lon="-0.180365">
        <ele>528.572</ele>
        <time>2020-08-23T15:18:28Z</time>
      </trkpt>
      <trkpt lat="42.039377" lon="-0.180449">
        <ele>528.733</ele>
        <time>2020-08-23T15:18:30Z</time>
      </trkpt>
      <trkpt lat="42.039377" lon="-0.180530">
        <ele>528.839</ele>
        <time>2020-08-23T15:18:32Z</time>
      </trkpt>
      <trkpt lat="42.039382" lon="-0.180634">
        <ele>528.878</ele>
        <time>2020-08-23T15:18:34Z</time>
      </trkpt>
      <trkpt lat="42.039395" lon="-0.180731">
        <ele>528.724</ele>
        <time>2020-08-23T15:18:36Z</time>
      </trkpt>
      <trkpt lat="42.039390" lon="-0.180814">
        <ele>528.704</ele>
        <time>2020-08-23T15:18:38Z</time>
      </trkpt>
      <trkpt lat="42.039386" lon="-0.180914">
        <ele>528.814</ele>
        <time>2020-08-23T15:18:40Z</time>
      </trkpt>
      <trkpt lat="42.039382" lon="-0.181015">
        <ele>528.908</ele>
        <time>2020-08-23T15:18:42Z</time>
      </trkpt>
      <trkpt lat="42.039378" lon="-0.181104">
        <ele>528.997</ele>
        <time>2020-08-23T15:18:44Z</time>
      </trkpt>
      <trkpt lat="42.039376" lon="-0.181198">
        <ele>528.987</ele>
        <time>2020-08-23T15:18:46Z</time>
      </trkpt>
      <trkpt lat="42.039372" lon="-0.181294">
        <ele>528.955</ele>
        <time>2020-08-23T15:18:48Z</time>
      </trkpt>
      <trkpt lat="42.039365" lon="-0.181401">
        <ele>528.937</ele>
        <time>2020-08-23T15:18:50Z</time>
      </trkpt>
      <trkpt lat="42.039359" lon="-0.181506">
        <ele>529.168</ele>
        <time>2020-08-23T15:18:52Z</time>
      </trkpt>
      <trkpt lat="42.039355" lon="-0.181611">
        <ele>529.329</ele>
        <time>2020-08-23T15:18:54Z</time>
      </trkpt>
      <trkpt lat="42.039345" lon="-0.181707">
        <ele>529.475</ele>
        <time>2020-08-23T15:18:56Z</time>
      </trkpt>
      <trkpt lat="42.039345" lon="-0.181816">
        <ele>529.474</ele>
        <time>2020-08-23T15:18:58Z</time>
      </trkpt>
      <trkpt lat="42.039344" lon="-0.181909">
        <ele>529.485</ele>
        <time>2020-08-23T15:19:00Z</time>
      </trkpt>
      <trkpt lat="42.039327" lon="-0.181990">
        <ele>529.589</ele>
        <time>2020-08-23T15:19:02Z</time>
      </trkpt>
      <trkpt lat="42.039319" lon="-0.182072">
        <ele>529.617</ele>
        <time>2020-08-23T15:19:04Z</time>
      </trkpt>
      <trkpt lat="42.039305" lon="-0.182179">
        <ele>529.608</ele>
        <time>2020-08-23T15:19:06Z</time>
      </trkpt>
      <trkpt lat="42.039311" lon="-0.182267">
        <ele>529.553</ele>
        <time>2020-08-23T15:19:08Z</time>
      </trkpt>
      <trkpt lat="42.039300" lon="-0.182382">
        <ele>529.423</ele>
        <time>2020-08-23T15:19:10Z</time>
      </trkpt>
      <trkpt lat="42.039300" lon="-0.182495">
        <ele>529.411</ele>
        <time>2020-08-23T15:19:12Z</time>
      </trkpt>
      <trkpt lat="42.039305" lon="-0.182557">
        <ele>529.423</ele>
        <time>2020-08-23T15:19:13Z</time>
      </trkpt>
      <trkpt lat="42.039326" lon="-0.182664">
        <ele>529.554</ele>
        <time>2020-08-23T15:19:15Z</time>
      </trkpt>
      <trkpt lat="42.039334" lon="-0.182724">
        <ele>529.595</ele>
        <time>2020-08-23T15:19:16Z</time>
      </trkpt>
      <trkpt lat="42.039357" lon="-0.182827">
        <ele>529.511</ele>
        <time>2020-08-23T15:19:18Z</time>
      </trkpt>
      <trkpt lat="42.039379" lon="-0.182930">
        <ele>529.570</ele>
        <time>2020-08-23T15:19:20Z</time>
      </trkpt>
      <trkpt lat="42.039394" lon="-0.183034">
        <ele>529.429</ele>
        <time>2020-08-23T15:19:22Z</time>
      </trkpt>
      <trkpt lat="42.039395" lon="-0.183139">
        <ele>529.100</ele>
        <time>2020-08-23T15:19:24Z</time>
      </trkpt>
      <trkpt lat="42.039392" lon="-0.183251">
        <ele>529.220</ele>
        <time>2020-08-23T15:19:26Z</time>
      </trkpt>
      <trkpt lat="42.039388" lon="-0.183355">
        <ele>529.508</ele>
        <time>2020-08-23T15:19:28Z</time>
      </trkpt>
      <trkpt lat="42.039381" lon="-0.183475">
        <ele>529.637</ele>
        <time>2020-08-23T15:19:30Z</time>
      </trkpt>
      <trkpt lat="42.039370" lon="-0.183535">
        <ele>529.757</ele>
        <time>2020-08-23T15:19:31Z</time>
      </trkpt>
      <trkpt lat="42.039350" lon="-0.183645">
        <ele>529.865</ele>
        <time>2020-08-23T15:19:33Z</time>
      </trkpt>
      <trkpt lat="42.039317" lon="-0.183748">
        <ele>529.917</ele>
        <time>2020-08-23T15:19:35Z</time>
      </trkpt>
      <trkpt lat="42.039299" lon="-0.183810">
        <ele>530.038</ele>
        <time>2020-08-23T15:19:36Z</time>
      </trkpt>
      <trkpt lat="42.039287" lon="-0.183868">
        <ele>530.069</ele>
        <time>2020-08-23T15:19:37Z</time>
      </trkpt>
      <trkpt lat="42.039272" lon="-0.183927">
        <ele>530.085</ele>
        <time>2020-08-23T15:19:38Z</time>
      </trkpt>
      <trkpt lat="42.039252" lon="-0.184036">
        <ele>529.964</ele>
        <time>2020-08-23T15:19:40Z</time>
      </trkpt>
      <trkpt lat="42.039238" lon="-0.184097">
        <ele>529.852</ele>
        <time>2020-08-23T15:19:41Z</time>
      </trkpt>
      <trkpt lat="42.039216" lon="-0.184205">
        <ele>529.753</ele>
        <time>2020-08-23T15:19:43Z</time>
      </trkpt>
      <trkpt lat="42.039213" lon="-0.184278">
        <ele>529.708</ele>
        <time>2020-08-23T15:19:44Z</time>
      </trkpt>
      <trkpt lat="42.039195" lon="-0.184353">
        <ele>529.708</ele>
        <time>2020-08-23T15:19:45Z</time>
      </trkpt>
      <trkpt lat="42.039181" lon="-0.184427">
        <ele>529.680</ele>
        <time>2020-08-23T15:19:46Z</time>
      </trkpt>
      <trkpt lat="42.039175" lon="-0.184538">
        <ele>529.450</ele>
        <time>2020-08-23T15:19:48Z</time>
      </trkpt>
      <trkpt lat="42.039178" lon="-0.184632">
        <ele>529.198</ele>
        <time>2020-08-23T15:19:50Z</time>
      </trkpt>
      <trkpt lat="42.039188" lon="-0.184730">
        <ele>528.790</ele>
        <time>2020-08-23T15:19:52Z</time>
      </trkpt>
      <trkpt lat="42.039195" lon="-0.184855">
        <ele>528.321</ele>
        <time>2020-08-23T15:19:54Z</time>
      </trkpt>
      <trkpt lat="42.039199" lon="-0.184930">
        <ele>528.162</ele>
        <time>2020-08-23T15:19:55Z</time>
      </trkpt>
      <trkpt lat="42.039211" lon="-0.185042">
        <ele>528.098</ele>
        <time>2020-08-23T15:19:57Z</time>
      </trkpt>
      <trkpt lat="42.039236" lon="-0.185131">
        <ele>528.177</ele>
        <time>2020-08-23T15:19:59Z</time>
      </trkpt>
      <trkpt lat="42.039279" lon="-0.185210">
        <ele>528.374</ele>
        <time>2020-08-23T15:20:01Z</time>
      </trkpt>
      <trkpt lat="42.039320" lon="-0.185276">
        <ele>528.456</ele>
        <time>2020-08-23T15:20:03Z</time>
      </trkpt>
      <trkpt lat="42.039372" lon="-0.185333">
        <ele>528.721</ele>
        <time>2020-08-23T15:20:05Z</time>
      </trkpt>
      <trkpt lat="42.039411" lon="-0.185389">
        <ele>529.008</ele>
        <time>2020-08-23T15:20:07Z</time>
      </trkpt>
      <trkpt lat="42.039420" lon="-0.185475">
        <ele>529.332</ele>
        <time>2020-08-23T15:20:09Z</time>
      </trkpt>
      <trkpt lat="42.039441" lon="-0.185569">
        <ele>529.632</ele>
        <time>2020-08-23T15:20:11Z</time>
      </trkpt>
      <trkpt lat="42.039467" lon="-0.185635">
        <ele>529.810</ele>
        <time>2020-08-23T15:20:13Z</time>
      </trkpt>
      <trkpt lat="42.039510" lon="-0.185703">
        <ele>529.932</ele>
        <time>2020-08-23T15:20:15Z</time>
      </trkpt>
      <trkpt lat="42.039542" lon="-0.185773">
        <ele>530.113</ele>
        <time>2020-08-23T15:20:17Z</time>
      </trkpt>
      <trkpt lat="42.039572" lon="-0.185842">
        <ele>530.424</ele>
        <time>2020-08-23T15:20:19Z</time>
      </trkpt>
      <trkpt lat="42.039603" lon="-0.185919">
        <ele>530.660</ele>
        <time>2020-08-23T15:20:21Z</time>
      </trkpt>
      <trkpt lat="42.039640" lon="-0.186002">
        <ele>530.849</ele>
        <time>2020-08-23T15:20:23Z</time>
      </trkpt>
      <trkpt lat="42.039675" lon="-0.186071">
        <ele>531.076</ele>
        <time>2020-08-23T15:20:25Z</time>
      </trkpt>
      <trkpt lat="42.039719" lon="-0.186137">
        <ele>531.390</ele>
        <time>2020-08-23T15:20:27Z</time>
      </trkpt>
      <trkpt lat="42.039745" lon="-0.186199">
        <ele>531.619</ele>
        <time>2020-08-23T15:20:29Z</time>
      </trkpt>
      <trkpt lat="42.039785" lon="-0.186266">
        <ele>532.008</ele>
        <time>2020-08-23T15:20:31Z</time>
      </trkpt>
      <trkpt lat="42.039820" lon="-0.186320">
        <ele>532.332</ele>
        <time>2020-08-23T15:20:33Z</time>
      </trkpt>
      <trkpt lat="42.039849" lon="-0.186380">
        <ele>532.422</ele>
        <time>2020-08-23T15:20:35Z</time>
      </trkpt>
      <trkpt lat="42.039872" lon="-0.186462">
        <ele>532.420</ele>
        <time>2020-08-23T15:20:37Z</time>
      </trkpt>
      <trkpt lat="42.039895" lon="-0.186531">
        <ele>532.462</ele>
        <time>2020-08-23T15:20:39Z</time>
      </trkpt>
      <trkpt lat="42.039921" lon="-0.186609">
        <ele>532.453</ele>
        <time>2020-08-23T15:20:41Z</time>
      </trkpt>
      <trkpt lat="42.039949" lon="-0.186678">
        <ele>532.464</ele>
        <time>2020-08-23T15:20:43Z</time>
      </trkpt>
      <trkpt lat="42.039973" lon="-0.186749">
        <ele>532.530</ele>
        <time>2020-08-23T15:20:45Z</time>
      </trkpt>
      <trkpt lat="42.039994" lon="-0.186827">
        <ele>532.699</ele>
        <time>2020-08-23T15:20:47Z</time>
      </trkpt>
      <trkpt lat="42.040007" lon="-0.186886">
        <ele>532.892</ele>
        <time>2020-08-23T15:20:49Z</time>
      </trkpt>
      <trkpt lat="42.040019" lon="-0.186970">
        <ele>533.073</ele>
        <time>2020-08-23T15:20:51Z</time>
      </trkpt>
      <trkpt lat="42.040025" lon="-0.187045">
        <ele>533.020</ele>
        <time>2020-08-23T15:20:53Z</time>
      </trkpt>
      <trkpt lat="42.040049" lon="-0.187144">
        <ele>533.108</ele>
        <time>2020-08-23T15:20:55Z</time>
      </trkpt>
      <trkpt lat="42.040073" lon="-0.187227">
        <ele>533.374</ele>
        <time>2020-08-23T15:20:57Z</time>
      </trkpt>
      <trkpt lat="42.040103" lon="-0.187299">
        <ele>533.454</ele>
        <time>2020-08-23T15:20:59Z</time>
      </trkpt>
      <trkpt lat="42.040138" lon="-0.187373">
        <ele>533.512</ele>
        <time>2020-08-23T15:21:01Z</time>
      </trkpt>
      <trkpt lat="42.040178" lon="-0.187430">
        <ele>533.594</ele>
        <time>2020-08-23T15:21:03Z</time>
      </trkpt>
      <trkpt lat="42.040211" lon="-0.187483">
        <ele>533.595</ele>
        <time>2020-08-23T15:21:05Z</time>
      </trkpt>
      <trkpt lat="42.040248" lon="-0.187546">
        <ele>533.526</ele>
        <time>2020-08-23T15:21:07Z</time>
      </trkpt>
      <trkpt lat="42.040291" lon="-0.187602">
        <ele>533.732</ele>
        <time>2020-08-23T15:21:09Z</time>
      </trkpt>
      <trkpt lat="42.040325" lon="-0.187682">
        <ele>533.891</ele>
        <time>2020-08-23T15:21:11Z</time>
      </trkpt>
      <trkpt lat="42.040362" lon="-0.187761">
        <ele>534.042</ele>
        <time>2020-08-23T15:21:13Z</time>
      </trkpt>
      <trkpt lat="42.040393" lon="-0.187834">
        <ele>534.322</ele>
        <time>2020-08-23T15:21:15Z</time>
      </trkpt>
      <trkpt lat="42.040413" lon="-0.187904">
        <ele>534.514</ele>
        <time>2020-08-23T15:21:17Z</time>
      </trkpt>
      <trkpt lat="42.040443" lon="-0.187976">
        <ele>534.508</ele>
        <time>2020-08-23T15:21:19Z</time>
      </trkpt>
      <trkpt lat="42.040467" lon="-0.188079">
        <ele>534.579</ele>
        <time>2020-08-23T15:21:21Z</time>
      </trkpt>
      <trkpt lat="42.040491" lon="-0.188179">
        <ele>534.589</ele>
        <time>2020-08-23T15:21:23Z</time>
      </trkpt>
      <trkpt lat="42.040521" lon="-0.188256">
        <ele>534.447</ele>
        <time>2020-08-23T15:21:25Z</time>
      </trkpt>
      <trkpt lat="42.040564" lon="-0.188324">
        <ele>534.219</ele>
        <time>2020-08-23T15:21:27Z</time>
      </trkpt>
      <trkpt lat="42.040610" lon="-0.188376">
        <ele>534.110</ele>
        <time>2020-08-23T15:21:29Z</time>
      </trkpt>
      <trkpt lat="42.040668" lon="-0.188448">
        <ele>534.291</ele>
        <time>2020-08-23T15:21:31Z</time>
      </trkpt>
      <trkpt lat="42.040736" lon="-0.188517">
        <ele>534.287</ele>
        <time>2020-08-23T15:21:33Z</time>
      </trkpt>
      <trkpt lat="42.040798" lon="-0.188585">
        <ele>534.286</ele>
        <time>2020-08-23T15:21:35Z</time>
      </trkpt>
      <trkpt lat="42.040858" lon="-0.188670">
        <ele>534.361</ele>
        <time>2020-08-23T15:21:37Z</time>
      </trkpt>
      <trkpt lat="42.040923" lon="-0.188743">
        <ele>534.421</ele>
        <time>2020-08-23T15:21:39Z</time>
      </trkpt>
      <trkpt lat="42.040985" lon="-0.188809">
        <ele>534.513</ele>
        <time>2020-08-23T15:21:41Z</time>
      </trkpt>
      <trkpt lat="42.041053" lon="-0.188873">
        <ele>534.608</ele>
        <time>2020-08-23T15:21:43Z</time>
      </trkpt>
      <trkpt lat="42.041117" lon="-0.188944">
        <ele>534.621</ele>
        <time>2020-08-23T15:21:45Z</time>
      </trkpt>
      <trkpt lat="42.041174" lon="-0.189029">
        <ele>534.531</ele>
        <time>2020-08-23T15:21:47Z</time>
      </trkpt>
      <trkpt lat="42.041203" lon="-0.189083">
        <ele>534.549</ele>
        <time>2020-08-23T15:21:48Z</time>
      </trkpt>
      <trkpt lat="42.041233" lon="-0.189188">
        <ele>534.411</ele>
        <time>2020-08-23T15:21:50Z</time>
      </trkpt>
      <trkpt lat="42.041258" lon="-0.189295">
        <ele>534.482</ele>
        <time>2020-08-23T15:21:52Z</time>
      </trkpt>
      <trkpt lat="42.041283" lon="-0.189408">
        <ele>534.393</ele>
        <time>2020-08-23T15:21:54Z</time>
      </trkpt>
      <trkpt lat="42.041311" lon="-0.189500">
        <ele>534.249</ele>
        <time>2020-08-23T15:21:56Z</time>
      </trkpt>
      <trkpt lat="42.041333" lon="-0.189554">
        <ele>534.278</ele>
        <time>2020-08-23T15:21:57Z</time>
      </trkpt>
      <trkpt lat="42.041352" lon="-0.189613">
        <ele>534.252</ele>
        <time>2020-08-23T15:21:58Z</time>
      </trkpt>
      <trkpt lat="42.041381" lon="-0.189721">
        <ele>534.453</ele>
        <time>2020-08-23T15:22:00Z</time>
      </trkpt>
      <trkpt lat="42.041408" lon="-0.189818">
        <ele>534.708</ele>
        <time>2020-08-23T15:22:02Z</time>
      </trkpt>
      <trkpt lat="42.041431" lon="-0.189912">
        <ele>535.008</ele>
        <time>2020-08-23T15:22:04Z</time>
      </trkpt>
      <trkpt lat="42.041450" lon="-0.190000">
        <ele>535.190</ele>
        <time>2020-08-23T15:22:06Z</time>
      </trkpt>
      <trkpt lat="42.041472" lon="-0.190098">
        <ele>535.170</ele>
        <time>2020-08-23T15:22:08Z</time>
      </trkpt>
      <trkpt lat="42.041482" lon="-0.190157">
        <ele>535.018</ele>
        <time>2020-08-23T15:22:09Z</time>
      </trkpt>
      <trkpt lat="42.041501" lon="-0.190257">
        <ele>534.990</ele>
        <time>2020-08-23T15:22:11Z</time>
      </trkpt>
      <trkpt lat="42.041524" lon="-0.190346">
        <ele>535.161</ele>
        <time>2020-08-23T15:22:13Z</time>
      </trkpt>
      <trkpt lat="42.041552" lon="-0.190431">
        <ele>535.352</ele>
        <time>2020-08-23T15:22:15Z</time>
      </trkpt>
      <trkpt lat="42.041585" lon="-0.190508">
        <ele>535.448</ele>
        <time>2020-08-23T15:22:17Z</time>
      </trkpt>
      <trkpt lat="42.041621" lon="-0.190576">
        <ele>535.497</ele>
        <time>2020-08-23T15:22:19Z</time>
      </trkpt>
      <trkpt lat="42.041663" lon="-0.190656">
        <ele>535.574</ele>
        <time>2020-08-23T15:22:21Z</time>
      </trkpt>
      <trkpt lat="42.041700" lon="-0.190739">
        <ele>535.756</ele>
        <time>2020-08-23T15:22:23Z</time>
      </trkpt>
      <trkpt lat="42.041735" lon="-0.190821">
        <ele>535.921</ele>
        <time>2020-08-23T15:22:25Z</time>
      </trkpt>
      <trkpt lat="42.041768" lon="-0.190911">
        <ele>536.008</ele>
        <time>2020-08-23T15:22:27Z</time>
      </trkpt>
      <trkpt lat="42.041796" lon="-0.190996">
        <ele>536.122</ele>
        <time>2020-08-23T15:22:29Z</time>
      </trkpt>
      <trkpt lat="42.041822" lon="-0.191062">
        <ele>536.112</ele>
        <time>2020-08-23T15:22:31Z</time>
      </trkpt>
      <trkpt lat="42.041853" lon="-0.191158">
        <ele>536.080</ele>
        <time>2020-08-23T15:22:33Z</time>
      </trkpt>
      <trkpt lat="42.041881" lon="-0.191235">
        <ele>536.092</ele>
        <time>2020-08-23T15:22:35Z</time>
      </trkpt>
      <trkpt lat="42.041901" lon="-0.191293">
        <ele>536.053</ele>
        <time>2020-08-23T15:22:36Z</time>
      </trkpt>
      <trkpt lat="42.041932" lon="-0.191400">
        <ele>536.124</ele>
        <time>2020-08-23T15:22:38Z</time>
      </trkpt>
      <trkpt lat="42.041957" lon="-0.191502">
        <ele>536.170</ele>
        <time>2020-08-23T15:22:40Z</time>
      </trkpt>
      <trkpt lat="42.041970" lon="-0.191600">
        <ele>536.199</ele>
        <time>2020-08-23T15:22:42Z</time>
      </trkpt>
      <trkpt lat="42.041985" lon="-0.191700">
        <ele>536.234</ele>
        <time>2020-08-23T15:22:44Z</time>
      </trkpt>
      <trkpt lat="42.041998" lon="-0.191798">
        <ele>536.255</ele>
        <time>2020-08-23T15:22:46Z</time>
      </trkpt>
      <trkpt lat="42.042018" lon="-0.191896">
        <ele>536.210</ele>
        <time>2020-08-23T15:22:48Z</time>
      </trkpt>
      <trkpt lat="42.042040" lon="-0.191999">
        <ele>536.308</ele>
        <time>2020-08-23T15:22:50Z</time>
      </trkpt>
      <trkpt lat="42.042063" lon="-0.192092">
        <ele>536.588</ele>
        <time>2020-08-23T15:22:52Z</time>
      </trkpt>
      <trkpt lat="42.042097" lon="-0.192183">
        <ele>536.658</ele>
        <time>2020-08-23T15:22:54Z</time>
      </trkpt>
      <trkpt lat="42.042127" lon="-0.192277">
        <ele>536.746</ele>
        <time>2020-08-23T15:22:56Z</time>
      </trkpt>
      <trkpt lat="42.042156" lon="-0.192370">
        <ele>537.098</ele>
        <time>2020-08-23T15:22:58Z</time>
      </trkpt>
      <trkpt lat="42.042177" lon="-0.192449">
        <ele>537.159</ele>
        <time>2020-08-23T15:23:00Z</time>
      </trkpt>
      <trkpt lat="42.042198" lon="-0.192541">
        <ele>537.190</ele>
        <time>2020-08-23T15:23:02Z</time>
      </trkpt>
      <trkpt lat="42.042220" lon="-0.192632">
        <ele>536.926</ele>
        <time>2020-08-23T15:23:04Z</time>
      </trkpt>
      <trkpt lat="42.042232" lon="-0.192736">
        <ele>536.725</ele>
        <time>2020-08-23T15:23:06Z</time>
      </trkpt>
      <trkpt lat="42.042231" lon="-0.192847">
        <ele>536.635</ele>
        <time>2020-08-23T15:23:08Z</time>
      </trkpt>
      <trkpt lat="42.042232" lon="-0.192966">
        <ele>536.686</ele>
        <time>2020-08-23T15:23:10Z</time>
      </trkpt>
      <trkpt lat="42.042222" lon="-0.193072">
        <ele>536.614</ele>
        <time>2020-08-23T15:23:12Z</time>
      </trkpt>
      <trkpt lat="42.042204" lon="-0.193146">
        <ele>536.708</ele>
        <time>2020-08-23T15:23:14Z</time>
      </trkpt>
      <trkpt lat="42.042197" lon="-0.193225">
        <ele>536.898</ele>
        <time>2020-08-23T15:23:16Z</time>
      </trkpt>
      <trkpt lat="42.042189" lon="-0.193321">
        <ele>537.068</ele>
        <time>2020-08-23T15:23:18Z</time>
      </trkpt>
      <trkpt lat="42.042174" lon="-0.193411">
        <ele>537.236</ele>
        <time>2020-08-23T15:23:20Z</time>
      </trkpt>
      <trkpt lat="42.042146" lon="-0.193503">
        <ele>537.488</ele>
        <time>2020-08-23T15:23:22Z</time>
      </trkpt>
      <trkpt lat="42.042129" lon="-0.193592">
        <ele>537.689</ele>
        <time>2020-08-23T15:23:24Z</time>
      </trkpt>
      <trkpt lat="42.042123" lon="-0.193688">
        <ele>537.680</ele>
        <time>2020-08-23T15:23:26Z</time>
      </trkpt>
      <trkpt lat="42.042110" lon="-0.193793">
        <ele>537.636</ele>
        <time>2020-08-23T15:23:28Z</time>
      </trkpt>
      <trkpt lat="42.042087" lon="-0.193908">
        <ele>537.615</ele>
        <time>2020-08-23T15:23:30Z</time>
      </trkpt>
      <trkpt lat="42.042078" lon="-0.193967">
        <ele>537.633</ele>
        <time>2020-08-23T15:23:31Z</time>
      </trkpt>
      <trkpt lat="42.042073" lon="-0.194066">
        <ele>537.623</ele>
        <time>2020-08-23T15:23:33Z</time>
      </trkpt>
      <trkpt lat="42.042077" lon="-0.194164">
        <ele>537.615</ele>
        <time>2020-08-23T15:23:35Z</time>
      </trkpt>
      <trkpt lat="42.042103" lon="-0.194243">
        <ele>537.608</ele>
        <time>2020-08-23T15:23:37Z</time>
      </trkpt>
      <trkpt lat="42.042124" lon="-0.194347">
        <ele>537.718</ele>
        <time>2020-08-23T15:23:39Z</time>
      </trkpt>
      <trkpt lat="42.042144" lon="-0.194444">
        <ele>537.938</ele>
        <time>2020-08-23T15:23:41Z</time>
      </trkpt>
      <trkpt lat="42.042163" lon="-0.194534">
        <ele>538.026</ele>
        <time>2020-08-23T15:23:43Z</time>
      </trkpt>
      <trkpt lat="42.042184" lon="-0.194621">
        <ele>538.178</ele>
        <time>2020-08-23T15:23:45Z</time>
      </trkpt>
      <trkpt lat="42.042212" lon="-0.194711">
        <ele>538.299</ele>
        <time>2020-08-23T15:23:47Z</time>
      </trkpt>
      <trkpt lat="42.042249" lon="-0.194802">
        <ele>538.340</ele>
        <time>2020-08-23T15:23:49Z</time>
      </trkpt>
      <trkpt lat="42.042285" lon="-0.194887">
        <ele>538.346</ele>
        <time>2020-08-23T15:23:51Z</time>
      </trkpt>
      <trkpt lat="42.042318" lon="-0.194970">
        <ele>538.455</ele>
        <time>2020-08-23T15:23:53Z</time>
      </trkpt>
      <trkpt lat="42.042346" lon="-0.195055">
        <ele>538.478</ele>
        <time>2020-08-23T15:23:55Z</time>
      </trkpt>
      <trkpt lat="42.042377" lon="-0.195155">
        <ele>538.533</ele>
        <time>2020-08-23T15:23:57Z</time>
      </trkpt>
      <trkpt lat="42.042407" lon="-0.195252">
        <ele>538.726</ele>
        <time>2020-08-23T15:23:59Z</time>
      </trkpt>
      <trkpt lat="42.042439" lon="-0.195352">
        <ele>538.908</ele>
        <time>2020-08-23T15:24:01Z</time>
      </trkpt>
      <trkpt lat="42.042466" lon="-0.195443">
        <ele>539.072</ele>
        <time>2020-08-23T15:24:03Z</time>
      </trkpt>
      <trkpt lat="42.042498" lon="-0.195546">
        <ele>539.032</ele>
        <time>2020-08-23T15:24:05Z</time>
      </trkpt>
      <trkpt lat="42.042524" lon="-0.195635">
        <ele>539.030</ele>
        <time>2020-08-23T15:24:07Z</time>
      </trkpt>
      <trkpt lat="42.042554" lon="-0.195705">
        <ele>539.142</ele>
        <time>2020-08-23T15:24:09Z</time>
      </trkpt>
      <trkpt lat="42.042585" lon="-0.195799">
        <ele>539.223</ele>
        <time>2020-08-23T15:24:11Z</time>
      </trkpt>
      <trkpt lat="42.042614" lon="-0.195893">
        <ele>539.434</ele>
        <time>2020-08-23T15:24:13Z</time>
      </trkpt>
      <trkpt lat="42.042641" lon="-0.195999">
        <ele>539.770</ele>
        <time>2020-08-23T15:24:15Z</time>
      </trkpt>
      <trkpt lat="42.042665" lon="-0.196094">
        <ele>539.819</ele>
        <time>2020-08-23T15:24:17Z</time>
      </trkpt>
      <trkpt lat="42.042689" lon="-0.196178">
        <ele>539.951</ele>
        <time>2020-08-23T15:24:19Z</time>
      </trkpt>
      <trkpt lat="42.042713" lon="-0.196276">
        <ele>540.001</ele>
        <time>2020-08-23T15:24:21Z</time>
      </trkpt>
      <trkpt lat="42.042734" lon="-0.196382">
        <ele>540.211</ele>
        <time>2020-08-23T15:24:23Z</time>
      </trkpt>
      <trkpt lat="42.042753" lon="-0.196486">
        <ele>540.208</ele>
        <time>2020-08-23T15:24:25Z</time>
      </trkpt>
      <trkpt lat="42.042753" lon="-0.196593">
        <ele>540.250</ele>
        <time>2020-08-23T15:24:27Z</time>
      </trkpt>
      <trkpt lat="42.042737" lon="-0.196696">
        <ele>540.320</ele>
        <time>2020-08-23T15:24:29Z</time>
      </trkpt>
      <trkpt lat="42.042725" lon="-0.196805">
        <ele>540.518</ele>
        <time>2020-08-23T15:24:31Z</time>
      </trkpt>
      <trkpt lat="42.042715" lon="-0.196908">
        <ele>540.620</ele>
        <time>2020-08-23T15:24:33Z</time>
      </trkpt>
      <trkpt lat="42.042716" lon="-0.197019">
        <ele>540.771</ele>
        <time>2020-08-23T15:24:35Z</time>
      </trkpt>
      <trkpt lat="42.042716" lon="-0.197083">
        <ele>540.822</ele>
        <time>2020-08-23T15:24:36Z</time>
      </trkpt>
      <trkpt lat="42.042717" lon="-0.197147">
        <ele>540.818</ele>
        <time>2020-08-23T15:24:37Z</time>
      </trkpt>
      <trkpt lat="42.042724" lon="-0.197256">
        <ele>540.917</ele>
        <time>2020-08-23T15:24:39Z</time>
      </trkpt>
      <trkpt lat="42.042738" lon="-0.197363">
        <ele>540.993</ele>
        <time>2020-08-23T15:24:41Z</time>
      </trkpt>
      <trkpt lat="42.042756" lon="-0.197464">
        <ele>540.865</ele>
        <time>2020-08-23T15:24:43Z</time>
      </trkpt>
      <trkpt lat="42.042772" lon="-0.197570">
        <ele>540.721</ele>
        <time>2020-08-23T15:24:45Z</time>
      </trkpt>
      <trkpt lat="42.042797" lon="-0.197662">
        <ele>540.708</ele>
        <time>2020-08-23T15:24:47Z</time>
      </trkpt>
      <trkpt lat="42.042825" lon="-0.197772">
        <ele>540.974</ele>
        <time>2020-08-23T15:24:49Z</time>
      </trkpt>
      <trkpt lat="42.042846" lon="-0.197878">
        <ele>541.074</ele>
        <time>2020-08-23T15:24:51Z</time>
      </trkpt>
      <trkpt lat="42.042869" lon="-0.197987">
        <ele>541.082</ele>
        <time>2020-08-23T15:24:53Z</time>
      </trkpt>
      <trkpt lat="42.042884" lon="-0.198089">
        <ele>541.084</ele>
        <time>2020-08-23T15:24:55Z</time>
      </trkpt>
      <trkpt lat="42.042900" lon="-0.198193">
        <ele>541.275</ele>
        <time>2020-08-23T15:24:57Z</time>
      </trkpt>
      <trkpt lat="42.042915" lon="-0.198281">
        <ele>541.496</ele>
        <time>2020-08-23T15:24:59Z</time>
      </trkpt>
      <trkpt lat="42.042935" lon="-0.198381">
        <ele>541.612</ele>
        <time>2020-08-23T15:25:01Z</time>
      </trkpt>
      <trkpt lat="42.042960" lon="-0.198485">
        <ele>541.851</ele>
        <time>2020-08-23T15:25:03Z</time>
      </trkpt>
      <trkpt lat="42.042967" lon="-0.198589">
        <ele>541.993</ele>
        <time>2020-08-23T15:25:05Z</time>
      </trkpt>
      <trkpt lat="42.042960" lon="-0.198697">
        <ele>542.065</ele>
        <time>2020-08-23T15:25:07Z</time>
      </trkpt>
      <trkpt lat="42.042949" lon="-0.198812">
        <ele>542.121</ele>
        <time>2020-08-23T15:25:09Z</time>
      </trkpt>
      <trkpt lat="42.042939" lon="-0.198872">
        <ele>542.108</ele>
        <time>2020-08-23T15:25:10Z</time>
      </trkpt>
      <trkpt lat="42.042937" lon="-0.198989">
        <ele>542.184</ele>
        <time>2020-08-23T15:25:12Z</time>
      </trkpt>
      <trkpt lat="42.042938" lon="-0.199065">
        <ele>542.294</ele>
        <time>2020-08-23T15:25:13Z</time>
      </trkpt>
      <trkpt lat="42.042936" lon="-0.199153">
        <ele>542.352</ele>
        <time>2020-08-23T15:25:15Z</time>
      </trkpt>
      <trkpt lat="42.042951" lon="-0.199256">
        <ele>542.034</ele>
        <time>2020-08-23T15:25:17Z</time>
      </trkpt>
      <trkpt lat="42.042956" lon="-0.199359">
        <ele>541.825</ele>
        <time>2020-08-23T15:25:19Z</time>
      </trkpt>
      <trkpt lat="42.042967" lon="-0.199465">
        <ele>541.996</ele>
        <time>2020-08-23T15:25:21Z</time>
      </trkpt>
      <trkpt lat="42.042969" lon="-0.199583">
        <ele>541.942</ele>
        <time>2020-08-23T15:25:23Z</time>
      </trkpt>
      <trkpt lat="42.042953" lon="-0.199697">
        <ele>541.711</ele>
        <time>2020-08-23T15:25:25Z</time>
      </trkpt>
      <trkpt lat="42.042941" lon="-0.199756">
        <ele>541.689</ele>
        <time>2020-08-23T15:25:26Z</time>
      </trkpt>
      <trkpt lat="42.042919" lon="-0.199850">
        <ele>541.306</ele>
        <time>2020-08-23T15:25:28Z</time>
      </trkpt>
      <trkpt lat="42.042883" lon="-0.199932">
        <ele>540.726</ele>
        <time>2020-08-23T15:25:30Z</time>
      </trkpt>
      <trkpt lat="42.042836" lon="-0.200020">
        <ele>540.408</ele>
        <time>2020-08-23T15:25:32Z</time>
      </trkpt>
      <trkpt lat="42.042809" lon="-0.200102">
        <ele>540.163</ele>
        <time>2020-08-23T15:25:34Z</time>
      </trkpt>
      <trkpt lat="42.042819" lon="-0.200163">
        <ele>540.083</ele>
        <time>2020-08-23T15:25:36Z</time>
      </trkpt>
      <trkpt lat="42.042860" lon="-0.200225">
        <ele>539.991</ele>
        <time>2020-08-23T15:25:39Z</time>
      </trkpt>
      <trkpt lat="42.042896" lon="-0.200268">
        <ele>539.533</ele>
        <time>2020-08-23T15:25:41Z</time>
      </trkpt>
      <trkpt lat="42.042928" lon="-0.200322">
        <ele>538.774</ele>
        <time>2020-08-23T15:25:43Z</time>
      </trkpt>
      <trkpt lat="42.042970" lon="-0.200382">
        <ele>537.985</ele>
        <time>2020-08-23T15:25:45Z</time>
      </trkpt>
      <trkpt lat="42.043012" lon="-0.200449">
        <ele>537.111</ele>
        <time>2020-08-23T15:25:47Z</time>
      </trkpt>
      <trkpt lat="42.043064" lon="-0.200502">
        <ele>536.270</ele>
        <time>2020-08-23T15:25:49Z</time>
      </trkpt>
      <trkpt lat="42.043112" lon="-0.200547">
        <ele>535.348</ele>
        <time>2020-08-23T15:25:51Z</time>
      </trkpt>
      <trkpt lat="42.043153" lon="-0.200589">
        <ele>534.461</ele>
        <time>2020-08-23T15:25:53Z</time>
      </trkpt>
      <trkpt lat="42.043223" lon="-0.200634">
        <ele>533.717</ele>
        <time>2020-08-23T15:25:55Z</time>
      </trkpt>
      <trkpt lat="42.043296" lon="-0.200663">
        <ele>533.108</ele>
        <time>2020-08-23T15:25:57Z</time>
      </trkpt>
      <trkpt lat="42.043371" lon="-0.200675">
        <ele>532.669</ele>
        <time>2020-08-23T15:25:59Z</time>
      </trkpt>
      <trkpt lat="42.043421" lon="-0.200685">
        <ele>532.459</ele>
        <time>2020-08-23T15:26:00Z</time>
      </trkpt>
      <trkpt lat="42.043470" lon="-0.200682">
        <ele>532.347</ele>
        <time>2020-08-23T15:26:01Z</time>
      </trkpt>
      <trkpt lat="42.043518" lon="-0.200655">
        <ele>532.269</ele>
        <time>2020-08-23T15:26:02Z</time>
      </trkpt>
      <trkpt lat="42.043561" lon="-0.200621">
        <ele>532.010</ele>
        <time>2020-08-23T15:26:03Z</time>
      </trkpt>
      <trkpt lat="42.043600" lon="-0.200587">
        <ele>531.981</ele>
        <time>2020-08-23T15:26:04Z</time>
      </trkpt>
      <trkpt lat="42.043642" lon="-0.200556">
        <ele>531.887</ele>
        <time>2020-08-23T15:26:05Z</time>
      </trkpt>
      <trkpt lat="42.043689" lon="-0.200537">
        <ele>531.676</ele>
        <time>2020-08-23T15:26:06Z</time>
      </trkpt>
      <trkpt lat="42.043769" lon="-0.200525">
        <ele>531.222</ele>
        <time>2020-08-23T15:26:08Z</time>
      </trkpt>
      <trkpt lat="42.043816" lon="-0.200526">
        <ele>531.062</ele>
        <time>2020-08-23T15:26:09Z</time>
      </trkpt>
      <trkpt lat="42.043893" lon="-0.200534">
        <ele>530.608</ele>
        <time>2020-08-23T15:26:11Z</time>
      </trkpt>
      <trkpt lat="42.043956" lon="-0.200571">
        <ele>530.408</ele>
        <time>2020-08-23T15:26:13Z</time>
      </trkpt>
      <trkpt lat="42.043996" lon="-0.200638">
        <ele>530.377</ele>
        <time>2020-08-23T15:26:15Z</time>
      </trkpt>
      <trkpt lat="42.044041" lon="-0.200709">
        <ele>529.977</ele>
        <time>2020-08-23T15:26:17Z</time>
      </trkpt>
      <trkpt lat="42.044077" lon="-0.200785">
        <ele>529.665</ele>
        <time>2020-08-23T15:26:19Z</time>
      </trkpt>
      <trkpt lat="42.044119" lon="-0.200869">
        <ele>529.387</ele>
        <time>2020-08-23T15:26:21Z</time>
      </trkpt>
      <trkpt lat="42.044155" lon="-0.200975">
        <ele>529.138</ele>
        <time>2020-08-23T15:26:23Z</time>
      </trkpt>
      <trkpt lat="42.044181" lon="-0.201090">
        <ele>528.889</ele>
        <time>2020-08-23T15:26:25Z</time>
      </trkpt>
      <trkpt lat="42.044191" lon="-0.201149">
        <ele>528.745</ele>
        <time>2020-08-23T15:26:26Z</time>
      </trkpt>
      <trkpt lat="42.044198" lon="-0.201211">
        <ele>528.594</ele>
        <time>2020-08-23T15:26:27Z</time>
      </trkpt>
      <trkpt lat="42.044209" lon="-0.201272">
        <ele>528.434</ele>
        <time>2020-08-23T15:26:28Z</time>
      </trkpt>
      <trkpt lat="42.044212" lon="-0.201337">
        <ele>528.355</ele>
        <time>2020-08-23T15:26:29Z</time>
      </trkpt>
      <trkpt lat="42.044227" lon="-0.201458">
        <ele>528.010</ele>
        <time>2020-08-23T15:26:31Z</time>
      </trkpt>
      <trkpt lat="42.044237" lon="-0.201517">
        <ele>527.908</ele>
        <time>2020-08-23T15:26:32Z</time>
      </trkpt>
      <trkpt lat="42.044250" lon="-0.201577">
        <ele>527.918</ele>
        <time>2020-08-23T15:26:33Z</time>
      </trkpt>
      <trkpt lat="42.044269" lon="-0.201685">
        <ele>527.818</ele>
        <time>2020-08-23T15:26:35Z</time>
      </trkpt>
      <trkpt lat="42.044285" lon="-0.201792">
        <ele>527.676</ele>
        <time>2020-08-23T15:26:37Z</time>
      </trkpt>
      <trkpt lat="42.044301" lon="-0.201896">
        <ele>527.298</ele>
        <time>2020-08-23T15:26:39Z</time>
      </trkpt>
      <trkpt lat="42.044321" lon="-0.202007">
        <ele>526.829</ele>
        <time>2020-08-23T15:26:41Z</time>
      </trkpt>
      <trkpt lat="42.044354" lon="-0.202113">
        <ele>526.680</ele>
        <time>2020-08-23T15:26:43Z</time>
      </trkpt>
      <trkpt lat="42.044382" lon="-0.202164">
        <ele>526.596</ele>
        <time>2020-08-23T15:26:44Z</time>
      </trkpt>
      <trkpt lat="42.044408" lon="-0.202220">
        <ele>526.485</ele>
        <time>2020-08-23T15:26:45Z</time>
      </trkpt>
      <trkpt lat="42.044459" lon="-0.202315">
        <ele>526.367</ele>
        <time>2020-08-23T15:26:47Z</time>
      </trkpt>
      <trkpt lat="42.044512" lon="-0.202405">
        <ele>526.181</ele>
        <time>2020-08-23T15:26:49Z</time>
      </trkpt>
      <trkpt lat="42.044559" lon="-0.202498">
        <ele>525.919</ele>
        <time>2020-08-23T15:26:51Z</time>
      </trkpt>
      <trkpt lat="42.044603" lon="-0.202605">
        <ele>525.708</ele>
        <time>2020-08-23T15:26:53Z</time>
      </trkpt>
      <trkpt lat="42.044647" lon="-0.202692">
        <ele>525.421</ele>
        <time>2020-08-23T15:26:55Z</time>
      </trkpt>
      <trkpt lat="42.044676" lon="-0.202791">
        <ele>525.161</ele>
        <time>2020-08-23T15:26:57Z</time>
      </trkpt>
      <trkpt lat="42.044702" lon="-0.202901">
        <ele>524.839</ele>
        <time>2020-08-23T15:26:59Z</time>
      </trkpt>
      <trkpt lat="42.044731" lon="-0.203008">
        <ele>524.721</ele>
        <time>2020-08-23T15:27:01Z</time>
      </trkpt>
      <trkpt lat="42.044762" lon="-0.203121">
        <ele>524.522</ele>
        <time>2020-08-23T15:27:03Z</time>
      </trkpt>
      <trkpt lat="42.044804" lon="-0.203233">
        <ele>524.263</ele>
        <time>2020-08-23T15:27:05Z</time>
      </trkpt>
      <trkpt lat="42.044824" lon="-0.203301">
        <ele>524.029</ele>
        <time>2020-08-23T15:27:06Z</time>
      </trkpt>
      <trkpt lat="42.044845" lon="-0.203370">
        <ele>523.958</ele>
        <time>2020-08-23T15:27:07Z</time>
      </trkpt>
      <trkpt lat="42.044866" lon="-0.203435">
        <ele>523.739</ele>
        <time>2020-08-23T15:27:08Z</time>
      </trkpt>
      <trkpt lat="42.044888" lon="-0.203491">
        <ele>523.701</ele>
        <time>2020-08-23T15:27:09Z</time>
      </trkpt>
      <trkpt lat="42.044910" lon="-0.203552">
        <ele>523.621</ele>
        <time>2020-08-23T15:27:10Z</time>
      </trkpt>
      <trkpt lat="42.044939" lon="-0.203658">
        <ele>523.408</ele>
        <time>2020-08-23T15:27:12Z</time>
      </trkpt>
      <trkpt lat="42.044959" lon="-0.203749">
        <ele>523.238</ele>
        <time>2020-08-23T15:27:14Z</time>
      </trkpt>
      <trkpt lat="42.044986" lon="-0.203837">
        <ele>523.098</ele>
        <time>2020-08-23T15:27:16Z</time>
      </trkpt>
      <trkpt lat="42.045022" lon="-0.203947">
        <ele>522.826</ele>
        <time>2020-08-23T15:27:18Z</time>
      </trkpt>
      <trkpt lat="42.045042" lon="-0.204003">
        <ele>522.788</ele>
        <time>2020-08-23T15:27:19Z</time>
      </trkpt>
      <trkpt lat="42.045059" lon="-0.204060">
        <ele>522.689</ele>
        <time>2020-08-23T15:27:20Z</time>
      </trkpt>
      <trkpt lat="42.045079" lon="-0.204116">
        <ele>522.590</ele>
        <time>2020-08-23T15:27:21Z</time>
      </trkpt>
      <trkpt lat="42.045107" lon="-0.204215">
        <ele>522.386</ele>
        <time>2020-08-23T15:27:23Z</time>
      </trkpt>
      <trkpt lat="42.045134" lon="-0.204303">
        <ele>522.135</ele>
        <time>2020-08-23T15:27:25Z</time>
      </trkpt>
      <trkpt lat="42.045159" lon="-0.204382">
        <ele>521.935</ele>
        <time>2020-08-23T15:27:27Z</time>
      </trkpt>
      <trkpt lat="42.045191" lon="-0.204450">
        <ele>521.586</ele>
        <time>2020-08-23T15:27:29Z</time>
      </trkpt>
      <trkpt lat="42.045209" lon="-0.204509">
        <ele>520.914</ele>
        <time>2020-08-23T15:27:32Z</time>
      </trkpt>
      <trkpt lat="42.045232" lon="-0.204456">
        <ele>520.608</ele>
        <time>2020-08-23T15:27:46Z</time>
      </trkpt>
      <trkpt lat="42.045252" lon="-0.204398">
        <ele>520.548</ele>
        <time>2020-08-23T15:27:58Z</time>
      </trkpt>
      <trkpt lat="42.045290" lon="-0.204488">
        <ele>520.868</ele>
        <time>2020-08-23T15:28:11Z</time>
      </trkpt>
      <trkpt lat="42.045303" lon="-0.204546">
        <ele>520.836</ele>
        <time>2020-08-23T15:28:12Z</time>
      </trkpt>
      <trkpt lat="42.045341" lon="-0.204656">
        <ele>520.988</ele>
        <time>2020-08-23T15:28:14Z</time>
      </trkpt>
      <trkpt lat="42.045385" lon="-0.204768">
        <ele>520.999</ele>
        <time>2020-08-23T15:28:16Z</time>
      </trkpt>
      <trkpt lat="42.045406" lon="-0.204822">
        <ele>520.750</ele>
        <time>2020-08-23T15:28:17Z</time>
      </trkpt>
      <trkpt lat="42.045450" lon="-0.204931">
        <ele>520.526</ele>
        <time>2020-08-23T15:28:19Z</time>
      </trkpt>
      <trkpt lat="42.045471" lon="-0.204991">
        <ele>520.375</ele>
        <time>2020-08-23T15:28:20Z</time>
      </trkpt>
      <trkpt lat="42.045492" lon="-0.205050">
        <ele>520.162</ele>
        <time>2020-08-23T15:28:21Z</time>
      </trkpt>
      <trkpt lat="42.045517" lon="-0.205105">
        <ele>520.083</ele>
        <time>2020-08-23T15:28:22Z</time>
      </trkpt>
      <trkpt lat="42.045546" lon="-0.205164">
        <ele>519.711</ele>
        <time>2020-08-23T15:28:23Z</time>
      </trkpt>
      <trkpt lat="42.045571" lon="-0.205219">
        <ele>519.408</ele>
        <time>2020-08-23T15:28:24Z</time>
      </trkpt>
      <trkpt lat="42.045592" lon="-0.205275">
        <ele>519.191</ele>
        <time>2020-08-23T15:28:25Z</time>
      </trkpt>
      <trkpt lat="42.045610" lon="-0.205331">
        <ele>518.721</ele>
        <time>2020-08-23T15:28:26Z</time>
      </trkpt>
      <trkpt lat="42.045632" lon="-0.205445">
        <ele>518.519</ele>
        <time>2020-08-23T15:28:28Z</time>
      </trkpt>
      <trkpt lat="42.045647" lon="-0.205557">
        <ele>518.581</ele>
        <time>2020-08-23T15:28:30Z</time>
      </trkpt>
      <trkpt lat="42.045665" lon="-0.205672">
        <ele>518.392</ele>
        <time>2020-08-23T15:28:32Z</time>
      </trkpt>
      <trkpt lat="42.045677" lon="-0.205738">
        <ele>518.213</ele>
        <time>2020-08-23T15:28:33Z</time>
      </trkpt>
      <trkpt lat="42.045692" lon="-0.205808">
        <ele>518.039</ele>
        <time>2020-08-23T15:28:34Z</time>
      </trkpt>
      <trkpt lat="42.045701" lon="-0.205872">
        <ele>517.878</ele>
        <time>2020-08-23T15:28:35Z</time>
      </trkpt>
      <trkpt lat="42.045710" lon="-0.205935">
        <ele>517.716</ele>
        <time>2020-08-23T15:28:36Z</time>
      </trkpt>
      <trkpt lat="42.045718" lon="-0.205997">
        <ele>517.776</ele>
        <time>2020-08-23T15:28:37Z</time>
      </trkpt>
      <trkpt lat="42.045729" lon="-0.206061">
        <ele>517.613</ele>
        <time>2020-08-23T15:28:38Z</time>
      </trkpt>
      <trkpt lat="42.045742" lon="-0.206126">
        <ele>517.608</ele>
        <time>2020-08-23T15:28:39Z</time>
      </trkpt>
      <trkpt lat="42.045752" lon="-0.206189">
        <ele>517.636</ele>
        <time>2020-08-23T15:28:40Z</time>
      </trkpt>
      <trkpt lat="42.045767" lon="-0.206303">
        <ele>517.676</ele>
        <time>2020-08-23T15:28:42Z</time>
      </trkpt>
      <trkpt lat="42.045793" lon="-0.206409">
        <ele>517.794</ele>
        <time>2020-08-23T15:28:44Z</time>
      </trkpt>
      <trkpt lat="42.045810" lon="-0.206511">
        <ele>517.796</ele>
        <time>2020-08-23T15:28:46Z</time>
      </trkpt>
      <trkpt lat="42.045829" lon="-0.206607">
        <ele>517.567</ele>
        <time>2020-08-23T15:28:48Z</time>
      </trkpt>
      <trkpt lat="42.045857" lon="-0.206723">
        <ele>517.348</ele>
        <time>2020-08-23T15:28:50Z</time>
      </trkpt>
      <trkpt lat="42.045869" lon="-0.206785">
        <ele>517.354</ele>
        <time>2020-08-23T15:28:51Z</time>
      </trkpt>
      <trkpt lat="42.045887" lon="-0.206843">
        <ele>517.323</ele>
        <time>2020-08-23T15:28:52Z</time>
      </trkpt>
      <trkpt lat="42.045930" lon="-0.206937">
        <ele>517.247</ele>
        <time>2020-08-23T15:28:54Z</time>
      </trkpt>
      <trkpt lat="42.045959" lon="-0.207034">
        <ele>517.129</ele>
        <time>2020-08-23T15:28:56Z</time>
      </trkpt>
      <trkpt lat="42.045974" lon="-0.207096">
        <ele>517.021</ele>
        <time>2020-08-23T15:28:57Z</time>
      </trkpt>
      <trkpt lat="42.045993" lon="-0.207155">
        <ele>516.908</ele>
        <time>2020-08-23T15:28:58Z</time>
      </trkpt>
      <trkpt lat="42.046044" lon="-0.207246">
        <ele>516.939</ele>
        <time>2020-08-23T15:29:00Z</time>
      </trkpt>
      <trkpt lat="42.046070" lon="-0.207298">
        <ele>516.969</ele>
        <time>2020-08-23T15:29:01Z</time>
      </trkpt>
      <trkpt lat="42.046090" lon="-0.207354">
        <ele>517.097</ele>
        <time>2020-08-23T15:29:02Z</time>
      </trkpt>
      <trkpt lat="42.046110" lon="-0.207410">
        <ele>517.099</ele>
        <time>2020-08-23T15:29:03Z</time>
      </trkpt>
      <trkpt lat="42.046148" lon="-0.207515">
        <ele>517.090</ele>
        <time>2020-08-23T15:29:05Z</time>
      </trkpt>
      <trkpt lat="42.046192" lon="-0.207612">
        <ele>517.091</ele>
        <time>2020-08-23T15:29:07Z</time>
      </trkpt>
      <trkpt lat="42.046228" lon="-0.207713">
        <ele>516.957</ele>
        <time>2020-08-23T15:29:09Z</time>
      </trkpt>
      <trkpt lat="42.046241" lon="-0.207776">
        <ele>516.926</ele>
        <time>2020-08-23T15:29:10Z</time>
      </trkpt>
      <trkpt lat="42.046252" lon="-0.207835">
        <ele>516.978</ele>
        <time>2020-08-23T15:29:11Z</time>
      </trkpt>
      <trkpt lat="42.046282" lon="-0.207944">
        <ele>517.033</ele>
        <time>2020-08-23T15:29:13Z</time>
      </trkpt>
      <trkpt lat="42.046323" lon="-0.208048">
        <ele>517.026</ele>
        <time>2020-08-23T15:29:15Z</time>
      </trkpt>
      <trkpt lat="42.046381" lon="-0.208128">
        <ele>517.008</ele>
        <time>2020-08-23T15:29:17Z</time>
      </trkpt>
      <trkpt lat="42.046434" lon="-0.208222">
        <ele>517.072</ele>
        <time>2020-08-23T15:29:19Z</time>
      </trkpt>
      <trkpt lat="42.046484" lon="-0.208307">
        <ele>517.222</ele>
        <time>2020-08-23T15:29:21Z</time>
      </trkpt>
      <trkpt lat="42.046517" lon="-0.208383">
        <ele>517.410</ele>
        <time>2020-08-23T15:29:23Z</time>
      </trkpt>
      <trkpt lat="42.046552" lon="-0.208465">
        <ele>517.692</ele>
        <time>2020-08-23T15:29:25Z</time>
      </trkpt>
      <trkpt lat="42.046580" lon="-0.208540">
        <ele>517.753</ele>
        <time>2020-08-23T15:29:27Z</time>
      </trkpt>
      <trkpt lat="42.046605" lon="-0.208619">
        <ele>517.794</ele>
        <time>2020-08-23T15:29:29Z</time>
      </trkpt>
      <trkpt lat="42.046640" lon="-0.208723">
        <ele>517.740</ele>
        <time>2020-08-23T15:29:31Z</time>
      </trkpt>
      <trkpt lat="42.046674" lon="-0.208820">
        <ele>517.639</ele>
        <time>2020-08-23T15:29:33Z</time>
      </trkpt>
      <trkpt lat="42.046707" lon="-0.208911">
        <ele>517.728</ele>
        <time>2020-08-23T15:29:35Z</time>
      </trkpt>
      <trkpt lat="42.046751" lon="-0.209012">
        <ele>518.089</ele>
        <time>2020-08-23T15:29:37Z</time>
      </trkpt>
      <trkpt lat="42.046775" lon="-0.209066">
        <ele>518.217</ele>
        <time>2020-08-23T15:29:38Z</time>
      </trkpt>
      <trkpt lat="42.046817" lon="-0.209160">
        <ele>518.408</ele>
        <time>2020-08-23T15:29:40Z</time>
      </trkpt>
      <trkpt lat="42.046861" lon="-0.209253">
        <ele>518.567</ele>
        <time>2020-08-23T15:29:42Z</time>
      </trkpt>
      <trkpt lat="42.046896" lon="-0.209347">
        <ele>518.647</ele>
        <time>2020-08-23T15:29:44Z</time>
      </trkpt>
      <trkpt lat="42.046931" lon="-0.209443">
        <ele>518.835</ele>
        <time>2020-08-23T15:29:46Z</time>
      </trkpt>
      <trkpt lat="42.046976" lon="-0.209534">
        <ele>518.847</ele>
        <time>2020-08-23T15:29:48Z</time>
      </trkpt>
      <trkpt lat="42.047019" lon="-0.209616">
        <ele>518.878</ele>
        <time>2020-08-23T15:29:50Z</time>
      </trkpt>
      <trkpt lat="42.047061" lon="-0.209701">
        <ele>518.929</ele>
        <time>2020-08-23T15:29:52Z</time>
      </trkpt>
      <trkpt lat="42.047108" lon="-0.209775">
        <ele>519.095</ele>
        <time>2020-08-23T15:29:54Z</time>
      </trkpt>
      <trkpt lat="42.047150" lon="-0.209855">
        <ele>519.174</ele>
        <time>2020-08-23T15:29:56Z</time>
      </trkpt>
      <trkpt lat="42.047194" lon="-0.209943">
        <ele>519.522</ele>
        <time>2020-08-23T15:29:58Z</time>
      </trkpt>
      <trkpt lat="42.047240" lon="-0.210020">
        <ele>519.762</ele>
        <time>2020-08-23T15:30:00Z</time>
      </trkpt>
      <trkpt lat="42.047290" lon="-0.210095">
        <ele>519.808</ele>
        <time>2020-08-23T15:30:02Z</time>
      </trkpt>
      <trkpt lat="42.047348" lon="-0.210168">
        <ele>519.808</ele>
        <time>2020-08-23T15:30:04Z</time>
      </trkpt>
      <trkpt lat="42.047407" lon="-0.210241">
        <ele>519.867</ele>
        <time>2020-08-23T15:30:06Z</time>
      </trkpt>
      <trkpt lat="42.047460" lon="-0.210313">
        <ele>520.067</ele>
        <time>2020-08-23T15:30:08Z</time>
      </trkpt>
      <trkpt lat="42.047517" lon="-0.210395">
        <ele>520.185</ele>
        <time>2020-08-23T15:30:10Z</time>
      </trkpt>
      <trkpt lat="42.047569" lon="-0.210474">
        <ele>520.187</ele>
        <time>2020-08-23T15:30:12Z</time>
      </trkpt>
      <trkpt lat="42.047620" lon="-0.210550">
        <ele>520.138</ele>
        <time>2020-08-23T15:30:14Z</time>
      </trkpt>
      <trkpt lat="42.047667" lon="-0.210621">
        <ele>520.069</ele>
        <time>2020-08-23T15:30:16Z</time>
      </trkpt>
      <trkpt lat="42.047708" lon="-0.210691">
        <ele>519.965</ele>
        <time>2020-08-23T15:30:18Z</time>
      </trkpt>
      <trkpt lat="42.047757" lon="-0.210730">
        <ele>519.944</ele>
        <time>2020-08-23T15:30:20Z</time>
      </trkpt>
      <trkpt lat="42.047820" lon="-0.210750">
        <ele>519.878</ele>
        <time>2020-08-23T15:30:22Z</time>
      </trkpt>
      <trkpt lat="42.047898" lon="-0.210781">
        <ele>519.833</ele>
        <time>2020-08-23T15:30:24Z</time>
      </trkpt>
      <trkpt lat="42.047942" lon="-0.210804">
        <ele>519.726</ele>
        <time>2020-08-23T15:30:25Z</time>
      </trkpt>
      <trkpt lat="42.047989" lon="-0.210829">
        <ele>519.608</ele>
        <time>2020-08-23T15:30:26Z</time>
      </trkpt>
      <trkpt lat="42.048031" lon="-0.210852">
        <ele>519.562</ele>
        <time>2020-08-23T15:30:27Z</time>
      </trkpt>
      <trkpt lat="42.048104" lon="-0.210871">
        <ele>519.242</ele>
        <time>2020-08-23T15:30:29Z</time>
      </trkpt>
      <trkpt lat="42.048181" lon="-0.210864">
        <ele>519.010</ele>
        <time>2020-08-23T15:30:31Z</time>
      </trkpt>
      <trkpt lat="42.048265" lon="-0.210886">
        <ele>518.772</ele>
        <time>2020-08-23T15:30:33Z</time>
      </trkpt>
      <trkpt lat="42.048358" lon="-0.210891">
        <ele>518.243</ele>
        <time>2020-08-23T15:30:35Z</time>
      </trkpt>
      <trkpt lat="42.048410" lon="-0.210879">
        <ele>518.054</ele>
        <time>2020-08-23T15:30:36Z</time>
      </trkpt>
      <trkpt lat="42.048469" lon="-0.210867">
        <ele>517.890</ele>
        <time>2020-08-23T15:30:37Z</time>
      </trkpt>
      <trkpt lat="42.048524" lon="-0.210853">
        <ele>517.679</ele>
        <time>2020-08-23T15:30:38Z</time>
      </trkpt>
      <trkpt lat="42.048572" lon="-0.210845">
        <ele>517.418</ele>
        <time>2020-08-23T15:30:39Z</time>
      </trkpt>
      <trkpt lat="42.048622" lon="-0.210842">
        <ele>517.398</ele>
        <time>2020-08-23T15:30:40Z</time>
      </trkpt>
      <trkpt lat="42.048673" lon="-0.210844">
        <ele>517.217</ele>
        <time>2020-08-23T15:30:41Z</time>
      </trkpt>
      <trkpt lat="42.048726" lon="-0.210850">
        <ele>517.008</ele>
        <time>2020-08-23T15:30:42Z</time>
      </trkpt>
      <trkpt lat="42.048782" lon="-0.210860">
        <ele>516.916</ele>
        <time>2020-08-23T15:30:43Z</time>
      </trkpt>
      <trkpt lat="42.048833" lon="-0.210863">
        <ele>516.816</ele>
        <time>2020-08-23T15:30:44Z</time>
      </trkpt>
      <trkpt lat="42.048885" lon="-0.210878">
        <ele>516.674</ele>
        <time>2020-08-23T15:30:45Z</time>
      </trkpt>
      <trkpt lat="42.048943" lon="-0.210902">
        <ele>516.516</ele>
        <time>2020-08-23T15:30:46Z</time>
      </trkpt>
      <trkpt lat="42.049008" lon="-0.210931">
        <ele>516.477</ele>
        <time>2020-08-23T15:30:47Z</time>
      </trkpt>
      <trkpt lat="42.049065" lon="-0.210951">
        <ele>516.258</ele>
        <time>2020-08-23T15:30:48Z</time>
      </trkpt>
      <trkpt lat="42.049119" lon="-0.210971">
        <ele>516.044</ele>
        <time>2020-08-23T15:30:49Z</time>
      </trkpt>
      <trkpt lat="42.049161" lon="-0.210998">
        <ele>515.873</ele>
        <time>2020-08-23T15:30:50Z</time>
      </trkpt>
      <trkpt lat="42.049203" lon="-0.211058">
        <ele>515.216</ele>
        <time>2020-08-23T15:30:52Z</time>
      </trkpt>
      <trkpt lat="42.049201" lon="-0.211150">
        <ele>514.976</ele>
        <time>2020-08-23T15:30:54Z</time>
      </trkpt>
      <trkpt lat="42.049171" lon="-0.211234">
        <ele>515.013</ele>
        <time>2020-08-23T15:30:56Z</time>
      </trkpt>
      <trkpt lat="42.049121" lon="-0.211303">
        <ele>515.108</ele>
        <time>2020-08-23T15:30:58Z</time>
      </trkpt>
      <trkpt lat="42.049093" lon="-0.211352">
        <ele>515.266</ele>
        <time>2020-08-23T15:30:59Z</time>
      </trkpt>
      <trkpt lat="42.049068" lon="-0.211403">
        <ele>515.346</ele>
        <time>2020-08-23T15:31:00Z</time>
      </trkpt>
      <trkpt lat="42.049026" lon="-0.211497">
        <ele>515.464</ele>
        <time>2020-08-23T15:31:02Z</time>
      </trkpt>
      <trkpt lat="42.048990" lon="-0.211591">
        <ele>515.326</ele>
        <time>2020-08-23T15:31:04Z</time>
      </trkpt>
      <trkpt lat="42.048969" lon="-0.211675">
        <ele>515.337</ele>
        <time>2020-08-23T15:31:06Z</time>
      </trkpt>
      <trkpt lat="42.048942" lon="-0.211768">
        <ele>515.538</ele>
        <time>2020-08-23T15:31:08Z</time>
      </trkpt>
      <trkpt lat="42.048917" lon="-0.211880">
        <ele>515.824</ele>
        <time>2020-08-23T15:31:10Z</time>
      </trkpt>
      <trkpt lat="42.048884" lon="-0.211979">
        <ele>515.933</ele>
        <time>2020-08-23T15:31:12Z</time>
      </trkpt>
      <trkpt lat="42.048862" lon="-0.212071">
        <ele>516.167</ele>
        <time>2020-08-23T15:31:14Z</time>
      </trkpt>
      <trkpt lat="42.048835" lon="-0.212170">
        <ele>516.481</ele>
        <time>2020-08-23T15:31:16Z</time>
      </trkpt>
      <trkpt lat="42.048813" lon="-0.212273">
        <ele>516.719</ele>
        <time>2020-08-23T15:31:18Z</time>
      </trkpt>
      <trkpt lat="42.048788" lon="-0.212366">
        <ele>516.708</ele>
        <time>2020-08-23T15:31:20Z</time>
      </trkpt>
      <trkpt lat="42.048758" lon="-0.212448">
        <ele>516.551</ele>
        <time>2020-08-23T15:31:22Z</time>
      </trkpt>
      <trkpt lat="42.048734" lon="-0.212537">
        <ele>516.651</ele>
        <time>2020-08-23T15:31:24Z</time>
      </trkpt>
      <trkpt lat="42.048707" lon="-0.212622">
        <ele>516.849</ele>
        <time>2020-08-23T15:31:26Z</time>
      </trkpt>
      <trkpt lat="42.048675" lon="-0.212728">
        <ele>516.871</ele>
        <time>2020-08-23T15:31:28Z</time>
      </trkpt>
      <trkpt lat="42.048629" lon="-0.212827">
        <ele>516.712</ele>
        <time>2020-08-23T15:31:30Z</time>
      </trkpt>
      <trkpt lat="42.048601" lon="-0.212924">
        <ele>516.723</ele>
        <time>2020-08-23T15:31:32Z</time>
      </trkpt>
      <trkpt lat="42.048573" lon="-0.213009">
        <ele>516.789</ele>
        <time>2020-08-23T15:31:34Z</time>
      </trkpt>
      <trkpt lat="42.048556" lon="-0.213090">
        <ele>516.778</ele>
        <time>2020-08-23T15:31:36Z</time>
      </trkpt>
      <trkpt lat="42.048539" lon="-0.213181">
        <ele>516.817</ele>
        <time>2020-08-23T15:31:38Z</time>
      </trkpt>
      <trkpt lat="42.048534" lon="-0.213276">
        <ele>516.987</ele>
        <time>2020-08-23T15:31:40Z</time>
      </trkpt>
      <trkpt lat="42.048525" lon="-0.213363">
        <ele>517.015</ele>
        <time>2020-08-23T15:31:42Z</time>
      </trkpt>
      <trkpt lat="42.048520" lon="-0.213459">
        <ele>516.908</ele>
        <time>2020-08-23T15:31:44Z</time>
      </trkpt>
      <trkpt lat="42.048515" lon="-0.213570">
        <ele>516.896</ele>
        <time>2020-08-23T15:31:46Z</time>
      </trkpt>
      <trkpt lat="42.048501" lon="-0.213672">
        <ele>516.836</ele>
        <time>2020-08-23T15:31:48Z</time>
      </trkpt>
      <trkpt lat="42.048486" lon="-0.213764">
        <ele>516.974</ele>
        <time>2020-08-23T15:31:50Z</time>
      </trkpt>
      <trkpt lat="42.048482" lon="-0.213862">
        <ele>517.036</ele>
        <time>2020-08-23T15:31:52Z</time>
      </trkpt>
      <trkpt lat="42.048474" lon="-0.213967">
        <ele>517.077</ele>
        <time>2020-08-23T15:31:54Z</time>
      </trkpt>
      <trkpt lat="42.048474" lon="-0.214079">
        <ele>516.998</ele>
        <time>2020-08-23T15:31:56Z</time>
      </trkpt>
      <trkpt lat="42.048463" lon="-0.214194">
        <ele>516.754</ele>
        <time>2020-08-23T15:31:58Z</time>
      </trkpt>
      <trkpt lat="42.048455" lon="-0.214304">
        <ele>516.693</ele>
        <time>2020-08-23T15:32:00Z</time>
      </trkpt>
      <trkpt lat="42.048443" lon="-0.214410">
        <ele>516.442</ele>
        <time>2020-08-23T15:32:02Z</time>
      </trkpt>
      <trkpt lat="42.048433" lon="-0.214481">
        <ele>516.322</ele>
        <time>2020-08-23T15:32:03Z</time>
      </trkpt>
      <trkpt lat="42.048422" lon="-0.214554">
        <ele>516.214</ele>
        <time>2020-08-23T15:32:04Z</time>
      </trkpt>
      <trkpt lat="42.048404" lon="-0.214626">
        <ele>516.108</ele>
        <time>2020-08-23T15:32:05Z</time>
      </trkpt>
      <trkpt lat="42.048390" lon="-0.214695">
        <ele>516.089</ele>
        <time>2020-08-23T15:32:06Z</time>
      </trkpt>
      <trkpt lat="42.048379" lon="-0.214763">
        <ele>516.059</ele>
        <time>2020-08-23T15:32:07Z</time>
      </trkpt>
      <trkpt lat="42.048360" lon="-0.214831">
        <ele>515.937</ele>
        <time>2020-08-23T15:32:08Z</time>
      </trkpt>
      <trkpt lat="42.048345" lon="-0.214905">
        <ele>515.839</ele>
        <time>2020-08-23T15:32:09Z</time>
      </trkpt>
      <trkpt lat="42.048337" lon="-0.214973">
        <ele>515.810</ele>
        <time>2020-08-23T15:32:10Z</time>
      </trkpt>
      <trkpt lat="42.048314" lon="-0.215039">
        <ele>515.891</ele>
        <time>2020-08-23T15:32:11Z</time>
      </trkpt>
      <trkpt lat="42.048279" lon="-0.215155">
        <ele>515.567</ele>
        <time>2020-08-23T15:32:13Z</time>
      </trkpt>
      <trkpt lat="42.048263" lon="-0.215220">
        <ele>515.446</ele>
        <time>2020-08-23T15:32:14Z</time>
      </trkpt>
      <trkpt lat="42.048244" lon="-0.215290">
        <ele>515.361</ele>
        <time>2020-08-23T15:32:15Z</time>
      </trkpt>
      <trkpt lat="42.048235" lon="-0.215355">
        <ele>515.221</ele>
        <time>2020-08-23T15:32:16Z</time>
      </trkpt>
      <trkpt lat="42.048219" lon="-0.215418">
        <ele>515.113</ele>
        <time>2020-08-23T15:32:17Z</time>
      </trkpt>
      <trkpt lat="42.048196" lon="-0.215490">
        <ele>515.008</ele>
        <time>2020-08-23T15:32:18Z</time>
      </trkpt>
      <trkpt lat="42.048172" lon="-0.215555">
        <ele>515.021</ele>
        <time>2020-08-23T15:32:19Z</time>
      </trkpt>
      <trkpt lat="42.048148" lon="-0.215616">
        <ele>514.911</ele>
        <time>2020-08-23T15:32:20Z</time>
      </trkpt>
      <trkpt lat="42.048119" lon="-0.215677">
        <ele>514.849</ele>
        <time>2020-08-23T15:32:21Z</time>
      </trkpt>
      <trkpt lat="42.048087" lon="-0.215734">
        <ele>514.731</ele>
        <time>2020-08-23T15:32:22Z</time>
      </trkpt>
      <trkpt lat="42.048058" lon="-0.215793">
        <ele>514.652</ele>
        <time>2020-08-23T15:32:23Z</time>
      </trkpt>
      <trkpt lat="42.048033" lon="-0.215847">
        <ele>514.513</ele>
        <time>2020-08-23T15:32:24Z</time>
      </trkpt>
      <trkpt lat="42.048008" lon="-0.215902">
        <ele>514.449</ele>
        <time>2020-08-23T15:32:25Z</time>
      </trkpt>
      <trkpt lat="42.047980" lon="-0.215951">
        <ele>514.368</ele>
        <time>2020-08-23T15:32:26Z</time>
      </trkpt>
      <trkpt lat="42.047954" lon="-0.216006">
        <ele>514.236</ele>
        <time>2020-08-23T15:32:27Z</time>
      </trkpt>
      <trkpt lat="42.047927" lon="-0.216063">
        <ele>514.117</ele>
        <time>2020-08-23T15:32:28Z</time>
      </trkpt>
      <trkpt lat="42.047899" lon="-0.216121">
        <ele>514.018</ele>
        <time>2020-08-23T15:32:29Z</time>
      </trkpt>
      <trkpt lat="42.047873" lon="-0.216178">
        <ele>513.908</ele>
        <time>2020-08-23T15:32:30Z</time>
      </trkpt>
      <trkpt lat="42.047841" lon="-0.216233">
        <ele>513.848</ele>
        <time>2020-08-23T15:32:31Z</time>
      </trkpt>
      <trkpt lat="42.047809" lon="-0.216287">
        <ele>513.898</ele>
        <time>2020-08-23T15:32:32Z</time>
      </trkpt>
      <trkpt lat="42.047780" lon="-0.216338">
        <ele>513.786</ele>
        <time>2020-08-23T15:32:33Z</time>
      </trkpt>
      <trkpt lat="42.047731" lon="-0.216437">
        <ele>513.458</ele>
        <time>2020-08-23T15:32:35Z</time>
      </trkpt>
      <trkpt lat="42.047704" lon="-0.216491">
        <ele>513.469</ele>
        <time>2020-08-23T15:32:36Z</time>
      </trkpt>
      <trkpt lat="42.047677" lon="-0.216553">
        <ele>513.360</ele>
        <time>2020-08-23T15:32:37Z</time>
      </trkpt>
      <trkpt lat="42.047648" lon="-0.216608">
        <ele>513.396</ele>
        <time>2020-08-23T15:32:38Z</time>
      </trkpt>
      <trkpt lat="42.047616" lon="-0.216667">
        <ele>513.235</ele>
        <time>2020-08-23T15:32:39Z</time>
      </trkpt>
      <trkpt lat="42.047585" lon="-0.216724">
        <ele>513.195</ele>
        <time>2020-08-23T15:32:40Z</time>
      </trkpt>
      <trkpt lat="42.047554" lon="-0.216784">
        <ele>512.949</ele>
        <time>2020-08-23T15:32:41Z</time>
      </trkpt>
      <trkpt lat="42.047525" lon="-0.216838">
        <ele>512.823</ele>
        <time>2020-08-23T15:32:42Z</time>
      </trkpt>
      <trkpt lat="42.047495" lon="-0.216892">
        <ele>512.608</ele>
        <time>2020-08-23T15:32:43Z</time>
      </trkpt>
      <trkpt lat="42.047467" lon="-0.216948">
        <ele>512.634</ele>
        <time>2020-08-23T15:32:44Z</time>
      </trkpt>
      <trkpt lat="42.047442" lon="-0.217000">
        <ele>512.594</ele>
        <time>2020-08-23T15:32:45Z</time>
      </trkpt>
      <trkpt lat="42.047414" lon="-0.217050">
        <ele>512.462</ele>
        <time>2020-08-23T15:32:46Z</time>
      </trkpt>
      <trkpt lat="42.047381" lon="-0.217103">
        <ele>512.274</ele>
        <time>2020-08-23T15:32:47Z</time>
      </trkpt>
      <trkpt lat="42.047349" lon="-0.217157">
        <ele>512.265</ele>
        <time>2020-08-23T15:32:48Z</time>
      </trkpt>
      <trkpt lat="42.047312" lon="-0.217207">
        <ele>512.136</ele>
        <time>2020-08-23T15:32:49Z</time>
      </trkpt>
      <trkpt lat="42.047278" lon="-0.217256">
        <ele>512.012</ele>
        <time>2020-08-23T15:32:50Z</time>
      </trkpt>
      <trkpt lat="42.047245" lon="-0.217299">
        <ele>511.881</ele>
        <time>2020-08-23T15:32:51Z</time>
      </trkpt>
      <trkpt lat="42.047216" lon="-0.217350">
        <ele>511.892</ele>
        <time>2020-08-23T15:32:52Z</time>
      </trkpt>
      <trkpt lat="42.047153" lon="-0.217431">
        <ele>511.773</ele>
        <time>2020-08-23T15:32:54Z</time>
      </trkpt>
      <trkpt lat="42.047097" lon="-0.217511">
        <ele>511.720</ele>
        <time>2020-08-23T15:32:56Z</time>
      </trkpt>
      <trkpt lat="42.047066" lon="-0.217562">
        <ele>511.708</ele>
        <time>2020-08-23T15:32:57Z</time>
      </trkpt>
      <trkpt lat="42.047033" lon="-0.217617">
        <ele>511.784</ele>
        <time>2020-08-23T15:32:58Z</time>
      </trkpt>
      <trkpt lat="42.047000" lon="-0.217678">
        <ele>511.734</ele>
        <time>2020-08-23T15:32:59Z</time>
      </trkpt>
      <trkpt lat="42.046966" lon="-0.217721">
        <ele>511.642</ele>
        <time>2020-08-23T15:33:00Z</time>
      </trkpt>
      <trkpt lat="42.046933" lon="-0.217764">
        <ele>511.614</ele>
        <time>2020-08-23T15:33:01Z</time>
      </trkpt>
      <trkpt lat="42.046901" lon="-0.217807">
        <ele>511.545</ele>
        <time>2020-08-23T15:33:02Z</time>
      </trkpt>
      <trkpt lat="42.046870" lon="-0.217854">
        <ele>511.536</ele>
        <time>2020-08-23T15:33:03Z</time>
      </trkpt>
      <trkpt lat="42.046838" lon="-0.217898">
        <ele>511.482</ele>
        <time>2020-08-23T15:33:04Z</time>
      </trkpt>
      <trkpt lat="42.046807" lon="-0.217951">
        <ele>511.471</ele>
        <time>2020-08-23T15:33:05Z</time>
      </trkpt>
      <trkpt lat="42.046776" lon="-0.218000">
        <ele>511.396</ele>
        <time>2020-08-23T15:33:06Z</time>
      </trkpt>
      <trkpt lat="42.046746" lon="-0.218047">
        <ele>511.331</ele>
        <time>2020-08-23T15:33:07Z</time>
      </trkpt>
      <trkpt lat="42.046711" lon="-0.218088">
        <ele>511.324</ele>
        <time>2020-08-23T15:33:08Z</time>
      </trkpt>
      <trkpt lat="42.046658" lon="-0.218172">
        <ele>511.308</ele>
        <time>2020-08-23T15:33:10Z</time>
      </trkpt>
      <trkpt lat="42.046632" lon="-0.218228">
        <ele>511.374</ele>
        <time>2020-08-23T15:33:11Z</time>
      </trkpt>
      <trkpt lat="42.046580" lon="-0.218329">
        <ele>511.144</ele>
        <time>2020-08-23T15:33:13Z</time>
      </trkpt>
      <trkpt lat="42.046551" lon="-0.218386">
        <ele>511.092</ele>
        <time>2020-08-23T15:33:14Z</time>
      </trkpt>
      <trkpt lat="42.046527" lon="-0.218443">
        <ele>510.874</ele>
        <time>2020-08-23T15:33:15Z</time>
      </trkpt>
      <trkpt lat="42.046499" lon="-0.218505">
        <ele>510.685</ele>
        <time>2020-08-23T15:33:16Z</time>
      </trkpt>
      <trkpt lat="42.046474" lon="-0.218567">
        <ele>510.536</ele>
        <time>2020-08-23T15:33:17Z</time>
      </trkpt>
      <trkpt lat="42.046448" lon="-0.218628">
        <ele>510.312</ele>
        <time>2020-08-23T15:33:18Z</time>
      </trkpt>
      <trkpt lat="42.046422" lon="-0.218689">
        <ele>510.111</ele>
        <time>2020-08-23T15:33:19Z</time>
      </trkpt>
      <trkpt lat="42.046391" lon="-0.218748">
        <ele>510.065</ele>
        <time>2020-08-23T15:33:20Z</time>
      </trkpt>
      <trkpt lat="42.046359" lon="-0.218806">
        <ele>509.868</ele>
        <time>2020-08-23T15:33:21Z</time>
      </trkpt>
      <trkpt lat="42.046336" lon="-0.218864">
        <ele>509.414</ele>
        <time>2020-08-23T15:33:22Z</time>
      </trkpt>
      <trkpt lat="42.046306" lon="-0.218922">
        <ele>509.108</ele>
        <time>2020-08-23T15:33:23Z</time>
      </trkpt>
      <trkpt lat="42.046285" lon="-0.218988">
        <ele>508.791</ele>
        <time>2020-08-23T15:33:24Z</time>
      </trkpt>
      <trkpt lat="42.046259" lon="-0.219049">
        <ele>508.211</ele>
        <time>2020-08-23T15:33:25Z</time>
      </trkpt>
      <trkpt lat="42.046232" lon="-0.219112">
        <ele>507.739</ele>
        <time>2020-08-23T15:33:26Z</time>
      </trkpt>
      <trkpt lat="42.046210" lon="-0.219180">
        <ele>507.161</ele>
        <time>2020-08-23T15:33:27Z</time>
      </trkpt>
      <trkpt lat="42.046185" lon="-0.219244">
        <ele>506.912</ele>
        <time>2020-08-23T15:33:28Z</time>
      </trkpt>
      <trkpt lat="42.046158" lon="-0.219303">
        <ele>506.813</ele>
        <time>2020-08-23T15:33:29Z</time>
      </trkpt>
      <trkpt lat="42.046128" lon="-0.219355">
        <ele>506.829</ele>
        <time>2020-08-23T15:33:30Z</time>
      </trkpt>
      <trkpt lat="42.046091" lon="-0.219412">
        <ele>506.888</ele>
        <time>2020-08-23T15:33:31Z</time>
      </trkpt>
      <trkpt lat="42.046062" lon="-0.219471">
        <ele>506.892</ele>
        <time>2020-08-23T15:33:32Z</time>
      </trkpt>
      <trkpt lat="42.046029" lon="-0.219538">
        <ele>506.773</ele>
        <time>2020-08-23T15:33:33Z</time>
      </trkpt>
      <trkpt lat="42.045999" lon="-0.219597">
        <ele>506.620</ele>
        <time>2020-08-23T15:33:34Z</time>
      </trkpt>
      <trkpt lat="42.045966" lon="-0.219653">
        <ele>506.508</ele>
        <time>2020-08-23T15:33:35Z</time>
      </trkpt>
      <trkpt lat="42.045938" lon="-0.219704">
        <ele>506.444</ele>
        <time>2020-08-23T15:33:36Z</time>
      </trkpt>
      <trkpt lat="42.045912" lon="-0.219754">
        <ele>506.394</ele>
        <time>2020-08-23T15:33:37Z</time>
      </trkpt>
      <trkpt lat="42.045889" lon="-0.219810">
        <ele>506.262</ele>
        <time>2020-08-23T15:33:38Z</time>
      </trkpt>
      <trkpt lat="42.045865" lon="-0.219866">
        <ele>506.164</ele>
        <time>2020-08-23T15:33:39Z</time>
      </trkpt>
      <trkpt lat="42.045842" lon="-0.219919">
        <ele>506.025</ele>
        <time>2020-08-23T15:33:40Z</time>
      </trkpt>
      <trkpt lat="42.045819" lon="-0.219972">
        <ele>505.956</ele>
        <time>2020-08-23T15:33:41Z</time>
      </trkpt>
      <trkpt lat="42.045775" lon="-0.220069">
        <ele>505.962</ele>
        <time>2020-08-23T15:33:43Z</time>
      </trkpt>
      <trkpt lat="42.045747" lon="-0.220122">
        <ele>506.051</ele>
        <time>2020-08-23T15:33:44Z</time>
      </trkpt>
      <trkpt lat="42.045720" lon="-0.220179">
        <ele>506.049</ele>
        <time>2020-08-23T15:33:45Z</time>
      </trkpt>
      <trkpt lat="42.045695" lon="-0.220238">
        <ele>506.002</ele>
        <time>2020-08-23T15:33:46Z</time>
      </trkpt>
      <trkpt lat="42.045669" lon="-0.220292">
        <ele>505.922</ele>
        <time>2020-08-23T15:33:47Z</time>
      </trkpt>
      <trkpt lat="42.045632" lon="-0.220410">
        <ele>505.808</ele>
        <time>2020-08-23T15:33:49Z</time>
      </trkpt>
      <trkpt lat="42.045610" lon="-0.220464">
        <ele>505.899</ele>
        <time>2020-08-23T15:33:50Z</time>
      </trkpt>
      <trkpt lat="42.045585" lon="-0.220520">
        <ele>505.889</ele>
        <time>2020-08-23T15:33:51Z</time>
      </trkpt>
      <trkpt lat="42.045557" lon="-0.220578">
        <ele>505.837</ele>
        <time>2020-08-23T15:33:52Z</time>
      </trkpt>
      <trkpt lat="42.045526" lon="-0.220628">
        <ele>505.819</ele>
        <time>2020-08-23T15:33:53Z</time>
      </trkpt>
      <trkpt lat="42.045473" lon="-0.220731">
        <ele>505.750</ele>
        <time>2020-08-23T15:33:55Z</time>
      </trkpt>
      <trkpt lat="42.045454" lon="-0.220788">
        <ele>505.681</ele>
        <time>2020-08-23T15:33:56Z</time>
      </trkpt>
      <trkpt lat="42.045439" lon="-0.220846">
        <ele>505.577</ele>
        <time>2020-08-23T15:33:57Z</time>
      </trkpt>
      <trkpt lat="42.045404" lon="-0.220949">
        <ele>505.236</ele>
        <time>2020-08-23T15:33:59Z</time>
      </trkpt>
      <trkpt lat="42.045385" lon="-0.221009">
        <ele>505.235</ele>
        <time>2020-08-23T15:34:00Z</time>
      </trkpt>
      <trkpt lat="42.045370" lon="-0.221069">
        <ele>505.286</ele>
        <time>2020-08-23T15:34:01Z</time>
      </trkpt>
      <trkpt lat="42.045333" lon="-0.221182">
        <ele>505.414</ele>
        <time>2020-08-23T15:34:03Z</time>
      </trkpt>
      <trkpt lat="42.045311" lon="-0.221237">
        <ele>505.508</ele>
        <time>2020-08-23T15:34:04Z</time>
      </trkpt>
      <trkpt lat="42.045266" lon="-0.221342">
        <ele>505.678</ele>
        <time>2020-08-23T15:34:06Z</time>
      </trkpt>
      <trkpt lat="42.045216" lon="-0.221441">
        <ele>505.648</ele>
        <time>2020-08-23T15:34:08Z</time>
      </trkpt>
      <trkpt lat="42.045168" lon="-0.221528">
        <ele>505.776</ele>
        <time>2020-08-23T15:34:10Z</time>
      </trkpt>
      <trkpt lat="42.045146" lon="-0.221583">
        <ele>505.898</ele>
        <time>2020-08-23T15:34:11Z</time>
      </trkpt>
      <trkpt lat="42.045102" lon="-0.221676">
        <ele>506.089</ele>
        <time>2020-08-23T15:34:13Z</time>
      </trkpt>
      <trkpt lat="42.045060" lon="-0.221768">
        <ele>506.120</ele>
        <time>2020-08-23T15:34:15Z</time>
      </trkpt>
      <trkpt lat="42.045021" lon="-0.221871">
        <ele>506.266</ele>
        <time>2020-08-23T15:34:17Z</time>
      </trkpt>
      <trkpt lat="42.044985" lon="-0.221959">
        <ele>506.595</ele>
        <time>2020-08-23T15:34:19Z</time>
      </trkpt>
      <trkpt lat="42.044928" lon="-0.222036">
        <ele>506.889</ele>
        <time>2020-08-23T15:34:21Z</time>
      </trkpt>
      <trkpt lat="42.044870" lon="-0.222112">
        <ele>507.106</ele>
        <time>2020-08-23T15:34:23Z</time>
      </trkpt>
      <trkpt lat="42.044819" lon="-0.222183">
        <ele>507.426</ele>
        <time>2020-08-23T15:34:25Z</time>
      </trkpt>
      <trkpt lat="42.044772" lon="-0.222253">
        <ele>507.608</ele>
        <time>2020-08-23T15:34:28Z</time>
      </trkpt>
      <trkpt lat="42.044734" lon="-0.222307">
        <ele>507.693</ele>
        <time>2020-08-23T15:34:30Z</time>
      </trkpt>
      <trkpt lat="42.044692" lon="-0.222387">
        <ele>507.733</ele>
        <time>2020-08-23T15:34:32Z</time>
      </trkpt>
      <trkpt lat="42.044644" lon="-0.222450">
        <ele>507.841</ele>
        <time>2020-08-23T15:34:34Z</time>
      </trkpt>
      <trkpt lat="42.044593" lon="-0.222532">
        <ele>507.773</ele>
        <time>2020-08-23T15:34:36Z</time>
      </trkpt>
      <trkpt lat="42.044542" lon="-0.222627">
        <ele>507.684</ele>
        <time>2020-08-23T15:34:38Z</time>
      </trkpt>
      <trkpt lat="42.044513" lon="-0.222681">
        <ele>507.545</ele>
        <time>2020-08-23T15:34:39Z</time>
      </trkpt>
      <trkpt lat="42.044481" lon="-0.222736">
        <ele>507.591</ele>
        <time>2020-08-23T15:34:40Z</time>
      </trkpt>
      <trkpt lat="42.044442" lon="-0.222796">
        <ele>507.540</ele>
        <time>2020-08-23T15:34:41Z</time>
      </trkpt>
      <trkpt lat="42.044406" lon="-0.222859">
        <ele>507.369</ele>
        <time>2020-08-23T15:34:42Z</time>
      </trkpt>
      <trkpt lat="42.044370" lon="-0.222909">
        <ele>507.104</ele>
        <time>2020-08-23T15:34:43Z</time>
      </trkpt>
      <trkpt lat="42.044337" lon="-0.222959">
        <ele>506.924</ele>
        <time>2020-08-23T15:34:44Z</time>
      </trkpt>
      <trkpt lat="42.044299" lon="-0.223012">
        <ele>506.708</ele>
        <time>2020-08-23T15:34:45Z</time>
      </trkpt>
      <trkpt lat="42.044260" lon="-0.223064">
        <ele>506.511</ele>
        <time>2020-08-23T15:34:46Z</time>
      </trkpt>
      <trkpt lat="42.044226" lon="-0.223114">
        <ele>506.481</ele>
        <time>2020-08-23T15:34:47Z</time>
      </trkpt>
      <trkpt lat="42.044192" lon="-0.223171">
        <ele>506.339</ele>
        <time>2020-08-23T15:34:48Z</time>
      </trkpt>
      <trkpt lat="42.044154" lon="-0.223220">
        <ele>506.381</ele>
        <time>2020-08-23T15:34:49Z</time>
      </trkpt>
      <trkpt lat="42.044116" lon="-0.223266">
        <ele>506.222</ele>
        <time>2020-08-23T15:34:50Z</time>
      </trkpt>
      <trkpt lat="42.044083" lon="-0.223314">
        <ele>506.123</ele>
        <time>2020-08-23T15:34:51Z</time>
      </trkpt>
      <trkpt lat="42.044045" lon="-0.223368">
        <ele>506.119</ele>
        <time>2020-08-23T15:34:52Z</time>
      </trkpt>
      <trkpt lat="42.044007" lon="-0.223421">
        <ele>506.198</ele>
        <time>2020-08-23T15:34:53Z</time>
      </trkpt>
      <trkpt lat="42.043966" lon="-0.223478">
        <ele>506.013</ele>
        <time>2020-08-23T15:34:54Z</time>
      </trkpt>
      <trkpt lat="42.043926" lon="-0.223529">
        <ele>506.043</ele>
        <time>2020-08-23T15:34:55Z</time>
      </trkpt>
      <trkpt lat="42.043888" lon="-0.223588">
        <ele>506.007</ele>
        <time>2020-08-23T15:34:56Z</time>
      </trkpt>
      <trkpt lat="42.043850" lon="-0.223648">
        <ele>506.008</ele>
        <time>2020-08-23T15:34:57Z</time>
      </trkpt>
      <trkpt lat="42.043814" lon="-0.223703">
        <ele>506.066</ele>
        <time>2020-08-23T15:34:58Z</time>
      </trkpt>
      <trkpt lat="42.043780" lon="-0.223767">
        <ele>506.086</ele>
        <time>2020-08-23T15:34:59Z</time>
      </trkpt>
      <trkpt lat="42.043745" lon="-0.223827">
        <ele>506.154</ele>
        <time>2020-08-23T15:35:00Z</time>
      </trkpt>
      <trkpt lat="42.043710" lon="-0.223880">
        <ele>506.146</ele>
        <time>2020-08-23T15:35:01Z</time>
      </trkpt>
      <trkpt lat="42.043671" lon="-0.223934">
        <ele>506.067</ele>
        <time>2020-08-23T15:35:02Z</time>
      </trkpt>
      <trkpt lat="42.043632" lon="-0.223984">
        <ele>506.098</ele>
        <time>2020-08-23T15:35:03Z</time>
      </trkpt>
      <trkpt lat="42.043591" lon="-0.224031">
        <ele>505.934</ele>
        <time>2020-08-23T15:35:04Z</time>
      </trkpt>
      <trkpt lat="42.043551" lon="-0.224084">
        <ele>505.833</ele>
        <time>2020-08-23T15:35:05Z</time>
      </trkpt>
      <trkpt lat="42.043515" lon="-0.224138">
        <ele>505.599</ele>
        <time>2020-08-23T15:35:06Z</time>
      </trkpt>
      <trkpt lat="42.043482" lon="-0.224188">
        <ele>505.307</ele>
        <time>2020-08-23T15:35:07Z</time>
      </trkpt>
      <trkpt lat="42.043458" lon="-0.224252">
        <ele>505.227</ele>
        <time>2020-08-23T15:35:08Z</time>
      </trkpt>
      <trkpt lat="42.043430" lon="-0.224309">
        <ele>505.208</ele>
        <time>2020-08-23T15:35:09Z</time>
      </trkpt>
      <trkpt lat="42.043403" lon="-0.224365">
        <ele>505.294</ele>
        <time>2020-08-23T15:35:10Z</time>
      </trkpt>
      <trkpt lat="42.043372" lon="-0.224478">
        <ele>505.214</ele>
        <time>2020-08-23T15:35:12Z</time>
      </trkpt>
      <trkpt lat="42.043355" lon="-0.224590">
        <ele>505.362</ele>
        <time>2020-08-23T15:35:14Z</time>
      </trkpt>
      <trkpt lat="42.043343" lon="-0.224649">
        <ele>505.484</ele>
        <time>2020-08-23T15:35:15Z</time>
      </trkpt>
      <trkpt lat="42.043332" lon="-0.224710">
        <ele>505.555</ele>
        <time>2020-08-23T15:35:16Z</time>
      </trkpt>
      <trkpt lat="42.043318" lon="-0.224769">
        <ele>505.546</ele>
        <time>2020-08-23T15:35:17Z</time>
      </trkpt>
      <trkpt lat="42.043302" lon="-0.224828">
        <ele>505.552</ele>
        <time>2020-08-23T15:35:18Z</time>
      </trkpt>
      <trkpt lat="42.043273" lon="-0.224924">
        <ele>505.341</ele>
        <time>2020-08-23T15:35:20Z</time>
      </trkpt>
      <trkpt lat="42.043238" lon="-0.225021">
        <ele>505.282</ele>
        <time>2020-08-23T15:35:22Z</time>
      </trkpt>
      <trkpt lat="42.043216" lon="-0.225081">
        <ele>505.143</ele>
        <time>2020-08-23T15:35:23Z</time>
      </trkpt>
      <trkpt lat="42.043191" lon="-0.225137">
        <ele>505.017</ele>
        <time>2020-08-23T15:35:24Z</time>
      </trkpt>
      <trkpt lat="42.043167" lon="-0.225194">
        <ele>505.008</ele>
        <time>2020-08-23T15:35:25Z</time>
      </trkpt>
      <trkpt lat="42.043131" lon="-0.225298">
        <ele>504.923</ele>
        <time>2020-08-23T15:35:27Z</time>
      </trkpt>
      <trkpt lat="42.043092" lon="-0.225387">
        <ele>504.773</ele>
        <time>2020-08-23T15:35:29Z</time>
      </trkpt>
      <trkpt lat="42.043065" lon="-0.225440">
        <ele>504.741</ele>
        <time>2020-08-23T15:35:30Z</time>
      </trkpt>
      <trkpt lat="42.043039" lon="-0.225498">
        <ele>504.673</ele>
        <time>2020-08-23T15:35:31Z</time>
      </trkpt>
      <trkpt lat="42.042996" lon="-0.225602">
        <ele>504.644</ele>
        <time>2020-08-23T15:35:33Z</time>
      </trkpt>
      <trkpt lat="42.042963" lon="-0.225713">
        <ele>504.665</ele>
        <time>2020-08-23T15:35:35Z</time>
      </trkpt>
      <trkpt lat="42.042941" lon="-0.225769">
        <ele>504.641</ele>
        <time>2020-08-23T15:35:36Z</time>
      </trkpt>
      <trkpt lat="42.042921" lon="-0.225825">
        <ele>504.690</ele>
        <time>2020-08-23T15:35:37Z</time>
      </trkpt>
      <trkpt lat="42.042881" lon="-0.225942">
        <ele>504.618</ele>
        <time>2020-08-23T15:35:39Z</time>
      </trkpt>
      <trkpt lat="42.042859" lon="-0.225995">
        <ele>504.698</ele>
        <time>2020-08-23T15:35:40Z</time>
      </trkpt>
      <trkpt lat="42.042841" lon="-0.226051">
        <ele>504.517</ele>
        <time>2020-08-23T15:35:41Z</time>
      </trkpt>
      <trkpt lat="42.042826" lon="-0.226112">
        <ele>504.308</ele>
        <time>2020-08-23T15:35:42Z</time>
      </trkpt>
      <trkpt lat="42.042814" lon="-0.226174">
        <ele>504.256</ele>
        <time>2020-08-23T15:35:43Z</time>
      </trkpt>
      <trkpt lat="42.042800" lon="-0.226237">
        <ele>504.176</ele>
        <time>2020-08-23T15:35:44Z</time>
      </trkpt>
      <trkpt lat="42.042773" lon="-0.226345">
        <ele>504.084</ele>
        <time>2020-08-23T15:35:46Z</time>
      </trkpt>
      <trkpt lat="42.042745" lon="-0.226461">
        <ele>503.996</ele>
        <time>2020-08-23T15:35:48Z</time>
      </trkpt>
      <trkpt lat="42.042722" lon="-0.226576">
        <ele>503.747</ele>
        <time>2020-08-23T15:35:50Z</time>
      </trkpt>
      <trkpt lat="42.042712" lon="-0.226641">
        <ele>503.718</ele>
        <time>2020-08-23T15:35:51Z</time>
      </trkpt>
      <trkpt lat="42.042693" lon="-0.226757">
        <ele>503.654</ele>
        <time>2020-08-23T15:35:53Z</time>
      </trkpt>
      <trkpt lat="42.042677" lon="-0.226827">
        <ele>503.613</ele>
        <time>2020-08-23T15:35:54Z</time>
      </trkpt>
      <trkpt lat="42.042662" lon="-0.226893">
        <ele>503.624</ele>
        <time>2020-08-23T15:35:55Z</time>
      </trkpt>
      <trkpt lat="42.042645" lon="-0.226955">
        <ele>503.704</ele>
        <time>2020-08-23T15:35:56Z</time>
      </trkpt>
      <trkpt lat="42.042629" lon="-0.227017">
        <ele>503.714</ele>
        <time>2020-08-23T15:35:57Z</time>
      </trkpt>
      <trkpt lat="42.042616" lon="-0.227080">
        <ele>503.708</ele>
        <time>2020-08-23T15:35:58Z</time>
      </trkpt>
      <trkpt lat="42.042596" lon="-0.227139">
        <ele>503.797</ele>
        <time>2020-08-23T15:35:59Z</time>
      </trkpt>
      <trkpt lat="42.042557" lon="-0.227255">
        <ele>503.617</ele>
        <time>2020-08-23T15:36:01Z</time>
      </trkpt>
      <trkpt lat="42.042538" lon="-0.227317">
        <ele>503.685</ele>
        <time>2020-08-23T15:36:02Z</time>
      </trkpt>
      <trkpt lat="42.042518" lon="-0.227374">
        <ele>503.667</ele>
        <time>2020-08-23T15:36:03Z</time>
      </trkpt>
      <trkpt lat="42.042474" lon="-0.227465">
        <ele>503.418</ele>
        <time>2020-08-23T15:36:05Z</time>
      </trkpt>
      <trkpt lat="42.042459" lon="-0.227524">
        <ele>503.339</ele>
        <time>2020-08-23T15:36:06Z</time>
      </trkpt>
      <trkpt lat="42.042443" lon="-0.227592">
        <ele>503.275</ele>
        <time>2020-08-23T15:36:07Z</time>
      </trkpt>
      <trkpt lat="42.042445" lon="-0.227707">
        <ele>503.024</ele>
        <time>2020-08-23T15:36:09Z</time>
      </trkpt>
      <trkpt lat="42.042443" lon="-0.227770">
        <ele>502.966</ele>
        <time>2020-08-23T15:36:10Z</time>
      </trkpt>
      <trkpt lat="42.042440" lon="-0.227835">
        <ele>502.829</ele>
        <time>2020-08-23T15:36:11Z</time>
      </trkpt>
      <trkpt lat="42.042435" lon="-0.227904">
        <ele>502.521</ele>
        <time>2020-08-23T15:36:12Z</time>
      </trkpt>
      <trkpt lat="42.042424" lon="-0.227972">
        <ele>502.408</ele>
        <time>2020-08-23T15:36:13Z</time>
      </trkpt>
      <trkpt lat="42.042410" lon="-0.228038">
        <ele>502.391</ele>
        <time>2020-08-23T15:36:14Z</time>
      </trkpt>
      <trkpt lat="42.042384" lon="-0.228145">
        <ele>502.311</ele>
        <time>2020-08-23T15:36:16Z</time>
      </trkpt>
      <trkpt lat="42.042363" lon="-0.228257">
        <ele>502.479</ele>
        <time>2020-08-23T15:36:18Z</time>
      </trkpt>
      <trkpt lat="42.042329" lon="-0.228361">
        <ele>502.471</ele>
        <time>2020-08-23T15:36:20Z</time>
      </trkpt>
      <trkpt lat="42.042293" lon="-0.228455">
        <ele>502.082</ele>
        <time>2020-08-23T15:36:22Z</time>
      </trkpt>
      <trkpt lat="42.042281" lon="-0.228521">
        <ele>501.813</ele>
        <time>2020-08-23T15:36:24Z</time>
      </trkpt>
      <trkpt lat="42.042255" lon="-0.228573">
        <ele>501.579</ele>
        <time>2020-08-23T15:36:26Z</time>
      </trkpt>
      <trkpt lat="42.042217" lon="-0.228656">
        <ele>501.428</ele>
        <time>2020-08-23T15:36:28Z</time>
      </trkpt>
      <trkpt lat="42.042174" lon="-0.228756">
        <ele>501.281</ele>
        <time>2020-08-23T15:36:30Z</time>
      </trkpt>
      <trkpt lat="42.042136" lon="-0.228840">
        <ele>501.261</ele>
        <time>2020-08-23T15:36:32Z</time>
      </trkpt>
      <trkpt lat="42.042098" lon="-0.228942">
        <ele>501.417</ele>
        <time>2020-08-23T15:36:34Z</time>
      </trkpt>
      <trkpt lat="42.042070" lon="-0.229042">
        <ele>501.408</ele>
        <time>2020-08-23T15:36:36Z</time>
      </trkpt>
      <trkpt lat="42.042048" lon="-0.229134">
        <ele>501.293</ele>
        <time>2020-08-23T15:36:38Z</time>
      </trkpt>
      <trkpt lat="42.042020" lon="-0.229232">
        <ele>500.933</ele>
        <time>2020-08-23T15:36:40Z</time>
      </trkpt>
      <trkpt lat="42.041994" lon="-0.229340">
        <ele>500.911</ele>
        <time>2020-08-23T15:36:42Z</time>
      </trkpt>
      <trkpt lat="42.041958" lon="-0.229443">
        <ele>500.993</ele>
        <time>2020-08-23T15:36:44Z</time>
      </trkpt>
      <trkpt lat="42.041921" lon="-0.229543">
        <ele>500.924</ele>
        <time>2020-08-23T15:36:46Z</time>
      </trkpt>
      <trkpt lat="42.041878" lon="-0.229643">
        <ele>500.885</ele>
        <time>2020-08-23T15:36:48Z</time>
      </trkpt>
      <trkpt lat="42.041841" lon="-0.229747">
        <ele>500.811</ele>
        <time>2020-08-23T15:36:50Z</time>
      </trkpt>
      <trkpt lat="42.041811" lon="-0.229836">
        <ele>500.850</ele>
        <time>2020-08-23T15:36:52Z</time>
      </trkpt>
      <trkpt lat="42.041785" lon="-0.229928">
        <ele>500.786</ele>
        <time>2020-08-23T15:36:54Z</time>
      </trkpt>
      <trkpt lat="42.041764" lon="-0.230031">
        <ele>500.760</ele>
        <time>2020-08-23T15:36:56Z</time>
      </trkpt>
      <trkpt lat="42.041733" lon="-0.230136">
        <ele>500.726</ele>
        <time>2020-08-23T15:36:58Z</time>
      </trkpt>
      <trkpt lat="42.041700" lon="-0.230239">
        <ele>500.708</ele>
        <time>2020-08-23T15:37:00Z</time>
      </trkpt>
      <trkpt lat="42.041666" lon="-0.230343">
        <ele>500.673</ele>
        <time>2020-08-23T15:37:02Z</time>
      </trkpt>
      <trkpt lat="42.041634" lon="-0.230443">
        <ele>500.413</ele>
        <time>2020-08-23T15:37:04Z</time>
      </trkpt>
      <trkpt lat="42.041595" lon="-0.230544">
        <ele>500.371</ele>
        <time>2020-08-23T15:37:06Z</time>
      </trkpt>
      <trkpt lat="42.041559" lon="-0.230651">
        <ele>500.393</ele>
        <time>2020-08-23T15:37:08Z</time>
      </trkpt>
      <trkpt lat="42.041528" lon="-0.230741">
        <ele>500.364</ele>
        <time>2020-08-23T15:37:10Z</time>
      </trkpt>
      <trkpt lat="42.041498" lon="-0.230844">
        <ele>500.345</ele>
        <time>2020-08-23T15:37:12Z</time>
      </trkpt>
      <trkpt lat="42.041465" lon="-0.230940">
        <ele>500.361</ele>
        <time>2020-08-23T15:37:14Z</time>
      </trkpt>
      <trkpt lat="42.041436" lon="-0.231034">
        <ele>500.390</ele>
        <time>2020-08-23T15:37:16Z</time>
      </trkpt>
      <trkpt lat="42.041405" lon="-0.231139">
        <ele>500.337</ele>
        <time>2020-08-23T15:37:18Z</time>
      </trkpt>
      <trkpt lat="42.041370" lon="-0.231242">
        <ele>500.349</ele>
        <time>2020-08-23T15:37:20Z</time>
      </trkpt>
      <trkpt lat="42.041337" lon="-0.231346">
        <ele>500.413</ele>
        <time>2020-08-23T15:37:22Z</time>
      </trkpt>
      <trkpt lat="42.041302" lon="-0.231435">
        <ele>500.408</ele>
        <time>2020-08-23T15:37:24Z</time>
      </trkpt>
      <trkpt lat="42.041280" lon="-0.231495">
        <ele>500.438</ele>
        <time>2020-08-23T15:37:25Z</time>
      </trkpt>
      <trkpt lat="42.041246" lon="-0.231600">
        <ele>500.368</ele>
        <time>2020-08-23T15:37:27Z</time>
      </trkpt>
      <trkpt lat="42.041212" lon="-0.231693">
        <ele>500.366</ele>
        <time>2020-08-23T15:37:29Z</time>
      </trkpt>
      <trkpt lat="42.041178" lon="-0.231784">
        <ele>500.458</ele>
        <time>2020-08-23T15:37:31Z</time>
      </trkpt>
      <trkpt lat="42.041144" lon="-0.231883">
        <ele>500.569</ele>
        <time>2020-08-23T15:37:33Z</time>
      </trkpt>
      <trkpt lat="42.041127" lon="-0.231941">
        <ele>500.560</ele>
        <time>2020-08-23T15:37:34Z</time>
      </trkpt>
      <trkpt lat="42.041090" lon="-0.232042">
        <ele>500.566</ele>
        <time>2020-08-23T15:37:36Z</time>
      </trkpt>
      <trkpt lat="42.041061" lon="-0.232125">
        <ele>500.525</ele>
        <time>2020-08-23T15:37:38Z</time>
      </trkpt>
      <trkpt lat="42.041035" lon="-0.232229">
        <ele>500.589</ele>
        <time>2020-08-23T15:37:40Z</time>
      </trkpt>
      <trkpt lat="42.041012" lon="-0.232345">
        <ele>500.406</ele>
        <time>2020-08-23T15:37:42Z</time>
      </trkpt>
      <trkpt lat="42.040994" lon="-0.232437">
        <ele>500.326</ele>
        <time>2020-08-23T15:37:44Z</time>
      </trkpt>
      <trkpt lat="42.040972" lon="-0.232524">
        <ele>500.308</ele>
        <time>2020-08-23T15:37:46Z</time>
      </trkpt>
      <trkpt lat="42.040953" lon="-0.232618">
        <ele>500.483</ele>
        <time>2020-08-23T15:37:48Z</time>
      </trkpt>
      <trkpt lat="42.040921" lon="-0.232703">
        <ele>500.473</ele>
        <time>2020-08-23T15:37:50Z</time>
      </trkpt>
      <trkpt lat="42.040896" lon="-0.232798">
        <ele>500.471</ele>
        <time>2020-08-23T15:37:52Z</time>
      </trkpt>
      <trkpt lat="42.040860" lon="-0.232905">
        <ele>500.423</ele>
        <time>2020-08-23T15:37:54Z</time>
      </trkpt>
      <trkpt lat="42.040826" lon="-0.233004">
        <ele>500.354</ele>
        <time>2020-08-23T15:37:56Z</time>
      </trkpt>
      <trkpt lat="42.040795" lon="-0.233090">
        <ele>500.285</ele>
        <time>2020-08-23T15:37:58Z</time>
      </trkpt>
      <trkpt lat="42.040761" lon="-0.233174">
        <ele>500.281</ele>
        <time>2020-08-23T15:38:00Z</time>
      </trkpt>
      <trkpt lat="42.040727" lon="-0.233278">
        <ele>500.390</ele>
        <time>2020-08-23T15:38:02Z</time>
      </trkpt>
      <trkpt lat="42.040703" lon="-0.233372">
        <ele>500.436</ele>
        <time>2020-08-23T15:38:04Z</time>
      </trkpt>
      <trkpt lat="42.040673" lon="-0.233468">
        <ele>500.317</ele>
        <time>2020-08-23T15:38:06Z</time>
      </trkpt>
      <trkpt lat="42.040659" lon="-0.233526">
        <ele>500.318</ele>
        <time>2020-08-23T15:38:07Z</time>
      </trkpt>
      <trkpt lat="42.040628" lon="-0.233616">
        <ele>500.308</ele>
        <time>2020-08-23T15:38:09Z</time>
      </trkpt>
      <trkpt lat="42.040605" lon="-0.233711">
        <ele>500.398</ele>
        <time>2020-08-23T15:38:11Z</time>
      </trkpt>
      <trkpt lat="42.040586" lon="-0.233809">
        <ele>500.258</ele>
        <time>2020-08-23T15:38:13Z</time>
      </trkpt>
      <trkpt lat="42.040550" lon="-0.233907">
        <ele>500.276</ele>
        <time>2020-08-23T15:38:15Z</time>
      </trkpt>
      <trkpt lat="42.040515" lon="-0.234004">
        <ele>500.368</ele>
        <time>2020-08-23T15:38:17Z</time>
      </trkpt>
      <trkpt lat="42.040483" lon="-0.234097">
        <ele>500.449</ele>
        <time>2020-08-23T15:38:19Z</time>
      </trkpt>
      <trkpt lat="42.040452" lon="-0.234188">
        <ele>500.450</ele>
        <time>2020-08-23T15:38:21Z</time>
      </trkpt>
      <trkpt lat="42.040424" lon="-0.234265">
        <ele>500.356</ele>
        <time>2020-08-23T15:38:23Z</time>
      </trkpt>
      <trkpt lat="42.040395" lon="-0.234352">
        <ele>500.275</ele>
        <time>2020-08-23T15:38:25Z</time>
      </trkpt>
      <trkpt lat="42.040365" lon="-0.234455">
        <ele>500.252</ele>
        <time>2020-08-23T15:38:27Z</time>
      </trkpt>
      <trkpt lat="42.040346" lon="-0.234540">
        <ele>500.353</ele>
        <time>2020-08-23T15:38:29Z</time>
      </trkpt>
      <trkpt lat="42.040319" lon="-0.234630">
        <ele>500.208</ele>
        <time>2020-08-23T15:38:31Z</time>
      </trkpt>
      <trkpt lat="42.040286" lon="-0.234720">
        <ele>500.108</ele>
        <time>2020-08-23T15:38:33Z</time>
      </trkpt>
      <trkpt lat="42.040251" lon="-0.234804">
        <ele>500.180</ele>
        <time>2020-08-23T15:38:35Z</time>
      </trkpt>
      <trkpt lat="42.040228" lon="-0.234884">
        <ele>500.350</ele>
        <time>2020-08-23T15:38:37Z</time>
      </trkpt>
      <trkpt lat="42.040209" lon="-0.234974">
        <ele>500.598</ele>
        <time>2020-08-23T15:38:39Z</time>
      </trkpt>
      <trkpt lat="42.040193" lon="-0.235031">
        <ele>500.510</ele>
        <time>2020-08-23T15:38:40Z</time>
      </trkpt>
      <trkpt lat="42.040177" lon="-0.235137">
        <ele>500.521</ele>
        <time>2020-08-23T15:38:42Z</time>
      </trkpt>
      <trkpt lat="42.040155" lon="-0.235254">
        <ele>500.522</ele>
        <time>2020-08-23T15:38:44Z</time>
      </trkpt>
      <trkpt lat="42.040132" lon="-0.235382">
        <ele>500.498</ele>
        <time>2020-08-23T15:38:46Z</time>
      </trkpt>
      <trkpt lat="42.040122" lon="-0.235492">
        <ele>500.437</ele>
        <time>2020-08-23T15:38:48Z</time>
      </trkpt>
      <trkpt lat="42.040124" lon="-0.235603">
        <ele>500.472</ele>
        <time>2020-08-23T15:38:50Z</time>
      </trkpt>
      <trkpt lat="42.040127" lon="-0.235711">
        <ele>500.413</ele>
        <time>2020-08-23T15:38:52Z</time>
      </trkpt>
      <trkpt lat="42.040128" lon="-0.235815">
        <ele>499.914</ele>
        <time>2020-08-23T15:38:54Z</time>
      </trkpt>
      <trkpt lat="42.040120" lon="-0.235917">
        <ele>499.108</ele>
        <time>2020-08-23T15:38:56Z</time>
      </trkpt>
      <trkpt lat="42.040104" lon="-0.236022">
        <ele>498.272</ele>
        <time>2020-08-23T15:38:58Z</time>
      </trkpt>
      <trkpt lat="42.040105" lon="-0.236116">
        <ele>497.052</ele>
        <time>2020-08-23T15:39:00Z</time>
      </trkpt>
      <trkpt lat="42.040146" lon="-0.236182">
        <ele>496.580</ele>
        <time>2020-08-23T15:39:02Z</time>
      </trkpt>
      <trkpt lat="42.040196" lon="-0.236242">
        <ele>496.562</ele>
        <time>2020-08-23T15:39:04Z</time>
      </trkpt>
      <trkpt lat="42.040249" lon="-0.236317">
        <ele>496.753</ele>
        <time>2020-08-23T15:39:06Z</time>
      </trkpt>
      <trkpt lat="42.040302" lon="-0.236387">
        <ele>496.744</ele>
        <time>2020-08-23T15:39:08Z</time>
      </trkpt>
      <trkpt lat="42.040332" lon="-0.236432">
        <ele>496.620</ele>
        <time>2020-08-23T15:39:09Z</time>
      </trkpt>
      <trkpt lat="42.040393" lon="-0.236523">
        <ele>496.359</ele>
        <time>2020-08-23T15:39:11Z</time>
      </trkpt>
      <trkpt lat="42.040422" lon="-0.236577">
        <ele>496.167</ele>
        <time>2020-08-23T15:39:12Z</time>
      </trkpt>
      <trkpt lat="42.040449" lon="-0.236633">
        <ele>496.081</ele>
        <time>2020-08-23T15:39:13Z</time>
      </trkpt>
      <trkpt lat="42.040499" lon="-0.236733">
        <ele>495.819</ele>
        <time>2020-08-23T15:39:15Z</time>
      </trkpt>
      <trkpt lat="42.040545" lon="-0.236833">
        <ele>495.508</ele>
        <time>2020-08-23T15:39:17Z</time>
      </trkpt>
      <trkpt lat="42.040582" lon="-0.236921">
        <ele>495.391</ele>
        <time>2020-08-23T15:39:19Z</time>
      </trkpt>
      <trkpt lat="42.040636" lon="-0.237007">
        <ele>495.281</ele>
        <time>2020-08-23T15:39:21Z</time>
      </trkpt>
      <trkpt lat="42.040684" lon="-0.237094">
        <ele>495.279</ele>
        <time>2020-08-23T15:39:23Z</time>
      </trkpt>
      <trkpt lat="42.040725" lon="-0.237193">
        <ele>495.451</ele>
        <time>2020-08-23T15:39:25Z</time>
      </trkpt>
      <trkpt lat="42.040771" lon="-0.237284">
        <ele>495.492</ele>
        <time>2020-08-23T15:39:27Z</time>
      </trkpt>
      <trkpt lat="42.040817" lon="-0.237370">
        <ele>495.443</ele>
        <time>2020-08-23T15:39:29Z</time>
      </trkpt>
      <trkpt lat="42.040858" lon="-0.237468">
        <ele>495.469</ele>
        <time>2020-08-23T15:39:31Z</time>
      </trkpt>
      <trkpt lat="42.040883" lon="-0.237533">
        <ele>495.378</ele>
        <time>2020-08-23T15:39:32Z</time>
      </trkpt>
      <trkpt lat="42.040910" lon="-0.237599">
        <ele>495.161</ele>
        <time>2020-08-23T15:39:33Z</time>
      </trkpt>
      <trkpt lat="42.040929" lon="-0.237655">
        <ele>495.021</ele>
        <time>2020-08-23T15:39:34Z</time>
      </trkpt>
      <trkpt lat="42.040953" lon="-0.237710">
        <ele>494.913</ele>
        <time>2020-08-23T15:39:35Z</time>
      </trkpt>
      <trkpt lat="42.040976" lon="-0.237763">
        <ele>494.808</ele>
        <time>2020-08-23T15:39:36Z</time>
      </trkpt>
      <trkpt lat="42.041016" lon="-0.237857">
        <ele>494.771</ele>
        <time>2020-08-23T15:39:38Z</time>
      </trkpt>
      <trkpt lat="42.041063" lon="-0.237953">
        <ele>494.631</ele>
        <time>2020-08-23T15:39:40Z</time>
      </trkpt>
      <trkpt lat="42.041117" lon="-0.238051">
        <ele>494.659</ele>
        <time>2020-08-23T15:39:42Z</time>
      </trkpt>
      <trkpt lat="42.041145" lon="-0.238104">
        <ele>494.661</ele>
        <time>2020-08-23T15:39:43Z</time>
      </trkpt>
      <trkpt lat="42.041171" lon="-0.238161">
        <ele>494.612</ele>
        <time>2020-08-23T15:39:44Z</time>
      </trkpt>
      <trkpt lat="42.041219" lon="-0.238267">
        <ele>494.213</ele>
        <time>2020-08-23T15:39:46Z</time>
      </trkpt>
      <trkpt lat="42.041263" lon="-0.238368">
        <ele>493.979</ele>
        <time>2020-08-23T15:39:48Z</time>
      </trkpt>
      <trkpt lat="42.041308" lon="-0.238464">
        <ele>493.938</ele>
        <time>2020-08-23T15:39:50Z</time>
      </trkpt>
      <trkpt lat="42.041352" lon="-0.238565">
        <ele>494.012</ele>
        <time>2020-08-23T15:39:52Z</time>
      </trkpt>
      <trkpt lat="42.041400" lon="-0.238667">
        <ele>494.032</ele>
        <time>2020-08-23T15:39:54Z</time>
      </trkpt>
      <trkpt lat="42.041444" lon="-0.238763">
        <ele>494.005</ele>
        <time>2020-08-23T15:39:56Z</time>
      </trkpt>
      <trkpt lat="42.041473" lon="-0.238809">
        <ele>493.908</ele>
        <time>2020-08-23T15:39:57Z</time>
      </trkpt>
      <trkpt lat="42.041503" lon="-0.238858">
        <ele>493.916</ele>
        <time>2020-08-23T15:39:58Z</time>
      </trkpt>
      <trkpt lat="42.041533" lon="-0.238907">
        <ele>493.966</ele>
        <time>2020-08-23T15:39:59Z</time>
      </trkpt>
      <trkpt lat="42.041565" lon="-0.238955">
        <ele>493.974</ele>
        <time>2020-08-23T15:40:00Z</time>
      </trkpt>
      <trkpt lat="42.041598" lon="-0.239000">
        <ele>493.856</ele>
        <time>2020-08-23T15:40:01Z</time>
      </trkpt>
      <trkpt lat="42.041658" lon="-0.239087">
        <ele>493.837</ele>
        <time>2020-08-23T15:40:03Z</time>
      </trkpt>
      <trkpt lat="42.041686" lon="-0.239135">
        <ele>493.838</ele>
        <time>2020-08-23T15:40:04Z</time>
      </trkpt>
      <trkpt lat="42.041712" lon="-0.239188">
        <ele>493.764</ele>
        <time>2020-08-23T15:40:05Z</time>
      </trkpt>
      <trkpt lat="42.041741" lon="-0.239242">
        <ele>493.773</ele>
        <time>2020-08-23T15:40:06Z</time>
      </trkpt>
      <trkpt lat="42.041772" lon="-0.239292">
        <ele>493.645</ele>
        <time>2020-08-23T15:40:07Z</time>
      </trkpt>
      <trkpt lat="42.041804" lon="-0.239341">
        <ele>493.547</ele>
        <time>2020-08-23T15:40:08Z</time>
      </trkpt>
      <trkpt lat="42.041860" lon="-0.239430">
        <ele>493.411</ele>
        <time>2020-08-23T15:40:10Z</time>
      </trkpt>
      <trkpt lat="42.041912" lon="-0.239507">
        <ele>493.408</ele>
        <time>2020-08-23T15:40:12Z</time>
      </trkpt>
      <trkpt lat="42.041943" lon="-0.239560">
        <ele>493.499</ele>
        <time>2020-08-23T15:40:13Z</time>
      </trkpt>
      <trkpt lat="42.041994" lon="-0.239651">
        <ele>493.329</ele>
        <time>2020-08-23T15:40:15Z</time>
      </trkpt>
      <trkpt lat="42.042021" lon="-0.239703">
        <ele>493.247</ele>
        <time>2020-08-23T15:40:16Z</time>
      </trkpt>
      <trkpt lat="42.042055" lon="-0.239751">
        <ele>493.129</ele>
        <time>2020-08-23T15:40:17Z</time>
      </trkpt>
      <trkpt lat="42.042087" lon="-0.239795">
        <ele>493.010</ele>
        <time>2020-08-23T15:40:18Z</time>
      </trkpt>
      <trkpt lat="42.042153" lon="-0.239867">
        <ele>492.921</ele>
        <time>2020-08-23T15:40:20Z</time>
      </trkpt>
      <trkpt lat="42.042223" lon="-0.239946">
        <ele>492.937</ele>
        <time>2020-08-23T15:40:22Z</time>
      </trkpt>
      <trkpt lat="42.042257" lon="-0.239991">
        <ele>492.916</ele>
        <time>2020-08-23T15:40:23Z</time>
      </trkpt>
      <trkpt lat="42.042315" lon="-0.240074">
        <ele>493.036</ele>
        <time>2020-08-23T15:40:25Z</time>
      </trkpt>
      <trkpt lat="42.042387" lon="-0.240152">
        <ele>492.817</ele>
        <time>2020-08-23T15:40:27Z</time>
      </trkpt>
      <trkpt lat="42.042422" lon="-0.240189">
        <ele>492.718</ele>
        <time>2020-08-23T15:40:28Z</time>
      </trkpt>
      <trkpt lat="42.042483" lon="-0.240244">
        <ele>492.308</ele>
        <time>2020-08-23T15:40:30Z</time>
      </trkpt>
      <trkpt lat="42.042543" lon="-0.240281">
        <ele>492.058</ele>
        <time>2020-08-23T15:40:32Z</time>
      </trkpt>
      <trkpt lat="42.042602" lon="-0.240340">
        <ele>491.888</ele>
        <time>2020-08-23T15:40:34Z</time>
      </trkpt>
      <trkpt lat="42.042667" lon="-0.240411">
        <ele>491.726</ele>
        <time>2020-08-23T15:40:36Z</time>
      </trkpt>
      <trkpt lat="42.042698" lon="-0.240460">
        <ele>491.788</ele>
        <time>2020-08-23T15:40:37Z</time>
      </trkpt>
      <trkpt lat="42.042733" lon="-0.240510">
        <ele>491.749</ele>
        <time>2020-08-23T15:40:38Z</time>
      </trkpt>
      <trkpt lat="42.042762" lon="-0.240557">
        <ele>491.750</ele>
        <time>2020-08-23T15:40:39Z</time>
      </trkpt>
      <trkpt lat="42.042798" lon="-0.240609">
        <ele>491.776</ele>
        <time>2020-08-23T15:40:40Z</time>
      </trkpt>
      <trkpt lat="42.042837" lon="-0.240657">
        <ele>491.645</ele>
        <time>2020-08-23T15:40:41Z</time>
      </trkpt>
      <trkpt lat="42.042870" lon="-0.240701">
        <ele>491.551</ele>
        <time>2020-08-23T15:40:42Z</time>
      </trkpt>
      <trkpt lat="42.042913" lon="-0.240753">
        <ele>491.301</ele>
        <time>2020-08-23T15:40:43Z</time>
      </trkpt>
      <trkpt lat="42.042951" lon="-0.240799">
        <ele>491.211</ele>
        <time>2020-08-23T15:40:44Z</time>
      </trkpt>
      <trkpt lat="42.042991" lon="-0.240841">
        <ele>491.108</ele>
        <time>2020-08-23T15:40:45Z</time>
      </trkpt>
      <trkpt lat="42.043029" lon="-0.240882">
        <ele>491.180</ele>
        <time>2020-08-23T15:40:46Z</time>
      </trkpt>
      <trkpt lat="42.043070" lon="-0.240922">
        <ele>491.090</ele>
        <time>2020-08-23T15:40:47Z</time>
      </trkpt>
      <trkpt lat="42.043116" lon="-0.240969">
        <ele>490.928</ele>
        <time>2020-08-23T15:40:48Z</time>
      </trkpt>
      <trkpt lat="42.043158" lon="-0.241012">
        <ele>490.810</ele>
        <time>2020-08-23T15:40:49Z</time>
      </trkpt>
      <trkpt lat="42.043233" lon="-0.241085">
        <ele>490.871</ele>
        <time>2020-08-23T15:40:51Z</time>
      </trkpt>
      <trkpt lat="42.043312" lon="-0.241144">
        <ele>490.712</ele>
        <time>2020-08-23T15:40:53Z</time>
      </trkpt>
      <trkpt lat="42.043356" lon="-0.241180">
        <ele>490.778</ele>
        <time>2020-08-23T15:40:54Z</time>
      </trkpt>
      <trkpt lat="42.043402" lon="-0.241215">
        <ele>490.687</ele>
        <time>2020-08-23T15:40:55Z</time>
      </trkpt>
      <trkpt lat="42.043448" lon="-0.241254">
        <ele>490.655</ele>
        <time>2020-08-23T15:40:56Z</time>
      </trkpt>
      <trkpt lat="42.043495" lon="-0.241295">
        <ele>490.607</ele>
        <time>2020-08-23T15:40:57Z</time>
      </trkpt>
      <trkpt lat="42.043541" lon="-0.241340">
        <ele>490.617</ele>
        <time>2020-08-23T15:40:58Z</time>
      </trkpt>
      <trkpt lat="42.043583" lon="-0.241377">
        <ele>490.608</ele>
        <time>2020-08-23T15:40:59Z</time>
      </trkpt>
      <trkpt lat="42.043621" lon="-0.241411">
        <ele>490.770</ele>
        <time>2020-08-23T15:41:00Z</time>
      </trkpt>
      <trkpt lat="42.043686" lon="-0.241496">
        <ele>490.890</ele>
        <time>2020-08-23T15:41:02Z</time>
      </trkpt>
      <trkpt lat="42.043722" lon="-0.241537">
        <ele>490.928</ele>
        <time>2020-08-23T15:41:03Z</time>
      </trkpt>
      <trkpt lat="42.043757" lon="-0.241576">
        <ele>490.990</ele>
        <time>2020-08-23T15:41:04Z</time>
      </trkpt>
      <trkpt lat="42.043828" lon="-0.241653">
        <ele>490.881</ele>
        <time>2020-08-23T15:41:06Z</time>
      </trkpt>
      <trkpt lat="42.043890" lon="-0.241718">
        <ele>490.622</ele>
        <time>2020-08-23T15:41:08Z</time>
      </trkpt>
      <trkpt lat="42.043948" lon="-0.241787">
        <ele>490.658</ele>
        <time>2020-08-23T15:41:10Z</time>
      </trkpt>
      <trkpt lat="42.044010" lon="-0.241853">
        <ele>490.777</ele>
        <time>2020-08-23T15:41:12Z</time>
      </trkpt>
      <trkpt lat="42.044076" lon="-0.241928">
        <ele>490.972</ele>
        <time>2020-08-23T15:41:14Z</time>
      </trkpt>
      <trkpt lat="42.044113" lon="-0.241970">
        <ele>490.813</ele>
        <time>2020-08-23T15:41:15Z</time>
      </trkpt>
      <trkpt lat="42.044147" lon="-0.242014">
        <ele>490.814</ele>
        <time>2020-08-23T15:41:16Z</time>
      </trkpt>
      <trkpt lat="42.044214" lon="-0.242095">
        <ele>490.508</ele>
        <time>2020-08-23T15:41:18Z</time>
      </trkpt>
      <trkpt lat="42.044253" lon="-0.242132">
        <ele>490.512</ele>
        <time>2020-08-23T15:41:19Z</time>
      </trkpt>
      <trkpt lat="42.044285" lon="-0.242180">
        <ele>490.592</ele>
        <time>2020-08-23T15:41:20Z</time>
      </trkpt>
      <trkpt lat="42.044310" lon="-0.242234">
        <ele>490.560</ele>
        <time>2020-08-23T15:41:21Z</time>
      </trkpt>
      <trkpt lat="42.044336" lon="-0.242294">
        <ele>490.452</ele>
        <time>2020-08-23T15:41:22Z</time>
      </trkpt>
      <trkpt lat="42.044359" lon="-0.242347">
        <ele>490.323</ele>
        <time>2020-08-23T15:41:23Z</time>
      </trkpt>
      <trkpt lat="42.044412" lon="-0.242438">
        <ele>490.294</ele>
        <time>2020-08-23T15:41:25Z</time>
      </trkpt>
      <trkpt lat="42.044467" lon="-0.242523">
        <ele>490.260</ele>
        <time>2020-08-23T15:41:27Z</time>
      </trkpt>
      <trkpt lat="42.044503" lon="-0.242575">
        <ele>490.279</ele>
        <time>2020-08-23T15:41:28Z</time>
      </trkpt>
      <trkpt lat="42.044537" lon="-0.242628">
        <ele>490.274</ele>
        <time>2020-08-23T15:41:29Z</time>
      </trkpt>
      <trkpt lat="42.044598" lon="-0.242707">
        <ele>490.256</ele>
        <time>2020-08-23T15:41:31Z</time>
      </trkpt>
      <trkpt lat="42.044647" lon="-0.242797">
        <ele>490.221</ele>
        <time>2020-08-23T15:41:33Z</time>
      </trkpt>
      <trkpt lat="42.044672" lon="-0.242856">
        <ele>490.208</ele>
        <time>2020-08-23T15:41:34Z</time>
      </trkpt>
      <trkpt lat="42.044697" lon="-0.242911">
        <ele>490.172</ele>
        <time>2020-08-23T15:41:35Z</time>
      </trkpt>
      <trkpt lat="42.044738" lon="-0.243004">
        <ele>490.042</ele>
        <time>2020-08-23T15:41:37Z</time>
      </trkpt>
      <trkpt lat="42.044775" lon="-0.243100">
        <ele>489.920</ele>
        <time>2020-08-23T15:41:39Z</time>
      </trkpt>
      <trkpt lat="42.044812" lon="-0.243189">
        <ele>489.952</ele>
        <time>2020-08-23T15:41:41Z</time>
      </trkpt>
      <trkpt lat="42.044853" lon="-0.243284">
        <ele>489.973</ele>
        <time>2020-08-23T15:41:43Z</time>
      </trkpt>
      <trkpt lat="42.044886" lon="-0.243370">
        <ele>489.924</ele>
        <time>2020-08-23T15:41:45Z</time>
      </trkpt>
      <trkpt lat="42.044917" lon="-0.243465">
        <ele>490.010</ele>
        <time>2020-08-23T15:41:47Z</time>
      </trkpt>
      <trkpt lat="42.044952" lon="-0.243554">
        <ele>490.119</ele>
        <time>2020-08-23T15:41:49Z</time>
      </trkpt>
      <trkpt lat="42.044989" lon="-0.243642">
        <ele>490.178</ele>
        <time>2020-08-23T15:41:51Z</time>
      </trkpt>
      <trkpt lat="42.045026" lon="-0.243708">
        <ele>490.133</ele>
        <time>2020-08-23T15:41:53Z</time>
      </trkpt>
      <trkpt lat="42.045074" lon="-0.243756">
        <ele>490.126</ele>
        <time>2020-08-23T15:41:55Z</time>
      </trkpt>
      <trkpt lat="42.045125" lon="-0.243810">
        <ele>490.208</ele>
        <time>2020-08-23T15:41:57Z</time>
      </trkpt>
      <trkpt lat="42.045173" lon="-0.243870">
        <ele>490.392</ele>
        <time>2020-08-23T15:41:59Z</time>
      </trkpt>
      <trkpt lat="42.045221" lon="-0.243947">
        <ele>490.372</ele>
        <time>2020-08-23T15:42:01Z</time>
      </trkpt>
      <trkpt lat="42.045260" lon="-0.244019">
        <ele>490.230</ele>
        <time>2020-08-23T15:42:03Z</time>
      </trkpt>
      <trkpt lat="42.045311" lon="-0.244097">
        <ele>490.132</ele>
        <time>2020-08-23T15:42:05Z</time>
      </trkpt>
      <trkpt lat="42.045365" lon="-0.244161">
        <ele>490.233</ele>
        <time>2020-08-23T15:42:07Z</time>
      </trkpt>
      <trkpt lat="42.045420" lon="-0.244222">
        <ele>490.294</ele>
        <time>2020-08-23T15:42:09Z</time>
      </trkpt>
      <trkpt lat="42.045486" lon="-0.244274">
        <ele>490.350</ele>
        <time>2020-08-23T15:42:11Z</time>
      </trkpt>
      <trkpt lat="42.045561" lon="-0.244329">
        <ele>490.449</ele>
        <time>2020-08-23T15:42:13Z</time>
      </trkpt>
      <trkpt lat="42.045634" lon="-0.244393">
        <ele>490.553</ele>
        <time>2020-08-23T15:42:15Z</time>
      </trkpt>
      <trkpt lat="42.045674" lon="-0.244423">
        <ele>490.604</ele>
        <time>2020-08-23T15:42:16Z</time>
      </trkpt>
      <trkpt lat="42.045737" lon="-0.244491">
        <ele>490.714</ele>
        <time>2020-08-23T15:42:18Z</time>
      </trkpt>
      <trkpt lat="42.045784" lon="-0.244541">
        <ele>490.808</ele>
        <time>2020-08-23T15:42:20Z</time>
      </trkpt>
      <trkpt lat="42.045856" lon="-0.244599">
        <ele>490.820</ele>
        <time>2020-08-23T15:42:22Z</time>
      </trkpt>
      <trkpt lat="42.045919" lon="-0.244649">
        <ele>491.080</ele>
        <time>2020-08-23T15:42:24Z</time>
      </trkpt>
      <trkpt lat="42.045975" lon="-0.244701">
        <ele>491.138</ele>
        <time>2020-08-23T15:42:26Z</time>
      </trkpt>
      <trkpt lat="42.046040" lon="-0.244742">
        <ele>491.260</ele>
        <time>2020-08-23T15:42:28Z</time>
      </trkpt>
      <trkpt lat="42.046104" lon="-0.244789">
        <ele>491.221</ele>
        <time>2020-08-23T15:42:30Z</time>
      </trkpt>
      <trkpt lat="42.046164" lon="-0.244843">
        <ele>491.442</ele>
        <time>2020-08-23T15:42:32Z</time>
      </trkpt>
      <trkpt lat="42.046225" lon="-0.244914">
        <ele>491.598</ele>
        <time>2020-08-23T15:42:34Z</time>
      </trkpt>
      <trkpt lat="42.046284" lon="-0.244992">
        <ele>491.637</ele>
        <time>2020-08-23T15:42:36Z</time>
      </trkpt>
      <trkpt lat="42.046333" lon="-0.245058">
        <ele>491.873</ele>
        <time>2020-08-23T15:42:38Z</time>
      </trkpt>
      <trkpt lat="42.046389" lon="-0.245119">
        <ele>492.085</ele>
        <time>2020-08-23T15:42:40Z</time>
      </trkpt>
      <trkpt lat="42.046451" lon="-0.245193">
        <ele>492.113</ele>
        <time>2020-08-23T15:42:42Z</time>
      </trkpt>
      <trkpt lat="42.046498" lon="-0.245266">
        <ele>492.108</ele>
        <time>2020-08-23T15:42:44Z</time>
      </trkpt>
      <trkpt lat="42.046546" lon="-0.245341">
        <ele>492.162</ele>
        <time>2020-08-23T15:42:46Z</time>
      </trkpt>
      <trkpt lat="42.046597" lon="-0.245407">
        <ele>492.382</ele>
        <time>2020-08-23T15:42:48Z</time>
      </trkpt>
      <trkpt lat="42.046644" lon="-0.245471">
        <ele>492.440</ele>
        <time>2020-08-23T15:42:50Z</time>
      </trkpt>
      <trkpt lat="42.046696" lon="-0.245537">
        <ele>492.512</ele>
        <time>2020-08-23T15:42:52Z</time>
      </trkpt>
      <trkpt lat="42.046748" lon="-0.245603">
        <ele>492.563</ele>
        <time>2020-08-23T15:42:54Z</time>
      </trkpt>
      <trkpt lat="42.046798" lon="-0.245667">
        <ele>492.594</ele>
        <time>2020-08-23T15:42:56Z</time>
      </trkpt>
      <trkpt lat="42.046848" lon="-0.245742">
        <ele>492.760</ele>
        <time>2020-08-23T15:42:58Z</time>
      </trkpt>
      <trkpt lat="42.046878" lon="-0.245826">
        <ele>492.889</ele>
        <time>2020-08-23T15:43:00Z</time>
      </trkpt>
      <trkpt lat="42.046938" lon="-0.245894">
        <ele>492.855</ele>
        <time>2020-08-23T15:43:02Z</time>
      </trkpt>
      <trkpt lat="42.046991" lon="-0.245954">
        <ele>492.707</ele>
        <time>2020-08-23T15:43:04Z</time>
      </trkpt>
      <trkpt lat="42.047047" lon="-0.246025">
        <ele>492.717</ele>
        <time>2020-08-23T15:43:06Z</time>
      </trkpt>
      <trkpt lat="42.047100" lon="-0.246088">
        <ele>492.708</ele>
        <time>2020-08-23T15:43:08Z</time>
      </trkpt>
      <trkpt lat="42.047147" lon="-0.246166">
        <ele>492.890</ele>
        <time>2020-08-23T15:43:10Z</time>
      </trkpt>
      <trkpt lat="42.047203" lon="-0.246239">
        <ele>492.870</ele>
        <time>2020-08-23T15:43:12Z</time>
      </trkpt>
      <trkpt lat="42.047255" lon="-0.246331">
        <ele>492.748</ele>
        <time>2020-08-23T15:43:14Z</time>
      </trkpt>
      <trkpt lat="42.047307" lon="-0.246421">
        <ele>492.650</ele>
        <time>2020-08-23T15:43:16Z</time>
      </trkpt>
      <trkpt lat="42.047344" lon="-0.246458">
        <ele>492.721</ele>
        <time>2020-08-23T15:43:17Z</time>
      </trkpt>
      <trkpt lat="42.047382" lon="-0.246496">
        <ele>492.872</ele>
        <time>2020-08-23T15:43:18Z</time>
      </trkpt>
      <trkpt lat="42.047435" lon="-0.246573">
        <ele>493.078</ele>
        <time>2020-08-23T15:43:20Z</time>
      </trkpt>
      <trkpt lat="42.047489" lon="-0.246651">
        <ele>493.057</ele>
        <time>2020-08-23T15:43:22Z</time>
      </trkpt>
      <trkpt lat="42.047533" lon="-0.246728">
        <ele>493.062</ele>
        <time>2020-08-23T15:43:24Z</time>
      </trkpt>
      <trkpt lat="42.047577" lon="-0.246799">
        <ele>493.183</ele>
        <time>2020-08-23T15:43:26Z</time>
      </trkpt>
      <trkpt lat="42.047626" lon="-0.246875">
        <ele>493.311</ele>
        <time>2020-08-23T15:43:28Z</time>
      </trkpt>
      <trkpt lat="42.047664" lon="-0.246937">
        <ele>493.308</ele>
        <time>2020-08-23T15:43:30Z</time>
      </trkpt>
      <trkpt lat="42.047721" lon="-0.247005">
        <ele>493.371</ele>
        <time>2020-08-23T15:43:32Z</time>
      </trkpt>
      <trkpt lat="42.047779" lon="-0.247087">
        <ele>493.361</ele>
        <time>2020-08-23T15:43:34Z</time>
      </trkpt>
      <trkpt lat="42.047831" lon="-0.247163">
        <ele>493.429</ele>
        <time>2020-08-23T15:43:36Z</time>
      </trkpt>
      <trkpt lat="42.047872" lon="-0.247245">
        <ele>493.571</ele>
        <time>2020-08-23T15:43:38Z</time>
      </trkpt>
      <trkpt lat="42.047937" lon="-0.247307">
        <ele>493.672</ele>
        <time>2020-08-23T15:43:40Z</time>
      </trkpt>
      <trkpt lat="42.047992" lon="-0.247377">
        <ele>493.653</ele>
        <time>2020-08-23T15:43:42Z</time>
      </trkpt>
      <trkpt lat="42.048056" lon="-0.247450">
        <ele>493.689</ele>
        <time>2020-08-23T15:43:44Z</time>
      </trkpt>
      <trkpt lat="42.048108" lon="-0.247511">
        <ele>493.778</ele>
        <time>2020-08-23T15:43:46Z</time>
      </trkpt>
      <trkpt lat="42.048158" lon="-0.247578">
        <ele>493.751</ele>
        <time>2020-08-23T15:43:48Z</time>
      </trkpt>
      <trkpt lat="42.048194" lon="-0.247615">
        <ele>493.801</ele>
        <time>2020-08-23T15:43:49Z</time>
      </trkpt>
      <trkpt lat="42.048245" lon="-0.247675">
        <ele>493.911</ele>
        <time>2020-08-23T15:43:51Z</time>
      </trkpt>
      <trkpt lat="42.048296" lon="-0.247744">
        <ele>494.008</ele>
        <time>2020-08-23T15:43:53Z</time>
      </trkpt>
      <trkpt lat="42.048355" lon="-0.247814">
        <ele>493.960</ele>
        <time>2020-08-23T15:43:55Z</time>
      </trkpt>
      <trkpt lat="42.048410" lon="-0.247882">
        <ele>493.820</ele>
        <time>2020-08-23T15:43:57Z</time>
      </trkpt>
      <trkpt lat="42.048471" lon="-0.247954">
        <ele>493.818</ele>
        <time>2020-08-23T15:43:59Z</time>
      </trkpt>
      <trkpt lat="42.048533" lon="-0.248022">
        <ele>493.950</ele>
        <time>2020-08-23T15:44:01Z</time>
      </trkpt>
      <trkpt lat="42.048586" lon="-0.248094">
        <ele>493.991</ele>
        <time>2020-08-23T15:44:03Z</time>
      </trkpt>
      <trkpt lat="42.048635" lon="-0.248164">
        <ele>493.952</ele>
        <time>2020-08-23T15:44:05Z</time>
      </trkpt>
      <trkpt lat="42.048687" lon="-0.248237">
        <ele>493.948</ele>
        <time>2020-08-23T15:44:07Z</time>
      </trkpt>
      <trkpt lat="42.048730" lon="-0.248316">
        <ele>494.027</ele>
        <time>2020-08-23T15:44:09Z</time>
      </trkpt>
      <trkpt lat="42.048784" lon="-0.248395">
        <ele>494.189</ele>
        <time>2020-08-23T15:44:11Z</time>
      </trkpt>
      <trkpt lat="42.048837" lon="-0.248474">
        <ele>494.106</ele>
        <time>2020-08-23T15:44:13Z</time>
      </trkpt>
      <trkpt lat="42.048881" lon="-0.248553">
        <ele>494.226</ele>
        <time>2020-08-23T15:44:15Z</time>
      </trkpt>
      <trkpt lat="42.048931" lon="-0.248628">
        <ele>494.208</ele>
        <time>2020-08-23T15:44:17Z</time>
      </trkpt>
      <trkpt lat="42.048976" lon="-0.248697">
        <ele>494.113</ele>
        <time>2020-08-23T15:44:19Z</time>
      </trkpt>
      <trkpt lat="42.049012" lon="-0.248766">
        <ele>494.063</ele>
        <time>2020-08-23T15:44:21Z</time>
      </trkpt>
      <trkpt lat="42.049059" lon="-0.248845">
        <ele>494.041</ele>
        <time>2020-08-23T15:44:23Z</time>
      </trkpt>
      <trkpt lat="42.049120" lon="-0.248924">
        <ele>494.153</ele>
        <time>2020-08-23T15:44:25Z</time>
      </trkpt>
      <trkpt lat="42.049178" lon="-0.248992">
        <ele>494.254</ele>
        <time>2020-08-23T15:44:27Z</time>
      </trkpt>
      <trkpt lat="42.049232" lon="-0.249067">
        <ele>494.385</ele>
        <time>2020-08-23T15:44:29Z</time>
      </trkpt>
      <trkpt lat="42.049290" lon="-0.249140">
        <ele>494.431</ele>
        <time>2020-08-23T15:44:31Z</time>
      </trkpt>
      <trkpt lat="42.049349" lon="-0.249212">
        <ele>494.540</ele>
        <time>2020-08-23T15:44:33Z</time>
      </trkpt>
      <trkpt lat="42.049399" lon="-0.249284">
        <ele>494.535</ele>
        <time>2020-08-23T15:44:35Z</time>
      </trkpt>
      <trkpt lat="42.049449" lon="-0.249358">
        <ele>494.686</ele>
        <time>2020-08-23T15:44:37Z</time>
      </trkpt>
      <trkpt lat="42.049503" lon="-0.249439">
        <ele>494.714</ele>
        <time>2020-08-23T15:44:39Z</time>
      </trkpt>
      <trkpt lat="42.049548" lon="-0.249524">
        <ele>494.708</ele>
        <time>2020-08-23T15:44:41Z</time>
      </trkpt>
      <trkpt lat="42.049586" lon="-0.249606">
        <ele>494.798</ele>
        <time>2020-08-23T15:44:43Z</time>
      </trkpt>
      <trkpt lat="42.049630" lon="-0.249681">
        <ele>494.758</ele>
        <time>2020-08-23T15:44:45Z</time>
      </trkpt>
      <trkpt lat="42.049668" lon="-0.249745">
        <ele>494.726</ele>
        <time>2020-08-23T15:44:47Z</time>
      </trkpt>
      <trkpt lat="42.049721" lon="-0.249807">
        <ele>494.778</ele>
        <time>2020-08-23T15:44:49Z</time>
      </trkpt>
      <trkpt lat="42.049779" lon="-0.249881">
        <ele>494.889</ele>
        <time>2020-08-23T15:44:51Z</time>
      </trkpt>
      <trkpt lat="42.049829" lon="-0.249957">
        <ele>494.970</ele>
        <time>2020-08-23T15:44:53Z</time>
      </trkpt>
      <trkpt lat="42.049877" lon="-0.250022">
        <ele>495.086</ele>
        <time>2020-08-23T15:44:55Z</time>
      </trkpt>
      <trkpt lat="42.049932" lon="-0.250084">
        <ele>495.165</ele>
        <time>2020-08-23T15:44:57Z</time>
      </trkpt>
      <trkpt lat="42.049994" lon="-0.250155">
        <ele>495.226</ele>
        <time>2020-08-23T15:44:59Z</time>
      </trkpt>
      <trkpt lat="42.050043" lon="-0.250223">
        <ele>495.247</ele>
        <time>2020-08-23T15:45:01Z</time>
      </trkpt>
      <trkpt lat="42.050092" lon="-0.250311">
        <ele>495.211</ele>
        <time>2020-08-23T15:45:03Z</time>
      </trkpt>
      <trkpt lat="42.050134" lon="-0.250393">
        <ele>495.408</ele>
        <time>2020-08-23T15:45:05Z</time>
      </trkpt>
      <trkpt lat="42.050178" lon="-0.250490">
        <ele>495.677</ele>
        <time>2020-08-23T15:45:07Z</time>
      </trkpt>
      <trkpt lat="42.050219" lon="-0.250585">
        <ele>495.727</ele>
        <time>2020-08-23T15:45:09Z</time>
      </trkpt>
      <trkpt lat="42.050254" lon="-0.250679">
        <ele>495.895</ele>
        <time>2020-08-23T15:45:11Z</time>
      </trkpt>
      <trkpt lat="42.050283" lon="-0.250771">
        <ele>495.947</ele>
        <time>2020-08-23T15:45:13Z</time>
      </trkpt>
      <trkpt lat="42.050326" lon="-0.250847">
        <ele>496.038</ele>
        <time>2020-08-23T15:45:15Z</time>
      </trkpt>
      <trkpt lat="42.050370" lon="-0.250927">
        <ele>496.149</ele>
        <time>2020-08-23T15:45:17Z</time>
      </trkpt>
      <trkpt lat="42.050416" lon="-0.251019">
        <ele>496.165</ele>
        <time>2020-08-23T15:45:19Z</time>
      </trkpt>
      <trkpt lat="42.050451" lon="-0.251095">
        <ele>496.284</ele>
        <time>2020-08-23T15:45:21Z</time>
      </trkpt>
      <trkpt lat="42.050495" lon="-0.251166">
        <ele>496.323</ele>
        <time>2020-08-23T15:45:23Z</time>
      </trkpt>
      <trkpt lat="42.050545" lon="-0.251246">
        <ele>496.283</ele>
        <time>2020-08-23T15:45:25Z</time>
      </trkpt>
      <trkpt lat="42.050595" lon="-0.251334">
        <ele>495.911</ele>
        <time>2020-08-23T15:45:27Z</time>
      </trkpt>
      <trkpt lat="42.050648" lon="-0.251420">
        <ele>495.908</ele>
        <time>2020-08-23T15:45:29Z</time>
      </trkpt>
      <trkpt lat="42.050695" lon="-0.251494">
        <ele>496.147</ele>
        <time>2020-08-23T15:45:31Z</time>
      </trkpt>
      <trkpt lat="42.050729" lon="-0.251537">
        <ele>496.327</ele>
        <time>2020-08-23T15:45:32Z</time>
      </trkpt>
      <trkpt lat="42.050766" lon="-0.251612">
        <ele>496.535</ele>
        <time>2020-08-23T15:45:34Z</time>
      </trkpt>
      <trkpt lat="42.050805" lon="-0.251681">
        <ele>496.667</ele>
        <time>2020-08-23T15:45:36Z</time>
      </trkpt>
      <trkpt lat="42.050843" lon="-0.251754">
        <ele>496.788</ele>
        <time>2020-08-23T15:45:38Z</time>
      </trkpt>
      <trkpt lat="42.050900" lon="-0.251831">
        <ele>496.779</ele>
        <time>2020-08-23T15:45:40Z</time>
      </trkpt>
      <trkpt lat="42.050951" lon="-0.251914">
        <ele>496.765</ele>
        <time>2020-08-23T15:45:42Z</time>
      </trkpt>
      <trkpt lat="42.050999" lon="-0.251996">
        <ele>496.884</ele>
        <time>2020-08-23T15:45:44Z</time>
      </trkpt>
      <trkpt lat="42.051039" lon="-0.252067">
        <ele>497.074</ele>
        <time>2020-08-23T15:45:46Z</time>
      </trkpt>
      <trkpt lat="42.051100" lon="-0.252132">
        <ele>497.156</ele>
        <time>2020-08-23T15:45:48Z</time>
      </trkpt>
      <trkpt lat="42.051135" lon="-0.252172">
        <ele>497.221</ele>
        <time>2020-08-23T15:45:49Z</time>
      </trkpt>
      <trkpt lat="42.051203" lon="-0.252241">
        <ele>497.308</ele>
        <time>2020-08-23T15:45:51Z</time>
      </trkpt>
      <trkpt lat="42.051255" lon="-0.252304">
        <ele>497.562</ele>
        <time>2020-08-23T15:45:53Z</time>
      </trkpt>
      <trkpt lat="42.051306" lon="-0.252373">
        <ele>497.592</ele>
        <time>2020-08-23T15:45:55Z</time>
      </trkpt>
      <trkpt lat="42.051351" lon="-0.252440">
        <ele>497.550</ele>
        <time>2020-08-23T15:45:57Z</time>
      </trkpt>
      <trkpt lat="42.051383" lon="-0.252501">
        <ele>497.442</ele>
        <time>2020-08-23T15:45:59Z</time>
      </trkpt>
      <trkpt lat="42.051421" lon="-0.252571">
        <ele>497.333</ele>
        <time>2020-08-23T15:46:01Z</time>
      </trkpt>
      <trkpt lat="42.051467" lon="-0.252634">
        <ele>497.374</ele>
        <time>2020-08-23T15:46:03Z</time>
      </trkpt>
      <trkpt lat="42.051517" lon="-0.252704">
        <ele>497.490</ele>
        <time>2020-08-23T15:46:05Z</time>
      </trkpt>
      <trkpt lat="42.051567" lon="-0.252769">
        <ele>497.469</ele>
        <time>2020-08-23T15:46:07Z</time>
      </trkpt>
      <trkpt lat="42.051607" lon="-0.252830">
        <ele>497.331</ele>
        <time>2020-08-23T15:46:09Z</time>
      </trkpt>
      <trkpt lat="42.051650" lon="-0.252883">
        <ele>497.361</ele>
        <time>2020-08-23T15:46:11Z</time>
      </trkpt>
      <trkpt lat="42.051696" lon="-0.252949">
        <ele>497.307</ele>
        <time>2020-08-23T15:46:13Z</time>
      </trkpt>
      <trkpt lat="42.051742" lon="-0.253028">
        <ele>497.408</ele>
        <time>2020-08-23T15:46:15Z</time>
      </trkpt>
      <trkpt lat="42.051780" lon="-0.253090">
        <ele>497.658</ele>
        <time>2020-08-23T15:46:17Z</time>
      </trkpt>
      <trkpt lat="42.051822" lon="-0.253161">
        <ele>497.838</ele>
        <time>2020-08-23T15:46:19Z</time>
      </trkpt>
      <trkpt lat="42.051876" lon="-0.253217">
        <ele>497.936</ele>
        <time>2020-08-23T15:46:21Z</time>
      </trkpt>
      <trkpt lat="42.051937" lon="-0.253287">
        <ele>497.968</ele>
        <time>2020-08-23T15:46:23Z</time>
      </trkpt>
      <trkpt lat="42.051978" lon="-0.253345">
        <ele>497.869</ele>
        <time>2020-08-23T15:46:25Z</time>
      </trkpt>
      <trkpt lat="42.052028" lon="-0.253406">
        <ele>497.780</ele>
        <time>2020-08-23T15:46:27Z</time>
      </trkpt>
      <trkpt lat="42.052059" lon="-0.253489">
        <ele>497.786</ele>
        <time>2020-08-23T15:46:29Z</time>
      </trkpt>
      <trkpt lat="42.052119" lon="-0.253552">
        <ele>497.775</ele>
        <time>2020-08-23T15:46:31Z</time>
      </trkpt>
      <trkpt lat="42.052183" lon="-0.253605">
        <ele>497.865</ele>
        <time>2020-08-23T15:46:33Z</time>
      </trkpt>
      <trkpt lat="42.052239" lon="-0.253660">
        <ele>497.968</ele>
        <time>2020-08-23T15:46:35Z</time>
      </trkpt>
      <trkpt lat="42.052280" lon="-0.253721">
        <ele>498.014</ele>
        <time>2020-08-23T15:46:37Z</time>
      </trkpt>
      <trkpt lat="42.052324" lon="-0.253795">
        <ele>498.108</ele>
        <time>2020-08-23T15:46:39Z</time>
      </trkpt>
      <trkpt lat="42.052373" lon="-0.253860">
        <ele>498.271</ele>
        <time>2020-08-23T15:46:41Z</time>
      </trkpt>
      <trkpt lat="42.052419" lon="-0.253928">
        <ele>498.361</ele>
        <time>2020-08-23T15:46:43Z</time>
      </trkpt>
      <trkpt lat="42.052469" lon="-0.253997">
        <ele>498.469</ele>
        <time>2020-08-23T15:46:45Z</time>
      </trkpt>
      <trkpt lat="42.052519" lon="-0.254069">
        <ele>498.531</ele>
        <time>2020-08-23T15:46:47Z</time>
      </trkpt>
      <trkpt lat="42.052562" lon="-0.254142">
        <ele>498.422</ele>
        <time>2020-08-23T15:46:49Z</time>
      </trkpt>
      <trkpt lat="42.052602" lon="-0.254213">
        <ele>498.423</ele>
        <time>2020-08-23T15:46:51Z</time>
      </trkpt>
      <trkpt lat="42.052647" lon="-0.254305">
        <ele>498.479</ele>
        <time>2020-08-23T15:46:53Z</time>
      </trkpt>
      <trkpt lat="42.052690" lon="-0.254394">
        <ele>498.638</ele>
        <time>2020-08-23T15:46:55Z</time>
      </trkpt>
      <trkpt lat="42.052721" lon="-0.254472">
        <ele>498.867</ele>
        <time>2020-08-23T15:46:57Z</time>
      </trkpt>
      <trkpt lat="42.052743" lon="-0.254545">
        <ele>498.881</ele>
        <time>2020-08-23T15:46:59Z</time>
      </trkpt>
      <trkpt lat="42.052742" lon="-0.254612">
        <ele>498.719</ele>
        <time>2020-08-23T15:47:02Z</time>
      </trkpt>
      <trkpt lat="42.052656" lon="-0.254664">
        <ele>499.708</ele>
        <time>2020-08-23T15:52:43Z</time>
      </trkpt>
      <trkpt lat="42.052700" lon="-0.254645">
        <ele>499.821</ele>
        <time>2020-08-23T15:53:18Z</time>
      </trkpt>
      <trkpt lat="42.052724" lon="-0.254718">
        <ele>500.051</ele>
        <time>2020-08-23T15:53:27Z</time>
      </trkpt>
      <trkpt lat="42.052751" lon="-0.254794">
        <ele>500.189</ele>
        <time>2020-08-23T15:53:29Z</time>
      </trkpt>
      <trkpt lat="42.052786" lon="-0.254865">
        <ele>500.191</ele>
        <time>2020-08-23T15:53:31Z</time>
      </trkpt>
      <trkpt lat="42.052816" lon="-0.254940">
        <ele>500.062</ele>
        <time>2020-08-23T15:53:33Z</time>
      </trkpt>
      <trkpt lat="42.052848" lon="-0.255014">
        <ele>500.093</ele>
        <time>2020-08-23T15:53:35Z</time>
      </trkpt>
      <trkpt lat="42.052882" lon="-0.255105">
        <ele>500.069</ele>
        <time>2020-08-23T15:53:37Z</time>
      </trkpt>
      <trkpt lat="42.052920" lon="-0.255207">
        <ele>500.128</ele>
        <time>2020-08-23T15:53:39Z</time>
      </trkpt>
      <trkpt lat="42.052946" lon="-0.255306">
        <ele>500.186</ele>
        <time>2020-08-23T15:53:41Z</time>
      </trkpt>
      <trkpt lat="42.052982" lon="-0.255401">
        <ele>500.160</ele>
        <time>2020-08-23T15:53:43Z</time>
      </trkpt>
      <trkpt lat="42.053022" lon="-0.255502">
        <ele>500.126</ele>
        <time>2020-08-23T15:53:45Z</time>
      </trkpt>
      <trkpt lat="42.053074" lon="-0.255600">
        <ele>500.008</ele>
        <time>2020-08-23T15:53:47Z</time>
      </trkpt>
      <trkpt lat="42.053096" lon="-0.255656">
        <ele>500.073</ele>
        <time>2020-08-23T15:53:48Z</time>
      </trkpt>
      <trkpt lat="42.053115" lon="-0.255713">
        <ele>500.013</ele>
        <time>2020-08-23T15:53:49Z</time>
      </trkpt>
      <trkpt lat="42.053151" lon="-0.255820">
        <ele>500.191</ele>
        <time>2020-08-23T15:53:51Z</time>
      </trkpt>
      <trkpt lat="42.053176" lon="-0.255872">
        <ele>500.283</ele>
        <time>2020-08-23T15:53:52Z</time>
      </trkpt>
      <trkpt lat="42.053201" lon="-0.255929">
        <ele>500.294</ele>
        <time>2020-08-23T15:53:53Z</time>
      </trkpt>
      <trkpt lat="42.053226" lon="-0.255984">
        <ele>500.245</ele>
        <time>2020-08-23T15:53:54Z</time>
      </trkpt>
      <trkpt lat="42.053251" lon="-0.256044">
        <ele>500.351</ele>
        <time>2020-08-23T15:53:55Z</time>
      </trkpt>
      <trkpt lat="42.053272" lon="-0.256104">
        <ele>500.340</ele>
        <time>2020-08-23T15:53:56Z</time>
      </trkpt>
      <trkpt lat="42.053312" lon="-0.256208">
        <ele>500.271</ele>
        <time>2020-08-23T15:53:58Z</time>
      </trkpt>
      <trkpt lat="42.053332" lon="-0.256266">
        <ele>500.141</ele>
        <time>2020-08-23T15:53:59Z</time>
      </trkpt>
      <trkpt lat="42.053370" lon="-0.256377">
        <ele>500.015</ele>
        <time>2020-08-23T15:54:01Z</time>
      </trkpt>
      <trkpt lat="42.053409" lon="-0.256483">
        <ele>500.008</ele>
        <time>2020-08-23T15:54:03Z</time>
      </trkpt>
      <trkpt lat="42.053435" lon="-0.256533">
        <ele>499.952</ele>
        <time>2020-08-23T15:54:04Z</time>
      </trkpt>
      <trkpt lat="42.053479" lon="-0.256640">
        <ele>499.952</ele>
        <time>2020-08-23T15:54:06Z</time>
      </trkpt>
      <trkpt lat="42.053513" lon="-0.256737">
        <ele>499.890</ele>
        <time>2020-08-23T15:54:08Z</time>
      </trkpt>
      <trkpt lat="42.053559" lon="-0.256838">
        <ele>499.872</ele>
        <time>2020-08-23T15:54:10Z</time>
      </trkpt>
      <trkpt lat="42.053602" lon="-0.256931">
        <ele>499.773</ele>
        <time>2020-08-23T15:54:12Z</time>
      </trkpt>
      <trkpt lat="42.053636" lon="-0.257023">
        <ele>499.824</ele>
        <time>2020-08-23T15:54:14Z</time>
      </trkpt>
      <trkpt lat="42.053679" lon="-0.257118">
        <ele>499.840</ele>
        <time>2020-08-23T15:54:16Z</time>
      </trkpt>
      <trkpt lat="42.053722" lon="-0.257218">
        <ele>499.869</ele>
        <time>2020-08-23T15:54:18Z</time>
      </trkpt>
      <trkpt lat="42.053756" lon="-0.257308">
        <ele>499.866</ele>
        <time>2020-08-23T15:54:20Z</time>
      </trkpt>
      <trkpt lat="42.053788" lon="-0.257411">
        <ele>499.829</ele>
        <time>2020-08-23T15:54:22Z</time>
      </trkpt>
      <trkpt lat="42.053818" lon="-0.257511">
        <ele>499.921</ele>
        <time>2020-08-23T15:54:24Z</time>
      </trkpt>
      <trkpt lat="42.053857" lon="-0.257614">
        <ele>500.008</ele>
        <time>2020-08-23T15:54:26Z</time>
      </trkpt>
      <trkpt lat="42.053902" lon="-0.257707">
        <ele>499.971</ele>
        <time>2020-08-23T15:54:28Z</time>
      </trkpt>
      <trkpt lat="42.053936" lon="-0.257811">
        <ele>499.841</ele>
        <time>2020-08-23T15:54:30Z</time>
      </trkpt>
      <trkpt lat="42.053969" lon="-0.257921">
        <ele>499.829</ele>
        <time>2020-08-23T15:54:32Z</time>
      </trkpt>
      <trkpt lat="42.054001" lon="-0.258028">
        <ele>500.021</ele>
        <time>2020-08-23T15:54:34Z</time>
      </trkpt>
      <trkpt lat="42.054037" lon="-0.258121">
        <ele>500.232</ele>
        <time>2020-08-23T15:54:36Z</time>
      </trkpt>
      <trkpt lat="42.054081" lon="-0.258218">
        <ele>500.113</ele>
        <time>2020-08-23T15:54:38Z</time>
      </trkpt>
      <trkpt lat="42.054113" lon="-0.258313">
        <ele>499.959</ele>
        <time>2020-08-23T15:54:40Z</time>
      </trkpt>
      <trkpt lat="42.054141" lon="-0.258407">
        <ele>500.168</ele>
        <time>2020-08-23T15:54:42Z</time>
      </trkpt>
      <trkpt lat="42.054165" lon="-0.258496">
        <ele>500.384</ele>
        <time>2020-08-23T15:54:44Z</time>
      </trkpt>
      <trkpt lat="42.054199" lon="-0.258584">
        <ele>500.407</ele>
        <time>2020-08-23T15:54:46Z</time>
      </trkpt>
      <trkpt lat="42.054224" lon="-0.258667">
        <ele>500.417</ele>
        <time>2020-08-23T15:54:48Z</time>
      </trkpt>
      <trkpt lat="42.054262" lon="-0.258760">
        <ele>500.408</ele>
        <time>2020-08-23T15:54:50Z</time>
      </trkpt>
      <trkpt lat="42.054293" lon="-0.258854">
        <ele>500.533</ele>
        <time>2020-08-23T15:54:52Z</time>
      </trkpt>
      <trkpt lat="42.054331" lon="-0.258941">
        <ele>500.523</ele>
        <time>2020-08-23T15:54:54Z</time>
      </trkpt>
      <trkpt lat="42.054366" lon="-0.259037">
        <ele>500.761</ele>
        <time>2020-08-23T15:54:56Z</time>
      </trkpt>
      <trkpt lat="42.054398" lon="-0.259142">
        <ele>500.763</ele>
        <time>2020-08-23T15:54:58Z</time>
      </trkpt>
      <trkpt lat="42.054434" lon="-0.259246">
        <ele>500.664</ele>
        <time>2020-08-23T15:55:00Z</time>
      </trkpt>
      <trkpt lat="42.054473" lon="-0.259348">
        <ele>500.525</ele>
        <time>2020-08-23T15:55:02Z</time>
      </trkpt>
      <trkpt lat="42.054515" lon="-0.259453">
        <ele>500.461</ele>
        <time>2020-08-23T15:55:04Z</time>
      </trkpt>
      <trkpt lat="42.054552" lon="-0.259548">
        <ele>500.490</ele>
        <time>2020-08-23T15:55:06Z</time>
      </trkpt>
      <trkpt lat="42.054591" lon="-0.259638">
        <ele>500.586</ele>
        <time>2020-08-23T15:55:08Z</time>
      </trkpt>
      <trkpt lat="42.054632" lon="-0.259732">
        <ele>500.760</ele>
        <time>2020-08-23T15:55:10Z</time>
      </trkpt>
      <trkpt lat="42.054672" lon="-0.259826">
        <ele>500.726</ele>
        <time>2020-08-23T15:55:12Z</time>
      </trkpt>
      <trkpt lat="42.054702" lon="-0.259918">
        <ele>500.708</ele>
        <time>2020-08-23T15:55:14Z</time>
      </trkpt>
      <trkpt lat="42.054740" lon="-0.259999">
        <ele>500.723</ele>
        <time>2020-08-23T15:55:16Z</time>
      </trkpt>
      <trkpt lat="42.054777" lon="-0.260090">
        <ele>500.763</ele>
        <time>2020-08-23T15:55:18Z</time>
      </trkpt>
      <trkpt lat="42.054821" lon="-0.260186">
        <ele>500.761</ele>
        <time>2020-08-23T15:55:20Z</time>
      </trkpt>
      <trkpt lat="42.054867" lon="-0.260277">
        <ele>500.783</ele>
        <time>2020-08-23T15:55:22Z</time>
      </trkpt>
      <trkpt lat="42.054911" lon="-0.260368">
        <ele>500.724</ele>
        <time>2020-08-23T15:55:24Z</time>
      </trkpt>
      <trkpt lat="42.054962" lon="-0.260440">
        <ele>500.775</ele>
        <time>2020-08-23T15:55:26Z</time>
      </trkpt>
      <trkpt lat="42.055005" lon="-0.260517">
        <ele>500.741</ele>
        <time>2020-08-23T15:55:28Z</time>
      </trkpt>
      <trkpt lat="42.055045" lon="-0.260589">
        <ele>500.710</ele>
        <time>2020-08-23T15:55:30Z</time>
      </trkpt>
      <trkpt lat="42.055090" lon="-0.260655">
        <ele>500.943</ele>
        <time>2020-08-23T15:55:32Z</time>
      </trkpt>
      <trkpt lat="42.055129" lon="-0.260732">
        <ele>501.164</ele>
        <time>2020-08-23T15:55:34Z</time>
      </trkpt>
      <trkpt lat="42.055162" lon="-0.260816">
        <ele>501.210</ele>
        <time>2020-08-23T15:55:36Z</time>
      </trkpt>
      <trkpt lat="42.055214" lon="-0.260887">
        <ele>501.208</ele>
        <time>2020-08-23T15:55:38Z</time>
      </trkpt>
      <trkpt lat="42.055262" lon="-0.260963">
        <ele>501.179</ele>
        <time>2020-08-23T15:55:40Z</time>
      </trkpt>
      <trkpt lat="42.055320" lon="-0.261039">
        <ele>501.179</ele>
        <time>2020-08-23T15:55:42Z</time>
      </trkpt>
      <trkpt lat="42.055375" lon="-0.261091">
        <ele>501.047</ele>
        <time>2020-08-23T15:55:44Z</time>
      </trkpt>
      <trkpt lat="42.055425" lon="-0.261160">
        <ele>500.779</ele>
        <time>2020-08-23T15:55:46Z</time>
      </trkpt>
      <trkpt lat="42.055476" lon="-0.261240">
        <ele>500.250</ele>
        <time>2020-08-23T15:55:48Z</time>
      </trkpt>
      <trkpt lat="42.055517" lon="-0.261332">
        <ele>499.351</ele>
        <time>2020-08-23T15:55:50Z</time>
      </trkpt>
      <trkpt lat="42.055545" lon="-0.261409">
        <ele>498.167</ele>
        <time>2020-08-23T15:55:52Z</time>
      </trkpt>
      <trkpt lat="42.055566" lon="-0.261492">
        <ele>497.186</ele>
        <time>2020-08-23T15:55:54Z</time>
      </trkpt>
      <trkpt lat="42.055593" lon="-0.261588">
        <ele>495.869</ele>
        <time>2020-08-23T15:55:56Z</time>
      </trkpt>
      <trkpt lat="42.055607" lon="-0.261647">
        <ele>495.504</ele>
        <time>2020-08-23T15:55:57Z</time>
      </trkpt>
      <trkpt lat="42.055625" lon="-0.261746">
        <ele>494.924</ele>
        <time>2020-08-23T15:55:59Z</time>
      </trkpt>
      <trkpt lat="42.055641" lon="-0.261835">
        <ele>494.108</ele>
        <time>2020-08-23T15:56:01Z</time>
      </trkpt>
      <trkpt lat="42.055666" lon="-0.261925">
        <ele>493.121</ele>
        <time>2020-08-23T15:56:03Z</time>
      </trkpt>
      <trkpt lat="42.055693" lon="-0.262005">
        <ele>492.241</ele>
        <time>2020-08-23T15:56:05Z</time>
      </trkpt>
      <trkpt lat="42.055708" lon="-0.262089">
        <ele>491.379</ele>
        <time>2020-08-23T15:56:07Z</time>
      </trkpt>
      <trkpt lat="42.055727" lon="-0.262177">
        <ele>490.671</ele>
        <time>2020-08-23T15:56:09Z</time>
      </trkpt>
      <trkpt lat="42.055757" lon="-0.262261">
        <ele>490.062</ele>
        <time>2020-08-23T15:56:11Z</time>
      </trkpt>
      <trkpt lat="42.055778" lon="-0.262358">
        <ele>489.423</ele>
        <time>2020-08-23T15:56:13Z</time>
      </trkpt>
      <trkpt lat="42.055799" lon="-0.262440">
        <ele>488.719</ele>
        <time>2020-08-23T15:56:15Z</time>
      </trkpt>
      <trkpt lat="42.055818" lon="-0.262515">
        <ele>487.938</ele>
        <time>2020-08-23T15:56:17Z</time>
      </trkpt>
      <trkpt lat="42.055846" lon="-0.262591">
        <ele>487.074</ele>
        <time>2020-08-23T15:56:19Z</time>
      </trkpt>
      <trkpt lat="42.055896" lon="-0.262675">
        <ele>486.256</ele>
        <time>2020-08-23T15:56:21Z</time>
      </trkpt>
      <trkpt lat="42.055938" lon="-0.262781">
        <ele>485.621</ele>
        <time>2020-08-23T15:56:23Z</time>
      </trkpt>
      <trkpt lat="42.055954" lon="-0.262849">
        <ele>485.308</ele>
        <time>2020-08-23T15:56:24Z</time>
      </trkpt>
      <trkpt lat="42.055970" lon="-0.262970">
        <ele>484.522</ele>
        <time>2020-08-23T15:56:26Z</time>
      </trkpt>
      <trkpt lat="42.055979" lon="-0.263086">
        <ele>483.822</ele>
        <time>2020-08-23T15:56:28Z</time>
      </trkpt>
      <trkpt lat="42.055983" lon="-0.263205">
        <ele>483.210</ele>
        <time>2020-08-23T15:56:30Z</time>
      </trkpt>
      <trkpt lat="42.055980" lon="-0.263269">
        <ele>482.812</ele>
        <time>2020-08-23T15:56:31Z</time>
      </trkpt>
      <trkpt lat="42.055977" lon="-0.263340">
        <ele>482.473</ele>
        <time>2020-08-23T15:56:32Z</time>
      </trkpt>
      <trkpt lat="42.055977" lon="-0.263415">
        <ele>482.194</ele>
        <time>2020-08-23T15:56:33Z</time>
      </trkpt>
      <trkpt lat="42.055978" lon="-0.263509">
        <ele>481.210</ele>
        <time>2020-08-23T15:56:35Z</time>
      </trkpt>
      <trkpt lat="42.056034" lon="-0.263480">
        <ele>480.539</ele>
        <time>2020-08-23T15:56:42Z</time>
      </trkpt>
      <trkpt lat="42.056083" lon="-0.263417">
        <ele>480.621</ele>
        <time>2020-08-23T15:56:44Z</time>
      </trkpt>
      <trkpt lat="42.056129" lon="-0.263328">
        <ele>480.841</ele>
        <time>2020-08-23T15:56:46Z</time>
      </trkpt>
      <trkpt lat="42.056172" lon="-0.263249">
        <ele>481.005</ele>
        <time>2020-08-23T15:56:48Z</time>
      </trkpt>
      <trkpt lat="42.056199" lon="-0.263182">
        <ele>481.308</ele>
        <time>2020-08-23T15:56:50Z</time>
      </trkpt>
      <trkpt lat="42.056231" lon="-0.263114">
        <ele>481.737</ele>
        <time>2020-08-23T15:56:52Z</time>
      </trkpt>
      <trkpt lat="42.056270" lon="-0.263044">
        <ele>482.077</ele>
        <time>2020-08-23T15:56:54Z</time>
      </trkpt>
      <trkpt lat="42.056302" lon="-0.262976">
        <ele>482.225</ele>
        <time>2020-08-23T15:56:56Z</time>
      </trkpt>
      <trkpt lat="42.056337" lon="-0.262912">
        <ele>482.427</ele>
        <time>2020-08-23T15:56:58Z</time>
      </trkpt>
      <trkpt lat="42.056390" lon="-0.262851">
        <ele>482.798</ele>
        <time>2020-08-23T15:57:00Z</time>
      </trkpt>
      <trkpt lat="42.056444" lon="-0.262791">
        <ele>482.949</ele>
        <time>2020-08-23T15:57:02Z</time>
      </trkpt>
      <trkpt lat="42.056510" lon="-0.262735">
        <ele>483.035</ele>
        <time>2020-08-23T15:57:04Z</time>
      </trkpt>
      <trkpt lat="42.056571" lon="-0.262681">
        <ele>483.174</ele>
        <time>2020-08-23T15:57:06Z</time>
      </trkpt>
      <trkpt lat="42.056644" lon="-0.262632">
        <ele>483.156</ele>
        <time>2020-08-23T15:57:08Z</time>
      </trkpt>
      <trkpt lat="42.056713" lon="-0.262579">
        <ele>483.159</ele>
        <time>2020-08-23T15:57:10Z</time>
      </trkpt>
      <trkpt lat="42.056780" lon="-0.262535">
        <ele>483.214</ele>
        <time>2020-08-23T15:57:12Z</time>
      </trkpt>
      <trkpt lat="42.056847" lon="-0.262491">
        <ele>483.208</ele>
        <time>2020-08-23T15:57:14Z</time>
      </trkpt>
      <trkpt lat="42.056890" lon="-0.262469">
        <ele>483.250</ele>
        <time>2020-08-23T15:57:15Z</time>
      </trkpt>
      <trkpt lat="42.056962" lon="-0.262421">
        <ele>483.270</ele>
        <time>2020-08-23T15:57:17Z</time>
      </trkpt>
      <trkpt lat="42.057009" lon="-0.262402">
        <ele>483.278</ele>
        <time>2020-08-23T15:57:18Z</time>
      </trkpt>
      <trkpt lat="42.057057" lon="-0.262380">
        <ele>483.260</ele>
        <time>2020-08-23T15:57:19Z</time>
      </trkpt>
      <trkpt lat="42.057144" lon="-0.262355">
        <ele>483.171</ele>
        <time>2020-08-23T15:57:21Z</time>
      </trkpt>
      <trkpt lat="42.057186" lon="-0.262327">
        <ele>483.132</ele>
        <time>2020-08-23T15:57:22Z</time>
      </trkpt>
      <trkpt lat="42.057265" lon="-0.262277">
        <ele>483.248</ele>
        <time>2020-08-23T15:57:24Z</time>
      </trkpt>
      <trkpt lat="42.057346" lon="-0.262232">
        <ele>483.337</ele>
        <time>2020-08-23T15:57:26Z</time>
      </trkpt>
      <trkpt lat="42.057388" lon="-0.262201">
        <ele>483.326</ele>
        <time>2020-08-23T15:57:27Z</time>
      </trkpt>
      <trkpt lat="42.057420" lon="-0.262157">
        <ele>483.447</ele>
        <time>2020-08-23T15:57:28Z</time>
      </trkpt>
      <trkpt lat="42.057478" lon="-0.262080">
        <ele>483.511</ele>
        <time>2020-08-23T15:57:30Z</time>
      </trkpt>
      <trkpt lat="42.057530" lon="-0.261995">
        <ele>483.508</ele>
        <time>2020-08-23T15:57:32Z</time>
      </trkpt>
      <trkpt lat="42.057583" lon="-0.261922">
        <ele>483.697</ele>
        <time>2020-08-23T15:57:34Z</time>
      </trkpt>
      <trkpt lat="42.057629" lon="-0.261832">
        <ele>483.787</ele>
        <time>2020-08-23T15:57:36Z</time>
      </trkpt>
      <trkpt lat="42.057664" lon="-0.261789">
        <ele>483.725</ele>
        <time>2020-08-23T15:57:37Z</time>
      </trkpt>
      <trkpt lat="42.057721" lon="-0.261722">
        <ele>483.777</ele>
        <time>2020-08-23T15:57:39Z</time>
      </trkpt>
      <trkpt lat="42.057793" lon="-0.261676">
        <ele>483.798</ele>
        <time>2020-08-23T15:57:41Z</time>
      </trkpt>
      <trkpt lat="42.057838" lon="-0.261644">
        <ele>483.759</ele>
        <time>2020-08-23T15:57:42Z</time>
      </trkpt>
      <trkpt lat="42.057892" lon="-0.261614">
        <ele>483.795</ele>
        <time>2020-08-23T15:57:43Z</time>
      </trkpt>
      <trkpt lat="42.057940" lon="-0.261599">
        <ele>483.724</ele>
        <time>2020-08-23T15:57:44Z</time>
      </trkpt>
      <trkpt lat="42.057985" lon="-0.261588">
        <ele>483.722</ele>
        <time>2020-08-23T15:57:45Z</time>
      </trkpt>
      <trkpt lat="42.058075" lon="-0.261588">
        <ele>483.762</ele>
        <time>2020-08-23T15:57:47Z</time>
      </trkpt>
      <trkpt lat="42.058121" lon="-0.261588">
        <ele>483.708</ele>
        <time>2020-08-23T15:57:48Z</time>
      </trkpt>
      <trkpt lat="42.058170" lon="-0.261587">
        <ele>483.708</ele>
        <time>2020-08-23T15:57:49Z</time>
      </trkpt>
      <trkpt lat="42.058250" lon="-0.261596">
        <ele>483.967</ele>
        <time>2020-08-23T15:57:51Z</time>
      </trkpt>
      <trkpt lat="42.058300" lon="-0.261626">
        <ele>484.097</ele>
        <time>2020-08-23T15:57:53Z</time>
      </trkpt>
      <trkpt lat="42.058366" lon="-0.261655">
        <ele>484.155</ele>
        <time>2020-08-23T15:57:55Z</time>
      </trkpt>
      <trkpt lat="42.058428" lon="-0.261674">
        <ele>484.297</ele>
        <time>2020-08-23T15:57:57Z</time>
      </trkpt>
      <trkpt lat="42.058477" lon="-0.261694">
        <ele>484.448</ele>
        <time>2020-08-23T15:57:59Z</time>
      </trkpt>
      <trkpt lat="42.058537" lon="-0.261713">
        <ele>484.649</ele>
        <time>2020-08-23T15:58:01Z</time>
      </trkpt>
      <trkpt lat="42.058601" lon="-0.261727">
        <ele>484.895</ele>
        <time>2020-08-23T15:58:03Z</time>
      </trkpt>
      <trkpt lat="42.058659" lon="-0.261723">
        <ele>485.154</ele>
        <time>2020-08-23T15:58:05Z</time>
      </trkpt>
      <trkpt lat="42.058718" lon="-0.261731">
        <ele>485.445</ele>
        <time>2020-08-23T15:58:07Z</time>
      </trkpt>
      <trkpt lat="42.058782" lon="-0.261735">
        <ele>485.847</ele>
        <time>2020-08-23T15:58:09Z</time>
      </trkpt>
      <trkpt lat="42.058843" lon="-0.261734">
        <ele>486.011</ele>
        <time>2020-08-23T15:58:11Z</time>
      </trkpt>
      <trkpt lat="42.058903" lon="-0.261725">
        <ele>486.208</ele>
        <time>2020-08-23T15:58:13Z</time>
      </trkpt>
      <trkpt lat="42.058966" lon="-0.261699">
        <ele>486.379</ele>
        <time>2020-08-23T15:58:15Z</time>
      </trkpt>
      <trkpt lat="42.059008" lon="-0.261669">
        <ele>486.439</ele>
        <time>2020-08-23T15:58:16Z</time>
      </trkpt>
      <trkpt lat="42.059081" lon="-0.261628">
        <ele>486.547</ele>
        <time>2020-08-23T15:58:18Z</time>
      </trkpt>
      <trkpt lat="42.059158" lon="-0.261596">
        <ele>486.589</ele>
        <time>2020-08-23T15:58:20Z</time>
      </trkpt>
      <trkpt lat="42.059221" lon="-0.261551">
        <ele>486.640</ele>
        <time>2020-08-23T15:58:22Z</time>
      </trkpt>
      <trkpt lat="42.059278" lon="-0.261516">
        <ele>486.841</ele>
        <time>2020-08-23T15:58:24Z</time>
      </trkpt>
      <trkpt lat="42.059331" lon="-0.261488">
        <ele>487.087</ele>
        <time>2020-08-23T15:58:26Z</time>
      </trkpt>
      <trkpt lat="42.059383" lon="-0.261458">
        <ele>487.336</ele>
        <time>2020-08-23T15:58:28Z</time>
      </trkpt>
      <trkpt lat="42.059431" lon="-0.261449">
        <ele>487.791</ele>
        <time>2020-08-23T15:58:30Z</time>
      </trkpt>
      <trkpt lat="42.059498" lon="-0.261427">
        <ele>488.381</ele>
        <time>2020-08-23T15:58:33Z</time>
      </trkpt>
      <trkpt lat="42.059564" lon="-0.261410">
        <ele>488.719</ele>
        <time>2020-08-23T15:58:35Z</time>
      </trkpt>
      <trkpt lat="42.059635" lon="-0.261417">
        <ele>489.108</ele>
        <time>2020-08-23T15:58:37Z</time>
      </trkpt>
      <trkpt lat="42.059691" lon="-0.261433">
        <ele>489.584</ele>
        <time>2020-08-23T15:58:39Z</time>
      </trkpt>
      <trkpt lat="42.059750" lon="-0.261439">
        <ele>490.084</ele>
        <time>2020-08-23T15:58:41Z</time>
      </trkpt>
      <trkpt lat="42.059805" lon="-0.261452">
        <ele>490.482</ele>
        <time>2020-08-23T15:58:43Z</time>
      </trkpt>
      <trkpt lat="42.059861" lon="-0.261465">
        <ele>490.884</ele>
        <time>2020-08-23T15:58:45Z</time>
      </trkpt>
      <trkpt lat="42.059924" lon="-0.261453">
        <ele>491.185</ele>
        <time>2020-08-23T15:58:47Z</time>
      </trkpt>
      <trkpt lat="42.059986" lon="-0.261435">
        <ele>491.436</ele>
        <time>2020-08-23T15:58:49Z</time>
      </trkpt>
      <trkpt lat="42.060045" lon="-0.261386">
        <ele>491.652</ele>
        <time>2020-08-23T15:58:51Z</time>
      </trkpt>
      <trkpt lat="42.060089" lon="-0.261349">
        <ele>491.971</ele>
        <time>2020-08-23T15:58:53Z</time>
      </trkpt>
      <trkpt lat="42.060136" lon="-0.261311">
        <ele>492.164</ele>
        <time>2020-08-23T15:58:55Z</time>
      </trkpt>
      <trkpt lat="42.060184" lon="-0.261273">
        <ele>492.306</ele>
        <time>2020-08-23T15:58:57Z</time>
      </trkpt>
      <trkpt lat="42.060242" lon="-0.261239">
        <ele>492.416</ele>
        <time>2020-08-23T15:58:59Z</time>
      </trkpt>
      <trkpt lat="42.060291" lon="-0.261213">
        <ele>492.708</ele>
        <time>2020-08-23T15:59:01Z</time>
      </trkpt>
      <trkpt lat="42.060347" lon="-0.261183">
        <ele>492.921</ele>
        <time>2020-08-23T15:59:03Z</time>
      </trkpt>
      <trkpt lat="42.060391" lon="-0.261138">
        <ele>493.241</ele>
        <time>2020-08-23T15:59:05Z</time>
      </trkpt>
      <trkpt lat="42.060442" lon="-0.261117">
        <ele>493.329</ele>
        <time>2020-08-23T15:59:07Z</time>
      </trkpt>
      <trkpt lat="42.060494" lon="-0.261099">
        <ele>493.411</ele>
        <time>2020-08-23T15:59:09Z</time>
      </trkpt>
      <trkpt lat="42.060553" lon="-0.261082">
        <ele>493.632</ele>
        <time>2020-08-23T15:59:11Z</time>
      </trkpt>
      <trkpt lat="42.060611" lon="-0.261065">
        <ele>493.793</ele>
        <time>2020-08-23T15:59:13Z</time>
      </trkpt>
      <trkpt lat="42.060661" lon="-0.261058">
        <ele>493.849</ele>
        <time>2020-08-23T15:59:15Z</time>
      </trkpt>
      <trkpt lat="42.060717" lon="-0.261051">
        <ele>493.938</ele>
        <time>2020-08-23T15:59:17Z</time>
      </trkpt>
      <trkpt lat="42.060784" lon="-0.261030">
        <ele>494.428</ele>
        <time>2020-08-23T15:59:20Z</time>
      </trkpt>
      <trkpt lat="42.060841" lon="-0.261011">
        <ele>494.789</ele>
        <time>2020-08-23T15:59:22Z</time>
      </trkpt>
      <trkpt lat="42.060883" lon="-0.260981">
        <ele>494.917</ele>
        <time>2020-08-23T15:59:24Z</time>
      </trkpt>
      <trkpt lat="42.060931" lon="-0.260954">
        <ele>495.208</ele>
        <time>2020-08-23T15:59:26Z</time>
      </trkpt>
      <trkpt lat="42.060979" lon="-0.260934">
        <ele>495.427</ele>
        <time>2020-08-23T15:59:28Z</time>
      </trkpt>
      <trkpt lat="42.061028" lon="-0.260920">
        <ele>495.687</ele>
        <time>2020-08-23T15:59:30Z</time>
      </trkpt>
      <trkpt lat="42.061095" lon="-0.260924">
        <ele>495.995</ele>
        <time>2020-08-23T15:59:33Z</time>
      </trkpt>
      <trkpt lat="42.061154" lon="-0.260943">
        <ele>496.557</ele>
        <time>2020-08-23T15:59:36Z</time>
      </trkpt>
      <trkpt lat="42.061200" lon="-0.260954">
        <ele>496.918</ele>
        <time>2020-08-23T15:59:38Z</time>
      </trkpt>
      <trkpt lat="42.061265" lon="-0.260984">
        <ele>497.339</ele>
        <time>2020-08-23T15:59:41Z</time>
      </trkpt>
      <trkpt lat="42.061315" lon="-0.261007">
        <ele>497.535</ele>
        <time>2020-08-23T15:59:43Z</time>
      </trkpt>
      <trkpt lat="42.061367" lon="-0.261032">
        <ele>497.774</ele>
        <time>2020-08-23T15:59:45Z</time>
      </trkpt>
      <trkpt lat="42.061417" lon="-0.261044">
        <ele>497.814</ele>
        <time>2020-08-23T15:59:47Z</time>
      </trkpt>
      <trkpt lat="42.061474" lon="-0.261052">
        <ele>497.954</ele>
        <time>2020-08-23T15:59:49Z</time>
      </trkpt>
      <trkpt lat="42.061549" lon="-0.261041">
        <ele>498.009</ele>
        <time>2020-08-23T15:59:51Z</time>
      </trkpt>
      <trkpt lat="42.061622" lon="-0.261030">
        <ele>498.108</ele>
        <time>2020-08-23T15:59:53Z</time>
      </trkpt>
      <trkpt lat="42.061689" lon="-0.261013">
        <ele>498.376</ele>
        <time>2020-08-23T15:59:55Z</time>
      </trkpt>
      <trkpt lat="42.061753" lon="-0.260997">
        <ele>498.486</ele>
        <time>2020-08-23T15:59:57Z</time>
      </trkpt>
      <trkpt lat="42.061823" lon="-0.260964">
        <ele>498.564</ele>
        <time>2020-08-23T15:59:59Z</time>
      </trkpt>
      <trkpt lat="42.061884" lon="-0.260928">
        <ele>498.656</ele>
        <time>2020-08-23T16:00:01Z</time>
      </trkpt>
      <trkpt lat="42.061946" lon="-0.260911">
        <ele>498.867</ele>
        <time>2020-08-23T16:00:03Z</time>
      </trkpt>
      <trkpt lat="42.062010" lon="-0.260891">
        <ele>499.028</ele>
        <time>2020-08-23T16:00:05Z</time>
      </trkpt>
      <trkpt lat="42.062074" lon="-0.260865">
        <ele>499.034</ele>
        <time>2020-08-23T16:00:07Z</time>
      </trkpt>
      <trkpt lat="42.062136" lon="-0.260833">
        <ele>498.963</ele>
        <time>2020-08-23T16:00:09Z</time>
      </trkpt>
      <trkpt lat="42.062193" lon="-0.260820">
        <ele>498.866</ele>
        <time>2020-08-23T16:00:11Z</time>
      </trkpt>
      <trkpt lat="42.062268" lon="-0.260795">
        <ele>498.829</ele>
        <time>2020-08-23T16:00:13Z</time>
      </trkpt>
      <trkpt lat="42.062313" lon="-0.260784">
        <ele>498.821</ele>
        <time>2020-08-23T16:00:14Z</time>
      </trkpt>
      <trkpt lat="42.062390" lon="-0.260763">
        <ele>498.708</ele>
        <time>2020-08-23T16:00:16Z</time>
      </trkpt>
      <trkpt lat="42.062475" lon="-0.260739">
        <ele>498.481</ele>
        <time>2020-08-23T16:00:18Z</time>
      </trkpt>
      <trkpt lat="42.062520" lon="-0.260727">
        <ele>498.291</ele>
        <time>2020-08-23T16:00:19Z</time>
      </trkpt>
      <trkpt lat="42.062611" lon="-0.260690">
        <ele>498.059</ele>
        <time>2020-08-23T16:00:21Z</time>
      </trkpt>
      <trkpt lat="42.062666" lon="-0.260668">
        <ele>498.021</ele>
        <time>2020-08-23T16:00:22Z</time>
      </trkpt>
      <trkpt lat="42.062713" lon="-0.260651">
        <ele>498.112</ele>
        <time>2020-08-23T16:00:23Z</time>
      </trkpt>
      <trkpt lat="42.062757" lon="-0.260639">
        <ele>498.223</ele>
        <time>2020-08-23T16:00:24Z</time>
      </trkpt>
      <trkpt lat="42.062836" lon="-0.260614">
        <ele>498.379</ele>
        <time>2020-08-23T16:00:26Z</time>
      </trkpt>
      <trkpt lat="42.062886" lon="-0.260602">
        <ele>498.318</ele>
        <time>2020-08-23T16:00:27Z</time>
      </trkpt>
      <trkpt lat="42.062970" lon="-0.260589">
        <ele>498.082</ele>
        <time>2020-08-23T16:00:29Z</time>
      </trkpt>
      <trkpt lat="42.063055" lon="-0.260576">
        <ele>497.543</ele>
        <time>2020-08-23T16:00:31Z</time>
      </trkpt>
      <trkpt lat="42.063136" lon="-0.260533">
        <ele>496.917</ele>
        <time>2020-08-23T16:00:33Z</time>
      </trkpt>
      <trkpt lat="42.063175" lon="-0.260493">
        <ele>496.708</ele>
        <time>2020-08-23T16:00:34Z</time>
      </trkpt>
      <trkpt lat="42.063207" lon="-0.260443">
        <ele>496.533</ele>
        <time>2020-08-23T16:00:35Z</time>
      </trkpt>
      <trkpt lat="42.063278" lon="-0.260362">
        <ele>496.443</ele>
        <time>2020-08-23T16:00:37Z</time>
      </trkpt>
      <trkpt lat="42.063335" lon="-0.260296">
        <ele>496.451</ele>
        <time>2020-08-23T16:00:39Z</time>
      </trkpt>
      <trkpt lat="42.063383" lon="-0.260235">
        <ele>496.633</ele>
        <time>2020-08-23T16:00:41Z</time>
      </trkpt>
      <trkpt lat="42.063435" lon="-0.260173">
        <ele>496.644</ele>
        <time>2020-08-23T16:00:43Z</time>
      </trkpt>
      <trkpt lat="42.063484" lon="-0.260116">
        <ele>496.485</ele>
        <time>2020-08-23T16:00:45Z</time>
      </trkpt>
      <trkpt lat="42.063543" lon="-0.260085">
        <ele>496.271</ele>
        <time>2020-08-23T16:00:47Z</time>
      </trkpt>
      <trkpt lat="42.063602" lon="-0.260062">
        <ele>496.120</ele>
        <time>2020-08-23T16:00:49Z</time>
      </trkpt>
      <trkpt lat="42.063663" lon="-0.260048">
        <ele>496.164</ele>
        <time>2020-08-23T16:00:51Z</time>
      </trkpt>
      <trkpt lat="42.063726" lon="-0.260041">
        <ele>496.106</ele>
        <time>2020-08-23T16:00:53Z</time>
      </trkpt>
      <trkpt lat="42.063783" lon="-0.260060">
        <ele>496.216</ele>
        <time>2020-08-23T16:00:55Z</time>
      </trkpt>
      <trkpt lat="42.063843" lon="-0.260090">
        <ele>496.408</ele>
        <time>2020-08-23T16:00:57Z</time>
      </trkpt>
      <trkpt lat="42.063904" lon="-0.260127">
        <ele>496.721</ele>
        <time>2020-08-23T16:00:59Z</time>
      </trkpt>
      <trkpt lat="42.063971" lon="-0.260154">
        <ele>497.011</ele>
        <time>2020-08-23T16:01:01Z</time>
      </trkpt>
      <trkpt lat="42.064037" lon="-0.260162">
        <ele>497.179</ele>
        <time>2020-08-23T16:01:03Z</time>
      </trkpt>
      <trkpt lat="42.064098" lon="-0.260178">
        <ele>497.481</ele>
        <time>2020-08-23T16:01:05Z</time>
      </trkpt>
      <trkpt lat="42.064147" lon="-0.260200">
        <ele>497.812</ele>
        <time>2020-08-23T16:01:07Z</time>
      </trkpt>
      <trkpt lat="42.064192" lon="-0.260234">
        <ele>498.123</ele>
        <time>2020-08-23T16:01:09Z</time>
      </trkpt>
      <trkpt lat="42.064230" lon="-0.260286">
        <ele>498.339</ele>
        <time>2020-08-23T16:01:11Z</time>
      </trkpt>
      <trkpt lat="42.064271" lon="-0.260330">
        <ele>498.688</ele>
        <time>2020-08-23T16:01:13Z</time>
      </trkpt>
      <trkpt lat="42.064313" lon="-0.260361">
        <ele>498.999</ele>
        <time>2020-08-23T16:01:15Z</time>
      </trkpt>
      <trkpt lat="42.064354" lon="-0.260391">
        <ele>499.207</ele>
        <time>2020-08-23T16:01:17Z</time>
      </trkpt>
      <trkpt lat="42.064391" lon="-0.260429">
        <ele>499.427</ele>
        <time>2020-08-23T16:01:20Z</time>
      </trkpt>
      <trkpt lat="42.064401" lon="-0.260488">
        <ele>499.408</ele>
        <time>2020-08-23T16:01:59Z</time>
      </trkpt>
      <trkpt lat="42.064450" lon="-0.260492">
        <ele>499.624</ele>
        <time>2020-08-23T16:02:05Z</time>
      </trkpt>
      <trkpt lat="42.064505" lon="-0.260444">
        <ele>499.554</ele>
        <time>2020-08-23T16:02:08Z</time>
      </trkpt>
      <trkpt lat="42.064562" lon="-0.260431">
        <ele>499.472</ele>
        <time>2020-08-23T16:02:11Z</time>
      </trkpt>
      <trkpt lat="42.064522" lon="-0.260473">
        <ele>499.564</ele>
        <time>2020-08-23T16:02:19Z</time>
      </trkpt>
      <trkpt lat="42.064542" lon="-0.260531">
        <ele>499.775</ele>
        <time>2020-08-23T16:02:32Z</time>
      </trkpt>
      <trkpt lat="42.064510" lon="-0.260589">
        <ele>500.016</ele>
        <time>2020-08-23T16:02:35Z</time>
      </trkpt>
      <trkpt lat="42.064464" lon="-0.260622">
        <ele>500.512</ele>
        <time>2020-08-23T16:04:19Z</time>
      </trkpt>
      <trkpt lat="42.064465" lon="-0.260550">
        <ele>500.281</ele>
        <time>2020-08-23T16:04:43Z</time>
      </trkpt>
      <trkpt lat="42.064503" lon="-0.260493">
        <ele>500.263</ele>
        <time>2020-08-23T16:04:45Z</time>
      </trkpt>
      <trkpt lat="42.064549" lon="-0.260448">
        <ele>500.244</ele>
        <time>2020-08-23T16:04:47Z</time>
      </trkpt>
      <trkpt lat="42.064604" lon="-0.260428">
        <ele>500.318</ele>
        <time>2020-08-23T16:04:49Z</time>
      </trkpt>
      <trkpt lat="42.064663" lon="-0.260415">
        <ele>500.508</ele>
        <time>2020-08-23T16:04:51Z</time>
      </trkpt>
      <trkpt lat="42.064720" lon="-0.260393">
        <ele>500.741</ele>
        <time>2020-08-23T16:04:53Z</time>
      </trkpt>
      <trkpt lat="42.064779" lon="-0.260367">
        <ele>500.921</ele>
        <time>2020-08-23T16:04:56Z</time>
      </trkpt>
      <trkpt lat="42.064836" lon="-0.260342">
        <ele>500.939</ele>
        <time>2020-08-23T16:04:59Z</time>
      </trkpt>
      <trkpt lat="42.064907" lon="-0.260327">
        <ele>500.681</ele>
        <time>2020-08-23T16:05:02Z</time>
      </trkpt>
      <trkpt lat="42.064864" lon="-0.260352">
        <ele>500.332</ele>
        <time>2020-08-23T16:05:11Z</time>
      </trkpt>
      <trkpt lat="42.064808" lon="-0.260373">
        <ele>500.393</ele>
        <time>2020-08-23T16:05:13Z</time>
      </trkpt>
      <trkpt lat="42.064732" lon="-0.260375">
        <ele>500.419</ele>
        <time>2020-08-23T16:05:15Z</time>
      </trkpt>
      <trkpt lat="42.064659" lon="-0.260386">
        <ele>500.548</ele>
        <time>2020-08-23T16:05:17Z</time>
      </trkpt>
      <trkpt lat="42.064581" lon="-0.260439">
        <ele>500.432</ele>
        <time>2020-08-23T16:05:19Z</time>
      </trkpt>
      <trkpt lat="42.064519" lon="-0.260493">
        <ele>500.392</ele>
        <time>2020-08-23T16:05:21Z</time>
      </trkpt>
      <trkpt lat="42.064491" lon="-0.260554">
        <ele>500.311</ele>
        <time>2020-08-23T16:05:23Z</time>
      </trkpt>
      <trkpt lat="42.064474" lon="-0.260635">
        <ele>500.208</ele>
        <time>2020-08-23T16:05:26Z</time>
      </trkpt>
      <trkpt lat="42.064479" lon="-0.260719">
        <ele>500.178</ele>
        <time>2020-08-23T16:05:28Z</time>
      </trkpt>
      <trkpt lat="42.064499" lon="-0.260796">
        <ele>500.048</ele>
        <time>2020-08-23T16:05:30Z</time>
      </trkpt>
      <trkpt lat="42.064565" lon="-0.260817">
        <ele>499.746</ele>
        <time>2020-08-23T16:05:33Z</time>
      </trkpt>
      <trkpt lat="42.064625" lon="-0.260872">
        <ele>499.348</ele>
        <time>2020-08-23T16:05:36Z</time>
      </trkpt>
      <trkpt lat="42.064663" lon="-0.260948">
        <ele>498.959</ele>
        <time>2020-08-23T16:05:38Z</time>
      </trkpt>
      <trkpt lat="42.064704" lon="-0.260987">
        <ele>498.640</ele>
        <time>2020-08-23T16:05:39Z</time>
      </trkpt>
      <trkpt lat="42.064745" lon="-0.261024">
        <ele>498.236</ele>
        <time>2020-08-23T16:05:40Z</time>
      </trkpt>
      <trkpt lat="42.064783" lon="-0.261061">
        <ele>497.965</ele>
        <time>2020-08-23T16:05:41Z</time>
      </trkpt>
      <trkpt lat="42.064851" lon="-0.261127">
        <ele>497.222</ele>
        <time>2020-08-23T16:05:43Z</time>
      </trkpt>
      <trkpt lat="42.064924" lon="-0.261175">
        <ele>496.862</ele>
        <time>2020-08-23T16:05:45Z</time>
      </trkpt>
      <trkpt lat="42.064972" lon="-0.261185">
        <ele>496.608</ele>
        <time>2020-08-23T16:05:46Z</time>
      </trkpt>
      <trkpt lat="42.065026" lon="-0.261193">
        <ele>496.408</ele>
        <time>2020-08-23T16:05:47Z</time>
      </trkpt>
      <trkpt lat="42.065076" lon="-0.261202">
        <ele>496.247</ele>
        <time>2020-08-23T16:05:48Z</time>
      </trkpt>
      <trkpt lat="42.065121" lon="-0.261214">
        <ele>496.077</ele>
        <time>2020-08-23T16:05:49Z</time>
      </trkpt>
      <trkpt lat="42.065168" lon="-0.261225">
        <ele>495.765</ele>
        <time>2020-08-23T16:05:50Z</time>
      </trkpt>
      <trkpt lat="42.065225" lon="-0.261235">
        <ele>495.577</ele>
        <time>2020-08-23T16:05:51Z</time>
      </trkpt>
      <trkpt lat="42.065279" lon="-0.261238">
        <ele>495.358</ele>
        <time>2020-08-23T16:05:52Z</time>
      </trkpt>
      <trkpt lat="42.065334" lon="-0.261235">
        <ele>495.189</ele>
        <time>2020-08-23T16:05:53Z</time>
      </trkpt>
      <trkpt lat="42.065392" lon="-0.261235">
        <ele>494.925</ele>
        <time>2020-08-23T16:05:54Z</time>
      </trkpt>
      <trkpt lat="42.065451" lon="-0.261233">
        <ele>494.854</ele>
        <time>2020-08-23T16:05:55Z</time>
      </trkpt>
      <trkpt lat="42.065509" lon="-0.261233">
        <ele>494.665</ele>
        <time>2020-08-23T16:05:56Z</time>
      </trkpt>
      <trkpt lat="42.065564" lon="-0.261233">
        <ele>494.568</ele>
        <time>2020-08-23T16:05:57Z</time>
      </trkpt>
      <trkpt lat="42.065609" lon="-0.261216">
        <ele>494.414</ele>
        <time>2020-08-23T16:05:58Z</time>
      </trkpt>
      <trkpt lat="42.065681" lon="-0.261179">
        <ele>494.308</ele>
        <time>2020-08-23T16:06:00Z</time>
      </trkpt>
      <trkpt lat="42.065747" lon="-0.261126">
        <ele>494.451</ele>
        <time>2020-08-23T16:06:02Z</time>
      </trkpt>
      <trkpt lat="42.065810" lon="-0.261084">
        <ele>494.521</ele>
        <time>2020-08-23T16:06:04Z</time>
      </trkpt>
      <trkpt lat="42.065868" lon="-0.261052">
        <ele>494.649</ele>
        <time>2020-08-23T16:06:06Z</time>
      </trkpt>
      <trkpt lat="42.065921" lon="-0.261023">
        <ele>494.911</ele>
        <time>2020-08-23T16:06:08Z</time>
      </trkpt>
      <trkpt lat="42.065982" lon="-0.261000">
        <ele>495.242</ele>
        <time>2020-08-23T16:06:10Z</time>
      </trkpt>
      <trkpt lat="42.066047" lon="-0.260986">
        <ele>495.433</ele>
        <time>2020-08-23T16:06:12Z</time>
      </trkpt>
      <trkpt lat="42.066098" lon="-0.260963">
        <ele>495.669</ele>
        <time>2020-08-23T16:06:14Z</time>
      </trkpt>
      <trkpt lat="42.066158" lon="-0.260937">
        <ele>495.928</ele>
        <time>2020-08-23T16:06:16Z</time>
      </trkpt>
      <trkpt lat="42.066222" lon="-0.260910">
        <ele>496.233</ele>
        <time>2020-08-23T16:06:18Z</time>
      </trkpt>
      <trkpt lat="42.066280" lon="-0.260885">
        <ele>496.523</ele>
        <time>2020-08-23T16:06:20Z</time>
      </trkpt>
      <trkpt lat="42.066326" lon="-0.260880">
        <ele>496.815</ele>
        <time>2020-08-23T16:06:22Z</time>
      </trkpt>
      <trkpt lat="42.066386" lon="-0.260908">
        <ele>497.008</ele>
        <time>2020-08-23T16:06:25Z</time>
      </trkpt>
      <trkpt lat="42.066443" lon="-0.260951">
        <ele>497.138</ele>
        <time>2020-08-23T16:06:28Z</time>
      </trkpt>
      <trkpt lat="42.066483" lon="-0.261017">
        <ele>497.138</ele>
        <time>2020-08-23T16:06:30Z</time>
      </trkpt>
      <trkpt lat="42.066507" lon="-0.261099">
        <ele>497.136</ele>
        <time>2020-08-23T16:06:32Z</time>
      </trkpt>
      <trkpt lat="42.066532" lon="-0.261183">
        <ele>497.168</ele>
        <time>2020-08-23T16:06:34Z</time>
      </trkpt>
      <trkpt lat="42.066563" lon="-0.261282">
        <ele>497.349</ele>
        <time>2020-08-23T16:06:36Z</time>
      </trkpt>
      <trkpt lat="42.066597" lon="-0.261374">
        <ele>497.640</ele>
        <time>2020-08-23T16:06:38Z</time>
      </trkpt>
      <trkpt lat="42.066643" lon="-0.261452">
        <ele>497.756</ele>
        <time>2020-08-23T16:06:40Z</time>
      </trkpt>
      <trkpt lat="42.066705" lon="-0.261524">
        <ele>497.445</ele>
        <time>2020-08-23T16:06:42Z</time>
      </trkpt>
      <trkpt lat="42.066776" lon="-0.261586">
        <ele>497.199</ele>
        <time>2020-08-23T16:06:44Z</time>
      </trkpt>
      <trkpt lat="42.066862" lon="-0.261649">
        <ele>496.907</ele>
        <time>2020-08-23T16:06:46Z</time>
      </trkpt>
      <trkpt lat="42.066943" lon="-0.261705">
        <ele>496.727</ele>
        <time>2020-08-23T16:06:48Z</time>
      </trkpt>
      <trkpt lat="42.066988" lon="-0.261744">
        <ele>496.708</ele>
        <time>2020-08-23T16:06:49Z</time>
      </trkpt>
      <trkpt lat="42.067033" lon="-0.261782">
        <ele>496.654</ele>
        <time>2020-08-23T16:06:50Z</time>
      </trkpt>
      <trkpt lat="42.067074" lon="-0.261813">
        <ele>496.564</ele>
        <time>2020-08-23T16:06:51Z</time>
      </trkpt>
      <trkpt lat="42.067120" lon="-0.261849">
        <ele>496.462</ele>
        <time>2020-08-23T16:06:52Z</time>
      </trkpt>
      <trkpt lat="42.067167" lon="-0.261885">
        <ele>496.444</ele>
        <time>2020-08-23T16:06:53Z</time>
      </trkpt>
      <trkpt lat="42.067217" lon="-0.261919">
        <ele>496.315</ele>
        <time>2020-08-23T16:06:54Z</time>
      </trkpt>
      <trkpt lat="42.067265" lon="-0.261954">
        <ele>496.266</ele>
        <time>2020-08-23T16:06:55Z</time>
      </trkpt>
      <trkpt lat="42.067307" lon="-0.261992">
        <ele>496.022</ele>
        <time>2020-08-23T16:06:56Z</time>
      </trkpt>
      <trkpt lat="42.067353" lon="-0.262036">
        <ele>495.951</ele>
        <time>2020-08-23T16:06:57Z</time>
      </trkpt>
      <trkpt lat="42.067394" lon="-0.262075">
        <ele>495.713</ele>
        <time>2020-08-23T16:06:58Z</time>
      </trkpt>
      <trkpt lat="42.067437" lon="-0.262114">
        <ele>495.543</ele>
        <time>2020-08-23T16:06:59Z</time>
      </trkpt>
      <trkpt lat="42.067482" lon="-0.262157">
        <ele>495.507</ele>
        <time>2020-08-23T16:07:00Z</time>
      </trkpt>
      <trkpt lat="42.067536" lon="-0.262200">
        <ele>495.508</ele>
        <time>2020-08-23T16:07:01Z</time>
      </trkpt>
      <trkpt lat="42.067587" lon="-0.262244">
        <ele>495.496</ele>
        <time>2020-08-23T16:07:02Z</time>
      </trkpt>
      <trkpt lat="42.067637" lon="-0.262288">
        <ele>495.466</ele>
        <time>2020-08-23T16:07:03Z</time>
      </trkpt>
      <trkpt lat="42.067687" lon="-0.262330">
        <ele>495.434</ele>
        <time>2020-08-23T16:07:04Z</time>
      </trkpt>
      <trkpt lat="42.067738" lon="-0.262373">
        <ele>495.446</ele>
        <time>2020-08-23T16:07:05Z</time>
      </trkpt>
      <trkpt lat="42.067790" lon="-0.262416">
        <ele>495.417</ele>
        <time>2020-08-23T16:07:06Z</time>
      </trkpt>
      <trkpt lat="42.067843" lon="-0.262465">
        <ele>495.298</ele>
        <time>2020-08-23T16:07:07Z</time>
      </trkpt>
      <trkpt lat="42.067895" lon="-0.262512">
        <ele>495.064</ele>
        <time>2020-08-23T16:07:08Z</time>
      </trkpt>
      <trkpt lat="42.067945" lon="-0.262552">
        <ele>494.863</ele>
        <time>2020-08-23T16:07:09Z</time>
      </trkpt>
      <trkpt lat="42.067992" lon="-0.262590">
        <ele>494.654</ele>
        <time>2020-08-23T16:07:10Z</time>
      </trkpt>
      <trkpt lat="42.068038" lon="-0.262629">
        <ele>494.456</ele>
        <time>2020-08-23T16:07:11Z</time>
      </trkpt>
      <trkpt lat="42.068087" lon="-0.262672">
        <ele>494.211</ele>
        <time>2020-08-23T16:07:12Z</time>
      </trkpt>
      <trkpt lat="42.068134" lon="-0.262716">
        <ele>494.008</ele>
        <time>2020-08-23T16:07:13Z</time>
      </trkpt>
      <trkpt lat="42.068183" lon="-0.262762">
        <ele>493.820</ele>
        <time>2020-08-23T16:07:14Z</time>
      </trkpt>
      <trkpt lat="42.068236" lon="-0.262807">
        <ele>493.740</ele>
        <time>2020-08-23T16:07:15Z</time>
      </trkpt>
      <trkpt lat="42.068292" lon="-0.262855">
        <ele>493.638</ele>
        <time>2020-08-23T16:07:16Z</time>
      </trkpt>
      <trkpt lat="42.068346" lon="-0.262906">
        <ele>493.650</ele>
        <time>2020-08-23T16:07:17Z</time>
      </trkpt>
      <trkpt lat="42.068397" lon="-0.262955">
        <ele>493.731</ele>
        <time>2020-08-23T16:07:18Z</time>
      </trkpt>
      <trkpt lat="42.068449" lon="-0.262995">
        <ele>493.862</ele>
        <time>2020-08-23T16:07:19Z</time>
      </trkpt>
      <trkpt lat="42.068501" lon="-0.263038">
        <ele>493.958</ele>
        <time>2020-08-23T16:07:20Z</time>
      </trkpt>
      <trkpt lat="42.068557" lon="-0.263085">
        <ele>494.047</ele>
        <time>2020-08-23T16:07:21Z</time>
      </trkpt>
      <trkpt lat="42.068609" lon="-0.263132">
        <ele>494.095</ele>
        <time>2020-08-23T16:07:22Z</time>
      </trkpt>
      <trkpt lat="42.068662" lon="-0.263183">
        <ele>494.049</ele>
        <time>2020-08-23T16:07:23Z</time>
      </trkpt>
      <trkpt lat="42.068707" lon="-0.263234">
        <ele>493.923</ele>
        <time>2020-08-23T16:07:24Z</time>
      </trkpt>
      <trkpt lat="42.068752" lon="-0.263278">
        <ele>493.808</ele>
        <time>2020-08-23T16:07:25Z</time>
      </trkpt>
      <trkpt lat="42.068800" lon="-0.263324">
        <ele>493.894</ele>
        <time>2020-08-23T16:07:26Z</time>
      </trkpt>
      <trkpt lat="42.068845" lon="-0.263371">
        <ele>493.884</ele>
        <time>2020-08-23T16:07:27Z</time>
      </trkpt>
      <trkpt lat="42.068886" lon="-0.263410">
        <ele>493.932</ele>
        <time>2020-08-23T16:07:28Z</time>
      </trkpt>
      <trkpt lat="42.068930" lon="-0.263453">
        <ele>493.914</ele>
        <time>2020-08-23T16:07:29Z</time>
      </trkpt>
      <trkpt lat="42.068979" lon="-0.263508">
        <ele>493.935</ele>
        <time>2020-08-23T16:07:30Z</time>
      </trkpt>
      <trkpt lat="42.069029" lon="-0.263551">
        <ele>493.866</ele>
        <time>2020-08-23T16:07:31Z</time>
      </trkpt>
      <trkpt lat="42.069082" lon="-0.263599">
        <ele>493.832</ele>
        <time>2020-08-23T16:07:32Z</time>
      </trkpt>
      <trkpt lat="42.069134" lon="-0.263645">
        <ele>493.861</ele>
        <time>2020-08-23T16:07:33Z</time>
      </trkpt>
      <trkpt lat="42.069176" lon="-0.263680">
        <ele>493.915</ele>
        <time>2020-08-23T16:07:34Z</time>
      </trkpt>
      <trkpt lat="42.069216" lon="-0.263711">
        <ele>494.065</ele>
        <time>2020-08-23T16:07:35Z</time>
      </trkpt>
      <trkpt lat="42.069289" lon="-0.263776">
        <ele>494.011</ele>
        <time>2020-08-23T16:07:37Z</time>
      </trkpt>
      <trkpt lat="42.069328" lon="-0.263808">
        <ele>494.008</ele>
        <time>2020-08-23T16:07:38Z</time>
      </trkpt>
      <trkpt lat="42.069374" lon="-0.263848">
        <ele>493.946</ele>
        <time>2020-08-23T16:07:39Z</time>
      </trkpt>
      <trkpt lat="42.069421" lon="-0.263891">
        <ele>493.846</ele>
        <time>2020-08-23T16:07:40Z</time>
      </trkpt>
      <trkpt lat="42.069472" lon="-0.263936">
        <ele>493.834</ele>
        <time>2020-08-23T16:07:41Z</time>
      </trkpt>
      <trkpt lat="42.069517" lon="-0.263980">
        <ele>493.966</ele>
        <time>2020-08-23T16:07:42Z</time>
      </trkpt>
      <trkpt lat="42.069564" lon="-0.264022">
        <ele>493.947</ele>
        <time>2020-08-23T16:07:43Z</time>
      </trkpt>
      <trkpt lat="42.069609" lon="-0.264062">
        <ele>494.098</ele>
        <time>2020-08-23T16:07:44Z</time>
      </trkpt>
      <trkpt lat="42.069653" lon="-0.264112">
        <ele>494.184</ele>
        <time>2020-08-23T16:07:45Z</time>
      </trkpt>
      <trkpt lat="42.069696" lon="-0.264154">
        <ele>494.123</ele>
        <time>2020-08-23T16:07:46Z</time>
      </trkpt>
      <trkpt lat="42.069742" lon="-0.264197">
        <ele>494.089</ele>
        <time>2020-08-23T16:07:47Z</time>
      </trkpt>
      <trkpt lat="42.069790" lon="-0.264241">
        <ele>493.806</ele>
        <time>2020-08-23T16:07:48Z</time>
      </trkpt>
      <trkpt lat="42.069832" lon="-0.264281">
        <ele>493.626</ele>
        <time>2020-08-23T16:07:49Z</time>
      </trkpt>
      <trkpt lat="42.069875" lon="-0.264320">
        <ele>493.408</ele>
        <time>2020-08-23T16:07:50Z</time>
      </trkpt>
      <trkpt lat="42.069919" lon="-0.264365">
        <ele>493.383</ele>
        <time>2020-08-23T16:07:51Z</time>
      </trkpt>
      <trkpt lat="42.069967" lon="-0.264411">
        <ele>493.333</ele>
        <time>2020-08-23T16:07:52Z</time>
      </trkpt>
      <trkpt lat="42.070015" lon="-0.264452">
        <ele>493.471</ele>
        <time>2020-08-23T16:07:53Z</time>
      </trkpt>
      <trkpt lat="42.070063" lon="-0.264492">
        <ele>493.593</ele>
        <time>2020-08-23T16:07:54Z</time>
      </trkpt>
      <trkpt lat="42.070104" lon="-0.264527">
        <ele>493.724</ele>
        <time>2020-08-23T16:07:55Z</time>
      </trkpt>
      <trkpt lat="42.070149" lon="-0.264565">
        <ele>493.735</ele>
        <time>2020-08-23T16:07:56Z</time>
      </trkpt>
      <trkpt lat="42.070200" lon="-0.264608">
        <ele>493.791</ele>
        <time>2020-08-23T16:07:57Z</time>
      </trkpt>
      <trkpt lat="42.070250" lon="-0.264652">
        <ele>493.650</ele>
        <time>2020-08-23T16:07:58Z</time>
      </trkpt>
      <trkpt lat="42.070301" lon="-0.264695">
        <ele>493.564</ele>
        <time>2020-08-23T16:07:59Z</time>
      </trkpt>
      <trkpt lat="42.070350" lon="-0.264734">
        <ele>493.506</ele>
        <time>2020-08-23T16:08:00Z</time>
      </trkpt>
      <trkpt lat="42.070402" lon="-0.264770">
        <ele>493.516</ele>
        <time>2020-08-23T16:08:01Z</time>
      </trkpt>
      <trkpt lat="42.070450" lon="-0.264808">
        <ele>493.508</ele>
        <time>2020-08-23T16:08:02Z</time>
      </trkpt>
      <trkpt lat="42.070497" lon="-0.264844">
        <ele>493.631</ele>
        <time>2020-08-23T16:08:03Z</time>
      </trkpt>
      <trkpt lat="42.070537" lon="-0.264882">
        <ele>493.831</ele>
        <time>2020-08-23T16:08:04Z</time>
      </trkpt>
      <trkpt lat="42.070583" lon="-0.264917">
        <ele>493.999</ele>
        <time>2020-08-23T16:08:05Z</time>
      </trkpt>
      <trkpt lat="42.070634" lon="-0.264959">
        <ele>494.091</ele>
        <time>2020-08-23T16:08:06Z</time>
      </trkpt>
      <trkpt lat="42.070683" lon="-0.264998">
        <ele>494.012</ele>
        <time>2020-08-23T16:08:07Z</time>
      </trkpt>
      <trkpt lat="42.070731" lon="-0.265038">
        <ele>494.063</ele>
        <time>2020-08-23T16:08:08Z</time>
      </trkpt>
      <trkpt lat="42.070785" lon="-0.265079">
        <ele>493.839</ele>
        <time>2020-08-23T16:08:09Z</time>
      </trkpt>
      <trkpt lat="42.070840" lon="-0.265121">
        <ele>493.638</ele>
        <time>2020-08-23T16:08:10Z</time>
      </trkpt>
      <trkpt lat="42.070888" lon="-0.265157">
        <ele>493.411</ele>
        <time>2020-08-23T16:08:11Z</time>
      </trkpt>
      <trkpt lat="42.070933" lon="-0.265195">
        <ele>493.321</ele>
        <time>2020-08-23T16:08:12Z</time>
      </trkpt>
      <trkpt lat="42.070991" lon="-0.265233">
        <ele>493.303</ele>
        <time>2020-08-23T16:08:13Z</time>
      </trkpt>
      <trkpt lat="42.071047" lon="-0.265280">
        <ele>493.308</ele>
        <time>2020-08-23T16:08:14Z</time>
      </trkpt>
      <trkpt lat="42.071098" lon="-0.265322">
        <ele>493.426</ele>
        <time>2020-08-23T16:08:15Z</time>
      </trkpt>
      <trkpt lat="42.071149" lon="-0.265363">
        <ele>493.576</ele>
        <time>2020-08-23T16:08:16Z</time>
      </trkpt>
      <trkpt lat="42.071201" lon="-0.265408">
        <ele>493.624</ele>
        <time>2020-08-23T16:08:17Z</time>
      </trkpt>
      <trkpt lat="42.071257" lon="-0.265458">
        <ele>493.736</ele>
        <time>2020-08-23T16:08:18Z</time>
      </trkpt>
      <trkpt lat="42.071314" lon="-0.265506">
        <ele>493.897</ele>
        <time>2020-08-23T16:08:19Z</time>
      </trkpt>
      <trkpt lat="42.071371" lon="-0.265552">
        <ele>493.818</ele>
        <time>2020-08-23T16:08:20Z</time>
      </trkpt>
      <trkpt lat="42.071431" lon="-0.265609">
        <ele>493.954</ele>
        <time>2020-08-23T16:08:21Z</time>
      </trkpt>
      <trkpt lat="42.071490" lon="-0.265666">
        <ele>494.073</ele>
        <time>2020-08-23T16:08:22Z</time>
      </trkpt>
      <trkpt lat="42.071562" lon="-0.265733">
        <ele>494.017</ele>
        <time>2020-08-23T16:08:24Z</time>
      </trkpt>
      <trkpt lat="42.071608" lon="-0.265778">
        <ele>494.087</ele>
        <time>2020-08-23T16:08:25Z</time>
      </trkpt>
      <trkpt lat="42.071664" lon="-0.265827">
        <ele>494.015</ele>
        <time>2020-08-23T16:08:26Z</time>
      </trkpt>
      <trkpt lat="42.071720" lon="-0.265875">
        <ele>493.908</ele>
        <time>2020-08-23T16:08:27Z</time>
      </trkpt>
      <trkpt lat="42.071779" lon="-0.265920">
        <ele>493.946</ele>
        <time>2020-08-23T16:08:28Z</time>
      </trkpt>
      <trkpt lat="42.071839" lon="-0.265974">
        <ele>493.996</ele>
        <time>2020-08-23T16:08:29Z</time>
      </trkpt>
      <trkpt lat="42.071903" lon="-0.266030">
        <ele>494.084</ele>
        <time>2020-08-23T16:08:30Z</time>
      </trkpt>
      <trkpt lat="42.071950" lon="-0.266070">
        <ele>494.156</ele>
        <time>2020-08-23T16:08:31Z</time>
      </trkpt>
      <trkpt lat="42.072001" lon="-0.266116">
        <ele>494.227</ele>
        <time>2020-08-23T16:08:32Z</time>
      </trkpt>
      <trkpt lat="42.072049" lon="-0.266163">
        <ele>494.228</ele>
        <time>2020-08-23T16:08:33Z</time>
      </trkpt>
      <trkpt lat="42.072092" lon="-0.266207">
        <ele>494.234</ele>
        <time>2020-08-23T16:08:34Z</time>
      </trkpt>
      <trkpt lat="42.072136" lon="-0.266255">
        <ele>494.183</ele>
        <time>2020-08-23T16:08:35Z</time>
      </trkpt>
      <trkpt lat="42.072183" lon="-0.266302">
        <ele>494.085</ele>
        <time>2020-08-23T16:08:36Z</time>
      </trkpt>
      <trkpt lat="42.072231" lon="-0.266346">
        <ele>494.089</ele>
        <time>2020-08-23T16:08:37Z</time>
      </trkpt>
      <trkpt lat="42.072278" lon="-0.266392">
        <ele>494.017</ele>
        <time>2020-08-23T16:08:38Z</time>
      </trkpt>
      <trkpt lat="42.072324" lon="-0.266444">
        <ele>494.008</ele>
        <time>2020-08-23T16:08:39Z</time>
      </trkpt>
      <trkpt lat="42.072374" lon="-0.266499">
        <ele>494.153</ele>
        <time>2020-08-23T16:08:40Z</time>
      </trkpt>
      <trkpt lat="42.072423" lon="-0.266550">
        <ele>494.263</ele>
        <time>2020-08-23T16:08:41Z</time>
      </trkpt>
      <trkpt lat="42.072477" lon="-0.266599">
        <ele>494.231</ele>
        <time>2020-08-23T16:08:42Z</time>
      </trkpt>
      <trkpt lat="42.072529" lon="-0.266644">
        <ele>494.123</ele>
        <time>2020-08-23T16:08:43Z</time>
      </trkpt>
      <trkpt lat="42.072581" lon="-0.266688">
        <ele>493.874</ele>
        <time>2020-08-23T16:08:44Z</time>
      </trkpt>
      <trkpt lat="42.072627" lon="-0.266728">
        <ele>493.635</ele>
        <time>2020-08-23T16:08:45Z</time>
      </trkpt>
      <trkpt lat="42.072678" lon="-0.266766">
        <ele>493.541</ele>
        <time>2020-08-23T16:08:46Z</time>
      </trkpt>
      <trkpt lat="42.072736" lon="-0.266809">
        <ele>493.530</ele>
        <time>2020-08-23T16:08:47Z</time>
      </trkpt>
      <trkpt lat="42.072798" lon="-0.266859">
        <ele>493.693</ele>
        <time>2020-08-23T16:08:48Z</time>
      </trkpt>
      <trkpt lat="42.072855" lon="-0.266908">
        <ele>493.765</ele>
        <time>2020-08-23T16:08:49Z</time>
      </trkpt>
      <trkpt lat="42.072912" lon="-0.266957">
        <ele>493.821</ele>
        <time>2020-08-23T16:08:50Z</time>
      </trkpt>
      <trkpt lat="42.072978" lon="-0.267014">
        <ele>493.908</ele>
        <time>2020-08-23T16:08:51Z</time>
      </trkpt>
      <trkpt lat="42.073032" lon="-0.267061">
        <ele>493.964</ele>
        <time>2020-08-23T16:08:52Z</time>
      </trkpt>
      <trkpt lat="42.073079" lon="-0.267116">
        <ele>493.954</ele>
        <time>2020-08-23T16:08:53Z</time>
      </trkpt>
      <trkpt lat="42.073122" lon="-0.267181">
        <ele>493.992</ele>
        <time>2020-08-23T16:08:54Z</time>
      </trkpt>
      <trkpt lat="42.073153" lon="-0.267247">
        <ele>493.844</ele>
        <time>2020-08-23T16:08:55Z</time>
      </trkpt>
      <trkpt lat="42.073174" lon="-0.267330">
        <ele>493.785</ele>
        <time>2020-08-23T16:08:56Z</time>
      </trkpt>
      <trkpt lat="42.073193" lon="-0.267433">
        <ele>493.756</ele>
        <time>2020-08-23T16:08:57Z</time>
      </trkpt>
      <trkpt lat="42.073196" lon="-0.267526">
        <ele>493.712</ele>
        <time>2020-08-23T16:08:58Z</time>
      </trkpt>
      <trkpt lat="42.073188" lon="-0.267611">
        <ele>493.771</ele>
        <time>2020-08-23T16:08:59Z</time>
      </trkpt>
      <trkpt lat="42.073180" lon="-0.267705">
        <ele>493.777</ele>
        <time>2020-08-23T16:09:00Z</time>
      </trkpt>
      <trkpt lat="42.073178" lon="-0.267792">
        <ele>493.761</ele>
        <time>2020-08-23T16:09:01Z</time>
      </trkpt>
      <trkpt lat="42.073170" lon="-0.267878">
        <ele>493.727</ele>
        <time>2020-08-23T16:09:02Z</time>
      </trkpt>
      <trkpt lat="42.073166" lon="-0.267960">
        <ele>493.608</ele>
        <time>2020-08-23T16:09:03Z</time>
      </trkpt>
      <trkpt lat="42.073162" lon="-0.268057">
        <ele>493.562</ele>
        <time>2020-08-23T16:09:04Z</time>
      </trkpt>
      <trkpt lat="42.073162" lon="-0.268135">
        <ele>493.542</ele>
        <time>2020-08-23T16:09:05Z</time>
      </trkpt>
      <trkpt lat="42.073167" lon="-0.268211">
        <ele>493.420</ele>
        <time>2020-08-23T16:09:06Z</time>
      </trkpt>
      <trkpt lat="42.073176" lon="-0.268280">
        <ele>493.342</ele>
        <time>2020-08-23T16:09:07Z</time>
      </trkpt>
      <trkpt lat="42.073186" lon="-0.268347">
        <ele>493.373</ele>
        <time>2020-08-23T16:09:08Z</time>
      </trkpt>
      <trkpt lat="42.073207" lon="-0.268410">
        <ele>493.334</ele>
        <time>2020-08-23T16:09:09Z</time>
      </trkpt>
      <trkpt lat="42.073230" lon="-0.268466">
        <ele>493.460</ele>
        <time>2020-08-23T16:09:10Z</time>
      </trkpt>
      <trkpt lat="42.073259" lon="-0.268517">
        <ele>493.639</ele>
        <time>2020-08-23T16:09:11Z</time>
      </trkpt>
      <trkpt lat="42.073304" lon="-0.268605">
        <ele>493.939</ele>
        <time>2020-08-23T16:09:13Z</time>
      </trkpt>
      <trkpt lat="42.073328" lon="-0.268663">
        <ele>494.001</ele>
        <time>2020-08-23T16:09:14Z</time>
      </trkpt>
      <trkpt lat="42.073376" lon="-0.268761">
        <ele>494.221</ele>
        <time>2020-08-23T16:09:16Z</time>
      </trkpt>
      <trkpt lat="42.073415" lon="-0.268852">
        <ele>494.408</ele>
        <time>2020-08-23T16:09:18Z</time>
      </trkpt>
      <trkpt lat="42.073458" lon="-0.268956">
        <ele>494.628</ele>
        <time>2020-08-23T16:09:20Z</time>
      </trkpt>
      <trkpt lat="42.073500" lon="-0.269039">
        <ele>494.848</ele>
        <time>2020-08-23T16:09:22Z</time>
      </trkpt>
      <trkpt lat="42.073535" lon="-0.269116">
        <ele>495.076</ele>
        <time>2020-08-23T16:09:24Z</time>
      </trkpt>
      <trkpt lat="42.073575" lon="-0.269192">
        <ele>495.348</ele>
        <time>2020-08-23T16:09:26Z</time>
      </trkpt>
      <trkpt lat="42.073619" lon="-0.269259">
        <ele>495.599</ele>
        <time>2020-08-23T16:09:28Z</time>
      </trkpt>
      <trkpt lat="42.073656" lon="-0.269316">
        <ele>495.640</ele>
        <time>2020-08-23T16:09:30Z</time>
      </trkpt>
      <trkpt lat="42.073695" lon="-0.269383">
        <ele>495.656</ele>
        <time>2020-08-23T16:09:32Z</time>
      </trkpt>
      <trkpt lat="42.073732" lon="-0.269456">
        <ele>495.635</ele>
        <time>2020-08-23T16:09:34Z</time>
      </trkpt>
      <trkpt lat="42.073771" lon="-0.269541">
        <ele>495.791</ele>
        <time>2020-08-23T16:09:36Z</time>
      </trkpt>
      <trkpt lat="42.073799" lon="-0.269640">
        <ele>495.981</ele>
        <time>2020-08-23T16:09:38Z</time>
      </trkpt>
      <trkpt lat="42.073823" lon="-0.269694">
        <ele>495.919</ele>
        <time>2020-08-23T16:09:39Z</time>
      </trkpt>
      <trkpt lat="42.073850" lon="-0.269746">
        <ele>495.908</ele>
        <time>2020-08-23T16:09:40Z</time>
      </trkpt>
      <trkpt lat="42.073893" lon="-0.269826">
        <ele>495.864</ele>
        <time>2020-08-23T16:09:42Z</time>
      </trkpt>
      <trkpt lat="42.073937" lon="-0.269912">
        <ele>495.934</ele>
        <time>2020-08-23T16:09:44Z</time>
      </trkpt>
      <trkpt lat="42.073986" lon="-0.269998">
        <ele>496.112</ele>
        <time>2020-08-23T16:09:46Z</time>
      </trkpt>
      <trkpt lat="42.074023" lon="-0.270075">
        <ele>496.564</ele>
        <time>2020-08-23T16:09:48Z</time>
      </trkpt>
      <trkpt lat="42.074064" lon="-0.270148">
        <ele>496.665</ele>
        <time>2020-08-23T16:09:50Z</time>
      </trkpt>
      <trkpt lat="42.074094" lon="-0.270223">
        <ele>496.666</ele>
        <time>2020-08-23T16:09:52Z</time>
      </trkpt>
      <trkpt lat="42.074133" lon="-0.270300">
        <ele>496.682</ele>
        <time>2020-08-23T16:09:54Z</time>
      </trkpt>
      <trkpt lat="42.074172" lon="-0.270372">
        <ele>496.851</ele>
        <time>2020-08-23T16:09:56Z</time>
      </trkpt>
      <trkpt lat="42.074209" lon="-0.270455">
        <ele>497.052</ele>
        <time>2020-08-23T16:09:58Z</time>
      </trkpt>
      <trkpt lat="42.074239" lon="-0.270546">
        <ele>497.253</ele>
        <time>2020-08-23T16:10:00Z</time>
      </trkpt>
      <trkpt lat="42.074269" lon="-0.270621">
        <ele>497.508</ele>
        <time>2020-08-23T16:10:02Z</time>
      </trkpt>
      <trkpt lat="42.074309" lon="-0.270696">
        <ele>497.708</ele>
        <time>2020-08-23T16:10:04Z</time>
      </trkpt>
      <trkpt lat="42.074335" lon="-0.270772">
        <ele>497.870</ele>
        <time>2020-08-23T16:10:06Z</time>
      </trkpt>
      <trkpt lat="42.074361" lon="-0.270843">
        <ele>498.030</ele>
        <time>2020-08-23T16:10:08Z</time>
      </trkpt>
      <trkpt lat="42.074384" lon="-0.270920">
        <ele>498.248</ele>
        <time>2020-08-23T16:10:10Z</time>
      </trkpt>
      <trkpt lat="42.074412" lon="-0.270986">
        <ele>498.470</ele>
        <time>2020-08-23T16:10:12Z</time>
      </trkpt>
      <trkpt lat="42.074448" lon="-0.271070">
        <ele>498.691</ele>
        <time>2020-08-23T16:10:14Z</time>
      </trkpt>
      <trkpt lat="42.074477" lon="-0.271131">
        <ele>498.882</ele>
        <time>2020-08-23T16:10:16Z</time>
      </trkpt>
      <trkpt lat="42.074509" lon="-0.271199">
        <ele>499.128</ele>
        <time>2020-08-23T16:10:18Z</time>
      </trkpt>
      <trkpt lat="42.074539" lon="-0.271273">
        <ele>499.437</ele>
        <time>2020-08-23T16:10:20Z</time>
      </trkpt>
      <trkpt lat="42.074571" lon="-0.271350">
        <ele>499.659</ele>
        <time>2020-08-23T16:10:22Z</time>
      </trkpt>
      <trkpt lat="42.074600" lon="-0.271411">
        <ele>500.003</ele>
        <time>2020-08-23T16:10:24Z</time>
      </trkpt>
      <trkpt lat="42.074631" lon="-0.271489">
        <ele>500.423</ele>
        <time>2020-08-23T16:10:26Z</time>
      </trkpt>
      <trkpt lat="42.074665" lon="-0.271564">
        <ele>500.908</ele>
        <time>2020-08-23T16:10:29Z</time>
      </trkpt>
      <trkpt lat="42.074701" lon="-0.271670">
        <ele>501.360</ele>
        <time>2020-08-23T16:10:31Z</time>
      </trkpt>
      <trkpt lat="42.074723" lon="-0.271742">
        <ele>501.940</ele>
        <time>2020-08-23T16:10:34Z</time>
      </trkpt>
      <trkpt lat="42.074739" lon="-0.271817">
        <ele>502.358</ele>
        <time>2020-08-23T16:10:36Z</time>
      </trkpt>
      <trkpt lat="42.074754" lon="-0.271891">
        <ele>502.640</ele>
        <time>2020-08-23T16:10:38Z</time>
      </trkpt>
      <trkpt lat="42.074760" lon="-0.271976">
        <ele>502.811</ele>
        <time>2020-08-23T16:10:40Z</time>
      </trkpt>
      <trkpt lat="42.074763" lon="-0.272045">
        <ele>503.032</ele>
        <time>2020-08-23T16:10:42Z</time>
      </trkpt>
      <trkpt lat="42.074749" lon="-0.272111">
        <ele>503.298</ele>
        <time>2020-08-23T16:10:44Z</time>
      </trkpt>
      <trkpt lat="42.074731" lon="-0.272185">
        <ele>503.447</ele>
        <time>2020-08-23T16:10:46Z</time>
      </trkpt>
      <trkpt lat="42.074712" lon="-0.272278">
        <ele>503.622</ele>
        <time>2020-08-23T16:10:48Z</time>
      </trkpt>
      <trkpt lat="42.074697" lon="-0.272361">
        <ele>503.962</ele>
        <time>2020-08-23T16:10:50Z</time>
      </trkpt>
      <trkpt lat="42.074690" lon="-0.272440">
        <ele>504.108</ele>
        <time>2020-08-23T16:10:52Z</time>
      </trkpt>
      <trkpt lat="42.074688" lon="-0.272533">
        <ele>504.308</ele>
        <time>2020-08-23T16:10:54Z</time>
      </trkpt>
      <trkpt lat="42.074677" lon="-0.272613">
        <ele>504.797</ele>
        <time>2020-08-23T16:10:57Z</time>
      </trkpt>
      <trkpt lat="42.074677" lon="-0.272686">
        <ele>504.837</ele>
        <time>2020-08-23T16:10:59Z</time>
      </trkpt>
      <trkpt lat="42.074657" lon="-0.272754">
        <ele>504.915</ele>
        <time>2020-08-23T16:11:01Z</time>
      </trkpt>
      <trkpt lat="42.074645" lon="-0.272837">
        <ele>505.047</ele>
        <time>2020-08-23T16:11:03Z</time>
      </trkpt>
      <trkpt lat="42.074637" lon="-0.272923">
        <ele>505.268</ele>
        <time>2020-08-23T16:11:05Z</time>
      </trkpt>
      <trkpt lat="42.074659" lon="-0.272997">
        <ele>505.659</ele>
        <time>2020-08-23T16:11:07Z</time>
      </trkpt>
      <trkpt lat="42.074687" lon="-0.273055">
        <ele>505.935</ele>
        <time>2020-08-23T16:11:09Z</time>
      </trkpt>
      <trkpt lat="42.074750" lon="-0.273075">
        <ele>506.194</ele>
        <time>2020-08-23T16:11:11Z</time>
      </trkpt>
      <trkpt lat="42.074820" lon="-0.273074">
        <ele>506.156</ele>
        <time>2020-08-23T16:11:13Z</time>
      </trkpt>
      <trkpt lat="42.074878" lon="-0.273079">
        <ele>506.059</ele>
        <time>2020-08-23T16:11:15Z</time>
      </trkpt>
      <trkpt lat="42.074951" lon="-0.273093">
        <ele>505.814</ele>
        <time>2020-08-23T16:11:18Z</time>
      </trkpt>
      <trkpt lat="42.075002" lon="-0.273116">
        <ele>505.908</ele>
        <time>2020-08-23T16:11:20Z</time>
      </trkpt>
      <trkpt lat="42.075060" lon="-0.273134">
        <ele>506.060</ele>
        <time>2020-08-23T16:11:22Z</time>
      </trkpt>
      <trkpt lat="42.075105" lon="-0.273142">
        <ele>506.340</ele>
        <time>2020-08-23T16:11:24Z</time>
      </trkpt>
      <trkpt lat="42.075152" lon="-0.273155">
        <ele>506.858</ele>
        <time>2020-08-23T16:11:44Z</time>
      </trkpt>
      <trkpt lat="42.075211" lon="-0.273167">
        <ele>506.950</ele>
        <time>2020-08-23T16:11:48Z</time>
      </trkpt>
      <trkpt lat="42.075264" lon="-0.273160">
        <ele>507.071</ele>
        <time>2020-08-23T16:11:51Z</time>
      </trkpt>
      <trkpt lat="42.075312" lon="-0.273189">
        <ele>507.122</ele>
        <time>2020-08-23T16:11:53Z</time>
      </trkpt>
      <trkpt lat="42.075365" lon="-0.273215">
        <ele>507.398</ele>
        <time>2020-08-23T16:11:56Z</time>
      </trkpt>
      <trkpt lat="42.075416" lon="-0.273242">
        <ele>507.457</ele>
        <time>2020-08-23T16:11:58Z</time>
      </trkpt>
      <trkpt lat="42.075468" lon="-0.273267">
        <ele>507.684</ele>
        <time>2020-08-23T16:12:00Z</time>
      </trkpt>
      <trkpt lat="42.075527" lon="-0.273299">
        <ele>507.707</ele>
        <time>2020-08-23T16:12:02Z</time>
      </trkpt>
      <trkpt lat="42.075583" lon="-0.273350">
        <ele>507.717</ele>
        <time>2020-08-23T16:12:04Z</time>
      </trkpt>
      <trkpt lat="42.075623" lon="-0.273381">
        <ele>507.708</ele>
        <time>2020-08-23T16:12:06Z</time>
      </trkpt>
      <trkpt lat="42.075658" lon="-0.273445">
        <ele>507.753</ele>
        <time>2020-08-23T16:12:08Z</time>
      </trkpt>
      <trkpt lat="42.075675" lon="-0.273523">
        <ele>507.643</ele>
        <time>2020-08-23T16:12:10Z</time>
      </trkpt>
      <trkpt lat="42.075684" lon="-0.273623">
        <ele>507.691</ele>
        <time>2020-08-23T16:12:12Z</time>
      </trkpt>
      <trkpt lat="42.075692" lon="-0.273728">
        <ele>507.923</ele>
        <time>2020-08-23T16:12:14Z</time>
      </trkpt>
      <trkpt lat="42.075708" lon="-0.273821">
        <ele>508.494</ele>
        <time>2020-08-23T16:12:16Z</time>
      </trkpt>
      <trkpt lat="42.075737" lon="-0.273931">
        <ele>508.675</ele>
        <time>2020-08-23T16:12:18Z</time>
      </trkpt>
      <trkpt lat="42.075774" lon="-0.274024">
        <ele>508.591</ele>
        <time>2020-08-23T16:12:20Z</time>
      </trkpt>
      <trkpt lat="42.075804" lon="-0.274118">
        <ele>508.520</ele>
        <time>2020-08-23T16:12:22Z</time>
      </trkpt>
      <trkpt lat="42.075824" lon="-0.274208">
        <ele>508.945</ele>
        <time>2020-08-23T16:12:24Z</time>
      </trkpt>
      <trkpt lat="42.075845" lon="-0.274281">
        <ele>509.247</ele>
        <time>2020-08-23T16:12:26Z</time>
      </trkpt>
      <trkpt lat="42.075861" lon="-0.274353">
        <ele>509.511</ele>
        <time>2020-08-23T16:12:28Z</time>
      </trkpt>
      <trkpt lat="42.075877" lon="-0.274460">
        <ele>509.708</ele>
        <time>2020-08-23T16:12:30Z</time>
      </trkpt>
      <trkpt lat="42.075901" lon="-0.274566">
        <ele>510.079</ele>
        <time>2020-08-23T16:12:32Z</time>
      </trkpt>
      <trkpt lat="42.075924" lon="-0.274653">
        <ele>510.279</ele>
        <time>2020-08-23T16:12:34Z</time>
      </trkpt>
      <trkpt lat="42.075962" lon="-0.274718">
        <ele>510.367</ele>
        <time>2020-08-23T16:12:36Z</time>
      </trkpt>
      <trkpt lat="42.075989" lon="-0.274789">
        <ele>510.449</ele>
        <time>2020-08-23T16:12:38Z</time>
      </trkpt>
      <trkpt lat="42.076027" lon="-0.274867">
        <ele>510.780</ele>
        <time>2020-08-23T16:12:40Z</time>
      </trkpt>
      <trkpt lat="42.076065" lon="-0.274944">
        <ele>511.181</ele>
        <time>2020-08-23T16:12:42Z</time>
      </trkpt>
      <trkpt lat="42.076106" lon="-0.275020">
        <ele>511.337</ele>
        <time>2020-08-23T16:12:44Z</time>
      </trkpt>
      <trkpt lat="42.076154" lon="-0.275084">
        <ele>511.226</ele>
        <time>2020-08-23T16:12:46Z</time>
      </trkpt>
      <trkpt lat="42.076201" lon="-0.275149">
        <ele>511.061</ele>
        <time>2020-08-23T16:12:48Z</time>
      </trkpt>
      <trkpt lat="42.076222" lon="-0.275206">
        <ele>511.021</ele>
        <time>2020-08-23T16:12:50Z</time>
      </trkpt>
      <trkpt lat="42.076264" lon="-0.275250">
        <ele>511.213</ele>
        <time>2020-08-23T16:12:52Z</time>
      </trkpt>
      <trkpt lat="42.076298" lon="-0.275293">
        <ele>511.408</ele>
        <time>2020-08-23T16:12:54Z</time>
      </trkpt>
      <trkpt lat="42.076342" lon="-0.275348">
        <ele>511.581</ele>
        <time>2020-08-23T16:12:56Z</time>
      </trkpt>
      <trkpt lat="42.076390" lon="-0.275405">
        <ele>511.631</ele>
        <time>2020-08-23T16:12:58Z</time>
      </trkpt>
      <trkpt lat="42.076434" lon="-0.275462">
        <ele>511.879</ele>
        <time>2020-08-23T16:13:00Z</time>
      </trkpt>
      <trkpt lat="42.076482" lon="-0.275525">
        <ele>512.061</ele>
        <time>2020-08-23T16:13:02Z</time>
      </trkpt>
      <trkpt lat="42.076532" lon="-0.275587">
        <ele>512.242</ele>
        <time>2020-08-23T16:13:04Z</time>
      </trkpt>
      <trkpt lat="42.076569" lon="-0.275643">
        <ele>513.313</ele>
        <time>2020-08-23T16:13:06Z</time>
      </trkpt>
      <trkpt lat="42.076613" lon="-0.275712">
        <ele>514.389</ele>
        <time>2020-08-23T16:13:08Z</time>
      </trkpt>
      <trkpt lat="42.076650" lon="-0.275791">
        <ele>514.468</ele>
        <time>2020-08-23T16:13:10Z</time>
      </trkpt>
      <trkpt lat="42.076681" lon="-0.275862">
        <ele>514.041</ele>
        <time>2020-08-23T16:13:12Z</time>
      </trkpt>
      <trkpt lat="42.076718" lon="-0.275923">
        <ele>513.581</ele>
        <time>2020-08-23T16:13:14Z</time>
      </trkpt>
      <trkpt lat="42.076771" lon="-0.275982">
        <ele>513.509</ele>
        <time>2020-08-23T16:13:16Z</time>
      </trkpt>
      <trkpt lat="42.076827" lon="-0.276042">
        <ele>513.608</ele>
        <time>2020-08-23T16:13:18Z</time>
      </trkpt>
      <trkpt lat="42.076885" lon="-0.276110">
        <ele>513.599</ele>
        <time>2020-08-23T16:13:20Z</time>
      </trkpt>
      <trkpt lat="42.076940" lon="-0.276187">
        <ele>513.699</ele>
        <time>2020-08-23T16:13:22Z</time>
      </trkpt>
      <trkpt lat="42.076975" lon="-0.276242">
        <ele>514.067</ele>
        <time>2020-08-23T16:13:24Z</time>
      </trkpt>
      <trkpt lat="42.077009" lon="-0.276285">
        <ele>514.689</ele>
        <time>2020-08-23T16:13:26Z</time>
      </trkpt>
      <trkpt lat="42.077054" lon="-0.276335">
        <ele>514.750</ele>
        <time>2020-08-23T16:13:28Z</time>
      </trkpt>
      <trkpt lat="42.077098" lon="-0.276385">
        <ele>514.781</ele>
        <time>2020-08-23T16:13:30Z</time>
      </trkpt>
      <trkpt lat="42.077157" lon="-0.276449">
        <ele>514.617</ele>
        <time>2020-08-23T16:13:32Z</time>
      </trkpt>
      <trkpt lat="42.077222" lon="-0.276507">
        <ele>514.776</ele>
        <time>2020-08-23T16:13:34Z</time>
      </trkpt>
      <trkpt lat="42.077296" lon="-0.276538">
        <ele>514.814</ele>
        <time>2020-08-23T16:13:36Z</time>
      </trkpt>
      <trkpt lat="42.077374" lon="-0.276555">
        <ele>515.054</ele>
        <time>2020-08-23T16:13:38Z</time>
      </trkpt>
      <trkpt lat="42.077450" lon="-0.276559">
        <ele>515.309</ele>
        <time>2020-08-23T16:13:40Z</time>
      </trkpt>
      <trkpt lat="42.077505" lon="-0.276566">
        <ele>515.508</ele>
        <time>2020-08-23T16:13:42Z</time>
      </trkpt>
      <trkpt lat="42.077560" lon="-0.276593">
        <ele>515.656</ele>
        <time>2020-08-23T16:13:44Z</time>
      </trkpt>
      <trkpt lat="42.077629" lon="-0.276618">
        <ele>515.776</ele>
        <time>2020-08-23T16:13:46Z</time>
      </trkpt>
      <trkpt lat="42.077694" lon="-0.276649">
        <ele>515.964</ele>
        <time>2020-08-23T16:13:48Z</time>
      </trkpt>
      <trkpt lat="42.077764" lon="-0.276668">
        <ele>515.986</ele>
        <time>2020-08-23T16:13:50Z</time>
      </trkpt>
      <trkpt lat="42.077835" lon="-0.276682">
        <ele>515.827</ele>
        <time>2020-08-23T16:13:52Z</time>
      </trkpt>
      <trkpt lat="42.077928" lon="-0.276699">
        <ele>515.848</ele>
        <time>2020-08-23T16:13:54Z</time>
      </trkpt>
      <trkpt lat="42.078017" lon="-0.276726">
        <ele>515.684</ele>
        <time>2020-08-23T16:13:56Z</time>
      </trkpt>
      <trkpt lat="42.078091" lon="-0.276757">
        <ele>515.463</ele>
        <time>2020-08-23T16:13:58Z</time>
      </trkpt>
      <trkpt lat="42.078142" lon="-0.276781">
        <ele>515.273</ele>
        <time>2020-08-23T16:13:59Z</time>
      </trkpt>
      <trkpt lat="42.078190" lon="-0.276810">
        <ele>515.185</ele>
        <time>2020-08-23T16:14:00Z</time>
      </trkpt>
      <trkpt lat="42.078236" lon="-0.276843">
        <ele>515.013</ele>
        <time>2020-08-23T16:14:01Z</time>
      </trkpt>
      <trkpt lat="42.078291" lon="-0.276864">
        <ele>514.908</ele>
        <time>2020-08-23T16:14:02Z</time>
      </trkpt>
      <trkpt lat="42.078339" lon="-0.276888">
        <ele>514.892</ele>
        <time>2020-08-23T16:14:03Z</time>
      </trkpt>
      <trkpt lat="42.078388" lon="-0.276918">
        <ele>514.892</ele>
        <time>2020-08-23T16:14:04Z</time>
      </trkpt>
      <trkpt lat="42.078445" lon="-0.276951">
        <ele>514.840</ele>
        <time>2020-08-23T16:14:05Z</time>
      </trkpt>
      <trkpt lat="42.078501" lon="-0.276985">
        <ele>514.882</ele>
        <time>2020-08-23T16:14:06Z</time>
      </trkpt>
      <trkpt lat="42.078553" lon="-0.277016">
        <ele>514.853</ele>
        <time>2020-08-23T16:14:07Z</time>
      </trkpt>
      <trkpt lat="42.078619" lon="-0.277047">
        <ele>514.984</ele>
        <time>2020-08-23T16:14:08Z</time>
      </trkpt>
      <trkpt lat="42.078679" lon="-0.277074">
        <ele>515.040</ele>
        <time>2020-08-23T16:14:09Z</time>
      </trkpt>
      <trkpt lat="42.078739" lon="-0.277104">
        <ele>515.059</ele>
        <time>2020-08-23T16:14:10Z</time>
      </trkpt>
      <trkpt lat="42.078799" lon="-0.277144">
        <ele>515.061</ele>
        <time>2020-08-23T16:14:11Z</time>
      </trkpt>
      <trkpt lat="42.078848" lon="-0.277178">
        <ele>515.021</ele>
        <time>2020-08-23T16:14:12Z</time>
      </trkpt>
      <trkpt lat="42.078894" lon="-0.277217">
        <ele>515.013</ele>
        <time>2020-08-23T16:14:13Z</time>
      </trkpt>
      <trkpt lat="42.078939" lon="-0.277256">
        <ele>514.908</ele>
        <time>2020-08-23T16:14:14Z</time>
      </trkpt>
      <trkpt lat="42.078984" lon="-0.277300">
        <ele>514.921</ele>
        <time>2020-08-23T16:14:15Z</time>
      </trkpt>
      <trkpt lat="42.079040" lon="-0.277345">
        <ele>514.931</ele>
        <time>2020-08-23T16:14:16Z</time>
      </trkpt>
      <trkpt lat="42.079089" lon="-0.277394">
        <ele>514.969</ele>
        <time>2020-08-23T16:14:17Z</time>
      </trkpt>
      <trkpt lat="42.079131" lon="-0.277451">
        <ele>514.971</ele>
        <time>2020-08-23T16:14:18Z</time>
      </trkpt>
      <trkpt lat="42.079181" lon="-0.277515">
        <ele>514.822</ele>
        <time>2020-08-23T16:14:19Z</time>
      </trkpt>
      <trkpt lat="42.079231" lon="-0.277563">
        <ele>514.783</ele>
        <time>2020-08-23T16:14:20Z</time>
      </trkpt>
      <trkpt lat="42.079289" lon="-0.277595">
        <ele>514.589</ele>
        <time>2020-08-23T16:14:21Z</time>
      </trkpt>
      <trkpt lat="42.079346" lon="-0.277624">
        <ele>514.328</ele>
        <time>2020-08-23T16:14:22Z</time>
      </trkpt>
      <trkpt lat="42.079410" lon="-0.277650">
        <ele>514.168</ele>
        <time>2020-08-23T16:14:23Z</time>
      </trkpt>
      <trkpt lat="42.079470" lon="-0.277675">
        <ele>514.142</ele>
        <time>2020-08-23T16:14:24Z</time>
      </trkpt>
      <trkpt lat="42.079527" lon="-0.277701">
        <ele>514.126</ele>
        <time>2020-08-23T16:14:25Z</time>
      </trkpt>
      <trkpt lat="42.079574" lon="-0.277720">
        <ele>514.208</ele>
        <time>2020-08-23T16:14:26Z</time>
      </trkpt>
      <trkpt lat="42.079622" lon="-0.277742">
        <ele>514.271</ele>
        <time>2020-08-23T16:14:27Z</time>
      </trkpt>
      <trkpt lat="42.079683" lon="-0.277767">
        <ele>514.281</ele>
        <time>2020-08-23T16:14:28Z</time>
      </trkpt>
      <trkpt lat="42.079745" lon="-0.277792">
        <ele>514.259</ele>
        <time>2020-08-23T16:14:29Z</time>
      </trkpt>
      <trkpt lat="42.079797" lon="-0.277810">
        <ele>514.251</ele>
        <time>2020-08-23T16:14:30Z</time>
      </trkpt>
      <trkpt lat="42.079852" lon="-0.277823">
        <ele>514.222</ele>
        <time>2020-08-23T16:14:31Z</time>
      </trkpt>
      <trkpt lat="42.079907" lon="-0.277825">
        <ele>514.223</ele>
        <time>2020-08-23T16:14:32Z</time>
      </trkpt>
      <trkpt lat="42.079967" lon="-0.277827">
        <ele>514.289</ele>
        <time>2020-08-23T16:14:33Z</time>
      </trkpt>
      <trkpt lat="42.080023" lon="-0.277834">
        <ele>514.238</ele>
        <time>2020-08-23T16:14:34Z</time>
      </trkpt>
      <trkpt lat="42.080123" lon="-0.277811">
        <ele>514.017</ele>
        <time>2020-08-23T16:14:36Z</time>
      </trkpt>
      <trkpt lat="42.080195" lon="-0.277816">
        <ele>513.987</ele>
        <time>2020-08-23T16:14:38Z</time>
      </trkpt>
      <trkpt lat="42.080264" lon="-0.277809">
        <ele>514.115</ele>
        <time>2020-08-23T16:14:40Z</time>
      </trkpt>
      <trkpt lat="42.080346" lon="-0.277820">
        <ele>514.108</ele>
        <time>2020-08-23T16:14:42Z</time>
      </trkpt>
      <trkpt lat="42.080393" lon="-0.277837">
        <ele>513.946</ele>
        <time>2020-08-23T16:14:43Z</time>
      </trkpt>
      <trkpt lat="42.080434" lon="-0.277869">
        <ele>513.796</ele>
        <time>2020-08-23T16:14:44Z</time>
      </trkpt>
      <trkpt lat="42.080466" lon="-0.277912">
        <ele>513.534</ele>
        <time>2020-08-23T16:14:45Z</time>
      </trkpt>
      <trkpt lat="42.080502" lon="-0.277959">
        <ele>513.236</ele>
        <time>2020-08-23T16:14:46Z</time>
      </trkpt>
      <trkpt lat="42.080547" lon="-0.278009">
        <ele>513.097</ele>
        <time>2020-08-23T16:14:47Z</time>
      </trkpt>
      <trkpt lat="42.080603" lon="-0.278075">
        <ele>512.868</ele>
        <time>2020-08-23T16:14:48Z</time>
      </trkpt>
      <trkpt lat="42.080649" lon="-0.278132">
        <ele>512.624</ele>
        <time>2020-08-23T16:14:49Z</time>
      </trkpt>
      <trkpt lat="42.080691" lon="-0.278188">
        <ele>512.433</ele>
        <time>2020-08-23T16:14:50Z</time>
      </trkpt>
      <trkpt lat="42.080733" lon="-0.278236">
        <ele>512.241</ele>
        <time>2020-08-23T16:14:51Z</time>
      </trkpt>
      <trkpt lat="42.080772" lon="-0.278284">
        <ele>512.081</ele>
        <time>2020-08-23T16:14:52Z</time>
      </trkpt>
      <trkpt lat="42.080810" lon="-0.278330">
        <ele>511.909</ele>
        <time>2020-08-23T16:14:53Z</time>
      </trkpt>
      <trkpt lat="42.080856" lon="-0.278371">
        <ele>511.808</ele>
        <time>2020-08-23T16:14:54Z</time>
      </trkpt>
      <trkpt lat="42.080909" lon="-0.278401">
        <ele>511.759</ele>
        <time>2020-08-23T16:14:55Z</time>
      </trkpt>
      <trkpt lat="42.080968" lon="-0.278405">
        <ele>511.799</ele>
        <time>2020-08-23T16:14:56Z</time>
      </trkpt>
      <trkpt lat="42.081017" lon="-0.278400">
        <ele>511.647</ele>
        <time>2020-08-23T16:14:57Z</time>
      </trkpt>
      <trkpt lat="42.081072" lon="-0.278389">
        <ele>511.579</ele>
        <time>2020-08-23T16:14:58Z</time>
      </trkpt>
      <trkpt lat="42.081121" lon="-0.278383">
        <ele>511.460</ele>
        <time>2020-08-23T16:14:59Z</time>
      </trkpt>
      <trkpt lat="42.081181" lon="-0.278375">
        <ele>511.411</ele>
        <time>2020-08-23T16:15:00Z</time>
      </trkpt>
      <trkpt lat="42.081235" lon="-0.278369">
        <ele>511.437</ele>
        <time>2020-08-23T16:15:01Z</time>
      </trkpt>
      <trkpt lat="42.081287" lon="-0.278373">
        <ele>511.446</ele>
        <time>2020-08-23T16:15:02Z</time>
      </trkpt>
      <trkpt lat="42.081337" lon="-0.278389">
        <ele>511.435</ele>
        <time>2020-08-23T16:15:03Z</time>
      </trkpt>
      <trkpt lat="42.081391" lon="-0.278421">
        <ele>511.586</ele>
        <time>2020-08-23T16:15:04Z</time>
      </trkpt>
      <trkpt lat="42.081433" lon="-0.278457">
        <ele>511.514</ele>
        <time>2020-08-23T16:15:05Z</time>
      </trkpt>
      <trkpt lat="42.081473" lon="-0.278509">
        <ele>511.508</ele>
        <time>2020-08-23T16:15:06Z</time>
      </trkpt>
      <trkpt lat="42.081504" lon="-0.278558">
        <ele>511.518</ele>
        <time>2020-08-23T16:15:07Z</time>
      </trkpt>
      <trkpt lat="42.081545" lon="-0.278595">
        <ele>511.698</ele>
        <time>2020-08-23T16:15:08Z</time>
      </trkpt>
      <trkpt lat="42.081592" lon="-0.278630">
        <ele>511.636</ele>
        <time>2020-08-23T16:15:09Z</time>
      </trkpt>
      <trkpt lat="42.081645" lon="-0.278650">
        <ele>511.618</ele>
        <time>2020-08-23T16:15:10Z</time>
      </trkpt>
      <trkpt lat="42.081693" lon="-0.278653">
        <ele>511.589</ele>
        <time>2020-08-23T16:15:11Z</time>
      </trkpt>
      <trkpt lat="42.081738" lon="-0.278640">
        <ele>511.480</ele>
        <time>2020-08-23T16:15:12Z</time>
      </trkpt>
      <trkpt lat="42.081782" lon="-0.278618">
        <ele>511.326</ele>
        <time>2020-08-23T16:15:13Z</time>
      </trkpt>
      <trkpt lat="42.081829" lon="-0.278587">
        <ele>511.155</ele>
        <time>2020-08-23T16:15:14Z</time>
      </trkpt>
      <trkpt lat="42.081875" lon="-0.278557">
        <ele>511.044</ele>
        <time>2020-08-23T16:15:15Z</time>
      </trkpt>
      <trkpt lat="42.081920" lon="-0.278520">
        <ele>510.905</ele>
        <time>2020-08-23T16:15:16Z</time>
      </trkpt>
      <trkpt lat="42.081972" lon="-0.278484">
        <ele>510.815</ele>
        <time>2020-08-23T16:15:17Z</time>
      </trkpt>
      <trkpt lat="42.082020" lon="-0.278453">
        <ele>510.608</ele>
        <time>2020-08-23T16:15:18Z</time>
      </trkpt>
      <trkpt lat="42.082072" lon="-0.278418">
        <ele>510.539</ele>
        <time>2020-08-23T16:15:19Z</time>
      </trkpt>
      <trkpt lat="42.082124" lon="-0.278386">
        <ele>510.439</ele>
        <time>2020-08-23T16:15:20Z</time>
      </trkpt>
      <trkpt lat="42.082175" lon="-0.278354">
        <ele>510.497</ele>
        <time>2020-08-23T16:15:21Z</time>
      </trkpt>
      <trkpt lat="42.082226" lon="-0.278327">
        <ele>510.459</ele>
        <time>2020-08-23T16:15:22Z</time>
      </trkpt>
      <trkpt lat="42.082275" lon="-0.278292">
        <ele>510.470</ele>
        <time>2020-08-23T16:15:23Z</time>
      </trkpt>
      <trkpt lat="42.082324" lon="-0.278269">
        <ele>510.431</ele>
        <time>2020-08-23T16:15:24Z</time>
      </trkpt>
      <trkpt lat="42.082375" lon="-0.278244">
        <ele>510.517</ele>
        <time>2020-08-23T16:15:25Z</time>
      </trkpt>
      <trkpt lat="42.082429" lon="-0.278213">
        <ele>510.566</ele>
        <time>2020-08-23T16:15:26Z</time>
      </trkpt>
      <trkpt lat="42.082479" lon="-0.278186">
        <ele>510.515</ele>
        <time>2020-08-23T16:15:27Z</time>
      </trkpt>
      <trkpt lat="42.082530" lon="-0.278157">
        <ele>510.565</ele>
        <time>2020-08-23T16:15:28Z</time>
      </trkpt>
      <trkpt lat="42.082584" lon="-0.278132">
        <ele>510.511</ele>
        <time>2020-08-23T16:15:29Z</time>
      </trkpt>
      <trkpt lat="42.082641" lon="-0.278116">
        <ele>510.508</ele>
        <time>2020-08-23T16:15:30Z</time>
      </trkpt>
      <trkpt lat="42.082696" lon="-0.278094">
        <ele>510.586</ele>
        <time>2020-08-23T16:15:31Z</time>
      </trkpt>
      <trkpt lat="42.082753" lon="-0.278077">
        <ele>510.596</ele>
        <time>2020-08-23T16:15:32Z</time>
      </trkpt>
      <trkpt lat="42.082808" lon="-0.278067">
        <ele>510.564</ele>
        <time>2020-08-23T16:15:33Z</time>
      </trkpt>
      <trkpt lat="42.082867" lon="-0.278061">
        <ele>510.566</ele>
        <time>2020-08-23T16:15:34Z</time>
      </trkpt>
      <trkpt lat="42.082922" lon="-0.278046">
        <ele>510.547</ele>
        <time>2020-08-23T16:15:35Z</time>
      </trkpt>
      <trkpt lat="42.082973" lon="-0.278026">
        <ele>510.588</ele>
        <time>2020-08-23T16:15:36Z</time>
      </trkpt>
      <trkpt lat="42.083020" lon="-0.278011">
        <ele>510.534</ele>
        <time>2020-08-23T16:15:37Z</time>
      </trkpt>
      <trkpt lat="42.083065" lon="-0.278002">
        <ele>510.593</ele>
        <time>2020-08-23T16:15:38Z</time>
      </trkpt>
      <trkpt lat="42.083149" lon="-0.277976">
        <ele>510.538</ele>
        <time>2020-08-23T16:15:40Z</time>
      </trkpt>
      <trkpt lat="42.083195" lon="-0.277961">
        <ele>510.570</ele>
        <time>2020-08-23T16:15:41Z</time>
      </trkpt>
      <trkpt lat="42.083244" lon="-0.277951">
        <ele>510.517</ele>
        <time>2020-08-23T16:15:42Z</time>
      </trkpt>
      <trkpt lat="42.083291" lon="-0.277943">
        <ele>510.508</ele>
        <time>2020-08-23T16:15:43Z</time>
      </trkpt>
      <trkpt lat="42.083344" lon="-0.277950">
        <ele>510.618</ele>
        <time>2020-08-23T16:15:44Z</time>
      </trkpt>
      <trkpt lat="42.083389" lon="-0.277973">
        <ele>510.638</ele>
        <time>2020-08-23T16:15:45Z</time>
      </trkpt>
      <trkpt lat="42.083431" lon="-0.278011">
        <ele>510.676</ele>
        <time>2020-08-23T16:15:46Z</time>
      </trkpt>
      <trkpt lat="42.083469" lon="-0.278064">
        <ele>510.628</ele>
        <time>2020-08-23T16:15:47Z</time>
      </trkpt>
      <trkpt lat="42.083502" lon="-0.278120">
        <ele>510.759</ele>
        <time>2020-08-23T16:15:48Z</time>
      </trkpt>
      <trkpt lat="42.083534" lon="-0.278169">
        <ele>510.890</ele>
        <time>2020-08-23T16:15:49Z</time>
      </trkpt>
      <trkpt lat="42.083592" lon="-0.278255">
        <ele>511.276</ele>
        <time>2020-08-23T16:15:51Z</time>
      </trkpt>
      <trkpt lat="42.083644" lon="-0.278329">
        <ele>511.735</ele>
        <time>2020-08-23T16:15:53Z</time>
      </trkpt>
      <trkpt lat="42.083688" lon="-0.278396">
        <ele>512.062</ele>
        <time>2020-08-23T16:15:55Z</time>
      </trkpt>
      <trkpt lat="42.083734" lon="-0.278475">
        <ele>512.283</ele>
        <time>2020-08-23T16:15:57Z</time>
      </trkpt>
      <trkpt lat="42.083782" lon="-0.278535">
        <ele>512.411</ele>
        <time>2020-08-23T16:15:59Z</time>
      </trkpt>
      <trkpt lat="42.083838" lon="-0.278590">
        <ele>512.508</ele>
        <time>2020-08-23T16:16:01Z</time>
      </trkpt>
      <trkpt lat="42.083899" lon="-0.278655">
        <ele>512.731</ele>
        <time>2020-08-23T16:16:03Z</time>
      </trkpt>
      <trkpt lat="42.083953" lon="-0.278737">
        <ele>512.721</ele>
        <time>2020-08-23T16:16:05Z</time>
      </trkpt>
      <trkpt lat="42.083998" lon="-0.278808">
        <ele>512.839</ele>
        <time>2020-08-23T16:16:07Z</time>
      </trkpt>
      <trkpt lat="42.084049" lon="-0.278888">
        <ele>513.041</ele>
        <time>2020-08-23T16:16:09Z</time>
      </trkpt>
      <trkpt lat="42.084095" lon="-0.278962">
        <ele>513.312</ele>
        <time>2020-08-23T16:16:11Z</time>
      </trkpt>
      <trkpt lat="42.084137" lon="-0.279034">
        <ele>513.573</ele>
        <time>2020-08-23T16:16:13Z</time>
      </trkpt>
      <trkpt lat="42.084179" lon="-0.279117">
        <ele>513.819</ele>
        <time>2020-08-23T16:16:15Z</time>
      </trkpt>
      <trkpt lat="42.084228" lon="-0.279180">
        <ele>513.958</ele>
        <time>2020-08-23T16:16:17Z</time>
      </trkpt>
      <trkpt lat="42.084268" lon="-0.279248">
        <ele>514.135</ele>
        <time>2020-08-23T16:16:19Z</time>
      </trkpt>
      <trkpt lat="42.084301" lon="-0.279323">
        <ele>514.686</ele>
        <time>2020-08-23T16:16:21Z</time>
      </trkpt>
      <trkpt lat="42.084328" lon="-0.279415">
        <ele>515.014</ele>
        <time>2020-08-23T16:16:23Z</time>
      </trkpt>
      <trkpt lat="42.084360" lon="-0.279500">
        <ele>515.208</ele>
        <time>2020-08-23T16:16:25Z</time>
      </trkpt>
      <trkpt lat="42.084388" lon="-0.279588">
        <ele>515.488</ele>
        <time>2020-08-23T16:16:27Z</time>
      </trkpt>
      <trkpt lat="42.084418" lon="-0.279669">
        <ele>515.638</ele>
        <time>2020-08-23T16:16:29Z</time>
      </trkpt>
      <trkpt lat="42.084437" lon="-0.279745">
        <ele>515.986</ele>
        <time>2020-08-23T16:16:31Z</time>
      </trkpt>
      <trkpt lat="42.084472" lon="-0.279831">
        <ele>516.018</ele>
        <time>2020-08-23T16:16:33Z</time>
      </trkpt>
      <trkpt lat="42.084515" lon="-0.279908">
        <ele>516.169</ele>
        <time>2020-08-23T16:16:35Z</time>
      </trkpt>
      <trkpt lat="42.084559" lon="-0.279975">
        <ele>516.150</ele>
        <time>2020-08-23T16:16:37Z</time>
      </trkpt>
      <trkpt lat="42.084601" lon="-0.280056">
        <ele>516.256</ele>
        <time>2020-08-23T16:16:39Z</time>
      </trkpt>
      <trkpt lat="42.084642" lon="-0.280120">
        <ele>516.435</ele>
        <time>2020-08-23T16:16:41Z</time>
      </trkpt>
      <trkpt lat="42.084683" lon="-0.280170">
        <ele>516.635</ele>
        <time>2020-08-23T16:16:43Z</time>
      </trkpt>
      <trkpt lat="42.084739" lon="-0.280214">
        <ele>516.886</ele>
        <time>2020-08-23T16:16:45Z</time>
      </trkpt>
      <trkpt lat="42.084804" lon="-0.280250">
        <ele>516.914</ele>
        <time>2020-08-23T16:16:47Z</time>
      </trkpt>
      <trkpt lat="42.084861" lon="-0.280290">
        <ele>517.208</ele>
        <time>2020-08-23T16:16:49Z</time>
      </trkpt>
      <trkpt lat="42.084922" lon="-0.280322">
        <ele>517.558</ele>
        <time>2020-08-23T16:16:51Z</time>
      </trkpt>
      <trkpt lat="42.084966" lon="-0.280347">
        <ele>517.788</ele>
        <time>2020-08-23T16:16:53Z</time>
      </trkpt>
      <trkpt lat="42.085005" lon="-0.280378">
        <ele>518.016</ele>
        <time>2020-08-23T16:16:55Z</time>
      </trkpt>
      <trkpt lat="42.085035" lon="-0.280431">
        <ele>518.638</ele>
        <time>2020-08-23T16:16:57Z</time>
      </trkpt>
      <trkpt lat="42.085073" lon="-0.280477">
        <ele>519.079</ele>
        <time>2020-08-23T16:16:59Z</time>
      </trkpt>
      <trkpt lat="42.085131" lon="-0.280527">
        <ele>519.260</ele>
        <time>2020-08-23T16:17:01Z</time>
      </trkpt>
      <trkpt lat="42.085189" lon="-0.280542">
        <ele>519.266</ele>
        <time>2020-08-23T16:17:03Z</time>
      </trkpt>
      <trkpt lat="42.085256" lon="-0.280550">
        <ele>519.255</ele>
        <time>2020-08-23T16:17:05Z</time>
      </trkpt>
      <trkpt lat="42.085311" lon="-0.280558">
        <ele>519.258</ele>
        <time>2020-08-23T16:17:07Z</time>
      </trkpt>
      <trkpt lat="42.085371" lon="-0.280578">
        <ele>519.452</ele>
        <time>2020-08-23T16:17:09Z</time>
      </trkpt>
      <trkpt lat="42.085434" lon="-0.280605">
        <ele>519.417</ele>
        <time>2020-08-23T16:17:11Z</time>
      </trkpt>
      <trkpt lat="42.085491" lon="-0.280631">
        <ele>519.308</ele>
        <time>2020-08-23T16:17:13Z</time>
      </trkpt>
      <trkpt lat="42.085550" lon="-0.280659">
        <ele>519.390</ele>
        <time>2020-08-23T16:17:15Z</time>
      </trkpt>
      <trkpt lat="42.085599" lon="-0.280695">
        <ele>519.670</ele>
        <time>2020-08-23T16:17:17Z</time>
      </trkpt>
      <trkpt lat="42.085654" lon="-0.280738">
        <ele>520.058</ele>
        <time>2020-08-23T16:17:19Z</time>
      </trkpt>
      <trkpt lat="42.085711" lon="-0.280778">
        <ele>520.340</ele>
        <time>2020-08-23T16:17:21Z</time>
      </trkpt>
      <trkpt lat="42.085768" lon="-0.280801">
        <ele>520.481</ele>
        <time>2020-08-23T16:17:23Z</time>
      </trkpt>
      <trkpt lat="42.085823" lon="-0.280821">
        <ele>520.532</ele>
        <time>2020-08-23T16:17:25Z</time>
      </trkpt>
      <trkpt lat="42.085879" lon="-0.280848">
        <ele>520.628</ele>
        <time>2020-08-23T16:17:27Z</time>
      </trkpt>
      <trkpt lat="42.085941" lon="-0.280870">
        <ele>520.867</ele>
        <time>2020-08-23T16:17:30Z</time>
      </trkpt>
      <trkpt lat="42.085997" lon="-0.280882">
        <ele>520.919</ele>
        <time>2020-08-23T16:17:32Z</time>
      </trkpt>
      <trkpt lat="42.086055" lon="-0.280886">
        <ele>521.009</ele>
        <time>2020-08-23T16:17:34Z</time>
      </trkpt>
      <trkpt lat="42.086112" lon="-0.280905">
        <ele>521.019</ele>
        <time>2020-08-23T16:17:36Z</time>
      </trkpt>
      <trkpt lat="42.086158" lon="-0.280943">
        <ele>521.308</ele>
        <time>2020-08-23T16:17:38Z</time>
      </trkpt>
      <trkpt lat="42.086214" lon="-0.280991">
        <ele>521.626</ele>
        <time>2020-08-23T16:17:40Z</time>
      </trkpt>
      <trkpt lat="42.086273" lon="-0.281037">
        <ele>521.836</ele>
        <time>2020-08-23T16:17:42Z</time>
      </trkpt>
      <trkpt lat="42.086325" lon="-0.281095">
        <ele>521.974</ele>
        <time>2020-08-23T16:17:44Z</time>
      </trkpt>
      <trkpt lat="42.086366" lon="-0.281162">
        <ele>521.866</ele>
        <time>2020-08-23T16:17:46Z</time>
      </trkpt>
      <trkpt lat="42.086419" lon="-0.281203">
        <ele>521.567</ele>
        <time>2020-08-23T16:17:48Z</time>
      </trkpt>
      <trkpt lat="42.086492" lon="-0.281255">
        <ele>521.268</ele>
        <time>2020-08-23T16:17:50Z</time>
      </trkpt>
      <trkpt lat="42.086537" lon="-0.281294">
        <ele>521.154</ele>
        <time>2020-08-23T16:17:51Z</time>
      </trkpt>
      <trkpt lat="42.086577" lon="-0.281323">
        <ele>521.133</ele>
        <time>2020-08-23T16:17:52Z</time>
      </trkpt>
      <trkpt lat="42.086618" lon="-0.281351">
        <ele>521.122</ele>
        <time>2020-08-23T16:17:53Z</time>
      </trkpt>
      <trkpt lat="42.086690" lon="-0.281403">
        <ele>521.062</ele>
        <time>2020-08-23T16:17:55Z</time>
      </trkpt>
      <trkpt lat="42.086759" lon="-0.281467">
        <ele>520.708</ele>
        <time>2020-08-23T16:17:57Z</time>
      </trkpt>
      <trkpt lat="42.086792" lon="-0.281508">
        <ele>520.508</ele>
        <time>2020-08-23T16:17:58Z</time>
      </trkpt>
      <trkpt lat="42.086820" lon="-0.281557">
        <ele>520.497</ele>
        <time>2020-08-23T16:17:59Z</time>
      </trkpt>
      <trkpt lat="42.086861" lon="-0.281664">
        <ele>520.377</ele>
        <time>2020-08-23T16:18:01Z</time>
      </trkpt>
      <trkpt lat="42.086889" lon="-0.281716">
        <ele>520.235</ele>
        <time>2020-08-23T16:18:02Z</time>
      </trkpt>
      <trkpt lat="42.086918" lon="-0.281767">
        <ele>520.277</ele>
        <time>2020-08-23T16:18:03Z</time>
      </trkpt>
      <trkpt lat="42.086952" lon="-0.281823">
        <ele>520.258</ele>
        <time>2020-08-23T16:18:04Z</time>
      </trkpt>
      <trkpt lat="42.087011" lon="-0.281921">
        <ele>520.159</ele>
        <time>2020-08-23T16:18:06Z</time>
      </trkpt>
      <trkpt lat="42.087043" lon="-0.281978">
        <ele>520.095</ele>
        <time>2020-08-23T16:18:07Z</time>
      </trkpt>
      <trkpt lat="42.087067" lon="-0.282036">
        <ele>519.944</ele>
        <time>2020-08-23T16:18:08Z</time>
      </trkpt>
      <trkpt lat="42.087089" lon="-0.282093">
        <ele>519.838</ele>
        <time>2020-08-23T16:18:09Z</time>
      </trkpt>
      <trkpt lat="42.087126" lon="-0.282192">
        <ele>519.670</ele>
        <time>2020-08-23T16:18:11Z</time>
      </trkpt>
      <trkpt lat="42.087154" lon="-0.282241">
        <ele>519.517</ele>
        <time>2020-08-23T16:18:12Z</time>
      </trkpt>
      <trkpt lat="42.087181" lon="-0.282295">
        <ele>519.508</ele>
        <time>2020-08-23T16:18:13Z</time>
      </trkpt>
      <trkpt lat="42.087215" lon="-0.282351">
        <ele>519.468</ele>
        <time>2020-08-23T16:18:14Z</time>
      </trkpt>
      <trkpt lat="42.087245" lon="-0.282409">
        <ele>519.418</ele>
        <time>2020-08-23T16:18:15Z</time>
      </trkpt>
      <trkpt lat="42.087269" lon="-0.282462">
        <ele>519.466</ele>
        <time>2020-08-23T16:18:16Z</time>
      </trkpt>
      <trkpt lat="42.087296" lon="-0.282519">
        <ele>519.448</ele>
        <time>2020-08-23T16:18:17Z</time>
      </trkpt>
      <trkpt lat="42.087327" lon="-0.282576">
        <ele>519.489</ele>
        <time>2020-08-23T16:18:18Z</time>
      </trkpt>
      <trkpt lat="42.087359" lon="-0.282631">
        <ele>519.480</ele>
        <time>2020-08-23T16:18:19Z</time>
      </trkpt>
      <trkpt lat="42.087394" lon="-0.282685">
        <ele>519.446</ele>
        <time>2020-08-23T16:18:20Z</time>
      </trkpt>
      <trkpt lat="42.087425" lon="-0.282737">
        <ele>519.495</ele>
        <time>2020-08-23T16:18:21Z</time>
      </trkpt>
      <trkpt lat="42.087455" lon="-0.282786">
        <ele>519.344</ele>
        <time>2020-08-23T16:18:22Z</time>
      </trkpt>
      <trkpt lat="42.087522" lon="-0.282882">
        <ele>519.105</ele>
        <time>2020-08-23T16:18:24Z</time>
      </trkpt>
      <trkpt lat="42.087559" lon="-0.282929">
        <ele>519.015</ele>
        <time>2020-08-23T16:18:25Z</time>
      </trkpt>
      <trkpt lat="42.087595" lon="-0.282968">
        <ele>518.908</ele>
        <time>2020-08-23T16:18:26Z</time>
      </trkpt>
      <trkpt lat="42.087628" lon="-0.283014">
        <ele>518.869</ele>
        <time>2020-08-23T16:18:27Z</time>
      </trkpt>
      <trkpt lat="42.087666" lon="-0.283064">
        <ele>518.779</ele>
        <time>2020-08-23T16:18:28Z</time>
      </trkpt>
      <trkpt lat="42.087710" lon="-0.283116">
        <ele>518.577</ele>
        <time>2020-08-23T16:18:29Z</time>
      </trkpt>
      <trkpt lat="42.087753" lon="-0.283163">
        <ele>518.459</ele>
        <time>2020-08-23T16:18:30Z</time>
      </trkpt>
      <trkpt lat="42.087798" lon="-0.283218">
        <ele>518.270</ele>
        <time>2020-08-23T16:18:31Z</time>
      </trkpt>
      <trkpt lat="42.087842" lon="-0.283276">
        <ele>518.161</ele>
        <time>2020-08-23T16:18:32Z</time>
      </trkpt>
      <trkpt lat="42.087882" lon="-0.283325">
        <ele>518.067</ele>
        <time>2020-08-23T16:18:33Z</time>
      </trkpt>
      <trkpt lat="42.087921" lon="-0.283362">
        <ele>517.936</ele>
        <time>2020-08-23T16:18:34Z</time>
      </trkpt>
      <trkpt lat="42.087959" lon="-0.283395">
        <ele>517.822</ele>
        <time>2020-08-23T16:18:35Z</time>
      </trkpt>
      <trkpt lat="42.088003" lon="-0.283421">
        <ele>517.762</ele>
        <time>2020-08-23T16:18:36Z</time>
      </trkpt>
      <trkpt lat="42.088052" lon="-0.283451">
        <ele>517.508</ele>
        <time>2020-08-23T16:18:37Z</time>
      </trkpt>
      <trkpt lat="42.088096" lon="-0.283474">
        <ele>517.308</ele>
        <time>2020-08-23T16:18:38Z</time>
      </trkpt>
      <trkpt lat="42.088143" lon="-0.283502">
        <ele>517.187</ele>
        <time>2020-08-23T16:18:39Z</time>
      </trkpt>
      <trkpt lat="42.088186" lon="-0.283521">
        <ele>517.047</ele>
        <time>2020-08-23T16:18:40Z</time>
      </trkpt>
      <trkpt lat="42.088228" lon="-0.283546">
        <ele>516.955</ele>
        <time>2020-08-23T16:18:41Z</time>
      </trkpt>
      <trkpt lat="42.088294" lon="-0.283595">
        <ele>516.977</ele>
        <time>2020-08-23T16:18:43Z</time>
      </trkpt>
      <trkpt lat="42.088368" lon="-0.283637">
        <ele>517.038</ele>
        <time>2020-08-23T16:18:45Z</time>
      </trkpt>
      <trkpt lat="42.088410" lon="-0.283664">
        <ele>517.129</ele>
        <time>2020-08-23T16:18:46Z</time>
      </trkpt>
      <trkpt lat="42.088454" lon="-0.283697">
        <ele>517.295</ele>
        <time>2020-08-23T16:18:47Z</time>
      </trkpt>
      <trkpt lat="42.088494" lon="-0.283731">
        <ele>517.354</ele>
        <time>2020-08-23T16:18:48Z</time>
      </trkpt>
      <trkpt lat="42.088538" lon="-0.283758">
        <ele>517.551</ele>
        <time>2020-08-23T16:18:49Z</time>
      </trkpt>
      <trkpt lat="42.088583" lon="-0.283783">
        <ele>517.601</ele>
        <time>2020-08-23T16:18:50Z</time>
      </trkpt>
      <trkpt lat="42.088627" lon="-0.283813">
        <ele>517.711</ele>
        <time>2020-08-23T16:18:51Z</time>
      </trkpt>
      <trkpt lat="42.088670" lon="-0.283842">
        <ele>517.708</ele>
        <time>2020-08-23T16:18:52Z</time>
      </trkpt>
      <trkpt lat="42.088711" lon="-0.283872">
        <ele>517.750</ele>
        <time>2020-08-23T16:18:53Z</time>
      </trkpt>
      <trkpt lat="42.088753" lon="-0.283896">
        <ele>517.610</ele>
        <time>2020-08-23T16:18:54Z</time>
      </trkpt>
      <trkpt lat="42.088801" lon="-0.283919">
        <ele>517.568</ele>
        <time>2020-08-23T16:18:55Z</time>
      </trkpt>
      <trkpt lat="42.088842" lon="-0.283948">
        <ele>517.390</ele>
        <time>2020-08-23T16:18:56Z</time>
      </trkpt>
      <trkpt lat="42.088924" lon="-0.283976">
        <ele>517.181</ele>
        <time>2020-08-23T16:18:58Z</time>
      </trkpt>
      <trkpt lat="42.089010" lon="-0.284011">
        <ele>517.112</ele>
        <time>2020-08-23T16:19:00Z</time>
      </trkpt>
      <trkpt lat="42.089060" lon="-0.284020">
        <ele>517.118</ele>
        <time>2020-08-23T16:19:01Z</time>
      </trkpt>
      <trkpt lat="42.089106" lon="-0.284027">
        <ele>517.137</ele>
        <time>2020-08-23T16:19:02Z</time>
      </trkpt>
      <trkpt lat="42.089193" lon="-0.284047">
        <ele>517.213</ele>
        <time>2020-08-23T16:19:04Z</time>
      </trkpt>
      <trkpt lat="42.089239" lon="-0.284054">
        <ele>517.243</ele>
        <time>2020-08-23T16:19:05Z</time>
      </trkpt>
      <trkpt lat="42.089328" lon="-0.284077">
        <ele>517.307</ele>
        <time>2020-08-23T16:19:07Z</time>
      </trkpt>
      <trkpt lat="42.089392" lon="-0.284118">
        <ele>517.408</ele>
        <time>2020-08-23T16:19:09Z</time>
      </trkpt>
      <trkpt lat="42.089451" lon="-0.284174">
        <ele>517.746</ele>
        <time>2020-08-23T16:19:11Z</time>
      </trkpt>
      <trkpt lat="42.089479" lon="-0.284235">
        <ele>517.836</ele>
        <time>2020-08-23T16:19:13Z</time>
      </trkpt>
      <trkpt lat="42.089501" lon="-0.284314">
        <ele>518.124</ele>
        <time>2020-08-23T16:19:15Z</time>
      </trkpt>
      <trkpt lat="42.089526" lon="-0.284387">
        <ele>518.316</ele>
        <time>2020-08-23T16:19:17Z</time>
      </trkpt>
      <trkpt lat="42.089551" lon="-0.284469">
        <ele>518.657</ele>
        <time>2020-08-23T16:19:19Z</time>
      </trkpt>
      <trkpt lat="42.089589" lon="-0.284519">
        <ele>519.058</ele>
        <time>2020-08-23T16:19:21Z</time>
      </trkpt>
      <trkpt lat="42.089647" lon="-0.284566">
        <ele>519.554</ele>
        <time>2020-08-23T16:19:24Z</time>
      </trkpt>
      <trkpt lat="42.089693" lon="-0.284600">
        <ele>519.963</ele>
        <time>2020-08-23T16:19:26Z</time>
      </trkpt>
      <trkpt lat="42.089741" lon="-0.284641">
        <ele>520.279</ele>
        <time>2020-08-23T16:19:28Z</time>
      </trkpt>
      <trkpt lat="42.089784" lon="-0.284682">
        <ele>520.405</ele>
        <time>2020-08-23T16:19:30Z</time>
      </trkpt>
      <trkpt lat="42.089818" lon="-0.284721">
        <ele>520.525</ele>
        <time>2020-08-23T16:19:32Z</time>
      </trkpt>
      <trkpt lat="42.089858" lon="-0.284754">
        <ele>520.708</ele>
        <time>2020-08-23T16:19:34Z</time>
      </trkpt>
      <trkpt lat="42.089910" lon="-0.284794">
        <ele>521.592</ele>
        <time>2020-08-23T16:19:37Z</time>
      </trkpt>
      <trkpt lat="42.089972" lon="-0.284821">
        <ele>522.522</ele>
        <time>2020-08-23T16:19:40Z</time>
      </trkpt>
      <trkpt lat="42.090018" lon="-0.284828">
        <ele>522.830</ele>
        <time>2020-08-23T16:19:42Z</time>
      </trkpt>
      <trkpt lat="42.090071" lon="-0.284841">
        <ele>522.952</ele>
        <time>2020-08-23T16:19:44Z</time>
      </trkpt>
      <trkpt lat="42.090135" lon="-0.284847">
        <ele>523.043</ele>
        <time>2020-08-23T16:19:46Z</time>
      </trkpt>
      <trkpt lat="42.090187" lon="-0.284854">
        <ele>523.144</ele>
        <time>2020-08-23T16:19:48Z</time>
      </trkpt>
      <trkpt lat="42.090245" lon="-0.284852">
        <ele>523.220</ele>
        <time>2020-08-23T16:19:50Z</time>
      </trkpt>
      <trkpt lat="42.090310" lon="-0.284890">
        <ele>523.429</ele>
        <time>2020-08-23T16:19:52Z</time>
      </trkpt>
      <trkpt lat="42.090352" lon="-0.284911">
        <ele>523.554</ele>
        <time>2020-08-23T16:19:54Z</time>
      </trkpt>
      <trkpt lat="42.090398" lon="-0.284929">
        <ele>523.556</ele>
        <time>2020-08-23T16:19:56Z</time>
      </trkpt>
      <trkpt lat="42.090462" lon="-0.284945">
        <ele>523.511</ele>
        <time>2020-08-23T16:19:58Z</time>
      </trkpt>
      <trkpt lat="42.090530" lon="-0.284966">
        <ele>523.708</ele>
        <time>2020-08-23T16:20:00Z</time>
      </trkpt>
      <trkpt lat="42.090590" lon="-0.284991">
        <ele>524.080</ele>
        <time>2020-08-23T16:20:02Z</time>
      </trkpt>
      <trkpt lat="42.090654" lon="-0.285018">
        <ele>524.050</ele>
        <time>2020-08-23T16:20:04Z</time>
      </trkpt>
      <trkpt lat="42.090706" lon="-0.285039">
        <ele>524.018</ele>
        <time>2020-08-23T16:20:06Z</time>
      </trkpt>
      <trkpt lat="42.090756" lon="-0.285060">
        <ele>524.160</ele>
        <time>2020-08-23T16:20:08Z</time>
      </trkpt>
      <trkpt lat="42.090810" lon="-0.285095">
        <ele>524.471</ele>
        <time>2020-08-23T16:20:10Z</time>
      </trkpt>
      <trkpt lat="42.090857" lon="-0.285129">
        <ele>524.612</ele>
        <time>2020-08-23T16:20:12Z</time>
      </trkpt>
      <trkpt lat="42.090912" lon="-0.285150">
        <ele>524.758</ele>
        <time>2020-08-23T16:20:14Z</time>
      </trkpt>
      <trkpt lat="42.090959" lon="-0.285182">
        <ele>525.087</ele>
        <time>2020-08-23T16:20:16Z</time>
      </trkpt>
      <trkpt lat="42.091009" lon="-0.285220">
        <ele>525.158</ele>
        <time>2020-08-23T16:20:18Z</time>
      </trkpt>
      <trkpt lat="42.091058" lon="-0.285267">
        <ele>525.352</ele>
        <time>2020-08-23T16:20:20Z</time>
      </trkpt>
      <trkpt lat="42.091104" lon="-0.285307">
        <ele>525.417</ele>
        <time>2020-08-23T16:20:22Z</time>
      </trkpt>
      <trkpt lat="42.091166" lon="-0.285360">
        <ele>525.508</ele>
        <time>2020-08-23T16:20:24Z</time>
      </trkpt>
      <trkpt lat="42.091226" lon="-0.285416">
        <ele>525.420</ele>
        <time>2020-08-23T16:20:26Z</time>
      </trkpt>
      <trkpt lat="42.091286" lon="-0.285482">
        <ele>525.430</ele>
        <time>2020-08-23T16:20:28Z</time>
      </trkpt>
      <trkpt lat="42.091346" lon="-0.285549">
        <ele>525.548</ele>
        <time>2020-08-23T16:20:30Z</time>
      </trkpt>
      <trkpt lat="42.091412" lon="-0.285612">
        <ele>525.610</ele>
        <time>2020-08-23T16:20:32Z</time>
      </trkpt>
      <trkpt lat="42.091478" lon="-0.285684">
        <ele>525.751</ele>
        <time>2020-08-23T16:20:34Z</time>
      </trkpt>
      <trkpt lat="42.091516" lon="-0.285717">
        <ele>525.722</ele>
        <time>2020-08-23T16:20:35Z</time>
      </trkpt>
      <trkpt lat="42.091583" lon="-0.285785">
        <ele>525.468</ele>
        <time>2020-08-23T16:20:37Z</time>
      </trkpt>
      <trkpt lat="42.091621" lon="-0.285821">
        <ele>525.257</ele>
        <time>2020-08-23T16:20:38Z</time>
      </trkpt>
      <trkpt lat="42.091696" lon="-0.285885">
        <ele>525.017</ele>
        <time>2020-08-23T16:20:40Z</time>
      </trkpt>
      <trkpt lat="42.091738" lon="-0.285927">
        <ele>525.087</ele>
        <time>2020-08-23T16:20:41Z</time>
      </trkpt>
      <trkpt lat="42.091774" lon="-0.285973">
        <ele>525.015</ele>
        <time>2020-08-23T16:20:42Z</time>
      </trkpt>
      <trkpt lat="42.091809" lon="-0.286012">
        <ele>525.008</ele>
        <time>2020-08-23T16:20:43Z</time>
      </trkpt>
      <trkpt lat="42.091849" lon="-0.286052">
        <ele>525.016</ele>
        <time>2020-08-23T16:20:44Z</time>
      </trkpt>
      <trkpt lat="42.091887" lon="-0.286093">
        <ele>525.026</ele>
        <time>2020-08-23T16:20:45Z</time>
      </trkpt>
      <trkpt lat="42.091925" lon="-0.286130">
        <ele>524.954</ele>
        <time>2020-08-23T16:20:46Z</time>
      </trkpt>
      <trkpt lat="42.091965" lon="-0.286167">
        <ele>524.846</ele>
        <time>2020-08-23T16:20:47Z</time>
      </trkpt>
      <trkpt lat="42.092005" lon="-0.286198">
        <ele>524.837</ele>
        <time>2020-08-23T16:20:48Z</time>
      </trkpt>
      <trkpt lat="42.092075" lon="-0.286259">
        <ele>524.758</ele>
        <time>2020-08-23T16:20:50Z</time>
      </trkpt>
      <trkpt lat="42.092120" lon="-0.286293">
        <ele>524.814</ele>
        <time>2020-08-23T16:20:51Z</time>
      </trkpt>
      <trkpt lat="42.092160" lon="-0.286327">
        <ele>524.943</ele>
        <time>2020-08-23T16:20:52Z</time>
      </trkpt>
      <trkpt lat="42.092207" lon="-0.286368">
        <ele>524.933</ele>
        <time>2020-08-23T16:20:53Z</time>
      </trkpt>
      <trkpt lat="42.092263" lon="-0.286404">
        <ele>524.923</ele>
        <time>2020-08-23T16:20:54Z</time>
      </trkpt>
      <trkpt lat="42.092311" lon="-0.286434">
        <ele>525.015</ele>
        <time>2020-08-23T16:20:55Z</time>
      </trkpt>
      <trkpt lat="42.092356" lon="-0.286458">
        <ele>525.108</ele>
        <time>2020-08-23T16:20:56Z</time>
      </trkpt>
      <trkpt lat="42.092399" lon="-0.286487">
        <ele>525.268</ele>
        <time>2020-08-23T16:20:57Z</time>
      </trkpt>
      <trkpt lat="42.092439" lon="-0.286521">
        <ele>525.378</ele>
        <time>2020-08-23T16:20:58Z</time>
      </trkpt>
      <trkpt lat="42.092476" lon="-0.286556">
        <ele>525.396</ele>
        <time>2020-08-23T16:20:59Z</time>
      </trkpt>
      <trkpt lat="42.092548" lon="-0.286622">
        <ele>525.118</ele>
        <time>2020-08-23T16:21:01Z</time>
      </trkpt>
      <trkpt lat="42.092595" lon="-0.286665">
        <ele>525.099</ele>
        <time>2020-08-23T16:21:02Z</time>
      </trkpt>
      <trkpt lat="42.092638" lon="-0.286705">
        <ele>524.930</ele>
        <time>2020-08-23T16:21:03Z</time>
      </trkpt>
      <trkpt lat="42.092681" lon="-0.286741">
        <ele>524.976</ele>
        <time>2020-08-23T16:21:04Z</time>
      </trkpt>
      <trkpt lat="42.092721" lon="-0.286771">
        <ele>524.985</ele>
        <time>2020-08-23T16:21:05Z</time>
      </trkpt>
      <trkpt lat="42.092762" lon="-0.286806">
        <ele>524.967</ele>
        <time>2020-08-23T16:21:06Z</time>
      </trkpt>
      <trkpt lat="42.092802" lon="-0.286849">
        <ele>524.981</ele>
        <time>2020-08-23T16:21:07Z</time>
      </trkpt>
      <trkpt lat="42.092846" lon="-0.286885">
        <ele>524.819</ele>
        <time>2020-08-23T16:21:08Z</time>
      </trkpt>
      <trkpt lat="42.092920" lon="-0.286955">
        <ele>524.808</ele>
        <time>2020-08-23T16:21:10Z</time>
      </trkpt>
      <trkpt lat="42.092960" lon="-0.286985">
        <ele>524.831</ele>
        <time>2020-08-23T16:21:11Z</time>
      </trkpt>
      <trkpt lat="42.093029" lon="-0.287047">
        <ele>524.831</ele>
        <time>2020-08-23T16:21:13Z</time>
      </trkpt>
      <trkpt lat="42.093104" lon="-0.287116">
        <ele>524.889</ele>
        <time>2020-08-23T16:21:15Z</time>
      </trkpt>
      <trkpt lat="42.093174" lon="-0.287179">
        <ele>524.911</ele>
        <time>2020-08-23T16:21:17Z</time>
      </trkpt>
      <trkpt lat="42.093229" lon="-0.287243">
        <ele>525.032</ele>
        <time>2020-08-23T16:21:19Z</time>
      </trkpt>
      <trkpt lat="42.093295" lon="-0.287318">
        <ele>525.143</ele>
        <time>2020-08-23T16:21:21Z</time>
      </trkpt>
      <trkpt lat="42.093357" lon="-0.287390">
        <ele>525.299</ele>
        <time>2020-08-23T16:21:23Z</time>
      </trkpt>
      <trkpt lat="42.093422" lon="-0.287453">
        <ele>525.318</ele>
        <time>2020-08-23T16:21:25Z</time>
      </trkpt>
      <trkpt lat="42.093493" lon="-0.287501">
        <ele>525.117</ele>
        <time>2020-08-23T16:21:27Z</time>
      </trkpt>
      <trkpt lat="42.093562" lon="-0.287553">
        <ele>525.087</ele>
        <time>2020-08-23T16:21:29Z</time>
      </trkpt>
      <trkpt lat="42.093641" lon="-0.287593">
        <ele>525.115</ele>
        <time>2020-08-23T16:21:31Z</time>
      </trkpt>
      <trkpt lat="42.093724" lon="-0.287651">
        <ele>525.108</ele>
        <time>2020-08-23T16:21:33Z</time>
      </trkpt>
      <trkpt lat="42.093798" lon="-0.287725">
        <ele>525.146</ele>
        <time>2020-08-23T16:21:35Z</time>
      </trkpt>
      <trkpt lat="42.093860" lon="-0.287796">
        <ele>525.396</ele>
        <time>2020-08-23T16:21:37Z</time>
      </trkpt>
      <trkpt lat="42.093922" lon="-0.287867">
        <ele>525.524</ele>
        <time>2020-08-23T16:21:39Z</time>
      </trkpt>
      <trkpt lat="42.093961" lon="-0.287938">
        <ele>525.796</ele>
        <time>2020-08-23T16:21:41Z</time>
      </trkpt>
      <trkpt lat="42.094023" lon="-0.288008">
        <ele>525.867</ele>
        <time>2020-08-23T16:21:43Z</time>
      </trkpt>
      <trkpt lat="42.094093" lon="-0.288045">
        <ele>525.788</ele>
        <time>2020-08-23T16:21:45Z</time>
      </trkpt>
      <trkpt lat="42.094162" lon="-0.288088">
        <ele>525.524</ele>
        <time>2020-08-23T16:21:47Z</time>
      </trkpt>
      <trkpt lat="42.094204" lon="-0.288115">
        <ele>525.373</ele>
        <time>2020-08-23T16:21:48Z</time>
      </trkpt>
      <trkpt lat="42.094254" lon="-0.288123">
        <ele>525.281</ele>
        <time>2020-08-23T16:21:49Z</time>
      </trkpt>
      <trkpt lat="42.094317" lon="-0.288167">
        <ele>525.261</ele>
        <time>2020-08-23T16:21:51Z</time>
      </trkpt>
      <trkpt lat="42.094371" lon="-0.288179">
        <ele>525.317</ele>
        <time>2020-08-23T16:21:53Z</time>
      </trkpt>
      <trkpt lat="42.094428" lon="-0.288203">
        <ele>525.608</ele>
        <time>2020-08-23T16:21:55Z</time>
      </trkpt>
      <trkpt lat="42.094496" lon="-0.288235">
        <ele>525.753</ele>
        <time>2020-08-23T16:21:57Z</time>
      </trkpt>
      <trkpt lat="42.094561" lon="-0.288268">
        <ele>525.863</ele>
        <time>2020-08-23T16:21:59Z</time>
      </trkpt>
      <trkpt lat="42.094629" lon="-0.288312">
        <ele>526.051</ele>
        <time>2020-08-23T16:22:01Z</time>
      </trkpt>
      <trkpt lat="42.094695" lon="-0.288358">
        <ele>526.143</ele>
        <time>2020-08-23T16:22:03Z</time>
      </trkpt>
      <trkpt lat="42.094770" lon="-0.288412">
        <ele>526.164</ele>
        <time>2020-08-23T16:22:05Z</time>
      </trkpt>
      <trkpt lat="42.094838" lon="-0.288473">
        <ele>526.025</ele>
        <time>2020-08-23T16:22:07Z</time>
      </trkpt>
      <trkpt lat="42.094907" lon="-0.288548">
        <ele>525.941</ele>
        <time>2020-08-23T16:22:09Z</time>
      </trkpt>
      <trkpt lat="42.094944" lon="-0.288589">
        <ele>525.830</ele>
        <time>2020-08-23T16:22:10Z</time>
      </trkpt>
      <trkpt lat="42.094979" lon="-0.288633">
        <ele>525.855</ele>
        <time>2020-08-23T16:22:11Z</time>
      </trkpt>
      <trkpt lat="42.095059" lon="-0.288683">
        <ele>525.507</ele>
        <time>2020-08-23T16:22:13Z</time>
      </trkpt>
      <trkpt lat="42.095132" lon="-0.288727">
        <ele>525.317</ele>
        <time>2020-08-23T16:22:15Z</time>
      </trkpt>
      <trkpt lat="42.095199" lon="-0.288781">
        <ele>525.208</ele>
        <time>2020-08-23T16:22:17Z</time>
      </trkpt>
      <trkpt lat="42.095265" lon="-0.288844">
        <ele>525.230</ele>
        <time>2020-08-23T16:22:19Z</time>
      </trkpt>
      <trkpt lat="42.095301" lon="-0.288881">
        <ele>525.270</ele>
        <time>2020-08-23T16:22:20Z</time>
      </trkpt>
      <trkpt lat="42.095368" lon="-0.288954">
        <ele>525.278</ele>
        <time>2020-08-23T16:22:22Z</time>
      </trkpt>
      <trkpt lat="42.095410" lon="-0.288982">
        <ele>525.210</ele>
        <time>2020-08-23T16:22:23Z</time>
      </trkpt>
      <trkpt lat="42.095484" lon="-0.289039">
        <ele>525.011</ele>
        <time>2020-08-23T16:22:25Z</time>
      </trkpt>
      <trkpt lat="42.095569" lon="-0.289088">
        <ele>524.922</ele>
        <time>2020-08-23T16:22:27Z</time>
      </trkpt>
      <trkpt lat="42.095642" lon="-0.289141">
        <ele>524.918</ele>
        <time>2020-08-23T16:22:29Z</time>
      </trkpt>
      <trkpt lat="42.095686" lon="-0.289184">
        <ele>524.917</ele>
        <time>2020-08-23T16:22:31Z</time>
      </trkpt>
      <trkpt lat="42.095744" lon="-0.289256">
        <ele>524.757</ele>
        <time>2020-08-23T16:22:33Z</time>
      </trkpt>
      <trkpt lat="42.095802" lon="-0.289332">
        <ele>524.300</ele>
        <time>2020-08-23T16:22:35Z</time>
      </trkpt>
      <trkpt lat="42.095889" lon="-0.289380">
        <ele>523.820</ele>
        <time>2020-08-23T16:22:37Z</time>
      </trkpt>
      <trkpt lat="42.095938" lon="-0.289413">
        <ele>523.508</ele>
        <time>2020-08-23T16:22:38Z</time>
      </trkpt>
      <trkpt lat="42.095981" lon="-0.289447">
        <ele>523.250</ele>
        <time>2020-08-23T16:22:39Z</time>
      </trkpt>
      <trkpt lat="42.096023" lon="-0.289478">
        <ele>523.030</ele>
        <time>2020-08-23T16:22:40Z</time>
      </trkpt>
      <trkpt lat="42.096064" lon="-0.289520">
        <ele>523.038</ele>
        <time>2020-08-23T16:22:41Z</time>
      </trkpt>
      <trkpt lat="42.096101" lon="-0.289560">
        <ele>522.930</ele>
        <time>2020-08-23T16:22:42Z</time>
      </trkpt>
      <trkpt lat="42.096141" lon="-0.289595">
        <ele>522.981</ele>
        <time>2020-08-23T16:22:43Z</time>
      </trkpt>
      <trkpt lat="42.096183" lon="-0.289628">
        <ele>522.922</ele>
        <time>2020-08-23T16:22:44Z</time>
      </trkpt>
      <trkpt lat="42.096224" lon="-0.289667">
        <ele>522.838</ele>
        <time>2020-08-23T16:22:45Z</time>
      </trkpt>
      <trkpt lat="42.096268" lon="-0.289713">
        <ele>522.587</ele>
        <time>2020-08-23T16:22:46Z</time>
      </trkpt>
      <trkpt lat="42.096305" lon="-0.289762">
        <ele>522.174</ele>
        <time>2020-08-23T16:22:47Z</time>
      </trkpt>
      <trkpt lat="42.096344" lon="-0.289808">
        <ele>522.056</ele>
        <time>2020-08-23T16:22:48Z</time>
      </trkpt>
      <trkpt lat="42.096415" lon="-0.289883">
        <ele>522.021</ele>
        <time>2020-08-23T16:22:50Z</time>
      </trkpt>
      <trkpt lat="42.096460" lon="-0.289913">
        <ele>522.008</ele>
        <time>2020-08-23T16:22:51Z</time>
      </trkpt>
      <trkpt lat="42.096522" lon="-0.290001">
        <ele>522.142</ele>
        <time>2020-08-23T16:22:53Z</time>
      </trkpt>
      <trkpt lat="42.096557" lon="-0.290046">
        <ele>522.152</ele>
        <time>2020-08-23T16:22:54Z</time>
      </trkpt>
      <trkpt lat="42.096603" lon="-0.290093">
        <ele>522.130</ele>
        <time>2020-08-23T16:22:55Z</time>
      </trkpt>
      <trkpt lat="42.096644" lon="-0.290131">
        <ele>522.172</ele>
        <time>2020-08-23T16:22:56Z</time>
      </trkpt>
      <trkpt lat="42.096683" lon="-0.290171">
        <ele>522.083</ele>
        <time>2020-08-23T16:22:57Z</time>
      </trkpt>
      <trkpt lat="42.096715" lon="-0.290221">
        <ele>521.614</ele>
        <time>2020-08-23T16:22:58Z</time>
      </trkpt>
      <trkpt lat="42.096748" lon="-0.290264">
        <ele>521.330</ele>
        <time>2020-08-23T16:22:59Z</time>
      </trkpt>
      <trkpt lat="42.096778" lon="-0.290315">
        <ele>521.119</ele>
        <time>2020-08-23T16:23:00Z</time>
      </trkpt>
      <trkpt lat="42.096809" lon="-0.290359">
        <ele>520.883</ele>
        <time>2020-08-23T16:23:01Z</time>
      </trkpt>
      <trkpt lat="42.096847" lon="-0.290403">
        <ele>520.425</ele>
        <time>2020-08-23T16:23:02Z</time>
      </trkpt>
      <trkpt lat="42.096894" lon="-0.290454">
        <ele>520.317</ele>
        <time>2020-08-23T16:23:03Z</time>
      </trkpt>
      <trkpt lat="42.096930" lon="-0.290494">
        <ele>520.008</ele>
        <time>2020-08-23T16:23:04Z</time>
      </trkpt>
      <trkpt lat="42.096967" lon="-0.290545">
        <ele>519.863</ele>
        <time>2020-08-23T16:23:05Z</time>
      </trkpt>
      <trkpt lat="42.097006" lon="-0.290589">
        <ele>519.883</ele>
        <time>2020-08-23T16:23:06Z</time>
      </trkpt>
      <trkpt lat="42.097045" lon="-0.290634">
        <ele>519.851</ele>
        <time>2020-08-23T16:23:07Z</time>
      </trkpt>
      <trkpt lat="42.097083" lon="-0.290674">
        <ele>519.843</ele>
        <time>2020-08-23T16:23:08Z</time>
      </trkpt>
      <trkpt lat="42.097119" lon="-0.290728">
        <ele>519.814</ele>
        <time>2020-08-23T16:23:09Z</time>
      </trkpt>
      <trkpt lat="42.097154" lon="-0.290795">
        <ele>519.885</ele>
        <time>2020-08-23T16:23:10Z</time>
      </trkpt>
      <trkpt lat="42.097185" lon="-0.290860">
        <ele>519.771</ele>
        <time>2020-08-23T16:23:11Z</time>
      </trkpt>
      <trkpt lat="42.097218" lon="-0.290915">
        <ele>519.590</ele>
        <time>2020-08-23T16:23:12Z</time>
      </trkpt>
      <trkpt lat="42.097252" lon="-0.290976">
        <ele>519.383</ele>
        <time>2020-08-23T16:23:13Z</time>
      </trkpt>
      <trkpt lat="42.097292" lon="-0.291029">
        <ele>519.225</ele>
        <time>2020-08-23T16:23:14Z</time>
      </trkpt>
      <trkpt lat="42.097326" lon="-0.291089">
        <ele>519.117</ele>
        <time>2020-08-23T16:23:15Z</time>
      </trkpt>
      <trkpt lat="42.097366" lon="-0.291132">
        <ele>519.108</ele>
        <time>2020-08-23T16:23:16Z</time>
      </trkpt>
      <trkpt lat="42.097449" lon="-0.291200">
        <ele>519.233</ele>
        <time>2020-08-23T16:23:18Z</time>
      </trkpt>
      <trkpt lat="42.097499" lon="-0.291237">
        <ele>519.233</ele>
        <time>2020-08-23T16:23:19Z</time>
      </trkpt>
      <trkpt lat="42.097547" lon="-0.291276">
        <ele>519.291</ele>
        <time>2020-08-23T16:23:20Z</time>
      </trkpt>
      <trkpt lat="42.097595" lon="-0.291313">
        <ele>519.173</ele>
        <time>2020-08-23T16:23:21Z</time>
      </trkpt>
      <trkpt lat="42.097646" lon="-0.291349">
        <ele>519.164</ele>
        <time>2020-08-23T16:23:22Z</time>
      </trkpt>
      <trkpt lat="42.097694" lon="-0.291378">
        <ele>519.055</ele>
        <time>2020-08-23T16:23:23Z</time>
      </trkpt>
      <trkpt lat="42.097741" lon="-0.291415">
        <ele>518.891</ele>
        <time>2020-08-23T16:23:24Z</time>
      </trkpt>
      <trkpt lat="42.097785" lon="-0.291454">
        <ele>518.620</ele>
        <time>2020-08-23T16:23:25Z</time>
      </trkpt>
      <trkpt lat="42.097830" lon="-0.291502">
        <ele>518.544</ele>
        <time>2020-08-23T16:23:26Z</time>
      </trkpt>
      <trkpt lat="42.097881" lon="-0.291545">
        <ele>518.505</ele>
        <time>2020-08-23T16:23:27Z</time>
      </trkpt>
      <trkpt lat="42.097931" lon="-0.291590">
        <ele>518.515</ele>
        <time>2020-08-23T16:23:28Z</time>
      </trkpt>
      <trkpt lat="42.097974" lon="-0.291649">
        <ele>518.608</ele>
        <time>2020-08-23T16:23:29Z</time>
      </trkpt>
      <trkpt lat="42.098011" lon="-0.291707">
        <ele>518.729</ele>
        <time>2020-08-23T16:23:30Z</time>
      </trkpt>
      <trkpt lat="42.098054" lon="-0.291757">
        <ele>518.749</ele>
        <time>2020-08-23T16:23:31Z</time>
      </trkpt>
      <trkpt lat="42.098093" lon="-0.291805">
        <ele>518.627</ele>
        <time>2020-08-23T16:23:32Z</time>
      </trkpt>
      <trkpt lat="42.098129" lon="-0.291855">
        <ele>518.539</ele>
        <time>2020-08-23T16:23:33Z</time>
      </trkpt>
      <trkpt lat="42.098162" lon="-0.291906">
        <ele>518.520</ele>
        <time>2020-08-23T16:23:34Z</time>
      </trkpt>
      <trkpt lat="42.098200" lon="-0.291952">
        <ele>518.511</ele>
        <time>2020-08-23T16:23:35Z</time>
      </trkpt>
      <trkpt lat="42.098237" lon="-0.291995">
        <ele>518.557</ele>
        <time>2020-08-23T16:23:36Z</time>
      </trkpt>
      <trkpt lat="42.098278" lon="-0.292047">
        <ele>518.426</ele>
        <time>2020-08-23T16:23:37Z</time>
      </trkpt>
      <trkpt lat="42.098320" lon="-0.292108">
        <ele>518.479</ele>
        <time>2020-08-23T16:23:38Z</time>
      </trkpt>
      <trkpt lat="42.098354" lon="-0.292163">
        <ele>518.305</ele>
        <time>2020-08-23T16:23:39Z</time>
      </trkpt>
      <trkpt lat="42.098385" lon="-0.292215">
        <ele>518.225</ele>
        <time>2020-08-23T16:23:40Z</time>
      </trkpt>
      <trkpt lat="42.098416" lon="-0.292271">
        <ele>518.208</ele>
        <time>2020-08-23T16:23:41Z</time>
      </trkpt>
      <trkpt lat="42.098446" lon="-0.292329">
        <ele>518.442</ele>
        <time>2020-08-23T16:23:42Z</time>
      </trkpt>
      <trkpt lat="42.098483" lon="-0.292386">
        <ele>518.542</ele>
        <time>2020-08-23T16:23:43Z</time>
      </trkpt>
      <trkpt lat="42.098508" lon="-0.292453">
        <ele>518.620</ele>
        <time>2020-08-23T16:23:44Z</time>
      </trkpt>
      <trkpt lat="42.098538" lon="-0.292507">
        <ele>518.752</ele>
        <time>2020-08-23T16:23:45Z</time>
      </trkpt>
      <trkpt lat="42.098570" lon="-0.292563">
        <ele>518.773</ele>
        <time>2020-08-23T16:23:46Z</time>
      </trkpt>
      <trkpt lat="42.098603" lon="-0.292617">
        <ele>518.784</ele>
        <time>2020-08-23T16:23:47Z</time>
      </trkpt>
      <trkpt lat="42.098641" lon="-0.292676">
        <ele>518.660</ele>
        <time>2020-08-23T16:23:48Z</time>
      </trkpt>
      <trkpt lat="42.098679" lon="-0.292730">
        <ele>518.579</ele>
        <time>2020-08-23T16:23:49Z</time>
      </trkpt>
      <trkpt lat="42.098725" lon="-0.292782">
        <ele>518.594</ele>
        <time>2020-08-23T16:23:50Z</time>
      </trkpt>
      <trkpt lat="42.098767" lon="-0.292834">
        <ele>518.357</ele>
        <time>2020-08-23T16:23:51Z</time>
      </trkpt>
      <trkpt lat="42.098806" lon="-0.292876">
        <ele>518.122</ele>
        <time>2020-08-23T16:23:52Z</time>
      </trkpt>
      <trkpt lat="42.098847" lon="-0.292911">
        <ele>517.908</ele>
        <time>2020-08-23T16:23:53Z</time>
      </trkpt>
      <trkpt lat="42.098890" lon="-0.292942">
        <ele>517.724</ele>
        <time>2020-08-23T16:23:54Z</time>
      </trkpt>
      <trkpt lat="42.098933" lon="-0.292979">
        <ele>517.534</ele>
        <time>2020-08-23T16:23:55Z</time>
      </trkpt>
      <trkpt lat="42.098980" lon="-0.293009">
        <ele>517.562</ele>
        <time>2020-08-23T16:23:56Z</time>
      </trkpt>
      <trkpt lat="42.099029" lon="-0.293039">
        <ele>517.564</ele>
        <time>2020-08-23T16:23:57Z</time>
      </trkpt>
      <trkpt lat="42.099076" lon="-0.293066">
        <ele>517.515</ele>
        <time>2020-08-23T16:23:58Z</time>
      </trkpt>
      <trkpt lat="42.099122" lon="-0.293085">
        <ele>517.556</ele>
        <time>2020-08-23T16:23:59Z</time>
      </trkpt>
      <trkpt lat="42.099172" lon="-0.293101">
        <ele>517.572</ele>
        <time>2020-08-23T16:24:00Z</time>
      </trkpt>
      <trkpt lat="42.099226" lon="-0.293123">
        <ele>517.421</ele>
        <time>2020-08-23T16:24:01Z</time>
      </trkpt>
      <trkpt lat="42.099284" lon="-0.293146">
        <ele>517.413</ele>
        <time>2020-08-23T16:24:02Z</time>
      </trkpt>
      <trkpt lat="42.099341" lon="-0.293169">
        <ele>517.443</ele>
        <time>2020-08-23T16:24:03Z</time>
      </trkpt>
      <trkpt lat="42.099398" lon="-0.293196">
        <ele>517.307</ele>
        <time>2020-08-23T16:24:04Z</time>
      </trkpt>
      <trkpt lat="42.099450" lon="-0.293220">
        <ele>517.308</ele>
        <time>2020-08-23T16:24:05Z</time>
      </trkpt>
      <trkpt lat="42.099501" lon="-0.293244">
        <ele>517.376</ele>
        <time>2020-08-23T16:24:06Z</time>
      </trkpt>
      <trkpt lat="42.099550" lon="-0.293270">
        <ele>517.276</ele>
        <time>2020-08-23T16:24:07Z</time>
      </trkpt>
      <trkpt lat="42.099594" lon="-0.293293">
        <ele>517.214</ele>
        <time>2020-08-23T16:24:08Z</time>
      </trkpt>
      <trkpt lat="42.099639" lon="-0.293324">
        <ele>517.276</ele>
        <time>2020-08-23T16:24:09Z</time>
      </trkpt>
      <trkpt lat="42.099682" lon="-0.293349">
        <ele>517.217</ele>
        <time>2020-08-23T16:24:10Z</time>
      </trkpt>
      <trkpt lat="42.099734" lon="-0.293378">
        <ele>517.248</ele>
        <time>2020-08-23T16:24:11Z</time>
      </trkpt>
      <trkpt lat="42.099778" lon="-0.293412">
        <ele>517.234</ele>
        <time>2020-08-23T16:24:12Z</time>
      </trkpt>
      <trkpt lat="42.099843" lon="-0.293476">
        <ele>517.353</ele>
        <time>2020-08-23T16:24:14Z</time>
      </trkpt>
      <trkpt lat="42.099900" lon="-0.293549">
        <ele>517.444</ele>
        <time>2020-08-23T16:24:16Z</time>
      </trkpt>
      <trkpt lat="42.099954" lon="-0.293588">
        <ele>517.305</ele>
        <time>2020-08-23T16:24:18Z</time>
      </trkpt>
      <trkpt lat="42.100024" lon="-0.293596">
        <ele>517.115</ele>
        <time>2020-08-23T16:24:20Z</time>
      </trkpt>
      <trkpt lat="42.100099" lon="-0.293598">
        <ele>517.008</ele>
        <time>2020-08-23T16:24:22Z</time>
      </trkpt>
      <trkpt lat="42.100172" lon="-0.293596">
        <ele>517.229</ele>
        <time>2020-08-23T16:24:24Z</time>
      </trkpt>
      <trkpt lat="42.100233" lon="-0.293598">
        <ele>517.699</ele>
        <time>2020-08-23T16:24:26Z</time>
      </trkpt>
      <trkpt lat="42.100315" lon="-0.293590">
        <ele>517.967</ele>
        <time>2020-08-23T16:24:28Z</time>
      </trkpt>
      <trkpt lat="42.100400" lon="-0.293581">
        <ele>518.089</ele>
        <time>2020-08-23T16:24:30Z</time>
      </trkpt>
      <trkpt lat="42.100484" lon="-0.293578">
        <ele>517.990</ele>
        <time>2020-08-23T16:24:32Z</time>
      </trkpt>
      <trkpt lat="42.100572" lon="-0.293565">
        <ele>517.931</ele>
        <time>2020-08-23T16:24:34Z</time>
      </trkpt>
      <trkpt lat="42.100621" lon="-0.293565">
        <ele>518.037</ele>
        <time>2020-08-23T16:24:35Z</time>
      </trkpt>
      <trkpt lat="42.100671" lon="-0.293561">
        <ele>518.116</ele>
        <time>2020-08-23T16:24:36Z</time>
      </trkpt>
      <trkpt lat="42.100719" lon="-0.293559">
        <ele>518.169</ele>
        <time>2020-08-23T16:24:37Z</time>
      </trkpt>
      <trkpt lat="42.100773" lon="-0.293560">
        <ele>518.104</ele>
        <time>2020-08-23T16:24:38Z</time>
      </trkpt>
      <trkpt lat="42.100823" lon="-0.293559">
        <ele>518.224</ele>
        <time>2020-08-23T16:24:39Z</time>
      </trkpt>
      <trkpt lat="42.100871" lon="-0.293553">
        <ele>518.208</ele>
        <time>2020-08-23T16:24:40Z</time>
      </trkpt>
      <trkpt lat="42.100924" lon="-0.293543">
        <ele>518.231</ele>
        <time>2020-08-23T16:24:41Z</time>
      </trkpt>
      <trkpt lat="42.100979" lon="-0.293532">
        <ele>518.271</ele>
        <time>2020-08-23T16:24:42Z</time>
      </trkpt>
      <trkpt lat="42.101032" lon="-0.293520">
        <ele>518.229</ele>
        <time>2020-08-23T16:24:43Z</time>
      </trkpt>
      <trkpt lat="42.101081" lon="-0.293510">
        <ele>518.231</ele>
        <time>2020-08-23T16:24:44Z</time>
      </trkpt>
      <trkpt lat="42.101129" lon="-0.293503">
        <ele>518.332</ele>
        <time>2020-08-23T16:24:45Z</time>
      </trkpt>
      <trkpt lat="42.101175" lon="-0.293497">
        <ele>518.563</ele>
        <time>2020-08-23T16:24:46Z</time>
      </trkpt>
      <trkpt lat="42.101221" lon="-0.293486">
        <ele>518.619</ele>
        <time>2020-08-23T16:24:47Z</time>
      </trkpt>
      <trkpt lat="42.101267" lon="-0.293484">
        <ele>518.838</ele>
        <time>2020-08-23T16:24:48Z</time>
      </trkpt>
      <trkpt lat="42.101315" lon="-0.293480">
        <ele>518.956</ele>
        <time>2020-08-23T16:24:49Z</time>
      </trkpt>
      <trkpt lat="42.101365" lon="-0.293477">
        <ele>518.959</ele>
        <time>2020-08-23T16:24:50Z</time>
      </trkpt>
      <trkpt lat="42.101417" lon="-0.293475">
        <ele>519.014</ele>
        <time>2020-08-23T16:24:51Z</time>
      </trkpt>
      <trkpt lat="42.101467" lon="-0.293468">
        <ele>519.008</ele>
        <time>2020-08-23T16:24:52Z</time>
      </trkpt>
      <trkpt lat="42.101518" lon="-0.293470">
        <ele>519.130</ele>
        <time>2020-08-23T16:24:53Z</time>
      </trkpt>
      <trkpt lat="42.101572" lon="-0.293475">
        <ele>519.250</ele>
        <time>2020-08-23T16:24:54Z</time>
      </trkpt>
      <trkpt lat="42.101627" lon="-0.293480">
        <ele>519.358</ele>
        <time>2020-08-23T16:24:55Z</time>
      </trkpt>
      <trkpt lat="42.101679" lon="-0.293476">
        <ele>519.430</ele>
        <time>2020-08-23T16:24:56Z</time>
      </trkpt>
      <trkpt lat="42.101728" lon="-0.293470">
        <ele>519.551</ele>
        <time>2020-08-23T16:24:57Z</time>
      </trkpt>
      <trkpt lat="42.101777" lon="-0.293464">
        <ele>519.532</ele>
        <time>2020-08-23T16:24:58Z</time>
      </trkpt>
      <trkpt lat="42.101826" lon="-0.293453">
        <ele>519.648</ele>
        <time>2020-08-23T16:24:59Z</time>
      </trkpt>
      <trkpt lat="42.101877" lon="-0.293451">
        <ele>519.757</ele>
        <time>2020-08-23T16:25:00Z</time>
      </trkpt>
      <trkpt lat="42.101931" lon="-0.293448">
        <ele>519.826</ele>
        <time>2020-08-23T16:25:01Z</time>
      </trkpt>
      <trkpt lat="42.101982" lon="-0.293449">
        <ele>519.947</ele>
        <time>2020-08-23T16:25:02Z</time>
      </trkpt>
      <trkpt lat="42.102031" lon="-0.293446">
        <ele>520.011</ele>
        <time>2020-08-23T16:25:03Z</time>
      </trkpt>
      <trkpt lat="42.102081" lon="-0.293436">
        <ele>520.108</ele>
        <time>2020-08-23T16:25:04Z</time>
      </trkpt>
      <trkpt lat="42.102131" lon="-0.293427">
        <ele>520.227</ele>
        <time>2020-08-23T16:25:05Z</time>
      </trkpt>
      <trkpt lat="42.102225" lon="-0.293418">
        <ele>520.337</ele>
        <time>2020-08-23T16:25:07Z</time>
      </trkpt>
      <trkpt lat="42.102276" lon="-0.293416">
        <ele>520.315</ele>
        <time>2020-08-23T16:25:08Z</time>
      </trkpt>
      <trkpt lat="42.102331" lon="-0.293412">
        <ele>520.367</ele>
        <time>2020-08-23T16:25:09Z</time>
      </trkpt>
      <trkpt lat="42.102385" lon="-0.293402">
        <ele>520.238</ele>
        <time>2020-08-23T16:25:10Z</time>
      </trkpt>
      <trkpt lat="42.102438" lon="-0.293397">
        <ele>520.119</ele>
        <time>2020-08-23T16:25:11Z</time>
      </trkpt>
      <trkpt lat="42.102494" lon="-0.293395">
        <ele>520.075</ele>
        <time>2020-08-23T16:25:12Z</time>
      </trkpt>
      <trkpt lat="42.102552" lon="-0.293393">
        <ele>519.984</ele>
        <time>2020-08-23T16:25:13Z</time>
      </trkpt>
      <trkpt lat="42.102609" lon="-0.293394">
        <ele>519.996</ele>
        <time>2020-08-23T16:25:14Z</time>
      </trkpt>
      <trkpt lat="42.102664" lon="-0.293391">
        <ele>519.931</ele>
        <time>2020-08-23T16:25:15Z</time>
      </trkpt>
      <trkpt lat="42.102719" lon="-0.293384">
        <ele>519.924</ele>
        <time>2020-08-23T16:25:16Z</time>
      </trkpt>
      <trkpt lat="42.102773" lon="-0.293380">
        <ele>519.908</ele>
        <time>2020-08-23T16:25:17Z</time>
      </trkpt>
      <trkpt lat="42.102830" lon="-0.293377">
        <ele>519.944</ele>
        <time>2020-08-23T16:25:18Z</time>
      </trkpt>
      <trkpt lat="42.102890" lon="-0.293378">
        <ele>519.944</ele>
        <time>2020-08-23T16:25:19Z</time>
      </trkpt>
      <trkpt lat="42.102945" lon="-0.293382">
        <ele>519.822</ele>
        <time>2020-08-23T16:25:20Z</time>
      </trkpt>
      <trkpt lat="42.103001" lon="-0.293387">
        <ele>519.864</ele>
        <time>2020-08-23T16:25:21Z</time>
      </trkpt>
      <trkpt lat="42.103056" lon="-0.293388">
        <ele>519.845</ele>
        <time>2020-08-23T16:25:22Z</time>
      </trkpt>
      <trkpt lat="42.103111" lon="-0.293387">
        <ele>519.846</ele>
        <time>2020-08-23T16:25:23Z</time>
      </trkpt>
      <trkpt lat="42.103172" lon="-0.293386">
        <ele>519.832</ele>
        <time>2020-08-23T16:25:24Z</time>
      </trkpt>
      <trkpt lat="42.103230" lon="-0.293380">
        <ele>519.921</ele>
        <time>2020-08-23T16:25:25Z</time>
      </trkpt>
      <trkpt lat="42.103286" lon="-0.293373">
        <ele>519.979</ele>
        <time>2020-08-23T16:25:26Z</time>
      </trkpt>
      <trkpt lat="42.103336" lon="-0.293372">
        <ele>519.805</ele>
        <time>2020-08-23T16:25:27Z</time>
      </trkpt>
      <trkpt lat="42.103397" lon="-0.293371">
        <ele>519.725</ele>
        <time>2020-08-23T16:25:28Z</time>
      </trkpt>
      <trkpt lat="42.103457" lon="-0.293362">
        <ele>519.608</ele>
        <time>2020-08-23T16:25:29Z</time>
      </trkpt>
      <trkpt lat="42.103519" lon="-0.293348">
        <ele>519.412</ele>
        <time>2020-08-23T16:25:30Z</time>
      </trkpt>
      <trkpt lat="42.103579" lon="-0.293335">
        <ele>519.352</ele>
        <time>2020-08-23T16:25:31Z</time>
      </trkpt>
      <trkpt lat="42.103639" lon="-0.293323">
        <ele>519.240</ele>
        <time>2020-08-23T16:25:32Z</time>
      </trkpt>
      <trkpt lat="42.103704" lon="-0.293322">
        <ele>519.262</ele>
        <time>2020-08-23T16:25:33Z</time>
      </trkpt>
      <trkpt lat="42.103766" lon="-0.293315">
        <ele>519.163</ele>
        <time>2020-08-23T16:25:34Z</time>
      </trkpt>
      <trkpt lat="42.103835" lon="-0.293312">
        <ele>519.034</ele>
        <time>2020-08-23T16:25:35Z</time>
      </trkpt>
      <trkpt lat="42.103903" lon="-0.293300">
        <ele>518.990</ele>
        <time>2020-08-23T16:25:36Z</time>
      </trkpt>
      <trkpt lat="42.103974" lon="-0.293291">
        <ele>518.839</ele>
        <time>2020-08-23T16:25:37Z</time>
      </trkpt>
      <trkpt lat="42.104043" lon="-0.293284">
        <ele>518.763</ele>
        <time>2020-08-23T16:25:38Z</time>
      </trkpt>
      <trkpt lat="42.104110" lon="-0.293277">
        <ele>518.544</ele>
        <time>2020-08-23T16:25:39Z</time>
      </trkpt>
      <trkpt lat="42.104181" lon="-0.293273">
        <ele>518.418</ele>
        <time>2020-08-23T16:25:40Z</time>
      </trkpt>
      <trkpt lat="42.104253" lon="-0.293270">
        <ele>518.308</ele>
        <time>2020-08-23T16:25:41Z</time>
      </trkpt>
      <trkpt lat="42.104326" lon="-0.293266">
        <ele>518.291</ele>
        <time>2020-08-23T16:25:42Z</time>
      </trkpt>
      <trkpt lat="42.104395" lon="-0.293262">
        <ele>518.111</ele>
        <time>2020-08-23T16:25:43Z</time>
      </trkpt>
      <trkpt lat="42.104461" lon="-0.293258">
        <ele>518.119</ele>
        <time>2020-08-23T16:25:44Z</time>
      </trkpt>
      <trkpt lat="42.104521" lon="-0.293253">
        <ele>518.181</ele>
        <time>2020-08-23T16:25:45Z</time>
      </trkpt>
      <trkpt lat="42.104581" lon="-0.293248">
        <ele>518.222</ele>
        <time>2020-08-23T16:25:46Z</time>
      </trkpt>
      <trkpt lat="42.104647" lon="-0.293246">
        <ele>518.353</ele>
        <time>2020-08-23T16:25:47Z</time>
      </trkpt>
      <trkpt lat="42.104702" lon="-0.293243">
        <ele>518.429</ele>
        <time>2020-08-23T16:25:48Z</time>
      </trkpt>
      <trkpt lat="42.104761" lon="-0.293240">
        <ele>518.598</ele>
        <time>2020-08-23T16:25:49Z</time>
      </trkpt>
      <trkpt lat="42.104819" lon="-0.293239">
        <ele>518.641</ele>
        <time>2020-08-23T16:25:50Z</time>
      </trkpt>
      <trkpt lat="42.104884" lon="-0.293235">
        <ele>518.781</ele>
        <time>2020-08-23T16:25:51Z</time>
      </trkpt>
      <trkpt lat="42.104957" lon="-0.293230">
        <ele>518.709</ele>
        <time>2020-08-23T16:25:52Z</time>
      </trkpt>
      <trkpt lat="42.105026" lon="-0.293229">
        <ele>518.808</ele>
        <time>2020-08-23T16:25:53Z</time>
      </trkpt>
      <trkpt lat="42.105087" lon="-0.293226">
        <ele>518.959</ele>
        <time>2020-08-23T16:25:54Z</time>
      </trkpt>
      <trkpt lat="42.105145" lon="-0.293220">
        <ele>519.099</ele>
        <time>2020-08-23T16:25:55Z</time>
      </trkpt>
      <trkpt lat="42.105204" lon="-0.293215">
        <ele>519.037</ele>
        <time>2020-08-23T16:25:56Z</time>
      </trkpt>
      <trkpt lat="42.105266" lon="-0.293210">
        <ele>519.159</ele>
        <time>2020-08-23T16:25:57Z</time>
      </trkpt>
      <trkpt lat="42.105327" lon="-0.293204">
        <ele>519.230</ele>
        <time>2020-08-23T16:25:58Z</time>
      </trkpt>
      <trkpt lat="42.105389" lon="-0.293201">
        <ele>519.241</ele>
        <time>2020-08-23T16:25:59Z</time>
      </trkpt>
      <trkpt lat="42.105452" lon="-0.293196">
        <ele>519.347</ele>
        <time>2020-08-23T16:26:00Z</time>
      </trkpt>
      <trkpt lat="42.105518" lon="-0.293189">
        <ele>519.446</ele>
        <time>2020-08-23T16:26:01Z</time>
      </trkpt>
      <trkpt lat="42.105584" lon="-0.293187">
        <ele>519.572</ele>
        <time>2020-08-23T16:26:02Z</time>
      </trkpt>
      <trkpt lat="42.105652" lon="-0.293185">
        <ele>519.613</ele>
        <time>2020-08-23T16:26:03Z</time>
      </trkpt>
      <trkpt lat="42.105717" lon="-0.293183">
        <ele>519.614</ele>
        <time>2020-08-23T16:26:04Z</time>
      </trkpt>
      <trkpt lat="42.105782" lon="-0.293177">
        <ele>519.608</ele>
        <time>2020-08-23T16:26:05Z</time>
      </trkpt>
      <trkpt lat="42.105842" lon="-0.293171">
        <ele>519.672</ele>
        <time>2020-08-23T16:26:06Z</time>
      </trkpt>
      <trkpt lat="42.105902" lon="-0.293163">
        <ele>519.672</ele>
        <time>2020-08-23T16:26:07Z</time>
      </trkpt>
      <trkpt lat="42.105961" lon="-0.293154">
        <ele>519.650</ele>
        <time>2020-08-23T16:26:08Z</time>
      </trkpt>
      <trkpt lat="42.106021" lon="-0.293150">
        <ele>519.732</ele>
        <time>2020-08-23T16:26:09Z</time>
      </trkpt>
      <trkpt lat="42.106083" lon="-0.293149">
        <ele>519.883</ele>
        <time>2020-08-23T16:26:10Z</time>
      </trkpt>
      <trkpt lat="42.106145" lon="-0.293144">
        <ele>519.984</ele>
        <time>2020-08-23T16:26:11Z</time>
      </trkpt>
      <trkpt lat="42.106208" lon="-0.293136">
        <ele>520.060</ele>
        <time>2020-08-23T16:26:12Z</time>
      </trkpt>
      <trkpt lat="42.106269" lon="-0.293132">
        <ele>520.119</ele>
        <time>2020-08-23T16:26:13Z</time>
      </trkpt>
      <trkpt lat="42.106330" lon="-0.293129">
        <ele>520.288</ele>
        <time>2020-08-23T16:26:14Z</time>
      </trkpt>
      <trkpt lat="42.106393" lon="-0.293129">
        <ele>520.224</ele>
        <time>2020-08-23T16:26:15Z</time>
      </trkpt>
      <trkpt lat="42.106454" lon="-0.293130">
        <ele>520.326</ele>
        <time>2020-08-23T16:26:16Z</time>
      </trkpt>
      <trkpt lat="42.106521" lon="-0.293127">
        <ele>520.408</ele>
        <time>2020-08-23T16:26:17Z</time>
      </trkpt>
      <trkpt lat="42.106590" lon="-0.293121">
        <ele>520.543</ele>
        <time>2020-08-23T16:26:18Z</time>
      </trkpt>
      <trkpt lat="42.106656" lon="-0.293117">
        <ele>520.653</ele>
        <time>2020-08-23T16:26:19Z</time>
      </trkpt>
      <trkpt lat="42.106721" lon="-0.293115">
        <ele>520.671</ele>
        <time>2020-08-23T16:26:20Z</time>
      </trkpt>
      <trkpt lat="42.106787" lon="-0.293114">
        <ele>520.653</ele>
        <time>2020-08-23T16:26:21Z</time>
      </trkpt>
      <trkpt lat="42.106850" lon="-0.293108">
        <ele>520.784</ele>
        <time>2020-08-23T16:26:22Z</time>
      </trkpt>
      <trkpt lat="42.106917" lon="-0.293105">
        <ele>520.865</ele>
        <time>2020-08-23T16:26:23Z</time>
      </trkpt>
      <trkpt lat="42.106984" lon="-0.293098">
        <ele>521.011</ele>
        <time>2020-08-23T16:26:24Z</time>
      </trkpt>
      <trkpt lat="42.107040" lon="-0.293088">
        <ele>521.230</ele>
        <time>2020-08-23T16:26:25Z</time>
      </trkpt>
      <trkpt lat="42.107098" lon="-0.293078">
        <ele>521.382</ele>
        <time>2020-08-23T16:26:26Z</time>
      </trkpt>
      <trkpt lat="42.107152" lon="-0.293066">
        <ele>521.443</ele>
        <time>2020-08-23T16:26:27Z</time>
      </trkpt>
      <trkpt lat="42.107208" lon="-0.293060">
        <ele>521.517</ele>
        <time>2020-08-23T16:26:28Z</time>
      </trkpt>
      <trkpt lat="42.107268" lon="-0.293055">
        <ele>521.508</ele>
        <time>2020-08-23T16:26:29Z</time>
      </trkpt>
      <trkpt lat="42.107328" lon="-0.293053">
        <ele>521.533</ele>
        <time>2020-08-23T16:26:30Z</time>
      </trkpt>
      <trkpt lat="42.107386" lon="-0.293053">
        <ele>521.513</ele>
        <time>2020-08-23T16:26:31Z</time>
      </trkpt>
      <trkpt lat="42.107462" lon="-0.293045">
        <ele>521.521</ele>
        <time>2020-08-23T16:26:33Z</time>
      </trkpt>
      <trkpt lat="42.107513" lon="-0.293034">
        <ele>521.413</ele>
        <time>2020-08-23T16:26:36Z</time>
      </trkpt>
      <trkpt lat="42.107453" lon="-0.293036">
        <ele>521.174</ele>
        <time>2020-08-23T16:26:43Z</time>
      </trkpt>
      <trkpt lat="42.107379" lon="-0.293051">
        <ele>521.215</ele>
        <time>2020-08-23T16:26:45Z</time>
      </trkpt>
      <trkpt lat="42.107285" lon="-0.293067">
        <ele>521.331</ele>
        <time>2020-08-23T16:26:47Z</time>
      </trkpt>
      <trkpt lat="42.107237" lon="-0.293073">
        <ele>521.440</ele>
        <time>2020-08-23T16:26:48Z</time>
      </trkpt>
      <trkpt lat="42.107182" lon="-0.293082">
        <ele>521.494</ele>
        <time>2020-08-23T16:26:49Z</time>
      </trkpt>
      <trkpt lat="42.107074" lon="-0.293147">
        <ele>521.557</ele>
        <time>2020-08-23T16:26:51Z</time>
      </trkpt>
      <trkpt lat="42.107033" lon="-0.293200">
        <ele>521.622</ele>
        <time>2020-08-23T16:26:52Z</time>
      </trkpt>
      <trkpt lat="42.107015" lon="-0.293267">
        <ele>521.608</ele>
        <time>2020-08-23T16:26:53Z</time>
      </trkpt>
      <trkpt lat="42.107000" lon="-0.293343">
        <ele>521.614</ele>
        <time>2020-08-23T16:26:54Z</time>
      </trkpt>
      <trkpt lat="42.107000" lon="-0.293410">
        <ele>521.614</ele>
        <time>2020-08-23T16:26:55Z</time>
      </trkpt>
      <trkpt lat="42.107000" lon="-0.293485">
        <ele>521.562</ele>
        <time>2020-08-23T16:26:56Z</time>
      </trkpt>
      <trkpt lat="42.107000" lon="-0.293556">
        <ele>521.414</ele>
        <time>2020-08-23T16:26:57Z</time>
      </trkpt>
      <trkpt lat="42.107005" lon="-0.293623">
        <ele>521.345</ele>
        <time>2020-08-23T16:26:58Z</time>
      </trkpt>
      <trkpt lat="42.107018" lon="-0.293746">
        <ele>520.986</ele>
        <time>2020-08-23T16:27:00Z</time>
      </trkpt>
      <trkpt lat="42.107022" lon="-0.293820">
        <ele>520.882</ele>
        <time>2020-08-23T16:27:01Z</time>
      </trkpt>
      <trkpt lat="42.107029" lon="-0.293902">
        <ele>520.681</ele>
        <time>2020-08-23T16:27:02Z</time>
      </trkpt>
      <trkpt lat="42.107035" lon="-0.293976">
        <ele>520.543</ele>
        <time>2020-08-23T16:27:03Z</time>
      </trkpt>
      <trkpt lat="42.107035" lon="-0.294043">
        <ele>520.464</ele>
        <time>2020-08-23T16:27:04Z</time>
      </trkpt>
      <trkpt lat="42.107037" lon="-0.294129">
        <ele>520.310</ele>
        <time>2020-08-23T16:27:05Z</time>
      </trkpt>
      <trkpt lat="42.107042" lon="-0.294209">
        <ele>520.108</ele>
        <time>2020-08-23T16:27:06Z</time>
      </trkpt>
      <trkpt lat="42.107045" lon="-0.294280">
        <ele>519.939</ele>
        <time>2020-08-23T16:27:07Z</time>
      </trkpt>
      <trkpt lat="42.107045" lon="-0.294360">
        <ele>519.659</ele>
        <time>2020-08-23T16:27:08Z</time>
      </trkpt>
      <trkpt lat="42.107048" lon="-0.294449">
        <ele>519.537</ele>
        <time>2020-08-23T16:27:09Z</time>
      </trkpt>
      <trkpt lat="42.107050" lon="-0.294529">
        <ele>519.549</ele>
        <time>2020-08-23T16:27:10Z</time>
      </trkpt>
      <trkpt lat="42.107050" lon="-0.294592">
        <ele>519.680</ele>
        <time>2020-08-23T16:27:11Z</time>
      </trkpt>
      <trkpt lat="42.107052" lon="-0.294662">
        <ele>519.921</ele>
        <time>2020-08-23T16:27:12Z</time>
      </trkpt>
      <trkpt lat="42.107052" lon="-0.294728">
        <ele>520.137</ele>
        <time>2020-08-23T16:27:13Z</time>
      </trkpt>
      <trkpt lat="42.107058" lon="-0.294795">
        <ele>520.356</ele>
        <time>2020-08-23T16:27:14Z</time>
      </trkpt>
      <trkpt lat="42.107066" lon="-0.294860">
        <ele>520.549</ele>
        <time>2020-08-23T16:27:15Z</time>
      </trkpt>
      <trkpt lat="42.107073" lon="-0.294922">
        <ele>520.502</ele>
        <time>2020-08-23T16:27:16Z</time>
      </trkpt>
      <trkpt lat="42.107073" lon="-0.294988">
        <ele>520.322</ele>
        <time>2020-08-23T16:27:17Z</time>
      </trkpt>
      <trkpt lat="42.107075" lon="-0.295051">
        <ele>520.008</ele>
        <time>2020-08-23T16:27:18Z</time>
      </trkpt>
      <trkpt lat="42.107078" lon="-0.295116">
        <ele>520.029</ele>
        <time>2020-08-23T16:27:19Z</time>
      </trkpt>
      <trkpt lat="42.107085" lon="-0.295217">
        <ele>520.219</ele>
        <time>2020-08-23T16:27:21Z</time>
      </trkpt>
      <trkpt lat="42.107090" lon="-0.295279">
        <ele>520.327</ele>
        <time>2020-08-23T16:27:22Z</time>
      </trkpt>
      <trkpt lat="42.107093" lon="-0.295347">
        <ele>520.329</ele>
        <time>2020-08-23T16:27:23Z</time>
      </trkpt>
      <trkpt lat="42.107097" lon="-0.295415">
        <ele>520.010</ele>
        <time>2020-08-23T16:27:24Z</time>
      </trkpt>
      <trkpt lat="42.107097" lon="-0.295483">
        <ele>519.881</ele>
        <time>2020-08-23T16:27:25Z</time>
      </trkpt>
      <trkpt lat="42.107099" lon="-0.295552">
        <ele>519.867</ele>
        <time>2020-08-23T16:27:26Z</time>
      </trkpt>
      <trkpt lat="42.107104" lon="-0.295620">
        <ele>519.826</ele>
        <time>2020-08-23T16:27:27Z</time>
      </trkpt>
      <trkpt lat="42.107113" lon="-0.295730">
        <ele>520.023</ele>
        <time>2020-08-23T16:27:29Z</time>
      </trkpt>
      <trkpt lat="42.107122" lon="-0.295851">
        <ele>520.083</ele>
        <time>2020-08-23T16:27:31Z</time>
      </trkpt>
      <trkpt lat="42.107137" lon="-0.295952">
        <ele>519.911</ele>
        <time>2020-08-23T16:27:33Z</time>
      </trkpt>
      <trkpt lat="42.107147" lon="-0.296052">
        <ele>520.108</ele>
        <time>2020-08-23T16:27:35Z</time>
      </trkpt>
      <trkpt lat="42.107148" lon="-0.296113">
        <ele>520.277</ele>
        <time>2020-08-23T16:27:36Z</time>
      </trkpt>
      <trkpt lat="42.107145" lon="-0.296219">
        <ele>520.427</ele>
        <time>2020-08-23T16:27:38Z</time>
      </trkpt>
      <trkpt lat="42.107141" lon="-0.296283">
        <ele>520.465</ele>
        <time>2020-08-23T16:27:39Z</time>
      </trkpt>
      <trkpt lat="42.107139" lon="-0.296353">
        <ele>520.577</ele>
        <time>2020-08-23T16:27:40Z</time>
      </trkpt>
      <trkpt lat="42.107142" lon="-0.296463">
        <ele>520.778</ele>
        <time>2020-08-23T16:27:42Z</time>
      </trkpt>
      <trkpt lat="42.107142" lon="-0.296524">
        <ele>520.849</ele>
        <time>2020-08-23T16:27:43Z</time>
      </trkpt>
      <trkpt lat="42.107151" lon="-0.296619">
        <ele>520.845</ele>
        <time>2020-08-23T16:27:45Z</time>
      </trkpt>
      <trkpt lat="42.107154" lon="-0.296687">
        <ele>520.874</ele>
        <time>2020-08-23T16:27:46Z</time>
      </trkpt>
      <trkpt lat="42.107151" lon="-0.296750">
        <ele>520.896</ele>
        <time>2020-08-23T16:27:47Z</time>
      </trkpt>
      <trkpt lat="42.107145" lon="-0.296814">
        <ele>520.831</ele>
        <time>2020-08-23T16:27:48Z</time>
      </trkpt>
      <trkpt lat="42.107130" lon="-0.296935">
        <ele>520.924</ele>
        <time>2020-08-23T16:27:50Z</time>
      </trkpt>
      <trkpt lat="42.107117" lon="-0.296997">
        <ele>520.908</ele>
        <time>2020-08-23T16:27:51Z</time>
      </trkpt>
      <trkpt lat="42.107095" lon="-0.297122">
        <ele>521.134</ele>
        <time>2020-08-23T16:27:53Z</time>
      </trkpt>
      <trkpt lat="42.107071" lon="-0.297230">
        <ele>521.294</ele>
        <time>2020-08-23T16:27:55Z</time>
      </trkpt>
      <trkpt lat="42.107064" lon="-0.297297">
        <ele>521.382</ele>
        <time>2020-08-23T16:27:57Z</time>
      </trkpt>
      <trkpt lat="42.107038" lon="-0.297380">
        <ele>521.454</ele>
        <time>2020-08-23T16:27:59Z</time>
      </trkpt>
      <trkpt lat="42.107009" lon="-0.297497">
        <ele>521.425</ele>
        <time>2020-08-23T16:28:01Z</time>
      </trkpt>
      <trkpt lat="42.106987" lon="-0.297605">
        <ele>521.296</ele>
        <time>2020-08-23T16:28:03Z</time>
      </trkpt>
      <trkpt lat="42.106966" lon="-0.297701">
        <ele>521.332</ele>
        <time>2020-08-23T16:28:05Z</time>
      </trkpt>
      <trkpt lat="42.106952" lon="-0.297811">
        <ele>521.461</ele>
        <time>2020-08-23T16:28:07Z</time>
      </trkpt>
      <trkpt lat="42.106949" lon="-0.297875">
        <ele>521.431</ele>
        <time>2020-08-23T16:28:08Z</time>
      </trkpt>
      <trkpt lat="42.106955" lon="-0.297980">
        <ele>521.661</ele>
        <time>2020-08-23T16:28:10Z</time>
      </trkpt>
      <trkpt lat="42.106964" lon="-0.298090">
        <ele>521.607</ele>
        <time>2020-08-23T16:28:12Z</time>
      </trkpt>
      <trkpt lat="42.106970" lon="-0.298154">
        <ele>521.608</ele>
        <time>2020-08-23T16:28:13Z</time>
      </trkpt>
      <trkpt lat="42.106976" lon="-0.298220">
        <ele>521.338</ele>
        <time>2020-08-23T16:28:14Z</time>
      </trkpt>
      <trkpt lat="42.106978" lon="-0.298282">
        <ele>521.388</ele>
        <time>2020-08-23T16:28:15Z</time>
      </trkpt>
      <trkpt lat="42.106982" lon="-0.298378">
        <ele>521.236</ele>
        <time>2020-08-23T16:28:17Z</time>
      </trkpt>
      <trkpt lat="42.106988" lon="-0.298474">
        <ele>521.218</ele>
        <time>2020-08-23T16:28:19Z</time>
      </trkpt>
      <trkpt lat="42.107001" lon="-0.298588">
        <ele>521.039</ele>
        <time>2020-08-23T16:28:21Z</time>
      </trkpt>
      <trkpt lat="42.107019" lon="-0.298702">
        <ele>520.940</ele>
        <time>2020-08-23T16:28:23Z</time>
      </trkpt>
      <trkpt lat="42.107034" lon="-0.298812">
        <ele>520.866</ele>
        <time>2020-08-23T16:28:25Z</time>
      </trkpt>
      <trkpt lat="42.107043" lon="-0.298911">
        <ele>521.145</ele>
        <time>2020-08-23T16:28:27Z</time>
      </trkpt>
      <trkpt lat="42.107058" lon="-0.299013">
        <ele>521.751</ele>
        <time>2020-08-23T16:28:29Z</time>
      </trkpt>
      <trkpt lat="42.107066" lon="-0.299116">
        <ele>522.301</ele>
        <time>2020-08-23T16:28:31Z</time>
      </trkpt>
      <trkpt lat="42.107065" lon="-0.299177">
        <ele>522.311</ele>
        <time>2020-08-23T16:28:32Z</time>
      </trkpt>
      <trkpt lat="42.107061" lon="-0.299239">
        <ele>522.408</ele>
        <time>2020-08-23T16:28:33Z</time>
      </trkpt>
      <trkpt lat="42.107056" lon="-0.299351">
        <ele>522.460</ele>
        <time>2020-08-23T16:28:35Z</time>
      </trkpt>
      <trkpt lat="42.107054" lon="-0.299465">
        <ele>522.470</ele>
        <time>2020-08-23T16:28:37Z</time>
      </trkpt>
      <trkpt lat="42.107053" lon="-0.299528">
        <ele>522.448</ele>
        <time>2020-08-23T16:28:38Z</time>
      </trkpt>
      <trkpt lat="42.107051" lon="-0.299589">
        <ele>522.410</ele>
        <time>2020-08-23T16:28:39Z</time>
      </trkpt>
      <trkpt lat="42.107038" lon="-0.299691">
        <ele>522.561</ele>
        <time>2020-08-23T16:28:41Z</time>
      </trkpt>
      <trkpt lat="42.107027" lon="-0.299779">
        <ele>522.662</ele>
        <time>2020-08-23T16:28:43Z</time>
      </trkpt>
      <trkpt lat="42.107028" lon="-0.299895">
        <ele>522.858</ele>
        <time>2020-08-23T16:28:45Z</time>
      </trkpt>
      <trkpt lat="42.107029" lon="-0.300001">
        <ele>522.997</ele>
        <time>2020-08-23T16:28:47Z</time>
      </trkpt>
      <trkpt lat="42.107027" lon="-0.300117">
        <ele>523.058</ele>
        <time>2020-08-23T16:28:49Z</time>
      </trkpt>
      <trkpt lat="42.107029" lon="-0.300234">
        <ele>522.852</ele>
        <time>2020-08-23T16:28:51Z</time>
      </trkpt>
      <trkpt lat="42.107035" lon="-0.300322">
        <ele>522.717</ele>
        <time>2020-08-23T16:28:53Z</time>
      </trkpt>
      <trkpt lat="42.107047" lon="-0.300423">
        <ele>523.008</ele>
        <time>2020-08-23T16:28:55Z</time>
      </trkpt>
      <trkpt lat="42.107080" lon="-0.300494">
        <ele>523.680</ele>
        <time>2020-08-23T16:28:57Z</time>
      </trkpt>
      <trkpt lat="42.107138" lon="-0.300571">
        <ele>523.710</ele>
        <time>2020-08-23T16:28:59Z</time>
      </trkpt>
      <trkpt lat="42.107199" lon="-0.300649">
        <ele>523.768</ele>
        <time>2020-08-23T16:29:01Z</time>
      </trkpt>
      <trkpt lat="42.107251" lon="-0.300732">
        <ele>524.130</ele>
        <time>2020-08-23T16:29:03Z</time>
      </trkpt>
      <trkpt lat="42.107287" lon="-0.300792">
        <ele>524.651</ele>
        <time>2020-08-23T16:29:05Z</time>
      </trkpt>
      <trkpt lat="42.107323" lon="-0.300846">
        <ele>525.072</ele>
        <time>2020-08-23T16:29:07Z</time>
      </trkpt>
      <trkpt lat="42.107367" lon="-0.300910">
        <ele>525.348</ele>
        <time>2020-08-23T16:29:09Z</time>
      </trkpt>
      <trkpt lat="42.107396" lon="-0.300957">
        <ele>525.657</ele>
        <time>2020-08-23T16:29:11Z</time>
      </trkpt>
      <trkpt lat="42.107418" lon="-0.301029">
        <ele>525.847</ele>
        <time>2020-08-23T16:29:13Z</time>
      </trkpt>
      <trkpt lat="42.107442" lon="-0.301102">
        <ele>525.929</ele>
        <time>2020-08-23T16:29:15Z</time>
      </trkpt>
      <trkpt lat="42.107472" lon="-0.301186">
        <ele>526.321</ele>
        <time>2020-08-23T16:29:18Z</time>
      </trkpt>
      <trkpt lat="42.107498" lon="-0.301266">
        <ele>526.608</ele>
        <time>2020-08-23T16:29:20Z</time>
      </trkpt>
      <trkpt lat="42.107522" lon="-0.301345">
        <ele>526.989</ele>
        <time>2020-08-23T16:29:22Z</time>
      </trkpt>
      <trkpt lat="42.107547" lon="-0.301424">
        <ele>527.119</ele>
        <time>2020-08-23T16:29:24Z</time>
      </trkpt>
      <trkpt lat="42.107584" lon="-0.301502">
        <ele>527.467</ele>
        <time>2020-08-23T16:29:26Z</time>
      </trkpt>
      <trkpt lat="42.107615" lon="-0.301578">
        <ele>527.659</ele>
        <time>2020-08-23T16:29:28Z</time>
      </trkpt>
      <trkpt lat="42.107639" lon="-0.301641">
        <ele>527.910</ele>
        <time>2020-08-23T16:29:30Z</time>
      </trkpt>
      <trkpt lat="42.107661" lon="-0.301694">
        <ele>528.091</ele>
        <time>2020-08-23T16:29:31Z</time>
      </trkpt>
      <trkpt lat="42.107682" lon="-0.301795">
        <ele>528.387</ele>
        <time>2020-08-23T16:29:33Z</time>
      </trkpt>
      <trkpt lat="42.107696" lon="-0.301858">
        <ele>528.516</ele>
        <time>2020-08-23T16:29:35Z</time>
      </trkpt>
      <trkpt lat="42.107715" lon="-0.301930">
        <ele>528.639</ele>
        <time>2020-08-23T16:29:37Z</time>
      </trkpt>
      <trkpt lat="42.107733" lon="-0.302001">
        <ele>528.601</ele>
        <time>2020-08-23T16:29:39Z</time>
      </trkpt>
      <trkpt lat="42.107759" lon="-0.302061">
        <ele>528.621</ele>
        <time>2020-08-23T16:29:41Z</time>
      </trkpt>
      <trkpt lat="42.107780" lon="-0.302136">
        <ele>528.608</ele>
        <time>2020-08-23T16:29:43Z</time>
      </trkpt>
      <trkpt lat="42.107805" lon="-0.302214">
        <ele>528.948</ele>
        <time>2020-08-23T16:29:45Z</time>
      </trkpt>
      <trkpt lat="42.107837" lon="-0.302301">
        <ele>529.138</ele>
        <time>2020-08-23T16:29:47Z</time>
      </trkpt>
      <trkpt lat="42.107857" lon="-0.302379">
        <ele>529.276</ele>
        <time>2020-08-23T16:29:49Z</time>
      </trkpt>
      <trkpt lat="42.107889" lon="-0.302443">
        <ele>529.558</ele>
        <time>2020-08-23T16:29:51Z</time>
      </trkpt>
      <trkpt lat="42.107916" lon="-0.302511">
        <ele>529.639</ele>
        <time>2020-08-23T16:29:53Z</time>
      </trkpt>
      <trkpt lat="42.107937" lon="-0.302574">
        <ele>529.690</ele>
        <time>2020-08-23T16:29:55Z</time>
      </trkpt>
      <trkpt lat="42.107965" lon="-0.302627">
        <ele>529.726</ele>
        <time>2020-08-23T16:29:57Z</time>
      </trkpt>
      <trkpt lat="42.107997" lon="-0.302692">
        <ele>530.185</ele>
        <time>2020-08-23T16:29:59Z</time>
      </trkpt>
      <trkpt lat="42.108040" lon="-0.302769">
        <ele>530.476</ele>
        <time>2020-08-23T16:30:01Z</time>
      </trkpt>
      <trkpt lat="42.108076" lon="-0.302829">
        <ele>530.590</ele>
        <time>2020-08-23T16:30:03Z</time>
      </trkpt>
      <trkpt lat="42.108112" lon="-0.302885">
        <ele>530.619</ele>
        <time>2020-08-23T16:30:05Z</time>
      </trkpt>
      <trkpt lat="42.108146" lon="-0.302941">
        <ele>530.908</ele>
        <time>2020-08-23T16:30:07Z</time>
      </trkpt>
      <trkpt lat="42.108186" lon="-0.302997">
        <ele>531.422</ele>
        <time>2020-08-23T16:30:10Z</time>
      </trkpt>
      <trkpt lat="42.108231" lon="-0.303050">
        <ele>531.512</ele>
        <time>2020-08-23T16:30:12Z</time>
      </trkpt>
      <trkpt lat="42.108278" lon="-0.303101">
        <ele>531.560</ele>
        <time>2020-08-23T16:30:14Z</time>
      </trkpt>
      <trkpt lat="42.108313" lon="-0.303153">
        <ele>531.542</ele>
        <time>2020-08-23T16:30:16Z</time>
      </trkpt>
      <trkpt lat="42.108370" lon="-0.303224">
        <ele>531.613</ele>
        <time>2020-08-23T16:30:18Z</time>
      </trkpt>
      <trkpt lat="42.108402" lon="-0.303271">
        <ele>531.764</ele>
        <time>2020-08-23T16:30:20Z</time>
      </trkpt>
      <trkpt lat="42.108450" lon="-0.303334">
        <ele>531.850</ele>
        <time>2020-08-23T16:30:22Z</time>
      </trkpt>
      <trkpt lat="42.108508" lon="-0.303397">
        <ele>531.939</ele>
        <time>2020-08-23T16:30:24Z</time>
      </trkpt>
      <trkpt lat="42.108565" lon="-0.303464">
        <ele>531.943</ele>
        <time>2020-08-23T16:30:26Z</time>
      </trkpt>
      <trkpt lat="42.108615" lon="-0.303517">
        <ele>531.964</ele>
        <time>2020-08-23T16:30:28Z</time>
      </trkpt>
      <trkpt lat="42.108658" lon="-0.303568">
        <ele>532.010</ele>
        <time>2020-08-23T16:30:30Z</time>
      </trkpt>
      <trkpt lat="42.108706" lon="-0.303628">
        <ele>532.208</ele>
        <time>2020-08-23T16:30:32Z</time>
      </trkpt>
      <trkpt lat="42.108765" lon="-0.303679">
        <ele>532.489</ele>
        <time>2020-08-23T16:30:34Z</time>
      </trkpt>
      <trkpt lat="42.108803" lon="-0.303722">
        <ele>532.799</ele>
        <time>2020-08-23T16:30:36Z</time>
      </trkpt>
      <trkpt lat="42.108848" lon="-0.303781">
        <ele>533.067</ele>
        <time>2020-08-23T16:30:38Z</time>
      </trkpt>
      <trkpt lat="42.108895" lon="-0.303842">
        <ele>533.149</ele>
        <time>2020-08-23T16:30:40Z</time>
      </trkpt>
      <trkpt lat="42.108958" lon="-0.303895">
        <ele>533.130</ele>
        <time>2020-08-23T16:30:42Z</time>
      </trkpt>
      <trkpt lat="42.109019" lon="-0.303948">
        <ele>533.141</ele>
        <time>2020-08-23T16:30:44Z</time>
      </trkpt>
      <trkpt lat="42.109079" lon="-0.303993">
        <ele>533.057</ele>
        <time>2020-08-23T16:30:46Z</time>
      </trkpt>
      <trkpt lat="42.109128" lon="-0.304038">
        <ele>532.936</ele>
        <time>2020-08-23T16:30:48Z</time>
      </trkpt>
      <trkpt lat="42.109180" lon="-0.304080">
        <ele>533.254</ele>
        <time>2020-08-23T16:30:50Z</time>
      </trkpt>
      <trkpt lat="42.109226" lon="-0.304138">
        <ele>533.556</ele>
        <time>2020-08-23T16:30:52Z</time>
      </trkpt>
      <trkpt lat="42.109276" lon="-0.304209">
        <ele>533.811</ele>
        <time>2020-08-23T16:30:54Z</time>
      </trkpt>
      <trkpt lat="42.109317" lon="-0.304267">
        <ele>533.908</ele>
        <time>2020-08-23T16:30:56Z</time>
      </trkpt>
      <trkpt lat="42.109368" lon="-0.304324">
        <ele>533.960</ele>
        <time>2020-08-23T16:30:58Z</time>
      </trkpt>
      <trkpt lat="42.109409" lon="-0.304397">
        <ele>534.040</ele>
        <time>2020-08-23T16:31:00Z</time>
      </trkpt>
      <trkpt lat="42.109450" lon="-0.304463">
        <ele>534.158</ele>
        <time>2020-08-23T16:31:02Z</time>
      </trkpt>
      <trkpt lat="42.109480" lon="-0.304544">
        <ele>534.590</ele>
        <time>2020-08-23T16:31:04Z</time>
      </trkpt>
      <trkpt lat="42.109514" lon="-0.304636">
        <ele>534.711</ele>
        <time>2020-08-23T16:31:06Z</time>
      </trkpt>
      <trkpt lat="42.109547" lon="-0.304729">
        <ele>534.822</ele>
        <time>2020-08-23T16:31:08Z</time>
      </trkpt>
      <trkpt lat="42.109579" lon="-0.304826">
        <ele>534.658</ele>
        <time>2020-08-23T16:31:10Z</time>
      </trkpt>
      <trkpt lat="42.109608" lon="-0.304911">
        <ele>534.687</ele>
        <time>2020-08-23T16:31:12Z</time>
      </trkpt>
      <trkpt lat="42.109646" lon="-0.305000">
        <ele>534.612</ele>
        <time>2020-08-23T16:31:14Z</time>
      </trkpt>
      <trkpt lat="42.109691" lon="-0.305083">
        <ele>534.532</ele>
        <time>2020-08-23T16:31:16Z</time>
      </trkpt>
      <trkpt lat="42.109733" lon="-0.305174">
        <ele>534.405</ele>
        <time>2020-08-23T16:31:18Z</time>
      </trkpt>
      <trkpt lat="42.109774" lon="-0.305255">
        <ele>534.408</ele>
        <time>2020-08-23T16:31:20Z</time>
      </trkpt>
      <trkpt lat="42.109817" lon="-0.305347">
        <ele>534.676</ele>
        <time>2020-08-23T16:31:22Z</time>
      </trkpt>
      <trkpt lat="42.109849" lon="-0.305431">
        <ele>534.936</ele>
        <time>2020-08-23T16:31:24Z</time>
      </trkpt>
      <trkpt lat="42.109869" lon="-0.305508">
        <ele>535.134</ele>
        <time>2020-08-23T16:31:26Z</time>
      </trkpt>
      <trkpt lat="42.109889" lon="-0.305569">
        <ele>535.256</ele>
        <time>2020-08-23T16:31:28Z</time>
      </trkpt>
      <trkpt lat="42.109914" lon="-0.305644">
        <ele>535.247</ele>
        <time>2020-08-23T16:31:30Z</time>
      </trkpt>
      <trkpt lat="42.109943" lon="-0.305719">
        <ele>535.518</ele>
        <time>2020-08-23T16:31:32Z</time>
      </trkpt>
      <trkpt lat="42.109970" lon="-0.305783">
        <ele>535.814</ele>
        <time>2020-08-23T16:31:34Z</time>
      </trkpt>
      <trkpt lat="42.109998" lon="-0.305845">
        <ele>535.923</ele>
        <time>2020-08-23T16:31:36Z</time>
      </trkpt>
      <trkpt lat="42.110022" lon="-0.305901">
        <ele>536.193</ele>
        <time>2020-08-23T16:31:38Z</time>
      </trkpt>
      <trkpt lat="42.110049" lon="-0.305965">
        <ele>536.165</ele>
        <time>2020-08-23T16:31:40Z</time>
      </trkpt>
      <trkpt lat="42.110100" lon="-0.306010">
        <ele>536.221</ele>
        <time>2020-08-23T16:31:42Z</time>
      </trkpt>
      <trkpt lat="42.110146" lon="-0.306070">
        <ele>536.208</ele>
        <time>2020-08-23T16:31:44Z</time>
      </trkpt>
      <trkpt lat="42.110191" lon="-0.306135">
        <ele>536.234</ele>
        <time>2020-08-23T16:31:46Z</time>
      </trkpt>
      <trkpt lat="42.110222" lon="-0.306181">
        <ele>536.324</ele>
        <time>2020-08-23T16:31:47Z</time>
      </trkpt>
      <trkpt lat="42.110269" lon="-0.306266">
        <ele>536.432</ele>
        <time>2020-08-23T16:31:49Z</time>
      </trkpt>
      <trkpt lat="42.110323" lon="-0.306322">
        <ele>536.554</ele>
        <time>2020-08-23T16:31:51Z</time>
      </trkpt>
      <trkpt lat="42.110375" lon="-0.306385">
        <ele>536.525</ele>
        <time>2020-08-23T16:31:53Z</time>
      </trkpt>
      <trkpt lat="42.110427" lon="-0.306448">
        <ele>536.646</ele>
        <time>2020-08-23T16:31:55Z</time>
      </trkpt>
      <trkpt lat="42.110472" lon="-0.306518">
        <ele>536.762</ele>
        <time>2020-08-23T16:31:57Z</time>
      </trkpt>
      <trkpt lat="42.110515" lon="-0.306586">
        <ele>536.831</ele>
        <time>2020-08-23T16:31:59Z</time>
      </trkpt>
      <trkpt lat="42.110569" lon="-0.306645">
        <ele>536.927</ele>
        <time>2020-08-23T16:32:01Z</time>
      </trkpt>
      <trkpt lat="42.110622" lon="-0.306709">
        <ele>537.068</ele>
        <time>2020-08-23T16:32:03Z</time>
      </trkpt>
      <trkpt lat="42.110676" lon="-0.306770">
        <ele>537.114</ele>
        <time>2020-08-23T16:32:05Z</time>
      </trkpt>
      <trkpt lat="42.110721" lon="-0.306842">
        <ele>537.208</ele>
        <time>2020-08-23T16:32:07Z</time>
      </trkpt>
      <trkpt lat="42.110770" lon="-0.306910">
        <ele>537.387</ele>
        <time>2020-08-23T16:32:09Z</time>
      </trkpt>
      <trkpt lat="42.110809" lon="-0.306986">
        <ele>537.427</ele>
        <time>2020-08-23T16:32:11Z</time>
      </trkpt>
      <trkpt lat="42.110853" lon="-0.307066">
        <ele>537.755</ele>
        <time>2020-08-23T16:32:13Z</time>
      </trkpt>
      <trkpt lat="42.110884" lon="-0.307140">
        <ele>538.097</ele>
        <time>2020-08-23T16:32:15Z</time>
      </trkpt>
      <trkpt lat="42.110914" lon="-0.307218">
        <ele>538.168</ele>
        <time>2020-08-23T16:32:17Z</time>
      </trkpt>
      <trkpt lat="42.110948" lon="-0.307305">
        <ele>538.169</ele>
        <time>2020-08-23T16:32:19Z</time>
      </trkpt>
      <trkpt lat="42.110996" lon="-0.307367">
        <ele>538.295</ele>
        <time>2020-08-23T16:32:21Z</time>
      </trkpt>
      <trkpt lat="42.111033" lon="-0.307437">
        <ele>538.494</ele>
        <time>2020-08-23T16:32:23Z</time>
      </trkpt>
      <trkpt lat="42.111067" lon="-0.307510">
        <ele>538.699</ele>
        <time>2020-08-23T16:32:25Z</time>
      </trkpt>
      <trkpt lat="42.111092" lon="-0.307575">
        <ele>538.807</ele>
        <time>2020-08-23T16:32:27Z</time>
      </trkpt>
      <trkpt lat="42.111130" lon="-0.307638">
        <ele>538.927</ele>
        <time>2020-08-23T16:32:29Z</time>
      </trkpt>
      <trkpt lat="42.111164" lon="-0.307704">
        <ele>538.908</ele>
        <time>2020-08-23T16:32:31Z</time>
      </trkpt>
      <trkpt lat="42.111194" lon="-0.307764">
        <ele>539.284</ele>
        <time>2020-08-23T16:32:33Z</time>
      </trkpt>
      <trkpt lat="42.111232" lon="-0.307819">
        <ele>539.564</ele>
        <time>2020-08-23T16:32:35Z</time>
      </trkpt>
      <trkpt lat="42.111265" lon="-0.307886">
        <ele>539.582</ele>
        <time>2020-08-23T16:32:37Z</time>
      </trkpt>
      <trkpt lat="42.111296" lon="-0.307960">
        <ele>539.664</ele>
        <time>2020-08-23T16:32:39Z</time>
      </trkpt>
      <trkpt lat="42.111331" lon="-0.308034">
        <ele>539.845</ele>
        <time>2020-08-23T16:32:41Z</time>
      </trkpt>
      <trkpt lat="42.111362" lon="-0.308107">
        <ele>540.036</ele>
        <time>2020-08-23T16:32:43Z</time>
      </trkpt>
      <trkpt lat="42.111397" lon="-0.308177">
        <ele>540.192</ele>
        <time>2020-08-23T16:32:45Z</time>
      </trkpt>
      <trkpt lat="42.111432" lon="-0.308232">
        <ele>540.271</ele>
        <time>2020-08-23T16:32:47Z</time>
      </trkpt>
      <trkpt lat="42.111458" lon="-0.308287">
        <ele>540.518</ele>
        <time>2020-08-23T16:32:49Z</time>
      </trkpt>
      <trkpt lat="42.111489" lon="-0.308350">
        <ele>540.898</ele>
        <time>2020-08-23T16:32:51Z</time>
      </trkpt>
      <trkpt lat="42.111535" lon="-0.308427">
        <ele>540.917</ele>
        <time>2020-08-23T16:32:53Z</time>
      </trkpt>
      <trkpt lat="42.111574" lon="-0.308497">
        <ele>541.008</ele>
        <time>2020-08-23T16:32:55Z</time>
      </trkpt>
      <trkpt lat="42.111608" lon="-0.308570">
        <ele>541.216</ele>
        <time>2020-08-23T16:32:57Z</time>
      </trkpt>
      <trkpt lat="42.111642" lon="-0.308642">
        <ele>541.336</ele>
        <time>2020-08-23T16:32:59Z</time>
      </trkpt>
      <trkpt lat="42.111669" lon="-0.308718">
        <ele>541.344</ele>
        <time>2020-08-23T16:33:01Z</time>
      </trkpt>
      <trkpt lat="42.111718" lon="-0.308802">
        <ele>541.366</ele>
        <time>2020-08-23T16:33:03Z</time>
      </trkpt>
      <trkpt lat="42.111763" lon="-0.308879">
        <ele>541.347</ele>
        <time>2020-08-23T16:33:05Z</time>
      </trkpt>
      <trkpt lat="42.111804" lon="-0.308952">
        <ele>541.318</ele>
        <time>2020-08-23T16:33:07Z</time>
      </trkpt>
      <trkpt lat="42.111841" lon="-0.309035">
        <ele>541.354</ele>
        <time>2020-08-23T16:33:09Z</time>
      </trkpt>
      <trkpt lat="42.111859" lon="-0.309116">
        <ele>541.473</ele>
        <time>2020-08-23T16:33:11Z</time>
      </trkpt>
      <trkpt lat="42.111878" lon="-0.309192">
        <ele>541.735</ele>
        <time>2020-08-23T16:33:13Z</time>
      </trkpt>
      <trkpt lat="42.111911" lon="-0.309265">
        <ele>542.086</ele>
        <time>2020-08-23T16:33:15Z</time>
      </trkpt>
      <trkpt lat="42.111950" lon="-0.309324">
        <ele>542.114</ele>
        <time>2020-08-23T16:33:17Z</time>
      </trkpt>
      <trkpt lat="42.111978" lon="-0.309385">
        <ele>541.908</ele>
        <time>2020-08-23T16:33:19Z</time>
      </trkpt>
      <trkpt lat="42.112008" lon="-0.309452">
        <ele>541.948</ele>
        <time>2020-08-23T16:33:21Z</time>
      </trkpt>
      <trkpt lat="42.112038" lon="-0.309518">
        <ele>542.238</ele>
        <time>2020-08-23T16:33:23Z</time>
      </trkpt>
      <trkpt lat="42.112057" lon="-0.309577">
        <ele>542.526</ele>
        <time>2020-08-23T16:33:25Z</time>
      </trkpt>
      <trkpt lat="42.112102" lon="-0.309651">
        <ele>542.988</ele>
        <time>2020-08-23T16:33:27Z</time>
      </trkpt>
      <trkpt lat="42.112130" lon="-0.309700">
        <ele>543.169</ele>
        <time>2020-08-23T16:33:29Z</time>
      </trkpt>
      <trkpt lat="42.112158" lon="-0.309757">
        <ele>543.030</ele>
        <time>2020-08-23T16:33:31Z</time>
      </trkpt>
      <trkpt lat="42.112201" lon="-0.309818">
        <ele>542.646</ele>
        <time>2020-08-23T16:33:33Z</time>
      </trkpt>
      <trkpt lat="42.112237" lon="-0.309877">
        <ele>542.715</ele>
        <time>2020-08-23T16:33:35Z</time>
      </trkpt>
      <trkpt lat="42.112270" lon="-0.309940">
        <ele>542.844</ele>
        <time>2020-08-23T16:33:37Z</time>
      </trkpt>
      <trkpt lat="42.112309" lon="-0.309993">
        <ele>543.005</ele>
        <time>2020-08-23T16:33:39Z</time>
      </trkpt>
      <trkpt lat="42.112347" lon="-0.310061">
        <ele>543.315</ele>
        <time>2020-08-23T16:33:41Z</time>
      </trkpt>
      <trkpt lat="42.112387" lon="-0.310158">
        <ele>543.508</ele>
        <time>2020-08-23T16:33:43Z</time>
      </trkpt>
      <trkpt lat="42.112431" lon="-0.310251">
        <ele>543.599</ele>
        <time>2020-08-23T16:33:45Z</time>
      </trkpt>
      <trkpt lat="42.112464" lon="-0.310332">
        <ele>543.559</ele>
        <time>2020-08-23T16:33:47Z</time>
      </trkpt>
      <trkpt lat="42.112497" lon="-0.310413">
        <ele>543.577</ele>
        <time>2020-08-23T16:33:49Z</time>
      </trkpt>
      <trkpt lat="42.112530" lon="-0.310482">
        <ele>543.719</ele>
        <time>2020-08-23T16:33:51Z</time>
      </trkpt>
      <trkpt lat="42.112560" lon="-0.310555">
        <ele>543.840</ele>
        <time>2020-08-23T16:33:53Z</time>
      </trkpt>
      <trkpt lat="42.112599" lon="-0.310629">
        <ele>543.951</ele>
        <time>2020-08-23T16:33:55Z</time>
      </trkpt>
      <trkpt lat="42.112638" lon="-0.310697">
        <ele>543.937</ele>
        <time>2020-08-23T16:33:57Z</time>
      </trkpt>
      <trkpt lat="42.112665" lon="-0.310769">
        <ele>544.096</ele>
        <time>2020-08-23T16:33:59Z</time>
      </trkpt>
      <trkpt lat="42.112699" lon="-0.310841">
        <ele>544.217</ele>
        <time>2020-08-23T16:34:01Z</time>
      </trkpt>
      <trkpt lat="42.112726" lon="-0.310923">
        <ele>544.487</ele>
        <time>2020-08-23T16:34:03Z</time>
      </trkpt>
      <trkpt lat="42.112754" lon="-0.311007">
        <ele>544.515</ele>
        <time>2020-08-23T16:34:05Z</time>
      </trkpt>
      <trkpt lat="42.112779" lon="-0.311093">
        <ele>544.708</ele>
        <time>2020-08-23T16:34:07Z</time>
      </trkpt>
      <trkpt lat="42.112803" lon="-0.311186">
        <ele>545.126</ele>
        <time>2020-08-23T16:34:09Z</time>
      </trkpt>
      <trkpt lat="42.112821" lon="-0.311267">
        <ele>545.436</ele>
        <time>2020-08-23T16:34:11Z</time>
      </trkpt>
      <trkpt lat="42.112846" lon="-0.311344">
        <ele>545.414</ele>
        <time>2020-08-23T16:34:13Z</time>
      </trkpt>
      <trkpt lat="42.112867" lon="-0.311422">
        <ele>545.476</ele>
        <time>2020-08-23T16:34:15Z</time>
      </trkpt>
      <trkpt lat="42.112888" lon="-0.311491">
        <ele>545.627</ele>
        <time>2020-08-23T16:34:17Z</time>
      </trkpt>
      <trkpt lat="42.112904" lon="-0.311562">
        <ele>545.788</ele>
        <time>2020-08-23T16:34:19Z</time>
      </trkpt>
      <trkpt lat="42.112930" lon="-0.311629">
        <ele>545.894</ele>
        <time>2020-08-23T16:34:21Z</time>
      </trkpt>
      <trkpt lat="42.112957" lon="-0.311699">
        <ele>545.883</ele>
        <time>2020-08-23T16:34:23Z</time>
      </trkpt>
      <trkpt lat="42.112988" lon="-0.311767">
        <ele>545.977</ele>
        <time>2020-08-23T16:34:25Z</time>
      </trkpt>
      <trkpt lat="42.113014" lon="-0.311830">
        <ele>546.061</ele>
        <time>2020-08-23T16:34:27Z</time>
      </trkpt>
      <trkpt lat="42.113049" lon="-0.311896">
        <ele>546.227</ele>
        <time>2020-08-23T16:34:29Z</time>
      </trkpt>
      <trkpt lat="42.113077" lon="-0.311965">
        <ele>546.508</ele>
        <time>2020-08-23T16:34:31Z</time>
      </trkpt>
      <trkpt lat="42.113108" lon="-0.312034">
        <ele>546.812</ele>
        <time>2020-08-23T16:34:33Z</time>
      </trkpt>
      <trkpt lat="42.113147" lon="-0.312091">
        <ele>547.162</ele>
        <time>2020-08-23T16:34:35Z</time>
      </trkpt>
      <trkpt lat="42.113178" lon="-0.312154">
        <ele>547.350</ele>
        <time>2020-08-23T16:34:37Z</time>
      </trkpt>
      <trkpt lat="42.113217" lon="-0.312225">
        <ele>547.482</ele>
        <time>2020-08-23T16:34:39Z</time>
      </trkpt>
      <trkpt lat="42.113248" lon="-0.312280">
        <ele>547.683</ele>
        <time>2020-08-23T16:34:41Z</time>
      </trkpt>
      <trkpt lat="42.113284" lon="-0.312344">
        <ele>547.724</ele>
        <time>2020-08-23T16:34:43Z</time>
      </trkpt>
      <trkpt lat="42.113317" lon="-0.312398">
        <ele>547.650</ele>
        <time>2020-08-23T16:34:45Z</time>
      </trkpt>
      <trkpt lat="42.113322" lon="-0.312460">
        <ele>547.829</ele>
        <time>2020-08-23T16:34:47Z</time>
      </trkpt>
      <trkpt lat="42.113307" lon="-0.312538">
        <ele>548.144</ele>
        <time>2020-08-23T16:34:49Z</time>
      </trkpt>
      <trkpt lat="42.113293" lon="-0.312628">
        <ele>548.205</ele>
        <time>2020-08-23T16:34:51Z</time>
      </trkpt>
      <trkpt lat="42.113279" lon="-0.312724">
        <ele>548.115</ele>
        <time>2020-08-23T16:34:53Z</time>
      </trkpt>
      <trkpt lat="42.113266" lon="-0.312805">
        <ele>548.508</ele>
        <time>2020-08-23T16:34:55Z</time>
      </trkpt>
      <trkpt lat="42.113258" lon="-0.312885">
        <ele>548.859</ele>
        <time>2020-08-23T16:34:57Z</time>
      </trkpt>
      <trkpt lat="42.113250" lon="-0.312946">
        <ele>549.089</ele>
        <time>2020-08-23T16:34:59Z</time>
      </trkpt>
      <trkpt lat="42.113242" lon="-0.313008">
        <ele>549.247</ele>
        <time>2020-08-23T16:35:01Z</time>
      </trkpt>
      <trkpt lat="42.113253" lon="-0.313081">
        <ele>549.539</ele>
        <time>2020-08-23T16:35:03Z</time>
      </trkpt>
      <trkpt lat="42.113281" lon="-0.313137">
        <ele>549.830</ele>
        <time>2020-08-23T16:35:05Z</time>
      </trkpt>
      <trkpt lat="42.113296" lon="-0.313194">
        <ele>550.091</ele>
        <time>2020-08-23T16:35:07Z</time>
      </trkpt>
      <trkpt lat="42.113316" lon="-0.313251">
        <ele>550.097</ele>
        <time>2020-08-23T16:35:11Z</time>
      </trkpt>
      <trkpt lat="42.113346" lon="-0.313303">
        <ele>551.086</ele>
        <time>2020-08-23T16:40:55Z</time>
      </trkpt>
      <trkpt lat="42.113374" lon="-0.313356">
        <ele>551.127</ele>
        <time>2020-08-23T16:40:57Z</time>
      </trkpt>
      <trkpt lat="42.113411" lon="-0.313410">
        <ele>551.468</ele>
        <time>2020-08-23T16:40:59Z</time>
      </trkpt>
      <trkpt lat="42.113447" lon="-0.313462">
        <ele>551.714</ele>
        <time>2020-08-23T16:41:01Z</time>
      </trkpt>
      <trkpt lat="42.113488" lon="-0.313530">
        <ele>551.908</ele>
        <time>2020-08-23T16:41:03Z</time>
      </trkpt>
      <trkpt lat="42.113521" lon="-0.313594">
        <ele>551.947</ele>
        <time>2020-08-23T16:41:05Z</time>
      </trkpt>
      <trkpt lat="42.113566" lon="-0.313646">
        <ele>552.137</ele>
        <time>2020-08-23T16:41:07Z</time>
      </trkpt>
      <trkpt lat="42.113617" lon="-0.313688">
        <ele>552.315</ele>
        <time>2020-08-23T16:41:09Z</time>
      </trkpt>
      <trkpt lat="42.113664" lon="-0.313730">
        <ele>552.517</ele>
        <time>2020-08-23T16:41:11Z</time>
      </trkpt>
      <trkpt lat="42.113714" lon="-0.313777">
        <ele>552.748</ele>
        <time>2020-08-23T16:41:13Z</time>
      </trkpt>
      <trkpt lat="42.113768" lon="-0.313823">
        <ele>553.049</ele>
        <time>2020-08-23T16:41:15Z</time>
      </trkpt>
      <trkpt lat="42.113816" lon="-0.313842">
        <ele>553.365</ele>
        <time>2020-08-23T16:41:17Z</time>
      </trkpt>
      <trkpt lat="42.113859" lon="-0.313878">
        <ele>553.694</ele>
        <time>2020-08-23T16:41:19Z</time>
      </trkpt>
      <trkpt lat="42.113910" lon="-0.313932">
        <ele>554.016</ele>
        <time>2020-08-23T16:41:21Z</time>
      </trkpt>
      <trkpt lat="42.113949" lon="-0.313971">
        <ele>554.476</ele>
        <time>2020-08-23T16:41:23Z</time>
      </trkpt>
      <trkpt lat="42.113978" lon="-0.314022">
        <ele>554.813</ele>
        <time>2020-08-23T16:41:25Z</time>
      </trkpt>
      <trkpt lat="42.114012" lon="-0.314077">
        <ele>555.208</ele>
        <time>2020-08-23T16:41:27Z</time>
      </trkpt>
      <trkpt lat="42.114040" lon="-0.314128">
        <ele>555.696</ele>
        <time>2020-08-23T16:41:29Z</time>
      </trkpt>
      <trkpt lat="42.114081" lon="-0.314196">
        <ele>556.186</ele>
        <time>2020-08-23T16:41:32Z</time>
      </trkpt>
      <trkpt lat="42.114122" lon="-0.314257">
        <ele>556.314</ele>
        <time>2020-08-23T16:41:34Z</time>
      </trkpt>
      <trkpt lat="42.114154" lon="-0.314315">
        <ele>556.636</ele>
        <time>2020-08-23T16:41:36Z</time>
      </trkpt>
      <trkpt lat="42.114187" lon="-0.314373">
        <ele>556.827</ele>
        <time>2020-08-23T16:41:38Z</time>
      </trkpt>
      <trkpt lat="42.114215" lon="-0.314433">
        <ele>557.048</ele>
        <time>2020-08-23T16:41:40Z</time>
      </trkpt>
      <trkpt lat="42.114242" lon="-0.314486">
        <ele>557.124</ele>
        <time>2020-08-23T16:41:42Z</time>
      </trkpt>
      <trkpt lat="42.114276" lon="-0.314544">
        <ele>557.243</ele>
        <time>2020-08-23T16:41:44Z</time>
      </trkpt>
      <trkpt lat="42.114311" lon="-0.314623">
        <ele>557.263</ele>
        <time>2020-08-23T16:41:47Z</time>
      </trkpt>
      <trkpt lat="42.114341" lon="-0.314681">
        <ele>557.244</ele>
        <time>2020-08-23T16:41:49Z</time>
      </trkpt>
      <trkpt lat="42.114368" lon="-0.314757">
        <ele>557.318</ele>
        <time>2020-08-23T16:41:51Z</time>
      </trkpt>
      <trkpt lat="42.114396" lon="-0.314834">
        <ele>557.508</ele>
        <time>2020-08-23T16:41:53Z</time>
      </trkpt>
      <trkpt lat="42.114424" lon="-0.314907">
        <ele>557.791</ele>
        <time>2020-08-23T16:41:55Z</time>
      </trkpt>
      <trkpt lat="42.114456" lon="-0.314985">
        <ele>557.861</ele>
        <time>2020-08-23T16:41:57Z</time>
      </trkpt>
      <trkpt lat="42.114490" lon="-0.315059">
        <ele>557.979</ele>
        <time>2020-08-23T16:41:59Z</time>
      </trkpt>
      <trkpt lat="42.114530" lon="-0.315128">
        <ele>557.941</ele>
        <time>2020-08-23T16:42:01Z</time>
      </trkpt>
      <trkpt lat="42.114572" lon="-0.315199">
        <ele>558.052</ele>
        <time>2020-08-23T16:42:03Z</time>
      </trkpt>
      <trkpt lat="42.114607" lon="-0.315267">
        <ele>558.123</ele>
        <time>2020-08-23T16:42:05Z</time>
      </trkpt>
      <trkpt lat="42.114641" lon="-0.315333">
        <ele>558.219</ele>
        <time>2020-08-23T16:42:07Z</time>
      </trkpt>
      <trkpt lat="42.114673" lon="-0.315412">
        <ele>558.388</ele>
        <time>2020-08-23T16:42:09Z</time>
      </trkpt>
      <trkpt lat="42.114712" lon="-0.315497">
        <ele>558.594</ele>
        <time>2020-08-23T16:42:11Z</time>
      </trkpt>
      <trkpt lat="42.114740" lon="-0.315576">
        <ele>558.757</ele>
        <time>2020-08-23T16:42:13Z</time>
      </trkpt>
      <trkpt lat="42.114765" lon="-0.315650">
        <ele>558.822</ele>
        <time>2020-08-23T16:42:15Z</time>
      </trkpt>
      <trkpt lat="42.114791" lon="-0.315740">
        <ele>558.708</ele>
        <time>2020-08-23T16:42:17Z</time>
      </trkpt>
      <trkpt lat="42.114823" lon="-0.315831">
        <ele>558.544</ele>
        <time>2020-08-23T16:42:19Z</time>
      </trkpt>
      <trkpt lat="42.114855" lon="-0.315920">
        <ele>558.674</ele>
        <time>2020-08-23T16:42:21Z</time>
      </trkpt>
      <trkpt lat="42.114894" lon="-0.315998">
        <ele>558.942</ele>
        <time>2020-08-23T16:42:23Z</time>
      </trkpt>
      <trkpt lat="42.114934" lon="-0.316084">
        <ele>559.284</ele>
        <time>2020-08-23T16:42:25Z</time>
      </trkpt>
      <trkpt lat="42.114965" lon="-0.316164">
        <ele>559.585</ele>
        <time>2020-08-23T16:42:27Z</time>
      </trkpt>
      <trkpt lat="42.114991" lon="-0.316249">
        <ele>559.996</ele>
        <time>2020-08-23T16:42:29Z</time>
      </trkpt>
      <trkpt lat="42.115029" lon="-0.316338">
        <ele>560.112</ele>
        <time>2020-08-23T16:42:31Z</time>
      </trkpt>
      <trkpt lat="42.115070" lon="-0.316404">
        <ele>560.131</ele>
        <time>2020-08-23T16:42:33Z</time>
      </trkpt>
      <trkpt lat="42.115109" lon="-0.316492">
        <ele>560.092</ele>
        <time>2020-08-23T16:42:35Z</time>
      </trkpt>
      <trkpt lat="42.115134" lon="-0.316572">
        <ele>559.973</ele>
        <time>2020-08-23T16:42:37Z</time>
      </trkpt>
      <trkpt lat="42.115157" lon="-0.316639">
        <ele>559.820</ele>
        <time>2020-08-23T16:42:39Z</time>
      </trkpt>
      <trkpt lat="42.115184" lon="-0.316707">
        <ele>559.808</ele>
        <time>2020-08-23T16:42:41Z</time>
      </trkpt>
      <trkpt lat="42.115225" lon="-0.316788">
        <ele>559.924</ele>
        <time>2020-08-23T16:42:43Z</time>
      </trkpt>
      <trkpt lat="42.115267" lon="-0.316866">
        <ele>559.884</ele>
        <time>2020-08-23T16:42:45Z</time>
      </trkpt>
      <trkpt lat="42.115306" lon="-0.316946">
        <ele>559.882</ele>
        <time>2020-08-23T16:42:47Z</time>
      </trkpt>
      <trkpt lat="42.115342" lon="-0.317031">
        <ele>560.074</ele>
        <time>2020-08-23T16:42:49Z</time>
      </trkpt>
      <trkpt lat="42.115376" lon="-0.317123">
        <ele>560.335</ele>
        <time>2020-08-23T16:42:51Z</time>
      </trkpt>
      <trkpt lat="42.115412" lon="-0.317205">
        <ele>560.536</ele>
        <time>2020-08-23T16:42:53Z</time>
      </trkpt>
      <trkpt lat="42.115447" lon="-0.317282">
        <ele>560.772</ele>
        <time>2020-08-23T16:42:55Z</time>
      </trkpt>
      <trkpt lat="42.115474" lon="-0.317359">
        <ele>560.941</ele>
        <time>2020-08-23T16:42:57Z</time>
      </trkpt>
      <trkpt lat="42.115508" lon="-0.317438">
        <ele>561.174</ele>
        <time>2020-08-23T16:42:59Z</time>
      </trkpt>
      <trkpt lat="42.115536" lon="-0.317506">
        <ele>561.356</ele>
        <time>2020-08-23T16:43:01Z</time>
      </trkpt>
      <trkpt lat="42.115567" lon="-0.317587">
        <ele>561.621</ele>
        <time>2020-08-23T16:43:03Z</time>
      </trkpt>
      <trkpt lat="42.115595" lon="-0.317669">
        <ele>561.808</ele>
        <time>2020-08-23T16:43:05Z</time>
      </trkpt>
      <trkpt lat="42.115616" lon="-0.317724">
        <ele>561.932</ele>
        <time>2020-08-23T16:43:07Z</time>
      </trkpt>
      <trkpt lat="42.115630" lon="-0.317821">
        <ele>561.912</ele>
        <time>2020-08-23T16:43:10Z</time>
      </trkpt>
      <trkpt lat="42.115647" lon="-0.317886">
        <ele>562.110</ele>
        <time>2020-08-23T16:43:12Z</time>
      </trkpt>
      <trkpt lat="42.115667" lon="-0.317942">
        <ele>562.582</ele>
        <time>2020-08-23T16:43:14Z</time>
      </trkpt>
      <trkpt lat="42.115692" lon="-0.318009">
        <ele>562.713</ele>
        <time>2020-08-23T16:43:16Z</time>
      </trkpt>
      <trkpt lat="42.115719" lon="-0.318082">
        <ele>562.734</ele>
        <time>2020-08-23T16:43:18Z</time>
      </trkpt>
      <trkpt lat="42.115745" lon="-0.318141">
        <ele>562.860</ele>
        <time>2020-08-23T16:43:20Z</time>
      </trkpt>
      <trkpt lat="42.115772" lon="-0.318205">
        <ele>562.819</ele>
        <time>2020-08-23T16:43:22Z</time>
      </trkpt>
      <trkpt lat="42.115798" lon="-0.318268">
        <ele>563.028</ele>
        <time>2020-08-23T16:43:24Z</time>
      </trkpt>
      <trkpt lat="42.115827" lon="-0.318335">
        <ele>563.289</ele>
        <time>2020-08-23T16:43:26Z</time>
      </trkpt>
      <trkpt lat="42.115849" lon="-0.318404">
        <ele>563.317</ele>
        <time>2020-08-23T16:43:28Z</time>
      </trkpt>
      <trkpt lat="42.115880" lon="-0.318481">
        <ele>563.408</ele>
        <time>2020-08-23T16:43:30Z</time>
      </trkpt>
      <trkpt lat="42.115911" lon="-0.318563">
        <ele>563.637</ele>
        <time>2020-08-23T16:43:32Z</time>
      </trkpt>
      <trkpt lat="42.115935" lon="-0.318638">
        <ele>563.897</ele>
        <time>2020-08-23T16:43:34Z</time>
      </trkpt>
      <trkpt lat="42.115965" lon="-0.318705">
        <ele>564.095</ele>
        <time>2020-08-23T16:43:36Z</time>
      </trkpt>
      <trkpt lat="42.115993" lon="-0.318784">
        <ele>564.077</ele>
        <time>2020-08-23T16:43:38Z</time>
      </trkpt>
      <trkpt lat="42.116010" lon="-0.318846">
        <ele>563.958</ele>
        <time>2020-08-23T16:43:40Z</time>
      </trkpt>
      <trkpt lat="42.116032" lon="-0.318928">
        <ele>563.839</ele>
        <time>2020-08-23T16:43:43Z</time>
      </trkpt>
      <trkpt lat="42.116042" lon="-0.319009">
        <ele>563.825</ele>
        <time>2020-08-23T16:43:45Z</time>
      </trkpt>
      <trkpt lat="42.116068" lon="-0.319086">
        <ele>563.874</ele>
        <time>2020-08-23T16:43:47Z</time>
      </trkpt>
      <trkpt lat="42.116092" lon="-0.319163">
        <ele>563.786</ele>
        <time>2020-08-23T16:43:49Z</time>
      </trkpt>
      <trkpt lat="42.116110" lon="-0.319242">
        <ele>563.760</ele>
        <time>2020-08-23T16:43:51Z</time>
      </trkpt>
      <trkpt lat="42.116132" lon="-0.319323">
        <ele>563.926</ele>
        <time>2020-08-23T16:43:53Z</time>
      </trkpt>
      <trkpt lat="42.116151" lon="-0.319410">
        <ele>564.108</ele>
        <time>2020-08-23T16:43:55Z</time>
      </trkpt>
      <trkpt lat="42.116178" lon="-0.319478">
        <ele>564.473</ele>
        <time>2020-08-23T16:43:57Z</time>
      </trkpt>
      <trkpt lat="42.116204" lon="-0.319542">
        <ele>564.683</ele>
        <time>2020-08-23T16:43:59Z</time>
      </trkpt>
      <trkpt lat="42.116226" lon="-0.319613">
        <ele>564.791</ele>
        <time>2020-08-23T16:44:01Z</time>
      </trkpt>
      <trkpt lat="42.116248" lon="-0.319686">
        <ele>564.653</ele>
        <time>2020-08-23T16:44:03Z</time>
      </trkpt>
      <trkpt lat="42.116267" lon="-0.319772">
        <ele>564.654</ele>
        <time>2020-08-23T16:44:05Z</time>
      </trkpt>
      <trkpt lat="42.116294" lon="-0.319871">
        <ele>564.695</ele>
        <time>2020-08-23T16:44:07Z</time>
      </trkpt>
      <trkpt lat="42.116319" lon="-0.319960">
        <ele>564.721</ele>
        <time>2020-08-23T16:44:09Z</time>
      </trkpt>
      <trkpt lat="42.116341" lon="-0.320059">
        <ele>564.770</ele>
        <time>2020-08-23T16:44:11Z</time>
      </trkpt>
      <trkpt lat="42.116364" lon="-0.320155">
        <ele>564.831</ele>
        <time>2020-08-23T16:44:13Z</time>
      </trkpt>
      <trkpt lat="42.116389" lon="-0.320225">
        <ele>564.961</ele>
        <time>2020-08-23T16:44:15Z</time>
      </trkpt>
      <trkpt lat="42.116420" lon="-0.320304">
        <ele>565.007</ele>
        <time>2020-08-23T16:44:17Z</time>
      </trkpt>
      <trkpt lat="42.116451" lon="-0.320379">
        <ele>565.008</ele>
        <time>2020-08-23T16:44:19Z</time>
      </trkpt>
      <trkpt lat="42.116486" lon="-0.320454">
        <ele>565.038</ele>
        <time>2020-08-23T16:44:21Z</time>
      </trkpt>
      <trkpt lat="42.116513" lon="-0.320533">
        <ele>565.198</ele>
        <time>2020-08-23T16:44:23Z</time>
      </trkpt>
      <trkpt lat="42.116554" lon="-0.320612">
        <ele>565.316</ele>
        <time>2020-08-23T16:44:25Z</time>
      </trkpt>
      <trkpt lat="42.116591" lon="-0.320675">
        <ele>565.248</ele>
        <time>2020-08-23T16:44:27Z</time>
      </trkpt>
      <trkpt lat="42.116618" lon="-0.320755">
        <ele>565.269</ele>
        <time>2020-08-23T16:44:29Z</time>
      </trkpt>
      <trkpt lat="42.116644" lon="-0.320831">
        <ele>565.340</ele>
        <time>2020-08-23T16:44:31Z</time>
      </trkpt>
      <trkpt lat="42.116677" lon="-0.320914">
        <ele>565.356</ele>
        <time>2020-08-23T16:44:33Z</time>
      </trkpt>
      <trkpt lat="42.116706" lon="-0.320997">
        <ele>565.355</ele>
        <time>2020-08-23T16:44:35Z</time>
      </trkpt>
      <trkpt lat="42.116737" lon="-0.321075">
        <ele>565.437</ele>
        <time>2020-08-23T16:44:37Z</time>
      </trkpt>
      <trkpt lat="42.116767" lon="-0.321161">
        <ele>565.549</ele>
        <time>2020-08-23T16:44:39Z</time>
      </trkpt>
      <trkpt lat="42.116787" lon="-0.321238">
        <ele>565.613</ele>
        <time>2020-08-23T16:44:41Z</time>
      </trkpt>
      <trkpt lat="42.116814" lon="-0.321318">
        <ele>565.608</ele>
        <time>2020-08-23T16:44:43Z</time>
      </trkpt>
      <trkpt lat="42.116834" lon="-0.321398">
        <ele>565.598</ele>
        <time>2020-08-23T16:44:45Z</time>
      </trkpt>
      <trkpt lat="42.116857" lon="-0.321488">
        <ele>565.518</ele>
        <time>2020-08-23T16:44:47Z</time>
      </trkpt>
      <trkpt lat="42.116882" lon="-0.321587">
        <ele>565.676</ele>
        <time>2020-08-23T16:44:49Z</time>
      </trkpt>
      <trkpt lat="42.116896" lon="-0.321684">
        <ele>565.638</ele>
        <time>2020-08-23T16:44:51Z</time>
      </trkpt>
      <trkpt lat="42.116920" lon="-0.321786">
        <ele>565.519</ele>
        <time>2020-08-23T16:44:53Z</time>
      </trkpt>
      <trkpt lat="42.116953" lon="-0.321876">
        <ele>565.430</ele>
        <time>2020-08-23T16:44:55Z</time>
      </trkpt>
      <trkpt lat="42.116991" lon="-0.321952">
        <ele>565.556</ele>
        <time>2020-08-23T16:44:57Z</time>
      </trkpt>
      <trkpt lat="42.117024" lon="-0.322044">
        <ele>565.535</ele>
        <time>2020-08-23T16:44:59Z</time>
      </trkpt>
      <trkpt lat="42.117049" lon="-0.322125">
        <ele>565.677</ele>
        <time>2020-08-23T16:45:01Z</time>
      </trkpt>
      <trkpt lat="42.117067" lon="-0.322212">
        <ele>565.661</ele>
        <time>2020-08-23T16:45:03Z</time>
      </trkpt>
      <trkpt lat="42.117089" lon="-0.322315">
        <ele>565.627</ele>
        <time>2020-08-23T16:45:05Z</time>
      </trkpt>
      <trkpt lat="42.117127" lon="-0.322397">
        <ele>565.408</ele>
        <time>2020-08-23T16:45:07Z</time>
      </trkpt>
      <trkpt lat="42.117157" lon="-0.322485">
        <ele>565.432</ele>
        <time>2020-08-23T16:45:09Z</time>
      </trkpt>
      <trkpt lat="42.117181" lon="-0.322559">
        <ele>565.692</ele>
        <time>2020-08-23T16:45:11Z</time>
      </trkpt>
      <trkpt lat="42.117207" lon="-0.322629">
        <ele>565.710</ele>
        <time>2020-08-23T16:45:13Z</time>
      </trkpt>
      <trkpt lat="42.117232" lon="-0.322702">
        <ele>565.752</ele>
        <time>2020-08-23T16:45:15Z</time>
      </trkpt>
      <trkpt lat="42.117254" lon="-0.322773">
        <ele>565.893</ele>
        <time>2020-08-23T16:45:17Z</time>
      </trkpt>
      <trkpt lat="42.117278" lon="-0.322845">
        <ele>566.074</ele>
        <time>2020-08-23T16:45:19Z</time>
      </trkpt>
      <trkpt lat="42.117299" lon="-0.322922">
        <ele>566.180</ele>
        <time>2020-08-23T16:45:21Z</time>
      </trkpt>
      <trkpt lat="42.117328" lon="-0.323013">
        <ele>565.919</ele>
        <time>2020-08-23T16:45:23Z</time>
      </trkpt>
      <trkpt lat="42.117357" lon="-0.323094">
        <ele>565.866</ele>
        <time>2020-08-23T16:45:25Z</time>
      </trkpt>
      <trkpt lat="42.117388" lon="-0.323189">
        <ele>565.729</ele>
        <time>2020-08-23T16:45:27Z</time>
      </trkpt>
      <trkpt lat="42.117422" lon="-0.323295">
        <ele>565.621</ele>
        <time>2020-08-23T16:45:29Z</time>
      </trkpt>
      <trkpt lat="42.117437" lon="-0.323384">
        <ele>565.608</ele>
        <time>2020-08-23T16:45:31Z</time>
      </trkpt>
      <trkpt lat="42.117440" lon="-0.323480">
        <ele>565.761</ele>
        <time>2020-08-23T16:45:33Z</time>
      </trkpt>
      <trkpt lat="42.117457" lon="-0.323589">
        <ele>565.841</ele>
        <time>2020-08-23T16:45:35Z</time>
      </trkpt>
      <trkpt lat="42.117481" lon="-0.323687">
        <ele>565.989</ele>
        <time>2020-08-23T16:45:37Z</time>
      </trkpt>
      <trkpt lat="42.117494" lon="-0.323773">
        <ele>566.181</ele>
        <time>2020-08-23T16:45:39Z</time>
      </trkpt>
      <trkpt lat="42.117515" lon="-0.323853">
        <ele>566.272</ele>
        <time>2020-08-23T16:45:41Z</time>
      </trkpt>
      <trkpt lat="42.117538" lon="-0.323933">
        <ele>566.283</ele>
        <time>2020-08-23T16:45:43Z</time>
      </trkpt>
      <trkpt lat="42.117564" lon="-0.324022">
        <ele>566.149</ele>
        <time>2020-08-23T16:45:45Z</time>
      </trkpt>
      <trkpt lat="42.117589" lon="-0.324109">
        <ele>566.068</ele>
        <time>2020-08-23T16:45:47Z</time>
      </trkpt>
      <trkpt lat="42.117611" lon="-0.324207">
        <ele>566.265</ele>
        <time>2020-08-23T16:45:49Z</time>
      </trkpt>
      <trkpt lat="42.117632" lon="-0.324303">
        <ele>566.468</ele>
        <time>2020-08-23T16:45:51Z</time>
      </trkpt>
      <trkpt lat="42.117646" lon="-0.324395">
        <ele>566.514</ele>
        <time>2020-08-23T16:45:53Z</time>
      </trkpt>
      <trkpt lat="42.117669" lon="-0.324489">
        <ele>566.508</ele>
        <time>2020-08-23T16:45:55Z</time>
      </trkpt>
      <trkpt lat="42.117683" lon="-0.324598">
        <ele>566.311</ele>
        <time>2020-08-23T16:45:57Z</time>
      </trkpt>
      <trkpt lat="42.117693" lon="-0.324697">
        <ele>566.131</ele>
        <time>2020-08-23T16:45:59Z</time>
      </trkpt>
      <trkpt lat="42.117704" lon="-0.324787">
        <ele>566.269</ele>
        <time>2020-08-23T16:46:01Z</time>
      </trkpt>
      <trkpt lat="42.117717" lon="-0.324879">
        <ele>566.321</ele>
        <time>2020-08-23T16:46:03Z</time>
      </trkpt>
      <trkpt lat="42.117731" lon="-0.324979">
        <ele>566.442</ele>
        <time>2020-08-23T16:46:05Z</time>
      </trkpt>
      <trkpt lat="42.117744" lon="-0.325074">
        <ele>566.583</ele>
        <time>2020-08-23T16:46:07Z</time>
      </trkpt>
      <trkpt lat="42.117766" lon="-0.325175">
        <ele>566.589</ele>
        <time>2020-08-23T16:46:09Z</time>
      </trkpt>
      <trkpt lat="42.117783" lon="-0.325282">
        <ele>566.498</ele>
        <time>2020-08-23T16:46:11Z</time>
      </trkpt>
      <trkpt lat="42.117798" lon="-0.325386">
        <ele>566.387</ele>
        <time>2020-08-23T16:46:13Z</time>
      </trkpt>
      <trkpt lat="42.117811" lon="-0.325477">
        <ele>566.442</ele>
        <time>2020-08-23T16:46:15Z</time>
      </trkpt>
      <trkpt lat="42.117825" lon="-0.325576">
        <ele>566.526</ele>
        <time>2020-08-23T16:46:17Z</time>
      </trkpt>
      <trkpt lat="42.117847" lon="-0.325650">
        <ele>566.508</ele>
        <time>2020-08-23T16:46:19Z</time>
      </trkpt>
      <trkpt lat="42.117862" lon="-0.325732">
        <ele>566.583</ele>
        <time>2020-08-23T16:46:21Z</time>
      </trkpt>
      <trkpt lat="42.117884" lon="-0.325826">
        <ele>566.543</ele>
        <time>2020-08-23T16:46:23Z</time>
      </trkpt>
      <trkpt lat="42.117904" lon="-0.325918">
        <ele>566.811</ele>
        <time>2020-08-23T16:46:25Z</time>
      </trkpt>
      <trkpt lat="42.117930" lon="-0.326003">
        <ele>567.033</ele>
        <time>2020-08-23T16:46:27Z</time>
      </trkpt>
      <trkpt lat="42.117954" lon="-0.326090">
        <ele>567.154</ele>
        <time>2020-08-23T16:46:29Z</time>
      </trkpt>
      <trkpt lat="42.117980" lon="-0.326176">
        <ele>567.275</ele>
        <time>2020-08-23T16:46:31Z</time>
      </trkpt>
      <trkpt lat="42.117999" lon="-0.326265">
        <ele>567.461</ele>
        <time>2020-08-23T16:46:33Z</time>
      </trkpt>
      <trkpt lat="42.118029" lon="-0.326350">
        <ele>567.630</ele>
        <time>2020-08-23T16:46:35Z</time>
      </trkpt>
      <trkpt lat="42.118048" lon="-0.326432">
        <ele>567.666</ele>
        <time>2020-08-23T16:46:37Z</time>
      </trkpt>
      <trkpt lat="42.118064" lon="-0.326516">
        <ele>567.529</ele>
        <time>2020-08-23T16:46:39Z</time>
      </trkpt>
      <trkpt lat="42.118077" lon="-0.326612">
        <ele>567.521</ele>
        <time>2020-08-23T16:46:41Z</time>
      </trkpt>
      <trkpt lat="42.118097" lon="-0.326696">
        <ele>568.008</ele>
        <time>2020-08-23T16:46:43Z</time>
      </trkpt>
      <trkpt lat="42.118109" lon="-0.326786">
        <ele>568.111</ele>
        <time>2020-08-23T16:46:45Z</time>
      </trkpt>
      <trkpt lat="42.118125" lon="-0.326877">
        <ele>568.031</ele>
        <time>2020-08-23T16:46:47Z</time>
      </trkpt>
      <trkpt lat="42.118142" lon="-0.326963">
        <ele>568.079</ele>
        <time>2020-08-23T16:46:49Z</time>
      </trkpt>
      <trkpt lat="42.118155" lon="-0.327055">
        <ele>568.351</ele>
        <time>2020-08-23T16:46:51Z</time>
      </trkpt>
      <trkpt lat="42.118167" lon="-0.327135">
        <ele>568.572</ele>
        <time>2020-08-23T16:46:53Z</time>
      </trkpt>
      <trkpt lat="42.118179" lon="-0.327230">
        <ele>568.523</ele>
        <time>2020-08-23T16:46:55Z</time>
      </trkpt>
      <trkpt lat="42.118189" lon="-0.327323">
        <ele>568.329</ele>
        <time>2020-08-23T16:46:57Z</time>
      </trkpt>
      <trkpt lat="42.118197" lon="-0.327403">
        <ele>568.088</ele>
        <time>2020-08-23T16:46:59Z</time>
      </trkpt>
      <trkpt lat="42.118208" lon="-0.327486">
        <ele>567.885</ele>
        <time>2020-08-23T16:47:01Z</time>
      </trkpt>
      <trkpt lat="42.118210" lon="-0.327586">
        <ele>567.689</ele>
        <time>2020-08-23T16:47:03Z</time>
      </trkpt>
      <trkpt lat="42.118218" lon="-0.327684">
        <ele>567.517</ele>
        <time>2020-08-23T16:47:05Z</time>
      </trkpt>
      <trkpt lat="42.118218" lon="-0.327786">
        <ele>567.508</ele>
        <time>2020-08-23T16:47:07Z</time>
      </trkpt>
      <trkpt lat="42.118224" lon="-0.327871">
        <ele>567.623</ele>
        <time>2020-08-23T16:47:09Z</time>
      </trkpt>
      <trkpt lat="42.118228" lon="-0.327966">
        <ele>567.743</ele>
        <time>2020-08-23T16:47:11Z</time>
      </trkpt>
      <trkpt lat="42.118231" lon="-0.328065">
        <ele>567.741</ele>
        <time>2020-08-23T16:47:13Z</time>
      </trkpt>
      <trkpt lat="42.118248" lon="-0.328161">
        <ele>567.753</ele>
        <time>2020-08-23T16:47:15Z</time>
      </trkpt>
      <trkpt lat="42.118267" lon="-0.328250">
        <ele>567.894</ele>
        <time>2020-08-23T16:47:17Z</time>
      </trkpt>
      <trkpt lat="42.118280" lon="-0.328343">
        <ele>567.945</ele>
        <time>2020-08-23T16:47:19Z</time>
      </trkpt>
      <trkpt lat="42.118293" lon="-0.328433">
        <ele>568.041</ele>
        <time>2020-08-23T16:47:21Z</time>
      </trkpt>
      <trkpt lat="42.118298" lon="-0.328519">
        <ele>568.220</ele>
        <time>2020-08-23T16:47:23Z</time>
      </trkpt>
      <trkpt lat="42.118308" lon="-0.328605">
        <ele>568.393</ele>
        <time>2020-08-23T16:47:25Z</time>
      </trkpt>
      <trkpt lat="42.118321" lon="-0.328685">
        <ele>568.465</ele>
        <time>2020-08-23T16:47:27Z</time>
      </trkpt>
      <trkpt lat="42.118336" lon="-0.328763">
        <ele>568.621</ele>
        <time>2020-08-23T16:47:29Z</time>
      </trkpt>
      <trkpt lat="42.118350" lon="-0.328845">
        <ele>568.808</ele>
        <time>2020-08-23T16:47:31Z</time>
      </trkpt>
      <trkpt lat="42.118363" lon="-0.328940">
        <ele>568.924</ele>
        <time>2020-08-23T16:47:33Z</time>
      </trkpt>
      <trkpt lat="42.118377" lon="-0.329033">
        <ele>568.924</ele>
        <time>2020-08-23T16:47:35Z</time>
      </trkpt>
      <trkpt lat="42.118389" lon="-0.329120">
        <ele>569.062</ele>
        <time>2020-08-23T16:47:37Z</time>
      </trkpt>
      <trkpt lat="42.118406" lon="-0.329208">
        <ele>569.264</ele>
        <time>2020-08-23T16:47:39Z</time>
      </trkpt>
      <trkpt lat="42.118423" lon="-0.329299">
        <ele>569.555</ele>
        <time>2020-08-23T16:47:41Z</time>
      </trkpt>
      <trkpt lat="42.118437" lon="-0.329377">
        <ele>569.526</ele>
        <time>2020-08-23T16:47:43Z</time>
      </trkpt>
      <trkpt lat="42.118442" lon="-0.329458">
        <ele>569.322</ele>
        <time>2020-08-23T16:47:45Z</time>
      </trkpt>
      <trkpt lat="42.118458" lon="-0.329531">
        <ele>569.411</ele>
        <time>2020-08-23T16:47:47Z</time>
      </trkpt>
      <trkpt lat="42.118468" lon="-0.329611">
        <ele>569.729</ele>
        <time>2020-08-23T16:47:49Z</time>
      </trkpt>
      <trkpt lat="42.118480" lon="-0.329685">
        <ele>570.000</ele>
        <time>2020-08-23T16:47:51Z</time>
      </trkpt>
      <trkpt lat="42.118484" lon="-0.329755">
        <ele>570.220</ele>
        <time>2020-08-23T16:47:53Z</time>
      </trkpt>
      <trkpt lat="42.118497" lon="-0.329827">
        <ele>570.408</ele>
        <time>2020-08-23T16:47:55Z</time>
      </trkpt>
      <trkpt lat="42.118503" lon="-0.329904">
        <ele>570.567</ele>
        <time>2020-08-23T16:47:57Z</time>
      </trkpt>
      <trkpt lat="42.118510" lon="-0.329991">
        <ele>570.637</ele>
        <time>2020-08-23T16:47:59Z</time>
      </trkpt>
      <trkpt lat="42.118529" lon="-0.330069">
        <ele>570.865</ele>
        <time>2020-08-23T16:48:01Z</time>
      </trkpt>
      <trkpt lat="42.118544" lon="-0.330131">
        <ele>570.817</ele>
        <time>2020-08-23T16:48:03Z</time>
      </trkpt>
      <trkpt lat="42.118556" lon="-0.330205">
        <ele>570.738</ele>
        <time>2020-08-23T16:48:05Z</time>
      </trkpt>
      <trkpt lat="42.118571" lon="-0.330277">
        <ele>570.769</ele>
        <time>2020-08-23T16:48:07Z</time>
      </trkpt>
      <trkpt lat="42.118581" lon="-0.330346">
        <ele>570.885</ele>
        <time>2020-08-23T16:48:09Z</time>
      </trkpt>
      <trkpt lat="42.118596" lon="-0.330419">
        <ele>570.934</ele>
        <time>2020-08-23T16:48:11Z</time>
      </trkpt>
      <trkpt lat="42.118597" lon="-0.330500">
        <ele>571.091</ele>
        <time>2020-08-23T16:48:13Z</time>
      </trkpt>
      <trkpt lat="42.118612" lon="-0.330585">
        <ele>571.181</ele>
        <time>2020-08-23T16:48:15Z</time>
      </trkpt>
      <trkpt lat="42.118635" lon="-0.330664">
        <ele>571.219</ele>
        <time>2020-08-23T16:48:17Z</time>
      </trkpt>
      <trkpt lat="42.118656" lon="-0.330732">
        <ele>571.608</ele>
        <time>2020-08-23T16:48:19Z</time>
      </trkpt>
      <trkpt lat="42.118669" lon="-0.330792">
        <ele>572.014</ele>
        <time>2020-08-23T16:48:21Z</time>
      </trkpt>
      <trkpt lat="42.118680" lon="-0.330853">
        <ele>572.224</ele>
        <time>2020-08-23T16:48:23Z</time>
      </trkpt>
      <trkpt lat="42.118697" lon="-0.330935">
        <ele>572.192</ele>
        <time>2020-08-23T16:48:26Z</time>
      </trkpt>
      <trkpt lat="42.118714" lon="-0.330995">
        <ele>572.184</ele>
        <time>2020-08-23T16:48:28Z</time>
      </trkpt>
      <trkpt lat="42.118737" lon="-0.331068">
        <ele>572.625</ele>
        <time>2020-08-23T16:48:31Z</time>
      </trkpt>
      <trkpt lat="42.118752" lon="-0.331149">
        <ele>572.956</ele>
        <time>2020-08-23T16:48:34Z</time>
      </trkpt>
      <trkpt lat="42.118768" lon="-0.331235">
        <ele>573.192</ele>
        <time>2020-08-23T16:48:37Z</time>
      </trkpt>
      <trkpt lat="42.118783" lon="-0.331305">
        <ele>573.421</ele>
        <time>2020-08-23T16:48:39Z</time>
      </trkpt>
      <trkpt lat="42.118795" lon="-0.331371">
        <ele>573.795</ele>
        <time>2020-08-23T16:48:41Z</time>
      </trkpt>
      <trkpt lat="42.118820" lon="-0.331457">
        <ele>574.149</ele>
        <time>2020-08-23T16:48:44Z</time>
      </trkpt>
      <trkpt lat="42.118836" lon="-0.331515">
        <ele>574.423</ele>
        <time>2020-08-23T16:48:46Z</time>
      </trkpt>
      <trkpt lat="42.118853" lon="-0.331579">
        <ele>574.608</ele>
        <time>2020-08-23T16:48:48Z</time>
      </trkpt>
      <trkpt lat="42.118863" lon="-0.331650">
        <ele>574.784</ele>
        <time>2020-08-23T16:48:50Z</time>
      </trkpt>
      <trkpt lat="42.118868" lon="-0.331720">
        <ele>574.894</ele>
        <time>2020-08-23T16:48:52Z</time>
      </trkpt>
      <trkpt lat="42.118882" lon="-0.331809">
        <ele>575.462</ele>
        <time>2020-08-23T16:48:55Z</time>
      </trkpt>
      <trkpt lat="42.118897" lon="-0.331869">
        <ele>575.794</ele>
        <time>2020-08-23T16:48:57Z</time>
      </trkpt>
      <trkpt lat="42.118905" lon="-0.331930">
        <ele>576.075</ele>
        <time>2020-08-23T16:48:59Z</time>
      </trkpt>
      <trkpt lat="42.118917" lon="-0.332004">
        <ele>576.526</ele>
        <time>2020-08-23T16:49:02Z</time>
      </trkpt>
      <trkpt lat="42.118926" lon="-0.332089">
        <ele>576.942</ele>
        <time>2020-08-23T16:49:05Z</time>
      </trkpt>
      <trkpt lat="42.118933" lon="-0.332160">
        <ele>577.391</ele>
        <time>2020-08-23T16:49:08Z</time>
      </trkpt>
      <trkpt lat="42.118928" lon="-0.332223">
        <ele>577.843</ele>
        <time>2020-08-23T16:49:11Z</time>
      </trkpt>
      <trkpt lat="42.118946" lon="-0.332303">
        <ele>578.364</ele>
        <time>2020-08-23T16:49:14Z</time>
      </trkpt>
      <trkpt lat="42.118956" lon="-0.332365">
        <ele>578.610</ele>
        <time>2020-08-23T16:49:17Z</time>
      </trkpt>
      <trkpt lat="42.118981" lon="-0.332450">
        <ele>578.908</ele>
        <time>2020-08-23T16:49:20Z</time>
      </trkpt>
      <trkpt lat="42.118995" lon="-0.332529">
        <ele>579.349</ele>
        <time>2020-08-23T16:49:23Z</time>
      </trkpt>
      <trkpt lat="42.119005" lon="-0.332605">
        <ele>579.879</ele>
        <time>2020-08-23T16:49:26Z</time>
      </trkpt>
      <trkpt lat="42.119020" lon="-0.332674">
        <ele>580.437</ele>
        <time>2020-08-23T16:49:29Z</time>
      </trkpt>
      <trkpt lat="42.119041" lon="-0.332740">
        <ele>580.829</ele>
        <time>2020-08-23T16:49:32Z</time>
      </trkpt>
      <trkpt lat="42.119058" lon="-0.332818">
        <ele>581.180</ele>
        <time>2020-08-23T16:49:35Z</time>
      </trkpt>
      <trkpt lat="42.119058" lon="-0.332905">
        <ele>581.611</ele>
        <time>2020-08-23T16:49:38Z</time>
      </trkpt>
      <trkpt lat="42.119056" lon="-0.332973">
        <ele>582.067</ele>
        <time>2020-08-23T16:49:40Z</time>
      </trkpt>
      <trkpt lat="42.119058" lon="-0.333046">
        <ele>582.476</ele>
        <time>2020-08-23T16:49:43Z</time>
      </trkpt>
      <trkpt lat="42.119052" lon="-0.333116">
        <ele>582.893</ele>
        <time>2020-08-23T16:49:46Z</time>
      </trkpt>
      <trkpt lat="42.119054" lon="-0.333207">
        <ele>583.365</ele>
        <time>2020-08-23T16:49:49Z</time>
      </trkpt>
      <trkpt lat="42.119062" lon="-0.333285">
        <ele>583.921</ele>
        <time>2020-08-23T16:49:52Z</time>
      </trkpt>
      <trkpt lat="42.119073" lon="-0.333361">
        <ele>584.408</ele>
        <time>2020-08-23T16:49:55Z</time>
      </trkpt>
      <trkpt lat="42.119095" lon="-0.333422">
        <ele>584.944</ele>
        <time>2020-08-23T16:49:58Z</time>
      </trkpt>
      <trkpt lat="42.119119" lon="-0.333480">
        <ele>585.564</ele>
        <time>2020-08-23T16:50:01Z</time>
      </trkpt>
      <trkpt lat="42.119142" lon="-0.333542">
        <ele>586.082</ele>
        <time>2020-08-23T16:50:04Z</time>
      </trkpt>
      <trkpt lat="42.119161" lon="-0.333618">
        <ele>586.994</ele>
        <time>2020-08-23T16:50:08Z</time>
      </trkpt>
      <trkpt lat="42.119149" lon="-0.333678">
        <ele>587.595</ele>
        <time>2020-08-23T16:50:11Z</time>
      </trkpt>
      <trkpt lat="42.119115" lon="-0.333744">
        <ele>588.076</ele>
        <time>2020-08-23T16:50:14Z</time>
      </trkpt>
      <trkpt lat="42.119095" lon="-0.333801">
        <ele>588.622</ele>
        <time>2020-08-23T16:50:17Z</time>
      </trkpt>
      <trkpt lat="42.119084" lon="-0.333876">
        <ele>589.121</ele>
        <time>2020-08-23T16:50:21Z</time>
      </trkpt>
      <trkpt lat="42.119080" lon="-0.333948">
        <ele>589.465</ele>
        <time>2020-08-23T16:50:25Z</time>
      </trkpt>
      <trkpt lat="42.119056" lon="-0.334015">
        <ele>589.768</ele>
        <time>2020-08-23T16:50:28Z</time>
      </trkpt>
      <trkpt lat="42.119047" lon="-0.334096">
        <ele>589.914</ele>
        <time>2020-08-23T16:50:31Z</time>
      </trkpt>
      <trkpt lat="42.119067" lon="-0.334158">
        <ele>590.108</ele>
        <time>2020-08-23T16:50:34Z</time>
      </trkpt>
      <trkpt lat="42.119107" lon="-0.334196">
        <ele>590.261</ele>
        <time>2020-08-23T16:50:37Z</time>
      </trkpt>
      <trkpt lat="42.119128" lon="-0.334259">
        <ele>590.231</ele>
        <time>2020-08-23T16:51:14Z</time>
      </trkpt>
      <trkpt lat="42.119182" lon="-0.334276">
        <ele>590.749</ele>
        <time>2020-08-23T16:51:17Z</time>
      </trkpt>
      <trkpt lat="42.119230" lon="-0.334330">
        <ele>590.881</ele>
        <time>2020-08-23T16:51:20Z</time>
      </trkpt>
      <trkpt lat="42.119263" lon="-0.334379">
        <ele>591.072</ele>
        <time>2020-08-23T16:51:22Z</time>
      </trkpt>
      <trkpt lat="42.119294" lon="-0.334423">
        <ele>591.383</ele>
        <time>2020-08-23T16:51:24Z</time>
      </trkpt>
      <trkpt lat="42.119321" lon="-0.334474">
        <ele>591.649</ele>
        <time>2020-08-23T16:51:26Z</time>
      </trkpt>
      <trkpt lat="42.119346" lon="-0.334529">
        <ele>591.748</ele>
        <time>2020-08-23T16:51:28Z</time>
      </trkpt>
      <trkpt lat="42.119375" lon="-0.334579">
        <ele>591.892</ele>
        <time>2020-08-23T16:51:30Z</time>
      </trkpt>
      <trkpt lat="42.119409" lon="-0.334642">
        <ele>591.973</ele>
        <time>2020-08-23T16:51:32Z</time>
      </trkpt>
      <trkpt lat="42.119444" lon="-0.334700">
        <ele>592.020</ele>
        <time>2020-08-23T16:51:34Z</time>
      </trkpt>
      <trkpt lat="42.119472" lon="-0.334758">
        <ele>592.108</ele>
        <time>2020-08-23T16:51:36Z</time>
      </trkpt>
      <trkpt lat="42.119502" lon="-0.334817">
        <ele>592.284</ele>
        <time>2020-08-23T16:51:38Z</time>
      </trkpt>
      <trkpt lat="42.119543" lon="-0.334885">
        <ele>592.364</ele>
        <time>2020-08-23T16:51:40Z</time>
      </trkpt>
      <trkpt lat="42.119582" lon="-0.334951">
        <ele>592.452</ele>
        <time>2020-08-23T16:51:42Z</time>
      </trkpt>
      <trkpt lat="42.119602" lon="-0.335036">
        <ele>592.464</ele>
        <time>2020-08-23T16:51:44Z</time>
      </trkpt>
      <trkpt lat="42.119620" lon="-0.335121">
        <ele>592.345</ele>
        <time>2020-08-23T16:51:46Z</time>
      </trkpt>
      <trkpt lat="42.119629" lon="-0.335206">
        <ele>592.276</ele>
        <time>2020-08-23T16:51:48Z</time>
      </trkpt>
      <trkpt lat="42.119644" lon="-0.335295">
        <ele>592.152</ele>
        <time>2020-08-23T16:51:50Z</time>
      </trkpt>
      <trkpt lat="42.119673" lon="-0.335395">
        <ele>591.971</ele>
        <time>2020-08-23T16:51:52Z</time>
      </trkpt>
      <trkpt lat="42.119695" lon="-0.335479">
        <ele>591.991</ele>
        <time>2020-08-23T16:51:54Z</time>
      </trkpt>
      <trkpt lat="42.119721" lon="-0.335543">
        <ele>592.081</ele>
        <time>2020-08-23T16:51:56Z</time>
      </trkpt>
      <trkpt lat="42.119743" lon="-0.335619">
        <ele>592.019</ele>
        <time>2020-08-23T16:51:58Z</time>
      </trkpt>
      <trkpt lat="42.119774" lon="-0.335706">
        <ele>591.908</ele>
        <time>2020-08-23T16:52:00Z</time>
      </trkpt>
      <trkpt lat="42.119800" lon="-0.335800">
        <ele>591.834</ele>
        <time>2020-08-23T16:52:02Z</time>
      </trkpt>
      <trkpt lat="42.119823" lon="-0.335884">
        <ele>591.944</ele>
        <time>2020-08-23T16:52:04Z</time>
      </trkpt>
      <trkpt lat="42.119852" lon="-0.335968">
        <ele>592.232</ele>
        <time>2020-08-23T16:52:06Z</time>
      </trkpt>
      <trkpt lat="42.119884" lon="-0.336042">
        <ele>592.584</ele>
        <time>2020-08-23T16:52:08Z</time>
      </trkpt>
      <trkpt lat="42.119918" lon="-0.336117">
        <ele>592.535</ele>
        <time>2020-08-23T16:52:10Z</time>
      </trkpt>
      <trkpt lat="42.119947" lon="-0.336193">
        <ele>592.446</ele>
        <time>2020-08-23T16:52:12Z</time>
      </trkpt>
      <trkpt lat="42.119975" lon="-0.336277">
        <ele>592.392</ele>
        <time>2020-08-23T16:52:14Z</time>
      </trkpt>
      <trkpt lat="42.119991" lon="-0.336357">
        <ele>592.411</ele>
        <time>2020-08-23T16:52:16Z</time>
      </trkpt>
      <trkpt lat="42.120012" lon="-0.336446">
        <ele>592.628</ele>
        <time>2020-08-23T16:52:18Z</time>
      </trkpt>
      <trkpt lat="42.120039" lon="-0.336541">
        <ele>592.989</ele>
        <time>2020-08-23T16:52:20Z</time>
      </trkpt>
      <trkpt lat="42.120052" lon="-0.336630">
        <ele>592.917</ele>
        <time>2020-08-23T16:52:22Z</time>
      </trkpt>
      <trkpt lat="42.120074" lon="-0.336719">
        <ele>592.908</ele>
        <time>2020-08-23T16:52:24Z</time>
      </trkpt>
      <trkpt lat="42.120086" lon="-0.336808">
        <ele>593.237</ele>
        <time>2020-08-23T16:52:26Z</time>
      </trkpt>
      <trkpt lat="42.120105" lon="-0.336886">
        <ele>593.437</ele>
        <time>2020-08-23T16:52:28Z</time>
      </trkpt>
      <trkpt lat="42.120126" lon="-0.336960">
        <ele>593.225</ele>
        <time>2020-08-23T16:52:30Z</time>
      </trkpt>
      <trkpt lat="42.120146" lon="-0.337045">
        <ele>593.187</ele>
        <time>2020-08-23T16:52:32Z</time>
      </trkpt>
      <trkpt lat="42.120154" lon="-0.337116">
        <ele>593.268</ele>
        <time>2020-08-23T16:52:34Z</time>
      </trkpt>
      <trkpt lat="42.120159" lon="-0.337191">
        <ele>593.529</ele>
        <time>2020-08-23T16:52:36Z</time>
      </trkpt>
      <trkpt lat="42.120168" lon="-0.337272">
        <ele>593.515</ele>
        <time>2020-08-23T16:52:38Z</time>
      </trkpt>
      <trkpt lat="42.120188" lon="-0.337347">
        <ele>593.594</ele>
        <time>2020-08-23T16:52:40Z</time>
      </trkpt>
      <trkpt lat="42.120198" lon="-0.337421">
        <ele>593.628</ele>
        <time>2020-08-23T16:52:42Z</time>
      </trkpt>
      <trkpt lat="42.120214" lon="-0.337505">
        <ele>593.789</ele>
        <time>2020-08-23T16:52:44Z</time>
      </trkpt>
      <trkpt lat="42.120227" lon="-0.337578">
        <ele>593.617</ele>
        <time>2020-08-23T16:52:46Z</time>
      </trkpt>
      <trkpt lat="42.120247" lon="-0.337646">
        <ele>593.508</ele>
        <time>2020-08-23T16:52:48Z</time>
      </trkpt>
      <trkpt lat="42.120269" lon="-0.337722">
        <ele>593.527</ele>
        <time>2020-08-23T16:52:50Z</time>
      </trkpt>
      <trkpt lat="42.120283" lon="-0.337798">
        <ele>593.587</ele>
        <time>2020-08-23T16:52:52Z</time>
      </trkpt>
      <trkpt lat="42.120306" lon="-0.337868">
        <ele>593.575</ele>
        <time>2020-08-23T16:52:54Z</time>
      </trkpt>
      <trkpt lat="42.120326" lon="-0.337938">
        <ele>593.857</ele>
        <time>2020-08-23T16:52:56Z</time>
      </trkpt>
      <trkpt lat="42.120352" lon="-0.338008">
        <ele>594.228</ele>
        <time>2020-08-23T16:52:58Z</time>
      </trkpt>
      <trkpt lat="42.120378" lon="-0.338079">
        <ele>594.519</ele>
        <time>2020-08-23T16:53:00Z</time>
      </trkpt>
      <trkpt lat="42.120396" lon="-0.338157">
        <ele>594.525</ele>
        <time>2020-08-23T16:53:02Z</time>
      </trkpt>
      <trkpt lat="42.120421" lon="-0.338242">
        <ele>594.384</ele>
        <time>2020-08-23T16:53:04Z</time>
      </trkpt>
      <trkpt lat="42.120441" lon="-0.338324">
        <ele>594.361</ele>
        <time>2020-08-23T16:53:06Z</time>
      </trkpt>
      <trkpt lat="42.120465" lon="-0.338397">
        <ele>594.421</ele>
        <time>2020-08-23T16:53:08Z</time>
      </trkpt>
      <trkpt lat="42.120496" lon="-0.338477">
        <ele>594.613</ele>
        <time>2020-08-23T16:53:10Z</time>
      </trkpt>
      <trkpt lat="42.120519" lon="-0.338548">
        <ele>594.708</ele>
        <time>2020-08-23T16:53:12Z</time>
      </trkpt>
      <trkpt lat="42.120543" lon="-0.338622">
        <ele>594.831</ele>
        <time>2020-08-23T16:53:14Z</time>
      </trkpt>
      <trkpt lat="42.120559" lon="-0.338710">
        <ele>595.071</ele>
        <time>2020-08-23T16:53:16Z</time>
      </trkpt>
      <trkpt lat="42.120585" lon="-0.338793">
        <ele>595.059</ele>
        <time>2020-08-23T16:53:18Z</time>
      </trkpt>
      <trkpt lat="42.120600" lon="-0.338881">
        <ele>594.981</ele>
        <time>2020-08-23T16:53:20Z</time>
      </trkpt>
      <trkpt lat="42.120632" lon="-0.338966">
        <ele>594.842</ele>
        <time>2020-08-23T16:53:22Z</time>
      </trkpt>
      <trkpt lat="42.120668" lon="-0.339054">
        <ele>595.043</ele>
        <time>2020-08-23T16:53:24Z</time>
      </trkpt>
      <trkpt lat="42.120709" lon="-0.339137">
        <ele>595.169</ele>
        <time>2020-08-23T16:53:26Z</time>
      </trkpt>
      <trkpt lat="42.120756" lon="-0.339207">
        <ele>595.248</ele>
        <time>2020-08-23T16:53:28Z</time>
      </trkpt>
      <trkpt lat="42.120806" lon="-0.339255">
        <ele>595.032</ele>
        <time>2020-08-23T16:53:30Z</time>
      </trkpt>
      <trkpt lat="42.120865" lon="-0.339310">
        <ele>594.792</ele>
        <time>2020-08-23T16:53:32Z</time>
      </trkpt>
      <trkpt lat="42.120926" lon="-0.339334">
        <ele>594.711</ele>
        <time>2020-08-23T16:53:34Z</time>
      </trkpt>
      <trkpt lat="42.120974" lon="-0.339357">
        <ele>594.808</ele>
        <time>2020-08-23T16:53:36Z</time>
      </trkpt>
      <trkpt lat="42.121020" lon="-0.339385">
        <ele>594.828</ele>
        <time>2020-08-23T16:53:38Z</time>
      </trkpt>
      <trkpt lat="42.121060" lon="-0.339416">
        <ele>594.818</ele>
        <time>2020-08-23T16:53:40Z</time>
      </trkpt>
      <trkpt lat="42.121109" lon="-0.339442">
        <ele>594.776</ele>
        <time>2020-08-23T16:53:42Z</time>
      </trkpt>
      <trkpt lat="42.121156" lon="-0.339500">
        <ele>594.628</ele>
        <time>2020-08-23T16:53:45Z</time>
      </trkpt>
      <trkpt lat="42.121136" lon="-0.339584">
        <ele>594.559</ele>
        <time>2020-08-23T16:53:48Z</time>
      </trkpt>
      <trkpt lat="42.121106" lon="-0.339648">
        <ele>594.440</ele>
        <time>2020-08-23T16:53:50Z</time>
      </trkpt>
      <trkpt lat="42.121084" lon="-0.339737">
        <ele>594.376</ele>
        <time>2020-08-23T16:53:52Z</time>
      </trkpt>
      <trkpt lat="42.121086" lon="-0.339799">
        <ele>594.365</ele>
        <time>2020-08-23T16:53:54Z</time>
      </trkpt>
      <trkpt lat="42.121111" lon="-0.339861">
        <ele>594.129</ele>
        <time>2020-08-23T16:53:57Z</time>
      </trkpt>
      <trkpt lat="42.121146" lon="-0.339904">
        <ele>593.800</ele>
        <time>2020-08-23T16:54:00Z</time>
      </trkpt>
      <trkpt lat="42.121144" lon="-0.339973">
        <ele>593.520</ele>
        <time>2020-08-23T16:54:33Z</time>
      </trkpt>
      <trkpt lat="42.121171" lon="-0.340022">
        <ele>593.608</ele>
        <time>2020-08-23T16:54:38Z</time>
      </trkpt>
      <trkpt lat="42.121199" lon="-0.340077">
        <ele>592.747</ele>
        <time>2020-08-23T16:54:50Z</time>
      </trkpt>
      <trkpt lat="42.121239" lon="-0.340111">
        <ele>591.377</ele>
        <time>2020-08-23T16:54:59Z</time>
      </trkpt>
      <trkpt lat="42.121270" lon="-0.340159">
        <ele>590.265</ele>
        <time>2020-08-23T16:55:13Z</time>
      </trkpt>
      <trkpt lat="42.121312" lon="-0.340199">
        <ele>589.097</ele>
        <time>2020-08-23T16:55:23Z</time>
      </trkpt>
      <trkpt lat="42.121350" lon="-0.340248">
        <ele>587.258</ele>
        <time>2020-08-23T16:55:40Z</time>
      </trkpt>
      <trkpt lat="42.121395" lon="-0.340258">
        <ele>586.349</ele>
        <time>2020-08-23T16:55:47Z</time>
      </trkpt>
      <trkpt lat="42.121441" lon="-0.340236">
        <ele>585.045</ele>
        <time>2020-08-23T16:55:54Z</time>
      </trkpt>
      <trkpt lat="42.121489" lon="-0.340223">
        <ele>582.654</ele>
        <time>2020-08-23T16:56:08Z</time>
      </trkpt>
      <trkpt lat="42.121530" lon="-0.340193">
        <ele>581.485</ele>
        <time>2020-08-23T16:56:14Z</time>
      </trkpt>
      <trkpt lat="42.121575" lon="-0.340173">
        <ele>580.789</ele>
        <time>2020-08-23T16:56:22Z</time>
      </trkpt>
      <trkpt lat="42.121631" lon="-0.340187">
        <ele>580.517</ele>
        <time>2020-08-23T16:56:29Z</time>
      </trkpt>
      <trkpt lat="42.121689" lon="-0.340198">
        <ele>580.208</ele>
        <time>2020-08-23T16:56:31Z</time>
      </trkpt>
      <trkpt lat="42.121752" lon="-0.340199">
        <ele>579.953</ele>
        <time>2020-08-23T16:56:33Z</time>
      </trkpt>
      <trkpt lat="42.121806" lon="-0.340173">
        <ele>579.523</ele>
        <time>2020-08-23T16:56:35Z</time>
      </trkpt>
      <trkpt lat="42.121860" lon="-0.340140">
        <ele>578.941</ele>
        <time>2020-08-23T16:56:38Z</time>
      </trkpt>
      <trkpt lat="42.121912" lon="-0.340138">
        <ele>578.473</ele>
        <time>2020-08-23T16:56:44Z</time>
      </trkpt>
      <trkpt lat="42.121959" lon="-0.340147">
        <ele>578.234</ele>
        <time>2020-08-23T16:56:48Z</time>
      </trkpt>
      <trkpt lat="42.122003" lon="-0.340130">
        <ele>577.915</ele>
        <time>2020-08-23T16:57:10Z</time>
      </trkpt>
      <trkpt lat="42.122048" lon="-0.340152">
        <ele>577.631</ele>
        <time>2020-08-23T16:57:39Z</time>
      </trkpt>
      <trkpt lat="42.122097" lon="-0.340150">
        <ele>577.420</ele>
        <time>2020-08-23T16:58:11Z</time>
      </trkpt>
      <trkpt lat="42.122049" lon="-0.340143">
        <ele>577.473</ele>
        <time>2020-08-23T16:58:55Z</time>
      </trkpt>
      <trkpt lat="42.122052" lon="-0.340077">
        <ele>576.085</ele>
        <time>2020-08-23T16:59:07Z</time>
      </trkpt>
      <trkpt lat="42.122070" lon="-0.340021">
        <ele>574.413</ele>
        <time>2020-08-23T16:59:19Z</time>
      </trkpt>
      <trkpt lat="42.122122" lon="-0.340053">
        <ele>573.508</ele>
        <time>2020-08-23T16:59:27Z</time>
      </trkpt>
      <trkpt lat="42.122154" lon="-0.340098">
        <ele>572.112</ele>
        <time>2020-08-23T16:59:53Z</time>
      </trkpt>
      <trkpt lat="42.122184" lon="-0.340149">
        <ele>571.472</ele>
        <time>2020-08-23T16:59:59Z</time>
      </trkpt>
      <trkpt lat="42.122229" lon="-0.340181">
        <ele>570.160</ele>
        <time>2020-08-23T17:00:11Z</time>
      </trkpt>
      <trkpt lat="42.122272" lon="-0.340216">
        <ele>568.592</ele>
        <time>2020-08-23T17:00:25Z</time>
      </trkpt>
      <trkpt lat="42.122315" lon="-0.340248">
        <ele>567.653</ele>
        <time>2020-08-23T17:00:31Z</time>
      </trkpt>
      <trkpt lat="42.122366" lon="-0.340264">
        <ele>566.994</ele>
        <time>2020-08-23T17:00:40Z</time>
      </trkpt>
      <trkpt lat="42.122409" lon="-0.340290">
        <ele>566.080</ele>
        <time>2020-08-23T17:00:45Z</time>
      </trkpt>
      <trkpt lat="42.122459" lon="-0.340297">
        <ele>565.279</ele>
        <time>2020-08-23T17:00:50Z</time>
      </trkpt>
      <trkpt lat="42.122505" lon="-0.340323">
        <ele>564.685</ele>
        <time>2020-08-23T17:00:56Z</time>
      </trkpt>
      <trkpt lat="42.122541" lon="-0.340360">
        <ele>563.589</ele>
        <time>2020-08-23T17:01:13Z</time>
      </trkpt>
      <trkpt lat="42.122585" lon="-0.340375">
        <ele>562.217</ele>
        <time>2020-08-23T17:01:30Z</time>
      </trkpt>
      <trkpt lat="42.122626" lon="-0.340410">
        <ele>561.808</ele>
        <time>2020-08-23T17:01:41Z</time>
      </trkpt>
      <trkpt lat="42.122669" lon="-0.340454">
        <ele>561.833</ele>
        <time>2020-08-23T17:01:52Z</time>
      </trkpt>
      <trkpt lat="42.122636" lon="-0.340500">
        <ele>560.983</ele>
        <time>2020-08-23T17:02:01Z</time>
      </trkpt>
      <trkpt lat="42.122604" lon="-0.340545">
        <ele>559.731</ele>
        <time>2020-08-23T17:02:13Z</time>
      </trkpt>
      <trkpt lat="42.122566" lon="-0.340584">
        <ele>559.683</ele>
        <time>2020-08-23T17:02:20Z</time>
      </trkpt>
      <trkpt lat="42.122530" lon="-0.340639">
        <ele>558.764</ele>
        <time>2020-08-23T17:02:27Z</time>
      </trkpt>
      <trkpt lat="42.122510" lon="-0.340702">
        <ele>558.155</ele>
        <time>2020-08-23T17:02:35Z</time>
      </trkpt>
      <trkpt lat="42.122496" lon="-0.340775">
        <ele>557.591</ele>
        <time>2020-08-23T17:02:42Z</time>
      </trkpt>
      <trkpt lat="42.122467" lon="-0.340825">
        <ele>555.760</ele>
        <time>2020-08-23T17:03:07Z</time>
      </trkpt>
      <trkpt lat="42.122426" lon="-0.340793">
        <ele>555.039</ele>
        <time>2020-08-23T17:03:13Z</time>
      </trkpt>
      <trkpt lat="42.122379" lon="-0.340803">
        <ele>554.601</ele>
        <time>2020-08-23T17:03:20Z</time>
      </trkpt>
      <trkpt lat="42.122334" lon="-0.340826">
        <ele>554.321</ele>
        <time>2020-08-23T17:03:26Z</time>
      </trkpt>
      <trkpt lat="42.122282" lon="-0.340815">
        <ele>554.008</ele>
        <time>2020-08-23T17:03:31Z</time>
      </trkpt>
      <trkpt lat="42.122242" lon="-0.340859">
        <ele>553.668</ele>
        <time>2020-08-23T17:03:47Z</time>
      </trkpt>
      <trkpt lat="42.122265" lon="-0.340917">
        <ele>553.348</ele>
        <time>2020-08-23T17:03:52Z</time>
      </trkpt>
      <trkpt lat="42.122232" lon="-0.340959">
        <ele>552.826</ele>
        <time>2020-08-23T17:04:02Z</time>
      </trkpt>
      <trkpt lat="42.122189" lon="-0.340984">
        <ele>551.328</ele>
        <time>2020-08-23T17:04:28Z</time>
      </trkpt>
      <trkpt lat="42.122205" lon="-0.341041">
        <ele>549.789</ele>
        <time>2020-08-23T17:04:57Z</time>
      </trkpt>
      <trkpt lat="42.122224" lon="-0.341098">
        <ele>548.550</ele>
        <time>2020-08-23T17:05:10Z</time>
      </trkpt>
      <trkpt lat="42.122252" lon="-0.341147">
        <ele>548.476</ele>
        <time>2020-08-23T17:05:15Z</time>
      </trkpt>
      <trkpt lat="42.122274" lon="-0.341200">
        <ele>546.745</ele>
        <time>2020-08-23T17:05:25Z</time>
      </trkpt>
      <trkpt lat="42.122324" lon="-0.341218">
        <ele>545.869</ele>
        <time>2020-08-23T17:05:35Z</time>
      </trkpt>
      <trkpt lat="42.122373" lon="-0.341223">
        <ele>545.104</ele>
        <time>2020-08-23T17:05:40Z</time>
      </trkpt>
      <trkpt lat="42.122419" lon="-0.341218">
        <ele>544.824</ele>
        <time>2020-08-23T17:05:43Z</time>
      </trkpt>
      <trkpt lat="42.122468" lon="-0.341223">
        <ele>544.508</ele>
        <time>2020-08-23T17:05:48Z</time>
      </trkpt>
      <trkpt lat="42.122521" lon="-0.341228">
        <ele>543.871</ele>
        <time>2020-08-23T17:05:56Z</time>
      </trkpt>
      <trkpt lat="42.122561" lon="-0.341271">
        <ele>543.531</ele>
        <time>2020-08-23T17:06:01Z</time>
      </trkpt>
      <trkpt lat="42.122587" lon="-0.341321">
        <ele>543.229</ele>
        <time>2020-08-23T17:06:08Z</time>
      </trkpt>
      <trkpt lat="42.122621" lon="-0.341369">
        <ele>542.661</ele>
        <time>2020-08-23T17:06:13Z</time>
      </trkpt>
      <trkpt lat="42.122669" lon="-0.341395">
        <ele>541.832</ele>
        <time>2020-08-23T17:06:20Z</time>
      </trkpt>
      <trkpt lat="42.122703" lon="-0.341437">
        <ele>541.043</ele>
        <time>2020-08-23T17:06:28Z</time>
      </trkpt>
      <trkpt lat="42.122676" lon="-0.341488">
        <ele>540.099</ele>
        <time>2020-08-23T17:06:37Z</time>
      </trkpt>
      <trkpt lat="42.122705" lon="-0.341535">
        <ele>538.598</ele>
        <time>2020-08-23T17:06:54Z</time>
      </trkpt>
      <trkpt lat="42.122743" lon="-0.341574">
        <ele>537.164</ele>
        <time>2020-08-23T17:07:05Z</time>
      </trkpt>
      <trkpt lat="42.122786" lon="-0.341603">
        <ele>536.506</ele>
        <time>2020-08-23T17:07:10Z</time>
      </trkpt>
      <trkpt lat="42.122841" lon="-0.341614">
        <ele>536.316</ele>
        <time>2020-08-23T17:07:17Z</time>
      </trkpt>
      <trkpt lat="42.122882" lon="-0.341640">
        <ele>536.108</ele>
        <time>2020-08-23T17:07:24Z</time>
      </trkpt>
      <trkpt lat="42.122926" lon="-0.341655">
        <ele>533.111</ele>
        <time>2020-08-23T17:07:50Z</time>
      </trkpt>
      <trkpt lat="42.122976" lon="-0.341643">
        <ele>531.911</ele>
        <time>2020-08-23T17:08:09Z</time>
      </trkpt>
      <trkpt lat="42.123022" lon="-0.341658">
        <ele>531.439</ele>
        <time>2020-08-23T17:08:16Z</time>
      </trkpt>
      <trkpt lat="42.123069" lon="-0.341664">
        <ele>531.351</ele>
        <time>2020-08-23T17:08:21Z</time>
      </trkpt>
      <trkpt lat="42.123116" lon="-0.341684">
        <ele>531.032</ele>
        <time>2020-08-23T17:08:29Z</time>
      </trkpt>
      <trkpt lat="42.123161" lon="-0.341705">
        <ele>530.783</ele>
        <time>2020-08-23T17:08:33Z</time>
      </trkpt>
      <trkpt lat="42.123205" lon="-0.341731">
        <ele>530.439</ele>
        <time>2020-08-23T17:08:37Z</time>
      </trkpt>
      <trkpt lat="42.123249" lon="-0.341750">
        <ele>529.958</ele>
        <time>2020-08-23T17:08:42Z</time>
      </trkpt>
      <trkpt lat="42.123288" lon="-0.341803">
        <ele>529.224</ele>
        <time>2020-08-23T17:08:50Z</time>
      </trkpt>
      <trkpt lat="42.123320" lon="-0.341863">
        <ele>528.404</ele>
        <time>2020-08-23T17:08:55Z</time>
      </trkpt>
      <trkpt lat="42.123333" lon="-0.341925">
        <ele>528.214</ele>
        <time>2020-08-23T17:08:59Z</time>
      </trkpt>
      <trkpt lat="42.123352" lon="-0.341993">
        <ele>528.208</ele>
        <time>2020-08-23T17:09:04Z</time>
      </trkpt>
      <trkpt lat="42.123344" lon="-0.342052">
        <ele>527.957</ele>
        <time>2020-08-23T17:10:06Z</time>
      </trkpt>
      <trkpt lat="42.123358" lon="-0.342135">
        <ele>527.897</ele>
        <time>2020-08-23T17:10:09Z</time>
      </trkpt>
      <trkpt lat="42.123371" lon="-0.342204">
        <ele>527.685</ele>
        <time>2020-08-23T17:10:12Z</time>
      </trkpt>
      <trkpt lat="42.123402" lon="-0.342269">
        <ele>527.287</ele>
        <time>2020-08-23T17:10:15Z</time>
      </trkpt>
      <trkpt lat="42.123440" lon="-0.342328">
        <ele>526.788</ele>
        <time>2020-08-23T17:10:18Z</time>
      </trkpt>
      <trkpt lat="42.123449" lon="-0.342406">
        <ele>526.469</ele>
        <time>2020-08-23T17:10:21Z</time>
      </trkpt>
      <trkpt lat="42.123476" lon="-0.342472">
        <ele>526.255</ele>
        <time>2020-08-23T17:10:24Z</time>
      </trkpt>
      <trkpt lat="42.123495" lon="-0.342547">
        <ele>526.154</ele>
        <time>2020-08-23T17:10:27Z</time>
      </trkpt>
      <trkpt lat="42.123535" lon="-0.342594">
        <ele>525.743</ele>
        <time>2020-08-23T17:10:30Z</time>
      </trkpt>
      <trkpt lat="42.123578" lon="-0.342616">
        <ele>525.364</ele>
        <time>2020-08-23T17:10:33Z</time>
      </trkpt>
      <trkpt lat="42.123628" lon="-0.342628">
        <ele>525.310</ele>
        <time>2020-08-23T17:10:36Z</time>
      </trkpt>
      <trkpt lat="42.123674" lon="-0.342666">
        <ele>525.308</ele>
        <time>2020-08-23T17:10:40Z</time>
      </trkpt>
      <trkpt lat="42.123721" lon="-0.342710">
        <ele>525.269</ele>
        <time>2020-08-23T17:10:43Z</time>
      </trkpt>
      <trkpt lat="42.123763" lon="-0.342763">
        <ele>524.849</ele>
        <time>2020-08-23T17:10:46Z</time>
      </trkpt>
      <trkpt lat="42.123787" lon="-0.342825">
        <ele>524.417</ele>
        <time>2020-08-23T17:10:49Z</time>
      </trkpt>
      <trkpt lat="42.123845" lon="-0.342860">
        <ele>524.129</ele>
        <time>2020-08-23T17:10:52Z</time>
      </trkpt>
      <trkpt lat="42.123887" lon="-0.342909">
        <ele>523.390</ele>
        <time>2020-08-23T17:10:56Z</time>
      </trkpt>
      <trkpt lat="42.123906" lon="-0.342966">
        <ele>521.441</ele>
        <time>2020-08-23T17:11:43Z</time>
      </trkpt>
      <trkpt lat="42.123916" lon="-0.343050">
        <ele>521.267</ele>
        <time>2020-08-23T17:11:45Z</time>
      </trkpt>
      <trkpt lat="42.123921" lon="-0.343125">
        <ele>520.926</ele>
        <time>2020-08-23T17:11:47Z</time>
      </trkpt>
      <trkpt lat="42.123922" lon="-0.343191">
        <ele>520.735</ele>
        <time>2020-08-23T17:11:49Z</time>
      </trkpt>
      <trkpt lat="42.123923" lon="-0.343261">
        <ele>520.786</ele>
        <time>2020-08-23T17:11:51Z</time>
      </trkpt>
      <trkpt lat="42.123943" lon="-0.343330">
        <ele>520.614</ele>
        <time>2020-08-23T17:11:53Z</time>
      </trkpt>
      <trkpt lat="42.123958" lon="-0.343414">
        <ele>520.308</ele>
        <time>2020-08-23T17:11:55Z</time>
      </trkpt>
      <trkpt lat="42.123974" lon="-0.343485">
        <ele>520.028</ele>
        <time>2020-08-23T17:11:57Z</time>
      </trkpt>
      <trkpt lat="42.123979" lon="-0.343568">
        <ele>519.718</ele>
        <time>2020-08-23T17:11:59Z</time>
      </trkpt>
      <trkpt lat="42.123986" lon="-0.343663">
        <ele>519.496</ele>
        <time>2020-08-23T17:12:01Z</time>
      </trkpt>
      <trkpt lat="42.123992" lon="-0.343753">
        <ele>519.098</ele>
        <time>2020-08-23T17:12:03Z</time>
      </trkpt>
      <trkpt lat="42.124002" lon="-0.343846">
        <ele>518.539</ele>
        <time>2020-08-23T17:12:05Z</time>
      </trkpt>
      <trkpt lat="42.124020" lon="-0.343939">
        <ele>518.010</ele>
        <time>2020-08-23T17:12:07Z</time>
      </trkpt>
      <trkpt lat="42.124035" lon="-0.344033">
        <ele>517.546</ele>
        <time>2020-08-23T17:12:09Z</time>
      </trkpt>
      <trkpt lat="42.124064" lon="-0.344115">
        <ele>517.295</ele>
        <time>2020-08-23T17:12:11Z</time>
      </trkpt>
      <trkpt lat="42.124092" lon="-0.344191">
        <ele>516.833</ele>
        <time>2020-08-23T17:12:13Z</time>
      </trkpt>
      <trkpt lat="42.124090" lon="-0.344269">
        <ele>516.423</ele>
        <time>2020-08-23T17:12:15Z</time>
      </trkpt>
      <trkpt lat="42.124092" lon="-0.344343">
        <ele>516.115</ele>
        <time>2020-08-23T17:12:17Z</time>
      </trkpt>
      <trkpt lat="42.124104" lon="-0.344403">
        <ele>515.708</ele>
        <time>2020-08-23T17:12:19Z</time>
      </trkpt>
      <trkpt lat="42.124131" lon="-0.344489">
        <ele>514.918</ele>
        <time>2020-08-23T17:12:22Z</time>
      </trkpt>
      <trkpt lat="42.124142" lon="-0.344562">
        <ele>514.468</ele>
        <time>2020-08-23T17:12:24Z</time>
      </trkpt>
      <trkpt lat="42.124155" lon="-0.344639">
        <ele>513.956</ele>
        <time>2020-08-23T17:12:26Z</time>
      </trkpt>
      <trkpt lat="42.124166" lon="-0.344708">
        <ele>513.588</ele>
        <time>2020-08-23T17:12:28Z</time>
      </trkpt>
      <trkpt lat="42.124178" lon="-0.344778">
        <ele>513.159</ele>
        <time>2020-08-23T17:12:30Z</time>
      </trkpt>
      <trkpt lat="42.124183" lon="-0.344860">
        <ele>512.770</ele>
        <time>2020-08-23T17:12:32Z</time>
      </trkpt>
      <trkpt lat="42.124195" lon="-0.344938">
        <ele>512.246</ele>
        <time>2020-08-23T17:12:34Z</time>
      </trkpt>
      <trkpt lat="42.124199" lon="-0.345005">
        <ele>511.635</ele>
        <time>2020-08-23T17:12:37Z</time>
      </trkpt>
      <trkpt lat="42.124219" lon="-0.345075">
        <ele>511.143</ele>
        <time>2020-08-23T17:12:40Z</time>
      </trkpt>
      <trkpt lat="42.124243" lon="-0.345128">
        <ele>511.064</ele>
        <time>2020-08-23T17:12:42Z</time>
      </trkpt>
      <trkpt lat="42.124273" lon="-0.345184">
        <ele>511.010</ele>
        <time>2020-08-23T17:12:44Z</time>
      </trkpt>
      <trkpt lat="42.124309" lon="-0.345249">
        <ele>511.108</ele>
        <time>2020-08-23T17:12:47Z</time>
      </trkpt>
      <trkpt lat="42.124340" lon="-0.345313">
        <ele>510.999</ele>
        <time>2020-08-23T17:12:49Z</time>
      </trkpt>
      <trkpt lat="42.124363" lon="-0.345395">
        <ele>510.679</ele>
        <time>2020-08-23T17:12:51Z</time>
      </trkpt>
      <trkpt lat="42.124389" lon="-0.345489">
        <ele>510.317</ele>
        <time>2020-08-23T17:12:53Z</time>
      </trkpt>
      <trkpt lat="42.124396" lon="-0.345570">
        <ele>510.199</ele>
        <time>2020-08-23T17:12:55Z</time>
      </trkpt>
      <trkpt lat="42.124412" lon="-0.345645">
        <ele>509.990</ele>
        <time>2020-08-23T17:12:57Z</time>
      </trkpt>
      <trkpt lat="42.124427" lon="-0.345712">
        <ele>509.821</ele>
        <time>2020-08-23T17:12:59Z</time>
      </trkpt>
      <trkpt lat="42.124438" lon="-0.345782">
        <ele>509.817</ele>
        <time>2020-08-23T17:13:01Z</time>
      </trkpt>
      <trkpt lat="42.124436" lon="-0.345853">
        <ele>509.896</ele>
        <time>2020-08-23T17:13:03Z</time>
      </trkpt>
      <trkpt lat="42.124436" lon="-0.345965">
        <ele>509.726</ele>
        <time>2020-08-23T17:13:05Z</time>
      </trkpt>
      <trkpt lat="42.124449" lon="-0.346034">
        <ele>509.647</ele>
        <time>2020-08-23T17:13:06Z</time>
      </trkpt>
      <trkpt lat="42.124461" lon="-0.346098">
        <ele>509.511</ele>
        <time>2020-08-23T17:13:07Z</time>
      </trkpt>
      <trkpt lat="42.124467" lon="-0.346159">
        <ele>509.408</ele>
        <time>2020-08-23T17:13:08Z</time>
      </trkpt>
      <trkpt lat="42.124493" lon="-0.346273">
        <ele>509.367</ele>
        <time>2020-08-23T17:13:10Z</time>
      </trkpt>
      <trkpt lat="42.124520" lon="-0.346377">
        <ele>509.127</ele>
        <time>2020-08-23T17:13:12Z</time>
      </trkpt>
      <trkpt lat="42.124540" lon="-0.346464">
        <ele>509.025</ele>
        <time>2020-08-23T17:13:14Z</time>
      </trkpt>
      <trkpt lat="42.124577" lon="-0.346559">
        <ele>508.817</ele>
        <time>2020-08-23T17:13:16Z</time>
      </trkpt>
      <trkpt lat="42.124609" lon="-0.346645">
        <ele>508.768</ele>
        <time>2020-08-23T17:13:18Z</time>
      </trkpt>
      <trkpt lat="42.124648" lon="-0.346742">
        <ele>508.649</ele>
        <time>2020-08-23T17:13:20Z</time>
      </trkpt>
      <trkpt lat="42.124693" lon="-0.346839">
        <ele>508.555</ele>
        <time>2020-08-23T17:13:22Z</time>
      </trkpt>
      <trkpt lat="42.124723" lon="-0.346887">
        <ele>508.454</ele>
        <time>2020-08-23T17:13:23Z</time>
      </trkpt>
      <trkpt lat="42.124752" lon="-0.346933">
        <ele>508.357</ele>
        <time>2020-08-23T17:13:24Z</time>
      </trkpt>
      <trkpt lat="42.124780" lon="-0.346992">
        <ele>508.200</ele>
        <time>2020-08-23T17:13:25Z</time>
      </trkpt>
      <trkpt lat="42.124801" lon="-0.347056">
        <ele>508.020</ele>
        <time>2020-08-23T17:13:26Z</time>
      </trkpt>
      <trkpt lat="42.124821" lon="-0.347131">
        <ele>507.808</ele>
        <time>2020-08-23T17:13:27Z</time>
      </trkpt>
      <trkpt lat="42.124837" lon="-0.347202">
        <ele>507.680</ele>
        <time>2020-08-23T17:13:28Z</time>
      </trkpt>
      <trkpt lat="42.124852" lon="-0.347273">
        <ele>507.420</ele>
        <time>2020-08-23T17:13:29Z</time>
      </trkpt>
      <trkpt lat="42.124863" lon="-0.347344">
        <ele>507.238</ele>
        <time>2020-08-23T17:13:30Z</time>
      </trkpt>
      <trkpt lat="42.124865" lon="-0.347408">
        <ele>507.020</ele>
        <time>2020-08-23T17:13:31Z</time>
      </trkpt>
      <trkpt lat="42.124868" lon="-0.347471">
        <ele>506.941</ele>
        <time>2020-08-23T17:13:32Z</time>
      </trkpt>
      <trkpt lat="42.124873" lon="-0.347532">
        <ele>506.872</ele>
        <time>2020-08-23T17:13:33Z</time>
      </trkpt>
      <trkpt lat="42.124874" lon="-0.347601">
        <ele>506.778</ele>
        <time>2020-08-23T17:13:34Z</time>
      </trkpt>
      <trkpt lat="42.124874" lon="-0.347668">
        <ele>506.557</ele>
        <time>2020-08-23T17:13:35Z</time>
      </trkpt>
      <trkpt lat="42.124881" lon="-0.347751">
        <ele>506.474</ele>
        <time>2020-08-23T17:13:36Z</time>
      </trkpt>
      <trkpt lat="42.124901" lon="-0.347841">
        <ele>506.256</ele>
        <time>2020-08-23T17:13:37Z</time>
      </trkpt>
      <trkpt lat="42.124911" lon="-0.347929">
        <ele>506.021</ele>
        <time>2020-08-23T17:13:38Z</time>
      </trkpt>
      <trkpt lat="42.124919" lon="-0.348016">
        <ele>505.508</ele>
        <time>2020-08-23T17:13:39Z</time>
      </trkpt>
      <trkpt lat="42.124938" lon="-0.348109">
        <ele>505.522</ele>
        <time>2020-08-23T17:13:40Z</time>
      </trkpt>
      <trkpt lat="42.124956" lon="-0.348190">
        <ele>505.042</ele>
        <time>2020-08-23T17:13:41Z</time>
      </trkpt>
      <trkpt lat="42.124973" lon="-0.348259">
        <ele>505.030</ele>
        <time>2020-08-23T17:13:42Z</time>
      </trkpt>
      <trkpt lat="42.124985" lon="-0.348331">
        <ele>504.732</ele>
        <time>2020-08-23T17:13:43Z</time>
      </trkpt>
      <trkpt lat="42.125004" lon="-0.348405">
        <ele>504.033</ele>
        <time>2020-08-23T17:13:44Z</time>
      </trkpt>
      <trkpt lat="42.125013" lon="-0.348475">
        <ele>503.784</ele>
        <time>2020-08-23T17:13:45Z</time>
      </trkpt>
      <trkpt lat="42.125022" lon="-0.348545">
        <ele>503.410</ele>
        <time>2020-08-23T17:13:46Z</time>
      </trkpt>
      <trkpt lat="42.125023" lon="-0.348606">
        <ele>503.179</ele>
        <time>2020-08-23T17:13:47Z</time>
      </trkpt>
      <trkpt lat="42.125027" lon="-0.348667">
        <ele>502.865</ele>
        <time>2020-08-23T17:13:48Z</time>
      </trkpt>
      <trkpt lat="42.125039" lon="-0.348752">
        <ele>502.468</ele>
        <time>2020-08-23T17:13:50Z</time>
      </trkpt>
      <trkpt lat="42.125067" lon="-0.348876">
        <ele>502.014</ele>
        <time>2020-08-23T17:13:52Z</time>
      </trkpt>
      <trkpt lat="42.125082" lon="-0.348945">
        <ele>501.708</ele>
        <time>2020-08-23T17:13:53Z</time>
      </trkpt>
      <trkpt lat="42.125103" lon="-0.349012">
        <ele>501.321</ele>
        <time>2020-08-23T17:13:54Z</time>
      </trkpt>
      <trkpt lat="42.125127" lon="-0.349077">
        <ele>500.891</ele>
        <time>2020-08-23T17:13:55Z</time>
      </trkpt>
      <trkpt lat="42.125147" lon="-0.349145">
        <ele>500.269</ele>
        <time>2020-08-23T17:13:56Z</time>
      </trkpt>
      <trkpt lat="42.125164" lon="-0.349206">
        <ele>499.731</ele>
        <time>2020-08-23T17:13:57Z</time>
      </trkpt>
      <trkpt lat="42.125184" lon="-0.349277">
        <ele>499.372</ele>
        <time>2020-08-23T17:13:58Z</time>
      </trkpt>
      <trkpt lat="42.125196" lon="-0.349353">
        <ele>499.023</ele>
        <time>2020-08-23T17:13:59Z</time>
      </trkpt>
      <trkpt lat="42.125207" lon="-0.349430">
        <ele>498.929</ele>
        <time>2020-08-23T17:14:00Z</time>
      </trkpt>
      <trkpt lat="42.125219" lon="-0.349510">
        <ele>498.868</ele>
        <time>2020-08-23T17:14:01Z</time>
      </trkpt>
      <trkpt lat="42.125238" lon="-0.349593">
        <ele>498.789</ele>
        <time>2020-08-23T17:14:02Z</time>
      </trkpt>
      <trkpt lat="42.125253" lon="-0.349682">
        <ele>498.606</ele>
        <time>2020-08-23T17:14:03Z</time>
      </trkpt>
      <trkpt lat="42.125264" lon="-0.349745">
        <ele>498.426</ele>
        <time>2020-08-23T17:14:04Z</time>
      </trkpt>
      <trkpt lat="42.125273" lon="-0.349813">
        <ele>498.108</ele>
        <time>2020-08-23T17:14:05Z</time>
      </trkpt>
      <trkpt lat="42.125284" lon="-0.349887">
        <ele>497.813</ele>
        <time>2020-08-23T17:14:06Z</time>
      </trkpt>
      <trkpt lat="42.125288" lon="-0.349979">
        <ele>497.653</ele>
        <time>2020-08-23T17:14:07Z</time>
      </trkpt>
      <trkpt lat="42.125293" lon="-0.350068">
        <ele>497.361</ele>
        <time>2020-08-23T17:14:08Z</time>
      </trkpt>
      <trkpt lat="42.125301" lon="-0.350137">
        <ele>497.283</ele>
        <time>2020-08-23T17:14:09Z</time>
      </trkpt>
      <trkpt lat="42.125317" lon="-0.350206">
        <ele>497.094</ele>
        <time>2020-08-23T17:14:10Z</time>
      </trkpt>
      <trkpt lat="42.125331" lon="-0.350278">
        <ele>496.885</ele>
        <time>2020-08-23T17:14:11Z</time>
      </trkpt>
      <trkpt lat="42.125346" lon="-0.350347">
        <ele>496.621</ele>
        <time>2020-08-23T17:14:12Z</time>
      </trkpt>
      <trkpt lat="42.125364" lon="-0.350413">
        <ele>496.450</ele>
        <time>2020-08-23T17:14:13Z</time>
      </trkpt>
      <trkpt lat="42.125377" lon="-0.350490">
        <ele>496.224</ele>
        <time>2020-08-23T17:14:14Z</time>
      </trkpt>
      <trkpt lat="42.125388" lon="-0.350557">
        <ele>496.004</ele>
        <time>2020-08-23T17:14:15Z</time>
      </trkpt>
      <trkpt lat="42.125397" lon="-0.350626">
        <ele>495.714</ele>
        <time>2020-08-23T17:14:16Z</time>
      </trkpt>
      <trkpt lat="42.125403" lon="-0.350699">
        <ele>495.508</ele>
        <time>2020-08-23T17:14:17Z</time>
      </trkpt>
      <trkpt lat="42.125411" lon="-0.350765">
        <ele>495.587</ele>
        <time>2020-08-23T17:14:18Z</time>
      </trkpt>
      <trkpt lat="42.125424" lon="-0.350828">
        <ele>495.377</ele>
        <time>2020-08-23T17:14:19Z</time>
      </trkpt>
      <trkpt lat="42.125465" lon="-0.350926">
        <ele>495.235</ele>
        <time>2020-08-23T17:14:21Z</time>
      </trkpt>
      <trkpt lat="42.125518" lon="-0.351019">
        <ele>494.897</ele>
        <time>2020-08-23T17:14:23Z</time>
      </trkpt>
      <trkpt lat="42.125551" lon="-0.351071">
        <ele>494.598</ele>
        <time>2020-08-23T17:14:24Z</time>
      </trkpt>
      <trkpt lat="42.125589" lon="-0.351122">
        <ele>494.139</ele>
        <time>2020-08-23T17:14:25Z</time>
      </trkpt>
      <trkpt lat="42.125628" lon="-0.351179">
        <ele>493.735</ele>
        <time>2020-08-23T17:14:26Z</time>
      </trkpt>
      <trkpt lat="42.125666" lon="-0.351240">
        <ele>493.344</ele>
        <time>2020-08-23T17:14:27Z</time>
      </trkpt>
      <trkpt lat="42.125697" lon="-0.351303">
        <ele>492.971</ele>
        <time>2020-08-23T17:14:28Z</time>
      </trkpt>
      <trkpt lat="42.125728" lon="-0.351377">
        <ele>492.641</ele>
        <time>2020-08-23T17:14:29Z</time>
      </trkpt>
      <trkpt lat="42.125756" lon="-0.351442">
        <ele>492.415</ele>
        <time>2020-08-23T17:14:30Z</time>
      </trkpt>
      <trkpt lat="42.125780" lon="-0.351501">
        <ele>492.108</ele>
        <time>2020-08-23T17:14:31Z</time>
      </trkpt>
      <trkpt lat="42.125808" lon="-0.351568">
        <ele>492.022</ele>
        <time>2020-08-23T17:14:32Z</time>
      </trkpt>
      <trkpt lat="42.125837" lon="-0.351626">
        <ele>491.812</ele>
        <time>2020-08-23T17:14:33Z</time>
      </trkpt>
      <trkpt lat="42.125870" lon="-0.351684">
        <ele>491.780</ele>
        <time>2020-08-23T17:14:34Z</time>
      </trkpt>
      <trkpt lat="42.125904" lon="-0.351748">
        <ele>491.672</ele>
        <time>2020-08-23T17:14:35Z</time>
      </trkpt>
      <trkpt lat="42.125936" lon="-0.351823">
        <ele>491.453</ele>
        <time>2020-08-23T17:14:36Z</time>
      </trkpt>
      <trkpt lat="42.125963" lon="-0.351902">
        <ele>491.174</ele>
        <time>2020-08-23T17:14:37Z</time>
      </trkpt>
      <trkpt lat="42.125989" lon="-0.351981">
        <ele>491.060</ele>
        <time>2020-08-23T17:14:38Z</time>
      </trkpt>
      <trkpt lat="42.126022" lon="-0.352056">
        <ele>490.929</ele>
        <time>2020-08-23T17:14:39Z</time>
      </trkpt>
      <trkpt lat="42.126059" lon="-0.352122">
        <ele>490.849</ele>
        <time>2020-08-23T17:14:40Z</time>
      </trkpt>
      <trkpt lat="42.126094" lon="-0.352191">
        <ele>490.602</ele>
        <time>2020-08-23T17:14:41Z</time>
      </trkpt>
      <trkpt lat="42.126128" lon="-0.352258">
        <ele>490.522</ele>
        <time>2020-08-23T17:14:42Z</time>
      </trkpt>
      <trkpt lat="42.126158" lon="-0.352320">
        <ele>490.408</ele>
        <time>2020-08-23T17:14:43Z</time>
      </trkpt>
      <trkpt lat="42.126194" lon="-0.352383">
        <ele>490.379</ele>
        <time>2020-08-23T17:14:44Z</time>
      </trkpt>
      <trkpt lat="42.126217" lon="-0.352455">
        <ele>490.229</ele>
        <time>2020-08-23T17:14:45Z</time>
      </trkpt>
      <trkpt lat="42.126260" lon="-0.352547">
        <ele>489.917</ele>
        <time>2020-08-23T17:14:47Z</time>
      </trkpt>
      <trkpt lat="42.126291" lon="-0.352594">
        <ele>489.829</ele>
        <time>2020-08-23T17:14:48Z</time>
      </trkpt>
      <trkpt lat="42.126319" lon="-0.352650">
        <ele>489.720</ele>
        <time>2020-08-23T17:14:49Z</time>
      </trkpt>
      <trkpt lat="42.126357" lon="-0.352712">
        <ele>489.621</ele>
        <time>2020-08-23T17:14:50Z</time>
      </trkpt>
      <trkpt lat="42.126386" lon="-0.352763">
        <ele>489.667</ele>
        <time>2020-08-23T17:14:51Z</time>
      </trkpt>
      <trkpt lat="42.126426" lon="-0.352822">
        <ele>489.566</ele>
        <time>2020-08-23T17:14:52Z</time>
      </trkpt>
      <trkpt lat="42.126472" lon="-0.352882">
        <ele>489.585</ele>
        <time>2020-08-23T17:14:53Z</time>
      </trkpt>
      <trkpt lat="42.126505" lon="-0.352935">
        <ele>489.489</ele>
        <time>2020-08-23T17:14:54Z</time>
      </trkpt>
      <trkpt lat="42.126542" lon="-0.352970">
        <ele>489.317</ele>
        <time>2020-08-23T17:14:55Z</time>
      </trkpt>
      <trkpt lat="42.126610" lon="-0.353050">
        <ele>489.108</ele>
        <time>2020-08-23T17:14:57Z</time>
      </trkpt>
      <trkpt lat="42.126644" lon="-0.353097">
        <ele>489.163</ele>
        <time>2020-08-23T17:14:58Z</time>
      </trkpt>
      <trkpt lat="42.126679" lon="-0.353147">
        <ele>489.163</ele>
        <time>2020-08-23T17:14:59Z</time>
      </trkpt>
      <trkpt lat="42.126709" lon="-0.353200">
        <ele>489.091</ele>
        <time>2020-08-23T17:15:00Z</time>
      </trkpt>
      <trkpt lat="42.126736" lon="-0.353251">
        <ele>489.053</ele>
        <time>2020-08-23T17:15:01Z</time>
      </trkpt>
      <trkpt lat="42.126764" lon="-0.353302">
        <ele>489.084</ele>
        <time>2020-08-23T17:15:02Z</time>
      </trkpt>
      <trkpt lat="42.126795" lon="-0.353362">
        <ele>488.975</ele>
        <time>2020-08-23T17:15:03Z</time>
      </trkpt>
      <trkpt lat="42.126829" lon="-0.353420">
        <ele>488.881</ele>
        <time>2020-08-23T17:15:04Z</time>
      </trkpt>
      <trkpt lat="42.126861" lon="-0.353483">
        <ele>488.790</ele>
        <time>2020-08-23T17:15:05Z</time>
      </trkpt>
      <trkpt lat="42.126888" lon="-0.353551">
        <ele>488.611</ele>
        <time>2020-08-23T17:15:06Z</time>
      </trkpt>
      <trkpt lat="42.126910" lon="-0.353617">
        <ele>488.521</ele>
        <time>2020-08-23T17:15:07Z</time>
      </trkpt>
      <trkpt lat="42.126933" lon="-0.353683">
        <ele>488.403</ele>
        <time>2020-08-23T17:15:08Z</time>
      </trkpt>
      <trkpt lat="42.126953" lon="-0.353748">
        <ele>488.308</ele>
        <time>2020-08-23T17:15:09Z</time>
      </trkpt>
      <trkpt lat="42.126973" lon="-0.353819">
        <ele>488.236</ele>
        <time>2020-08-23T17:15:10Z</time>
      </trkpt>
      <trkpt lat="42.126989" lon="-0.353891">
        <ele>488.196</ele>
        <time>2020-08-23T17:15:11Z</time>
      </trkpt>
      <trkpt lat="42.127003" lon="-0.353964">
        <ele>488.034</ele>
        <time>2020-08-23T17:15:12Z</time>
      </trkpt>
      <trkpt lat="42.127016" lon="-0.354044">
        <ele>487.926</ele>
        <time>2020-08-23T17:15:13Z</time>
      </trkpt>
      <trkpt lat="42.127030" lon="-0.354120">
        <ele>487.897</ele>
        <time>2020-08-23T17:15:14Z</time>
      </trkpt>
      <trkpt lat="42.127042" lon="-0.354192">
        <ele>487.728</ele>
        <time>2020-08-23T17:15:15Z</time>
      </trkpt>
      <trkpt lat="42.127057" lon="-0.354264">
        <ele>487.664</ele>
        <time>2020-08-23T17:15:16Z</time>
      </trkpt>
      <trkpt lat="42.127069" lon="-0.354335">
        <ele>487.433</ele>
        <time>2020-08-23T17:15:17Z</time>
      </trkpt>
      <trkpt lat="42.127087" lon="-0.354402">
        <ele>487.381</ele>
        <time>2020-08-23T17:15:18Z</time>
      </trkpt>
      <trkpt lat="42.127103" lon="-0.354463">
        <ele>487.361</ele>
        <time>2020-08-23T17:15:19Z</time>
      </trkpt>
      <trkpt lat="42.127115" lon="-0.354527">
        <ele>487.317</ele>
        <time>2020-08-23T17:15:20Z</time>
      </trkpt>
      <trkpt lat="42.127129" lon="-0.354588">
        <ele>487.308</ele>
        <time>2020-08-23T17:15:21Z</time>
      </trkpt>
      <trkpt lat="42.127137" lon="-0.354655">
        <ele>487.353</ele>
        <time>2020-08-23T17:15:22Z</time>
      </trkpt>
      <trkpt lat="42.127152" lon="-0.354721">
        <ele>487.353</ele>
        <time>2020-08-23T17:15:23Z</time>
      </trkpt>
      <trkpt lat="42.127169" lon="-0.354789">
        <ele>487.361</ele>
        <time>2020-08-23T17:15:24Z</time>
      </trkpt>
      <trkpt lat="42.127185" lon="-0.354861">
        <ele>487.313</ele>
        <time>2020-08-23T17:15:25Z</time>
      </trkpt>
      <trkpt lat="42.127201" lon="-0.354929">
        <ele>487.444</ele>
        <time>2020-08-23T17:15:26Z</time>
      </trkpt>
      <trkpt lat="42.127217" lon="-0.354990">
        <ele>487.475</ele>
        <time>2020-08-23T17:15:27Z</time>
      </trkpt>
      <trkpt lat="42.127235" lon="-0.355054">
        <ele>487.461</ele>
        <time>2020-08-23T17:15:28Z</time>
      </trkpt>
      <trkpt lat="42.127252" lon="-0.355117">
        <ele>487.420</ele>
        <time>2020-08-23T17:15:29Z</time>
      </trkpt>
      <trkpt lat="42.127264" lon="-0.355180">
        <ele>487.236</ele>
        <time>2020-08-23T17:15:30Z</time>
      </trkpt>
      <trkpt lat="42.127279" lon="-0.355242">
        <ele>486.917</ele>
        <time>2020-08-23T17:15:31Z</time>
      </trkpt>
      <trkpt lat="42.127297" lon="-0.355299">
        <ele>486.618</ele>
        <time>2020-08-23T17:15:32Z</time>
      </trkpt>
      <trkpt lat="42.127315" lon="-0.355357">
        <ele>486.408</ele>
        <time>2020-08-23T17:15:33Z</time>
      </trkpt>
      <trkpt lat="42.127350" lon="-0.355466">
        <ele>486.478</ele>
        <time>2020-08-23T17:15:35Z</time>
      </trkpt>
      <trkpt lat="42.127365" lon="-0.355524">
        <ele>486.458</ele>
        <time>2020-08-23T17:15:36Z</time>
      </trkpt>
      <trkpt lat="42.127395" lon="-0.355578">
        <ele>486.466</ele>
        <time>2020-08-23T17:15:37Z</time>
      </trkpt>
      <trkpt lat="42.127416" lon="-0.355650">
        <ele>486.468</ele>
        <time>2020-08-23T17:15:38Z</time>
      </trkpt>
      <trkpt lat="42.127426" lon="-0.355718">
        <ele>486.469</ele>
        <time>2020-08-23T17:15:39Z</time>
      </trkpt>
      <trkpt lat="42.127435" lon="-0.355779">
        <ele>486.330</ele>
        <time>2020-08-23T17:15:40Z</time>
      </trkpt>
      <trkpt lat="42.127435" lon="-0.355846">
        <ele>486.266</ele>
        <time>2020-08-23T17:15:41Z</time>
      </trkpt>
      <trkpt lat="42.127420" lon="-0.355959">
        <ele>485.925</ele>
        <time>2020-08-23T17:15:43Z</time>
      </trkpt>
      <trkpt lat="42.127416" lon="-0.356079">
        <ele>485.762</ele>
        <time>2020-08-23T17:15:45Z</time>
      </trkpt>
      <trkpt lat="42.127420" lon="-0.356195">
        <ele>485.783</ele>
        <time>2020-08-23T17:15:47Z</time>
      </trkpt>
      <trkpt lat="42.127430" lon="-0.356274">
        <ele>485.711</ele>
        <time>2020-08-23T17:15:49Z</time>
      </trkpt>
      <trkpt lat="42.127473" lon="-0.356302">
        <ele>485.408</ele>
        <time>2020-08-23T17:15:57Z</time>
      </trkpt>
      <trkpt lat="42.127525" lon="-0.356379">
        <ele>485.771</ele>
        <time>2020-08-23T17:16:01Z</time>
      </trkpt>
      <trkpt lat="42.127551" lon="-0.356482">
        <ele>485.541</ele>
        <time>2020-08-23T17:16:03Z</time>
      </trkpt>
      <trkpt lat="42.127560" lon="-0.356606">
        <ele>485.179</ele>
        <time>2020-08-23T17:16:05Z</time>
      </trkpt>
      <trkpt lat="42.127571" lon="-0.356675">
        <ele>484.891</ele>
        <time>2020-08-23T17:16:06Z</time>
      </trkpt>
      <trkpt lat="42.127592" lon="-0.356792">
        <ele>484.412</ele>
        <time>2020-08-23T17:16:08Z</time>
      </trkpt>
      <trkpt lat="42.127600" lon="-0.356856">
        <ele>484.433</ele>
        <time>2020-08-23T17:16:09Z</time>
      </trkpt>
      <trkpt lat="42.127630" lon="-0.356958">
        <ele>484.359</ele>
        <time>2020-08-23T17:16:11Z</time>
      </trkpt>
      <trkpt lat="42.127665" lon="-0.357064">
        <ele>484.228</ele>
        <time>2020-08-23T17:16:13Z</time>
      </trkpt>
      <trkpt lat="42.127684" lon="-0.357120">
        <ele>484.141</ele>
        <time>2020-08-23T17:16:14Z</time>
      </trkpt>
      <trkpt lat="42.127709" lon="-0.357238">
        <ele>483.981</ele>
        <time>2020-08-23T17:16:16Z</time>
      </trkpt>
      <trkpt lat="42.127725" lon="-0.357304">
        <ele>483.809</ele>
        <time>2020-08-23T17:16:17Z</time>
      </trkpt>
      <trkpt lat="42.127742" lon="-0.357365">
        <ele>483.708</ele>
        <time>2020-08-23T17:16:18Z</time>
      </trkpt>
      <trkpt lat="42.127757" lon="-0.357425">
        <ele>483.629</ele>
        <time>2020-08-23T17:16:19Z</time>
      </trkpt>
      <trkpt lat="42.127776" lon="-0.357487">
        <ele>483.569</ele>
        <time>2020-08-23T17:16:20Z</time>
      </trkpt>
      <trkpt lat="42.127794" lon="-0.357545">
        <ele>483.587</ele>
        <time>2020-08-23T17:16:21Z</time>
      </trkpt>
      <trkpt lat="42.127810" lon="-0.357612">
        <ele>483.529</ele>
        <time>2020-08-23T17:16:22Z</time>
      </trkpt>
      <trkpt lat="42.127829" lon="-0.357675">
        <ele>483.640</ele>
        <time>2020-08-23T17:16:23Z</time>
      </trkpt>
      <trkpt lat="42.127846" lon="-0.357736">
        <ele>483.661</ele>
        <time>2020-08-23T17:16:24Z</time>
      </trkpt>
      <trkpt lat="42.127863" lon="-0.357798">
        <ele>483.687</ele>
        <time>2020-08-23T17:16:25Z</time>
      </trkpt>
      <trkpt lat="42.127883" lon="-0.357858">
        <ele>483.626</ele>
        <time>2020-08-23T17:16:26Z</time>
      </trkpt>
      <trkpt lat="42.127901" lon="-0.357923">
        <ele>483.575</ele>
        <time>2020-08-23T17:16:27Z</time>
      </trkpt>
      <trkpt lat="42.127918" lon="-0.357979">
        <ele>483.528</ele>
        <time>2020-08-23T17:16:28Z</time>
      </trkpt>
      <trkpt lat="42.127936" lon="-0.358042">
        <ele>483.520</ele>
        <time>2020-08-23T17:16:29Z</time>
      </trkpt>
      <trkpt lat="42.127953" lon="-0.358110">
        <ele>483.408</ele>
        <time>2020-08-23T17:16:30Z</time>
      </trkpt>
      <trkpt lat="42.127970" lon="-0.358178">
        <ele>483.342</ele>
        <time>2020-08-23T17:16:31Z</time>
      </trkpt>
      <trkpt lat="42.127986" lon="-0.358241">
        <ele>483.242</ele>
        <time>2020-08-23T17:16:32Z</time>
      </trkpt>
      <trkpt lat="42.128000" lon="-0.358306">
        <ele>483.120</ele>
        <time>2020-08-23T17:16:33Z</time>
      </trkpt>
      <trkpt lat="42.128023" lon="-0.358365">
        <ele>483.032</ele>
        <time>2020-08-23T17:16:34Z</time>
      </trkpt>
      <trkpt lat="42.128039" lon="-0.358434">
        <ele>482.983</ele>
        <time>2020-08-23T17:16:35Z</time>
      </trkpt>
      <trkpt lat="42.128053" lon="-0.358504">
        <ele>482.814</ele>
        <time>2020-08-23T17:16:36Z</time>
      </trkpt>
      <trkpt lat="42.128067" lon="-0.358572">
        <ele>482.890</ele>
        <time>2020-08-23T17:16:37Z</time>
      </trkpt>
      <trkpt lat="42.128078" lon="-0.358631">
        <ele>482.889</ele>
        <time>2020-08-23T17:16:38Z</time>
      </trkpt>
      <trkpt lat="42.128093" lon="-0.358689">
        <ele>482.853</ele>
        <time>2020-08-23T17:16:39Z</time>
      </trkpt>
      <trkpt lat="42.128112" lon="-0.358752">
        <ele>482.804</ele>
        <time>2020-08-23T17:16:40Z</time>
      </trkpt>
      <trkpt lat="42.128123" lon="-0.358820">
        <ele>482.914</ele>
        <time>2020-08-23T17:16:41Z</time>
      </trkpt>
      <trkpt lat="42.128136" lon="-0.358891">
        <ele>482.908</ele>
        <time>2020-08-23T17:16:42Z</time>
      </trkpt>
      <trkpt lat="42.128153" lon="-0.358955">
        <ele>482.910</ele>
        <time>2020-08-23T17:16:43Z</time>
      </trkpt>
      <trkpt lat="42.128171" lon="-0.359019">
        <ele>482.920</ele>
        <time>2020-08-23T17:16:44Z</time>
      </trkpt>
      <trkpt lat="42.128195" lon="-0.359127">
        <ele>482.938</ele>
        <time>2020-08-23T17:16:46Z</time>
      </trkpt>
      <trkpt lat="42.128205" lon="-0.359187">
        <ele>482.840</ele>
        <time>2020-08-23T17:16:47Z</time>
      </trkpt>
      <trkpt lat="42.128213" lon="-0.359250">
        <ele>482.671</ele>
        <time>2020-08-23T17:16:48Z</time>
      </trkpt>
      <trkpt lat="42.128234" lon="-0.359369">
        <ele>482.582</ele>
        <time>2020-08-23T17:16:50Z</time>
      </trkpt>
      <trkpt lat="42.128254" lon="-0.359477">
        <ele>482.428</ele>
        <time>2020-08-23T17:16:52Z</time>
      </trkpt>
      <trkpt lat="42.128287" lon="-0.359584">
        <ele>482.287</ele>
        <time>2020-08-23T17:16:54Z</time>
      </trkpt>
      <trkpt lat="42.128317" lon="-0.359687">
        <ele>482.246</ele>
        <time>2020-08-23T17:16:56Z</time>
      </trkpt>
      <trkpt lat="42.128332" lon="-0.359745">
        <ele>482.188</ele>
        <time>2020-08-23T17:16:57Z</time>
      </trkpt>
      <trkpt lat="42.128347" lon="-0.359807">
        <ele>482.116</ele>
        <time>2020-08-23T17:16:58Z</time>
      </trkpt>
      <trkpt lat="42.128366" lon="-0.359873">
        <ele>482.208</ele>
        <time>2020-08-23T17:16:59Z</time>
      </trkpt>
      <trkpt lat="42.128383" lon="-0.359933">
        <ele>482.249</ele>
        <time>2020-08-23T17:17:00Z</time>
      </trkpt>
      <trkpt lat="42.128401" lon="-0.359992">
        <ele>482.249</ele>
        <time>2020-08-23T17:17:01Z</time>
      </trkpt>
      <trkpt lat="42.128415" lon="-0.360052">
        <ele>482.367</ele>
        <time>2020-08-23T17:17:02Z</time>
      </trkpt>
      <trkpt lat="42.128431" lon="-0.360131">
        <ele>482.369</ele>
        <time>2020-08-23T17:17:03Z</time>
      </trkpt>
      <trkpt lat="42.128446" lon="-0.360207">
        <ele>482.230</ele>
        <time>2020-08-23T17:17:04Z</time>
      </trkpt>
      <trkpt lat="42.128461" lon="-0.360275">
        <ele>482.271</ele>
        <time>2020-08-23T17:17:05Z</time>
      </trkpt>
      <trkpt lat="42.128475" lon="-0.360344">
        <ele>482.137</ele>
        <time>2020-08-23T17:17:06Z</time>
      </trkpt>
      <trkpt lat="42.128493" lon="-0.360410">
        <ele>482.166</ele>
        <time>2020-08-23T17:17:07Z</time>
      </trkpt>
      <trkpt lat="42.128506" lon="-0.360481">
        <ele>482.039</ele>
        <time>2020-08-23T17:17:08Z</time>
      </trkpt>
      <trkpt lat="42.128516" lon="-0.360548">
        <ele>482.001</ele>
        <time>2020-08-23T17:17:09Z</time>
      </trkpt>
      <trkpt lat="42.128531" lon="-0.360611">
        <ele>481.921</ele>
        <time>2020-08-23T17:17:10Z</time>
      </trkpt>
      <trkpt lat="42.128543" lon="-0.360674">
        <ele>481.808</ele>
        <time>2020-08-23T17:17:11Z</time>
      </trkpt>
      <trkpt lat="42.128549" lon="-0.360734">
        <ele>481.718</ele>
        <time>2020-08-23T17:17:12Z</time>
      </trkpt>
      <trkpt lat="42.128554" lon="-0.360798">
        <ele>481.728</ele>
        <time>2020-08-23T17:17:13Z</time>
      </trkpt>
      <trkpt lat="42.128565" lon="-0.360858">
        <ele>481.786</ele>
        <time>2020-08-23T17:17:14Z</time>
      </trkpt>
      <trkpt lat="42.128575" lon="-0.360918">
        <ele>481.768</ele>
        <time>2020-08-23T17:17:15Z</time>
      </trkpt>
      <trkpt lat="42.128583" lon="-0.361039">
        <ele>481.729</ele>
        <time>2020-08-23T17:17:17Z</time>
      </trkpt>
      <trkpt lat="42.128592" lon="-0.361107">
        <ele>481.760</ele>
        <time>2020-08-23T17:17:18Z</time>
      </trkpt>
      <trkpt lat="42.128601" lon="-0.361169">
        <ele>481.766</ele>
        <time>2020-08-23T17:17:19Z</time>
      </trkpt>
      <trkpt lat="42.128606" lon="-0.361236">
        <ele>481.755</ele>
        <time>2020-08-23T17:17:20Z</time>
      </trkpt>
      <trkpt lat="42.128616" lon="-0.361299">
        <ele>481.636</ele>
        <time>2020-08-23T17:17:21Z</time>
      </trkpt>
      <trkpt lat="42.128627" lon="-0.361364">
        <ele>481.517</ele>
        <time>2020-08-23T17:17:22Z</time>
      </trkpt>
      <trkpt lat="42.128637" lon="-0.361423">
        <ele>481.418</ele>
        <time>2020-08-23T17:17:23Z</time>
      </trkpt>
      <trkpt lat="42.128660" lon="-0.361522">
        <ele>481.408</ele>
        <time>2020-08-23T17:17:25Z</time>
      </trkpt>
      <trkpt lat="42.128696" lon="-0.361632">
        <ele>481.458</ele>
        <time>2020-08-23T17:17:27Z</time>
      </trkpt>
      <trkpt lat="42.128713" lon="-0.361695">
        <ele>481.478</ele>
        <time>2020-08-23T17:17:28Z</time>
      </trkpt>
      <trkpt lat="42.128727" lon="-0.361807">
        <ele>481.326</ele>
        <time>2020-08-23T17:17:30Z</time>
      </trkpt>
      <trkpt lat="42.128738" lon="-0.361870">
        <ele>481.248</ele>
        <time>2020-08-23T17:17:31Z</time>
      </trkpt>
      <trkpt lat="42.128751" lon="-0.361931">
        <ele>481.119</ele>
        <time>2020-08-23T17:17:32Z</time>
      </trkpt>
      <trkpt lat="42.128762" lon="-0.361994">
        <ele>481.050</ele>
        <time>2020-08-23T17:17:33Z</time>
      </trkpt>
      <trkpt lat="42.128777" lon="-0.362058">
        <ele>481.096</ele>
        <time>2020-08-23T17:17:34Z</time>
      </trkpt>
      <trkpt lat="42.128788" lon="-0.362123">
        <ele>481.055</ele>
        <time>2020-08-23T17:17:35Z</time>
      </trkpt>
      <trkpt lat="42.128803" lon="-0.362186">
        <ele>480.938</ele>
        <time>2020-08-23T17:17:36Z</time>
      </trkpt>
      <trkpt lat="42.128817" lon="-0.362250">
        <ele>480.870</ele>
        <time>2020-08-23T17:17:37Z</time>
      </trkpt>
      <trkpt lat="42.128831" lon="-0.362309">
        <ele>480.717</ele>
        <time>2020-08-23T17:17:38Z</time>
      </trkpt>
      <trkpt lat="42.128846" lon="-0.362374">
        <ele>480.608</ele>
        <time>2020-08-23T17:17:39Z</time>
      </trkpt>
      <trkpt lat="42.128859" lon="-0.362433">
        <ele>480.538</ele>
        <time>2020-08-23T17:17:40Z</time>
      </trkpt>
      <trkpt lat="42.128887" lon="-0.362541">
        <ele>480.568</ele>
        <time>2020-08-23T17:17:42Z</time>
      </trkpt>
      <trkpt lat="42.128926" lon="-0.362651">
        <ele>480.526</ele>
        <time>2020-08-23T17:17:44Z</time>
      </trkpt>
      <trkpt lat="42.128949" lon="-0.362705">
        <ele>480.558</ele>
        <time>2020-08-23T17:17:45Z</time>
      </trkpt>
      <trkpt lat="42.128967" lon="-0.362766">
        <ele>480.579</ele>
        <time>2020-08-23T17:17:46Z</time>
      </trkpt>
      <trkpt lat="42.128985" lon="-0.362827">
        <ele>480.520</ele>
        <time>2020-08-23T17:17:47Z</time>
      </trkpt>
      <trkpt lat="42.128992" lon="-0.362950">
        <ele>480.566</ele>
        <time>2020-08-23T17:17:49Z</time>
      </trkpt>
      <trkpt lat="42.128994" lon="-0.363014">
        <ele>480.525</ele>
        <time>2020-08-23T17:17:50Z</time>
      </trkpt>
      <trkpt lat="42.129005" lon="-0.363080">
        <ele>480.452</ele>
        <time>2020-08-23T17:17:51Z</time>
      </trkpt>
      <trkpt lat="42.129016" lon="-0.363140">
        <ele>480.353</ele>
        <time>2020-08-23T17:17:52Z</time>
      </trkpt>
      <trkpt lat="42.129025" lon="-0.363200">
        <ele>480.208</ele>
        <time>2020-08-23T17:17:53Z</time>
      </trkpt>
      <trkpt lat="42.129037" lon="-0.363260">
        <ele>480.108</ele>
        <time>2020-08-23T17:17:54Z</time>
      </trkpt>
      <trkpt lat="42.129062" lon="-0.363376">
        <ele>480.130</ele>
        <time>2020-08-23T17:17:56Z</time>
      </trkpt>
      <trkpt lat="42.129081" lon="-0.363437">
        <ele>480.160</ele>
        <time>2020-08-23T17:17:57Z</time>
      </trkpt>
      <trkpt lat="42.129117" lon="-0.363542">
        <ele>480.058</ele>
        <time>2020-08-23T17:17:59Z</time>
      </trkpt>
      <trkpt lat="42.129153" lon="-0.363647">
        <ele>479.990</ele>
        <time>2020-08-23T17:18:01Z</time>
      </trkpt>
      <trkpt lat="42.129184" lon="-0.363757">
        <ele>479.951</ele>
        <time>2020-08-23T17:18:03Z</time>
      </trkpt>
      <trkpt lat="42.129203" lon="-0.363822">
        <ele>479.912</ele>
        <time>2020-08-23T17:18:04Z</time>
      </trkpt>
      <trkpt lat="42.129225" lon="-0.363878">
        <ele>479.828</ele>
        <time>2020-08-23T17:18:05Z</time>
      </trkpt>
      <trkpt lat="42.129246" lon="-0.363934">
        <ele>479.767</ele>
        <time>2020-08-23T17:18:06Z</time>
      </trkpt>
      <trkpt lat="42.129269" lon="-0.363990">
        <ele>479.763</ele>
        <time>2020-08-23T17:18:07Z</time>
      </trkpt>
      <trkpt lat="42.129294" lon="-0.364055">
        <ele>479.744</ele>
        <time>2020-08-23T17:18:08Z</time>
      </trkpt>
      <trkpt lat="42.129319" lon="-0.364119">
        <ele>479.618</ele>
        <time>2020-08-23T17:18:09Z</time>
      </trkpt>
      <trkpt lat="42.129342" lon="-0.364178">
        <ele>479.508</ele>
        <time>2020-08-23T17:18:10Z</time>
      </trkpt>
      <trkpt lat="42.129365" lon="-0.364243">
        <ele>479.481</ele>
        <time>2020-08-23T17:18:11Z</time>
      </trkpt>
      <trkpt lat="42.129388" lon="-0.364308">
        <ele>479.351</ele>
        <time>2020-08-23T17:18:12Z</time>
      </trkpt>
      <trkpt lat="42.129414" lon="-0.364365">
        <ele>479.279</ele>
        <time>2020-08-23T17:18:13Z</time>
      </trkpt>
      <trkpt lat="42.129439" lon="-0.364425">
        <ele>479.261</ele>
        <time>2020-08-23T17:18:14Z</time>
      </trkpt>
      <trkpt lat="42.129463" lon="-0.364488">
        <ele>479.152</ele>
        <time>2020-08-23T17:18:15Z</time>
      </trkpt>
      <trkpt lat="42.129486" lon="-0.364548">
        <ele>479.133</ele>
        <time>2020-08-23T17:18:16Z</time>
      </trkpt>
      <trkpt lat="42.129507" lon="-0.364614">
        <ele>479.129</ele>
        <time>2020-08-23T17:18:17Z</time>
      </trkpt>
      <trkpt lat="42.129532" lon="-0.364677">
        <ele>479.138</ele>
        <time>2020-08-23T17:18:18Z</time>
      </trkpt>
      <trkpt lat="42.129550" lon="-0.364736">
        <ele>479.171</ele>
        <time>2020-08-23T17:18:19Z</time>
      </trkpt>
      <trkpt lat="42.129572" lon="-0.364792">
        <ele>479.141</ele>
        <time>2020-08-23T17:18:20Z</time>
      </trkpt>
      <trkpt lat="42.129593" lon="-0.364847">
        <ele>479.115</ele>
        <time>2020-08-23T17:18:21Z</time>
      </trkpt>
      <trkpt lat="42.129626" lon="-0.364957">
        <ele>479.208</ele>
        <time>2020-08-23T17:18:23Z</time>
      </trkpt>
      <trkpt lat="42.129645" lon="-0.365014">
        <ele>479.272</ele>
        <time>2020-08-23T17:18:24Z</time>
      </trkpt>
      <trkpt lat="42.129665" lon="-0.365072">
        <ele>479.292</ele>
        <time>2020-08-23T17:18:25Z</time>
      </trkpt>
      <trkpt lat="42.129687" lon="-0.365127">
        <ele>479.250</ele>
        <time>2020-08-23T17:18:26Z</time>
      </trkpt>
      <trkpt lat="42.129710" lon="-0.365186">
        <ele>479.172</ele>
        <time>2020-08-23T17:18:27Z</time>
      </trkpt>
      <trkpt lat="42.129754" lon="-0.365284">
        <ele>479.073</ele>
        <time>2020-08-23T17:18:29Z</time>
      </trkpt>
      <trkpt lat="42.129784" lon="-0.365392">
        <ele>478.954</ele>
        <time>2020-08-23T17:18:31Z</time>
      </trkpt>
      <trkpt lat="42.129802" lon="-0.365448">
        <ele>478.990</ele>
        <time>2020-08-23T17:18:32Z</time>
      </trkpt>
      <trkpt lat="42.129826" lon="-0.365512">
        <ele>478.969</ele>
        <time>2020-08-23T17:18:33Z</time>
      </trkpt>
      <trkpt lat="42.129846" lon="-0.365576">
        <ele>478.968</ele>
        <time>2020-08-23T17:18:34Z</time>
      </trkpt>
      <trkpt lat="42.129867" lon="-0.365640">
        <ele>478.942</ele>
        <time>2020-08-23T17:18:35Z</time>
      </trkpt>
      <trkpt lat="42.129889" lon="-0.365704">
        <ele>478.926</ele>
        <time>2020-08-23T17:18:36Z</time>
      </trkpt>
      <trkpt lat="42.129909" lon="-0.365768">
        <ele>478.808</ele>
        <time>2020-08-23T17:18:37Z</time>
      </trkpt>
      <trkpt lat="42.129933" lon="-0.365835">
        <ele>478.841</ele>
        <time>2020-08-23T17:18:38Z</time>
      </trkpt>
      <trkpt lat="42.129955" lon="-0.365891">
        <ele>478.841</ele>
        <time>2020-08-23T17:18:39Z</time>
      </trkpt>
      <trkpt lat="42.129984" lon="-0.365947">
        <ele>478.829</ele>
        <time>2020-08-23T17:18:40Z</time>
      </trkpt>
      <trkpt lat="42.130011" lon="-0.365998">
        <ele>478.891</ele>
        <time>2020-08-23T17:18:41Z</time>
      </trkpt>
      <trkpt lat="42.130038" lon="-0.366048">
        <ele>478.822</ele>
        <time>2020-08-23T17:18:42Z</time>
      </trkpt>
      <trkpt lat="42.130067" lon="-0.366104">
        <ele>478.993</ele>
        <time>2020-08-23T17:18:43Z</time>
      </trkpt>
      <trkpt lat="42.130091" lon="-0.366162">
        <ele>478.949</ele>
        <time>2020-08-23T17:18:44Z</time>
      </trkpt>
      <trkpt lat="42.130114" lon="-0.366215">
        <ele>478.928</ele>
        <time>2020-08-23T17:18:45Z</time>
      </trkpt>
      <trkpt lat="42.130139" lon="-0.366270">
        <ele>478.925</ele>
        <time>2020-08-23T17:18:46Z</time>
      </trkpt>
      <trkpt lat="42.130162" lon="-0.366328">
        <ele>478.926</ele>
        <time>2020-08-23T17:18:47Z</time>
      </trkpt>
      <trkpt lat="42.130198" lon="-0.366380">
        <ele>478.908</ele>
        <time>2020-08-23T17:18:48Z</time>
      </trkpt>
      <trkpt lat="42.130231" lon="-0.366433">
        <ele>478.908</ele>
        <time>2020-08-23T17:18:49Z</time>
      </trkpt>
      <trkpt lat="42.130258" lon="-0.366494">
        <ele>478.997</ele>
        <time>2020-08-23T17:18:50Z</time>
      </trkpt>
      <trkpt lat="42.130285" lon="-0.366544">
        <ele>478.817</ele>
        <time>2020-08-23T17:18:51Z</time>
      </trkpt>
      <trkpt lat="42.130309" lon="-0.366601">
        <ele>478.875</ele>
        <time>2020-08-23T17:18:52Z</time>
      </trkpt>
      <trkpt lat="42.130352" lon="-0.366695">
        <ele>478.877</ele>
        <time>2020-08-23T17:18:54Z</time>
      </trkpt>
      <trkpt lat="42.130386" lon="-0.366787">
        <ele>479.088</ele>
        <time>2020-08-23T17:18:56Z</time>
      </trkpt>
      <trkpt lat="42.130426" lon="-0.366878">
        <ele>479.219</ele>
        <time>2020-08-23T17:18:58Z</time>
      </trkpt>
      <trkpt lat="42.130452" lon="-0.366931">
        <ele>479.295</ele>
        <time>2020-08-23T17:18:59Z</time>
      </trkpt>
      <trkpt lat="42.130474" lon="-0.366989">
        <ele>479.244</ele>
        <time>2020-08-23T17:19:00Z</time>
      </trkpt>
      <trkpt lat="42.130502" lon="-0.367053">
        <ele>479.153</ele>
        <time>2020-08-23T17:19:01Z</time>
      </trkpt>
      <trkpt lat="42.130529" lon="-0.367113">
        <ele>478.904</ele>
        <time>2020-08-23T17:19:02Z</time>
      </trkpt>
      <trkpt lat="42.130549" lon="-0.367169">
        <ele>478.814</ele>
        <time>2020-08-23T17:19:03Z</time>
      </trkpt>
      <trkpt lat="42.130581" lon="-0.367274">
        <ele>478.608</ele>
        <time>2020-08-23T17:19:05Z</time>
      </trkpt>
      <trkpt lat="42.130606" lon="-0.367384">
        <ele>478.510</ele>
        <time>2020-08-23T17:19:07Z</time>
      </trkpt>
      <trkpt lat="42.130620" lon="-0.367442">
        <ele>478.580</ele>
        <time>2020-08-23T17:19:08Z</time>
      </trkpt>
      <trkpt lat="42.130639" lon="-0.367497">
        <ele>478.598</ele>
        <time>2020-08-23T17:19:09Z</time>
      </trkpt>
      <trkpt lat="42.130674" lon="-0.367607">
        <ele>478.480</ele>
        <time>2020-08-23T17:19:11Z</time>
      </trkpt>
      <trkpt lat="42.130691" lon="-0.367666">
        <ele>478.421</ele>
        <time>2020-08-23T17:19:12Z</time>
      </trkpt>
      <trkpt lat="42.130724" lon="-0.367776">
        <ele>478.352</ele>
        <time>2020-08-23T17:19:14Z</time>
      </trkpt>
      <trkpt lat="42.130738" lon="-0.367838">
        <ele>478.368</ele>
        <time>2020-08-23T17:19:15Z</time>
      </trkpt>
      <trkpt lat="42.130752" lon="-0.367904">
        <ele>478.267</ele>
        <time>2020-08-23T17:19:16Z</time>
      </trkpt>
      <trkpt lat="42.130766" lon="-0.367970">
        <ele>478.047</ele>
        <time>2020-08-23T17:19:17Z</time>
      </trkpt>
      <trkpt lat="42.130785" lon="-0.368052">
        <ele>477.929</ele>
        <time>2020-08-23T17:19:18Z</time>
      </trkpt>
      <trkpt lat="42.130796" lon="-0.368125">
        <ele>477.921</ele>
        <time>2020-08-23T17:19:19Z</time>
      </trkpt>
      <trkpt lat="42.130806" lon="-0.368193">
        <ele>477.708</ele>
        <time>2020-08-23T17:19:20Z</time>
      </trkpt>
      <trkpt lat="42.130819" lon="-0.368268">
        <ele>477.759</ele>
        <time>2020-08-23T17:19:21Z</time>
      </trkpt>
      <trkpt lat="42.130832" lon="-0.368345">
        <ele>477.629</ele>
        <time>2020-08-23T17:19:22Z</time>
      </trkpt>
      <trkpt lat="42.130848" lon="-0.368413">
        <ele>477.517</ele>
        <time>2020-08-23T17:19:23Z</time>
      </trkpt>
      <trkpt lat="42.130870" lon="-0.368478">
        <ele>477.389</ele>
        <time>2020-08-23T17:19:24Z</time>
      </trkpt>
      <trkpt lat="42.130892" lon="-0.368540">
        <ele>477.270</ele>
        <time>2020-08-23T17:19:25Z</time>
      </trkpt>
      <trkpt lat="42.130914" lon="-0.368603">
        <ele>477.191</ele>
        <time>2020-08-23T17:19:26Z</time>
      </trkpt>
      <trkpt lat="42.130936" lon="-0.368656">
        <ele>476.897</ele>
        <time>2020-08-23T17:19:27Z</time>
      </trkpt>
      <trkpt lat="42.130969" lon="-0.368746">
        <ele>476.646</ele>
        <time>2020-08-23T17:19:29Z</time>
      </trkpt>
      <trkpt lat="42.131019" lon="-0.368824">
        <ele>476.512</ele>
        <time>2020-08-23T17:19:31Z</time>
      </trkpt>
      <trkpt lat="42.131089" lon="-0.368885">
        <ele>476.532</ele>
        <time>2020-08-23T17:19:33Z</time>
      </trkpt>
      <trkpt lat="42.131169" lon="-0.368946">
        <ele>476.405</ele>
        <time>2020-08-23T17:19:35Z</time>
      </trkpt>
      <trkpt lat="42.131235" lon="-0.369023">
        <ele>476.308</ele>
        <time>2020-08-23T17:19:37Z</time>
      </trkpt>
      <trkpt lat="42.131274" lon="-0.369121">
        <ele>475.966</ele>
        <time>2020-08-23T17:19:39Z</time>
      </trkpt>
      <trkpt lat="42.131291" lon="-0.369201">
        <ele>475.386</ele>
        <time>2020-08-23T17:19:41Z</time>
      </trkpt>
      <trkpt lat="42.131292" lon="-0.369261">
        <ele>474.654</ele>
        <time>2020-08-23T17:19:43Z</time>
      </trkpt>
      <trkpt lat="42.131347" lon="-0.369310">
        <ele>473.686</ele>
        <time>2020-08-23T17:19:47Z</time>
      </trkpt>
      <trkpt lat="42.131411" lon="-0.369280">
        <ele>473.657</ele>
        <time>2020-08-23T17:19:49Z</time>
      </trkpt>
      <trkpt lat="42.131467" lon="-0.369253">
        <ele>474.078</ele>
        <time>2020-08-23T17:19:51Z</time>
      </trkpt>
      <trkpt lat="42.131535" lon="-0.369216">
        <ele>474.994</ele>
        <time>2020-08-23T17:19:54Z</time>
      </trkpt>
      <trkpt lat="42.131588" lon="-0.369202">
        <ele>475.433</ele>
        <time>2020-08-23T17:19:56Z</time>
      </trkpt>
      <trkpt lat="42.131634" lon="-0.369195">
        <ele>475.666</ele>
        <time>2020-08-23T17:19:58Z</time>
      </trkpt>
      <trkpt lat="42.131690" lon="-0.369198">
        <ele>475.729</ele>
        <time>2020-08-23T17:20:00Z</time>
      </trkpt>
      <trkpt lat="42.131741" lon="-0.369216">
        <ele>475.721</ele>
        <time>2020-08-23T17:20:02Z</time>
      </trkpt>
      <trkpt lat="42.131790" lon="-0.369264">
        <ele>475.008</ele>
        <time>2020-08-23T17:20:05Z</time>
      </trkpt>
      <trkpt lat="42.131815" lon="-0.369323">
        <ele>474.041</ele>
        <time>2020-08-23T17:20:07Z</time>
      </trkpt>
      <trkpt lat="42.131831" lon="-0.369407">
        <ele>473.111</ele>
        <time>2020-08-23T17:20:09Z</time>
      </trkpt>
      <trkpt lat="42.131857" lon="-0.369475">
        <ele>472.489</ele>
        <time>2020-08-23T17:20:11Z</time>
      </trkpt>
      <trkpt lat="42.131884" lon="-0.369542">
        <ele>472.041</ele>
        <time>2020-08-23T17:20:13Z</time>
      </trkpt>
      <trkpt lat="42.131885" lon="-0.369613">
        <ele>471.612</ele>
        <time>2020-08-23T17:20:16Z</time>
      </trkpt>
      <trkpt lat="42.131883" lon="-0.369678">
        <ele>470.873</ele>
        <time>2020-08-23T17:20:21Z</time>
      </trkpt>
      <trkpt lat="42.131838" lon="-0.369711">
        <ele>471.389</ele>
        <time>2020-08-23T17:20:29Z</time>
      </trkpt>
      <trkpt lat="42.131793" lon="-0.369692">
        <ele>471.368</ele>
        <time>2020-08-23T17:20:32Z</time>
      </trkpt>
      <trkpt lat="42.131733" lon="-0.369694">
        <ele>471.545</ele>
        <time>2020-08-23T17:20:35Z</time>
      </trkpt>
      <trkpt lat="42.131687" lon="-0.369680">
        <ele>471.547</ele>
        <time>2020-08-23T17:20:37Z</time>
      </trkpt>
      <trkpt lat="42.131614" lon="-0.369668">
        <ele>471.511</ele>
        <time>2020-08-23T17:20:39Z</time>
      </trkpt>
      <trkpt lat="42.131525" lon="-0.369656">
        <ele>471.408</ele>
        <time>2020-08-23T17:20:41Z</time>
      </trkpt>
      <trkpt lat="42.131479" lon="-0.369645">
        <ele>471.369</ele>
        <time>2020-08-23T17:20:42Z</time>
      </trkpt>
      <trkpt lat="42.131434" lon="-0.369631">
        <ele>471.339</ele>
        <time>2020-08-23T17:20:43Z</time>
      </trkpt>
      <trkpt lat="42.131388" lon="-0.369621">
        <ele>471.377</ele>
        <time>2020-08-23T17:20:44Z</time>
      </trkpt>
      <trkpt lat="42.131307" lon="-0.369595">
        <ele>471.259</ele>
        <time>2020-08-23T17:20:46Z</time>
      </trkpt>
      <trkpt lat="42.131223" lon="-0.369585">
        <ele>471.220</ele>
        <time>2020-08-23T17:20:48Z</time>
      </trkpt>
      <trkpt lat="42.131144" lon="-0.369592">
        <ele>471.451</ele>
        <time>2020-08-23T17:20:50Z</time>
      </trkpt>
      <trkpt lat="42.131070" lon="-0.369611">
        <ele>471.577</ele>
        <time>2020-08-23T17:20:52Z</time>
      </trkpt>
      <trkpt lat="42.131007" lon="-0.369631">
        <ele>471.666</ele>
        <time>2020-08-23T17:20:54Z</time>
      </trkpt>
      <trkpt lat="42.130941" lon="-0.369674">
        <ele>471.373</ele>
        <time>2020-08-23T17:20:56Z</time>
      </trkpt>
      <trkpt lat="42.130899" lon="-0.369720">
        <ele>471.285</ele>
        <time>2020-08-23T17:20:58Z</time>
      </trkpt>
      <trkpt lat="42.130858" lon="-0.369766">
        <ele>471.113</ele>
        <time>2020-08-23T17:21:00Z</time>
      </trkpt>
      <trkpt lat="42.130805" lon="-0.369814">
        <ele>471.008</ele>
        <time>2020-08-23T17:21:02Z</time>
      </trkpt>
      <trkpt lat="42.130768" lon="-0.369862">
        <ele>470.732</ele>
        <time>2020-08-23T17:21:04Z</time>
      </trkpt>
      <trkpt lat="42.130715" lon="-0.369907">
        <ele>470.542</ele>
        <time>2020-08-23T17:21:06Z</time>
      </trkpt>
      <trkpt lat="42.130660" lon="-0.369949">
        <ele>470.370</ele>
        <time>2020-08-23T17:21:08Z</time>
      </trkpt>
      <trkpt lat="42.130615" lon="-0.369989">
        <ele>470.112</ele>
        <time>2020-08-23T17:21:10Z</time>
      </trkpt>
      <trkpt lat="42.130548" lon="-0.370023">
        <ele>470.033</ele>
        <time>2020-08-23T17:21:13Z</time>
      </trkpt>
      <trkpt lat="42.130497" lon="-0.370071">
        <ele>470.054</ele>
        <time>2020-08-23T17:21:15Z</time>
      </trkpt>
      <trkpt lat="42.130448" lon="-0.370130">
        <ele>469.960</ele>
        <time>2020-08-23T17:21:17Z</time>
      </trkpt>
      <trkpt lat="42.130401" lon="-0.370163">
        <ele>469.929</ele>
        <time>2020-08-23T17:21:19Z</time>
      </trkpt>
      <trkpt lat="42.130356" lon="-0.370217">
        <ele>470.079</ele>
        <time>2020-08-23T17:21:21Z</time>
      </trkpt>
      <trkpt lat="42.130330" lon="-0.370276">
        <ele>470.005</ele>
        <time>2020-08-23T17:21:23Z</time>
      </trkpt>
      <trkpt lat="42.130322" lon="-0.370344">
        <ele>470.025</ele>
        <time>2020-08-23T17:21:25Z</time>
      </trkpt>
      <trkpt lat="42.130320" lon="-0.370415">
        <ele>470.008</ele>
        <time>2020-08-23T17:21:27Z</time>
      </trkpt>
      <trkpt lat="42.130313" lon="-0.370479">
        <ele>470.212</ele>
        <time>2020-08-23T17:21:29Z</time>
      </trkpt>
      <trkpt lat="42.130293" lon="-0.370541">
        <ele>470.612</ele>
        <time>2020-08-23T17:21:32Z</time>
      </trkpt>
      <trkpt lat="42.130263" lon="-0.370605">
        <ele>470.790</ele>
        <time>2020-08-23T17:21:34Z</time>
      </trkpt>
      <trkpt lat="42.130201" lon="-0.370663">
        <ele>470.732</ele>
        <time>2020-08-23T17:21:36Z</time>
      </trkpt>
      <trkpt lat="42.130132" lon="-0.370715">
        <ele>470.763</ele>
        <time>2020-08-23T17:21:38Z</time>
      </trkpt>
      <trkpt lat="42.130063" lon="-0.370762">
        <ele>470.524</ele>
        <time>2020-08-23T17:21:40Z</time>
      </trkpt>
      <trkpt lat="42.129999" lon="-0.370800">
        <ele>470.430</ele>
        <time>2020-08-23T17:21:42Z</time>
      </trkpt>
      <trkpt lat="42.129933" lon="-0.370858">
        <ele>470.549</ele>
        <time>2020-08-23T17:21:44Z</time>
      </trkpt>
      <trkpt lat="42.129881" lon="-0.370917">
        <ele>470.582</ele>
        <time>2020-08-23T17:21:46Z</time>
      </trkpt>
      <trkpt lat="42.129835" lon="-0.370990">
        <ele>470.443</ele>
        <time>2020-08-23T17:21:48Z</time>
      </trkpt>
      <trkpt lat="42.129821" lon="-0.371049">
        <ele>470.217</ele>
        <time>2020-08-23T17:21:49Z</time>
      </trkpt>
      <trkpt lat="42.129799" lon="-0.371110">
        <ele>470.008</ele>
        <time>2020-08-23T17:21:50Z</time>
      </trkpt>
      <trkpt lat="42.129738" lon="-0.371185">
        <ele>469.793</ele>
        <time>2020-08-23T17:21:52Z</time>
      </trkpt>
      <trkpt lat="42.129670" lon="-0.371239">
        <ele>469.533</ele>
        <time>2020-08-23T17:21:54Z</time>
      </trkpt>
      <trkpt lat="42.129608" lon="-0.371285">
        <ele>469.491</ele>
        <time>2020-08-23T17:21:56Z</time>
      </trkpt>
      <trkpt lat="42.129542" lon="-0.371347">
        <ele>469.283</ele>
        <time>2020-08-23T17:21:58Z</time>
      </trkpt>
      <trkpt lat="42.129465" lon="-0.371379">
        <ele>469.094</ele>
        <time>2020-08-23T17:22:00Z</time>
      </trkpt>
      <trkpt lat="42.129419" lon="-0.371399">
        <ele>469.085</ele>
        <time>2020-08-23T17:22:02Z</time>
      </trkpt>
      <trkpt lat="42.129371" lon="-0.371414">
        <ele>469.121</ele>
        <time>2020-08-23T17:22:04Z</time>
      </trkpt>
      <trkpt lat="42.129323" lon="-0.371422">
        <ele>469.280</ele>
        <time>2020-08-23T17:22:06Z</time>
      </trkpt>
      <trkpt lat="42.129274" lon="-0.371444">
        <ele>469.129</ele>
        <time>2020-08-23T17:22:08Z</time>
      </trkpt>
      <trkpt lat="42.129220" lon="-0.371482">
        <ele>469.000</ele>
        <time>2020-08-23T17:22:11Z</time>
      </trkpt>
      <trkpt lat="42.129179" lon="-0.371543">
        <ele>469.120</ele>
        <time>2020-08-23T17:22:14Z</time>
      </trkpt>
      <trkpt lat="42.129135" lon="-0.371595">
        <ele>469.208</ele>
        <time>2020-08-23T17:22:17Z</time>
      </trkpt>
      <trkpt lat="42.129077" lon="-0.371628">
        <ele>469.117</ele>
        <time>2020-08-23T17:22:20Z</time>
      </trkpt>
      <trkpt lat="42.129019" lon="-0.371672">
        <ele>469.037</ele>
        <time>2020-08-23T17:22:23Z</time>
      </trkpt>
      <trkpt lat="42.128964" lon="-0.371695">
        <ele>468.925</ele>
        <time>2020-08-23T17:22:25Z</time>
      </trkpt>
      <trkpt lat="42.128903" lon="-0.371724">
        <ele>468.957</ele>
        <time>2020-08-23T17:22:27Z</time>
      </trkpt>
      <trkpt lat="42.128835" lon="-0.371750">
        <ele>468.818</ele>
        <time>2020-08-23T17:22:29Z</time>
      </trkpt>
      <trkpt lat="42.128754" lon="-0.371770">
        <ele>468.749</ele>
        <time>2020-08-23T17:22:31Z</time>
      </trkpt>
      <trkpt lat="42.128682" lon="-0.371791">
        <ele>468.735</ele>
        <time>2020-08-23T17:22:33Z</time>
      </trkpt>
      <trkpt lat="42.128624" lon="-0.371834">
        <ele>468.854</ele>
        <time>2020-08-23T17:22:36Z</time>
      </trkpt>
      <trkpt lat="42.128654" lon="-0.371881">
        <ele>468.625</ele>
        <time>2020-08-23T17:22:52Z</time>
      </trkpt>
      <trkpt lat="42.128663" lon="-0.371941">
        <ele>468.626</ele>
        <time>2020-08-23T17:22:59Z</time>
      </trkpt>
      <trkpt lat="42.128607" lon="-0.371978">
        <ele>468.508</ele>
        <time>2020-08-23T17:23:02Z</time>
      </trkpt>
      <trkpt lat="42.128546" lon="-0.371988">
        <ele>468.408</ele>
        <time>2020-08-23T17:23:04Z</time>
      </trkpt>
      <trkpt lat="42.128496" lon="-0.372022">
        <ele>468.417</ele>
        <time>2020-08-23T17:23:06Z</time>
      </trkpt>
      <trkpt lat="42.128448" lon="-0.372047">
        <ele>468.427</ele>
        <time>2020-08-23T17:23:08Z</time>
      </trkpt>
      <trkpt lat="42.128398" lon="-0.372049">
        <ele>468.665</ele>
        <time>2020-08-23T17:23:10Z</time>
      </trkpt>
      <trkpt lat="42.128341" lon="-0.372046">
        <ele>468.887</ele>
        <time>2020-08-23T17:23:12Z</time>
      </trkpt>
      <trkpt lat="42.128298" lon="-0.372067">
        <ele>468.938</ele>
        <time>2020-08-23T17:23:14Z</time>
      </trkpt>
      <trkpt lat="42.128230" lon="-0.372081">
        <ele>468.849</ele>
        <time>2020-08-23T17:23:16Z</time>
      </trkpt>
      <trkpt lat="42.128181" lon="-0.372089">
        <ele>468.785</ele>
        <time>2020-08-23T17:23:18Z</time>
      </trkpt>
      <trkpt lat="42.128129" lon="-0.372106">
        <ele>468.654</ele>
        <time>2020-08-23T17:23:21Z</time>
      </trkpt>
      <trkpt lat="42.128059" lon="-0.372115">
        <ele>468.521</ele>
        <time>2020-08-23T17:23:24Z</time>
      </trkpt>
      <trkpt lat="42.128012" lon="-0.372131">
        <ele>468.441</ele>
        <time>2020-08-23T17:23:26Z</time>
      </trkpt>
      <trkpt lat="42.127952" lon="-0.372118">
        <ele>468.305</ele>
        <time>2020-08-23T17:23:28Z</time>
      </trkpt>
      <trkpt lat="42.127884" lon="-0.372109">
        <ele>468.308</ele>
        <time>2020-08-23T17:23:30Z</time>
      </trkpt>
      <trkpt lat="42.127827" lon="-0.372124">
        <ele>468.497</ele>
        <time>2020-08-23T17:23:32Z</time>
      </trkpt>
      <trkpt lat="42.127770" lon="-0.372120">
        <ele>468.537</ele>
        <time>2020-08-23T17:23:34Z</time>
      </trkpt>
      <trkpt lat="42.127707" lon="-0.372155">
        <ele>468.535</ele>
        <time>2020-08-23T17:23:36Z</time>
      </trkpt>
      <trkpt lat="42.127650" lon="-0.372184">
        <ele>468.437</ele>
        <time>2020-08-23T17:23:38Z</time>
      </trkpt>
      <trkpt lat="42.127597" lon="-0.372157">
        <ele>468.478</ele>
        <time>2020-08-23T17:23:40Z</time>
      </trkpt>
      <trkpt lat="42.127543" lon="-0.372122">
        <ele>468.459</ele>
        <time>2020-08-23T17:23:42Z</time>
      </trkpt>
      <trkpt lat="42.127474" lon="-0.372132">
        <ele>468.595</ele>
        <time>2020-08-23T17:23:44Z</time>
      </trkpt>
      <trkpt lat="42.127402" lon="-0.372173">
        <ele>468.594</ele>
        <time>2020-08-23T17:23:46Z</time>
      </trkpt>
      <trkpt lat="42.127345" lon="-0.372205">
        <ele>468.512</ele>
        <time>2020-08-23T17:23:48Z</time>
      </trkpt>
      <trkpt lat="42.127294" lon="-0.372197">
        <ele>468.532</ele>
        <time>2020-08-23T17:23:50Z</time>
      </trkpt>
      <trkpt lat="42.127243" lon="-0.372223">
        <ele>468.405</ele>
        <time>2020-08-23T17:23:52Z</time>
      </trkpt>
      <trkpt lat="42.127181" lon="-0.372251">
        <ele>468.308</ele>
        <time>2020-08-23T17:23:54Z</time>
      </trkpt>
      <trkpt lat="42.127130" lon="-0.372274">
        <ele>468.256</ele>
        <time>2020-08-23T17:23:56Z</time>
      </trkpt>
      <trkpt lat="42.127065" lon="-0.372303">
        <ele>468.216</ele>
        <time>2020-08-23T17:23:58Z</time>
      </trkpt>
      <trkpt lat="42.127015" lon="-0.372363">
        <ele>468.284</ele>
        <time>2020-08-23T17:24:00Z</time>
      </trkpt>
      <trkpt lat="42.126984" lon="-0.372421">
        <ele>468.286</ele>
        <time>2020-08-23T17:24:02Z</time>
      </trkpt>
      <trkpt lat="42.126931" lon="-0.372450">
        <ele>468.127</ele>
        <time>2020-08-23T17:24:05Z</time>
      </trkpt>
      <trkpt lat="42.126862" lon="-0.372423">
        <ele>468.098</ele>
        <time>2020-08-23T17:24:07Z</time>
      </trkpt>
      <trkpt lat="42.126806" lon="-0.372422">
        <ele>467.964</ele>
        <time>2020-08-23T17:24:09Z</time>
      </trkpt>
      <trkpt lat="42.126728" lon="-0.372439">
        <ele>468.013</ele>
        <time>2020-08-23T17:24:11Z</time>
      </trkpt>
      <trkpt lat="42.126645" lon="-0.372435">
        <ele>468.266</ele>
        <time>2020-08-23T17:24:13Z</time>
      </trkpt>
      <trkpt lat="42.126591" lon="-0.372438">
        <ele>468.329</ele>
        <time>2020-08-23T17:24:15Z</time>
      </trkpt>
      <trkpt lat="42.126534" lon="-0.372432">
        <ele>468.221</ele>
        <time>2020-08-23T17:24:17Z</time>
      </trkpt>
      <trkpt lat="42.126486" lon="-0.372436">
        <ele>468.108</ele>
        <time>2020-08-23T17:24:19Z</time>
      </trkpt>
      <trkpt lat="42.126428" lon="-0.372446">
        <ele>468.061</ele>
        <time>2020-08-23T17:24:21Z</time>
      </trkpt>
      <trkpt lat="42.126354" lon="-0.372462">
        <ele>467.821</ele>
        <time>2020-08-23T17:24:23Z</time>
      </trkpt>
      <trkpt lat="42.126291" lon="-0.372477">
        <ele>467.659</ele>
        <time>2020-08-23T17:24:25Z</time>
      </trkpt>
      <trkpt lat="42.126227" lon="-0.372469">
        <ele>467.491</ele>
        <time>2020-08-23T17:24:27Z</time>
      </trkpt>
      <trkpt lat="42.126156" lon="-0.372483">
        <ele>467.382</ele>
        <time>2020-08-23T17:24:29Z</time>
      </trkpt>
      <trkpt lat="42.126083" lon="-0.372520">
        <ele>467.373</ele>
        <time>2020-08-23T17:24:31Z</time>
      </trkpt>
      <trkpt lat="42.126034" lon="-0.372550">
        <ele>467.459</ele>
        <time>2020-08-23T17:24:33Z</time>
      </trkpt>
      <trkpt lat="42.125995" lon="-0.372628">
        <ele>467.458</ele>
        <time>2020-08-23T17:24:35Z</time>
      </trkpt>
      <trkpt lat="42.125954" lon="-0.372715">
        <ele>467.447</ele>
        <time>2020-08-23T17:24:37Z</time>
      </trkpt>
      <trkpt lat="42.125914" lon="-0.372780">
        <ele>467.329</ele>
        <time>2020-08-23T17:24:39Z</time>
      </trkpt>
      <trkpt lat="42.125842" lon="-0.372814">
        <ele>467.121</ele>
        <time>2020-08-23T17:24:41Z</time>
      </trkpt>
      <trkpt lat="42.125770" lon="-0.372859">
        <ele>466.908</ele>
        <time>2020-08-23T17:24:43Z</time>
      </trkpt>
      <trkpt lat="42.125706" lon="-0.372907">
        <ele>466.979</ele>
        <time>2020-08-23T17:24:45Z</time>
      </trkpt>
      <trkpt lat="42.125673" lon="-0.372972">
        <ele>467.069</ele>
        <time>2020-08-23T17:24:47Z</time>
      </trkpt>
      <trkpt lat="42.125664" lon="-0.373047">
        <ele>466.947</ele>
        <time>2020-08-23T17:24:49Z</time>
      </trkpt>
      <trkpt lat="42.125641" lon="-0.373113">
        <ele>466.729</ele>
        <time>2020-08-23T17:24:51Z</time>
      </trkpt>
      <trkpt lat="42.125617" lon="-0.373186">
        <ele>466.620</ele>
        <time>2020-08-23T17:24:53Z</time>
      </trkpt>
      <trkpt lat="42.125590" lon="-0.373274">
        <ele>466.661</ele>
        <time>2020-08-23T17:24:55Z</time>
      </trkpt>
      <trkpt lat="42.125560" lon="-0.373331">
        <ele>466.677</ele>
        <time>2020-08-23T17:24:57Z</time>
      </trkpt>
      <trkpt lat="42.125527" lon="-0.373374">
        <ele>466.626</ele>
        <time>2020-08-23T17:24:59Z</time>
      </trkpt>
      <trkpt lat="42.125497" lon="-0.373421">
        <ele>467.352</ele>
        <time>2020-08-23T17:25:24Z</time>
      </trkpt>
      <trkpt lat="42.125491" lon="-0.373481">
        <ele>467.653</ele>
        <time>2020-08-23T17:25:30Z</time>
      </trkpt>
      <trkpt lat="42.125491" lon="-0.373417">
        <ele>467.208</ele>
        <time>2020-08-23T17:25:36Z</time>
      </trkpt>
      <trkpt lat="42.125457" lon="-0.373479">
        <ele>467.008</ele>
        <time>2020-08-23T17:25:54Z</time>
      </trkpt>
      <trkpt lat="42.125422" lon="-0.373531">
        <ele>466.730</ele>
        <time>2020-08-23T17:25:57Z</time>
      </trkpt>
      <trkpt lat="42.125408" lon="-0.373589">
        <ele>466.530</ele>
        <time>2020-08-23T17:25:59Z</time>
      </trkpt>
      <trkpt lat="42.125376" lon="-0.373655">
        <ele>466.578</ele>
        <time>2020-08-23T17:26:01Z</time>
      </trkpt>
      <trkpt lat="42.125341" lon="-0.373712">
        <ele>466.430</ele>
        <time>2020-08-23T17:26:03Z</time>
      </trkpt>
      <trkpt lat="42.125291" lon="-0.373770">
        <ele>466.481</ele>
        <time>2020-08-23T17:26:05Z</time>
      </trkpt>
      <trkpt lat="42.125261" lon="-0.373831">
        <ele>466.482</ele>
        <time>2020-08-23T17:26:07Z</time>
      </trkpt>
      <trkpt lat="42.125245" lon="-0.373915">
        <ele>466.468</ele>
        <time>2020-08-23T17:26:09Z</time>
      </trkpt>
      <trkpt lat="42.125215" lon="-0.373962">
        <ele>466.487</ele>
        <time>2020-08-23T17:26:11Z</time>
      </trkpt>
      <trkpt lat="42.125172" lon="-0.373994">
        <ele>466.333</ele>
        <time>2020-08-23T17:26:13Z</time>
      </trkpt>
      <trkpt lat="42.125133" lon="-0.374045">
        <ele>466.223</ele>
        <time>2020-08-23T17:26:15Z</time>
      </trkpt>
      <trkpt lat="42.125067" lon="-0.374115">
        <ele>466.215</ele>
        <time>2020-08-23T17:26:17Z</time>
      </trkpt>
      <trkpt lat="42.125034" lon="-0.374175">
        <ele>466.308</ele>
        <time>2020-08-23T17:26:19Z</time>
      </trkpt>
      <trkpt lat="42.125038" lon="-0.374238">
        <ele>466.318</ele>
        <time>2020-08-23T17:26:21Z</time>
      </trkpt>
      <trkpt lat="42.125044" lon="-0.374302">
        <ele>466.248</ele>
        <time>2020-08-23T17:26:23Z</time>
      </trkpt>
      <trkpt lat="42.125025" lon="-0.374374">
        <ele>466.216</ele>
        <time>2020-08-23T17:26:26Z</time>
      </trkpt>
      <trkpt lat="42.125056" lon="-0.374435">
        <ele>466.148</ele>
        <time>2020-08-23T17:26:29Z</time>
      </trkpt>
      <trkpt lat="42.125105" lon="-0.374398">
        <ele>466.019</ele>
        <time>2020-08-23T17:26:31Z</time>
      </trkpt>
      <trkpt lat="42.125136" lon="-0.374344">
        <ele>466.080</ele>
        <time>2020-08-23T17:26:33Z</time>
      </trkpt>
      <trkpt lat="42.125179" lon="-0.374288">
        <ele>466.136</ele>
        <time>2020-08-23T17:26:36Z</time>
      </trkpt>
      <trkpt lat="42.125232" lon="-0.374267">
        <ele>466.385</ele>
        <time>2020-08-23T17:26:39Z</time>
      </trkpt>
      <trkpt lat="42.125278" lon="-0.374277">
        <ele>466.449</ele>
        <time>2020-08-23T17:26:41Z</time>
      </trkpt>
      <trkpt lat="42.125328" lon="-0.374323">
        <ele>466.302</ele>
        <time>2020-08-23T17:26:43Z</time>
      </trkpt>
      <trkpt lat="42.125388" lon="-0.374379">
        <ele>466.222</ele>
        <time>2020-08-23T17:26:45Z</time>
      </trkpt>
      <trkpt lat="42.125464" lon="-0.374430">
        <ele>466.308</ele>
        <time>2020-08-23T17:26:47Z</time>
      </trkpt>
      <trkpt lat="42.125526" lon="-0.374466">
        <ele>466.539</ele>
        <time>2020-08-23T17:26:49Z</time>
      </trkpt>
      <trkpt lat="42.125593" lon="-0.374507">
        <ele>466.889</ele>
        <time>2020-08-23T17:26:51Z</time>
      </trkpt>
      <trkpt lat="42.125661" lon="-0.374566">
        <ele>467.017</ele>
        <time>2020-08-23T17:26:53Z</time>
      </trkpt>
      <trkpt lat="42.125725" lon="-0.374630">
        <ele>467.279</ele>
        <time>2020-08-23T17:26:55Z</time>
      </trkpt>
      <trkpt lat="42.125794" lon="-0.374682">
        <ele>467.370</ele>
        <time>2020-08-23T17:26:57Z</time>
      </trkpt>
      <trkpt lat="42.125870" lon="-0.374742">
        <ele>467.491</ele>
        <time>2020-08-23T17:26:59Z</time>
      </trkpt>
      <trkpt lat="42.125934" lon="-0.374797">
        <ele>467.547</ele>
        <time>2020-08-23T17:27:01Z</time>
      </trkpt>
      <trkpt lat="42.125999" lon="-0.374846">
        <ele>467.636</ele>
        <time>2020-08-23T17:27:03Z</time>
      </trkpt>
      <trkpt lat="42.126054" lon="-0.374885">
        <ele>467.767</ele>
        <time>2020-08-23T17:27:05Z</time>
      </trkpt>
      <trkpt lat="42.126111" lon="-0.374936">
        <ele>467.881</ele>
        <time>2020-08-23T17:27:07Z</time>
      </trkpt>
      <trkpt lat="42.126167" lon="-0.374974">
        <ele>468.019</ele>
        <time>2020-08-23T17:27:09Z</time>
      </trkpt>
      <trkpt lat="42.126224" lon="-0.375018">
        <ele>468.208</ele>
        <time>2020-08-23T17:27:11Z</time>
      </trkpt>
      <trkpt lat="42.126279" lon="-0.375074">
        <ele>468.461</ele>
        <time>2020-08-23T17:27:13Z</time>
      </trkpt>
      <trkpt lat="42.126327" lon="-0.375111">
        <ele>468.481</ele>
        <time>2020-08-23T17:27:15Z</time>
      </trkpt>
      <trkpt lat="42.126379" lon="-0.375125">
        <ele>468.649</ele>
        <time>2020-08-23T17:27:17Z</time>
      </trkpt>
      <trkpt lat="42.126435" lon="-0.375145">
        <ele>468.771</ele>
        <time>2020-08-23T17:27:19Z</time>
      </trkpt>
      <trkpt lat="42.126495" lon="-0.375186">
        <ele>468.852</ele>
        <time>2020-08-23T17:27:21Z</time>
      </trkpt>
      <trkpt lat="42.126557" lon="-0.375254">
        <ele>468.983</ele>
        <time>2020-08-23T17:27:23Z</time>
      </trkpt>
      <trkpt lat="42.126613" lon="-0.375323">
        <ele>469.219</ele>
        <time>2020-08-23T17:27:25Z</time>
      </trkpt>
      <trkpt lat="42.126676" lon="-0.375406">
        <ele>469.358</ele>
        <time>2020-08-23T17:27:27Z</time>
      </trkpt>
      <trkpt lat="42.126730" lon="-0.375468">
        <ele>469.323</ele>
        <time>2020-08-23T17:27:29Z</time>
      </trkpt>
      <trkpt lat="42.126806" lon="-0.375518">
        <ele>469.383</ele>
        <time>2020-08-23T17:27:31Z</time>
      </trkpt>
      <trkpt lat="42.126876" lon="-0.375576">
        <ele>469.411</ele>
        <time>2020-08-23T17:27:33Z</time>
      </trkpt>
      <trkpt lat="42.126940" lon="-0.375627">
        <ele>469.508</ele>
        <time>2020-08-23T17:27:35Z</time>
      </trkpt>
      <trkpt lat="42.126994" lon="-0.375681">
        <ele>469.747</ele>
        <time>2020-08-23T17:27:37Z</time>
      </trkpt>
      <trkpt lat="42.127061" lon="-0.375740">
        <ele>469.857</ele>
        <time>2020-08-23T17:27:39Z</time>
      </trkpt>
      <trkpt lat="42.127139" lon="-0.375793">
        <ele>469.995</ele>
        <time>2020-08-23T17:27:41Z</time>
      </trkpt>
      <trkpt lat="42.127196" lon="-0.375867">
        <ele>469.917</ele>
        <time>2020-08-23T17:27:43Z</time>
      </trkpt>
      <trkpt lat="42.127247" lon="-0.375952">
        <ele>470.098</ele>
        <time>2020-08-23T17:27:45Z</time>
      </trkpt>
      <trkpt lat="42.127279" lon="-0.376027">
        <ele>470.119</ele>
        <time>2020-08-23T17:27:47Z</time>
      </trkpt>
      <trkpt lat="42.127295" lon="-0.376084">
        <ele>470.145</ele>
        <time>2020-08-23T17:27:48Z</time>
      </trkpt>
      <trkpt lat="42.127303" lon="-0.376178">
        <ele>470.234</ele>
        <time>2020-08-23T17:27:50Z</time>
      </trkpt>
      <trkpt lat="42.127307" lon="-0.376279">
        <ele>470.427</ele>
        <time>2020-08-23T17:27:52Z</time>
      </trkpt>
      <trkpt lat="42.127311" lon="-0.376371">
        <ele>470.768</ele>
        <time>2020-08-23T17:27:54Z</time>
      </trkpt>
      <trkpt lat="42.127304" lon="-0.376454">
        <ele>471.014</ele>
        <time>2020-08-23T17:27:56Z</time>
      </trkpt>
      <trkpt lat="42.127287" lon="-0.376511">
        <ele>471.208</ele>
        <time>2020-08-23T17:27:58Z</time>
      </trkpt>
      <trkpt lat="42.127265" lon="-0.376574">
        <ele>471.417</ele>
        <time>2020-08-23T17:28:00Z</time>
      </trkpt>
      <trkpt lat="42.127228" lon="-0.376630">
        <ele>471.677</ele>
        <time>2020-08-23T17:28:02Z</time>
      </trkpt>
      <trkpt lat="42.127208" lon="-0.376691">
        <ele>471.945</ele>
        <time>2020-08-23T17:28:04Z</time>
      </trkpt>
      <trkpt lat="42.127214" lon="-0.376754">
        <ele>472.827</ele>
        <time>2020-08-23T17:28:07Z</time>
      </trkpt>
      <trkpt lat="42.127239" lon="-0.376805">
        <ele>473.698</ele>
        <time>2020-08-23T17:28:10Z</time>
      </trkpt>
      <trkpt lat="42.127282" lon="-0.376864">
        <ele>474.219</ele>
        <time>2020-08-23T17:28:13Z</time>
      </trkpt>
      <trkpt lat="42.127326" lon="-0.376921">
        <ele>474.515</ele>
        <time>2020-08-23T17:28:16Z</time>
      </trkpt>
      <trkpt lat="42.127358" lon="-0.376989">
        <ele>474.564</ele>
        <time>2020-08-23T17:28:18Z</time>
      </trkpt>
      <trkpt lat="42.127389" lon="-0.377069">
        <ele>474.552</ele>
        <time>2020-08-23T17:28:20Z</time>
      </trkpt>
      <trkpt lat="42.127423" lon="-0.377152">
        <ele>474.553</ele>
        <time>2020-08-23T17:28:22Z</time>
      </trkpt>
      <trkpt lat="42.127452" lon="-0.377235">
        <ele>474.508</ele>
        <time>2020-08-23T17:28:24Z</time>
      </trkpt>
      <trkpt lat="42.127489" lon="-0.377340">
        <ele>474.508</ele>
        <time>2020-08-23T17:28:26Z</time>
      </trkpt>
      <trkpt lat="42.127530" lon="-0.377441">
        <ele>474.540</ele>
        <time>2020-08-23T17:28:28Z</time>
      </trkpt>
      <trkpt lat="42.127561" lon="-0.377552">
        <ele>474.510</ele>
        <time>2020-08-23T17:28:30Z</time>
      </trkpt>
      <trkpt lat="42.127578" lon="-0.377610">
        <ele>474.538</ele>
        <time>2020-08-23T17:28:31Z</time>
      </trkpt>
      <trkpt lat="42.127597" lon="-0.377667">
        <ele>474.550</ele>
        <time>2020-08-23T17:28:32Z</time>
      </trkpt>
      <trkpt lat="42.127617" lon="-0.377725">
        <ele>474.621</ele>
        <time>2020-08-23T17:28:33Z</time>
      </trkpt>
      <trkpt lat="42.127637" lon="-0.377788">
        <ele>474.652</ele>
        <time>2020-08-23T17:28:34Z</time>
      </trkpt>
      <trkpt lat="42.127652" lon="-0.377848">
        <ele>474.668</ele>
        <time>2020-08-23T17:28:35Z</time>
      </trkpt>
      <trkpt lat="42.127678" lon="-0.377955">
        <ele>474.667</ele>
        <time>2020-08-23T17:28:37Z</time>
      </trkpt>
      <trkpt lat="42.127709" lon="-0.378070">
        <ele>474.558</ele>
        <time>2020-08-23T17:28:39Z</time>
      </trkpt>
      <trkpt lat="42.127726" lon="-0.378134">
        <ele>474.452</ele>
        <time>2020-08-23T17:28:40Z</time>
      </trkpt>
      <trkpt lat="42.127741" lon="-0.378194">
        <ele>474.417</ele>
        <time>2020-08-23T17:28:41Z</time>
      </trkpt>
      <trkpt lat="42.127765" lon="-0.378301">
        <ele>474.308</ele>
        <time>2020-08-23T17:28:43Z</time>
      </trkpt>
      <trkpt lat="42.127799" lon="-0.378419">
        <ele>474.380</ele>
        <time>2020-08-23T17:28:45Z</time>
      </trkpt>
      <trkpt lat="42.127833" lon="-0.378525">
        <ele>474.480</ele>
        <time>2020-08-23T17:28:47Z</time>
      </trkpt>
      <trkpt lat="42.127867" lon="-0.378613">
        <ele>474.658</ele>
        <time>2020-08-23T17:28:49Z</time>
      </trkpt>
      <trkpt lat="42.127885" lon="-0.378726">
        <ele>474.590</ele>
        <time>2020-08-23T17:28:51Z</time>
      </trkpt>
      <trkpt lat="42.127915" lon="-0.378839">
        <ele>474.241</ele>
        <time>2020-08-23T17:28:53Z</time>
      </trkpt>
      <trkpt lat="42.127936" lon="-0.378894">
        <ele>474.132</ele>
        <time>2020-08-23T17:28:54Z</time>
      </trkpt>
      <trkpt lat="42.127966" lon="-0.379000">
        <ele>474.118</ele>
        <time>2020-08-23T17:28:56Z</time>
      </trkpt>
      <trkpt lat="42.127989" lon="-0.379106">
        <ele>474.347</ele>
        <time>2020-08-23T17:28:58Z</time>
      </trkpt>
      <trkpt lat="42.128000" lon="-0.379169">
        <ele>474.418</ele>
        <time>2020-08-23T17:28:59Z</time>
      </trkpt>
      <trkpt lat="42.128015" lon="-0.379236">
        <ele>474.598</ele>
        <time>2020-08-23T17:29:00Z</time>
      </trkpt>
      <trkpt lat="42.128033" lon="-0.379294">
        <ele>474.617</ele>
        <time>2020-08-23T17:29:01Z</time>
      </trkpt>
      <trkpt lat="42.128057" lon="-0.379354">
        <ele>474.708</ele>
        <time>2020-08-23T17:29:02Z</time>
      </trkpt>
      <trkpt lat="42.128081" lon="-0.379417">
        <ele>474.746</ele>
        <time>2020-08-23T17:29:03Z</time>
      </trkpt>
      <trkpt lat="42.128103" lon="-0.379471">
        <ele>474.736</ele>
        <time>2020-08-23T17:29:04Z</time>
      </trkpt>
      <trkpt lat="42.128140" lon="-0.379577">
        <ele>474.724</ele>
        <time>2020-08-23T17:29:06Z</time>
      </trkpt>
      <trkpt lat="42.128152" lon="-0.379638">
        <ele>474.726</ele>
        <time>2020-08-23T17:29:07Z</time>
      </trkpt>
      <trkpt lat="42.128153" lon="-0.379704">
        <ele>474.627</ele>
        <time>2020-08-23T17:29:08Z</time>
      </trkpt>
      <trkpt lat="42.128151" lon="-0.379770">
        <ele>474.588</ele>
        <time>2020-08-23T17:29:09Z</time>
      </trkpt>
      <trkpt lat="42.128155" lon="-0.379837">
        <ele>474.494</ele>
        <time>2020-08-23T17:29:10Z</time>
      </trkpt>
      <trkpt lat="42.128164" lon="-0.379897">
        <ele>474.493</ele>
        <time>2020-08-23T17:29:11Z</time>
      </trkpt>
      <trkpt lat="42.128176" lon="-0.379957">
        <ele>474.431</ele>
        <time>2020-08-23T17:29:12Z</time>
      </trkpt>
      <trkpt lat="42.128187" lon="-0.380019">
        <ele>474.561</ele>
        <time>2020-08-23T17:29:13Z</time>
      </trkpt>
      <trkpt lat="42.128203" lon="-0.380083">
        <ele>474.607</ele>
        <time>2020-08-23T17:29:14Z</time>
      </trkpt>
      <trkpt lat="42.128221" lon="-0.380146">
        <ele>474.608</ele>
        <time>2020-08-23T17:29:15Z</time>
      </trkpt>
      <trkpt lat="42.128235" lon="-0.380206">
        <ele>474.538</ele>
        <time>2020-08-23T17:29:16Z</time>
      </trkpt>
      <trkpt lat="42.128249" lon="-0.380267">
        <ele>474.468</ele>
        <time>2020-08-23T17:29:17Z</time>
      </trkpt>
      <trkpt lat="42.128260" lon="-0.380330">
        <ele>474.376</ele>
        <time>2020-08-23T17:29:18Z</time>
      </trkpt>
      <trkpt lat="42.128269" lon="-0.380398">
        <ele>474.238</ele>
        <time>2020-08-23T17:29:19Z</time>
      </trkpt>
      <trkpt lat="42.128275" lon="-0.380464">
        <ele>474.219</ele>
        <time>2020-08-23T17:29:20Z</time>
      </trkpt>
      <trkpt lat="42.128285" lon="-0.380524">
        <ele>474.360</ele>
        <time>2020-08-23T17:29:21Z</time>
      </trkpt>
      <trkpt lat="42.128308" lon="-0.380636">
        <ele>474.316</ele>
        <time>2020-08-23T17:29:23Z</time>
      </trkpt>
      <trkpt lat="42.128317" lon="-0.380761">
        <ele>474.235</ele>
        <time>2020-08-23T17:29:25Z</time>
      </trkpt>
      <trkpt lat="42.128320" lon="-0.380828">
        <ele>474.061</ele>
        <time>2020-08-23T17:29:26Z</time>
      </trkpt>
      <trkpt lat="42.128330" lon="-0.380894">
        <ele>473.921</ele>
        <time>2020-08-23T17:29:27Z</time>
      </trkpt>
      <trkpt lat="42.128338" lon="-0.380959">
        <ele>473.913</ele>
        <time>2020-08-23T17:29:28Z</time>
      </trkpt>
      <trkpt lat="42.128333" lon="-0.381021">
        <ele>473.908</ele>
        <time>2020-08-23T17:29:29Z</time>
      </trkpt>
      <trkpt lat="42.128329" lon="-0.381088">
        <ele>474.011</ele>
        <time>2020-08-23T17:29:30Z</time>
      </trkpt>
      <trkpt lat="42.128327" lon="-0.381150">
        <ele>474.021</ele>
        <time>2020-08-23T17:29:31Z</time>
      </trkpt>
      <trkpt lat="42.128335" lon="-0.381214">
        <ele>474.159</ele>
        <time>2020-08-23T17:29:32Z</time>
      </trkpt>
      <trkpt lat="42.128333" lon="-0.381281">
        <ele>474.161</ele>
        <time>2020-08-23T17:29:33Z</time>
      </trkpt>
      <trkpt lat="42.128334" lon="-0.381358">
        <ele>474.252</ele>
        <time>2020-08-23T17:29:34Z</time>
      </trkpt>
      <trkpt lat="42.128343" lon="-0.381425">
        <ele>474.293</ele>
        <time>2020-08-23T17:29:35Z</time>
      </trkpt>
      <trkpt lat="42.128347" lon="-0.381486">
        <ele>474.279</ele>
        <time>2020-08-23T17:29:36Z</time>
      </trkpt>
      <trkpt lat="42.128345" lon="-0.381550">
        <ele>474.138</ele>
        <time>2020-08-23T17:29:37Z</time>
      </trkpt>
      <trkpt lat="42.128345" lon="-0.381623">
        <ele>474.167</ele>
        <time>2020-08-23T17:29:38Z</time>
      </trkpt>
      <trkpt lat="42.128347" lon="-0.381695">
        <ele>473.981</ele>
        <time>2020-08-23T17:29:39Z</time>
      </trkpt>
      <trkpt lat="42.128354" lon="-0.381760">
        <ele>473.919</ele>
        <time>2020-08-23T17:29:40Z</time>
      </trkpt>
      <trkpt lat="42.128369" lon="-0.381822">
        <ele>474.008</ele>
        <time>2020-08-23T17:29:41Z</time>
      </trkpt>
      <trkpt lat="42.128384" lon="-0.381891">
        <ele>474.191</ele>
        <time>2020-08-23T17:29:42Z</time>
      </trkpt>
      <trkpt lat="42.128395" lon="-0.381953">
        <ele>474.251</ele>
        <time>2020-08-23T17:29:43Z</time>
      </trkpt>
      <trkpt lat="42.128402" lon="-0.382016">
        <ele>474.369</ele>
        <time>2020-08-23T17:29:44Z</time>
      </trkpt>
      <trkpt lat="42.128412" lon="-0.382132">
        <ele>474.321</ele>
        <time>2020-08-23T17:29:46Z</time>
      </trkpt>
      <trkpt lat="42.128414" lon="-0.382195">
        <ele>474.342</ele>
        <time>2020-08-23T17:29:47Z</time>
      </trkpt>
      <trkpt lat="42.128423" lon="-0.382261">
        <ele>474.373</ele>
        <time>2020-08-23T17:29:48Z</time>
      </trkpt>
      <trkpt lat="42.128425" lon="-0.382323">
        <ele>474.229</ele>
        <time>2020-08-23T17:29:49Z</time>
      </trkpt>
      <trkpt lat="42.128425" lon="-0.382393">
        <ele>474.238</ele>
        <time>2020-08-23T17:29:50Z</time>
      </trkpt>
      <trkpt lat="42.128443" lon="-0.382508">
        <ele>474.223</ele>
        <time>2020-08-23T17:29:52Z</time>
      </trkpt>
      <trkpt lat="42.128462" lon="-0.382624">
        <ele>474.183</ele>
        <time>2020-08-23T17:29:54Z</time>
      </trkpt>
      <trkpt lat="42.128468" lon="-0.382687">
        <ele>474.111</ele>
        <time>2020-08-23T17:29:55Z</time>
      </trkpt>
      <trkpt lat="42.128492" lon="-0.382799">
        <ele>474.108</ele>
        <time>2020-08-23T17:29:57Z</time>
      </trkpt>
      <trkpt lat="42.128506" lon="-0.382860">
        <ele>474.157</ele>
        <time>2020-08-23T17:29:58Z</time>
      </trkpt>
      <trkpt lat="42.128528" lon="-0.382978">
        <ele>474.287</ele>
        <time>2020-08-23T17:30:00Z</time>
      </trkpt>
      <trkpt lat="42.128536" lon="-0.383039">
        <ele>474.225</ele>
        <time>2020-08-23T17:30:01Z</time>
      </trkpt>
      <trkpt lat="42.128553" lon="-0.383160">
        <ele>474.347</ele>
        <time>2020-08-23T17:30:03Z</time>
      </trkpt>
      <trkpt lat="42.128563" lon="-0.383225">
        <ele>474.468</ele>
        <time>2020-08-23T17:30:04Z</time>
      </trkpt>
      <trkpt lat="42.128574" lon="-0.383288">
        <ele>474.539</ele>
        <time>2020-08-23T17:30:05Z</time>
      </trkpt>
      <trkpt lat="42.128587" lon="-0.383351">
        <ele>474.525</ele>
        <time>2020-08-23T17:30:06Z</time>
      </trkpt>
      <trkpt lat="42.128605" lon="-0.383408">
        <ele>474.574</ele>
        <time>2020-08-23T17:30:07Z</time>
      </trkpt>
      <trkpt lat="42.128621" lon="-0.383467">
        <ele>474.527</ele>
        <time>2020-08-23T17:30:08Z</time>
      </trkpt>
      <trkpt lat="42.128635" lon="-0.383525">
        <ele>474.568</ele>
        <time>2020-08-23T17:30:09Z</time>
      </trkpt>
      <trkpt lat="42.128651" lon="-0.383588">
        <ele>474.514</ele>
        <time>2020-08-23T17:30:10Z</time>
      </trkpt>
      <trkpt lat="42.128668" lon="-0.383653">
        <ele>474.508</ele>
        <time>2020-08-23T17:30:11Z</time>
      </trkpt>
      <trkpt lat="42.128681" lon="-0.383711">
        <ele>474.617</ele>
        <time>2020-08-23T17:30:12Z</time>
      </trkpt>
      <trkpt lat="42.128695" lon="-0.383773">
        <ele>474.727</ele>
        <time>2020-08-23T17:30:13Z</time>
      </trkpt>
      <trkpt lat="42.128707" lon="-0.383832">
        <ele>474.835</ele>
        <time>2020-08-23T17:30:14Z</time>
      </trkpt>
      <trkpt lat="42.128736" lon="-0.383946">
        <ele>474.937</ele>
        <time>2020-08-23T17:30:16Z</time>
      </trkpt>
      <trkpt lat="42.128756" lon="-0.384003">
        <ele>474.988</ele>
        <time>2020-08-23T17:30:17Z</time>
      </trkpt>
      <trkpt lat="42.128775" lon="-0.384062">
        <ele>474.959</ele>
        <time>2020-08-23T17:30:18Z</time>
      </trkpt>
      <trkpt lat="42.128796" lon="-0.384121">
        <ele>474.945</ele>
        <time>2020-08-23T17:30:19Z</time>
      </trkpt>
      <trkpt lat="42.128815" lon="-0.384180">
        <ele>474.944</ele>
        <time>2020-08-23T17:30:20Z</time>
      </trkpt>
      <trkpt lat="42.128835" lon="-0.384237">
        <ele>475.042</ele>
        <time>2020-08-23T17:30:21Z</time>
      </trkpt>
      <trkpt lat="42.128864" lon="-0.384354">
        <ele>475.122</ele>
        <time>2020-08-23T17:30:23Z</time>
      </trkpt>
      <trkpt lat="42.128880" lon="-0.384470">
        <ele>475.214</ele>
        <time>2020-08-23T17:30:25Z</time>
      </trkpt>
      <trkpt lat="42.128897" lon="-0.384532">
        <ele>475.208</ele>
        <time>2020-08-23T17:30:26Z</time>
      </trkpt>
      <trkpt lat="42.128912" lon="-0.384597">
        <ele>475.289</ele>
        <time>2020-08-23T17:30:27Z</time>
      </trkpt>
      <trkpt lat="42.128924" lon="-0.384665">
        <ele>475.269</ele>
        <time>2020-08-23T17:30:28Z</time>
      </trkpt>
      <trkpt lat="42.128937" lon="-0.384737">
        <ele>475.387</ele>
        <time>2020-08-23T17:30:29Z</time>
      </trkpt>
      <trkpt lat="42.128947" lon="-0.384801">
        <ele>475.419</ele>
        <time>2020-08-23T17:30:30Z</time>
      </trkpt>
      <trkpt lat="42.128956" lon="-0.384905">
        <ele>475.750</ele>
        <time>2020-08-23T17:30:32Z</time>
      </trkpt>
      <trkpt lat="42.128956" lon="-0.385023">
        <ele>475.831</ele>
        <time>2020-08-23T17:30:34Z</time>
      </trkpt>
      <trkpt lat="42.128935" lon="-0.385140">
        <ele>475.767</ele>
        <time>2020-08-23T17:30:36Z</time>
      </trkpt>
      <trkpt lat="42.128922" lon="-0.385200">
        <ele>475.776</ele>
        <time>2020-08-23T17:30:37Z</time>
      </trkpt>
      <trkpt lat="42.128915" lon="-0.385264">
        <ele>475.828</ele>
        <time>2020-08-23T17:30:38Z</time>
      </trkpt>
      <trkpt lat="42.128904" lon="-0.385333">
        <ele>475.889</ele>
        <time>2020-08-23T17:30:39Z</time>
      </trkpt>
      <trkpt lat="42.128891" lon="-0.385405">
        <ele>475.817</ele>
        <time>2020-08-23T17:30:40Z</time>
      </trkpt>
      <trkpt lat="42.128881" lon="-0.385466">
        <ele>475.708</ele>
        <time>2020-08-23T17:30:41Z</time>
      </trkpt>
      <trkpt lat="42.128872" lon="-0.385527">
        <ele>475.667</ele>
        <time>2020-08-23T17:30:42Z</time>
      </trkpt>
      <trkpt lat="42.128862" lon="-0.385586">
        <ele>475.417</ele>
        <time>2020-08-23T17:30:43Z</time>
      </trkpt>
      <trkpt lat="42.128849" lon="-0.385650">
        <ele>475.335</ele>
        <time>2020-08-23T17:30:44Z</time>
      </trkpt>
      <trkpt lat="42.128838" lon="-0.385713">
        <ele>475.387</ele>
        <time>2020-08-23T17:30:45Z</time>
      </trkpt>
      <trkpt lat="42.128832" lon="-0.385776">
        <ele>475.478</ele>
        <time>2020-08-23T17:30:46Z</time>
      </trkpt>
      <trkpt lat="42.128823" lon="-0.385840">
        <ele>475.559</ele>
        <time>2020-08-23T17:30:47Z</time>
      </trkpt>
      <trkpt lat="42.128816" lon="-0.385908">
        <ele>475.585</ele>
        <time>2020-08-23T17:30:48Z</time>
      </trkpt>
      <trkpt lat="42.128808" lon="-0.385972">
        <ele>475.594</ele>
        <time>2020-08-23T17:30:49Z</time>
      </trkpt>
      <trkpt lat="42.128802" lon="-0.386034">
        <ele>475.451</ele>
        <time>2020-08-23T17:30:50Z</time>
      </trkpt>
      <trkpt lat="42.128798" lon="-0.386096">
        <ele>475.301</ele>
        <time>2020-08-23T17:30:51Z</time>
      </trkpt>
      <trkpt lat="42.128795" lon="-0.386158">
        <ele>475.211</ele>
        <time>2020-08-23T17:30:52Z</time>
      </trkpt>
      <trkpt lat="42.128793" lon="-0.386274">
        <ele>475.208</ele>
        <time>2020-08-23T17:30:54Z</time>
      </trkpt>
      <trkpt lat="42.128800" lon="-0.386378">
        <ele>475.230</ele>
        <time>2020-08-23T17:30:56Z</time>
      </trkpt>
      <trkpt lat="42.128798" lon="-0.386439">
        <ele>475.340</ele>
        <time>2020-08-23T17:30:57Z</time>
      </trkpt>
      <trkpt lat="42.128787" lon="-0.386507">
        <ele>475.478</ele>
        <time>2020-08-23T17:30:58Z</time>
      </trkpt>
      <trkpt lat="42.128780" lon="-0.386584">
        <ele>475.430</ele>
        <time>2020-08-23T17:30:59Z</time>
      </trkpt>
      <trkpt lat="42.128779" lon="-0.386647">
        <ele>475.471</ele>
        <time>2020-08-23T17:31:00Z</time>
      </trkpt>
      <trkpt lat="42.128783" lon="-0.386765">
        <ele>475.432</ele>
        <time>2020-08-23T17:31:02Z</time>
      </trkpt>
      <trkpt lat="42.128783" lon="-0.386826">
        <ele>475.488</ele>
        <time>2020-08-23T17:31:03Z</time>
      </trkpt>
      <trkpt lat="42.128782" lon="-0.386890">
        <ele>475.467</ele>
        <time>2020-08-23T17:31:04Z</time>
      </trkpt>
      <trkpt lat="42.128781" lon="-0.386958">
        <ele>475.411</ele>
        <time>2020-08-23T17:31:05Z</time>
      </trkpt>
      <trkpt lat="42.128782" lon="-0.387027">
        <ele>475.421</ele>
        <time>2020-08-23T17:31:06Z</time>
      </trkpt>
      <trkpt lat="42.128781" lon="-0.387144">
        <ele>475.603</ele>
        <time>2020-08-23T17:31:08Z</time>
      </trkpt>
      <trkpt lat="42.128780" lon="-0.387205">
        <ele>475.708</ele>
        <time>2020-08-23T17:31:09Z</time>
      </trkpt>
      <trkpt lat="42.128776" lon="-0.387275">
        <ele>475.856</ele>
        <time>2020-08-23T17:31:10Z</time>
      </trkpt>
      <trkpt lat="42.128771" lon="-0.387343">
        <ele>475.876</ele>
        <time>2020-08-23T17:31:11Z</time>
      </trkpt>
      <trkpt lat="42.128767" lon="-0.387409">
        <ele>475.894</ele>
        <time>2020-08-23T17:31:12Z</time>
      </trkpt>
      <trkpt lat="42.128760" lon="-0.387470">
        <ele>475.726</ele>
        <time>2020-08-23T17:31:13Z</time>
      </trkpt>
      <trkpt lat="42.128753" lon="-0.387533">
        <ele>475.717</ele>
        <time>2020-08-23T17:31:14Z</time>
      </trkpt>
      <trkpt lat="42.128747" lon="-0.387593">
        <ele>475.718</ele>
        <time>2020-08-23T17:31:15Z</time>
      </trkpt>
      <trkpt lat="42.128730" lon="-0.387709">
        <ele>476.014</ele>
        <time>2020-08-23T17:31:17Z</time>
      </trkpt>
      <trkpt lat="42.128726" lon="-0.387820">
        <ele>476.643</ele>
        <time>2020-08-23T17:31:19Z</time>
      </trkpt>
      <trkpt lat="42.128720" lon="-0.387884">
        <ele>476.883</ele>
        <time>2020-08-23T17:31:20Z</time>
      </trkpt>
      <trkpt lat="42.128712" lon="-0.387986">
        <ele>477.325</ele>
        <time>2020-08-23T17:31:22Z</time>
      </trkpt>
      <trkpt lat="42.128716" lon="-0.388070">
        <ele>477.417</ele>
        <time>2020-08-23T17:31:24Z</time>
      </trkpt>
      <trkpt lat="42.128704" lon="-0.388191">
        <ele>477.108</ele>
        <time>2020-08-23T17:31:26Z</time>
      </trkpt>
      <trkpt lat="42.128692" lon="-0.388252">
        <ele>476.923</ele>
        <time>2020-08-23T17:31:27Z</time>
      </trkpt>
      <trkpt lat="42.128682" lon="-0.388317">
        <ele>476.713</ele>
        <time>2020-08-23T17:31:28Z</time>
      </trkpt>
      <trkpt lat="42.128675" lon="-0.388379">
        <ele>476.551</ele>
        <time>2020-08-23T17:31:29Z</time>
      </trkpt>
      <trkpt lat="42.128670" lon="-0.388441">
        <ele>476.473</ele>
        <time>2020-08-23T17:31:30Z</time>
      </trkpt>
      <trkpt lat="42.128666" lon="-0.388509">
        <ele>476.374</ele>
        <time>2020-08-23T17:31:31Z</time>
      </trkpt>
      <trkpt lat="42.128668" lon="-0.388576">
        <ele>476.315</ele>
        <time>2020-08-23T17:31:32Z</time>
      </trkpt>
      <trkpt lat="42.128666" lon="-0.388638">
        <ele>476.151</ele>
        <time>2020-08-23T17:31:33Z</time>
      </trkpt>
      <trkpt lat="42.128645" lon="-0.388744">
        <ele>476.080</ele>
        <time>2020-08-23T17:31:35Z</time>
      </trkpt>
      <trkpt lat="42.128647" lon="-0.388818">
        <ele>475.822</ele>
        <time>2020-08-23T17:31:36Z</time>
      </trkpt>
      <trkpt lat="42.128647" lon="-0.388886">
        <ele>475.662</ele>
        <time>2020-08-23T17:31:37Z</time>
      </trkpt>
      <trkpt lat="42.128650" lon="-0.388952">
        <ele>475.508</ele>
        <time>2020-08-23T17:31:38Z</time>
      </trkpt>
      <trkpt lat="42.128652" lon="-0.389018">
        <ele>475.308</ele>
        <time>2020-08-23T17:31:39Z</time>
      </trkpt>
      <trkpt lat="42.128652" lon="-0.389089">
        <ele>475.387</ele>
        <time>2020-08-23T17:31:40Z</time>
      </trkpt>
      <trkpt lat="42.128654" lon="-0.389160">
        <ele>475.217</ele>
        <time>2020-08-23T17:31:41Z</time>
      </trkpt>
      <trkpt lat="42.128655" lon="-0.389233">
        <ele>475.215</ele>
        <time>2020-08-23T17:31:42Z</time>
      </trkpt>
      <trkpt lat="42.128650" lon="-0.389360">
        <ele>475.167</ele>
        <time>2020-08-23T17:31:44Z</time>
      </trkpt>
      <trkpt lat="42.128648" lon="-0.389435">
        <ele>474.938</ele>
        <time>2020-08-23T17:31:45Z</time>
      </trkpt>
      <trkpt lat="42.128650" lon="-0.389509">
        <ele>474.839</ele>
        <time>2020-08-23T17:31:46Z</time>
      </trkpt>
      <trkpt lat="42.128657" lon="-0.389583">
        <ele>474.555</ele>
        <time>2020-08-23T17:31:47Z</time>
      </trkpt>
      <trkpt lat="42.128662" lon="-0.389658">
        <ele>474.434</ele>
        <time>2020-08-23T17:31:48Z</time>
      </trkpt>
      <trkpt lat="42.128672" lon="-0.389737">
        <ele>474.446</ele>
        <time>2020-08-23T17:31:49Z</time>
      </trkpt>
      <trkpt lat="42.128673" lon="-0.389817">
        <ele>474.488</ele>
        <time>2020-08-23T17:31:50Z</time>
      </trkpt>
      <trkpt lat="42.128676" lon="-0.389895">
        <ele>474.416</ele>
        <time>2020-08-23T17:31:51Z</time>
      </trkpt>
      <trkpt lat="42.128682" lon="-0.389966">
        <ele>474.608</ele>
        <time>2020-08-23T17:31:52Z</time>
      </trkpt>
      <trkpt lat="42.128687" lon="-0.390037">
        <ele>474.669</ele>
        <time>2020-08-23T17:31:53Z</time>
      </trkpt>
      <trkpt lat="42.128689" lon="-0.390110">
        <ele>474.639</ele>
        <time>2020-08-23T17:31:54Z</time>
      </trkpt>
      <trkpt lat="42.128674" lon="-0.390218">
        <ele>474.537</ele>
        <time>2020-08-23T17:31:56Z</time>
      </trkpt>
      <trkpt lat="42.128666" lon="-0.390289">
        <ele>474.479</ele>
        <time>2020-08-23T17:31:58Z</time>
      </trkpt>
      <trkpt lat="42.128620" lon="-0.390293">
        <ele>474.430</ele>
        <time>2020-08-23T17:32:04Z</time>
      </trkpt>
      <trkpt lat="42.128582" lon="-0.390327">
        <ele>474.461</ele>
        <time>2020-08-23T17:32:12Z</time>
      </trkpt>
      <trkpt lat="42.128620" lon="-0.390368">
        <ele>474.557</ele>
        <time>2020-08-23T17:32:27Z</time>
      </trkpt>
      <trkpt lat="42.128658" lon="-0.390410">
        <ele>474.756</ele>
        <time>2020-08-23T17:32:32Z</time>
      </trkpt>
      <trkpt lat="42.128694" lon="-0.390448">
        <ele>475.171</ele>
        <time>2020-08-23T17:32:40Z</time>
      </trkpt>
      <trkpt lat="42.128654" lon="-0.390397">
        <ele>474.741</ele>
        <time>2020-08-23T17:32:56Z</time>
      </trkpt>
      <trkpt lat="42.128623" lon="-0.390352">
        <ele>474.615</ele>
        <time>2020-08-23T17:32:59Z</time>
      </trkpt>
      <trkpt lat="42.128589" lon="-0.390308">
        <ele>474.908</ele>
        <time>2020-08-23T17:33:12Z</time>
      </trkpt>
      <trkpt lat="42.128542" lon="-0.390299">
        <ele>474.992</ele>
        <time>2020-08-23T17:33:16Z</time>
      </trkpt>
      <trkpt lat="42.128491" lon="-0.390285">
        <ele>474.732</ele>
        <time>2020-08-23T17:33:23Z</time>
      </trkpt>
      <trkpt lat="42.128542" lon="-0.390281">
        <ele>474.550</ele>
        <time>2020-08-23T17:33:39Z</time>
      </trkpt>
      <trkpt lat="42.128591" lon="-0.390304">
        <ele>474.532</ele>
        <time>2020-08-23T17:33:46Z</time>
      </trkpt>
      <trkpt lat="42.128608" lon="-0.390397">
        <ele>474.853</ele>
        <time>2020-08-23T17:33:49Z</time>
      </trkpt>
      <trkpt lat="42.128600" lon="-0.390496">
        <ele>475.014</ele>
        <time>2020-08-23T17:33:51Z</time>
      </trkpt>
      <trkpt lat="42.128617" lon="-0.390582">
        <ele>475.130</ele>
        <time>2020-08-23T17:33:53Z</time>
      </trkpt>
      <trkpt lat="42.128637" lon="-0.390673">
        <ele>475.479</ele>
        <time>2020-08-23T17:33:55Z</time>
      </trkpt>
      <trkpt lat="42.128649" lon="-0.390775">
        <ele>475.486</ele>
        <time>2020-08-23T17:33:57Z</time>
      </trkpt>
      <trkpt lat="42.128665" lon="-0.390882">
        <ele>475.660</ele>
        <time>2020-08-23T17:33:59Z</time>
      </trkpt>
      <trkpt lat="42.128682" lon="-0.390993">
        <ele>475.826</ele>
        <time>2020-08-23T17:34:01Z</time>
      </trkpt>
      <trkpt lat="42.128706" lon="-0.391093">
        <ele>476.308</ele>
        <time>2020-08-23T17:34:03Z</time>
      </trkpt>
      <trkpt lat="42.128747" lon="-0.391194">
        <ele>476.633</ele>
        <time>2020-08-23T17:34:05Z</time>
      </trkpt>
      <trkpt lat="42.128768" lon="-0.391248">
        <ele>476.713</ele>
        <time>2020-08-23T17:34:06Z</time>
      </trkpt>
      <trkpt lat="42.128805" lon="-0.391347">
        <ele>476.681</ele>
        <time>2020-08-23T17:34:08Z</time>
      </trkpt>
      <trkpt lat="42.128841" lon="-0.391450">
        <ele>476.623</ele>
        <time>2020-08-23T17:34:10Z</time>
      </trkpt>
      <trkpt lat="42.128859" lon="-0.391508">
        <ele>476.664</ele>
        <time>2020-08-23T17:34:11Z</time>
      </trkpt>
      <trkpt lat="42.128880" lon="-0.391567">
        <ele>476.625</ele>
        <time>2020-08-23T17:34:12Z</time>
      </trkpt>
      <trkpt lat="42.128905" lon="-0.391628">
        <ele>476.661</ele>
        <time>2020-08-23T17:34:13Z</time>
      </trkpt>
      <trkpt lat="42.128926" lon="-0.391689">
        <ele>476.670</ele>
        <time>2020-08-23T17:34:14Z</time>
      </trkpt>
      <trkpt lat="42.128952" lon="-0.391801">
        <ele>476.641</ele>
        <time>2020-08-23T17:34:16Z</time>
      </trkpt>
      <trkpt lat="42.128989" lon="-0.391909">
        <ele>476.681</ele>
        <time>2020-08-23T17:34:18Z</time>
      </trkpt>
      <trkpt lat="42.129005" lon="-0.391966">
        <ele>476.609</ele>
        <time>2020-08-23T17:34:19Z</time>
      </trkpt>
      <trkpt lat="42.129020" lon="-0.392083">
        <ele>476.708</ele>
        <time>2020-08-23T17:34:21Z</time>
      </trkpt>
      <trkpt lat="42.129022" lon="-0.392146">
        <ele>476.819</ele>
        <time>2020-08-23T17:34:22Z</time>
      </trkpt>
      <trkpt lat="42.129024" lon="-0.392207">
        <ele>476.919</ele>
        <time>2020-08-23T17:34:23Z</time>
      </trkpt>
      <trkpt lat="42.129024" lon="-0.392308">
        <ele>476.827</ele>
        <time>2020-08-23T17:34:25Z</time>
      </trkpt>
      <trkpt lat="42.129019" lon="-0.392417">
        <ele>476.519</ele>
        <time>2020-08-23T17:34:27Z</time>
      </trkpt>
      <trkpt lat="42.129004" lon="-0.392519">
        <ele>476.210</ele>
        <time>2020-08-23T17:34:29Z</time>
      </trkpt>
      <trkpt lat="42.128986" lon="-0.392634">
        <ele>476.391</ele>
        <time>2020-08-23T17:34:31Z</time>
      </trkpt>
      <trkpt lat="42.128958" lon="-0.392746">
        <ele>476.557</ele>
        <time>2020-08-23T17:34:33Z</time>
      </trkpt>
      <trkpt lat="42.128948" lon="-0.392842">
        <ele>476.656</ele>
        <time>2020-08-23T17:34:35Z</time>
      </trkpt>
      <trkpt lat="42.128930" lon="-0.392943">
        <ele>476.727</ele>
        <time>2020-08-23T17:34:37Z</time>
      </trkpt>
      <trkpt lat="42.128918" lon="-0.393050">
        <ele>476.768</ele>
        <time>2020-08-23T17:34:39Z</time>
      </trkpt>
      <trkpt lat="42.128930" lon="-0.393155">
        <ele>476.614</ele>
        <time>2020-08-23T17:34:41Z</time>
      </trkpt>
      <trkpt lat="42.128954" lon="-0.393252">
        <ele>476.708</ele>
        <time>2020-08-23T17:34:43Z</time>
      </trkpt>
      <trkpt lat="42.128985" lon="-0.393354">
        <ele>476.987</ele>
        <time>2020-08-23T17:34:45Z</time>
      </trkpt>
      <trkpt lat="42.129027" lon="-0.393449">
        <ele>477.097</ele>
        <time>2020-08-23T17:34:47Z</time>
      </trkpt>
      <trkpt lat="42.129073" lon="-0.393547">
        <ele>477.025</ele>
        <time>2020-08-23T17:34:49Z</time>
      </trkpt>
      <trkpt lat="42.129120" lon="-0.393628">
        <ele>477.037</ele>
        <time>2020-08-23T17:34:51Z</time>
      </trkpt>
      <trkpt lat="42.129161" lon="-0.393725">
        <ele>477.278</ele>
        <time>2020-08-23T17:34:53Z</time>
      </trkpt>
      <trkpt lat="42.129202" lon="-0.393819">
        <ele>477.419</ele>
        <time>2020-08-23T17:34:55Z</time>
      </trkpt>
      <trkpt lat="42.129260" lon="-0.393906">
        <ele>477.495</ele>
        <time>2020-08-23T17:34:57Z</time>
      </trkpt>
      <trkpt lat="42.129304" lon="-0.393997">
        <ele>477.484</ele>
        <time>2020-08-23T17:34:59Z</time>
      </trkpt>
      <trkpt lat="42.129340" lon="-0.394106">
        <ele>477.523</ele>
        <time>2020-08-23T17:35:01Z</time>
      </trkpt>
      <trkpt lat="42.129364" lon="-0.394159">
        <ele>477.583</ele>
        <time>2020-08-23T17:35:02Z</time>
      </trkpt>
      <trkpt lat="42.129390" lon="-0.394215">
        <ele>477.611</ele>
        <time>2020-08-23T17:35:03Z</time>
      </trkpt>
      <trkpt lat="42.129430" lon="-0.394329">
        <ele>477.708</ele>
        <time>2020-08-23T17:35:05Z</time>
      </trkpt>
      <trkpt lat="42.129461" lon="-0.394433">
        <ele>477.857</ele>
        <time>2020-08-23T17:35:07Z</time>
      </trkpt>
      <trkpt lat="42.129489" lon="-0.394523">
        <ele>477.887</ele>
        <time>2020-08-23T17:35:09Z</time>
      </trkpt>
      <trkpt lat="42.129523" lon="-0.394609">
        <ele>478.075</ele>
        <time>2020-08-23T17:35:11Z</time>
      </trkpt>
      <trkpt lat="42.129553" lon="-0.394707">
        <ele>478.487</ele>
        <time>2020-08-23T17:35:13Z</time>
      </trkpt>
      <trkpt lat="42.129567" lon="-0.394767">
        <ele>478.688</ele>
        <time>2020-08-23T17:35:14Z</time>
      </trkpt>
      <trkpt lat="42.129584" lon="-0.394871">
        <ele>478.959</ele>
        <time>2020-08-23T17:35:16Z</time>
      </trkpt>
      <trkpt lat="42.129597" lon="-0.394930">
        <ele>479.025</ele>
        <time>2020-08-23T17:35:17Z</time>
      </trkpt>
      <trkpt lat="42.129592" lon="-0.395041">
        <ele>478.964</ele>
        <time>2020-08-23T17:35:19Z</time>
      </trkpt>
      <trkpt lat="42.129571" lon="-0.395137">
        <ele>478.773</ele>
        <time>2020-08-23T17:35:21Z</time>
      </trkpt>
      <trkpt lat="42.129557" lon="-0.395247">
        <ele>478.685</ele>
        <time>2020-08-23T17:35:23Z</time>
      </trkpt>
      <trkpt lat="42.129554" lon="-0.395309">
        <ele>478.613</ele>
        <time>2020-08-23T17:35:24Z</time>
      </trkpt>
      <trkpt lat="42.129538" lon="-0.395420">
        <ele>478.608</ele>
        <time>2020-08-23T17:35:26Z</time>
      </trkpt>
      <trkpt lat="42.129530" lon="-0.395536">
        <ele>478.732</ele>
        <time>2020-08-23T17:35:28Z</time>
      </trkpt>
      <trkpt lat="42.129539" lon="-0.395647">
        <ele>478.892</ele>
        <time>2020-08-23T17:35:30Z</time>
      </trkpt>
      <trkpt lat="42.129572" lon="-0.395740">
        <ele>479.040</ele>
        <time>2020-08-23T17:35:32Z</time>
      </trkpt>
      <trkpt lat="42.129603" lon="-0.395825">
        <ele>479.142</ele>
        <time>2020-08-23T17:35:34Z</time>
      </trkpt>
      <trkpt lat="42.129640" lon="-0.395917">
        <ele>479.163</ele>
        <time>2020-08-23T17:35:36Z</time>
      </trkpt>
      <trkpt lat="42.129676" lon="-0.395987">
        <ele>479.114</ele>
        <time>2020-08-23T17:35:38Z</time>
      </trkpt>
      <trkpt lat="42.129716" lon="-0.396068">
        <ele>479.390</ele>
        <time>2020-08-23T17:35:40Z</time>
      </trkpt>
      <trkpt lat="42.129758" lon="-0.396145">
        <ele>479.679</ele>
        <time>2020-08-23T17:35:42Z</time>
      </trkpt>
      <trkpt lat="42.129808" lon="-0.396224">
        <ele>479.686</ele>
        <time>2020-08-23T17:35:44Z</time>
      </trkpt>
      <trkpt lat="42.129848" lon="-0.396310">
        <ele>479.560</ele>
        <time>2020-08-23T17:35:46Z</time>
      </trkpt>
      <trkpt lat="42.129900" lon="-0.396389">
        <ele>479.426</ele>
        <time>2020-08-23T17:35:48Z</time>
      </trkpt>
      <trkpt lat="42.129942" lon="-0.396481">
        <ele>479.508</ele>
        <time>2020-08-23T17:35:50Z</time>
      </trkpt>
      <trkpt lat="42.129984" lon="-0.396570">
        <ele>479.653</ele>
        <time>2020-08-23T17:35:52Z</time>
      </trkpt>
      <trkpt lat="42.130005" lon="-0.396626">
        <ele>479.613</ele>
        <time>2020-08-23T17:35:53Z</time>
      </trkpt>
      <trkpt lat="42.130047" lon="-0.396723">
        <ele>479.691</ele>
        <time>2020-08-23T17:35:55Z</time>
      </trkpt>
      <trkpt lat="42.130085" lon="-0.396829">
        <ele>479.643</ele>
        <time>2020-08-23T17:35:57Z</time>
      </trkpt>
      <trkpt lat="42.130129" lon="-0.396902">
        <ele>479.594</ele>
        <time>2020-08-23T17:35:59Z</time>
      </trkpt>
      <trkpt lat="42.130178" lon="-0.396978">
        <ele>479.495</ele>
        <time>2020-08-23T17:36:01Z</time>
      </trkpt>
      <trkpt lat="42.130221" lon="-0.397053">
        <ele>479.171</ele>
        <time>2020-08-23T17:36:03Z</time>
      </trkpt>
      <trkpt lat="42.130266" lon="-0.397136">
        <ele>479.260</ele>
        <time>2020-08-23T17:36:05Z</time>
      </trkpt>
      <trkpt lat="42.130303" lon="-0.397232">
        <ele>479.315</ele>
        <time>2020-08-23T17:36:07Z</time>
      </trkpt>
      <trkpt lat="42.130340" lon="-0.397330">
        <ele>479.565</ele>
        <time>2020-08-23T17:36:09Z</time>
      </trkpt>
      <trkpt lat="42.130376" lon="-0.397407">
        <ele>479.511</ele>
        <time>2020-08-23T17:36:11Z</time>
      </trkpt>
      <trkpt lat="42.130411" lon="-0.397486">
        <ele>479.608</ele>
        <time>2020-08-23T17:36:13Z</time>
      </trkpt>
      <trkpt lat="42.130441" lon="-0.397558">
        <ele>479.876</ele>
        <time>2020-08-23T17:36:15Z</time>
      </trkpt>
      <trkpt lat="42.130480" lon="-0.397625">
        <ele>480.466</ele>
        <time>2020-08-23T17:36:17Z</time>
      </trkpt>
      <trkpt lat="42.130512" lon="-0.397694">
        <ele>480.574</ele>
        <time>2020-08-23T17:36:19Z</time>
      </trkpt>
      <trkpt lat="42.130562" lon="-0.397773">
        <ele>480.416</ele>
        <time>2020-08-23T17:36:21Z</time>
      </trkpt>
      <trkpt lat="42.130615" lon="-0.397852">
        <ele>480.477</ele>
        <time>2020-08-23T17:36:23Z</time>
      </trkpt>
      <trkpt lat="42.130660" lon="-0.397935">
        <ele>480.368</ele>
        <time>2020-08-23T17:36:25Z</time>
      </trkpt>
      <trkpt lat="42.130703" lon="-0.398028">
        <ele>480.144</ele>
        <time>2020-08-23T17:36:27Z</time>
      </trkpt>
      <trkpt lat="42.130732" lon="-0.398119">
        <ele>480.293</ele>
        <time>2020-08-23T17:36:29Z</time>
      </trkpt>
      <trkpt lat="42.130759" lon="-0.398196">
        <ele>480.641</ele>
        <time>2020-08-23T17:36:31Z</time>
      </trkpt>
      <trkpt lat="42.130760" lon="-0.398290">
        <ele>480.681</ele>
        <time>2020-08-23T17:36:33Z</time>
      </trkpt>
      <trkpt lat="42.130789" lon="-0.398338">
        <ele>480.609</ele>
        <time>2020-08-23T17:36:34Z</time>
      </trkpt>
      <trkpt lat="42.130846" lon="-0.398420">
        <ele>480.708</ele>
        <time>2020-08-23T17:36:36Z</time>
      </trkpt>
      <trkpt lat="42.130871" lon="-0.398471">
        <ele>480.779</ele>
        <time>2020-08-23T17:36:37Z</time>
      </trkpt>
      <trkpt lat="42.130912" lon="-0.398551">
        <ele>480.779</ele>
        <time>2020-08-23T17:36:39Z</time>
      </trkpt>
      <trkpt lat="42.130951" lon="-0.398639">
        <ele>480.717</ele>
        <time>2020-08-23T17:36:41Z</time>
      </trkpt>
      <trkpt lat="42.130979" lon="-0.398687">
        <ele>480.749</ele>
        <time>2020-08-23T17:36:42Z</time>
      </trkpt>
      <trkpt lat="42.131005" lon="-0.398737">
        <ele>480.740</ele>
        <time>2020-08-23T17:36:43Z</time>
      </trkpt>
      <trkpt lat="42.131054" lon="-0.398829">
        <ele>480.721</ele>
        <time>2020-08-23T17:36:45Z</time>
      </trkpt>
      <trkpt lat="42.131097" lon="-0.398927">
        <ele>480.867</ele>
        <time>2020-08-23T17:36:47Z</time>
      </trkpt>
      <trkpt lat="42.131127" lon="-0.399017">
        <ele>480.866</ele>
        <time>2020-08-23T17:36:49Z</time>
      </trkpt>
      <trkpt lat="42.131159" lon="-0.399088">
        <ele>480.716</ele>
        <time>2020-08-23T17:36:51Z</time>
      </trkpt>
      <trkpt lat="42.131194" lon="-0.399170">
        <ele>480.776</ele>
        <time>2020-08-23T17:36:53Z</time>
      </trkpt>
      <trkpt lat="42.131248" lon="-0.399261">
        <ele>481.013</ele>
        <time>2020-08-23T17:36:55Z</time>
      </trkpt>
      <trkpt lat="42.131299" lon="-0.399353">
        <ele>481.108</ele>
        <time>2020-08-23T17:36:57Z</time>
      </trkpt>
      <trkpt lat="42.131349" lon="-0.399457">
        <ele>481.236</ele>
        <time>2020-08-23T17:36:59Z</time>
      </trkpt>
      <trkpt lat="42.131376" lon="-0.399506">
        <ele>481.226</ele>
        <time>2020-08-23T17:37:00Z</time>
      </trkpt>
      <trkpt lat="42.131421" lon="-0.399585">
        <ele>481.324</ele>
        <time>2020-08-23T17:37:02Z</time>
      </trkpt>
      <trkpt lat="42.131462" lon="-0.399666">
        <ele>481.486</ele>
        <time>2020-08-23T17:37:04Z</time>
      </trkpt>
      <trkpt lat="42.131503" lon="-0.399754">
        <ele>481.477</ele>
        <time>2020-08-23T17:37:06Z</time>
      </trkpt>
      <trkpt lat="42.131552" lon="-0.399853">
        <ele>481.558</ele>
        <time>2020-08-23T17:37:08Z</time>
      </trkpt>
      <trkpt lat="42.131597" lon="-0.399948">
        <ele>481.764</ele>
        <time>2020-08-23T17:37:10Z</time>
      </trkpt>
      <trkpt lat="42.131622" lon="-0.400000">
        <ele>481.833</ele>
        <time>2020-08-23T17:37:11Z</time>
      </trkpt>
      <trkpt lat="42.131650" lon="-0.400049">
        <ele>481.851</ele>
        <time>2020-08-23T17:37:12Z</time>
      </trkpt>
      <trkpt lat="42.131693" lon="-0.400135">
        <ele>482.001</ele>
        <time>2020-08-23T17:37:14Z</time>
      </trkpt>
      <trkpt lat="42.131725" lon="-0.400217">
        <ele>482.311</ele>
        <time>2020-08-23T17:37:16Z</time>
      </trkpt>
      <trkpt lat="42.131772" lon="-0.400312">
        <ele>482.408</ele>
        <time>2020-08-23T17:37:18Z</time>
      </trkpt>
      <trkpt lat="42.131808" lon="-0.400412">
        <ele>482.260</ele>
        <time>2020-08-23T17:37:20Z</time>
      </trkpt>
      <trkpt lat="42.131850" lon="-0.400502">
        <ele>482.090</ele>
        <time>2020-08-23T17:37:22Z</time>
      </trkpt>
      <trkpt lat="42.131881" lon="-0.400611">
        <ele>482.198</ele>
        <time>2020-08-23T17:37:24Z</time>
      </trkpt>
      <trkpt lat="42.131908" lon="-0.400706">
        <ele>482.430</ele>
        <time>2020-08-23T17:37:26Z</time>
      </trkpt>
      <trkpt lat="42.131946" lon="-0.400801">
        <ele>482.741</ele>
        <time>2020-08-23T17:37:28Z</time>
      </trkpt>
      <trkpt lat="42.131972" lon="-0.400854">
        <ele>482.752</ele>
        <time>2020-08-23T17:37:29Z</time>
      </trkpt>
      <trkpt lat="42.132003" lon="-0.400901">
        <ele>482.718</ele>
        <time>2020-08-23T17:37:30Z</time>
      </trkpt>
      <trkpt lat="42.132052" lon="-0.401001">
        <ele>482.677</ele>
        <time>2020-08-23T17:37:32Z</time>
      </trkpt>
      <trkpt lat="42.132088" lon="-0.401097">
        <ele>482.651</ele>
        <time>2020-08-23T17:37:34Z</time>
      </trkpt>
      <trkpt lat="42.132130" lon="-0.401185">
        <ele>482.701</ele>
        <time>2020-08-23T17:37:36Z</time>
      </trkpt>
      <trkpt lat="42.132177" lon="-0.401274">
        <ele>482.811</ele>
        <time>2020-08-23T17:37:38Z</time>
      </trkpt>
      <trkpt lat="42.132215" lon="-0.401369">
        <ele>482.808</ele>
        <time>2020-08-23T17:37:40Z</time>
      </trkpt>
      <trkpt lat="42.132260" lon="-0.401452">
        <ele>482.820</ele>
        <time>2020-08-23T17:37:42Z</time>
      </trkpt>
      <trkpt lat="42.132292" lon="-0.401534">
        <ele>482.810</ele>
        <time>2020-08-23T17:37:44Z</time>
      </trkpt>
      <trkpt lat="42.132333" lon="-0.401604">
        <ele>482.858</ele>
        <time>2020-08-23T17:37:46Z</time>
      </trkpt>
      <trkpt lat="42.132373" lon="-0.401640">
        <ele>482.840</ele>
        <time>2020-08-23T17:37:48Z</time>
      </trkpt>
      <trkpt lat="42.132420" lon="-0.401661">
        <ele>482.811</ele>
        <time>2020-08-23T17:37:51Z</time>
      </trkpt>
    </trkseg>
  </trk>
</gpx>
